<?xml version="1.0" encoding="UTF-8"?>
<TrainingCenterDatabase xmlns="http://www.garmin.com/xmlschemas/TrainingCenterDatabase/v2" xmlns:xsi="http://www.w3.org/2001/XMLSchema-instance" xsi:schemaLocation="http://www.garmin.com/xmlschemas/TrainingCenterDatabase/v2 http://www.garmin.com/xmlschemas/TrainingCenterDatabasev2.xsd">
  <Activities>
    <Activity Sport="Other">
      <Id>2020-03-07T12:49:54.000Z</Id>
      <Lap StartTime="2020-03-07T12:49:54.000Z">
        <TotalTimeSeconds>19743</TotalTimeSeconds>
        <DistanceMeters>115970</DistanceMeters>
        <Track>
          <Trackpoint>
            <Time>2020-03-07T12:49:54.000Z</Time>
            <Position>
              <LatitudeDegrees>40.5495244078338146209716796875</LatitudeDegrees>
              <LongitudeDegrees>-3.66256118752062320709228515625</LongitudeDegrees>
            </Position>
            <AltitudeMeters>719.4000244140625</AltitudeMeters>
            <DistanceMeters>0</DistanceMeters>
          </Trackpoint>
          <Trackpoint>
            <Time>2020-03-07T12:49:55.000Z</Time>
            <Position>
              <LatitudeDegrees>40.54952113889157772064208984375</LatitudeDegrees>
              <LongitudeDegrees>-3.66259354166686534881591796875</LongitudeDegrees>
            </Position>
            <AltitudeMeters>719.4000244140625</AltitudeMeters>
            <DistanceMeters>2.7606855160807</DistanceMeters>
          </Trackpoint>
          <Trackpoint>
            <Time>2020-03-07T12:49:56.000Z</Time>
            <Position>
              <LatitudeDegrees>40.5495042912662029266357421875</LatitudeDegrees>
              <LongitudeDegrees>-3.6626276560127735137939453125</LongitudeDegrees>
            </Position>
            <AltitudeMeters>719.4000244140625</AltitudeMeters>
            <DistanceMeters>6.2026995042086</DistanceMeters>
          </Trackpoint>
          <Trackpoint>
            <Time>2020-03-07T12:49:57.000Z</Time>
            <Position>
              <LatitudeDegrees>40.5494791455566883087158203125</LatitudeDegrees>
              <LongitudeDegrees>-3.6626625247299671173095703125</LongitudeDegrees>
            </Position>
            <AltitudeMeters>719.4000244140625</AltitudeMeters>
            <DistanceMeters>10.267799735745</DistanceMeters>
          </Trackpoint>
          <Trackpoint>
            <Time>2020-03-07T12:49:58.000Z</Time>
            <Position>
              <LatitudeDegrees>40.54945148527622222900390625</LatitudeDegrees>
              <LongitudeDegrees>-3.66270720027387142181396484375</LongitudeDegrees>
            </Position>
            <AltitudeMeters>719.4000244140625</AltitudeMeters>
            <DistanceMeters>15.142031072484</DistanceMeters>
          </Trackpoint>
          <Trackpoint>
            <Time>2020-03-07T12:49:59.000Z</Time>
            <Position>
              <LatitudeDegrees>40.54942524991929531097412109375</LatitudeDegrees>
              <LongitudeDegrees>-3.662759922444820404052734375</LongitudeDegrees>
            </Position>
            <AltitudeMeters>719.4000244140625</AltitudeMeters>
            <DistanceMeters>20.47200485222</DistanceMeters>
          </Trackpoint>
          <Trackpoint>
            <Time>2020-03-07T12:50:00.000Z</Time>
            <Position>
              <LatitudeDegrees>40.5494047142565250396728515625</LatitudeDegrees>
              <LongitudeDegrees>-3.6628214456140995025634765625</LongitudeDegrees>
            </Position>
            <AltitudeMeters>719.4000244140625</AltitudeMeters>
            <DistanceMeters>26.1561594522</DistanceMeters>
          </Trackpoint>
          <Trackpoint>
            <Time>2020-03-07T12:50:01.000Z</Time>
            <Position>
              <LatitudeDegrees>40.54939222522079944610595703125</LatitudeDegrees>
              <LongitudeDegrees>-3.66288942284882068634033203125</LongitudeDegrees>
            </Position>
            <AltitudeMeters>719.4000244140625</AltitudeMeters>
            <DistanceMeters>32.070761395178</DistanceMeters>
          </Trackpoint>
          <Trackpoint>
            <Time>2020-03-07T12:50:02.000Z</Time>
            <Position>
              <LatitudeDegrees>40.549390800297260284423828125</LatitudeDegrees>
              <LongitudeDegrees>-3.6629612557590007781982421875</LongitudeDegrees>
            </Position>
            <AltitudeMeters>719.4000244140625</AltitudeMeters>
            <DistanceMeters>38.147272119215</DistanceMeters>
          </Trackpoint>
          <Trackpoint>
            <Time>2020-03-07T12:50:03.000Z</Time>
            <Position>
              <LatitudeDegrees>40.54940077476203441619873046875</LatitudeDegrees>
              <LongitudeDegrees>-3.66303375922143459320068359375</LongitudeDegrees>
            </Position>
            <AltitudeMeters>719.20001220703125</AltitudeMeters>
            <DistanceMeters>44.378590495691</DistanceMeters>
          </Trackpoint>
          <Trackpoint>
            <Time>2020-03-07T12:50:04.000Z</Time>
            <Position>
              <LatitudeDegrees>40.54942340590059757232666015625</LatitudeDegrees>
              <LongitudeDegrees>-3.66310232318937778472900390625</LongitudeDegrees>
            </Position>
            <AltitudeMeters>719.20001220703125</AltitudeMeters>
            <DistanceMeters>50.700545758182</DistanceMeters>
          </Trackpoint>
          <Trackpoint>
            <Time>2020-03-07T12:50:05.000Z</Time>
            <Position>
              <LatitudeDegrees>40.549456514418125152587890625</LatitudeDegrees>
              <LongitudeDegrees>-3.6631651036441326141357421875</LongitudeDegrees>
            </Position>
            <AltitudeMeters>719.20001220703125</AltitudeMeters>
            <DistanceMeters>57.163759635948</DistanceMeters>
          </Trackpoint>
          <Trackpoint>
            <Time>2020-03-07T12:50:06.000Z</Time>
            <Position>
              <LatitudeDegrees>40.54949616082012653350830078125</LatitudeDegrees>
              <LongitudeDegrees>-3.66322360932826995849609375</LongitudeDegrees>
            </Position>
            <AltitudeMeters>719.20001220703125</AltitudeMeters>
            <DistanceMeters>63.793873671858</DistanceMeters>
          </Trackpoint>
          <Trackpoint>
            <Time>2020-03-07T12:50:07.000Z</Time>
            <Position>
              <LatitudeDegrees>40.54953907616436481475830078125</LatitudeDegrees>
              <LongitudeDegrees>-3.6632787622511386871337890625</LongitudeDegrees>
            </Position>
            <AltitudeMeters>719.20001220703125</AltitudeMeters>
            <DistanceMeters>70.47013440129</DistanceMeters>
          </Trackpoint>
          <Trackpoint>
            <Time>2020-03-07T12:50:08.000Z</Time>
            <Position>
              <LatitudeDegrees>40.5495835840702056884765625</LatitudeDegrees>
              <LongitudeDegrees>-3.66333098150789737701416015625</LongitudeDegrees>
            </Position>
            <AltitudeMeters>719.4000244140625</AltitudeMeters>
            <DistanceMeters>77.107054838783</DistanceMeters>
          </Trackpoint>
          <Trackpoint>
            <Time>2020-03-07T12:50:09.000Z</Time>
            <Position>
              <LatitudeDegrees>40.5496296845376491546630859375</LatitudeDegrees>
              <LongitudeDegrees>-3.66338144056499004364013671875</LongitudeDegrees>
            </Position>
            <AltitudeMeters>719.4000244140625</AltitudeMeters>
            <DistanceMeters>83.780609889998</DistanceMeters>
          </Trackpoint>
          <Trackpoint>
            <Time>2020-03-07T12:50:10.000Z</Time>
            <Position>
              <LatitudeDegrees>40.54967570118606090545654296875</LatitudeDegrees>
              <LongitudeDegrees>-3.663433492183685302734375</LongitudeDegrees>
            </Position>
            <AltitudeMeters>719.4000244140625</AltitudeMeters>
            <DistanceMeters>90.533526744363</DistanceMeters>
          </Trackpoint>
          <Trackpoint>
            <Time>2020-03-07T12:50:11.000Z</Time>
            <Position>
              <LatitudeDegrees>40.54972079582512378692626953125</LatitudeDegrees>
              <LongitudeDegrees>-3.6634873040020465850830078125</LongitudeDegrees>
            </Position>
            <AltitudeMeters>719.4000244140625</AltitudeMeters>
            <DistanceMeters>97.308471656657</DistanceMeters>
          </Trackpoint>
          <Trackpoint>
            <Time>2020-03-07T12:50:12.000Z</Time>
            <Position>
              <LatitudeDegrees>40.54976488463580608367919921875</LatitudeDegrees>
              <LongitudeDegrees>-3.66354287602007389068603515625</LongitudeDegrees>
            </Position>
            <AltitudeMeters>719.5999755859375</AltitudeMeters>
            <DistanceMeters>104.10338010769</DistanceMeters>
          </Trackpoint>
          <Trackpoint>
            <Time>2020-03-07T12:50:13.000Z</Time>
            <Position>
              <LatitudeDegrees>40.54980763234198093414306640625</LatitudeDegrees>
              <LongitudeDegrees>-3.6636012978851795196533203125</LongitudeDegrees>
            </Position>
            <AltitudeMeters>719.5999755859375</AltitudeMeters>
            <DistanceMeters>110.96243968412</DistanceMeters>
          </Trackpoint>
          <Trackpoint>
            <Time>2020-03-07T12:50:14.000Z</Time>
            <Position>
              <LatitudeDegrees>40.549848787486553192138671875</LatitudeDegrees>
              <LongitudeDegrees>-3.663662485778331756591796875</LongitudeDegrees>
            </Position>
            <AltitudeMeters>719.5999755859375</AltitudeMeters>
            <DistanceMeters>117.87265272249</DistanceMeters>
          </Trackpoint>
          <Trackpoint>
            <Time>2020-03-07T12:50:15.000Z</Time>
            <Position>
              <LatitudeDegrees>40.54988927207887172698974609375</LatitudeDegrees>
              <LongitudeDegrees>-3.66372509859502315521240234375</LongitudeDegrees>
            </Position>
            <AltitudeMeters>719.79998779296875</AltitudeMeters>
            <DistanceMeters>124.8258555299</DistanceMeters>
          </Trackpoint>
          <Trackpoint>
            <Time>2020-03-07T12:50:16.000Z</Time>
            <Position>
              <LatitudeDegrees>40.549928583204746246337890625</LatitudeDegrees>
              <LongitudeDegrees>-3.66378796286880970001220703125</LongitudeDegrees>
            </Position>
            <AltitudeMeters>720</AltitudeMeters>
            <DistanceMeters>131.71119512434</DistanceMeters>
          </Trackpoint>
          <Trackpoint>
            <Time>2020-03-07T12:50:17.000Z</Time>
            <Position>
              <LatitudeDegrees>40.549968145787715911865234375</LatitudeDegrees>
              <LongitudeDegrees>-3.66385183297097682952880859375</LongitudeDegrees>
            </Position>
            <AltitudeMeters>720.4000244140625</AltitudeMeters>
            <DistanceMeters>138.67996482319</DistanceMeters>
          </Trackpoint>
          <Trackpoint>
            <Time>2020-03-07T12:50:18.000Z</Time>
            <Position>
              <LatitudeDegrees>40.5500072054564952850341796875</LatitudeDegrees>
              <LongitudeDegrees>-3.663917295634746551513671875</LongitudeDegrees>
            </Position>
            <AltitudeMeters>720.5999755859375</AltitudeMeters>
            <DistanceMeters>145.71964233884</DistanceMeters>
          </Trackpoint>
          <Trackpoint>
            <Time>2020-03-07T12:50:19.000Z</Time>
            <Position>
              <LatitudeDegrees>40.55004450492560863494873046875</LatitudeDegrees>
              <LongitudeDegrees>-3.66398510523140430450439453125</LongitudeDegrees>
            </Position>
            <AltitudeMeters>720.79998779296875</AltitudeMeters>
            <DistanceMeters>152.79897311681</DistanceMeters>
          </Trackpoint>
          <Trackpoint>
            <Time>2020-03-07T12:50:20.000Z</Time>
            <Position>
              <LatitudeDegrees>40.55008004419505596160888671875</LatitudeDegrees>
              <LongitudeDegrees>-3.66405467502772808074951171875</LongitudeDegrees>
            </Position>
            <AltitudeMeters>721.20001220703125</AltitudeMeters>
            <DistanceMeters>159.88913782319</DistanceMeters>
          </Trackpoint>
          <Trackpoint>
            <Time>2020-03-07T12:50:21.000Z</Time>
            <Position>
              <LatitudeDegrees>40.550113655626773834228515625</LatitudeDegrees>
              <LongitudeDegrees>-3.66412592120468616485595703125</LongitudeDegrees>
            </Position>
            <AltitudeMeters>721.5999755859375</AltitudeMeters>
            <DistanceMeters>166.98248583</DistanceMeters>
          </Trackpoint>
          <Trackpoint>
            <Time>2020-03-07T12:50:22.000Z</Time>
            <Position>
              <LatitudeDegrees>40.5501453392207622528076171875</LatitudeDegrees>
              <LongitudeDegrees>-3.66419817321002483367919921875</LongitudeDegrees>
            </Position>
            <AltitudeMeters>721.79998779296875</AltitudeMeters>
            <DistanceMeters>174.03753943426</DistanceMeters>
          </Trackpoint>
          <Trackpoint>
            <Time>2020-03-07T12:50:23.000Z</Time>
            <Position>
              <LatitudeDegrees>40.55017526261508464813232421875</LatitudeDegrees>
              <LongitudeDegrees>-3.6642716825008392333984375</LongitudeDegrees>
            </Position>
            <AltitudeMeters>721.79998779296875</AltitudeMeters>
            <DistanceMeters>181.09003268512</DistanceMeters>
          </Trackpoint>
          <Trackpoint>
            <Time>2020-03-07T12:50:24.000Z</Time>
            <Position>
              <LatitudeDegrees>40.5502023361623287200927734375</LatitudeDegrees>
              <LongitudeDegrees>-3.664347119629383087158203125</LongitudeDegrees>
            </Position>
            <AltitudeMeters>722</AltitudeMeters>
            <DistanceMeters>188.14508628938</DistanceMeters>
          </Trackpoint>
          <Trackpoint>
            <Time>2020-03-07T12:50:25.000Z</Time>
            <Position>
              <LatitudeDegrees>40.55022840388119220733642578125</LatitudeDegrees>
              <LongitudeDegrees>-3.66442297585308551788330078125</LongitudeDegrees>
            </Position>
            <AltitudeMeters>722.20001220703125</AltitudeMeters>
            <DistanceMeters>195.18604642826</DistanceMeters>
          </Trackpoint>
          <Trackpoint>
            <Time>2020-03-07T12:50:26.000Z</Time>
            <Position>
              <LatitudeDegrees>40.55025371722877025604248046875</LatitudeDegrees>
              <LongitudeDegrees>-3.66449908353388309478759765625</LongitudeDegrees>
            </Position>
            <AltitudeMeters>722.20001220703125</AltitudeMeters>
            <DistanceMeters>202.21224226379</DistanceMeters>
          </Trackpoint>
          <Trackpoint>
            <Time>2020-03-07T12:50:27.000Z</Time>
            <Position>
              <LatitudeDegrees>40.55027760565280914306640625</LatitudeDegrees>
              <LongitudeDegrees>-3.66457678377628326416015625</LongitudeDegrees>
            </Position>
            <AltitudeMeters>722.4000244140625</AltitudeMeters>
            <DistanceMeters>209.30113324973</DistanceMeters>
          </Trackpoint>
          <Trackpoint>
            <Time>2020-03-07T12:50:28.000Z</Time>
            <Position>
              <LatitudeDegrees>40.55029965005815029144287109375</LatitudeDegrees>
              <LongitudeDegrees>-3.66465632803738117218017578125</LongitudeDegrees>
            </Position>
            <AltitudeMeters>722.4000244140625</AltitudeMeters>
            <DistanceMeters>216.46100363769</DistanceMeters>
          </Trackpoint>
          <Trackpoint>
            <Time>2020-03-07T12:50:29.000Z</Time>
            <Position>
              <LatitudeDegrees>40.55032052099704742431640625</LatitudeDegrees>
              <LongitudeDegrees>-3.6647375486791133880615234375</LongitudeDegrees>
            </Position>
            <AltitudeMeters>722.4000244140625</AltitudeMeters>
            <DistanceMeters>223.71173498402</DistanceMeters>
          </Trackpoint>
          <Trackpoint>
            <Time>2020-03-07T12:50:30.000Z</Time>
            <Position>
              <LatitudeDegrees>40.5503414757549762725830078125</LatitudeDegrees>
              <LongitudeDegrees>-3.664819858968257904052734375</LongitudeDegrees>
            </Position>
            <AltitudeMeters>722.4000244140625</AltitudeMeters>
            <DistanceMeters>231.05281775276</DistanceMeters>
          </Trackpoint>
          <Trackpoint>
            <Time>2020-03-07T12:50:31.000Z</Time>
            <Position>
              <LatitudeDegrees>40.55036268197000026702880859375</LatitudeDegrees>
              <LongitudeDegrees>-3.6649021692574024200439453125</LongitudeDegrees>
            </Position>
            <AltitudeMeters>722.4000244140625</AltitudeMeters>
            <DistanceMeters>238.40312028832</DistanceMeters>
          </Trackpoint>
          <Trackpoint>
            <Time>2020-03-07T12:50:32.000Z</Time>
            <Position>
              <LatitudeDegrees>40.55038355290889739990234375</LatitudeDegrees>
              <LongitudeDegrees>-3.6649851500988006591796875</LongitudeDegrees>
            </Position>
            <AltitudeMeters>722.5999755859375</AltitudeMeters>
            <DistanceMeters>245.79568565082</DistanceMeters>
          </Trackpoint>
          <Trackpoint>
            <Time>2020-03-07T12:50:33.000Z</Time>
            <Position>
              <LatitudeDegrees>40.55040408857166767120361328125</LatitudeDegrees>
              <LongitudeDegrees>-3.6650691367685794830322265625</LongitudeDegrees>
            </Position>
            <AltitudeMeters>722.5999755859375</AltitudeMeters>
            <DistanceMeters>253.25755213002</DistanceMeters>
          </Trackpoint>
          <Trackpoint>
            <Time>2020-03-07T12:50:34.000Z</Time>
            <Position>
              <LatitudeDegrees>40.55042403750121593475341796875</LatitudeDegrees>
              <LongitudeDegrees>-3.66515337489545345306396484375</LongitudeDegrees>
            </Position>
            <AltitudeMeters>722.5999755859375</AltitudeMeters>
            <DistanceMeters>260.71941860922</DistanceMeters>
          </Trackpoint>
          <Trackpoint>
            <Time>2020-03-07T12:50:35.000Z</Time>
            <Position>
              <LatitudeDegrees>40.55044532753527164459228515625</LatitudeDegrees>
              <LongitudeDegrees>-3.66523719392716884613037109375</LongitudeDegrees>
            </Position>
            <AltitudeMeters>722.5999755859375</AltitudeMeters>
            <DistanceMeters>268.19337692341</DistanceMeters>
          </Trackpoint>
          <Trackpoint>
            <Time>2020-03-07T12:50:36.000Z</Time>
            <Position>
              <LatitudeDegrees>40.55046745575964450836181640625</LatitudeDegrees>
              <LongitudeDegrees>-3.66531975567340850830078125</LongitudeDegrees>
            </Position>
            <AltitudeMeters>722.5999755859375</AltitudeMeters>
            <DistanceMeters>275.59692769415</DistanceMeters>
          </Trackpoint>
          <Trackpoint>
            <Time>2020-03-07T12:50:37.000Z</Time>
            <Position>
              <LatitudeDegrees>40.55048975162208080291748046875</LatitudeDegrees>
              <LongitudeDegrees>-3.665401898324489593505859375</LongitudeDegrees>
            </Position>
            <AltitudeMeters>722.5999755859375</AltitudeMeters>
            <DistanceMeters>282.97420840778</DistanceMeters>
          </Trackpoint>
          <Trackpoint>
            <Time>2020-03-07T12:50:38.000Z</Time>
            <Position>
              <LatitudeDegrees>40.5505111254751682281494140625</LatitudeDegrees>
              <LongitudeDegrees>-3.66548378951847553253173828125</LongitudeDegrees>
            </Position>
            <AltitudeMeters>722.79998779296875</AltitudeMeters>
            <DistanceMeters>290.29743338047</DistanceMeters>
          </Trackpoint>
          <Trackpoint>
            <Time>2020-03-07T12:50:39.000Z</Time>
            <Position>
              <LatitudeDegrees>40.550530739128589630126953125</LatitudeDegrees>
              <LongitudeDegrees>-3.66556609980762004852294921875</LongitudeDegrees>
            </Position>
            <AltitudeMeters>722.79998779296875</AltitudeMeters>
            <DistanceMeters>297.59286143924</DistanceMeters>
          </Trackpoint>
          <Trackpoint>
            <Time>2020-03-07T12:50:40.000Z</Time>
            <Position>
              <LatitudeDegrees>40.55054993368685245513916015625</LatitudeDegrees>
              <LongitudeDegrees>-3.6656476557254791259765625</LongitudeDegrees>
            </Position>
            <AltitudeMeters>722.79998779296875</AltitudeMeters>
            <DistanceMeters>304.8136412716</DistanceMeters>
          </Trackpoint>
          <Trackpoint>
            <Time>2020-03-07T12:50:41.000Z</Time>
            <Position>
              <LatitudeDegrees>40.55056971497833728790283203125</LatitudeDegrees>
              <LongitudeDegrees>-3.6657281219959259033203125</LongitudeDegrees>
            </Position>
            <AltitudeMeters>723</AltitudeMeters>
            <DistanceMeters>311.96657165931</DistanceMeters>
          </Trackpoint>
          <Trackpoint>
            <Time>2020-03-07T12:50:42.000Z</Time>
            <Position>
              <LatitudeDegrees>40.5505899153649806976318359375</LatitudeDegrees>
              <LongitudeDegrees>-3.6658074147999286651611328125</LongitudeDegrees>
            </Position>
            <AltitudeMeters>723</AltitudeMeters>
            <DistanceMeters>319.03952178634</DistanceMeters>
          </Trackpoint>
          <Trackpoint>
            <Time>2020-03-07T12:50:43.000Z</Time>
            <Position>
              <LatitudeDegrees>40.55061145685613155364990234375</LatitudeDegrees>
              <LongitudeDegrees>-3.66588628850877285003662109375</LongitudeDegrees>
            </Position>
            <AltitudeMeters>723</AltitudeMeters>
            <DistanceMeters>326.12841277229</DistanceMeters>
          </Trackpoint>
          <Trackpoint>
            <Time>2020-03-07T12:50:44.000Z</Time>
            <Position>
              <LatitudeDegrees>40.55063433945178985595703125</LatitudeDegrees>
              <LongitudeDegrees>-3.665963821113109588623046875</LongitudeDegrees>
            </Position>
            <AltitudeMeters>723</AltitudeMeters>
            <DistanceMeters>333.16295745641</DistanceMeters>
          </Trackpoint>
          <Trackpoint>
            <Time>2020-03-07T12:50:45.000Z</Time>
            <Position>
              <LatitudeDegrees>40.550656802952289581298828125</LatitudeDegrees>
              <LongitudeDegrees>-3.6660414375364780426025390625</LongitudeDegrees>
            </Position>
            <AltitudeMeters>723</AltitudeMeters>
            <DistanceMeters>340.18722522535</DistanceMeters>
          </Trackpoint>
          <Trackpoint>
            <Time>2020-03-07T12:50:46.000Z</Time>
            <Position>
              <LatitudeDegrees>40.55067800916731357574462890625</LatitudeDegrees>
              <LongitudeDegrees>-3.6661195568740367889404296875</LongitudeDegrees>
            </Position>
            <AltitudeMeters>723</AltitudeMeters>
            <DistanceMeters>347.20313191629</DistanceMeters>
          </Trackpoint>
          <Trackpoint>
            <Time>2020-03-07T12:50:47.000Z</Time>
            <Position>
              <LatitudeDegrees>40.550699718296527862548828125</LatitudeDegrees>
              <LongitudeDegrees>-3.66619725711643695831298828125</LongitudeDegrees>
            </Position>
            <AltitudeMeters>723.20001220703125</AltitudeMeters>
            <DistanceMeters>354.20551116128</DistanceMeters>
          </Trackpoint>
          <Trackpoint>
            <Time>2020-03-07T12:50:48.000Z</Time>
            <Position>
              <LatitudeDegrees>40.5507213436067104339599609375</LatitudeDegrees>
              <LongitudeDegrees>-3.66627453826367855072021484375</LongitudeDegrees>
            </Position>
            <AltitudeMeters>723.20001220703125</AltitudeMeters>
            <DistanceMeters>361.1703923991</DistanceMeters>
          </Trackpoint>
          <Trackpoint>
            <Time>2020-03-07T12:50:49.000Z</Time>
            <Position>
              <LatitudeDegrees>40.55074162781238555908203125</LatitudeDegrees>
              <LongitudeDegrees>-3.6663515679538249969482421875</LongitudeDegrees>
            </Position>
            <AltitudeMeters>723.20001220703125</AltitudeMeters>
            <DistanceMeters>368.06490633418</DistanceMeters>
          </Trackpoint>
          <Trackpoint>
            <Time>2020-03-07T12:50:50.000Z</Time>
            <Position>
              <LatitudeDegrees>40.5507622472941875457763671875</LatitudeDegrees>
              <LongitudeDegrees>-3.66642675362527370452880859375</LongitudeDegrees>
            </Position>
            <AltitudeMeters>723.4000244140625</AltitudeMeters>
            <DistanceMeters>374.82450593818</DistanceMeters>
          </Trackpoint>
          <Trackpoint>
            <Time>2020-03-07T12:50:51.000Z</Time>
            <Position>
              <LatitudeDegrees>40.55078328587114810943603515625</LatitudeDegrees>
              <LongitudeDegrees>-3.6665004305541515350341796875</LongitudeDegrees>
            </Position>
            <AltitudeMeters>723.5999755859375</AltitudeMeters>
            <DistanceMeters>381.48044727161</DistanceMeters>
          </Trackpoint>
          <Trackpoint>
            <Time>2020-03-07T12:50:52.000Z</Time>
            <Position>
              <LatitudeDegrees>40.5508031509816646575927734375</LatitudeDegrees>
              <LongitudeDegrees>-3.6665735207498073577880859375</LongitudeDegrees>
            </Position>
            <AltitudeMeters>723.79998779296875</AltitudeMeters>
            <DistanceMeters>388.0448607862</DistanceMeters>
          </Trackpoint>
          <Trackpoint>
            <Time>2020-03-07T12:50:53.000Z</Time>
            <Position>
              <LatitudeDegrees>40.55082167498767375946044921875</LatitudeDegrees>
              <LongitudeDegrees>-3.66664619185030460357666015625</LongitudeDegrees>
            </Position>
            <AltitudeMeters>724</AltitudeMeters>
            <DistanceMeters>394.52690874141</DistanceMeters>
          </Trackpoint>
          <Trackpoint>
            <Time>2020-03-07T12:50:54.000Z</Time>
            <Position>
              <LatitudeDegrees>40.550839193165302276611328125</LatitudeDegrees>
              <LongitudeDegrees>-3.66671827621757984161376953125</LongitudeDegrees>
            </Position>
            <AltitudeMeters>724</AltitudeMeters>
            <DistanceMeters>400.92623657122</DistanceMeters>
          </Trackpoint>
          <Trackpoint>
            <Time>2020-03-07T12:50:55.000Z</Time>
            <Position>
              <LatitudeDegrees>40.55085788480937480926513671875</LatitudeDegrees>
              <LongitudeDegrees>-3.66678893566131591796875</LongitudeDegrees>
            </Position>
            <AltitudeMeters>724.4000244140625</AltitudeMeters>
            <DistanceMeters>407.25318914541</DistanceMeters>
          </Trackpoint>
          <Trackpoint>
            <Time>2020-03-07T12:50:56.000Z</Time>
            <Position>
              <LatitudeDegrees>40.5508765764534473419189453125</LatitudeDegrees>
              <LongitudeDegrees>-3.6668581701815128326416015625</LongitudeDegrees>
            </Position>
            <AltitudeMeters>724.79998779296875</AltitudeMeters>
            <DistanceMeters>413.4670934635</DistanceMeters>
          </Trackpoint>
          <Trackpoint>
            <Time>2020-03-07T12:50:57.000Z</Time>
            <Position>
              <LatitudeDegrees>40.55089459754526615142822265625</LatitudeDegrees>
              <LongitudeDegrees>-3.66692614741623401641845703125</LongitudeDegrees>
            </Position>
            <AltitudeMeters>724.79998779296875</AltitudeMeters>
            <DistanceMeters>419.55622261953</DistanceMeters>
          </Trackpoint>
          <Trackpoint>
            <Time>2020-03-07T12:50:58.000Z</Time>
            <Position>
              <LatitudeDegrees>40.55091253481805324554443359375</LatitudeDegrees>
              <LongitudeDegrees>-3.66699337027966976165771484375</LongitudeDegrees>
            </Position>
            <AltitudeMeters>725</AltitudeMeters>
            <DistanceMeters>425.58124604726</DistanceMeters>
          </Trackpoint>
          <Trackpoint>
            <Time>2020-03-07T12:50:59.000Z</Time>
            <Position>
              <LatitudeDegrees>40.55092946626245975494384765625</LatitudeDegrees>
              <LongitudeDegrees>-3.667060844600200653076171875</LongitudeDegrees>
            </Position>
            <AltitudeMeters>725.20001220703125</AltitudeMeters>
            <DistanceMeters>431.59126316669</DistanceMeters>
          </Trackpoint>
          <Trackpoint>
            <Time>2020-03-07T12:51:00.000Z</Time>
            <Position>
              <LatitudeDegrees>40.55094606243073940277099609375</LatitudeDegrees>
              <LongitudeDegrees>-3.6671280674636363983154296875</LongitudeDegrees>
            </Position>
            <AltitudeMeters>725.4000244140625</AltitudeMeters>
            <DistanceMeters>437.56964443299</DistanceMeters>
          </Trackpoint>
          <Trackpoint>
            <Time>2020-03-07T12:51:01.000Z</Time>
            <Position>
              <LatitudeDegrees>40.55096291005611419677734375</LatitudeDegrees>
              <LongitudeDegrees>-3.66719487123191356658935546875</LongitudeDegrees>
            </Position>
            <AltitudeMeters>725.79998779296875</AltitudeMeters>
            <DistanceMeters>443.52229258033</DistanceMeters>
          </Trackpoint>
          <Trackpoint>
            <Time>2020-03-07T12:51:02.000Z</Time>
            <Position>
              <LatitudeDegrees>40.55097891949117183685302734375</LatitudeDegrees>
              <LongitudeDegrees>-3.6672615073621273040771484375</LongitudeDegrees>
            </Position>
            <AltitudeMeters>726.20001220703125</AltitudeMeters>
            <DistanceMeters>449.43307643373</DistanceMeters>
          </Trackpoint>
          <Trackpoint>
            <Time>2020-03-07T12:51:03.000Z</Time>
            <Position>
              <LatitudeDegrees>40.5509952642023563385009765625</LatitudeDegrees>
              <LongitudeDegrees>-3.667327724397182464599609375</LongitudeDegrees>
            </Position>
            <AltitudeMeters>726.79998779296875</AltitudeMeters>
            <DistanceMeters>455.3208997555</DistanceMeters>
          </Trackpoint>
          <Trackpoint>
            <Time>2020-03-07T12:51:04.000Z</Time>
            <Position>
              <LatitudeDegrees>40.55101278237998485565185546875</LatitudeDegrees>
              <LongitudeDegrees>-3.66739318706095218658447265625</LongitudeDegrees>
            </Position>
            <AltitudeMeters>727</AltitudeMeters>
            <DistanceMeters>461.1910591835</DistanceMeters>
          </Trackpoint>
          <Trackpoint>
            <Time>2020-03-07T12:51:05.000Z</Time>
            <Position>
              <LatitudeDegrees>40.55103038437664508819580078125</LatitudeDegrees>
              <LongitudeDegrees>-3.66745890118181705474853515625</LongitudeDegrees>
            </Position>
            <AltitudeMeters>727.4000244140625</AltitudeMeters>
            <DistanceMeters>467.08424796407</DistanceMeters>
          </Trackpoint>
          <Trackpoint>
            <Time>2020-03-07T12:51:06.000Z</Time>
            <Position>
              <LatitudeDegrees>40.5510468967258930206298828125</LatitudeDegrees>
              <LongitudeDegrees>-3.6675246991217136383056640625</LongitudeDegrees>
            </Position>
            <AltitudeMeters>728</AltitudeMeters>
            <DistanceMeters>472.94439990036</DistanceMeters>
          </Trackpoint>
          <Trackpoint>
            <Time>2020-03-07T12:51:07.000Z</Time>
            <Position>
              <LatitudeDegrees>40.55106324143707752227783203125</LatitudeDegrees>
              <LongitudeDegrees>-3.667590916156768798828125</LongitudeDegrees>
            </Position>
            <AltitudeMeters>728.20001220703125</AltitudeMeters>
            <DistanceMeters>478.83299001555</DistanceMeters>
          </Trackpoint>
          <Trackpoint>
            <Time>2020-03-07T12:51:08.000Z</Time>
            <Position>
              <LatitudeDegrees>40.55108050815761089324951171875</LatitudeDegrees>
              <LongitudeDegrees>-3.66765637882053852081298828125</LongitudeDegrees>
            </Position>
            <AltitudeMeters>728.79998779296875</AltitudeMeters>
            <DistanceMeters>484.69314195184</DistanceMeters>
          </Trackpoint>
          <Trackpoint>
            <Time>2020-03-07T12:51:09.000Z</Time>
            <Position>
              <LatitudeDegrees>40.55109894834458827972412109375</LatitudeDegrees>
              <LongitudeDegrees>-3.6677211709320545196533203125</LongitudeDegrees>
            </Position>
            <AltitudeMeters>729.20001220703125</AltitudeMeters>
            <DistanceMeters>490.5448126428</DistanceMeters>
          </Trackpoint>
          <Trackpoint>
            <Time>2020-03-07T12:51:10.000Z</Time>
            <Position>
              <LatitudeDegrees>40.55111688561737537384033203125</LatitudeDegrees>
              <LongitudeDegrees>-3.66778579540550708770751953125</LongitudeDegrees>
            </Position>
            <AltitudeMeters>729.4000244140625</AltitudeMeters>
            <DistanceMeters>496.3639866963</DistanceMeters>
          </Trackpoint>
          <Trackpoint>
            <Time>2020-03-07T12:51:11.000Z</Time>
            <Position>
              <LatitudeDegrees>40.5511333979666233062744140625</LatitudeDegrees>
              <LongitudeDegrees>-3.66785050369799137115478515625</LongitudeDegrees>
            </Position>
            <AltitudeMeters>729.5999755859375</AltitudeMeters>
            <DistanceMeters>502.13641963902</DistanceMeters>
          </Trackpoint>
          <Trackpoint>
            <Time>2020-03-07T12:51:12.000Z</Time>
            <Position>
              <LatitudeDegrees>40.5511491559445858001708984375</LatitudeDegrees>
              <LongitudeDegrees>-3.66791546344757080078125</LongitudeDegrees>
            </Position>
            <AltitudeMeters>729.79998779296875</AltitudeMeters>
            <DistanceMeters>507.90259180664</DistanceMeters>
          </Trackpoint>
          <Trackpoint>
            <Time>2020-03-07T12:51:13.000Z</Time>
            <Position>
              <LatitudeDegrees>40.55116466246545314788818359375</LatitudeDegrees>
              <LongitudeDegrees>-3.66798042319715023040771484375</LongitudeDegrees>
            </Position>
            <AltitudeMeters>730</AltitudeMeters>
            <DistanceMeters>513.66092843297</DistanceMeters>
          </Trackpoint>
          <Trackpoint>
            <Time>2020-03-07T12:51:14.000Z</Time>
            <Position>
              <LatitudeDegrees>40.55118125863373279571533203125</LatitudeDegrees>
              <LongitudeDegrees>-3.66804462857544422149658203125</LongitudeDegrees>
            </Position>
            <AltitudeMeters>730.4000244140625</AltitudeMeters>
            <DistanceMeters>519.39648145647</DistanceMeters>
          </Trackpoint>
          <Trackpoint>
            <Time>2020-03-07T12:51:15.000Z</Time>
            <Position>
              <LatitudeDegrees>40.55119894444942474365234375</LatitudeDegrees>
              <LongitudeDegrees>-3.66810816340148448944091796875</LongitudeDegrees>
            </Position>
            <AltitudeMeters>730.79998779296875</AltitudeMeters>
            <DistanceMeters>525.11863639895</DistanceMeters>
          </Trackpoint>
          <Trackpoint>
            <Time>2020-03-07T12:51:16.000Z</Time>
            <Position>
              <LatitudeDegrees>40.5512152053415775299072265625</LatitudeDegrees>
              <LongitudeDegrees>-3.6681724525988101959228515625</LongitudeDegrees>
            </Position>
            <AltitudeMeters>731.20001220703125</AltitudeMeters>
            <DistanceMeters>530.84867635956</DistanceMeters>
          </Trackpoint>
          <Trackpoint>
            <Time>2020-03-07T12:51:17.000Z</Time>
            <Position>
              <LatitudeDegrees>40.5512302927672863006591796875</LatitudeDegrees>
              <LongitudeDegrees>-3.66823707707226276397705078125</LongitudeDegrees>
            </Position>
            <AltitudeMeters>731.4000244140625</AltitudeMeters>
            <DistanceMeters>536.56609507146</DistanceMeters>
          </Trackpoint>
          <Trackpoint>
            <Time>2020-03-07T12:51:18.000Z</Time>
            <Position>
              <LatitudeDegrees>40.55124630220234394073486328125</LatitudeDegrees>
              <LongitudeDegrees>-3.66830170154571533203125</LongitudeDegrees>
            </Position>
            <AltitudeMeters>731.79998779296875</AltitudeMeters>
            <DistanceMeters>542.3150149513</DistanceMeters>
          </Trackpoint>
          <Trackpoint>
            <Time>2020-03-07T12:51:19.000Z</Time>
            <Position>
              <LatitudeDegrees>40.55126373656094074249267578125</LatitudeDegrees>
              <LongitudeDegrees>-3.66836674511432647705078125</LongitudeDegrees>
            </Position>
            <AltitudeMeters>732</AltitudeMeters>
            <DistanceMeters>548.1481383034</DistanceMeters>
          </Trackpoint>
          <Trackpoint>
            <Time>2020-03-07T12:51:20.000Z</Time>
            <Position>
              <LatitudeDegrees>40.551281757652759552001953125</LatitudeDegrees>
              <LongitudeDegrees>-3.6684317886829376220703125</LongitudeDegrees>
            </Position>
            <AltitudeMeters>732.5999755859375</AltitudeMeters>
            <DistanceMeters>554.00289450509</DistanceMeters>
          </Trackpoint>
          <Trackpoint>
            <Time>2020-03-07T12:51:21.000Z</Time>
            <Position>
              <LatitudeDegrees>40.5512993596494197845458984375</LatitudeDegrees>
              <LongitudeDegrees>-3.66849792189896106719970703125</LongitudeDegrees>
            </Position>
            <AltitudeMeters>732.79998779296875</AltitudeMeters>
            <DistanceMeters>559.92893595707</DistanceMeters>
          </Trackpoint>
          <Trackpoint>
            <Time>2020-03-07T12:51:22.000Z</Time>
            <Position>
              <LatitudeDegrees>40.55131503380835056304931640625</LatitudeDegrees>
              <LongitudeDegrees>-3.66856581531465053558349609375</LongitudeDegrees>
            </Position>
            <AltitudeMeters>733.20001220703125</AltitudeMeters>
            <DistanceMeters>565.92917885066</DistanceMeters>
          </Trackpoint>
          <Trackpoint>
            <Time>2020-03-07T12:51:23.000Z</Time>
            <Position>
              <LatitudeDegrees>40.55132945068180561065673828125</LatitudeDegrees>
              <LongitudeDegrees>-3.668633289635181427001953125</LongitudeDegrees>
            </Position>
            <AltitudeMeters>733.4000244140625</AltitudeMeters>
            <DistanceMeters>571.85674390247</DistanceMeters>
          </Trackpoint>
          <Trackpoint>
            <Time>2020-03-07T12:51:24.000Z</Time>
            <Position>
              <LatitudeDegrees>40.551343448460102081298828125</LatitudeDegrees>
              <LongitudeDegrees>-3.6687001772224903106689453125</LongitudeDegrees>
            </Position>
            <AltitudeMeters>733.5999755859375</AltitudeMeters>
            <DistanceMeters>577.72536482712</DistanceMeters>
          </Trackpoint>
          <Trackpoint>
            <Time>2020-03-07T12:51:25.000Z</Time>
            <Position>
              <LatitudeDegrees>40.5513580329716205596923828125</LatitudeDegrees>
              <LongitudeDegrees>-3.668766058981418609619140625</LongitudeDegrees>
            </Position>
            <AltitudeMeters>733.79998779296875</AltitudeMeters>
            <DistanceMeters>583.52900033738</DistanceMeters>
          </Trackpoint>
          <Trackpoint>
            <Time>2020-03-07T12:51:26.000Z</Time>
            <Position>
              <LatitudeDegrees>40.55137328803539276123046875</LatitudeDegrees>
              <LongitudeDegrees>-3.66883152164518833160400390625</LongitudeDegrees>
            </Position>
            <AltitudeMeters>733.79998779296875</AltitudeMeters>
            <DistanceMeters>589.31939530114</DistanceMeters>
          </Trackpoint>
          <Trackpoint>
            <Time>2020-03-07T12:51:27.000Z</Time>
            <Position>
              <LatitudeDegrees>40.5513892136514186859130859375</LatitudeDegrees>
              <LongitudeDegrees>-3.66889639757573604583740234375</LongitudeDegrees>
            </Position>
            <AltitudeMeters>734</AltitudeMeters>
            <DistanceMeters>595.08556746876</DistanceMeters>
          </Trackpoint>
          <Trackpoint>
            <Time>2020-03-07T12:51:28.000Z</Time>
            <Position>
              <LatitudeDegrees>40.55140547454357147216796875</LatitudeDegrees>
              <LongitudeDegrees>-3.668961189687252044677734375</LongitudeDegrees>
            </Position>
            <AltitudeMeters>734.20001220703125</AltitudeMeters>
            <DistanceMeters>600.85643585448</DistanceMeters>
          </Trackpoint>
          <Trackpoint>
            <Time>2020-03-07T12:51:29.000Z</Time>
            <Position>
              <LatitudeDegrees>40.55142156779766082763671875</LatitudeDegrees>
              <LongitudeDegrees>-3.6690267361700534820556640625</LongitudeDegrees>
            </Position>
            <AltitudeMeters>734.20001220703125</AltitudeMeters>
            <DistanceMeters>606.68181372003</DistanceMeters>
          </Trackpoint>
          <Trackpoint>
            <Time>2020-03-07T12:51:30.000Z</Time>
            <Position>
              <LatitudeDegrees>40.55143824778497219085693359375</LatitudeDegrees>
              <LongitudeDegrees>-3.66909203119575977325439453125</LongitudeDegrees>
            </Position>
            <AltitudeMeters>734.4000244140625</AltitudeMeters>
            <DistanceMeters>612.50719158557</DistanceMeters>
          </Trackpoint>
          <Trackpoint>
            <Time>2020-03-07T12:51:31.000Z</Time>
            <Position>
              <LatitudeDegrees>40.55145568214356899261474609375</LatitudeDegrees>
              <LongitudeDegrees>-3.66915724240243434906005859375</LongitudeDegrees>
            </Position>
            <AltitudeMeters>734.4000244140625</AltitudeMeters>
            <DistanceMeters>618.35268636907</DistanceMeters>
          </Trackpoint>
          <Trackpoint>
            <Time>2020-03-07T12:51:32.000Z</Time>
            <Position>
              <LatitudeDegrees>40.55147387087345123291015625</LatitudeDegrees>
              <LongitudeDegrees>-3.66922329179942607879638671875</LongitudeDegrees>
            </Position>
            <AltitudeMeters>734.4000244140625</AltitudeMeters>
            <DistanceMeters>624.29318624223</DistanceMeters>
          </Trackpoint>
          <Trackpoint>
            <Time>2020-03-07T12:51:33.000Z</Time>
            <Position>
              <LatitudeDegrees>40.55149222724139690399169921875</LatitudeDegrees>
              <LongitudeDegrees>-3.669289089739322662353515625</LongitudeDegrees>
            </Position>
            <AltitudeMeters>734.4000244140625</AltitudeMeters>
            <DistanceMeters>630.22075129404</DistanceMeters>
          </Trackpoint>
          <Trackpoint>
            <Time>2020-03-07T12:51:34.000Z</Time>
            <Position>
              <LatitudeDegrees>40.5515082366764545440673828125</LatitudeDegrees>
              <LongitudeDegrees>-3.66935379803180694580078125</LongitudeDegrees>
            </Position>
            <AltitudeMeters>734.5999755859375</AltitudeMeters>
            <DistanceMeters>635.97595071686</DistanceMeters>
          </Trackpoint>
          <Trackpoint>
            <Time>2020-03-07T12:51:35.000Z</Time>
            <Position>
              <LatitudeDegrees>40.5515228211879730224609375</LatitudeDegrees>
              <LongitudeDegrees>-3.6694176681339740753173828125</LongitudeDegrees>
            </Position>
            <AltitudeMeters>734.79998779296875</AltitudeMeters>
            <DistanceMeters>641.61624852035</DistanceMeters>
          </Trackpoint>
          <Trackpoint>
            <Time>2020-03-07T12:51:36.000Z</Time>
            <Position>
              <LatitudeDegrees>40.551538579165935516357421875</LatitudeDegrees>
              <LongitudeDegrees>-3.669481538236141204833984375</LongitudeDegrees>
            </Position>
            <AltitudeMeters>734.79998779296875</AltitudeMeters>
            <DistanceMeters>647.29563520007</DistanceMeters>
          </Trackpoint>
          <Trackpoint>
            <Time>2020-03-07T12:51:37.000Z</Time>
            <Position>
              <LatitudeDegrees>40.55155559442937374114990234375</LatitudeDegrees>
              <LongitudeDegrees>-3.6695470847189426422119140625</LongitudeDegrees>
            </Position>
            <AltitudeMeters>735</AltitudeMeters>
            <DistanceMeters>653.15347528726</DistanceMeters>
          </Trackpoint>
          <Trackpoint>
            <Time>2020-03-07T12:51:38.000Z</Time>
            <Position>
              <LatitudeDegrees>40.55157353170216083526611328125</LatitudeDegrees>
              <LongitudeDegrees>-3.66961397230625152587890625</LongitudeDegrees>
            </Position>
            <AltitudeMeters>735.20001220703125</AltitudeMeters>
            <DistanceMeters>659.15296565775</DistanceMeters>
          </Trackpoint>
          <Trackpoint>
            <Time>2020-03-07T12:51:39.000Z</Time>
            <Position>
              <LatitudeDegrees>40.5515940673649311065673828125</LatitudeDegrees>
              <LongitudeDegrees>-3.6696805246174335479736328125</LongitudeDegrees>
            </Position>
            <AltitudeMeters>735.4000244140625</AltitudeMeters>
            <DistanceMeters>665.2272468786</DistanceMeters>
          </Trackpoint>
          <Trackpoint>
            <Time>2020-03-07T12:51:40.000Z</Time>
            <Position>
              <LatitudeDegrees>40.55161443538963794708251953125</LatitudeDegrees>
              <LongitudeDegrees>-3.669748418033123016357421875</LongitudeDegrees>
            </Position>
            <AltitudeMeters>735.5999755859375</AltitudeMeters>
            <DistanceMeters>671.40032735706</DistanceMeters>
          </Trackpoint>
          <Trackpoint>
            <Time>2020-03-07T12:51:41.000Z</Time>
            <Position>
              <LatitudeDegrees>40.55163170211017131805419921875</LatitudeDegrees>
              <LongitudeDegrees>-3.6698189936578273773193359375</LongitudeDegrees>
            </Position>
            <AltitudeMeters>735.5999755859375</AltitudeMeters>
            <DistanceMeters>677.67065054147</DistanceMeters>
          </Trackpoint>
          <Trackpoint>
            <Time>2020-03-07T12:51:42.000Z</Time>
            <Position>
              <LatitudeDegrees>40.55164846591651439666748046875</LatitudeDegrees>
              <LongitudeDegrees>-3.66988965310156345367431640625</LongitudeDegrees>
            </Position>
            <AltitudeMeters>735.79998779296875</AltitudeMeters>
            <DistanceMeters>683.93088470376</DistanceMeters>
          </Trackpoint>
          <Trackpoint>
            <Time>2020-03-07T12:51:43.000Z</Time>
            <Position>
              <LatitudeDegrees>40.5516681633889675140380859375</LatitudeDegrees>
              <LongitudeDegrees>-3.6699584685266017913818359375</LongitudeDegrees>
            </Position>
            <AltitudeMeters>735.79998779296875</AltitudeMeters>
            <DistanceMeters>690.14987315925</DistanceMeters>
          </Trackpoint>
          <Trackpoint>
            <Time>2020-03-07T12:51:44.000Z</Time>
            <Position>
              <LatitudeDegrees>40.55168920196592807769775390625</LatitudeDegrees>
              <LongitudeDegrees>-3.6700268648564815521240234375</LongitudeDegrees>
            </Position>
            <AltitudeMeters>735.79998779296875</AltitudeMeters>
            <DistanceMeters>696.38988034084</DistanceMeters>
          </Trackpoint>
          <Trackpoint>
            <Time>2020-03-07T12:51:45.000Z</Time>
            <Position>
              <LatitudeDegrees>40.55171149782836437225341796875</LatitudeDegrees>
              <LongitudeDegrees>-3.67009542882442474365234375</LongitudeDegrees>
            </Position>
            <AltitudeMeters>735.79998779296875</AltitudeMeters>
            <DistanceMeters>702.69681991052</DistanceMeters>
          </Trackpoint>
          <Trackpoint>
            <Time>2020-03-07T12:51:46.000Z</Time>
            <Position>
              <LatitudeDegrees>40.551733709871768951416015625</LatitudeDegrees>
              <LongitudeDegrees>-3.67016508243978023529052734375</LongitudeDegrees>
            </Position>
            <AltitudeMeters>735.79998779296875</AltitudeMeters>
            <DistanceMeters>709.08555574218</DistanceMeters>
          </Trackpoint>
          <Trackpoint>
            <Time>2020-03-07T12:51:47.000Z</Time>
            <Position>
              <LatitudeDegrees>40.55175558663904666900634765625</LatitudeDegrees>
              <LongitudeDegrees>-3.67023515515029430389404296875</LongitudeDegrees>
            </Position>
            <AltitudeMeters>736</AltitudeMeters>
            <DistanceMeters>715.49263990849</DistanceMeters>
          </Trackpoint>
          <Trackpoint>
            <Time>2020-03-07T12:51:48.000Z</Time>
            <Position>
              <LatitudeDegrees>40.55177830159664154052734375</LatitudeDegrees>
              <LongitudeDegrees>-3.67030506022274494171142578125</LongitudeDegrees>
            </Position>
            <AltitudeMeters>736</AltitudeMeters>
            <DistanceMeters>721.92223476046</DistanceMeters>
          </Trackpoint>
          <Trackpoint>
            <Time>2020-03-07T12:51:49.000Z</Time>
            <Position>
              <LatitudeDegrees>40.5518017709255218505859375</LatitudeDegrees>
              <LongitudeDegrees>-3.670375384390354156494140625</LongitudeDegrees>
            </Position>
            <AltitudeMeters>736</AltitudeMeters>
            <DistanceMeters>728.41750358832</DistanceMeters>
          </Trackpoint>
          <Trackpoint>
            <Time>2020-03-07T12:51:50.000Z</Time>
            <Position>
              <LatitudeDegrees>40.55182532407343387603759765625</LatitudeDegrees>
              <LongitudeDegrees>-3.670445792376995086669921875</LongitudeDegrees>
            </Position>
            <AltitudeMeters>736</AltitudeMeters>
            <DistanceMeters>734.92319096882</DistanceMeters>
          </Trackpoint>
          <Trackpoint>
            <Time>2020-03-07T12:51:51.000Z</Time>
            <Position>
              <LatitudeDegrees>40.5518485419452190399169921875</LatitudeDegrees>
              <LongitudeDegrees>-3.67051661945879459381103515625</LongitudeDegrees>
            </Position>
            <AltitudeMeters>736.20001220703125</AltitudeMeters>
            <DistanceMeters>741.44620562494</DistanceMeters>
          </Trackpoint>
          <Trackpoint>
            <Time>2020-03-07T12:51:52.000Z</Time>
            <Position>
              <LatitudeDegrees>40.55187125690281391143798828125</LatitudeDegrees>
              <LongitudeDegrees>-3.67058719508349895477294921875</LongitudeDegrees>
            </Position>
            <AltitudeMeters>736.4000244140625</AltitudeMeters>
            <DistanceMeters>747.92895008775</DistanceMeters>
          </Trackpoint>
          <Trackpoint>
            <Time>2020-03-07T12:51:53.000Z</Time>
            <Position>
              <LatitudeDegrees>40.55189338512718677520751953125</LatitudeDegrees>
              <LongitudeDegrees>-3.67065844126045703887939453125</LongitudeDegrees>
            </Position>
            <AltitudeMeters>736.4000244140625</AltitudeMeters>
            <DistanceMeters>754.43810661337</DistanceMeters>
          </Trackpoint>
          <Trackpoint>
            <Time>2020-03-07T12:51:54.000Z</Time>
            <Position>
              <LatitudeDegrees>40.551914758980274200439453125</LatitudeDegrees>
              <LongitudeDegrees>-3.67073052562773227691650390625</LongitudeDegrees>
            </Position>
            <AltitudeMeters>736.4000244140625</AltitudeMeters>
            <DistanceMeters>760.98185343742</DistanceMeters>
          </Trackpoint>
          <Trackpoint>
            <Time>2020-03-07T12:51:55.000Z</Time>
            <Position>
              <LatitudeDegrees>40.5519383959472179412841796875</LatitudeDegrees>
              <LongitudeDegrees>-3.67080160416662693023681640625</LongitudeDegrees>
            </Position>
            <AltitudeMeters>736.5999755859375</AltitudeMeters>
            <DistanceMeters>767.54351515415</DistanceMeters>
          </Trackpoint>
          <Trackpoint>
            <Time>2020-03-07T12:51:56.000Z</Time>
            <Position>
              <LatitudeDegrees>40.55196412838995456695556640625</LatitudeDegrees>
              <LongitudeDegrees>-3.67087192833423614501953125</LongitudeDegrees>
            </Position>
            <AltitudeMeters>736.5999755859375</AltitudeMeters>
            <DistanceMeters>774.1449656704</DistanceMeters>
          </Trackpoint>
          <Trackpoint>
            <Time>2020-03-07T12:51:57.000Z</Time>
            <Position>
              <LatitudeDegrees>40.5519895255565643310546875</LatitudeDegrees>
              <LongitudeDegrees>-3.6709438450634479522705078125</LongitudeDegrees>
            </Position>
            <AltitudeMeters>736.5999755859375</AltitudeMeters>
            <DistanceMeters>780.85159006478</DistanceMeters>
          </Trackpoint>
          <Trackpoint>
            <Time>2020-03-07T12:51:58.000Z</Time>
            <Position>
              <LatitudeDegrees>40.5520141683518886566162109375</LatitudeDegrees>
              <LongitudeDegrees>-3.67101802490651607513427734375</LongitudeDegrees>
            </Position>
            <AltitudeMeters>736.5999755859375</AltitudeMeters>
            <DistanceMeters>787.69813129526</DistanceMeters>
          </Trackpoint>
          <Trackpoint>
            <Time>2020-03-07T12:51:59.000Z</Time>
            <Position>
              <LatitudeDegrees>40.55203847587108612060546875</LatitudeDegrees>
              <LongitudeDegrees>-3.67109413258731365203857421875</LongitudeDegrees>
            </Position>
            <AltitudeMeters>736.5999755859375</AltitudeMeters>
            <DistanceMeters>794.67920016528</DistanceMeters>
          </Trackpoint>
          <Trackpoint>
            <Time>2020-03-07T12:52:00.000Z</Time>
            <Position>
              <LatitudeDegrees>40.55206269957125186920166015625</LatitudeDegrees>
              <LongitudeDegrees>-3.6711711622774600982666015625</LongitudeDegrees>
            </Position>
            <AltitudeMeters>736.5999755859375</AltitudeMeters>
            <DistanceMeters>801.72913213286</DistanceMeters>
          </Trackpoint>
          <Trackpoint>
            <Time>2020-03-07T12:52:01.000Z</Time>
            <Position>
              <LatitudeDegrees>40.55208650417625904083251953125</LatitudeDegrees>
              <LongitudeDegrees>-3.6712489463388919830322265625</LongitudeDegrees>
            </Position>
            <AltitudeMeters>736.5999755859375</AltitudeMeters>
            <DistanceMeters>808.82120699096</DistanceMeters>
          </Trackpoint>
          <Trackpoint>
            <Time>2020-03-07T12:52:02.000Z</Time>
            <Position>
              <LatitudeDegrees>40.5521100573241710662841796875</LatitudeDegrees>
              <LongitudeDegrees>-3.6713267304003238677978515625</LongitudeDegrees>
            </Position>
            <AltitudeMeters>736.5999755859375</AltitudeMeters>
            <DistanceMeters>815.90245084309</DistanceMeters>
          </Trackpoint>
          <Trackpoint>
            <Time>2020-03-07T12:52:03.000Z</Time>
            <Position>
              <LatitudeDegrees>40.55213310755789279937744140625</LatitudeDegrees>
              <LongitudeDegrees>-3.67140476591885089874267578125</LongitudeDegrees>
            </Position>
            <AltitudeMeters>736.5999755859375</AltitudeMeters>
            <DistanceMeters>822.98305706126</DistanceMeters>
          </Trackpoint>
          <Trackpoint>
            <Time>2020-03-07T12:52:04.000Z</Time>
            <Position>
              <LatitudeDegrees>40.55215406231582164764404296875</LatitudeDegrees>
              <LongitudeDegrees>-3.67148422636091709136962890625</LongitudeDegrees>
            </Position>
            <AltitudeMeters>736.5999755859375</AltitudeMeters>
            <DistanceMeters>830.09674445894</DistanceMeters>
          </Trackpoint>
          <Trackpoint>
            <Time>2020-03-07T12:52:05.000Z</Time>
            <Position>
              <LatitudeDegrees>40.5521734245121479034423828125</LatitudeDegrees>
              <LongitudeDegrees>-3.67156418971717357635498046875</LongitudeDegrees>
            </Position>
            <AltitudeMeters>736.5999755859375</AltitudeMeters>
            <DistanceMeters>837.19454668786</DistanceMeters>
          </Trackpoint>
          <Trackpoint>
            <Time>2020-03-07T12:52:06.000Z</Time>
            <Position>
              <LatitudeDegrees>40.55219328962266445159912109375</LatitudeDegrees>
              <LongitudeDegrees>-3.671643733978271484375</LongitudeDegrees>
            </Position>
            <AltitudeMeters>736.5999755859375</AltitudeMeters>
            <DistanceMeters>844.27515290603</DistanceMeters>
          </Trackpoint>
          <Trackpoint>
            <Time>2020-03-07T12:52:07.000Z</Time>
            <Position>
              <LatitudeDegrees>40.5522148311138153076171875</LatitudeDegrees>
              <LongitudeDegrees>-3.671722523868083953857421875</LongitudeDegrees>
            </Position>
            <AltitudeMeters>736.5999755859375</AltitudeMeters>
            <DistanceMeters>851.35639675816</DistanceMeters>
          </Trackpoint>
          <Trackpoint>
            <Time>2020-03-07T12:52:08.000Z</Time>
            <Position>
              <LatitudeDegrees>40.5522377975285053253173828125</LatitudeDegrees>
              <LongitudeDegrees>-3.67179997265338897705078125</LongitudeDegrees>
            </Position>
            <AltitudeMeters>736.5999755859375</AltitudeMeters>
            <DistanceMeters>858.38708935948</DistanceMeters>
          </Trackpoint>
          <Trackpoint>
            <Time>2020-03-07T12:52:09.000Z</Time>
            <Position>
              <LatitudeDegrees>40.5522595904767513275146484375</LatitudeDegrees>
              <LongitudeDegrees>-3.67187767289578914642333984375</LongitudeDegrees>
            </Position>
            <AltitudeMeters>736.5999755859375</AltitudeMeters>
            <DistanceMeters>865.39075805835</DistanceMeters>
          </Trackpoint>
          <Trackpoint>
            <Time>2020-03-07T12:52:10.000Z</Time>
            <Position>
              <LatitudeDegrees>40.552280209958553314208984375</LatitudeDegrees>
              <LongitudeDegrees>-3.6719557084143161773681640625</LongitudeDegrees>
            </Position>
            <AltitudeMeters>736.5999755859375</AltitudeMeters>
            <DistanceMeters>872.37764529488</DistanceMeters>
          </Trackpoint>
          <Trackpoint>
            <Time>2020-03-07T12:52:11.000Z</Time>
            <Position>
              <LatitudeDegrees>40.55230057798326015472412109375</LatitudeDegrees>
              <LongitudeDegrees>-3.67203332483768463134765625</LongitudeDegrees>
            </Position>
            <AltitudeMeters>736.5999755859375</AltitudeMeters>
            <DistanceMeters>879.32305157267</DistanceMeters>
          </Trackpoint>
          <Trackpoint>
            <Time>2020-03-07T12:52:12.000Z</Time>
            <Position>
              <LatitudeDegrees>40.5523212812840938568115234375</LatitudeDegrees>
              <LongitudeDegrees>-3.67211085744202136993408203125</LongitudeDegrees>
            </Position>
            <AltitudeMeters>736.79998779296875</AltitudeMeters>
            <DistanceMeters>886.27300688898</DistanceMeters>
          </Trackpoint>
          <Trackpoint>
            <Time>2020-03-07T12:52:13.000Z</Time>
            <Position>
              <LatitudeDegrees>40.5523417331278324127197265625</LatitudeDegrees>
              <LongitudeDegrees>-3.67218797095119953155517578125</LongitudeDegrees>
            </Position>
            <AltitudeMeters>736.79998779296875</AltitudeMeters>
            <DistanceMeters>893.1806058879</DistanceMeters>
          </Trackpoint>
          <Trackpoint>
            <Time>2020-03-07T12:52:14.000Z</Time>
            <Position>
              <LatitudeDegrees>40.552361011505126953125</LatitudeDegrees>
              <LongitudeDegrees>-3.67226508446037769317626953125</LongitudeDegrees>
            </Position>
            <AltitudeMeters>736.79998779296875</AltitudeMeters>
            <DistanceMeters>900.04624489949</DistanceMeters>
          </Trackpoint>
          <Trackpoint>
            <Time>2020-03-07T12:52:15.000Z</Time>
            <Position>
              <LatitudeDegrees>40.55237886495888233184814453125</LatitudeDegrees>
              <LongitudeDegrees>-3.672342784702777862548828125</LongitudeDegrees>
            </Position>
            <AltitudeMeters>737</AltitudeMeters>
            <DistanceMeters>906.91056852856</DistanceMeters>
          </Trackpoint>
          <Trackpoint>
            <Time>2020-03-07T12:52:16.000Z</Time>
            <Position>
              <LatitudeDegrees>40.5523970536887645721435546875</LatitudeDegrees>
              <LongitudeDegrees>-3.672419898211956024169921875</LongitudeDegrees>
            </Position>
            <AltitudeMeters>737</AltitudeMeters>
            <DistanceMeters>913.73928105411</DistanceMeters>
          </Trackpoint>
          <Trackpoint>
            <Time>2020-03-07T12:52:17.000Z</Time>
            <Position>
              <LatitudeDegrees>40.55241473950445652008056640625</LatitudeDegrees>
              <LongitudeDegrees>-3.672496341168880462646484375</LongitudeDegrees>
            </Position>
            <AltitudeMeters>737</AltitudeMeters>
            <DistanceMeters>920.49620835138</DistanceMeters>
          </Trackpoint>
          <Trackpoint>
            <Time>2020-03-07T12:52:18.000Z</Time>
            <Position>
              <LatitudeDegrees>40.5524322576820850372314453125</LatitudeDegrees>
              <LongitudeDegrees>-3.67257286794483661651611328125</LongitudeDegrees>
            </Position>
            <AltitudeMeters>737</AltitudeMeters>
            <DistanceMeters>927.25513997775</DistanceMeters>
          </Trackpoint>
          <Trackpoint>
            <Time>2020-03-07T12:52:19.000Z</Time>
            <Position>
              <LatitudeDegrees>40.552449859678745269775390625</LatitudeDegrees>
              <LongitudeDegrees>-3.6726493947207927703857421875</LongitudeDegrees>
            </Position>
            <AltitudeMeters>737.20001220703125</AltitudeMeters>
            <DistanceMeters>934.01741083244</DistanceMeters>
          </Trackpoint>
          <Trackpoint>
            <Time>2020-03-07T12:52:20.000Z</Time>
            <Position>
              <LatitudeDegrees>40.55246704258024692535400390625</LatitudeDegrees>
              <LongitudeDegrees>-3.6727258376777172088623046875</LongitudeDegrees>
            </Position>
            <AltitudeMeters>737.20001220703125</AltitudeMeters>
            <DistanceMeters>940.75962150987</DistanceMeters>
          </Trackpoint>
          <Trackpoint>
            <Time>2020-03-07T12:52:21.000Z</Time>
            <Position>
              <LatitudeDegrees>40.55248347111046314239501953125</LatitudeDegrees>
              <LongitudeDegrees>-3.67280202917754650115966796875</LongitudeDegrees>
            </Position>
            <AltitudeMeters>737.4000244140625</AltitudeMeters>
            <DistanceMeters>947.45748831756</DistanceMeters>
          </Trackpoint>
          <Trackpoint>
            <Time>2020-03-07T12:52:22.000Z</Time>
            <Position>
              <LatitudeDegrees>40.55249889381229877471923828125</LatitudeDegrees>
              <LongitudeDegrees>-3.67287847213447093963623046875</LongitudeDegrees>
            </Position>
            <AltitudeMeters>737.5999755859375</AltitudeMeters>
            <DistanceMeters>954.14591105416</DistanceMeters>
          </Trackpoint>
          <Trackpoint>
            <Time>2020-03-07T12:52:23.000Z</Time>
            <Position>
              <LatitudeDegrees>40.55251465179026126861572265625</LatitudeDegrees>
              <LongitudeDegrees>-3.67295441217720508575439453125</LongitudeDegrees>
            </Position>
            <AltitudeMeters>737.5999755859375</AltitudeMeters>
            <DistanceMeters>960.80320894346</DistanceMeters>
          </Trackpoint>
          <Trackpoint>
            <Time>2020-03-07T12:52:24.000Z</Time>
            <Position>
              <LatitudeDegrees>40.5525308288633823394775390625</LatitudeDegrees>
              <LongitudeDegrees>-3.673029430210590362548828125</LongitudeDegrees>
            </Position>
            <AltitudeMeters>737.79998779296875</AltitudeMeters>
            <DistanceMeters>967.39850106971</DistanceMeters>
          </Trackpoint>
          <Trackpoint>
            <Time>2020-03-07T12:52:25.000Z</Time>
            <Position>
              <LatitudeDegrees>40.552547089755535125732421875</LatitudeDegrees>
              <LongitudeDegrees>-3.67310377769172191619873046875</LongitudeDegrees>
            </Position>
            <AltitudeMeters>738</AltitudeMeters>
            <DistanceMeters>973.94086779317</DistanceMeters>
          </Trackpoint>
          <Trackpoint>
            <Time>2020-03-07T12:52:26.000Z</Time>
            <Position>
              <LatitudeDegrees>40.5525633506476879119873046875</LatitudeDegrees>
              <LongitudeDegrees>-3.67317770607769489288330078125</LongitudeDegrees>
            </Position>
            <AltitudeMeters>738.4000244140625</AltitudeMeters>
            <DistanceMeters>980.4500243188</DistanceMeters>
          </Trackpoint>
          <Trackpoint>
            <Time>2020-03-07T12:52:27.000Z</Time>
            <Position>
              <LatitudeDegrees>40.5525787733495235443115234375</LatitudeDegrees>
              <LongitudeDegrees>-3.673252053558826446533203125</LongitudeDegrees>
            </Position>
            <AltitudeMeters>738.4000244140625</AltitudeMeters>
            <DistanceMeters>986.96749925871</DistanceMeters>
          </Trackpoint>
          <Trackpoint>
            <Time>2020-03-07T12:52:28.000Z</Time>
            <Position>
              <LatitudeDegrees>40.55259310640394687652587890625</LatitudeDegrees>
              <LongitudeDegrees>-3.6733269877731800079345703125</LongitudeDegrees>
            </Position>
            <AltitudeMeters>738.5999755859375</AltitudeMeters>
            <DistanceMeters>993.502270219</DistanceMeters>
          </Trackpoint>
          <Trackpoint>
            <Time>2020-03-07T12:52:29.000Z</Time>
            <Position>
              <LatitudeDegrees>40.5526086129248142242431640625</LatitudeDegrees>
              <LongitudeDegrees>-3.67340125143527984619140625</LongitudeDegrees>
            </Position>
            <AltitudeMeters>738.5999755859375</AltitudeMeters>
            <DistanceMeters>1000.0155872797</DistanceMeters>
          </Trackpoint>
          <Trackpoint>
            <Time>2020-03-07T12:52:30.000Z</Time>
            <Position>
              <LatitudeDegrees>40.55262596346437931060791015625</LatitudeDegrees>
              <LongitudeDegrees>-3.6734745092689990997314453125</LongitudeDegrees>
            </Position>
            <AltitudeMeters>738.5999755859375</AltitudeMeters>
            <DistanceMeters>1006.5045969467</DistanceMeters>
          </Trackpoint>
          <Trackpoint>
            <Time>2020-03-07T12:52:31.000Z</Time>
            <Position>
              <LatitudeDegrees>40.55264390073716640472412109375</LatitudeDegrees>
              <LongitudeDegrees>-3.673547096550464630126953125</LongitudeDegrees>
            </Position>
            <AltitudeMeters>738.79998779296875</AltitudeMeters>
            <DistanceMeters>1012.9594224837</DistanceMeters>
          </Trackpoint>
          <Trackpoint>
            <Time>2020-03-07T12:52:32.000Z</Time>
            <Position>
              <LatitudeDegrees>40.55266208946704864501953125</LatitudeDegrees>
              <LongitudeDegrees>-3.6736193485558032989501953125</LongitudeDegrees>
            </Position>
            <AltitudeMeters>738.79998779296875</AltitudeMeters>
            <DistanceMeters>1019.3974385506</DistanceMeters>
          </Trackpoint>
          <Trackpoint>
            <Time>2020-03-07T12:52:33.000Z</Time>
            <Position>
              <LatitudeDegrees>40.55267994292080402374267578125</LatitudeDegrees>
              <LongitudeDegrees>-3.67369134910404682159423828125</LongitudeDegrees>
            </Position>
            <AltitudeMeters>739</AltitudeMeters>
            <DistanceMeters>1025.8031131724</DistanceMeters>
          </Trackpoint>
          <Trackpoint>
            <Time>2020-03-07T12:52:34.000Z</Time>
            <Position>
              <LatitudeDegrees>40.552697964012622833251953125</LatitudeDegrees>
              <LongitudeDegrees>-3.67376309819519519805908203125</LongitudeDegrees>
            </Position>
            <AltitudeMeters>739</AltitudeMeters>
            <DistanceMeters>1032.1939688081</DistanceMeters>
          </Trackpoint>
          <Trackpoint>
            <Time>2020-03-07T12:52:35.000Z</Time>
            <Position>
              <LatitudeDegrees>40.55271598510444164276123046875</LatitudeDegrees>
              <LongitudeDegrees>-3.673834763467311859130859375</LongitudeDegrees>
            </Position>
            <AltitudeMeters>739</AltitudeMeters>
            <DistanceMeters>1038.5784629203</DistanceMeters>
          </Trackpoint>
          <Trackpoint>
            <Time>2020-03-07T12:52:36.000Z</Time>
            <Position>
              <LatitudeDegrees>40.5527330003678798675537109375</LatitudeDegrees>
              <LongitudeDegrees>-3.6739070154726505279541015625</LongitudeDegrees>
            </Position>
            <AltitudeMeters>739</AltitudeMeters>
            <DistanceMeters>1044.9756737534</DistanceMeters>
          </Trackpoint>
          <Trackpoint>
            <Time>2020-03-07T12:52:37.000Z</Time>
            <Position>
              <LatitudeDegrees>40.55274934507906436920166015625</LatitudeDegrees>
              <LongitudeDegrees>-3.67397968657314777374267578125</LongitudeDegrees>
            </Position>
            <AltitudeMeters>739.20001220703125</AltitudeMeters>
            <DistanceMeters>1051.3855760787</DistanceMeters>
          </Trackpoint>
          <Trackpoint>
            <Time>2020-03-07T12:52:38.000Z</Time>
            <Position>
              <LatitudeDegrees>40.55276669561862945556640625</LatitudeDegrees>
              <LongitudeDegrees>-3.67405210621654987335205078125</LongitudeDegrees>
            </Position>
            <AltitudeMeters>739.20001220703125</AltitudeMeters>
            <DistanceMeters>1057.8067386715</DistanceMeters>
          </Trackpoint>
          <Trackpoint>
            <Time>2020-03-07T12:52:39.000Z</Time>
            <Position>
              <LatitudeDegrees>40.552784465253353118896484375</LatitudeDegrees>
              <LongitudeDegrees>-3.674124442040920257568359375</LongitudeDegrees>
            </Position>
            <AltitudeMeters>739.20001220703125</AltitudeMeters>
            <DistanceMeters>1064.2363335235</DistanceMeters>
          </Trackpoint>
          <Trackpoint>
            <Time>2020-03-07T12:52:40.000Z</Time>
            <Position>
              <LatitudeDegrees>40.55280215106904506683349609375</LatitudeDegrees>
              <LongitudeDegrees>-3.67419728077948093414306640625</LongitudeDegrees>
            </Position>
            <AltitudeMeters>739.4000244140625</AltitudeMeters>
            <DistanceMeters>1070.7030393319</DistanceMeters>
          </Trackpoint>
          <Trackpoint>
            <Time>2020-03-07T12:52:41.000Z</Time>
            <Position>
              <LatitudeDegrees>40.55282033979892730712890625</LatitudeDegrees>
              <LongitudeDegrees>-3.674269616603851318359375</LongitudeDegrees>
            </Position>
            <AltitudeMeters>739.4000244140625</AltitudeMeters>
            <DistanceMeters>1077.1466634278</DistanceMeters>
          </Trackpoint>
          <Trackpoint>
            <Time>2020-03-07T12:52:42.000Z</Time>
            <Position>
              <LatitudeDegrees>40.552838109433650970458984375</LatitudeDegrees>
              <LongitudeDegrees>-3.67434245534241199493408203125</LongitudeDegrees>
            </Position>
            <AltitudeMeters>739.5999755859375</AltitudeMeters>
            <DistanceMeters>1083.6168592822</DistanceMeters>
          </Trackpoint>
          <Trackpoint>
            <Time>2020-03-07T12:52:43.000Z</Time>
            <Position>
              <LatitudeDegrees>40.552856214344501495361328125</LatitudeDegrees>
              <LongitudeDegrees>-3.6744146235287189483642578125</LongitudeDegrees>
            </Position>
            <AltitudeMeters>739.79998779296875</AltitudeMeters>
            <DistanceMeters>1090.0436446103</DistanceMeters>
          </Trackpoint>
          <Trackpoint>
            <Time>2020-03-07T12:52:44.000Z</Time>
            <Position>
              <LatitudeDegrees>40.5528751574456691741943359375</LatitudeDegrees>
              <LongitudeDegrees>-3.6744860373437404632568359375</LongitudeDegrees>
            </Position>
            <AltitudeMeters>740.20001220703125</AltitudeMeters>
            <DistanceMeters>1096.4401496223</DistanceMeters>
          </Trackpoint>
          <Trackpoint>
            <Time>2020-03-07T12:52:45.000Z</Time>
            <Position>
              <LatitudeDegrees>40.55289418436586856842041015625</LatitudeDegrees>
              <LongitudeDegrees>-3.6745574511587619781494140625</LongitudeDegrees>
            </Position>
            <AltitudeMeters>740.5999755859375</AltitudeMeters>
            <DistanceMeters>1102.840182962</DistanceMeters>
          </Trackpoint>
          <Trackpoint>
            <Time>2020-03-07T12:52:46.000Z</Time>
            <Position>
              <LatitudeDegrees>40.55291287600994110107421875</LatitudeDegrees>
              <LongitudeDegrees>-3.67462928406894207000732421875</LongitudeDegrees>
            </Position>
            <AltitudeMeters>740.79998779296875</AltitudeMeters>
            <DistanceMeters>1109.2606423667</DistanceMeters>
          </Trackpoint>
          <Trackpoint>
            <Time>2020-03-07T12:52:47.000Z</Time>
            <Position>
              <LatitudeDegrees>40.552931316196918487548828125</LatitudeDegrees>
              <LongitudeDegrees>-3.67470136843621730804443359375</LongitudeDegrees>
            </Position>
            <AltitudeMeters>741</AltitudeMeters>
            <DistanceMeters>1115.6916415202</DistanceMeters>
          </Trackpoint>
          <Trackpoint>
            <Time>2020-03-07T12:52:48.000Z</Time>
            <Position>
              <LatitudeDegrees>40.552949421107769012451171875</LatitudeDegrees>
              <LongitudeDegrees>-3.67477362044155597686767578125</LongitudeDegrees>
            </Position>
            <AltitudeMeters>741.20001220703125</AltitudeMeters>
            <DistanceMeters>1122.1254483575</DistanceMeters>
          </Trackpoint>
          <Trackpoint>
            <Time>2020-03-07T12:52:49.000Z</Time>
            <Position>
              <LatitudeDegrees>40.55296744219958782196044921875</LatitudeDegrees>
              <LongitudeDegrees>-3.67484553717076778411865234375</LongitudeDegrees>
            </Position>
            <AltitudeMeters>741.4000244140625</AltitudeMeters>
            <DistanceMeters>1128.5297131247</DistanceMeters>
          </Trackpoint>
          <Trackpoint>
            <Time>2020-03-07T12:52:50.000Z</Time>
            <Position>
              <LatitudeDegrees>40.55298470892012119293212890625</LatitudeDegrees>
              <LongitudeDegrees>-3.67491804063320159912109375</LongitudeDegrees>
            </Position>
            <AltitudeMeters>741.5999755859375</AltitudeMeters>
            <DistanceMeters>1134.9564984529</DistanceMeters>
          </Trackpoint>
          <Trackpoint>
            <Time>2020-03-07T12:52:51.000Z</Time>
            <Position>
              <LatitudeDegrees>40.55300365202128887176513671875</LatitudeDegrees>
              <LongitudeDegrees>-3.6749889515340328216552734375</LongitudeDegrees>
            </Position>
            <AltitudeMeters>741.5999755859375</AltitudeMeters>
            <DistanceMeters>1141.3126420959</DistanceMeters>
          </Trackpoint>
          <Trackpoint>
            <Time>2020-03-07T12:52:52.000Z</Time>
            <Position>
              <LatitudeDegrees>40.55302527733147144317626953125</LatitudeDegrees>
              <LongitudeDegrees>-3.67505826987326145172119140625</LongitudeDegrees>
            </Position>
            <AltitudeMeters>741.79998779296875</AltitudeMeters>
            <DistanceMeters>1147.6502899263</DistanceMeters>
          </Trackpoint>
          <Trackpoint>
            <Time>2020-03-07T12:52:53.000Z</Time>
            <Position>
              <LatitudeDegrees>40.55304505862295627593994140625</LatitudeDegrees>
              <LongitudeDegrees>-3.6751277558505535125732421875</LongitudeDegrees>
            </Position>
            <AltitudeMeters>742.20001220703125</AltitudeMeters>
            <DistanceMeters>1153.9249320114</DistanceMeters>
          </Trackpoint>
          <Trackpoint>
            <Time>2020-03-07T12:52:54.000Z</Time>
            <Position>
              <LatitudeDegrees>40.5530609004199504852294921875</LatitudeDegrees>
              <LongitudeDegrees>-3.6751991696655750274658203125</LongitudeDegrees>
            </Position>
            <AltitudeMeters>742.5999755859375</AltitudeMeters>
            <DistanceMeters>1160.2161024155</DistanceMeters>
          </Trackpoint>
          <Trackpoint>
            <Time>2020-03-07T12:52:55.000Z</Time>
            <Position>
              <LatitudeDegrees>40.5530766583979129791259765625</LatitudeDegrees>
              <LongitudeDegrees>-3.675269074738025665283203125</LongitudeDegrees>
            </Position>
            <AltitudeMeters>743</AltitudeMeters>
            <DistanceMeters>1166.3818644794</DistanceMeters>
          </Trackpoint>
          <Trackpoint>
            <Time>2020-03-07T12:52:56.000Z</Time>
            <Position>
              <LatitudeDegrees>40.55309266783297061920166015625</LatitudeDegrees>
              <LongitudeDegrees>-3.675337471067905426025390625</LongitudeDegrees>
            </Position>
            <AltitudeMeters>743.20001220703125</AltitudeMeters>
            <DistanceMeters>1172.4338054951</DistanceMeters>
          </Trackpoint>
          <Trackpoint>
            <Time>2020-03-07T12:52:57.000Z</Time>
            <Position>
              <LatitudeDegrees>40.55310943163931369781494140625</LatitudeDegrees>
              <LongitudeDegrees>-3.67540377192199230194091796875</LongitudeDegrees>
            </Position>
            <AltitudeMeters>743.5999755859375</AltitudeMeters>
            <DistanceMeters>1178.3422973104</DistanceMeters>
          </Trackpoint>
          <Trackpoint>
            <Time>2020-03-07T12:52:58.000Z</Time>
            <Position>
              <LatitudeDegrees>40.5531282909214496612548828125</LatitudeDegrees>
              <LongitudeDegrees>-3.67546663619577884674072265625</LongitudeDegrees>
            </Position>
            <AltitudeMeters>743.79998779296875</AltitudeMeters>
            <DistanceMeters>1184.0581364067</DistanceMeters>
          </Trackpoint>
          <Trackpoint>
            <Time>2020-03-07T12:52:59.000Z</Time>
            <Position>
              <LatitudeDegrees>40.553148575127124786376953125</LatitudeDegrees>
              <LongitudeDegrees>-3.67552648298442363739013671875</LongitudeDegrees>
            </Position>
            <AltitudeMeters>744.20001220703125</AltitudeMeters>
            <DistanceMeters>1189.600727864</DistanceMeters>
          </Trackpoint>
          <Trackpoint>
            <Time>2020-03-07T12:53:00.000Z</Time>
            <Position>
              <LatitudeDegrees>40.5531685240566730499267578125</LatitudeDegrees>
              <LongitudeDegrees>-3.67558549158275127410888671875</LongitudeDegrees>
            </Position>
            <AltitudeMeters>744.20001220703125</AltitudeMeters>
            <DistanceMeters>1195.0629044055</DistanceMeters>
          </Trackpoint>
          <Trackpoint>
            <Time>2020-03-07T12:53:01.000Z</Time>
            <Position>
              <LatitudeDegrees>40.5531856231391429901123046875</LatitudeDegrees>
              <LongitudeDegrees>-3.675645254552364349365234375</LongitudeDegrees>
            </Position>
            <AltitudeMeters>744.4000244140625</AltitudeMeters>
            <DistanceMeters>1200.4635661163</DistanceMeters>
          </Trackpoint>
          <Trackpoint>
            <Time>2020-03-07T12:53:02.000Z</Time>
            <Position>
              <LatitudeDegrees>40.55320045910775661468505859375</LatitudeDegrees>
              <LongitudeDegrees>-3.675705604255199432373046875</LongitudeDegrees>
            </Position>
            <AltitudeMeters>744.4000244140625</AltitudeMeters>
            <DistanceMeters>1205.8273170007</DistanceMeters>
          </Trackpoint>
          <Trackpoint>
            <Time>2020-03-07T12:53:03.000Z</Time>
            <Position>
              <LatitudeDegrees>40.55321286432445049285888671875</LatitudeDegrees>
              <LongitudeDegrees>-3.6757671274244785308837890625</LongitudeDegrees>
            </Position>
            <AltitudeMeters>744.4000244140625</AltitudeMeters>
            <DistanceMeters>1211.2095549397</DistanceMeters>
          </Trackpoint>
          <Trackpoint>
            <Time>2020-03-07T12:53:04.000Z</Time>
            <Position>
              <LatitudeDegrees>40.55322543717920780181884765625</LatitudeDegrees>
              <LongitudeDegrees>-3.675827644765377044677734375</LongitudeDegrees>
            </Position>
            <AltitudeMeters>744.5999755859375</AltitudeMeters>
            <DistanceMeters>1216.5140547464</DistanceMeters>
          </Trackpoint>
          <Trackpoint>
            <Time>2020-03-07T12:53:05.000Z</Time>
            <Position>
              <LatitudeDegrees>40.553240440785884857177734375</LatitudeDegrees>
              <LongitudeDegrees>-3.6758864857256412506103515625</LongitudeDegrees>
            </Position>
            <AltitudeMeters>744.5999755859375</AltitudeMeters>
            <DistanceMeters>1221.7620765789</DistanceMeters>
          </Trackpoint>
          <Trackpoint>
            <Time>2020-03-07T12:53:06.000Z</Time>
            <Position>
              <LatitudeDegrees>40.5532570369541645050048828125</LatitudeDegrees>
              <LongitudeDegrees>-3.67594440467655658721923828125</LongitudeDegrees>
            </Position>
            <AltitudeMeters>744.5999755859375</AltitudeMeters>
            <DistanceMeters>1226.9963150078</DistanceMeters>
          </Trackpoint>
          <Trackpoint>
            <Time>2020-03-07T12:53:07.000Z</Time>
            <Position>
              <LatitudeDegrees>40.5532738007605075836181640625</LatitudeDegrees>
              <LongitudeDegrees>-3.67600299417972564697265625</LongitudeDegrees>
            </Position>
            <AltitudeMeters>744.79998779296875</AltitudeMeters>
            <DistanceMeters>1232.291443652</DistanceMeters>
          </Trackpoint>
          <Trackpoint>
            <Time>2020-03-07T12:53:08.000Z</Time>
            <Position>
              <LatitudeDegrees>40.5532905645668506622314453125</LatitudeDegrees>
              <LongitudeDegrees>-3.6760625056922435760498046875</LongitudeDegrees>
            </Position>
            <AltitudeMeters>745</AltitudeMeters>
            <DistanceMeters>1237.6585605556</DistanceMeters>
          </Trackpoint>
          <Trackpoint>
            <Time>2020-03-07T12:53:09.000Z</Time>
            <Position>
              <LatitudeDegrees>40.55330640636384487152099609375</LatitudeDegrees>
              <LongitudeDegrees>-3.676123358309268951416015625</LongitudeDegrees>
            </Position>
            <AltitudeMeters>745</AltitudeMeters>
            <DistanceMeters>1243.0992030345</DistanceMeters>
          </Trackpoint>
          <Trackpoint>
            <Time>2020-03-07T12:53:10.000Z</Time>
            <Position>
              <LatitudeDegrees>40.55332099087536334991455078125</LatitudeDegrees>
              <LongitudeDegrees>-3.67618513293564319610595703125</LongitudeDegrees>
            </Position>
            <AltitudeMeters>745.20001220703125</AltitudeMeters>
            <DistanceMeters>1248.5696393366</DistanceMeters>
          </Trackpoint>
          <Trackpoint>
            <Time>2020-03-07T12:53:11.000Z</Time>
            <Position>
              <LatitudeDegrees>40.55333674885332584381103515625</LatitudeDegrees>
              <LongitudeDegrees>-3.67624581791460514068603515625</LongitudeDegrees>
            </Position>
            <AltitudeMeters>745.20001220703125</AltitudeMeters>
            <DistanceMeters>1253.9944913282</DistanceMeters>
          </Trackpoint>
          <Trackpoint>
            <Time>2020-03-07T12:53:12.000Z</Time>
            <Position>
              <LatitudeDegrees>40.55335435084998607635498046875</LatitudeDegrees>
              <LongitudeDegrees>-3.67630516178905963897705078125</LongitudeDegrees>
            </Position>
            <AltitudeMeters>745.4000244140625</AltitudeMeters>
            <DistanceMeters>1259.3817601808</DistanceMeters>
          </Trackpoint>
          <Trackpoint>
            <Time>2020-03-07T12:53:13.000Z</Time>
            <Position>
              <LatitudeDegrees>40.55337178520858287811279296875</LatitudeDegrees>
              <LongitudeDegrees>-3.67636375129222869873046875</LongitudeDegrees>
            </Position>
            <AltitudeMeters>745.4000244140625</AltitudeMeters>
            <DistanceMeters>1264.7015590093</DistanceMeters>
          </Trackpoint>
          <Trackpoint>
            <Time>2020-03-07T12:53:14.000Z</Time>
            <Position>
              <LatitudeDegrees>40.55338787846267223358154296875</LatitudeDegrees>
              <LongitudeDegrees>-3.67642275989055633544921875</LongitudeDegrees>
            </Position>
            <AltitudeMeters>745.5999755859375</AltitudeMeters>
            <DistanceMeters>1270.0026530373</DistanceMeters>
          </Trackpoint>
          <Trackpoint>
            <Time>2020-03-07T12:53:15.000Z</Time>
            <Position>
              <LatitudeDegrees>40.55340372025966644287109375</LatitudeDegrees>
              <LongitudeDegrees>-3.6764816008508205413818359375</LongitudeDegrees>
            </Position>
            <AltitudeMeters>745.79998779296875</AltitudeMeters>
            <DistanceMeters>1275.282411174</DistanceMeters>
          </Trackpoint>
          <Trackpoint>
            <Time>2020-03-07T12:53:16.000Z</Time>
            <Position>
              <LatitudeDegrees>40.5534189753234386444091796875</LatitudeDegrees>
              <LongitudeDegrees>-3.6765406094491481781005859375</LongitudeDegrees>
            </Position>
            <AltitudeMeters>746.20001220703125</AltitudeMeters>
            <DistanceMeters>1280.5544672525</DistanceMeters>
          </Trackpoint>
          <Trackpoint>
            <Time>2020-03-07T12:53:17.000Z</Time>
            <Position>
              <LatitudeDegrees>40.553433559834957122802734375</LatitudeDegrees>
              <LongitudeDegrees>-3.67659970186650753021240234375</LongitudeDegrees>
            </Position>
            <AltitudeMeters>746.4000244140625</AltitudeMeters>
            <DistanceMeters>1285.8076485375</DistanceMeters>
          </Trackpoint>
          <Trackpoint>
            <Time>2020-03-07T12:53:18.000Z</Time>
            <Position>
              <LatitudeDegrees>40.5534474737942218780517578125</LatitudeDegrees>
              <LongitudeDegrees>-3.67665837518870830535888671875</LongitudeDegrees>
            </Position>
            <AltitudeMeters>746.79998779296875</AltitudeMeters>
            <DistanceMeters>1291.0055316374</DistanceMeters>
          </Trackpoint>
          <Trackpoint>
            <Time>2020-03-07T12:53:19.000Z</Time>
            <Position>
              <LatitudeDegrees>40.55346264503896236419677734375</LatitudeDegrees>
              <LongitudeDegrees>-3.676716126501560211181640625</LongitudeDegrees>
            </Position>
            <AltitudeMeters>747</AltitudeMeters>
            <DistanceMeters>1296.1737969287</DistanceMeters>
          </Trackpoint>
          <Trackpoint>
            <Time>2020-03-07T12:53:20.000Z</Time>
            <Position>
              <LatitudeDegrees>40.55347773246467113494873046875</LatitudeDegrees>
              <LongitudeDegrees>-3.67677404545247554779052734375</LongitudeDegrees>
            </Position>
            <AltitudeMeters>747.4000244140625</AltitudeMeters>
            <DistanceMeters>1301.3525349061</DistanceMeters>
          </Trackpoint>
          <Trackpoint>
            <Time>2020-03-07T12:53:21.000Z</Time>
            <Position>
              <LatitudeDegrees>40.55349223315715789794921875</LatitudeDegrees>
              <LongitudeDegrees>-3.67683322168886661529541015625</LongitudeDegrees>
            </Position>
            <AltitudeMeters>747.5999755859375</AltitudeMeters>
            <DistanceMeters>1306.6108705811</DistanceMeters>
          </Trackpoint>
          <Trackpoint>
            <Time>2020-03-07T12:53:22.000Z</Time>
            <Position>
              <LatitudeDegrees>40.5535068176686763763427734375</LatitudeDegrees>
              <LongitudeDegrees>-3.67689239792525768280029296875</LongitudeDegrees>
            </Position>
            <AltitudeMeters>747.5999755859375</AltitudeMeters>
            <DistanceMeters>1311.8717815574</DistanceMeters>
          </Trackpoint>
          <Trackpoint>
            <Time>2020-03-07T12:53:23.000Z</Time>
            <Position>
              <LatitudeDegrees>40.5535205639898777008056640625</LatitudeDegrees>
              <LongitudeDegrees>-3.67695174179971218109130859375</LongitudeDegrees>
            </Position>
            <AltitudeMeters>747.79998779296875</AltitudeMeters>
            <DistanceMeters>1317.1198033899</DistanceMeters>
          </Trackpoint>
          <Trackpoint>
            <Time>2020-03-07T12:53:24.000Z</Time>
            <Position>
              <LatitudeDegrees>40.55353221483528614044189453125</LatitudeDegrees>
              <LongitudeDegrees>-3.67701175622642040252685546875</LongitudeDegrees>
            </Position>
            <AltitudeMeters>748.20001220703125</AltitudeMeters>
            <DistanceMeters>1322.3574910702</DistanceMeters>
          </Trackpoint>
          <Trackpoint>
            <Time>2020-03-07T12:53:25.000Z</Time>
            <Position>
              <LatitudeDegrees>40.553542859852313995361328125</LatitudeDegrees>
              <LongitudeDegrees>-3.67707227356731891632080078125</LongitudeDegrees>
            </Position>
            <AltitudeMeters>748.4000244140625</AltitudeMeters>
            <DistanceMeters>1327.6089531009</DistanceMeters>
          </Trackpoint>
          <Trackpoint>
            <Time>2020-03-07T12:53:26.000Z</Time>
            <Position>
              <LatitudeDegrees>40.55355434305965900421142578125</LatitudeDegrees>
              <LongitudeDegrees>-3.6771323718130588531494140625</LongitudeDegrees>
            </Position>
            <AltitudeMeters>748.79998779296875</AltitudeMeters>
            <DistanceMeters>1332.8492262299</DistanceMeters>
          </Trackpoint>
          <Trackpoint>
            <Time>2020-03-07T12:53:27.000Z</Time>
            <Position>
              <LatitudeDegrees>40.55356674827635288238525390625</LatitudeDegrees>
              <LongitudeDegrees>-3.67719196714460849761962890625</LongitudeDegrees>
            </Position>
            <AltitudeMeters>749</AltitudeMeters>
            <DistanceMeters>1338.0748315696</DistanceMeters>
          </Trackpoint>
          <Trackpoint>
            <Time>2020-03-07T12:53:28.000Z</Time>
            <Position>
              <LatitudeDegrees>40.5535802431404590606689453125</LatitudeDegrees>
              <LongitudeDegrees>-3.67725131101906299591064453125</LongitudeDegrees>
            </Position>
            <AltitudeMeters>749.4000244140625</AltitudeMeters>
            <DistanceMeters>1343.3133812079</DistanceMeters>
          </Trackpoint>
          <Trackpoint>
            <Time>2020-03-07T12:53:29.000Z</Time>
            <Position>
              <LatitudeDegrees>40.5535936541855335235595703125</LatitudeDegrees>
              <LongitudeDegrees>-3.67731115780770778656005859375</LongitudeDegrees>
            </Position>
            <AltitudeMeters>749.79998779296875</AltitudeMeters>
            <DistanceMeters>1348.5905732409</DistanceMeters>
          </Trackpoint>
          <Trackpoint>
            <Time>2020-03-07T12:53:30.000Z</Time>
            <Position>
              <LatitudeDegrees>40.55360647849738597869873046875</LatitudeDegrees>
              <LongitudeDegrees>-3.677371256053447723388671875</LongitudeDegrees>
            </Position>
            <AltitudeMeters>750.20001220703125</AltitudeMeters>
            <DistanceMeters>1353.8694761483</DistanceMeters>
          </Trackpoint>
          <Trackpoint>
            <Time>2020-03-07T12:53:31.000Z</Time>
            <Position>
              <LatitudeDegrees>40.55361905135214328765869140625</LatitudeDegrees>
              <LongitudeDegrees>-3.67743185721337795257568359375</LongitudeDegrees>
            </Position>
            <AltitudeMeters>750.5999755859375</AltitudeMeters>
            <DistanceMeters>1359.1807809608</DistanceMeters>
          </Trackpoint>
          <Trackpoint>
            <Time>2020-03-07T12:53:32.000Z</Time>
            <Position>
              <LatitudeDegrees>40.55363045074045658111572265625</LatitudeDegrees>
              <LongitudeDegrees>-3.67749304510653018951416015625</LongitudeDegrees>
            </Position>
            <AltitudeMeters>750.79998779296875</AltitudeMeters>
            <DistanceMeters>1364.5082128246</DistanceMeters>
          </Trackpoint>
          <Trackpoint>
            <Time>2020-03-07T12:53:33.000Z</Time>
            <Position>
              <LatitudeDegrees>40.55364109575748443603515625</LatitudeDegrees>
              <LongitudeDegrees>-3.67755490355193614959716796875</LongitudeDegrees>
            </Position>
            <AltitudeMeters>751</AltitudeMeters>
            <DistanceMeters>1369.8719637091</DistanceMeters>
          </Trackpoint>
          <Trackpoint>
            <Time>2020-03-07T12:53:34.000Z</Time>
            <Position>
              <LatitudeDegrees>40.55365207605063915252685546875</LatitudeDegrees>
              <LongitudeDegrees>-3.677617348730564117431640625</LongitudeDegrees>
            </Position>
            <AltitudeMeters>751.20001220703125</AltitudeMeters>
            <DistanceMeters>1375.2926526642</DistanceMeters>
          </Trackpoint>
          <Trackpoint>
            <Time>2020-03-07T12:53:35.000Z</Time>
            <Position>
              <LatitudeDegrees>40.5536632239818572998046875</LatitudeDegrees>
              <LongitudeDegrees>-3.6776798777282238006591796875</LongitudeDegrees>
            </Position>
            <AltitudeMeters>751.4000244140625</AltitudeMeters>
            <DistanceMeters>1380.7249900818</DistanceMeters>
          </Trackpoint>
          <Trackpoint>
            <Time>2020-03-07T12:53:36.000Z</Time>
            <Position>
              <LatitudeDegrees>40.5536734499037265777587890625</LatitudeDegrees>
              <LongitudeDegrees>-3.67774307727813720703125</LongitudeDegrees>
            </Position>
            <AltitudeMeters>751.79998779296875</AltitudeMeters>
            <DistanceMeters>1386.1904720255</DistanceMeters>
          </Trackpoint>
          <Trackpoint>
            <Time>2020-03-07T12:53:37.000Z</Time>
            <Position>
              <LatitudeDegrees>40.55368325673043727874755859375</LatitudeDegrees>
              <LongitudeDegrees>-3.67780677974224090576171875</LongitudeDegrees>
            </Position>
            <AltitudeMeters>752</AltitudeMeters>
            <DistanceMeters>1391.6872561564</DistanceMeters>
          </Trackpoint>
          <Trackpoint>
            <Time>2020-03-07T12:53:38.000Z</Time>
            <Position>
              <LatitudeDegrees>40.55369297973811626434326171875</LatitudeDegrees>
              <LongitudeDegrees>-3.6778704822063446044921875</LongitudeDegrees>
            </Position>
            <AltitudeMeters>752.4000244140625</AltitudeMeters>
            <DistanceMeters>1397.1823972491</DistanceMeters>
          </Trackpoint>
          <Trackpoint>
            <Time>2020-03-07T12:53:39.000Z</Time>
            <Position>
              <LatitudeDegrees>40.55370152927935123443603515625</LatitudeDegrees>
              <LongitudeDegrees>-3.6779346875846385955810546875</LongitudeDegrees>
            </Position>
            <AltitudeMeters>752.5999755859375</AltitudeMeters>
            <DistanceMeters>1402.6955848307</DistanceMeters>
          </Trackpoint>
          <Trackpoint>
            <Time>2020-03-07T12:53:40.000Z</Time>
            <Position>
              <LatitudeDegrees>40.55370974354445934295654296875</LatitudeDegrees>
              <LongitudeDegrees>-3.67799864150583744049072265625</LongitudeDegrees>
            </Position>
            <AltitudeMeters>752.79998779296875</AltitudeMeters>
            <DistanceMeters>1408.1800341773</DistanceMeters>
          </Trackpoint>
          <Trackpoint>
            <Time>2020-03-07T12:53:41.000Z</Time>
            <Position>
              <LatitudeDegrees>40.5537190474569797515869140625</LatitudeDegrees>
              <LongitudeDegrees>-3.6780620925128459930419921875</LongitudeDegrees>
            </Position>
            <AltitudeMeters>753</AltitudeMeters>
            <DistanceMeters>1413.6438636698</DistanceMeters>
          </Trackpoint>
          <Trackpoint>
            <Time>2020-03-07T12:53:42.000Z</Time>
            <Position>
              <LatitudeDegrees>40.55372734554111957550048828125</LatitudeDegrees>
              <LongitudeDegrees>-3.678125627338886260986328125</LongitudeDegrees>
            </Position>
            <AltitudeMeters>753.20001220703125</AltitudeMeters>
            <DistanceMeters>1419.0944555185</DistanceMeters>
          </Trackpoint>
          <Trackpoint>
            <Time>2020-03-07T12:53:43.000Z</Time>
            <Position>
              <LatitudeDegrees>40.55373270995914936065673828125</LatitudeDegrees>
              <LongitudeDegrees>-3.678190000355243682861328125</LongitudeDegrees>
            </Position>
            <AltitudeMeters>753.5999755859375</AltitudeMeters>
            <DistanceMeters>1424.5714906605</DistanceMeters>
          </Trackpoint>
          <Trackpoint>
            <Time>2020-03-07T12:53:44.000Z</Time>
            <Position>
              <LatitudeDegrees>40.5537368170917034149169921875</LatitudeDegrees>
              <LongitudeDegrees>-3.67825470864772796630859375</LongitudeDegrees>
            </Position>
            <AltitudeMeters>754</AltitudeMeters>
            <DistanceMeters>1430.0633442021</DistanceMeters>
          </Trackpoint>
          <Trackpoint>
            <Time>2020-03-07T12:53:45.000Z</Time>
            <Position>
              <LatitudeDegrees>40.55374042131006717681884765625</LatitudeDegrees>
              <LongitudeDegrees>-3.6783189140260219573974609375</LongitudeDegrees>
            </Position>
            <AltitudeMeters>754.4000244140625</AltitudeMeters>
            <DistanceMeters>1435.5081344612</DistanceMeters>
          </Trackpoint>
          <Trackpoint>
            <Time>2020-03-07T12:53:46.000Z</Time>
            <Position>
              <LatitudeDegrees>40.55374444462358951568603515625</LatitudeDegrees>
              <LongitudeDegrees>-3.6783826164901256561279296875</LongitudeDegrees>
            </Position>
            <AltitudeMeters>754.5999755859375</AltitudeMeters>
            <DistanceMeters>1440.9138099391</DistanceMeters>
          </Trackpoint>
          <Trackpoint>
            <Time>2020-03-07T12:53:47.000Z</Time>
            <Position>
              <LatitudeDegrees>40.5537490546703338623046875</LatitudeDegrees>
              <LongitudeDegrees>-3.6784458160400390625</LongitudeDegrees>
            </Position>
            <AltitudeMeters>754.5999755859375</AltitudeMeters>
            <DistanceMeters>1446.2826090608</DistanceMeters>
          </Trackpoint>
          <Trackpoint>
            <Time>2020-03-07T12:53:48.000Z</Time>
            <Position>
              <LatitudeDegrees>40.55375332944095134735107421875</LatitudeDegrees>
              <LongitudeDegrees>-3.6785088479518890380859375</LongitudeDegrees>
            </Position>
            <AltitudeMeters>754.79998779296875</AltitudeMeters>
            <DistanceMeters>1451.6337185162</DistanceMeters>
          </Trackpoint>
          <Trackpoint>
            <Time>2020-03-07T12:53:49.000Z</Time>
            <Position>
              <LatitudeDegrees>40.55375651456415653228759765625</LatitudeDegrees>
              <LongitudeDegrees>-3.67857213132083415985107421875</LongitudeDegrees>
            </Position>
            <AltitudeMeters>755.20001220703125</AltitudeMeters>
            <DistanceMeters>1456.9974694007</DistanceMeters>
          </Trackpoint>
          <Trackpoint>
            <Time>2020-03-07T12:53:50.000Z</Time>
            <Position>
              <LatitudeDegrees>40.55375969968736171722412109375</LatitudeDegrees>
              <LongitudeDegrees>-3.67863558232784271240234375</LongitudeDegrees>
            </Position>
            <AltitudeMeters>755.5999755859375</AltitudeMeters>
            <DistanceMeters>1462.3746717191</DistanceMeters>
          </Trackpoint>
          <Trackpoint>
            <Time>2020-03-07T12:53:51.000Z</Time>
            <Position>
              <LatitudeDegrees>40.55376389063894748687744140625</LatitudeDegrees>
              <LongitudeDegrees>-3.6786992847919464111328125</LongitudeDegrees>
            </Position>
            <AltitudeMeters>755.79998779296875</AltitudeMeters>
            <DistanceMeters>1467.7811823729</DistanceMeters>
          </Trackpoint>
          <Trackpoint>
            <Time>2020-03-07T12:53:52.000Z</Time>
            <Position>
              <LatitudeDegrees>40.5537666566669940948486328125</LatitudeDegrees>
              <LongitudeDegrees>-3.67876441217958927154541015625</LongitudeDegrees>
            </Position>
            <AltitudeMeters>756</AltitudeMeters>
            <DistanceMeters>1473.2976447915</DistanceMeters>
          </Trackpoint>
          <Trackpoint>
            <Time>2020-03-07T12:53:53.000Z</Time>
            <Position>
              <LatitudeDegrees>40.55376791395246982574462890625</LatitudeDegrees>
              <LongitudeDegrees>-3.67883046157658100128173828125</LongitudeDegrees>
            </Position>
            <AltitudeMeters>756.4000244140625</AltitudeMeters>
            <DistanceMeters>1478.884860043</DistanceMeters>
          </Trackpoint>
          <Trackpoint>
            <Time>2020-03-07T12:53:54.000Z</Time>
            <Position>
              <LatitudeDegrees>40.55376875214278697967529296875</LatitudeDegrees>
              <LongitudeDegrees>-3.678898103535175323486328125</LongitudeDegrees>
            </Position>
            <AltitudeMeters>756.79998779296875</AltitudeMeters>
            <DistanceMeters>1484.606225886</DistanceMeters>
          </Trackpoint>
          <Trackpoint>
            <Time>2020-03-07T12:53:55.000Z</Time>
            <Position>
              <LatitudeDegrees>40.55376891978085041046142578125</LatitudeDegrees>
              <LongitudeDegrees>-3.67896658368408679962158203125</LongitudeDegrees>
            </Position>
            <AltitudeMeters>756.79998779296875</AltitudeMeters>
            <DistanceMeters>1490.3974005434</DistanceMeters>
          </Trackpoint>
          <Trackpoint>
            <Time>2020-03-07T12:53:56.000Z</Time>
            <Position>
              <LatitudeDegrees>40.55376715958118438720703125</LatitudeDegrees>
              <LongitudeDegrees>-3.67903598584234714508056640625</LongitudeDegrees>
            </Position>
            <AltitudeMeters>757</AltitudeMeters>
            <DistanceMeters>1496.2706357691</DistanceMeters>
          </Trackpoint>
          <Trackpoint>
            <Time>2020-03-07T12:53:57.000Z</Time>
            <Position>
              <LatitudeDegrees>40.55376506410539150238037109375</LatitudeDegrees>
              <LongitudeDegrees>-3.67910639382898807525634765625</LongitudeDegrees>
            </Position>
            <AltitudeMeters>757</AltitudeMeters>
            <DistanceMeters>1502.2293487659</DistanceMeters>
          </Trackpoint>
          <Trackpoint>
            <Time>2020-03-07T12:53:58.000Z</Time>
            <Position>
              <LatitudeDegrees>40.55376389063894748687744140625</LatitudeDegrees>
              <LongitudeDegrees>-3.67917730472981929779052734375</LongitudeDegrees>
            </Position>
            <AltitudeMeters>757</AltitudeMeters>
            <DistanceMeters>1508.2265810005</DistanceMeters>
          </Trackpoint>
          <Trackpoint>
            <Time>2020-03-07T12:53:59.000Z</Time>
            <Position>
              <LatitudeDegrees>40.55376271717250347137451171875</LatitudeDegrees>
              <LongitudeDegrees>-3.67924871854484081268310546875</LongitudeDegrees>
            </Position>
            <AltitudeMeters>757</AltitudeMeters>
            <DistanceMeters>1514.2665734536</DistanceMeters>
          </Trackpoint>
          <Trackpoint>
            <Time>2020-03-07T12:54:00.000Z</Time>
            <Position>
              <LatitudeDegrees>40.5537606216967105865478515625</LatitudeDegrees>
              <LongitudeDegrees>-3.6793215572834014892578125</LongitudeDegrees>
            </Position>
            <AltitudeMeters>757</AltitudeMeters>
            <DistanceMeters>1520.430870792</DistanceMeters>
          </Trackpoint>
          <Trackpoint>
            <Time>2020-03-07T12:54:01.000Z</Time>
            <Position>
              <LatitudeDegrees>40.55375869385898113250732421875</LatitudeDegrees>
              <LongitudeDegrees>-3.67939523421227931976318359375</LongitudeDegrees>
            </Position>
            <AltitudeMeters>757.20001220703125</AltitudeMeters>
            <DistanceMeters>1526.6650867824</DistanceMeters>
          </Trackpoint>
          <Trackpoint>
            <Time>2020-03-07T12:54:02.000Z</Time>
            <Position>
              <LatitudeDegrees>40.55375508964061737060546875</LatitudeDegrees>
              <LongitudeDegrees>-3.6794685758650302886962890625</LongitudeDegrees>
            </Position>
            <AltitudeMeters>757.20001220703125</AltitudeMeters>
            <DistanceMeters>1532.8804441355</DistanceMeters>
          </Trackpoint>
          <Trackpoint>
            <Time>2020-03-07T12:54:03.000Z</Time>
            <Position>
              <LatitudeDegrees>40.55374947376549243927001953125</LatitudeDegrees>
              <LongitudeDegrees>-3.67954191751778125762939453125</LongitudeDegrees>
            </Position>
            <AltitudeMeters>757.4000244140625</AltitudeMeters>
            <DistanceMeters>1539.1139358487</DistanceMeters>
          </Trackpoint>
          <Trackpoint>
            <Time>2020-03-07T12:54:04.000Z</Time>
            <Position>
              <LatitudeDegrees>40.55374276824295520782470703125</LatitudeDegrees>
              <LongitudeDegrees>-3.67961592972278594970703125</LongitudeDegrees>
            </Position>
            <AltitudeMeters>757.5999755859375</AltitudeMeters>
            <DistanceMeters>1545.4165786497</DistanceMeters>
          </Trackpoint>
          <Trackpoint>
            <Time>2020-03-07T12:54:05.000Z</Time>
            <Position>
              <LatitudeDegrees>40.553734637796878814697265625</LatitudeDegrees>
              <LongitudeDegrees>-3.67969078011810779571533203125</LongitudeDegrees>
            </Position>
            <AltitudeMeters>757.5999755859375</AltitudeMeters>
            <DistanceMeters>1551.8102595975</DistanceMeters>
          </Trackpoint>
          <Trackpoint>
            <Time>2020-03-07T12:54:06.000Z</Time>
            <Position>
              <LatitudeDegrees>40.5537270940840244293212890625</LatitudeDegrees>
              <LongitudeDegrees>-3.67976688779890537261962890625</LongitudeDegrees>
            </Position>
            <AltitudeMeters>757.5999755859375</AltitudeMeters>
            <DistanceMeters>1558.2999650249</DistanceMeters>
          </Trackpoint>
          <Trackpoint>
            <Time>2020-03-07T12:54:07.000Z</Time>
            <Position>
              <LatitudeDegrees>40.5537190474569797515869140625</LatitudeDegrees>
              <LongitudeDegrees>-3.6798434145748615264892578125</LongitudeDegrees>
            </Position>
            <AltitudeMeters>757.4000244140625</AltitudeMeters>
            <DistanceMeters>1564.8326628806</DistanceMeters>
          </Trackpoint>
          <Trackpoint>
            <Time>2020-03-07T12:54:08.000Z</Time>
            <Position>
              <LatitudeDegrees>40.553709156811237335205078125</LatitudeDegrees>
              <LongitudeDegrees>-3.67991994135081768035888671875</LongitudeDegrees>
            </Position>
            <AltitudeMeters>757.79998779296875</AltitudeMeters>
            <DistanceMeters>1571.3970763952</DistanceMeters>
          </Trackpoint>
          <Trackpoint>
            <Time>2020-03-07T12:54:09.000Z</Time>
            <Position>
              <LatitudeDegrees>40.55369767360389232635498046875</LatitudeDegrees>
              <LongitudeDegrees>-3.6799963004887104034423828125</LongitudeDegrees>
            </Position>
            <AltitudeMeters>757.79998779296875</AltitudeMeters>
            <DistanceMeters>1577.9793485544</DistanceMeters>
          </Trackpoint>
          <Trackpoint>
            <Time>2020-03-07T12:54:10.000Z</Time>
            <Position>
              <LatitudeDegrees>40.55368577130138874053955078125</LatitudeDegrees>
              <LongitudeDegrees>-3.68007349781692028045654296875</LongitudeDegrees>
            </Position>
            <AltitudeMeters>757.79998779296875</AltitudeMeters>
            <DistanceMeters>1584.6407144538</DistanceMeters>
          </Trackpoint>
          <Trackpoint>
            <Time>2020-03-07T12:54:11.000Z</Time>
            <Position>
              <LatitudeDegrees>40.55367319844663143157958984375</LatitudeDegrees>
              <LongitudeDegrees>-3.68015103042125701904296875</LongitudeDegrees>
            </Position>
            <AltitudeMeters>758</AltitudeMeters>
            <DistanceMeters>1591.345318882</DistanceMeters>
          </Trackpoint>
          <Trackpoint>
            <Time>2020-03-07T12:54:12.000Z</Time>
            <Position>
              <LatitudeDegrees>40.55365961976349353790283203125</LatitudeDegrees>
              <LongitudeDegrees>-3.6802293173968791961669921875</LongitudeDegrees>
            </Position>
            <AltitudeMeters>758</AltitudeMeters>
            <DistanceMeters>1598.1362393203</DistanceMeters>
          </Trackpoint>
          <Trackpoint>
            <Time>2020-03-07T12:54:13.000Z</Time>
            <Position>
              <LatitudeDegrees>40.55364553816616535186767578125</LatitudeDegrees>
              <LongitudeDegrees>-3.6803087778389453887939453125</LongitudeDegrees>
            </Position>
            <AltitudeMeters>758</AltitudeMeters>
            <DistanceMeters>1605.0372988886</DistanceMeters>
          </Trackpoint>
          <Trackpoint>
            <Time>2020-03-07T12:54:14.000Z</Time>
            <Position>
              <LatitudeDegrees>40.5536308698356151580810546875</LatitudeDegrees>
              <LongitudeDegrees>-3.68039050139486789703369140625</LongitudeDegrees>
            </Position>
            <AltitudeMeters>758</AltitudeMeters>
            <DistanceMeters>1612.1382809941</DistanceMeters>
          </Trackpoint>
          <Trackpoint>
            <Time>2020-03-07T12:54:15.000Z</Time>
            <Position>
              <LatitudeDegrees>40.55361452512443065643310546875</LatitudeDegrees>
              <LongitudeDegrees>-3.680473901331424713134765625</LongitudeDegrees>
            </Position>
            <AltitudeMeters>758</AltitudeMeters>
            <DistanceMeters>1619.4219407273</DistanceMeters>
          </Trackpoint>
          <Trackpoint>
            <Time>2020-03-07T12:54:16.000Z</Time>
            <Position>
              <LatitudeDegrees>40.55359683930873870849609375</LatitudeDegrees>
              <LongitudeDegrees>-3.6805582232773303985595703125</LongitudeDegrees>
            </Position>
            <AltitudeMeters>758</AltitudeMeters>
            <DistanceMeters>1626.8193905074</DistanceMeters>
          </Trackpoint>
          <Trackpoint>
            <Time>2020-03-07T12:54:17.000Z</Time>
            <Position>
              <LatitudeDegrees>40.55357806384563446044921875</LatitudeDegrees>
              <LongitudeDegrees>-3.6806450597941875457763671875</LongitudeDegrees>
            </Position>
            <AltitudeMeters>758</AltitudeMeters>
            <DistanceMeters>1634.4547145688</DistanceMeters>
          </Trackpoint>
          <Trackpoint>
            <Time>2020-03-07T12:54:18.000Z</Time>
            <Position>
              <LatitudeDegrees>40.5535581149160861968994140625</LatitudeDegrees>
              <LongitudeDegrees>-3.68073348887264728546142578125</LongitudeDegrees>
            </Position>
            <AltitudeMeters>758</AltitudeMeters>
            <DistanceMeters>1642.2555917731</DistanceMeters>
          </Trackpoint>
          <Trackpoint>
            <Time>2020-03-07T12:54:19.000Z</Time>
            <Position>
              <LatitudeDegrees>40.55353707633912563323974609375</LatitudeDegrees>
              <LongitudeDegrees>-3.680823259055614471435546875</LongitudeDegrees>
            </Position>
            <AltitudeMeters>758</AltitudeMeters>
            <DistanceMeters>1650.199847828</DistanceMeters>
          </Trackpoint>
          <Trackpoint>
            <Time>2020-03-07T12:54:20.000Z</Time>
            <Position>
              <LatitudeDegrees>40.55351528339087963104248046875</LatitudeDegrees>
              <LongitudeDegrees>-3.68091487325727939605712890625</LongitudeDegrees>
            </Position>
            <AltitudeMeters>758</AltitudeMeters>
            <DistanceMeters>1658.3178215831</DistanceMeters>
          </Trackpoint>
          <Trackpoint>
            <Time>2020-03-07T12:54:21.000Z</Time>
            <Position>
              <LatitudeDegrees>40.55349131114780902862548828125</LatitudeDegrees>
              <LongitudeDegrees>-3.6810071580111980438232421875</LongitudeDegrees>
            </Position>
            <AltitudeMeters>758</AltitudeMeters>
            <DistanceMeters>1666.5654616002</DistanceMeters>
          </Trackpoint>
          <Trackpoint>
            <Time>2020-03-07T12:54:22.000Z</Time>
            <Position>
              <LatitudeDegrees>40.55346381850540637969970703125</LatitudeDegrees>
              <LongitudeDegrees>-3.6811000294983386993408203125</LongitudeDegrees>
            </Position>
            <AltitudeMeters>758</AltitudeMeters>
            <DistanceMeters>1674.9944972189</DistanceMeters>
          </Trackpoint>
          <Trackpoint>
            <Time>2020-03-07T12:54:23.000Z</Time>
            <Position>
              <LatitudeDegrees>40.5534347333014011383056640625</LatitudeDegrees>
              <LongitudeDegrees>-3.6811945773661136627197265625</LongitudeDegrees>
            </Position>
            <AltitudeMeters>758</AltitudeMeters>
            <DistanceMeters>1683.6204945467</DistanceMeters>
          </Trackpoint>
          <Trackpoint>
            <Time>2020-03-07T12:54:24.000Z</Time>
            <Position>
              <LatitudeDegrees>40.553405396640300750732421875</LatitudeDegrees>
              <LongitudeDegrees>-3.68129172362387180328369140625</LongitudeDegrees>
            </Position>
            <AltitudeMeters>758</AltitudeMeters>
            <DistanceMeters>1692.4605330956</DistanceMeters>
          </Trackpoint>
          <Trackpoint>
            <Time>2020-03-07T12:54:25.000Z</Time>
            <Position>
              <LatitudeDegrees>40.55337429977953433990478515625</LatitudeDegrees>
              <LongitudeDegrees>-3.6813910491764545440673828125</LongitudeDegrees>
            </Position>
            <AltitudeMeters>757.79998779296875</AltitudeMeters>
            <DistanceMeters>1701.5454050648</DistanceMeters>
          </Trackpoint>
          <Trackpoint>
            <Time>2020-03-07T12:54:26.000Z</Time>
            <Position>
              <LatitudeDegrees>40.55333943106234073638916015625</LatitudeDegrees>
              <LongitudeDegrees>-3.6814906261861324310302734375</LongitudeDegrees>
            </Position>
            <AltitudeMeters>757.5999755859375</AltitudeMeters>
            <DistanceMeters>1710.8172078963</DistanceMeters>
          </Trackpoint>
          <Trackpoint>
            <Time>2020-03-07T12:54:27.000Z</Time>
            <Position>
              <LatitudeDegrees>40.55330255068838596343994140625</LatitudeDegrees>
              <LongitudeDegrees>-3.68159213103353977203369140625</LongitudeDegrees>
            </Position>
            <AltitudeMeters>757.20001220703125</AltitudeMeters>
            <DistanceMeters>1720.3322247869</DistanceMeters>
          </Trackpoint>
          <Trackpoint>
            <Time>2020-03-07T12:54:28.000Z</Time>
            <Position>
              <LatitudeDegrees>40.55326533503830432891845703125</LatitudeDegrees>
              <LongitudeDegrees>-3.6816966533660888671875</LongitudeDegrees>
            </Position>
            <AltitudeMeters>757</AltitudeMeters>
            <DistanceMeters>1730.0941096824</DistanceMeters>
          </Trackpoint>
          <Trackpoint>
            <Time>2020-03-07T12:54:29.000Z</Time>
            <Position>
              <LatitudeDegrees>40.5532248504459857940673828125</LatitudeDegrees>
              <LongitudeDegrees>-3.68180318735539913177490234375</LongitudeDegrees>
            </Position>
            <AltitudeMeters>756.5999755859375</AltitudeMeters>
            <DistanceMeters>1740.1673896348</DistanceMeters>
          </Trackpoint>
          <Trackpoint>
            <Time>2020-03-07T12:54:30.000Z</Time>
            <Position>
              <LatitudeDegrees>40.553178079426288604736328125</LatitudeDegrees>
              <LongitudeDegrees>-3.6819107271730899810791015625</LongitudeDegrees>
            </Position>
            <AltitudeMeters>756.4000244140625</AltitudeMeters>
            <DistanceMeters>1750.6462125438</DistanceMeters>
          </Trackpoint>
          <Trackpoint>
            <Time>2020-03-07T12:54:31.000Z</Time>
            <Position>
              <LatitudeDegrees>40.5531246028840541839599609375</LatitudeDegrees>
              <LongitudeDegrees>-3.68201860226690769195556640625</LongitudeDegrees>
            </Position>
            <AltitudeMeters>756.20001220703125</AltitudeMeters>
            <DistanceMeters>1761.5391095173</DistanceMeters>
          </Trackpoint>
          <Trackpoint>
            <Time>2020-03-07T12:54:32.000Z</Time>
            <Position>
              <LatitudeDegrees>40.5530679412186145782470703125</LatitudeDegrees>
              <LongitudeDegrees>-3.68212941102683544158935546875</LongitudeDegrees>
            </Position>
            <AltitudeMeters>756</AltitudeMeters>
            <DistanceMeters>1772.8349043168</DistanceMeters>
          </Trackpoint>
          <Trackpoint>
            <Time>2020-03-07T12:54:33.000Z</Time>
            <Position>
              <LatitudeDegrees>40.5530136264860630035400390625</LatitudeDegrees>
              <LongitudeDegrees>-3.68224508129060268402099609375</LongitudeDegrees>
            </Position>
            <AltitudeMeters>755.79998779296875</AltitudeMeters>
            <DistanceMeters>1784.3339220735</DistanceMeters>
          </Trackpoint>
          <Trackpoint>
            <Time>2020-03-07T12:54:34.000Z</Time>
            <Position>
              <LatitudeDegrees>40.552959144115447998046875</LatitudeDegrees>
              <LongitudeDegrees>-3.68236360140144824981689453125</LongitudeDegrees>
            </Position>
            <AltitudeMeters>755.4000244140625</AltitudeMeters>
            <DistanceMeters>1796.0484460382</DistanceMeters>
          </Trackpoint>
          <Trackpoint>
            <Time>2020-03-07T12:54:35.000Z</Time>
            <Position>
              <LatitudeDegrees>40.5529033206403255462646484375</LatitudeDegrees>
              <LongitudeDegrees>-3.6824817024171352386474609375</LongitudeDegrees>
            </Position>
            <AltitudeMeters>755.20001220703125</AltitudeMeters>
            <DistanceMeters>1807.8110491206</DistanceMeters>
          </Trackpoint>
          <Trackpoint>
            <Time>2020-03-07T12:54:36.000Z</Time>
            <Position>
              <LatitudeDegrees>40.552850179374217987060546875</LatitudeDegrees>
              <LongitudeDegrees>-3.6826013959944248199462890625</LongitudeDegrees>
            </Position>
            <AltitudeMeters>754.79998779296875</AltitudeMeters>
            <DistanceMeters>1819.5348195701</DistanceMeters>
          </Trackpoint>
          <Trackpoint>
            <Time>2020-03-07T12:54:37.000Z</Time>
            <Position>
              <LatitudeDegrees>40.55280634202063083648681640625</LatitudeDegrees>
              <LongitudeDegrees>-3.6827261187136173248291015625</LongitudeDegrees>
            </Position>
            <AltitudeMeters>754.4000244140625</AltitudeMeters>
            <DistanceMeters>1831.1560855638</DistanceMeters>
          </Trackpoint>
          <Trackpoint>
            <Time>2020-03-07T12:54:38.000Z</Time>
            <Position>
              <LatitudeDegrees>40.5527802743017673492431640625</LatitudeDegrees>
              <LongitudeDegrees>-3.68285729549825191497802734375</LongitudeDegrees>
            </Position>
            <AltitudeMeters>754</AltitudeMeters>
            <DistanceMeters>1842.6224674266</DistanceMeters>
          </Trackpoint>
          <Trackpoint>
            <Time>2020-03-07T12:54:39.000Z</Time>
            <Position>
              <LatitudeDegrees>40.552778430283069610595703125</LatitudeDegrees>
              <LongitudeDegrees>-3.68299056775867938995361328125</LongitudeDegrees>
            </Position>
            <AltitudeMeters>753.20001220703125</AltitudeMeters>
            <DistanceMeters>1853.8950552271</DistanceMeters>
          </Trackpoint>
          <Trackpoint>
            <Time>2020-03-07T12:54:40.000Z</Time>
            <Position>
              <LatitudeDegrees>40.55278102867305278778076171875</LatitudeDegrees>
              <LongitudeDegrees>-3.68312601931393146514892578125</LongitudeDegrees>
            </Position>
            <AltitudeMeters>752.5999755859375</AltitudeMeters>
            <DistanceMeters>1865.3539531484</DistanceMeters>
          </Trackpoint>
          <Trackpoint>
            <Time>2020-03-07T12:54:41.000Z</Time>
            <Position>
              <LatitudeDegrees>40.5527631752192974090576171875</LatitudeDegrees>
              <LongitudeDegrees>-3.683256022632122039794921875</LongitudeDegrees>
            </Position>
            <AltitudeMeters>751.5999755859375</AltitudeMeters>
            <DistanceMeters>1876.5263632145</DistanceMeters>
          </Trackpoint>
          <Trackpoint>
            <Time>2020-03-07T12:54:42.000Z</Time>
            <Position>
              <LatitudeDegrees>40.55272168479859828948974609375</LatitudeDegrees>
              <LongitudeDegrees>-3.68337613530457019805908203125</LongitudeDegrees>
            </Position>
            <AltitudeMeters>750.79998779296875</AltitudeMeters>
            <DistanceMeters>1887.6846199784</DistanceMeters>
          </Trackpoint>
          <Trackpoint>
            <Time>2020-03-07T12:54:43.000Z</Time>
            <Position>
              <LatitudeDegrees>40.55266343057155609130859375</LatitudeDegrees>
              <LongitudeDegrees>-3.68348258547484874725341796875</LongitudeDegrees>
            </Position>
            <AltitudeMeters>750.20001220703125</AltitudeMeters>
            <DistanceMeters>1898.77875996</DistanceMeters>
          </Trackpoint>
          <Trackpoint>
            <Time>2020-03-07T12:54:44.000Z</Time>
            <Position>
              <LatitudeDegrees>40.55259377695620059967041015625</LatitudeDegrees>
              <LongitudeDegrees>-3.6835763789713382720947265625</LongitudeDegrees>
            </Position>
            <AltitudeMeters>749.5999755859375</AltitudeMeters>
            <DistanceMeters>1909.8704578225</DistanceMeters>
          </Trackpoint>
          <Trackpoint>
            <Time>2020-03-07T12:54:45.000Z</Time>
            <Position>
              <LatitudeDegrees>40.55252529680728912353515625</LatitudeDegrees>
              <LongitudeDegrees>-3.683671765029430389404296875</LongitudeDegrees>
            </Position>
            <AltitudeMeters>748.79998779296875</AltitudeMeters>
            <DistanceMeters>1920.9686668084</DistanceMeters>
          </Trackpoint>
          <Trackpoint>
            <Time>2020-03-07T12:54:46.000Z</Time>
            <Position>
              <LatitudeDegrees>40.55247358046472072601318359375</LatitudeDegrees>
              <LongitudeDegrees>-3.68378408253192901611328125</LongitudeDegrees>
            </Position>
            <AltitudeMeters>748.20001220703125</AltitudeMeters>
            <DistanceMeters>1932.0754158513</DistanceMeters>
          </Trackpoint>
          <Trackpoint>
            <Time>2020-03-07T12:54:47.000Z</Time>
            <Position>
              <LatitudeDegrees>40.5524419806897640228271484375</LatitudeDegrees>
              <LongitudeDegrees>-3.683909140527248382568359375</LongitudeDegrees>
            </Position>
            <AltitudeMeters>747.5999755859375</AltitudeMeters>
            <DistanceMeters>1943.2207167249</DistanceMeters>
          </Trackpoint>
          <Trackpoint>
            <Time>2020-03-07T12:54:48.000Z</Time>
            <Position>
              <LatitudeDegrees>40.5524175055325031280517578125</LatitudeDegrees>
              <LongitudeDegrees>-3.6840357072651386260986328125</LongitudeDegrees>
            </Position>
            <AltitudeMeters>747</AltitudeMeters>
            <DistanceMeters>1954.2655029465</DistanceMeters>
          </Trackpoint>
          <Trackpoint>
            <Time>2020-03-07T12:54:49.000Z</Time>
            <Position>
              <LatitudeDegrees>40.55239520967006683349609375</LatitudeDegrees>
              <LongitudeDegrees>-3.68416151963174343109130859375</LongitudeDegrees>
            </Position>
            <AltitudeMeters>746.20001220703125</AltitudeMeters>
            <DistanceMeters>1965.190269322</DistanceMeters>
          </Trackpoint>
          <Trackpoint>
            <Time>2020-03-07T12:54:50.000Z</Time>
            <Position>
              <LatitudeDegrees>40.55237484164535999298095703125</LatitudeDegrees>
              <LongitudeDegrees>-3.68428640998899936676025390625</LongitudeDegrees>
            </Position>
            <AltitudeMeters>745.4000244140625</AltitudeMeters>
            <DistanceMeters>1975.9924287269</DistanceMeters>
          </Trackpoint>
          <Trackpoint>
            <Time>2020-03-07T12:54:51.000Z</Time>
            <Position>
              <LatitudeDegrees>40.55235606618225574493408203125</LatitudeDegrees>
              <LongitudeDegrees>-3.68441113270819187164306640625</LongitudeDegrees>
            </Position>
            <AltitudeMeters>745.4000244140625</AltitudeMeters>
            <DistanceMeters>1986.7451539065</DistanceMeters>
          </Trackpoint>
          <Trackpoint>
            <Time>2020-03-07T12:54:52.000Z</Time>
            <Position>
              <LatitudeDegrees>40.5523400567471981048583984375</LatitudeDegrees>
              <LongitudeDegrees>-3.684536777436733245849609375</LongitudeDegrees>
            </Position>
            <AltitudeMeters>745.20001220703125</AltitudeMeters>
            <DistanceMeters>1997.5192725567</DistanceMeters>
          </Trackpoint>
          <Trackpoint>
            <Time>2020-03-07T12:54:53.000Z</Time>
            <Position>
              <LatitudeDegrees>40.5523274838924407958984375</LatitudeDegrees>
              <LongitudeDegrees>-3.68466225452721118927001953125</LongitudeDegrees>
            </Position>
            <AltitudeMeters>745</AltitudeMeters>
            <DistanceMeters>2008.2223351916</DistanceMeters>
          </Trackpoint>
          <Trackpoint>
            <Time>2020-03-07T12:54:54.000Z</Time>
            <Position>
              <LatitudeDegrees>40.55231700651347637176513671875</LatitudeDegrees>
              <LongitudeDegrees>-3.6847873963415622711181640625</LongitudeDegrees>
            </Position>
            <AltitudeMeters>744.79998779296875</AltitudeMeters>
            <DistanceMeters>2018.8691445541</DistanceMeters>
          </Trackpoint>
          <Trackpoint>
            <Time>2020-03-07T12:54:55.000Z</Time>
            <Position>
              <LatitudeDegrees>40.5523092113435268402099609375</LatitudeDegrees>
              <LongitudeDegrees>-3.68491203524172306060791015625</LongitudeDegrees>
            </Position>
            <AltitudeMeters>744.5999755859375</AltitudeMeters>
            <DistanceMeters>2029.4457502</DistanceMeters>
          </Trackpoint>
          <Trackpoint>
            <Time>2020-03-07T12:54:56.000Z</Time>
            <Position>
              <LatitudeDegrees>40.55230493657290935516357421875</LatitudeDegrees>
              <LongitudeDegrees>-3.6850361712276935577392578125</LongitudeDegrees>
            </Position>
            <AltitudeMeters>744.4000244140625</AltitudeMeters>
            <DistanceMeters>2039.954690913</DistanceMeters>
          </Trackpoint>
          <Trackpoint>
            <Time>2020-03-07T12:54:57.000Z</Time>
            <Position>
              <LatitudeDegrees>40.55230342783033847808837890625</LatitudeDegrees>
              <LongitudeDegrees>-3.68516047485172748565673828125</LongitudeDegrees>
            </Position>
            <AltitudeMeters>744.20001220703125</AltitudeMeters>
            <DistanceMeters>2050.4679271261</DistanceMeters>
          </Trackpoint>
          <Trackpoint>
            <Time>2020-03-07T12:54:58.000Z</Time>
            <Position>
              <LatitudeDegrees>40.5523025058209896087646484375</LatitudeDegrees>
              <LongitudeDegrees>-3.68528368882834911346435546875</LongitudeDegrees>
            </Position>
            <AltitudeMeters>744.20001220703125</AltitudeMeters>
            <DistanceMeters>2060.8888531558</DistanceMeters>
          </Trackpoint>
          <Trackpoint>
            <Time>2020-03-07T12:54:59.000Z</Time>
            <Position>
              <LatitudeDegrees>40.55230225436389446258544921875</LatitudeDegrees>
              <LongitudeDegrees>-3.685405813157558441162109375</LongitudeDegrees>
            </Position>
            <AltitudeMeters>744.20001220703125</AltitudeMeters>
            <DistanceMeters>2071.2170811273</DistanceMeters>
          </Trackpoint>
          <Trackpoint>
            <Time>2020-03-07T12:55:00.000Z</Time>
            <Position>
              <LatitudeDegrees>40.5523031763732433319091796875</LatitudeDegrees>
              <LongitudeDegrees>-3.6855273507535457611083984375</LongitudeDegrees>
            </Position>
            <AltitudeMeters>744</AltitudeMeters>
            <DistanceMeters>2081.4957918633</DistanceMeters>
          </Trackpoint>
          <Trackpoint>
            <Time>2020-03-07T12:55:01.000Z</Time>
            <Position>
              <LatitudeDegrees>40.55230678059160709381103515625</LatitudeDegrees>
              <LongitudeDegrees>-3.68564796634018421173095703125</LongitudeDegrees>
            </Position>
            <AltitudeMeters>744</AltitudeMeters>
            <DistanceMeters>2091.7035365744</DistanceMeters>
          </Trackpoint>
          <Trackpoint>
            <Time>2020-03-07T12:55:02.000Z</Time>
            <Position>
              <LatitudeDegrees>40.55231482721865177154541015625</LatitudeDegrees>
              <LongitudeDegrees>-3.68576749227941036224365234375</LongitudeDegrees>
            </Position>
            <AltitudeMeters>744</AltitudeMeters>
            <DistanceMeters>2101.8513930854</DistanceMeters>
          </Trackpoint>
          <Trackpoint>
            <Time>2020-03-07T12:55:03.000Z</Time>
            <Position>
              <LatitudeDegrees>40.55232438258826732635498046875</LatitudeDegrees>
              <LongitudeDegrees>-3.6858864314854145050048828125</LongitudeDegrees>
            </Position>
            <AltitudeMeters>744</AltitudeMeters>
            <DistanceMeters>2111.9662715379</DistanceMeters>
          </Trackpoint>
          <Trackpoint>
            <Time>2020-03-07T12:55:04.000Z</Time>
            <Position>
              <LatitudeDegrees>40.55233511142432689666748046875</LatitudeDegrees>
              <LongitudeDegrees>-3.68600402958691120147705078125</LongitudeDegrees>
            </Position>
            <AltitudeMeters>744</AltitudeMeters>
            <DistanceMeters>2121.9824658897</DistanceMeters>
          </Trackpoint>
          <Trackpoint>
            <Time>2020-03-07T12:55:05.000Z</Time>
            <Position>
              <LatitudeDegrees>40.5523481033742427825927734375</LatitudeDegrees>
              <LongitudeDegrees>-3.68612087331712245941162109375</LongitudeDegrees>
            </Position>
            <AltitudeMeters>744</AltitudeMeters>
            <DistanceMeters>2131.9688648526</DistanceMeters>
          </Trackpoint>
          <Trackpoint>
            <Time>2020-03-07T12:55:06.000Z</Time>
            <Position>
              <LatitudeDegrees>40.5523625202476978302001953125</LatitudeDegrees>
              <LongitudeDegrees>-3.68623654358088970184326171875</LongitudeDegrees>
            </Position>
            <AltitudeMeters>744</AltitudeMeters>
            <DistanceMeters>2141.8817499959</DistanceMeters>
          </Trackpoint>
          <Trackpoint>
            <Time>2020-03-07T12:55:07.000Z</Time>
            <Position>
              <LatitudeDegrees>40.55237651802599430084228515625</LatitudeDegrees>
              <LongitudeDegrees>-3.686351291835308074951171875</LongitudeDegrees>
            </Position>
            <AltitudeMeters>744</AltitudeMeters>
            <DistanceMeters>2151.7104710621</DistanceMeters>
          </Trackpoint>
          <Trackpoint>
            <Time>2020-03-07T12:55:08.000Z</Time>
            <Position>
              <LatitudeDegrees>40.5523906834423542022705078125</LatitudeDegrees>
              <LongitudeDegrees>-3.6864654533565044403076171875</LongitudeDegrees>
            </Position>
            <AltitudeMeters>744</AltitudeMeters>
            <DistanceMeters>2161.4931470842</DistanceMeters>
          </Trackpoint>
          <Trackpoint>
            <Time>2020-03-07T12:55:09.000Z</Time>
            <Position>
              <LatitudeDegrees>40.55240459740161895751953125</LatitudeDegrees>
              <LongitudeDegrees>-3.68657886050641536712646484375</LongitudeDegrees>
            </Position>
            <AltitudeMeters>744</AltitudeMeters>
            <DistanceMeters>2171.208205447</DistanceMeters>
          </Trackpoint>
          <Trackpoint>
            <Time>2020-03-07T12:55:10.000Z</Time>
            <Position>
              <LatitudeDegrees>40.55242010392248630523681640625</LatitudeDegrees>
              <LongitudeDegrees>-3.68669101037085056304931640625</LongitudeDegrees>
            </Position>
            <AltitudeMeters>744</AltitudeMeters>
            <DistanceMeters>2180.8486176146</DistanceMeters>
          </Trackpoint>
          <Trackpoint>
            <Time>2020-03-07T12:55:11.000Z</Time>
            <Position>
              <LatitudeDegrees>40.55243653245270252227783203125</LatitudeDegrees>
              <LongitudeDegrees>-3.6868017353117465972900390625</LongitudeDegrees>
            </Position>
            <AltitudeMeters>744</AltitudeMeters>
            <DistanceMeters>2190.3892240185</DistanceMeters>
          </Trackpoint>
          <Trackpoint>
            <Time>2020-03-07T12:55:12.000Z</Time>
            <Position>
              <LatitudeDegrees>40.55245212279260158538818359375</LatitudeDegrees>
              <LongitudeDegrees>-3.6869117058813571929931640625</LongitudeDegrees>
            </Position>
            <AltitudeMeters>744</AltitudeMeters>
            <DistanceMeters>2199.8499913083</DistanceMeters>
          </Trackpoint>
          <Trackpoint>
            <Time>2020-03-07T12:55:13.000Z</Time>
            <Position>
              <LatitudeDegrees>40.55246452800929546356201171875</LatitudeDegrees>
              <LongitudeDegrees>-3.687021173536777496337890625</LongitudeDegrees>
            </Position>
            <AltitudeMeters>744</AltitudeMeters>
            <DistanceMeters>2209.2100020807</DistanceMeters>
          </Trackpoint>
          <Trackpoint>
            <Time>2020-03-07T12:55:14.000Z</Time>
            <Position>
              <LatitudeDegrees>40.552474670112133026123046875</LatitudeDegrees>
              <LongitudeDegrees>-3.6871303059160709381103515625</LongitudeDegrees>
            </Position>
            <AltitudeMeters>744</AltitudeMeters>
            <DistanceMeters>2218.5090349351</DistanceMeters>
          </Trackpoint>
          <Trackpoint>
            <Time>2020-03-07T12:55:15.000Z</Time>
            <Position>
              <LatitudeDegrees>40.55248447693884372711181640625</LatitudeDegrees>
              <LongitudeDegrees>-3.687239103019237518310546875</LongitudeDegrees>
            </Position>
            <AltitudeMeters>744</AltitudeMeters>
            <DistanceMeters>2227.7749923508</DistanceMeters>
          </Trackpoint>
          <Trackpoint>
            <Time>2020-03-07T12:55:16.000Z</Time>
            <Position>
              <LatitudeDegrees>40.55249336175620555877685546875</LatitudeDegrees>
              <LongitudeDegrees>-3.68734731338918209075927734375</LongitudeDegrees>
            </Position>
            <AltitudeMeters>744.20001220703125</AltitudeMeters>
            <DistanceMeters>2236.9793487757</DistanceMeters>
          </Trackpoint>
          <Trackpoint>
            <Time>2020-03-07T12:55:17.000Z</Time>
            <Position>
              <LatitudeDegrees>40.55250157602131366729736328125</LatitudeDegrees>
              <LongitudeDegrees>-3.6874548532068729400634765625</LongitudeDegrees>
            </Position>
            <AltitudeMeters>744.20001220703125</AltitudeMeters>
            <DistanceMeters>2246.1187255109</DistanceMeters>
          </Trackpoint>
          <Trackpoint>
            <Time>2020-03-07T12:55:18.000Z</Time>
            <Position>
              <LatitudeDegrees>40.55250911973416805267333984375</LatitudeDegrees>
              <LongitudeDegrees>-3.687561638653278350830078125</LongitudeDegrees>
            </Position>
            <AltitudeMeters>744.4000244140625</AltitudeMeters>
            <DistanceMeters>2255.1881778829</DistanceMeters>
          </Trackpoint>
          <Trackpoint>
            <Time>2020-03-07T12:55:19.000Z</Time>
            <Position>
              <LatitudeDegrees>40.552515573799610137939453125</LatitudeDegrees>
              <LongitudeDegrees>-3.68766834028065204620361328125</LongitudeDegrees>
            </Position>
            <AltitudeMeters>744.4000244140625</AltitudeMeters>
            <DistanceMeters>2264.2401894633</DistanceMeters>
          </Trackpoint>
          <Trackpoint>
            <Time>2020-03-07T12:55:20.000Z</Time>
            <Position>
              <LatitudeDegrees>40.5525211058557033538818359375</LatitudeDegrees>
              <LongitudeDegrees>-3.68777445517480373382568359375</LongitudeDegrees>
            </Position>
            <AltitudeMeters>744.4000244140625</AltitudeMeters>
            <DistanceMeters>2273.2351594431</DistanceMeters>
          </Trackpoint>
          <Trackpoint>
            <Time>2020-03-07T12:55:21.000Z</Time>
            <Position>
              <LatitudeDegrees>40.552524290978908538818359375</LatitudeDegrees>
              <LongitudeDegrees>-3.6878803186118602752685546875</LongitudeDegrees>
            </Position>
            <AltitudeMeters>744.4000244140625</AltitudeMeters>
            <DistanceMeters>2282.1949239259</DistanceMeters>
          </Trackpoint>
          <Trackpoint>
            <Time>2020-03-07T12:55:22.000Z</Time>
            <Position>
              <LatitudeDegrees>40.55252521298825740814208984375</LatitudeDegrees>
              <LongitudeDegrees>-3.6879862658679485321044921875</LongitudeDegrees>
            </Position>
            <AltitudeMeters>744.4000244140625</AltitudeMeters>
            <DistanceMeters>2291.1556961995</DistanceMeters>
          </Trackpoint>
          <Trackpoint>
            <Time>2020-03-07T12:55:23.000Z</Time>
            <Position>
              <LatitudeDegrees>40.55252605117857456207275390625</LatitudeDegrees>
              <LongitudeDegrees>-3.68809296749532222747802734375</LongitudeDegrees>
            </Position>
            <AltitudeMeters>744.4000244140625</AltitudeMeters>
            <DistanceMeters>2300.1797324013</DistanceMeters>
          </Trackpoint>
          <Trackpoint>
            <Time>2020-03-07T12:55:24.000Z</Time>
            <Position>
              <LatitudeDegrees>40.5525259673595428466796875</LatitudeDegrees>
              <LongitudeDegrees>-3.68819992057979106903076171875</LongitudeDegrees>
            </Position>
            <AltitudeMeters>744.4000244140625</AltitudeMeters>
            <DistanceMeters>2309.2252574087</DistanceMeters>
          </Trackpoint>
          <Trackpoint>
            <Time>2020-03-07T12:55:25.000Z</Time>
            <Position>
              <LatitudeDegrees>40.55252403952181339263916015625</LatitudeDegrees>
              <LongitudeDegrees>-3.68830720894038677215576171875</LongitudeDegrees>
            </Position>
            <AltitudeMeters>744.4000244140625</AltitudeMeters>
            <DistanceMeters>2318.3011792529</DistanceMeters>
          </Trackpoint>
          <Trackpoint>
            <Time>2020-03-07T12:55:26.000Z</Time>
            <Position>
              <LatitudeDegrees>40.55252085439860820770263671875</LatitudeDegrees>
              <LongitudeDegrees>-3.68841416202485561370849609375</LongitudeDegrees>
            </Position>
            <AltitudeMeters>744.4000244140625</AltitudeMeters>
            <DistanceMeters>2327.3531908333</DistanceMeters>
          </Trackpoint>
          <Trackpoint>
            <Time>2020-03-07T12:55:27.000Z</Time>
            <Position>
              <LatitudeDegrees>40.5525157414376735687255859375</LatitudeDegrees>
              <LongitudeDegrees>-3.68852077983319759368896484375</LongitudeDegrees>
            </Position>
            <AltitudeMeters>744.4000244140625</AltitudeMeters>
            <DistanceMeters>2336.3882276929</DistanceMeters>
          </Trackpoint>
          <Trackpoint>
            <Time>2020-03-07T12:55:28.000Z</Time>
            <Position>
              <LatitudeDegrees>40.55250811390578746795654296875</LatitudeDegrees>
              <LongitudeDegrees>-3.68862723000347614288330078125</LongitudeDegrees>
            </Position>
            <AltitudeMeters>744.4000244140625</AltitudeMeters>
            <DistanceMeters>2345.4302580027</DistanceMeters>
          </Trackpoint>
          <Trackpoint>
            <Time>2020-03-07T12:55:29.000Z</Time>
            <Position>
              <LatitudeDegrees>40.55249805562198162078857421875</LatitudeDegrees>
              <LongitudeDegrees>-3.688733093440532684326171875</LongitudeDegrees>
            </Position>
            <AltitudeMeters>744.4000244140625</AltitudeMeters>
            <DistanceMeters>2354.4522926438</DistanceMeters>
          </Trackpoint>
          <Trackpoint>
            <Time>2020-03-07T12:55:30.000Z</Time>
            <Position>
              <LatitudeDegrees>40.55248682387173175811767578125</LatitudeDegrees>
              <LongitudeDegrees>-3.68883912451565265655517578125</LongitudeDegrees>
            </Position>
            <AltitudeMeters>744.4000244140625</AltitudeMeters>
            <DistanceMeters>2363.506299158</DistanceMeters>
          </Trackpoint>
          <Trackpoint>
            <Time>2020-03-07T12:55:31.000Z</Time>
            <Position>
              <LatitudeDegrees>40.5524751730263233184814453125</LatitudeDegrees>
              <LongitudeDegrees>-3.68894557468593120574951171875</LongitudeDegrees>
            </Position>
            <AltitudeMeters>744.20001220703125</AltitudeMeters>
            <DistanceMeters>2372.6020982091</DistanceMeters>
          </Trackpoint>
          <Trackpoint>
            <Time>2020-03-07T12:55:32.000Z</Time>
            <Position>
              <LatitudeDegrees>40.55246318690478801727294921875</LatitudeDegrees>
              <LongitudeDegrees>-3.6890517733991146087646484375</LongitudeDegrees>
            </Position>
            <AltitudeMeters>744.20001220703125</AltitudeMeters>
            <DistanceMeters>2381.6819989759</DistanceMeters>
          </Trackpoint>
          <Trackpoint>
            <Time>2020-03-07T12:55:33.000Z</Time>
            <Position>
              <LatitudeDegrees>40.55245019495487213134765625</LatitudeDegrees>
              <LongitudeDegrees>-3.6891573853790760040283203125</LongitudeDegrees>
            </Position>
            <AltitudeMeters>744.20001220703125</AltitudeMeters>
            <DistanceMeters>2390.7300193693</DistanceMeters>
          </Trackpoint>
          <Trackpoint>
            <Time>2020-03-07T12:55:34.000Z</Time>
            <Position>
              <LatitudeDegrees>40.55243569426238536834716796875</LatitudeDegrees>
              <LongitudeDegrees>-3.68926274590194225311279296875</LongitudeDegrees>
            </Position>
            <AltitudeMeters>744.20001220703125</AltitudeMeters>
            <DistanceMeters>2399.7855217954</DistanceMeters>
          </Trackpoint>
          <Trackpoint>
            <Time>2020-03-07T12:55:35.000Z</Time>
            <Position>
              <LatitudeDegrees>40.55241976864635944366455078125</LatitudeDegrees>
              <LongitudeDegrees>-3.68936844170093536376953125</LongitudeDegrees>
            </Position>
            <AltitudeMeters>744.20001220703125</AltitudeMeters>
            <DistanceMeters>2408.8981823826</DistanceMeters>
          </Trackpoint>
          <Trackpoint>
            <Time>2020-03-07T12:55:36.000Z</Time>
            <Position>
              <LatitudeDegrees>40.55240317247807979583740234375</LatitudeDegrees>
              <LongitudeDegrees>-3.68947438895702362060546875</LongitudeDegrees>
            </Position>
            <AltitudeMeters>744.20001220703125</AltitudeMeters>
            <DistanceMeters>2418.0464471625</DistanceMeters>
          </Trackpoint>
          <Trackpoint>
            <Time>2020-03-07T12:55:37.000Z</Time>
            <Position>
              <LatitudeDegrees>40.55238590575754642486572265625</LatitudeDegrees>
              <LongitudeDegrees>-3.68958025239408016204833984375</LongitudeDegrees>
            </Position>
            <AltitudeMeters>744.20001220703125</AltitudeMeters>
            <DistanceMeters>2427.2030982851</DistanceMeters>
          </Trackpoint>
          <Trackpoint>
            <Time>2020-03-07T12:55:38.000Z</Time>
            <Position>
              <LatitudeDegrees>40.55236696265637874603271484375</LatitudeDegrees>
              <LongitudeDegrees>-3.68968619965016841888427734375</LongitudeDegrees>
            </Position>
            <AltitudeMeters>744.20001220703125</AltitudeMeters>
            <DistanceMeters>2436.4074547101</DistanceMeters>
          </Trackpoint>
          <Trackpoint>
            <Time>2020-03-07T12:55:39.000Z</Time>
            <Position>
              <LatitudeDegrees>40.55234684608876705169677734375</LatitudeDegrees>
              <LongitudeDegrees>-3.68979197926819324493408203125</LongitudeDegrees>
            </Position>
            <AltitudeMeters>744.20001220703125</AltitudeMeters>
            <DistanceMeters>2445.6289637988</DistanceMeters>
          </Trackpoint>
          <Trackpoint>
            <Time>2020-03-07T12:55:40.000Z</Time>
            <Position>
              <LatitudeDegrees>40.552325136959552764892578125</LatitudeDegrees>
              <LongitudeDegrees>-3.6898970045149326324462890625</LongitudeDegrees>
            </Position>
            <AltitudeMeters>744</AltitudeMeters>
            <DistanceMeters>2454.8333202237</DistanceMeters>
          </Trackpoint>
          <Trackpoint>
            <Time>2020-03-07T12:55:41.000Z</Time>
            <Position>
              <LatitudeDegrees>40.55230242200195789337158203125</LatitudeDegrees>
              <LongitudeDegrees>-3.6900019459426403045654296875</LongitudeDegrees>
            </Position>
            <AltitudeMeters>744.20001220703125</AltitudeMeters>
            <DistanceMeters>2464.0611921813</DistanceMeters>
          </Trackpoint>
          <Trackpoint>
            <Time>2020-03-07T12:55:42.000Z</Time>
            <Position>
              <LatitudeDegrees>40.5522776953876018524169921875</LatitudeDegrees>
              <LongitudeDegrees>-3.690106384456157684326171875</LongitudeDegrees>
            </Position>
            <AltitudeMeters>744.20001220703125</AltitudeMeters>
            <DistanceMeters>2473.3125198988</DistanceMeters>
          </Trackpoint>
          <Trackpoint>
            <Time>2020-03-07T12:55:43.000Z</Time>
            <Position>
              <LatitudeDegrees>40.55224995128810405731201171875</LatitudeDegrees>
              <LongitudeDegrees>-3.690208978950977325439453125</LongitudeDegrees>
            </Position>
            <AltitudeMeters>744.20001220703125</AltitudeMeters>
            <DistanceMeters>2482.5222706032</DistanceMeters>
          </Trackpoint>
          <Trackpoint>
            <Time>2020-03-07T12:55:44.000Z</Time>
            <Position>
              <LatitudeDegrees>40.5522206984460353851318359375</LatitudeDegrees>
              <LongitudeDegrees>-3.6903105676174163818359375</LongitudeDegrees>
            </Position>
            <AltitudeMeters>744.20001220703125</AltitudeMeters>
            <DistanceMeters>2491.7099337772</DistanceMeters>
          </Trackpoint>
          <Trackpoint>
            <Time>2020-03-07T12:55:45.000Z</Time>
            <Position>
              <LatitudeDegrees>40.55219010449945926666259765625</LatitudeDegrees>
              <LongitudeDegrees>-3.6904113180935382843017578125</LongitudeDegrees>
            </Position>
            <AltitudeMeters>744.20001220703125</AltitudeMeters>
            <DistanceMeters>2500.8857951953</DistanceMeters>
          </Trackpoint>
          <Trackpoint>
            <Time>2020-03-07T12:55:46.000Z</Time>
            <Position>
              <LatitudeDegrees>40.5521571636199951171875</LatitudeDegrees>
              <LongitudeDegrees>-3.6905105598270893096923828125</LongitudeDegrees>
            </Position>
            <AltitudeMeters>744.20001220703125</AltitudeMeters>
            <DistanceMeters>2510.0439254636</DistanceMeters>
          </Trackpoint>
          <Trackpoint>
            <Time>2020-03-07T12:55:47.000Z</Time>
            <Position>
              <LatitudeDegrees>40.552122630178928375244140625</LatitudeDegrees>
              <LongitudeDegrees>-3.6906077899038791656494140625</LongitudeDegrees>
            </Position>
            <AltitudeMeters>744.20001220703125</AltitudeMeters>
            <DistanceMeters>2519.1203447685</DistanceMeters>
          </Trackpoint>
          <Trackpoint>
            <Time>2020-03-07T12:55:48.000Z</Time>
            <Position>
              <LatitudeDegrees>40.55208675563335418701171875</LatitudeDegrees>
              <LongitudeDegrees>-3.69070342741906642913818359375</LongitudeDegrees>
            </Position>
            <AltitudeMeters>744</AltitudeMeters>
            <DistanceMeters>2528.1398768341</DistanceMeters>
          </Trackpoint>
          <Trackpoint>
            <Time>2020-03-07T12:55:49.000Z</Time>
            <Position>
              <LatitudeDegrees>40.55204928852617740631103515625</LatitudeDegrees>
              <LongitudeDegrees>-3.690797053277492523193359375</LongitudeDegrees>
            </Position>
            <AltitudeMeters>744</AltitudeMeters>
            <DistanceMeters>2537.0885481268</DistanceMeters>
          </Trackpoint>
          <Trackpoint>
            <Time>2020-03-07T12:55:50.000Z</Time>
            <Position>
              <LatitudeDegrees>40.5520108155906200408935546875</LatitudeDegrees>
              <LongitudeDegrees>-3.69088984094560146331787109375</LongitudeDegrees>
            </Position>
            <AltitudeMeters>744</AltitudeMeters>
            <DistanceMeters>2546.0281329343</DistanceMeters>
          </Trackpoint>
          <Trackpoint>
            <Time>2020-03-07T12:55:51.000Z</Time>
            <Position>
              <LatitudeDegrees>40.55197183974087238311767578125</LatitudeDegrees>
              <LongitudeDegrees>-3.690982125699520111083984375</LongitudeDegrees>
            </Position>
            <AltitudeMeters>744</AltitudeMeters>
            <DistanceMeters>2554.9571051553</DistanceMeters>
          </Trackpoint>
          <Trackpoint>
            <Time>2020-03-07T12:55:52.000Z</Time>
            <Position>
              <LatitudeDegrees>40.55193160660564899444580078125</LatitudeDegrees>
              <LongitudeDegrees>-3.69107273407280445098876953125</LongitudeDegrees>
            </Position>
            <AltitudeMeters>744</AltitudeMeters>
            <DistanceMeters>2563.8328241063</DistanceMeters>
          </Trackpoint>
          <Trackpoint>
            <Time>2020-03-07T12:55:53.000Z</Time>
            <Position>
              <LatitudeDegrees>40.55189120583236217498779296875</LatitudeDegrees>
              <LongitudeDegrees>-3.691162168979644775390625</LongitudeDegrees>
            </Position>
            <AltitudeMeters>744.20001220703125</AltitudeMeters>
            <DistanceMeters>2572.6319078899</DistanceMeters>
          </Trackpoint>
          <Trackpoint>
            <Time>2020-03-07T12:55:54.000Z</Time>
            <Position>
              <LatitudeDegrees>40.551849715411663055419921875</LatitudeDegrees>
              <LongitudeDegrees>-3.6912505142390727996826171875</LongitudeDegrees>
            </Position>
            <AltitudeMeters>744.20001220703125</AltitudeMeters>
            <DistanceMeters>2581.4150703648</DistanceMeters>
          </Trackpoint>
          <Trackpoint>
            <Time>2020-03-07T12:55:55.000Z</Time>
            <Position>
              <LatitudeDegrees>40.55180512368679046630859375</LatitudeDegrees>
              <LongitudeDegrees>-3.69133651256561279296875</LongitudeDegrees>
            </Position>
            <AltitudeMeters>744.20001220703125</AltitudeMeters>
            <DistanceMeters>2590.2197967246</DistanceMeters>
          </Trackpoint>
          <Trackpoint>
            <Time>2020-03-07T12:55:56.000Z</Time>
            <Position>
              <LatitudeDegrees>40.551757849752902984619140625</LatitudeDegrees>
              <LongitudeDegrees>-3.69141974486410617828369140625</LongitudeDegrees>
            </Position>
            <AltitudeMeters>744</AltitudeMeters>
            <DistanceMeters>2599.0075844865</DistanceMeters>
          </Trackpoint>
          <Trackpoint>
            <Time>2020-03-07T12:55:57.000Z</Time>
            <Position>
              <LatitudeDegrees>40.5517097376286983489990234375</LatitudeDegrees>
              <LongitudeDegrees>-3.69150213897228240966796875</LongitudeDegrees>
            </Position>
            <AltitudeMeters>744</AltitudeMeters>
            <DistanceMeters>2607.7953722484</DistanceMeters>
          </Trackpoint>
          <Trackpoint>
            <Time>2020-03-07T12:55:58.000Z</Time>
            <Position>
              <LatitudeDegrees>40.551660954952239990234375</LatitudeDegrees>
              <LongitudeDegrees>-3.6915851198136806488037109375</LongitudeDegrees>
            </Position>
            <AltitudeMeters>744</AltitudeMeters>
            <DistanceMeters>2616.6675296164</DistanceMeters>
          </Trackpoint>
          <Trackpoint>
            <Time>2020-03-07T12:55:59.000Z</Time>
            <Position>
              <LatitudeDegrees>40.5516101606190204620361328125</LatitudeDegrees>
              <LongitudeDegrees>-3.691667430102825164794921875</LongitudeDegrees>
            </Position>
            <AltitudeMeters>744</AltitudeMeters>
            <DistanceMeters>2625.6353532548</DistanceMeters>
          </Trackpoint>
          <Trackpoint>
            <Time>2020-03-07T12:56:00.000Z</Time>
            <Position>
              <LatitudeDegrees>40.5515588633716106414794921875</LatitudeDegrees>
              <LongitudeDegrees>-3.69175032712519168853759765625</LongitudeDegrees>
            </Position>
            <AltitudeMeters>744</AltitudeMeters>
            <DistanceMeters>2634.6763848315</DistanceMeters>
          </Trackpoint>
          <Trackpoint>
            <Time>2020-03-07T12:56:01.000Z</Time>
            <Position>
              <LatitudeDegrees>40.551508404314517974853515625</LatitudeDegrees>
              <LongitudeDegrees>-3.69183414615690708160400390625</LongitudeDegrees>
            </Position>
            <AltitudeMeters>744</AltitudeMeters>
            <DistanceMeters>2643.7199130342</DistanceMeters>
          </Trackpoint>
          <Trackpoint>
            <Time>2020-03-07T12:56:02.000Z</Time>
            <Position>
              <LatitudeDegrees>40.55145777761936187744140625</LatitudeDegrees>
              <LongitudeDegrees>-3.69191880337893962860107421875</LongitudeDegrees>
            </Position>
            <AltitudeMeters>744</AltitudeMeters>
            <DistanceMeters>2652.8305915311</DistanceMeters>
          </Trackpoint>
          <Trackpoint>
            <Time>2020-03-07T12:56:03.000Z</Time>
            <Position>
              <LatitudeDegrees>40.55140681564807891845703125</LatitudeDegrees>
              <LongitudeDegrees>-3.69200362823903560638427734375</LongitudeDegrees>
            </Position>
            <AltitudeMeters>744</AltitudeMeters>
            <DistanceMeters>2661.9758945891</DistanceMeters>
          </Trackpoint>
          <Trackpoint>
            <Time>2020-03-07T12:56:04.000Z</Time>
            <Position>
              <LatitudeDegrees>40.55135509930551052093505859375</LatitudeDegrees>
              <LongitudeDegrees>-3.6920883692800998687744140625</LongitudeDegrees>
            </Position>
            <AltitudeMeters>744</AltitudeMeters>
            <DistanceMeters>2671.1679795151</DistanceMeters>
          </Trackpoint>
          <Trackpoint>
            <Time>2020-03-07T12:56:05.000Z</Time>
            <Position>
              <LatitudeDegrees>40.55130279622972011566162109375</LatitudeDegrees>
              <LongitudeDegrees>-3.69217227213084697723388671875</LongitudeDegrees>
            </Position>
            <AltitudeMeters>744</AltitudeMeters>
            <DistanceMeters>2680.3458089464</DistanceMeters>
          </Trackpoint>
          <Trackpoint>
            <Time>2020-03-07T12:56:06.000Z</Time>
            <Position>
              <LatitudeDegrees>40.55125032551586627960205078125</LatitudeDegrees>
              <LongitudeDegrees>-3.69225542061030864715576171875</LongitudeDegrees>
            </Position>
            <AltitudeMeters>744</AltitudeMeters>
            <DistanceMeters>2689.4861736688</DistanceMeters>
          </Trackpoint>
          <Trackpoint>
            <Time>2020-03-07T12:56:07.000Z</Time>
            <Position>
              <LatitudeDegrees>40.55119735188782215118408203125</LatitudeDegrees>
              <LongitudeDegrees>-3.69233756326138973236083984375</LongitudeDegrees>
            </Position>
            <AltitudeMeters>744</AltitudeMeters>
            <DistanceMeters>2698.5978432648</DistanceMeters>
          </Trackpoint>
          <Trackpoint>
            <Time>2020-03-07T12:56:08.000Z</Time>
            <Position>
              <LatitudeDegrees>40.55114404298365116119384765625</LatitudeDegrees>
              <LongitudeDegrees>-3.6924187839031219482421875</LongitudeDegrees>
            </Position>
            <AltitudeMeters>744</AltitudeMeters>
            <DistanceMeters>2707.6742625696</DistanceMeters>
          </Trackpoint>
          <Trackpoint>
            <Time>2020-03-07T12:56:09.000Z</Time>
            <Position>
              <LatitudeDegrees>40.551090650260448455810546875</LatitudeDegrees>
              <LongitudeDegrees>-3.692498914897441864013671875</LongitudeDegrees>
            </Position>
            <AltitudeMeters>743.79998779296875</AltitudeMeters>
            <DistanceMeters>2716.6877856193</DistanceMeters>
          </Trackpoint>
          <Trackpoint>
            <Time>2020-03-07T12:56:10.000Z</Time>
            <Position>
              <LatitudeDegrees>40.5510381795465946197509765625</LatitudeDegrees>
              <LongitudeDegrees>-3.6925788782536983489990234375</LongitudeDegrees>
            </Position>
            <AltitudeMeters>743.79998779296875</AltitudeMeters>
            <DistanceMeters>2725.6223183863</DistanceMeters>
          </Trackpoint>
          <Trackpoint>
            <Time>2020-03-07T12:56:11.000Z</Time>
            <Position>
              <LatitudeDegrees>40.55098545737564563751220703125</LatitudeDegrees>
              <LongitudeDegrees>-3.6926586739718914031982421875</LongitudeDegrees>
            </Position>
            <AltitudeMeters>743.79998779296875</AltitudeMeters>
            <DistanceMeters>2734.5654379239</DistanceMeters>
          </Trackpoint>
          <Trackpoint>
            <Time>2020-03-07T12:56:12.000Z</Time>
            <Position>
              <LatitudeDegrees>40.550931729376316070556640625</LatitudeDegrees>
              <LongitudeDegrees>-3.6927364580333232879638671875</LongitudeDegrees>
            </Position>
            <AltitudeMeters>743.79998779296875</AltitudeMeters>
            <DistanceMeters>2743.4558968048</DistanceMeters>
          </Trackpoint>
          <Trackpoint>
            <Time>2020-03-07T12:56:13.000Z</Time>
            <Position>
              <LatitudeDegrees>40.550877414643764495849609375</LatitudeDegrees>
              <LongitudeDegrees>-3.69281315244734287261962890625</LongitudeDegrees>
            </Position>
            <AltitudeMeters>743.5999755859375</AltitudeMeters>
            <DistanceMeters>2752.322454509</DistanceMeters>
          </Trackpoint>
          <Trackpoint>
            <Time>2020-03-07T12:56:14.000Z</Time>
            <Position>
              <LatitudeDegrees>40.5508242733776569366455078125</LatitudeDegrees>
              <LongitudeDegrees>-3.6928903497755527496337890625</LongitudeDegrees>
            </Position>
            <AltitudeMeters>743.5999755859375</AltitudeMeters>
            <DistanceMeters>2761.1317948339</DistanceMeters>
          </Trackpoint>
          <Trackpoint>
            <Time>2020-03-07T12:56:15.000Z</Time>
            <Position>
              <LatitudeDegrees>40.550772808492183685302734375</LatitudeDegrees>
              <LongitudeDegrees>-3.692968972027301788330078125</LongitudeDegrees>
            </Position>
            <AltitudeMeters>743.5999755859375</AltitudeMeters>
            <DistanceMeters>2769.9082720353</DistanceMeters>
          </Trackpoint>
          <Trackpoint>
            <Time>2020-03-07T12:56:16.000Z</Time>
            <Position>
              <LatitudeDegrees>40.55072343908250331878662109375</LatitudeDegrees>
              <LongitudeDegrees>-3.6930492706596851348876953125</LongitudeDegrees>
            </Position>
            <AltitudeMeters>743.5999755859375</AltitudeMeters>
            <DistanceMeters>2778.6440133334</DistanceMeters>
          </Trackpoint>
          <Trackpoint>
            <Time>2020-03-07T12:56:17.000Z</Time>
            <Position>
              <LatitudeDegrees>40.55067725479602813720703125</LatitudeDegrees>
              <LongitudeDegrees>-3.69313132949173450469970703125</LongitudeDegrees>
            </Position>
            <AltitudeMeters>743.5999755859375</AltitudeMeters>
            <DistanceMeters>2787.28047276</DistanceMeters>
          </Trackpoint>
          <Trackpoint>
            <Time>2020-03-07T12:56:18.000Z</Time>
            <Position>
              <LatitudeDegrees>40.5506335012614727020263671875</LatitudeDegrees>
              <LongitudeDegrees>-3.6932142265141010284423828125</LongitudeDegrees>
            </Position>
            <AltitudeMeters>743.79998779296875</AltitudeMeters>
            <DistanceMeters>2795.8170245757</DistanceMeters>
          </Trackpoint>
          <Trackpoint>
            <Time>2020-03-07T12:56:19.000Z</Time>
            <Position>
              <LatitudeDegrees>40.5505909211933612823486328125</LatitudeDegrees>
              <LongitudeDegrees>-3.6932967044413089752197265625</LongitudeDegrees>
            </Position>
            <AltitudeMeters>743.79998779296875</AltitudeMeters>
            <DistanceMeters>2804.2503443297</DistanceMeters>
          </Trackpoint>
          <Trackpoint>
            <Time>2020-03-07T12:56:20.000Z</Time>
            <Position>
              <LatitudeDegrees>40.5505496822297573089599609375</LatitudeDegrees>
              <LongitudeDegrees>-3.693379350006580352783203125</LongitudeDegrees>
            </Position>
            <AltitudeMeters>743.79998779296875</AltitudeMeters>
            <DistanceMeters>2812.6126951943</DistanceMeters>
          </Trackpoint>
          <Trackpoint>
            <Time>2020-03-07T12:56:21.000Z</Time>
            <Position>
              <LatitudeDegrees>40.55051137693226337432861328125</LatitudeDegrees>
              <LongitudeDegrees>-3.69346283376216888427734375</LongitudeDegrees>
            </Position>
            <AltitudeMeters>743.79998779296875</AltitudeMeters>
            <DistanceMeters>2820.8603352114</DistanceMeters>
          </Trackpoint>
          <Trackpoint>
            <Time>2020-03-07T12:56:22.000Z</Time>
            <Position>
              <LatitudeDegrees>40.55047466419637203216552734375</LatitudeDegrees>
              <LongitudeDegrees>-3.69354656897485256195068359375</LongitudeDegrees>
            </Position>
            <AltitudeMeters>743.79998779296875</AltitudeMeters>
            <DistanceMeters>2829.0359468606</DistanceMeters>
          </Trackpoint>
          <Trackpoint>
            <Time>2020-03-07T12:56:23.000Z</Time>
            <Position>
              <LatitudeDegrees>40.55043795146048069000244140625</LatitudeDegrees>
              <LongitudeDegrees>-3.69363022036850452423095703125</LongitudeDegrees>
            </Position>
            <AltitudeMeters>744</AltitudeMeters>
            <DistanceMeters>2837.2060340739</DistanceMeters>
          </Trackpoint>
          <Trackpoint>
            <Time>2020-03-07T12:56:24.000Z</Time>
            <Position>
              <LatitudeDegrees>40.5504051782190799713134765625</LatitudeDegrees>
              <LongitudeDegrees>-3.69371538050472736358642578125</LongitudeDegrees>
            </Position>
            <AltitudeMeters>744</AltitudeMeters>
            <DistanceMeters>2845.2793909825</DistanceMeters>
          </Trackpoint>
          <Trackpoint>
            <Time>2020-03-07T12:56:25.000Z</Time>
            <Position>
              <LatitudeDegrees>40.55038330145180225372314453125</LatitudeDegrees>
              <LongitudeDegrees>-3.6938056536018848419189453125</LongitudeDegrees>
            </Position>
            <AltitudeMeters>744</AltitudeMeters>
            <DistanceMeters>2853.2932479608</DistanceMeters>
          </Trackpoint>
          <Trackpoint>
            <Time>2020-03-07T12:56:26.000Z</Time>
            <Position>
              <LatitudeDegrees>40.55037684738636016845703125</LatitudeDegrees>
              <LongitudeDegrees>-3.693899698555469512939453125</LongitudeDegrees>
            </Position>
            <AltitudeMeters>744.20001220703125</AltitudeMeters>
            <DistanceMeters>2861.2788850579</DistanceMeters>
          </Trackpoint>
          <Trackpoint>
            <Time>2020-03-07T12:56:27.000Z</Time>
            <Position>
              <LatitudeDegrees>40.55038581602275371551513671875</LatitudeDegrees>
              <LongitudeDegrees>-3.69399315677583217620849609375</LongitudeDegrees>
            </Position>
            <AltitudeMeters>744.20001220703125</AltitudeMeters>
            <DistanceMeters>2869.2452755359</DistanceMeters>
          </Trackpoint>
          <Trackpoint>
            <Time>2020-03-07T12:56:28.000Z</Time>
            <Position>
              <LatitudeDegrees>40.55039889179170131683349609375</LatitudeDegrees>
              <LongitudeDegrees>-3.69408519007265567779541015625</LongitudeDegrees>
            </Position>
            <AltitudeMeters>744.5999755859375</AltitudeMeters>
            <DistanceMeters>2877.1639149915</DistanceMeters>
          </Trackpoint>
          <Trackpoint>
            <Time>2020-03-07T12:56:29.000Z</Time>
            <Position>
              <LatitudeDegrees>40.55040693841874599456787109375</LatitudeDegrees>
              <LongitudeDegrees>-3.69417672045528888702392578125</LongitudeDegrees>
            </Position>
            <AltitudeMeters>744.79998779296875</AltitudeMeters>
            <DistanceMeters>2884.9566849795</DistanceMeters>
          </Trackpoint>
          <Trackpoint>
            <Time>2020-03-07T12:56:30.000Z</Time>
            <Position>
              <LatitudeDegrees>40.55040827952325344085693359375</LatitudeDegrees>
              <LongitudeDegrees>-3.6942673288285732269287109375</LongitudeDegrees>
            </Position>
            <AltitudeMeters>745.20001220703125</AltitudeMeters>
            <DistanceMeters>2892.6215187901</DistanceMeters>
          </Trackpoint>
          <Trackpoint>
            <Time>2020-03-07T12:56:31.000Z</Time>
            <Position>
              <LatitudeDegrees>40.5504011549055576324462890625</LatitudeDegrees>
              <LongitudeDegrees>-3.69435600936412811279296875</LongitudeDegrees>
            </Position>
            <AltitudeMeters>745.4000244140625</AltitudeMeters>
            <DistanceMeters>2900.164030414</DistanceMeters>
          </Trackpoint>
          <Trackpoint>
            <Time>2020-03-07T12:56:32.000Z</Time>
            <Position>
              <LatitudeDegrees>40.55038397200405597686767578125</LatitudeDegrees>
              <LongitudeDegrees>-3.69444108568131923675537109375</LongitudeDegrees>
            </Position>
            <AltitudeMeters>745.5999755859375</AltitudeMeters>
            <DistanceMeters>2907.6089353303</DistanceMeters>
          </Trackpoint>
          <Trackpoint>
            <Time>2020-03-07T12:56:33.000Z</Time>
            <Position>
              <LatitudeDegrees>40.550357401371002197265625</LatitudeDegrees>
              <LongitudeDegrees>-3.69452071376144886016845703125</LongitudeDegrees>
            </Position>
            <AltitudeMeters>745.5999755859375</AltitudeMeters>
            <DistanceMeters>2914.9635364683</DistanceMeters>
          </Trackpoint>
          <Trackpoint>
            <Time>2020-03-07T12:56:34.000Z</Time>
            <Position>
              <LatitudeDegrees>40.55032278411090373992919921875</LatitudeDegrees>
              <LongitudeDegrees>-3.69459413923323154449462890625</LongitudeDegrees>
            </Position>
            <AltitudeMeters>745.79998779296875</AltitudeMeters>
            <DistanceMeters>2922.2713317644</DistanceMeters>
          </Trackpoint>
          <Trackpoint>
            <Time>2020-03-07T12:56:35.000Z</Time>
            <Position>
              <LatitudeDegrees>40.550279282033443450927734375</LatitudeDegrees>
              <LongitudeDegrees>-3.69465909898281097412109375</LongitudeDegrees>
            </Position>
            <AltitudeMeters>746</AltitudeMeters>
            <DistanceMeters>2929.5939401743</DistanceMeters>
          </Trackpoint>
          <Trackpoint>
            <Time>2020-03-07T12:56:36.000Z</Time>
            <Position>
              <LatitudeDegrees>40.55022798478603363037109375</LatitudeDegrees>
              <LongitudeDegrees>-3.69471534155309200286865234375</LongitudeDegrees>
            </Position>
            <AltitudeMeters>746.20001220703125</AltitudeMeters>
            <DistanceMeters>2937.0254909903</DistanceMeters>
          </Trackpoint>
          <Trackpoint>
            <Time>2020-03-07T12:56:37.000Z</Time>
            <Position>
              <LatitudeDegrees>40.550172328948974609375</LatitudeDegrees>
              <LongitudeDegrees>-3.6947662197053432464599609375</LongitudeDegrees>
            </Position>
            <AltitudeMeters>746.4000244140625</AltitudeMeters>
            <DistanceMeters>2944.5674039784</DistanceMeters>
          </Trackpoint>
          <Trackpoint>
            <Time>2020-03-07T12:56:38.000Z</Time>
            <Position>
              <LatitudeDegrees>40.55011575110256671905517578125</LatitudeDegrees>
              <LongitudeDegrees>-3.69481810368597507476806640625</LongitudeDegrees>
            </Position>
            <AltitudeMeters>746.5999755859375</AltitudeMeters>
            <DistanceMeters>2952.2428335248</DistanceMeters>
          </Trackpoint>
          <Trackpoint>
            <Time>2020-03-07T12:56:39.000Z</Time>
            <Position>
              <LatitudeDegrees>40.5500675551593303680419921875</LatitudeDegrees>
              <LongitudeDegrees>-3.69488096795976161956787109375</LongitudeDegrees>
            </Position>
            <AltitudeMeters>746.5999755859375</AltitudeMeters>
            <DistanceMeters>2959.7955146975</DistanceMeters>
          </Trackpoint>
          <Trackpoint>
            <Time>2020-03-07T12:56:40.000Z</Time>
            <Position>
              <LatitudeDegrees>40.55003176443278789520263671875</LatitudeDegrees>
              <LongitudeDegrees>-3.69495573453605175018310546875</LongitudeDegrees>
            </Position>
            <AltitudeMeters>746.79998779296875</AltitudeMeters>
            <DistanceMeters>2967.2694730117</DistanceMeters>
          </Trackpoint>
          <Trackpoint>
            <Time>2020-03-07T12:56:41.000Z</Time>
            <Position>
              <LatitudeDegrees>40.55000728927552700042724609375</LatitudeDegrees>
              <LongitudeDegrees>-3.69503720663487911224365234375</LongitudeDegrees>
            </Position>
            <AltitudeMeters>747.20001220703125</AltitudeMeters>
            <DistanceMeters>2974.6791197495</DistanceMeters>
          </Trackpoint>
          <Trackpoint>
            <Time>2020-03-07T12:56:42.000Z</Time>
            <Position>
              <LatitudeDegrees>40.54999195039272308349609375</LatitudeDegrees>
              <LongitudeDegrees>-3.695122115314006805419921875</LongitudeDegrees>
            </Position>
            <AltitudeMeters>747.4000244140625</AltitudeMeters>
            <DistanceMeters>2982.060683355</DistanceMeters>
          </Trackpoint>
          <Trackpoint>
            <Time>2020-03-07T12:56:43.000Z</Time>
            <Position>
              <LatitudeDegrees>40.54997996427118778228759765625</LatitudeDegrees>
              <LongitudeDegrees>-3.69520802982151508331298828125</LongitudeDegrees>
            </Position>
            <AltitudeMeters>747.5999755859375</AltitudeMeters>
            <DistanceMeters>2989.4477498872</DistanceMeters>
          </Trackpoint>
          <Trackpoint>
            <Time>2020-03-07T12:56:44.000Z</Time>
            <Position>
              <LatitudeDegrees>40.54996957071125507354736328125</LatitudeDegrees>
              <LongitudeDegrees>-3.6952936090528964996337890625</LongitudeDegrees>
            </Position>
            <AltitudeMeters>747.79998779296875</AltitudeMeters>
            <DistanceMeters>2996.7777536281</DistanceMeters>
          </Trackpoint>
          <Trackpoint>
            <Time>2020-03-07T12:56:45.000Z</Time>
            <Position>
              <LatitudeDegrees>40.54995867423713207244873046875</LatitudeDegrees>
              <LongitudeDegrees>-3.6953780986368656158447265625</LongitudeDegrees>
            </Position>
            <AltitudeMeters>748</AltitudeMeters>
            <DistanceMeters>3004.0253708003</DistanceMeters>
          </Trackpoint>
          <Trackpoint>
            <Time>2020-03-07T12:56:46.000Z</Time>
            <Position>
              <LatitudeDegrees>40.54994811303913593292236328125</LatitudeDegrees>
              <LongitudeDegrees>-3.695461414754390716552734375</LongitudeDegrees>
            </Position>
            <AltitudeMeters>748.20001220703125</AltitudeMeters>
            <DistanceMeters>3011.1688266855</DistanceMeters>
          </Trackpoint>
          <Trackpoint>
            <Time>2020-03-07T12:56:47.000Z</Time>
            <Position>
              <LatitudeDegrees>40.54993822239339351654052734375</LatitudeDegrees>
              <LongitudeDegrees>-3.6955437250435352325439453125</LongitudeDegrees>
            </Position>
            <AltitudeMeters>748.20001220703125</AltitudeMeters>
            <DistanceMeters>3018.216196439</DistanceMeters>
          </Trackpoint>
          <Trackpoint>
            <Time>2020-03-07T12:56:48.000Z</Time>
            <Position>
              <LatitudeDegrees>40.549927912652492523193359375</LatitudeDegrees>
              <LongitudeDegrees>-3.695625029504299163818359375</LongitudeDegrees>
            </Position>
            <AltitudeMeters>748.4000244140625</AltitudeMeters>
            <DistanceMeters>3025.1875572402</DistanceMeters>
          </Trackpoint>
          <Trackpoint>
            <Time>2020-03-07T12:56:49.000Z</Time>
            <Position>
              <LatitudeDegrees>40.54991709999740123748779296875</LatitudeDegrees>
              <LongitudeDegrees>-3.69570490904152393341064453125</LongitudeDegrees>
            </Position>
            <AltitudeMeters>748.4000244140625</AltitudeMeters>
            <DistanceMeters>3032.0492493478</DistanceMeters>
          </Trackpoint>
          <Trackpoint>
            <Time>2020-03-07T12:56:50.000Z</Time>
            <Position>
              <LatitudeDegrees>40.5499072931706905364990234375</LatitudeDegrees>
              <LongitudeDegrees>-3.69578353129327297210693359375</LongitudeDegrees>
            </Position>
            <AltitudeMeters>748.4000244140625</AltitudeMeters>
            <DistanceMeters>3038.7874408233</DistanceMeters>
          </Trackpoint>
          <Trackpoint>
            <Time>2020-03-07T12:56:51.000Z</Time>
            <Position>
              <LatitudeDegrees>40.5498985759913921356201171875</LatitudeDegrees>
              <LongitudeDegrees>-3.6958619020879268646240234375</LongitudeDegrees>
            </Position>
            <AltitudeMeters>748.5999755859375</AltitudeMeters>
            <DistanceMeters>3045.4866556972</DistanceMeters>
          </Trackpoint>
          <Trackpoint>
            <Time>2020-03-07T12:56:52.000Z</Time>
            <Position>
              <LatitudeDegrees>40.54989128373563289642333984375</LatitudeDegrees>
              <LongitudeDegrees>-3.69594027288258075714111328125</LongitudeDegrees>
            </Position>
            <AltitudeMeters>748.79998779296875</AltitudeMeters>
            <DistanceMeters>3052.1642688546</DistanceMeters>
          </Trackpoint>
          <Trackpoint>
            <Time>2020-03-07T12:56:53.000Z</Time>
            <Position>
              <LatitudeDegrees>40.549884326756000518798828125</LatitudeDegrees>
              <LongitudeDegrees>-3.696018643677234649658203125</LongitudeDegrees>
            </Position>
            <AltitudeMeters>749.20001220703125</AltitudeMeters>
            <DistanceMeters>3058.8378239058</DistanceMeters>
          </Trackpoint>
          <Trackpoint>
            <Time>2020-03-07T12:56:54.000Z</Time>
            <Position>
              <LatitudeDegrees>40.5498757772147655487060546875</LatitudeDegrees>
              <LongitudeDegrees>-3.69609667919576168060302734375</LongitudeDegrees>
            </Position>
            <AltitudeMeters>749.5999755859375</AltitudeMeters>
            <DistanceMeters>3065.5052871666</DistanceMeters>
          </Trackpoint>
          <Trackpoint>
            <Time>2020-03-07T12:56:55.000Z</Time>
            <Position>
              <LatitudeDegrees>40.54986613802611827850341796875</LatitudeDegrees>
              <LongitudeDegrees>-3.6961747147142887115478515625</LongitudeDegrees>
            </Position>
            <AltitudeMeters>749.5999755859375</AltitudeMeters>
            <DistanceMeters>3072.1916844382</DistanceMeters>
          </Trackpoint>
          <Trackpoint>
            <Time>2020-03-07T12:56:56.000Z</Time>
            <Position>
              <LatitudeDegrees>40.54985582828521728515625</LatitudeDegrees>
              <LongitudeDegrees>-3.69625325314700603485107421875</LongitudeDegrees>
            </Position>
            <AltitudeMeters>750</AltitudeMeters>
            <DistanceMeters>3078.9325556479</DistanceMeters>
          </Trackpoint>
          <Trackpoint>
            <Time>2020-03-07T12:56:57.000Z</Time>
            <Position>
              <LatitudeDegrees>40.54984535090625286102294921875</LatitudeDegrees>
              <LongitudeDegrees>-3.6963319592177867889404296875</LongitudeDegrees>
            </Position>
            <AltitudeMeters>750.4000244140625</AltitudeMeters>
            <DistanceMeters>3085.6908192306</DistanceMeters>
          </Trackpoint>
          <Trackpoint>
            <Time>2020-03-07T12:56:58.000Z</Time>
            <Position>
              <LatitudeDegrees>40.549834035336971282958984375</LatitudeDegrees>
              <LongitudeDegrees>-3.6964107491075992584228515625</LongitudeDegrees>
            </Position>
            <AltitudeMeters>750.79998779296875</AltitudeMeters>
            <DistanceMeters>3092.4724251856</DistanceMeters>
          </Trackpoint>
          <Trackpoint>
            <Time>2020-03-07T12:56:59.000Z</Time>
            <Position>
              <LatitudeDegrees>40.54982322268187999725341796875</LatitudeDegrees>
              <LongitudeDegrees>-3.69648945517838001251220703125</LongitudeDegrees>
            </Position>
            <AltitudeMeters>751</AltitudeMeters>
            <DistanceMeters>3099.23603127</DistanceMeters>
          </Trackpoint>
          <Trackpoint>
            <Time>2020-03-07T12:57:00.000Z</Time>
            <Position>
              <LatitudeDegrees>40.5498120747506618499755859375</LatitudeDegrees>
              <LongitudeDegrees>-3.696567825973033905029296875</LongitudeDegrees>
            </Position>
            <AltitudeMeters>751.5999755859375</AltitudeMeters>
            <DistanceMeters>3105.9795811491</DistanceMeters>
          </Trackpoint>
          <Trackpoint>
            <Time>2020-03-07T12:57:01.000Z</Time>
            <Position>
              <LatitudeDegrees>40.54980008862912654876708984375</LatitudeDegrees>
              <LongitudeDegrees>-3.6966454423964023590087890625</LongitudeDegrees>
            </Position>
            <AltitudeMeters>751.79998779296875</AltitudeMeters>
            <DistanceMeters>3112.678796023</DistanceMeters>
          </Trackpoint>
          <Trackpoint>
            <Time>2020-03-07T12:57:02.000Z</Time>
            <Position>
              <LatitudeDegrees>40.5497872643172740936279296875</LatitudeDegrees>
              <LongitudeDegrees>-3.6967218853533267974853515625</LongitudeDegrees>
            </Position>
            <AltitudeMeters>752.20001220703125</AltitudeMeters>
            <DistanceMeters>3119.299369341</DistanceMeters>
          </Trackpoint>
          <Trackpoint>
            <Time>2020-03-07T12:57:03.000Z</Time>
            <Position>
              <LatitudeDegrees>40.549773685634136199951171875</LatitudeDegrees>
              <LongitudeDegrees>-3.69679816067218780517578125</LongitudeDegrees>
            </Position>
            <AltitudeMeters>752.4000244140625</AltitudeMeters>
            <DistanceMeters>3125.9240332206</DistanceMeters>
          </Trackpoint>
          <Trackpoint>
            <Time>2020-03-07T12:57:04.000Z</Time>
            <Position>
              <LatitudeDegrees>40.549762286245822906494140625</LatitudeDegrees>
              <LongitudeDegrees>-3.69687460362911224365234375</LongitudeDegrees>
            </Position>
            <AltitudeMeters>752.5999755859375</AltitudeMeters>
            <DistanceMeters>3132.51247594</DistanceMeters>
          </Trackpoint>
          <Trackpoint>
            <Time>2020-03-07T12:57:05.000Z</Time>
            <Position>
              <LatitudeDegrees>40.5497537367045879364013671875</LatitudeDegrees>
              <LongitudeDegrees>-3.69695079512894153594970703125</LongitudeDegrees>
            </Position>
            <AltitudeMeters>752.79998779296875</AltitudeMeters>
            <DistanceMeters>3139.0257930007</DistanceMeters>
          </Trackpoint>
          <Trackpoint>
            <Time>2020-03-07T12:57:06.000Z</Time>
            <Position>
              <LatitudeDegrees>40.549746192991733551025390625</LatitudeDegrees>
              <LongitudeDegrees>-3.69702656753361225128173828125</LongitudeDegrees>
            </Position>
            <AltitudeMeters>753</AltitudeMeters>
            <DistanceMeters>3145.4890068785</DistanceMeters>
          </Trackpoint>
          <Trackpoint>
            <Time>2020-03-07T12:57:07.000Z</Time>
            <Position>
              <LatitudeDegrees>40.54973940365016460418701171875</LatitudeDegrees>
              <LongitudeDegrees>-3.69710233993828296661376953125</LongitudeDegrees>
            </Position>
            <AltitudeMeters>753.4000244140625</AltitudeMeters>
            <DistanceMeters>3151.9417336264</DistanceMeters>
          </Trackpoint>
          <Trackpoint>
            <Time>2020-03-07T12:57:08.000Z</Time>
            <Position>
              <LatitudeDegrees>40.54973177611827850341796875</LatitudeDegrees>
              <LongitudeDegrees>-3.697175346314907073974609375</LongitudeDegrees>
            </Position>
            <AltitudeMeters>753.5999755859375</AltitudeMeters>
            <DistanceMeters>3158.1745009782</DistanceMeters>
          </Trackpoint>
          <Trackpoint>
            <Time>2020-03-07T12:57:09.000Z</Time>
            <Position>
              <LatitudeDegrees>40.549721382558345794677734375</LatitudeDegrees>
              <LongitudeDegrees>-3.6972429044544696807861328125</LongitudeDegrees>
            </Position>
            <AltitudeMeters>754</AltitudeMeters>
            <DistanceMeters>3164.0037528735</DistanceMeters>
          </Trackpoint>
          <Trackpoint>
            <Time>2020-03-07T12:57:10.000Z</Time>
            <Position>
              <LatitudeDegrees>40.5497084744274616241455078125</LatitudeDegrees>
              <LongitudeDegrees>-3.6973089538514614105224609375</LongitudeDegrees>
            </Position>
            <AltitudeMeters>754.20001220703125</AltitudeMeters>
            <DistanceMeters>3169.771490872</DistanceMeters>
          </Trackpoint>
          <Trackpoint>
            <Time>2020-03-07T12:57:11.000Z</Time>
            <Position>
              <LatitudeDegrees>40.5496933870017528533935546875</LatitudeDegrees>
              <LongitudeDegrees>-3.69737827219069004058837890625</LongitudeDegrees>
            </Position>
            <AltitudeMeters>754.4000244140625</AltitudeMeters>
            <DistanceMeters>3175.8695114357</DistanceMeters>
          </Trackpoint>
          <Trackpoint>
            <Time>2020-03-07T12:57:12.000Z</Time>
            <Position>
              <LatitudeDegrees>40.54967368952929973602294921875</LatitudeDegrees>
              <LongitudeDegrees>-3.69745002128183841705322265625</LongitudeDegrees>
            </Position>
            <AltitudeMeters>754.5999755859375</AltitudeMeters>
            <DistanceMeters>3182.3208386116</DistanceMeters>
          </Trackpoint>
          <Trackpoint>
            <Time>2020-03-07T12:57:13.000Z</Time>
            <Position>
              <LatitudeDegrees>40.54964837618172168731689453125</LatitudeDegrees>
              <LongitudeDegrees>-3.69752059690654277801513671875</LongitudeDegrees>
            </Position>
            <AltitudeMeters>754.79998779296875</AltitudeMeters>
            <DistanceMeters>3188.9209210934</DistanceMeters>
          </Trackpoint>
          <Trackpoint>
            <Time>2020-03-07T12:57:14.000Z</Time>
            <Position>
              <LatitudeDegrees>40.5496239848434925079345703125</LatitudeDegrees>
              <LongitudeDegrees>-3.69759066961705684661865234375</LongitudeDegrees>
            </Position>
            <AltitudeMeters>754.79998779296875</AltitudeMeters>
            <DistanceMeters>3195.4390887553</DistanceMeters>
          </Trackpoint>
          <Trackpoint>
            <Time>2020-03-07T12:57:15.000Z</Time>
            <Position>
              <LatitudeDegrees>40.54960294626653194427490234375</LatitudeDegrees>
              <LongitudeDegrees>-3.697663843631744384765625</LongitudeDegrees>
            </Position>
            <AltitudeMeters>755</AltitudeMeters>
            <DistanceMeters>3202.0555689827</DistanceMeters>
          </Trackpoint>
          <Trackpoint>
            <Time>2020-03-07T12:57:16.000Z</Time>
            <Position>
              <LatitudeDegrees>40.549583248794078826904296875</LatitudeDegrees>
              <LongitudeDegrees>-3.69773961603641510009765625</LongitudeDegrees>
            </Position>
            <AltitudeMeters>755</AltitudeMeters>
            <DistanceMeters>3208.8285143048</DistanceMeters>
          </Trackpoint>
          <Trackpoint>
            <Time>2020-03-07T12:57:17.000Z</Time>
            <Position>
              <LatitudeDegrees>40.54956321604549884796142578125</LatitudeDegrees>
              <LongitudeDegrees>-3.69781681336462497711181640625</LongitudeDegrees>
            </Position>
            <AltitudeMeters>755</AltitudeMeters>
            <DistanceMeters>3215.7282652432</DistanceMeters>
          </Trackpoint>
          <Trackpoint>
            <Time>2020-03-07T12:57:18.000Z</Time>
            <Position>
              <LatitudeDegrees>40.5495431832969188690185546875</LatitudeDegrees>
              <LongitudeDegrees>-3.69789577089250087738037109375</LongitudeDegrees>
            </Position>
            <AltitudeMeters>755.20001220703125</AltitudeMeters>
            <DistanceMeters>3222.7679427589</DistanceMeters>
          </Trackpoint>
          <Trackpoint>
            <Time>2020-03-07T12:57:19.000Z</Time>
            <Position>
              <LatitudeDegrees>40.54952315054833889007568359375</LatitudeDegrees>
              <LongitudeDegrees>-3.6979763209819793701171875</LongitudeDegrees>
            </Position>
            <AltitudeMeters>755.20001220703125</AltitudeMeters>
            <DistanceMeters>3229.9353763923</DistanceMeters>
          </Trackpoint>
          <Trackpoint>
            <Time>2020-03-07T12:57:20.000Z</Time>
            <Position>
              <LatitudeDegrees>40.549502782523632049560546875</LatitudeDegrees>
              <LongitudeDegrees>-3.69805821217596530914306640625</LongitudeDegrees>
            </Position>
            <AltitudeMeters>755.20001220703125</AltitudeMeters>
            <DistanceMeters>3237.2227544919</DistanceMeters>
          </Trackpoint>
          <Trackpoint>
            <Time>2020-03-07T12:57:21.000Z</Time>
            <Position>
              <LatitudeDegrees>40.54948258213698863983154296875</LatitudeDegrees>
              <LongitudeDegrees>-3.69814169593155384063720703125</LongitudeDegrees>
            </Position>
            <AltitudeMeters>755.20001220703125</AltitudeMeters>
            <DistanceMeters>3244.6324012297</DistanceMeters>
          </Trackpoint>
          <Trackpoint>
            <Time>2020-03-07T12:57:22.000Z</Time>
            <Position>
              <LatitudeDegrees>40.54946145974099636077880859375</LatitudeDegrees>
              <LongitudeDegrees>-3.69822702370584011077880859375</LongitudeDegrees>
            </Position>
            <AltitudeMeters>755.20001220703125</AltitudeMeters>
            <DistanceMeters>3252.2226507455</DistanceMeters>
          </Trackpoint>
          <Trackpoint>
            <Time>2020-03-07T12:57:23.000Z</Time>
            <Position>
              <LatitudeDegrees>40.5494387447834014892578125</LatitudeDegrees>
              <LongitudeDegrees>-3.69831369258463382720947265625</LongitudeDegrees>
            </Position>
            <AltitudeMeters>755.20001220703125</AltitudeMeters>
            <DistanceMeters>3259.9765045592</DistanceMeters>
          </Trackpoint>
          <Trackpoint>
            <Time>2020-03-07T12:57:24.000Z</Time>
            <Position>
              <LatitudeDegrees>40.54941586218774318695068359375</LatitudeDegrees>
              <LongitudeDegrees>-3.69840212166309356689453125</LongitudeDegrees>
            </Position>
            <AltitudeMeters>755</AltitudeMeters>
            <DistanceMeters>3267.8768772328</DistanceMeters>
          </Trackpoint>
          <Trackpoint>
            <Time>2020-03-07T12:57:25.000Z</Time>
            <Position>
              <LatitudeDegrees>40.5493936501443386077880859375</LatitudeDegrees>
              <LongitudeDegrees>-3.6984928138554096221923828125</LongitudeDegrees>
            </Position>
            <AltitudeMeters>755</AltitudeMeters>
            <DistanceMeters>3275.9356804804</DistanceMeters>
          </Trackpoint>
          <Trackpoint>
            <Time>2020-03-07T12:57:26.000Z</Time>
            <Position>
              <LatitudeDegrees>40.5493721924722194671630859375</LatitudeDegrees>
              <LongitudeDegrees>-3.6985850147902965545654296875</LongitudeDegrees>
            </Position>
            <AltitudeMeters>755</AltitudeMeters>
            <DistanceMeters>3284.0902793629</DistanceMeters>
          </Trackpoint>
          <Trackpoint>
            <Time>2020-03-07T12:57:27.000Z</Time>
            <Position>
              <LatitudeDegrees>40.5493493936955928802490234375</LatitudeDegrees>
              <LongitudeDegrees>-3.69867897592484951019287109375</LongitudeDegrees>
            </Position>
            <AltitudeMeters>755</AltitudeMeters>
            <DistanceMeters>3292.432629101</DistanceMeters>
          </Trackpoint>
          <Trackpoint>
            <Time>2020-03-07T12:57:28.000Z</Time>
            <Position>
              <LatitudeDegrees>40.549325086176395416259765625</LatitudeDegrees>
              <LongitudeDegrees>-3.6987741105258464813232421875</LongitudeDegrees>
            </Position>
            <AltitudeMeters>755</AltitudeMeters>
            <DistanceMeters>3300.9214458632</DistanceMeters>
          </Trackpoint>
          <Trackpoint>
            <Time>2020-03-07T12:57:29.000Z</Time>
            <Position>
              <LatitudeDegrees>40.549300611019134521484375</LatitudeDegrees>
              <LongitudeDegrees>-3.69887092150747776031494140625</LongitudeDegrees>
            </Position>
            <AltitudeMeters>755</AltitudeMeters>
            <DistanceMeters>3309.5511063683</DistanceMeters>
          </Trackpoint>
          <Trackpoint>
            <Time>2020-03-07T12:57:30.000Z</Time>
            <Position>
              <LatitudeDegrees>40.54927647113800048828125</LatitudeDegrees>
              <LongitudeDegrees>-3.69896982796490192413330078125</LongitudeDegrees>
            </Position>
            <AltitudeMeters>755</AltitudeMeters>
            <DistanceMeters>3318.3368387478</DistanceMeters>
          </Trackpoint>
          <Trackpoint>
            <Time>2020-03-07T12:57:31.000Z</Time>
            <Position>
              <LatitudeDegrees>40.549251995980739593505859375</LatitudeDegrees>
              <LongitudeDegrees>-3.6990701593458652496337890625</LongitudeDegrees>
            </Position>
            <AltitudeMeters>754.79998779296875</AltitudeMeters>
            <DistanceMeters>3327.2480952388</DistanceMeters>
          </Trackpoint>
          <Trackpoint>
            <Time>2020-03-07T12:57:32.000Z</Time>
            <Position>
              <LatitudeDegrees>40.549227185547351837158203125</LatitudeDegrees>
              <LongitudeDegrees>-3.69917183183133602142333984375</LongitudeDegrees>
            </Position>
            <AltitudeMeters>754.5999755859375</AltitudeMeters>
            <DistanceMeters>3336.2791334095</DistanceMeters>
          </Trackpoint>
          <Trackpoint>
            <Time>2020-03-07T12:57:33.000Z</Time>
            <Position>
              <LatitudeDegrees>40.5492008663713932037353515625</LatitudeDegrees>
              <LongitudeDegrees>-3.6992740072309970855712890625</LongitudeDegrees>
            </Position>
            <AltitudeMeters>754.5999755859375</AltitudeMeters>
            <DistanceMeters>3345.4036774975</DistanceMeters>
          </Trackpoint>
          <Trackpoint>
            <Time>2020-03-07T12:57:34.000Z</Time>
            <Position>
              <LatitudeDegrees>40.54917362518608570098876953125</LatitudeDegrees>
              <LongitudeDegrees>-3.69937735609710216522216796875</LongitudeDegrees>
            </Position>
            <AltitudeMeters>754.5999755859375</AltitudeMeters>
            <DistanceMeters>3354.6554932443</DistanceMeters>
          </Trackpoint>
          <Trackpoint>
            <Time>2020-03-07T12:57:35.000Z</Time>
            <Position>
              <LatitudeDegrees>40.54914764128625392913818359375</LatitudeDegrees>
              <LongitudeDegrees>-3.69948179461061954498291015625</LongitudeDegrees>
            </Position>
            <AltitudeMeters>754.4000244140625</AltitudeMeters>
            <DistanceMeters>3363.9496694457</DistanceMeters>
          </Trackpoint>
          <Trackpoint>
            <Time>2020-03-07T12:57:36.000Z</Time>
            <Position>
              <LatitudeDegrees>40.54912249557673931121826171875</LatitudeDegrees>
              <LongitudeDegrees>-3.6995864845812320709228515625</LongitudeDegrees>
            </Position>
            <AltitudeMeters>754.20001220703125</AltitudeMeters>
            <DistanceMeters>3373.2350972703</DistanceMeters>
          </Trackpoint>
          <Trackpoint>
            <Time>2020-03-07T12:57:37.000Z</Time>
            <Position>
              <LatitudeDegrees>40.549096763134002685546875</LatitudeDegrees>
              <LongitudeDegrees>-3.69969117455184459686279296875</LongitudeDegrees>
            </Position>
            <AltitudeMeters>754</AltitudeMeters>
            <DistanceMeters>3382.5409251807</DistanceMeters>
          </Trackpoint>
          <Trackpoint>
            <Time>2020-03-07T12:57:38.000Z</Time>
            <Position>
              <LatitudeDegrees>40.54907069541513919830322265625</LatitudeDegrees>
              <LongitudeDegrees>-3.69979360140860080718994140625</LongitudeDegrees>
            </Position>
            <AltitudeMeters>753.79998779296875</AltitudeMeters>
            <DistanceMeters>3391.676348898</DistanceMeters>
          </Trackpoint>
          <Trackpoint>
            <Time>2020-03-07T12:57:39.000Z</Time>
            <Position>
              <LatitudeDegrees>40.54904378950595855712890625</LatitudeDegrees>
              <LongitudeDegrees>-3.69989368133246898651123046875</LongitudeDegrees>
            </Position>
            <AltitudeMeters>753.5999755859375</AltitudeMeters>
            <DistanceMeters>3400.6552420643</DistanceMeters>
          </Trackpoint>
          <Trackpoint>
            <Time>2020-03-07T12:57:40.000Z</Time>
            <Position>
              <LatitudeDegrees>40.54901621304452419281005859375</LatitudeDegrees>
              <LongitudeDegrees>-3.69999275542795658111572265625</LongitudeDegrees>
            </Position>
            <AltitudeMeters>753.4000244140625</AltitudeMeters>
            <DistanceMeters>3409.5786502744</DistanceMeters>
          </Trackpoint>
          <Trackpoint>
            <Time>2020-03-07T12:57:41.000Z</Time>
            <Position>
              <LatitudeDegrees>40.548991151154041290283203125</LatitudeDegrees>
              <LongitudeDegrees>-3.7000927515327930450439453125</LongitudeDegrees>
            </Position>
            <AltitudeMeters>753.20001220703125</AltitudeMeters>
            <DistanceMeters>3418.4838246876</DistanceMeters>
          </Trackpoint>
          <Trackpoint>
            <Time>2020-03-07T12:57:42.000Z</Time>
            <Position>
              <LatitudeDegrees>40.548969022929668426513671875</LatitudeDegrees>
              <LongitudeDegrees>-3.70019224472343921661376953125</LongitudeDegrees>
            </Position>
            <AltitudeMeters>752.5999755859375</AltitudeMeters>
            <DistanceMeters>3427.2510369407</DistanceMeters>
          </Trackpoint>
          <Trackpoint>
            <Time>2020-03-07T12:57:43.000Z</Time>
            <Position>
              <LatitudeDegrees>40.548946224153041839599609375</LatitudeDegrees>
              <LongitudeDegrees>-3.7002910673618316650390625</LongitudeDegrees>
            </Position>
            <AltitudeMeters>752.20001220703125</AltitudeMeters>
            <DistanceMeters>3435.986261377</DistanceMeters>
          </Trackpoint>
          <Trackpoint>
            <Time>2020-03-07T12:57:44.000Z</Time>
            <Position>
              <LatitudeDegrees>40.54892166517674922943115234375</LatitudeDegrees>
              <LongitudeDegrees>-3.70038963854312896728515625</LongitudeDegrees>
            </Position>
            <AltitudeMeters>752</AltitudeMeters>
            <DistanceMeters>3444.7596513494</DistanceMeters>
          </Trackpoint>
          <Trackpoint>
            <Time>2020-03-07T12:57:45.000Z</Time>
            <Position>
              <LatitudeDegrees>40.5488961003720760345458984375</LatitudeDegrees>
              <LongitudeDegrees>-3.7004880420863628387451171875</LongitudeDegrees>
            </Position>
            <AltitudeMeters>751.79998779296875</AltitudeMeters>
            <DistanceMeters>3453.5551425179</DistanceMeters>
          </Trackpoint>
          <Trackpoint>
            <Time>2020-03-07T12:57:46.000Z</Time>
            <Position>
              <LatitudeDegrees>40.54887036792933940887451171875</LatitudeDegrees>
              <LongitudeDegrees>-3.700585775077342987060546875</LongitudeDegrees>
            </Position>
            <AltitudeMeters>751.79998779296875</AltitudeMeters>
            <DistanceMeters>3462.3027632108</DistanceMeters>
          </Trackpoint>
          <Trackpoint>
            <Time>2020-03-07T12:57:47.000Z</Time>
            <Position>
              <LatitudeDegrees>40.54884421639144420623779296875</LatitudeDegrees>
              <LongitudeDegrees>-3.7006831727921962738037109375</LongitudeDegrees>
            </Position>
            <AltitudeMeters>751.79998779296875</AltitudeMeters>
            <DistanceMeters>3471.0390213402</DistanceMeters>
          </Trackpoint>
          <Trackpoint>
            <Time>2020-03-07T12:57:48.000Z</Time>
            <Position>
              <LatitudeDegrees>40.5488176457583904266357421875</LatitudeDegrees>
              <LongitudeDegrees>-3.70078166015446186065673828125</LongitudeDegrees>
            </Position>
            <AltitudeMeters>751.5999755859375</AltitudeMeters>
            <DistanceMeters>3479.8780383327</DistanceMeters>
          </Trackpoint>
          <Trackpoint>
            <Time>2020-03-07T12:57:49.000Z</Time>
            <Position>
              <LatitudeDegrees>40.548792667686939239501953125</LatitudeDegrees>
              <LongitudeDegrees>-3.7008813209831714630126953125</LongitudeDegrees>
            </Position>
            <AltitudeMeters>751.5999755859375</AltitudeMeters>
            <DistanceMeters>3488.7532485736</DistanceMeters>
          </Trackpoint>
          <Trackpoint>
            <Time>2020-03-07T12:57:50.000Z</Time>
            <Position>
              <LatitudeDegrees>40.548768527805805206298828125</LatitudeDegrees>
              <LongitudeDegrees>-3.70098148472607135772705078125</LongitudeDegrees>
            </Position>
            <AltitudeMeters>751.5999755859375</AltitudeMeters>
            <DistanceMeters>3497.6401517788</DistanceMeters>
          </Trackpoint>
          <Trackpoint>
            <Time>2020-03-07T12:57:51.000Z</Time>
            <Position>
              <LatitudeDegrees>40.54874413646757602691650390625</LatitudeDegrees>
              <LongitudeDegrees>-3.70108156464993953704833984375</LongitudeDegrees>
            </Position>
            <AltitudeMeters>751.5999755859375</AltitudeMeters>
            <DistanceMeters>3506.5290869729</DistanceMeters>
          </Trackpoint>
          <Trackpoint>
            <Time>2020-03-07T12:57:52.000Z</Time>
            <Position>
              <LatitudeDegrees>40.5487199127674102783203125</LatitudeDegrees>
              <LongitudeDegrees>-3.70118231512606143951416015625</LongitudeDegrees>
            </Position>
            <AltitudeMeters>751.5999755859375</AltitudeMeters>
            <DistanceMeters>3515.4661461171</DistanceMeters>
          </Trackpoint>
          <Trackpoint>
            <Time>2020-03-07T12:57:53.000Z</Time>
            <Position>
              <LatitudeDegrees>40.54869652725756168365478515625</LatitudeDegrees>
              <LongitudeDegrees>-3.7012839876115322113037109375</LongitudeDegrees>
            </Position>
            <AltitudeMeters>751.5999755859375</AltitudeMeters>
            <DistanceMeters>3524.4505689329</DistanceMeters>
          </Trackpoint>
          <Trackpoint>
            <Time>2020-03-07T12:57:54.000Z</Time>
            <Position>
              <LatitudeDegrees>40.54867372848093509674072265625</LatitudeDegrees>
              <LongitudeDegrees>-3.70138683356344699859619140625</LongitudeDegrees>
            </Position>
            <AltitudeMeters>751.5999755859375</AltitudeMeters>
            <DistanceMeters>3533.5115542561</DistanceMeters>
          </Trackpoint>
          <Trackpoint>
            <Time>2020-03-07T12:57:55.000Z</Time>
            <Position>
              <LatitudeDegrees>40.54865277372300624847412109375</LatitudeDegrees>
              <LongitudeDegrees>-3.70149160735309123992919921875</LongitudeDegrees>
            </Position>
            <AltitudeMeters>751.5999755859375</AltitudeMeters>
            <DistanceMeters>3542.6746132855</DistanceMeters>
          </Trackpoint>
          <Trackpoint>
            <Time>2020-03-07T12:57:56.000Z</Time>
            <Position>
              <LatitudeDegrees>40.54863399825990200042724609375</LatitudeDegrees>
              <LongitudeDegrees>-3.7015984766185283660888671875</LongitudeDegrees>
            </Position>
            <AltitudeMeters>751.79998779296875</AltitudeMeters>
            <DistanceMeters>3551.9512844832</DistanceMeters>
          </Trackpoint>
          <Trackpoint>
            <Time>2020-03-07T12:57:57.000Z</Time>
            <Position>
              <LatitudeDegrees>40.54861857555806636810302734375</LatitudeDegrees>
              <LongitudeDegrees>-3.7017071060836315155029296875</LongitudeDegrees>
            </Position>
            <AltitudeMeters>751.79998779296875</AltitudeMeters>
            <DistanceMeters>3561.2977789875</DistanceMeters>
          </Trackpoint>
          <Trackpoint>
            <Time>2020-03-07T12:57:58.000Z</Time>
            <Position>
              <LatitudeDegrees>40.548608265817165374755859375</LatitudeDegrees>
              <LongitudeDegrees>-3.70181732811033725738525390625</LongitudeDegrees>
            </Position>
            <AltitudeMeters>751.79998779296875</AltitudeMeters>
            <DistanceMeters>3570.6900533011</DistanceMeters>
          </Trackpoint>
          <Trackpoint>
            <Time>2020-03-07T12:57:59.000Z</Time>
            <Position>
              <LatitudeDegrees>40.54860415868461132049560546875</LatitudeDegrees>
              <LongitudeDegrees>-3.7019283883273601531982421875</LongitudeDegrees>
            </Position>
            <AltitudeMeters>751.79998779296875</AltitudeMeters>
            <DistanceMeters>3580.0943378933</DistanceMeters>
          </Trackpoint>
          <Trackpoint>
            <Time>2020-03-07T12:58:00.000Z</Time>
            <Position>
              <LatitudeDegrees>40.54860633797943592071533203125</LatitudeDegrees>
              <LongitudeDegrees>-3.70203894563019275665283203125</LongitudeDegrees>
            </Position>
            <AltitudeMeters>751.79998779296875</AltitudeMeters>
            <DistanceMeters>3589.4475929732</DistanceMeters>
          </Trackpoint>
          <Trackpoint>
            <Time>2020-03-07T12:58:01.000Z</Time>
            <Position>
              <LatitudeDegrees>40.54861438460648059844970703125</LatitudeDegrees>
              <LongitudeDegrees>-3.70214782655239105224609375</LongitudeDegrees>
            </Position>
            <AltitudeMeters>751.79998779296875</AltitudeMeters>
            <DistanceMeters>3598.6989206907</DistanceMeters>
          </Trackpoint>
          <Trackpoint>
            <Time>2020-03-07T12:58:02.000Z</Time>
            <Position>
              <LatitudeDegrees>40.54862829856574535369873046875</LatitudeDegrees>
              <LongitudeDegrees>-3.70225503109395503997802734375</LongitudeDegrees>
            </Position>
            <AltitudeMeters>751.79998779296875</AltitudeMeters>
            <DistanceMeters>3607.8973888392</DistanceMeters>
          </Trackpoint>
          <Trackpoint>
            <Time>2020-03-07T12:58:03.000Z</Time>
            <Position>
              <LatitudeDegrees>40.5486463196575641632080078125</LatitudeDegrees>
              <LongitudeDegrees>-3.70236047543585300445556640625</LongitudeDegrees>
            </Position>
            <AltitudeMeters>751.79998779296875</AltitudeMeters>
            <DistanceMeters>3617.0377535617</DistanceMeters>
          </Trackpoint>
          <Trackpoint>
            <Time>2020-03-07T12:58:04.000Z</Time>
            <Position>
              <LatitudeDegrees>40.5486662685871124267578125</LatitudeDegrees>
              <LongitudeDegrees>-3.70246432721614837646484375</LongitudeDegrees>
            </Position>
            <AltitudeMeters>751.79998779296875</AltitudeMeters>
            <DistanceMeters>3626.0967454881</DistanceMeters>
          </Trackpoint>
          <Trackpoint>
            <Time>2020-03-07T12:58:05.000Z</Time>
            <Position>
              <LatitudeDegrees>40.54869133047759532928466796875</LatitudeDegrees>
              <LongitudeDegrees>-3.70256599970161914825439453125</LongitudeDegrees>
            </Position>
            <AltitudeMeters>752</AltitudeMeters>
            <DistanceMeters>3635.1367782213</DistanceMeters>
          </Trackpoint>
          <Trackpoint>
            <Time>2020-03-07T12:58:06.000Z</Time>
            <Position>
              <LatitudeDegrees>40.5487237684428691864013671875</LatitudeDegrees>
              <LongitudeDegrees>-3.70266339741647243499755859375</LongitudeDegrees>
            </Position>
            <AltitudeMeters>752.20001220703125</AltitudeMeters>
            <DistanceMeters>3644.1307442422</DistanceMeters>
          </Trackpoint>
          <Trackpoint>
            <Time>2020-03-07T12:58:07.000Z</Time>
            <Position>
              <LatitudeDegrees>40.54876492358744144439697265625</LatitudeDegrees>
              <LongitudeDegrees>-3.702754341065883636474609375</LongitudeDegrees>
            </Position>
            <AltitudeMeters>752.20001220703125</AltitudeMeters>
            <DistanceMeters>3653.0829466774</DistanceMeters>
          </Trackpoint>
          <Trackpoint>
            <Time>2020-03-07T12:58:08.000Z</Time>
            <Position>
              <LatitudeDegrees>40.5488129518926143646240234375</LatitudeDegrees>
              <LongitudeDegrees>-3.7028393335640430450439453125</LongitudeDegrees>
            </Position>
            <AltitudeMeters>752.20001220703125</AltitudeMeters>
            <DistanceMeters>3662.0406952383</DistanceMeters>
          </Trackpoint>
          <Trackpoint>
            <Time>2020-03-07T12:58:09.000Z</Time>
            <Position>
              <LatitudeDegrees>40.5488652549684047698974609375</LatitudeDegrees>
              <LongitudeDegrees>-3.702919967472553253173828125</LongitudeDegrees>
            </Position>
            <AltitudeMeters>752.20001220703125</AltitudeMeters>
            <DistanceMeters>3671.0065047669</DistanceMeters>
          </Trackpoint>
          <Trackpoint>
            <Time>2020-03-07T12:58:10.000Z</Time>
            <Position>
              <LatitudeDegrees>40.54892065934836864471435546875</LatitudeDegrees>
              <LongitudeDegrees>-3.70299833826720714569091796875</LongitudeDegrees>
            </Position>
            <AltitudeMeters>752.20001220703125</AltitudeMeters>
            <DistanceMeters>3680.0600125889</DistanceMeters>
          </Trackpoint>
          <Trackpoint>
            <Time>2020-03-07T12:58:11.000Z</Time>
            <Position>
              <LatitudeDegrees>40.54897681809961795806884765625</LatitudeDegrees>
              <LongitudeDegrees>-3.703075535595417022705078125</LongitudeDegrees>
            </Position>
            <AltitudeMeters>752.20001220703125</AltitudeMeters>
            <DistanceMeters>3689.0990463683</DistanceMeters>
          </Trackpoint>
          <Trackpoint>
            <Time>2020-03-07T12:58:12.000Z</Time>
            <Position>
              <LatitudeDegrees>40.5490318872034549713134765625</LatitudeDegrees>
              <LongitudeDegrees>-3.7031529843807220458984375</LongitudeDegrees>
            </Position>
            <AltitudeMeters>752</AltitudeMeters>
            <DistanceMeters>3698.0698903235</DistanceMeters>
          </Trackpoint>
          <Trackpoint>
            <Time>2020-03-07T12:58:13.000Z</Time>
            <Position>
              <LatitudeDegrees>40.54908494465053081512451171875</LatitudeDegrees>
              <LongitudeDegrees>-3.703231103718280792236328125</LongitudeDegrees>
            </Position>
            <AltitudeMeters>752</AltitudeMeters>
            <DistanceMeters>3706.9313543536</DistanceMeters>
          </Trackpoint>
          <Trackpoint>
            <Time>2020-03-07T12:58:14.000Z</Time>
            <Position>
              <LatitudeDegrees>40.5491374991834163665771484375</LatitudeDegrees>
              <LongitudeDegrees>-3.70330813340842723846435546875</LongitudeDegrees>
            </Position>
            <AltitudeMeters>752</AltitudeMeters>
            <DistanceMeters>3715.6872294674</DistanceMeters>
          </Trackpoint>
          <Trackpoint>
            <Time>2020-03-07T12:58:15.000Z</Time>
            <Position>
              <LatitudeDegrees>40.5491904728114604949951171875</LatitudeDegrees>
              <LongitudeDegrees>-3.70338164269924163818359375</LongitudeDegrees>
            </Position>
            <AltitudeMeters>752</AltitudeMeters>
            <DistanceMeters>3724.255983844</DistanceMeters>
          </Trackpoint>
          <Trackpoint>
            <Time>2020-03-07T12:58:16.000Z</Time>
            <Position>
              <LatitudeDegrees>40.54924353025853633880615234375</LatitudeDegrees>
              <LongitudeDegrees>-3.70345213450491428375244140625</LongitudeDegrees>
            </Position>
            <AltitudeMeters>752</AltitudeMeters>
            <DistanceMeters>3732.6474399816</DistanceMeters>
          </Trackpoint>
          <Trackpoint>
            <Time>2020-03-07T12:58:17.000Z</Time>
            <Position>
              <LatitudeDegrees>40.54929600097239017486572265625</LatitudeDegrees>
              <LongitudeDegrees>-3.7035202793776988983154296875</LongitudeDegrees>
            </Position>
            <AltitudeMeters>752</AltitudeMeters>
            <DistanceMeters>3740.8528193126</DistanceMeters>
          </Trackpoint>
          <Trackpoint>
            <Time>2020-03-07T12:58:18.000Z</Time>
            <Position>
              <LatitudeDegrees>40.5493463762104511260986328125</LatitudeDegrees>
              <LongitudeDegrees>-3.70358842425048351287841796875</LongitudeDegrees>
            </Position>
            <AltitudeMeters>752</AltitudeMeters>
            <DistanceMeters>3748.8936742012</DistanceMeters>
          </Trackpoint>
          <Trackpoint>
            <Time>2020-03-07T12:58:19.000Z</Time>
            <Position>
              <LatitudeDegrees>40.54939457215368747711181640625</LatitudeDegrees>
              <LongitudeDegrees>-3.703657574951648712158203125</LongitudeDegrees>
            </Position>
            <AltitudeMeters>752.20001220703125</AltitudeMeters>
            <DistanceMeters>3756.8294005775</DistanceMeters>
          </Trackpoint>
          <Trackpoint>
            <Time>2020-03-07T12:58:20.000Z</Time>
            <Position>
              <LatitudeDegrees>40.54944268427789211273193359375</LatitudeDegrees>
              <LongitudeDegrees>-3.70372588746249675750732421875</LongitudeDegrees>
            </Position>
            <AltitudeMeters>752.20001220703125</AltitudeMeters>
            <DistanceMeters>3764.7068802076</DistanceMeters>
          </Trackpoint>
          <Trackpoint>
            <Time>2020-03-07T12:58:21.000Z</Time>
            <Position>
              <LatitudeDegrees>40.54949096404016017913818359375</LatitudeDegrees>
              <LongitudeDegrees>-3.70379344560205936431884765625</LongitudeDegrees>
            </Position>
            <AltitudeMeters>752.20001220703125</AltitudeMeters>
            <DistanceMeters>3772.5504706363</DistanceMeters>
          </Trackpoint>
          <Trackpoint>
            <Time>2020-03-07T12:58:22.000Z</Time>
            <Position>
              <LatitudeDegrees>40.5495388247072696685791015625</LatitudeDegrees>
              <LongitudeDegrees>-3.7038582377135753631591796875</LongitudeDegrees>
            </Position>
            <AltitudeMeters>752.20001220703125</AltitudeMeters>
            <DistanceMeters>3780.1928874294</DistanceMeters>
          </Trackpoint>
          <Trackpoint>
            <Time>2020-03-07T12:58:23.000Z</Time>
            <Position>
              <LatitudeDegrees>40.54958760738372802734375</LatitudeDegrees>
              <LongitudeDegrees>-3.70391808450222015380859375</LongitudeDegrees>
            </Position>
            <AltitudeMeters>752.20001220703125</AltitudeMeters>
            <DistanceMeters>3787.6153194018</DistanceMeters>
          </Trackpoint>
          <Trackpoint>
            <Time>2020-03-07T12:58:24.000Z</Time>
            <Position>
              <LatitudeDegrees>40.54963764734566211700439453125</LatitudeDegrees>
              <LongitudeDegrees>-3.7039732374250888824462890625</LongitudeDegrees>
            </Position>
            <AltitudeMeters>752.4000244140625</AltitudeMeters>
            <DistanceMeters>3794.8797372545</DistanceMeters>
          </Trackpoint>
          <Trackpoint>
            <Time>2020-03-07T12:58:25.000Z</Time>
            <Position>
              <LatitudeDegrees>40.54968961514532566070556640625</LatitudeDegrees>
              <LongitudeDegrees>-3.704027719795703887939453125</LongitudeDegrees>
            </Position>
            <AltitudeMeters>752.79998779296875</AltitudeMeters>
            <DistanceMeters>3802.2747452291</DistanceMeters>
          </Trackpoint>
          <Trackpoint>
            <Time>2020-03-07T12:58:26.000Z</Time>
            <Position>
              <LatitudeDegrees>40.5497445166110992431640625</LatitudeDegrees>
              <LongitudeDegrees>-3.704085052013397216796875</LongitudeDegrees>
            </Position>
            <AltitudeMeters>753.20001220703125</AltitudeMeters>
            <DistanceMeters>3810.0750436259</DistanceMeters>
          </Trackpoint>
          <Trackpoint>
            <Time>2020-03-07T12:58:27.000Z</Time>
            <Position>
              <LatitudeDegrees>40.54980042390525341033935546875</LatitudeDegrees>
              <LongitudeDegrees>-3.70415034703910350799560546875</LongitudeDegrees>
            </Position>
            <AltitudeMeters>753.4000244140625</AltitudeMeters>
            <DistanceMeters>3818.3940883948</DistanceMeters>
          </Trackpoint>
          <Trackpoint>
            <Time>2020-03-07T12:58:28.000Z</Time>
            <Position>
              <LatitudeDegrees>40.549846105277538299560546875</LatitudeDegrees>
              <LongitudeDegrees>-3.70423265732824802398681640625</LongitudeDegrees>
            </Position>
            <AltitudeMeters>753.5999755859375</AltitudeMeters>
            <DistanceMeters>3827.013802368</DistanceMeters>
          </Trackpoint>
          <Trackpoint>
            <Time>2020-03-07T12:58:29.000Z</Time>
            <Position>
              <LatitudeDegrees>40.5498694069683551788330078125</LatitudeDegrees>
              <LongitudeDegrees>-3.70433106087148189544677734375</LongitudeDegrees>
            </Position>
            <AltitudeMeters>753.5999755859375</AltitudeMeters>
            <DistanceMeters>3835.7309173309</DistanceMeters>
          </Trackpoint>
          <Trackpoint>
            <Time>2020-03-07T12:58:30.000Z</Time>
            <Position>
              <LatitudeDegrees>40.5498667247593402862548828125</LatitudeDegrees>
              <LongitudeDegrees>-3.70443549938499927520751953125</LongitudeDegrees>
            </Position>
            <AltitudeMeters>753.5999755859375</AltitudeMeters>
            <DistanceMeters>3844.5689126489</DistanceMeters>
          </Trackpoint>
          <Trackpoint>
            <Time>2020-03-07T12:58:31.000Z</Time>
            <Position>
              <LatitudeDegrees>40.54985121823847293853759765625</LatitudeDegrees>
              <LongitudeDegrees>-3.7045395188033580780029296875</LongitudeDegrees>
            </Position>
            <AltitudeMeters>753.5999755859375</AltitudeMeters>
            <DistanceMeters>3853.5337149529</DistanceMeters>
          </Trackpoint>
          <Trackpoint>
            <Time>2020-03-07T12:58:32.000Z</Time>
            <Position>
              <LatitudeDegrees>40.54982204921543598175048828125</LatitudeDegrees>
              <LongitudeDegrees>-3.7046337313950061798095703125</LongitudeDegrees>
            </Position>
            <AltitudeMeters>753.5999755859375</AltitudeMeters>
            <DistanceMeters>3862.1377004648</DistanceMeters>
          </Trackpoint>
          <Trackpoint>
            <Time>2020-03-07T12:58:33.000Z</Time>
            <Position>
              <LatitudeDegrees>40.54978030733764171600341796875</LatitudeDegrees>
              <LongitudeDegrees>-3.7047175504267215728759765625</LongitudeDegrees>
            </Position>
            <AltitudeMeters>753.5999755859375</AltitudeMeters>
            <DistanceMeters>3870.6137424767</DistanceMeters>
          </Trackpoint>
          <Trackpoint>
            <Time>2020-03-07T12:58:34.000Z</Time>
            <Position>
              <LatitudeDegrees>40.54974024184048175811767578125</LatitudeDegrees>
              <LongitudeDegrees>-3.704799525439739227294921875</LongitudeDegrees>
            </Position>
            <AltitudeMeters>753.5999755859375</AltitudeMeters>
            <DistanceMeters>3878.8570018588</DistanceMeters>
          </Trackpoint>
          <Trackpoint>
            <Time>2020-03-07T12:58:35.000Z</Time>
            <Position>
              <LatitudeDegrees>40.5497069656848907470703125</LatitudeDegrees>
              <LongitudeDegrees>-3.70487705804407596588134765625</LongitudeDegrees>
            </Position>
            <AltitudeMeters>753.79998779296875</AltitudeMeters>
            <DistanceMeters>3886.3869321368</DistanceMeters>
          </Trackpoint>
          <Trackpoint>
            <Time>2020-03-07T12:58:36.000Z</Time>
            <Position>
              <LatitudeDegrees>40.54968877695500850677490234375</LatitudeDegrees>
              <LongitudeDegrees>-3.70495132170617580413818359375</LongitudeDegrees>
            </Position>
            <AltitudeMeters>753.79998779296875</AltitudeMeters>
            <DistanceMeters>3892.9856463004</DistanceMeters>
          </Trackpoint>
          <Trackpoint>
            <Time>2020-03-07T12:58:37.000Z</Time>
            <Position>
              <LatitudeDegrees>40.54968643002212047576904296875</LatitudeDegrees>
              <LongitudeDegrees>-3.7050223164260387420654296875</LongitudeDegrees>
            </Position>
            <AltitudeMeters>753.79998779296875</AltitudeMeters>
            <DistanceMeters>3898.9956634198</DistanceMeters>
          </Trackpoint>
          <Trackpoint>
            <Time>2020-03-07T12:58:38.000Z</Time>
            <Position>
              <LatitudeDegrees>40.549699254333972930908203125</LatitudeDegrees>
              <LongitudeDegrees>-3.705084510147571563720703125</LongitudeDegrees>
            </Position>
            <AltitudeMeters>753.79998779296875</AltitudeMeters>
            <DistanceMeters>3904.4454268481</DistanceMeters>
          </Trackpoint>
          <Trackpoint>
            <Time>2020-03-07T12:58:39.000Z</Time>
            <Position>
              <LatitudeDegrees>40.54972372949123382568359375</LatitudeDegrees>
              <LongitudeDegrees>-3.70513522066175937652587890625</LongitudeDegrees>
            </Position>
            <AltitudeMeters>753.79998779296875</AltitudeMeters>
            <DistanceMeters>3909.5255802392</DistanceMeters>
          </Trackpoint>
          <Trackpoint>
            <Time>2020-03-07T12:58:40.000Z</Time>
            <Position>
              <LatitudeDegrees>40.54975633509457111358642578125</LatitudeDegrees>
              <LongitudeDegrees>-3.70517679490149021148681640625</LongitudeDegrees>
            </Position>
            <AltitudeMeters>753.79998779296875</AltitudeMeters>
            <DistanceMeters>3914.5790004853</DistanceMeters>
          </Trackpoint>
          <Trackpoint>
            <Time>2020-03-07T12:58:41.000Z</Time>
            <Position>
              <LatitudeDegrees>40.54979975335299968719482421875</LatitudeDegrees>
              <LongitudeDegrees>-3.70520127005875110626220703125</LongitudeDegrees>
            </Position>
            <AltitudeMeters>753.79998779296875</AltitudeMeters>
            <DistanceMeters>3919.8364774462</DistanceMeters>
          </Trackpoint>
          <Trackpoint>
            <Time>2020-03-07T12:58:42.000Z</Time>
            <Position>
              <LatitudeDegrees>40.54984937421977519989013671875</LatitudeDegrees>
              <LongitudeDegrees>-3.70521786622703075408935546875</LongitudeDegrees>
            </Position>
            <AltitudeMeters>753.79998779296875</AltitudeMeters>
            <DistanceMeters>3925.5349118709</DistanceMeters>
          </Trackpoint>
          <Trackpoint>
            <Time>2020-03-07T12:58:43.000Z</Time>
            <Position>
              <LatitudeDegrees>40.5499022640287876129150390625</LatitudeDegrees>
              <LongitudeDegrees>-3.7052348814904689788818359375</LongitudeDegrees>
            </Position>
            <AltitudeMeters>753.79998779296875</AltitudeMeters>
            <DistanceMeters>3931.5950538575</DistanceMeters>
          </Trackpoint>
          <Trackpoint>
            <Time>2020-03-07T12:58:44.000Z</Time>
            <Position>
              <LatitudeDegrees>40.54995574057102203369140625</LatitudeDegrees>
              <LongitudeDegrees>-3.7052553333342075347900390625</LongitudeDegrees>
            </Position>
            <AltitudeMeters>753.79998779296875</AltitudeMeters>
            <DistanceMeters>3937.7929523072</DistanceMeters>
          </Trackpoint>
          <Trackpoint>
            <Time>2020-03-07T12:58:45.000Z</Time>
            <Position>
              <LatitudeDegrees>40.5500108934938907623291015625</LatitudeDegrees>
              <LongitudeDegrees>-3.70527922175824642181396484375</LongitudeDegrees>
            </Position>
            <AltitudeMeters>754.4000244140625</AltitudeMeters>
            <DistanceMeters>3944.2561661849</DistanceMeters>
          </Trackpoint>
          <Trackpoint>
            <Time>2020-03-07T12:58:46.000Z</Time>
            <Position>
              <LatitudeDegrees>40.550067387521266937255859375</LatitudeDegrees>
              <LongitudeDegrees>-3.70530218817293643951416015625</LongitudeDegrees>
            </Position>
            <AltitudeMeters>755</AltitudeMeters>
            <DistanceMeters>3950.8377523692</DistanceMeters>
          </Trackpoint>
          <Trackpoint>
            <Time>2020-03-07T12:58:47.000Z</Time>
            <Position>
              <LatitudeDegrees>40.5501227080821990966796875</LatitudeDegrees>
              <LongitudeDegrees>-3.70532649569213390350341796875</LongitudeDegrees>
            </Position>
            <AltitudeMeters>755.79998779296875</AltitudeMeters>
            <DistanceMeters>3957.3288490938</DistanceMeters>
          </Trackpoint>
          <Trackpoint>
            <Time>2020-03-07T12:58:48.000Z</Time>
            <Position>
              <LatitudeDegrees>40.55017760954797267913818359375</LatitudeDegrees>
              <LongitudeDegrees>-3.705352731049060821533203125</LongitudeDegrees>
            </Position>
            <AltitudeMeters>756.5999755859375</AltitudeMeters>
            <DistanceMeters>3963.8303710567</DistanceMeters>
          </Trackpoint>
          <Trackpoint>
            <Time>2020-03-07T12:58:49.000Z</Time>
            <Position>
              <LatitudeDegrees>40.55023376829922199249267578125</LatitudeDegrees>
              <LongitudeDegrees>-3.70537997223436832427978515625</LongitudeDegrees>
            </Position>
            <AltitudeMeters>756.79998779296875</AltitudeMeters>
            <DistanceMeters>3970.4924147163</DistanceMeters>
          </Trackpoint>
          <Trackpoint>
            <Time>2020-03-07T12:58:50.000Z</Time>
            <Position>
              <LatitudeDegrees>40.5502916872501373291015625</LatitudeDegrees>
              <LongitudeDegrees>-3.7054052017629146575927734375</LongitudeDegrees>
            </Position>
            <AltitudeMeters>757</AltitudeMeters>
            <DistanceMeters>3977.2826702581</DistanceMeters>
          </Trackpoint>
          <Trackpoint>
            <Time>2020-03-07T12:58:51.000Z</Time>
            <Position>
              <LatitudeDegrees>40.55034943856298923492431640625</LatitudeDegrees>
              <LongitudeDegrees>-3.705429174005985260009765625</LongitudeDegrees>
            </Position>
            <AltitudeMeters>757.20001220703125</AltitudeMeters>
            <DistanceMeters>3984.0235414678</DistanceMeters>
          </Trackpoint>
          <Trackpoint>
            <Time>2020-03-07T12:58:52.000Z</Time>
            <Position>
              <LatitudeDegrees>40.55040643550455570220947265625</LatitudeDegrees>
              <LongitudeDegrees>-3.7054514698684215545654296875</LongitudeDegrees>
            </Position>
            <AltitudeMeters>757.20001220703125</AltitudeMeters>
            <DistanceMeters>3990.64138634</DistanceMeters>
          </Trackpoint>
          <Trackpoint>
            <Time>2020-03-07T12:58:53.000Z</Time>
            <Position>
              <LatitudeDegrees>40.55046393536031246185302734375</LatitudeDegrees>
              <LongitudeDegrees>-3.7054730951786041259765625</LongitudeDegrees>
            </Position>
            <AltitudeMeters>757.4000244140625</AltitudeMeters>
            <DistanceMeters>3997.2973276735</DistanceMeters>
          </Trackpoint>
          <Trackpoint>
            <Time>2020-03-07T12:58:54.000Z</Time>
            <Position>
              <LatitudeDegrees>40.5505211837589740753173828125</LatitudeDegrees>
              <LongitudeDegrees>-3.705495893955230712890625</LongitudeDegrees>
            </Position>
            <AltitudeMeters>757.4000244140625</AltitudeMeters>
            <DistanceMeters>4003.9546255628</DistanceMeters>
          </Trackpoint>
          <Trackpoint>
            <Time>2020-03-07T12:58:55.000Z</Time>
            <Position>
              <LatitudeDegrees>40.550578348338603973388671875</LatitudeDegrees>
              <LongitudeDegrees>-3.7055191956460475921630859375</LongitudeDegrees>
            </Position>
            <AltitudeMeters>757.4000244140625</AltitudeMeters>
            <DistanceMeters>4010.6159914622</DistanceMeters>
          </Trackpoint>
          <Trackpoint>
            <Time>2020-03-07T12:58:56.000Z</Time>
            <Position>
              <LatitudeDegrees>40.55063643492758274078369140625</LatitudeDegrees>
              <LongitudeDegrees>-3.7055446766316890716552734375</LongitudeDegrees>
            </Position>
            <AltitudeMeters>757.4000244140625</AltitudeMeters>
            <DistanceMeters>4017.4308049703</DistanceMeters>
          </Trackpoint>
          <Trackpoint>
            <Time>2020-03-07T12:58:57.000Z</Time>
            <Position>
              <LatitudeDegrees>40.55069326423108577728271484375</LatitudeDegrees>
              <LongitudeDegrees>-3.705572672188282012939453125</LongitudeDegrees>
            </Position>
            <AltitudeMeters>757.5999755859375</AltitudeMeters>
            <DistanceMeters>4024.1850589036</DistanceMeters>
          </Trackpoint>
          <Trackpoint>
            <Time>2020-03-07T12:58:58.000Z</Time>
            <Position>
              <LatitudeDegrees>40.55075076408684253692626953125</LatitudeDegrees>
              <LongitudeDegrees>-3.70559924282133579254150390625</LongitudeDegrees>
            </Position>
            <AltitudeMeters>757.5999755859375</AltitudeMeters>
            <DistanceMeters>4030.9673306031</DistanceMeters>
          </Trackpoint>
          <Trackpoint>
            <Time>2020-03-07T12:58:59.000Z</Time>
            <Position>
              <LatitudeDegrees>40.55080809630453586578369140625</LatitudeDegrees>
              <LongitudeDegrees>-3.7056261487305164337158203125</LongitudeDegrees>
            </Position>
            <AltitudeMeters>757.79998779296875</AltitudeMeters>
            <DistanceMeters>4037.7416090509</DistanceMeters>
          </Trackpoint>
          <Trackpoint>
            <Time>2020-03-07T12:59:00.000Z</Time>
            <Position>
              <LatitudeDegrees>40.55086526088416576385498046875</LatitudeDegrees>
              <LongitudeDegrees>-3.70565288700163364410400390625</LongitudeDegrees>
            </Position>
            <AltitudeMeters>757.79998779296875</AltitudeMeters>
            <DistanceMeters>4044.4945259052</DistanceMeters>
          </Trackpoint>
          <Trackpoint>
            <Time>2020-03-07T12:59:01.000Z</Time>
            <Position>
              <LatitudeDegrees>40.55092276073992252349853515625</LatitudeDegrees>
              <LongitudeDegrees>-3.70567853562533855438232421875</LongitudeDegrees>
            </Position>
            <AltitudeMeters>757.79998779296875</AltitudeMeters>
            <DistanceMeters>4051.2514532025</DistanceMeters>
          </Trackpoint>
          <Trackpoint>
            <Time>2020-03-07T12:59:02.000Z</Time>
            <Position>
              <LatitudeDegrees>40.55098076350986957550048828125</LatitudeDegrees>
              <LongitudeDegrees>-3.7057029269635677337646484375</LongitudeDegrees>
            </Position>
            <AltitudeMeters>757.79998779296875</AltitudeMeters>
            <DistanceMeters>4058.0283971151</DistanceMeters>
          </Trackpoint>
          <Trackpoint>
            <Time>2020-03-07T12:59:03.000Z</Time>
            <Position>
              <LatitudeDegrees>40.55103843100368976593017578125</LatitudeDegrees>
              <LongitudeDegrees>-3.70572715066373348236083984375</LongitudeDegrees>
            </Position>
            <AltitudeMeters>758</AltitudeMeters>
            <DistanceMeters>4064.7659184904</DistanceMeters>
          </Trackpoint>
          <Trackpoint>
            <Time>2020-03-07T12:59:04.000Z</Time>
            <Position>
              <LatitudeDegrees>40.55109609849750995635986328125</LatitudeDegrees>
              <LongitudeDegrees>-3.70575095526874065399169921875</LongitudeDegrees>
            </Position>
            <AltitudeMeters>758.20001220703125</AltitudeMeters>
            <DistanceMeters>4071.4933803549</DistanceMeters>
          </Trackpoint>
          <Trackpoint>
            <Time>2020-03-07T12:59:05.000Z</Time>
            <Position>
              <LatitudeDegrees>40.55115309543907642364501953125</LatitudeDegrees>
              <LongitudeDegrees>-3.70577727444469928741455078125</LongitudeDegrees>
            </Position>
            <AltitudeMeters>758.4000244140625</AltitudeMeters>
            <DistanceMeters>4078.2154709914</DistanceMeters>
          </Trackpoint>
          <Trackpoint>
            <Time>2020-03-07T12:59:06.000Z</Time>
            <Position>
              <LatitudeDegrees>40.5512091703712940216064453125</LatitudeDegrees>
              <LongitudeDegrees>-3.705805353820323944091796875</LongitudeDegrees>
            </Position>
            <AltitudeMeters>758.79998779296875</AltitudeMeters>
            <DistanceMeters>4084.8930841488</DistanceMeters>
          </Trackpoint>
          <Trackpoint>
            <Time>2020-03-07T12:59:07.000Z</Time>
            <Position>
              <LatitudeDegrees>40.55126507766544818878173828125</LatitudeDegrees>
              <LongitudeDegrees>-3.7058326788246631622314453125</LongitudeDegrees>
            </Position>
            <AltitudeMeters>759</AltitudeMeters>
            <DistanceMeters>4091.5313650292</DistanceMeters>
          </Trackpoint>
          <Trackpoint>
            <Time>2020-03-07T12:59:08.000Z</Time>
            <Position>
              <LatitudeDegrees>40.55132090114057064056396484375</LatitudeDegrees>
              <LongitudeDegrees>-3.7058611772954463958740234375</LongitudeDegrees>
            </Position>
            <AltitudeMeters>759.20001220703125</AltitudeMeters>
            <DistanceMeters>4098.1954415557</DistanceMeters>
          </Trackpoint>
          <Trackpoint>
            <Time>2020-03-07T12:59:09.000Z</Time>
            <Position>
              <LatitudeDegrees>40.55137731134891510009765625</LatitudeDegrees>
              <LongitudeDegrees>-3.7058896757662296295166015625</LongitudeDegrees>
            </Position>
            <AltitudeMeters>759.20001220703125</AltitudeMeters>
            <DistanceMeters>4104.9208897123</DistanceMeters>
          </Trackpoint>
          <Trackpoint>
            <Time>2020-03-07T12:59:10.000Z</Time>
            <Position>
              <LatitudeDegrees>40.5514341406524181365966796875</LatitudeDegrees>
              <LongitudeDegrees>-3.7059183418750762939453125</LongitudeDegrees>
            </Position>
            <AltitudeMeters>759.4000244140625</AltitudeMeters>
            <DistanceMeters>4111.6951681601</DistanceMeters>
          </Trackpoint>
          <Trackpoint>
            <Time>2020-03-07T12:59:11.000Z</Time>
            <Position>
              <LatitudeDegrees>40.55149071849882602691650390625</LatitudeDegrees>
              <LongitudeDegrees>-3.7059480138123035430908203125</LongitudeDegrees>
            </Position>
            <AltitudeMeters>759.79998779296875</AltitudeMeters>
            <DistanceMeters>4118.4741104835</DistanceMeters>
          </Trackpoint>
          <Trackpoint>
            <Time>2020-03-07T12:59:12.000Z</Time>
            <Position>
              <LatitudeDegrees>40.55154637433588504791259765625</LatitudeDegrees>
              <LongitudeDegrees>-3.705979026854038238525390625</LongitudeDegrees>
            </Position>
            <AltitudeMeters>760</AltitudeMeters>
            <DistanceMeters>4125.200229943</DistanceMeters>
          </Trackpoint>
          <Trackpoint>
            <Time>2020-03-07T12:59:13.000Z</Time>
            <Position>
              <LatitudeDegrees>40.551601611077785491943359375</LatitudeDegrees>
              <LongitudeDegrees>-3.70601029135286808013916015625</LongitudeDegrees>
            </Position>
            <AltitudeMeters>760.5999755859375</AltitudeMeters>
            <DistanceMeters>4131.8927017705</DistanceMeters>
          </Trackpoint>
          <Trackpoint>
            <Time>2020-03-07T12:59:14.000Z</Time>
            <Position>
              <LatitudeDegrees>40.5516570992767810821533203125</LatitudeDegrees>
              <LongitudeDegrees>-3.706040717661380767822265625</LongitudeDegrees>
            </Position>
            <AltitudeMeters>760.79998779296875</AltitudeMeters>
            <DistanceMeters>4138.5838241733</DistanceMeters>
          </Trackpoint>
          <Trackpoint>
            <Time>2020-03-07T12:59:15.000Z</Time>
            <Position>
              <LatitudeDegrees>40.55171191692352294921875</LatitudeDegrees>
              <LongitudeDegrees>-3.706072233617305755615234375</LongitudeDegrees>
            </Position>
            <AltitudeMeters>761</AltitudeMeters>
            <DistanceMeters>4145.2418002369</DistanceMeters>
          </Trackpoint>
          <Trackpoint>
            <Time>2020-03-07T12:59:16.000Z</Time>
            <Position>
              <LatitudeDegrees>40.55176614783704280853271484375</LatitudeDegrees>
              <LongitudeDegrees>-3.70610500685870647430419921875</LongitudeDegrees>
            </Position>
            <AltitudeMeters>761.4000244140625</AltitudeMeters>
            <DistanceMeters>4151.8828011669</DistanceMeters>
          </Trackpoint>
          <Trackpoint>
            <Time>2020-03-07T12:59:17.000Z</Time>
            <Position>
              <LatitudeDegrees>40.55181945674121379852294921875</LatitudeDegrees>
              <LongitudeDegrees>-3.706139288842678070068359375</LongitudeDegrees>
            </Position>
            <AltitudeMeters>761.79998779296875</AltitudeMeters>
            <DistanceMeters>4158.4863032036</DistanceMeters>
          </Trackpoint>
          <Trackpoint>
            <Time>2020-03-07T12:59:18.000Z</Time>
            <Position>
              <LatitudeDegrees>40.55187175981700420379638671875</LatitudeDegrees>
              <LongitudeDegrees>-3.706176169216632843017578125</LongitudeDegrees>
            </Position>
            <AltitudeMeters>762</AltitudeMeters>
            <DistanceMeters>4165.0904889387</DistanceMeters>
          </Trackpoint>
          <Trackpoint>
            <Time>2020-03-07T12:59:19.000Z</Time>
            <Position>
              <LatitudeDegrees>40.5519239790737628936767578125</LatitudeDegrees>
              <LongitudeDegrees>-3.70621480979025363922119140625</LongitudeDegrees>
            </Position>
            <AltitudeMeters>762.20001220703125</AltitudeMeters>
            <DistanceMeters>4171.7586293399</DistanceMeters>
          </Trackpoint>
          <Trackpoint>
            <Time>2020-03-07T12:59:20.000Z</Time>
            <Position>
              <LatitudeDegrees>40.55197619833052158355712890625</LatitudeDegrees>
              <LongitudeDegrees>-3.70625454001128673553466796875</LongitudeDegrees>
            </Position>
            <AltitudeMeters>762.20001220703125</AltitudeMeters>
            <DistanceMeters>4178.4713099859</DistanceMeters>
          </Trackpoint>
          <Trackpoint>
            <Time>2020-03-07T12:59:21.000Z</Time>
            <Position>
              <LatitudeDegrees>40.55202816613018512725830078125</LatitudeDegrees>
              <LongitudeDegrees>-3.70629628188908100128173828125</LongitudeDegrees>
            </Position>
            <AltitudeMeters>762.4000244140625</AltitudeMeters>
            <DistanceMeters>4185.2469212972</DistanceMeters>
          </Trackpoint>
          <Trackpoint>
            <Time>2020-03-07T12:59:22.000Z</Time>
            <Position>
              <LatitudeDegrees>40.55207979865372180938720703125</LatitudeDegrees>
              <LongitudeDegrees>-3.70634011924266815185546875</LongitudeDegrees>
            </Position>
            <AltitudeMeters>762.5999755859375</AltitudeMeters>
            <DistanceMeters>4192.0862045914</DistanceMeters>
          </Trackpoint>
          <Trackpoint>
            <Time>2020-03-07T12:59:23.000Z</Time>
            <Position>
              <LatitudeDegrees>40.55213034152984619140625</LatitudeDegrees>
              <LongitudeDegrees>-3.70638697408139705657958984375</LongitudeDegrees>
            </Position>
            <AltitudeMeters>762.5999755859375</AltitudeMeters>
            <DistanceMeters>4198.9676085813</DistanceMeters>
          </Trackpoint>
          <Trackpoint>
            <Time>2020-03-07T12:59:24.000Z</Time>
            <Position>
              <LatitudeDegrees>40.55218021385371685028076171875</LatitudeDegrees>
              <LongitudeDegrees>-3.70643558911979198455810546875</LongitudeDegrees>
            </Position>
            <AltitudeMeters>762.5999755859375</AltitudeMeters>
            <DistanceMeters>4205.8758611829</DistanceMeters>
          </Trackpoint>
          <Trackpoint>
            <Time>2020-03-07T12:59:25.000Z</Time>
            <Position>
              <LatitudeDegrees>40.55223050527274608612060546875</LatitudeDegrees>
              <LongitudeDegrees>-3.7064851261675357818603515625</LongitudeDegrees>
            </Position>
            <AltitudeMeters>762.5999755859375</AltitudeMeters>
            <DistanceMeters>4212.8672704679</DistanceMeters>
          </Trackpoint>
          <Trackpoint>
            <Time>2020-03-07T12:59:26.000Z</Time>
            <Position>
              <LatitudeDegrees>40.5522823892533779144287109375</LatitudeDegrees>
              <LongitudeDegrees>-3.7065360881388187408447265625</LongitudeDegrees>
            </Position>
            <AltitudeMeters>762.5999755859375</AltitudeMeters>
            <DistanceMeters>4220.0730278572</DistanceMeters>
          </Trackpoint>
          <Trackpoint>
            <Time>2020-03-07T12:59:27.000Z</Time>
            <Position>
              <LatitudeDegrees>40.5523346923291683197021484375</LatitudeDegrees>
              <LongitudeDegrees>-3.70658881030976772308349609375</LongitudeDegrees>
            </Position>
            <AltitudeMeters>762.5999755859375</AltitudeMeters>
            <DistanceMeters>4227.4048792653</DistanceMeters>
          </Trackpoint>
          <Trackpoint>
            <Time>2020-03-07T12:59:28.000Z</Time>
            <Position>
              <LatitudeDegrees>40.55238724686205387115478515625</LatitudeDegrees>
              <LongitudeDegrees>-3.706643544137477874755859375</LongitudeDegrees>
            </Position>
            <AltitudeMeters>762.5999755859375</AltitudeMeters>
            <DistanceMeters>4234.8643250254</DistanceMeters>
          </Trackpoint>
          <Trackpoint>
            <Time>2020-03-07T12:59:29.000Z</Time>
            <Position>
              <LatitudeDegrees>40.55244089104235172271728515625</LatitudeDegrees>
              <LongitudeDegrees>-3.70670087635517120361328125</LongitudeDegrees>
            </Position>
            <AltitudeMeters>762.5999755859375</AltitudeMeters>
            <DistanceMeters>4242.5550337514</DistanceMeters>
          </Trackpoint>
          <Trackpoint>
            <Time>2020-03-07T12:59:30.000Z</Time>
            <Position>
              <LatitudeDegrees>40.55249604396522045135498046875</LatitudeDegrees>
              <LongitudeDegrees>-3.7067600525915622711181640625</LongitudeDegrees>
            </Position>
            <AltitudeMeters>762.5999755859375</AltitudeMeters>
            <DistanceMeters>4250.4748134819</DistanceMeters>
          </Trackpoint>
          <Trackpoint>
            <Time>2020-03-07T12:59:31.000Z</Time>
            <Position>
              <LatitudeDegrees>40.55255169980227947235107421875</LatitudeDegrees>
              <LongitudeDegrees>-3.70682149194180965423583984375</LongitudeDegrees>
            </Position>
            <AltitudeMeters>762.5999755859375</AltitudeMeters>
            <DistanceMeters>4258.560464566</DistanceMeters>
          </Trackpoint>
          <Trackpoint>
            <Time>2020-03-07T12:59:32.000Z</Time>
            <Position>
              <LatitudeDegrees>40.55260802619159221649169921875</LatitudeDegrees>
              <LongitudeDegrees>-3.7068854458630084991455078125</LongitudeDegrees>
            </Position>
            <AltitudeMeters>762.5999755859375</AltitudeMeters>
            <DistanceMeters>4266.8403401908</DistanceMeters>
          </Trackpoint>
          <Trackpoint>
            <Time>2020-03-07T12:59:33.000Z</Time>
            <Position>
              <LatitudeDegrees>40.5526652745902538299560546875</LatitudeDegrees>
              <LongitudeDegrees>-3.70695157907903194427490234375</LongitudeDegrees>
            </Position>
            <AltitudeMeters>762.5999755859375</AltitudeMeters>
            <DistanceMeters>4275.3185126645</DistanceMeters>
          </Trackpoint>
          <Trackpoint>
            <Time>2020-03-07T12:59:34.000Z</Time>
            <Position>
              <LatitudeDegrees>40.552722774446010589599609375</LatitudeDegrees>
              <LongitudeDegrees>-3.7070212326943874359130859375</LongitudeDegrees>
            </Position>
            <AltitudeMeters>762.4000244140625</AltitudeMeters>
            <DistanceMeters>4284.0164423289</DistanceMeters>
          </Trackpoint>
          <Trackpoint>
            <Time>2020-03-07T12:59:35.000Z</Time>
            <Position>
              <LatitudeDegrees>40.55278052575886249542236328125</LatitudeDegrees>
              <LongitudeDegrees>-3.7070933170616626739501953125</LongitudeDegrees>
            </Position>
            <AltitudeMeters>762.4000244140625</AltitudeMeters>
            <DistanceMeters>4292.8748487487</DistanceMeters>
          </Trackpoint>
          <Trackpoint>
            <Time>2020-03-07T12:59:36.000Z</Time>
            <Position>
              <LatitudeDegrees>40.5528397858142852783203125</LatitudeDegrees>
              <LongitudeDegrees>-3.70716758072376251220703125</LongitudeDegrees>
            </Position>
            <AltitudeMeters>762.20001220703125</AltitudeMeters>
            <DistanceMeters>4301.9825533011</DistanceMeters>
          </Trackpoint>
          <Trackpoint>
            <Time>2020-03-07T12:59:37.000Z</Time>
            <Position>
              <LatitudeDegrees>40.55289946496486663818359375</LatitudeDegrees>
              <LongitudeDegrees>-3.7072448618710041046142578125</LongitudeDegrees>
            </Position>
            <AltitudeMeters>762</AltitudeMeters>
            <DistanceMeters>4311.3009874553</DistanceMeters>
          </Trackpoint>
          <Trackpoint>
            <Time>2020-03-07T12:59:38.000Z</Time>
            <Position>
              <LatitudeDegrees>40.55295981466770172119140625</LatitudeDegrees>
              <LongitudeDegrees>-3.7073238193988800048828125</LongitudeDegrees>
            </Position>
            <AltitudeMeters>761.79998779296875</AltitudeMeters>
            <DistanceMeters>4320.7727248604</DistanceMeters>
          </Trackpoint>
          <Trackpoint>
            <Time>2020-03-07T12:59:39.000Z</Time>
            <Position>
              <LatitudeDegrees>40.55302225984632968902587890625</LatitudeDegrees>
              <LongitudeDegrees>-3.70740361511707305908203125</LongitudeDegrees>
            </Position>
            <AltitudeMeters>761.5999755859375</AltitudeMeters>
            <DistanceMeters>4330.460790434</DistanceMeters>
          </Trackpoint>
          <Trackpoint>
            <Time>2020-03-07T12:59:40.000Z</Time>
            <Position>
              <LatitudeDegrees>40.55308713577687740325927734375</LatitudeDegrees>
              <LongitudeDegrees>-3.70748366229236125946044921875</LongitudeDegrees>
            </Position>
            <AltitudeMeters>761.4000244140625</AltitudeMeters>
            <DistanceMeters>4340.3581774257</DistanceMeters>
          </Trackpoint>
          <Trackpoint>
            <Time>2020-03-07T12:59:41.000Z</Time>
            <Position>
              <LatitudeDegrees>40.55315469391644001007080078125</LatitudeDegrees>
              <LongitudeDegrees>-3.7075637094676494598388671875</LongitudeDegrees>
            </Position>
            <AltitudeMeters>761.20001220703125</AltitudeMeters>
            <DistanceMeters>4350.4748412244</DistanceMeters>
          </Trackpoint>
          <Trackpoint>
            <Time>2020-03-07T12:59:42.000Z</Time>
            <Position>
              <LatitudeDegrees>40.55322325788438320159912109375</LatitudeDegrees>
              <LongitudeDegrees>-3.7076458521187305450439453125</LongitudeDegrees>
            </Position>
            <AltitudeMeters>760.5999755859375</AltitudeMeters>
            <DistanceMeters>4360.7943223888</DistanceMeters>
          </Trackpoint>
          <Trackpoint>
            <Time>2020-03-07T12:59:43.000Z</Time>
            <Position>
              <LatitudeDegrees>40.5532932467758655548095703125</LatitudeDegrees>
              <LongitudeDegrees>-3.7077290005981922149658203125</LongitudeDegrees>
            </Position>
            <AltitudeMeters>760.4000244140625</AltitudeMeters>
            <DistanceMeters>4371.2886452498</DistanceMeters>
          </Trackpoint>
          <Trackpoint>
            <Time>2020-03-07T12:59:44.000Z</Time>
            <Position>
              <LatitudeDegrees>40.5533654987812042236328125</LatitudeDegrees>
              <LongitudeDegrees>-3.7078124843537807464599609375</LongitudeDegrees>
            </Position>
            <AltitudeMeters>760</AltitudeMeters>
            <DistanceMeters>4381.9895984497</DistanceMeters>
          </Trackpoint>
          <Trackpoint>
            <Time>2020-03-07T12:59:45.000Z</Time>
            <Position>
              <LatitudeDegrees>40.55343925952911376953125</LatitudeDegrees>
              <LongitudeDegrees>-3.70789789594709873199462890625</LongitudeDegrees>
            </Position>
            <AltitudeMeters>759.4000244140625</AltitudeMeters>
            <DistanceMeters>4392.9242791581</DistanceMeters>
          </Trackpoint>
          <Trackpoint>
            <Time>2020-03-07T12:59:46.000Z</Time>
            <Position>
              <LatitudeDegrees>40.55351478047668933868408203125</LatitudeDegrees>
              <LongitudeDegrees>-3.70798339135944843292236328125</LongitudeDegrees>
            </Position>
            <AltitudeMeters>758.79998779296875</AltitudeMeters>
            <DistanceMeters>4404.0114984051</DistanceMeters>
          </Trackpoint>
          <Trackpoint>
            <Time>2020-03-07T12:59:47.000Z</Time>
            <Position>
              <LatitudeDegrees>40.55359340272843837738037109375</LatitudeDegrees>
              <LongitudeDegrees>-3.7080659531056880950927734375</LongitudeDegrees>
            </Position>
            <AltitudeMeters>758.5999755859375</AltitudeMeters>
            <DistanceMeters>4415.2061132216</DistanceMeters>
          </Trackpoint>
          <Trackpoint>
            <Time>2020-03-07T12:59:48.000Z</Time>
            <Position>
              <LatitudeDegrees>40.5536751262843608856201171875</LatitudeDegrees>
              <LongitudeDegrees>-3.70814658701419830322265625</LongitudeDegrees>
            </Position>
            <AltitudeMeters>758.20001220703125</AltitudeMeters>
            <DistanceMeters>4426.5740252546</DistanceMeters>
          </Trackpoint>
          <Trackpoint>
            <Time>2020-03-07T12:59:49.000Z</Time>
            <Position>
              <LatitudeDegrees>40.55375869385898113250732421875</LatitudeDegrees>
              <LongitudeDegrees>-3.7082262150943279266357421875</LongitudeDegrees>
            </Position>
            <AltitudeMeters>757.5999755859375</AltitudeMeters>
            <DistanceMeters>4438.0573264485</DistanceMeters>
          </Trackpoint>
          <Trackpoint>
            <Time>2020-03-07T12:59:50.000Z</Time>
            <Position>
              <LatitudeDegrees>40.5538429319858551025390625</LatitudeDegrees>
              <LongitudeDegrees>-3.7083056755363941192626953125</LongitudeDegrees>
            </Position>
            <AltitudeMeters>756.79998779296875</AltitudeMeters>
            <DistanceMeters>4449.5924110343</DistanceMeters>
          </Trackpoint>
          <Trackpoint>
            <Time>2020-03-07T12:59:51.000Z</Time>
            <Position>
              <LatitudeDegrees>40.55392834357917308807373046875</LatitudeDegrees>
              <LongitudeDegrees>-3.70838404633104801177978515625</LongitudeDegrees>
            </Position>
            <AltitudeMeters>756.20001220703125</AltitudeMeters>
            <DistanceMeters>4461.1809958001</DistanceMeters>
          </Trackpoint>
          <Trackpoint>
            <Time>2020-03-07T12:59:52.000Z</Time>
            <Position>
              <LatitudeDegrees>40.554014928638935089111328125</LatitudeDegrees>
              <LongitudeDegrees>-3.708460740745067596435546875</LongitudeDegrees>
            </Position>
            <AltitudeMeters>755.5999755859375</AltitudeMeters>
            <DistanceMeters>4472.7968213079</DistanceMeters>
          </Trackpoint>
          <Trackpoint>
            <Time>2020-03-07T12:59:53.000Z</Time>
            <Position>
              <LatitudeDegrees>40.5541039444506168365478515625</LatitudeDegrees>
              <LongitudeDegrees>-3.708536513149738311767578125</LongitudeDegrees>
            </Position>
            <AltitudeMeters>755</AltitudeMeters>
            <DistanceMeters>4484.5958334926</DistanceMeters>
          </Trackpoint>
          <Trackpoint>
            <Time>2020-03-07T12:59:54.000Z</Time>
            <Position>
              <LatitudeDegrees>40.5541941337287425994873046875</LatitudeDegrees>
              <LongitudeDegrees>-3.7086111120879650115966796875</LongitudeDegrees>
            </Position>
            <AltitudeMeters>753.79998779296875</AltitudeMeters>
            <DistanceMeters>4496.4517252738</DistanceMeters>
          </Trackpoint>
          <Trackpoint>
            <Time>2020-03-07T12:59:55.000Z</Time>
            <Position>
              <LatitudeDegrees>40.5542859993875026702880859375</LatitudeDegrees>
              <LongitudeDegrees>-3.7086835317313671112060546875</LongitudeDegrees>
            </Position>
            <AltitudeMeters>753.20001220703125</AltitudeMeters>
            <DistanceMeters>4508.3706666117</DistanceMeters>
          </Trackpoint>
          <Trackpoint>
            <Time>2020-03-07T12:59:56.000Z</Time>
            <Position>
              <LatitudeDegrees>40.55437928996980190277099609375</LatitudeDegrees>
              <LongitudeDegrees>-3.708754442632198333740234375</LongitudeDegrees>
            </Position>
            <AltitudeMeters>752.79998779296875</AltitudeMeters>
            <DistanceMeters>4520.3613662218</DistanceMeters>
          </Trackpoint>
          <Trackpoint>
            <Time>2020-03-07T12:59:57.000Z</Time>
            <Position>
              <LatitudeDegrees>40.5544737540185451507568359375</LatitudeDegrees>
              <LongitudeDegrees>-3.708826191723346710205078125</LongitudeDegrees>
            </Position>
            <AltitudeMeters>752.4000244140625</AltitudeMeters>
            <DistanceMeters>4532.5010057373</DistanceMeters>
          </Trackpoint>
          <Trackpoint>
            <Time>2020-03-07T12:59:58.000Z</Time>
            <Position>
              <LatitudeDegrees>40.55456855334341526031494140625</LatitudeDegrees>
              <LongitudeDegrees>-3.70889785699546337127685546875</LongitudeDegrees>
            </Position>
            <AltitudeMeters>751.79998779296875</AltitudeMeters>
            <DistanceMeters>4544.6688787386</DistanceMeters>
          </Trackpoint>
          <Trackpoint>
            <Time>2020-03-07T12:59:59.000Z</Time>
            <Position>
              <LatitudeDegrees>40.55466209538280963897705078125</LatitudeDegrees>
              <LongitudeDegrees>-3.70896809734404087066650390625</LongitudeDegrees>
            </Position>
            <AltitudeMeters>751.4000244140625</AltitudeMeters>
            <DistanceMeters>4556.6550589568</DistanceMeters>
          </Trackpoint>
          <Trackpoint>
            <Time>2020-03-07T13:00:00.000Z</Time>
            <Position>
              <LatitudeDegrees>40.5547520332038402557373046875</LatitudeDegrees>
              <LongitudeDegrees>-3.709035404026508331298828125</LongitudeDegrees>
            </Position>
            <AltitudeMeters>751.20001220703125</AltitudeMeters>
            <DistanceMeters>4568.1709480955</DistanceMeters>
          </Trackpoint>
          <Trackpoint>
            <Time>2020-03-07T13:00:01.000Z</Time>
            <Position>
              <LatitudeDegrees>40.55483576841652393341064453125</LatitudeDegrees>
              <LongitudeDegrees>-3.70909902267158031463623046875</LongitudeDegrees>
            </Position>
            <AltitudeMeters>750.79998779296875</AltitudeMeters>
            <DistanceMeters>4578.9320679405</DistanceMeters>
          </Trackpoint>
          <Trackpoint>
            <Time>2020-03-07T13:00:02.000Z</Time>
            <Position>
              <LatitudeDegrees>40.554912798106670379638671875</LatitudeDegrees>
              <LongitudeDegrees>-3.70915920473635196685791015625</LongitudeDegrees>
            </Position>
            <AltitudeMeters>750.79998779296875</AltitudeMeters>
            <DistanceMeters>4588.9021773428</DistanceMeters>
          </Trackpoint>
          <Trackpoint>
            <Time>2020-03-07T13:00:03.000Z</Time>
            <Position>
              <LatitudeDegrees>40.554983876645565032958984375</LatitudeDegrees>
              <LongitudeDegrees>-3.7092149443924427032470703125</LongitudeDegrees>
            </Position>
            <AltitudeMeters>750.5999755859375</AltitudeMeters>
            <DistanceMeters>4598.1104571935</DistanceMeters>
          </Trackpoint>
          <Trackpoint>
            <Time>2020-03-07T13:00:04.000Z</Time>
            <Position>
              <LatitudeDegrees>40.555050261318683624267578125</LatitudeDegrees>
              <LongitudeDegrees>-3.70926649309694766998291015625</LongitudeDegrees>
            </Position>
            <AltitudeMeters>750.5999755859375</AltitudeMeters>
            <DistanceMeters>4606.6892171866</DistanceMeters>
          </Trackpoint>
          <Trackpoint>
            <Time>2020-03-07T13:00:05.000Z</Time>
            <Position>
              <LatitudeDegrees>40.55511354468762874603271484375</LatitudeDegrees>
              <LongitudeDegrees>-3.70931561104953289031982421875</LongitudeDegrees>
            </Position>
            <AltitudeMeters>750.5999755859375</AltitudeMeters>
            <DistanceMeters>4614.8664854387</DistanceMeters>
          </Trackpoint>
          <Trackpoint>
            <Time>2020-03-07T13:00:06.000Z</Time>
            <Position>
              <LatitudeDegrees>40.55517037399113178253173828125</LatitudeDegrees>
              <LongitudeDegrees>-3.7093685008585453033447265625</LongitudeDegrees>
            </Position>
            <AltitudeMeters>750.5999755859375</AltitudeMeters>
            <DistanceMeters>4622.6133485488</DistanceMeters>
          </Trackpoint>
          <Trackpoint>
            <Time>2020-03-07T13:00:07.000Z</Time>
            <Position>
              <LatitudeDegrees>40.55521463043987751007080078125</LatitudeDegrees>
              <LongitudeDegrees>-3.70943563990294933319091796875</LongitudeDegrees>
            </Position>
            <AltitudeMeters>750.5999755859375</AltitudeMeters>
            <DistanceMeters>4630.1294750933</DistanceMeters>
          </Trackpoint>
          <Trackpoint>
            <Time>2020-03-07T13:00:08.000Z</Time>
            <Position>
              <LatitudeDegrees>40.55523307062685489654541015625</LatitudeDegrees>
              <LongitudeDegrees>-3.70951510034501552581787109375</LongitudeDegrees>
            </Position>
            <AltitudeMeters>750.5999755859375</AltitudeMeters>
            <DistanceMeters>4637.1550282988</DistanceMeters>
          </Trackpoint>
          <Trackpoint>
            <Time>2020-03-07T13:00:09.000Z</Time>
            <Position>
              <LatitudeDegrees>40.555223934352397918701171875</LatitudeDegrees>
              <LongitudeDegrees>-3.70959900319576263427734375</LongitudeDegrees>
            </Position>
            <AltitudeMeters>750.5999755859375</AltitudeMeters>
            <DistanceMeters>4644.3224619322</DistanceMeters>
          </Trackpoint>
          <Trackpoint>
            <Time>2020-03-07T13:00:10.000Z</Time>
            <Position>
              <LatitudeDegrees>40.55520373396575450897216796875</LatitudeDegrees>
              <LongitudeDegrees>-3.709683157503604888916015625</LongitudeDegrees>
            </Position>
            <AltitudeMeters>750.5999755859375</AltitudeMeters>
            <DistanceMeters>4651.7855384765</DistanceMeters>
          </Trackpoint>
          <Trackpoint>
            <Time>2020-03-07T13:00:11.000Z</Time>
            <Position>
              <LatitudeDegrees>40.5551813542842864990234375</LatitudeDegrees>
              <LongitudeDegrees>-3.7097673118114471435546875</LongitudeDegrees>
            </Position>
            <AltitudeMeters>750.5999755859375</AltitudeMeters>
            <DistanceMeters>4659.3256552721</DistanceMeters>
          </Trackpoint>
          <Trackpoint>
            <Time>2020-03-07T13:00:12.000Z</Time>
            <Position>
              <LatitudeDegrees>40.55516081862151622772216796875</LatitudeDegrees>
              <LongitudeDegrees>-3.70985104702413082122802734375</LongitudeDegrees>
            </Position>
            <AltitudeMeters>750.79998779296875</AltitudeMeters>
            <DistanceMeters>4666.7663137563</DistanceMeters>
          </Trackpoint>
          <Trackpoint>
            <Time>2020-03-07T13:00:13.000Z</Time>
            <Position>
              <LatitudeDegrees>40.55515143088996410369873046875</LatitudeDegrees>
              <LongitudeDegrees>-3.70993570424616336822509765625</LongitudeDegrees>
            </Position>
            <AltitudeMeters>751</AltitudeMeters>
            <DistanceMeters>4674.0020848432</DistanceMeters>
          </Trackpoint>
          <Trackpoint>
            <Time>2020-03-07T13:00:14.000Z</Time>
            <Position>
              <LatitudeDegrees>40.555164925754070281982421875</LatitudeDegrees>
              <LongitudeDegrees>-3.71001717634499073028564453125</LongitudeDegrees>
            </Position>
            <AltitudeMeters>751.4000244140625</AltitudeMeters>
            <DistanceMeters>4681.0539378604</DistanceMeters>
          </Trackpoint>
          <Trackpoint>
            <Time>2020-03-07T13:00:15.000Z</Time>
            <Position>
              <LatitudeDegrees>40.5552063323557376861572265625</LatitudeDegrees>
              <LongitudeDegrees>-3.71008180081844329833984375</LongitudeDegrees>
            </Position>
            <AltitudeMeters>751.5999755859375</AltitudeMeters>
            <DistanceMeters>4688.2024483764</DistanceMeters>
          </Trackpoint>
          <Trackpoint>
            <Time>2020-03-07T13:00:16.000Z</Time>
            <Position>
              <LatitudeDegrees>40.55526726879179477691650390625</LatitudeDegrees>
              <LongitudeDegrees>-3.71013083495199680328369140625</LongitudeDegrees>
            </Position>
            <AltitudeMeters>751.79998779296875</AltitudeMeters>
            <DistanceMeters>4696.1518178454</DistanceMeters>
          </Trackpoint>
          <Trackpoint>
            <Time>2020-03-07T13:00:17.000Z</Time>
            <Position>
              <LatitudeDegrees>40.55533491075038909912109375</LatitudeDegrees>
              <LongitudeDegrees>-3.71017911471426486968994140625</LongitudeDegrees>
            </Position>
            <AltitudeMeters>751.79998779296875</AltitudeMeters>
            <DistanceMeters>4704.7163558337</DistanceMeters>
          </Trackpoint>
          <Trackpoint>
            <Time>2020-03-07T13:00:18.000Z</Time>
            <Position>
              <LatitudeDegrees>40.55540506727993488311767578125</LatitudeDegrees>
              <LongitudeDegrees>-3.71023125015199184417724609375</LongitudeDegrees>
            </Position>
            <AltitudeMeters>751.79998779296875</AltitudeMeters>
            <DistanceMeters>4713.6841794722</DistanceMeters>
          </Trackpoint>
          <Trackpoint>
            <Time>2020-03-07T13:00:19.000Z</Time>
            <Position>
              <LatitudeDegrees>40.55547782219946384429931640625</LatitudeDegrees>
              <LongitudeDegrees>-3.71028422378003597259521484375</LongitudeDegrees>
            </Position>
            <AltitudeMeters>752</AltitudeMeters>
            <DistanceMeters>4722.9384349795</DistanceMeters>
          </Trackpoint>
          <Trackpoint>
            <Time>2020-03-07T13:00:20.000Z</Time>
            <Position>
              <LatitudeDegrees>40.5555533431470394134521484375</LatitudeDegrees>
              <LongitudeDegrees>-3.7103397957980632781982421875</LongitudeDegrees>
            </Position>
            <AltitudeMeters>752</AltitudeMeters>
            <DistanceMeters>4732.5685380464</DistanceMeters>
          </Trackpoint>
          <Trackpoint>
            <Time>2020-03-07T13:00:21.000Z</Time>
            <Position>
              <LatitudeDegrees>40.5556304566562175750732421875</LatitudeDegrees>
              <LongitudeDegrees>-3.71039821766316890716552734375</LongitudeDegrees>
            </Position>
            <AltitudeMeters>752</AltitudeMeters>
            <DistanceMeters>4742.4723095671</DistanceMeters>
          </Trackpoint>
          <Trackpoint>
            <Time>2020-03-07T13:00:22.000Z</Time>
            <Position>
              <LatitudeDegrees>40.55571067146956920623779296875</LatitudeDegrees>
              <LongitudeDegrees>-3.710456304252147674560546875</LongitudeDegrees>
            </Position>
            <AltitudeMeters>752</AltitudeMeters>
            <DistanceMeters>4752.6627893941</DistanceMeters>
          </Trackpoint>
          <Trackpoint>
            <Time>2020-03-07T13:00:23.000Z</Time>
            <Position>
              <LatitudeDegrees>40.5557944066822528839111328125</LatitudeDegrees>
              <LongitudeDegrees>-3.710512630641460418701171875</LongitudeDegrees>
            </Position>
            <AltitudeMeters>751.5999755859375</AltitudeMeters>
            <DistanceMeters>4763.1295409159</DistanceMeters>
          </Trackpoint>
          <Trackpoint>
            <Time>2020-03-07T13:00:24.000Z</Time>
            <Position>
              <LatitudeDegrees>40.55588132701814174652099609375</LatitudeDegrees>
              <LongitudeDegrees>-3.71056887321174144744873046875</LongitudeDegrees>
            </Position>
            <AltitudeMeters>750.5999755859375</AltitudeMeters>
            <DistanceMeters>4773.9099436836</DistanceMeters>
          </Trackpoint>
          <Trackpoint>
            <Time>2020-03-07T13:00:25.000Z</Time>
            <Position>
              <LatitudeDegrees>40.555970929563045501708984375</LatitudeDegrees>
              <LongitudeDegrees>-3.7106261216104030609130859375</LongitudeDegrees>
            </Position>
            <AltitudeMeters>750</AltitudeMeters>
            <DistanceMeters>4784.995941176</DistanceMeters>
          </Trackpoint>
          <Trackpoint>
            <Time>2020-03-07T13:00:26.000Z</Time>
            <Position>
              <LatitudeDegrees>40.556062124669551849365234375</LatitudeDegrees>
              <LongitudeDegrees>-3.71068487875163555145263671875</LongitudeDegrees>
            </Position>
            <AltitudeMeters>749.5999755859375</AltitudeMeters>
            <DistanceMeters>4796.2969310064</DistanceMeters>
          </Trackpoint>
          <Trackpoint>
            <Time>2020-03-07T13:00:27.000Z</Time>
            <Position>
              <LatitudeDegrees>40.55615323595702648162841796875</LatitudeDegrees>
              <LongitudeDegrees>-3.710745982825756072998046875</LongitudeDegrees>
            </Position>
            <AltitudeMeters>749</AltitudeMeters>
            <DistanceMeters>4807.6783389417</DistanceMeters>
          </Trackpoint>
          <Trackpoint>
            <Time>2020-03-07T13:00:28.000Z</Time>
            <Position>
              <LatitudeDegrees>40.5562413297593593597412109375</LatitudeDegrees>
              <LongitudeDegrees>-3.71080809272825717926025390625</LongitudeDegrees>
            </Position>
            <AltitudeMeters>748.20001220703125</AltitudeMeters>
            <DistanceMeters>4818.8013366203</DistanceMeters>
          </Trackpoint>
          <Trackpoint>
            <Time>2020-03-07T13:00:29.000Z</Time>
            <Position>
              <LatitudeDegrees>40.55632607080042362213134765625</LatitudeDegrees>
              <LongitudeDegrees>-3.71087095700204372406005859375</LongitudeDegrees>
            </Position>
            <AltitudeMeters>747.20001220703125</AltitudeMeters>
            <DistanceMeters>4829.6285455125</DistanceMeters>
          </Trackpoint>
          <Trackpoint>
            <Time>2020-03-07T13:00:30.000Z</Time>
            <Position>
              <LatitudeDegrees>40.55640720762312412261962890625</LatitudeDegrees>
              <LongitudeDegrees>-3.710935749113559722900390625</LongitudeDegrees>
            </Position>
            <AltitudeMeters>746.4000244140625</AltitudeMeters>
            <DistanceMeters>4840.1910544221</DistanceMeters>
          </Trackpoint>
          <Trackpoint>
            <Time>2020-03-07T13:00:31.000Z</Time>
            <Position>
              <LatitudeDegrees>40.55648499168455600738525390625</LatitudeDegrees>
              <LongitudeDegrees>-3.711000792682170867919921875</LongitudeDegrees>
            </Position>
            <AltitudeMeters>745.79998779296875</AltitudeMeters>
            <DistanceMeters>4850.4477785859</DistanceMeters>
          </Trackpoint>
          <Trackpoint>
            <Time>2020-03-07T13:00:32.000Z</Time>
            <Position>
              <LatitudeDegrees>40.55656109936535358428955078125</LatitudeDegrees>
              <LongitudeDegrees>-3.71106407605111598968505859375</LongitudeDegrees>
            </Position>
            <AltitudeMeters>744.79998779296875</AltitudeMeters>
            <DistanceMeters>4860.4671278575</DistanceMeters>
          </Trackpoint>
          <Trackpoint>
            <Time>2020-03-07T13:00:33.000Z</Time>
            <Position>
              <LatitudeDegrees>40.556636117398738861083984375</LatitudeDegrees>
              <LongitudeDegrees>-3.71112559922039508819580078125</LongitudeDegrees>
            </Position>
            <AltitudeMeters>744.20001220703125</AltitudeMeters>
            <DistanceMeters>4870.3050320717</DistanceMeters>
          </Trackpoint>
          <Trackpoint>
            <Time>2020-03-07T13:00:34.000Z</Time>
            <Position>
              <LatitudeDegrees>40.5567100457847118377685546875</LatitudeDegrees>
              <LongitudeDegrees>-3.7111856974661350250244140625</LongitudeDegrees>
            </Position>
            <AltitudeMeters>743.5999755859375</AltitudeMeters>
            <DistanceMeters>4879.9763056076</DistanceMeters>
          </Trackpoint>
          <Trackpoint>
            <Time>2020-03-07T13:00:35.000Z</Time>
            <Position>
              <LatitudeDegrees>40.5567831359803676605224609375</LatitudeDegrees>
              <LongitudeDegrees>-3.71124495752155780792236328125</LongitudeDegrees>
            </Position>
            <AltitudeMeters>743.4000244140625</AltitudeMeters>
            <DistanceMeters>4889.5306262413</DistanceMeters>
          </Trackpoint>
          <Trackpoint>
            <Time>2020-03-07T13:00:36.000Z</Time>
            <Position>
              <LatitudeDegrees>40.55685597471892833709716796875</LatitudeDegrees>
              <LongitudeDegrees>-3.7113023735582828521728515625</LongitudeDegrees>
            </Position>
            <AltitudeMeters>743.20001220703125</AltitudeMeters>
            <DistanceMeters>4898.9799328761</DistanceMeters>
          </Trackpoint>
          <Trackpoint>
            <Time>2020-03-07T13:00:37.000Z</Time>
            <Position>
              <LatitudeDegrees>40.556928813457489013671875</LatitudeDegrees>
              <LongitudeDegrees>-3.71135761030018329620361328125</LongitudeDegrees>
            </Position>
            <AltitudeMeters>743</AltitudeMeters>
            <DistanceMeters>4908.33608385</DistanceMeters>
          </Trackpoint>
          <Trackpoint>
            <Time>2020-03-07T13:00:38.000Z</Time>
            <Position>
              <LatitudeDegrees>40.5570020712912082672119140625</LatitudeDegrees>
              <LongitudeDegrees>-3.71141058392822742462158203125</LongitudeDegrees>
            </Position>
            <AltitudeMeters>743</AltitudeMeters>
            <DistanceMeters>4917.6394855244</DistanceMeters>
          </Trackpoint>
          <Trackpoint>
            <Time>2020-03-07T13:00:39.000Z</Time>
            <Position>
              <LatitudeDegrees>40.557074658572673797607421875</LatitudeDegrees>
              <LongitudeDegrees>-3.7114626355469226837158203125</LongitudeDegrees>
            </Position>
            <AltitudeMeters>743</AltitudeMeters>
            <DistanceMeters>4926.8404075794</DistanceMeters>
          </Trackpoint>
          <Trackpoint>
            <Time>2020-03-07T13:00:40.000Z</Time>
            <Position>
              <LatitudeDegrees>40.5571460723876953125</LatitudeDegrees>
              <LongitudeDegrees>-3.71151544153690338134765625</LongitudeDegrees>
            </Position>
            <AltitudeMeters>743</AltitudeMeters>
            <DistanceMeters>4935.9575262946</DistanceMeters>
          </Trackpoint>
          <Trackpoint>
            <Time>2020-03-07T13:00:41.000Z</Time>
            <Position>
              <LatitudeDegrees>40.55721648037433624267578125</LatitudeDegrees>
              <LongitudeDegrees>-3.7115695886313915252685546875</LongitudeDegrees>
            </Position>
            <AltitudeMeters>743</AltitudeMeters>
            <DistanceMeters>4945.0334481388</DistanceMeters>
          </Trackpoint>
          <Trackpoint>
            <Time>2020-03-07T13:00:42.000Z</Time>
            <Position>
              <LatitudeDegrees>40.55728630162775516510009765625</LatitudeDegrees>
              <LongitudeDegrees>-3.71162415482103824615478515625</LongitudeDegrees>
            </Position>
            <AltitudeMeters>743</AltitudeMeters>
            <DistanceMeters>4954.0714828539</DistanceMeters>
          </Trackpoint>
          <Trackpoint>
            <Time>2020-03-07T13:00:43.000Z</Time>
            <Position>
              <LatitudeDegrees>40.55735536850988864898681640625</LatitudeDegrees>
              <LongitudeDegrees>-3.71167947538197040557861328125</LongitudeDegrees>
            </Position>
            <AltitudeMeters>743</AltitudeMeters>
            <DistanceMeters>4963.0694640384</DistanceMeters>
          </Trackpoint>
          <Trackpoint>
            <Time>2020-03-07T13:00:44.000Z</Time>
            <Position>
              <LatitudeDegrees>40.55742376483976840972900390625</LatitudeDegrees>
              <LongitudeDegrees>-3.711735047399997711181640625</LongitudeDegrees>
            </Position>
            <AltitudeMeters>743</AltitudeMeters>
            <DistanceMeters>4972.0156122332</DistanceMeters>
          </Trackpoint>
          <Trackpoint>
            <Time>2020-03-07T13:00:45.000Z</Time>
            <Position>
              <LatitudeDegrees>40.55749132297933101654052734375</LatitudeDegrees>
              <LongitudeDegrees>-3.71178994886577129364013671875</LongitudeDegrees>
            </Position>
            <AltitudeMeters>743.20001220703125</AltitudeMeters>
            <DistanceMeters>4980.8525857585</DistanceMeters>
          </Trackpoint>
          <Trackpoint>
            <Time>2020-03-07T13:00:46.000Z</Time>
            <Position>
              <LatitudeDegrees>40.55755871348083019256591796875</LatitudeDegrees>
              <LongitudeDegrees>-3.7118431739509105682373046875</LongitudeDegrees>
            </Position>
            <AltitudeMeters>743.20001220703125</AltitudeMeters>
            <DistanceMeters>4989.6002064514</DistanceMeters>
          </Trackpoint>
          <Trackpoint>
            <Time>2020-03-07T13:00:47.000Z</Time>
            <Position>
              <LatitudeDegrees>40.5576253496110439300537109375</LatitudeDegrees>
              <LongitudeDegrees>-3.71189539320766925811767578125</LongitudeDegrees>
            </Position>
            <AltitudeMeters>743.20001220703125</AltitudeMeters>
            <DistanceMeters>4998.2319595027</DistanceMeters>
          </Trackpoint>
          <Trackpoint>
            <Time>2020-03-07T13:00:48.000Z</Time>
            <Position>
              <LatitudeDegrees>40.55769097991287708282470703125</LatitudeDegrees>
              <LongitudeDegrees>-3.7119479477405548095703125</LongitudeDegrees>
            </Position>
            <AltitudeMeters>743.4000244140625</AltitudeMeters>
            <DistanceMeters>5006.7822518305</DistanceMeters>
          </Trackpoint>
          <Trackpoint>
            <Time>2020-03-07T13:00:49.000Z</Time>
            <Position>
              <LatitudeDegrees>40.5577554367482662200927734375</LatitudeDegrees>
              <LongitudeDegrees>-3.7120004184544086456298828125</LongitudeDegrees>
            </Position>
            <AltitudeMeters>743.5999755859375</AltitudeMeters>
            <DistanceMeters>5015.2177128362</DistanceMeters>
          </Trackpoint>
          <Trackpoint>
            <Time>2020-03-07T13:00:50.000Z</Time>
            <Position>
              <LatitudeDegrees>40.5578184686601161956787109375</LatitudeDegrees>
              <LongitudeDegrees>-3.71205297298729419708251953125</LongitudeDegrees>
            </Position>
            <AltitudeMeters>744</AltitudeMeters>
            <DistanceMeters>5023.5226345022</DistanceMeters>
          </Trackpoint>
          <Trackpoint>
            <Time>2020-03-07T13:00:51.000Z</Time>
            <Position>
              <LatitudeDegrees>40.55787873454391956329345703125</LatitudeDegrees>
              <LongitudeDegrees>-3.71210728771984577178955078125</LongitudeDegrees>
            </Position>
            <AltitudeMeters>744.20001220703125</AltitudeMeters>
            <DistanceMeters>5031.6517242063</DistanceMeters>
          </Trackpoint>
          <Trackpoint>
            <Time>2020-03-07T13:00:52.000Z</Time>
            <Position>
              <LatitudeDegrees>40.55793673731386661529541015625</LatitudeDegrees>
              <LongitudeDegrees>-3.71216244064271450042724609375</LongitudeDegrees>
            </Position>
            <AltitudeMeters>744.4000244140625</AltitudeMeters>
            <DistanceMeters>5039.6158473182</DistanceMeters>
          </Trackpoint>
          <Trackpoint>
            <Time>2020-03-07T13:00:53.000Z</Time>
            <Position>
              <LatitudeDegrees>40.55799390189349651336669921875</LatitudeDegrees>
              <LongitudeDegrees>-3.71221675537526607513427734375</LongitudeDegrees>
            </Position>
            <AltitudeMeters>744.5999755859375</AltitudeMeters>
            <DistanceMeters>5047.4623153896</DistanceMeters>
          </Trackpoint>
          <Trackpoint>
            <Time>2020-03-07T13:00:54.000Z</Time>
            <Position>
              <LatitudeDegrees>40.55804989300668239593505859375</LatitudeDegrees>
              <LongitudeDegrees>-3.71227023191750049591064453125</LongitudeDegrees>
            </Position>
            <AltitudeMeters>744.5999755859375</AltitudeMeters>
            <DistanceMeters>5055.1624116183</DistanceMeters>
          </Trackpoint>
          <Trackpoint>
            <Time>2020-03-07T13:00:55.000Z</Time>
            <Position>
              <LatitudeDegrees>40.5581041239202022552490234375</LatitudeDegrees>
              <LongitudeDegrees>-3.712324798107147216796875</LongitudeDegrees>
            </Position>
            <AltitudeMeters>744.5999755859375</AltitudeMeters>
            <DistanceMeters>5062.7597959464</DistanceMeters>
          </Trackpoint>
          <Trackpoint>
            <Time>2020-03-07T13:00:56.000Z</Time>
            <Position>
              <LatitudeDegrees>40.55815651081502437591552734375</LatitudeDegrees>
              <LongitudeDegrees>-3.712382130324840545654296875</LongitudeDegrees>
            </Position>
            <AltitudeMeters>744.5999755859375</AltitudeMeters>
            <DistanceMeters>5070.3429039369</DistanceMeters>
          </Trackpoint>
          <Trackpoint>
            <Time>2020-03-07T13:00:57.000Z</Time>
            <Position>
              <LatitudeDegrees>40.558206550776958465576171875</LatitudeDegrees>
              <LongitudeDegrees>-3.7124416418373584747314453125</LongitudeDegrees>
            </Position>
            <AltitudeMeters>744.79998779296875</AltitudeMeters>
            <DistanceMeters>5077.8500143721</DistanceMeters>
          </Trackpoint>
          <Trackpoint>
            <Time>2020-03-07T13:00:58.000Z</Time>
            <Position>
              <LatitudeDegrees>40.55825457908213138580322265625</LatitudeDegrees>
              <LongitudeDegrees>-3.71250291354954242706298828125</LongitudeDegrees>
            </Position>
            <AltitudeMeters>744.79998779296875</AltitudeMeters>
            <DistanceMeters>5085.2949192884</DistanceMeters>
          </Trackpoint>
          <Trackpoint>
            <Time>2020-03-07T13:00:59.000Z</Time>
            <Position>
              <LatitudeDegrees>40.5583034455776214599609375</LatitudeDegrees>
              <LongitudeDegrees>-3.71256175450980663299560546875</LongitudeDegrees>
            </Position>
            <AltitudeMeters>745</AltitudeMeters>
            <DistanceMeters>5092.6666897705</DistanceMeters>
          </Trackpoint>
          <Trackpoint>
            <Time>2020-03-07T13:01:00.000Z</Time>
            <Position>
              <LatitudeDegrees>40.55835650302469730377197265625</LatitudeDegrees>
              <LongitudeDegrees>-3.71261372230947017669677734375</LongitudeDegrees>
            </Position>
            <AltitudeMeters>745.20001220703125</AltitudeMeters>
            <DistanceMeters>5100.0280407837</DistanceMeters>
          </Trackpoint>
          <Trackpoint>
            <Time>2020-03-07T13:01:01.000Z</Time>
            <Position>
              <LatitudeDegrees>40.55841274559497833251953125</LatitudeDegrees>
              <LongitudeDegrees>-3.71265848167240619659423828125</LongitudeDegrees>
            </Position>
            <AltitudeMeters>745.4000244140625</AltitudeMeters>
            <DistanceMeters>5107.3432463862</DistanceMeters>
          </Trackpoint>
          <Trackpoint>
            <Time>2020-03-07T13:01:02.000Z</Time>
            <Position>
              <LatitudeDegrees>40.55847116746008396148681640625</LatitudeDegrees>
              <LongitudeDegrees>-3.71270072646439075469970703125</LongitudeDegrees>
            </Position>
            <AltitudeMeters>745.79998779296875</AltitudeMeters>
            <DistanceMeters>5114.7626362535</DistanceMeters>
          </Trackpoint>
          <Trackpoint>
            <Time>2020-03-07T13:01:03.000Z</Time>
            <Position>
              <LatitudeDegrees>40.558532439172267913818359375</LatitudeDegrees>
              <LongitudeDegrees>-3.7127447314560413360595703125</LongitudeDegrees>
            </Position>
            <AltitudeMeters>746</AltitudeMeters>
            <DistanceMeters>5122.5316150121</DistanceMeters>
          </Trackpoint>
          <Trackpoint>
            <Time>2020-03-07T13:01:04.000Z</Time>
            <Position>
              <LatitudeDegrees>40.55859823711216449737548828125</LatitudeDegrees>
              <LongitudeDegrees>-3.712790496647357940673828125</LongitudeDegrees>
            </Position>
            <AltitudeMeters>746.4000244140625</AltitudeMeters>
            <DistanceMeters>5130.8142167014</DistanceMeters>
          </Trackpoint>
          <Trackpoint>
            <Time>2020-03-07T13:01:05.000Z</Time>
            <Position>
              <LatitudeDegrees>40.55866948328912258148193359375</LatitudeDegrees>
              <LongitudeDegrees>-3.71283852495253086090087890625</LongitudeDegrees>
            </Position>
            <AltitudeMeters>746.4000244140625</AltitudeMeters>
            <DistanceMeters>5139.7239530622</DistanceMeters>
          </Trackpoint>
          <Trackpoint>
            <Time>2020-03-07T13:01:06.000Z</Time>
            <Position>
              <LatitudeDegrees>40.558746345341205596923828125</LatitudeDegrees>
              <LongitudeDegrees>-3.712888062000274658203125</LongitudeDegrees>
            </Position>
            <AltitudeMeters>746.5999755859375</AltitudeMeters>
            <DistanceMeters>5149.2494036085</DistanceMeters>
          </Trackpoint>
          <Trackpoint>
            <Time>2020-03-07T13:01:07.000Z</Time>
            <Position>
              <LatitudeDegrees>40.558827482163906097412109375</LatitudeDegrees>
              <LongitudeDegrees>-3.7129376828670501708984375</LongitudeDegrees>
            </Position>
            <AltitudeMeters>746.5999755859375</AltitudeMeters>
            <DistanceMeters>5159.206824929</DistanceMeters>
          </Trackpoint>
          <Trackpoint>
            <Time>2020-03-07T13:01:08.000Z</Time>
            <Position>
              <LatitudeDegrees>40.55890836752951145172119140625</LatitudeDegrees>
              <LongitudeDegrees>-3.71298587881028652191162109375</LongitudeDegrees>
            </Position>
            <AltitudeMeters>746.5999755859375</AltitudeMeters>
            <DistanceMeters>5169.0896032235</DistanceMeters>
          </Trackpoint>
          <Trackpoint>
            <Time>2020-03-07T13:01:09.000Z</Time>
            <Position>
              <LatitudeDegrees>40.558988414704799652099609375</LatitudeDegrees>
              <LongitudeDegrees>-3.71302594430744647979736328125</LongitudeDegrees>
            </Position>
            <AltitudeMeters>746.5999755859375</AltitudeMeters>
            <DistanceMeters>5178.6216874226</DistanceMeters>
          </Trackpoint>
          <Trackpoint>
            <Time>2020-03-07T13:01:10.000Z</Time>
            <Position>
              <LatitudeDegrees>40.55906494148075580596923828125</LatitudeDegrees>
              <LongitudeDegrees>-3.71307003311812877655029296875</LongitudeDegrees>
            </Position>
            <AltitudeMeters>746.5999755859375</AltitudeMeters>
            <DistanceMeters>5187.9192635475</DistanceMeters>
          </Trackpoint>
          <Trackpoint>
            <Time>2020-03-07T13:01:11.000Z</Time>
            <Position>
              <LatitudeDegrees>40.559139288961887359619140625</LatitudeDegrees>
              <LongitudeDegrees>-3.7131061591207981109619140625</LongitudeDegrees>
            </Position>
            <AltitudeMeters>746.5999755859375</AltitudeMeters>
            <DistanceMeters>5196.739872293</DistanceMeters>
          </Trackpoint>
          <Trackpoint>
            <Time>2020-03-07T13:01:12.000Z</Time>
            <Position>
              <LatitudeDegrees>40.55921162478625774383544921875</LatitudeDegrees>
              <LongitudeDegrees>-3.71314220130443572998046875</LongitudeDegrees>
            </Position>
            <AltitudeMeters>746.5999755859375</AltitudeMeters>
            <DistanceMeters>5205.349103818</DistanceMeters>
          </Trackpoint>
          <Trackpoint>
            <Time>2020-03-07T13:01:13.000Z</Time>
            <Position>
              <LatitudeDegrees>40.55928437970578670501708984375</LatitudeDegrees>
              <LongitudeDegrees>-3.71317849494516849517822265625</LongitudeDegrees>
            </Position>
            <AltitudeMeters>746.5999755859375</AltitudeMeters>
            <DistanceMeters>5214.0085353693</DistanceMeters>
          </Trackpoint>
          <Trackpoint>
            <Time>2020-03-07T13:01:14.000Z</Time>
            <Position>
              <LatitudeDegrees>40.5593520216643810272216796875</LatitudeDegrees>
              <LongitudeDegrees>-3.71321604587137699127197265625</LongitudeDegrees>
            </Position>
            <AltitudeMeters>745.79998779296875</AltitudeMeters>
            <DistanceMeters>5222.1791751943</DistanceMeters>
          </Trackpoint>
          <Trackpoint>
            <Time>2020-03-07T13:01:15.000Z</Time>
            <Position>
              <LatitudeDegrees>40.55941295810043811798095703125</LatitudeDegrees>
              <LongitudeDegrees>-3.71325443498790264129638671875</LongitudeDegrees>
            </Position>
            <AltitudeMeters>745.4000244140625</AltitudeMeters>
            <DistanceMeters>5229.6983047061</DistanceMeters>
          </Trackpoint>
          <Trackpoint>
            <Time>2020-03-07T13:01:16.000Z</Time>
            <Position>
              <LatitudeDegrees>40.55946911685168743133544921875</LatitudeDegrees>
              <LongitudeDegrees>-3.71329374611377716064453125</LongitudeDegrees>
            </Position>
            <AltitudeMeters>745</AltitudeMeters>
            <DistanceMeters>5236.7782732329</DistanceMeters>
          </Trackpoint>
          <Trackpoint>
            <Time>2020-03-07T13:01:17.000Z</Time>
            <Position>
              <LatitudeDegrees>40.559521503746509552001953125</LatitudeDegrees>
              <LongitudeDegrees>-3.7133319675922393798828125</LongitudeDegrees>
            </Position>
            <AltitudeMeters>744.79998779296875</AltitudeMeters>
            <DistanceMeters>5243.4443820064</DistanceMeters>
          </Trackpoint>
          <Trackpoint>
            <Time>2020-03-07T13:01:18.000Z</Time>
            <Position>
              <LatitudeDegrees>40.5595694482326507568359375</LatitudeDegrees>
              <LongitudeDegrees>-3.71337077580392360687255859375</LongitudeDegrees>
            </Position>
            <AltitudeMeters>744.79998779296875</AltitudeMeters>
            <DistanceMeters>5249.7075004049</DistanceMeters>
          </Trackpoint>
          <Trackpoint>
            <Time>2020-03-07T13:01:19.000Z</Time>
            <Position>
              <LatitudeDegrees>40.55961328558623790740966796875</LatitudeDegrees>
              <LongitudeDegrees>-3.71341084130108356475830078125</LongitudeDegrees>
            </Position>
            <AltitudeMeters>744.79998779296875</AltitudeMeters>
            <DistanceMeters>5255.6472401859</DistanceMeters>
          </Trackpoint>
          <Trackpoint>
            <Time>2020-03-07T13:01:20.000Z</Time>
            <Position>
              <LatitudeDegrees>40.5596504174172878265380859375</LatitudeDegrees>
              <LongitudeDegrees>-3.7134548462927341461181640625</LongitudeDegrees>
            </Position>
            <AltitudeMeters>744.79998779296875</AltitudeMeters>
            <DistanceMeters>5261.2093478707</DistanceMeters>
          </Trackpoint>
          <Trackpoint>
            <Time>2020-03-07T13:01:21.000Z</Time>
            <Position>
              <LatitudeDegrees>40.55968218483030796051025390625</LatitudeDegrees>
              <LongitudeDegrees>-3.7135041318833827972412109375</LongitudeDegrees>
            </Position>
            <AltitudeMeters>744.79998779296875</AltitudeMeters>
            <DistanceMeters>5266.6740036512</DistanceMeters>
          </Trackpoint>
          <Trackpoint>
            <Time>2020-03-07T13:01:22.000Z</Time>
            <Position>
              <LatitudeDegrees>40.5597116053104400634765625</LatitudeDegrees>
              <LongitudeDegrees>-3.71355392038822174072265625</LongitudeDegrees>
            </Position>
            <AltitudeMeters>744.79998779296875</AltitudeMeters>
            <DistanceMeters>5272.0073647677</DistanceMeters>
          </Trackpoint>
          <Trackpoint>
            <Time>2020-03-07T13:01:23.000Z</Time>
            <Position>
              <LatitudeDegrees>40.5597396008670330047607421875</LatitudeDegrees>
              <LongitudeDegrees>-3.71360379271209239959716796875</LongitudeDegrees>
            </Position>
            <AltitudeMeters>744.79998779296875</AltitudeMeters>
            <DistanceMeters>5277.2510831785</DistanceMeters>
          </Trackpoint>
          <Trackpoint>
            <Time>2020-03-07T13:01:24.000Z</Time>
            <Position>
              <LatitudeDegrees>40.55976717732846736907958984375</LatitudeDegrees>
              <LongitudeDegrees>-3.71365324594080448150634765625</LongitudeDegrees>
            </Position>
            <AltitudeMeters>745.20001220703125</AltitudeMeters>
            <DistanceMeters>5282.4385322436</DistanceMeters>
          </Trackpoint>
          <Trackpoint>
            <Time>2020-03-07T13:01:25.000Z</Time>
            <Position>
              <LatitudeDegrees>40.5597955919802188873291015625</LatitudeDegrees>
              <LongitudeDegrees>-3.71370169334113597869873046875</LongitudeDegrees>
            </Position>
            <AltitudeMeters>745.79998779296875</AltitudeMeters>
            <DistanceMeters>5287.6137816804</DistanceMeters>
          </Trackpoint>
          <Trackpoint>
            <Time>2020-03-07T13:01:26.000Z</Time>
            <Position>
              <LatitudeDegrees>40.559824593365192413330078125</LatitudeDegrees>
              <LongitudeDegrees>-3.71375047601759433746337890625</LongitudeDegrees>
            </Position>
            <AltitudeMeters>746.5999755859375</AltitudeMeters>
            <DistanceMeters>5292.8531931349</DistanceMeters>
          </Trackpoint>
          <Trackpoint>
            <Time>2020-03-07T13:01:27.000Z</Time>
            <Position>
              <LatitudeDegrees>40.55985569022595882415771484375</LatitudeDegrees>
              <LongitudeDegrees>-3.7137986719608306884765625</LongitudeDegrees>
            </Position>
            <AltitudeMeters>747.5999755859375</AltitudeMeters>
            <DistanceMeters>5298.2000821389</DistanceMeters>
          </Trackpoint>
          <Trackpoint>
            <Time>2020-03-07T13:01:28.000Z</Time>
            <Position>
              <LatitudeDegrees>40.55989307351410388946533203125</LatitudeDegrees>
              <LongitudeDegrees>-3.713841252028942108154296875</LongitudeDegrees>
            </Position>
            <AltitudeMeters>748.4000244140625</AltitudeMeters>
            <DistanceMeters>5303.7017924403</DistanceMeters>
          </Trackpoint>
          <Trackpoint>
            <Time>2020-03-07T13:01:29.000Z</Time>
            <Position>
              <LatitudeDegrees>40.55993548594415187835693359375</LatitudeDegrees>
              <LongitudeDegrees>-3.7138779647648334503173828125</LongitudeDegrees>
            </Position>
            <AltitudeMeters>749</AltitudeMeters>
            <DistanceMeters>5309.3524871149</DistanceMeters>
          </Trackpoint>
          <Trackpoint>
            <Time>2020-03-07T13:01:30.000Z</Time>
            <Position>
              <LatitudeDegrees>40.5599809996783733367919921875</LatitudeDegrees>
              <LongitudeDegrees>-3.71390906162559986114501953125</LongitudeDegrees>
            </Position>
            <AltitudeMeters>749.79998779296875</AltitudeMeters>
            <DistanceMeters>5315.0604215758</DistanceMeters>
          </Trackpoint>
          <Trackpoint>
            <Time>2020-03-07T13:01:31.000Z</Time>
            <Position>
              <LatitudeDegrees>40.5600296147167682647705078125</LatitudeDegrees>
              <LongitudeDegrees>-3.71393613517284393310546875</LongitudeDegrees>
            </Position>
            <AltitudeMeters>750.4000244140625</AltitudeMeters>
            <DistanceMeters>5320.935962593</DistanceMeters>
          </Trackpoint>
          <Trackpoint>
            <Time>2020-03-07T13:01:32.000Z</Time>
            <Position>
              <LatitudeDegrees>40.56008149869740009307861328125</LatitudeDegrees>
              <LongitudeDegrees>-3.71395683847367763519287109375</LongitudeDegrees>
            </Position>
            <AltitudeMeters>751</AltitudeMeters>
            <DistanceMeters>5326.9699718922</DistanceMeters>
          </Trackpoint>
          <Trackpoint>
            <Time>2020-03-07T13:01:33.000Z</Time>
            <Position>
              <LatitudeDegrees>40.560136400163173675537109375</LatitudeDegrees>
              <LongitudeDegrees>-3.713972680270671844482421875</LongitudeDegrees>
            </Position>
            <AltitudeMeters>751.5999755859375</AltitudeMeters>
            <DistanceMeters>5333.2265988896</DistanceMeters>
          </Trackpoint>
          <Trackpoint>
            <Time>2020-03-07T13:01:34.000Z</Time>
            <Position>
              <LatitudeDegrees>40.56019146926701068878173828125</LatitudeDegrees>
              <LongitudeDegrees>-3.7139859236776828765869140625</LongitudeDegrees>
            </Position>
            <AltitudeMeters>752</AltitudeMeters>
            <DistanceMeters>5339.457917266</DistanceMeters>
          </Trackpoint>
          <Trackpoint>
            <Time>2020-03-07T13:01:35.000Z</Time>
            <Position>
              <LatitudeDegrees>40.560247041285037994384765625</LatitudeDegrees>
              <LongitudeDegrees>-3.7139963172376155853271484375</LongitudeDegrees>
            </Position>
            <AltitudeMeters>752.4000244140625</AltitudeMeters>
            <DistanceMeters>5345.7051558873</DistanceMeters>
          </Trackpoint>
          <Trackpoint>
            <Time>2020-03-07T13:01:36.000Z</Time>
            <Position>
              <LatitudeDegrees>40.56030236184597015380859375</LatitudeDegrees>
              <LongitudeDegrees>-3.7140010111033916473388671875</LongitudeDegrees>
            </Position>
            <AltitudeMeters>752.79998779296875</AltitudeMeters>
            <DistanceMeters>5351.8753100416</DistanceMeters>
          </Trackpoint>
          <Trackpoint>
            <Time>2020-03-07T13:01:37.000Z</Time>
            <Position>
              <LatitudeDegrees>40.560357011854648590087890625</LatitudeDegrees>
              <LongitudeDegrees>-3.714004866778850555419921875</LongitudeDegrees>
            </Position>
            <AltitudeMeters>753.20001220703125</AltitudeMeters>
            <DistanceMeters>5357.9666632663</DistanceMeters>
          </Trackpoint>
          <Trackpoint>
            <Time>2020-03-07T13:01:38.000Z</Time>
            <Position>
              <LatitudeDegrees>40.560413338243961334228515625</LatitudeDegrees>
              <LongitudeDegrees>-3.714012242853641510009765625</LongitudeDegrees>
            </Position>
            <AltitudeMeters>753.5999755859375</AltitudeMeters>
            <DistanceMeters>5364.2671565841</DistanceMeters>
          </Trackpoint>
          <Trackpoint>
            <Time>2020-03-07T13:01:39.000Z</Time>
            <Position>
              <LatitudeDegrees>40.5604701675474643707275390625</LatitudeDegrees>
              <LongitudeDegrees>-3.7140207923948764801025390625</LongitudeDegrees>
            </Position>
            <AltitudeMeters>754</AltitudeMeters>
            <DistanceMeters>5370.6332372528</DistanceMeters>
          </Trackpoint>
          <Trackpoint>
            <Time>2020-03-07T13:01:40.000Z</Time>
            <Position>
              <LatitudeDegrees>40.56052741594612598419189453125</LatitudeDegrees>
              <LongitudeDegrees>-3.71403009630739688873291015625</LongitudeDegrees>
            </Position>
            <AltitudeMeters>754.20001220703125</AltitudeMeters>
            <DistanceMeters>5377.0543998456</DistanceMeters>
          </Trackpoint>
          <Trackpoint>
            <Time>2020-03-07T13:01:41.000Z</Time>
            <Position>
              <LatitudeDegrees>40.5605851672589778900146484375</LatitudeDegrees>
              <LongitudeDegrees>-3.7140395678579807281494140625</LongitudeDegrees>
            </Position>
            <AltitudeMeters>754.5999755859375</AltitudeMeters>
            <DistanceMeters>5383.5329641396</DistanceMeters>
          </Trackpoint>
          <Trackpoint>
            <Time>2020-03-07T13:01:42.000Z</Time>
            <Position>
              <LatitudeDegrees>40.5606438405811786651611328125</LatitudeDegrees>
              <LongitudeDegrees>-3.7140486203134059906005859375</LongitudeDegrees>
            </Position>
            <AltitudeMeters>754.79998779296875</AltitudeMeters>
            <DistanceMeters>5390.1083733294</DistanceMeters>
          </Trackpoint>
          <Trackpoint>
            <Time>2020-03-07T13:01:43.000Z</Time>
            <Position>
              <LatitudeDegrees>40.5607035197317600250244140625</LatitudeDegrees>
              <LongitudeDegrees>-3.71405624784529209136962890625</LongitudeDegrees>
            </Position>
            <AltitudeMeters>755</AltitudeMeters>
            <DistanceMeters>5396.7812517896</DistanceMeters>
          </Trackpoint>
          <Trackpoint>
            <Time>2020-03-07T13:01:44.000Z</Time>
            <Position>
              <LatitudeDegrees>40.56076361797749996185302734375</LatitudeDegrees>
              <LongitudeDegrees>-3.7140623666346073150634765625</LongitudeDegrees>
            </Position>
            <AltitudeMeters>755</AltitudeMeters>
            <DistanceMeters>5403.4898955421</DistanceMeters>
          </Trackpoint>
          <Trackpoint>
            <Time>2020-03-07T13:01:45.000Z</Time>
            <Position>
              <LatitudeDegrees>40.56082413531839847564697265625</LatitudeDegrees>
              <LongitudeDegrees>-3.71406756341457366943359375</LongitudeDegrees>
            </Position>
            <AltitudeMeters>755</AltitudeMeters>
            <DistanceMeters>5410.2401374441</DistanceMeters>
          </Trackpoint>
          <Trackpoint>
            <Time>2020-03-07T13:01:46.000Z</Time>
            <Position>
              <LatitudeDegrees>40.56088498793542385101318359375</LatitudeDegrees>
              <LongitudeDegrees>-3.7140704132616519927978515625</LongitudeDegrees>
            </Position>
            <AltitudeMeters>755</AltitudeMeters>
            <DistanceMeters>5417.0170813567</DistanceMeters>
          </Trackpoint>
          <Trackpoint>
            <Time>2020-03-07T13:01:47.000Z</Time>
            <Position>
              <LatitudeDegrees>40.56094718165695667266845703125</LatitudeDegrees>
              <LongitudeDegrees>-3.71407133527100086212158203125</LongitudeDegrees>
            </Position>
            <AltitudeMeters>755</AltitudeMeters>
            <DistanceMeters>5423.9396976026</DistanceMeters>
          </Trackpoint>
          <Trackpoint>
            <Time>2020-03-07T13:01:48.000Z</Time>
            <Position>
              <LatitudeDegrees>40.5610089562833309173583984375</LatitudeDegrees>
              <LongitudeDegrees>-3.7140704132616519927978515625</LongitudeDegrees>
            </Position>
            <AltitudeMeters>755</AltitudeMeters>
            <DistanceMeters>5430.8158506157</DistanceMeters>
          </Trackpoint>
          <Trackpoint>
            <Time>2020-03-07T13:01:49.000Z</Time>
            <Position>
              <LatitudeDegrees>40.56107223965227603912353515625</LatitudeDegrees>
              <LongitudeDegrees>-3.71406865306198596954345703125</LongitudeDegrees>
            </Position>
            <AltitudeMeters>755</AltitudeMeters>
            <DistanceMeters>5437.8600162909</DistanceMeters>
          </Trackpoint>
          <Trackpoint>
            <Time>2020-03-07T13:01:50.000Z</Time>
            <Position>
              <LatitudeDegrees>40.56113627739250659942626953125</LatitudeDegrees>
              <LongitudeDegrees>-3.714067228138446807861328125</LongitudeDegrees>
            </Position>
            <AltitudeMeters>755</AltitudeMeters>
            <DistanceMeters>5444.9882867789</DistanceMeters>
          </Trackpoint>
          <Trackpoint>
            <Time>2020-03-07T13:01:51.000Z</Time>
            <Position>
              <LatitudeDegrees>40.56120199151337146759033203125</LatitudeDegrees>
              <LongitudeDegrees>-3.71406831778585910797119140625</LongitudeDegrees>
            </Position>
            <AltitudeMeters>755</AltitudeMeters>
            <DistanceMeters>5452.3022578517</DistanceMeters>
          </Trackpoint>
          <Trackpoint>
            <Time>2020-03-07T13:01:52.000Z</Time>
            <Position>
              <LatitudeDegrees>40.56126837618649005889892578125</LatitudeDegrees>
              <LongitudeDegrees>-3.7140724249184131622314453125</LongitudeDegrees>
            </Position>
            <AltitudeMeters>755</AltitudeMeters>
            <DistanceMeters>5459.6984868299</DistanceMeters>
          </Trackpoint>
          <Trackpoint>
            <Time>2020-03-07T13:01:53.000Z</Time>
            <Position>
              <LatitudeDegrees>40.56133576668798923492431640625</LatitudeDegrees>
              <LongitudeDegrees>-3.7140787951648235321044921875</LongitudeDegrees>
            </Position>
            <AltitudeMeters>754.79998779296875</AltitudeMeters>
            <DistanceMeters>5467.2182167913</DistanceMeters>
          </Trackpoint>
          <Trackpoint>
            <Time>2020-03-07T13:01:54.000Z</Time>
            <Position>
              <LatitudeDegrees>40.56140433065593242645263671875</LatitudeDegrees>
              <LongitudeDegrees>-3.71408608742058277130126953125</LongitudeDegrees>
            </Position>
            <AltitudeMeters>754.79998779296875</AltitudeMeters>
            <DistanceMeters>5474.8747993367</DistanceMeters>
          </Trackpoint>
          <Trackpoint>
            <Time>2020-03-07T13:01:55.000Z</Time>
            <Position>
              <LatitudeDegrees>40.56147373281419277191162109375</LatitudeDegrees>
              <LongitudeDegrees>-3.71409262530505657196044921875</LongitudeDegrees>
            </Position>
            <AltitudeMeters>754.5999755859375</AltitudeMeters>
            <DistanceMeters>5482.61933081</DistanceMeters>
          </Trackpoint>
          <Trackpoint>
            <Time>2020-03-07T13:01:56.000Z</Time>
            <Position>
              <LatitudeDegrees>40.56154422461986541748046875</LatitudeDegrees>
              <LongitudeDegrees>-3.7140963971614837646484375</LongitudeDegrees>
            </Position>
            <AltitudeMeters>754.5999755859375</AltitudeMeters>
            <DistanceMeters>5490.4727009217</DistanceMeters>
          </Trackpoint>
          <Trackpoint>
            <Time>2020-03-07T13:01:57.000Z</Time>
            <Position>
              <LatitudeDegrees>40.56161555461585521697998046875</LatitudeDegrees>
              <LongitudeDegrees>-3.71409899555146694183349609375</LongitudeDegrees>
            </Position>
            <AltitudeMeters>754.5999755859375</AltitudeMeters>
            <DistanceMeters>5498.4152517738</DistanceMeters>
          </Trackpoint>
          <Trackpoint>
            <Time>2020-03-07T13:01:58.000Z</Time>
            <Position>
              <LatitudeDegrees>40.56168680079281330108642578125</LatitudeDegrees>
              <LongitudeDegrees>-3.7141039408743381500244140625</LongitudeDegrees>
            </Position>
            <AltitudeMeters>754.5999755859375</AltitudeMeters>
            <DistanceMeters>5506.3566656205</DistanceMeters>
          </Trackpoint>
          <Trackpoint>
            <Time>2020-03-07T13:01:59.000Z</Time>
            <Position>
              <LatitudeDegrees>40.56175720877945423126220703125</LatitudeDegrees>
              <LongitudeDegrees>-3.7141143344342708587646484375</LongitudeDegrees>
            </Position>
            <AltitudeMeters>754.5999755859375</AltitudeMeters>
            <DistanceMeters>5514.2421653759</DistanceMeters>
          </Trackpoint>
          <Trackpoint>
            <Time>2020-03-07T13:02:00.000Z</Time>
            <Position>
              <LatitudeDegrees>40.56182585656642913818359375</LatitudeDegrees>
              <LongitudeDegrees>-3.71412950567901134490966796875</LongitudeDegrees>
            </Position>
            <AltitudeMeters>754.5999755859375</AltitudeMeters>
            <DistanceMeters>5521.989028486</DistanceMeters>
          </Trackpoint>
          <Trackpoint>
            <Time>2020-03-07T13:02:01.000Z</Time>
            <Position>
              <LatitudeDegrees>40.5618937499821186065673828125</LatitudeDegrees>
              <LongitudeDegrees>-3.714147023856639862060546875</LongitudeDegrees>
            </Position>
            <AltitudeMeters>754.4000244140625</AltitudeMeters>
            <DistanceMeters>5529.6897110536</DistanceMeters>
          </Trackpoint>
          <Trackpoint>
            <Time>2020-03-07T13:02:02.000Z</Time>
            <Position>
              <LatitudeDegrees>40.561961643397808074951171875</LatitudeDegrees>
              <LongitudeDegrees>-3.71416538022458553314208984375</LongitudeDegrees>
            </Position>
            <AltitudeMeters>754.4000244140625</AltitudeMeters>
            <DistanceMeters>5537.4038671167</DistanceMeters>
          </Trackpoint>
          <Trackpoint>
            <Time>2020-03-07T13:02:03.000Z</Time>
            <Position>
              <LatitudeDegrees>40.5620285309851169586181640625</LatitudeDegrees>
              <LongitudeDegrees>-3.7141840718686580657958984375</LongitudeDegrees>
            </Position>
            <AltitudeMeters>754.4000244140625</AltitudeMeters>
            <DistanceMeters>5545.0137212701</DistanceMeters>
          </Trackpoint>
          <Trackpoint>
            <Time>2020-03-07T13:02:04.000Z</Time>
            <Position>
              <LatitudeDegrees>40.56209550239145755767822265625</LatitudeDegrees>
              <LongitudeDegrees>-3.71420167386531829833984375</LongitudeDegrees>
            </Position>
            <AltitudeMeters>754.4000244140625</AltitudeMeters>
            <DistanceMeters>5552.6146704929</DistanceMeters>
          </Trackpoint>
          <Trackpoint>
            <Time>2020-03-07T13:02:05.000Z</Time>
            <Position>
              <LatitudeDegrees>40.56216289289295673370361328125</LatitudeDegrees>
              <LongitudeDegrees>-3.714217431843280792236328125</LongitudeDegrees>
            </Position>
            <AltitudeMeters>754.4000244140625</AltitudeMeters>
            <DistanceMeters>5560.2328265234</DistanceMeters>
          </Trackpoint>
          <Trackpoint>
            <Time>2020-03-07T13:02:06.000Z</Time>
            <Position>
              <LatitudeDegrees>40.56222944520413875579833984375</LatitudeDegrees>
              <LongitudeDegrees>-3.714232183992862701416015625</LongitudeDegrees>
            </Position>
            <AltitudeMeters>754.4000244140625</AltitudeMeters>
            <DistanceMeters>5567.7453479227</DistanceMeters>
          </Trackpoint>
          <Trackpoint>
            <Time>2020-03-07T13:02:07.000Z</Time>
            <Position>
              <LatitudeDegrees>40.56229415349662303924560546875</LatitudeDegrees>
              <LongitudeDegrees>-3.7142474390566349029541015625</LongitudeDegrees>
            </Position>
            <AltitudeMeters>754.4000244140625</AltitudeMeters>
            <DistanceMeters>5575.0617878466</DistanceMeters>
          </Trackpoint>
          <Trackpoint>
            <Time>2020-03-07T13:02:08.000Z</Time>
            <Position>
              <LatitudeDegrees>40.5623567663133144378662109375</LatitudeDegrees>
              <LongitudeDegrees>-3.714265041053295135498046875</LongitudeDegrees>
            </Position>
            <AltitudeMeters>754.4000244140625</AltitudeMeters>
            <DistanceMeters>5582.1875242889</DistanceMeters>
          </Trackpoint>
          <Trackpoint>
            <Time>2020-03-07T13:02:09.000Z</Time>
            <Position>
              <LatitudeDegrees>40.56241870857775211334228515625</LatitudeDegrees>
              <LongitudeDegrees>-3.71428306214511394500732421875</LongitudeDegrees>
            </Position>
            <AltitudeMeters>754.4000244140625</AltitudeMeters>
            <DistanceMeters>5589.2476958144</DistanceMeters>
          </Trackpoint>
          <Trackpoint>
            <Time>2020-03-07T13:02:10.000Z</Time>
            <Position>
              <LatitudeDegrees>40.56247922591865062713623046875</LatitudeDegrees>
              <LongitudeDegrees>-3.71430066414177417755126953125</LongitudeDegrees>
            </Position>
            <AltitudeMeters>754.4000244140625</AltitudeMeters>
            <DistanceMeters>5596.1454833426</DistanceMeters>
          </Trackpoint>
          <Trackpoint>
            <Time>2020-03-07T13:02:11.000Z</Time>
            <Position>
              <LatitudeDegrees>40.56253840215504169464111328125</LatitudeDegrees>
              <LongitudeDegrees>-3.714317344129085540771484375</LongitudeDegrees>
            </Position>
            <AltitudeMeters>754.4000244140625</AltitudeMeters>
            <DistanceMeters>5602.8809940177</DistanceMeters>
          </Trackpoint>
          <Trackpoint>
            <Time>2020-03-07T13:02:12.000Z</Time>
            <Position>
              <LatitudeDegrees>40.5625961534678936004638671875</LatitudeDegrees>
              <LongitudeDegrees>-3.7143332697451114654541015625</LongitudeDegrees>
            </Position>
            <AltitudeMeters>754.5999755859375</AltitudeMeters>
            <DistanceMeters>5609.448158177</DistanceMeters>
          </Trackpoint>
          <Trackpoint>
            <Time>2020-03-07T13:02:13.000Z</Time>
            <Position>
              <LatitudeDegrees>40.56265273131430149078369140625</LatitudeDegrees>
              <LongitudeDegrees>-3.71435078792273998260498046875</LongitudeDegrees>
            </Position>
            <AltitudeMeters>754.79998779296875</AltitudeMeters>
            <DistanceMeters>5615.916958239</DistanceMeters>
          </Trackpoint>
          <Trackpoint>
            <Time>2020-03-07T13:02:14.000Z</Time>
            <Position>
              <LatitudeDegrees>40.56270838715136051177978515625</LatitudeDegrees>
              <LongitudeDegrees>-3.71436889283359050750732421875</LongitudeDegrees>
            </Position>
            <AltitudeMeters>755</AltitudeMeters>
            <DistanceMeters>5622.2986229718</DistanceMeters>
          </Trackpoint>
          <Trackpoint>
            <Time>2020-03-07T13:02:15.000Z</Time>
            <Position>
              <LatitudeDegrees>40.5627631209790706634521484375</LatitudeDegrees>
              <LongitudeDegrees>-3.71438548900187015533447265625</LongitudeDegrees>
            </Position>
            <AltitudeMeters>755.20001220703125</AltitudeMeters>
            <DistanceMeters>5628.5501964417</DistanceMeters>
          </Trackpoint>
          <Trackpoint>
            <Time>2020-03-07T13:02:16.000Z</Time>
            <Position>
              <LatitudeDegrees>40.5628171004354953765869140625</LatitudeDegrees>
              <LongitudeDegrees>-3.71440141461789608001708984375</LongitudeDegrees>
            </Position>
            <AltitudeMeters>755.4000244140625</AltitudeMeters>
            <DistanceMeters>5634.7078982036</DistanceMeters>
          </Trackpoint>
          <Trackpoint>
            <Time>2020-03-07T13:02:17.000Z</Time>
            <Position>
              <LatitudeDegrees>40.5628712475299835205078125</LatitudeDegrees>
              <LongitudeDegrees>-3.71441532857716083526611328125</LongitudeDegrees>
            </Position>
            <AltitudeMeters>755.4000244140625</AltitudeMeters>
            <DistanceMeters>5640.8487124191</DistanceMeters>
          </Trackpoint>
          <Trackpoint>
            <Time>2020-03-07T13:02:18.000Z</Time>
            <Position>
              <LatitudeDegrees>40.56292556226253509521484375</LatitudeDegrees>
              <LongitudeDegrees>-3.71442555449903011322021484375</LongitudeDegrees>
            </Position>
            <AltitudeMeters>755.79998779296875</AltitudeMeters>
            <DistanceMeters>5646.9556114451</DistanceMeters>
          </Trackpoint>
          <Trackpoint>
            <Time>2020-03-07T13:02:19.000Z</Time>
            <Position>
              <LatitudeDegrees>40.562979876995086669921875</LatitudeDegrees>
              <LongitudeDegrees>-3.7144311703741550445556640625</LongitudeDegrees>
            </Position>
            <AltitudeMeters>756</AltitudeMeters>
            <DistanceMeters>5653.0194774792</DistanceMeters>
          </Trackpoint>
          <Trackpoint>
            <Time>2020-03-07T13:02:20.000Z</Time>
            <Position>
              <LatitudeDegrees>40.56303461082279682159423828125</LatitudeDegrees>
              <LongitudeDegrees>-3.714433014392852783203125</LongitudeDegrees>
            </Position>
            <AltitudeMeters>756.20001220703125</AltitudeMeters>
            <DistanceMeters>5659.1145356816</DistanceMeters>
          </Trackpoint>
          <Trackpoint>
            <Time>2020-03-07T13:02:21.000Z</Time>
            <Position>
              <LatitudeDegrees>40.5630885064601898193359375</LatitudeDegrees>
              <LongitudeDegrees>-3.714432008564472198486328125</LongitudeDegrees>
            </Position>
            <AltitudeMeters>756.20001220703125</AltitudeMeters>
            <DistanceMeters>5665.1140260521</DistanceMeters>
          </Trackpoint>
          <Trackpoint>
            <Time>2020-03-07T13:02:22.000Z</Time>
            <Position>
              <LatitudeDegrees>40.56314256973564624786376953125</LatitudeDegrees>
              <LongitudeDegrees>-3.714429326355457305908203125</LongitudeDegrees>
            </Position>
            <AltitudeMeters>756.5999755859375</AltitudeMeters>
            <DistanceMeters>5671.1360512097</DistanceMeters>
          </Trackpoint>
          <Trackpoint>
            <Time>2020-03-07T13:02:23.000Z</Time>
            <Position>
              <LatitudeDegrees>40.56319654919207096099853515625</LatitudeDegrees>
              <LongitudeDegrees>-3.714425973594188690185546875</LongitudeDegrees>
            </Position>
            <AltitudeMeters>757</AltitudeMeters>
            <DistanceMeters>5677.1505741529</DistanceMeters>
          </Trackpoint>
          <Trackpoint>
            <Time>2020-03-07T13:02:24.000Z</Time>
            <Position>
              <LatitudeDegrees>40.56325086392462253570556640625</LatitudeDegrees>
              <LongitudeDegrees>-3.7144221179187297821044921875</LongitudeDegrees>
            </Position>
            <AltitudeMeters>757.20001220703125</AltitudeMeters>
            <DistanceMeters>5683.205498625</DistanceMeters>
          </Trackpoint>
          <Trackpoint>
            <Time>2020-03-07T13:02:25.000Z</Time>
            <Position>
              <LatitudeDegrees>40.5633055977523326873779296875</LatitudeDegrees>
              <LongitudeDegrees>-3.7144194357097148895263671875</LongitudeDegrees>
            </Position>
            <AltitudeMeters>757.4000244140625</AltitudeMeters>
            <DistanceMeters>5689.302038188</DistanceMeters>
          </Trackpoint>
          <Trackpoint>
            <Time>2020-03-07T13:02:26.000Z</Time>
            <Position>
              <LatitudeDegrees>40.56336066685616970062255859375</LatitudeDegrees>
              <LongitudeDegrees>-3.714417926967144012451171875</LongitudeDegrees>
            </Position>
            <AltitudeMeters>758</AltitudeMeters>
            <DistanceMeters>5695.4325502514</DistanceMeters>
          </Trackpoint>
          <Trackpoint>
            <Time>2020-03-07T13:02:27.000Z</Time>
            <Position>
              <LatitudeDegrees>40.56341615505516529083251953125</LatitudeDegrees>
              <LongitudeDegrees>-3.714416921138763427734375</LongitudeDegrees>
            </Position>
            <AltitudeMeters>758.20001220703125</AltitudeMeters>
            <DistanceMeters>5701.6092866855</DistanceMeters>
          </Trackpoint>
          <Trackpoint>
            <Time>2020-03-07T13:02:28.000Z</Time>
            <Position>
              <LatitudeDegrees>40.5634725652635097503662109375</LatitudeDegrees>
              <LongitudeDegrees>-3.7144140712916851043701171875</LongitudeDegrees>
            </Position>
            <AltitudeMeters>758.20001220703125</AltitudeMeters>
            <DistanceMeters>5707.8918390439</DistanceMeters>
          </Trackpoint>
          <Trackpoint>
            <Time>2020-03-07T13:02:29.000Z</Time>
            <Position>
              <LatitudeDegrees>40.56352771818637847900390625</LatitudeDegrees>
              <LongitudeDegrees>-3.714412562549114227294921875</LongitudeDegrees>
            </Position>
            <AltitudeMeters>758.5999755859375</AltitudeMeters>
            <DistanceMeters>5714.0319179647</DistanceMeters>
          </Trackpoint>
          <Trackpoint>
            <Time>2020-03-07T13:02:30.000Z</Time>
            <Position>
              <LatitudeDegrees>40.56358329020440578460693359375</LatitudeDegrees>
              <LongitudeDegrees>-3.71441549621522426605224609375</LongitudeDegrees>
            </Position>
            <AltitudeMeters>759.20001220703125</AltitudeMeters>
            <DistanceMeters>5720.2225273393</DistanceMeters>
          </Trackpoint>
          <Trackpoint>
            <Time>2020-03-07T13:02:31.000Z</Time>
            <Position>
              <LatitudeDegrees>40.5636391974985599517822265625</LatitudeDegrees>
              <LongitudeDegrees>-3.71442270465195178985595703125</LongitudeDegrees>
            </Position>
            <AltitudeMeters>759.5999755859375</AltitudeMeters>
            <DistanceMeters>5726.4741008091</DistanceMeters>
          </Trackpoint>
          <Trackpoint>
            <Time>2020-03-07T13:02:32.000Z</Time>
            <Position>
              <LatitudeDegrees>40.56369476951658725738525390625</LatitudeDegrees>
              <LongitudeDegrees>-3.71443226002156734466552734375</LongitudeDegrees>
            </Position>
            <AltitudeMeters>759.79998779296875</AltitudeMeters>
            <DistanceMeters>5732.7112130673</DistanceMeters>
          </Trackpoint>
          <Trackpoint>
            <Time>2020-03-07T13:02:33.000Z</Time>
            <Position>
              <LatitudeDegrees>40.56374992243945598602294921875</LatitudeDegrees>
              <LongitudeDegrees>-3.71444399468600749969482421875</LongitudeDegrees>
            </Position>
            <AltitudeMeters>760</AltitudeMeters>
            <DistanceMeters>5738.9294754719</DistanceMeters>
          </Trackpoint>
          <Trackpoint>
            <Time>2020-03-07T13:02:34.000Z</Time>
            <Position>
              <LatitudeDegrees>40.5638046562671661376953125</LatitudeDegrees>
              <LongitudeDegrees>-3.714456818997859954833984375</LongitudeDegrees>
            </Position>
            <AltitudeMeters>760</AltitudeMeters>
            <DistanceMeters>5745.1171668122</DistanceMeters>
          </Trackpoint>
          <Trackpoint>
            <Time>2020-03-07T13:02:35.000Z</Time>
            <Position>
              <LatitudeDegrees>40.56386022828519344329833984375</LatitudeDegrees>
              <LongitudeDegrees>-3.7144677154719829559326171875</LongitudeDegrees>
            </Position>
            <AltitudeMeters>760.4000244140625</AltitudeMeters>
            <DistanceMeters>5751.3716285121</DistanceMeters>
          </Trackpoint>
          <Trackpoint>
            <Time>2020-03-07T13:02:36.000Z</Time>
            <Position>
              <LatitudeDegrees>40.56391504593193531036376953125</LatitudeDegrees>
              <LongitudeDegrees>-3.71447634883224964141845703125</LongitudeDegrees>
            </Position>
            <AltitudeMeters>760.5999755859375</AltitudeMeters>
            <DistanceMeters>5757.5161178816</DistanceMeters>
          </Trackpoint>
          <Trackpoint>
            <Time>2020-03-07T13:02:37.000Z</Time>
            <Position>
              <LatitudeDegrees>40.56396869011223316192626953125</LatitudeDegrees>
              <LongitudeDegrees>-3.71448556892573833465576171875</LongitudeDegrees>
            </Position>
            <AltitudeMeters>760.79998779296875</AltitudeMeters>
            <DistanceMeters>5763.5381430392</DistanceMeters>
          </Trackpoint>
          <Trackpoint>
            <Time>2020-03-07T13:02:38.000Z</Time>
            <Position>
              <LatitudeDegrees>40.56402199901640415191650390625</LatitudeDegrees>
              <LongitudeDegrees>-3.7144958786666393280029296875</LongitudeDegrees>
            </Position>
            <AltitudeMeters>761</AltitudeMeters>
            <DistanceMeters>5769.5346223729</DistanceMeters>
          </Trackpoint>
          <Trackpoint>
            <Time>2020-03-07T13:02:39.000Z</Time>
            <Position>
              <LatitudeDegrees>40.56407488882541656494140625</LatitudeDegrees>
              <LongitudeDegrees>-3.714509122073650360107421875</LongitudeDegrees>
            </Position>
            <AltitudeMeters>761.20001220703125</AltitudeMeters>
            <DistanceMeters>5775.5265823145</DistanceMeters>
          </Trackpoint>
          <Trackpoint>
            <Time>2020-03-07T13:02:40.000Z</Time>
            <Position>
              <LatitudeDegrees>40.56412777863442897796630859375</LatitudeDegrees>
              <LongitudeDegrees>-3.71452412568032741546630859375</LongitudeDegrees>
            </Position>
            <AltitudeMeters>761.20001220703125</AltitudeMeters>
            <DistanceMeters>5781.5486074721</DistanceMeters>
          </Trackpoint>
          <Trackpoint>
            <Time>2020-03-07T13:02:41.000Z</Time>
            <Position>
              <LatitudeDegrees>40.56418041698634624481201171875</LatitudeDegrees>
              <LongitudeDegrees>-3.7145387940108776092529296875</LongitudeDegrees>
            </Position>
            <AltitudeMeters>761.4000244140625</AltitudeMeters>
            <DistanceMeters>5787.536798648</DistanceMeters>
          </Trackpoint>
          <Trackpoint>
            <Time>2020-03-07T13:02:42.000Z</Time>
            <Position>
              <LatitudeDegrees>40.564234144985675811767578125</LatitudeDegrees>
              <LongitudeDegrees>-3.71455111540853977203369140625</LongitudeDegrees>
            </Position>
            <AltitudeMeters>761.5999755859375</AltitudeMeters>
            <DistanceMeters>5793.6073622106</DistanceMeters>
          </Trackpoint>
          <Trackpoint>
            <Time>2020-03-07T13:02:43.000Z</Time>
            <Position>
              <LatitudeDegrees>40.56428787298500537872314453125</LatitudeDegrees>
              <LongitudeDegrees>-3.714562095701694488525390625</LongitudeDegrees>
            </Position>
            <AltitudeMeters>761.79998779296875</AltitudeMeters>
            <DistanceMeters>5799.6593032262</DistanceMeters>
          </Trackpoint>
          <Trackpoint>
            <Time>2020-03-07T13:02:44.000Z</Time>
            <Position>
              <LatitudeDegrees>40.56434252299368381500244140625</LatitudeDegrees>
              <LongitudeDegrees>-3.71457274071872234344482421875</LongitudeDegrees>
            </Position>
            <AltitudeMeters>761.79998779296875</AltitudeMeters>
            <DistanceMeters>5805.8074655528</DistanceMeters>
          </Trackpoint>
          <Trackpoint>
            <Time>2020-03-07T13:02:45.000Z</Time>
            <Position>
              <LatitudeDegrees>40.56439868174493312835693359375</LatitudeDegrees>
              <LongitudeDegrees>-3.71458120644092559814453125</LongitudeDegrees>
            </Position>
            <AltitudeMeters>761.79998779296875</AltitudeMeters>
            <DistanceMeters>5812.098635957</DistanceMeters>
          </Trackpoint>
          <Trackpoint>
            <Time>2020-03-07T13:02:46.000Z</Time>
            <Position>
              <LatitudeDegrees>40.56445651687681674957275390625</LatitudeDegrees>
              <LongitudeDegrees>-3.714584894478321075439453125</LongitudeDegrees>
            </Position>
            <AltitudeMeters>761.79998779296875</AltitudeMeters>
            <DistanceMeters>5818.5429607134</DistanceMeters>
          </Trackpoint>
          <Trackpoint>
            <Time>2020-03-07T13:02:47.000Z</Time>
            <Position>
              <LatitudeDegrees>40.56451519019901752471923828125</LatitudeDegrees>
              <LongitudeDegrees>-3.71458497829735279083251953125</LongitudeDegrees>
            </Position>
            <AltitudeMeters>762</AltitudeMeters>
            <DistanceMeters>5825.0728934058</DistanceMeters>
          </Trackpoint>
          <Trackpoint>
            <Time>2020-03-07T13:02:48.000Z</Time>
            <Position>
              <LatitudeDegrees>40.56457419879734516143798828125</LatitudeDegrees>
              <LongitudeDegrees>-3.714582882821559906005859375</LongitudeDegrees>
            </Position>
            <AltitudeMeters>762</AltitudeMeters>
            <DistanceMeters>5831.6428070584</DistanceMeters>
          </Trackpoint>
          <Trackpoint>
            <Time>2020-03-07T13:02:49.000Z</Time>
            <Position>
              <LatitudeDegrees>40.56463404558598995208740234375</LatitudeDegrees>
              <LongitudeDegrees>-3.71457894332706928253173828125</LongitudeDegrees>
            </Position>
            <AltitudeMeters>762</AltitudeMeters>
            <DistanceMeters>5838.3123015342</DistanceMeters>
          </Trackpoint>
          <Trackpoint>
            <Time>2020-03-07T13:02:50.000Z</Time>
            <Position>
              <LatitudeDegrees>40.56469406001269817352294921875</LatitudeDegrees>
              <LongitudeDegrees>-3.71457441709935665130615234375</LongitudeDegrees>
            </Position>
            <AltitudeMeters>762</AltitudeMeters>
            <DistanceMeters>5845.0020742401</DistanceMeters>
          </Trackpoint>
          <Trackpoint>
            <Time>2020-03-07T13:02:51.000Z</Time>
            <Position>
              <LatitudeDegrees>40.5647553317248821258544921875</LatitudeDegrees>
              <LongitudeDegrees>-3.7145711481571197509765625</LongitudeDegrees>
            </Position>
            <AltitudeMeters>762</AltitudeMeters>
            <DistanceMeters>5851.827480043</DistanceMeters>
          </Trackpoint>
          <Trackpoint>
            <Time>2020-03-07T13:02:52.000Z</Time>
            <Position>
              <LatitudeDegrees>40.564817525446414947509765625</LatitudeDegrees>
              <LongitudeDegrees>-3.71456787921488285064697265625</LongitudeDegrees>
            </Position>
            <AltitudeMeters>762</AltitudeMeters>
            <DistanceMeters>5858.7559637426</DistanceMeters>
          </Trackpoint>
          <Trackpoint>
            <Time>2020-03-07T13:02:53.000Z</Time>
            <Position>
              <LatitudeDegrees>40.5648790486156940460205078125</LatitudeDegrees>
              <LongitudeDegrees>-3.71456419117748737335205078125</LongitudeDegrees>
            </Position>
            <AltitudeMeters>762</AltitudeMeters>
            <DistanceMeters>5865.6110726268</DistanceMeters>
          </Trackpoint>
          <Trackpoint>
            <Time>2020-03-07T13:02:54.000Z</Time>
            <Position>
              <LatitudeDegrees>40.5649407394230365753173828125</LatitudeDegrees>
              <LongitudeDegrees>-3.714559413492679595947265625</LongitudeDegrees>
            </Position>
            <AltitudeMeters>762</AltitudeMeters>
            <DistanceMeters>5872.4898516294</DistanceMeters>
          </Trackpoint>
          <Trackpoint>
            <Time>2020-03-07T13:02:55.000Z</Time>
            <Position>
              <LatitudeDegrees>40.56500268168747425079345703125</LatitudeDegrees>
              <LongitudeDegrees>-3.71455094777047634124755859375</LongitudeDegrees>
            </Position>
            <AltitudeMeters>762</AltitudeMeters>
            <DistanceMeters>5879.4209414919</DistanceMeters>
          </Trackpoint>
          <Trackpoint>
            <Time>2020-03-07T13:02:56.000Z</Time>
            <Position>
              <LatitudeDegrees>40.5650634504854679107666015625</LatitudeDegrees>
              <LongitudeDegrees>-3.71454097330570220947265625</LongitudeDegrees>
            </Position>
            <AltitudeMeters>762</AltitudeMeters>
            <DistanceMeters>5886.2364175008</DistanceMeters>
          </Trackpoint>
          <Trackpoint>
            <Time>2020-03-07T13:02:57.000Z</Time>
            <Position>
              <LatitudeDegrees>40.56512296199798583984375</LatitudeDegrees>
              <LongitudeDegrees>-3.71453158557415008544921875</LongitudeDegrees>
            </Position>
            <AltitudeMeters>762</AltitudeMeters>
            <DistanceMeters>5892.9072657764</DistanceMeters>
          </Trackpoint>
          <Trackpoint>
            <Time>2020-03-07T13:02:58.000Z</Time>
            <Position>
              <LatitudeDegrees>40.56518155150115489959716796875</LatitudeDegrees>
              <LongitudeDegrees>-3.71452085673809051513671875</LongitudeDegrees>
            </Position>
            <AltitudeMeters>762</AltitudeMeters>
            <DistanceMeters>5899.490909671</DistanceMeters>
          </Trackpoint>
          <Trackpoint>
            <Time>2020-03-07T13:02:59.000Z</Time>
            <Position>
              <LatitudeDegrees>40.56523955427110195159912109375</LatitudeDegrees>
              <LongitudeDegrees>-3.71451054699718952178955078125</LongitudeDegrees>
            </Position>
            <AltitudeMeters>762.20001220703125</AltitudeMeters>
            <DistanceMeters>5906.0056129863</DistanceMeters>
          </Trackpoint>
          <Trackpoint>
            <Time>2020-03-07T13:03:00.000Z</Time>
            <Position>
              <LatitudeDegrees>40.56529663503170013427734375</LatitudeDegrees>
              <LongitudeDegrees>-3.71450233273208141326904296875</LongitudeDegrees>
            </Position>
            <AltitudeMeters>762.20001220703125</AltitudeMeters>
            <DistanceMeters>5912.3971750671</DistanceMeters>
          </Trackpoint>
          <Trackpoint>
            <Time>2020-03-07T13:03:01.000Z</Time>
            <Position>
              <LatitudeDegrees>40.56535187177360057830810546875</LatitudeDegrees>
              <LongitudeDegrees>-3.71449294500052928924560546875</LongitudeDegrees>
            </Position>
            <AltitudeMeters>762.20001220703125</AltitudeMeters>
            <DistanceMeters>5918.5958019528</DistanceMeters>
          </Trackpoint>
          <Trackpoint>
            <Time>2020-03-07T13:03:02.000Z</Time>
            <Position>
              <LatitudeDegrees>40.5654059350490570068359375</LatitudeDegrees>
              <LongitudeDegrees>-3.71447852812707424163818359375</LongitudeDegrees>
            </Position>
            <AltitudeMeters>762.20001220703125</AltitudeMeters>
            <DistanceMeters>5924.7344100199</DistanceMeters>
          </Trackpoint>
          <Trackpoint>
            <Time>2020-03-07T13:03:03.000Z</Time>
            <Position>
              <LatitudeDegrees>40.56545832194387912750244140625</LatitudeDegrees>
              <LongitudeDegrees>-3.71445690281689167022705078125</LongitudeDegrees>
            </Position>
            <AltitudeMeters>762.20001220703125</AltitudeMeters>
            <DistanceMeters>5930.84574344</DistanceMeters>
          </Trackpoint>
          <Trackpoint>
            <Time>2020-03-07T13:03:04.000Z</Time>
            <Position>
              <LatitudeDegrees>40.56551062501966953277587890625</LatitudeDegrees>
              <LongitudeDegrees>-3.71442957781255245208740234375</LongitudeDegrees>
            </Position>
            <AltitudeMeters>762.20001220703125</AltitudeMeters>
            <DistanceMeters>5937.1088618384</DistanceMeters>
          </Trackpoint>
          <Trackpoint>
            <Time>2020-03-07T13:03:05.000Z</Time>
            <Position>
              <LatitudeDegrees>40.56556309573352336883544921875</LatitudeDegrees>
              <LongitudeDegrees>-3.7143999896943569183349609375</LongitudeDegrees>
            </Position>
            <AltitudeMeters>762.20001220703125</AltitudeMeters>
            <DistanceMeters>5943.4621634765</DistanceMeters>
          </Trackpoint>
          <Trackpoint>
            <Time>2020-03-07T13:03:06.000Z</Time>
            <Position>
              <LatitudeDegrees>40.56561640463769435882568359375</LatitudeDegrees>
              <LongitudeDegrees>-3.71436872519552707672119140625</LongitudeDegrees>
            </Position>
            <AltitudeMeters>762.20001220703125</AltitudeMeters>
            <DistanceMeters>5949.9574323044</DistanceMeters>
          </Trackpoint>
          <Trackpoint>
            <Time>2020-03-07T13:03:07.000Z</Time>
            <Position>
              <LatitudeDegrees>40.5656692944467067718505859375</LatitudeDegrees>
              <LongitudeDegrees>-3.7143349461257457733154296875</LongitudeDegrees>
            </Position>
            <AltitudeMeters>762.4000244140625</AltitudeMeters>
            <DistanceMeters>5956.4997990278</DistanceMeters>
          </Trackpoint>
          <Trackpoint>
            <Time>2020-03-07T13:03:08.000Z</Time>
            <Position>
              <LatitudeDegrees>40.565720759332180023193359375</LatitudeDegrees>
              <LongitudeDegrees>-3.71429798193275928497314453125</LongitudeDegrees>
            </Position>
            <AltitudeMeters>762.5999755859375</AltitudeMeters>
            <DistanceMeters>5963.0241978781</DistanceMeters>
          </Trackpoint>
          <Trackpoint>
            <Time>2020-03-07T13:03:09.000Z</Time>
            <Position>
              <LatitudeDegrees>40.56577029637992382049560546875</LatitudeDegrees>
              <LongitudeDegrees>-3.7142574973404407501220703125</LongitudeDegrees>
            </Position>
            <AltitudeMeters>763</AltitudeMeters>
            <DistanceMeters>5969.5139033055</DistanceMeters>
          </Trackpoint>
          <Trackpoint>
            <Time>2020-03-07T13:03:10.000Z</Time>
            <Position>
              <LatitudeDegrees>40.5658189952373504638671875</LatitudeDegrees>
              <LongitudeDegrees>-3.7142145819962024688720703125</LongitudeDegrees>
            </Position>
            <AltitudeMeters>763.79998779296875</AltitudeMeters>
            <DistanceMeters>5976.0369179616</DistanceMeters>
          </Trackpoint>
          <Trackpoint>
            <Time>2020-03-07T13:03:11.000Z</Time>
            <Position>
              <LatitudeDegrees>40.56586786173284053802490234375</LatitudeDegrees>
              <LongitudeDegrees>-3.71417082846164703369140625</LongitudeDegrees>
            </Position>
            <AltitudeMeters>764.4000244140625</AltitudeMeters>
            <DistanceMeters>5982.6143867941</DistanceMeters>
          </Trackpoint>
          <Trackpoint>
            <Time>2020-03-07T13:03:12.000Z</Time>
            <Position>
              <LatitudeDegrees>40.5659167282283306121826171875</LatitudeDegrees>
              <LongitudeDegrees>-3.714126236736774444580078125</LongitudeDegrees>
            </Position>
            <AltitudeMeters>764.79998779296875</AltitudeMeters>
            <DistanceMeters>5989.2322316664</DistanceMeters>
          </Trackpoint>
          <Trackpoint>
            <Time>2020-03-07T13:03:13.000Z</Time>
            <Position>
              <LatitudeDegrees>40.5659665167331695556640625</LatitudeDegrees>
              <LongitudeDegrees>-3.71408105827867984771728515625</LongitudeDegrees>
            </Position>
            <AltitudeMeters>765.20001220703125</AltitudeMeters>
            <DistanceMeters>5995.9630483716</DistanceMeters>
          </Trackpoint>
          <Trackpoint>
            <Time>2020-03-07T13:03:14.000Z</Time>
            <Position>
              <LatitudeDegrees>40.566016472876071929931640625</LatitudeDegrees>
              <LongitudeDegrees>-3.714035712182521820068359375</LongitudeDegrees>
            </Position>
            <AltitudeMeters>765.4000244140625</AltitudeMeters>
            <DistanceMeters>6002.7173023049</DistanceMeters>
          </Trackpoint>
          <Trackpoint>
            <Time>2020-03-07T13:03:15.000Z</Time>
            <Position>
              <LatitudeDegrees>40.5660669319331645965576171875</LatitudeDegrees>
              <LongitudeDegrees>-3.71398986317217350006103515625</LongitudeDegrees>
            </Position>
            <AltitudeMeters>765.4000244140625</AltitudeMeters>
            <DistanceMeters>6009.5413849701</DistanceMeters>
          </Trackpoint>
          <Trackpoint>
            <Time>2020-03-07T13:03:16.000Z</Time>
            <Position>
              <LatitudeDegrees>40.56611781008541584014892578125</LatitudeDegrees>
              <LongitudeDegrees>-3.71394393034279346466064453125</LongitudeDegrees>
            </Position>
            <AltitudeMeters>765.5999755859375</AltitudeMeters>
            <DistanceMeters>6016.4083391122</DistanceMeters>
          </Trackpoint>
          <Trackpoint>
            <Time>2020-03-07T13:03:17.000Z</Time>
            <Position>
              <LatitudeDegrees>40.5661681853234767913818359375</LatitudeDegrees>
              <LongitudeDegrees>-3.71389749459922313690185546875</LongitudeDegrees>
            </Position>
            <AltitudeMeters>765.79998779296875</AltitudeMeters>
            <DistanceMeters>6023.2529016688</DistanceMeters>
          </Trackpoint>
          <Trackpoint>
            <Time>2020-03-07T13:03:18.000Z</Time>
            <Position>
              <LatitudeDegrees>40.56621663272380828857421875</LatitudeDegrees>
              <LongitudeDegrees>-3.71384820900857448577880859375</LongitudeDegrees>
            </Position>
            <AltitudeMeters>766</AltitudeMeters>
            <DistanceMeters>6030.067715177</DistanceMeters>
          </Trackpoint>
          <Trackpoint>
            <Time>2020-03-07T13:03:19.000Z</Time>
            <Position>
              <LatitudeDegrees>40.56626281701028347015380859375</LatitudeDegrees>
              <LongitudeDegrees>-3.71379607357084751129150390625</LongitudeDegrees>
            </Position>
            <AltitudeMeters>766.4000244140625</AltitudeMeters>
            <DistanceMeters>6036.8393271108</DistanceMeters>
          </Trackpoint>
          <Trackpoint>
            <Time>2020-03-07T13:03:20.000Z</Time>
            <Position>
              <LatitudeDegrees>40.566308163106441497802734375</LatitudeDegrees>
              <LongitudeDegrees>-3.7137423455715179443359375</LongitudeDegrees>
            </Position>
            <AltitudeMeters>766.5999755859375</AltitudeMeters>
            <DistanceMeters>6043.6295826526</DistanceMeters>
          </Trackpoint>
          <Trackpoint>
            <Time>2020-03-07T13:03:21.000Z</Time>
            <Position>
              <LatitudeDegrees>40.5663549341261386871337890625</LatitudeDegrees>
              <LongitudeDegrees>-3.7136868573725223541259765625</LongitudeDegrees>
            </Position>
            <AltitudeMeters>766.5999755859375</AltitudeMeters>
            <DistanceMeters>6050.6377625717</DistanceMeters>
          </Trackpoint>
          <Trackpoint>
            <Time>2020-03-07T13:03:22.000Z</Time>
            <Position>
              <LatitudeDegrees>40.56640631519258022308349609375</LatitudeDegrees>
              <LongitudeDegrees>-3.71362944133579730987548828125</LongitudeDegrees>
            </Position>
            <AltitudeMeters>766.79998779296875</AltitudeMeters>
            <DistanceMeters>6058.13945814</DistanceMeters>
          </Trackpoint>
          <Trackpoint>
            <Time>2020-03-07T13:03:23.000Z</Time>
            <Position>
              <LatitudeDegrees>40.56646415032446384429931640625</LatitudeDegrees>
              <LongitudeDegrees>-3.7135708518326282501220703125</LongitudeDegrees>
            </Position>
            <AltitudeMeters>766.79998779296875</AltitudeMeters>
            <DistanceMeters>6066.2613242078</DistanceMeters>
          </Trackpoint>
          <Trackpoint>
            <Time>2020-03-07T13:03:24.000Z</Time>
            <Position>
              <LatitudeDegrees>40.5665297806262969970703125</LatitudeDegrees>
              <LongitudeDegrees>-3.71350589208304882049560546875</LongitudeDegrees>
            </Position>
            <AltitudeMeters>766.79998779296875</AltitudeMeters>
            <DistanceMeters>6075.4007009429</DistanceMeters>
          </Trackpoint>
          <Trackpoint>
            <Time>2020-03-07T13:03:25.000Z</Time>
            <Position>
              <LatitudeDegrees>40.56660328991711139678955078125</LatitudeDegrees>
              <LongitudeDegrees>-3.71343179605901241302490234375</LongitudeDegrees>
            </Position>
            <AltitudeMeters>766.79998779296875</AltitudeMeters>
            <DistanceMeters>6085.7057336445</DistanceMeters>
          </Trackpoint>
          <Trackpoint>
            <Time>2020-03-07T13:03:26.000Z</Time>
            <Position>
              <LatitudeDegrees>40.5666826665401458740234375</LatitudeDegrees>
              <LongitudeDegrees>-3.71335409581661224365234375</LongitudeDegrees>
            </Position>
            <AltitudeMeters>766.79998779296875</AltitudeMeters>
            <DistanceMeters>6096.7153074831</DistanceMeters>
          </Trackpoint>
          <Trackpoint>
            <Time>2020-03-07T13:03:27.000Z</Time>
            <Position>
              <LatitudeDegrees>40.56676371954381465911865234375</LatitudeDegrees>
              <LongitudeDegrees>-3.71327790431678295135498046875</LongitudeDegrees>
            </Position>
            <AltitudeMeters>766.79998779296875</AltitudeMeters>
            <DistanceMeters>6107.8004903976</DistanceMeters>
          </Trackpoint>
          <Trackpoint>
            <Time>2020-03-07T13:03:28.000Z</Time>
            <Position>
              <LatitudeDegrees>40.56684519164264202117919921875</LatitudeDegrees>
              <LongitudeDegrees>-3.71320263482630252838134765625</LongitudeDegrees>
            </Position>
            <AltitudeMeters>766.79998779296875</AltitudeMeters>
            <DistanceMeters>6118.878746982</DistanceMeters>
          </Trackpoint>
          <Trackpoint>
            <Time>2020-03-07T13:03:29.000Z</Time>
            <Position>
              <LatitudeDegrees>40.56692666374146938323974609375</LatitudeDegrees>
              <LongitudeDegrees>-3.7131281197071075439453125</LongitudeDegrees>
            </Position>
            <AltitudeMeters>766.79998779296875</AltitudeMeters>
            <DistanceMeters>6129.919853448</DistanceMeters>
          </Trackpoint>
          <Trackpoint>
            <Time>2020-03-07T13:03:30.000Z</Time>
            <Position>
              <LatitudeDegrees>40.56700847111642360687255859375</LatitudeDegrees>
              <LongitudeDegrees>-3.7130538560450077056884765625</LongitudeDegrees>
            </Position>
            <AltitudeMeters>766.5999755859375</AltitudeMeters>
            <DistanceMeters>6140.9797546912</DistanceMeters>
          </Trackpoint>
          <Trackpoint>
            <Time>2020-03-07T13:03:31.000Z</Time>
            <Position>
              <LatitudeDegrees>40.56708826683461666107177734375</LatitudeDegrees>
              <LongitudeDegrees>-3.71297590434551239013671875</LongitudeDegrees>
            </Position>
            <AltitudeMeters>766.20001220703125</AltitudeMeters>
            <DistanceMeters>6152.0396559345</DistanceMeters>
          </Trackpoint>
          <Trackpoint>
            <Time>2020-03-07T13:03:32.000Z</Time>
            <Position>
              <LatitudeDegrees>40.56716823019087314605712890625</LatitudeDegrees>
              <LongitudeDegrees>-3.7128947675228118896484375</LongitudeDegrees>
            </Position>
            <AltitudeMeters>765.5999755859375</AltitudeMeters>
            <DistanceMeters>6163.2761379836</DistanceMeters>
          </Trackpoint>
          <Trackpoint>
            <Time>2020-03-07T13:03:33.000Z</Time>
            <Position>
              <LatitudeDegrees>40.56724919937551021575927734375</LatitudeDegrees>
              <LongitudeDegrees>-3.71281363070011138916015625</LongitudeDegrees>
            </Position>
            <AltitudeMeters>764.4000244140625</AltitudeMeters>
            <DistanceMeters>6174.6014726722</DistanceMeters>
          </Trackpoint>
          <Trackpoint>
            <Time>2020-03-07T13:03:34.000Z</Time>
            <Position>
              <LatitudeDegrees>40.56733167730271816253662109375</LatitudeDegrees>
              <LongitudeDegrees>-3.71273492462933063507080078125</LongitudeDegrees>
            </Position>
            <AltitudeMeters>763</AltitudeMeters>
            <DistanceMeters>6185.9395575306</DistanceMeters>
          </Trackpoint>
          <Trackpoint>
            <Time>2020-03-07T13:03:35.000Z</Time>
            <Position>
              <LatitudeDegrees>40.5674167536199092864990234375</LatitudeDegrees>
              <LongitudeDegrees>-3.71266133151948451995849609375</LongitudeDegrees>
            </Position>
            <AltitudeMeters>761.79998779296875</AltitudeMeters>
            <DistanceMeters>6197.2704721839</DistanceMeters>
          </Trackpoint>
          <Trackpoint>
            <Time>2020-03-07T13:03:36.000Z</Time>
            <Position>
              <LatitudeDegrees>40.56750409305095672607421875</LatitudeDegrees>
              <LongitudeDegrees>-3.71259243227541446685791015625</LongitudeDegrees>
            </Position>
            <AltitudeMeters>759.5999755859375</AltitudeMeters>
            <DistanceMeters>6208.6033790159</DistanceMeters>
          </Trackpoint>
          <Trackpoint>
            <Time>2020-03-07T13:03:37.000Z</Time>
            <Position>
              <LatitudeDegrees>40.56759185157716274261474609375</LatitudeDegrees>
              <LongitudeDegrees>-3.71252797544002532958984375</LongitudeDegrees>
            </Position>
            <AltitudeMeters>759</AltitudeMeters>
            <DistanceMeters>6219.7883099077</DistanceMeters>
          </Trackpoint>
          <Trackpoint>
            <Time>2020-03-07T13:03:38.000Z</Time>
            <Position>
              <LatitudeDegrees>40.5676796101033687591552734375</LatitudeDegrees>
              <LongitudeDegrees>-3.712467290461063385009765625</LongitudeDegrees>
            </Position>
            <AltitudeMeters>758.5999755859375</AltitudeMeters>
            <DistanceMeters>6230.8212347449</DistanceMeters>
          </Trackpoint>
          <Trackpoint>
            <Time>2020-03-07T13:03:39.000Z</Time>
            <Position>
              <LatitudeDegrees>40.5677667818963527679443359375</LatitudeDegrees>
              <LongitudeDegrees>-3.71240861713886260986328125</LongitudeDegrees>
            </Position>
            <AltitudeMeters>758.20001220703125</AltitudeMeters>
            <DistanceMeters>6241.718275868</DistanceMeters>
          </Trackpoint>
          <Trackpoint>
            <Time>2020-03-07T13:03:40.000Z</Time>
            <Position>
              <LatitudeDegrees>40.56785370223224163055419921875</LatitudeDegrees>
              <LongitudeDegrees>-3.71235229074954986572265625</LongitudeDegrees>
            </Position>
            <AltitudeMeters>757.79998779296875</AltitudeMeters>
            <DistanceMeters>6252.5011912573</DistanceMeters>
          </Trackpoint>
          <Trackpoint>
            <Time>2020-03-07T13:03:41.000Z</Time>
            <Position>
              <LatitudeDegrees>40.56793903000652790069580078125</LatitudeDegrees>
              <LongitudeDegrees>-3.71229864656925201416015625</LongitudeDegrees>
            </Position>
            <AltitudeMeters>757.4000244140625</AltitudeMeters>
            <DistanceMeters>6263.025587566</DistanceMeters>
          </Trackpoint>
          <Trackpoint>
            <Time>2020-03-07T13:03:42.000Z</Time>
            <Position>
              <LatitudeDegrees>40.56802201084792613983154296875</LatitudeDegrees>
              <LongitudeDegrees>-3.71224500238895416259765625</LongitudeDegrees>
            </Position>
            <AltitudeMeters>756.79998779296875</AltitudeMeters>
            <DistanceMeters>6273.3148351686</DistanceMeters>
          </Trackpoint>
          <Trackpoint>
            <Time>2020-03-07T13:03:43.000Z</Time>
            <Position>
              <LatitudeDegrees>40.56810365058481693267822265625</LatitudeDegrees>
              <LongitudeDegrees>-3.712192364037036895751953125</LongitudeDegrees>
            </Position>
            <AltitudeMeters>756.5999755859375</AltitudeMeters>
            <DistanceMeters>6283.4328377702</DistanceMeters>
          </Trackpoint>
          <Trackpoint>
            <Time>2020-03-07T13:03:44.000Z</Time>
            <Position>
              <LatitudeDegrees>40.56818269193172454833984375</LatitudeDegrees>
              <LongitudeDegrees>-3.71214115060865879058837890625</LongitudeDegrees>
            </Position>
            <AltitudeMeters>756.5999755859375</AltitudeMeters>
            <DistanceMeters>6293.2385633412</DistanceMeters>
          </Trackpoint>
          <Trackpoint>
            <Time>2020-03-07T13:03:45.000Z</Time>
            <Position>
              <LatitudeDegrees>40.5682589672505855560302734375</LatitudeDegrees>
              <LongitudeDegrees>-3.712088428437709808349609375</LongitudeDegrees>
            </Position>
            <AltitudeMeters>756.4000244140625</AltitudeMeters>
            <DistanceMeters>6302.8273191705</DistanceMeters>
          </Trackpoint>
          <Trackpoint>
            <Time>2020-03-07T13:03:46.000Z</Time>
            <Position>
              <LatitudeDegrees>40.56833348236978054046630859375</LatitudeDegrees>
              <LongitudeDegrees>-3.71203436516225337982177734375</LongitudeDegrees>
            </Position>
            <AltitudeMeters>756.4000244140625</AltitudeMeters>
            <DistanceMeters>6312.2976264116</DistanceMeters>
          </Trackpoint>
          <Trackpoint>
            <Time>2020-03-07T13:03:47.000Z</Time>
            <Position>
              <LatitudeDegrees>40.5684085004031658172607421875</LatitudeDegrees>
              <LongitudeDegrees>-3.71198055334389209747314453125</LongitudeDegrees>
            </Position>
            <AltitudeMeters>756.4000244140625</AltitudeMeters>
            <DistanceMeters>6321.8069473921</DistanceMeters>
          </Trackpoint>
          <Trackpoint>
            <Time>2020-03-07T13:03:48.000Z</Time>
            <Position>
              <LatitudeDegrees>40.56848536245524883270263671875</LatitudeDegrees>
              <LongitudeDegrees>-3.71192757971584796905517578125</LongitudeDegrees>
            </Position>
            <AltitudeMeters>756.20001220703125</AltitudeMeters>
            <DistanceMeters>6331.4642052593</DistanceMeters>
          </Trackpoint>
          <Trackpoint>
            <Time>2020-03-07T13:03:49.000Z</Time>
            <Position>
              <LatitudeDegrees>40.5685627274215221405029296875</LatitudeDegrees>
              <LongitudeDegrees>-3.7118746899068355560302734375</LongitudeDegrees>
            </Position>
            <AltitudeMeters>756.20001220703125</AltitudeMeters>
            <DistanceMeters>6341.1671726922</DistanceMeters>
          </Trackpoint>
          <Trackpoint>
            <Time>2020-03-07T13:03:50.000Z</Time>
            <Position>
              <LatitudeDegrees>40.56864076294004917144775390625</LatitudeDegrees>
              <LongitudeDegrees>-3.71182112954556941986083984375</LongitudeDegrees>
            </Position>
            <AltitudeMeters>756.20001220703125</AltitudeMeters>
            <DistanceMeters>6350.9623022073</DistanceMeters>
          </Trackpoint>
          <Trackpoint>
            <Time>2020-03-07T13:03:51.000Z</Time>
            <Position>
              <LatitudeDegrees>40.56872089393436908721923828125</LatitudeDegrees>
              <LongitudeDegrees>-3.71176832355558872222900390625</LongitudeDegrees>
            </Position>
            <AltitudeMeters>756.20001220703125</AltitudeMeters>
            <DistanceMeters>6360.9360338112</DistanceMeters>
          </Trackpoint>
          <Trackpoint>
            <Time>2020-03-07T13:03:52.000Z</Time>
            <Position>
              <LatitudeDegrees>40.56880387477576732635498046875</LatitudeDegrees>
              <LongitudeDegrees>-3.71171870268881320953369140625</LongitudeDegrees>
            </Position>
            <AltitudeMeters>756</AltitudeMeters>
            <DistanceMeters>6371.0798852039</DistanceMeters>
          </Trackpoint>
          <Trackpoint>
            <Time>2020-03-07T13:03:53.000Z</Time>
            <Position>
              <LatitudeDegrees>40.56888869963586330413818359375</LatitudeDegrees>
              <LongitudeDegrees>-3.7116730213165283203125</LongitudeDegrees>
            </Position>
            <AltitudeMeters>756</AltitudeMeters>
            <DistanceMeters>6381.2805504207</DistanceMeters>
          </Trackpoint>
          <Trackpoint>
            <Time>2020-03-07T13:03:54.000Z</Time>
            <Position>
              <LatitudeDegrees>40.56897461414337158203125</LatitudeDegrees>
              <LongitudeDegrees>-3.71163102798163890838623046875</LongitudeDegrees>
            </Position>
            <AltitudeMeters>756</AltitudeMeters>
            <DistanceMeters>6391.4812156374</DistanceMeters>
          </Trackpoint>
          <Trackpoint>
            <Time>2020-03-07T13:03:55.000Z</Time>
            <Position>
              <LatitudeDegrees>40.569060780107975006103515625</LatitudeDegrees>
              <LongitudeDegrees>-3.71159196831285953521728515625</LongitudeDegrees>
            </Position>
            <AltitudeMeters>755.79998779296875</AltitudeMeters>
            <DistanceMeters>6401.6246219194</DistanceMeters>
          </Trackpoint>
          <Trackpoint>
            <Time>2020-03-07T13:03:56.000Z</Time>
            <Position>
              <LatitudeDegrees>40.56914786808192729949951171875</LatitudeDegrees>
              <LongitudeDegrees>-3.71155567467212677001953125</LongitudeDegrees>
            </Position>
            <AltitudeMeters>755.79998779296875</AltitudeMeters>
            <DistanceMeters>6411.7920362973</DistanceMeters>
          </Trackpoint>
          <Trackpoint>
            <Time>2020-03-07T13:03:57.000Z</Time>
            <Position>
              <LatitudeDegrees>40.5692359618842601776123046875</LatitudeDegrees>
              <LongitudeDegrees>-3.71152139268815517425537109375</LongitudeDegrees>
            </Position>
            <AltitudeMeters>755.5999755859375</AltitudeMeters>
            <DistanceMeters>6422.0161335638</DistanceMeters>
          </Trackpoint>
          <Trackpoint>
            <Time>2020-03-07T13:03:58.000Z</Time>
            <Position>
              <LatitudeDegrees>40.569323636591434478759765625</LatitudeDegrees>
              <LongitudeDegrees>-3.7114866077899932861328125</LongitudeDegrees>
            </Position>
            <AltitudeMeters>755.4000244140625</AltitudeMeters>
            <DistanceMeters>6432.207499481</DistanceMeters>
          </Trackpoint>
          <Trackpoint>
            <Time>2020-03-07T13:03:59.000Z</Time>
            <Position>
              <LatitudeDegrees>40.5694103054702281951904296875</LatitudeDegrees>
              <LongitudeDegrees>-3.71144847013056278228759765625</LongitudeDegrees>
            </Position>
            <AltitudeMeters>755.4000244140625</AltitudeMeters>
            <DistanceMeters>6442.3784657941</DistanceMeters>
          </Trackpoint>
          <Trackpoint>
            <Time>2020-03-07T13:04:00.000Z</Time>
            <Position>
              <LatitudeDegrees>40.5694951303303241729736328125</LatitudeDegrees>
              <LongitudeDegrees>-3.7114053033292293548583984375</LongitudeDegrees>
            </Position>
            <AltitudeMeters>755.20001220703125</AltitudeMeters>
            <DistanceMeters>6452.5004837418</DistanceMeters>
          </Trackpoint>
          <Trackpoint>
            <Time>2020-03-07T13:04:01.000Z</Time>
            <Position>
              <LatitudeDegrees>40.56957735680043697357177734375</LatitudeDegrees>
              <LongitudeDegrees>-3.7113551795482635498046875</LongitudeDegrees>
            </Position>
            <AltitudeMeters>754.79998779296875</AltitudeMeters>
            <DistanceMeters>6462.5863060256</DistanceMeters>
          </Trackpoint>
          <Trackpoint>
            <Time>2020-03-07T13:04:02.000Z</Time>
            <Position>
              <LatitudeDegrees>40.5696572363376617431640625</LatitudeDegrees>
              <LongitudeDegrees>-3.711298517882823944091796875</LongitudeDegrees>
            </Position>
            <AltitudeMeters>754.20001220703125</AltitudeMeters>
            <DistanceMeters>6472.6851021597</DistanceMeters>
          </Trackpoint>
          <Trackpoint>
            <Time>2020-03-07T13:04:03.000Z</Time>
            <Position>
              <LatitudeDegrees>40.56973694823682308197021484375</LatitudeDegrees>
              <LongitudeDegrees>-3.7112383358180522918701171875</LongitudeDegrees>
            </Position>
            <AltitudeMeters>753.79998779296875</AltitudeMeters>
            <DistanceMeters>6482.9127316762</DistanceMeters>
          </Trackpoint>
          <Trackpoint>
            <Time>2020-03-07T13:04:04.000Z</Time>
            <Position>
              <LatitudeDegrees>40.5698168277740478515625</LatitudeDegrees>
              <LongitudeDegrees>-3.711178489029407501220703125</LongitudeDegrees>
            </Position>
            <AltitudeMeters>753.5999755859375</AltitudeMeters>
            <DistanceMeters>6493.1430095798</DistanceMeters>
          </Trackpoint>
          <Trackpoint>
            <Time>2020-03-07T13:04:05.000Z</Time>
            <Position>
              <LatitudeDegrees>40.5698984675109386444091796875</LatitudeDegrees>
              <LongitudeDegrees>-3.7111233361065387725830078125</LongitudeDegrees>
            </Position>
            <AltitudeMeters>753.4000244140625</AltitudeMeters>
            <DistanceMeters>6503.3565027668</DistanceMeters>
          </Trackpoint>
          <Trackpoint>
            <Time>2020-03-07T13:04:06.000Z</Time>
            <Position>
              <LatitudeDegrees>40.56998270563781261444091796875</LatitudeDegrees>
              <LongitudeDegrees>-3.71107329614460468292236328125</LongitudeDegrees>
            </Position>
            <AltitudeMeters>753.20001220703125</AltitudeMeters>
            <DistanceMeters>6513.6431171647</DistanceMeters>
          </Trackpoint>
          <Trackpoint>
            <Time>2020-03-07T13:04:07.000Z</Time>
            <Position>
              <LatitudeDegrees>40.5700681172311305999755859375</LatitudeDegrees>
              <LongitudeDegrees>-3.71102384291589260101318359375</LongitudeDegrees>
            </Position>
            <AltitudeMeters>753</AltitudeMeters>
            <DistanceMeters>6524.0284545711</DistanceMeters>
          </Trackpoint>
          <Trackpoint>
            <Time>2020-03-07T13:04:08.000Z</Time>
            <Position>
              <LatitudeDegrees>40.57015336118638515472412109375</LatitudeDegrees>
              <LongitudeDegrees>-3.710972964763641357421875</LongitudeDegrees>
            </Position>
            <AltitudeMeters>752.79998779296875</AltitudeMeters>
            <DistanceMeters>6534.4459138921</DistanceMeters>
          </Trackpoint>
          <Trackpoint>
            <Time>2020-03-07T13:04:09.000Z</Time>
            <Position>
              <LatitudeDegrees>40.57023885659873485565185546875</LatitudeDegrees>
              <LongitudeDegrees>-3.7109221704304218292236328125</LongitudeDegrees>
            </Position>
            <AltitudeMeters>752.5999755859375</AltitudeMeters>
            <DistanceMeters>6544.8863187097</DistanceMeters>
          </Trackpoint>
          <Trackpoint>
            <Time>2020-03-07T13:04:10.000Z</Time>
            <Position>
              <LatitudeDegrees>40.57032502256333827972412109375</LatitudeDegrees>
              <LongitudeDegrees>-3.71087112464010715484619140625</LongitudeDegrees>
            </Position>
            <AltitudeMeters>752.4000244140625</AltitudeMeters>
            <DistanceMeters>6555.4029900598</DistanceMeters>
          </Trackpoint>
          <Trackpoint>
            <Time>2020-03-07T13:04:11.000Z</Time>
            <Position>
              <LatitudeDegrees>40.57041135616600513458251953125</LatitudeDegrees>
              <LongitudeDegrees>-3.71081949211657047271728515625</LongitudeDegrees>
            </Position>
            <AltitudeMeters>752</AltitudeMeters>
            <DistanceMeters>6565.9573741258</DistanceMeters>
          </Trackpoint>
          <Trackpoint>
            <Time>2020-03-07T13:04:12.000Z</Time>
            <Position>
              <LatitudeDegrees>40.5704972706735134124755859375</LatitudeDegrees>
              <LongitudeDegrees>-3.71076651848852634429931640625</LongitudeDegrees>
            </Position>
            <AltitudeMeters>752</AltitudeMeters>
            <DistanceMeters>6576.5164628106</DistanceMeters>
          </Trackpoint>
          <Trackpoint>
            <Time>2020-03-07T13:04:13.000Z</Time>
            <Position>
              <LatitudeDegrees>40.57058234699070453643798828125</LatitudeDegrees>
              <LongitudeDegrees>-3.710712455213069915771484375</LongitudeDegrees>
            </Position>
            <AltitudeMeters>751.79998779296875</AltitudeMeters>
            <DistanceMeters>6587.0314167325</DistanceMeters>
          </Trackpoint>
          <Trackpoint>
            <Time>2020-03-07T13:04:14.000Z</Time>
            <Position>
              <LatitudeDegrees>40.570667423307895660400390625</LatitudeDegrees>
              <LongitudeDegrees>-3.71065973304212093353271484375</LongitudeDegrees>
            </Position>
            <AltitudeMeters>751.79998779296875</AltitudeMeters>
            <DistanceMeters>6597.4973054795</DistanceMeters>
          </Trackpoint>
          <Trackpoint>
            <Time>2020-03-07T13:04:15.000Z</Time>
            <Position>
              <LatitudeDegrees>40.57075199671089649200439453125</LatitudeDegrees>
              <LongitudeDegrees>-3.71060625649988651275634765625</LongitudeDegrees>
            </Position>
            <AltitudeMeters>751.5999755859375</AltitudeMeters>
            <DistanceMeters>6607.939872364</DistanceMeters>
          </Trackpoint>
          <Trackpoint>
            <Time>2020-03-07T13:04:16.000Z</Time>
            <Position>
              <LatitudeDegrees>40.57083615101873874664306640625</LatitudeDegrees>
              <LongitudeDegrees>-3.71055261231958866119384765625</LongitudeDegrees>
            </Position>
            <AltitudeMeters>751.5999755859375</AltitudeMeters>
            <DistanceMeters>6618.3469246301</DistanceMeters>
          </Trackpoint>
          <Trackpoint>
            <Time>2020-03-07T13:04:17.000Z</Time>
            <Position>
              <LatitudeDegrees>40.570920892059803009033203125</LatitudeDegrees>
              <LongitudeDegrees>-3.71050215326249599456787109375</LongitudeDegrees>
            </Position>
            <AltitudeMeters>751.4000244140625</AltitudeMeters>
            <DistanceMeters>6628.6991682148</DistanceMeters>
          </Trackpoint>
          <Trackpoint>
            <Time>2020-03-07T13:04:18.000Z</Time>
            <Position>
              <LatitudeDegrees>40.5710063874721527099609375</LatitudeDegrees>
              <LongitudeDegrees>-3.7104554660618305206298828125</LongitudeDegrees>
            </Position>
            <AltitudeMeters>751.20001220703125</AltitudeMeters>
            <DistanceMeters>6639.0015717461</DistanceMeters>
          </Trackpoint>
          <Trackpoint>
            <Time>2020-03-07T13:04:19.000Z</Time>
            <Position>
              <LatitudeDegrees>40.57109154760837554931640625</LatitudeDegrees>
              <LongitudeDegrees>-3.7104102037847042083740234375</LongitudeDegrees>
            </Position>
            <AltitudeMeters>751</AltitudeMeters>
            <DistanceMeters>6649.2239024299</DistanceMeters>
          </Trackpoint>
          <Trackpoint>
            <Time>2020-03-07T13:04:20.000Z</Time>
            <Position>
              <LatitudeDegrees>40.571176372468471527099609375</LatitudeDegrees>
              <LongitudeDegrees>-3.710365779697895050048828125</LongitudeDegrees>
            </Position>
            <AltitudeMeters>750.5999755859375</AltitudeMeters>
            <DistanceMeters>6659.3846535824</DistanceMeters>
          </Trackpoint>
          <Trackpoint>
            <Time>2020-03-07T13:04:21.000Z</Time>
            <Position>
              <LatitudeDegrees>40.57126061059534549713134765625</LatitudeDegrees>
              <LongitudeDegrees>-3.71032395400106906890869140625</LongitudeDegrees>
            </Position>
            <AltitudeMeters>750.4000244140625</AltitudeMeters>
            <DistanceMeters>6669.4053546586</DistanceMeters>
          </Trackpoint>
          <Trackpoint>
            <Time>2020-03-07T13:04:22.000Z</Time>
            <Position>
              <LatitudeDegrees>40.5713445134460926055908203125</LatitudeDegrees>
              <LongitudeDegrees>-3.71028707362711429595947265625</LongitudeDegrees>
            </Position>
            <AltitudeMeters>750</AltitudeMeters>
            <DistanceMeters>6679.2505992238</DistanceMeters>
          </Trackpoint>
          <Trackpoint>
            <Time>2020-03-07T13:04:23.000Z</Time>
            <Position>
              <LatitudeDegrees>40.5714276619255542755126953125</LatitudeDegrees>
              <LongitudeDegrees>-3.710253126919269561767578125</LongitudeDegrees>
            </Position>
            <AltitudeMeters>750</AltitudeMeters>
            <DistanceMeters>6688.9400628203</DistanceMeters>
          </Trackpoint>
          <Trackpoint>
            <Time>2020-03-07T13:04:24.000Z</Time>
            <Position>
              <LatitudeDegrees>40.57150871492922306060791015625</LatitudeDegrees>
              <LongitudeDegrees>-3.7102217786014080047607421875</LongitudeDegrees>
            </Position>
            <AltitudeMeters>749.79998779296875</AltitudeMeters>
            <DistanceMeters>6698.3429069891</DistanceMeters>
          </Trackpoint>
          <Trackpoint>
            <Time>2020-03-07T13:04:25.000Z</Time>
            <Position>
              <LatitudeDegrees>40.571588091552257537841796875</LatitudeDegrees>
              <LongitudeDegrees>-3.71019151993095874786376953125</LongitudeDegrees>
            </Position>
            <AltitudeMeters>749.79998779296875</AltitudeMeters>
            <DistanceMeters>6707.5408842778</DistanceMeters>
          </Trackpoint>
          <Trackpoint>
            <Time>2020-03-07T13:04:26.000Z</Time>
            <Position>
              <LatitudeDegrees>40.5716657079756259918212890625</LatitudeDegrees>
              <LongitudeDegrees>-3.7101624347269535064697265625</LongitudeDegrees>
            </Position>
            <AltitudeMeters>749.79998779296875</AltitudeMeters>
            <DistanceMeters>6716.5227940385</DistanceMeters>
          </Trackpoint>
          <Trackpoint>
            <Time>2020-03-07T13:04:27.000Z</Time>
            <Position>
              <LatitudeDegrees>40.5717414803802967071533203125</LatitudeDegrees>
              <LongitudeDegrees>-3.71013351716101169586181640625</LongitudeDegrees>
            </Position>
            <AltitudeMeters>749.79998779296875</AltitudeMeters>
            <DistanceMeters>6725.3039000483</DistanceMeters>
          </Trackpoint>
          <Trackpoint>
            <Time>2020-03-07T13:04:28.000Z</Time>
            <Position>
              <LatitudeDegrees>40.57181532494723796844482421875</LatitudeDegrees>
              <LongitudeDegrees>-3.7101044319570064544677734375</LongitudeDegrees>
            </Position>
            <AltitudeMeters>749.79998779296875</AltitudeMeters>
            <DistanceMeters>6733.8831863295</DistanceMeters>
          </Trackpoint>
          <Trackpoint>
            <Time>2020-03-07T13:04:29.000Z</Time>
            <Position>
              <LatitudeDegrees>40.57188816368579864501953125</LatitudeDegrees>
              <LongitudeDegrees>-3.71007735840976238250732421875</LongitudeDegrees>
            </Position>
            <AltitudeMeters>749.79998779296875</AltitudeMeters>
            <DistanceMeters>6742.3068637151</DistanceMeters>
          </Trackpoint>
          <Trackpoint>
            <Time>2020-03-07T13:04:30.000Z</Time>
            <Position>
              <LatitudeDegrees>40.57196066714823246002197265625</LatitudeDegrees>
              <LongitudeDegrees>-3.710053972899913787841796875</LongitudeDegrees>
            </Position>
            <AltitudeMeters>749.79998779296875</AltitudeMeters>
            <DistanceMeters>6750.6155901166</DistanceMeters>
          </Trackpoint>
          <Trackpoint>
            <Time>2020-03-07T13:04:31.000Z</Time>
            <Position>
              <LatitudeDegrees>40.5720314942300319671630859375</LatitudeDegrees>
              <LongitudeDegrees>-3.7100323475897312164306640625</LongitudeDegrees>
            </Position>
            <AltitudeMeters>749.79998779296875</AltitudeMeters>
            <DistanceMeters>6758.7079392422</DistanceMeters>
          </Trackpoint>
          <Trackpoint>
            <Time>2020-03-07T13:04:32.000Z</Time>
            <Position>
              <LatitudeDegrees>40.57210014201700687408447265625</LatitudeDegrees>
              <LongitudeDegrees>-3.710010387003421783447265625</LongitudeDegrees>
            </Position>
            <AltitudeMeters>750</AltitudeMeters>
            <DistanceMeters>6766.5705026496</DistanceMeters>
          </Trackpoint>
          <Trackpoint>
            <Time>2020-03-07T13:04:33.000Z</Time>
            <Position>
              <LatitudeDegrees>40.57216644287109375</LatitudeDegrees>
              <LongitudeDegrees>-3.70998800732195377349853515625</LongitudeDegrees>
            </Position>
            <AltitudeMeters>750.20001220703125</AltitudeMeters>
            <DistanceMeters>6774.1874732517</DistanceMeters>
          </Trackpoint>
          <Trackpoint>
            <Time>2020-03-07T13:04:34.000Z</Time>
            <Position>
              <LatitudeDegrees>40.5722299776971340179443359375</LatitudeDegrees>
              <LongitudeDegrees>-3.7099649570882320404052734375</LongitudeDegrees>
            </Position>
            <AltitudeMeters>750.4000244140625</AltitudeMeters>
            <DistanceMeters>6781.5224030709</DistanceMeters>
          </Trackpoint>
          <Trackpoint>
            <Time>2020-03-07T13:04:35.000Z</Time>
            <Position>
              <LatitudeDegrees>40.57229141704738140106201171875</LatitudeDegrees>
              <LongitudeDegrees>-3.7099431641399860382080078125</LongitudeDegrees>
            </Position>
            <AltitudeMeters>750.79998779296875</AltitudeMeters>
            <DistanceMeters>6788.6042844996</DistanceMeters>
          </Trackpoint>
          <Trackpoint>
            <Time>2020-03-07T13:04:36.000Z</Time>
            <Position>
              <LatitudeDegrees>40.5723540298640727996826171875</LatitudeDegrees>
              <LongitudeDegrees>-3.7099220417439937591552734375</LongitudeDegrees>
            </Position>
            <AltitudeMeters>751.20001220703125</AltitudeMeters>
            <DistanceMeters>6795.7987544715</DistanceMeters>
          </Trackpoint>
          <Trackpoint>
            <Time>2020-03-07T13:04:37.000Z</Time>
            <Position>
              <LatitudeDegrees>40.5724187381565570831298828125</LatitudeDegrees>
              <LongitudeDegrees>-3.7098995782434940338134765625</LongitudeDegrees>
            </Position>
            <AltitudeMeters>751.4000244140625</AltitudeMeters>
            <DistanceMeters>6803.2460848333</DistanceMeters>
          </Trackpoint>
          <Trackpoint>
            <Time>2020-03-07T13:04:38.000Z</Time>
            <Position>
              <LatitudeDegrees>40.57248604483902454376220703125</LatitudeDegrees>
              <LongitudeDegrees>-3.7098767794668674468994140625</LongitudeDegrees>
            </Position>
            <AltitudeMeters>751.5999755859375</AltitudeMeters>
            <DistanceMeters>6810.9806990087</DistanceMeters>
          </Trackpoint>
          <Trackpoint>
            <Time>2020-03-07T13:04:39.000Z</Time>
            <Position>
              <LatitudeDegrees>40.57255511172115802764892578125</LatitudeDegrees>
              <LongitudeDegrees>-3.70985507033765316009521484375</LongitudeDegrees>
            </Position>
            <AltitudeMeters>751.79998779296875</AltitudeMeters>
            <DistanceMeters>6818.8844999196</DistanceMeters>
          </Trackpoint>
          <Trackpoint>
            <Time>2020-03-07T13:04:40.000Z</Time>
            <Position>
              <LatitudeDegrees>40.57262577116489410400390625</LatitudeDegrees>
              <LongitudeDegrees>-3.70983411557972431182861328125</LongitudeDegrees>
            </Position>
            <AltitudeMeters>752.20001220703125</AltitudeMeters>
            <DistanceMeters>6826.9466640362</DistanceMeters>
          </Trackpoint>
          <Trackpoint>
            <Time>2020-03-07T13:04:41.000Z</Time>
            <Position>
              <LatitudeDegrees>40.5726976878941059112548828125</LatitudeDegrees>
              <LongitudeDegrees>-3.7098120711743831634521484375</LongitudeDegrees>
            </Position>
            <AltitudeMeters>752.5999755859375</AltitudeMeters>
            <DistanceMeters>6835.1652388397</DistanceMeters>
          </Trackpoint>
          <Trackpoint>
            <Time>2020-03-07T13:04:42.000Z</Time>
            <Position>
              <LatitudeDegrees>40.572770275175571441650390625</LatitudeDegrees>
              <LongitudeDegrees>-3.70978868566453456878662109375</LongitudeDegrees>
            </Position>
            <AltitudeMeters>752.79998779296875</AltitudeMeters>
            <DistanceMeters>6843.4826552437</DistanceMeters>
          </Trackpoint>
          <Trackpoint>
            <Time>2020-03-07T13:04:43.000Z</Time>
            <Position>
              <LatitudeDegrees>40.572843365371227264404296875</LatitudeDegrees>
              <LongitudeDegrees>-3.7097664736211299896240234375</LongitudeDegrees>
            </Position>
            <AltitudeMeters>752.79998779296875</AltitudeMeters>
            <DistanceMeters>6851.8320378644</DistanceMeters>
          </Trackpoint>
          <Trackpoint>
            <Time>2020-03-07T13:04:44.000Z</Time>
            <Position>
              <LatitudeDegrees>40.5729179643094539642333984375</LatitudeDegrees>
              <LongitudeDegrees>-3.70974719524383544921875</LongitudeDegrees>
            </Position>
            <AltitudeMeters>752.79998779296875</AltitudeMeters>
            <DistanceMeters>6860.2931516237</DistanceMeters>
          </Trackpoint>
          <Trackpoint>
            <Time>2020-03-07T13:04:45.000Z</Time>
            <Position>
              <LatitudeDegrees>40.572992898523807525634765625</LatitudeDegrees>
              <LongitudeDegrees>-3.709733784198760986328125</LongitudeDegrees>
            </Position>
            <AltitudeMeters>753</AltitudeMeters>
            <DistanceMeters>6868.7103946272</DistanceMeters>
          </Trackpoint>
          <Trackpoint>
            <Time>2020-03-07T13:04:46.000Z</Time>
            <Position>
              <LatitudeDegrees>40.57306892238557338714599609375</LatitudeDegrees>
              <LongitudeDegrees>-3.70972640812397003173828125</LongitudeDegrees>
            </Position>
            <AltitudeMeters>753</AltitudeMeters>
            <DistanceMeters>6877.1944231122</DistanceMeters>
          </Trackpoint>
          <Trackpoint>
            <Time>2020-03-07T13:04:47.000Z</Time>
            <Position>
              <LatitudeDegrees>40.57314536534249782562255859375</LatitudeDegrees>
              <LongitudeDegrees>-3.7097222171723842620849609375</LongitudeDegrees>
            </Position>
            <AltitudeMeters>753</AltitudeMeters>
            <DistanceMeters>6885.7097923846</DistanceMeters>
          </Trackpoint>
          <Trackpoint>
            <Time>2020-03-07T13:04:48.000Z</Time>
            <Position>
              <LatitudeDegrees>40.5732203833758831024169921875</LatitudeDegrees>
              <LongitudeDegrees>-3.70971978642046451568603515625</LongitudeDegrees>
            </Position>
            <AltitudeMeters>753</AltitudeMeters>
            <DistanceMeters>6894.0624189539</DistanceMeters>
          </Trackpoint>
          <Trackpoint>
            <Time>2020-03-07T13:04:49.000Z</Time>
            <Position>
              <LatitudeDegrees>40.5732929706573486328125</LatitudeDegrees>
              <LongitudeDegrees>-3.7097212113440036773681640625</LongitudeDegrees>
            </Position>
            <AltitudeMeters>753</AltitudeMeters>
            <DistanceMeters>6902.1424840953</DistanceMeters>
          </Trackpoint>
          <Trackpoint>
            <Time>2020-03-07T13:04:50.000Z</Time>
            <Position>
              <LatitudeDegrees>40.5733632110059261322021484375</LatitudeDegrees>
              <LongitudeDegrees>-3.70972565375268459320068359375</LongitudeDegrees>
            </Position>
            <AltitudeMeters>753.20001220703125</AltitudeMeters>
            <DistanceMeters>6909.9699401745</DistanceMeters>
          </Trackpoint>
          <Trackpoint>
            <Time>2020-03-07T13:04:51.000Z</Time>
            <Position>
              <LatitudeDegrees>40.57343135587871074676513671875</LatitudeDegrees>
              <LongitudeDegrees>-3.7097262404859066009521484375</LongitudeDegrees>
            </Position>
            <AltitudeMeters>753.20001220703125</AltitudeMeters>
            <DistanceMeters>6917.5554294205</DistanceMeters>
          </Trackpoint>
          <Trackpoint>
            <Time>2020-03-07T13:04:52.000Z</Time>
            <Position>
              <LatitudeDegrees>40.57349841110408306121826171875</LatitudeDegrees>
              <LongitudeDegrees>-3.70972347445785999298095703125</LongitudeDegrees>
            </Position>
            <AltitudeMeters>753.20001220703125</AltitudeMeters>
            <DistanceMeters>6925.0227396485</DistanceMeters>
          </Trackpoint>
          <Trackpoint>
            <Time>2020-03-07T13:04:53.000Z</Time>
            <Position>
              <LatitudeDegrees>40.5735653825104236602783203125</LatitudeDegrees>
              <LongitudeDegrees>-3.709719367325305938720703125</LongitudeDegrees>
            </Position>
            <AltitudeMeters>753.4000244140625</AltitudeMeters>
            <DistanceMeters>6932.4846061277</DistanceMeters>
          </Trackpoint>
          <Trackpoint>
            <Time>2020-03-07T13:04:54.000Z</Time>
            <Position>
              <LatitudeDegrees>40.57363252155482769012451171875</LatitudeDegrees>
              <LongitudeDegrees>-3.709712326526641845703125</LongitudeDegrees>
            </Position>
            <AltitudeMeters>753.4000244140625</AltitudeMeters>
            <DistanceMeters>6939.9814851975</DistanceMeters>
          </Trackpoint>
          <Trackpoint>
            <Time>2020-03-07T13:04:55.000Z</Time>
            <Position>
              <LatitudeDegrees>40.57369957678020000457763671875</LatitudeDegrees>
              <LongitudeDegrees>-3.70970285497605800628662109375</LongitudeDegrees>
            </Position>
            <AltitudeMeters>753.4000244140625</AltitudeMeters>
            <DistanceMeters>6947.4879941738</DistanceMeters>
          </Trackpoint>
          <Trackpoint>
            <Time>2020-03-07T13:04:56.000Z</Time>
            <Position>
              <LatitudeDegrees>40.57376747019588947296142578125</LatitudeDegrees>
              <LongitudeDegrees>-3.70969329960644245147705078125</LongitudeDegrees>
            </Position>
            <AltitudeMeters>753.4000244140625</AltitudeMeters>
            <DistanceMeters>6955.0877552842</DistanceMeters>
          </Trackpoint>
          <Trackpoint>
            <Time>2020-03-07T13:04:57.000Z</Time>
            <Position>
              <LatitudeDegrees>40.57383678853511810302734375</LatitudeDegrees>
              <LongitudeDegrees>-3.70968575589358806610107421875</LongitudeDegrees>
            </Position>
            <AltitudeMeters>753.5999755859375</AltitudeMeters>
            <DistanceMeters>6962.8287879855</DistanceMeters>
          </Trackpoint>
          <Trackpoint>
            <Time>2020-03-07T13:04:58.000Z</Time>
            <Position>
              <LatitudeDegrees>40.57390786707401275634765625</LatitudeDegrees>
              <LongitudeDegrees>-3.70967812836170196533203125</LongitudeDegrees>
            </Position>
            <AltitudeMeters>753.79998779296875</AltitudeMeters>
            <DistanceMeters>6970.7656521819</DistanceMeters>
          </Trackpoint>
          <Trackpoint>
            <Time>2020-03-07T13:04:59.000Z</Time>
            <Position>
              <LatitudeDegrees>40.5739794485270977020263671875</LatitudeDegrees>
              <LongitudeDegrees>-3.7096668966114521026611328125</LongitudeDegrees>
            </Position>
            <AltitudeMeters>754.4000244140625</AltitudeMeters>
            <DistanceMeters>6978.7890813097</DistanceMeters>
          </Trackpoint>
          <Trackpoint>
            <Time>2020-03-07T13:05:00.000Z</Time>
            <Position>
              <LatitudeDegrees>40.57405270636081695556640625</LatitudeDegrees>
              <LongitudeDegrees>-3.70964887551963329315185546875</LongitudeDegrees>
            </Position>
            <AltitudeMeters>754.5999755859375</AltitudeMeters>
            <DistanceMeters>6987.0836670394</DistanceMeters>
          </Trackpoint>
          <Trackpoint>
            <Time>2020-03-07T13:05:01.000Z</Time>
            <Position>
              <LatitudeDegrees>40.574125461280345916748046875</LatitudeDegrees>
              <LongitudeDegrees>-3.70962037704885005950927734375</LongitudeDegrees>
            </Position>
            <AltitudeMeters>754.5999755859375</AltitudeMeters>
            <DistanceMeters>6995.5319641585</DistanceMeters>
          </Trackpoint>
          <Trackpoint>
            <Time>2020-03-07T13:05:02.000Z</Time>
            <Position>
              <LatitudeDegrees>40.57419352233409881591796875</LatitudeDegrees>
              <LongitudeDegrees>-3.7095770426094532012939453125</LongitudeDegrees>
            </Position>
            <AltitudeMeters>754.5999755859375</AltitudeMeters>
            <DistanceMeters>7003.9465247173</DistanceMeters>
          </Trackpoint>
          <Trackpoint>
            <Time>2020-03-07T13:05:03.000Z</Time>
            <Position>
              <LatitudeDegrees>40.57425512932240962982177734375</LatitudeDegrees>
              <LongitudeDegrees>-3.709519207477569580078125</LongitudeDegrees>
            </Position>
            <AltitudeMeters>754.5999755859375</AltitudeMeters>
            <DistanceMeters>7012.368057855</DistanceMeters>
          </Trackpoint>
          <Trackpoint>
            <Time>2020-03-07T13:05:04.000Z</Time>
            <Position>
              <LatitudeDegrees>40.57431346736848354339599609375</LatitudeDegrees>
              <LongitudeDegrees>-3.70945391245186328887939453125</LongitudeDegrees>
            </Position>
            <AltitudeMeters>754.5999755859375</AltitudeMeters>
            <DistanceMeters>7020.8908470062</DistanceMeters>
          </Trackpoint>
          <Trackpoint>
            <Time>2020-03-07T13:05:05.000Z</Time>
            <Position>
              <LatitudeDegrees>40.5743727274239063262939453125</LatitudeDegrees>
              <LongitudeDegrees>-3.7093876115977764129638671875</LongitudeDegrees>
            </Position>
            <AltitudeMeters>754.5999755859375</AltitudeMeters>
            <DistanceMeters>7029.5466279794</DistanceMeters>
          </Trackpoint>
          <Trackpoint>
            <Time>2020-03-07T13:05:06.000Z</Time>
            <Position>
              <LatitudeDegrees>40.5744350887835025787353515625</LatitudeDegrees>
              <LongitudeDegrees>-3.70932566933333873748779296875</LongitudeDegrees>
            </Position>
            <AltitudeMeters>754.5999755859375</AltitudeMeters>
            <DistanceMeters>7038.2414425253</DistanceMeters>
          </Trackpoint>
          <Trackpoint>
            <Time>2020-03-07T13:05:07.000Z</Time>
            <Position>
              <LatitudeDegrees>40.57450122199952602386474609375</LatitudeDegrees>
              <LongitudeDegrees>-3.70927034877240657806396484375</LongitudeDegrees>
            </Position>
            <AltitudeMeters>754.5999755859375</AltitudeMeters>
            <DistanceMeters>7046.9621823914</DistanceMeters>
          </Trackpoint>
          <Trackpoint>
            <Time>2020-03-07T13:05:08.000Z</Time>
            <Position>
              <LatitudeDegrees>40.5745691992342472076416015625</LatitudeDegrees>
              <LongitudeDegrees>-3.70922123081982135772705078125</LongitudeDegrees>
            </Position>
            <AltitudeMeters>754.5999755859375</AltitudeMeters>
            <DistanceMeters>7055.592889233</DistanceMeters>
          </Trackpoint>
          <Trackpoint>
            <Time>2020-03-07T13:05:09.000Z</Time>
            <Position>
              <LatitudeDegrees>40.57463935576379299163818359375</LatitudeDegrees>
              <LongitudeDegrees>-3.70917881838977336883544921875</LongitudeDegrees>
            </Position>
            <AltitudeMeters>754.5999755859375</AltitudeMeters>
            <DistanceMeters>7064.1853222415</DistanceMeters>
          </Trackpoint>
          <Trackpoint>
            <Time>2020-03-07T13:05:10.000Z</Time>
            <Position>
              <LatitudeDegrees>40.57471144013106822967529296875</LatitudeDegrees>
              <LongitudeDegrees>-3.70914411731064319610595703125</LongitudeDegrees>
            </Position>
            <AltitudeMeters>754.5999755859375</AltitudeMeters>
            <DistanceMeters>7072.7282185782</DistanceMeters>
          </Trackpoint>
          <Trackpoint>
            <Time>2020-03-07T13:05:11.000Z</Time>
            <Position>
              <LatitudeDegrees>40.57478469796478748321533203125</LatitudeDegrees>
              <LongitudeDegrees>-3.70911276899278163909912109375</LongitudeDegrees>
            </Position>
            <AltitudeMeters>754.4000244140625</AltitudeMeters>
            <DistanceMeters>7081.3022405242</DistanceMeters>
          </Trackpoint>
          <Trackpoint>
            <Time>2020-03-07T13:05:12.000Z</Time>
            <Position>
              <LatitudeDegrees>40.57485736906528472900390625</LatitudeDegrees>
              <LongitudeDegrees>-3.70908175595104694366455078125</LongitudeDegrees>
            </Position>
            <AltitudeMeters>754.4000244140625</AltitudeMeters>
            <DistanceMeters>7089.8048749401</DistanceMeters>
          </Trackpoint>
          <Trackpoint>
            <Time>2020-03-07T13:05:13.000Z</Time>
            <Position>
              <LatitudeDegrees>40.5749299563467502593994140625</LatitudeDegrees>
              <LongitudeDegrees>-3.70904915034770965576171875</LongitudeDegrees>
            </Position>
            <AltitudeMeters>754.4000244140625</AltitudeMeters>
            <DistanceMeters>7098.3414267559</DistanceMeters>
          </Trackpoint>
          <Trackpoint>
            <Time>2020-03-07T13:05:14.000Z</Time>
            <Position>
              <LatitudeDegrees>40.57500195689499378204345703125</LatitudeDegrees>
              <LongitudeDegrees>-3.70901386253535747528076171875</LongitudeDegrees>
            </Position>
            <AltitudeMeters>754.4000244140625</AltitudeMeters>
            <DistanceMeters>7106.8922471239</DistanceMeters>
          </Trackpoint>
          <Trackpoint>
            <Time>2020-03-07T13:05:15.000Z</Time>
            <Position>
              <LatitudeDegrees>40.5750739574432373046875</LatitudeDegrees>
              <LongitudeDegrees>-3.7089762277901172637939453125</LongitudeDegrees>
            </Position>
            <AltitudeMeters>754.4000244140625</AltitudeMeters>
            <DistanceMeters>7115.5140560575</DistanceMeters>
          </Trackpoint>
          <Trackpoint>
            <Time>2020-03-07T13:05:16.000Z</Time>
            <Position>
              <LatitudeDegrees>40.57514629326760768890380859375</LatitudeDegrees>
              <LongitudeDegrees>-3.70893674902617931365966796875</LongitudeDegrees>
            </Position>
            <AltitudeMeters>754.4000244140625</AltitudeMeters>
            <DistanceMeters>7124.2296170289</DistanceMeters>
          </Trackpoint>
          <Trackpoint>
            <Time>2020-03-07T13:05:17.000Z</Time>
            <Position>
              <LatitudeDegrees>40.5752179585397243499755859375</LatitudeDegrees>
              <LongitudeDegrees>-3.70889383368194103240966796875</LongitudeDegrees>
            </Position>
            <AltitudeMeters>754.20001220703125</AltitudeMeters>
            <DistanceMeters>7132.9927083829</DistanceMeters>
          </Trackpoint>
          <Trackpoint>
            <Time>2020-03-07T13:05:18.000Z</Time>
            <Position>
              <LatitudeDegrees>40.57528794743120670318603515625</LatitudeDegrees>
              <LongitudeDegrees>-3.70884588919579982757568359375</LongitudeDegrees>
            </Position>
            <AltitudeMeters>754.20001220703125</AltitudeMeters>
            <DistanceMeters>7141.7738143927</DistanceMeters>
          </Trackpoint>
          <Trackpoint>
            <Time>2020-03-07T13:05:19.000Z</Time>
            <Position>
              <LatitudeDegrees>40.57535718195140361785888671875</LatitudeDegrees>
              <LongitudeDegrees>-3.70879375375807285308837890625</LongitudeDegrees>
            </Position>
            <AltitudeMeters>754.20001220703125</AltitudeMeters>
            <DistanceMeters>7150.651059299</DistanceMeters>
          </Trackpoint>
          <Trackpoint>
            <Time>2020-03-07T13:05:20.000Z</Time>
            <Position>
              <LatitudeDegrees>40.5754248239099979400634765625</LatitudeDegrees>
              <LongitudeDegrees>-3.70873860083520412445068359375</LongitudeDegrees>
            </Position>
            <AltitudeMeters>754.20001220703125</AltitudeMeters>
            <DistanceMeters>7159.5064070527</DistanceMeters>
          </Trackpoint>
          <Trackpoint>
            <Time>2020-03-07T13:05:21.000Z</Time>
            <Position>
              <LatitudeDegrees>40.5754918791353702545166015625</LatitudeDegrees>
              <LongitudeDegrees>-3.708682022988796234130859375</LongitudeDegrees>
            </Position>
            <AltitudeMeters>754.20001220703125</AltitudeMeters>
            <DistanceMeters>7168.3709276385</DistanceMeters>
          </Trackpoint>
          <Trackpoint>
            <Time>2020-03-07T13:05:22.000Z</Time>
            <Position>
              <LatitudeDegrees>40.57555784471333026885986328125</LatitudeDegrees>
              <LongitudeDegrees>-3.70862393639981746673583984375</LongitudeDegrees>
            </Position>
            <AltitudeMeters>754.20001220703125</AltitudeMeters>
            <DistanceMeters>7177.2043239588</DistanceMeters>
          </Trackpoint>
          <Trackpoint>
            <Time>2020-03-07T13:05:23.000Z</Time>
            <Position>
              <LatitudeDegrees>40.57562313973903656005859375</LatitudeDegrees>
              <LongitudeDegrees>-3.7085641734302043914794921875</LongitudeDegrees>
            </Position>
            <AltitudeMeters>754.20001220703125</AltitudeMeters>
            <DistanceMeters>7186.055591847</DistanceMeters>
          </Trackpoint>
          <Trackpoint>
            <Time>2020-03-07T13:05:24.000Z</Time>
            <Position>
              <LatitudeDegrees>40.575687848031520843505859375</LatitudeDegrees>
              <LongitudeDegrees>-3.708502985537052154541015625</LongitudeDegrees>
            </Position>
            <AltitudeMeters>754.20001220703125</AltitudeMeters>
            <DistanceMeters>7194.9231679348</DistanceMeters>
          </Trackpoint>
          <Trackpoint>
            <Time>2020-03-07T13:05:25.000Z</Time>
            <Position>
              <LatitudeDegrees>40.57575096376240253448486328125</LatitudeDegrees>
              <LongitudeDegrees>-3.70843936689198017120361328125</LongitudeDegrees>
            </Position>
            <AltitudeMeters>754.20001220703125</AltitudeMeters>
            <DistanceMeters>7203.770354076</DistanceMeters>
          </Trackpoint>
          <Trackpoint>
            <Time>2020-03-07T13:05:26.000Z</Time>
            <Position>
              <LatitudeDegrees>40.57581298984587192535400390625</LatitudeDegrees>
              <LongitudeDegrees>-3.70837331749498844146728515625</LongitudeDegrees>
            </Position>
            <AltitudeMeters>754.20001220703125</AltitudeMeters>
            <DistanceMeters>7212.6491246753</DistanceMeters>
          </Trackpoint>
          <Trackpoint>
            <Time>2020-03-07T13:05:27.000Z</Time>
            <Position>
              <LatitudeDegrees>40.575874932110309600830078125</LatitudeDegrees>
              <LongitudeDegrees>-3.70830693282186985015869140625</LongitudeDegrees>
            </Position>
            <AltitudeMeters>754.20001220703125</AltitudeMeters>
            <DistanceMeters>7221.5390756897</DistanceMeters>
          </Trackpoint>
          <Trackpoint>
            <Time>2020-03-07T13:05:28.000Z</Time>
            <Position>
              <LatitudeDegrees>40.5759364552795886993408203125</LatitudeDegrees>
              <LongitudeDegrees>-3.708240129053592681884765625</LongitudeDegrees>
            </Position>
            <AltitudeMeters>754.20001220703125</AltitudeMeters>
            <DistanceMeters>7230.4147946407</DistanceMeters>
          </Trackpoint>
          <Trackpoint>
            <Time>2020-03-07T13:05:29.000Z</Time>
            <Position>
              <LatitudeDegrees>40.575998984277248382568359375</LatitudeDegrees>
              <LongitudeDegrees>-3.708172403275966644287109375</LongitudeDegrees>
            </Position>
            <AltitudeMeters>754</AltitudeMeters>
            <DistanceMeters>7239.4263137945</DistanceMeters>
          </Trackpoint>
          <Trackpoint>
            <Time>2020-03-07T13:05:30.000Z</Time>
            <Position>
              <LatitudeDegrees>40.57606033980846405029296875</LatitudeDegrees>
              <LongitudeDegrees>-3.70810342021286487579345703125</LongitudeDegrees>
            </Position>
            <AltitudeMeters>754</AltitudeMeters>
            <DistanceMeters>7248.4062126049</DistanceMeters>
          </Trackpoint>
          <Trackpoint>
            <Time>2020-03-07T13:05:31.000Z</Time>
            <Position>
              <LatitudeDegrees>40.57612077333033084869384765625</LatitudeDegrees>
              <LongitudeDegrees>-3.70803334750235080718994140625</LongitudeDegrees>
            </Position>
            <AltitudeMeters>753.79998779296875</AltitudeMeters>
            <DistanceMeters>7257.3690001203</DistanceMeters>
          </Trackpoint>
          <Trackpoint>
            <Time>2020-03-07T13:05:32.000Z</Time>
            <Position>
              <LatitudeDegrees>40.57618095539510250091552734375</LatitudeDegrees>
              <LongitudeDegrees>-3.70796327479183673858642578125</LongitudeDegrees>
            </Position>
            <AltitudeMeters>754</AltitudeMeters>
            <DistanceMeters>7266.3111098775</DistanceMeters>
          </Trackpoint>
          <Trackpoint>
            <Time>2020-03-07T13:05:33.000Z</Time>
            <Position>
              <LatitudeDegrees>40.5762422271072864532470703125</LatitudeDegrees>
              <LongitudeDegrees>-3.70789445936679840087890625</LongitudeDegrees>
            </Position>
            <AltitudeMeters>753.79998779296875</AltitudeMeters>
            <DistanceMeters>7275.2754085269</DistanceMeters>
          </Trackpoint>
          <Trackpoint>
            <Time>2020-03-07T13:05:34.000Z</Time>
            <Position>
              <LatitudeDegrees>40.57630383409559726715087890625</LatitudeDegrees>
              <LongitudeDegrees>-3.70782597921788692474365234375</LongitudeDegrees>
            </Position>
            <AltitudeMeters>753.79998779296875</AltitudeMeters>
            <DistanceMeters>7284.2492717823</DistanceMeters>
          </Trackpoint>
          <Trackpoint>
            <Time>2020-03-07T13:05:35.000Z</Time>
            <Position>
              <LatitudeDegrees>40.5763646028935909271240234375</LatitudeDegrees>
              <LongitudeDegrees>-3.70775699615478515625</LongitudeDegrees>
            </Position>
            <AltitudeMeters>753.5999755859375</AltitudeMeters>
            <DistanceMeters>7293.1797608592</DistanceMeters>
          </Trackpoint>
          <Trackpoint>
            <Time>2020-03-07T13:05:36.000Z</Time>
            <Position>
              <LatitudeDegrees>40.57642403058707714080810546875</LatitudeDegrees>
              <LongitudeDegrees>-3.70768851600587368011474609375</LongitudeDegrees>
            </Position>
            <AltitudeMeters>753.5999755859375</AltitudeMeters>
            <DistanceMeters>7301.9696035231</DistanceMeters>
          </Trackpoint>
          <Trackpoint>
            <Time>2020-03-07T13:05:37.000Z</Time>
            <Position>
              <LatitudeDegrees>40.57648438028991222381591796875</LatitudeDegrees>
              <LongitudeDegrees>-3.70762288570404052734375</LongitudeDegrees>
            </Position>
            <AltitudeMeters>753.5999755859375</AltitudeMeters>
            <DistanceMeters>7310.68205568</DistanceMeters>
          </Trackpoint>
          <Trackpoint>
            <Time>2020-03-07T13:05:38.000Z</Time>
            <Position>
              <LatitudeDegrees>40.57654791511595249176025390625</LatitudeDegrees>
              <LongitudeDegrees>-3.7075647152960300445556640625</LongitudeDegrees>
            </Position>
            <AltitudeMeters>753.4000244140625</AltitudeMeters>
            <DistanceMeters>7319.2954817152</DistanceMeters>
          </Trackpoint>
          <Trackpoint>
            <Time>2020-03-07T13:05:39.000Z</Time>
            <Position>
              <LatitudeDegrees>40.5766150541603565216064453125</LatitudeDegrees>
              <LongitudeDegrees>-3.70751417241990566253662109375</LongitudeDegrees>
            </Position>
            <AltitudeMeters>753.4000244140625</AltitudeMeters>
            <DistanceMeters>7327.9036642934</DistanceMeters>
          </Trackpoint>
          <Trackpoint>
            <Time>2020-03-07T13:05:40.000Z</Time>
            <Position>
              <LatitudeDegrees>40.57668353430926799774169921875</LatitudeDegrees>
              <LongitudeDegrees>-3.70746706612408161163330078125</LongitudeDegrees>
            </Position>
            <AltitudeMeters>753.4000244140625</AltitudeMeters>
            <DistanceMeters>7336.502925657</DistanceMeters>
          </Trackpoint>
          <Trackpoint>
            <Time>2020-03-07T13:05:41.000Z</Time>
            <Position>
              <LatitudeDegrees>40.57675243355333805084228515625</LatitudeDegrees>
              <LongitudeDegrees>-3.70742239058017730712890625</LongitudeDegrees>
            </Position>
            <AltitudeMeters>753.20001220703125</AltitudeMeters>
            <DistanceMeters>7345.0511054974</DistanceMeters>
          </Trackpoint>
          <Trackpoint>
            <Time>2020-03-07T13:05:42.000Z</Time>
            <Position>
              <LatitudeDegrees>40.57682208716869354248046875</LatitudeDegrees>
              <LongitudeDegrees>-3.7073828279972076416015625</LongitudeDegrees>
            </Position>
            <AltitudeMeters>753</AltitudeMeters>
            <DistanceMeters>7353.4940566076</DistanceMeters>
          </Trackpoint>
          <Trackpoint>
            <Time>2020-03-07T13:05:43.000Z</Time>
            <Position>
              <LatitudeDegrees>40.5768913216888904571533203125</LatitudeDegrees>
              <LongitudeDegrees>-3.70734837837517261505126953125</LongitudeDegrees>
            </Position>
            <AltitudeMeters>753</AltitudeMeters>
            <DistanceMeters>7361.7318369201</DistanceMeters>
          </Trackpoint>
          <Trackpoint>
            <Time>2020-03-07T13:05:44.000Z</Time>
            <Position>
              <LatitudeDegrees>40.57696030475199222564697265625</LatitudeDegrees>
              <LongitudeDegrees>-3.70731870643794536590576171875</LongitudeDegrees>
            </Position>
            <AltitudeMeters>752.79998779296875</AltitudeMeters>
            <DistanceMeters>7369.8096666028</DistanceMeters>
          </Trackpoint>
          <Trackpoint>
            <Time>2020-03-07T13:05:45.000Z</Time>
            <Position>
              <LatitudeDegrees>40.5770294554531574249267578125</LatitudeDegrees>
              <LongitudeDegrees>-3.70729289017617702484130859375</LongitudeDegrees>
            </Position>
            <AltitudeMeters>752.79998779296875</AltitudeMeters>
            <DistanceMeters>7377.809990461</DistanceMeters>
          </Trackpoint>
          <Trackpoint>
            <Time>2020-03-07T13:05:46.000Z</Time>
            <Position>
              <LatitudeDegrees>40.57709835469722747802734375</LatitudeDegrees>
              <LongitudeDegrees>-3.70726774446666240692138671875</LongitudeDegrees>
            </Position>
            <AltitudeMeters>752.79998779296875</AltitudeMeters>
            <DistanceMeters>7385.7673075984</DistanceMeters>
          </Trackpoint>
          <Trackpoint>
            <Time>2020-03-07T13:05:47.000Z</Time>
            <Position>
              <LatitudeDegrees>40.57716666720807552337646484375</LatitudeDegrees>
              <LongitudeDegrees>-3.70723907835781574249267578125</LongitudeDegrees>
            </Position>
            <AltitudeMeters>752.79998779296875</AltitudeMeters>
            <DistanceMeters>7393.7467229282</DistanceMeters>
          </Trackpoint>
          <Trackpoint>
            <Time>2020-03-07T13:05:48.000Z</Time>
            <Position>
              <LatitudeDegrees>40.57723321951925754547119140625</LatitudeDegrees>
              <LongitudeDegrees>-3.70720521546900272369384765625</LongitudeDegrees>
            </Position>
            <AltitudeMeters>752.79998779296875</AltitudeMeters>
            <DistanceMeters>7401.6881367749</DistanceMeters>
          </Trackpoint>
          <Trackpoint>
            <Time>2020-03-07T13:05:49.000Z</Time>
            <Position>
              <LatitudeDegrees>40.5772983469069004058837890625</LatitudeDegrees>
              <LongitudeDegrees>-3.70716732926666736602783203125</LongitudeDegrees>
            </Position>
            <AltitudeMeters>752.79998779296875</AltitudeMeters>
            <DistanceMeters>7409.6124759645</DistanceMeters>
          </Trackpoint>
          <Trackpoint>
            <Time>2020-03-07T13:05:50.000Z</Time>
            <Position>
              <LatitudeDegrees>40.57736196555197238922119140625</LatitudeDegrees>
              <LongitudeDegrees>-3.70712592266499996185302734375</LongitudeDegrees>
            </Position>
            <AltitudeMeters>752.79998779296875</AltitudeMeters>
            <DistanceMeters>7417.5111339613</DistanceMeters>
          </Trackpoint>
          <Trackpoint>
            <Time>2020-03-07T13:05:51.000Z</Time>
            <Position>
              <LatitudeDegrees>40.57742558419704437255859375</LatitudeDegrees>
              <LongitudeDegrees>-3.70708351023495197296142578125</LongitudeDegrees>
            </Position>
            <AltitudeMeters>752.79998779296875</AltitudeMeters>
            <DistanceMeters>7425.4479981578</DistanceMeters>
          </Trackpoint>
          <Trackpoint>
            <Time>2020-03-07T13:05:52.000Z</Time>
            <Position>
              <LatitudeDegrees>40.57748937048017978668212890625</LatitudeDegrees>
              <LongitudeDegrees>-3.70704176835715770721435546875</LongitudeDegrees>
            </Position>
            <AltitudeMeters>752.79998779296875</AltitudeMeters>
            <DistanceMeters>7433.3763247231</DistanceMeters>
          </Trackpoint>
          <Trackpoint>
            <Time>2020-03-07T13:05:53.000Z</Time>
            <Position>
              <LatitudeDegrees>40.57755206711590290069580078125</LatitudeDegrees>
              <LongitudeDegrees>-3.70699818246066570281982421875</LongitudeDegrees>
            </Position>
            <AltitudeMeters>753</AltitudeMeters>
            <DistanceMeters>7441.267548149</DistanceMeters>
          </Trackpoint>
          <Trackpoint>
            <Time>2020-03-07T13:05:54.000Z</Time>
            <Position>
              <LatitudeDegrees>40.57761291973292827606201171875</LatitudeDegrees>
              <LongitudeDegrees>-3.706948645412921905517578125</LongitudeDegrees>
            </Position>
            <AltitudeMeters>753.20001220703125</AltitudeMeters>
            <DistanceMeters>7449.2305373358</DistanceMeters>
          </Trackpoint>
          <Trackpoint>
            <Time>2020-03-07T13:05:55.000Z</Time>
            <Position>
              <LatitudeDegrees>40.577672012150287628173828125</LatitudeDegrees>
              <LongitudeDegrees>-3.70689474977552890777587890625</LongitudeDegrees>
            </Position>
            <AltitudeMeters>753.79998779296875</AltitudeMeters>
            <DistanceMeters>7457.2319898282</DistanceMeters>
          </Trackpoint>
          <Trackpoint>
            <Time>2020-03-07T13:05:56.000Z</Time>
            <Position>
              <LatitudeDegrees>40.57773227803409099578857421875</LatitudeDegrees>
              <LongitudeDegrees>-3.7068405188620090484619140625</LongitudeDegrees>
            </Position>
            <AltitudeMeters>754</AltitudeMeters>
            <DistanceMeters>7465.3577463443</DistanceMeters>
          </Trackpoint>
          <Trackpoint>
            <Time>2020-03-07T13:05:57.000Z</Time>
            <Position>
              <LatitudeDegrees>40.577796064317226409912109375</LatitudeDegrees>
              <LongitudeDegrees>-3.70679207146167755126953125</LongitudeDegrees>
            </Position>
            <AltitudeMeters>754.20001220703125</AltitudeMeters>
            <DistanceMeters>7473.5543168919</DistanceMeters>
          </Trackpoint>
          <Trackpoint>
            <Time>2020-03-07T13:05:58.000Z</Time>
            <Position>
              <LatitudeDegrees>40.57786236517131328582763671875</LatitudeDegrees>
              <LongitudeDegrees>-3.70674823410809040069580078125</LongitudeDegrees>
            </Position>
            <AltitudeMeters>754.4000244140625</AltitudeMeters>
            <DistanceMeters>7481.811804841</DistanceMeters>
          </Trackpoint>
          <Trackpoint>
            <Time>2020-03-07T13:05:59.000Z</Time>
            <Position>
              <LatitudeDegrees>40.5779300071299076080322265625</LatitudeDegrees>
              <LongitudeDegrees>-3.70670716278254985809326171875</LongitudeDegrees>
            </Position>
            <AltitudeMeters>754.4000244140625</AltitudeMeters>
            <DistanceMeters>7490.1025793459</DistanceMeters>
          </Trackpoint>
          <Trackpoint>
            <Time>2020-03-07T13:06:00.000Z</Time>
            <Position>
              <LatitudeDegrees>40.57799899019300937652587890625</LatitudeDegrees>
              <LongitudeDegrees>-3.70666743256151676177978515625</LongitudeDegrees>
            </Position>
            <AltitudeMeters>754.5999755859375</AltitudeMeters>
            <DistanceMeters>7498.482728778</DistanceMeters>
          </Trackpoint>
          <Trackpoint>
            <Time>2020-03-07T13:06:01.000Z</Time>
            <Position>
              <LatitudeDegrees>40.57806805707514286041259765625</LatitudeDegrees>
              <LongitudeDegrees>-3.70662719942629337310791015625</LongitudeDegrees>
            </Position>
            <AltitudeMeters>754.79998779296875</AltitudeMeters>
            <DistanceMeters>7506.8886997614</DistanceMeters>
          </Trackpoint>
          <Trackpoint>
            <Time>2020-03-07T13:06:02.000Z</Time>
            <Position>
              <LatitudeDegrees>40.5781365372240543365478515625</LatitudeDegrees>
              <LongitudeDegrees>-3.7065862119197845458984375</LongitudeDegrees>
            </Position>
            <AltitudeMeters>754.79998779296875</AltitudeMeters>
            <DistanceMeters>7515.2618421531</DistanceMeters>
          </Trackpoint>
          <Trackpoint>
            <Time>2020-03-07T13:06:03.000Z</Time>
            <Position>
              <LatitudeDegrees>40.57820484973490238189697265625</LatitudeDegrees>
              <LongitudeDegrees>-3.70654606260359287261962890625</LongitudeDegrees>
            </Position>
            <AltitudeMeters>754.79998779296875</AltitudeMeters>
            <DistanceMeters>7523.5884817476</DistanceMeters>
          </Trackpoint>
          <Trackpoint>
            <Time>2020-03-07T13:06:04.000Z</Time>
            <Position>
              <LatitudeDegrees>40.5782740004360675811767578125</LatitudeDegrees>
              <LongitudeDegrees>-3.70650566183030605316162109375</LongitudeDegrees>
            </Position>
            <AltitudeMeters>754.79998779296875</AltitudeMeters>
            <DistanceMeters>7532.0089425567</DistanceMeters>
          </Trackpoint>
          <Trackpoint>
            <Time>2020-03-07T13:06:05.000Z</Time>
            <Position>
              <LatitudeDegrees>40.578343570232391357421875</LatitudeDegrees>
              <LongitudeDegrees>-3.70646492578089237213134765625</LongitudeDegrees>
            </Position>
            <AltitudeMeters>754.79998779296875</AltitudeMeters>
            <DistanceMeters>7540.4839191369</DistanceMeters>
          </Trackpoint>
          <Trackpoint>
            <Time>2020-03-07T13:06:06.000Z</Time>
            <Position>
              <LatitudeDegrees>40.578413307666778564453125</LatitudeDegrees>
              <LongitudeDegrees>-3.70642460882663726806640625</LongitudeDegrees>
            </Position>
            <AltitudeMeters>754.79998779296875</AltitudeMeters>
            <DistanceMeters>7548.9610264466</DistanceMeters>
          </Trackpoint>
          <Trackpoint>
            <Time>2020-03-07T13:06:07.000Z</Time>
            <Position>
              <LatitudeDegrees>40.57848329655826091766357421875</LatitudeDegrees>
              <LongitudeDegrees>-3.70638328604400157928466796875</LongitudeDegrees>
            </Position>
            <AltitudeMeters>754.79998779296875</AltitudeMeters>
            <DistanceMeters>7557.49863601</DistanceMeters>
          </Trackpoint>
          <Trackpoint>
            <Time>2020-03-07T13:06:08.000Z</Time>
            <Position>
              <LatitudeDegrees>40.5785532854497432708740234375</LatitudeDegrees>
              <LongitudeDegrees>-3.70634120889008045196533203125</LongitudeDegrees>
            </Position>
            <AltitudeMeters>754.79998779296875</AltitudeMeters>
            <DistanceMeters>7566.0621195769</DistanceMeters>
          </Trackpoint>
          <Trackpoint>
            <Time>2020-03-07T13:06:09.000Z</Time>
            <Position>
              <LatitudeDegrees>40.57862310670316219329833984375</LatitudeDegrees>
              <LongitudeDegrees>-3.70629846118390560150146484375</LongitudeDegrees>
            </Position>
            <AltitudeMeters>754.79998779296875</AltitudeMeters>
            <DistanceMeters>7574.6324545642</DistanceMeters>
          </Trackpoint>
          <Trackpoint>
            <Time>2020-03-07T13:06:10.000Z</Time>
            <Position>
              <LatitudeDegrees>40.57869292795658111572265625</LatitudeDegrees>
              <LongitudeDegrees>-3.70625638402998447418212890625</LongitudeDegrees>
            </Position>
            <AltitudeMeters>754.79998779296875</AltitudeMeters>
            <DistanceMeters>7583.1790496965</DistanceMeters>
          </Trackpoint>
          <Trackpoint>
            <Time>2020-03-07T13:06:11.000Z</Time>
            <Position>
              <LatitudeDegrees>40.5787638388574123382568359375</LatitudeDegrees>
              <LongitudeDegrees>-3.70621682144701480865478515625</LongitudeDegrees>
            </Position>
            <AltitudeMeters>754.79998779296875</AltitudeMeters>
            <DistanceMeters>7591.7514917115</DistanceMeters>
          </Trackpoint>
          <Trackpoint>
            <Time>2020-03-07T13:06:12.000Z</Time>
            <Position>
              <LatitudeDegrees>40.578835420310497283935546875</LatitudeDegrees>
              <LongitudeDegrees>-3.70617910288274288177490234375</LongitudeDegrees>
            </Position>
            <AltitudeMeters>754.79998779296875</AltitudeMeters>
            <DistanceMeters>7600.3334089494</DistanceMeters>
          </Trackpoint>
          <Trackpoint>
            <Time>2020-03-07T13:06:13.000Z</Time>
            <Position>
              <LatitudeDegrees>40.57890809141099452972412109375</LatitudeDegrees>
              <LongitudeDegrees>-3.70614272542297840118408203125</LongitudeDegrees>
            </Position>
            <AltitudeMeters>754.79998779296875</AltitudeMeters>
            <DistanceMeters>7608.9865814239</DistanceMeters>
          </Trackpoint>
          <Trackpoint>
            <Time>2020-03-07T13:06:14.000Z</Time>
            <Position>
              <LatitudeDegrees>40.578981600701808929443359375</LatitudeDegrees>
              <LongitudeDegrees>-3.70610802434384822845458984375</LongitudeDegrees>
            </Position>
            <AltitudeMeters>754.5999755859375</AltitudeMeters>
            <DistanceMeters>7617.6782797349</DistanceMeters>
          </Trackpoint>
          <Trackpoint>
            <Time>2020-03-07T13:06:15.000Z</Time>
            <Position>
              <LatitudeDegrees>40.57905661873519420623779296875</LatitudeDegrees>
              <LongitudeDegrees>-3.706077598035335540771484375</LongitudeDegrees>
            </Position>
            <AltitudeMeters>754.5999755859375</AltitudeMeters>
            <DistanceMeters>7626.4145378643</DistanceMeters>
          </Trackpoint>
          <Trackpoint>
            <Time>2020-03-07T13:06:16.000Z</Time>
            <Position>
              <LatitudeDegrees>40.57913222350180149078369140625</LatitudeDegrees>
              <LongitudeDegrees>-3.70605085976421833038330078125</LongitudeDegrees>
            </Position>
            <AltitudeMeters>754.5999755859375</AltitudeMeters>
            <DistanceMeters>7635.1275082341</DistanceMeters>
          </Trackpoint>
          <Trackpoint>
            <Time>2020-03-07T13:06:17.000Z</Time>
            <Position>
              <LatitudeDegrees>40.57920833118259906768798828125</LatitudeDegrees>
              <LongitudeDegrees>-3.70602705515921115875244140625</LongitudeDegrees>
            </Position>
            <AltitudeMeters>754.4000244140625</AltitudeMeters>
            <DistanceMeters>7643.833739432</DistanceMeters>
          </Trackpoint>
          <Trackpoint>
            <Time>2020-03-07T13:06:18.000Z</Time>
            <Position>
              <LatitudeDegrees>40.57928443886339664459228515625</LatitudeDegrees>
              <LongitudeDegrees>-3.7060046754777431488037109375</LongitudeDegrees>
            </Position>
            <AltitudeMeters>754.4000244140625</AltitudeMeters>
            <DistanceMeters>7652.5129616146</DistanceMeters>
          </Trackpoint>
          <Trackpoint>
            <Time>2020-03-07T13:06:19.000Z</Time>
            <Position>
              <LatitudeDegrees>40.57935954071581363677978515625</LatitudeDegrees>
              <LongitudeDegrees>-3.705983720719814300537109375</LongitudeDegrees>
            </Position>
            <AltitudeMeters>754.4000244140625</AltitudeMeters>
            <DistanceMeters>7661.0569149134</DistanceMeters>
          </Trackpoint>
          <Trackpoint>
            <Time>2020-03-07T13:06:20.000Z</Time>
            <Position>
              <LatitudeDegrees>40.57943455874919891357421875</LatitudeDegrees>
              <LongitudeDegrees>-3.7059657834470272064208984375</LongitudeDegrees>
            </Position>
            <AltitudeMeters>754.20001220703125</AltitudeMeters>
            <DistanceMeters>7669.5425397911</DistanceMeters>
          </Trackpoint>
          <Trackpoint>
            <Time>2020-03-07T13:06:21.000Z</Time>
            <Position>
              <LatitudeDegrees>40.57950907386839389801025390625</LatitudeDegrees>
              <LongitudeDegrees>-3.7059513665735721588134765625</LongitudeDegrees>
            </Position>
            <AltitudeMeters>754.20001220703125</AltitudeMeters>
            <DistanceMeters>7677.9248440573</DistanceMeters>
          </Trackpoint>
          <Trackpoint>
            <Time>2020-03-07T13:06:22.000Z</Time>
            <Position>
              <LatitudeDegrees>40.579582750797271728515625</LatitudeDegrees>
              <LongitudeDegrees>-3.7059406377375125885009765625</LongitudeDegrees>
            </Position>
            <AltitudeMeters>754.20001220703125</AltitudeMeters>
            <DistanceMeters>7686.1746735196</DistanceMeters>
          </Trackpoint>
          <Trackpoint>
            <Time>2020-03-07T13:06:23.000Z</Time>
            <Position>
              <LatitudeDegrees>40.57965609245002269744873046875</LatitudeDegrees>
              <LongitudeDegrees>-3.70593284256756305694580078125</LongitudeDegrees>
            </Position>
            <AltitudeMeters>754.20001220703125</AltitudeMeters>
            <DistanceMeters>7694.3635286089</DistanceMeters>
          </Trackpoint>
          <Trackpoint>
            <Time>2020-03-07T13:06:24.000Z</Time>
            <Position>
              <LatitudeDegrees>40.57972826063632965087890625</LatitudeDegrees>
              <LongitudeDegrees>-3.70592731051146984100341796875</LongitudeDegrees>
            </Position>
            <AltitudeMeters>754.20001220703125</AltitudeMeters>
            <DistanceMeters>7702.408874341</DistanceMeters>
          </Trackpoint>
          <Trackpoint>
            <Time>2020-03-07T13:06:25.000Z</Time>
            <Position>
              <LatitudeDegrees>40.57979942299425601959228515625</LatitudeDegrees>
              <LongitudeDegrees>-3.70592647232115268707275390625</LongitudeDegrees>
            </Position>
            <AltitudeMeters>754.20001220703125</AltitudeMeters>
            <DistanceMeters>7710.3297941824</DistanceMeters>
          </Trackpoint>
          <Trackpoint>
            <Time>2020-03-07T13:06:26.000Z</Time>
            <Position>
              <LatitudeDegrees>40.579869411885738372802734375</LatitudeDegrees>
              <LongitudeDegrees>-3.70592915453016757965087890625</LongitudeDegrees>
            </Position>
            <AltitudeMeters>754.20001220703125</AltitudeMeters>
            <DistanceMeters>7718.1231435369</DistanceMeters>
          </Trackpoint>
          <Trackpoint>
            <Time>2020-03-07T13:06:27.000Z</Time>
            <Position>
              <LatitudeDegrees>40.57993755675852298736572265625</LatitudeDegrees>
              <LongitudeDegrees>-3.70593083091080188751220703125</LongitudeDegrees>
            </Position>
            <AltitudeMeters>754.20001220703125</AltitudeMeters>
            <DistanceMeters>7725.70922798</DistanceMeters>
          </Trackpoint>
          <Trackpoint>
            <Time>2020-03-07T13:06:28.000Z</Time>
            <Position>
              <LatitudeDegrees>40.58000385761260986328125</LatitudeDegrees>
              <LongitudeDegrees>-3.705931417644023895263671875</LongitudeDegrees>
            </Position>
            <AltitudeMeters>754.4000244140625</AltitudeMeters>
            <DistanceMeters>7733.0889563648</DistanceMeters>
          </Trackpoint>
          <Trackpoint>
            <Time>2020-03-07T13:06:29.000Z</Time>
            <Position>
              <LatitudeDegrees>40.58006890118122100830078125</LatitudeDegrees>
              <LongitudeDegrees>-3.70593368075788021087646484375</LongitudeDegrees>
            </Position>
            <AltitudeMeters>754.5999755859375</AltitudeMeters>
            <DistanceMeters>7740.3315880731</DistanceMeters>
          </Trackpoint>
          <Trackpoint>
            <Time>2020-03-07T13:06:30.000Z</Time>
            <Position>
              <LatitudeDegrees>40.58013335801661014556884765625</LatitudeDegrees>
              <LongitudeDegrees>-3.705938793718814849853515625</LongitudeDegrees>
            </Position>
            <AltitudeMeters>754.79998779296875</AltitudeMeters>
            <DistanceMeters>7747.5185232516</DistanceMeters>
          </Trackpoint>
          <Trackpoint>
            <Time>2020-03-07T13:06:31.000Z</Time>
            <Position>
              <LatitudeDegrees>40.5801978148519992828369140625</LatitudeDegrees>
              <LongitudeDegrees>-3.70594508014619350433349609375</LongitudeDegrees>
            </Position>
            <AltitudeMeters>755</AltitudeMeters>
            <DistanceMeters>7754.7117379727</DistanceMeters>
          </Trackpoint>
          <Trackpoint>
            <Time>2020-03-07T13:06:32.000Z</Time>
            <Position>
              <LatitudeDegrees>40.58026227168738842010498046875</LatitudeDegrees>
              <LongitudeDegrees>-3.705950863659381866455078125</LongitudeDegrees>
            </Position>
            <AltitudeMeters>755.20001220703125</AltitudeMeters>
            <DistanceMeters>7761.9024415348</DistanceMeters>
          </Trackpoint>
          <Trackpoint>
            <Time>2020-03-07T13:06:33.000Z</Time>
            <Position>
              <LatitudeDegrees>40.5803275667130947113037109375</LatitudeDegrees>
              <LongitudeDegrees>-3.70595614425837993621826171875</LongitudeDegrees>
            </Position>
            <AltitudeMeters>755.20001220703125</AltitudeMeters>
            <DistanceMeters>7769.183621302</DistanceMeters>
          </Trackpoint>
          <Trackpoint>
            <Time>2020-03-07T13:06:34.000Z</Time>
            <Position>
              <LatitudeDegrees>40.580393783748149871826171875</LatitudeDegrees>
              <LongitudeDegrees>-3.70595983229577541351318359375</LongitudeDegrees>
            </Position>
            <AltitudeMeters>755.4000244140625</AltitudeMeters>
            <DistanceMeters>7776.560289971</DistanceMeters>
          </Trackpoint>
          <Trackpoint>
            <Time>2020-03-07T13:06:35.000Z</Time>
            <Position>
              <LatitudeDegrees>40.58046176098287105560302734375</LatitudeDegrees>
              <LongitudeDegrees>-3.7059610895812511444091796875</LongitudeDegrees>
            </Position>
            <AltitudeMeters>755.5999755859375</AltitudeMeters>
            <DistanceMeters>7784.1267081893</DistanceMeters>
          </Trackpoint>
          <Trackpoint>
            <Time>2020-03-07T13:06:36.000Z</Time>
            <Position>
              <LatitudeDegrees>40.580531246960163116455078125</LatitudeDegrees>
              <LongitudeDegrees>-3.7059610895812511444091796875</LongitudeDegrees>
            </Position>
            <AltitudeMeters>756</AltitudeMeters>
            <DistanceMeters>7791.8607385981</DistanceMeters>
          </Trackpoint>
          <Trackpoint>
            <Time>2020-03-07T13:06:37.000Z</Time>
            <Position>
              <LatitudeDegrees>40.58060266077518463134765625</LatitudeDegrees>
              <LongitudeDegrees>-3.70596033520996570587158203125</LongitudeDegrees>
            </Position>
            <AltitudeMeters>756.4000244140625</AltitudeMeters>
            <DistanceMeters>7799.8095400725</DistanceMeters>
          </Trackpoint>
          <Trackpoint>
            <Time>2020-03-07T13:06:38.000Z</Time>
            <Position>
              <LatitudeDegrees>40.58067533187568187713623046875</LatitudeDegrees>
              <LongitudeDegrees>-3.7059604190289974212646484375</LongitudeDegrees>
            </Position>
            <AltitudeMeters>756.5999755859375</AltitudeMeters>
            <DistanceMeters>7807.8974244534</DistanceMeters>
          </Trackpoint>
          <Trackpoint>
            <Time>2020-03-07T13:06:39.000Z</Time>
            <Position>
              <LatitudeDegrees>40.58074909262359142303466796875</LatitudeDegrees>
              <LongitudeDegrees>-3.70596117340028285980224609375</LongitudeDegrees>
            </Position>
            <AltitudeMeters>756.5999755859375</AltitudeMeters>
            <DistanceMeters>7816.1083044751</DistanceMeters>
          </Trackpoint>
          <Trackpoint>
            <Time>2020-03-07T13:06:40.000Z</Time>
            <Position>
              <LatitudeDegrees>40.58082352392375469207763671875</LatitudeDegrees>
              <LongitudeDegrees>-3.70596184395253658294677734375</LongitudeDegrees>
            </Position>
            <AltitudeMeters>756.5999755859375</AltitudeMeters>
            <DistanceMeters>7824.3936313321</DistanceMeters>
          </Trackpoint>
          <Trackpoint>
            <Time>2020-03-07T13:06:41.000Z</Time>
            <Position>
              <LatitudeDegrees>40.58089795522391796112060546875</LatitudeDegrees>
              <LongitudeDegrees>-3.70596117340028285980224609375</LongitudeDegrees>
            </Position>
            <AltitudeMeters>756.5999755859375</AltitudeMeters>
            <DistanceMeters>7832.6789581891</DistanceMeters>
          </Trackpoint>
          <Trackpoint>
            <Time>2020-03-07T13:06:42.000Z</Time>
            <Position>
              <LatitudeDegrees>40.58097221888601779937744140625</LatitudeDegrees>
              <LongitudeDegrees>-3.7059594132006168365478515625</LongitudeDegrees>
            </Position>
            <AltitudeMeters>756.5999755859375</AltitudeMeters>
            <DistanceMeters>7840.9457361907</DistanceMeters>
          </Trackpoint>
          <Trackpoint>
            <Time>2020-03-07T13:06:43.000Z</Time>
            <Position>
              <LatitudeDegrees>40.58104681782424449920654296875</LatitudeDegrees>
              <LongitudeDegrees>-3.7059580720961093902587890625</LongitudeDegrees>
            </Position>
            <AltitudeMeters>756.5999755859375</AltitudeMeters>
            <DistanceMeters>7849.2490267221</DistanceMeters>
          </Trackpoint>
          <Trackpoint>
            <Time>2020-03-07T13:06:44.000Z</Time>
            <Position>
              <LatitudeDegrees>40.5811215005815029144287109375</LatitudeDegrees>
              <LongitudeDegrees>-3.705957233905792236328125</LongitudeDegrees>
            </Position>
            <AltitudeMeters>756.5999755859375</AltitudeMeters>
            <DistanceMeters>7857.5615561175</DistanceMeters>
          </Trackpoint>
          <Trackpoint>
            <Time>2020-03-07T13:06:45.000Z</Time>
            <Position>
              <LatitudeDegrees>40.58119618333876132965087890625</LatitudeDegrees>
              <LongitudeDegrees>-3.70595731772482395172119140625</LongitudeDegrees>
            </Position>
            <AltitudeMeters>756.5999755859375</AltitudeMeters>
            <DistanceMeters>7865.8740855129</DistanceMeters>
          </Trackpoint>
          <Trackpoint>
            <Time>2020-03-07T13:06:46.000Z</Time>
            <Position>
              <LatitudeDegrees>40.58127044700086116790771484375</LatitudeDegrees>
              <LongitudeDegrees>-3.705957569181919097900390625</LongitudeDegrees>
            </Position>
            <AltitudeMeters>756.5999755859375</AltitudeMeters>
            <DistanceMeters>7874.1397711091</DistanceMeters>
          </Trackpoint>
          <Trackpoint>
            <Time>2020-03-07T13:06:47.000Z</Time>
            <Position>
              <LatitudeDegrees>40.5813441239297389984130859375</LatitudeDegrees>
              <LongitudeDegrees>-3.705958239734172821044921875</LongitudeDegrees>
            </Position>
            <AltitudeMeters>756.5999755859375</AltitudeMeters>
            <DistanceMeters>7882.3407472311</DistanceMeters>
          </Trackpoint>
          <Trackpoint>
            <Time>2020-03-07T13:06:48.000Z</Time>
            <Position>
              <LatitudeDegrees>40.58141780085861682891845703125</LatitudeDegrees>
              <LongitudeDegrees>-3.70595966465771198272705078125</LongitudeDegrees>
            </Position>
            <AltitudeMeters>756.5999755859375</AltitudeMeters>
            <DistanceMeters>7890.5428243771</DistanceMeters>
          </Trackpoint>
          <Trackpoint>
            <Time>2020-03-07T13:06:49.000Z</Time>
            <Position>
              <LatitudeDegrees>40.58149172924458980560302734375</LatitudeDegrees>
              <LongitudeDegrees>-3.705963604152202606201171875</LongitudeDegrees>
            </Position>
            <AltitudeMeters>756.5999755859375</AltitudeMeters>
            <DistanceMeters>7898.7778637877</DistanceMeters>
          </Trackpoint>
          <Trackpoint>
            <Time>2020-03-07T13:06:50.000Z</Time>
            <Position>
              <LatitudeDegrees>40.5815662443637847900390625</LatitudeDegrees>
              <LongitudeDegrees>-3.70597064495086669921875</LongitudeDegrees>
            </Position>
            <AltitudeMeters>756.4000244140625</AltitudeMeters>
            <DistanceMeters>7907.0925655415</DistanceMeters>
          </Trackpoint>
          <Trackpoint>
            <Time>2020-03-07T13:06:51.000Z</Time>
            <Position>
              <LatitudeDegrees>40.58164109475910663604736328125</LatitudeDegrees>
              <LongitudeDegrees>-3.7059795297682285308837890625</LongitudeDegrees>
            </Position>
            <AltitudeMeters>756.20001220703125</AltitudeMeters>
            <DistanceMeters>7915.4570758253</DistanceMeters>
          </Trackpoint>
          <Trackpoint>
            <Time>2020-03-07T13:06:52.000Z</Time>
            <Position>
              <LatitudeDegrees>40.58171669952571392059326171875</LatitudeDegrees>
              <LongitudeDegrees>-3.7059907615184783935546875</LongitudeDegrees>
            </Position>
            <AltitudeMeters>756.20001220703125</AltitudeMeters>
            <DistanceMeters>7923.9256570003</DistanceMeters>
          </Trackpoint>
          <Trackpoint>
            <Time>2020-03-07T13:06:53.000Z</Time>
            <Position>
              <LatitudeDegrees>40.5817942321300506591796875</LatitudeDegrees>
              <LongitudeDegrees>-3.70600618422031402587890625</LongitudeDegrees>
            </Position>
            <AltitudeMeters>756.20001220703125</AltitudeMeters>
            <DistanceMeters>7932.6531248349</DistanceMeters>
          </Trackpoint>
          <Trackpoint>
            <Time>2020-03-07T13:06:54.000Z</Time>
            <Position>
              <LatitudeDegrees>40.58187193237245082855224609375</LatitudeDegrees>
              <LongitudeDegrees>-3.706026971340179443359375</LongitudeDegrees>
            </Position>
            <AltitudeMeters>756</AltitudeMeters>
            <DistanceMeters>7941.4778276205</DistanceMeters>
          </Trackpoint>
          <Trackpoint>
            <Time>2020-03-07T13:06:55.000Z</Time>
            <Position>
              <LatitudeDegrees>40.58195122517645359039306640625</LatitudeDegrees>
              <LongitudeDegrees>-3.7060512788593769073486328125</LongitudeDegrees>
            </Position>
            <AltitudeMeters>755.79998779296875</AltitudeMeters>
            <DistanceMeters>7950.5398094777</DistanceMeters>
          </Trackpoint>
          <Trackpoint>
            <Time>2020-03-07T13:06:56.000Z</Time>
            <Position>
              <LatitudeDegrees>40.58203093707561492919921875</LatitudeDegrees>
              <LongitudeDegrees>-3.70607818476855754852294921875</LongitudeDegrees>
            </Position>
            <AltitudeMeters>755.79998779296875</AltitudeMeters>
            <DistanceMeters>7959.6989257104</DistanceMeters>
          </Trackpoint>
          <Trackpoint>
            <Time>2020-03-07T13:06:57.000Z</Time>
            <Position>
              <LatitudeDegrees>40.5821095593273639678955078125</LatitudeDegrees>
              <LongitudeDegrees>-3.7061089463531970977783203125</LongitudeDegrees>
            </Position>
            <AltitudeMeters>755.79998779296875</AltitudeMeters>
            <DistanceMeters>7968.827922123</DistanceMeters>
          </Trackpoint>
          <Trackpoint>
            <Time>2020-03-07T13:06:58.000Z</Time>
            <Position>
              <LatitudeDegrees>40.58218725956976413726806640625</LatitudeDegrees>
              <LongitudeDegrees>-3.7061428092420101165771484375</LongitudeDegrees>
            </Position>
            <AltitudeMeters>755.5999755859375</AltitudeMeters>
            <DistanceMeters>7977.9376094129</DistanceMeters>
          </Trackpoint>
          <Trackpoint>
            <Time>2020-03-07T13:06:59.000Z</Time>
            <Position>
              <LatitudeDegrees>40.58226370252668857574462890625</LatitudeDegrees>
              <LongitudeDegrees>-3.70617776177823543548583984375</LongitudeDegrees>
            </Position>
            <AltitudeMeters>755.5999755859375</AltitudeMeters>
            <DistanceMeters>7986.9446181713</DistanceMeters>
          </Trackpoint>
          <Trackpoint>
            <Time>2020-03-07T13:07:00.000Z</Time>
            <Position>
              <LatitudeDegrees>40.58233670890331268310546875</LatitudeDegrees>
              <LongitudeDegrees>-3.7062160670757293701171875</LongitudeDegrees>
            </Position>
            <AltitudeMeters>755.4000244140625</AltitudeMeters>
            <DistanceMeters>7995.6912065138</DistanceMeters>
          </Trackpoint>
          <Trackpoint>
            <Time>2020-03-07T13:07:01.000Z</Time>
            <Position>
              <LatitudeDegrees>40.58240510523319244384765625</LatitudeDegrees>
              <LongitudeDegrees>-3.70625822804868221282958984375</LongitudeDegrees>
            </Position>
            <AltitudeMeters>755.20001220703125</AltitudeMeters>
            <DistanceMeters>8004.0966403573</DistanceMeters>
          </Trackpoint>
          <Trackpoint>
            <Time>2020-03-07T13:07:02.000Z</Time>
            <Position>
              <LatitudeDegrees>40.58246939443051815032958984375</LatitudeDegrees>
              <LongitudeDegrees>-3.706301562488079071044921875</LongitudeDegrees>
            </Position>
            <AltitudeMeters>755</AltitudeMeters>
            <DistanceMeters>8012.1352488832</DistanceMeters>
          </Trackpoint>
          <Trackpoint>
            <Time>2020-03-07T13:07:03.000Z</Time>
            <Position>
              <LatitudeDegrees>40.582530163228511810302734375</LatitudeDegrees>
              <LongitudeDegrees>-3.7063456512987613677978515625</LongitudeDegrees>
            </Position>
            <AltitudeMeters>755</AltitudeMeters>
            <DistanceMeters>8019.8575946949</DistanceMeters>
          </Trackpoint>
          <Trackpoint>
            <Time>2020-03-07T13:07:04.000Z</Time>
            <Position>
              <LatitudeDegrees>40.58258824981749057769775390625</LatitudeDegrees>
              <LongitudeDegrees>-3.7063902430236339569091796875</LongitudeDegrees>
            </Position>
            <AltitudeMeters>755</AltitudeMeters>
            <DistanceMeters>8027.34121241</DistanceMeters>
          </Trackpoint>
          <Trackpoint>
            <Time>2020-03-07T13:07:05.000Z</Time>
            <Position>
              <LatitudeDegrees>40.58264457620680332183837890625</LatitudeDegrees>
              <LongitudeDegrees>-3.70643508620560169219970703125</LongitudeDegrees>
            </Position>
            <AltitudeMeters>755</AltitudeMeters>
            <DistanceMeters>8034.6675194185</DistanceMeters>
          </Trackpoint>
          <Trackpoint>
            <Time>2020-03-07T13:07:06.000Z</Time>
            <Position>
              <LatitudeDegrees>40.58269880712032318115234375</LatitudeDegrees>
              <LongitudeDegrees>-3.7064821086823940277099609375</LongitudeDegrees>
            </Position>
            <AltitudeMeters>755</AltitudeMeters>
            <DistanceMeters>8041.894549386</DistanceMeters>
          </Trackpoint>
          <Trackpoint>
            <Time>2020-03-07T13:07:07.000Z</Time>
            <Position>
              <LatitudeDegrees>40.5827506072819232940673828125</LatitudeDegrees>
              <LongitudeDegrees>-3.7065324001014232635498046875</LongitudeDegrees>
            </Position>
            <AltitudeMeters>755</AltitudeMeters>
            <DistanceMeters>8049.0575720968</DistanceMeters>
          </Trackpoint>
          <Trackpoint>
            <Time>2020-03-07T13:07:08.000Z</Time>
            <Position>
              <LatitudeDegrees>40.58280148543417453765869140625</LatitudeDegrees>
              <LongitudeDegrees>-3.70658311061561107635498046875</LongitudeDegrees>
            </Position>
            <AltitudeMeters>755</AltitudeMeters>
            <DistanceMeters>8056.1598257543</DistanceMeters>
          </Trackpoint>
          <Trackpoint>
            <Time>2020-03-07T13:07:09.000Z</Time>
            <Position>
              <LatitudeDegrees>40.5828525312244892120361328125</LatitudeDegrees>
              <LongitudeDegrees>-3.7066329829394817352294921875</LongitudeDegrees>
            </Position>
            <AltitudeMeters>755</AltitudeMeters>
            <DistanceMeters>8063.2346906809</DistanceMeters>
          </Trackpoint>
          <Trackpoint>
            <Time>2020-03-07T13:07:10.000Z</Time>
            <Position>
              <LatitudeDegrees>40.582902319729328155517578125</LatitudeDegrees>
              <LongitudeDegrees>-3.7066839449107646942138671875</LongitudeDegrees>
            </Position>
            <AltitudeMeters>755</AltitudeMeters>
            <DistanceMeters>8070.2538143497</DistanceMeters>
          </Trackpoint>
          <Trackpoint>
            <Time>2020-03-07T13:07:11.000Z</Time>
            <Position>
              <LatitudeDegrees>40.58295168913900852203369140625</LatitudeDegrees>
              <LongitudeDegrees>-3.70673582889139652252197265625</LongitudeDegrees>
            </Position>
            <AltitudeMeters>755.20001220703125</AltitudeMeters>
            <DistanceMeters>8077.284506951</DistanceMeters>
          </Trackpoint>
          <Trackpoint>
            <Time>2020-03-07T13:07:12.000Z</Time>
            <Position>
              <LatitudeDegrees>40.5830012261867523193359375</LatitudeDegrees>
              <LongitudeDegrees>-3.70678804814815521240234375</LongitudeDegrees>
            </Position>
            <AltitudeMeters>755.5999755859375</AltitudeMeters>
            <DistanceMeters>8084.3485144842</DistanceMeters>
          </Trackpoint>
          <Trackpoint>
            <Time>2020-03-07T13:07:13.000Z</Time>
            <Position>
              <LatitudeDegrees>40.58305109851062297821044921875</LatitudeDegrees>
              <LongitudeDegrees>-3.70683993212878704071044921875</LongitudeDegrees>
            </Position>
            <AltitudeMeters>756</AltitudeMeters>
            <DistanceMeters>8091.4233794107</DistanceMeters>
          </Trackpoint>
          <Trackpoint>
            <Time>2020-03-07T13:07:14.000Z</Time>
            <Position>
              <LatitudeDegrees>40.58310088701546192169189453125</LatitudeDegrees>
              <LongitudeDegrees>-3.70689122937619686126708984375</LongitudeDegrees>
            </Position>
            <AltitudeMeters>756.4000244140625</AltitudeMeters>
            <DistanceMeters>8098.4592076538</DistanceMeters>
          </Trackpoint>
          <Trackpoint>
            <Time>2020-03-07T13:07:15.000Z</Time>
            <Position>
              <LatitudeDegrees>40.58315017260611057281494140625</LatitudeDegrees>
              <LongitudeDegrees>-3.70694185607135295867919921875</LongitudeDegrees>
            </Position>
            <AltitudeMeters>756.5999755859375</AltitudeMeters>
            <DistanceMeters>8105.4163054496</DistanceMeters>
          </Trackpoint>
          <Trackpoint>
            <Time>2020-03-07T13:07:16.000Z</Time>
            <Position>
              <LatitudeDegrees>40.583200044929981231689453125</LatitudeDegrees>
              <LongitudeDegrees>-3.7069912254810333251953125</LongitudeDegrees>
            </Position>
            <AltitudeMeters>756.79998779296875</AltitudeMeters>
            <DistanceMeters>8112.3610616215</DistanceMeters>
          </Trackpoint>
          <Trackpoint>
            <Time>2020-03-07T13:07:17.000Z</Time>
            <Position>
              <LatitudeDegrees>40.58325092308223247528076171875</LatitudeDegrees>
              <LongitudeDegrees>-3.707037158310413360595703125</LongitudeDegrees>
            </Position>
            <AltitudeMeters>756.79998779296875</AltitudeMeters>
            <DistanceMeters>8119.2273582298</DistanceMeters>
          </Trackpoint>
          <Trackpoint>
            <Time>2020-03-07T13:07:18.000Z</Time>
            <Position>
              <LatitudeDegrees>40.5833034776151180267333984375</LatitudeDegrees>
              <LongitudeDegrees>-3.7070782296359539031982421875</LongitudeDegrees>
            </Position>
            <AltitudeMeters>757.20001220703125</AltitudeMeters>
            <DistanceMeters>8126.029571965</DistanceMeters>
          </Trackpoint>
          <Trackpoint>
            <Time>2020-03-07T13:07:19.000Z</Time>
            <Position>
              <LatitudeDegrees>40.58335863053798675537109375</LatitudeDegrees>
              <LongitudeDegrees>-3.7071137689054012298583984375</LongitudeDegrees>
            </Position>
            <AltitudeMeters>757.4000244140625</AltitudeMeters>
            <DistanceMeters>8132.8642325597</DistanceMeters>
          </Trackpoint>
          <Trackpoint>
            <Time>2020-03-07T13:07:20.000Z</Time>
            <Position>
              <LatitudeDegrees>40.58341587893664836883544921875</LatitudeDegrees>
              <LongitudeDegrees>-3.7071446143090724945068359375</LongitudeDegrees>
            </Position>
            <AltitudeMeters>757.5999755859375</AltitudeMeters>
            <DistanceMeters>8139.7489163762</DistanceMeters>
          </Trackpoint>
          <Trackpoint>
            <Time>2020-03-07T13:07:21.000Z</Time>
            <Position>
              <LatitudeDegrees>40.5834751389920711517333984375</LatitudeDegrees>
              <LongitudeDegrees>-3.70717202313244342803955078125</LongitudeDegrees>
            </Position>
            <AltitudeMeters>757.79998779296875</AltitudeMeters>
            <DistanceMeters>8146.7396798335</DistanceMeters>
          </Trackpoint>
          <Trackpoint>
            <Time>2020-03-07T13:07:22.000Z</Time>
            <Position>
              <LatitudeDegrees>40.58353607542812824249267578125</LatitudeDegrees>
              <LongitudeDegrees>-3.70719415135681629180908203125</LongitudeDegrees>
            </Position>
            <AltitudeMeters>757.79998779296875</AltitudeMeters>
            <DistanceMeters>8153.7755080765</DistanceMeters>
          </Trackpoint>
          <Trackpoint>
            <Time>2020-03-07T13:07:23.000Z</Time>
            <Position>
              <LatitudeDegrees>40.5835985206067562103271484375</LatitudeDegrees>
              <LongitudeDegrees>-3.70720923878252506256103515625</LongitudeDegrees>
            </Position>
            <AltitudeMeters>758.20001220703125</AltitudeMeters>
            <DistanceMeters>8160.8420717913</DistanceMeters>
          </Trackpoint>
          <Trackpoint>
            <Time>2020-03-07T13:07:24.000Z</Time>
            <Position>
              <LatitudeDegrees>40.58366239070892333984375</LatitudeDegrees>
              <LongitudeDegrees>-3.70721728540956974029541015625</LongitudeDegrees>
            </Position>
            <AltitudeMeters>758.4000244140625</AltitudeMeters>
            <DistanceMeters>8167.9829990195</DistanceMeters>
          </Trackpoint>
          <Trackpoint>
            <Time>2020-03-07T13:07:25.000Z</Time>
            <Position>
              <LatitudeDegrees>40.583726428449153900146484375</LatitudeDegrees>
              <LongitudeDegrees>-3.70722047053277492523193359375</LongitudeDegrees>
            </Position>
            <AltitudeMeters>758.5999755859375</AltitudeMeters>
            <DistanceMeters>8175.1163348985</DistanceMeters>
          </Trackpoint>
          <Trackpoint>
            <Time>2020-03-07T13:07:26.000Z</Time>
            <Position>
              <LatitudeDegrees>40.58379038237035274505615234375</LatitudeDegrees>
              <LongitudeDegrees>-3.70721854269504547119140625</LongitudeDegrees>
            </Position>
            <AltitudeMeters>759</AltitudeMeters>
            <DistanceMeters>8182.2363664403</DistanceMeters>
          </Trackpoint>
          <Trackpoint>
            <Time>2020-03-07T13:07:27.000Z</Time>
            <Position>
              <LatitudeDegrees>40.58385307900607585906982421875</LatitudeDegrees>
              <LongitudeDegrees>-3.70721309445798397064208984375</LongitudeDegrees>
            </Position>
            <AltitudeMeters>759.20001220703125</AltitudeMeters>
            <DistanceMeters>8189.2303584403</DistanceMeters>
          </Trackpoint>
          <Trackpoint>
            <Time>2020-03-07T13:07:28.000Z</Time>
            <Position>
              <LatitudeDegrees>40.58391460217535495758056640625</LatitudeDegrees>
              <LongitudeDegrees>-3.707205466926097869873046875</LongitudeDegrees>
            </Position>
            <AltitudeMeters>759.4000244140625</AltitudeMeters>
            <DistanceMeters>8196.1078245735</DistanceMeters>
          </Trackpoint>
          <Trackpoint>
            <Time>2020-03-07T13:07:29.000Z</Time>
            <Position>
              <LatitudeDegrees>40.58397595770657062530517578125</LatitudeDegrees>
              <LongitudeDegrees>-3.70719297789037227630615234375</LongitudeDegrees>
            </Position>
            <AltitudeMeters>759.5999755859375</AltitudeMeters>
            <DistanceMeters>8203.0180376119</DistanceMeters>
          </Trackpoint>
          <Trackpoint>
            <Time>2020-03-07T13:07:30.000Z</Time>
            <Position>
              <LatitudeDegrees>40.58403597213327884674072265625</LatitudeDegrees>
              <LongitudeDegrees>-3.70717286132276058197021484375</LongitudeDegrees>
            </Position>
            <AltitudeMeters>759.79998779296875</AltitudeMeters>
            <DistanceMeters>8209.9112416745</DistanceMeters>
          </Trackpoint>
          <Trackpoint>
            <Time>2020-03-07T13:07:31.000Z</Time>
            <Position>
              <LatitudeDegrees>40.58409632183611392974853515625</LatitudeDegrees>
              <LongitudeDegrees>-3.7071462906897068023681640625</LongitudeDegrees>
            </Position>
            <AltitudeMeters>760</AltitudeMeters>
            <DistanceMeters>8216.9943980841</DistanceMeters>
          </Trackpoint>
          <Trackpoint>
            <Time>2020-03-07T13:07:32.000Z</Time>
            <Position>
              <LatitudeDegrees>40.58416035957634449005126953125</LatitudeDegrees>
              <LongitudeDegrees>-3.707115612924098968505859375</LongitudeDegrees>
            </Position>
            <AltitudeMeters>760</AltitudeMeters>
            <DistanceMeters>8224.5786967957</DistanceMeters>
          </Trackpoint>
          <Trackpoint>
            <Time>2020-03-07T13:07:33.000Z</Time>
            <Position>
              <LatitudeDegrees>40.58422825299203395843505859375</LatitudeDegrees>
              <LongitudeDegrees>-3.70707982219755649566650390625</LongitudeDegrees>
            </Position>
            <AltitudeMeters>760.20001220703125</AltitudeMeters>
            <DistanceMeters>8232.7177778736</DistanceMeters>
          </Trackpoint>
          <Trackpoint>
            <Time>2020-03-07T13:07:34.000Z</Time>
            <Position>
              <LatitudeDegrees>40.58429631404578685760498046875</LatitudeDegrees>
              <LongitudeDegrees>-3.70703556574881076812744140625</LongitudeDegrees>
            </Position>
            <AltitudeMeters>760.20001220703125</AltitudeMeters>
            <DistanceMeters>8241.1666094076</DistanceMeters>
          </Trackpoint>
          <Trackpoint>
            <Time>2020-03-07T13:07:35.000Z</Time>
            <Position>
              <LatitudeDegrees>40.584359429776668548583984375</LatitudeDegrees>
              <LongitudeDegrees>-3.706978149712085723876953125</LongitudeDegrees>
            </Position>
            <AltitudeMeters>760.20001220703125</AltitudeMeters>
            <DistanceMeters>8249.7052765875</DistanceMeters>
          </Trackpoint>
          <Trackpoint>
            <Time>2020-03-07T13:07:36.000Z</Time>
            <Position>
              <LatitudeDegrees>40.5844172649085521697998046875</LatitudeDegrees>
              <LongitudeDegrees>-3.70691034011542797088623046875</LongitudeDegrees>
            </Position>
            <AltitudeMeters>760.20001220703125</AltitudeMeters>
            <DistanceMeters>8258.3239428896</DistanceMeters>
          </Trackpoint>
          <Trackpoint>
            <Time>2020-03-07T13:07:37.000Z</Time>
            <Position>
              <LatitudeDegrees>40.58447451330721378326416015625</LatitudeDegrees>
              <LongitudeDegrees>-3.70684035122394561767578125</LongitudeDegrees>
            </Position>
            <AltitudeMeters>760.20001220703125</AltitudeMeters>
            <DistanceMeters>8267.0187574356</DistanceMeters>
          </Trackpoint>
          <Trackpoint>
            <Time>2020-03-07T13:07:38.000Z</Time>
            <Position>
              <LatitudeDegrees>40.58453880250453948974609375</LatitudeDegrees>
              <LongitudeDegrees>-3.70678695850074291229248046875</LongitudeDegrees>
            </Position>
            <AltitudeMeters>760.20001220703125</AltitudeMeters>
            <DistanceMeters>8275.4788038832</DistanceMeters>
          </Trackpoint>
          <Trackpoint>
            <Time>2020-03-07T13:07:39.000Z</Time>
            <Position>
              <LatitudeDegrees>40.58461281470954418182373046875</LatitudeDegrees>
              <LongitudeDegrees>-3.70676801539957523345947265625</LongitudeDegrees>
            </Position>
            <AltitudeMeters>760.20001220703125</AltitudeMeters>
            <DistanceMeters>8283.8702600208</DistanceMeters>
          </Trackpoint>
          <Trackpoint>
            <Time>2020-03-07T13:07:40.000Z</Time>
            <Position>
              <LatitudeDegrees>40.58468724600970745086669921875</LatitudeDegrees>
              <LongitudeDegrees>-3.7067820131778717041015625</LongitudeDegrees>
            </Position>
            <AltitudeMeters>760.20001220703125</AltitudeMeters>
            <DistanceMeters>8292.2390874715</DistanceMeters>
          </Trackpoint>
          <Trackpoint>
            <Time>2020-03-07T13:07:41.000Z</Time>
            <Position>
              <LatitudeDegrees>40.58475815691053867340087890625</LatitudeDegrees>
              <LongitudeDegrees>-3.7068180553615093231201171875</LongitudeDegrees>
            </Position>
            <AltitudeMeters>760.20001220703125</AltitudeMeters>
            <DistanceMeters>8300.6996675917</DistanceMeters>
          </Trackpoint>
          <Trackpoint>
            <Time>2020-03-07T13:07:42.000Z</Time>
            <Position>
              <LatitudeDegrees>40.58482806198298931121826171875</LatitudeDegrees>
              <LongitudeDegrees>-3.70686138980090618133544921875</LongitudeDegrees>
            </Position>
            <AltitudeMeters>759.79998779296875</AltitudeMeters>
            <DistanceMeters>8309.2994539889</DistanceMeters>
          </Trackpoint>
          <Trackpoint>
            <Time>2020-03-07T13:07:43.000Z</Time>
            <Position>
              <LatitudeDegrees>40.5848950333893299102783203125</LatitudeDegrees>
              <LongitudeDegrees>-3.7069048918783664703369140625</LongitudeDegrees>
            </Position>
            <AltitudeMeters>759.20001220703125</AltitudeMeters>
            <DistanceMeters>8317.6103537428</DistanceMeters>
          </Trackpoint>
          <Trackpoint>
            <Time>2020-03-07T13:07:44.000Z</Time>
            <Position>
              <LatitudeDegrees>40.5849619209766387939453125</LatitudeDegrees>
              <LongitudeDegrees>-3.70694923214614391326904296875</LongitudeDegrees>
            </Position>
            <AltitudeMeters>758.4000244140625</AltitudeMeters>
            <DistanceMeters>8325.9451229707</DistanceMeters>
          </Trackpoint>
          <Trackpoint>
            <Time>2020-03-07T13:07:45.000Z</Time>
            <Position>
              <LatitudeDegrees>40.585025958716869354248046875</LatitudeDegrees>
              <LongitudeDegrees>-3.70699323713779449462890625</LongitudeDegrees>
            </Position>
            <AltitudeMeters>757.79998779296875</AltitudeMeters>
            <DistanceMeters>8333.9842931462</DistanceMeters>
          </Trackpoint>
          <Trackpoint>
            <Time>2020-03-07T13:07:46.000Z</Time>
            <Position>
              <LatitudeDegrees>40.58509125374257564544677734375</LatitudeDegrees>
              <LongitudeDegrees>-3.7070381641387939453125</LongitudeDegrees>
            </Position>
            <AltitudeMeters>757.20001220703125</AltitudeMeters>
            <DistanceMeters>8342.1841680965</DistanceMeters>
          </Trackpoint>
          <Trackpoint>
            <Time>2020-03-07T13:07:47.000Z</Time>
            <Position>
              <LatitudeDegrees>40.5851562134921550750732421875</LatitudeDegrees>
              <LongitudeDegrees>-3.70708418078720569610595703125</LongitudeDegrees>
            </Position>
            <AltitudeMeters>757</AltitudeMeters>
            <DistanceMeters>8350.3939482749</DistanceMeters>
          </Trackpoint>
          <Trackpoint>
            <Time>2020-03-07T13:07:48.000Z</Time>
            <Position>
              <LatitudeDegrees>40.5852212570607662200927734375</LatitudeDegrees>
              <LongitudeDegrees>-3.70712877251207828521728515625</LongitudeDegrees>
            </Position>
            <AltitudeMeters>756.79998779296875</AltitudeMeters>
            <DistanceMeters>8358.5562949965</DistanceMeters>
          </Trackpoint>
          <Trackpoint>
            <Time>2020-03-07T13:07:49.000Z</Time>
            <Position>
              <LatitudeDegrees>40.58528252877295017242431640625</LatitudeDegrees>
              <LongitudeDegrees>-3.70717520825564861297607421875</LongitudeDegrees>
            </Position>
            <AltitudeMeters>756.79998779296875</AltitudeMeters>
            <DistanceMeters>8366.4251725643</DistanceMeters>
          </Trackpoint>
          <Trackpoint>
            <Time>2020-03-07T13:07:50.000Z</Time>
            <Position>
              <LatitudeDegrees>40.5853500030934810638427734375</LatitudeDegrees>
              <LongitudeDegrees>-3.707220554351806640625</LongitudeDegrees>
            </Position>
            <AltitudeMeters>756.79998779296875</AltitudeMeters>
            <DistanceMeters>8374.8563505227</DistanceMeters>
          </Trackpoint>
          <Trackpoint>
            <Time>2020-03-07T13:07:51.000Z</Time>
            <Position>
              <LatitudeDegrees>40.585419237613677978515625</LatitudeDegrees>
              <LongitudeDegrees>-3.70726841501891613006591796875</LongitudeDegrees>
            </Position>
            <AltitudeMeters>756.79998779296875</AltitudeMeters>
            <DistanceMeters>8383.5589507741</DistanceMeters>
          </Trackpoint>
          <Trackpoint>
            <Time>2020-03-07T13:07:52.000Z</Time>
            <Position>
              <LatitudeDegrees>40.5854814313352108001708984375</LatitudeDegrees>
              <LongitudeDegrees>-3.7073132582008838653564453125</LongitudeDegrees>
            </Position>
            <AltitudeMeters>756.5999755859375</AltitudeMeters>
            <DistanceMeters>8391.4507463387</DistanceMeters>
          </Trackpoint>
          <Trackpoint>
            <Time>2020-03-07T13:07:53.000Z</Time>
            <Position>
              <LatitudeDegrees>40.5855439603328704833984375</LatitudeDegrees>
              <LongitudeDegrees>-3.70735877193510532379150390625</LongitudeDegrees>
            </Position>
            <AltitudeMeters>756.5999755859375</AltitudeMeters>
            <DistanceMeters>8399.4023873807</DistanceMeters>
          </Trackpoint>
          <Trackpoint>
            <Time>2020-03-07T13:07:54.000Z</Time>
            <Position>
              <LatitudeDegrees>40.58560959063470363616943359375</LatitudeDegrees>
              <LongitudeDegrees>-3.70740252546966075897216796875</LongitudeDegrees>
            </Position>
            <AltitudeMeters>756.5999755859375</AltitudeMeters>
            <DistanceMeters>8407.5901396681</DistanceMeters>
          </Trackpoint>
          <Trackpoint>
            <Time>2020-03-07T13:07:55.000Z</Time>
            <Position>
              <LatitudeDegrees>40.58567765168845653533935546875</LatitudeDegrees>
              <LongitudeDegrees>-3.7074490450322628021240234375</LongitudeDegrees>
            </Position>
            <AltitudeMeters>756.4000244140625</AltitudeMeters>
            <DistanceMeters>8416.1245755954</DistanceMeters>
          </Trackpoint>
          <Trackpoint>
            <Time>2020-03-07T13:07:56.000Z</Time>
            <Position>
              <LatitudeDegrees>40.585747472941875457763671875</LatitudeDegrees>
              <LongitudeDegrees>-3.70749883353710174560546875</LongitudeDegrees>
            </Position>
            <AltitudeMeters>756.4000244140625</AltitudeMeters>
            <DistanceMeters>8424.9615491207</DistanceMeters>
          </Trackpoint>
          <Trackpoint>
            <Time>2020-03-07T13:07:57.000Z</Time>
            <Position>
              <LatitudeDegrees>40.58582047931849956512451171875</LatitudeDegrees>
              <LongitudeDegrees>-3.70755138806998729705810546875</LongitudeDegrees>
            </Position>
            <AltitudeMeters>756.4000244140625</AltitudeMeters>
            <DistanceMeters>8434.2226325382</DistanceMeters>
          </Trackpoint>
          <Trackpoint>
            <Time>2020-03-07T13:07:58.000Z</Time>
            <Position>
              <LatitudeDegrees>40.58589809574186801910400390625</LatitudeDegrees>
              <LongitudeDegrees>-3.70760687626898288726806640625</LongitudeDegrees>
            </Position>
            <AltitudeMeters>756.4000244140625</AltitudeMeters>
            <DistanceMeters>8444.0527316235</DistanceMeters>
          </Trackpoint>
          <Trackpoint>
            <Time>2020-03-07T13:07:59.000Z</Time>
            <Position>
              <LatitudeDegrees>40.58597906492650508880615234375</LatitudeDegrees>
              <LongitudeDegrees>-3.70766378939151763916015625</LongitudeDegrees>
            </Position>
            <AltitudeMeters>756.4000244140625</AltitudeMeters>
            <DistanceMeters>8454.2679929215</DistanceMeters>
          </Trackpoint>
          <Trackpoint>
            <Time>2020-03-07T13:08:00.000Z</Time>
            <Position>
              <LatitudeDegrees>40.58606095612049102783203125</LatitudeDegrees>
              <LongitudeDegrees>-3.707724474370479583740234375</LongitudeDegrees>
            </Position>
            <AltitudeMeters>756.4000244140625</AltitudeMeters>
            <DistanceMeters>8464.7269769086</DistanceMeters>
          </Trackpoint>
          <Trackpoint>
            <Time>2020-03-07T13:08:01.000Z</Time>
            <Position>
              <LatitudeDegrees>40.586145780980587005615234375</LatitudeDegrees>
              <LongitudeDegrees>-3.70778524316847324371337890625</LongitudeDegrees>
            </Position>
            <AltitudeMeters>756.4000244140625</AltitudeMeters>
            <DistanceMeters>8475.4746621417</DistanceMeters>
          </Trackpoint>
          <Trackpoint>
            <Time>2020-03-07T13:08:02.000Z</Time>
            <Position>
              <LatitudeDegrees>40.58622767217457294464111328125</LatitudeDegrees>
              <LongitudeDegrees>-3.707847855985164642333984375</LongitudeDegrees>
            </Position>
            <AltitudeMeters>756.4000244140625</AltitudeMeters>
            <DistanceMeters>8486.014491382</DistanceMeters>
          </Trackpoint>
          <Trackpoint>
            <Time>2020-03-07T13:08:03.000Z</Time>
            <Position>
              <LatitudeDegrees>40.58630914427340030670166015625</LatitudeDegrees>
              <LongitudeDegrees>-3.70791457593441009521484375</LongitudeDegrees>
            </Position>
            <AltitudeMeters>756.20001220703125</AltitudeMeters>
            <DistanceMeters>8496.6930589514</DistanceMeters>
          </Trackpoint>
          <Trackpoint>
            <Time>2020-03-07T13:08:04.000Z</Time>
            <Position>
              <LatitudeDegrees>40.5863866768777370452880859375</LatitudeDegrees>
              <LongitudeDegrees>-3.707982636988162994384765625</LongitudeDegrees>
            </Position>
            <AltitudeMeters>756.20001220703125</AltitudeMeters>
            <DistanceMeters>8507.0644749878</DistanceMeters>
          </Trackpoint>
          <Trackpoint>
            <Time>2020-03-07T13:08:05.000Z</Time>
            <Position>
              <LatitudeDegrees>40.5864634551107883453369140625</LatitudeDegrees>
              <LongitudeDegrees>-3.7080533802509307861328125</LongitudeDegrees>
            </Position>
            <AltitudeMeters>756</AltitudeMeters>
            <DistanceMeters>8517.4944956455</DistanceMeters>
          </Trackpoint>
          <Trackpoint>
            <Time>2020-03-07T13:08:06.000Z</Time>
            <Position>
              <LatitudeDegrees>40.58653973042964935302734375</LatitudeDegrees>
              <LongitudeDegrees>-3.70812118984758853912353515625</LongitudeDegrees>
            </Position>
            <AltitudeMeters>755.5999755859375</AltitudeMeters>
            <DistanceMeters>8527.7380052139</DistanceMeters>
          </Trackpoint>
          <Trackpoint>
            <Time>2020-03-07T13:08:07.000Z</Time>
            <Position>
              <LatitudeDegrees>40.586615838110446929931640625</LatitudeDegrees>
              <LongitudeDegrees>-3.7081903405487537384033203125</LongitudeDegrees>
            </Position>
            <AltitudeMeters>755.20001220703125</AltitudeMeters>
            <DistanceMeters>8538.0290079122</DistanceMeters>
          </Trackpoint>
          <Trackpoint>
            <Time>2020-03-07T13:08:08.000Z</Time>
            <Position>
              <LatitudeDegrees>40.5866884253919124603271484375</LatitudeDegrees>
              <LongitudeDegrees>-3.70825898833572864532470703125</LongitudeDegrees>
            </Position>
            <AltitudeMeters>754.79998779296875</AltitudeMeters>
            <DistanceMeters>8547.9764486721</DistanceMeters>
          </Trackpoint>
          <Trackpoint>
            <Time>2020-03-07T13:08:09.000Z</Time>
            <Position>
              <LatitudeDegrees>40.5867584981024265289306640625</LatitudeDegrees>
              <LongitudeDegrees>-3.708327971398830413818359375</LongitudeDegrees>
            </Position>
            <AltitudeMeters>754.4000244140625</AltitudeMeters>
            <DistanceMeters>8557.71425298</DistanceMeters>
          </Trackpoint>
          <Trackpoint>
            <Time>2020-03-07T13:08:10.000Z</Time>
            <Position>
              <LatitudeDegrees>40.58682614006102085113525390625</LatitudeDegrees>
              <LongitudeDegrees>-3.7083978764712810516357421875</LongitudeDegrees>
            </Position>
            <AltitudeMeters>754</AltitudeMeters>
            <DistanceMeters>8567.2846273389</DistanceMeters>
          </Trackpoint>
          <Trackpoint>
            <Time>2020-03-07T13:08:11.000Z</Time>
            <Position>
              <LatitudeDegrees>40.58689235709607601165771484375</LatitudeDegrees>
              <LongitudeDegrees>-3.70846753008663654327392578125</LongitudeDegrees>
            </Position>
            <AltitudeMeters>753.5999755859375</AltitudeMeters>
            <DistanceMeters>8576.7176742104</DistanceMeters>
          </Trackpoint>
          <Trackpoint>
            <Time>2020-03-07T13:08:12.000Z</Time>
            <Position>
              <LatitudeDegrees>40.58695823885500431060791015625</LatitudeDegrees>
              <LongitudeDegrees>-3.70853441767394542694091796875</LongitudeDegrees>
            </Position>
            <AltitudeMeters>753.4000244140625</AltitudeMeters>
            <DistanceMeters>8585.9768073101</DistanceMeters>
          </Trackpoint>
          <Trackpoint>
            <Time>2020-03-07T13:08:13.000Z</Time>
            <Position>
              <LatitudeDegrees>40.58702311478555202484130859375</LatitudeDegrees>
              <LongitudeDegrees>-3.7085997126996517181396484375</LongitudeDegrees>
            </Position>
            <AltitudeMeters>753.20001220703125</AltitudeMeters>
            <DistanceMeters>8595.0651575033</DistanceMeters>
          </Trackpoint>
          <Trackpoint>
            <Time>2020-03-07T13:08:14.000Z</Time>
            <Position>
              <LatitudeDegrees>40.58708514086902141571044921875</LatitudeDegrees>
              <LongitudeDegrees>-3.70866634882986545562744140625</LongitudeDegrees>
            </Position>
            <AltitudeMeters>753</AltitudeMeters>
            <DistanceMeters>8603.974893864</DistanceMeters>
          </Trackpoint>
          <Trackpoint>
            <Time>2020-03-07T13:08:15.000Z</Time>
            <Position>
              <LatitudeDegrees>40.58714532293379306793212890625</LatitudeDegrees>
              <LongitudeDegrees>-3.7087344937026500701904296875</LongitudeDegrees>
            </Position>
            <AltitudeMeters>752.5999755859375</AltitudeMeters>
            <DistanceMeters>8612.8088013024</DistanceMeters>
          </Trackpoint>
          <Trackpoint>
            <Time>2020-03-07T13:08:16.000Z</Time>
            <Position>
              <LatitudeDegrees>40.58720567263662815093994140625</LatitudeDegrees>
              <LongitudeDegrees>-3.70880297385156154632568359375</LongitudeDegrees>
            </Position>
            <AltitudeMeters>752.4000244140625</AltitudeMeters>
            <DistanceMeters>8621.6753590065</DistanceMeters>
          </Trackpoint>
          <Trackpoint>
            <Time>2020-03-07T13:08:17.000Z</Time>
            <Position>
              <LatitudeDegrees>40.5872644297778606414794921875</LatitudeDegrees>
              <LongitudeDegrees>-3.70887212455272674560546875</LongitudeDegrees>
            </Position>
            <AltitudeMeters>752.20001220703125</AltitudeMeters>
            <DistanceMeters>8630.446175458</DistanceMeters>
          </Trackpoint>
          <Trackpoint>
            <Time>2020-03-07T13:08:18.000Z</Time>
            <Position>
              <LatitudeDegrees>40.58732184581458568572998046875</LatitudeDegrees>
              <LongitudeDegrees>-3.7089411914348602294921875</LongitudeDegrees>
            </Position>
            <AltitudeMeters>752</AltitudeMeters>
            <DistanceMeters>8639.1014347943</DistanceMeters>
          </Trackpoint>
          <Trackpoint>
            <Time>2020-03-07T13:08:19.000Z</Time>
            <Position>
              <LatitudeDegrees>40.58737750165164470672607421875</LatitudeDegrees>
              <LongitudeDegrees>-3.70901134796440601348876953125</LongitudeDegrees>
            </Position>
            <AltitudeMeters>752</AltitudeMeters>
            <DistanceMeters>8647.6770363802</DistanceMeters>
          </Trackpoint>
          <Trackpoint>
            <Time>2020-03-07T13:08:20.000Z</Time>
            <Position>
              <LatitudeDegrees>40.58743148110806941986083984375</LatitudeDegrees>
              <LongitudeDegrees>-3.70908075012266635894775390625</LongitudeDegrees>
            </Position>
            <AltitudeMeters>752</AltitudeMeters>
            <DistanceMeters>8656.0744090021</DistanceMeters>
          </Trackpoint>
          <Trackpoint>
            <Time>2020-03-07T13:08:21.000Z</Time>
            <Position>
              <LatitudeDegrees>40.587484538555145263671875</LatitudeDegrees>
              <LongitudeDegrees>-3.7091502360999584197998046875</LongitudeDegrees>
            </Position>
            <AltitudeMeters>752</AltitudeMeters>
            <DistanceMeters>8664.4032172748</DistanceMeters>
          </Trackpoint>
          <Trackpoint>
            <Time>2020-03-07T13:08:22.000Z</Time>
            <Position>
              <LatitudeDegrees>40.587538182735443115234375</LatitudeDegrees>
              <LongitudeDegrees>-3.709223158657550811767578125</LongitudeDegrees>
            </Position>
            <AltitudeMeters>752</AltitudeMeters>
            <DistanceMeters>8672.9846083858</DistanceMeters>
          </Trackpoint>
          <Trackpoint>
            <Time>2020-03-07T13:08:23.000Z</Time>
            <Position>
              <LatitudeDegrees>40.58759140782058238983154296875</LatitudeDegrees>
              <LongitudeDegrees>-3.7092974223196506500244140625</LongitudeDegrees>
            </Position>
            <AltitudeMeters>752</AltitudeMeters>
            <DistanceMeters>8681.6153152274</DistanceMeters>
          </Trackpoint>
          <Trackpoint>
            <Time>2020-03-07T13:08:24.000Z</Time>
            <Position>
              <LatitudeDegrees>40.5876439623534679412841796875</LatitudeDegrees>
              <LongitudeDegrees>-3.70937026105821132659912109375</LongitudeDegrees>
            </Position>
            <AltitudeMeters>752</AltitudeMeters>
            <DistanceMeters>8690.1073226745</DistanceMeters>
          </Trackpoint>
          <Trackpoint>
            <Time>2020-03-07T13:08:25.000Z</Time>
            <Position>
              <LatitudeDegrees>40.5876962654292583465576171875</LatitudeDegrees>
              <LongitudeDegrees>-3.7094409205019474029541015625</LongitudeDegrees>
            </Position>
            <AltitudeMeters>752</AltitudeMeters>
            <DistanceMeters>8698.4480485976</DistanceMeters>
          </Trackpoint>
          <Trackpoint>
            <Time>2020-03-07T13:08:26.000Z</Time>
            <Position>
              <LatitudeDegrees>40.5877485685050487518310546875</LatitudeDegrees>
              <LongitudeDegrees>-3.70951124466955661773681640625</LongitudeDegrees>
            </Position>
            <AltitudeMeters>752</AltitudeMeters>
            <DistanceMeters>8706.769264024</DistanceMeters>
          </Trackpoint>
          <Trackpoint>
            <Time>2020-03-07T13:08:27.000Z</Time>
            <Position>
              <LatitudeDegrees>40.5878008715808391571044921875</LatitudeDegrees>
              <LongitudeDegrees>-3.7095824070274829864501953125</LongitudeDegrees>
            </Position>
            <AltitudeMeters>752</AltitudeMeters>
            <DistanceMeters>8715.1402492232</DistanceMeters>
          </Trackpoint>
          <Trackpoint>
            <Time>2020-03-07T13:08:28.000Z</Time>
            <Position>
              <LatitudeDegrees>40.5878541804850101470947265625</LatitudeDegrees>
              <LongitudeDegrees>-3.70965264737606048583984375</LongitudeDegrees>
            </Position>
            <AltitudeMeters>752.20001220703125</AltitudeMeters>
            <DistanceMeters>8723.5338572922</DistanceMeters>
          </Trackpoint>
          <Trackpoint>
            <Time>2020-03-07T13:08:29.000Z</Time>
            <Position>
              <LatitudeDegrees>40.58790623210370540618896484375</LatitudeDegrees>
              <LongitudeDegrees>-3.70972431264817714691162109375</LongitudeDegrees>
            </Position>
            <AltitudeMeters>752.20001220703125</AltitudeMeters>
            <DistanceMeters>8731.9150842106</DistanceMeters>
          </Trackpoint>
          <Trackpoint>
            <Time>2020-03-07T13:08:30.000Z</Time>
            <Position>
              <LatitudeDegrees>40.58795702643692493438720703125</LatitudeDegrees>
              <LongitudeDegrees>-3.709796480834484100341796875</LongitudeDegrees>
            </Position>
            <AltitudeMeters>752.4000244140625</AltitudeMeters>
            <DistanceMeters>8740.2319577554</DistanceMeters>
          </Trackpoint>
          <Trackpoint>
            <Time>2020-03-07T13:08:31.000Z</Time>
            <Position>
              <LatitudeDegrees>40.5880077369511127471923828125</LatitudeDegrees>
              <LongitudeDegrees>-3.709869571030139923095703125</LongitudeDegrees>
            </Position>
            <AltitudeMeters>752.4000244140625</AltitudeMeters>
            <DistanceMeters>8748.6007852061</DistanceMeters>
          </Trackpoint>
          <Trackpoint>
            <Time>2020-03-07T13:08:32.000Z</Time>
            <Position>
              <LatitudeDegrees>40.5880580283701419830322265625</LatitudeDegrees>
              <LongitudeDegrees>-3.709941990673542022705078125</LongitudeDegrees>
            </Position>
            <AltitudeMeters>752.5999755859375</AltitudeMeters>
            <DistanceMeters>8756.8959152534</DistanceMeters>
          </Trackpoint>
          <Trackpoint>
            <Time>2020-03-07T13:08:33.000Z</Time>
            <Position>
              <LatitudeDegrees>40.588107816874980926513671875</LatitudeDegrees>
              <LongitudeDegrees>-3.71001466177403926849365234375</LongitudeDegrees>
            </Position>
            <AltitudeMeters>752.5999755859375</AltitudeMeters>
            <DistanceMeters>8765.1686989064</DistanceMeters>
          </Trackpoint>
          <Trackpoint>
            <Time>2020-03-07T13:08:34.000Z</Time>
            <Position>
              <LatitudeDegrees>40.58815844357013702392578125</LatitudeDegrees>
              <LongitudeDegrees>-3.7100859917700290679931640625</LongitudeDegrees>
            </Position>
            <AltitudeMeters>752.5999755859375</AltitudeMeters>
            <DistanceMeters>8773.4212643585</DistanceMeters>
          </Trackpoint>
          <Trackpoint>
            <Time>2020-03-07T13:08:35.000Z</Time>
            <Position>
              <LatitudeDegrees>40.58820848353207111358642578125</LatitudeDegrees>
              <LongitudeDegrees>-3.71015748940408229827880859375</LongitudeDegrees>
            </Position>
            <AltitudeMeters>752.5999755859375</AltitudeMeters>
            <DistanceMeters>8781.6392897736</DistanceMeters>
          </Trackpoint>
          <Trackpoint>
            <Time>2020-03-07T13:08:36.000Z</Time>
            <Position>
              <LatitudeDegrees>40.58825676329433917999267578125</LatitudeDegrees>
              <LongitudeDegrees>-3.71023225598037242889404296875</LongitudeDegrees>
            </Position>
            <AltitudeMeters>752.5999755859375</AltitudeMeters>
            <DistanceMeters>8789.934964103</DistanceMeters>
          </Trackpoint>
          <Trackpoint>
            <Time>2020-03-07T13:08:37.000Z</Time>
            <Position>
              <LatitudeDegrees>40.5883054621517658233642578125</LatitudeDegrees>
              <LongitudeDegrees>-3.71030651964247226715087890625</LongitudeDegrees>
            </Position>
            <AltitudeMeters>752.79998779296875</AltitudeMeters>
            <DistanceMeters>8798.2279166651</DistanceMeters>
          </Trackpoint>
          <Trackpoint>
            <Time>2020-03-07T13:08:38.000Z</Time>
            <Position>
              <LatitudeDegrees>40.58835499919950962066650390625</LatitudeDegrees>
              <LongitudeDegrees>-3.71037994511425495147705078125</LongitudeDegrees>
            </Position>
            <AltitudeMeters>752.79998779296875</AltitudeMeters>
            <DistanceMeters>8806.5295757415</DistanceMeters>
          </Trackpoint>
          <Trackpoint>
            <Time>2020-03-07T13:08:39.000Z</Time>
            <Position>
              <LatitudeDegrees>40.588406212627887725830078125</LatitudeDegrees>
              <LongitudeDegrees>-3.71045236475765705108642578125</LongitudeDegrees>
            </Position>
            <AltitudeMeters>752.79998779296875</AltitudeMeters>
            <DistanceMeters>8814.8940860253</DistanceMeters>
          </Trackpoint>
          <Trackpoint>
            <Time>2020-03-07T13:08:40.000Z</Time>
            <Position>
              <LatitudeDegrees>40.58845818042755126953125</LatitudeDegrees>
              <LongitudeDegrees>-3.71052444912493228912353515625</LongitudeDegrees>
            </Position>
            <AltitudeMeters>752.79998779296875</AltitudeMeters>
            <DistanceMeters>8823.2952215132</DistanceMeters>
          </Trackpoint>
          <Trackpoint>
            <Time>2020-03-07T13:08:41.000Z</Time>
            <Position>
              <LatitudeDegrees>40.58851073496043682098388671875</LatitudeDegrees>
              <LongitudeDegrees>-3.71059544384479522705078125</LongitudeDegrees>
            </Position>
            <AltitudeMeters>752.79998779296875</AltitudeMeters>
            <DistanceMeters>8831.6748321502</DistanceMeters>
          </Trackpoint>
          <Trackpoint>
            <Time>2020-03-07T13:08:42.000Z</Time>
            <Position>
              <LatitudeDegrees>40.58856421150267124176025390625</LatitudeDegrees>
              <LongitudeDegrees>-3.71066459454596042633056640625</LongitudeDegrees>
            </Position>
            <AltitudeMeters>752.79998779296875</AltitudeMeters>
            <DistanceMeters>8840.0171818884</DistanceMeters>
          </Trackpoint>
          <Trackpoint>
            <Time>2020-03-07T13:08:43.000Z</Time>
            <Position>
              <LatitudeDegrees>40.58861534111201763153076171875</LatitudeDegrees>
              <LongitudeDegrees>-3.7107320688664913177490234375</LongitudeDegrees>
            </Position>
            <AltitudeMeters>752.79998779296875</AltitudeMeters>
            <DistanceMeters>8848.0743041758</DistanceMeters>
          </Trackpoint>
          <Trackpoint>
            <Time>2020-03-07T13:08:44.000Z</Time>
            <Position>
              <LatitudeDegrees>40.58866529725492000579833984375</LatitudeDegrees>
              <LongitudeDegrees>-3.71079769916832447052001953125</LongitudeDegrees>
            </Position>
            <AltitudeMeters>752.79998779296875</AltitudeMeters>
            <DistanceMeters>8855.928824038</DistanceMeters>
          </Trackpoint>
          <Trackpoint>
            <Time>2020-03-07T13:08:45.000Z</Time>
            <Position>
              <LatitudeDegrees>40.58871676214039325714111328125</LatitudeDegrees>
              <LongitudeDegrees>-3.71086207218468189239501953125</LongitudeDegrees>
            </Position>
            <AltitudeMeters>752.79998779296875</AltitudeMeters>
            <DistanceMeters>8863.8291967115</DistanceMeters>
          </Trackpoint>
          <Trackpoint>
            <Time>2020-03-07T13:08:46.000Z</Time>
            <Position>
              <LatitudeDegrees>40.5887701548635959625244140625</LatitudeDegrees>
              <LongitudeDegrees>-3.71092460118234157562255859375</LongitudeDegrees>
            </Position>
            <AltitudeMeters>752.79998779296875</AltitudeMeters>
            <DistanceMeters>8871.7819732967</DistanceMeters>
          </Trackpoint>
          <Trackpoint>
            <Time>2020-03-07T13:08:47.000Z</Time>
            <Position>
              <LatitudeDegrees>40.58882505632936954498291015625</LatitudeDegrees>
              <LongitudeDegrees>-3.710984028875827789306640625</LongitudeDegrees>
            </Position>
            <AltitudeMeters>752.79998779296875</AltitudeMeters>
            <DistanceMeters>8879.6926262253</DistanceMeters>
          </Trackpoint>
          <Trackpoint>
            <Time>2020-03-07T13:08:48.000Z</Time>
            <Position>
              <LatitudeDegrees>40.58888054452836513519287109375</LatitudeDegrees>
              <LongitudeDegrees>-3.711041696369647979736328125</LongitudeDegrees>
            </Position>
            <AltitudeMeters>752.79998779296875</AltitudeMeters>
            <DistanceMeters>8887.5609299878</DistanceMeters>
          </Trackpoint>
          <Trackpoint>
            <Time>2020-03-07T13:08:49.000Z</Time>
            <Position>
              <LatitudeDegrees>40.58893620036542415618896484375</LatitudeDegrees>
              <LongitudeDegrees>-3.711096681654453277587890625</LongitudeDegrees>
            </Position>
            <AltitudeMeters>753</AltitudeMeters>
            <DistanceMeters>8895.3054614611</DistanceMeters>
          </Trackpoint>
          <Trackpoint>
            <Time>2020-03-07T13:08:50.000Z</Time>
            <Position>
              <LatitudeDegrees>40.58899168856441974639892578125</LatitudeDegrees>
              <LongitudeDegrees>-3.71115208603441715240478515625</LongitudeDegrees>
            </Position>
            <AltitudeMeters>753.20001220703125</AltitudeMeters>
            <DistanceMeters>8903.0558207112</DistanceMeters>
          </Trackpoint>
          <Trackpoint>
            <Time>2020-03-07T13:08:51.000Z</Time>
            <Position>
              <LatitudeDegrees>40.589047260582447052001953125</LatitudeDegrees>
              <LongitudeDegrees>-3.7112095020711421966552734375</LongitudeDegrees>
            </Position>
            <AltitudeMeters>753.4000244140625</AltitudeMeters>
            <DistanceMeters>8910.9172355446</DistanceMeters>
          </Trackpoint>
          <Trackpoint>
            <Time>2020-03-07T13:08:52.000Z</Time>
            <Position>
              <LatitudeDegrees>40.5891050957143306732177734375</LatitudeDegrees>
              <LongitudeDegrees>-3.7112661637365818023681640625</LongitudeDegrees>
            </Position>
            <AltitudeMeters>753.4000244140625</AltitudeMeters>
            <DistanceMeters>8918.9401019209</DistanceMeters>
          </Trackpoint>
          <Trackpoint>
            <Time>2020-03-07T13:08:53.000Z</Time>
            <Position>
              <LatitudeDegrees>40.589164607226848602294921875</LatitudeDegrees>
              <LongitudeDegrees>-3.7113228254020214080810546875</LongitudeDegrees>
            </Position>
            <AltitudeMeters>753.4000244140625</AltitudeMeters>
            <DistanceMeters>8927.1135042438</DistanceMeters>
          </Trackpoint>
          <Trackpoint>
            <Time>2020-03-07T13:08:54.000Z</Time>
            <Position>
              <LatitudeDegrees>40.589225627481937408447265625</LatitudeDegrees>
              <LongitudeDegrees>-3.7113793194293975830078125</LongitudeDegrees>
            </Position>
            <AltitudeMeters>753.4000244140625</AltitudeMeters>
            <DistanceMeters>8935.4151633202</DistanceMeters>
          </Trackpoint>
          <Trackpoint>
            <Time>2020-03-07T13:08:55.000Z</Time>
            <Position>
              <LatitudeDegrees>40.5892874859273433685302734375</LatitudeDegrees>
              <LongitudeDegrees>-3.71143187396228313446044921875</LongitudeDegrees>
            </Position>
            <AltitudeMeters>753.5999755859375</AltitudeMeters>
            <DistanceMeters>8943.6084281325</DistanceMeters>
          </Trackpoint>
          <Trackpoint>
            <Time>2020-03-07T13:08:56.000Z</Time>
            <Position>
              <LatitudeDegrees>40.5893481709063053131103515625</LatitudeDegrees>
              <LongitudeDegrees>-3.7114827521145343780517578125</LongitudeDegrees>
            </Position>
            <AltitudeMeters>753.5999755859375</AltitudeMeters>
            <DistanceMeters>8951.6160852698</DistanceMeters>
          </Trackpoint>
          <Trackpoint>
            <Time>2020-03-07T13:08:57.000Z</Time>
            <Position>
              <LatitudeDegrees>40.58940793387591838836669921875</LatitudeDegrees>
              <LongitudeDegrees>-3.71152977459132671356201171875</LongitudeDegrees>
            </Position>
            <AltitudeMeters>753.5999755859375</AltitudeMeters>
            <DistanceMeters>8959.3652793151</DistanceMeters>
          </Trackpoint>
          <Trackpoint>
            <Time>2020-03-07T13:08:58.000Z</Time>
            <Position>
              <LatitudeDegrees>40.58946878649294376373291015625</LatitudeDegrees>
              <LongitudeDegrees>-3.7115719355642795562744140625</LongitudeDegrees>
            </Position>
            <AltitudeMeters>753.5999755859375</AltitudeMeters>
            <DistanceMeters>8967.0195027224</DistanceMeters>
          </Trackpoint>
          <Trackpoint>
            <Time>2020-03-07T13:08:59.000Z</Time>
            <Position>
              <LatitudeDegrees>40.58952846564352512359619140625</LatitudeDegrees>
              <LongitudeDegrees>-3.71161334216594696044921875</LongitudeDegrees>
            </Position>
            <AltitudeMeters>753.5999755859375</AltitudeMeters>
            <DistanceMeters>8974.5278159311</DistanceMeters>
          </Trackpoint>
          <Trackpoint>
            <Time>2020-03-07T13:09:00.000Z</Time>
            <Position>
              <LatitudeDegrees>40.58958663605153560638427734375</LatitudeDegrees>
              <LongitudeDegrees>-3.711657263338565826416015625</LongitudeDegrees>
            </Position>
            <AltitudeMeters>753.5999755859375</AltitudeMeters>
            <DistanceMeters>8981.9908924754</DistanceMeters>
          </Trackpoint>
          <Trackpoint>
            <Time>2020-03-07T13:09:01.000Z</Time>
            <Position>
              <LatitudeDegrees>40.58964430354535579681396484375</LatitudeDegrees>
              <LongitudeDegrees>-3.711700849235057830810546875</LongitudeDegrees>
            </Position>
            <AltitudeMeters>753.4000244140625</AltitudeMeters>
            <DistanceMeters>8989.3920034534</DistanceMeters>
          </Trackpoint>
          <Trackpoint>
            <Time>2020-03-07T13:09:02.000Z</Time>
            <Position>
              <LatitudeDegrees>40.58970163576304912567138671875</LatitudeDegrees>
              <LongitudeDegrees>-3.71174250729382038116455078125</LongitudeDegrees>
            </Position>
            <AltitudeMeters>753.20001220703125</AltitudeMeters>
            <DistanceMeters>8996.6800010963</DistanceMeters>
          </Trackpoint>
          <Trackpoint>
            <Time>2020-03-07T13:09:03.000Z</Time>
            <Position>
              <LatitudeDegrees>40.58975913561880588531494140625</LatitudeDegrees>
              <LongitudeDegrees>-3.71178223751485347747802734375</LongitudeDegrees>
            </Position>
            <AltitudeMeters>753</AltitudeMeters>
            <DistanceMeters>9003.9070310639</DistanceMeters>
          </Trackpoint>
          <Trackpoint>
            <Time>2020-03-07T13:09:04.000Z</Time>
            <Position>
              <LatitudeDegrees>40.58981663547456264495849609375</LatitudeDegrees>
              <LongitudeDegrees>-3.71182146482169628143310546875</LongitudeDegrees>
            </Position>
            <AltitudeMeters>753</AltitudeMeters>
            <DistanceMeters>9011.1146679708</DistanceMeters>
          </Trackpoint>
          <Trackpoint>
            <Time>2020-03-07T13:09:05.000Z</Time>
            <Position>
              <LatitudeDegrees>40.589874722063541412353515625</LatitudeDegrees>
              <LongitudeDegrees>-3.7118602730333805084228515625</LongitudeDegrees>
            </Position>
            <AltitudeMeters>753</AltitudeMeters>
            <DistanceMeters>9018.364153808</DistanceMeters>
          </Trackpoint>
          <Trackpoint>
            <Time>2020-03-07T13:09:06.000Z</Time>
            <Position>
              <LatitudeDegrees>40.58993347920477390289306640625</LatitudeDegrees>
              <LongitudeDegrees>-3.71189841069281101226806640625</LongitudeDegrees>
            </Position>
            <AltitudeMeters>753</AltitudeMeters>
            <DistanceMeters>9025.6546290977</DistanceMeters>
          </Trackpoint>
          <Trackpoint>
            <Time>2020-03-07T13:09:07.000Z</Time>
            <Position>
              <LatitudeDegrees>40.58999265544116497039794921875</LatitudeDegrees>
              <LongitudeDegrees>-3.7119357101619243621826171875</LongitudeDegrees>
            </Position>
            <AltitudeMeters>753</AltitudeMeters>
            <DistanceMeters>9032.956861729</DistanceMeters>
          </Trackpoint>
          <Trackpoint>
            <Time>2020-03-07T13:09:08.000Z</Time>
            <Position>
              <LatitudeDegrees>40.59005183167755603790283203125</LatitudeDegrees>
              <LongitudeDegrees>-3.71197284199297428131103515625</LongitudeDegrees>
            </Position>
            <AltitudeMeters>753</AltitudeMeters>
            <DistanceMeters>9040.2529086475</DistanceMeters>
          </Trackpoint>
          <Trackpoint>
            <Time>2020-03-07T13:09:09.000Z</Time>
            <Position>
              <LatitudeDegrees>40.5901117622852325439453125</LatitudeDegrees>
              <LongitudeDegrees>-3.71200888417661190032958984375</LongitudeDegrees>
            </Position>
            <AltitudeMeters>753</AltitudeMeters>
            <DistanceMeters>9047.5866072573</DistanceMeters>
          </Trackpoint>
          <Trackpoint>
            <Time>2020-03-07T13:09:10.000Z</Time>
            <Position>
              <LatitudeDegrees>40.5901722796261310577392578125</LatitudeDegrees>
              <LongitudeDegrees>-3.712042830884456634521484375</LongitudeDegrees>
            </Position>
            <AltitudeMeters>753</AltitudeMeters>
            <DistanceMeters>9054.9079823858</DistanceMeters>
          </Trackpoint>
          <Trackpoint>
            <Time>2020-03-07T13:09:11.000Z</Time>
            <Position>
              <LatitudeDegrees>40.5902326293289661407470703125</LatitudeDegrees>
              <LongitudeDegrees>-3.7120761908590793609619140625</LongitudeDegrees>
            </Position>
            <AltitudeMeters>753</AltitudeMeters>
            <DistanceMeters>9062.1935015394</DistanceMeters>
          </Trackpoint>
          <Trackpoint>
            <Time>2020-03-07T13:09:12.000Z</Time>
            <Position>
              <LatitudeDegrees>40.59029222466051578521728515625</LatitudeDegrees>
              <LongitudeDegrees>-3.71211064048111438751220703125</LongitudeDegrees>
            </Position>
            <AltitudeMeters>753.20001220703125</AltitudeMeters>
            <DistanceMeters>9069.4380031987</DistanceMeters>
          </Trackpoint>
          <Trackpoint>
            <Time>2020-03-07T13:09:13.000Z</Time>
            <Position>
              <LatitudeDegrees>40.59035073034465312957763671875</LatitudeDegrees>
              <LongitudeDegrees>-3.7121459282934665679931640625</LongitudeDegrees>
            </Position>
            <AltitudeMeters>753.4000244140625</AltitudeMeters>
            <DistanceMeters>9076.5997651469</DistanceMeters>
          </Trackpoint>
          <Trackpoint>
            <Time>2020-03-07T13:09:14.000Z</Time>
            <Position>
              <LatitudeDegrees>40.59040973894298076629638671875</LatitudeDegrees>
              <LongitudeDegrees>-3.71217886917293071746826171875</LongitudeDegrees>
            </Position>
            <AltitudeMeters>753.4000244140625</AltitudeMeters>
            <DistanceMeters>9083.7337339468</DistanceMeters>
          </Trackpoint>
          <Trackpoint>
            <Time>2020-03-07T13:09:15.000Z</Time>
            <Position>
              <LatitudeDegrees>40.590468831360340118408203125</LatitudeDegrees>
              <LongitudeDegrees>-3.71220879256725311279296875</LongitudeDegrees>
            </Position>
            <AltitudeMeters>753.5999755859375</AltitudeMeters>
            <DistanceMeters>9090.7798222438</DistanceMeters>
          </Trackpoint>
          <Trackpoint>
            <Time>2020-03-07T13:09:16.000Z</Time>
            <Position>
              <LatitudeDegrees>40.590528510510921478271484375</LatitudeDegrees>
              <LongitudeDegrees>-3.7122381292283535003662109375</LongitudeDegrees>
            </Position>
            <AltitudeMeters>753.5999755859375</AltitudeMeters>
            <DistanceMeters>9097.8699869501</DistanceMeters>
          </Trackpoint>
          <Trackpoint>
            <Time>2020-03-07T13:09:17.000Z</Time>
            <Position>
              <LatitudeDegrees>40.59058827348053455352783203125</LatitudeDegrees>
              <LongitudeDegrees>-3.71226771734654903411865234375</LongitudeDegrees>
            </Position>
            <AltitudeMeters>753.5999755859375</AltitudeMeters>
            <DistanceMeters>9104.9760538985</DistanceMeters>
          </Trackpoint>
          <Trackpoint>
            <Time>2020-03-07T13:09:18.000Z</Time>
            <Position>
              <LatitudeDegrees>40.5906487070024013519287109375</LatitudeDegrees>
              <LongitudeDegrees>-3.71229604817926883697509765625</LongitudeDegrees>
            </Position>
            <AltitudeMeters>753.5999755859375</AltitudeMeters>
            <DistanceMeters>9112.1150840462</DistanceMeters>
          </Trackpoint>
          <Trackpoint>
            <Time>2020-03-07T13:09:19.000Z</Time>
            <Position>
              <LatitudeDegrees>40.59070947580039501190185546875</LatitudeDegrees>
              <LongitudeDegrees>-3.7123246304690837860107421875</LongitudeDegrees>
            </Position>
            <AltitudeMeters>753.5999755859375</AltitudeMeters>
            <DistanceMeters>9119.2969916373</DistanceMeters>
          </Trackpoint>
          <Trackpoint>
            <Time>2020-03-07T13:09:20.000Z</Time>
            <Position>
              <LatitudeDegrees>40.590770244598388671875</LatitudeDegrees>
              <LongitudeDegrees>-3.71235338039696216583251953125</LongitudeDegrees>
            </Position>
            <AltitudeMeters>753.79998779296875</AltitudeMeters>
            <DistanceMeters>9126.4839268158</DistanceMeters>
          </Trackpoint>
          <Trackpoint>
            <Time>2020-03-07T13:09:21.000Z</Time>
            <Position>
              <LatitudeDegrees>40.59083051048219203948974609375</LatitudeDegrees>
              <LongitudeDegrees>-3.71238288469612598419189453125</LongitudeDegrees>
            </Position>
            <AltitudeMeters>753.79998779296875</AltitudeMeters>
            <DistanceMeters>9133.6406434925</DistanceMeters>
          </Trackpoint>
          <Trackpoint>
            <Time>2020-03-07T13:09:22.000Z</Time>
            <Position>
              <LatitudeDegrees>40.59088868089020252227783203125</LatitudeDegrees>
              <LongitudeDegrees>-3.712413646280765533447265625</LongitudeDegrees>
            </Position>
            <AltitudeMeters>753.79998779296875</AltitudeMeters>
            <DistanceMeters>9140.6171836115</DistanceMeters>
          </Trackpoint>
          <Trackpoint>
            <Time>2020-03-07T13:09:23.000Z</Time>
            <Position>
              <LatitudeDegrees>40.590945594012737274169921875</LatitudeDegrees>
              <LongitudeDegrees>-3.71244390495121479034423828125</LongitudeDegrees>
            </Position>
            <AltitudeMeters>753.79998779296875</AltitudeMeters>
            <DistanceMeters>9147.4485403627</DistanceMeters>
          </Trackpoint>
          <Trackpoint>
            <Time>2020-03-07T13:09:24.000Z</Time>
            <Position>
              <LatitudeDegrees>40.5910010822117328643798828125</LatitudeDegrees>
              <LongitudeDegrees>-3.71247340925037860870361328125</LongitudeDegrees>
            </Position>
            <AltitudeMeters>753.79998779296875</AltitudeMeters>
            <DistanceMeters>9154.109228433</DistanceMeters>
          </Trackpoint>
          <Trackpoint>
            <Time>2020-03-07T13:09:25.000Z</Time>
            <Position>
              <LatitudeDegrees>40.59105564840137958526611328125</LatitudeDegrees>
              <LongitudeDegrees>-3.7125016562640666961669921875</LongitudeDegrees>
            </Position>
            <AltitudeMeters>753.79998779296875</AltitudeMeters>
            <DistanceMeters>9160.6350111837</DistanceMeters>
          </Trackpoint>
          <Trackpoint>
            <Time>2020-03-07T13:09:26.000Z</Time>
            <Position>
              <LatitudeDegrees>40.5911090411245822906494140625</LatitudeDegrees>
              <LongitudeDegrees>-3.71252973563969135284423828125</LongitudeDegrees>
            </Position>
            <AltitudeMeters>754</AltitudeMeters>
            <DistanceMeters>9167.0350445235</DistanceMeters>
          </Trackpoint>
          <Trackpoint>
            <Time>2020-03-07T13:09:27.000Z</Time>
            <Position>
              <LatitudeDegrees>40.591160170733928680419921875</LatitudeDegrees>
              <LongitudeDegrees>-3.7125576473772525787353515625</LongitudeDegrees>
            </Position>
            <AltitudeMeters>754</AltitudeMeters>
            <DistanceMeters>9173.1956785244</DistanceMeters>
          </Trackpoint>
          <Trackpoint>
            <Time>2020-03-07T13:09:28.000Z</Time>
            <Position>
              <LatitudeDegrees>40.5912102945148944854736328125</LatitudeDegrees>
              <LongitudeDegrees>-3.712585978209972381591796875</LongitudeDegrees>
            </Position>
            <AltitudeMeters>754</AltitudeMeters>
            <DistanceMeters>9179.2669858008</DistanceMeters>
          </Trackpoint>
          <Trackpoint>
            <Time>2020-03-07T13:09:29.000Z</Time>
            <Position>
              <LatitudeDegrees>40.591260753571987152099609375</LatitudeDegrees>
              <LongitudeDegrees>-3.712614476680755615234375</LongitudeDegrees>
            </Position>
            <AltitudeMeters>754.20001220703125</AltitudeMeters>
            <DistanceMeters>9185.3768414472</DistanceMeters>
          </Trackpoint>
          <Trackpoint>
            <Time>2020-03-07T13:09:30.000Z</Time>
            <Position>
              <LatitudeDegrees>40.5913108773529529571533203125</LatitudeDegrees>
              <LongitudeDegrees>-3.71264305897057056427001953125</LongitudeDegrees>
            </Position>
            <AltitudeMeters>754.20001220703125</AltitudeMeters>
            <DistanceMeters>9191.4555808567</DistanceMeters>
          </Trackpoint>
          <Trackpoint>
            <Time>2020-03-07T13:09:31.000Z</Time>
            <Position>
              <LatitudeDegrees>40.59136158786714076995849609375</LatitudeDegrees>
              <LongitudeDegrees>-3.7126706354320049285888671875</LongitudeDegrees>
            </Position>
            <AltitudeMeters>754.20001220703125</AltitudeMeters>
            <DistanceMeters>9197.5610010356</DistanceMeters>
          </Trackpoint>
          <Trackpoint>
            <Time>2020-03-07T13:09:32.000Z</Time>
            <Position>
              <LatitudeDegrees>40.59141221456229686737060546875</LatitudeDegrees>
              <LongitudeDegrees>-3.7126954458653926849365234375</LongitudeDegrees>
            </Position>
            <AltitudeMeters>754.4000244140625</AltitudeMeters>
            <DistanceMeters>9203.5740224127</DistanceMeters>
          </Trackpoint>
          <Trackpoint>
            <Time>2020-03-07T13:09:33.000Z</Time>
            <Position>
              <LatitudeDegrees>40.59146401472389698028564453125</LatitudeDegrees>
              <LongitudeDegrees>-3.71271799318492412567138671875</LongitudeDegrees>
            </Position>
            <AltitudeMeters>754.5999755859375</AltitudeMeters>
            <DistanceMeters>9209.6460733117</DistanceMeters>
          </Trackpoint>
          <Trackpoint>
            <Time>2020-03-07T13:09:34.000Z</Time>
            <Position>
              <LatitudeDegrees>40.59151648543775081634521484375</LatitudeDegrees>
              <LongitudeDegrees>-3.7127403728663921356201171875</LongitudeDegrees>
            </Position>
            <AltitudeMeters>755</AltitudeMeters>
            <DistanceMeters>9215.7846813787</DistanceMeters>
          </Trackpoint>
          <Trackpoint>
            <Time>2020-03-07T13:09:35.000Z</Time>
            <Position>
              <LatitudeDegrees>40.5915697105228900909423828125</LatitudeDegrees>
              <LongitudeDegrees>-3.71276266872882843017578125</LongitudeDegrees>
            </Position>
            <AltitudeMeters>755.5999755859375</AltitudeMeters>
            <DistanceMeters>9222.0014914273</DistanceMeters>
          </Trackpoint>
          <Trackpoint>
            <Time>2020-03-07T13:09:36.000Z</Time>
            <Position>
              <LatitudeDegrees>40.591623522341251373291015625</LatitudeDegrees>
              <LongitudeDegrees>-3.712782450020313262939453125</LongitudeDegrees>
            </Position>
            <AltitudeMeters>756.4000244140625</AltitudeMeters>
            <DistanceMeters>9228.219753832</DistanceMeters>
          </Trackpoint>
          <Trackpoint>
            <Time>2020-03-07T13:09:37.000Z</Time>
            <Position>
              <LatitudeDegrees>40.59167616069316864013671875</LatitudeDegrees>
              <LongitudeDegrees>-3.712799549102783203125</LongitudeDegrees>
            </Position>
            <AltitudeMeters>756.79998779296875</AltitudeMeters>
            <DistanceMeters>9234.2537631311</DistanceMeters>
          </Trackpoint>
          <Trackpoint>
            <Time>2020-03-07T13:09:38.000Z</Time>
            <Position>
              <LatitudeDegrees>40.59172854758799076080322265625</LatitudeDegrees>
              <LongitudeDegrees>-3.71281497180461883544921875</LongitudeDegrees>
            </Position>
            <AltitudeMeters>757</AltitudeMeters>
            <DistanceMeters>9240.2276113135</DistanceMeters>
          </Trackpoint>
          <Trackpoint>
            <Time>2020-03-07T13:09:39.000Z</Time>
            <Position>
              <LatitudeDegrees>40.591781772673130035400390625</LatitudeDegrees>
              <LongitudeDegrees>-3.7128305621445178985595703125</LongitudeDegrees>
            </Position>
            <AltitudeMeters>757.4000244140625</AltitudeMeters>
            <DistanceMeters>9246.295943188</DistanceMeters>
          </Trackpoint>
          <Trackpoint>
            <Time>2020-03-07T13:09:40.000Z</Time>
            <Position>
              <LatitudeDegrees>40.59183600358664989471435546875</LatitudeDegrees>
              <LongitudeDegrees>-3.71284623630344867706298828125</LongitudeDegrees>
            </Position>
            <AltitudeMeters>757.79998779296875</AltitudeMeters>
            <DistanceMeters>9252.476333415</DistanceMeters>
          </Trackpoint>
          <Trackpoint>
            <Time>2020-03-07T13:09:41.000Z</Time>
            <Position>
              <LatitudeDegrees>40.5918927490711212158203125</LatitudeDegrees>
              <LongitudeDegrees>-3.7128644250333309173583984375</LongitudeDegrees>
            </Position>
            <AltitudeMeters>758.20001220703125</AltitudeMeters>
            <DistanceMeters>9258.9771608821</DistanceMeters>
          </Trackpoint>
          <Trackpoint>
            <Time>2020-03-07T13:09:42.000Z</Time>
            <Position>
              <LatitudeDegrees>40.5919499136507511138916015625</LatitudeDegrees>
              <LongitudeDegrees>-3.71288429014384746551513671875</LongitudeDegrees>
            </Position>
            <AltitudeMeters>758.4000244140625</AltitudeMeters>
            <DistanceMeters>9265.5573749021</DistanceMeters>
          </Trackpoint>
          <Trackpoint>
            <Time>2020-03-07T13:09:43.000Z</Time>
            <Position>
              <LatitudeDegrees>40.59200800023972988128662109375</LatitudeDegrees>
              <LongitudeDegrees>-3.71290474198758602142333984375</LongitudeDegrees>
            </Position>
            <AltitudeMeters>758.5999755859375</AltitudeMeters>
            <DistanceMeters>9272.2498467296</DistanceMeters>
          </Trackpoint>
          <Trackpoint>
            <Time>2020-03-07T13:09:44.000Z</Time>
            <Position>
              <LatitudeDegrees>40.5920672602951526641845703125</LatitudeDegrees>
              <LongitudeDegrees>-3.7129251100122928619384765625</LongitudeDegrees>
            </Position>
            <AltitudeMeters>758.5999755859375</AltitudeMeters>
            <DistanceMeters>9279.0666475467</DistanceMeters>
          </Trackpoint>
          <Trackpoint>
            <Time>2020-03-07T13:09:45.000Z</Time>
            <Position>
              <LatitudeDegrees>40.59212735854089260101318359375</LatitudeDegrees>
              <LongitudeDegrees>-3.71294380165636539459228515625</LongitudeDegrees>
            </Position>
            <AltitudeMeters>758.5999755859375</AltitudeMeters>
            <DistanceMeters>9285.9395166622</DistanceMeters>
          </Trackpoint>
          <Trackpoint>
            <Time>2020-03-07T13:09:46.000Z</Time>
            <Position>
              <LatitudeDegrees>40.59218854643404483795166015625</LatitudeDegrees>
              <LongitudeDegrees>-3.7129613198339939117431640625</LongitudeDegrees>
            </Position>
            <AltitudeMeters>758.5999755859375</AltitudeMeters>
            <DistanceMeters>9292.9082863611</DistanceMeters>
          </Trackpoint>
          <Trackpoint>
            <Time>2020-03-07T13:09:47.000Z</Time>
            <Position>
              <LatitudeDegrees>40.592250823974609375</LatitudeDegrees>
              <LongitudeDegrees>-3.712978921830654144287109375</LongitudeDegrees>
            </Position>
            <AltitudeMeters>758.5999755859375</AltitudeMeters>
            <DistanceMeters>9299.9978142358</DistanceMeters>
          </Trackpoint>
          <Trackpoint>
            <Time>2020-03-07T13:09:48.000Z</Time>
            <Position>
              <LatitudeDegrees>40.59231259860098361968994140625</LatitudeDegrees>
              <LongitudeDegrees>-3.71299694292247295379638671875</LongitudeDegrees>
            </Position>
            <AltitudeMeters>758.5999755859375</AltitudeMeters>
            <DistanceMeters>9307.0400567643</DistanceMeters>
          </Trackpoint>
          <Trackpoint>
            <Time>2020-03-07T13:09:49.000Z</Time>
            <Position>
              <LatitudeDegrees>40.59237378649413585662841796875</LatitudeDegrees>
              <LongitudeDegrees>-3.7130156345665454864501953125</LongitudeDegrees>
            </Position>
            <AltitudeMeters>758.5999755859375</AltitudeMeters>
            <DistanceMeters>9314.0308202215</DistanceMeters>
          </Trackpoint>
          <Trackpoint>
            <Time>2020-03-07T13:09:50.000Z</Time>
            <Position>
              <LatitudeDegrees>40.59243480674922466278076171875</LatitudeDegrees>
              <LongitudeDegrees>-3.71303491294384002685546875</LongitudeDegrees>
            </Position>
            <AltitudeMeters>758.5999755859375</AltitudeMeters>
            <DistanceMeters>9321.0157685411</DistanceMeters>
          </Trackpoint>
          <Trackpoint>
            <Time>2020-03-07T13:09:51.000Z</Time>
            <Position>
              <LatitudeDegrees>40.5924967490136623382568359375</LatitudeDegrees>
              <LongitudeDegrees>-3.71305410750210285186767578125</LongitudeDegrees>
            </Position>
            <AltitudeMeters>758.5999755859375</AltitudeMeters>
            <DistanceMeters>9328.0982874889</DistanceMeters>
          </Trackpoint>
          <Trackpoint>
            <Time>2020-03-07T13:09:52.000Z</Time>
            <Position>
              <LatitudeDegrees>40.59255936183035373687744140625</LatitudeDegrees>
              <LongitudeDegrees>-3.7130722962319850921630859375</LongitudeDegrees>
            </Position>
            <AltitudeMeters>758.4000244140625</AltitudeMeters>
            <DistanceMeters>9335.2347874114</DistanceMeters>
          </Trackpoint>
          <Trackpoint>
            <Time>2020-03-07T13:09:53.000Z</Time>
            <Position>
              <LatitudeDegrees>40.59262272901833057403564453125</LatitudeDegrees>
              <LongitudeDegrees>-3.71308713220059871673583984375</LongitudeDegrees>
            </Position>
            <AltitudeMeters>758.4000244140625</AltitudeMeters>
            <DistanceMeters>9342.3978101221</DistanceMeters>
          </Trackpoint>
          <Trackpoint>
            <Time>2020-03-07T13:09:54.000Z</Time>
            <Position>
              <LatitudeDegrees>40.5926861800253391265869140625</LatitudeDegrees>
              <LongitudeDegrees>-3.71310037560760974884033203125</LongitudeDegrees>
            </Position>
            <AltitudeMeters>758.20001220703125</AltitudeMeters>
            <DistanceMeters>9349.5482152034</DistanceMeters>
          </Trackpoint>
          <Trackpoint>
            <Time>2020-03-07T13:09:55.000Z</Time>
            <Position>
              <LatitudeDegrees>40.5927502177655696868896484375</LatitudeDegrees>
              <LongitudeDegrees>-3.7131118588149547576904296875</LongitudeDegrees>
            </Position>
            <AltitudeMeters>758.20001220703125</AltitudeMeters>
            <DistanceMeters>9356.7414299245</DistanceMeters>
          </Trackpoint>
          <Trackpoint>
            <Time>2020-03-07T13:09:56.000Z</Time>
            <Position>
              <LatitudeDegrees>40.59281408786773681640625</LatitudeDegrees>
              <LongitudeDegrees>-3.71312334202229976654052734375</LongitudeDegrees>
            </Position>
            <AltitudeMeters>758.20001220703125</AltitudeMeters>
            <DistanceMeters>9363.9157895287</DistanceMeters>
          </Trackpoint>
          <Trackpoint>
            <Time>2020-03-07T13:09:57.000Z</Time>
            <Position>
              <LatitudeDegrees>40.59287779033184051513671875</LatitudeDegrees>
              <LongitudeDegrees>-3.71313750743865966796875</LongitudeDegrees>
            </Position>
            <AltitudeMeters>758.20001220703125</AltitudeMeters>
            <DistanceMeters>9371.105865164</DistanceMeters>
          </Trackpoint>
          <Trackpoint>
            <Time>2020-03-07T13:09:58.000Z</Time>
            <Position>
              <LatitudeDegrees>40.59294191189110279083251953125</LatitudeDegrees>
              <LongitudeDegrees>-3.71315184049308300018310546875</LongitudeDegrees>
            </Position>
            <AltitudeMeters>758.20001220703125</AltitudeMeters>
            <DistanceMeters>9378.345379214</DistanceMeters>
          </Trackpoint>
          <Trackpoint>
            <Time>2020-03-07T13:09:59.000Z</Time>
            <Position>
              <LatitudeDegrees>40.59300611726939678192138671875</LatitudeDegrees>
              <LongitudeDegrees>-3.71316768229007720947265625</LongitudeDegrees>
            </Position>
            <AltitudeMeters>758.20001220703125</AltitudeMeters>
            <DistanceMeters>9385.6153886657</DistanceMeters>
          </Trackpoint>
          <Trackpoint>
            <Time>2020-03-07T13:10:00.000Z</Time>
            <Position>
              <LatitudeDegrees>40.59307082556188106536865234375</LatitudeDegrees>
              <LongitudeDegrees>-3.713186122477054595947265625</LongitudeDegrees>
            </Position>
            <AltitudeMeters>758.20001220703125</AltitudeMeters>
            <DistanceMeters>9392.9847088333</DistanceMeters>
          </Trackpoint>
          <Trackpoint>
            <Time>2020-03-07T13:10:01.000Z</Time>
            <Position>
              <LatitudeDegrees>40.59313436038792133331298828125</LatitudeDegrees>
              <LongitudeDegrees>-3.71320297010242938995361328125</LongitudeDegrees>
            </Position>
            <AltitudeMeters>758.20001220703125</AltitudeMeters>
            <DistanceMeters>9400.1979813549</DistanceMeters>
          </Trackpoint>
          <Trackpoint>
            <Time>2020-03-07T13:10:02.000Z</Time>
            <Position>
              <LatitudeDegrees>40.5931974761188030242919921875</LatitudeDegrees>
              <LongitudeDegrees>-3.7132178060710430145263671875</LongitudeDegrees>
            </Position>
            <AltitudeMeters>758.20001220703125</AltitudeMeters>
            <DistanceMeters>9407.3338485809</DistanceMeters>
          </Trackpoint>
          <Trackpoint>
            <Time>2020-03-07T13:10:03.000Z</Time>
            <Position>
              <LatitudeDegrees>40.59326092712581157684326171875</LatitudeDegrees>
              <LongitudeDegrees>-3.713231049478054046630859375</LongitudeDegrees>
            </Position>
            <AltitudeMeters>758.20001220703125</AltitudeMeters>
            <DistanceMeters>9414.4842536621</DistanceMeters>
          </Trackpoint>
          <Trackpoint>
            <Time>2020-03-07T13:10:04.000Z</Time>
            <Position>
              <LatitudeDegrees>40.59332496486604213714599609375</LatitudeDegrees>
              <LongitudeDegrees>-3.71324454434216022491455078125</LongitudeDegrees>
            </Position>
            <AltitudeMeters>758.20001220703125</AltitudeMeters>
            <DistanceMeters>9421.7025319251</DistanceMeters>
          </Trackpoint>
          <Trackpoint>
            <Time>2020-03-07T13:10:05.000Z</Time>
            <Position>
              <LatitudeDegrees>40.59338883496820926666259765625</LatitudeDegrees>
              <LongitudeDegrees>-3.71325979940593242645263671875</LongitudeDegrees>
            </Position>
            <AltitudeMeters>758.20001220703125</AltitudeMeters>
            <DistanceMeters>9428.9270624874</DistanceMeters>
          </Trackpoint>
          <Trackpoint>
            <Time>2020-03-07T13:10:06.000Z</Time>
            <Position>
              <LatitudeDegrees>40.59345521964132785797119140625</LatitudeDegrees>
              <LongitudeDegrees>-3.71327899396419525146484375</LongitudeDegrees>
            </Position>
            <AltitudeMeters>758.20001220703125</AltitudeMeters>
            <DistanceMeters>9436.4910934465</DistanceMeters>
          </Trackpoint>
          <Trackpoint>
            <Time>2020-03-07T13:10:07.000Z</Time>
            <Position>
              <LatitudeDegrees>40.59352227486670017242431640625</LatitudeDegrees>
              <LongitudeDegrees>-3.71330640278756618499755859375</LongitudeDegrees>
            </Position>
            <AltitudeMeters>758.20001220703125</AltitudeMeters>
            <DistanceMeters>9444.3064269049</DistanceMeters>
          </Trackpoint>
          <Trackpoint>
            <Time>2020-03-07T13:10:08.000Z</Time>
            <Position>
              <LatitudeDegrees>40.59358857572078704833984375</LatitudeDegrees>
              <LongitudeDegrees>-3.7133395113050937652587890625</LongitudeDegrees>
            </Position>
            <AltitudeMeters>758.20001220703125</AltitudeMeters>
            <DistanceMeters>9452.1987945668</DistanceMeters>
          </Trackpoint>
          <Trackpoint>
            <Time>2020-03-07T13:10:09.000Z</Time>
            <Position>
              <LatitudeDegrees>40.593653619289398193359375</LatitudeDegrees>
              <LongitudeDegrees>-3.713375888764858245849609375</LongitudeDegrees>
            </Position>
            <AltitudeMeters>758.20001220703125</AltitudeMeters>
            <DistanceMeters>9460.06480269</DistanceMeters>
          </Trackpoint>
          <Trackpoint>
            <Time>2020-03-07T13:10:10.000Z</Time>
            <Position>
              <LatitudeDegrees>40.59371774084866046905517578125</LatitudeDegrees>
              <LongitudeDegrees>-3.71341452933847904205322265625</LongitudeDegrees>
            </Position>
            <AltitudeMeters>758.20001220703125</AltitudeMeters>
            <DistanceMeters>9467.9135721159</DistanceMeters>
          </Trackpoint>
          <Trackpoint>
            <Time>2020-03-07T13:10:11.000Z</Time>
            <Position>
              <LatitudeDegrees>40.59377691708505153656005859375</LatitudeDegrees>
              <LongitudeDegrees>-3.71345828287303447723388671875</LongitudeDegrees>
            </Position>
            <AltitudeMeters>758</AltitudeMeters>
            <DistanceMeters>9475.4668510709</DistanceMeters>
          </Trackpoint>
          <Trackpoint>
            <Time>2020-03-07T13:10:12.000Z</Time>
            <Position>
              <LatitudeDegrees>40.59383542276918888092041015625</LatitudeDegrees>
              <LongitudeDegrees>-3.7135068140923976898193359375</LongitudeDegrees>
            </Position>
            <AltitudeMeters>758</AltitudeMeters>
            <DistanceMeters>9483.1628416762</DistanceMeters>
          </Trackpoint>
          <Trackpoint>
            <Time>2020-03-07T13:10:13.000Z</Time>
            <Position>
              <LatitudeDegrees>40.5938938446342945098876953125</LatitudeDegrees>
              <LongitudeDegrees>-3.71355819515883922576904296875</LongitudeDegrees>
            </Position>
            <AltitudeMeters>758</AltitudeMeters>
            <DistanceMeters>9490.9816406585</DistanceMeters>
          </Trackpoint>
          <Trackpoint>
            <Time>2020-03-07T13:10:14.000Z</Time>
            <Position>
              <LatitudeDegrees>40.59395595453679561614990234375</LatitudeDegrees>
              <LongitudeDegrees>-3.71360798366367816925048828125</LongitudeDegrees>
            </Position>
            <AltitudeMeters>758</AltitudeMeters>
            <DistanceMeters>9499.0751055855</DistanceMeters>
          </Trackpoint>
          <Trackpoint>
            <Time>2020-03-07T13:10:15.000Z</Time>
            <Position>
              <LatitudeDegrees>40.59402150101959705352783203125</LatitudeDegrees>
              <LongitudeDegrees>-3.7136513181030750274658203125</LongitudeDegrees>
            </Position>
            <AltitudeMeters>757.79998779296875</AltitudeMeters>
            <DistanceMeters>9507.2380054427</DistanceMeters>
          </Trackpoint>
          <Trackpoint>
            <Time>2020-03-07T13:10:16.000Z</Time>
            <Position>
              <LatitudeDegrees>40.59409006498754024505615234375</LatitudeDegrees>
              <LongitudeDegrees>-3.713682331144809722900390625</LongitudeDegrees>
            </Position>
            <AltitudeMeters>757.79998779296875</AltitudeMeters>
            <DistanceMeters>9515.3068870976</DistanceMeters>
          </Trackpoint>
          <Trackpoint>
            <Time>2020-03-07T13:10:17.000Z</Time>
            <Position>
              <LatitudeDegrees>40.59416030533611774444580078125</LatitudeDegrees>
              <LongitudeDegrees>-3.7137046270072460174560546875</LongitudeDegrees>
            </Position>
            <AltitudeMeters>757.5999755859375</AltitudeMeters>
            <DistanceMeters>9523.3488649322</DistanceMeters>
          </Trackpoint>
          <Trackpoint>
            <Time>2020-03-07T13:10:18.000Z</Time>
            <Position>
              <LatitudeDegrees>40.59422819875180721282958984375</LatitudeDegrees>
              <LongitudeDegrees>-3.71372818015515804290771484375</LongitudeDegrees>
            </Position>
            <AltitudeMeters>757.5999755859375</AltitudeMeters>
            <DistanceMeters>9531.1630428745</DistanceMeters>
          </Trackpoint>
          <Trackpoint>
            <Time>2020-03-07T13:10:19.000Z</Time>
            <Position>
              <LatitudeDegrees>40.59429206885397434234619140625</LatitudeDegrees>
              <LongitudeDegrees>-3.713762126863002777099609375</LongitudeDegrees>
            </Position>
            <AltitudeMeters>757.4000244140625</AltitudeMeters>
            <DistanceMeters>9538.8290547123</DistanceMeters>
          </Trackpoint>
          <Trackpoint>
            <Time>2020-03-07T13:10:20.000Z</Time>
            <Position>
              <LatitudeDegrees>40.5943548493087291717529296875</LatitudeDegrees>
              <LongitudeDegrees>-3.71380931697785854339599609375</LongitudeDegrees>
            </Position>
            <AltitudeMeters>757.4000244140625</AltitudeMeters>
            <DistanceMeters>9546.8744004445</DistanceMeters>
          </Trackpoint>
          <Trackpoint>
            <Time>2020-03-07T13:10:21.000Z</Time>
            <Position>
              <LatitudeDegrees>40.5944131873548030853271484375</LatitudeDegrees>
              <LongitudeDegrees>-3.7138625420629978179931640625</LongitudeDegrees>
            </Position>
            <AltitudeMeters>757.20001220703125</AltitudeMeters>
            <DistanceMeters>9554.7736300416</DistanceMeters>
          </Trackpoint>
          <Trackpoint>
            <Time>2020-03-07T13:10:22.000Z</Time>
            <Position>
              <LatitudeDegrees>40.594470016658306121826171875</LatitudeDegrees>
              <LongitudeDegrees>-3.71392004191875457763671875</LongitudeDegrees>
            </Position>
            <AltitudeMeters>757</AltitudeMeters>
            <DistanceMeters>9562.7496496346</DistanceMeters>
          </Trackpoint>
          <Trackpoint>
            <Time>2020-03-07T13:10:23.000Z</Time>
            <Position>
              <LatitudeDegrees>40.59452709741890430450439453125</LatitudeDegrees>
              <LongitudeDegrees>-3.71397879905998706817626953125</LongitudeDegrees>
            </Position>
            <AltitudeMeters>757</AltitudeMeters>
            <DistanceMeters>9570.8140535524</DistanceMeters>
          </Trackpoint>
          <Trackpoint>
            <Time>2020-03-07T13:10:24.000Z</Time>
            <Position>
              <LatitudeDegrees>40.5945841781795024871826171875</LatitudeDegrees>
              <LongitudeDegrees>-3.71403747238218784332275390625</LongitudeDegrees>
            </Position>
            <AltitudeMeters>756.79998779296875</AltitudeMeters>
            <DistanceMeters>9578.8739772454</DistanceMeters>
          </Trackpoint>
          <Trackpoint>
            <Time>2020-03-07T13:10:25.000Z</Time>
            <Position>
              <LatitudeDegrees>40.5946420133113861083984375</LatitudeDegrees>
              <LongitudeDegrees>-3.71409681625664234161376953125</LongitudeDegrees>
            </Position>
            <AltitudeMeters>756.79998779296875</AltitudeMeters>
            <DistanceMeters>9587.0341110493</DistanceMeters>
          </Trackpoint>
          <Trackpoint>
            <Time>2020-03-07T13:10:26.000Z</Time>
            <Position>
              <LatitudeDegrees>40.59470026753842830657958984375</LatitudeDegrees>
              <LongitudeDegrees>-3.71415607631206512451171875</LongitudeDegrees>
            </Position>
            <AltitudeMeters>756.79998779296875</AltitudeMeters>
            <DistanceMeters>9595.2273758616</DistanceMeters>
          </Trackpoint>
          <Trackpoint>
            <Time>2020-03-07T13:10:27.000Z</Time>
            <Position>
              <LatitudeDegrees>40.59475810267031192779541015625</LatitudeDegrees>
              <LongitudeDegrees>-3.71421583928167819976806640625</LongitudeDegrees>
            </Position>
            <AltitudeMeters>756.79998779296875</AltitudeMeters>
            <DistanceMeters>9603.4096119103</DistanceMeters>
          </Trackpoint>
          <Trackpoint>
            <Time>2020-03-07T13:10:28.000Z</Time>
            <Position>
              <LatitudeDegrees>40.59481627307832241058349609375</LatitudeDegrees>
              <LongitudeDegrees>-3.71427551843225955963134765625</LongitudeDegrees>
            </Position>
            <AltitudeMeters>756.79998779296875</AltitudeMeters>
            <DistanceMeters>9611.6166418356</DistanceMeters>
          </Trackpoint>
          <Trackpoint>
            <Time>2020-03-07T13:10:29.000Z</Time>
            <Position>
              <LatitudeDegrees>40.594874359667301177978515625</LatitudeDegrees>
              <LongitudeDegrees>-3.7143352814018726348876953125</LongitudeDegrees>
            </Position>
            <AltitudeMeters>756.79998779296875</AltitudeMeters>
            <DistanceMeters>9619.8203702402</DistanceMeters>
          </Trackpoint>
          <Trackpoint>
            <Time>2020-03-07T13:10:30.000Z</Time>
            <Position>
              <LatitudeDegrees>40.594932027161121368408203125</LatitudeDegrees>
              <LongitudeDegrees>-3.71439504437148571014404296875</LongitudeDegrees>
            </Position>
            <AltitudeMeters>756.5999755859375</AltitudeMeters>
            <DistanceMeters>9627.988246633</DistanceMeters>
          </Trackpoint>
          <Trackpoint>
            <Time>2020-03-07T13:10:31.000Z</Time>
            <Position>
              <LatitudeDegrees>40.59498944319784641265869140625</LatitudeDegrees>
              <LongitudeDegrees>-3.71445606462657451629638671875</LongitudeDegrees>
            </Position>
            <AltitudeMeters>756.5999755859375</AltitudeMeters>
            <DistanceMeters>9636.2002263507</DistanceMeters>
          </Trackpoint>
          <Trackpoint>
            <Time>2020-03-07T13:10:32.000Z</Time>
            <Position>
              <LatitudeDegrees>40.595046691596508026123046875</LatitudeDegrees>
              <LongitudeDegrees>-3.71451825834810733795166015625</LongitudeDegrees>
            </Position>
            <AltitudeMeters>756.5999755859375</AltitudeMeters>
            <DistanceMeters>9644.4599011345</DistanceMeters>
          </Trackpoint>
          <Trackpoint>
            <Time>2020-03-07T13:10:33.000Z</Time>
            <Position>
              <LatitudeDegrees>40.59510226361453533172607421875</LatitudeDegrees>
              <LongitudeDegrees>-3.714582212269306182861328125</LongitudeDegrees>
            </Position>
            <AltitudeMeters>756.4000244140625</AltitudeMeters>
            <DistanceMeters>9652.6740798024</DistanceMeters>
          </Trackpoint>
          <Trackpoint>
            <Time>2020-03-07T13:10:34.000Z</Time>
            <Position>
              <LatitudeDegrees>40.5951561592519283294677734375</LatitudeDegrees>
              <LongitudeDegrees>-3.71464851312339305877685546875</LongitudeDegrees>
            </Position>
            <AltitudeMeters>756.20001220703125</AltitudeMeters>
            <DistanceMeters>9660.8827599902</DistanceMeters>
          </Trackpoint>
          <Trackpoint>
            <Time>2020-03-07T13:10:35.000Z</Time>
            <Position>
              <LatitudeDegrees>40.5952074564993381500244140625</LatitudeDegrees>
              <LongitudeDegrees>-3.71471892111003398895263671875</LongitudeDegrees>
            </Position>
            <AltitudeMeters>756</AltitudeMeters>
            <DistanceMeters>9669.1293050667</DistanceMeters>
          </Trackpoint>
          <Trackpoint>
            <Time>2020-03-07T13:10:36.000Z</Time>
            <Position>
              <LatitudeDegrees>40.59525682590901851654052734375</LatitudeDegrees>
              <LongitudeDegrees>-3.71479167602956295013427734375</LongitudeDegrees>
            </Position>
            <AltitudeMeters>755.5999755859375</AltitudeMeters>
            <DistanceMeters>9677.3758501433</DistanceMeters>
          </Trackpoint>
          <Trackpoint>
            <Time>2020-03-07T13:10:37.000Z</Time>
            <Position>
              <LatitudeDegrees>40.5953053571283817291259765625</LatitudeDegrees>
              <LongitudeDegrees>-3.7148646824061870574951171875</LongitudeDegrees>
            </Position>
            <AltitudeMeters>755.4000244140625</AltitudeMeters>
            <DistanceMeters>9685.5768262653</DistanceMeters>
          </Trackpoint>
          <Trackpoint>
            <Time>2020-03-07T13:10:38.000Z</Time>
            <Position>
              <LatitudeDegrees>40.5953533016145229339599609375</LatitudeDegrees>
              <LongitudeDegrees>-3.7149381078779697418212890625</LongitudeDegrees>
            </Position>
            <AltitudeMeters>755.5999755859375</AltitudeMeters>
            <DistanceMeters>9693.7612692556</DistanceMeters>
          </Trackpoint>
          <Trackpoint>
            <Time>2020-03-07T13:10:39.000Z</Time>
            <Position>
              <LatitudeDegrees>40.595399402081966400146484375</LatitudeDegrees>
              <LongitudeDegrees>-3.7150125391781330108642578125</LongitudeDegrees>
            </Position>
            <AltitudeMeters>755.4000244140625</AltitudeMeters>
            <DistanceMeters>9701.8786868137</DistanceMeters>
          </Trackpoint>
          <Trackpoint>
            <Time>2020-03-07T13:10:40.000Z</Time>
            <Position>
              <LatitudeDegrees>40.5954448319971561431884765625</LatitudeDegrees>
              <LongitudeDegrees>-3.71508688665926456451416015625</LongitudeDegrees>
            </Position>
            <AltitudeMeters>755.4000244140625</AltitudeMeters>
            <DistanceMeters>9709.9436505846</DistanceMeters>
          </Trackpoint>
          <Trackpoint>
            <Time>2020-03-07T13:10:41.000Z</Time>
            <Position>
              <LatitudeDegrees>40.5954897589981555938720703125</LatitudeDegrees>
              <LongitudeDegrees>-3.71516115032136440277099609375</LongitudeDegrees>
            </Position>
            <AltitudeMeters>755.20001220703125</AltitudeMeters>
            <DistanceMeters>9717.9676424244</DistanceMeters>
          </Trackpoint>
          <Trackpoint>
            <Time>2020-03-07T13:10:42.000Z</Time>
            <Position>
              <LatitudeDegrees>40.59553527273237705230712890625</LatitudeDegrees>
              <LongitudeDegrees>-3.71523407287895679473876953125</LongitudeDegrees>
            </Position>
            <AltitudeMeters>755.4000244140625</AltitudeMeters>
            <DistanceMeters>9725.9453600665</DistanceMeters>
          </Trackpoint>
          <Trackpoint>
            <Time>2020-03-07T13:10:43.000Z</Time>
            <Position>
              <LatitudeDegrees>40.595581121742725372314453125</LatitudeDegrees>
              <LongitudeDegrees>-3.71530498377978801727294921875</LongitudeDegrees>
            </Position>
            <AltitudeMeters>755.20001220703125</AltitudeMeters>
            <DistanceMeters>9733.8165324367</DistanceMeters>
          </Trackpoint>
          <Trackpoint>
            <Time>2020-03-07T13:10:44.000Z</Time>
            <Position>
              <LatitudeDegrees>40.59562730602920055389404296875</LatitudeDegrees>
              <LongitudeDegrees>-3.71537505649030208587646484375</LongitudeDegrees>
            </Position>
            <AltitudeMeters>755.20001220703125</AltitudeMeters>
            <DistanceMeters>9741.6583957729</DistanceMeters>
          </Trackpoint>
          <Trackpoint>
            <Time>2020-03-07T13:10:45.000Z</Time>
            <Position>
              <LatitudeDegrees>40.5956731550395488739013671875</LatitudeDegrees>
              <LongitudeDegrees>-3.7154450453817844390869140625</LongitudeDegrees>
            </Position>
            <AltitudeMeters>755.20001220703125</AltitudeMeters>
            <DistanceMeters>9749.4708401205</DistanceMeters>
          </Trackpoint>
          <Trackpoint>
            <Time>2020-03-07T13:10:46.000Z</Time>
            <Position>
              <LatitudeDegrees>40.59571716003119945526123046875</LatitudeDegrees>
              <LongitudeDegrees>-3.715516962110996246337890625</LongitudeDegrees>
            </Position>
            <AltitudeMeters>755.20001220703125</AltitudeMeters>
            <DistanceMeters>9757.2769246604</DistanceMeters>
          </Trackpoint>
          <Trackpoint>
            <Time>2020-03-07T13:10:47.000Z</Time>
            <Position>
              <LatitudeDegrees>40.59575839899480342864990234375</LatitudeDegrees>
              <LongitudeDegrees>-3.7155905552208423614501953125</LongitudeDegrees>
            </Position>
            <AltitudeMeters>755.4000244140625</AltitudeMeters>
            <DistanceMeters>9765.00628335</DistanceMeters>
          </Trackpoint>
          <Trackpoint>
            <Time>2020-03-07T13:10:48.000Z</Time>
            <Position>
              <LatitudeDegrees>40.595795698463916778564453125</LatitudeDegrees>
              <LongitudeDegrees>-3.71566657908260822296142578125</LongitudeDegrees>
            </Position>
            <AltitudeMeters>755.4000244140625</AltitudeMeters>
            <DistanceMeters>9772.6557862984</DistanceMeters>
          </Trackpoint>
          <Trackpoint>
            <Time>2020-03-07T13:10:49.000Z</Time>
            <Position>
              <LatitudeDegrees>40.59582629241049289703369140625</LatitudeDegrees>
              <LongitudeDegrees>-3.71574654243886470794677734375</LongitudeDegrees>
            </Position>
            <AltitudeMeters>755.4000244140625</AltitudeMeters>
            <DistanceMeters>9780.223994467</DistanceMeters>
          </Trackpoint>
          <Trackpoint>
            <Time>2020-03-07T13:10:50.000Z</Time>
            <Position>
              <LatitudeDegrees>40.59584925882518291473388671875</LatitudeDegrees>
              <LongitudeDegrees>-3.71583052910864353179931640625</LongitudeDegrees>
            </Position>
            <AltitudeMeters>755.4000244140625</AltitudeMeters>
            <DistanceMeters>9787.76770322</DistanceMeters>
          </Trackpoint>
          <Trackpoint>
            <Time>2020-03-07T13:10:51.000Z</Time>
            <Position>
              <LatitudeDegrees>40.59586853720247745513916015625</LatitudeDegrees>
              <LongitudeDegrees>-3.7159154377877712249755859375</LongitudeDegrees>
            </Position>
            <AltitudeMeters>755.5999755859375</AltitudeMeters>
            <DistanceMeters>9795.2573517345</DistanceMeters>
          </Trackpoint>
          <Trackpoint>
            <Time>2020-03-07T13:10:52.000Z</Time>
            <Position>
              <LatitudeDegrees>40.59588856995105743408203125</LatitudeDegrees>
              <LongitudeDegrees>-3.715999089181423187255859375</LongitudeDegrees>
            </Position>
            <AltitudeMeters>755.5999755859375</AltitudeMeters>
            <DistanceMeters>9802.6700445759</DistanceMeters>
          </Trackpoint>
          <Trackpoint>
            <Time>2020-03-07T13:10:53.000Z</Time>
            <Position>
              <LatitudeDegrees>40.59591145254671573638916015625</LatitudeDegrees>
              <LongitudeDegrees>-3.71608131565153598785400390625</LongitudeDegrees>
            </Position>
            <AltitudeMeters>755.5999755859375</AltitudeMeters>
            <DistanceMeters>9810.0717655775</DistanceMeters>
          </Trackpoint>
          <Trackpoint>
            <Time>2020-03-07T13:10:54.000Z</Time>
            <Position>
              <LatitudeDegrees>40.59593819081783294677734375</LatitudeDegrees>
              <LongitudeDegrees>-3.716161362826824188232421875</LongitudeDegrees>
            </Position>
            <AltitudeMeters>755.79998779296875</AltitudeMeters>
            <DistanceMeters>9817.4631093312</DistanceMeters>
          </Trackpoint>
          <Trackpoint>
            <Time>2020-03-07T13:10:55.000Z</Time>
            <Position>
              <LatitudeDegrees>40.595965683460235595703125</LatitudeDegrees>
              <LongitudeDegrees>-3.7162413261830806732177734375</LongitudeDegrees>
            </Position>
            <AltitudeMeters>756</AltitudeMeters>
            <DistanceMeters>9824.8818906278</DistanceMeters>
          </Trackpoint>
          <Trackpoint>
            <Time>2020-03-07T13:10:56.000Z</Time>
            <Position>
              <LatitudeDegrees>40.59599049389362335205078125</LatitudeDegrees>
              <LongitudeDegrees>-3.71632271446287631988525390625</LongitudeDegrees>
            </Position>
            <AltitudeMeters>756.20001220703125</AltitudeMeters>
            <DistanceMeters>9832.2939743486</DistanceMeters>
          </Trackpoint>
          <Trackpoint>
            <Time>2020-03-07T13:10:57.000Z</Time>
            <Position>
              <LatitudeDegrees>40.5960124544799327850341796875</LatitudeDegrees>
              <LongitudeDegrees>-3.7164072878658771514892578125</LongitudeDegrees>
            </Position>
            <AltitudeMeters>756.4000244140625</AltitudeMeters>
            <DistanceMeters>9839.8484487265</DistanceMeters>
          </Trackpoint>
          <Trackpoint>
            <Time>2020-03-07T13:10:58.000Z</Time>
            <Position>
              <LatitudeDegrees>40.5960325710475444793701171875</LatitudeDegrees>
              <LongitudeDegrees>-3.71649228036403656005859375</LongitudeDegrees>
            </Position>
            <AltitudeMeters>756.5999755859375</AltitudeMeters>
            <DistanceMeters>9847.3729805593</DistanceMeters>
          </Trackpoint>
          <Trackpoint>
            <Time>2020-03-07T13:10:59.000Z</Time>
            <Position>
              <LatitudeDegrees>40.5960536934435367584228515625</LatitudeDegrees>
              <LongitudeDegrees>-3.71657685376703739166259765625</LongitudeDegrees>
            </Position>
            <AltitudeMeters>757</AltitudeMeters>
            <DistanceMeters>9854.8975123922</DistanceMeters>
          </Trackpoint>
          <Trackpoint>
            <Time>2020-03-07T13:11:00.000Z</Time>
            <Position>
              <LatitudeDegrees>40.59607523493468761444091796875</LatitudeDegrees>
              <LongitudeDegrees>-3.716661594808101654052734375</LongitudeDegrees>
            </Position>
            <AltitudeMeters>757</AltitudeMeters>
            <DistanceMeters>9862.4495957352</DistanceMeters>
          </Trackpoint>
          <Trackpoint>
            <Time>2020-03-07T13:11:01.000Z</Time>
            <Position>
              <LatitudeDegrees>40.59609719552099704742431640625</LatitudeDegrees>
              <LongitudeDegrees>-3.71674700640141963958740234375</LongitudeDegrees>
            </Position>
            <AltitudeMeters>757</AltitudeMeters>
            <DistanceMeters>9870.0707145302</DistanceMeters>
          </Trackpoint>
          <Trackpoint>
            <Time>2020-03-07T13:11:02.000Z</Time>
            <Position>
              <LatitudeDegrees>40.59611848555505275726318359375</LatitudeDegrees>
              <LongitudeDegrees>-3.71683317236602306365966796875</LongitudeDegrees>
            </Position>
            <AltitudeMeters>757</AltitudeMeters>
            <DistanceMeters>9877.729655487</DistanceMeters>
          </Trackpoint>
          <Trackpoint>
            <Time>2020-03-07T13:11:03.000Z</Time>
            <Position>
              <LatitudeDegrees>40.5961405299603939056396484375</LatitudeDegrees>
              <LongitudeDegrees>-3.71691883541643619537353515625</LongitudeDegrees>
            </Position>
            <AltitudeMeters>757</AltitudeMeters>
            <DistanceMeters>9885.3738444348</DistanceMeters>
          </Trackpoint>
          <Trackpoint>
            <Time>2020-03-07T13:11:04.000Z</Time>
            <Position>
              <LatitudeDegrees>40.596163161098957061767578125</LatitudeDegrees>
              <LongitudeDegrees>-3.7170040793716907501220703125</LongitudeDegrees>
            </Position>
            <AltitudeMeters>757.20001220703125</AltitudeMeters>
            <DistanceMeters>9893.0056196584</DistanceMeters>
          </Trackpoint>
          <Trackpoint>
            <Time>2020-03-07T13:11:05.000Z</Time>
            <Position>
              <LatitudeDegrees>40.5961857922375202178955078125</LatitudeDegrees>
              <LongitudeDegrees>-3.7170895747840404510498046875</LongitudeDegrees>
            </Position>
            <AltitudeMeters>757.20001220703125</AltitudeMeters>
            <DistanceMeters>9900.6574832002</DistanceMeters>
          </Trackpoint>
          <Trackpoint>
            <Time>2020-03-07T13:11:06.000Z</Time>
            <Position>
              <LatitudeDegrees>40.59620800428092479705810546875</LatitudeDegrees>
              <LongitudeDegrees>-3.717175908386707305908203125</LongitudeDegrees>
            </Position>
            <AltitudeMeters>757.20001220703125</AltitudeMeters>
            <DistanceMeters>9908.3605106773</DistanceMeters>
          </Trackpoint>
          <Trackpoint>
            <Time>2020-03-07T13:11:07.000Z</Time>
            <Position>
              <LatitudeDegrees>40.59623063541948795318603515625</LatitudeDegrees>
              <LongitudeDegrees>-3.717262409627437591552734375</LongitudeDegrees>
            </Position>
            <AltitudeMeters>757.20001220703125</AltitudeMeters>
            <DistanceMeters>9916.0933734209</DistanceMeters>
          </Trackpoint>
          <Trackpoint>
            <Time>2020-03-07T13:11:08.000Z</Time>
            <Position>
              <LatitudeDegrees>40.59625376947224140167236328125</LatitudeDegrees>
              <LongitudeDegrees>-3.71734932996332645416259765625</LongitudeDegrees>
            </Position>
            <AltitudeMeters>757.20001220703125</AltitudeMeters>
            <DistanceMeters>9923.8774477358</DistanceMeters>
          </Trackpoint>
          <Trackpoint>
            <Time>2020-03-07T13:11:09.000Z</Time>
            <Position>
              <LatitudeDegrees>40.5962759815156459808349609375</LatitudeDegrees>
              <LongitudeDegrees>-3.71743750758469104766845703125</LongitudeDegrees>
            </Position>
            <AltitudeMeters>757.20001220703125</AltitudeMeters>
            <DistanceMeters>9931.7290929063</DistanceMeters>
          </Trackpoint>
          <Trackpoint>
            <Time>2020-03-07T13:11:10.000Z</Time>
            <Position>
              <LatitudeDegrees>40.59629894793033599853515625</LatitudeDegrees>
              <LongitudeDegrees>-3.71752635575830936431884765625</LongitudeDegrees>
            </Position>
            <AltitudeMeters>757.20001220703125</AltitudeMeters>
            <DistanceMeters>9939.661404843</DistanceMeters>
          </Trackpoint>
          <Trackpoint>
            <Time>2020-03-07T13:11:11.000Z</Time>
            <Position>
              <LatitudeDegrees>40.59632400982081890106201171875</LatitudeDegrees>
              <LongitudeDegrees>-3.7176152877509593963623046875</LongitudeDegrees>
            </Position>
            <AltitudeMeters>757</AltitudeMeters>
            <DistanceMeters>9947.6780783458</DistanceMeters>
          </Trackpoint>
          <Trackpoint>
            <Time>2020-03-07T13:11:12.000Z</Time>
            <Position>
              <LatitudeDegrees>40.5963505804538726806640625</LatitudeDegrees>
              <LongitudeDegrees>-3.717705309391021728515625</LongitudeDegrees>
            </Position>
            <AltitudeMeters>757</AltitudeMeters>
            <DistanceMeters>9955.8404250674</DistanceMeters>
          </Trackpoint>
          <Trackpoint>
            <Time>2020-03-07T13:11:13.000Z</Time>
            <Position>
              <LatitudeDegrees>40.596378743648529052734375</LatitudeDegrees>
              <LongitudeDegrees>-3.7177960015833377838134765625</LongitudeDegrees>
            </Position>
            <AltitudeMeters>757</AltitudeMeters>
            <DistanceMeters>9964.1213912258</DistanceMeters>
          </Trackpoint>
          <Trackpoint>
            <Time>2020-03-07T13:11:14.000Z</Time>
            <Position>
              <LatitudeDegrees>40.596410930156707763671875</LatitudeDegrees>
              <LongitudeDegrees>-3.71788694523274898529052734375</LongitudeDegrees>
            </Position>
            <AltitudeMeters>757</AltitudeMeters>
            <DistanceMeters>9972.6011611945</DistanceMeters>
          </Trackpoint>
          <Trackpoint>
            <Time>2020-03-07T13:11:15.000Z</Time>
            <Position>
              <LatitudeDegrees>40.59644856490194797515869140625</LatitudeDegrees>
              <LongitudeDegrees>-3.7179767154157161712646484375</LongitudeDegrees>
            </Position>
            <AltitudeMeters>757</AltitudeMeters>
            <DistanceMeters>9981.2673683109</DistanceMeters>
          </Trackpoint>
          <Trackpoint>
            <Time>2020-03-07T13:11:16.000Z</Time>
            <Position>
              <LatitudeDegrees>40.59649198316037654876708984375</LatitudeDegrees>
              <LongitudeDegrees>-3.71806346811354160308837890625</LongitudeDegrees>
            </Position>
            <AltitudeMeters>756.79998779296875</AltitudeMeters>
            <DistanceMeters>9990.0489884821</DistanceMeters>
          </Trackpoint>
          <Trackpoint>
            <Time>2020-03-07T13:11:17.000Z</Time>
            <Position>
              <LatitudeDegrees>40.59653774835169315338134765625</LatitudeDegrees>
              <LongitudeDegrees>-3.71814787387847900390625</LongitudeDegrees>
            </Position>
            <AltitudeMeters>756.79998779296875</AltitudeMeters>
            <DistanceMeters>9998.8141405279</DistanceMeters>
          </Trackpoint>
          <Trackpoint>
            <Time>2020-03-07T13:11:18.000Z</Time>
            <Position>
              <LatitudeDegrees>40.5965790711343288421630859375</LatitudeDegrees>
              <LongitudeDegrees>-3.71823512949049472808837890625</LongitudeDegrees>
            </Position>
            <AltitudeMeters>756.79998779296875</AltitudeMeters>
            <DistanceMeters>10007.504799846</DistanceMeters>
          </Trackpoint>
          <Trackpoint>
            <Time>2020-03-07T13:11:19.000Z</Time>
            <Position>
              <LatitudeDegrees>40.59660916216671466827392578125</LatitudeDegrees>
              <LongitudeDegrees>-3.71832783333957195281982421875</LongitudeDegrees>
            </Position>
            <AltitudeMeters>756.5999755859375</AltitudeMeters>
            <DistanceMeters>10016.025999567</DistanceMeters>
          </Trackpoint>
          <Trackpoint>
            <Time>2020-03-07T13:11:20.000Z</Time>
            <Position>
              <LatitudeDegrees>40.596633888781070709228515625</LatitudeDegrees>
              <LongitudeDegrees>-3.71842212975025177001953125</LongitudeDegrees>
            </Position>
            <AltitudeMeters>756.4000244140625</AltitudeMeters>
            <DistanceMeters>10024.457177525</DistanceMeters>
          </Trackpoint>
          <Trackpoint>
            <Time>2020-03-07T13:11:21.000Z</Time>
            <Position>
              <LatitudeDegrees>40.596661381423473358154296875</LatitudeDegrees>
              <LongitudeDegrees>-3.7185141630470752716064453125</LongitudeDegrees>
            </Position>
            <AltitudeMeters>756.20001220703125</AltitudeMeters>
            <DistanceMeters>10032.815207877</DistanceMeters>
          </Trackpoint>
          <Trackpoint>
            <Time>2020-03-07T13:11:22.000Z</Time>
            <Position>
              <LatitudeDegrees>40.5966920591890811920166015625</LatitudeDegrees>
              <LongitudeDegrees>-3.71860359795391559600830078125</LongitudeDegrees>
            </Position>
            <AltitudeMeters>756</AltitudeMeters>
            <DistanceMeters>10041.10816044</DistanceMeters>
          </Trackpoint>
          <Trackpoint>
            <Time>2020-03-07T13:11:23.000Z</Time>
            <Position>
              <LatitudeDegrees>40.59672684408724308013916015625</LatitudeDegrees>
              <LongitudeDegrees>-3.71868900954723358154296875</LongitudeDegrees>
            </Position>
            <AltitudeMeters>755.5999755859375</AltitudeMeters>
            <DistanceMeters>10049.299220687</DistanceMeters>
          </Trackpoint>
          <Trackpoint>
            <Time>2020-03-07T13:11:24.000Z</Time>
            <Position>
              <LatitudeDegrees>40.59676892124116420745849609375</LatitudeDegrees>
              <LongitudeDegrees>-3.718765117228031158447265625</LongitudeDegrees>
            </Position>
            <AltitudeMeters>755.20001220703125</AltitudeMeters>
            <DistanceMeters>10057.255402929</DistanceMeters>
          </Trackpoint>
          <Trackpoint>
            <Time>2020-03-07T13:11:25.000Z</Time>
            <Position>
              <LatitudeDegrees>40.596820302307605743408203125</LatitudeDegrees>
              <LongitudeDegrees>-3.71883108280599117279052734375</LongitudeDegrees>
            </Position>
            <AltitudeMeters>754.5999755859375</AltitudeMeters>
            <DistanceMeters>10065.242170736</DistanceMeters>
          </Trackpoint>
          <Trackpoint>
            <Time>2020-03-07T13:11:26.000Z</Time>
            <Position>
              <LatitudeDegrees>40.59688325040042400360107421875</LatitudeDegrees>
              <LongitudeDegrees>-3.71887944638729095458984375</LongitudeDegrees>
            </Position>
            <AltitudeMeters>754.4000244140625</AltitudeMeters>
            <DistanceMeters>10073.35346761</DistanceMeters>
          </Trackpoint>
          <Trackpoint>
            <Time>2020-03-07T13:11:27.000Z</Time>
            <Position>
              <LatitudeDegrees>40.5969586037099361419677734375</LatitudeDegrees>
              <LongitudeDegrees>-3.71889059431850910186767578125</LongitudeDegrees>
            </Position>
            <AltitudeMeters>754</AltitudeMeters>
            <DistanceMeters>10081.793209489</DistanceMeters>
          </Trackpoint>
          <Trackpoint>
            <Time>2020-03-07T13:11:28.000Z</Time>
            <Position>
              <LatitudeDegrees>40.59703563340008258819580078125</LatitudeDegrees>
              <LongitudeDegrees>-3.7188519537448883056640625</LongitudeDegrees>
            </Position>
            <AltitudeMeters>754</AltitudeMeters>
            <DistanceMeters>10090.967102472</DistanceMeters>
          </Trackpoint>
          <Trackpoint>
            <Time>2020-03-07T13:11:29.000Z</Time>
            <Position>
              <LatitudeDegrees>40.59710218571126461029052734375</LatitudeDegrees>
              <LongitudeDegrees>-3.7187750078737735748291015625</LongitudeDegrees>
            </Position>
            <AltitudeMeters>753.79998779296875</AltitudeMeters>
            <DistanceMeters>10100.823805392</DistanceMeters>
          </Trackpoint>
          <Trackpoint>
            <Time>2020-03-07T13:11:30.000Z</Time>
            <Position>
              <LatitudeDegrees>40.59716396033763885498046875</LatitudeDegrees>
              <LongitudeDegrees>-3.71868791989982128143310546875</LongitudeDegrees>
            </Position>
            <AltitudeMeters>753.79998779296875</AltitudeMeters>
            <DistanceMeters>10110.895740597</DistanceMeters>
          </Trackpoint>
          <Trackpoint>
            <Time>2020-03-07T13:11:31.000Z</Time>
            <Position>
              <LatitudeDegrees>40.59722439385950565338134765625</LatitudeDegrees>
              <LongitudeDegrees>-3.7185917794704437255859375</LongitudeDegrees>
            </Position>
            <AltitudeMeters>753.79998779296875</AltitudeMeters>
            <DistanceMeters>10121.443705892</DistanceMeters>
          </Trackpoint>
          <Trackpoint>
            <Time>2020-03-07T13:11:32.000Z</Time>
            <Position>
              <LatitudeDegrees>40.5972821451723575592041015625</LatitudeDegrees>
              <LongitudeDegrees>-3.71849463321268558502197265625</LongitudeDegrees>
            </Position>
            <AltitudeMeters>753.5999755859375</AltitudeMeters>
            <DistanceMeters>10131.870695888</DistanceMeters>
          </Trackpoint>
          <Trackpoint>
            <Time>2020-03-07T13:11:33.000Z</Time>
            <Position>
              <LatitudeDegrees>40.59735146351158618927001953125</LatitudeDegrees>
              <LongitudeDegrees>-3.7184155918657779693603515625</LongitudeDegrees>
            </Position>
            <AltitudeMeters>753.5999755859375</AltitudeMeters>
            <DistanceMeters>10142.076228785</DistanceMeters>
          </Trackpoint>
          <Trackpoint>
            <Time>2020-03-07T13:11:34.000Z</Time>
            <Position>
              <LatitudeDegrees>40.597430169582366943359375</LatitudeDegrees>
              <LongitudeDegrees>-3.718357421457767486572265625</LongitudeDegrees>
            </Position>
            <AltitudeMeters>753.20001220703125</AltitudeMeters>
            <DistanceMeters>10152.121231233</DistanceMeters>
          </Trackpoint>
          <Trackpoint>
            <Time>2020-03-07T13:11:35.000Z</Time>
            <Position>
              <LatitudeDegrees>40.59751264750957489013671875</LatitudeDegrees>
              <LongitudeDegrees>-3.718339987099170684814453125</LongitudeDegrees>
            </Position>
            <AltitudeMeters>752.79998779296875</AltitudeMeters>
            <DistanceMeters>10161.418321731</DistanceMeters>
          </Trackpoint>
          <Trackpoint>
            <Time>2020-03-07T13:11:36.000Z</Time>
            <Position>
              <LatitudeDegrees>40.59759437106549739837646484375</LatitudeDegrees>
              <LongitudeDegrees>-3.7183730117976665496826171875</LongitudeDegrees>
            </Position>
            <AltitudeMeters>752.20001220703125</AltitudeMeters>
            <DistanceMeters>10170.93238954</DistanceMeters>
          </Trackpoint>
          <Trackpoint>
            <Time>2020-03-07T13:11:37.000Z</Time>
            <Position>
              <LatitudeDegrees>40.597657151520252227783203125</LatitudeDegrees>
              <LongitudeDegrees>-3.71843545697629451751708984375</LongitudeDegrees>
            </Position>
            <AltitudeMeters>751.79998779296875</AltitudeMeters>
            <DistanceMeters>10179.688780297</DistanceMeters>
          </Trackpoint>
          <Trackpoint>
            <Time>2020-03-07T13:11:38.000Z</Time>
            <Position>
              <LatitudeDegrees>40.597696714103221893310546875</LatitudeDegrees>
              <LongitudeDegrees>-3.71851525269448757171630859375</LongitudeDegrees>
            </Position>
            <AltitudeMeters>751</AltitudeMeters>
            <DistanceMeters>10187.742539611</DistanceMeters>
          </Trackpoint>
          <Trackpoint>
            <Time>2020-03-07T13:11:39.000Z</Time>
            <Position>
              <LatitudeDegrees>40.5977230332791805267333984375</LatitudeDegrees>
              <LongitudeDegrees>-3.71860376559197902679443359375</LongitudeDegrees>
            </Position>
            <AltitudeMeters>750.79998779296875</AltitudeMeters>
            <DistanceMeters>10195.776091525</DistanceMeters>
          </Trackpoint>
          <Trackpoint>
            <Time>2020-03-07T13:11:40.000Z</Time>
            <Position>
              <LatitudeDegrees>40.5977538786828517913818359375</LatitudeDegrees>
              <LongitudeDegrees>-3.7186895124614238739013671875</LongitudeDegrees>
            </Position>
            <AltitudeMeters>750.5999755859375</AltitudeMeters>
            <DistanceMeters>10203.794454467</DistanceMeters>
          </Trackpoint>
          <Trackpoint>
            <Time>2020-03-07T13:11:41.000Z</Time>
            <Position>
              <LatitudeDegrees>40.59779704548418521881103515625</LatitudeDegrees>
              <LongitudeDegrees>-3.71876084245741367340087890625</LongitudeDegrees>
            </Position>
            <AltitudeMeters>750.4000244140625</AltitudeMeters>
            <DistanceMeters>10211.502755383</DistanceMeters>
          </Trackpoint>
          <Trackpoint>
            <Time>2020-03-07T13:11:42.000Z</Time>
            <Position>
              <LatitudeDegrees>40.5978571437299251556396484375</LatitudeDegrees>
              <LongitudeDegrees>-3.71881649829447269439697265625</LongitudeDegrees>
            </Position>
            <AltitudeMeters>750.4000244140625</AltitudeMeters>
            <DistanceMeters>10219.680575761</DistanceMeters>
          </Trackpoint>
          <Trackpoint>
            <Time>2020-03-07T13:11:43.000Z</Time>
            <Position>
              <LatitudeDegrees>40.59792302548885345458984375</LatitudeDegrees>
              <LongitudeDegrees>-3.71886670589447021484375</LongitudeDegrees>
            </Position>
            <AltitudeMeters>750.20001220703125</AltitudeMeters>
            <DistanceMeters>10228.152355242</DistanceMeters>
          </Trackpoint>
          <Trackpoint>
            <Time>2020-03-07T13:11:44.000Z</Time>
            <Position>
              <LatitudeDegrees>40.5979905836284160614013671875</LatitudeDegrees>
              <LongitudeDegrees>-3.718914650380611419677734375</LongitudeDegrees>
            </Position>
            <AltitudeMeters>750.20001220703125</AltitudeMeters>
            <DistanceMeters>10236.694194486</DistanceMeters>
          </Trackpoint>
          <Trackpoint>
            <Time>2020-03-07T13:11:45.000Z</Time>
            <Position>
              <LatitudeDegrees>40.59805889613926410675048828125</LatitudeDegrees>
              <LongitudeDegrees>-3.718963600695133209228515625</LongitudeDegrees>
            </Position>
            <AltitudeMeters>750</AltitudeMeters>
            <DistanceMeters>10245.349975459</DistanceMeters>
          </Trackpoint>
          <Trackpoint>
            <Time>2020-03-07T13:11:46.000Z</Time>
            <Position>
              <LatitudeDegrees>40.59812796302139759063720703125</LatitudeDegrees>
              <LongitudeDegrees>-3.71901431120932102203369140625</LongitudeDegrees>
            </Position>
            <AltitudeMeters>750</AltitudeMeters>
            <DistanceMeters>10254.151111507</DistanceMeters>
          </Trackpoint>
          <Trackpoint>
            <Time>2020-03-07T13:11:47.000Z</Time>
            <Position>
              <LatitudeDegrees>40.59819820336997509002685546875</LatitudeDegrees>
              <LongitudeDegrees>-3.7190636806190013885498046875</LongitudeDegrees>
            </Position>
            <AltitudeMeters>749.79998779296875</AltitudeMeters>
            <DistanceMeters>10263.012575538</DistanceMeters>
          </Trackpoint>
          <Trackpoint>
            <Time>2020-03-07T13:11:48.000Z</Time>
            <Position>
              <LatitudeDegrees>40.59826903045177459716796875</LatitudeDegrees>
              <LongitudeDegrees>-3.719113804399967193603515625</LongitudeDegrees>
            </Position>
            <AltitudeMeters>749.79998779296875</AltitudeMeters>
            <DistanceMeters>10271.961751364</DistanceMeters>
          </Trackpoint>
          <Trackpoint>
            <Time>2020-03-07T13:11:49.000Z</Time>
            <Position>
              <LatitudeDegrees>40.59834019280970096588134765625</LatitudeDegrees>
              <LongitudeDegrees>-3.71916510164737701416015625</LongitudeDegrees>
            </Position>
            <AltitudeMeters>749.79998779296875</AltitudeMeters>
            <DistanceMeters>10280.990789527</DistanceMeters>
          </Trackpoint>
          <Trackpoint>
            <Time>2020-03-07T13:11:50.000Z</Time>
            <Position>
              <LatitudeDegrees>40.59841210953891277313232421875</LatitudeDegrees>
              <LongitudeDegrees>-3.71921748854219913482666015625</LongitudeDegrees>
            </Position>
            <AltitudeMeters>749.79998779296875</AltitudeMeters>
            <DistanceMeters>10290.138067173</DistanceMeters>
          </Trackpoint>
          <Trackpoint>
            <Time>2020-03-07T13:11:51.000Z</Time>
            <Position>
              <LatitudeDegrees>40.59848494827747344970703125</LatitudeDegrees>
              <LongitudeDegrees>-3.71926878578960895538330078125</LongitudeDegrees>
            </Position>
            <AltitudeMeters>749.79998779296875</AltitudeMeters>
            <DistanceMeters>10299.331625543</DistanceMeters>
          </Trackpoint>
          <Trackpoint>
            <Time>2020-03-07T13:11:52.000Z</Time>
            <Position>
              <LatitudeDegrees>40.5985595472157001495361328125</LatitudeDegrees>
              <LongitudeDegrees>-3.71931656263768672943115234375</LongitudeDegrees>
            </Position>
            <AltitudeMeters>749.79998779296875</AltitudeMeters>
            <DistanceMeters>10308.564389032</DistanceMeters>
          </Trackpoint>
          <Trackpoint>
            <Time>2020-03-07T13:11:53.000Z</Time>
            <Position>
              <LatitudeDegrees>40.59863506816327571868896484375</LatitudeDegrees>
              <LongitudeDegrees>-3.719361908733844757080078125</LongitudeDegrees>
            </Position>
            <AltitudeMeters>749.79998779296875</AltitudeMeters>
            <DistanceMeters>10317.80204146</DistanceMeters>
          </Trackpoint>
          <Trackpoint>
            <Time>2020-03-07T13:11:54.000Z</Time>
            <Position>
              <LatitudeDegrees>40.5987110920250415802001953125</LatitudeDegrees>
              <LongitudeDegrees>-3.71940759010612964630126953125</LongitudeDegrees>
            </Position>
            <AltitudeMeters>749.5999755859375</AltitudeMeters>
            <DistanceMeters>10327.103016266</DistanceMeters>
          </Trackpoint>
          <Trackpoint>
            <Time>2020-03-07T13:11:55.000Z</Time>
            <Position>
              <LatitudeDegrees>40.598787032067775726318359375</LatitudeDegrees>
              <LongitudeDegrees>-3.7194549478590488433837890625</LongitudeDegrees>
            </Position>
            <AltitudeMeters>749.5999755859375</AltitudeMeters>
            <DistanceMeters>10336.455305848</DistanceMeters>
          </Trackpoint>
          <Trackpoint>
            <Time>2020-03-07T13:11:56.000Z</Time>
            <Position>
              <LatitudeDegrees>40.59886305592954158782958984375</LatitudeDegrees>
              <LongitudeDegrees>-3.71950331144034862518310546875</LongitudeDegrees>
            </Position>
            <AltitudeMeters>749.4000244140625</AltitudeMeters>
            <DistanceMeters>10345.852386116</DistanceMeters>
          </Trackpoint>
          <Trackpoint>
            <Time>2020-03-07T13:11:57.000Z</Time>
            <Position>
              <LatitudeDegrees>40.59894033707678318023681640625</LatitudeDegrees>
              <LongitudeDegrees>-3.71955108828842639923095703125</LongitudeDegrees>
            </Position>
            <AltitudeMeters>749.4000244140625</AltitudeMeters>
            <DistanceMeters>10355.354582407</DistanceMeters>
          </Trackpoint>
          <Trackpoint>
            <Time>2020-03-07T13:11:58.000Z</Time>
            <Position>
              <LatitudeDegrees>40.599017702043056488037109375</LatitudeDegrees>
              <LongitudeDegrees>-3.7195987813174724578857421875</LongitudeDegrees>
            </Position>
            <AltitudeMeters>749.4000244140625</AltitudeMeters>
            <DistanceMeters>10364.862003993</DistanceMeters>
          </Trackpoint>
          <Trackpoint>
            <Time>2020-03-07T13:11:59.000Z</Time>
            <Position>
              <LatitudeDegrees>40.59909389354288578033447265625</LatitudeDegrees>
              <LongitudeDegrees>-3.71964781545102596282958984375</LongitudeDegrees>
            </Position>
            <AltitudeMeters>749.20001220703125</AltitudeMeters>
            <DistanceMeters>10374.299836055</DistanceMeters>
          </Trackpoint>
          <Trackpoint>
            <Time>2020-03-07T13:12:00.000Z</Time>
            <Position>
              <LatitudeDegrees>40.59917025268077850341796875</LatitudeDegrees>
              <LongitudeDegrees>-3.7196953408420085906982421875</LongitudeDegrees>
            </Position>
            <AltitudeMeters>749</AltitudeMeters>
            <DistanceMeters>10383.700279028</DistanceMeters>
          </Trackpoint>
          <Trackpoint>
            <Time>2020-03-07T13:12:01.000Z</Time>
            <Position>
              <LatitudeDegrees>40.599246360361576080322265625</LatitudeDegrees>
              <LongitudeDegrees>-3.7197409383952617645263671875</LongitudeDegrees>
            </Position>
            <AltitudeMeters>749</AltitudeMeters>
            <DistanceMeters>10393.006592109</DistanceMeters>
          </Trackpoint>
          <Trackpoint>
            <Time>2020-03-07T13:12:02.000Z</Time>
            <Position>
              <LatitudeDegrees>40.59932221658527851104736328125</LatitudeDegrees>
              <LongitudeDegrees>-3.7197851948440074920654296875</LongitudeDegrees>
            </Position>
            <AltitudeMeters>748.79998779296875</AltitudeMeters>
            <DistanceMeters>10402.241311485</DistanceMeters>
          </Trackpoint>
          <Trackpoint>
            <Time>2020-03-07T13:12:03.000Z</Time>
            <Position>
              <LatitudeDegrees>40.5993967317044734954833984375</LatitudeDegrees>
              <LongitudeDegrees>-3.71982869692146778106689453125</LongitudeDegrees>
            </Position>
            <AltitudeMeters>748.79998779296875</AltitudeMeters>
            <DistanceMeters>10411.31375034</DistanceMeters>
          </Trackpoint>
          <Trackpoint>
            <Time>2020-03-07T13:12:04.000Z</Time>
            <Position>
              <LatitudeDegrees>40.5994714982807636260986328125</LatitudeDegrees>
              <LongitudeDegrees>-3.7198690138757228851318359375</LongitudeDegrees>
            </Position>
            <AltitudeMeters>748.5999755859375</AltitudeMeters>
            <DistanceMeters>10420.30671229</DistanceMeters>
          </Trackpoint>
          <Trackpoint>
            <Time>2020-03-07T13:12:05.000Z</Time>
            <Position>
              <LatitudeDegrees>40.59954500757157802581787109375</LatitudeDegrees>
              <LongitudeDegrees>-3.7199075706303119659423828125</LongitudeDegrees>
            </Position>
            <AltitudeMeters>748.5999755859375</AltitudeMeters>
            <DistanceMeters>10429.112976907</DistanceMeters>
          </Trackpoint>
          <Trackpoint>
            <Time>2020-03-07T13:12:06.000Z</Time>
            <Position>
              <LatitudeDegrees>40.59961793012917041778564453125</LatitudeDegrees>
              <LongitudeDegrees>-3.71994554065167903900146484375</LongitudeDegrees>
            </Position>
            <AltitudeMeters>748.4000244140625</AltitudeMeters>
            <DistanceMeters>10437.840444741</DistanceMeters>
          </Trackpoint>
          <Trackpoint>
            <Time>2020-03-07T13:12:07.000Z</Time>
            <Position>
              <LatitudeDegrees>40.59968926012516021728515625</LatitudeDegrees>
              <LongitudeDegrees>-3.719986192882061004638671875</LongitudeDegrees>
            </Position>
            <AltitudeMeters>748.4000244140625</AltitudeMeters>
            <DistanceMeters>10446.491529851</DistanceMeters>
          </Trackpoint>
          <Trackpoint>
            <Time>2020-03-07T13:12:08.000Z</Time>
            <Position>
              <LatitudeDegrees>40.5997595004737377166748046875</LatitudeDegrees>
              <LongitudeDegrees>-3.72002801857888698577880859375</LongitudeDegrees>
            </Position>
            <AltitudeMeters>748.4000244140625</AltitudeMeters>
            <DistanceMeters>10455.071342388</DistanceMeters>
          </Trackpoint>
          <Trackpoint>
            <Time>2020-03-07T13:12:09.000Z</Time>
            <Position>
              <LatitudeDegrees>40.59982999227941036224365234375</LatitudeDegrees>
              <LongitudeDegrees>-3.72006808407604694366455078125</LongitudeDegrees>
            </Position>
            <AltitudeMeters>748.4000244140625</AltitudeMeters>
            <DistanceMeters>10463.616352518</DistanceMeters>
          </Trackpoint>
          <Trackpoint>
            <Time>2020-03-07T13:12:10.000Z</Time>
            <Position>
              <LatitudeDegrees>40.59990023262798786163330078125</LatitudeDegrees>
              <LongitudeDegrees>-3.720106892287731170654296875</LongitudeDegrees>
            </Position>
            <AltitudeMeters>748.5999755859375</AltitudeMeters>
            <DistanceMeters>10472.093459828</DistanceMeters>
          </Trackpoint>
          <Trackpoint>
            <Time>2020-03-07T13:12:11.000Z</Time>
            <Position>
              <LatitudeDegrees>40.59996955096721649169921875</LatitudeDegrees>
              <LongitudeDegrees>-3.72014653868973255157470703125</LongitudeDegrees>
            </Position>
            <AltitudeMeters>748.5999755859375</AltitudeMeters>
            <DistanceMeters>10480.504800324</DistanceMeters>
          </Trackpoint>
          <Trackpoint>
            <Time>2020-03-07T13:12:12.000Z</Time>
            <Position>
              <LatitudeDegrees>40.6000384502112865447998046875</LatitudeDegrees>
              <LongitudeDegrees>-3.7201858498156070709228515625</LongitudeDegrees>
            </Position>
            <AltitudeMeters>748.79998779296875</AltitudeMeters>
            <DistanceMeters>10488.862830676</DistanceMeters>
          </Trackpoint>
          <Trackpoint>
            <Time>2020-03-07T13:12:13.000Z</Time>
            <Position>
              <LatitudeDegrees>40.6001085229218006134033203125</LatitudeDegrees>
              <LongitudeDegrees>-3.7202225625514984130859375</LongitudeDegrees>
            </Position>
            <AltitudeMeters>748.79998779296875</AltitudeMeters>
            <DistanceMeters>10497.256438745</DistanceMeters>
          </Trackpoint>
          <Trackpoint>
            <Time>2020-03-07T13:12:14.000Z</Time>
            <Position>
              <LatitudeDegrees>40.60018002055585384368896484375</LatitudeDegrees>
              <LongitudeDegrees>-3.720257095992565155029296875</LongitudeDegrees>
            </Position>
            <AltitudeMeters>748.79998779296875</AltitudeMeters>
            <DistanceMeters>10505.732480757</DistanceMeters>
          </Trackpoint>
          <Trackpoint>
            <Time>2020-03-07T13:12:15.000Z</Time>
            <Position>
              <LatitudeDegrees>40.6002530269324779510498046875</LatitudeDegrees>
              <LongitudeDegrees>-3.72029104270040988922119140625</LongitudeDegrees>
            </Position>
            <AltitudeMeters>749.20001220703125</AltitudeMeters>
            <DistanceMeters>10514.349575314</DistanceMeters>
          </Trackpoint>
          <Trackpoint>
            <Time>2020-03-07T13:12:16.000Z</Time>
            <Position>
              <LatitudeDegrees>40.60032737441360950469970703125</LatitudeDegrees>
              <LongitudeDegrees>-3.720322810113430023193359375</LongitudeDegrees>
            </Position>
            <AltitudeMeters>749.20001220703125</AltitudeMeters>
            <DistanceMeters>10523.049581104</DistanceMeters>
          </Trackpoint>
          <Trackpoint>
            <Time>2020-03-07T13:12:17.000Z</Time>
            <Position>
              <LatitudeDegrees>40.60040281154215335845947265625</LatitudeDegrees>
              <LongitudeDegrees>-3.720351643860340118408203125</LongitudeDegrees>
            </Position>
            <AltitudeMeters>749.20001220703125</AltitudeMeters>
            <DistanceMeters>10531.792038826</DistanceMeters>
          </Trackpoint>
          <Trackpoint>
            <Time>2020-03-07T13:12:18.000Z</Time>
            <Position>
              <LatitudeDegrees>40.60048059560358524322509765625</LatitudeDegrees>
              <LongitudeDegrees>-3.72037720866501331329345703125</LongitudeDegrees>
            </Position>
            <AltitudeMeters>749.4000244140625</AltitudeMeters>
            <DistanceMeters>10540.714941045</DistanceMeters>
          </Trackpoint>
          <Trackpoint>
            <Time>2020-03-07T13:12:19.000Z</Time>
            <Position>
              <LatitudeDegrees>40.60056223534047603607177734375</LatitudeDegrees>
              <LongitudeDegrees>-3.72039866633713245391845703125</LongitudeDegrees>
            </Position>
            <AltitudeMeters>749.5999755859375</AltitudeMeters>
            <DistanceMeters>10549.98089846</DistanceMeters>
          </Trackpoint>
          <Trackpoint>
            <Time>2020-03-07T13:12:20.000Z</Time>
            <Position>
              <LatitudeDegrees>40.6006483174860477447509765625</LatitudeDegrees>
              <LongitudeDegrees>-3.72041501104831695556640625</LongitudeDegrees>
            </Position>
            <AltitudeMeters>749.5999755859375</AltitudeMeters>
            <DistanceMeters>10559.661038091</DistanceMeters>
          </Trackpoint>
          <Trackpoint>
            <Time>2020-03-07T13:12:21.000Z</Time>
            <Position>
              <LatitudeDegrees>40.6007386744022369384765625</LatitudeDegrees>
              <LongitudeDegrees>-3.7204279191792011260986328125</LongitudeDegrees>
            </Position>
            <AltitudeMeters>749.5999755859375</AltitudeMeters>
            <DistanceMeters>10569.777255582</DistanceMeters>
          </Trackpoint>
          <Trackpoint>
            <Time>2020-03-07T13:12:22.000Z</Time>
            <Position>
              <LatitudeDegrees>40.60083230026066303253173828125</LatitudeDegrees>
              <LongitudeDegrees>-3.720439486205577850341796875</LongitudeDegrees>
            </Position>
            <AltitudeMeters>749.5999755859375</AltitudeMeters>
            <DistanceMeters>10580.244007104</DistanceMeters>
          </Trackpoint>
          <Trackpoint>
            <Time>2020-03-07T13:12:23.000Z</Time>
            <Position>
              <LatitudeDegrees>40.600927434861660003662109375</LatitudeDegrees>
              <LongitudeDegrees>-3.72045096941292285919189453125</LongitudeDegrees>
            </Position>
            <AltitudeMeters>749.5999755859375</AltitudeMeters>
            <DistanceMeters>10590.876812805</DistanceMeters>
          </Trackpoint>
          <Trackpoint>
            <Time>2020-03-07T13:12:24.000Z</Time>
            <Position>
              <LatitudeDegrees>40.6010231561958789825439453125</LatitudeDegrees>
              <LongitudeDegrees>-3.72046253643929958343505859375</LongitudeDegrees>
            </Position>
            <AltitudeMeters>749.5999755859375</AltitudeMeters>
            <DistanceMeters>10601.575656154</DistanceMeters>
          </Trackpoint>
          <Trackpoint>
            <Time>2020-03-07T13:12:25.000Z</Time>
            <Position>
              <LatitudeDegrees>40.60111896134912967681884765625</LatitudeDegrees>
              <LongitudeDegrees>-3.7204728461802005767822265625</LongitudeDegrees>
            </Position>
            <AltitudeMeters>749.5999755859375</AltitudeMeters>
            <DistanceMeters>10612.274499503</DistanceMeters>
          </Trackpoint>
          <Trackpoint>
            <Time>2020-03-07T13:12:26.000Z</Time>
            <Position>
              <LatitudeDegrees>40.60121317394077777862548828125</LatitudeDegrees>
              <LongitudeDegrees>-3.72048550285398960113525390625</LongitudeDegrees>
            </Position>
            <AltitudeMeters>749.5999755859375</AltitudeMeters>
            <DistanceMeters>10622.815185466</DistanceMeters>
          </Trackpoint>
          <Trackpoint>
            <Time>2020-03-07T13:12:27.000Z</Time>
            <Position>
              <LatitudeDegrees>40.60130596160888671875</LatitudeDegrees>
              <LongitudeDegrees>-3.7205028533935546875</LongitudeDegrees>
            </Position>
            <AltitudeMeters>749.4000244140625</AltitudeMeters>
            <DistanceMeters>10633.245639003</DistanceMeters>
          </Trackpoint>
          <Trackpoint>
            <Time>2020-03-07T13:12:28.000Z</Time>
            <Position>
              <LatitudeDegrees>40.6013969890773296356201171875</LatitudeDegrees>
              <LongitudeDegrees>-3.720521964132785797119140625</LongitudeDegrees>
            </Position>
            <AltitudeMeters>749</AltitudeMeters>
            <DistanceMeters>10643.505004043</DistanceMeters>
          </Trackpoint>
          <Trackpoint>
            <Time>2020-03-07T13:12:29.000Z</Time>
            <Position>
              <LatitudeDegrees>40.60148675926029682159423828125</LatitudeDegrees>
              <LongitudeDegrees>-3.7205358780920505523681640625</LongitudeDegrees>
            </Position>
            <AltitudeMeters>748.4000244140625</AltitudeMeters>
            <DistanceMeters>10653.565726029</DistanceMeters>
          </Trackpoint>
          <Trackpoint>
            <Time>2020-03-07T13:12:30.000Z</Time>
            <Position>
              <LatitudeDegrees>40.6015743501484394073486328125</LatitudeDegrees>
              <LongitudeDegrees>-3.72054635547101497650146484375</LongitudeDegrees>
            </Position>
            <AltitudeMeters>747.5999755859375</AltitudeMeters>
            <DistanceMeters>10663.355322614</DistanceMeters>
          </Trackpoint>
          <Trackpoint>
            <Time>2020-03-07T13:12:31.000Z</Time>
            <Position>
              <LatitudeDegrees>40.60166076757013797760009765625</LatitudeDegrees>
              <LongitudeDegrees>-3.72055809013545513153076171875</LongitudeDegrees>
            </Position>
            <AltitudeMeters>747</AltitudeMeters>
            <DistanceMeters>10673.025195497</DistanceMeters>
          </Trackpoint>
          <Trackpoint>
            <Time>2020-03-07T13:12:32.000Z</Time>
            <Position>
              <LatitudeDegrees>40.6017458438873291015625</LatitudeDegrees>
              <LongitudeDegrees>-3.72057083062827587127685546875</LongitudeDegrees>
            </Position>
            <AltitudeMeters>746.79998779296875</AltitudeMeters>
            <DistanceMeters>10682.556332314</DistanceMeters>
          </Trackpoint>
          <Trackpoint>
            <Time>2020-03-07T13:12:33.000Z</Time>
            <Position>
              <LatitudeDegrees>40.60182966291904449462890625</LatitudeDegrees>
              <LongitudeDegrees>-3.72058474458754062652587890625</LongitudeDegrees>
            </Position>
            <AltitudeMeters>746.5999755859375</AltitudeMeters>
            <DistanceMeters>10691.959656648</DistanceMeters>
          </Trackpoint>
          <Trackpoint>
            <Time>2020-03-07T13:12:34.000Z</Time>
            <Position>
              <LatitudeDegrees>40.60191289521753787994384765625</LatitudeDegrees>
              <LongitudeDegrees>-3.72059932909905910491943359375</LongitudeDegrees>
            </Position>
            <AltitudeMeters>746.5999755859375</AltitudeMeters>
            <DistanceMeters>10701.305184957</DistanceMeters>
          </Trackpoint>
          <Trackpoint>
            <Time>2020-03-07T13:12:35.000Z</Time>
            <Position>
              <LatitudeDegrees>40.601995289325714111328125</LatitudeDegrees>
              <LongitudeDegrees>-3.7206143327057361602783203125</LongitudeDegrees>
            </Position>
            <AltitudeMeters>746.5999755859375</AltitudeMeters>
            <DistanceMeters>10710.563342744</DistanceMeters>
          </Trackpoint>
          <Trackpoint>
            <Time>2020-03-07T13:12:36.000Z</Time>
            <Position>
              <LatitudeDegrees>40.6020769290626049041748046875</LatitudeDegrees>
              <LongitudeDegrees>-3.720630593597888946533203125</LongitudeDegrees>
            </Position>
            <AltitudeMeters>746.4000244140625</AltitudeMeters>
            <DistanceMeters>10719.753953989</DistanceMeters>
          </Trackpoint>
          <Trackpoint>
            <Time>2020-03-07T13:12:37.000Z</Time>
            <Position>
              <LatitudeDegrees>40.60215831734240055084228515625</LatitudeDegrees>
              <LongitudeDegrees>-3.7206471897661685943603515625</LongitudeDegrees>
            </Position>
            <AltitudeMeters>746.4000244140625</AltitudeMeters>
            <DistanceMeters>10728.920954119</DistanceMeters>
          </Trackpoint>
          <Trackpoint>
            <Time>2020-03-07T13:12:38.000Z</Time>
            <Position>
              <LatitudeDegrees>40.6022395379841327667236328125</LatitudeDegrees>
              <LongitudeDegrees>-3.7206624448299407958984375</LongitudeDegrees>
            </Position>
            <AltitudeMeters>746.4000244140625</AltitudeMeters>
            <DistanceMeters>10738.052423107</DistanceMeters>
          </Trackpoint>
          <Trackpoint>
            <Time>2020-03-07T13:12:39.000Z</Time>
            <Position>
              <LatitudeDegrees>40.60232059098780155181884765625</LatitudeDegrees>
              <LongitudeDegrees>-3.72067677788436412811279296875</LongitudeDegrees>
            </Position>
            <AltitudeMeters>746.4000244140625</AltitudeMeters>
            <DistanceMeters>10747.155168927</DistanceMeters>
          </Trackpoint>
          <Trackpoint>
            <Time>2020-03-07T13:12:40.000Z</Time>
            <Position>
              <LatitudeDegrees>40.6024016439914703369140625</LatitudeDegrees>
              <LongitudeDegrees>-3.72069069184362888336181640625</LongitudeDegrees>
            </Position>
            <AltitudeMeters>746.4000244140625</AltitudeMeters>
            <DistanceMeters>10756.25295331</DistanceMeters>
          </Trackpoint>
          <Trackpoint>
            <Time>2020-03-07T13:12:41.000Z</Time>
            <Position>
              <LatitudeDegrees>40.60248319990932941436767578125</LatitudeDegrees>
              <LongitudeDegrees>-3.72070460580289363861083984375</LongitudeDegrees>
            </Position>
            <AltitudeMeters>746.5999755859375</AltitudeMeters>
            <DistanceMeters>10765.406152163</DistanceMeters>
          </Trackpoint>
          <Trackpoint>
            <Time>2020-03-07T13:12:42.000Z</Time>
            <Position>
              <LatitudeDegrees>40.602564923465251922607421875</LatitudeDegrees>
              <LongitudeDegrees>-3.72071801684796810150146484375</LongitudeDegrees>
            </Position>
            <AltitudeMeters>746.5999755859375</AltitudeMeters>
            <DistanceMeters>10774.572167177</DistanceMeters>
          </Trackpoint>
          <Trackpoint>
            <Time>2020-03-07T13:12:43.000Z</Time>
            <Position>
              <LatitudeDegrees>40.6026468984782695770263671875</LatitudeDegrees>
              <LongitudeDegrees>-3.7207296676933765411376953125</LongitudeDegrees>
            </Position>
            <AltitudeMeters>746.79998779296875</AltitudeMeters>
            <DistanceMeters>10783.749012654</DistanceMeters>
          </Trackpoint>
          <Trackpoint>
            <Time>2020-03-07T13:12:44.000Z</Time>
            <Position>
              <LatitudeDegrees>40.60272878967225551605224609375</LatitudeDegrees>
              <LongitudeDegrees>-3.720741234719753265380859375</LongitudeDegrees>
            </Position>
            <AltitudeMeters>746.79998779296875</AltitudeMeters>
            <DistanceMeters>10792.916012785</DistanceMeters>
          </Trackpoint>
          <Trackpoint>
            <Time>2020-03-07T13:12:45.000Z</Time>
            <Position>
              <LatitudeDegrees>40.602811016142368316650390625</LatitudeDegrees>
              <LongitudeDegrees>-3.72075271792709827423095703125</LongitudeDegrees>
            </Position>
            <AltitudeMeters>746.79998779296875</AltitudeMeters>
            <DistanceMeters>10802.118406869</DistanceMeters>
          </Trackpoint>
          <Trackpoint>
            <Time>2020-03-07T13:12:46.000Z</Time>
            <Position>
              <LatitudeDegrees>40.60289315879344940185546875</LatitudeDegrees>
              <LongitudeDegrees>-3.72076495550572872161865234375</LongitudeDegrees>
            </Position>
            <AltitudeMeters>747</AltitudeMeters>
            <DistanceMeters>10811.318838195</DistanceMeters>
          </Trackpoint>
          <Trackpoint>
            <Time>2020-03-07T13:12:47.000Z</Time>
            <Position>
              <LatitudeDegrees>40.6029754690825939178466796875</LatitudeDegrees>
              <LongitudeDegrees>-3.7207776121795177459716796875</LongitudeDegrees>
            </Position>
            <AltitudeMeters>747</AltitudeMeters>
            <DistanceMeters>10820.542795061</DistanceMeters>
          </Trackpoint>
          <Trackpoint>
            <Time>2020-03-07T13:12:48.000Z</Time>
            <Position>
              <LatitudeDegrees>40.603057108819484710693359375</LatitudeDegrees>
              <LongitudeDegrees>-3.72079186141490936279296875</LongitudeDegrees>
            </Position>
            <AltitudeMeters>747.20001220703125</AltitudeMeters>
            <DistanceMeters>10829.708810075</DistanceMeters>
          </Trackpoint>
          <Trackpoint>
            <Time>2020-03-07T13:12:49.000Z</Time>
            <Position>
              <LatitudeDegrees>40.60313883237540721893310546875</LatitudeDegrees>
              <LongitudeDegrees>-3.720806948840618133544921875</LongitudeDegrees>
            </Position>
            <AltitudeMeters>747.20001220703125</AltitudeMeters>
            <DistanceMeters>10838.893524231</DistanceMeters>
          </Trackpoint>
          <Trackpoint>
            <Time>2020-03-07T13:12:50.000Z</Time>
            <Position>
              <LatitudeDegrees>40.60322013683617115020751953125</LatitudeDegrees>
              <LongitudeDegrees>-3.72082061134278774261474609375</LongitudeDegrees>
            </Position>
            <AltitudeMeters>747.4000244140625</AltitudeMeters>
            <DistanceMeters>10848.016088811</DistanceMeters>
          </Trackpoint>
          <Trackpoint>
            <Time>2020-03-07T13:12:51.000Z</Time>
            <Position>
              <LatitudeDegrees>40.603301525115966796875</LatitudeDegrees>
              <LongitudeDegrees>-3.7208342738449573516845703125</LongitudeDegrees>
            </Position>
            <AltitudeMeters>747.4000244140625</AltitudeMeters>
            <DistanceMeters>10857.148546642</DistanceMeters>
          </Trackpoint>
          <Trackpoint>
            <Time>2020-03-07T13:12:52.000Z</Time>
            <Position>
              <LatitudeDegrees>40.60338241048157215118408203125</LatitudeDegrees>
              <LongitudeDegrees>-3.72084827162325382232666015625</LongitudeDegrees>
            </Position>
            <AltitudeMeters>747.5999755859375</AltitudeMeters>
            <DistanceMeters>10866.228944651</DistanceMeters>
          </Trackpoint>
          <Trackpoint>
            <Time>2020-03-07T13:12:53.000Z</Time>
            <Position>
              <LatitudeDegrees>40.6034636311233043670654296875</LatitudeDegrees>
              <LongitudeDegrees>-3.72086201794445514678955078125</LongitudeDegrees>
            </Position>
            <AltitudeMeters>747.5999755859375</AltitudeMeters>
            <DistanceMeters>10875.343091524</DistanceMeters>
          </Trackpoint>
          <Trackpoint>
            <Time>2020-03-07T13:12:54.000Z</Time>
            <Position>
              <LatitudeDegrees>40.60354451648890972137451171875</LatitudeDegrees>
              <LongitudeDegrees>-3.7208743393421173095703125</LongitudeDegrees>
            </Position>
            <AltitudeMeters>747.79998779296875</AltitudeMeters>
            <DistanceMeters>10884.406069805</DistanceMeters>
          </Trackpoint>
          <Trackpoint>
            <Time>2020-03-07T13:12:55.000Z</Time>
            <Position>
              <LatitudeDegrees>40.60362498275935649871826171875</LatitudeDegrees>
              <LongitudeDegrees>-3.7208859063684940338134765625</LongitudeDegrees>
            </Position>
            <AltitudeMeters>748</AltitudeMeters>
            <DistanceMeters>10893.416085745</DistanceMeters>
          </Trackpoint>
          <Trackpoint>
            <Time>2020-03-07T13:12:56.000Z</Time>
            <Position>
              <LatitudeDegrees>40.603705532848834991455078125</LatitudeDegrees>
              <LongitudeDegrees>-3.720896132290363311767578125</LongitudeDegrees>
            </Position>
            <AltitudeMeters>748</AltitudeMeters>
            <DistanceMeters>10902.423094503</DistanceMeters>
          </Trackpoint>
          <Trackpoint>
            <Time>2020-03-07T13:12:57.000Z</Time>
            <Position>
              <LatitudeDegrees>40.6037856638431549072265625</LatitudeDegrees>
              <LongitudeDegrees>-3.72090543620288372039794921875</LongitudeDegrees>
            </Position>
            <AltitudeMeters>748</AltitudeMeters>
            <DistanceMeters>10911.376809859</DistanceMeters>
          </Trackpoint>
          <Trackpoint>
            <Time>2020-03-07T13:12:58.000Z</Time>
            <Position>
              <LatitudeDegrees>40.60386487282812595367431640625</LatitudeDegrees>
              <LongitudeDegrees>-3.72091515921056270599365234375</LongitudeDegrees>
            </Position>
            <AltitudeMeters>748</AltitudeMeters>
            <DistanceMeters>10920.231137822</DistanceMeters>
          </Trackpoint>
          <Trackpoint>
            <Time>2020-03-07T13:12:59.000Z</Time>
            <Position>
              <LatitudeDegrees>40.6039440818130970001220703125</LatitudeDegrees>
              <LongitudeDegrees>-3.72092421166598796844482421875</LongitudeDegrees>
            </Position>
            <AltitudeMeters>748.4000244140625</AltitudeMeters>
            <DistanceMeters>10929.080365072</DistanceMeters>
          </Trackpoint>
          <Trackpoint>
            <Time>2020-03-07T13:13:00.000Z</Time>
            <Position>
              <LatitudeDegrees>40.60402329079806804656982421875</LatitudeDegrees>
              <LongitudeDegrees>-3.72093292884528636932373046875</LongitudeDegrees>
            </Position>
            <AltitudeMeters>748.4000244140625</AltitudeMeters>
            <DistanceMeters>10937.927551214</DistanceMeters>
          </Trackpoint>
          <Trackpoint>
            <Time>2020-03-07T13:13:01.000Z</Time>
            <Position>
              <LatitudeDegrees>40.60410149395465850830078125</LatitudeDegrees>
              <LongitudeDegrees>-3.720941729843616485595703125</LongitudeDegrees>
            </Position>
            <AltitudeMeters>748.4000244140625</AltitudeMeters>
            <DistanceMeters>10946.663292512</DistanceMeters>
          </Trackpoint>
          <Trackpoint>
            <Time>2020-03-07T13:13:02.000Z</Time>
            <Position>
              <LatitudeDegrees>40.6041797809302806854248046875</LatitudeDegrees>
              <LongitudeDegrees>-3.72095053084194660186767578125</LongitudeDegrees>
            </Position>
            <AltitudeMeters>748.4000244140625</AltitudeMeters>
            <DistanceMeters>10955.408848382</DistanceMeters>
          </Trackpoint>
          <Trackpoint>
            <Time>2020-03-07T13:13:03.000Z</Time>
            <Position>
              <LatitudeDegrees>40.60425781644880771636962890625</LatitudeDegrees>
              <LongitudeDegrees>-3.720959834754467010498046875</LongitudeDegrees>
            </Position>
            <AltitudeMeters>748.4000244140625</AltitudeMeters>
            <DistanceMeters>10964.130623658</DistanceMeters>
          </Trackpoint>
          <Trackpoint>
            <Time>2020-03-07T13:13:04.000Z</Time>
            <Position>
              <LatitudeDegrees>40.604335851967334747314453125</LatitudeDegrees>
              <LongitudeDegrees>-3.72097081504762172698974609375</LongitudeDegrees>
            </Position>
            <AltitudeMeters>748.4000244140625</AltitudeMeters>
            <DistanceMeters>10972.865848094</DistanceMeters>
          </Trackpoint>
          <Trackpoint>
            <Time>2020-03-07T13:13:05.000Z</Time>
            <Position>
              <LatitudeDegrees>40.60441371984779834747314453125</LatitudeDegrees>
              <LongitudeDegrees>-3.72098229825496673583984375</LongitudeDegrees>
            </Position>
            <AltitudeMeters>748.4000244140625</AltitudeMeters>
            <DistanceMeters>10981.58710568</DistanceMeters>
          </Trackpoint>
          <Trackpoint>
            <Time>2020-03-07T13:13:06.000Z</Time>
            <Position>
              <LatitudeDegrees>40.6044919230043888092041015625</LatitudeDegrees>
              <LongitudeDegrees>-3.7209918536245822906494140625</LongitudeDegrees>
            </Position>
            <AltitudeMeters>748.4000244140625</AltitudeMeters>
            <DistanceMeters>10990.328530442</DistanceMeters>
          </Trackpoint>
          <Trackpoint>
            <Time>2020-03-07T13:13:07.000Z</Time>
            <Position>
              <LatitudeDegrees>40.6045707128942012786865234375</LatitudeDegrees>
              <LongitudeDegrees>-3.7209992296993732452392578125</LongitudeDegrees>
            </Position>
            <AltitudeMeters>748.4000244140625</AltitudeMeters>
            <DistanceMeters>10999.120427528</DistanceMeters>
          </Trackpoint>
          <Trackpoint>
            <Time>2020-03-07T13:13:08.000Z</Time>
            <Position>
              <LatitudeDegrees>40.6046495027840137481689453125</LatitudeDegrees>
              <LongitudeDegrees>-3.72100719250738620758056640625</LongitudeDegrees>
            </Position>
            <AltitudeMeters>748.4000244140625</AltitudeMeters>
            <DistanceMeters>11007.915405346</DistanceMeters>
          </Trackpoint>
          <Trackpoint>
            <Time>2020-03-07T13:13:09.000Z</Time>
            <Position>
              <LatitudeDegrees>40.60472854413092136383056640625</LatitudeDegrees>
              <LongitudeDegrees>-3.7210163287818431854248046875</LongitudeDegrees>
            </Position>
            <AltitudeMeters>748.4000244140625</AltitudeMeters>
            <DistanceMeters>11016.746245633</DistanceMeters>
          </Trackpoint>
          <Trackpoint>
            <Time>2020-03-07T13:13:10.000Z</Time>
            <Position>
              <LatitudeDegrees>40.60480800457298755645751953125</LatitudeDegrees>
              <LongitudeDegrees>-3.7210245430469512939453125</LongitudeDegrees>
            </Position>
            <AltitudeMeters>748.5999755859375</AltitudeMeters>
            <DistanceMeters>11025.617894086</DistanceMeters>
          </Trackpoint>
          <Trackpoint>
            <Time>2020-03-07T13:13:11.000Z</Time>
            <Position>
              <LatitudeDegrees>40.60488738119602203369140625</LatitudeDegrees>
              <LongitudeDegrees>-3.7210327573120594024658203125</LongitudeDegrees>
            </Position>
            <AltitudeMeters>748.5999755859375</AltitudeMeters>
            <DistanceMeters>11034.480377085</DistanceMeters>
          </Trackpoint>
          <Trackpoint>
            <Time>2020-03-07T13:13:12.000Z</Time>
            <Position>
              <LatitudeDegrees>40.60496642254292964935302734375</LatitudeDegrees>
              <LongitudeDegrees>-3.72104139067232608795166015625</LongitudeDegrees>
            </Position>
            <AltitudeMeters>748.5999755859375</AltitudeMeters>
            <DistanceMeters>11043.308149155</DistanceMeters>
          </Trackpoint>
          <Trackpoint>
            <Time>2020-03-07T13:13:13.000Z</Time>
            <Position>
              <LatitudeDegrees>40.6050454638898372650146484375</LatitudeDegrees>
              <LongitudeDegrees>-3.72104960493743419647216796875</LongitudeDegrees>
            </Position>
            <AltitudeMeters>748.5999755859375</AltitudeMeters>
            <DistanceMeters>11052.133363562</DistanceMeters>
          </Trackpoint>
          <Trackpoint>
            <Time>2020-03-07T13:13:14.000Z</Time>
            <Position>
              <LatitudeDegrees>40.60512484051287174224853515625</LatitudeDegrees>
              <LongitudeDegrees>-3.72105832211673259735107421875</LongitudeDegrees>
            </Position>
            <AltitudeMeters>748.5999755859375</AltitudeMeters>
            <DistanceMeters>11060.998902765</DistanceMeters>
          </Trackpoint>
          <Trackpoint>
            <Time>2020-03-07T13:13:15.000Z</Time>
            <Position>
              <LatitudeDegrees>40.60520363040268421173095703125</LatitudeDegrees>
              <LongitudeDegrees>-3.72106821276247501373291015625</LongitudeDegrees>
            </Position>
            <AltitudeMeters>748.5999755859375</AltitudeMeters>
            <DistanceMeters>11069.807730547</DistanceMeters>
          </Trackpoint>
          <Trackpoint>
            <Time>2020-03-07T13:13:16.000Z</Time>
            <Position>
              <LatitudeDegrees>40.6052821688354015350341796875</LatitudeDegrees>
              <LongitudeDegrees>-3.72107810340821743011474609375</LongitudeDegrees>
            </Position>
            <AltitudeMeters>748.5999755859375</AltitudeMeters>
            <DistanceMeters>11078.589350718</DistanceMeters>
          </Trackpoint>
          <Trackpoint>
            <Time>2020-03-07T13:13:17.000Z</Time>
            <Position>
              <LatitudeDegrees>40.6053596176207065582275390625</LatitudeDegrees>
              <LongitudeDegrees>-3.72108715586364269256591796875</LongitudeDegrees>
            </Position>
            <AltitudeMeters>748.5999755859375</AltitudeMeters>
            <DistanceMeters>11087.243566686</DistanceMeters>
          </Trackpoint>
          <Trackpoint>
            <Time>2020-03-07T13:13:18.000Z</Time>
            <Position>
              <LatitudeDegrees>40.60543631203472614288330078125</LatitudeDegrees>
              <LongitudeDegrees>-3.72109503485262393951416015625</LongitudeDegrees>
            </Position>
            <AltitudeMeters>748.5999755859375</AltitudeMeters>
            <DistanceMeters>11095.805468378</DistanceMeters>
          </Trackpoint>
          <Trackpoint>
            <Time>2020-03-07T13:13:19.000Z</Time>
            <Position>
              <LatitudeDegrees>40.60551258735358715057373046875</LatitudeDegrees>
              <LongitudeDegrees>-3.7211023271083831787109375</LongitudeDegrees>
            </Position>
            <AltitudeMeters>748.5999755859375</AltitudeMeters>
            <DistanceMeters>11104.317655722</DistanceMeters>
          </Trackpoint>
          <Trackpoint>
            <Time>2020-03-07T13:13:20.000Z</Time>
            <Position>
              <LatitudeDegrees>40.60558852739632129669189453125</LatitudeDegrees>
              <LongitudeDegrees>-3.72110861353576183319091796875</LongitudeDegrees>
            </Position>
            <AltitudeMeters>748.5999755859375</AltitudeMeters>
            <DistanceMeters>11112.786770032</DistanceMeters>
          </Trackpoint>
          <Trackpoint>
            <Time>2020-03-07T13:13:21.000Z</Time>
            <Position>
              <LatitudeDegrees>40.605663545429706573486328125</LatitudeDegrees>
              <LongitudeDegrees>-3.721116073429584503173828125</LongitudeDegrees>
            </Position>
            <AltitudeMeters>748.5999755859375</AltitudeMeters>
            <DistanceMeters>11121.159912424</DistanceMeters>
          </Trackpoint>
          <Trackpoint>
            <Time>2020-03-07T13:13:22.000Z</Time>
            <Position>
              <LatitudeDegrees>40.60573789291083812713623046875</LatitudeDegrees>
              <LongitudeDegrees>-3.7211262993514537811279296875</LongitudeDegrees>
            </Position>
            <AltitudeMeters>748.79998779296875</AltitudeMeters>
            <DistanceMeters>11129.478957192</DistanceMeters>
          </Trackpoint>
          <Trackpoint>
            <Time>2020-03-07T13:13:23.000Z</Time>
            <Position>
              <LatitudeDegrees>40.605812408030033111572265625</LatitudeDegrees>
              <LongitudeDegrees>-3.72113652527332305908203125</LongitudeDegrees>
            </Position>
            <AltitudeMeters>748.79998779296875</AltitudeMeters>
            <DistanceMeters>11137.816976054</DistanceMeters>
          </Trackpoint>
          <Trackpoint>
            <Time>2020-03-07T13:13:24.000Z</Time>
            <Position>
              <LatitudeDegrees>40.60588709078729152679443359375</LatitudeDegrees>
              <LongitudeDegrees>-3.72114599682390689849853515625</LongitudeDegrees>
            </Position>
            <AltitudeMeters>748.79998779296875</AltitudeMeters>
            <DistanceMeters>11146.167440131</DistanceMeters>
          </Trackpoint>
          <Trackpoint>
            <Time>2020-03-07T13:13:25.000Z</Time>
            <Position>
              <LatitudeDegrees>40.6059614382684230804443359375</LatitudeDegrees>
              <LongitudeDegrees>-3.72115605510771274566650390625</LongitudeDegrees>
            </Position>
            <AltitudeMeters>748.79998779296875</AltitudeMeters>
            <DistanceMeters>11154.4864849</DistanceMeters>
          </Trackpoint>
          <Trackpoint>
            <Time>2020-03-07T13:13:26.000Z</Time>
            <Position>
              <LatitudeDegrees>40.6060365401208400726318359375</LatitudeDegrees>
              <LongitudeDegrees>-3.721165023744106292724609375</LongitudeDegrees>
            </Position>
            <AltitudeMeters>748.79998779296875</AltitudeMeters>
            <DistanceMeters>11162.879555038</DistanceMeters>
          </Trackpoint>
          <Trackpoint>
            <Time>2020-03-07T13:13:27.000Z</Time>
            <Position>
              <LatitudeDegrees>40.60611155815422534942626953125</LatitudeDegrees>
              <LongitudeDegrees>-3.72117281891405582427978515625</LongitudeDegrees>
            </Position>
            <AltitudeMeters>748.79998779296875</AltitudeMeters>
            <DistanceMeters>11171.254854067</DistanceMeters>
          </Trackpoint>
          <Trackpoint>
            <Time>2020-03-07T13:13:28.000Z</Time>
            <Position>
              <LatitudeDegrees>40.6061862409114837646484375</LatitudeDegrees>
              <LongitudeDegrees>-3.7211822904646396636962890625</LongitudeDegrees>
            </Position>
            <AltitudeMeters>748.79998779296875</AltitudeMeters>
            <DistanceMeters>11179.605318143</DistanceMeters>
          </Trackpoint>
          <Trackpoint>
            <Time>2020-03-07T13:13:29.000Z</Time>
            <Position>
              <LatitudeDegrees>40.60626092366874217987060546875</LatitudeDegrees>
              <LongitudeDegrees>-3.721191845834255218505859375</LongitudeDegrees>
            </Position>
            <AltitudeMeters>749</AltitudeMeters>
            <DistanceMeters>11187.956322896</DistanceMeters>
          </Trackpoint>
          <Trackpoint>
            <Time>2020-03-07T13:13:30.000Z</Time>
            <Position>
              <LatitudeDegrees>40.60633585788309574127197265625</LatitudeDegrees>
              <LongitudeDegrees>-3.721201233565807342529296875</LongitudeDegrees>
            </Position>
            <AltitudeMeters>749</AltitudeMeters>
            <DistanceMeters>11196.33431694</DistanceMeters>
          </Trackpoint>
          <Trackpoint>
            <Time>2020-03-07T13:13:31.000Z</Time>
            <Position>
              <LatitudeDegrees>40.60641112737357616424560546875</LatitudeDegrees>
              <LongitudeDegrees>-3.7212121300399303436279296875</LongitudeDegrees>
            </Position>
            <AltitudeMeters>749</AltitudeMeters>
            <DistanceMeters>11204.762281184</DistanceMeters>
          </Trackpoint>
          <Trackpoint>
            <Time>2020-03-07T13:13:32.000Z</Time>
            <Position>
              <LatitudeDegrees>40.606485642492771148681640625</LatitudeDegrees>
              <LongitudeDegrees>-3.7212231941521167755126953125</LongitudeDegrees>
            </Position>
            <AltitudeMeters>749</AltitudeMeters>
            <DistanceMeters>11213.108418596</DistanceMeters>
          </Trackpoint>
          <Trackpoint>
            <Time>2020-03-07T13:13:33.000Z</Time>
            <Position>
              <LatitudeDegrees>40.606560409069061279296875</LatitudeDegrees>
              <LongitudeDegrees>-3.7212329171597957611083984375</LongitudeDegrees>
            </Position>
            <AltitudeMeters>749</AltitudeMeters>
            <DistanceMeters>11221.470229518</DistanceMeters>
          </Trackpoint>
          <Trackpoint>
            <Time>2020-03-07T13:13:34.000Z</Time>
            <Position>
              <LatitudeDegrees>40.60663509182631969451904296875</LatitudeDegrees>
              <LongitudeDegrees>-3.72124113142490386962890625</LongitudeDegrees>
            </Position>
            <AltitudeMeters>749</AltitudeMeters>
            <DistanceMeters>11229.81203802</DistanceMeters>
          </Trackpoint>
          <Trackpoint>
            <Time>2020-03-07T13:13:35.000Z</Time>
            <Position>
              <LatitudeDegrees>40.606710612773895263671875</LatitudeDegrees>
              <LongitudeDegrees>-3.72124976478517055511474609375</LongitudeDegrees>
            </Position>
            <AltitudeMeters>749</AltitudeMeters>
            <DistanceMeters>11238.249639734</DistanceMeters>
          </Trackpoint>
          <Trackpoint>
            <Time>2020-03-07T13:13:36.000Z</Time>
            <Position>
              <LatitudeDegrees>40.6067852117121219635009765625</LatitudeDegrees>
              <LongitudeDegrees>-3.72125856578350067138671875</LongitudeDegrees>
            </Position>
            <AltitudeMeters>749</AltitudeMeters>
            <DistanceMeters>11246.586033937</DistanceMeters>
          </Trackpoint>
          <Trackpoint>
            <Time>2020-03-07T13:13:37.000Z</Time>
            <Position>
              <LatitudeDegrees>40.60685989446938037872314453125</LatitudeDegrees>
              <LongitudeDegrees>-3.72126552276313304901123046875</LongitudeDegrees>
            </Position>
            <AltitudeMeters>749</AltitudeMeters>
            <DistanceMeters>11254.918636038</DistanceMeters>
          </Trackpoint>
          <Trackpoint>
            <Time>2020-03-07T13:13:38.000Z</Time>
            <Position>
              <LatitudeDegrees>40.6069350801408290863037109375</LatitudeDegrees>
              <LongitudeDegrees>-3.721270971000194549560546875</LongitudeDegrees>
            </Position>
            <AltitudeMeters>749</AltitudeMeters>
            <DistanceMeters>11263.299862957</DistanceMeters>
          </Trackpoint>
          <Trackpoint>
            <Time>2020-03-07T13:13:39.000Z</Time>
            <Position>
              <LatitudeDegrees>40.60701026581227779388427734375</LatitudeDegrees>
              <LongitudeDegrees>-3.72127323411405086517333984375</LongitudeDegrees>
            </Position>
            <AltitudeMeters>749</AltitudeMeters>
            <DistanceMeters>11271.670308771</DistanceMeters>
          </Trackpoint>
          <Trackpoint>
            <Time>2020-03-07T13:13:40.000Z</Time>
            <Position>
              <LatitudeDegrees>40.6070849485695362091064453125</LatitudeDegrees>
              <LongitudeDegrees>-3.7212617509067058563232421875</LongitudeDegrees>
            </Position>
            <AltitudeMeters>749</AltitudeMeters>
            <DistanceMeters>11280.039136222</DistanceMeters>
          </Trackpoint>
          <Trackpoint>
            <Time>2020-03-07T13:13:41.000Z</Time>
            <Position>
              <LatitudeDegrees>40.6071553565561771392822265625</LatitudeDegrees>
              <LongitudeDegrees>-3.7212283909320831298828125</LongitudeDegrees>
            </Position>
            <AltitudeMeters>749</AltitudeMeters>
            <DistanceMeters>11288.366860226</DistanceMeters>
          </Trackpoint>
          <Trackpoint>
            <Time>2020-03-07T13:13:42.000Z</Time>
            <Position>
              <LatitudeDegrees>40.60721780173480510711669921875</LatitudeDegrees>
              <LongitudeDegrees>-3.7211765907704830169677734375</LongitudeDegrees>
            </Position>
            <AltitudeMeters>749</AltitudeMeters>
            <DistanceMeters>11296.581038894</DistanceMeters>
          </Trackpoint>
          <Trackpoint>
            <Time>2020-03-07T13:13:43.000Z</Time>
            <Position>
              <LatitudeDegrees>40.6072787381708621978759765625</LatitudeDegrees>
              <LongitudeDegrees>-3.72112135402858257293701171875</LongitudeDegrees>
            </Position>
            <AltitudeMeters>749</AltitudeMeters>
            <DistanceMeters>11304.814981688</DistanceMeters>
          </Trackpoint>
          <Trackpoint>
            <Time>2020-03-07T13:13:44.000Z</Time>
            <Position>
              <LatitudeDegrees>40.60734470374882221221923828125</LatitudeDegrees>
              <LongitudeDegrees>-3.72108296491205692291259765625</LongitudeDegrees>
            </Position>
            <AltitudeMeters>749</AltitudeMeters>
            <DistanceMeters>11312.841786496</DistanceMeters>
          </Trackpoint>
          <Trackpoint>
            <Time>2020-03-07T13:13:45.000Z</Time>
            <Position>
              <LatitudeDegrees>40.60741427354514598846435546875</LatitudeDegrees>
              <LongitudeDegrees>-3.7210743315517902374267578125</LongitudeDegrees>
            </Position>
            <AltitudeMeters>749</AltitudeMeters>
            <DistanceMeters>11320.620058295</DistanceMeters>
          </Trackpoint>
          <Trackpoint>
            <Time>2020-03-07T13:13:46.000Z</Time>
            <Position>
              <LatitudeDegrees>40.6074802391231060028076171875</LatitudeDegrees>
              <LongitudeDegrees>-3.7210837192833423614501953125</LongitudeDegrees>
            </Position>
            <AltitudeMeters>749</AltitudeMeters>
            <DistanceMeters>11328.005290974</DistanceMeters>
          </Trackpoint>
          <Trackpoint>
            <Time>2020-03-07T13:13:47.000Z</Time>
            <Position>
              <LatitudeDegrees>40.60754201374948024749755859375</LatitudeDegrees>
              <LongitudeDegrees>-3.72109319083392620086669921875</LongitudeDegrees>
            </Position>
            <AltitudeMeters>749</AltitudeMeters>
            <DistanceMeters>11334.927254974</DistanceMeters>
          </Trackpoint>
          <Trackpoint>
            <Time>2020-03-07T13:13:48.000Z</Time>
            <Position>
              <LatitudeDegrees>40.60760236345231533050537109375</LatitudeDegrees>
              <LongitudeDegrees>-3.721099309623241424560546875</LongitudeDegrees>
            </Position>
            <AltitudeMeters>749</AltitudeMeters>
            <DistanceMeters>11341.664106182</DistanceMeters>
          </Trackpoint>
          <Trackpoint>
            <Time>2020-03-07T13:13:49.000Z</Time>
            <Position>
              <LatitudeDegrees>40.60766019858419895172119140625</LatitudeDegrees>
              <LongitudeDegrees>-3.72110567986965179443359375</LongitudeDegrees>
            </Position>
            <AltitudeMeters>749</AltitudeMeters>
            <DistanceMeters>11348.123826242</DistanceMeters>
          </Trackpoint>
          <Trackpoint>
            <Time>2020-03-07T13:13:50.000Z</Time>
            <Position>
              <LatitudeDegrees>40.60771250165998935699462890625</LatitudeDegrees>
              <LongitudeDegrees>-3.72111146338284015655517578125</LongitudeDegrees>
            </Position>
            <AltitudeMeters>749</AltitudeMeters>
            <DistanceMeters>11353.966230623</DistanceMeters>
          </Trackpoint>
          <Trackpoint>
            <Time>2020-03-07T13:13:51.000Z</Time>
            <Position>
              <LatitudeDegrees>40.607759021222591400146484375</LatitudeDegrees>
              <LongitudeDegrees>-3.7211175821721553802490234375</LongitudeDegrees>
            </Position>
            <AltitudeMeters>749.20001220703125</AltitudeMeters>
            <DistanceMeters>11359.168455061</DistanceMeters>
          </Trackpoint>
          <Trackpoint>
            <Time>2020-03-07T13:13:52.000Z</Time>
            <Position>
              <LatitudeDegrees>40.6078021042048931121826171875</LatitudeDegrees>
              <LongitudeDegrees>-3.72112336568534374237060546875</LongitudeDegrees>
            </Position>
            <AltitudeMeters>749.20001220703125</AltitudeMeters>
            <DistanceMeters>11363.989597744</DistanceMeters>
          </Trackpoint>
          <Trackpoint>
            <Time>2020-03-07T13:13:53.000Z</Time>
            <Position>
              <LatitudeDegrees>40.60784208588302135467529296875</LatitudeDegrees>
              <LongitudeDegrees>-3.7211333401501178741455078125</LongitudeDegrees>
            </Position>
            <AltitudeMeters>749.20001220703125</AltitudeMeters>
            <DistanceMeters>11368.519093707</DistanceMeters>
          </Trackpoint>
          <Trackpoint>
            <Time>2020-03-07T13:13:54.000Z</Time>
            <Position>
              <LatitudeDegrees>40.607879050076007843017578125</LatitudeDegrees>
              <LongitudeDegrees>-3.72114717029035091400146484375</LongitudeDegrees>
            </Position>
            <AltitudeMeters>749.4000244140625</AltitudeMeters>
            <DistanceMeters>11372.796351576</DistanceMeters>
          </Trackpoint>
          <Trackpoint>
            <Time>2020-03-07T13:13:55.000Z</Time>
            <Position>
              <LatitudeDegrees>40.60791936703026294708251953125</LatitudeDegrees>
              <LongitudeDegrees>-3.721163012087345123291015625</LongitudeDegrees>
            </Position>
            <AltitudeMeters>749.5999755859375</AltitudeMeters>
            <DistanceMeters>11377.478768218</DistanceMeters>
          </Trackpoint>
          <Trackpoint>
            <Time>2020-03-07T13:13:56.000Z</Time>
            <Position>
              <LatitudeDegrees>40.6079593487083911895751953125</LatitudeDegrees>
              <LongitudeDegrees>-3.7211839668452739715576171875</LongitudeDegrees>
            </Position>
            <AltitudeMeters>750</AltitudeMeters>
            <DistanceMeters>11382.267963783</DistanceMeters>
          </Trackpoint>
          <Trackpoint>
            <Time>2020-03-07T13:13:57.000Z</Time>
            <Position>
              <LatitudeDegrees>40.6080039404332637786865234375</LatitudeDegrees>
              <LongitudeDegrees>-3.72120559215545654296875</LongitudeDegrees>
            </Position>
            <AltitudeMeters>750.79998779296875</AltitudeMeters>
            <DistanceMeters>11387.557120316</DistanceMeters>
          </Trackpoint>
          <Trackpoint>
            <Time>2020-03-07T13:13:58.000Z</Time>
            <Position>
              <LatitudeDegrees>40.6080441735684871673583984375</LatitudeDegrees>
              <LongitudeDegrees>-3.72123082168400287628173828125</LongitudeDegrees>
            </Position>
            <AltitudeMeters>751.5999755859375</AltitudeMeters>
            <DistanceMeters>11392.516750164</DistanceMeters>
          </Trackpoint>
          <Trackpoint>
            <Time>2020-03-07T13:13:59.000Z</Time>
            <Position>
              <LatitudeDegrees>40.608080886304378509521484375</LatitudeDegrees>
              <LongitudeDegrees>-3.7212587334215641021728515625</LongitudeDegrees>
            </Position>
            <AltitudeMeters>752.4000244140625</AltitudeMeters>
            <DistanceMeters>11397.233752216</DistanceMeters>
          </Trackpoint>
          <Trackpoint>
            <Time>2020-03-07T13:14:00.000Z</Time>
            <Position>
              <LatitudeDegrees>40.6081159226596355438232421875</LatitudeDegrees>
              <LongitudeDegrees>-3.72129033319652080535888671875</LongitudeDegrees>
            </Position>
            <AltitudeMeters>753</AltitudeMeters>
            <DistanceMeters>11401.960316414</DistanceMeters>
          </Trackpoint>
          <Trackpoint>
            <Time>2020-03-07T13:14:01.000Z</Time>
            <Position>
              <LatitudeDegrees>40.608151964843273162841796875</LatitudeDegrees>
              <LongitudeDegrees>-3.72132520191371440887451171875</LongitudeDegrees>
            </Position>
            <AltitudeMeters>753.5999755859375</AltitudeMeters>
            <DistanceMeters>11406.937213006</DistanceMeters>
          </Trackpoint>
          <Trackpoint>
            <Time>2020-03-07T13:14:02.000Z</Time>
            <Position>
              <LatitudeDegrees>40.60818440280854701995849609375</LatitudeDegrees>
              <LongitudeDegrees>-3.72136493213474750518798828125</LongitudeDegrees>
            </Position>
            <AltitudeMeters>754</AltitudeMeters>
            <DistanceMeters>11411.867625341</DistanceMeters>
          </Trackpoint>
          <Trackpoint>
            <Time>2020-03-07T13:14:03.000Z</Time>
            <Position>
              <LatitudeDegrees>40.60821332037448883056640625</LatitudeDegrees>
              <LongitudeDegrees>-3.72140902094542980194091796875</LongitudeDegrees>
            </Position>
            <AltitudeMeters>754.4000244140625</AltitudeMeters>
            <DistanceMeters>11416.790706203</DistanceMeters>
          </Trackpoint>
          <Trackpoint>
            <Time>2020-03-07T13:14:04.000Z</Time>
            <Position>
              <LatitudeDegrees>40.6082434952259063720703125</LatitudeDegrees>
              <LongitudeDegrees>-3.7214538641273975372314453125</LongitudeDegrees>
            </Position>
            <AltitudeMeters>754.5999755859375</AltitudeMeters>
            <DistanceMeters>11421.854836642</DistanceMeters>
          </Trackpoint>
          <Trackpoint>
            <Time>2020-03-07T13:14:05.000Z</Time>
            <Position>
              <LatitudeDegrees>40.6082758493721485137939453125</LatitudeDegrees>
              <LongitudeDegrees>-3.72149636037647724151611328125</LongitudeDegrees>
            </Position>
            <AltitudeMeters>755</AltitudeMeters>
            <DistanceMeters>11426.940319798</DistanceMeters>
          </Trackpoint>
          <Trackpoint>
            <Time>2020-03-07T13:14:06.000Z</Time>
            <Position>
              <LatitudeDegrees>40.60831164009869098663330078125</LatitudeDegrees>
              <LongitudeDegrees>-3.7215314805507659912109375</LongitudeDegrees>
            </Position>
            <AltitudeMeters>755.4000244140625</AltitudeMeters>
            <DistanceMeters>11431.90722717</DistanceMeters>
          </Trackpoint>
          <Trackpoint>
            <Time>2020-03-07T13:14:07.000Z</Time>
            <Position>
              <LatitudeDegrees>40.60835271142423152923583984375</LatitudeDegrees>
              <LongitudeDegrees>-3.7215554527938365936279296875</LongitudeDegrees>
            </Position>
            <AltitudeMeters>755.79998779296875</AltitudeMeters>
            <DistanceMeters>11436.906752308</DistanceMeters>
          </Trackpoint>
          <Trackpoint>
            <Time>2020-03-07T13:14:08.000Z</Time>
            <Position>
              <LatitudeDegrees>40.60839747078716754913330078125</LatitudeDegrees>
              <LongitudeDegrees>-3.721568696200847625732421875</LongitudeDegrees>
            </Position>
            <AltitudeMeters>756.20001220703125</AltitudeMeters>
            <DistanceMeters>11442.013498901</DistanceMeters>
          </Trackpoint>
          <Trackpoint>
            <Time>2020-03-07T13:14:09.000Z</Time>
            <Position>
              <LatitudeDegrees>40.6084421463310718536376953125</LatitudeDegrees>
              <LongitudeDegrees>-3.7215732224285602569580078125</LongitudeDegrees>
            </Position>
            <AltitudeMeters>756.4000244140625</AltitudeMeters>
            <DistanceMeters>11447.000364703</DistanceMeters>
          </Trackpoint>
          <Trackpoint>
            <Time>2020-03-07T13:14:10.000Z</Time>
            <Position>
              <LatitudeDegrees>40.60849000699818134307861328125</LatitudeDegrees>
              <LongitudeDegrees>-3.72157498262822628021240234375</LongitudeDegrees>
            </Position>
            <AltitudeMeters>757</AltitudeMeters>
            <DistanceMeters>11452.328644007</DistanceMeters>
          </Trackpoint>
          <Trackpoint>
            <Time>2020-03-07T13:14:11.000Z</Time>
            <Position>
              <LatitudeDegrees>40.60854063369333744049072265625</LatitudeDegrees>
              <LongitudeDegrees>-3.7215792573988437652587890625</LongitudeDegrees>
            </Position>
            <AltitudeMeters>757.4000244140625</AltitudeMeters>
            <DistanceMeters>11457.974542505</DistanceMeters>
          </Trackpoint>
          <Trackpoint>
            <Time>2020-03-07T13:14:12.000Z</Time>
            <Position>
              <LatitudeDegrees>40.60859528370201587677001953125</LatitudeDegrees>
              <LongitudeDegrees>-3.721586801111698150634765625</LongitudeDegrees>
            </Position>
            <AltitudeMeters>757.5999755859375</AltitudeMeters>
            <DistanceMeters>11464.090307104</DistanceMeters>
          </Trackpoint>
          <Trackpoint>
            <Time>2020-03-07T13:14:13.000Z</Time>
            <Position>
              <LatitudeDegrees>40.60864909552037715911865234375</LatitudeDegrees>
              <LongitudeDegrees>-3.72159409336745738983154296875</LongitudeDegrees>
            </Position>
            <AltitudeMeters>758.5999755859375</AltitudeMeters>
            <DistanceMeters>11470.110832566</DistanceMeters>
          </Trackpoint>
          <Trackpoint>
            <Time>2020-03-07T13:14:14.000Z</Time>
            <Position>
              <LatitudeDegrees>40.6086994707584381103515625</LatitudeDegrees>
              <LongitudeDegrees>-3.721599876880645751953125</LongitudeDegrees>
            </Position>
            <AltitudeMeters>759</AltitudeMeters>
            <DistanceMeters>11475.739110115</DistanceMeters>
          </Trackpoint>
          <Trackpoint>
            <Time>2020-03-07T13:14:15.000Z</Time>
            <Position>
              <LatitudeDegrees>40.608752109110355377197265625</LatitudeDegrees>
              <LongitudeDegrees>-3.721604906022548675537109375</LongitudeDegrees>
            </Position>
            <AltitudeMeters>759.5999755859375</AltitudeMeters>
            <DistanceMeters>11481.613114038</DistanceMeters>
          </Trackpoint>
          <Trackpoint>
            <Time>2020-03-07T13:14:16.000Z</Time>
            <Position>
              <LatitudeDegrees>40.60880533419549465179443359375</LatitudeDegrees>
              <LongitudeDegrees>-3.721611611545085906982421875</LongitudeDegrees>
            </Position>
            <AltitudeMeters>759.79998779296875</AltitudeMeters>
            <DistanceMeters>11487.565003645</DistanceMeters>
          </Trackpoint>
          <Trackpoint>
            <Time>2020-03-07T13:14:17.000Z</Time>
            <Position>
              <LatitudeDegrees>40.60885839164257049560546875</LatitudeDegrees>
              <LongitudeDegrees>-3.72162242420017719268798828125</LongitudeDegrees>
            </Position>
            <AltitudeMeters>760.20001220703125</AltitudeMeters>
            <DistanceMeters>11493.540363238</DistanceMeters>
          </Trackpoint>
          <Trackpoint>
            <Time>2020-03-07T13:14:18.000Z</Time>
            <Position>
              <LatitudeDegrees>40.60891077853739261627197265625</LatitudeDegrees>
              <LongitudeDegrees>-3.72163298539817333221435546875</LongitudeDegrees>
            </Position>
            <AltitudeMeters>760.20001220703125</AltitudeMeters>
            <DistanceMeters>11499.438147098</DistanceMeters>
          </Trackpoint>
          <Trackpoint>
            <Time>2020-03-07T13:14:19.000Z</Time>
            <Position>
              <LatitudeDegrees>40.60896341688930988311767578125</LatitudeDegrees>
              <LongitudeDegrees>-3.7216409482061862945556640625</LongitudeDegrees>
            </Position>
            <AltitudeMeters>760.4000244140625</AltitudeMeters>
            <DistanceMeters>11505.33516536</DistanceMeters>
          </Trackpoint>
          <Trackpoint>
            <Time>2020-03-07T13:14:20.000Z</Time>
            <Position>
              <LatitudeDegrees>40.60901706106960773468017578125</LatitudeDegrees>
              <LongitudeDegrees>-3.72164622880518436431884765625</LongitudeDegrees>
            </Position>
            <AltitudeMeters>760.4000244140625</AltitudeMeters>
            <DistanceMeters>11511.322602498</DistanceMeters>
          </Trackpoint>
          <Trackpoint>
            <Time>2020-03-07T13:14:21.000Z</Time>
            <Position>
              <LatitudeDegrees>40.60907389037311077117919921875</LatitudeDegrees>
              <LongitudeDegrees>-3.7216494977474212646484375</LongitudeDegrees>
            </Position>
            <AltitudeMeters>760.4000244140625</AltitudeMeters>
            <DistanceMeters>11517.65454844</DistanceMeters>
          </Trackpoint>
          <Trackpoint>
            <Time>2020-03-07T13:14:22.000Z</Time>
            <Position>
              <LatitudeDegrees>40.609134994447231292724609375</LatitudeDegrees>
              <LongitudeDegrees>-3.72165285050868988037109375</LongitudeDegrees>
            </Position>
            <AltitudeMeters>760.5999755859375</AltitudeMeters>
            <DistanceMeters>11524.462070185</DistanceMeters>
          </Trackpoint>
          <Trackpoint>
            <Time>2020-03-07T13:14:23.000Z</Time>
            <Position>
              <LatitudeDegrees>40.60920079238712787628173828125</LatitudeDegrees>
              <LongitudeDegrees>-3.7216587178409099578857421875</LongitudeDegrees>
            </Position>
            <AltitudeMeters>760.5999755859375</AltitudeMeters>
            <DistanceMeters>11531.801922777</DistanceMeters>
          </Trackpoint>
          <Trackpoint>
            <Time>2020-03-07T13:14:24.000Z</Time>
            <Position>
              <LatitudeDegrees>40.60927170328795909881591796875</LatitudeDegrees>
              <LongitudeDegrees>-3.7216637469828128814697265625</LongitudeDegrees>
            </Position>
            <AltitudeMeters>760.5999755859375</AltitudeMeters>
            <DistanceMeters>11539.705723688</DistanceMeters>
          </Trackpoint>
          <Trackpoint>
            <Time>2020-03-07T13:14:25.000Z</Time>
            <Position>
              <LatitudeDegrees>40.6093470565974712371826171875</LatitudeDegrees>
              <LongitudeDegrees>-3.7216655910015106201171875</LongitudeDegrees>
            </Position>
            <AltitudeMeters>760.5999755859375</AltitudeMeters>
            <DistanceMeters>11548.093950893</DistanceMeters>
          </Trackpoint>
          <Trackpoint>
            <Time>2020-03-07T13:14:26.000Z</Time>
            <Position>
              <LatitudeDegrees>40.60942710377275943756103515625</LatitudeDegrees>
              <LongitudeDegrees>-3.72166634537279605865478515625</LongitudeDegrees>
            </Position>
            <AltitudeMeters>760.5999755859375</AltitudeMeters>
            <DistanceMeters>11557.003687254</DistanceMeters>
          </Trackpoint>
          <Trackpoint>
            <Time>2020-03-07T13:14:27.000Z</Time>
            <Position>
              <LatitudeDegrees>40.609510838985443115234375</LatitudeDegrees>
              <LongitudeDegrees>-3.721675984561443328857421875</LongitudeDegrees>
            </Position>
            <AltitudeMeters>760.5999755859375</AltitudeMeters>
            <DistanceMeters>11566.358873029</DistanceMeters>
          </Trackpoint>
          <Trackpoint>
            <Time>2020-03-07T13:14:28.000Z</Time>
            <Position>
              <LatitudeDegrees>40.60959759168326854705810546875</LatitudeDegrees>
              <LongitudeDegrees>-3.72170339338481426239013671875</LongitudeDegrees>
            </Position>
            <AltitudeMeters>760.5999755859375</AltitudeMeters>
            <DistanceMeters>11576.288141614</DistanceMeters>
          </Trackpoint>
          <Trackpoint>
            <Time>2020-03-07T13:14:29.000Z</Time>
            <Position>
              <LatitudeDegrees>40.60968141071498394012451171875</LatitudeDegrees>
              <LongitudeDegrees>-3.7217445485293865203857421875</LongitudeDegrees>
            </Position>
            <AltitudeMeters>760.4000244140625</AltitudeMeters>
            <DistanceMeters>11586.243749031</DistanceMeters>
          </Trackpoint>
          <Trackpoint>
            <Time>2020-03-07T13:14:30.000Z</Time>
            <Position>
              <LatitudeDegrees>40.609761290252208709716796875</LatitudeDegrees>
              <LongitudeDegrees>-3.72179123573005199432373046875</LongitudeDegrees>
            </Position>
            <AltitudeMeters>760.5999755859375</AltitudeMeters>
            <DistanceMeters>11595.969954911</DistanceMeters>
          </Trackpoint>
          <Trackpoint>
            <Time>2020-03-07T13:14:31.000Z</Time>
            <Position>
              <LatitudeDegrees>40.60984049923717975616455078125</LatitudeDegrees>
              <LongitudeDegrees>-3.7218350730836391448974609375</LongitudeDegrees>
            </Position>
            <AltitudeMeters>760.4000244140625</AltitudeMeters>
            <DistanceMeters>11605.532305777</DistanceMeters>
          </Trackpoint>
          <Trackpoint>
            <Time>2020-03-07T13:14:32.000Z</Time>
            <Position>
              <LatitudeDegrees>40.60991057194769382476806640625</LatitudeDegrees>
              <LongitudeDegrees>-3.7218855321407318115234375</LongitudeDegrees>
            </Position>
            <AltitudeMeters>760.20001220703125</AltitudeMeters>
            <DistanceMeters>11614.420733017</DistanceMeters>
          </Trackpoint>
          <Trackpoint>
            <Time>2020-03-07T13:14:33.000Z</Time>
            <Position>
              <LatitudeDegrees>40.6099740229547023773193359375</LatitudeDegrees>
              <LongitudeDegrees>-3.721943534910678863525390625</LongitudeDegrees>
            </Position>
            <AltitudeMeters>759.20001220703125</AltitudeMeters>
            <DistanceMeters>11623.017368732</DistanceMeters>
          </Trackpoint>
          <Trackpoint>
            <Time>2020-03-07T13:14:34.000Z</Time>
            <Position>
              <LatitudeDegrees>40.61003898270428180694580078125</LatitudeDegrees>
              <LongitudeDegrees>-3.7220008671283721923828125</LongitudeDegrees>
            </Position>
            <AltitudeMeters>758.79998779296875</AltitudeMeters>
            <DistanceMeters>11631.720487783</DistanceMeters>
          </Trackpoint>
          <Trackpoint>
            <Time>2020-03-07T13:14:35.000Z</Time>
            <Position>
              <LatitudeDegrees>40.61009530909359455108642578125</LatitudeDegrees>
              <LongitudeDegrees>-3.7220597080886363983154296875</LongitudeDegrees>
            </Position>
            <AltitudeMeters>758.20001220703125</AltitudeMeters>
            <DistanceMeters>11639.721940275</DistanceMeters>
          </Trackpoint>
          <Trackpoint>
            <Time>2020-03-07T13:14:36.000Z</Time>
            <Position>
              <LatitudeDegrees>40.61014828272163867950439453125</LatitudeDegrees>
              <LongitudeDegrees>-3.72212433256208896636962890625</LongitudeDegrees>
            </Position>
            <AltitudeMeters>757</AltitudeMeters>
            <DistanceMeters>11647.758301811</DistanceMeters>
          </Trackpoint>
          <Trackpoint>
            <Time>2020-03-07T13:14:37.000Z</Time>
            <Position>
              <LatitudeDegrees>40.61019991524517536163330078125</LatitudeDegrees>
              <LongitudeDegrees>-3.72219272889196872711181640625</LongitudeDegrees>
            </Position>
            <AltitudeMeters>756</AltitudeMeters>
            <DistanceMeters>11655.909577936</DistanceMeters>
          </Trackpoint>
          <Trackpoint>
            <Time>2020-03-07T13:14:38.000Z</Time>
            <Position>
              <LatitudeDegrees>40.61025590635836124420166015625</LatitudeDegrees>
              <LongitudeDegrees>-3.72226229868829250335693359375</LongitudeDegrees>
            </Position>
            <AltitudeMeters>755.4000244140625</AltitudeMeters>
            <DistanceMeters>11664.47675141</DistanceMeters>
          </Trackpoint>
          <Trackpoint>
            <Time>2020-03-07T13:14:39.000Z</Time>
            <Position>
              <LatitudeDegrees>40.61031843535602092742919921875</LatitudeDegrees>
              <LongitudeDegrees>-3.7223319523036479949951171875</LongitudeDegrees>
            </Position>
            <AltitudeMeters>755.20001220703125</AltitudeMeters>
            <DistanceMeters>11673.591393657</DistanceMeters>
          </Trackpoint>
          <Trackpoint>
            <Time>2020-03-07T13:14:40.000Z</Time>
            <Position>
              <LatitudeDegrees>40.6103897653520107269287109375</LatitudeDegrees>
              <LongitudeDegrees>-3.722399175167083740234375</LongitudeDegrees>
            </Position>
            <AltitudeMeters>755</AltitudeMeters>
            <DistanceMeters>11683.353278552</DistanceMeters>
          </Trackpoint>
          <Trackpoint>
            <Time>2020-03-07T13:14:41.000Z</Time>
            <Position>
              <LatitudeDegrees>40.61046528629958629608154296875</LatitudeDegrees>
              <LongitudeDegrees>-3.72246447019279003143310546875</LongitudeDegrees>
            </Position>
            <AltitudeMeters>754.79998779296875</AltitudeMeters>
            <DistanceMeters>11693.408164721</DistanceMeters>
          </Trackpoint>
          <Trackpoint>
            <Time>2020-03-07T13:14:42.000Z</Time>
            <Position>
              <LatitudeDegrees>40.61053519137203693389892578125</LatitudeDegrees>
              <LongitudeDegrees>-3.72254334390163421630859375</LongitudeDegrees>
            </Position>
            <AltitudeMeters>754.5999755859375</AltitudeMeters>
            <DistanceMeters>11703.652996516</DistanceMeters>
          </Trackpoint>
          <Trackpoint>
            <Time>2020-03-07T13:14:43.000Z</Time>
            <Position>
              <LatitudeDegrees>40.6105973012745380401611328125</LatitudeDegrees>
              <LongitudeDegrees>-3.72263579629361629486083984375</LongitudeDegrees>
            </Position>
            <AltitudeMeters>754.4000244140625</AltitudeMeters>
            <DistanceMeters>11714.084315759</DistanceMeters>
          </Trackpoint>
          <Trackpoint>
            <Time>2020-03-07T13:14:44.000Z</Time>
            <Position>
              <LatitudeDegrees>40.61065421439707279205322265625</LatitudeDegrees>
              <LongitudeDegrees>-3.7227331101894378662109375</LongitudeDegrees>
            </Position>
            <AltitudeMeters>754.20001220703125</AltitudeMeters>
            <DistanceMeters>11724.463564864</DistanceMeters>
          </Trackpoint>
          <Trackpoint>
            <Time>2020-03-07T13:14:45.000Z</Time>
            <Position>
              <LatitudeDegrees>40.61071439646184444427490234375</LatitudeDegrees>
              <LongitudeDegrees>-3.72283210046589374542236328125</LongitudeDegrees>
            </Position>
            <AltitudeMeters>754</AltitudeMeters>
            <DistanceMeters>11735.179275389</DistanceMeters>
          </Trackpoint>
          <Trackpoint>
            <Time>2020-03-07T13:14:46.000Z</Time>
            <Position>
              <LatitudeDegrees>40.6107981316745281219482421875</LatitudeDegrees>
              <LongitudeDegrees>-3.7228955514729022979736328125</LongitudeDegrees>
            </Position>
            <AltitudeMeters>753.79998779296875</AltitudeMeters>
            <DistanceMeters>11745.931160742</DistanceMeters>
          </Trackpoint>
          <Trackpoint>
            <Time>2020-03-07T13:14:47.000Z</Time>
            <Position>
              <LatitudeDegrees>40.61087734065949916839599609375</LatitudeDegrees>
              <LongitudeDegrees>-3.72295095585286617279052734375</LongitudeDegrees>
            </Position>
            <AltitudeMeters>753.5999755859375</AltitudeMeters>
            <DistanceMeters>11755.913037493</DistanceMeters>
          </Trackpoint>
          <Trackpoint>
            <Time>2020-03-07T13:14:48.000Z</Time>
            <Position>
              <LatitudeDegrees>40.61094992794096469879150390625</LatitudeDegrees>
              <LongitudeDegrees>-3.72300359420478343963623046875</LongitudeDegrees>
            </Position>
            <AltitudeMeters>753</AltitudeMeters>
            <DistanceMeters>11765.135525771</DistanceMeters>
          </Trackpoint>
          <Trackpoint>
            <Time>2020-03-07T13:14:49.000Z</Time>
            <Position>
              <LatitudeDegrees>40.61102301813662052154541015625</LatitudeDegrees>
              <LongitudeDegrees>-3.723060004413127899169921875</LongitudeDegrees>
            </Position>
            <AltitudeMeters>752.20001220703125</AltitudeMeters>
            <DistanceMeters>11774.564263893</DistanceMeters>
          </Trackpoint>
          <Trackpoint>
            <Time>2020-03-07T13:14:50.000Z</Time>
            <Position>
              <LatitudeDegrees>40.61109661124646663665771484375</LatitudeDegrees>
              <LongitudeDegrees>-3.723117671906948089599609375</LongitudeDegrees>
            </Position>
            <AltitudeMeters>751.4000244140625</AltitudeMeters>
            <DistanceMeters>11784.095400711</DistanceMeters>
          </Trackpoint>
          <Trackpoint>
            <Time>2020-03-07T13:14:51.000Z</Time>
            <Position>
              <LatitudeDegrees>40.611167438328266143798828125</LatitudeDegrees>
              <LongitudeDegrees>-3.72316938824951648712158203125</LongitudeDegrees>
            </Position>
            <AltitudeMeters>750.79998779296875</AltitudeMeters>
            <DistanceMeters>11793.108422828</DistanceMeters>
          </Trackpoint>
          <Trackpoint>
            <Time>2020-03-07T13:14:52.000Z</Time>
            <Position>
              <LatitudeDegrees>40.611239857971668243408203125</LatitudeDegrees>
              <LongitudeDegrees>-3.72321498580276966094970703125</LongitudeDegrees>
            </Position>
            <AltitudeMeters>750.5999755859375</AltitudeMeters>
            <DistanceMeters>11802.042450234</DistanceMeters>
          </Trackpoint>
          <Trackpoint>
            <Time>2020-03-07T13:14:53.000Z</Time>
            <Position>
              <LatitudeDegrees>40.61131236143410205841064453125</LatitudeDegrees>
              <LongitudeDegrees>-3.72325538657605648040771484375</LongitudeDegrees>
            </Position>
            <AltitudeMeters>750.4000244140625</AltitudeMeters>
            <DistanceMeters>11810.80451106</DistanceMeters>
          </Trackpoint>
          <Trackpoint>
            <Time>2020-03-07T13:14:54.000Z</Time>
            <Position>
              <LatitudeDegrees>40.61138235032558441162109375</LatitudeDegrees>
              <LongitudeDegrees>-3.7232938595116138458251953125</LongitudeDegrees>
            </Position>
            <AltitudeMeters>750.4000244140625</AltitudeMeters>
            <DistanceMeters>11819.245322819</DistanceMeters>
          </Trackpoint>
          <Trackpoint>
            <Time>2020-03-07T13:14:55.000Z</Time>
            <Position>
              <LatitudeDegrees>40.61145074665546417236328125</LatitudeDegrees>
              <LongitudeDegrees>-3.72333250008523464202880859375</LongitudeDegrees>
            </Position>
            <AltitudeMeters>750.4000244140625</AltitudeMeters>
            <DistanceMeters>11827.528469613</DistanceMeters>
          </Trackpoint>
          <Trackpoint>
            <Time>2020-03-07T13:14:56.000Z</Time>
            <Position>
              <LatitudeDegrees>40.61151922680437564849853515625</LatitudeDegrees>
              <LongitudeDegrees>-3.723370134830474853515625</LongitudeDegrees>
            </Position>
            <AltitudeMeters>750.4000244140625</AltitudeMeters>
            <DistanceMeters>11835.787051052</DistanceMeters>
          </Trackpoint>
          <Trackpoint>
            <Time>2020-03-07T13:14:57.000Z</Time>
            <Position>
              <LatitudeDegrees>40.61158728785812854766845703125</LatitudeDegrees>
              <LongitudeDegrees>-3.72340827248990535736083984375</LongitudeDegrees>
            </Position>
            <AltitudeMeters>750.4000244140625</AltitudeMeters>
            <DistanceMeters>11844.018800176</DistanceMeters>
          </Trackpoint>
          <Trackpoint>
            <Time>2020-03-07T13:14:58.000Z</Time>
            <Position>
              <LatitudeDegrees>40.611654929816722869873046875</LatitudeDegrees>
              <LongitudeDegrees>-3.72345127165317535400390625</LongitudeDegrees>
            </Position>
            <AltitudeMeters>750.4000244140625</AltitudeMeters>
            <DistanceMeters>11852.377910866</DistanceMeters>
          </Trackpoint>
          <Trackpoint>
            <Time>2020-03-07T13:14:59.000Z</Time>
            <Position>
              <LatitudeDegrees>40.61172491870820522308349609375</LatitudeDegrees>
              <LongitudeDegrees>-3.7234940193593502044677734375</LongitudeDegrees>
            </Position>
            <AltitudeMeters>750.4000244140625</AltitudeMeters>
            <DistanceMeters>11860.965087599</DistanceMeters>
          </Trackpoint>
          <Trackpoint>
            <Time>2020-03-07T13:15:00.000Z</Time>
            <Position>
              <LatitudeDegrees>40.6117962487041950225830078125</LatitudeDegrees>
              <LongitudeDegrees>-3.723538108170032501220703125</LongitudeDegrees>
            </Position>
            <AltitudeMeters>750.4000244140625</AltitudeMeters>
            <DistanceMeters>11869.735389255</DistanceMeters>
          </Trackpoint>
          <Trackpoint>
            <Time>2020-03-07T13:15:01.000Z</Time>
            <Position>
              <LatitudeDegrees>40.61186850070953369140625</LatitudeDegrees>
              <LongitudeDegrees>-3.72358496300876140594482421875</LongitudeDegrees>
            </Position>
            <AltitudeMeters>750.4000244140625</AltitudeMeters>
            <DistanceMeters>11878.699184222</DistanceMeters>
          </Trackpoint>
          <Trackpoint>
            <Time>2020-03-07T13:15:02.000Z</Time>
            <Position>
              <LatitudeDegrees>40.61194201000034809112548828125</LatitudeDegrees>
              <LongitudeDegrees>-3.72363500297069549560546875</LongitudeDegrees>
            </Position>
            <AltitudeMeters>750.4000244140625</AltitudeMeters>
            <DistanceMeters>11887.908934926</DistanceMeters>
          </Trackpoint>
          <Trackpoint>
            <Time>2020-03-07T13:15:03.000Z</Time>
            <Position>
              <LatitudeDegrees>40.61201577074825763702392578125</LatitudeDegrees>
              <LongitudeDegrees>-3.7236914969980716705322265625</LongitudeDegrees>
            </Position>
            <AltitudeMeters>750.4000244140625</AltitudeMeters>
            <DistanceMeters>11897.404952163</DistanceMeters>
          </Trackpoint>
          <Trackpoint>
            <Time>2020-03-07T13:15:04.000Z</Time>
            <Position>
              <LatitudeDegrees>40.61209154315292835235595703125</LatitudeDegrees>
              <LongitudeDegrees>-3.72375427745282649993896484375</LongitudeDegrees>
            </Position>
            <AltitudeMeters>750.4000244140625</AltitudeMeters>
            <DistanceMeters>11907.367813212</DistanceMeters>
          </Trackpoint>
          <Trackpoint>
            <Time>2020-03-07T13:15:05.000Z</Time>
            <Position>
              <LatitudeDegrees>40.61216815374791622161865234375</LatitudeDegrees>
              <LongitudeDegrees>-3.7238199077546596527099609375</LongitudeDegrees>
            </Position>
            <AltitudeMeters>750.4000244140625</AltitudeMeters>
            <DistanceMeters>11917.53922343</DistanceMeters>
          </Trackpoint>
          <Trackpoint>
            <Time>2020-03-07T13:15:06.000Z</Time>
            <Position>
              <LatitudeDegrees>40.61224602162837982177734375</LatitudeDegrees>
              <LongitudeDegrees>-3.72388721443712711334228515625</LongitudeDegrees>
            </Position>
            <AltitudeMeters>750.4000244140625</AltitudeMeters>
            <DistanceMeters>11927.905414132</DistanceMeters>
          </Trackpoint>
          <Trackpoint>
            <Time>2020-03-07T13:15:07.000Z</Time>
            <Position>
              <LatitudeDegrees>40.61232640407979488372802734375</LatitudeDegrees>
              <LongitudeDegrees>-3.72395284473896026611328125</LongitudeDegrees>
            </Position>
            <AltitudeMeters>750.4000244140625</AltitudeMeters>
            <DistanceMeters>11938.431526328</DistanceMeters>
          </Trackpoint>
          <Trackpoint>
            <Time>2020-03-07T13:15:08.000Z</Time>
            <Position>
              <LatitudeDegrees>40.6124094687402248382568359375</LatitudeDegrees>
              <LongitudeDegrees>-3.72401797212660312652587890625</LongitudeDegrees>
            </Position>
            <AltitudeMeters>750.4000244140625</AltitudeMeters>
            <DistanceMeters>11949.190128461</DistanceMeters>
          </Trackpoint>
          <Trackpoint>
            <Time>2020-03-07T13:15:09.000Z</Time>
            <Position>
              <LatitudeDegrees>40.61249144375324249267578125</LatitudeDegrees>
              <LongitudeDegrees>-3.72408200986683368682861328125</LongitudeDegrees>
            </Position>
            <AltitudeMeters>750.20001220703125</AltitudeMeters>
            <DistanceMeters>11959.797425596</DistanceMeters>
          </Trackpoint>
          <Trackpoint>
            <Time>2020-03-07T13:15:10.000Z</Time>
            <Position>
              <LatitudeDegrees>40.61257299967110157012939453125</LatitudeDegrees>
              <LongitudeDegrees>-3.724146969616413116455078125</LongitudeDegrees>
            </Position>
            <AltitudeMeters>749.5999755859375</AltitudeMeters>
            <DistanceMeters>11970.405148375</DistanceMeters>
          </Trackpoint>
          <Trackpoint>
            <Time>2020-03-07T13:15:11.000Z</Time>
            <Position>
              <LatitudeDegrees>40.612654387950897216796875</LatitudeDegrees>
              <LongitudeDegrees>-3.7242115102708339691162109375</LongitudeDegrees>
            </Position>
            <AltitudeMeters>749.20001220703125</AltitudeMeters>
            <DistanceMeters>11980.978338356</DistanceMeters>
          </Trackpoint>
          <Trackpoint>
            <Time>2020-03-07T13:15:12.000Z</Time>
            <Position>
              <LatitudeDegrees>40.6127363629639148712158203125</LatitudeDegrees>
              <LongitudeDegrees>-3.7242762185633182525634765625</LongitudeDegrees>
            </Position>
            <AltitudeMeters>748.4000244140625</AltitudeMeters>
            <DistanceMeters>11991.614965066</DistanceMeters>
          </Trackpoint>
          <Trackpoint>
            <Time>2020-03-07T13:15:13.000Z</Time>
            <Position>
              <LatitudeDegrees>40.61281733214855194091796875</LatitudeDegrees>
              <LongitudeDegrees>-3.7243412621319293975830078125</LongitudeDegrees>
            </Position>
            <AltitudeMeters>747.79998779296875</AltitudeMeters>
            <DistanceMeters>12002.171060145</DistanceMeters>
          </Trackpoint>
          <Trackpoint>
            <Time>2020-03-07T13:15:14.000Z</Time>
            <Position>
              <LatitudeDegrees>40.61289788223803043365478515625</LatitudeDegrees>
              <LongitudeDegrees>-3.72440814971923828125</LongitudeDegrees>
            </Position>
            <AltitudeMeters>747.20001220703125</AltitudeMeters>
            <DistanceMeters>12012.768988755</DistanceMeters>
          </Trackpoint>
          <Trackpoint>
            <Time>2020-03-07T13:15:15.000Z</Time>
            <Position>
              <LatitudeDegrees>40.6129775941371917724609375</LatitudeDegrees>
              <LongitudeDegrees>-3.72447495348751544952392578125</LongitudeDegrees>
            </Position>
            <AltitudeMeters>746.79998779296875</AltitudeMeters>
            <DistanceMeters>12023.28437206</DistanceMeters>
          </Trackpoint>
          <Trackpoint>
            <Time>2020-03-07T13:15:16.000Z</Time>
            <Position>
              <LatitudeDegrees>40.6130582280457019805908203125</LatitudeDegrees>
              <LongitudeDegrees>-3.72453982941806316375732421875</LongitudeDegrees>
            </Position>
            <AltitudeMeters>746.4000244140625</AltitudeMeters>
            <DistanceMeters>12033.800184731</DistanceMeters>
          </Trackpoint>
          <Trackpoint>
            <Time>2020-03-07T13:15:17.000Z</Time>
            <Position>
              <LatitudeDegrees>40.61313760466873645782470703125</LatitudeDegrees>
              <LongitudeDegrees>-3.72460437007248401641845703125</LongitudeDegrees>
            </Position>
            <AltitudeMeters>745.79998779296875</AltitudeMeters>
            <DistanceMeters>12044.182913302</DistanceMeters>
          </Trackpoint>
          <Trackpoint>
            <Time>2020-03-07T13:15:18.000Z</Time>
            <Position>
              <LatitudeDegrees>40.61321538873016834259033203125</LatitudeDegrees>
              <LongitudeDegrees>-3.7246684916317462921142578125</LongitudeDegrees>
            </Position>
            <AltitudeMeters>745.5999755859375</AltitudeMeters>
            <DistanceMeters>12054.396406489</DistanceMeters>
          </Trackpoint>
          <Trackpoint>
            <Time>2020-03-07T13:15:19.000Z</Time>
            <Position>
              <LatitudeDegrees>40.61329166404902935028076171875</LatitudeDegrees>
              <LongitudeDegrees>-3.724731020629405975341796875</LongitudeDegrees>
            </Position>
            <AltitudeMeters>745.4000244140625</AltitudeMeters>
            <DistanceMeters>12064.395456764</DistanceMeters>
          </Trackpoint>
          <Trackpoint>
            <Time>2020-03-07T13:15:20.000Z</Time>
            <Position>
              <LatitudeDegrees>40.61336592771112918853759765625</LatitudeDegrees>
              <LongitudeDegrees>-3.724791370332241058349609375</LongitudeDegrees>
            </Position>
            <AltitudeMeters>745.20001220703125</AltitudeMeters>
            <DistanceMeters>12074.106796444</DistanceMeters>
          </Trackpoint>
          <Trackpoint>
            <Time>2020-03-07T13:15:21.000Z</Time>
            <Position>
              <LatitudeDegrees>40.613437928259372711181640625</LatitudeDegrees>
              <LongitudeDegrees>-3.7248495407402515411376953125</LongitudeDegrees>
            </Position>
            <AltitudeMeters>745.20001220703125</AltitudeMeters>
            <DistanceMeters>12083.507719705</DistanceMeters>
          </Trackpoint>
          <Trackpoint>
            <Time>2020-03-07T13:15:22.000Z</Time>
            <Position>
              <LatitudeDegrees>40.61350758187472820281982421875</LatitudeDegrees>
              <LongitudeDegrees>-3.72490377165377140045166015625</LongitudeDegrees>
            </Position>
            <AltitudeMeters>745.20001220703125</AltitudeMeters>
            <DistanceMeters>12092.513224496</DistanceMeters>
          </Trackpoint>
          <Trackpoint>
            <Time>2020-03-07T13:15:23.000Z</Time>
            <Position>
              <LatitudeDegrees>40.613573379814624786376953125</LatitudeDegrees>
              <LongitudeDegrees>-3.72495490126311779022216796875</LongitudeDegrees>
            </Position>
            <AltitudeMeters>745.20001220703125</AltitudeMeters>
            <DistanceMeters>12101.015858912</DistanceMeters>
          </Trackpoint>
          <Trackpoint>
            <Time>2020-03-07T13:15:24.000Z</Time>
            <Position>
              <LatitudeDegrees>40.613635741174221038818359375</LatitudeDegrees>
              <LongitudeDegrees>-3.7250064499676227569580078125</LongitudeDegrees>
            </Position>
            <AltitudeMeters>745.20001220703125</AltitudeMeters>
            <DistanceMeters>12109.209674772</DistanceMeters>
          </Trackpoint>
          <Trackpoint>
            <Time>2020-03-07T13:15:25.000Z</Time>
            <Position>
              <LatitudeDegrees>40.61369533650577068328857421875</LatitudeDegrees>
              <LongitudeDegrees>-3.72506001032888889312744140625</LongitudeDegrees>
            </Position>
            <AltitudeMeters>745.20001220703125</AltitudeMeters>
            <DistanceMeters>12117.239291563</DistanceMeters>
          </Trackpoint>
          <Trackpoint>
            <Time>2020-03-07T13:15:26.000Z</Time>
            <Position>
              <LatitudeDegrees>40.61375333927571773529052734375</LatitudeDegrees>
              <LongitudeDegrees>-3.72511231340467929840087890625</LongitudeDegrees>
            </Position>
            <AltitudeMeters>745.20001220703125</AltitudeMeters>
            <DistanceMeters>12125.062708856</DistanceMeters>
          </Trackpoint>
          <Trackpoint>
            <Time>2020-03-07T13:15:27.000Z</Time>
            <Position>
              <LatitudeDegrees>40.613808743655681610107421875</LatitudeDegrees>
              <LongitudeDegrees>-3.72515891678631305694580078125</LongitudeDegrees>
            </Position>
            <AltitudeMeters>745.20001220703125</AltitudeMeters>
            <DistanceMeters>12132.37914878</DistanceMeters>
          </Trackpoint>
          <Trackpoint>
            <Time>2020-03-07T13:15:28.000Z</Time>
            <Position>
              <LatitudeDegrees>40.61386146582663059234619140625</LatitudeDegrees>
              <LongitudeDegrees>-3.72520350851118564605712890625</LongitudeDegrees>
            </Position>
            <AltitudeMeters>745.20001220703125</AltitudeMeters>
            <DistanceMeters>12139.353099721</DistanceMeters>
          </Trackpoint>
          <Trackpoint>
            <Time>2020-03-07T13:15:29.000Z</Time>
            <Position>
              <LatitudeDegrees>40.6139104999601840972900390625</LatitudeDegrees>
              <LongitudeDegrees>-3.7252495251595973968505859375</LongitudeDegrees>
            </Position>
            <AltitudeMeters>745.20001220703125</AltitudeMeters>
            <DistanceMeters>12146.05366239</DistanceMeters>
          </Trackpoint>
          <Trackpoint>
            <Time>2020-03-07T13:15:30.000Z</Time>
            <Position>
              <LatitudeDegrees>40.6139554269611835479736328125</LatitudeDegrees>
              <LongitudeDegrees>-3.72529855929315090179443359375</LongitudeDegrees>
            </Position>
            <AltitudeMeters>745.4000244140625</AltitudeMeters>
            <DistanceMeters>12152.546845501</DistanceMeters>
          </Trackpoint>
          <Trackpoint>
            <Time>2020-03-07T13:15:31.000Z</Time>
            <Position>
              <LatitudeDegrees>40.61399792321026325225830078125</LatitudeDegrees>
              <LongitudeDegrees>-3.7253477610647678375244140625</LongitudeDegrees>
            </Position>
            <AltitudeMeters>745.5999755859375</AltitudeMeters>
            <DistanceMeters>12158.843754716</DistanceMeters>
          </Trackpoint>
          <Trackpoint>
            <Time>2020-03-07T13:15:32.000Z</Time>
            <Position>
              <LatitudeDegrees>40.61403899453580379486083984375</LatitudeDegrees>
              <LongitudeDegrees>-3.72539729811251163482666015625</LongitudeDegrees>
            </Position>
            <AltitudeMeters>746</AltitudeMeters>
            <DistanceMeters>12165.041653166</DistanceMeters>
          </Trackpoint>
          <Trackpoint>
            <Time>2020-03-07T13:15:33.000Z</Time>
            <Position>
              <LatitudeDegrees>40.61407906003296375274658203125</LatitudeDegrees>
              <LongitudeDegrees>-3.725447170436382293701171875</LongitudeDegrees>
            </Position>
            <AltitudeMeters>746.5999755859375</AltitudeMeters>
            <DistanceMeters>12171.176582556</DistanceMeters>
          </Trackpoint>
          <Trackpoint>
            <Time>2020-03-07T13:15:34.000Z</Time>
            <Position>
              <LatitudeDegrees>40.61411879025399684906005859375</LatitudeDegrees>
              <LongitudeDegrees>-3.7254942767322063446044921875</LongitudeDegrees>
            </Position>
            <AltitudeMeters>747.20001220703125</AltitudeMeters>
            <DistanceMeters>12177.12619596</DistanceMeters>
          </Trackpoint>
          <Trackpoint>
            <Time>2020-03-07T13:15:35.000Z</Time>
            <Position>
              <LatitudeDegrees>40.6141572631895542144775390625</LatitudeDegrees>
              <LongitudeDegrees>-3.72554163448512554168701171875</LongitudeDegrees>
            </Position>
            <AltitudeMeters>747.79998779296875</AltitudeMeters>
            <DistanceMeters>12182.98711831</DistanceMeters>
          </Trackpoint>
          <Trackpoint>
            <Time>2020-03-07T13:15:36.000Z</Time>
            <Position>
              <LatitudeDegrees>40.61419322155416011810302734375</LatitudeDegrees>
              <LongitudeDegrees>-3.7255921773612499237060546875</LongitudeDegrees>
            </Position>
            <AltitudeMeters>748.4000244140625</AltitudeMeters>
            <DistanceMeters>12188.84033196</DistanceMeters>
          </Trackpoint>
          <Trackpoint>
            <Time>2020-03-07T13:15:37.000Z</Time>
            <Position>
              <LatitudeDegrees>40.61422758735716342926025390625</LatitudeDegrees>
              <LongitudeDegrees>-3.7256417982280254364013671875</LongitudeDegrees>
            </Position>
            <AltitudeMeters>749.79998779296875</AltitudeMeters>
            <DistanceMeters>12194.514946713</DistanceMeters>
          </Trackpoint>
          <Trackpoint>
            <Time>2020-03-07T13:15:38.000Z</Time>
            <Position>
              <LatitudeDegrees>40.61425792984664440155029296875</LatitudeDegrees>
              <LongitudeDegrees>-3.72569217346608638763427734375</LongitudeDegrees>
            </Position>
            <AltitudeMeters>750.4000244140625</AltitudeMeters>
            <DistanceMeters>12199.948946159</DistanceMeters>
          </Trackpoint>
          <Trackpoint>
            <Time>2020-03-07T13:15:39.000Z</Time>
            <Position>
              <LatitudeDegrees>40.61428626067936420440673828125</LatitudeDegrees>
              <LongitudeDegrees>-3.7257452309131622314453125</LongitudeDegrees>
            </Position>
            <AltitudeMeters>751</AltitudeMeters>
            <DistanceMeters>12205.430101541</DistanceMeters>
          </Trackpoint>
          <Trackpoint>
            <Time>2020-03-07T13:15:40.000Z</Time>
            <Position>
              <LatitudeDegrees>40.61431174166500568389892578125</LatitudeDegrees>
              <LongitudeDegrees>-3.7257997132837772369384765625</LongitudeDegrees>
            </Position>
            <AltitudeMeters>751.5999755859375</AltitudeMeters>
            <DistanceMeters>12210.836612195</DistanceMeters>
          </Trackpoint>
          <Trackpoint>
            <Time>2020-03-07T13:15:41.000Z</Time>
            <Position>
              <LatitudeDegrees>40.61433521099388599395751953125</LatitudeDegrees>
              <LongitudeDegrees>-3.72585629113018512725830078125</LongitudeDegrees>
            </Position>
            <AltitudeMeters>752</AltitudeMeters>
            <DistanceMeters>12216.282231631</DistanceMeters>
          </Trackpoint>
          <Trackpoint>
            <Time>2020-03-07T13:15:42.000Z</Time>
            <Position>
              <LatitudeDegrees>40.614354573190212249755859375</LatitudeDegrees>
              <LongitudeDegrees>-3.7259140424430370330810546875</LongitudeDegrees>
            </Position>
            <AltitudeMeters>752.5999755859375</AltitudeMeters>
            <DistanceMeters>12221.615592747</DistanceMeters>
          </Trackpoint>
          <Trackpoint>
            <Time>2020-03-07T13:15:43.000Z</Time>
            <Position>
              <LatitudeDegrees>40.61436840333044528961181640625</LatitudeDegrees>
              <LongitudeDegrees>-3.72597078792750835418701171875</LongitudeDegrees>
            </Position>
            <AltitudeMeters>753</AltitudeMeters>
            <DistanceMeters>12226.651112051</DistanceMeters>
          </Trackpoint>
          <Trackpoint>
            <Time>2020-03-07T13:15:44.000Z</Time>
            <Position>
              <LatitudeDegrees>40.6143782101571559906005859375</LatitudeDegrees>
              <LongitudeDegrees>-3.7260282039642333984375</LongitudeDegrees>
            </Position>
            <AltitudeMeters>753.79998779296875</AltitudeMeters>
            <DistanceMeters>12231.623470576</DistanceMeters>
          </Trackpoint>
          <Trackpoint>
            <Time>2020-03-07T13:15:45.000Z</Time>
            <Position>
              <LatitudeDegrees>40.61438432894647121429443359375</LatitudeDegrees>
              <LongitudeDegrees>-3.7260885536670684814453125</LongitudeDegrees>
            </Position>
            <AltitudeMeters>754</AltitudeMeters>
            <DistanceMeters>12236.76721668</DistanceMeters>
          </Trackpoint>
          <Trackpoint>
            <Time>2020-03-07T13:15:46.000Z</Time>
            <Position>
              <LatitudeDegrees>40.61438818462193012237548828125</LatitudeDegrees>
              <LongitudeDegrees>-3.72614982537925243377685546875</LongitudeDegrees>
            </Position>
            <AltitudeMeters>754.4000244140625</AltitudeMeters>
            <DistanceMeters>12241.961624097</DistanceMeters>
          </Trackpoint>
          <Trackpoint>
            <Time>2020-03-07T13:15:47.000Z</Time>
            <Position>
              <LatitudeDegrees>40.614389441907405853271484375</LatitudeDegrees>
              <LongitudeDegrees>-3.72621260583400726318359375</LongitudeDegrees>
            </Position>
            <AltitudeMeters>754.79998779296875</AltitudeMeters>
            <DistanceMeters>12247.267825973</DistanceMeters>
          </Trackpoint>
          <Trackpoint>
            <Time>2020-03-07T13:15:48.000Z</Time>
            <Position>
              <LatitudeDegrees>40.614386089146137237548828125</LatitudeDegrees>
              <LongitudeDegrees>-3.72627521865069866180419921875</LongitudeDegrees>
            </Position>
            <AltitudeMeters>755.20001220703125</AltitudeMeters>
            <DistanceMeters>12252.570623164</DistanceMeters>
          </Trackpoint>
          <Trackpoint>
            <Time>2020-03-07T13:15:49.000Z</Time>
            <Position>
              <LatitudeDegrees>40.6143795512616634368896484375</LatitudeDegrees>
              <LongitudeDegrees>-3.726339004933834075927734375</LongitudeDegrees>
            </Position>
            <AltitudeMeters>755.5999755859375</AltitudeMeters>
            <DistanceMeters>12258.009605645</DistanceMeters>
          </Trackpoint>
          <Trackpoint>
            <Time>2020-03-07T13:15:50.000Z</Time>
            <Position>
              <LatitudeDegrees>40.614371001720428466796875</LatitudeDegrees>
              <LongitudeDegrees>-3.72640245594084262847900390625</LongitudeDegrees>
            </Position>
            <AltitudeMeters>756.20001220703125</AltitudeMeters>
            <DistanceMeters>12263.455225081</DistanceMeters>
          </Trackpoint>
          <Trackpoint>
            <Time>2020-03-07T13:15:51.000Z</Time>
            <Position>
              <LatitudeDegrees>40.6143597699701786041259765625</LatitudeDegrees>
              <LongitudeDegrees>-3.726467080414295196533203125</LongitudeDegrees>
            </Position>
            <AltitudeMeters>756.4000244140625</AltitudeMeters>
            <DistanceMeters>12269.056161214</DistanceMeters>
          </Trackpoint>
          <Trackpoint>
            <Time>2020-03-07T13:15:52.000Z</Time>
            <Position>
              <LatitudeDegrees>40.614348538219928741455078125</LatitudeDegrees>
              <LongitudeDegrees>-3.726533465087413787841796875</LongitudeDegrees>
            </Position>
            <AltitudeMeters>757</AltitudeMeters>
            <DistanceMeters>12274.803510136</DistanceMeters>
          </Trackpoint>
          <Trackpoint>
            <Time>2020-03-07T13:15:53.000Z</Time>
            <Position>
              <LatitudeDegrees>40.61433772556483745574951171875</LatitudeDegrees>
              <LongitudeDegrees>-3.72660127468407154083251953125</LongitudeDegrees>
            </Position>
            <AltitudeMeters>757.4000244140625</AltitudeMeters>
            <DistanceMeters>12280.658266338</DistanceMeters>
          </Trackpoint>
          <Trackpoint>
            <Time>2020-03-07T13:15:54.000Z</Time>
            <Position>
              <LatitudeDegrees>40.61432800255715847015380859375</LatitudeDegrees>
              <LongitudeDegrees>-3.72666916809976100921630859375</LongitudeDegrees>
            </Position>
            <AltitudeMeters>757.79998779296875</AltitudeMeters>
            <DistanceMeters>12286.496032049</DistanceMeters>
          </Trackpoint>
          <Trackpoint>
            <Time>2020-03-07T13:15:55.000Z</Time>
            <Position>
              <LatitudeDegrees>40.61431710608303546905517578125</LatitudeDegrees>
              <LongitudeDegrees>-3.72673806734383106231689453125</LongitudeDegrees>
            </Position>
            <AltitudeMeters>758.20001220703125</AltitudeMeters>
            <DistanceMeters>12292.442609162</DistanceMeters>
          </Trackpoint>
          <Trackpoint>
            <Time>2020-03-07T13:15:56.000Z</Time>
            <Position>
              <LatitudeDegrees>40.6143084727227687835693359375</LatitudeDegrees>
              <LongitudeDegrees>-3.72680830769240856170654296875</LongitudeDegrees>
            </Position>
            <AltitudeMeters>758.20001220703125</AltitudeMeters>
            <DistanceMeters>12298.454128598</DistanceMeters>
          </Trackpoint>
          <Trackpoint>
            <Time>2020-03-07T13:15:57.000Z</Time>
            <Position>
              <LatitudeDegrees>40.61430604197084903717041015625</LatitudeDegrees>
              <LongitudeDegrees>-3.72688055969774723052978515625</LongitudeDegrees>
            </Position>
            <AltitudeMeters>758.5999755859375</AltitudeMeters>
            <DistanceMeters>12304.564723176</DistanceMeters>
          </Trackpoint>
          <Trackpoint>
            <Time>2020-03-07T13:15:58.000Z</Time>
            <Position>
              <LatitudeDegrees>40.61431375332176685333251953125</LatitudeDegrees>
              <LongitudeDegrees>-3.72695364989340305328369140625</LongitudeDegrees>
            </Position>
            <AltitudeMeters>758.5999755859375</AltitudeMeters>
            <DistanceMeters>12310.798939166</DistanceMeters>
          </Trackpoint>
          <Trackpoint>
            <Time>2020-03-07T13:15:59.000Z</Time>
            <Position>
              <LatitudeDegrees>40.61433554627001285552978515625</LatitudeDegrees>
              <LongitudeDegrees>-3.7270234711468219757080078125</LongitudeDegrees>
            </Position>
            <AltitudeMeters>758.79998779296875</AltitudeMeters>
            <DistanceMeters>12317.177773265</DistanceMeters>
          </Trackpoint>
          <Trackpoint>
            <Time>2020-03-07T13:16:00.000Z</Time>
            <Position>
              <LatitudeDegrees>40.6143721751868724822998046875</LatitudeDegrees>
              <LongitudeDegrees>-3.72708306647837162017822265625</LongitudeDegrees>
            </Position>
            <AltitudeMeters>759.20001220703125</AltitudeMeters>
            <DistanceMeters>12323.655640602</DistanceMeters>
          </Trackpoint>
          <Trackpoint>
            <Time>2020-03-07T13:16:01.000Z</Time>
            <Position>
              <LatitudeDegrees>40.6144221313297748565673828125</LatitudeDegrees>
              <LongitudeDegrees>-3.72712950222194194793701171875</LongitudeDegrees>
            </Position>
            <AltitudeMeters>759.20001220703125</AltitudeMeters>
            <DistanceMeters>12330.461172328</DistanceMeters>
          </Trackpoint>
          <Trackpoint>
            <Time>2020-03-07T13:16:02.000Z</Time>
            <Position>
              <LatitudeDegrees>40.6144801340997219085693359375</LatitudeDegrees>
              <LongitudeDegrees>-3.7271646223962306976318359375</LongitudeDegrees>
            </Position>
            <AltitudeMeters>759.20001220703125</AltitudeMeters>
            <DistanceMeters>12337.565968407</DistanceMeters>
          </Trackpoint>
          <Trackpoint>
            <Time>2020-03-07T13:16:03.000Z</Time>
            <Position>
              <LatitudeDegrees>40.614542327821254730224609375</LatitudeDegrees>
              <LongitudeDegrees>-3.7271921150386333465576171875</LongitudeDegrees>
            </Position>
            <AltitudeMeters>759.4000244140625</AltitudeMeters>
            <DistanceMeters>12344.867582703</DistanceMeters>
          </Trackpoint>
          <Trackpoint>
            <Time>2020-03-07T13:16:04.000Z</Time>
            <Position>
              <LatitudeDegrees>40.6146061979234218597412109375</LatitudeDegrees>
              <LongitudeDegrees>-3.7272177636623382568359375</LongitudeDegrees>
            </Position>
            <AltitudeMeters>759.4000244140625</AltitudeMeters>
            <DistanceMeters>12352.299133519</DistanceMeters>
          </Trackpoint>
          <Trackpoint>
            <Time>2020-03-07T13:16:05.000Z</Time>
            <Position>
              <LatitudeDegrees>40.61467166058719158172607421875</LatitudeDegrees>
              <LongitudeDegrees>-3.7272410653531551361083984375</LongitudeDegrees>
            </Position>
            <AltitudeMeters>759.4000244140625</AltitudeMeters>
            <DistanceMeters>12359.84643252</DistanceMeters>
          </Trackpoint>
          <Trackpoint>
            <Time>2020-03-07T13:16:06.000Z</Time>
            <Position>
              <LatitudeDegrees>40.614738129079341888427734375</LatitudeDegrees>
              <LongitudeDegrees>-3.7272628583014011383056640625</LongitudeDegrees>
            </Position>
            <AltitudeMeters>759.4000244140625</AltitudeMeters>
            <DistanceMeters>12367.471105112</DistanceMeters>
          </Trackpoint>
          <Trackpoint>
            <Time>2020-03-07T13:16:07.000Z</Time>
            <Position>
              <LatitudeDegrees>40.61480350792407989501953125</LatitudeDegrees>
              <LongitudeDegrees>-3.727289177477359771728515625</LongitudeDegrees>
            </Position>
            <AltitudeMeters>759.4000244140625</AltitudeMeters>
            <DistanceMeters>12375.080365928</DistanceMeters>
          </Trackpoint>
          <Trackpoint>
            <Time>2020-03-07T13:16:08.000Z</Time>
            <Position>
              <LatitudeDegrees>40.61486947350203990936279296875</LatitudeDegrees>
              <LongitudeDegrees>-3.7273151613771915435791015625</LongitudeDegrees>
            </Position>
            <AltitudeMeters>759.4000244140625</AltitudeMeters>
            <DistanceMeters>12382.74402153</DistanceMeters>
          </Trackpoint>
          <Trackpoint>
            <Time>2020-03-07T13:16:09.000Z</Time>
            <Position>
              <LatitudeDegrees>40.61493468470871448516845703125</LatitudeDegrees>
              <LongitudeDegrees>-3.7273409776389598846435546875</LongitudeDegrees>
            </Position>
            <AltitudeMeters>759.20001220703125</AltitudeMeters>
            <DistanceMeters>12390.322364765</DistanceMeters>
          </Trackpoint>
          <Trackpoint>
            <Time>2020-03-07T13:16:10.000Z</Time>
            <Position>
              <LatitudeDegrees>40.6149978004395961761474609375</LatitudeDegrees>
              <LongitudeDegrees>-3.7273704819381237030029296875</LongitudeDegrees>
            </Position>
            <AltitudeMeters>759.20001220703125</AltitudeMeters>
            <DistanceMeters>12397.775755288</DistanceMeters>
          </Trackpoint>
          <Trackpoint>
            <Time>2020-03-07T13:16:11.000Z</Time>
            <Position>
              <LatitudeDegrees>40.6150574795901775360107421875</LatitudeDegrees>
              <LongitudeDegrees>-3.727409206330776214599609375</LongitudeDegrees>
            </Position>
            <AltitudeMeters>759.20001220703125</AltitudeMeters>
            <DistanceMeters>12405.179306058</DistanceMeters>
          </Trackpoint>
          <Trackpoint>
            <Time>2020-03-07T13:16:12.000Z</Time>
            <Position>
              <LatitudeDegrees>40.6151121295988559722900390625</LatitudeDegrees>
              <LongitudeDegrees>-3.7274586595594882965087890625</LongitudeDegrees>
            </Position>
            <AltitudeMeters>759.20001220703125</AltitudeMeters>
            <DistanceMeters>12412.558422601</DistanceMeters>
          </Trackpoint>
          <Trackpoint>
            <Time>2020-03-07T13:16:13.000Z</Time>
            <Position>
              <LatitudeDegrees>40.615159571170806884765625</LatitudeDegrees>
              <LongitudeDegrees>-3.72751758433878421783447265625</LongitudeDegrees>
            </Position>
            <AltitudeMeters>759.20001220703125</AltitudeMeters>
            <DistanceMeters>12419.815378287</DistanceMeters>
          </Trackpoint>
          <Trackpoint>
            <Time>2020-03-07T13:16:14.000Z</Time>
            <Position>
              <LatitudeDegrees>40.61519988812506198883056640625</LatitudeDegrees>
              <LongitudeDegrees>-3.72758497484028339385986328125</LongitudeDegrees>
            </Position>
            <AltitudeMeters>759.20001220703125</AltitudeMeters>
            <DistanceMeters>12427.063618401</DistanceMeters>
          </Trackpoint>
          <Trackpoint>
            <Time>2020-03-07T13:16:15.000Z</Time>
            <Position>
              <LatitudeDegrees>40.6152361817657947540283203125</LatitudeDegrees>
              <LongitudeDegrees>-3.7276578135788440704345703125</LongitudeDegrees>
            </Position>
            <AltitudeMeters>759.20001220703125</AltitudeMeters>
            <DistanceMeters>12434.424969414</DistanceMeters>
          </Trackpoint>
          <Trackpoint>
            <Time>2020-03-07T13:16:16.000Z</Time>
            <Position>
              <LatitudeDegrees>40.61526996083557605743408203125</LatitudeDegrees>
              <LongitudeDegrees>-3.72773366980254650115966796875</LongitudeDegrees>
            </Position>
            <AltitudeMeters>759.20001220703125</AltitudeMeters>
            <DistanceMeters>12441.855912656</DistanceMeters>
          </Trackpoint>
          <Trackpoint>
            <Time>2020-03-07T13:16:17.000Z</Time>
            <Position>
              <LatitudeDegrees>40.615302734076976776123046875</LatitudeDegrees>
              <LongitudeDegrees>-3.727810196578502655029296875</LongitudeDegrees>
            </Position>
            <AltitudeMeters>759.20001220703125</AltitudeMeters>
            <DistanceMeters>12449.278952899</DistanceMeters>
          </Trackpoint>
          <Trackpoint>
            <Time>2020-03-07T13:16:18.000Z</Time>
            <Position>
              <LatitudeDegrees>40.61533433385193347930908203125</LatitudeDegrees>
              <LongitudeDegrees>-3.72788722626864910125732421875</LongitudeDegrees>
            </Position>
            <AltitudeMeters>759.20001220703125</AltitudeMeters>
            <DistanceMeters>12456.677013005</DistanceMeters>
          </Trackpoint>
          <Trackpoint>
            <Time>2020-03-07T13:16:19.000Z</Time>
            <Position>
              <LatitudeDegrees>40.61536735855042934417724609375</LatitudeDegrees>
              <LongitudeDegrees>-3.7279642559587955474853515625</LongitudeDegrees>
            </Position>
            <AltitudeMeters>759.4000244140625</AltitudeMeters>
            <DistanceMeters>12464.151575397</DistanceMeters>
          </Trackpoint>
          <Trackpoint>
            <Time>2020-03-07T13:16:20.000Z</Time>
            <Position>
              <LatitudeDegrees>40.615402646362781524658203125</LatitudeDegrees>
              <LongitudeDegrees>-3.72803910635411739349365234375</LongitudeDegrees>
            </Position>
            <AltitudeMeters>759.4000244140625</AltitudeMeters>
            <DistanceMeters>12471.596480314</DistanceMeters>
          </Trackpoint>
          <Trackpoint>
            <Time>2020-03-07T13:16:21.000Z</Time>
            <Position>
              <LatitudeDegrees>40.61543894000351428985595703125</LatitudeDegrees>
              <LongitudeDegrees>-3.72811202891170978546142578125</LongitudeDegrees>
            </Position>
            <AltitudeMeters>759.4000244140625</AltitudeMeters>
            <DistanceMeters>12478.963962211</DistanceMeters>
          </Trackpoint>
          <Trackpoint>
            <Time>2020-03-07T13:16:22.000Z</Time>
            <Position>
              <LatitudeDegrees>40.61547674238681793212890625</LatitudeDegrees>
              <LongitudeDegrees>-3.72818461619317531585693359375</LongitudeDegrees>
            </Position>
            <AltitudeMeters>759.5999755859375</AltitudeMeters>
            <DistanceMeters>12486.401586045</DistanceMeters>
          </Trackpoint>
          <Trackpoint>
            <Time>2020-03-07T13:16:23.000Z</Time>
            <Position>
              <LatitudeDegrees>40.61551622115075588226318359375</LatitudeDegrees>
              <LongitudeDegrees>-3.7282557785511016845703125</LongitudeDegrees>
            </Position>
            <AltitudeMeters>759.5999755859375</AltitudeMeters>
            <DistanceMeters>12493.848310119</DistanceMeters>
          </Trackpoint>
          <Trackpoint>
            <Time>2020-03-07T13:16:24.000Z</Time>
            <Position>
              <LatitudeDegrees>40.615557543933391571044921875</LatitudeDegrees>
              <LongitudeDegrees>-3.7283266894519329071044921875</LongitudeDegrees>
            </Position>
            <AltitudeMeters>759.5999755859375</AltitudeMeters>
            <DistanceMeters>12501.400393462</DistanceMeters>
          </Trackpoint>
          <Trackpoint>
            <Time>2020-03-07T13:16:25.000Z</Time>
            <Position>
              <LatitudeDegrees>40.6156012974679470062255859375</LatitudeDegrees>
              <LongitudeDegrees>-3.72839567251503467559814453125</LongitudeDegrees>
            </Position>
            <AltitudeMeters>759.5999755859375</AltitudeMeters>
            <DistanceMeters>12508.995400265</DistanceMeters>
          </Trackpoint>
          <Trackpoint>
            <Time>2020-03-07T13:16:26.000Z</Time>
            <Position>
              <LatitudeDegrees>40.61564681120216846466064453125</LatitudeDegrees>
              <LongitudeDegrees>-3.7284641526639461517333984375</LongitudeDegrees>
            </Position>
            <AltitudeMeters>759.5999755859375</AltitudeMeters>
            <DistanceMeters>12516.68610899</DistanceMeters>
          </Trackpoint>
          <Trackpoint>
            <Time>2020-03-07T13:16:27.000Z</Time>
            <Position>
              <LatitudeDegrees>40.61569458805024623870849609375</LatitudeDegrees>
              <LongitudeDegrees>-3.7285308726131916046142578125</LongitudeDegrees>
            </Position>
            <AltitudeMeters>759.79998779296875</AltitudeMeters>
            <DistanceMeters>12524.435303036</DistanceMeters>
          </Trackpoint>
          <Trackpoint>
            <Time>2020-03-07T13:16:28.000Z</Time>
            <Position>
              <LatitudeDegrees>40.61574487946927547454833984375</LatitudeDegrees>
              <LongitudeDegrees>-3.72859566472470760345458984375</LongitudeDegrees>
            </Position>
            <AltitudeMeters>759.79998779296875</AltitudeMeters>
            <DistanceMeters>12532.263912671</DistanceMeters>
          </Trackpoint>
          <Trackpoint>
            <Time>2020-03-07T13:16:29.000Z</Time>
            <Position>
              <LatitudeDegrees>40.61579802073538303375244140625</LatitudeDegrees>
              <LongitudeDegrees>-3.72865852899849414825439453125</LongitudeDegrees>
            </Position>
            <AltitudeMeters>759.79998779296875</AltitudeMeters>
            <DistanceMeters>12540.21328214</DistanceMeters>
          </Trackpoint>
          <Trackpoint>
            <Time>2020-03-07T13:16:30.000Z</Time>
            <Position>
              <LatitudeDegrees>40.6158530898392200469970703125</LatitudeDegrees>
              <LongitudeDegrees>-3.72872072272002696990966796875</LongitudeDegrees>
            </Position>
            <AltitudeMeters>759.79998779296875</AltitudeMeters>
            <DistanceMeters>12548.286639049</DistanceMeters>
          </Trackpoint>
          <Trackpoint>
            <Time>2020-03-07T13:16:31.000Z</Time>
            <Position>
              <LatitudeDegrees>40.6159094162285327911376953125</LatitudeDegrees>
              <LongitudeDegrees>-3.72878157533705234527587890625</LongitudeDegrees>
            </Position>
            <AltitudeMeters>759.79998779296875</AltitudeMeters>
            <DistanceMeters>12556.39459542</DistanceMeters>
          </Trackpoint>
          <Trackpoint>
            <Time>2020-03-07T13:16:32.000Z</Time>
            <Position>
              <LatitudeDegrees>40.61596767045557498931884765625</LatitudeDegrees>
              <LongitudeDegrees>-3.72883941046893596649169921875</LongitudeDegrees>
            </Position>
            <AltitudeMeters>759.79998779296875</AltitudeMeters>
            <DistanceMeters>12564.513681455</DistanceMeters>
          </Trackpoint>
          <Trackpoint>
            <Time>2020-03-07T13:16:33.000Z</Time>
            <Position>
              <LatitudeDegrees>40.61602818779647350311279296875</LatitudeDegrees>
              <LongitudeDegrees>-3.7288936413824558258056640625</LongitudeDegrees>
            </Position>
            <AltitudeMeters>759.79998779296875</AltitudeMeters>
            <DistanceMeters>12572.659970904</DistanceMeters>
          </Trackpoint>
          <Trackpoint>
            <Time>2020-03-07T13:16:34.000Z</Time>
            <Position>
              <LatitudeDegrees>40.6160908006131649017333984375</LatitudeDegrees>
              <LongitudeDegrees>-3.72894502244889736175537109375</LongitudeDegrees>
            </Position>
            <AltitudeMeters>759.79998779296875</AltitudeMeters>
            <DistanceMeters>12580.870301022</DistanceMeters>
          </Trackpoint>
          <Trackpoint>
            <Time>2020-03-07T13:16:35.000Z</Time>
            <Position>
              <LatitudeDegrees>40.61615400016307830810546875</LatitudeDegrees>
              <LongitudeDegrees>-3.7289942242205142974853515625</LongitudeDegrees>
            </Position>
            <AltitudeMeters>759.79998779296875</AltitudeMeters>
            <DistanceMeters>12589.041493421</DistanceMeters>
          </Trackpoint>
          <Trackpoint>
            <Time>2020-03-07T13:16:36.000Z</Time>
            <Position>
              <LatitudeDegrees>40.61621828936040401458740234375</LatitudeDegrees>
              <LongitudeDegrees>-3.72904158197343349456787109375</LongitudeDegrees>
            </Position>
            <AltitudeMeters>760</AltitudeMeters>
            <DistanceMeters>12597.239716337</DistanceMeters>
          </Trackpoint>
          <Trackpoint>
            <Time>2020-03-07T13:16:37.000Z</Time>
            <Position>
              <LatitudeDegrees>40.61628299765288829803466796875</LatitudeDegrees>
              <LongitudeDegrees>-3.72908751480281352996826171875</LongitudeDegrees>
            </Position>
            <AltitudeMeters>760</AltitudeMeters>
            <DistanceMeters>12605.420296789</DistanceMeters>
          </Trackpoint>
          <Trackpoint>
            <Time>2020-03-07T13:16:38.000Z</Time>
            <Position>
              <LatitudeDegrees>40.61634636484086513519287109375</LatitudeDegrees>
              <LongitudeDegrees>-3.729133866727352142333984375</LongitudeDegrees>
            </Position>
            <AltitudeMeters>760</AltitudeMeters>
            <DistanceMeters>12613.486939886</DistanceMeters>
          </Trackpoint>
          <Trackpoint>
            <Time>2020-03-07T13:16:39.000Z</Time>
            <Position>
              <LatitudeDegrees>40.616407804191112518310546875</LatitudeDegrees>
              <LongitudeDegrees>-3.729182817041873931884765625</LongitudeDegrees>
            </Position>
            <AltitudeMeters>760</AltitudeMeters>
            <DistanceMeters>12621.478793906</DistanceMeters>
          </Trackpoint>
          <Trackpoint>
            <Time>2020-03-07T13:16:40.000Z</Time>
            <Position>
              <LatitudeDegrees>40.61646773479878902435302734375</LatitudeDegrees>
              <LongitudeDegrees>-3.7292336113750934600830078125</LongitudeDegrees>
            </Position>
            <AltitudeMeters>760</AltitudeMeters>
            <DistanceMeters>12629.410536627</DistanceMeters>
          </Trackpoint>
          <Trackpoint>
            <Time>2020-03-07T13:16:41.000Z</Time>
            <Position>
              <LatitudeDegrees>40.616527162492275238037109375</LatitudeDegrees>
              <LongitudeDegrees>-3.72928448952734470367431640625</LongitudeDegrees>
            </Position>
            <AltitudeMeters>760.20001220703125</AltitudeMeters>
            <DistanceMeters>12637.298898737</DistanceMeters>
          </Trackpoint>
          <Trackpoint>
            <Time>2020-03-07T13:16:42.000Z</Time>
            <Position>
              <LatitudeDegrees>40.61658717691898345947265625</LatitudeDegrees>
              <LongitudeDegrees>-3.729332350194454193115234375</LongitudeDegrees>
            </Position>
            <AltitudeMeters>760.20001220703125</AltitudeMeters>
            <DistanceMeters>12645.107296533</DistanceMeters>
          </Trackpoint>
          <Trackpoint>
            <Time>2020-03-07T13:16:43.000Z</Time>
            <Position>
              <LatitudeDegrees>40.61664895154535770416259765625</LatitudeDegrees>
              <LongitudeDegrees>-3.729374594986438751220703125</LongitudeDegrees>
            </Position>
            <AltitudeMeters>760.20001220703125</AltitudeMeters>
            <DistanceMeters>12652.854742443</DistanceMeters>
          </Trackpoint>
          <Trackpoint>
            <Time>2020-03-07T13:16:44.000Z</Time>
            <Position>
              <LatitudeDegrees>40.61671215109527111053466796875</LatitudeDegrees>
              <LongitudeDegrees>-3.72941239736974239349365234375</LongitudeDegrees>
            </Position>
            <AltitudeMeters>760.20001220703125</AltitudeMeters>
            <DistanceMeters>12660.579426588</DistanceMeters>
          </Trackpoint>
          <Trackpoint>
            <Time>2020-03-07T13:16:45.000Z</Time>
            <Position>
              <LatitudeDegrees>40.61677484773099422454833984375</LatitudeDegrees>
              <LongitudeDegrees>-3.72945137321949005126953125</LongitudeDegrees>
            </Position>
            <AltitudeMeters>760.20001220703125</AltitudeMeters>
            <DistanceMeters>12668.295923466</DistanceMeters>
          </Trackpoint>
          <Trackpoint>
            <Time>2020-03-07T13:16:46.000Z</Time>
            <Position>
              <LatitudeDegrees>40.6168384663760662078857421875</LatitudeDegrees>
              <LongitudeDegrees>-3.7294921092689037322998046875</LongitudeDegrees>
            </Position>
            <AltitudeMeters>760.4000244140625</AltitudeMeters>
            <DistanceMeters>12676.168816499</DistanceMeters>
          </Trackpoint>
          <Trackpoint>
            <Time>2020-03-07T13:16:47.000Z</Time>
            <Position>
              <LatitudeDegrees>40.61690392903983592987060546875</LatitudeDegrees>
              <LongitudeDegrees>-3.72952773235738277435302734375</LongitudeDegrees>
            </Position>
            <AltitudeMeters>760.5999755859375</AltitudeMeters>
            <DistanceMeters>12684.052025623</DistanceMeters>
          </Trackpoint>
          <Trackpoint>
            <Time>2020-03-07T13:16:48.000Z</Time>
            <Position>
              <LatitudeDegrees>40.61697433702647686004638671875</LatitudeDegrees>
              <LongitudeDegrees>-3.72955388389527797698974609375</LongitudeDegrees>
            </Position>
            <AltitudeMeters>760.5999755859375</AltitudeMeters>
            <DistanceMeters>12692.193325341</DistanceMeters>
          </Trackpoint>
          <Trackpoint>
            <Time>2020-03-07T13:16:49.000Z</Time>
            <Position>
              <LatitudeDegrees>40.61704642139375209808349609375</LatitudeDegrees>
              <LongitudeDegrees>-3.7295725755393505096435546875</LongitudeDegrees>
            </Position>
            <AltitudeMeters>761</AltitudeMeters>
            <DistanceMeters>12700.370041429</DistanceMeters>
          </Trackpoint>
          <Trackpoint>
            <Time>2020-03-07T13:16:50.000Z</Time>
            <Position>
              <LatitudeDegrees>40.61711900867521762847900390625</LatitudeDegrees>
              <LongitudeDegrees>-3.7295963801443576812744140625</LongitudeDegrees>
            </Position>
            <AltitudeMeters>761.20001220703125</AltitudeMeters>
            <DistanceMeters>12708.695596473</DistanceMeters>
          </Trackpoint>
          <Trackpoint>
            <Time>2020-03-07T13:16:51.000Z</Time>
            <Position>
              <LatitudeDegrees>40.61718924902379512786865234375</LatitudeDegrees>
              <LongitudeDegrees>-3.729626052081584930419921875</LongitudeDegrees>
            </Position>
            <AltitudeMeters>761.20001220703125</AltitudeMeters>
            <DistanceMeters>12716.905376651</DistanceMeters>
          </Trackpoint>
          <Trackpoint>
            <Time>2020-03-07T13:16:52.000Z</Time>
            <Position>
              <LatitudeDegrees>40.61725932173430919647216796875</LatitudeDegrees>
              <LongitudeDegrees>-3.72965714894235134124755859375</LongitudeDegrees>
            </Position>
            <AltitudeMeters>761.4000244140625</AltitudeMeters>
            <DistanceMeters>12725.13602872</DistanceMeters>
          </Trackpoint>
          <Trackpoint>
            <Time>2020-03-07T13:16:53.000Z</Time>
            <Position>
              <LatitudeDegrees>40.61732880771160125732421875</LatitudeDegrees>
              <LongitudeDegrees>-3.729688413441181182861328125</LongitudeDegrees>
            </Position>
            <AltitudeMeters>761.4000244140625</AltitudeMeters>
            <DistanceMeters>12733.308878619</DistanceMeters>
          </Trackpoint>
          <Trackpoint>
            <Time>2020-03-07T13:16:54.000Z</Time>
            <Position>
              <LatitudeDegrees>40.6173973716795444488525390625</LatitudeDegrees>
              <LongitudeDegrees>-3.72971951030194759368896484375</LongitudeDegrees>
            </Position>
            <AltitudeMeters>761.4000244140625</AltitudeMeters>
            <DistanceMeters>12741.37999821</DistanceMeters>
          </Trackpoint>
          <Trackpoint>
            <Time>2020-03-07T13:16:55.000Z</Time>
            <Position>
              <LatitudeDegrees>40.6174649298191070556640625</LatitudeDegrees>
              <LongitudeDegrees>-3.729748763144016265869140625</LongitudeDegrees>
            </Position>
            <AltitudeMeters>761.5999755859375</AltitudeMeters>
            <DistanceMeters>12749.295215855</DistanceMeters>
          </Trackpoint>
          <Trackpoint>
            <Time>2020-03-07T13:16:56.000Z</Time>
            <Position>
              <LatitudeDegrees>40.61753257177770137786865234375</LatitudeDegrees>
              <LongitudeDegrees>-3.7297737412154674530029296875</LongitudeDegrees>
            </Position>
            <AltitudeMeters>761.5999755859375</AltitudeMeters>
            <DistanceMeters>12757.114014838</DistanceMeters>
          </Trackpoint>
          <Trackpoint>
            <Time>2020-03-07T13:16:57.000Z</Time>
            <Position>
              <LatitudeDegrees>40.61760096810758113861083984375</LatitudeDegrees>
              <LongitudeDegrees>-3.72979595325887203216552734375</LongitudeDegrees>
            </Position>
            <AltitudeMeters>761.5999755859375</AltitudeMeters>
            <DistanceMeters>12764.954726568</DistanceMeters>
          </Trackpoint>
          <Trackpoint>
            <Time>2020-03-07T13:16:58.000Z</Time>
            <Position>
              <LatitudeDegrees>40.6176709569990634918212890625</LatitudeDegrees>
              <LongitudeDegrees>-3.72981749475002288818359375</LongitudeDegrees>
            </Position>
            <AltitudeMeters>761.5999755859375</AltitudeMeters>
            <DistanceMeters>12772.953921632</DistanceMeters>
          </Trackpoint>
          <Trackpoint>
            <Time>2020-03-07T13:16:59.000Z</Time>
            <Position>
              <LatitudeDegrees>40.61774329282343387603759765625</LatitudeDegrees>
              <LongitudeDegrees>-3.72984205372631549835205078125</LongitudeDegrees>
            </Position>
            <AltitudeMeters>761.5999755859375</AltitudeMeters>
            <DistanceMeters>12781.268623386</DistanceMeters>
          </Trackpoint>
          <Trackpoint>
            <Time>2020-03-07T13:17:00.000Z</Time>
            <Position>
              <LatitudeDegrees>40.61781940050423145294189453125</LatitudeDegrees>
              <LongitudeDegrees>-3.72987021692097187042236328125</LongitudeDegrees>
            </Position>
            <AltitudeMeters>761.5999755859375</AltitudeMeters>
            <DistanceMeters>12790.067194029</DistanceMeters>
          </Trackpoint>
          <Trackpoint>
            <Time>2020-03-07T13:17:01.000Z</Time>
            <Position>
              <LatitudeDegrees>40.61789852567017078399658203125</LatitudeDegrees>
              <LongitudeDegrees>-3.729899637401103973388671875</LongitudeDegrees>
            </Position>
            <AltitudeMeters>761.5999755859375</AltitudeMeters>
            <DistanceMeters>12799.217926178</DistanceMeters>
          </Trackpoint>
          <Trackpoint>
            <Time>2020-03-07T13:17:02.000Z</Time>
            <Position>
              <LatitudeDegrees>40.617981255054473876953125</LatitudeDegrees>
              <LongitudeDegrees>-3.7299294769763946533203125</LongitudeDegrees>
            </Position>
            <AltitudeMeters>761.5999755859375</AltitudeMeters>
            <DistanceMeters>12808.764682776</DistanceMeters>
          </Trackpoint>
          <Trackpoint>
            <Time>2020-03-07T13:17:03.000Z</Time>
            <Position>
              <LatitudeDegrees>40.6180685944855213165283203125</LatitudeDegrees>
              <LongitudeDegrees>-3.72995965182781219482421875</LongitudeDegrees>
            </Position>
            <AltitudeMeters>761.5999755859375</AltitudeMeters>
            <DistanceMeters>12818.8146283</DistanceMeters>
          </Trackpoint>
          <Trackpoint>
            <Time>2020-03-07T13:17:04.000Z</Time>
            <Position>
              <LatitudeDegrees>40.6181597895920276641845703125</LatitudeDegrees>
              <LongitudeDegrees>-3.729988820850849151611328125</LongitudeDegrees>
            </Position>
            <AltitudeMeters>761.5999755859375</AltitudeMeters>
            <DistanceMeters>12829.259789074</DistanceMeters>
          </Trackpoint>
          <Trackpoint>
            <Time>2020-03-07T13:17:05.000Z</Time>
            <Position>
              <LatitudeDegrees>40.618252493441104888916015625</LatitudeDegrees>
              <LongitudeDegrees>-3.73001840896904468536376953125</LongitudeDegrees>
            </Position>
            <AltitudeMeters>761.5999755859375</AltitudeMeters>
            <DistanceMeters>12839.876446466</DistanceMeters>
          </Trackpoint>
          <Trackpoint>
            <Time>2020-03-07T13:17:06.000Z</Time>
            <Position>
              <LatitudeDegrees>40.618347041308879852294921875</LatitudeDegrees>
              <LongitudeDegrees>-3.7300500087440013885498046875</LongitudeDegrees>
            </Position>
            <AltitudeMeters>761.5999755859375</AltitudeMeters>
            <DistanceMeters>12850.73322259</DistanceMeters>
          </Trackpoint>
          <Trackpoint>
            <Time>2020-03-07T13:17:07.000Z</Time>
            <Position>
              <LatitudeDegrees>40.618442259728908538818359375</LatitudeDegrees>
              <LongitudeDegrees>-3.73007523827254772186279296875</LongitudeDegrees>
            </Position>
            <AltitudeMeters>761.5999755859375</AltitudeMeters>
            <DistanceMeters>12861.543738274</DistanceMeters>
          </Trackpoint>
          <Trackpoint>
            <Time>2020-03-07T13:17:08.000Z</Time>
            <Position>
              <LatitudeDegrees>40.6185324490070343017578125</LatitudeDegrees>
              <LongitudeDegrees>-3.7300912477076053619384765625</LongitudeDegrees>
            </Position>
            <AltitudeMeters>761.5999755859375</AltitudeMeters>
            <DistanceMeters>12871.673336421</DistanceMeters>
          </Trackpoint>
          <Trackpoint>
            <Time>2020-03-07T13:17:09.000Z</Time>
            <Position>
              <LatitudeDegrees>40.6186164356768131256103515625</LatitudeDegrees>
              <LongitudeDegrees>-3.7301019765436649322509765625</LongitudeDegrees>
            </Position>
            <AltitudeMeters>761.5999755859375</AltitudeMeters>
            <DistanceMeters>12881.065130004</DistanceMeters>
          </Trackpoint>
          <Trackpoint>
            <Time>2020-03-07T13:17:10.000Z</Time>
            <Position>
              <LatitudeDegrees>40.6187012605369091033935546875</LatitudeDegrees>
              <LongitudeDegrees>-3.7301140464842319488525390625</LongitudeDegrees>
            </Position>
            <AltitudeMeters>761.20001220703125</AltitudeMeters>
            <DistanceMeters>12890.561147241</DistanceMeters>
          </Trackpoint>
          <Trackpoint>
            <Time>2020-03-07T13:17:11.000Z</Time>
            <Position>
              <LatitudeDegrees>40.61878382228314876556396484375</LatitudeDegrees>
              <LongitudeDegrees>-3.7301254458725452423095703125</LongitudeDegrees>
            </Position>
            <AltitudeMeters>761</AltitudeMeters>
            <DistanceMeters>12899.800754522</DistanceMeters>
          </Trackpoint>
          <Trackpoint>
            <Time>2020-03-07T13:17:12.000Z</Time>
            <Position>
              <LatitudeDegrees>40.61886244453489780426025390625</LatitudeDegrees>
              <LongitudeDegrees>-3.730143047869205474853515625</LongitudeDegrees>
            </Position>
            <AltitudeMeters>761</AltitudeMeters>
            <DistanceMeters>12908.676982154</DistanceMeters>
          </Trackpoint>
          <Trackpoint>
            <Time>2020-03-07T13:17:13.000Z</Time>
            <Position>
              <LatitudeDegrees>40.61893637292087078094482421875</LatitudeDegrees>
              <LongitudeDegrees>-3.73016358353197574615478515625</LongitudeDegrees>
            </Position>
            <AltitudeMeters>761</AltitudeMeters>
            <DistanceMeters>12917.086712156</DistanceMeters>
          </Trackpoint>
          <Trackpoint>
            <Time>2020-03-07T13:17:14.000Z</Time>
            <Position>
              <LatitudeDegrees>40.6190087087452411651611328125</LatitudeDegrees>
              <LongitudeDegrees>-3.7301869690418243408203125</LongitudeDegrees>
            </Position>
            <AltitudeMeters>761</AltitudeMeters>
            <DistanceMeters>12925.376397418</DistanceMeters>
          </Trackpoint>
          <Trackpoint>
            <Time>2020-03-07T13:17:15.000Z</Time>
            <Position>
              <LatitudeDegrees>40.6190791167318820953369140625</LatitudeDegrees>
              <LongitudeDegrees>-3.730214126408100128173828125</LongitudeDegrees>
            </Position>
            <AltitudeMeters>761</AltitudeMeters>
            <DistanceMeters>12933.542062391</DistanceMeters>
          </Trackpoint>
          <Trackpoint>
            <Time>2020-03-07T13:17:16.000Z</Time>
            <Position>
              <LatitudeDegrees>40.6191491894423961639404296875</LatitudeDegrees>
              <LongitudeDegrees>-3.73024304397404193878173828125</LongitudeDegrees>
            </Position>
            <AltitudeMeters>761</AltitudeMeters>
            <DistanceMeters>12941.715464714</DistanceMeters>
          </Trackpoint>
          <Trackpoint>
            <Time>2020-03-07T13:17:17.000Z</Time>
            <Position>
              <LatitudeDegrees>40.6192189268767833709716796875</LatitudeDegrees>
              <LongitudeDegrees>-3.7302736379206180572509765625</LongitudeDegrees>
            </Position>
            <AltitudeMeters>761</AltitudeMeters>
            <DistanceMeters>12949.896597069</DistanceMeters>
          </Trackpoint>
          <Trackpoint>
            <Time>2020-03-07T13:17:18.000Z</Time>
            <Position>
              <LatitudeDegrees>40.61928858049213886260986328125</LatitudeDegrees>
              <LongitudeDegrees>-3.73030875809490680694580078125</LongitudeDegrees>
            </Position>
            <AltitudeMeters>761</AltitudeMeters>
            <DistanceMeters>12958.198256145</DistanceMeters>
          </Trackpoint>
          <Trackpoint>
            <Time>2020-03-07T13:17:19.000Z</Time>
            <Position>
              <LatitudeDegrees>40.6193600781261920928955078125</LatitudeDegrees>
              <LongitudeDegrees>-3.73034396208822727203369140625</LongitudeDegrees>
            </Position>
            <AltitudeMeters>761</AltitudeMeters>
            <DistanceMeters>12966.693984544</DistanceMeters>
          </Trackpoint>
          <Trackpoint>
            <Time>2020-03-07T13:17:20.000Z</Time>
            <Position>
              <LatitudeDegrees>40.61943392269313335418701171875</LatitudeDegrees>
              <LongitudeDegrees>-3.73037665151059627532958984375</LongitudeDegrees>
            </Position>
            <AltitudeMeters>761.20001220703125</AltitudeMeters>
            <DistanceMeters>12975.364879334</DistanceMeters>
          </Trackpoint>
          <Trackpoint>
            <Time>2020-03-07T13:17:21.000Z</Time>
            <Position>
              <LatitudeDegrees>40.6195092760026454925537109375</LatitudeDegrees>
              <LongitudeDegrees>-3.73040514998137950897216796875</LongitudeDegrees>
            </Position>
            <AltitudeMeters>761.5999755859375</AltitudeMeters>
            <DistanceMeters>12984.090277577</DistanceMeters>
          </Trackpoint>
          <Trackpoint>
            <Time>2020-03-07T13:17:22.000Z</Time>
            <Position>
              <LatitudeDegrees>40.619586892426013946533203125</LatitudeDegrees>
              <LongitudeDegrees>-3.730429373681545257568359375</LongitudeDegrees>
            </Position>
            <AltitudeMeters>762</AltitudeMeters>
            <DistanceMeters>12992.968031077</DistanceMeters>
          </Trackpoint>
          <Trackpoint>
            <Time>2020-03-07T13:17:23.000Z</Time>
            <Position>
              <LatitudeDegrees>40.61966543085873126983642578125</LatitudeDegrees>
              <LongitudeDegrees>-3.730451166629791259765625</LongitudeDegrees>
            </Position>
            <AltitudeMeters>762.20001220703125</AltitudeMeters>
            <DistanceMeters>13001.901553093</DistanceMeters>
          </Trackpoint>
          <Trackpoint>
            <Time>2020-03-07T13:17:24.000Z</Time>
            <Position>
              <LatitudeDegrees>40.61974572949111461639404296875</LatitudeDegrees>
              <LongitudeDegrees>-3.73047471977770328521728515625</LongitudeDegrees>
            </Position>
            <AltitudeMeters>762.4000244140625</AltitudeMeters>
            <DistanceMeters>13011.057711114</DistanceMeters>
          </Trackpoint>
          <Trackpoint>
            <Time>2020-03-07T13:17:25.000Z</Time>
            <Position>
              <LatitudeDegrees>40.61982669867575168609619140625</LatitudeDegrees>
              <LongitudeDegrees>-3.7304935790598392486572265625</LongitudeDegrees>
            </Position>
            <AltitudeMeters>762.4000244140625</AltitudeMeters>
            <DistanceMeters>13020.209430025</DistanceMeters>
          </Trackpoint>
          <Trackpoint>
            <Time>2020-03-07T13:17:26.000Z</Time>
            <Position>
              <LatitudeDegrees>40.61991470865905284881591796875</LatitudeDegrees>
              <LongitudeDegrees>-3.73051411472260951995849609375</LongitudeDegrees>
            </Position>
            <AltitudeMeters>762.4000244140625</AltitudeMeters>
            <DistanceMeters>13030.157778522</DistanceMeters>
          </Trackpoint>
          <Trackpoint>
            <Time>2020-03-07T13:17:27.000Z</Time>
            <Position>
              <LatitudeDegrees>40.620004646480083465576171875</LatitudeDegrees>
              <LongitudeDegrees>-3.73054437339305877685546875</LongitudeDegrees>
            </Position>
            <AltitudeMeters>762.4000244140625</AltitudeMeters>
            <DistanceMeters>13040.489066127</DistanceMeters>
          </Trackpoint>
          <Trackpoint>
            <Time>2020-03-07T13:17:28.000Z</Time>
            <Position>
              <LatitudeDegrees>40.62009282410144805908203125</LatitudeDegrees>
              <LongitudeDegrees>-3.73058787547051906585693359375</LongitudeDegrees>
            </Position>
            <AltitudeMeters>762.4000244140625</AltitudeMeters>
            <DistanceMeters>13050.969181574</DistanceMeters>
          </Trackpoint>
          <Trackpoint>
            <Time>2020-03-07T13:17:29.000Z</Time>
            <Position>
              <LatitudeDegrees>40.620179660618305206298828125</LatitudeDegrees>
              <LongitudeDegrees>-3.73064202256500720977783203125</LongitudeDegrees>
            </Position>
            <AltitudeMeters>762.4000244140625</AltitudeMeters>
            <DistanceMeters>13061.662115125</DistanceMeters>
          </Trackpoint>
          <Trackpoint>
            <Time>2020-03-07T13:17:30.000Z</Time>
            <Position>
              <LatitudeDegrees>40.62026708386838436126708984375</LatitudeDegrees>
              <LongitudeDegrees>-3.7307027913630008697509765625</LongitudeDegrees>
            </Position>
            <AltitudeMeters>762.4000244140625</AltitudeMeters>
            <DistanceMeters>13072.663483885</DistanceMeters>
          </Trackpoint>
          <Trackpoint>
            <Time>2020-03-07T13:17:31.000Z</Time>
            <Position>
              <LatitudeDegrees>40.62035827897489070892333984375</LatitudeDegrees>
              <LongitudeDegrees>-3.73075953684747219085693359375</LongitudeDegrees>
            </Position>
            <AltitudeMeters>762.4000244140625</AltitudeMeters>
            <DistanceMeters>13083.888709348</DistanceMeters>
          </Trackpoint>
          <Trackpoint>
            <Time>2020-03-07T13:17:32.000Z</Time>
            <Position>
              <LatitudeDegrees>40.6204527430236339569091796875</LatitudeDegrees>
              <LongitudeDegrees>-3.7308104149997234344482421875</LongitudeDegrees>
            </Position>
            <AltitudeMeters>762.4000244140625</AltitudeMeters>
            <DistanceMeters>13095.247482707</DistanceMeters>
          </Trackpoint>
          <Trackpoint>
            <Time>2020-03-07T13:17:33.000Z</Time>
            <Position>
              <LatitudeDegrees>40.62054879963397979736328125</LatitudeDegrees>
              <LongitudeDegrees>-3.7308607064187526702880859375</LongitudeDegrees>
            </Position>
            <AltitudeMeters>762.4000244140625</AltitudeMeters>
            <DistanceMeters>13106.751603724</DistanceMeters>
          </Trackpoint>
          <Trackpoint>
            <Time>2020-03-07T13:17:34.000Z</Time>
            <Position>
              <LatitudeDegrees>40.6206418387591838836669921875</LatitudeDegrees>
              <LongitudeDegrees>-3.7309079803526401519775390625</LongitudeDegrees>
            </Position>
            <AltitudeMeters>762</AltitudeMeters>
            <DistanceMeters>13117.850626331</DistanceMeters>
          </Trackpoint>
          <Trackpoint>
            <Time>2020-03-07T13:17:35.000Z</Time>
            <Position>
              <LatitudeDegrees>40.6207404099404811859130859375</LatitudeDegrees>
              <LongitudeDegrees>-3.730940334498882293701171875</LongitudeDegrees>
            </Position>
            <AltitudeMeters>761.79998779296875</AltitudeMeters>
            <DistanceMeters>13129.156808806</DistanceMeters>
          </Trackpoint>
          <Trackpoint>
            <Time>2020-03-07T13:17:36.000Z</Time>
            <Position>
              <LatitudeDegrees>40.62085666693747043609619140625</LatitudeDegrees>
              <LongitudeDegrees>-3.7309324555099010467529296875</LongitudeDegrees>
            </Position>
            <AltitudeMeters>761.20001220703125</AltitudeMeters>
            <DistanceMeters>13142.113588929</DistanceMeters>
          </Trackpoint>
          <Trackpoint>
            <Time>2020-03-07T13:17:37.000Z</Time>
            <Position>
              <LatitudeDegrees>40.620982646942138671875</LatitudeDegrees>
              <LongitudeDegrees>-3.7309086509048938751220703125</LongitudeDegrees>
            </Position>
            <AltitudeMeters>760.4000244140625</AltitudeMeters>
            <DistanceMeters>13156.278945566</DistanceMeters>
          </Trackpoint>
          <Trackpoint>
            <Time>2020-03-07T13:17:38.000Z</Time>
            <Position>
              <LatitudeDegrees>40.6210840679705142974853515625</LatitudeDegrees>
              <LongitudeDegrees>-3.73087168671190738677978515625</LongitudeDegrees>
            </Position>
            <AltitudeMeters>759.5999755859375</AltitudeMeters>
            <DistanceMeters>13167.991542261</DistanceMeters>
          </Trackpoint>
          <Trackpoint>
            <Time>2020-03-07T13:17:39.000Z</Time>
            <Position>
              <LatitudeDegrees>40.6211698986589908599853515625</LatitudeDegrees>
              <LongitudeDegrees>-3.73081267811357975006103515625</LongitudeDegrees>
            </Position>
            <AltitudeMeters>758.79998779296875</AltitudeMeters>
            <DistanceMeters>13178.767337034</DistanceMeters>
          </Trackpoint>
          <Trackpoint>
            <Time>2020-03-07T13:17:40.000Z</Time>
            <Position>
              <LatitudeDegrees>40.6212620995938777923583984375</LatitudeDegrees>
              <LongitudeDegrees>-3.73075484298169612884521484375</LongitudeDegrees>
            </Position>
            <AltitudeMeters>758</AltitudeMeters>
            <DistanceMeters>13190.133263024</DistanceMeters>
          </Trackpoint>
          <Trackpoint>
            <Time>2020-03-07T13:17:41.000Z</Time>
            <Position>
              <LatitudeDegrees>40.6213553063571453094482421875</LatitudeDegrees>
              <LongitudeDegrees>-3.730725087225437164306640625</LongitudeDegrees>
            </Position>
            <AltitudeMeters>757.5999755859375</AltitudeMeters>
            <DistanceMeters>13200.807601625</DistanceMeters>
          </Trackpoint>
          <Trackpoint>
            <Time>2020-03-07T13:17:42.000Z</Time>
            <Position>
              <LatitudeDegrees>40.62145044095814228057861328125</LatitudeDegrees>
              <LongitudeDegrees>-3.73072248883545398712158203125</LongitudeDegrees>
            </Position>
            <AltitudeMeters>757.20001220703125</AltitudeMeters>
            <DistanceMeters>13211.398711557</DistanceMeters>
          </Trackpoint>
          <Trackpoint>
            <Time>2020-03-07T13:17:43.000Z</Time>
            <Position>
              <LatitudeDegrees>40.621548257768154144287109375</LatitudeDegrees>
              <LongitudeDegrees>-3.7307292781770229339599609375</LongitudeDegrees>
            </Position>
            <AltitudeMeters>757</AltitudeMeters>
            <DistanceMeters>13222.30072358</DistanceMeters>
          </Trackpoint>
          <Trackpoint>
            <Time>2020-03-07T13:17:44.000Z</Time>
            <Position>
              <LatitudeDegrees>40.62165043316781520843505859375</LatitudeDegrees>
              <LongitudeDegrees>-3.730737157166004180908203125</LongitudeDegrees>
            </Position>
            <AltitudeMeters>756.79998779296875</AltitudeMeters>
            <DistanceMeters>13233.692044772</DistanceMeters>
          </Trackpoint>
          <Trackpoint>
            <Time>2020-03-07T13:17:45.000Z</Time>
            <Position>
              <LatitudeDegrees>40.6217529438436031341552734375</LatitudeDegrees>
              <LongitudeDegrees>-3.73074595816433429718017578125</LongitudeDegrees>
            </Position>
            <AltitudeMeters>756.5999755859375</AltitudeMeters>
            <DistanceMeters>13245.125697587</DistanceMeters>
          </Trackpoint>
          <Trackpoint>
            <Time>2020-03-07T13:17:46.000Z</Time>
            <Position>
              <LatitudeDegrees>40.62185511924326419830322265625</LatitudeDegrees>
              <LongitudeDegrees>-3.73075467534363269805908203125</LongitudeDegrees>
            </Position>
            <AltitudeMeters>756.5999755859375</AltitudeMeters>
            <DistanceMeters>13256.521774079</DistanceMeters>
          </Trackpoint>
          <Trackpoint>
            <Time>2020-03-07T13:17:47.000Z</Time>
            <Position>
              <LatitudeDegrees>40.6219577975571155548095703125</LatitudeDegrees>
              <LongitudeDegrees>-3.730762302875518798828125</LongitudeDegrees>
            </Position>
            <AltitudeMeters>756.4000244140625</AltitudeMeters>
            <DistanceMeters>13267.968450855</DistanceMeters>
          </Trackpoint>
          <Trackpoint>
            <Time>2020-03-07T13:17:48.000Z</Time>
            <Position>
              <LatitudeDegrees>40.62206114642322063446044921875</LatitudeDegrees>
              <LongitudeDegrees>-3.730769343674182891845703125</LongitudeDegrees>
            </Position>
            <AltitudeMeters>756.20001220703125</AltitudeMeters>
            <DistanceMeters>13279.486692175</DistanceMeters>
          </Trackpoint>
          <Trackpoint>
            <Time>2020-03-07T13:17:49.000Z</Time>
            <Position>
              <LatitudeDegrees>40.62216474674642086029052734375</LatitudeDegrees>
              <LongitudeDegrees>-3.73077596537768840789794921875</LongitudeDegrees>
            </Position>
            <AltitudeMeters>755.79998779296875</AltitudeMeters>
            <DistanceMeters>13291.031166967</DistanceMeters>
          </Trackpoint>
          <Trackpoint>
            <Time>2020-03-07T13:17:50.000Z</Time>
            <Position>
              <LatitudeDegrees>40.62226801179349422454833984375</LatitudeDegrees>
              <LongitudeDegrees>-3.7307815812528133392333984375</LongitudeDegrees>
            </Position>
            <AltitudeMeters>755.4000244140625</AltitudeMeters>
            <DistanceMeters>13302.534503014</DistanceMeters>
          </Trackpoint>
          <Trackpoint>
            <Time>2020-03-07T13:17:51.000Z</Time>
            <Position>
              <LatitudeDegrees>40.6223711930215358734130859375</LatitudeDegrees>
              <LongitudeDegrees>-3.73078770004212856292724609375</LongitudeDegrees>
            </Position>
            <AltitudeMeters>755</AltitudeMeters>
            <DistanceMeters>13314.029986418</DistanceMeters>
          </Trackpoint>
          <Trackpoint>
            <Time>2020-03-07T13:17:52.000Z</Time>
            <Position>
              <LatitudeDegrees>40.62247370369732379913330078125</LatitudeDegrees>
              <LongitudeDegrees>-3.73079725541174411773681640625</LongitudeDegrees>
            </Position>
            <AltitudeMeters>754.79998779296875</AltitudeMeters>
            <DistanceMeters>13325.468376934</DistanceMeters>
          </Trackpoint>
          <Trackpoint>
            <Time>2020-03-07T13:17:53.000Z</Time>
            <Position>
              <LatitudeDegrees>40.6225743703544139862060546875</LatitudeDegrees>
              <LongitudeDegrees>-3.73080295510590076446533203125</LongitudeDegrees>
            </Position>
            <AltitudeMeters>754.4000244140625</AltitudeMeters>
            <DistanceMeters>13336.683139736</DistanceMeters>
          </Trackpoint>
          <Trackpoint>
            <Time>2020-03-07T13:17:54.000Z</Time>
            <Position>
              <LatitudeDegrees>40.6226736120879650115966796875</LatitudeDegrees>
              <LongitudeDegrees>-3.7308063916862010955810546875</LongitudeDegrees>
            </Position>
            <AltitudeMeters>754.4000244140625</AltitudeMeters>
            <DistanceMeters>13347.732421773</DistanceMeters>
          </Trackpoint>
          <Trackpoint>
            <Time>2020-03-07T13:17:55.000Z</Time>
            <Position>
              <LatitudeDegrees>40.62277025543153285980224609375</LatitudeDegrees>
              <LongitudeDegrees>-3.73080429621040821075439453125</LongitudeDegrees>
            </Position>
            <AltitudeMeters>754.20001220703125</AltitudeMeters>
            <DistanceMeters>13358.490184538</DistanceMeters>
          </Trackpoint>
          <Trackpoint>
            <Time>2020-03-07T13:17:56.000Z</Time>
            <Position>
              <LatitudeDegrees>40.62286212109029293060302734375</LatitudeDegrees>
              <LongitudeDegrees>-3.73079381883144378662109375</LongitudeDegrees>
            </Position>
            <AltitudeMeters>754.20001220703125</AltitudeMeters>
            <DistanceMeters>13368.753509619</DistanceMeters>
          </Trackpoint>
          <Trackpoint>
            <Time>2020-03-07T13:17:57.000Z</Time>
            <Position>
              <LatitudeDegrees>40.6229482032358646392822265625</LatitudeDegrees>
              <LongitudeDegrees>-3.73077479191124439239501953125</LongitudeDegrees>
            </Position>
            <AltitudeMeters>754.20001220703125</AltitudeMeters>
            <DistanceMeters>13378.468103224</DistanceMeters>
          </Trackpoint>
          <Trackpoint>
            <Time>2020-03-07T13:17:58.000Z</Time>
            <Position>
              <LatitudeDegrees>40.62302925623953342437744140625</LatitudeDegrees>
              <LongitudeDegrees>-3.730748556554317474365234375</LongitudeDegrees>
            </Position>
            <AltitudeMeters>754.20001220703125</AltitudeMeters>
            <DistanceMeters>13387.757420233</DistanceMeters>
          </Trackpoint>
          <Trackpoint>
            <Time>2020-03-07T13:17:59.000Z</Time>
            <Position>
              <LatitudeDegrees>40.62310628592967987060546875</LatitudeDegrees>
              <LongitudeDegrees>-3.730719722807407379150390625</LongitudeDegrees>
            </Position>
            <AltitudeMeters>754.20001220703125</AltitudeMeters>
            <DistanceMeters>13396.670703161</DistanceMeters>
          </Trackpoint>
          <Trackpoint>
            <Time>2020-03-07T13:18:00.000Z</Time>
            <Position>
              <LatitudeDegrees>40.6231795437633991241455078125</LatitudeDegrees>
              <LongitudeDegrees>-3.73068979941308498382568359375</LongitudeDegrees>
            </Position>
            <AltitudeMeters>754.20001220703125</AltitudeMeters>
            <DistanceMeters>13405.207254977</DistanceMeters>
          </Trackpoint>
          <Trackpoint>
            <Time>2020-03-07T13:18:01.000Z</Time>
            <Position>
              <LatitudeDegrees>40.62324902974069118499755859375</LatitudeDegrees>
              <LongitudeDegrees>-3.7306602112948894500732421875</LongitudeDegrees>
            </Position>
            <AltitudeMeters>754.20001220703125</AltitudeMeters>
            <DistanceMeters>13413.33523377</DistanceMeters>
          </Trackpoint>
          <Trackpoint>
            <Time>2020-03-07T13:18:02.000Z</Time>
            <Position>
              <LatitudeDegrees>40.6233149953186511993408203125</LatitudeDegrees>
              <LongitudeDegrees>-3.73063179664313793182373046875</LongitudeDegrees>
            </Position>
            <AltitudeMeters>754.20001220703125</AltitudeMeters>
            <DistanceMeters>13421.059917915</DistanceMeters>
          </Trackpoint>
          <Trackpoint>
            <Time>2020-03-07T13:18:03.000Z</Time>
            <Position>
              <LatitudeDegrees>40.62337945215404033660888671875</LatitudeDegrees>
              <LongitudeDegrees>-3.7306080758571624755859375</LongitudeDegrees>
            </Position>
            <AltitudeMeters>754.4000244140625</AltitudeMeters>
            <DistanceMeters>13428.509066843</DistanceMeters>
          </Trackpoint>
          <Trackpoint>
            <Time>2020-03-07T13:18:04.000Z</Time>
            <Position>
              <LatitudeDegrees>40.62344298698008060455322265625</LatitudeDegrees>
              <LongitudeDegrees>-3.73059122823178768157958984375</LongitudeDegrees>
            </Position>
            <AltitudeMeters>754.5999755859375</AltitudeMeters>
            <DistanceMeters>13435.722339365</DistanceMeters>
          </Trackpoint>
          <Trackpoint>
            <Time>2020-03-07T13:18:05.000Z</Time>
            <Position>
              <LatitudeDegrees>40.623503588140010833740234375</LatitudeDegrees>
              <LongitudeDegrees>-3.73058066703379154205322265625</LongitudeDegrees>
            </Position>
            <AltitudeMeters>755.20001220703125</AltitudeMeters>
            <DistanceMeters>13442.525880491</DistanceMeters>
          </Trackpoint>
          <Trackpoint>
            <Time>2020-03-07T13:18:06.000Z</Time>
            <Position>
              <LatitudeDegrees>40.62356268055737018585205078125</LatitudeDegrees>
              <LongitudeDegrees>-3.73057429678738117218017578125</LongitudeDegrees>
            </Position>
            <AltitudeMeters>756.20001220703125</AltitudeMeters>
            <DistanceMeters>13449.125962972</DistanceMeters>
          </Trackpoint>
          <Trackpoint>
            <Time>2020-03-07T13:18:07.000Z</Time>
            <Position>
              <LatitudeDegrees>40.62362118624150753021240234375</LatitudeDegrees>
              <LongitudeDegrees>-3.73057127930223941802978515625</LongitudeDegrees>
            </Position>
            <AltitudeMeters>757</AltitudeMeters>
            <DistanceMeters>13455.642745117</DistanceMeters>
          </Trackpoint>
          <Trackpoint>
            <Time>2020-03-07T13:18:08.000Z</Time>
            <Position>
              <LatitudeDegrees>40.62367885373532772064208984375</LatitudeDegrees>
              <LongitudeDegrees>-3.73057262040674686431884765625</LongitudeDegrees>
            </Position>
            <AltitudeMeters>757.79998779296875</AltitudeMeters>
            <DistanceMeters>13462.062501256</DistanceMeters>
          </Trackpoint>
          <Trackpoint>
            <Time>2020-03-07T13:18:09.000Z</Time>
            <Position>
              <LatitudeDegrees>40.62373568303883075714111328125</LatitudeDegrees>
              <LongitudeDegrees>-3.73057697899639606475830078125</LongitudeDegrees>
            </Position>
            <AltitudeMeters>758.20001220703125</AltitudeMeters>
            <DistanceMeters>13468.398724095</DistanceMeters>
          </Trackpoint>
          <Trackpoint>
            <Time>2020-03-07T13:18:10.000Z</Time>
            <Position>
              <LatitudeDegrees>40.62379167415201663970947265625</LatitudeDegrees>
              <LongitudeDegrees>-3.73058267869055271148681640625</LongitudeDegrees>
            </Position>
            <AltitudeMeters>758.79998779296875</AltitudeMeters>
            <DistanceMeters>13474.64885295</DistanceMeters>
          </Trackpoint>
          <Trackpoint>
            <Time>2020-03-07T13:18:11.000Z</Time>
            <Position>
              <LatitudeDegrees>40.623847581446170806884765625</LatitudeDegrees>
              <LongitudeDegrees>-3.73058888129889965057373046875</LongitudeDegrees>
            </Position>
            <AltitudeMeters>759.4000244140625</AltitudeMeters>
            <DistanceMeters>13480.8932</DistanceMeters>
          </Trackpoint>
          <Trackpoint>
            <Time>2020-03-07T13:18:12.000Z</Time>
            <Position>
              <LatitudeDegrees>40.623902566730976104736328125</LatitudeDegrees>
              <LongitudeDegrees>-3.73059608973562717437744140625</LongitudeDegrees>
            </Position>
            <AltitudeMeters>759.79998779296875</AltitudeMeters>
            <DistanceMeters>13487.042830895</DistanceMeters>
          </Trackpoint>
          <Trackpoint>
            <Time>2020-03-07T13:18:13.000Z</Time>
            <Position>
              <LatitudeDegrees>40.62395788729190826416015625</LatitudeDegrees>
              <LongitudeDegrees>-3.7306028790771961212158203125</LongitudeDegrees>
            </Position>
            <AltitudeMeters>760.4000244140625</AltitudeMeters>
            <DistanceMeters>13493.226142602</DistanceMeters>
          </Trackpoint>
          <Trackpoint>
            <Time>2020-03-07T13:18:14.000Z</Time>
            <Position>
              <LatitudeDegrees>40.62401287257671356201171875</LatitudeDegrees>
              <LongitudeDegrees>-3.73060413636267185211181640625</LongitudeDegrees>
            </Position>
            <AltitudeMeters>761</AltitudeMeters>
            <DistanceMeters>13499.346335172</DistanceMeters>
          </Trackpoint>
          <Trackpoint>
            <Time>2020-03-07T13:18:15.000Z</Time>
            <Position>
              <LatitudeDegrees>40.62407095916569232940673828125</LatitudeDegrees>
              <LongitudeDegrees>-3.730599693953990936279296875</LongitudeDegrees>
            </Position>
            <AltitudeMeters>761.5999755859375</AltitudeMeters>
            <DistanceMeters>13505.823505477</DistanceMeters>
          </Trackpoint>
          <Trackpoint>
            <Time>2020-03-07T13:18:16.000Z</Time>
            <Position>
              <LatitudeDegrees>40.62413248233497142791748046875</LatitudeDegrees>
              <LongitudeDegrees>-3.7305921502411365509033203125</LongitudeDegrees>
            </Position>
            <AltitudeMeters>762</AltitudeMeters>
            <DistanceMeters>13512.70097161</DistanceMeters>
          </Trackpoint>
          <Trackpoint>
            <Time>2020-03-07T13:18:17.000Z</Time>
            <Position>
              <LatitudeDegrees>40.6241991184651851654052734375</LatitudeDegrees>
              <LongitudeDegrees>-3.73057798482477664947509765625</LongitudeDegrees>
            </Position>
            <AltitudeMeters>762.4000244140625</AltitudeMeters>
            <DistanceMeters>13520.213493009</DistanceMeters>
          </Trackpoint>
          <Trackpoint>
            <Time>2020-03-07T13:18:18.000Z</Time>
            <Position>
              <LatitudeDegrees>40.62426977790892124176025390625</LatitudeDegrees>
              <LongitudeDegrees>-3.73055568896234035491943359375</LongitudeDegrees>
            </Position>
            <AltitudeMeters>762.79998779296875</AltitudeMeters>
            <DistanceMeters>13528.300819124</DistanceMeters>
          </Trackpoint>
          <Trackpoint>
            <Time>2020-03-07T13:18:19.000Z</Time>
            <Position>
              <LatitudeDegrees>40.62434689141809940338134765625</LatitudeDegrees>
              <LongitudeDegrees>-3.73052836395800113677978515625</LongitudeDegrees>
            </Position>
            <AltitudeMeters>762.79998779296875</AltitudeMeters>
            <DistanceMeters>13537.188738381</DistanceMeters>
          </Trackpoint>
          <Trackpoint>
            <Time>2020-03-07T13:18:20.000Z</Time>
            <Position>
              <LatitudeDegrees>40.62442836351692676544189453125</LatitudeDegrees>
              <LongitudeDegrees>-3.73050070367753505706787109375</LongitudeDegrees>
            </Position>
            <AltitudeMeters>762.79998779296875</AltitudeMeters>
            <DistanceMeters>13546.553089525</DistanceMeters>
          </Trackpoint>
          <Trackpoint>
            <Time>2020-03-07T13:18:21.000Z</Time>
            <Position>
              <LatitudeDegrees>40.624515451490879058837890625</LatitudeDegrees>
              <LongitudeDegrees>-3.730477653443813323974609375</LongitudeDegrees>
            </Position>
            <AltitudeMeters>763</AltitudeMeters>
            <DistanceMeters>13556.440435356</DistanceMeters>
          </Trackpoint>
          <Trackpoint>
            <Time>2020-03-07T13:18:22.000Z</Time>
            <Position>
              <LatitudeDegrees>40.62460807152092456817626953125</LatitudeDegrees>
              <LongitudeDegrees>-3.7304610572755336761474609375</LongitudeDegrees>
            </Position>
            <AltitudeMeters>763</AltitudeMeters>
            <DistanceMeters>13566.844016291</DistanceMeters>
          </Trackpoint>
          <Trackpoint>
            <Time>2020-03-07T13:18:23.000Z</Time>
            <Position>
              <LatitudeDegrees>40.62470488250255584716796875</LatitudeDegrees>
              <LongitudeDegrees>-3.7304493226110935211181640625</LongitudeDegrees>
            </Position>
            <AltitudeMeters>763</AltitudeMeters>
            <DistanceMeters>13577.665385489</DistanceMeters>
          </Trackpoint>
          <Trackpoint>
            <Time>2020-03-07T13:18:24.000Z</Time>
            <Position>
              <LatitudeDegrees>40.62480546534061431884765625</LatitudeDegrees>
              <LongitudeDegrees>-3.7304432876408100128173828125</LongitudeDegrees>
            </Position>
            <AltitudeMeters>763</AltitudeMeters>
            <DistanceMeters>13588.872093444</DistanceMeters>
          </Trackpoint>
          <Trackpoint>
            <Time>2020-03-07T13:18:25.000Z</Time>
            <Position>
              <LatitudeDegrees>40.6249092333018779754638671875</LatitudeDegrees>
              <LongitudeDegrees>-3.730441443622112274169921875</LongitudeDegrees>
            </Position>
            <AltitudeMeters>763</AltitudeMeters>
            <DistanceMeters>13600.422433239</DistanceMeters>
          </Trackpoint>
          <Trackpoint>
            <Time>2020-03-07T13:18:26.000Z</Time>
            <Position>
              <LatitudeDegrees>40.6250135041773319244384765625</LatitudeDegrees>
              <LongitudeDegrees>-3.73044454492628574371337890625</LongitudeDegrees>
            </Position>
            <AltitudeMeters>763</AltitudeMeters>
            <DistanceMeters>13612.030482201</DistanceMeters>
          </Trackpoint>
          <Trackpoint>
            <Time>2020-03-07T13:18:27.000Z</Time>
            <Position>
              <LatitudeDegrees>40.62511668540537357330322265625</LatitudeDegrees>
              <LongitudeDegrees>-3.7304546870291233062744140625</LongitudeDegrees>
            </Position>
            <AltitudeMeters>762.4000244140625</AltitudeMeters>
            <DistanceMeters>13623.546371339</DistanceMeters>
          </Trackpoint>
          <Trackpoint>
            <Time>2020-03-07T13:18:28.000Z</Time>
            <Position>
              <LatitudeDegrees>40.62521718442440032958984375</LatitudeDegrees>
              <LongitudeDegrees>-3.730470277369022369384765625</LongitudeDegrees>
            </Position>
            <AltitudeMeters>761.5999755859375</AltitudeMeters>
            <DistanceMeters>13634.809342257</DistanceMeters>
          </Trackpoint>
          <Trackpoint>
            <Time>2020-03-07T13:18:29.000Z</Time>
            <Position>
              <LatitudeDegrees>40.6253157556056976318359375</LatitudeDegrees>
              <LongitudeDegrees>-3.7304875440895557403564453125</LongitudeDegrees>
            </Position>
            <AltitudeMeters>760.79998779296875</AltitudeMeters>
            <DistanceMeters>13645.877405187</DistanceMeters>
          </Trackpoint>
          <Trackpoint>
            <Time>2020-03-07T13:18:30.000Z</Time>
            <Position>
              <LatitudeDegrees>40.62541206367313861846923828125</LatitudeDegrees>
              <LongitudeDegrees>-3.73050372116267681121826171875</LongitudeDegrees>
            </Position>
            <AltitudeMeters>760</AltitudeMeters>
            <DistanceMeters>13656.683743539</DistanceMeters>
          </Trackpoint>
          <Trackpoint>
            <Time>2020-03-07T13:18:31.000Z</Time>
            <Position>
              <LatitudeDegrees>40.6255060248076915740966796875</LatitudeDegrees>
              <LongitudeDegrees>-3.73051880858838558197021484375</LongitudeDegrees>
            </Position>
            <AltitudeMeters>759.20001220703125</AltitudeMeters>
            <DistanceMeters>13667.219288122</DistanceMeters>
          </Trackpoint>
          <Trackpoint>
            <Time>2020-03-07T13:18:32.000Z</Time>
            <Position>
              <LatitudeDegrees>40.62559797428548336029052734375</LatitudeDegrees>
              <LongitudeDegrees>-3.730534650385379791259765625</LongitudeDegrees>
            </Position>
            <AltitudeMeters>758.4000244140625</AltitudeMeters>
            <DistanceMeters>13677.54051924</DistanceMeters>
          </Trackpoint>
          <Trackpoint>
            <Time>2020-03-07T13:18:33.000Z</Time>
            <Position>
              <LatitudeDegrees>40.62568849883973598480224609375</LatitudeDegrees>
              <LongitudeDegrees>-3.73055200092494487762451171875</LongitudeDegrees>
            </Position>
            <AltitudeMeters>757.5999755859375</AltitudeMeters>
            <DistanceMeters>13687.722133925</DistanceMeters>
          </Trackpoint>
          <Trackpoint>
            <Time>2020-03-07T13:18:34.000Z</Time>
            <Position>
              <LatitudeDegrees>40.6257775984704494476318359375</LatitudeDegrees>
              <LongitudeDegrees>-3.730569519102573394775390625</LongitudeDegrees>
            </Position>
            <AltitudeMeters>757</AltitudeMeters>
            <DistanceMeters>13697.748690714</DistanceMeters>
          </Trackpoint>
          <Trackpoint>
            <Time>2020-03-07T13:18:35.000Z</Time>
            <Position>
              <LatitudeDegrees>40.6258671171963214874267578125</LatitudeDegrees>
              <LongitudeDegrees>-3.7305874563753604888916015625</LongitudeDegrees>
            </Position>
            <AltitudeMeters>756.5999755859375</AltitudeMeters>
            <DistanceMeters>13707.826451862</DistanceMeters>
          </Trackpoint>
          <Trackpoint>
            <Time>2020-03-07T13:18:36.000Z</Time>
            <Position>
              <LatitudeDegrees>40.6259579770267009735107421875</LatitudeDegrees>
              <LongitudeDegrees>-3.730606399476528167724609375</LongitudeDegrees>
            </Position>
            <AltitudeMeters>756.4000244140625</AltitudeMeters>
            <DistanceMeters>13718.065111806</DistanceMeters>
          </Trackpoint>
          <Trackpoint>
            <Time>2020-03-07T13:18:37.000Z</Time>
            <Position>
              <LatitudeDegrees>40.62605076469480991363525390625</LatitudeDegrees>
              <LongitudeDegrees>-3.730622828006744384765625</LongitudeDegrees>
            </Position>
            <AltitudeMeters>756.20001220703125</AltitudeMeters>
            <DistanceMeters>13728.485171267</DistanceMeters>
          </Trackpoint>
          <Trackpoint>
            <Time>2020-03-07T13:18:38.000Z</Time>
            <Position>
              <LatitudeDegrees>40.62614615075290203094482421875</LatitudeDegrees>
              <LongitudeDegrees>-3.7306280247867107391357421875</LongitudeDegrees>
            </Position>
            <AltitudeMeters>756.20001220703125</AltitudeMeters>
            <DistanceMeters>13739.110755758</DistanceMeters>
          </Trackpoint>
          <Trackpoint>
            <Time>2020-03-07T13:18:39.000Z</Time>
            <Position>
              <LatitudeDegrees>40.62624044716358184814453125</LatitudeDegrees>
              <LongitudeDegrees>-3.730612434446811676025390625</LongitudeDegrees>
            </Position>
            <AltitudeMeters>756</AltitudeMeters>
            <DistanceMeters>13749.688641993</DistanceMeters>
          </Trackpoint>
          <Trackpoint>
            <Time>2020-03-07T13:18:40.000Z</Time>
            <Position>
              <LatitudeDegrees>40.62633608467876911163330078125</LatitudeDegrees>
              <LongitudeDegrees>-3.7305812537670135498046875</LongitudeDegrees>
            </Position>
            <AltitudeMeters>756</AltitudeMeters>
            <DistanceMeters>13760.654247217</DistanceMeters>
          </Trackpoint>
          <Trackpoint>
            <Time>2020-03-07T13:18:41.000Z</Time>
            <Position>
              <LatitudeDegrees>40.62643197365105152130126953125</LatitudeDegrees>
              <LongitudeDegrees>-3.7305411882698535919189453125</LongitudeDegrees>
            </Position>
            <AltitudeMeters>755.79998779296875</AltitudeMeters>
            <DistanceMeters>13771.850475207</DistanceMeters>
          </Trackpoint>
          <Trackpoint>
            <Time>2020-03-07T13:18:42.000Z</Time>
            <Position>
              <LatitudeDegrees>40.62652744352817535400390625</LatitudeDegrees>
              <LongitudeDegrees>-3.7305049784481525421142578125</LongitudeDegrees>
            </Position>
            <AltitudeMeters>755.79998779296875</AltitudeMeters>
            <DistanceMeters>13782.907926769</DistanceMeters>
          </Trackpoint>
          <Trackpoint>
            <Time>2020-03-07T13:18:43.000Z</Time>
            <Position>
              <LatitudeDegrees>40.62662132084369659423828125</LatitudeDegrees>
              <LongitudeDegrees>-3.73048343695700168609619140625</LongitudeDegrees>
            </Position>
            <AltitudeMeters>755.5999755859375</AltitudeMeters>
            <DistanceMeters>13793.514372561</DistanceMeters>
          </Trackpoint>
          <Trackpoint>
            <Time>2020-03-07T13:18:44.000Z</Time>
            <Position>
              <LatitudeDegrees>40.6267157010734081268310546875</LatitudeDegrees>
              <LongitudeDegrees>-3.73048670589923858642578125</LongitudeDegrees>
            </Position>
            <AltitudeMeters>755.4000244140625</AltitudeMeters>
            <DistanceMeters>13804.023313274</DistanceMeters>
          </Trackpoint>
          <Trackpoint>
            <Time>2020-03-07T13:18:45.000Z</Time>
            <Position>
              <LatitudeDegrees>40.626811087131500244140625</LatitudeDegrees>
              <LongitudeDegrees>-3.73050238005816936492919921875</LongitudeDegrees>
            </Position>
            <AltitudeMeters>755.4000244140625</AltitudeMeters>
            <DistanceMeters>13814.722156623</DistanceMeters>
          </Trackpoint>
          <Trackpoint>
            <Time>2020-03-07T13:18:46.000Z</Time>
            <Position>
              <LatitudeDegrees>40.62690437771379947662353515625</LatitudeDegrees>
              <LongitudeDegrees>-3.7305210717022418975830078125</LongitudeDegrees>
            </Position>
            <AltitudeMeters>755.20001220703125</AltitudeMeters>
            <DistanceMeters>13825.225080685</DistanceMeters>
          </Trackpoint>
          <Trackpoint>
            <Time>2020-03-07T13:18:47.000Z</Time>
            <Position>
              <LatitudeDegrees>40.62699540518224239349365234375</LatitudeDegrees>
              <LongitudeDegrees>-3.73054009862244129180908203125</LongitudeDegrees>
            </Position>
            <AltitudeMeters>755.20001220703125</AltitudeMeters>
            <DistanceMeters>13835.483565508</DistanceMeters>
          </Trackpoint>
          <Trackpoint>
            <Time>2020-03-07T13:18:48.000Z</Time>
            <Position>
              <LatitudeDegrees>40.6270855106413364410400390625</LatitudeDegrees>
              <LongitudeDegrees>-3.73055635951459407806396484375</LongitudeDegrees>
            </Position>
            <AltitudeMeters>755</AltitudeMeters>
            <DistanceMeters>13845.605583456</DistanceMeters>
          </Trackpoint>
          <Trackpoint>
            <Time>2020-03-07T13:18:49.000Z</Time>
            <Position>
              <LatitudeDegrees>40.627172850072383880615234375</LatitudeDegrees>
              <LongitudeDegrees>-3.7305696867406368255615234375</LongitudeDegrees>
            </Position>
            <AltitudeMeters>754.79998779296875</AltitudeMeters>
            <DistanceMeters>13855.391951054</DistanceMeters>
          </Trackpoint>
          <Trackpoint>
            <Time>2020-03-07T13:18:50.000Z</Time>
            <Position>
              <LatitudeDegrees>40.62725859694182872772216796875</LatitudeDegrees>
              <LongitudeDegrees>-3.7305810861289501190185546875</LongitudeDegrees>
            </Position>
            <AltitudeMeters>754.79998779296875</AltitudeMeters>
            <DistanceMeters>13864.984473087</DistanceMeters>
          </Trackpoint>
          <Trackpoint>
            <Time>2020-03-07T13:18:51.000Z</Time>
            <Position>
              <LatitudeDegrees>40.62734157778322696685791015625</LatitudeDegrees>
              <LongitudeDegrees>-3.73059131205081939697265625</LongitudeDegrees>
            </Position>
            <AltitudeMeters>754.79998779296875</AltitudeMeters>
            <DistanceMeters>13874.261144285</DistanceMeters>
          </Trackpoint>
          <Trackpoint>
            <Time>2020-03-07T13:18:52.000Z</Time>
            <Position>
              <LatitudeDegrees>40.627422630786895751953125</LatitudeDegrees>
              <LongitudeDegrees>-3.73060128651559352874755859375</LongitudeDegrees>
            </Position>
            <AltitudeMeters>754.79998779296875</AltitudeMeters>
            <DistanceMeters>13883.321132965</DistanceMeters>
          </Trackpoint>
          <Trackpoint>
            <Time>2020-03-07T13:18:53.000Z</Time>
            <Position>
              <LatitudeDegrees>40.62750435434281826019287109375</LatitudeDegrees>
              <LongitudeDegrees>-3.73061008751392364501953125</LongitudeDegrees>
            </Position>
            <AltitudeMeters>754.5999755859375</AltitudeMeters>
            <DistanceMeters>13892.447656132</DistanceMeters>
          </Trackpoint>
          <Trackpoint>
            <Time>2020-03-07T13:18:54.000Z</Time>
            <Position>
              <LatitudeDegrees>40.62758314423263072967529296875</LatitudeDegrees>
              <LongitudeDegrees>-3.73061704449355602264404296875</LongitudeDegrees>
            </Position>
            <AltitudeMeters>754.5999755859375</AltitudeMeters>
            <DistanceMeters>13901.236471405</DistanceMeters>
          </Trackpoint>
          <Trackpoint>
            <Time>2020-03-07T13:18:55.000Z</Time>
            <Position>
              <LatitudeDegrees>40.62765975482761859893798828125</LatitudeDegrees>
              <LongitudeDegrees>-3.7306226603686809539794921875</LongitudeDegrees>
            </Position>
            <AltitudeMeters>754.5999755859375</AltitudeMeters>
            <DistanceMeters>13909.77619607</DistanceMeters>
          </Trackpoint>
          <Trackpoint>
            <Time>2020-03-07T13:18:56.000Z</Time>
            <Position>
              <LatitudeDegrees>40.62773485668003559112548828125</LatitudeDegrees>
              <LongitudeDegrees>-3.7306260131299495697021484375</LongitudeDegrees>
            </Position>
            <AltitudeMeters>754.5999755859375</AltitudeMeters>
            <DistanceMeters>13918.140166552</DistanceMeters>
          </Trackpoint>
          <Trackpoint>
            <Time>2020-03-07T13:18:57.000Z</Time>
            <Position>
              <LatitudeDegrees>40.627808533608913421630859375</LatitudeDegrees>
              <LongitudeDegrees>-3.73062760569155216217041015625</LongitudeDegrees>
            </Position>
            <AltitudeMeters>754.5999755859375</AltitudeMeters>
            <DistanceMeters>13926.341693204</DistanceMeters>
          </Trackpoint>
          <Trackpoint>
            <Time>2020-03-07T13:18:58.000Z</Time>
            <Position>
              <LatitudeDegrees>40.62788019888103008270263671875</LatitudeDegrees>
              <LongitudeDegrees>-3.73062710277736186981201171875</LongitudeDegrees>
            </Position>
            <AltitudeMeters>754.79998779296875</AltitudeMeters>
            <DistanceMeters>13934.318278854</DistanceMeters>
          </Trackpoint>
          <Trackpoint>
            <Time>2020-03-07T13:18:59.000Z</Time>
            <Position>
              <LatitudeDegrees>40.627950690686702728271484375</LatitudeDegrees>
              <LongitudeDegrees>-3.73062618076801300048828125</LongitudeDegrees>
            </Position>
            <AltitudeMeters>754.79998779296875</AltitudeMeters>
            <DistanceMeters>13942.164746925</DistanceMeters>
          </Trackpoint>
          <Trackpoint>
            <Time>2020-03-07T13:19:00.000Z</Time>
            <Position>
              <LatitudeDegrees>40.62802034430205821990966796875</LatitudeDegrees>
              <LongitudeDegrees>-3.7306253425776958465576171875</LongitudeDegrees>
            </Position>
            <AltitudeMeters>755.20001220703125</AltitudeMeters>
            <DistanceMeters>13949.918600739</DistanceMeters>
          </Trackpoint>
          <Trackpoint>
            <Time>2020-03-07T13:19:01.000Z</Time>
            <Position>
              <LatitudeDegrees>40.62808957882225513458251953125</LatitudeDegrees>
              <LongitudeDegrees>-3.73062475584447383880615234375</LongitudeDegrees>
            </Position>
            <AltitudeMeters>755.4000244140625</AltitudeMeters>
            <DistanceMeters>13957.624558349</DistanceMeters>
          </Trackpoint>
          <Trackpoint>
            <Time>2020-03-07T13:19:02.000Z</Time>
            <Position>
              <LatitudeDegrees>40.62815797515213489532470703125</LatitudeDegrees>
              <LongitudeDegrees>-3.730627186596393585205078125</LongitudeDegrees>
            </Position>
            <AltitudeMeters>755.5999755859375</AltitudeMeters>
            <DistanceMeters>13965.240343338</DistanceMeters>
          </Trackpoint>
          <Trackpoint>
            <Time>2020-03-07T13:19:03.000Z</Time>
            <Position>
              <LatitudeDegrees>40.62822586856782436370849609375</LatitudeDegrees>
              <LongitudeDegrees>-3.730635903775691986083984375</LongitudeDegrees>
            </Position>
            <AltitudeMeters>756</AltitudeMeters>
            <DistanceMeters>13972.83297187</DistanceMeters>
          </Trackpoint>
          <Trackpoint>
            <Time>2020-03-07T13:19:04.000Z</Time>
            <Position>
              <LatitudeDegrees>40.62829342670738697052001953125</LatitudeDegrees>
              <LongitudeDegrees>-3.73065107502043247222900390625</LongitudeDegrees>
            </Position>
            <AltitudeMeters>756.4000244140625</AltitudeMeters>
            <DistanceMeters>13980.461196605</DistanceMeters>
          </Trackpoint>
          <Trackpoint>
            <Time>2020-03-07T13:19:05.000Z</Time>
            <Position>
              <LatitudeDegrees>40.628360398113727569580078125</LatitudeDegrees>
              <LongitudeDegrees>-3.730666078627109527587890625</LongitudeDegrees>
            </Position>
            <AltitudeMeters>756.79998779296875</AltitudeMeters>
            <DistanceMeters>13988.021645261</DistanceMeters>
          </Trackpoint>
          <Trackpoint>
            <Time>2020-03-07T13:19:06.000Z</Time>
            <Position>
              <LatitudeDegrees>40.62842787243425846099853515625</LatitudeDegrees>
              <LongitudeDegrees>-3.7306763045489788055419921875</LongitudeDegrees>
            </Position>
            <AltitudeMeters>757.20001220703125</AltitudeMeters>
            <DistanceMeters>13995.58089944</DistanceMeters>
          </Trackpoint>
          <Trackpoint>
            <Time>2020-03-07T13:19:07.000Z</Time>
            <Position>
              <LatitudeDegrees>40.62849492765963077545166015625</LatitudeDegrees>
              <LongitudeDegrees>-3.7306806631386280059814453125</LongitudeDegrees>
            </Position>
            <AltitudeMeters>757.4000244140625</AltitudeMeters>
            <DistanceMeters>14003.053045226</DistanceMeters>
          </Trackpoint>
          <Trackpoint>
            <Time>2020-03-07T13:19:08.000Z</Time>
            <Position>
              <LatitudeDegrees>40.62856198288500308990478515625</LatitudeDegrees>
              <LongitudeDegrees>-3.73067923821508884429931640625</LongitudeDegrees>
            </Position>
            <AltitudeMeters>757.5999755859375</AltitudeMeters>
            <DistanceMeters>14010.51733164</DistanceMeters>
          </Trackpoint>
          <Trackpoint>
            <Time>2020-03-07T13:19:09.000Z</Time>
            <Position>
              <LatitudeDegrees>40.6286294572055339813232421875</LatitudeDegrees>
              <LongitudeDegrees>-3.730671107769012451171875</LongitudeDegrees>
            </Position>
            <AltitudeMeters>758</AltitudeMeters>
            <DistanceMeters>14018.058645944</DistanceMeters>
          </Trackpoint>
          <Trackpoint>
            <Time>2020-03-07T13:19:10.000Z</Time>
            <Position>
              <LatitudeDegrees>40.6286968477070331573486328125</LatitudeDegrees>
              <LongitudeDegrees>-3.7306563556194305419921875</LongitudeDegrees>
            </Position>
            <AltitudeMeters>758.4000244140625</AltitudeMeters>
            <DistanceMeters>14025.661970835</DistanceMeters>
          </Trackpoint>
          <Trackpoint>
            <Time>2020-03-07T13:19:11.000Z</Time>
            <Position>
              <LatitudeDegrees>40.62876398675143718719482421875</LatitudeDegrees>
              <LongitudeDegrees>-3.73063716106116771697998046875</LongitudeDegrees>
            </Position>
            <AltitudeMeters>758.79998779296875</AltitudeMeters>
            <DistanceMeters>14033.309112461</DistanceMeters>
          </Trackpoint>
          <Trackpoint>
            <Time>2020-03-07T13:19:12.000Z</Time>
            <Position>
              <LatitudeDegrees>40.6288302876055240631103515625</LatitudeDegrees>
              <LongitudeDegrees>-3.7306149490177631378173828125</LongitudeDegrees>
            </Position>
            <AltitudeMeters>759</AltitudeMeters>
            <DistanceMeters>14040.923118685</DistanceMeters>
          </Trackpoint>
          <Trackpoint>
            <Time>2020-03-07T13:19:13.000Z</Time>
            <Position>
              <LatitudeDegrees>40.62889776192605495452880859375</LatitudeDegrees>
              <LongitudeDegrees>-3.73059055767953395843505859375</LongitudeDegrees>
            </Position>
            <AltitudeMeters>759.20001220703125</AltitudeMeters>
            <DistanceMeters>14048.710672434</DistanceMeters>
          </Trackpoint>
          <Trackpoint>
            <Time>2020-03-07T13:19:14.000Z</Time>
            <Position>
              <LatitudeDegrees>40.62896582297980785369873046875</LatitudeDegrees>
              <LongitudeDegrees>-3.7305663339793682098388671875</LongitudeDegrees>
            </Position>
            <AltitudeMeters>759.4000244140625</AltitudeMeters>
            <DistanceMeters>14056.558291267</DistanceMeters>
          </Trackpoint>
          <Trackpoint>
            <Time>2020-03-07T13:19:15.000Z</Time>
            <Position>
              <LatitudeDegrees>40.629034973680973052978515625</LatitudeDegrees>
              <LongitudeDegrees>-3.73054345138370990753173828125</LongitudeDegrees>
            </Position>
            <AltitudeMeters>759.4000244140625</AltitudeMeters>
            <DistanceMeters>14064.494017643</DistanceMeters>
          </Trackpoint>
          <Trackpoint>
            <Time>2020-03-07T13:19:16.000Z</Time>
            <Position>
              <LatitudeDegrees>40.629104711115360260009765625</LatitudeDegrees>
              <LongitudeDegrees>-3.7305237539112567901611328125</LongitudeDegrees>
            </Position>
            <AltitudeMeters>759.5999755859375</AltitudeMeters>
            <DistanceMeters>14072.432019497</DistanceMeters>
          </Trackpoint>
          <Trackpoint>
            <Time>2020-03-07T13:19:17.000Z</Time>
            <Position>
              <LatitudeDegrees>40.6291749514639377593994140625</LatitudeDegrees>
              <LongitudeDegrees>-3.73050489462912082672119140625</LongitudeDegrees>
            </Position>
            <AltitudeMeters>759.5999755859375</AltitudeMeters>
            <DistanceMeters>14080.410303075</DistanceMeters>
          </Trackpoint>
          <Trackpoint>
            <Time>2020-03-07T13:19:18.000Z</Time>
            <Position>
              <LatitudeDegrees>40.6292451918125152587890625</LatitudeDegrees>
              <LongitudeDegrees>-3.73048746027052402496337890625</LongitudeDegrees>
            </Position>
            <AltitudeMeters>760</AltitudeMeters>
            <DistanceMeters>14088.36535026</DistanceMeters>
          </Trackpoint>
          <Trackpoint>
            <Time>2020-03-07T13:19:19.000Z</Time>
            <Position>
              <LatitudeDegrees>40.629315264523029327392578125</LatitudeDegrees>
              <LongitudeDegrees>-3.73047195374965667724609375</LongitudeDegrees>
            </Position>
            <AltitudeMeters>760</AltitudeMeters>
            <DistanceMeters>14096.273719842</DistanceMeters>
          </Trackpoint>
          <Trackpoint>
            <Time>2020-03-07T13:19:20.000Z</Time>
            <Position>
              <LatitudeDegrees>40.62938508577644824981689453125</LatitudeDegrees>
              <LongitudeDegrees>-3.73045778833329677581787109375</LongitudeDegrees>
            </Position>
            <AltitudeMeters>760</AltitudeMeters>
            <DistanceMeters>14104.13628325</DistanceMeters>
          </Trackpoint>
          <Trackpoint>
            <Time>2020-03-07T13:19:21.000Z</Time>
            <Position>
              <LatitudeDegrees>40.629454068839550018310546875</LatitudeDegrees>
              <LongitudeDegrees>-3.7304459698498249053955078125</LongitudeDegrees>
            </Position>
            <AltitudeMeters>760</AltitudeMeters>
            <DistanceMeters>14111.879648641</DistanceMeters>
          </Trackpoint>
          <Trackpoint>
            <Time>2020-03-07T13:19:22.000Z</Time>
            <Position>
              <LatitudeDegrees>40.6295219622552394866943359375</LatitudeDegrees>
              <LongitudeDegrees>-3.73043599538505077362060546875</LongitudeDegrees>
            </Position>
            <AltitudeMeters>760</AltitudeMeters>
            <DistanceMeters>14119.482973532</DistanceMeters>
          </Trackpoint>
          <Trackpoint>
            <Time>2020-03-07T13:19:23.000Z</Time>
            <Position>
              <LatitudeDegrees>40.62958918511867523193359375</LatitudeDegrees>
              <LongitudeDegrees>-3.73042560182511806488037109375</LongitudeDegrees>
            </Position>
            <AltitudeMeters>760</AltitudeMeters>
            <DistanceMeters>14127.016500625</DistanceMeters>
          </Trackpoint>
          <Trackpoint>
            <Time>2020-03-07T13:19:24.000Z</Time>
            <Position>
              <LatitudeDegrees>40.6296555697917938232421875</LatitudeDegrees>
              <LongitudeDegrees>-3.7304157949984073638916015625</LongitudeDegrees>
            </Position>
            <AltitudeMeters>760</AltitudeMeters>
            <DistanceMeters>14134.451695847</DistanceMeters>
          </Trackpoint>
          <Trackpoint>
            <Time>2020-03-07T13:19:25.000Z</Time>
            <Position>
              <LatitudeDegrees>40.6297217868268489837646484375</LatitudeDegrees>
              <LongitudeDegrees>-3.7304074130952358245849609375</LongitudeDegrees>
            </Position>
            <AltitudeMeters>760</AltitudeMeters>
            <DistanceMeters>14141.85585644</DistanceMeters>
          </Trackpoint>
          <Trackpoint>
            <Time>2020-03-07T13:19:26.000Z</Time>
            <Position>
              <LatitudeDegrees>40.62978724949061870574951171875</LatitudeDegrees>
              <LongitudeDegrees>-3.73040028847754001617431640625</LongitudeDegrees>
            </Position>
            <AltitudeMeters>760</AltitudeMeters>
            <DistanceMeters>14149.166122673</DistanceMeters>
          </Trackpoint>
          <Trackpoint>
            <Time>2020-03-07T13:19:27.000Z</Time>
            <Position>
              <LatitudeDegrees>40.6298528797924518585205078125</LatitudeDegrees>
              <LongitudeDegrees>-3.73039207421243190765380859375</LongitudeDegrees>
            </Position>
            <AltitudeMeters>760.4000244140625</AltitudeMeters>
            <DistanceMeters>14156.504744881</DistanceMeters>
          </Trackpoint>
          <Trackpoint>
            <Time>2020-03-07T13:19:28.000Z</Time>
            <Position>
              <LatitudeDegrees>40.629917420446872711181640625</LatitudeDegrees>
              <LongitudeDegrees>-3.73038419522345066070556640625</LongitudeDegrees>
            </Position>
            <AltitudeMeters>760.5999755859375</AltitudeMeters>
            <DistanceMeters>14163.719269163</DistanceMeters>
          </Trackpoint>
          <Trackpoint>
            <Time>2020-03-07T13:19:29.000Z</Time>
            <Position>
              <LatitudeDegrees>40.62998103909194469451904296875</LatitudeDegrees>
              <LongitudeDegrees>-3.73037648387253284454345703125</LongitudeDegrees>
            </Position>
            <AltitudeMeters>760.5999755859375</AltitudeMeters>
            <DistanceMeters>14170.829147357</DistanceMeters>
          </Trackpoint>
          <Trackpoint>
            <Time>2020-03-07T13:19:30.000Z</Time>
            <Position>
              <LatitudeDegrees>40.6300446577370166778564453125</LatitudeDegrees>
              <LongitudeDegrees>-3.73036676086485385894775390625</LongitudeDegrees>
            </Position>
            <AltitudeMeters>760.79998779296875</AltitudeMeters>
            <DistanceMeters>14177.957417845</DistanceMeters>
          </Trackpoint>
          <Trackpoint>
            <Time>2020-03-07T13:19:31.000Z</Time>
            <Position>
              <LatitudeDegrees>40.63010810874402523040771484375</LatitudeDegrees>
              <LongitudeDegrees>-3.73035687021911144256591796875</LongitudeDegrees>
            </Position>
            <AltitudeMeters>761.20001220703125</AltitudeMeters>
            <DistanceMeters>14185.068566</DistanceMeters>
          </Trackpoint>
          <Trackpoint>
            <Time>2020-03-07T13:19:32.000Z</Time>
            <Position>
              <LatitudeDegrees>40.6301717273890972137451171875</LatitudeDegrees>
              <LongitudeDegrees>-3.7303479015827178955078125</LongitudeDegrees>
            </Position>
            <AltitudeMeters>761.20001220703125</AltitudeMeters>
            <DistanceMeters>14192.189231646</DistanceMeters>
          </Trackpoint>
          <Trackpoint>
            <Time>2020-03-07T13:19:33.000Z</Time>
            <Position>
              <LatitudeDegrees>40.630235262215137481689453125</LatitudeDegrees>
              <LongitudeDegrees>-3.730338178575038909912109375</LongitudeDegrees>
            </Position>
            <AltitudeMeters>761.5999755859375</AltitudeMeters>
            <DistanceMeters>14199.307994811</DistanceMeters>
          </Trackpoint>
          <Trackpoint>
            <Time>2020-03-07T13:19:34.000Z</Time>
            <Position>
              <LatitudeDegrees>40.63029837794601917266845703125</LatitudeDegrees>
              <LongitudeDegrees>-3.73032904230058193206787109375</LongitudeDegrees>
            </Position>
            <AltitudeMeters>762</AltitudeMeters>
            <DistanceMeters>14206.37583627</DistanceMeters>
          </Trackpoint>
          <Trackpoint>
            <Time>2020-03-07T13:19:35.000Z</Time>
            <Position>
              <LatitudeDegrees>40.63036124221980571746826171875</LatitudeDegrees>
              <LongitudeDegrees>-3.730318062007427215576171875</LongitudeDegrees>
            </Position>
            <AltitudeMeters>762.20001220703125</AltitudeMeters>
            <DistanceMeters>14213.433449299</DistanceMeters>
          </Trackpoint>
          <Trackpoint>
            <Time>2020-03-07T13:19:36.000Z</Time>
            <Position>
              <LatitudeDegrees>40.63042444176971912384033203125</LatitudeDegrees>
              <LongitudeDegrees>-3.73030590824782848358154296875</LongitudeDegrees>
            </Position>
            <AltitudeMeters>762.20001220703125</AltitudeMeters>
            <DistanceMeters>14220.542057305</DistanceMeters>
          </Trackpoint>
          <Trackpoint>
            <Time>2020-03-07T13:19:37.000Z</Time>
            <Position>
              <LatitudeDegrees>40.63048713840544223785400390625</LatitudeDegrees>
              <LongitudeDegrees>-3.73029400594532489776611328125</LongitudeDegrees>
            </Position>
            <AltitudeMeters>762.4000244140625</AltitudeMeters>
            <DistanceMeters>14227.591989272</DistanceMeters>
          </Trackpoint>
          <Trackpoint>
            <Time>2020-03-07T13:19:38.000Z</Time>
            <Position>
              <LatitudeDegrees>40.630550086498260498046875</LatitudeDegrees>
              <LongitudeDegrees>-3.7302823550999164581298828125</LongitudeDegrees>
            </Position>
            <AltitudeMeters>762.4000244140625</AltitudeMeters>
            <DistanceMeters>14234.66749235</DistanceMeters>
          </Trackpoint>
          <Trackpoint>
            <Time>2020-03-07T13:19:39.000Z</Time>
            <Position>
              <LatitudeDegrees>40.63061253167688846588134765625</LatitudeDegrees>
              <LongitudeDegrees>-3.73026969842612743377685546875</LongitudeDegrees>
            </Position>
            <AltitudeMeters>762.5999755859375</AltitudeMeters>
            <DistanceMeters>14241.699469214</DistanceMeters>
          </Trackpoint>
          <Trackpoint>
            <Time>2020-03-07T13:19:40.000Z</Time>
            <Position>
              <LatitudeDegrees>40.63067489303648471832275390625</LatitudeDegrees>
              <LongitudeDegrees>-3.73025829903781414031982421875</LongitudeDegrees>
            </Position>
            <AltitudeMeters>762.5999755859375</AltitudeMeters>
            <DistanceMeters>14248.70700485</DistanceMeters>
          </Trackpoint>
          <Trackpoint>
            <Time>2020-03-07T13:19:41.000Z</Time>
            <Position>
              <LatitudeDegrees>40.63073608092963695526123046875</LatitudeDegrees>
              <LongitudeDegrees>-3.7302481569349765777587890625</LongitudeDegrees>
            </Position>
            <AltitudeMeters>762.79998779296875</AltitudeMeters>
            <DistanceMeters>14255.571328479</DistanceMeters>
          </Trackpoint>
          <Trackpoint>
            <Time>2020-03-07T13:19:42.000Z</Time>
            <Position>
              <LatitudeDegrees>40.63079643063247203826904296875</LatitudeDegrees>
              <LongitudeDegrees>-3.73023818247020244598388671875</LongitudeDegrees>
            </Position>
            <AltitudeMeters>763</AltitudeMeters>
            <DistanceMeters>14262.340272849</DistanceMeters>
          </Trackpoint>
          <Trackpoint>
            <Time>2020-03-07T13:19:43.000Z</Time>
            <Position>
              <LatitudeDegrees>40.6308571994304656982421875</LatitudeDegrees>
              <LongitudeDegrees>-3.73022695071995258331298828125</LongitudeDegrees>
            </Position>
            <AltitudeMeters>763.5999755859375</AltitudeMeters>
            <DistanceMeters>14269.170307615</DistanceMeters>
          </Trackpoint>
          <Trackpoint>
            <Time>2020-03-07T13:19:44.000Z</Time>
            <Position>
              <LatitudeDegrees>40.63091754913330078125</LatitudeDegrees>
              <LongitudeDegrees>-3.7302152998745441436767578125</LongitudeDegrees>
            </Position>
            <AltitudeMeters>764</AltitudeMeters>
            <DistanceMeters>14275.959233169</DistanceMeters>
          </Trackpoint>
          <Trackpoint>
            <Time>2020-03-07T13:19:45.000Z</Time>
            <Position>
              <LatitudeDegrees>40.63097831793129444122314453125</LatitudeDegrees>
              <LongitudeDegrees>-3.73020431958138942718505859375</LongitudeDegrees>
            </Position>
            <AltitudeMeters>764.4000244140625</AltitudeMeters>
            <DistanceMeters>14282.786623197</DistanceMeters>
          </Trackpoint>
          <Trackpoint>
            <Time>2020-03-07T13:19:46.000Z</Time>
            <Position>
              <LatitudeDegrees>40.631039924919605255126953125</LatitudeDegrees>
              <LongitudeDegrees>-3.7301948480308055877685546875</LongitudeDegrees>
            </Position>
            <AltitudeMeters>764.5999755859375</AltitudeMeters>
            <DistanceMeters>14289.690299281</DistanceMeters>
          </Trackpoint>
          <Trackpoint>
            <Time>2020-03-07T13:19:47.000Z</Time>
            <Position>
              <LatitudeDegrees>40.63110329210758209228515625</LatitudeDegrees>
              <LongitudeDegrees>-3.73018571175634860992431640625</LongitudeDegrees>
            </Position>
            <AltitudeMeters>764.79998779296875</AltitudeMeters>
            <DistanceMeters>14296.784920208</DistanceMeters>
          </Trackpoint>
          <Trackpoint>
            <Time>2020-03-07T13:19:48.000Z</Time>
            <Position>
              <LatitudeDegrees>40.6311681680381298065185546875</LatitudeDegrees>
              <LongitudeDegrees>-3.73017665930092334747314453125</LongitudeDegrees>
            </Position>
            <AltitudeMeters>764.79998779296875</AltitudeMeters>
            <DistanceMeters>14304.045607936</DistanceMeters>
          </Trackpoint>
          <Trackpoint>
            <Time>2020-03-07T13:19:49.000Z</Time>
            <Position>
              <LatitudeDegrees>40.6312348879873752593994140625</LatitudeDegrees>
              <LongitudeDegrees>-3.73016911558806896209716796875</LongitudeDegrees>
            </Position>
            <AltitudeMeters>765</AltitudeMeters>
            <DistanceMeters>14311.498998459</DistanceMeters>
          </Trackpoint>
          <Trackpoint>
            <Time>2020-03-07T13:19:50.000Z</Time>
            <Position>
              <LatitudeDegrees>40.6313029490411281585693359375</LatitudeDegrees>
              <LongitudeDegrees>-3.73016241006553173065185546875</LongitudeDegrees>
            </Position>
            <AltitudeMeters>765</AltitudeMeters>
            <DistanceMeters>14319.095194117</DistanceMeters>
          </Trackpoint>
          <Trackpoint>
            <Time>2020-03-07T13:19:51.000Z</Time>
            <Position>
              <LatitudeDegrees>40.63137176446616649627685546875</LatitudeDegrees>
              <LongitudeDegrees>-3.7301542796194553375244140625</LongitudeDegrees>
            </Position>
            <AltitudeMeters>765</AltitudeMeters>
            <DistanceMeters>14326.784728599</DistanceMeters>
          </Trackpoint>
          <Trackpoint>
            <Time>2020-03-07T13:19:52.000Z</Time>
            <Position>
              <LatitudeDegrees>40.631441585719585418701171875</LatitudeDegrees>
              <LongitudeDegrees>-3.730145059525966644287109375</LongitudeDegrees>
            </Position>
            <AltitudeMeters>765</AltitudeMeters>
            <DistanceMeters>14334.595438967</DistanceMeters>
          </Trackpoint>
          <Trackpoint>
            <Time>2020-03-07T13:19:53.000Z</Time>
            <Position>
              <LatitudeDegrees>40.631513334810733795166015625</LatitudeDegrees>
              <LongitudeDegrees>-3.73013667762279510498046875</LongitudeDegrees>
            </Position>
            <AltitudeMeters>765</AltitudeMeters>
            <DistanceMeters>14342.612675656</DistanceMeters>
          </Trackpoint>
          <Trackpoint>
            <Time>2020-03-07T13:19:54.000Z</Time>
            <Position>
              <LatitudeDegrees>40.6315875984728336334228515625</LatitudeDegrees>
              <LongitudeDegrees>-3.730129301548004150390625</LongitudeDegrees>
            </Position>
            <AltitudeMeters>765</AltitudeMeters>
            <DistanceMeters>14350.901816243</DistanceMeters>
          </Trackpoint>
          <Trackpoint>
            <Time>2020-03-07T13:19:55.000Z</Time>
            <Position>
              <LatitudeDegrees>40.63166244886815547943115234375</LatitudeDegrees>
              <LongitudeDegrees>-3.73012150637805461883544921875</LongitudeDegrees>
            </Position>
            <AltitudeMeters>765</AltitudeMeters>
            <DistanceMeters>14359.258766118</DistanceMeters>
          </Trackpoint>
          <Trackpoint>
            <Time>2020-03-07T13:19:56.000Z</Time>
            <Position>
              <LatitudeDegrees>40.63173855654895305633544921875</LatitudeDegrees>
              <LongitudeDegrees>-3.7301133759319782257080078125</LongitudeDegrees>
            </Position>
            <AltitudeMeters>765</AltitudeMeters>
            <DistanceMeters>14367.757151341</DistanceMeters>
          </Trackpoint>
          <Trackpoint>
            <Time>2020-03-07T13:19:57.000Z</Time>
            <Position>
              <LatitudeDegrees>40.63181567005813121795654296875</LatitudeDegrees>
              <LongitudeDegrees>-3.7301029823720455169677734375</LongitudeDegrees>
            </Position>
            <AltitudeMeters>765</AltitudeMeters>
            <DistanceMeters>14376.385242103</DistanceMeters>
          </Trackpoint>
          <Trackpoint>
            <Time>2020-03-07T13:19:58.000Z</Time>
            <Position>
              <LatitudeDegrees>40.6318926997482776641845703125</LatitudeDegrees>
              <LongitudeDegrees>-3.73009133152663707733154296875</LongitudeDegrees>
            </Position>
            <AltitudeMeters>765</AltitudeMeters>
            <DistanceMeters>14385.015425793</DistanceMeters>
          </Trackpoint>
          <Trackpoint>
            <Time>2020-03-07T13:19:59.000Z</Time>
            <Position>
              <LatitudeDegrees>40.6319688074290752410888671875</LatitudeDegrees>
              <LongitudeDegrees>-3.73008060269057750701904296875</LongitudeDegrees>
            </Position>
            <AltitudeMeters>764.79998779296875</AltitudeMeters>
            <DistanceMeters>14393.535565729</DistanceMeters>
          </Trackpoint>
          <Trackpoint>
            <Time>2020-03-07T13:20:00.000Z</Time>
            <Position>
              <LatitudeDegrees>40.63204449601471424102783203125</LatitudeDegrees>
              <LongitudeDegrees>-3.7300704605877399444580078125</LongitudeDegrees>
            </Position>
            <AltitudeMeters>764.5999755859375</AltitudeMeters>
            <DistanceMeters>14402.003613736</DistanceMeters>
          </Trackpoint>
          <Trackpoint>
            <Time>2020-03-07T13:20:01.000Z</Time>
            <Position>
              <LatitudeDegrees>40.6321196816861629486083984375</LatitudeDegrees>
              <LongitudeDegrees>-3.73006048612296581268310546875</LongitudeDegrees>
            </Position>
            <AltitudeMeters>764.4000244140625</AltitudeMeters>
            <DistanceMeters>14410.413880603</DistanceMeters>
          </Trackpoint>
          <Trackpoint>
            <Time>2020-03-07T13:20:02.000Z</Time>
            <Position>
              <LatitudeDegrees>40.63219319097697734832763671875</LatitudeDegrees>
              <LongitudeDegrees>-3.73004824854433536529541015625</LongitudeDegrees>
            </Position>
            <AltitudeMeters>764.20001220703125</AltitudeMeters>
            <DistanceMeters>14418.66042568</DistanceMeters>
          </Trackpoint>
          <Trackpoint>
            <Time>2020-03-07T13:20:03.000Z</Time>
            <Position>
              <LatitudeDegrees>40.6322672031819820404052734375</LatitudeDegrees>
              <LongitudeDegrees>-3.730033747851848602294921875</LongitudeDegrees>
            </Position>
            <AltitudeMeters>764</AltitudeMeters>
            <DistanceMeters>14426.989233952</DistanceMeters>
          </Trackpoint>
          <Trackpoint>
            <Time>2020-03-07T13:20:04.000Z</Time>
            <Position>
              <LatitudeDegrees>40.632341802120208740234375</LatitudeDegrees>
              <LongitudeDegrees>-3.73001991771161556243896484375</LongitudeDegrees>
            </Position>
            <AltitudeMeters>763.79998779296875</AltitudeMeters>
            <DistanceMeters>14435.374230982</DistanceMeters>
          </Trackpoint>
          <Trackpoint>
            <Time>2020-03-07T13:20:05.000Z</Time>
            <Position>
              <LatitudeDegrees>40.63241765834391117095947265625</LatitudeDegrees>
              <LongitudeDegrees>-3.73000717721879482269287109375</LongitudeDegrees>
            </Position>
            <AltitudeMeters>763.5999755859375</AltitudeMeters>
            <DistanceMeters>14443.88588789</DistanceMeters>
          </Trackpoint>
          <Trackpoint>
            <Time>2020-03-07T13:20:06.000Z</Time>
            <Position>
              <LatitudeDegrees>40.6324938498437404632568359375</LatitudeDegrees>
              <LongitudeDegrees>-3.7299956940114498138427734375</LongitudeDegrees>
            </Position>
            <AltitudeMeters>763.4000244140625</AltitudeMeters>
            <DistanceMeters>14452.421381827</DistanceMeters>
          </Trackpoint>
          <Trackpoint>
            <Time>2020-03-07T13:20:07.000Z</Time>
            <Position>
              <LatitudeDegrees>40.632569789886474609375</LatitudeDegrees>
              <LongitudeDegrees>-3.72998437844216823577880859375</LongitudeDegrees>
            </Position>
            <AltitudeMeters>763.20001220703125</AltitudeMeters>
            <DistanceMeters>14460.927201744</DistanceMeters>
          </Trackpoint>
          <Trackpoint>
            <Time>2020-03-07T13:20:08.000Z</Time>
            <Position>
              <LatitudeDegrees>40.63264581374824047088623046875</LatitudeDegrees>
              <LongitudeDegrees>-3.7299718894064426422119140625</LongitudeDegrees>
            </Position>
            <AltitudeMeters>763</AltitudeMeters>
            <DistanceMeters>14469.454227927</DistanceMeters>
          </Trackpoint>
          <Trackpoint>
            <Time>2020-03-07T13:20:09.000Z</Time>
            <Position>
              <LatitudeDegrees>40.63272225670516490936279296875</LatitudeDegrees>
              <LongitudeDegrees>-3.7299591489136219024658203125</LongitudeDegrees>
            </Position>
            <AltitudeMeters>763</AltitudeMeters>
            <DistanceMeters>14478.029829513</DistanceMeters>
          </Trackpoint>
          <Trackpoint>
            <Time>2020-03-07T13:20:10.000Z</Time>
            <Position>
              <LatitudeDegrees>40.6327982805669307708740234375</LatitudeDegrees>
              <LongitudeDegrees>-3.7299480848014354705810546875</LongitudeDegrees>
            </Position>
            <AltitudeMeters>763</AltitudeMeters>
            <DistanceMeters>14486.543077633</DistanceMeters>
          </Trackpoint>
          <Trackpoint>
            <Time>2020-03-07T13:20:11.000Z</Time>
            <Position>
              <LatitudeDegrees>40.63287480734288692474365234375</LatitudeDegrees>
              <LongitudeDegrees>-3.7299383617937564849853515625</LongitudeDegrees>
            </Position>
            <AltitudeMeters>763</AltitudeMeters>
            <DistanceMeters>14495.100231942</DistanceMeters>
          </Trackpoint>
          <Trackpoint>
            <Time>2020-03-07T13:20:12.000Z</Time>
            <Position>
              <LatitudeDegrees>40.63294940628111362457275390625</LatitudeDegrees>
              <LongitudeDegrees>-3.7299293093383312225341796875</LongitudeDegrees>
            </Position>
            <AltitudeMeters>763</AltitudeMeters>
            <DistanceMeters>14503.438792287</DistanceMeters>
          </Trackpoint>
          <Trackpoint>
            <Time>2020-03-07T13:20:13.000Z</Time>
            <Position>
              <LatitudeDegrees>40.63302182592451572418212890625</LatitudeDegrees>
              <LongitudeDegrees>-3.7299202568829059600830078125</LongitudeDegrees>
            </Position>
            <AltitudeMeters>763</AltitudeMeters>
            <DistanceMeters>14511.535603695</DistanceMeters>
          </Trackpoint>
          <Trackpoint>
            <Time>2020-03-07T13:20:14.000Z</Time>
            <Position>
              <LatitudeDegrees>40.63309122808277606964111328125</LatitudeDegrees>
              <LongitudeDegrees>-3.7299135513603687286376953125</LongitudeDegrees>
            </Position>
            <AltitudeMeters>763</AltitudeMeters>
            <DistanceMeters>14519.280718144</DistanceMeters>
          </Trackpoint>
          <Trackpoint>
            <Time>2020-03-07T13:20:15.000Z</Time>
            <Position>
              <LatitudeDegrees>40.6331590376794338226318359375</LatitudeDegrees>
              <LongitudeDegrees>-3.7299081869423389434814453125</LongitudeDegrees>
            </Position>
            <AltitudeMeters>763</AltitudeMeters>
            <DistanceMeters>14526.8411668</DistanceMeters>
          </Trackpoint>
          <Trackpoint>
            <Time>2020-03-07T13:20:16.000Z</Time>
            <Position>
              <LatitudeDegrees>40.63322751782834529876708984375</LatitudeDegrees>
              <LongitudeDegrees>-3.729901649057865142822265625</LongitudeDegrees>
            </Position>
            <AltitudeMeters>763</AltitudeMeters>
            <DistanceMeters>14534.483583593</DistanceMeters>
          </Trackpoint>
          <Trackpoint>
            <Time>2020-03-07T13:20:17.000Z</Time>
            <Position>
              <LatitudeDegrees>40.6332975067198276519775390625</LatitudeDegrees>
              <LongitudeDegrees>-3.72989485971629619598388671875</LongitudeDegrees>
            </Position>
            <AltitudeMeters>763</AltitudeMeters>
            <DistanceMeters>14542.294293962</DistanceMeters>
          </Trackpoint>
          <Trackpoint>
            <Time>2020-03-07T13:20:18.000Z</Time>
            <Position>
              <LatitudeDegrees>40.63336900435388088226318359375</LatitudeDegrees>
              <LongitudeDegrees>-3.729888908565044403076171875</LongitudeDegrees>
            </Position>
            <AltitudeMeters>763</AltitudeMeters>
            <DistanceMeters>14550.268615144</DistanceMeters>
          </Trackpoint>
          <Trackpoint>
            <Time>2020-03-07T13:20:19.000Z</Time>
            <Position>
              <LatitudeDegrees>40.63344175927340984344482421875</LatitudeDegrees>
              <LongitudeDegrees>-3.7298833765089511871337890625</LongitudeDegrees>
            </Position>
            <AltitudeMeters>763</AltitudeMeters>
            <DistanceMeters>14558.379912017</DistanceMeters>
          </Trackpoint>
          <Trackpoint>
            <Time>2020-03-07T13:20:20.000Z</Time>
            <Position>
              <LatitudeDegrees>40.63351501710712909698486328125</LatitudeDegrees>
              <LongitudeDegrees>-3.72988027520477771759033203125</LongitudeDegrees>
            </Position>
            <AltitudeMeters>763.20001220703125</AltitudeMeters>
            <DistanceMeters>14566.53727883</DistanceMeters>
          </Trackpoint>
          <Trackpoint>
            <Time>2020-03-07T13:20:21.000Z</Time>
            <Position>
              <LatitudeDegrees>40.6335888616740703582763671875</LatitudeDegrees>
              <LongitudeDegrees>-3.72987893410027027130126953125</LongitudeDegrees>
            </Position>
            <AltitudeMeters>763.20001220703125</AltitudeMeters>
            <DistanceMeters>14574.7569523</DistanceMeters>
          </Trackpoint>
          <Trackpoint>
            <Time>2020-03-07T13:20:22.000Z</Time>
            <Position>
              <LatitudeDegrees>40.6336642988026142120361328125</LatitudeDegrees>
              <LongitudeDegrees>-3.7298786826431751251220703125</LongitudeDegrees>
            </Position>
            <AltitudeMeters>763.5999755859375</AltitudeMeters>
            <DistanceMeters>14583.153249508</DistanceMeters>
          </Trackpoint>
          <Trackpoint>
            <Time>2020-03-07T13:20:23.000Z</Time>
            <Position>
              <LatitudeDegrees>40.6337404064834117889404296875</LatitudeDegrees>
              <LongitudeDegrees>-3.7298783473670482635498046875</LongitudeDegrees>
            </Position>
            <AltitudeMeters>763.79998779296875</AltitudeMeters>
            <DistanceMeters>14591.624496022</DistanceMeters>
          </Trackpoint>
          <Trackpoint>
            <Time>2020-03-07T13:20:24.000Z</Time>
            <Position>
              <LatitudeDegrees>40.633816681802272796630859375</LatitudeDegrees>
              <LongitudeDegrees>-3.7298770062625408172607421875</LongitudeDegrees>
            </Position>
            <AltitudeMeters>763.79998779296875</AltitudeMeters>
            <DistanceMeters>14600.114908276</DistanceMeters>
          </Trackpoint>
          <Trackpoint>
            <Time>2020-03-07T13:20:25.000Z</Time>
            <Position>
              <LatitudeDegrees>40.63389253802597522735595703125</LatitudeDegrees>
              <LongitudeDegrees>-3.729876838624477386474609375</LongitudeDegrees>
            </Position>
            <AltitudeMeters>764</AltitudeMeters>
            <DistanceMeters>14608.557859386</DistanceMeters>
          </Trackpoint>
          <Trackpoint>
            <Time>2020-03-07T13:20:26.000Z</Time>
            <Position>
              <LatitudeDegrees>40.63396713696420192718505859375</LatitudeDegrees>
              <LongitudeDegrees>-3.7298796884715557098388671875</LongitudeDegrees>
            </Position>
            <AltitudeMeters>764</AltitudeMeters>
            <DistanceMeters>14616.864411867</DistanceMeters>
          </Trackpoint>
          <Trackpoint>
            <Time>2020-03-07T13:20:27.000Z</Time>
            <Position>
              <LatitudeDegrees>40.63404022715985774993896484375</LatitudeDegrees>
              <LongitudeDegrees>-3.72988362796604633331298828125</LongitudeDegrees>
            </Position>
            <AltitudeMeters>764</AltitudeMeters>
            <DistanceMeters>14625.00626615</DistanceMeters>
          </Trackpoint>
          <Trackpoint>
            <Time>2020-03-07T13:20:28.000Z</Time>
            <Position>
              <LatitudeDegrees>40.63411247916519641876220703125</LatitudeDegrees>
              <LongitudeDegrees>-3.72988865710794925689697265625</LongitudeDegrees>
            </Position>
            <AltitudeMeters>764</AltitudeMeters>
            <DistanceMeters>14633.058343452</DistanceMeters>
          </Trackpoint>
          <Trackpoint>
            <Time>2020-03-07T13:20:29.000Z</Time>
            <Position>
              <LatitudeDegrees>40.63418204896152019500732421875</LatitudeDegrees>
              <LongitudeDegrees>-3.7298934347927570343017578125</LongitudeDegrees>
            </Position>
            <AltitudeMeters>764.20001220703125</AltitudeMeters>
            <DistanceMeters>14640.812197265</DistanceMeters>
          </Trackpoint>
          <Trackpoint>
            <Time>2020-03-07T13:20:30.000Z</Time>
            <Position>
              <LatitudeDegrees>40.6342520378530025482177734375</LatitudeDegrees>
              <LongitudeDegrees>-3.72990122996270656585693359375</LongitudeDegrees>
            </Position>
            <AltitudeMeters>764.4000244140625</AltitudeMeters>
            <DistanceMeters>14648.629841244</DistanceMeters>
          </Trackpoint>
          <Trackpoint>
            <Time>2020-03-07T13:20:31.000Z</Time>
            <Position>
              <LatitudeDegrees>40.6343199312686920166015625</LatitudeDegrees>
              <LongitudeDegrees>-3.72990944422781467437744140625</LongitudeDegrees>
            </Position>
            <AltitudeMeters>764.4000244140625</AltitudeMeters>
            <DistanceMeters>14656.218306008</DistanceMeters>
          </Trackpoint>
          <Trackpoint>
            <Time>2020-03-07T13:20:32.000Z</Time>
            <Position>
              <LatitudeDegrees>40.6343878246843814849853515625</LatitudeDegrees>
              <LongitudeDegrees>-3.72991899959743022918701171875</LongitudeDegrees>
            </Position>
            <AltitudeMeters>764.5999755859375</AltitudeMeters>
            <DistanceMeters>14663.818067119</DistanceMeters>
          </Trackpoint>
          <Trackpoint>
            <Time>2020-03-07T13:20:33.000Z</Time>
            <Position>
              <LatitudeDegrees>40.6344555504620075225830078125</LatitudeDegrees>
              <LongitudeDegrees>-3.7299319915473461151123046875</LongitudeDegrees>
            </Position>
            <AltitudeMeters>764.5999755859375</AltitudeMeters>
            <DistanceMeters>14671.435630458</DistanceMeters>
          </Trackpoint>
          <Trackpoint>
            <Time>2020-03-07T13:20:34.000Z</Time>
            <Position>
              <LatitudeDegrees>40.63452587462961673736572265625</LatitudeDegrees>
              <LongitudeDegrees>-3.7299464084208011627197265625</LongitudeDegrees>
            </Position>
            <AltitudeMeters>764.5999755859375</AltitudeMeters>
            <DistanceMeters>14679.356550299</DistanceMeters>
          </Trackpoint>
          <Trackpoint>
            <Time>2020-03-07T13:20:35.000Z</Time>
            <Position>
              <LatitudeDegrees>40.63459829427301883697509765625</LatitudeDegrees>
              <LongitudeDegrees>-3.7299616634845733642578125</LongitudeDegrees>
            </Position>
            <AltitudeMeters>764.5999755859375</AltitudeMeters>
            <DistanceMeters>14687.519450157</DistanceMeters>
          </Trackpoint>
          <Trackpoint>
            <Time>2020-03-07T13:20:36.000Z</Time>
            <Position>
              <LatitudeDegrees>40.63467540778219699859619140625</LatitudeDegrees>
              <LongitudeDegrees>-3.72998236678540706634521484375</LongitudeDegrees>
            </Position>
            <AltitudeMeters>764.5999755859375</AltitudeMeters>
            <DistanceMeters>14696.278418673</DistanceMeters>
          </Trackpoint>
          <Trackpoint>
            <Time>2020-03-07T13:20:37.000Z</Time>
            <Position>
              <LatitudeDegrees>40.63475604169070720672607421875</LatitudeDegrees>
              <LongitudeDegrees>-3.73000851832330226898193359375</LongitudeDegrees>
            </Position>
            <AltitudeMeters>764.5999755859375</AltitudeMeters>
            <DistanceMeters>14705.520468937</DistanceMeters>
          </Trackpoint>
          <Trackpoint>
            <Time>2020-03-07T13:20:38.000Z</Time>
            <Position>
              <LatitudeDegrees>40.63483902253210544586181640625</LatitudeDegrees>
              <LongitudeDegrees>-3.7300369329750537872314453125</LongitudeDegrees>
            </Position>
            <AltitudeMeters>764.5999755859375</AltitudeMeters>
            <DistanceMeters>14715.06296813</DistanceMeters>
          </Trackpoint>
          <Trackpoint>
            <Time>2020-03-07T13:20:39.000Z</Time>
            <Position>
              <LatitudeDegrees>40.63492284156382083892822265625</LatitudeDegrees>
              <LongitudeDegrees>-3.73006283305585384368896484375</LongitudeDegrees>
            </Position>
            <AltitudeMeters>764.5999755859375</AltitudeMeters>
            <DistanceMeters>14724.64512954</DistanceMeters>
          </Trackpoint>
          <Trackpoint>
            <Time>2020-03-07T13:20:40.000Z</Time>
            <Position>
              <LatitudeDegrees>40.63500590622425079345703125</LatitudeDegrees>
              <LongitudeDegrees>-3.730084709823131561279296875</LongitudeDegrees>
            </Position>
            <AltitudeMeters>764.5999755859375</AltitudeMeters>
            <DistanceMeters>14734.073388792</DistanceMeters>
          </Trackpoint>
          <Trackpoint>
            <Time>2020-03-07T13:20:41.000Z</Time>
            <Position>
              <LatitudeDegrees>40.63508796505630016326904296875</LatitudeDegrees>
              <LongitudeDegrees>-3.73010306619107723236083984375</LongitudeDegrees>
            </Position>
            <AltitudeMeters>764.5999755859375</AltitudeMeters>
            <DistanceMeters>14743.337396916</DistanceMeters>
          </Trackpoint>
          <Trackpoint>
            <Time>2020-03-07T13:20:42.000Z</Time>
            <Position>
              <LatitudeDegrees>40.63516524620354175567626953125</LatitudeDegrees>
              <LongitudeDegrees>-3.73012594878673553466796875</LongitudeDegrees>
            </Position>
            <AltitudeMeters>764.5999755859375</AltitudeMeters>
            <DistanceMeters>14752.152885438</DistanceMeters>
          </Trackpoint>
          <Trackpoint>
            <Time>2020-03-07T13:20:43.000Z</Time>
            <Position>
              <LatitudeDegrees>40.6352431140840053558349609375</LatitudeDegrees>
              <LongitudeDegrees>-3.730147741734981536865234375</LongitudeDegrees>
            </Position>
            <AltitudeMeters>764.5999755859375</AltitudeMeters>
            <DistanceMeters>14761.012820794</DistanceMeters>
          </Trackpoint>
          <Trackpoint>
            <Time>2020-03-07T13:20:44.000Z</Time>
            <Position>
              <LatitudeDegrees>40.635313354432582855224609375</LatitudeDegrees>
              <LongitudeDegrees>-3.7301723845303058624267578125</LongitudeDegrees>
            </Position>
            <AltitudeMeters>764.20001220703125</AltitudeMeters>
            <DistanceMeters>14769.102937856</DistanceMeters>
          </Trackpoint>
          <Trackpoint>
            <Time>2020-03-07T13:20:45.000Z</Time>
            <Position>
              <LatitudeDegrees>40.635381750762462615966796875</LatitudeDegrees>
              <LongitudeDegrees>-3.730199038982391357421875</LongitudeDegrees>
            </Position>
            <AltitudeMeters>763.79998779296875</AltitudeMeters>
            <DistanceMeters>14777.041508477</DistanceMeters>
          </Trackpoint>
          <Trackpoint>
            <Time>2020-03-07T13:20:46.000Z</Time>
            <Position>
              <LatitudeDegrees>40.6354483030736446380615234375</LatitudeDegrees>
              <LongitudeDegrees>-3.73022460378706455230712890625</LongitudeDegrees>
            </Position>
            <AltitudeMeters>763.79998779296875</AltitudeMeters>
            <DistanceMeters>14784.758005355</DistanceMeters>
          </Trackpoint>
          <Trackpoint>
            <Time>2020-03-07T13:20:47.000Z</Time>
            <Position>
              <LatitudeDegrees>40.63550974242389202117919921875</LatitudeDegrees>
              <LongitudeDegrees>-3.73024639673531055450439453125</LongitudeDegrees>
            </Position>
            <AltitudeMeters>763.5999755859375</AltitudeMeters>
            <DistanceMeters>14791.839886783</DistanceMeters>
          </Trackpoint>
          <Trackpoint>
            <Time>2020-03-07T13:20:48.000Z</Time>
            <Position>
              <LatitudeDegrees>40.63556858338415622711181640625</LatitudeDegrees>
              <LongitudeDegrees>-3.73026785440742969512939453125</LongitudeDegrees>
            </Position>
            <AltitudeMeters>763.5999755859375</AltitudeMeters>
            <DistanceMeters>14798.635459676</DistanceMeters>
          </Trackpoint>
          <Trackpoint>
            <Time>2020-03-07T13:20:49.000Z</Time>
            <Position>
              <LatitudeDegrees>40.63562708906829357147216796875</LatitudeDegrees>
              <LongitudeDegrees>-3.73028981499373912811279296875</LongitudeDegrees>
            </Position>
            <AltitudeMeters>763.5999755859375</AltitudeMeters>
            <DistanceMeters>14805.406404817</DistanceMeters>
          </Trackpoint>
          <Trackpoint>
            <Time>2020-03-07T13:20:50.000Z</Time>
            <Position>
              <LatitudeDegrees>40.63568827696144580841064453125</LatitudeDegrees>
              <LongitudeDegrees>-3.73031311668455600738525390625</LongitudeDegrees>
            </Position>
            <AltitudeMeters>763.5999755859375</AltitudeMeters>
            <DistanceMeters>14812.495932692</DistanceMeters>
          </Trackpoint>
          <Trackpoint>
            <Time>2020-03-07T13:20:51.000Z</Time>
            <Position>
              <LatitudeDegrees>40.63574192114174365997314453125</LatitudeDegrees>
              <LongitudeDegrees>-3.730345554649829864501953125</LongitudeDegrees>
            </Position>
            <AltitudeMeters>763.5999755859375</AltitudeMeters>
            <DistanceMeters>14819.065846344</DistanceMeters>
          </Trackpoint>
          <Trackpoint>
            <Time>2020-03-07T13:20:52.000Z</Time>
            <Position>
              <LatitudeDegrees>40.635796152055263519287109375</LatitudeDegrees>
              <LongitudeDegrees>-3.73038570396602153778076171875</LongitudeDegrees>
            </Position>
            <AltitudeMeters>763.5999755859375</AltitudeMeters>
            <DistanceMeters>14825.989114775</DistanceMeters>
          </Trackpoint>
          <Trackpoint>
            <Time>2020-03-07T13:20:53.000Z</Time>
            <Position>
              <LatitudeDegrees>40.635844767093658447265625</LatitudeDegrees>
              <LongitudeDegrees>-3.73041789047420024871826171875</LongitudeDegrees>
            </Position>
            <AltitudeMeters>763.5999755859375</AltitudeMeters>
            <DistanceMeters>14832.044039247</DistanceMeters>
          </Trackpoint>
          <Trackpoint>
            <Time>2020-03-07T13:20:54.000Z</Time>
            <Position>
              <LatitudeDegrees>40.63589279539883136749267578125</LatitudeDegrees>
              <LongitudeDegrees>-3.73044420965015888214111328125</LongitudeDegrees>
            </Position>
            <AltitudeMeters>763.5999755859375</AltitudeMeters>
            <DistanceMeters>14837.833654412</DistanceMeters>
          </Trackpoint>
          <Trackpoint>
            <Time>2020-03-07T13:20:55.000Z</Time>
            <Position>
              <LatitudeDegrees>40.63593990169465541839599609375</LatitudeDegrees>
              <LongitudeDegrees>-3.73046834953129291534423828125</LongitudeDegrees>
            </Position>
            <AltitudeMeters>764</AltitudeMeters>
            <DistanceMeters>14843.458722222</DistanceMeters>
          </Trackpoint>
          <Trackpoint>
            <Time>2020-03-07T13:20:56.000Z</Time>
            <Position>
              <LatitudeDegrees>40.635984577238559722900390625</LatitudeDegrees>
              <LongitudeDegrees>-3.7304925732314586639404296875</LongitudeDegrees>
            </Position>
            <AltitudeMeters>764.4000244140625</AltitudeMeters>
            <DistanceMeters>14848.83592454</DistanceMeters>
          </Trackpoint>
          <Trackpoint>
            <Time>2020-03-07T13:20:57.000Z</Time>
            <Position>
              <LatitudeDegrees>40.6360293366014957427978515625</LatitudeDegrees>
              <LongitudeDegrees>-3.73051545582711696624755859375</LongitudeDegrees>
            </Position>
            <AltitudeMeters>765</AltitudeMeters>
            <DistanceMeters>14854.179434783</DistanceMeters>
          </Trackpoint>
          <Trackpoint>
            <Time>2020-03-07T13:20:58.000Z</Time>
            <Position>
              <LatitudeDegrees>40.6360749341547489166259765625</LatitudeDegrees>
              <LongitudeDegrees>-3.73053842224180698394775390625</LongitudeDegrees>
            </Position>
            <AltitudeMeters>765.5999755859375</AltitudeMeters>
            <DistanceMeters>14859.612603278</DistanceMeters>
          </Trackpoint>
          <Trackpoint>
            <Time>2020-03-07T13:20:59.000Z</Time>
            <Position>
              <LatitudeDegrees>40.6361223757266998291015625</LatitudeDegrees>
              <LongitudeDegrees>-3.73056256212294101715087890625</LongitudeDegrees>
            </Position>
            <AltitudeMeters>766.4000244140625</AltitudeMeters>
            <DistanceMeters>14865.272080387</DistanceMeters>
          </Trackpoint>
          <Trackpoint>
            <Time>2020-03-07T13:21:00.000Z</Time>
            <Position>
              <LatitudeDegrees>40.636168979108333587646484375</LatitudeDegrees>
              <LongitudeDegrees>-3.73058720491826534271240234375</LongitudeDegrees>
            </Position>
            <AltitudeMeters>766.79998779296875</AltitudeMeters>
            <DistanceMeters>14870.860103682</DistanceMeters>
          </Trackpoint>
          <Trackpoint>
            <Time>2020-03-07T13:21:01.000Z</Time>
            <Position>
              <LatitudeDegrees>40.6362162530422210693359375</LatitudeDegrees>
              <LongitudeDegrees>-3.73061100952327251434326171875</LongitudeDegrees>
            </Position>
            <AltitudeMeters>767</AltitudeMeters>
            <DistanceMeters>14876.49158914</DistanceMeters>
          </Trackpoint>
          <Trackpoint>
            <Time>2020-03-07T13:21:02.000Z</Time>
            <Position>
              <LatitudeDegrees>40.63626428134739398956298828125</LatitudeDegrees>
              <LongitudeDegrees>-3.73063313774764537811279296875</LongitudeDegrees>
            </Position>
            <AltitudeMeters>767.20001220703125</AltitudeMeters>
            <DistanceMeters>14882.154256485</DistanceMeters>
          </Trackpoint>
          <Trackpoint>
            <Time>2020-03-07T13:21:03.000Z</Time>
            <Position>
              <LatitudeDegrees>40.63631256110966205596923828125</LatitudeDegrees>
              <LongitudeDegrees>-3.7306538410484790802001953125</LongitudeDegrees>
            </Position>
            <AltitudeMeters>767.4000244140625</AltitudeMeters>
            <DistanceMeters>14887.804951159</DistanceMeters>
          </Trackpoint>
          <Trackpoint>
            <Time>2020-03-07T13:21:04.000Z</Time>
            <Position>
              <LatitudeDegrees>40.63636117614805698394775390625</LatitudeDegrees>
              <LongitudeDegrees>-3.73067504726350307464599609375</LongitudeDegrees>
            </Position>
            <AltitudeMeters>767.5999755859375</AltitudeMeters>
            <DistanceMeters>14893.504970023</DistanceMeters>
          </Trackpoint>
          <Trackpoint>
            <Time>2020-03-07T13:21:05.000Z</Time>
            <Position>
              <LatitudeDegrees>40.636409707367420196533203125</LatitudeDegrees>
              <LongitudeDegrees>-3.73069767840206623077392578125</LongitudeDegrees>
            </Position>
            <AltitudeMeters>768</AltitudeMeters>
            <DistanceMeters>14899.235009983</DistanceMeters>
          </Trackpoint>
          <Trackpoint>
            <Time>2020-03-07T13:21:06.000Z</Time>
            <Position>
              <LatitudeDegrees>40.6364591605961322784423828125</LatitudeDegrees>
              <LongitudeDegrees>-3.730720393359661102294921875</LongitudeDegrees>
            </Position>
            <AltitudeMeters>768.20001220703125</AltitudeMeters>
            <DistanceMeters>14905.063487279</DistanceMeters>
          </Trackpoint>
          <Trackpoint>
            <Time>2020-03-07T13:21:07.000Z</Time>
            <Position>
              <LatitudeDegrees>40.6365077756345272064208984375</LatitudeDegrees>
              <LongitudeDegrees>-3.73074176721274852752685546875</LongitudeDegrees>
            </Position>
            <AltitudeMeters>768.4000244140625</AltitudeMeters>
            <DistanceMeters>14910.7666737</DistanceMeters>
          </Trackpoint>
          <Trackpoint>
            <Time>2020-03-07T13:21:08.000Z</Time>
            <Position>
              <LatitudeDegrees>40.63655613921582698822021484375</LatitudeDegrees>
              <LongitudeDegrees>-3.7307634763419628143310546875</LongitudeDegrees>
            </Position>
            <AltitudeMeters>768.5999755859375</AltitudeMeters>
            <DistanceMeters>14916.452416718</DistanceMeters>
          </Trackpoint>
          <Trackpoint>
            <Time>2020-03-07T13:21:09.000Z</Time>
            <Position>
              <LatitudeDegrees>40.6366043351590633392333984375</LatitudeDegrees>
              <LongitudeDegrees>-3.73078602366149425506591796875</LongitudeDegrees>
            </Position>
            <AltitudeMeters>768.5999755859375</AltitudeMeters>
            <DistanceMeters>14922.143715709</DistanceMeters>
          </Trackpoint>
          <Trackpoint>
            <Time>2020-03-07T13:21:10.000Z</Time>
            <Position>
              <LatitudeDegrees>40.63665278255939483642578125</LatitudeDegrees>
              <LongitudeDegrees>-3.73080798424780368804931640625</LongitudeDegrees>
            </Position>
            <AltitudeMeters>769</AltitudeMeters>
            <DistanceMeters>14927.846110405</DistanceMeters>
          </Trackpoint>
          <Trackpoint>
            <Time>2020-03-07T13:21:11.000Z</Time>
            <Position>
              <LatitudeDegrees>40.63670148141682147979736328125</LatitudeDegrees>
              <LongitudeDegrees>-3.73082910664379596710205078125</LongitudeDegrees>
            </Position>
            <AltitudeMeters>769.20001220703125</AltitudeMeters>
            <DistanceMeters>14933.552462625</DistanceMeters>
          </Trackpoint>
          <Trackpoint>
            <Time>2020-03-07T13:21:12.000Z</Time>
            <Position>
              <LatitudeDegrees>40.6367505155503749847412109375</LatitudeDegrees>
              <LongitudeDegrees>-3.73084939084947109222412109375</LongitudeDegrees>
            </Position>
            <AltitudeMeters>769.4000244140625</AltitudeMeters>
            <DistanceMeters>14939.27303926</DistanceMeters>
          </Trackpoint>
          <Trackpoint>
            <Time>2020-03-07T13:21:13.000Z</Time>
            <Position>
              <LatitudeDegrees>40.636800639331340789794921875</LatitudeDegrees>
              <LongitudeDegrees>-3.730869926512241363525390625</LongitudeDegrees>
            </Position>
            <AltitudeMeters>769.4000244140625</AltitudeMeters>
            <DistanceMeters>14945.115443641</DistanceMeters>
          </Trackpoint>
          <Trackpoint>
            <Time>2020-03-07T13:21:14.000Z</Time>
            <Position>
              <LatitudeDegrees>40.6368504278361797332763671875</LatitudeDegrees>
              <LongitudeDegrees>-3.730890713632106781005859375</LongitudeDegrees>
            </Position>
            <AltitudeMeters>769.5999755859375</AltitudeMeters>
            <DistanceMeters>14950.928407262</DistanceMeters>
          </Trackpoint>
          <Trackpoint>
            <Time>2020-03-07T13:21:15.000Z</Time>
            <Position>
              <LatitudeDegrees>40.6368987075984477996826171875</LatitudeDegrees>
              <LongitudeDegrees>-3.7309103272855281829833984375</LongitudeDegrees>
            </Position>
            <AltitudeMeters>769.79998779296875</AltitudeMeters>
            <DistanceMeters>14956.551869515</DistanceMeters>
          </Trackpoint>
          <Trackpoint>
            <Time>2020-03-07T13:21:16.000Z</Time>
            <Position>
              <LatitudeDegrees>40.63694774173200130462646484375</LatitudeDegrees>
              <LongitudeDegrees>-3.730929605662822723388671875</LongitudeDegrees>
            </Position>
            <AltitudeMeters>770.20001220703125</AltitudeMeters>
            <DistanceMeters>14962.247133739</DistanceMeters>
          </Trackpoint>
          <Trackpoint>
            <Time>2020-03-07T13:21:17.000Z</Time>
            <Position>
              <LatitudeDegrees>40.6369966082274913787841796875</LatitudeDegrees>
              <LongitudeDegrees>-3.730950057506561279296875</LongitudeDegrees>
            </Position>
            <AltitudeMeters>770.5999755859375</AltitudeMeters>
            <DistanceMeters>14967.953485959</DistanceMeters>
          </Trackpoint>
          <Trackpoint>
            <Time>2020-03-07T13:21:18.000Z</Time>
            <Position>
              <LatitudeDegrees>40.63704346306622028350830078125</LatitudeDegrees>
              <LongitudeDegrees>-3.730969838798046112060546875</LongitudeDegrees>
            </Position>
            <AltitudeMeters>771</AltitudeMeters>
            <DistanceMeters>14973.430521101</DistanceMeters>
          </Trackpoint>
          <Trackpoint>
            <Time>2020-03-07T13:21:19.000Z</Time>
            <Position>
              <LatitudeDegrees>40.63709157519042491912841796875</LatitudeDegrees>
              <LongitudeDegrees>-3.73099255375564098358154296875</LongitudeDegrees>
            </Position>
            <AltitudeMeters>771.4000244140625</AltitudeMeters>
            <DistanceMeters>14979.118645915</DistanceMeters>
          </Trackpoint>
          <Trackpoint>
            <Time>2020-03-07T13:21:20.000Z</Time>
            <Position>
              <LatitudeDegrees>40.63713901676237583160400390625</LatitudeDegrees>
              <LongitudeDegrees>-3.7310149334371089935302734375</LongitudeDegrees>
            </Position>
            <AltitudeMeters>771.5999755859375</AltitudeMeters>
            <DistanceMeters>14984.726832454</DistanceMeters>
          </Trackpoint>
          <Trackpoint>
            <Time>2020-03-07T13:21:21.000Z</Time>
            <Position>
              <LatitudeDegrees>40.63718729652464389801025390625</LatitudeDegrees>
              <LongitudeDegrees>-3.731036223471164703369140625</LongitudeDegrees>
            </Position>
            <AltitudeMeters>772</AltitudeMeters>
            <DistanceMeters>14990.393485067</DistanceMeters>
          </Trackpoint>
          <Trackpoint>
            <Time>2020-03-07T13:21:22.000Z</Time>
            <Position>
              <LatitudeDegrees>40.63723641447722911834716796875</LatitudeDegrees>
              <LongitudeDegrees>-3.7310568429529666900634765625</LongitudeDegrees>
            </Position>
            <AltitudeMeters>772</AltitudeMeters>
            <DistanceMeters>14996.13139921</DistanceMeters>
          </Trackpoint>
          <Trackpoint>
            <Time>2020-03-07T13:21:23.000Z</Time>
            <Position>
              <LatitudeDegrees>40.6372856162488460540771484375</LatitudeDegrees>
              <LongitudeDegrees>-3.7310772947967052459716796875</LongitudeDegrees>
            </Position>
            <AltitudeMeters>772.20001220703125</AltitudeMeters>
            <DistanceMeters>15001.87403268</DistanceMeters>
          </Trackpoint>
          <Trackpoint>
            <Time>2020-03-07T13:21:24.000Z</Time>
            <Position>
              <LatitudeDegrees>40.6373347342014312744140625</LatitudeDegrees>
              <LongitudeDegrees>-3.73109850101172924041748046875</LongitudeDegrees>
            </Position>
            <AltitudeMeters>772.5999755859375</AltitudeMeters>
            <DistanceMeters>15007.626093188</DistanceMeters>
          </Trackpoint>
          <Trackpoint>
            <Time>2020-03-07T13:21:25.000Z</Time>
            <Position>
              <LatitudeDegrees>40.63738376833498477935791015625</LatitudeDegrees>
              <LongitudeDegrees>-3.7311202101409435272216796875</LongitudeDegrees>
            </Position>
            <AltitudeMeters>772.79998779296875</AltitudeMeters>
            <DistanceMeters>15013.383645674</DistanceMeters>
          </Trackpoint>
          <Trackpoint>
            <Time>2020-03-07T13:21:26.000Z</Time>
            <Position>
              <LatitudeDegrees>40.63743238337337970733642578125</LatitudeDegrees>
              <LongitudeDegrees>-3.7311420030891895294189453125</LongitudeDegrees>
            </Position>
            <AltitudeMeters>773</AltitudeMeters>
            <DistanceMeters>15019.09948477</DistanceMeters>
          </Trackpoint>
          <Trackpoint>
            <Time>2020-03-07T13:21:27.000Z</Time>
            <Position>
              <LatitudeDegrees>40.6374800764024257659912109375</LatitudeDegrees>
              <LongitudeDegrees>-3.73116396367549896240234375</LongitudeDegrees>
            </Position>
            <AltitudeMeters>773.20001220703125</AltitudeMeters>
            <DistanceMeters>15024.722144073</DistanceMeters>
          </Trackpoint>
          <Trackpoint>
            <Time>2020-03-07T13:21:28.000Z</Time>
            <Position>
              <LatitudeDegrees>40.63752676360309123992919921875</LatitudeDegrees>
              <LongitudeDegrees>-3.73118667863309383392333984375</LongitudeDegrees>
            </Position>
            <AltitudeMeters>773.4000244140625</AltitudeMeters>
            <DistanceMeters>15030.260660993</DistanceMeters>
          </Trackpoint>
          <Trackpoint>
            <Time>2020-03-07T13:21:29.000Z</Time>
            <Position>
              <LatitudeDegrees>40.637574456632137298583984375</LatitudeDegrees>
              <LongitudeDegrees>-3.7312097288668155670166015625</LongitudeDegrees>
            </Position>
            <AltitudeMeters>773.5999755859375</AltitudeMeters>
            <DistanceMeters>15035.915349374</DistanceMeters>
          </Trackpoint>
          <Trackpoint>
            <Time>2020-03-07T13:21:30.000Z</Time>
            <Position>
              <LatitudeDegrees>40.63762131147086620330810546875</LatitudeDegrees>
              <LongitudeDegrees>-3.73122976161539554595947265625</LongitudeDegrees>
            </Position>
            <AltitudeMeters>773.79998779296875</AltitudeMeters>
            <DistanceMeters>15041.398975415</DistanceMeters>
          </Trackpoint>
          <Trackpoint>
            <Time>2020-03-07T13:21:31.000Z</Time>
            <Position>
              <LatitudeDegrees>40.63766892068088054656982421875</LatitudeDegrees>
              <LongitudeDegrees>-3.731250129640102386474609375</LongitudeDegrees>
            </Position>
            <AltitudeMeters>774</AltitudeMeters>
            <DistanceMeters>15046.970815579</DistanceMeters>
          </Trackpoint>
          <Trackpoint>
            <Time>2020-03-07T13:21:32.000Z</Time>
            <Position>
              <LatitudeDegrees>40.6377154402434825897216796875</LatitudeDegrees>
              <LongitudeDegrees>-3.7312700785696506500244140625</LongitudeDegrees>
            </Position>
            <AltitudeMeters>774.20001220703125</AltitudeMeters>
            <DistanceMeters>15052.416435015</DistanceMeters>
          </Trackpoint>
          <Trackpoint>
            <Time>2020-03-07T13:21:33.000Z</Time>
            <Position>
              <LatitudeDegrees>40.6377623789012432098388671875</LatitudeDegrees>
              <LongitudeDegrees>-3.731291033327579498291015625</LongitudeDegrees>
            </Position>
            <AltitudeMeters>774.4000244140625</AltitudeMeters>
            <DistanceMeters>15057.932897434</DistanceMeters>
          </Trackpoint>
          <Trackpoint>
            <Time>2020-03-07T13:21:34.000Z</Time>
            <Position>
              <LatitudeDegrees>40.6378099881112575531005859375</LatitudeDegrees>
              <LongitudeDegrees>-3.73131089843809604644775390625</LongitudeDegrees>
            </Position>
            <AltitudeMeters>774.79998779296875</AltitudeMeters>
            <DistanceMeters>15063.491757173</DistanceMeters>
          </Trackpoint>
          <Trackpoint>
            <Time>2020-03-07T13:21:35.000Z</Time>
            <Position>
              <LatitudeDegrees>40.63785734586417675018310546875</LatitudeDegrees>
              <LongitudeDegrees>-3.73133017681539058685302734375</LongitudeDegrees>
            </Position>
            <AltitudeMeters>775</AltitudeMeters>
            <DistanceMeters>15069.008219591</DistanceMeters>
          </Trackpoint>
          <Trackpoint>
            <Time>2020-03-07T13:21:36.000Z</Time>
            <Position>
              <LatitudeDegrees>40.6379038654267787933349609375</LatitudeDegrees>
              <LongitudeDegrees>-3.73134995810687541961669921875</LongitudeDegrees>
            </Position>
            <AltitudeMeters>775.4000244140625</AltitudeMeters>
            <DistanceMeters>15074.448032135</DistanceMeters>
          </Trackpoint>
          <Trackpoint>
            <Time>2020-03-07T13:21:37.000Z</Time>
            <Position>
              <LatitudeDegrees>40.6379508040845394134521484375</LatitudeDegrees>
              <LongitudeDegrees>-3.731370829045772552490234375</LongitudeDegrees>
            </Position>
            <AltitudeMeters>776.20001220703125</AltitudeMeters>
            <DistanceMeters>15079.961219716</DistanceMeters>
          </Trackpoint>
          <Trackpoint>
            <Time>2020-03-07T13:21:38.000Z</Time>
            <Position>
              <LatitudeDegrees>40.63799732364714145660400390625</LatitudeDegrees>
              <LongitudeDegrees>-3.73139320872724056243896484375</LongitudeDegrees>
            </Position>
            <AltitudeMeters>776.4000244140625</AltitudeMeters>
            <DistanceMeters>15085.47276915</DistanceMeters>
          </Trackpoint>
          <Trackpoint>
            <Time>2020-03-07T13:21:39.000Z</Time>
            <Position>
              <LatitudeDegrees>40.6380443461239337921142578125</LatitudeDegrees>
              <LongitudeDegrees>-3.73141583986580371856689453125</LongitudeDegrees>
            </Position>
            <AltitudeMeters>776.5999755859375</AltitudeMeters>
            <DistanceMeters>15091.044609314</DistanceMeters>
          </Trackpoint>
          <Trackpoint>
            <Time>2020-03-07T13:21:40.000Z</Time>
            <Position>
              <LatitudeDegrees>40.6380911171436309814453125</LatitudeDegrees>
              <LongitudeDegrees>-3.73143889009952545166015625</LongitudeDegrees>
            </Position>
            <AltitudeMeters>776.79998779296875</AltitudeMeters>
            <DistanceMeters>15096.603469052</DistanceMeters>
          </Trackpoint>
          <Trackpoint>
            <Time>2020-03-07T13:21:41.000Z</Time>
            <Position>
              <LatitudeDegrees>40.638135373592376708984375</LatitudeDegrees>
              <LongitudeDegrees>-3.73146294616162776947021484375</LongitudeDegrees>
            </Position>
            <AltitudeMeters>777</AltitudeMeters>
            <DistanceMeters>15101.931748356</DistanceMeters>
          </Trackpoint>
          <Trackpoint>
            <Time>2020-03-07T13:21:42.000Z</Time>
            <Position>
              <LatitudeDegrees>40.63817786984145641326904296875</LatitudeDegrees>
              <LongitudeDegrees>-3.73149362392723560333251953125</LongitudeDegrees>
            </Position>
            <AltitudeMeters>777.20001220703125</AltitudeMeters>
            <DistanceMeters>15107.324043429</DistanceMeters>
          </Trackpoint>
          <Trackpoint>
            <Time>2020-03-07T13:21:43.000Z</Time>
            <Position>
              <LatitudeDegrees>40.6382180191576480865478515625</LatitudeDegrees>
              <LongitudeDegrees>-3.73153083957731723785400390625</LongitudeDegrees>
            </Position>
            <AltitudeMeters>777.5999755859375</AltitudeMeters>
            <DistanceMeters>15112.787046508</DistanceMeters>
          </Trackpoint>
          <Trackpoint>
            <Time>2020-03-07T13:21:44.000Z</Time>
            <Position>
              <LatitudeDegrees>40.638255067169666290283203125</LatitudeDegrees>
              <LongitudeDegrees>-3.73157375492155551910400390625</LongitudeDegrees>
            </Position>
            <AltitudeMeters>778</AltitudeMeters>
            <DistanceMeters>15118.277255536</DistanceMeters>
          </Trackpoint>
          <Trackpoint>
            <Time>2020-03-07T13:21:45.000Z</Time>
            <Position>
              <LatitudeDegrees>40.63828716985881328582763671875</LatitudeDegrees>
              <LongitudeDegrees>-3.7316237948834896087646484375</LongitudeDegrees>
            </Position>
            <AltitudeMeters>778.20001220703125</AltitudeMeters>
            <DistanceMeters>15123.81169492</DistanceMeters>
          </Trackpoint>
          <Trackpoint>
            <Time>2020-03-07T13:21:46.000Z</Time>
            <Position>
              <LatitudeDegrees>40.6383152492344379425048828125</LatitudeDegrees>
              <LongitudeDegrees>-3.73167869634926319122314453125</LongitudeDegrees>
            </Position>
            <AltitudeMeters>778.20001220703125</AltitudeMeters>
            <DistanceMeters>15129.40375668</DistanceMeters>
          </Trackpoint>
          <Trackpoint>
            <Time>2020-03-07T13:21:47.000Z</Time>
            <Position>
              <LatitudeDegrees>40.63833779655396938323974609375</LatitudeDegrees>
              <LongitudeDegrees>-3.73173636384308338165283203125</LongitudeDegrees>
            </Position>
            <AltitudeMeters>778.4000244140625</AltitudeMeters>
            <DistanceMeters>15134.883264338</DistanceMeters>
          </Trackpoint>
          <Trackpoint>
            <Time>2020-03-07T13:21:48.000Z</Time>
            <Position>
              <LatitudeDegrees>40.6383539736270904541015625</LatitudeDegrees>
              <LongitudeDegrees>-3.73179721646010875701904296875</LongitudeDegrees>
            </Position>
            <AltitudeMeters>778.79998779296875</AltitudeMeters>
            <DistanceMeters>15140.328883774</DistanceMeters>
          </Trackpoint>
          <Trackpoint>
            <Time>2020-03-07T13:21:49.000Z</Time>
            <Position>
              <LatitudeDegrees>40.638363361358642578125</LatitudeDegrees>
              <LongitudeDegrees>-3.7318608351051807403564453125</LongitudeDegrees>
            </Position>
            <AltitudeMeters>779.20001220703125</AltitudeMeters>
            <DistanceMeters>15145.802620491</DistanceMeters>
          </Trackpoint>
          <Trackpoint>
            <Time>2020-03-07T13:21:50.000Z</Time>
            <Position>
              <LatitudeDegrees>40.63836679793894290924072265625</LatitudeDegrees>
              <LongitudeDegrees>-3.73192680068314075469970703125</LongitudeDegrees>
            </Position>
            <AltitudeMeters>779.4000244140625</AltitudeMeters>
            <DistanceMeters>15151.387410911</DistanceMeters>
          </Trackpoint>
          <Trackpoint>
            <Time>2020-03-07T13:21:51.000Z</Time>
            <Position>
              <LatitudeDegrees>40.638368390500545501708984375</LatitudeDegrees>
              <LongitudeDegrees>-3.7319956161081790924072265625</LongitudeDegrees>
            </Position>
            <AltitudeMeters>779.20001220703125</AltitudeMeters>
            <DistanceMeters>15157.202704221</DistanceMeters>
          </Trackpoint>
          <Trackpoint>
            <Time>2020-03-07T13:21:52.000Z</Time>
            <Position>
              <LatitudeDegrees>40.63837232999503612518310546875</LatitudeDegrees>
              <LongitudeDegrees>-3.732065856456756591796875</LongitudeDegrees>
            </Position>
            <AltitudeMeters>779.5999755859375</AltitudeMeters>
            <DistanceMeters>15163.151558698</DistanceMeters>
          </Trackpoint>
          <Trackpoint>
            <Time>2020-03-07T13:21:53.000Z</Time>
            <Position>
              <LatitudeDegrees>40.63838238827884197235107421875</LatitudeDegrees>
              <LongitudeDegrees>-3.732135593891143798828125</LongitudeDegrees>
            </Position>
            <AltitudeMeters>779.5999755859375</AltitudeMeters>
            <DistanceMeters>15169.148038031</DistanceMeters>
          </Trackpoint>
          <Trackpoint>
            <Time>2020-03-07T13:21:54.000Z</Time>
            <Position>
              <LatitudeDegrees>40.6383994035422801971435546875</LatitudeDegrees>
              <LongitudeDegrees>-3.732203654944896697998046875</LongitudeDegrees>
            </Position>
            <AltitudeMeters>779.5999755859375</AltitudeMeters>
            <DistanceMeters>15175.199979047</DistanceMeters>
          </Trackpoint>
          <Trackpoint>
            <Time>2020-03-07T13:21:55.000Z</Time>
            <Position>
              <LatitudeDegrees>40.6384255550801753997802734375</LatitudeDegrees>
              <LongitudeDegrees>-3.732266016304492950439453125</LongitudeDegrees>
            </Position>
            <AltitudeMeters>779.79998779296875</AltitudeMeters>
            <DistanceMeters>15181.217503998</DistanceMeters>
          </Trackpoint>
          <Trackpoint>
            <Time>2020-03-07T13:21:56.000Z</Time>
            <Position>
              <LatitudeDegrees>40.63846101053059101104736328125</LatitudeDegrees>
              <LongitudeDegrees>-3.73232133686542510986328125</LongitudeDegrees>
            </Position>
            <AltitudeMeters>779.79998779296875</AltitudeMeters>
            <DistanceMeters>15187.333268597</DistanceMeters>
          </Trackpoint>
          <Trackpoint>
            <Time>2020-03-07T13:21:57.000Z</Time>
            <Position>
              <LatitudeDegrees>40.63850191421806812286376953125</LatitudeDegrees>
              <LongitudeDegrees>-3.73236718587577342987060546875</LongitudeDegrees>
            </Position>
            <AltitudeMeters>779.79998779296875</AltitudeMeters>
            <DistanceMeters>15193.310139218</DistanceMeters>
          </Trackpoint>
          <Trackpoint>
            <Time>2020-03-07T13:21:58.000Z</Time>
            <Position>
              <LatitudeDegrees>40.6385470926761627197265625</LatitudeDegrees>
              <LongitudeDegrees>-3.7324043177068233489990234375</LongitudeDegrees>
            </Position>
            <AltitudeMeters>779.79998779296875</AltitudeMeters>
            <DistanceMeters>15199.236942519</DistanceMeters>
          </Trackpoint>
          <Trackpoint>
            <Time>2020-03-07T13:21:59.000Z</Time>
            <Position>
              <LatitudeDegrees>40.6385948695242404937744140625</LatitudeDegrees>
              <LongitudeDegrees>-3.73243440873920917510986328125</LongitudeDegrees>
            </Position>
            <AltitudeMeters>779.79998779296875</AltitudeMeters>
            <DistanceMeters>15205.130131299</DistanceMeters>
          </Trackpoint>
          <Trackpoint>
            <Time>2020-03-07T13:22:00.000Z</Time>
            <Position>
              <LatitudeDegrees>40.63864541240036487579345703125</LatitudeDegrees>
              <LongitudeDegrees>-3.7324603088200092315673828125</LongitudeDegrees>
            </Position>
            <AltitudeMeters>779.79998779296875</AltitudeMeters>
            <DistanceMeters>15211.165636943</DistanceMeters>
          </Trackpoint>
          <Trackpoint>
            <Time>2020-03-07T13:22:01.000Z</Time>
            <Position>
              <LatitudeDegrees>40.63869771547615528106689453125</LatitudeDegrees>
              <LongitudeDegrees>-3.73248151503503322601318359375</LongitudeDegrees>
            </Position>
            <AltitudeMeters>779.79998779296875</AltitudeMeters>
            <DistanceMeters>15217.256248902</DistanceMeters>
          </Trackpoint>
          <Trackpoint>
            <Time>2020-03-07T13:22:02.000Z</Time>
            <Position>
              <LatitudeDegrees>40.63875169493257999420166015625</LatitudeDegrees>
              <LongitudeDegrees>-3.73249844647943973541259765625</LongitudeDegrees>
            </Position>
            <AltitudeMeters>780</AltitudeMeters>
            <DistanceMeters>15223.431523213</DistanceMeters>
          </Trackpoint>
          <Trackpoint>
            <Time>2020-03-07T13:22:03.000Z</Time>
            <Position>
              <LatitudeDegrees>40.63880550675094127655029296875</LatitudeDegrees>
              <LongitudeDegrees>-3.73251152224838733673095703125</LongitudeDegrees>
            </Position>
            <AltitudeMeters>780</AltitudeMeters>
            <DistanceMeters>15229.522135172</DistanceMeters>
          </Trackpoint>
          <Trackpoint>
            <Time>2020-03-07T13:22:04.000Z</Time>
            <Position>
              <LatitudeDegrees>40.63886233605444431304931640625</LatitudeDegrees>
              <LongitudeDegrees>-3.73251982033252716064453125</LongitudeDegrees>
            </Position>
            <AltitudeMeters>780</AltitudeMeters>
            <DistanceMeters>15235.885378274</DistanceMeters>
          </Trackpoint>
          <Trackpoint>
            <Time>2020-03-07T13:22:05.000Z</Time>
            <Position>
              <LatitudeDegrees>40.638918578624725341796875</LatitudeDegrees>
              <LongitudeDegrees>-3.7325199879705905914306640625</LongitudeDegrees>
            </Position>
            <AltitudeMeters>780.20001220703125</AltitudeMeters>
            <DistanceMeters>15242.145612436</DistanceMeters>
          </Trackpoint>
          <Trackpoint>
            <Time>2020-03-07T13:22:06.000Z</Time>
            <Position>
              <LatitudeDegrees>40.6389757432043552398681640625</LatitudeDegrees>
              <LongitudeDegrees>-3.7325106002390384674072265625</LongitudeDegrees>
            </Position>
            <AltitudeMeters>780.4000244140625</AltitudeMeters>
            <DistanceMeters>15248.556923376</DistanceMeters>
          </Trackpoint>
          <Trackpoint>
            <Time>2020-03-07T13:22:07.000Z</Time>
            <Position>
              <LatitudeDegrees>40.63903081230819225311279296875</LatitudeDegrees>
              <LongitudeDegrees>-3.73248989693820476531982421875</LongitudeDegrees>
            </Position>
            <AltitudeMeters>780.5999755859375</AltitudeMeters>
            <DistanceMeters>15254.930092435</DistanceMeters>
          </Trackpoint>
          <Trackpoint>
            <Time>2020-03-07T13:22:08.000Z</Time>
            <Position>
              <LatitudeDegrees>40.63908361829817295074462890625</LatitudeDegrees>
              <LongitudeDegrees>-3.73246072791516780853271484375</LongitudeDegrees>
            </Position>
            <AltitudeMeters>780.5999755859375</AltitudeMeters>
            <DistanceMeters>15261.303261493</DistanceMeters>
          </Trackpoint>
          <Trackpoint>
            <Time>2020-03-07T13:22:09.000Z</Time>
            <Position>
              <LatitudeDegrees>40.6391333229839801788330078125</LatitudeDegrees>
              <LongitudeDegrees>-3.73242326080799102783203125</LongitudeDegrees>
            </Position>
            <AltitudeMeters>780.79998779296875</AltitudeMeters>
            <DistanceMeters>15267.676430551</DistanceMeters>
          </Trackpoint>
          <Trackpoint>
            <Time>2020-03-07T13:22:10.000Z</Time>
            <Position>
              <LatitudeDegrees>40.63918051309883594512939453125</LatitudeDegrees>
              <LongitudeDegrees>-3.732382021844387054443359375</LongitudeDegrees>
            </Position>
            <AltitudeMeters>780.79998779296875</AltitudeMeters>
            <DistanceMeters>15273.978356939</DistanceMeters>
          </Trackpoint>
          <Trackpoint>
            <Time>2020-03-07T13:22:11.000Z</Time>
            <Position>
              <LatitudeDegrees>40.6392268650233745574951171875</LatitudeDegrees>
              <LongitudeDegrees>-3.7323399446904659271240234375</LongitudeDegrees>
            </Position>
            <AltitudeMeters>781</AltitudeMeters>
            <DistanceMeters>15280.242916958</DistanceMeters>
          </Trackpoint>
          <Trackpoint>
            <Time>2020-03-07T13:22:12.000Z</Time>
            <Position>
              <LatitudeDegrees>40.639272630214691162109375</LatitudeDegrees>
              <LongitudeDegrees>-3.7322983704507350921630859375</LongitudeDegrees>
            </Position>
            <AltitudeMeters>781.20001220703125</AltitudeMeters>
            <DistanceMeters>15286.429878574</DistanceMeters>
          </Trackpoint>
          <Trackpoint>
            <Time>2020-03-07T13:22:13.000Z</Time>
            <Position>
              <LatitudeDegrees>40.639317892491817474365234375</LatitudeDegrees>
              <LongitudeDegrees>-3.73225537128746509552001953125</LongitudeDegrees>
            </Position>
            <AltitudeMeters>781.20001220703125</AltitudeMeters>
            <DistanceMeters>15292.640148817</DistanceMeters>
          </Trackpoint>
          <Trackpoint>
            <Time>2020-03-07T13:22:14.000Z</Time>
            <Position>
              <LatitudeDegrees>40.6393623165786266326904296875</LatitudeDegrees>
              <LongitudeDegrees>-3.73221145011484622955322265625</LongitudeDegrees>
            </Position>
            <AltitudeMeters>781.4000244140625</AltitudeMeters>
            <DistanceMeters>15298.821269544</DistanceMeters>
          </Trackpoint>
          <Trackpoint>
            <Time>2020-03-07T13:22:15.000Z</Time>
            <Position>
              <LatitudeDegrees>40.63940766267478466033935546875</LatitudeDegrees>
              <LongitudeDegrees>-3.732167445123195648193359375</LongitudeDegrees>
            </Position>
            <AltitudeMeters>781.4000244140625</AltitudeMeters>
            <DistanceMeters>15305.089432162</DistanceMeters>
          </Trackpoint>
          <Trackpoint>
            <Time>2020-03-07T13:22:16.000Z</Time>
            <Position>
              <LatitudeDegrees>40.63945443369448184967041015625</LatitudeDegrees>
              <LongitudeDegrees>-3.7321246974170207977294921875</LongitudeDegrees>
            </Position>
            <AltitudeMeters>781.5999755859375</AltitudeMeters>
            <DistanceMeters>15311.42422969</DistanceMeters>
          </Trackpoint>
          <Trackpoint>
            <Time>2020-03-07T13:22:17.000Z</Time>
            <Position>
              <LatitudeDegrees>40.63950170762836933135986328125</LatitudeDegrees>
              <LongitudeDegrees>-3.73208186589181423187255859375</LongitudeDegrees>
            </Position>
            <AltitudeMeters>781.79998779296875</AltitudeMeters>
            <DistanceMeters>15317.808723802</DistanceMeters>
          </Trackpoint>
          <Trackpoint>
            <Time>2020-03-07T13:22:18.000Z</Time>
            <Position>
              <LatitudeDegrees>40.63954931683838367462158203125</LatitudeDegrees>
              <LongitudeDegrees>-3.732042051851749420166015625</LongitudeDegrees>
            </Position>
            <AltitudeMeters>782</AltitudeMeters>
            <DistanceMeters>15324.08480486</DistanceMeters>
          </Trackpoint>
          <Trackpoint>
            <Time>2020-03-07T13:22:19.000Z</Time>
            <Position>
              <LatitudeDegrees>40.63960011117160320281982421875</LatitudeDegrees>
              <LongitudeDegrees>-3.73200374655425548553466796875</LongitudeDegrees>
            </Position>
            <AltitudeMeters>782</AltitudeMeters>
            <DistanceMeters>15330.598815085</DistanceMeters>
          </Trackpoint>
          <Trackpoint>
            <Time>2020-03-07T13:22:20.000Z</Time>
            <Position>
              <LatitudeDegrees>40.63965006731450557708740234375</LatitudeDegrees>
              <LongitudeDegrees>-3.731963597238063812255859375</LongitudeDegrees>
            </Position>
            <AltitudeMeters>782.4000244140625</AltitudeMeters>
            <DistanceMeters>15337.110745596</DistanceMeters>
          </Trackpoint>
          <Trackpoint>
            <Time>2020-03-07T13:22:21.000Z</Time>
            <Position>
              <LatitudeDegrees>40.639699436724185943603515625</LatitudeDegrees>
              <LongitudeDegrees>-3.73192168772220611572265625</LongitudeDegrees>
            </Position>
            <AltitudeMeters>782.79998779296875</AltitudeMeters>
            <DistanceMeters>15343.647589003</DistanceMeters>
          </Trackpoint>
          <Trackpoint>
            <Time>2020-03-07T13:22:22.000Z</Time>
            <Position>
              <LatitudeDegrees>40.6397485546767711639404296875</LatitudeDegrees>
              <LongitudeDegrees>-3.731879107654094696044921875</LongitudeDegrees>
            </Position>
            <AltitudeMeters>783.20001220703125</AltitudeMeters>
            <DistanceMeters>15350.191335827</DistanceMeters>
          </Trackpoint>
          <Trackpoint>
            <Time>2020-03-07T13:22:23.000Z</Time>
            <Position>
              <LatitudeDegrees>40.63979876227676868438720703125</LatitudeDegrees>
              <LongitudeDegrees>-3.73183510266244411468505859375</LongitudeDegrees>
            </Position>
            <AltitudeMeters>783.4000244140625</AltitudeMeters>
            <DistanceMeters>15356.902671112</DistanceMeters>
          </Trackpoint>
          <Trackpoint>
            <Time>2020-03-07T13:22:24.000Z</Time>
            <Position>
              <LatitudeDegrees>40.63984922133386135101318359375</LatitudeDegrees>
              <LongitudeDegrees>-3.731789924204349517822265625</LongitudeDegrees>
            </Position>
            <AltitudeMeters>783.79998779296875</AltitudeMeters>
            <DistanceMeters>15363.691596665</DistanceMeters>
          </Trackpoint>
          <Trackpoint>
            <Time>2020-03-07T13:22:25.000Z</Time>
            <Position>
              <LatitudeDegrees>40.63990353606641292572021484375</LatitudeDegrees>
              <LongitudeDegrees>-3.7317498587071895599365234375</LongitudeDegrees>
            </Position>
            <AltitudeMeters>784</AltitudeMeters>
            <DistanceMeters>15370.620080365</DistanceMeters>
          </Trackpoint>
          <Trackpoint>
            <Time>2020-03-07T13:22:26.000Z</Time>
            <Position>
              <LatitudeDegrees>40.63996262848377227783203125</LatitudeDegrees>
              <LongitudeDegrees>-3.731718845665454864501953125</LongitudeDegrees>
            </Position>
            <AltitudeMeters>784</AltitudeMeters>
            <DistanceMeters>15377.699411143</DistanceMeters>
          </Trackpoint>
          <Trackpoint>
            <Time>2020-03-07T13:22:27.000Z</Time>
            <Position>
              <LatitudeDegrees>40.6400261633098125457763671875</LatitudeDegrees>
              <LongitudeDegrees>-3.731695711612701416015625</LongitudeDegrees>
            </Position>
            <AltitudeMeters>784.20001220703125</AltitudeMeters>
            <DistanceMeters>15385.035571965</DistanceMeters>
          </Trackpoint>
          <Trackpoint>
            <Time>2020-03-07T13:22:28.000Z</Time>
            <Position>
              <LatitudeDegrees>40.64009263180196285247802734375</LatitudeDegrees>
              <LongitudeDegrees>-3.7316787801682949066162109375</LongitudeDegrees>
            </Position>
            <AltitudeMeters>784.20001220703125</AltitudeMeters>
            <DistanceMeters>15392.570896821</DistanceMeters>
          </Trackpoint>
          <Trackpoint>
            <Time>2020-03-07T13:22:29.000Z</Time>
            <Position>
              <LatitudeDegrees>40.6401596032083034515380859375</LatitudeDegrees>
              <LongitudeDegrees>-3.731663860380649566650390625</LongitudeDegrees>
            </Position>
            <AltitudeMeters>784.20001220703125</AltitudeMeters>
            <DistanceMeters>15400.131345477</DistanceMeters>
          </Trackpoint>
          <Trackpoint>
            <Time>2020-03-07T13:22:30.000Z</Time>
            <Position>
              <LatitudeDegrees>40.6402263231575489044189453125</LatitudeDegrees>
              <LongitudeDegrees>-3.73165078461170196533203125</LongitudeDegrees>
            </Position>
            <AltitudeMeters>784.20001220703125</AltitudeMeters>
            <DistanceMeters>15407.639057323</DistanceMeters>
          </Trackpoint>
          <Trackpoint>
            <Time>2020-03-07T13:22:31.000Z</Time>
            <Position>
              <LatitudeDegrees>40.64029413275420665740966796875</LatitudeDegrees>
              <LongitudeDegrees>-3.7316378764808177947998046875</LongitudeDegrees>
            </Position>
            <AltitudeMeters>784.20001220703125</AltitudeMeters>
            <DistanceMeters>15415.264914147</DistanceMeters>
          </Trackpoint>
          <Trackpoint>
            <Time>2020-03-07T13:22:32.000Z</Time>
            <Position>
              <LatitudeDegrees>40.6403629481792449951171875</LatitudeDegrees>
              <LongitudeDegrees>-3.7316201068460941314697265625</LongitudeDegrees>
            </Position>
            <AltitudeMeters>784.20001220703125</AltitudeMeters>
            <DistanceMeters>15423.069841802</DistanceMeters>
          </Trackpoint>
          <Trackpoint>
            <Time>2020-03-07T13:22:33.000Z</Time>
            <Position>
              <LatitudeDegrees>40.6404274888336658477783203125</LatitudeDegrees>
              <LongitudeDegrees>-3.7316020019352436065673828125</LongitudeDegrees>
            </Position>
            <AltitudeMeters>784.20001220703125</AltitudeMeters>
            <DistanceMeters>15430.414613866</DistanceMeters>
          </Trackpoint>
          <Trackpoint>
            <Time>2020-03-07T13:22:34.000Z</Time>
            <Position>
              <LatitudeDegrees>40.64048859290778636932373046875</LatitudeDegrees>
              <LongitudeDegrees>-3.73158238828182220458984375</LongitudeDegrees>
            </Position>
            <AltitudeMeters>784.20001220703125</AltitudeMeters>
            <DistanceMeters>15437.41441349</DistanceMeters>
          </Trackpoint>
          <Trackpoint>
            <Time>2020-03-07T13:22:35.000Z</Time>
            <Position>
              <LatitudeDegrees>40.64054810442030429840087890625</LatitudeDegrees>
              <LongitudeDegrees>-3.73156000860035419464111328125</LongitudeDegrees>
            </Position>
            <AltitudeMeters>784.20001220703125</AltitudeMeters>
            <DistanceMeters>15444.303686441</DistanceMeters>
          </Trackpoint>
          <Trackpoint>
            <Time>2020-03-07T13:22:36.000Z</Time>
            <Position>
              <LatitudeDegrees>40.640605352818965911865234375</LatitudeDegrees>
              <LongitudeDegrees>-3.73154156841337680816650390625</LongitudeDegrees>
            </Position>
            <AltitudeMeters>784.20001220703125</AltitudeMeters>
            <DistanceMeters>15450.862595206</DistanceMeters>
          </Trackpoint>
          <Trackpoint>
            <Time>2020-03-07T13:22:37.000Z</Time>
            <Position>
              <LatitudeDegrees>40.64065991900861263275146484375</LatitudeDegrees>
              <LongitudeDegrees>-3.731522373855113983154296875</LongitudeDegrees>
            </Position>
            <AltitudeMeters>784.20001220703125</AltitudeMeters>
            <DistanceMeters>15457.147303183</DistanceMeters>
          </Trackpoint>
          <Trackpoint>
            <Time>2020-03-07T13:22:38.000Z</Time>
            <Position>
              <LatitudeDegrees>40.64071674831211566925048828125</LatitudeDegrees>
              <LongitudeDegrees>-3.73150535859167575836181640625</LongitudeDegrees>
            </Position>
            <AltitudeMeters>784.20001220703125</AltitudeMeters>
            <DistanceMeters>15463.633529062</DistanceMeters>
          </Trackpoint>
          <Trackpoint>
            <Time>2020-03-07T13:22:39.000Z</Time>
            <Position>
              <LatitudeDegrees>40.6407751701772212982177734375</LatitudeDegrees>
              <LongitudeDegrees>-3.73149060644209384918212890625</LongitudeDegrees>
            </Position>
            <AltitudeMeters>784.20001220703125</AltitudeMeters>
            <DistanceMeters>15470.255466182</DistanceMeters>
          </Trackpoint>
          <Trackpoint>
            <Time>2020-03-07T13:22:40.000Z</Time>
            <Position>
              <LatitudeDegrees>40.6408331729471683502197265625</LatitudeDegrees>
              <LongitudeDegrees>-3.731473423540592193603515625</LongitudeDegrees>
            </Position>
            <AltitudeMeters>784.20001220703125</AltitudeMeters>
            <DistanceMeters>15476.872628767</DistanceMeters>
          </Trackpoint>
          <Trackpoint>
            <Time>2020-03-07T13:22:41.000Z</Time>
            <Position>
              <LatitudeDegrees>40.64088958315551280975341796875</LatitudeDegrees>
              <LongitudeDegrees>-3.73145766556262969970703125</LongitudeDegrees>
            </Position>
            <AltitudeMeters>784.20001220703125</AltitudeMeters>
            <DistanceMeters>15483.290978145</DistanceMeters>
          </Trackpoint>
          <Trackpoint>
            <Time>2020-03-07T13:22:42.000Z</Time>
            <Position>
              <LatitudeDegrees>40.640943981707096099853515625</LatitudeDegrees>
              <LongitudeDegrees>-3.73143889009952545166015625</LongitudeDegrees>
            </Position>
            <AltitudeMeters>784.20001220703125</AltitudeMeters>
            <DistanceMeters>15489.551212307</DistanceMeters>
          </Trackpoint>
          <Trackpoint>
            <Time>2020-03-07T13:22:43.000Z</Time>
            <Position>
              <LatitudeDegrees>40.64099569804966449737548828125</LatitudeDegrees>
              <LongitudeDegrees>-3.73141651041805744171142578125</LongitudeDegrees>
            </Position>
            <AltitudeMeters>784.20001220703125</AltitudeMeters>
            <DistanceMeters>15495.610609209</DistanceMeters>
          </Trackpoint>
          <Trackpoint>
            <Time>2020-03-07T13:22:44.000Z</Time>
            <Position>
              <LatitudeDegrees>40.64104213379323482513427734375</LatitudeDegrees>
              <LongitudeDegrees>-3.73138985596597194671630859375</LongitudeDegrees>
            </Position>
            <AltitudeMeters>784.5999755859375</AltitudeMeters>
            <DistanceMeters>15501.248505012</DistanceMeters>
          </Trackpoint>
          <Trackpoint>
            <Time>2020-03-07T13:22:45.000Z</Time>
            <Position>
              <LatitudeDegrees>40.6410903297364711761474609375</LatitudeDegrees>
              <LongitudeDegrees>-3.7313703261315822601318359375</LongitudeDegrees>
            </Position>
            <AltitudeMeters>784.79998779296875</AltitudeMeters>
            <DistanceMeters>15506.860715507</DistanceMeters>
          </Trackpoint>
          <Trackpoint>
            <Time>2020-03-07T13:22:46.000Z</Time>
            <Position>
              <LatitudeDegrees>40.6411389447748661041259765625</LatitudeDegrees>
              <LongitudeDegrees>-3.73135968111455440521240234375</LongitudeDegrees>
            </Position>
            <AltitudeMeters>785</AltitudeMeters>
            <DistanceMeters>15512.345988035</DistanceMeters>
          </Trackpoint>
          <Trackpoint>
            <Time>2020-03-07T13:22:47.000Z</Time>
            <Position>
              <LatitudeDegrees>40.641193091869354248046875</LatitudeDegrees>
              <LongitudeDegrees>-3.73134769499301910400390625</LongitudeDegrees>
            </Position>
            <AltitudeMeters>785.20001220703125</AltitudeMeters>
            <DistanceMeters>15518.457321455</DistanceMeters>
          </Trackpoint>
          <Trackpoint>
            <Time>2020-03-07T13:22:48.000Z</Time>
            <Position>
              <LatitudeDegrees>40.641252100467681884765625</LatitudeDegrees>
              <LongitudeDegrees>-3.73133688233792781829833984375</LongitudeDegrees>
            </Position>
            <AltitudeMeters>785.20001220703125</AltitudeMeters>
            <DistanceMeters>15525.088116446</DistanceMeters>
          </Trackpoint>
          <Trackpoint>
            <Time>2020-03-07T13:22:49.000Z</Time>
            <Position>
              <LatitudeDegrees>40.6413119472563266754150390625</LatitudeDegrees>
              <LongitudeDegrees>-3.73132045380771160125732421875</LongitudeDegrees>
            </Position>
            <AltitudeMeters>785.4000244140625</AltitudeMeters>
            <DistanceMeters>15531.89232117</DistanceMeters>
          </Trackpoint>
          <Trackpoint>
            <Time>2020-03-07T13:22:50.000Z</Time>
            <Position>
              <LatitudeDegrees>40.64137556590139865875244140625</LatitudeDegrees>
              <LongitudeDegrees>-3.7313076294958591461181640625</LongitudeDegrees>
            </Position>
            <AltitudeMeters>785.4000244140625</AltitudeMeters>
            <DistanceMeters>15539.055343881</DistanceMeters>
          </Trackpoint>
          <Trackpoint>
            <Time>2020-03-07T13:22:51.000Z</Time>
            <Position>
              <LatitudeDegrees>40.641441531479358673095703125</LatitudeDegrees>
              <LongitudeDegrees>-3.73129673302173614501953125</LongitudeDegrees>
            </Position>
            <AltitudeMeters>785.5999755859375</AltitudeMeters>
            <DistanceMeters>15546.454624486</DistanceMeters>
          </Trackpoint>
          <Trackpoint>
            <Time>2020-03-07T13:22:52.000Z</Time>
            <Position>
              <LatitudeDegrees>40.64150347374379634857177734375</LatitudeDegrees>
              <LongitudeDegrees>-3.73128122650086879730224609375</LongitudeDegrees>
            </Position>
            <AltitudeMeters>785.5999755859375</AltitudeMeters>
            <DistanceMeters>15553.472461541</DistanceMeters>
          </Trackpoint>
          <Trackpoint>
            <Time>2020-03-07T13:22:53.000Z</Time>
            <Position>
              <LatitudeDegrees>40.6415657512843608856201171875</LatitudeDegrees>
              <LongitudeDegrees>-3.73126982711255550384521484375</LongitudeDegrees>
            </Position>
            <AltitudeMeters>785.79998779296875</AltitudeMeters>
            <DistanceMeters>15560.469680594</DistanceMeters>
          </Trackpoint>
          <Trackpoint>
            <Time>2020-03-07T13:22:54.000Z</Time>
            <Position>
              <LatitudeDegrees>40.64162299968302249908447265625</LatitudeDegrees>
              <LongitudeDegrees>-3.73125708661973476409912109375</LongitudeDegrees>
            </Position>
            <AltitudeMeters>786</AltitudeMeters>
            <DistanceMeters>15566.931497171</DistanceMeters>
          </Trackpoint>
          <Trackpoint>
            <Time>2020-03-07T13:22:55.000Z</Time>
            <Position>
              <LatitudeDegrees>40.6416745483875274658203125</LatitudeDegrees>
              <LongitudeDegrees>-3.73124434612691402435302734375</LongitudeDegrees>
            </Position>
            <AltitudeMeters>786</AltitudeMeters>
            <DistanceMeters>15572.76771584</DistanceMeters>
          </Trackpoint>
          <Trackpoint>
            <Time>2020-03-07T13:22:56.000Z</Time>
            <Position>
              <LatitudeDegrees>40.64172257669270038604736328125</LatitudeDegrees>
              <LongitudeDegrees>-3.73123395256698131561279296875</LongitudeDegrees>
            </Position>
            <AltitudeMeters>786.20001220703125</AltitudeMeters>
            <DistanceMeters>15578.185072062</DistanceMeters>
          </Trackpoint>
          <Trackpoint>
            <Time>2020-03-07T13:22:57.000Z</Time>
            <Position>
              <LatitudeDegrees>40.64176909625530242919921875</LatitudeDegrees>
              <LongitudeDegrees>-3.731224648654460906982421875</LongitudeDegrees>
            </Position>
            <AltitudeMeters>786.4000244140625</AltitudeMeters>
            <DistanceMeters>15583.422759743</DistanceMeters>
          </Trackpoint>
          <Trackpoint>
            <Time>2020-03-07T13:22:58.000Z</Time>
            <Position>
              <LatitudeDegrees>40.6418162025511264801025390625</LatitudeDegrees>
              <LongitudeDegrees>-3.73121417127549648284912109375</LongitudeDegrees>
            </Position>
            <AltitudeMeters>786.5999755859375</AltitudeMeters>
            <DistanceMeters>15588.740011791</DistanceMeters>
          </Trackpoint>
          <Trackpoint>
            <Time>2020-03-07T13:22:59.000Z</Time>
            <Position>
              <LatitudeDegrees>40.64186322502791881561279296875</LatitudeDegrees>
              <LongitudeDegrees>-3.731201849877834320068359375</LongitudeDegrees>
            </Position>
            <AltitudeMeters>787</AltitudeMeters>
            <DistanceMeters>15594.075911999</DistanceMeters>
          </Trackpoint>
          <Trackpoint>
            <Time>2020-03-07T13:23:00.000Z</Time>
            <Position>
              <LatitudeDegrees>40.64190831966698169708251953125</LatitudeDegrees>
              <LongitudeDegrees>-3.73118885792791843414306640625</LongitudeDegrees>
            </Position>
            <AltitudeMeters>788</AltitudeMeters>
            <DistanceMeters>15599.214388769</DistanceMeters>
          </Trackpoint>
          <Trackpoint>
            <Time>2020-03-07T13:23:01.000Z</Time>
            <Position>
              <LatitudeDegrees>40.64195358194410800933837890625</LatitudeDegrees>
              <LongitudeDegrees>-3.73117377050220966339111328125</LongitudeDegrees>
            </Position>
            <AltitudeMeters>788.4000244140625</AltitudeMeters>
            <DistanceMeters>15604.410534319</DistanceMeters>
          </Trackpoint>
          <Trackpoint>
            <Time>2020-03-07T13:23:02.000Z</Time>
            <Position>
              <LatitudeDegrees>40.64199733547866344451904296875</LatitudeDegrees>
              <LongitudeDegrees>-3.73115935362875461578369140625</LongitudeDegrees>
            </Position>
            <AltitudeMeters>788.79998779296875</AltitudeMeters>
            <DistanceMeters>15609.429888189</DistanceMeters>
          </Trackpoint>
          <Trackpoint>
            <Time>2020-03-07T13:23:03.000Z</Time>
            <Position>
              <LatitudeDegrees>40.64204343594610691070556640625</LatitudeDegrees>
              <LongitudeDegrees>-3.73114409856498241424560546875</LongitudeDegrees>
            </Position>
            <AltitudeMeters>789</AltitudeMeters>
            <DistanceMeters>15614.720751727</DistanceMeters>
          </Trackpoint>
          <Trackpoint>
            <Time>2020-03-07T13:23:04.000Z</Time>
            <Position>
              <LatitudeDegrees>40.642086602747440338134765625</LatitudeDegrees>
              <LongitudeDegrees>-3.7311299331486225128173828125</LongitudeDegrees>
            </Position>
            <AltitudeMeters>789.5999755859375</AltitudeMeters>
            <DistanceMeters>15619.671269626</DistanceMeters>
          </Trackpoint>
          <Trackpoint>
            <Time>2020-03-07T13:23:05.000Z</Time>
            <Position>
              <LatitudeDegrees>40.642131865024566650390625</LatitudeDegrees>
              <LongitudeDegrees>-3.73111375607550144195556640625</LongitudeDegrees>
            </Position>
            <AltitudeMeters>790.20001220703125</AltitudeMeters>
            <DistanceMeters>15624.89168826</DistanceMeters>
          </Trackpoint>
          <Trackpoint>
            <Time>2020-03-07T13:23:06.000Z</Time>
            <Position>
              <LatitudeDegrees>40.6421759538352489471435546875</LatitudeDegrees>
              <LongitudeDegrees>-3.73109732754528522491455078125</LongitudeDegrees>
            </Position>
            <AltitudeMeters>790.5999755859375</AltitudeMeters>
            <DistanceMeters>15629.991356892</DistanceMeters>
          </Trackpoint>
          <Trackpoint>
            <Time>2020-03-07T13:23:07.000Z</Time>
            <Position>
              <LatitudeDegrees>40.642221383750438690185546875</LatitudeDegrees>
              <LongitudeDegrees>-3.7310816533863544464111328125</LongitudeDegrees>
            </Position>
            <AltitudeMeters>790.79998779296875</AltitudeMeters>
            <DistanceMeters>15635.217826182</DistanceMeters>
          </Trackpoint>
          <Trackpoint>
            <Time>2020-03-07T13:23:08.000Z</Time>
            <Position>
              <LatitudeDegrees>40.6422681547701358795166015625</LatitudeDegrees>
              <LongitudeDegrees>-3.7310665659606456756591796875</LongitudeDegrees>
            </Position>
            <AltitudeMeters>791</AltitudeMeters>
            <DistanceMeters>15640.576524074</DistanceMeters>
          </Trackpoint>
          <Trackpoint>
            <Time>2020-03-07T13:23:09.000Z</Time>
            <Position>
              <LatitudeDegrees>40.64231568016111850738525390625</LatitudeDegrees>
              <LongitudeDegrees>-3.7310518138110637664794921875</LongitudeDegrees>
            </Position>
            <AltitudeMeters>791.20001220703125</AltitudeMeters>
            <DistanceMeters>15646.010523519</DistanceMeters>
          </Trackpoint>
          <Trackpoint>
            <Time>2020-03-07T13:23:10.000Z</Time>
            <Position>
              <LatitudeDegrees>40.6423623673617839813232421875</LatitudeDegrees>
              <LongitudeDegrees>-3.731035888195037841796875</LongitudeDegrees>
            </Position>
            <AltitudeMeters>791.79998779296875</AltitudeMeters>
            <DistanceMeters>15651.377640422</DistanceMeters>
          </Trackpoint>
          <Trackpoint>
            <Time>2020-03-07T13:23:11.000Z</Time>
            <Position>
              <LatitudeDegrees>40.64241006039083003997802734375</LatitudeDegrees>
              <LongitudeDegrees>-3.7310172803699970245361328125</LongitudeDegrees>
            </Position>
            <AltitudeMeters>792</AltitudeMeters>
            <DistanceMeters>15656.913711182</DistanceMeters>
          </Trackpoint>
          <Trackpoint>
            <Time>2020-03-07T13:23:12.000Z</Time>
            <Position>
              <LatitudeDegrees>40.64245800487697124481201171875</LatitudeDegrees>
              <LongitudeDegrees>-3.7309968285262584686279296875</LongitudeDegrees>
            </Position>
            <AltitudeMeters>792.20001220703125</AltitudeMeters>
            <DistanceMeters>15662.521092583</DistanceMeters>
          </Trackpoint>
          <Trackpoint>
            <Time>2020-03-07T13:23:13.000Z</Time>
            <Position>
              <LatitudeDegrees>40.64250594936311244964599609375</LatitudeDegrees>
              <LongitudeDegrees>-3.73097629286348819732666015625</LongitudeDegrees>
            </Position>
            <AltitudeMeters>792.5999755859375</AltitudeMeters>
            <DistanceMeters>15668.132498517</DistanceMeters>
          </Trackpoint>
          <Trackpoint>
            <Time>2020-03-07T13:23:14.000Z</Time>
            <Position>
              <LatitudeDegrees>40.64255523495376110076904296875</LatitudeDegrees>
              <LongitudeDegrees>-3.73095885850489139556884765625</LongitudeDegrees>
            </Position>
            <AltitudeMeters>793</AltitudeMeters>
            <DistanceMeters>15673.812680128</DistanceMeters>
          </Trackpoint>
          <Trackpoint>
            <Time>2020-03-07T13:23:15.000Z</Time>
            <Position>
              <LatitudeDegrees>40.6426061131060123443603515625</LatitudeDegrees>
              <LongitudeDegrees>-3.7309460341930389404296875</LongitudeDegrees>
            </Position>
            <AltitudeMeters>793.20001220703125</AltitudeMeters>
            <DistanceMeters>15679.578852296</DistanceMeters>
          </Trackpoint>
          <Trackpoint>
            <Time>2020-03-07T13:23:16.000Z</Time>
            <Position>
              <LatitudeDegrees>40.6426577456295490264892578125</LatitudeDegrees>
              <LongitudeDegrees>-3.7309358082711696624755859375</LongitudeDegrees>
            </Position>
            <AltitudeMeters>793.4000244140625</AltitudeMeters>
            <DistanceMeters>15685.390262271</DistanceMeters>
          </Trackpoint>
          <Trackpoint>
            <Time>2020-03-07T13:23:17.000Z</Time>
            <Position>
              <LatitudeDegrees>40.6427093781530857086181640625</LatitudeDegrees>
              <LongitudeDegrees>-3.73092658817768096923828125</LongitudeDegrees>
            </Position>
            <AltitudeMeters>793.5999755859375</AltitudeMeters>
            <DistanceMeters>15691.190006641</DistanceMeters>
          </Trackpoint>
          <Trackpoint>
            <Time>2020-03-07T13:23:18.000Z</Time>
            <Position>
              <LatitudeDegrees>40.64276193268597126007080078125</LatitudeDegrees>
              <LongitudeDegrees>-3.73091694898903369903564453125</LongitudeDegrees>
            </Position>
            <AltitudeMeters>793.79998779296875</AltitudeMeters>
            <DistanceMeters>15697.096969937</DistanceMeters>
          </Trackpoint>
          <Trackpoint>
            <Time>2020-03-07T13:23:19.000Z</Time>
            <Position>
              <LatitudeDegrees>40.64281423576176166534423828125</LatitudeDegrees>
              <LongitudeDegrees>-3.7309076450765132904052734375</LongitudeDegrees>
            </Position>
            <AltitudeMeters>794</AltitudeMeters>
            <DistanceMeters>15702.971742457</DistanceMeters>
          </Trackpoint>
          <Trackpoint>
            <Time>2020-03-07T13:23:20.000Z</Time>
            <Position>
              <LatitudeDegrees>40.642867796123027801513671875</LatitudeDegrees>
              <LongitudeDegrees>-3.7308990955352783203125</LongitudeDegrees>
            </Position>
            <AltitudeMeters>794.20001220703125</AltitudeMeters>
            <DistanceMeters>15708.976498509</DistanceMeters>
          </Trackpoint>
          <Trackpoint>
            <Time>2020-03-07T13:23:21.000Z</Time>
            <Position>
              <LatitudeDegrees>40.64292286522686481475830078125</LatitudeDegrees>
              <LongitudeDegrees>-3.73089029453694820404052734375</LongitudeDegrees>
            </Position>
            <AltitudeMeters>794.4000244140625</AltitudeMeters>
            <DistanceMeters>15715.151041629</DistanceMeters>
          </Trackpoint>
          <Trackpoint>
            <Time>2020-03-07T13:23:22.000Z</Time>
            <Position>
              <LatitudeDegrees>40.64297743141651153564453125</LatitudeDegrees>
              <LongitudeDegrees>-3.7308828346431255340576171875</LongitudeDegrees>
            </Position>
            <AltitudeMeters>794.5999755859375</AltitudeMeters>
            <DistanceMeters>15721.257940655</DistanceMeters>
          </Trackpoint>
          <Trackpoint>
            <Time>2020-03-07T13:23:23.000Z</Time>
            <Position>
              <LatitudeDegrees>40.643032751977443695068359375</LatitudeDegrees>
              <LongitudeDegrees>-3.730877973139286041259765625</LongitudeDegrees>
            </Position>
            <AltitudeMeters>794.5999755859375</AltitudeMeters>
            <DistanceMeters>15727.429558145</DistanceMeters>
          </Trackpoint>
          <Trackpoint>
            <Time>2020-03-07T13:23:24.000Z</Time>
            <Position>
              <LatitudeDegrees>40.6430889107286930084228515625</LatitudeDegrees>
              <LongitudeDegrees>-3.73087671585381031036376953125</LongitudeDegrees>
            </Position>
            <AltitudeMeters>794.79998779296875</AltitudeMeters>
            <DistanceMeters>15733.681131615</DistanceMeters>
          </Trackpoint>
          <Trackpoint>
            <Time>2020-03-07T13:23:25.000Z</Time>
            <Position>
              <LatitudeDegrees>40.64314506947994232177734375</LatitudeDegrees>
              <LongitudeDegrees>-3.7308776378631591796875</LongitudeDegrees>
            </Position>
            <AltitudeMeters>794.79998779296875</AltitudeMeters>
            <DistanceMeters>15739.932705085</DistanceMeters>
          </Trackpoint>
          <Trackpoint>
            <Time>2020-03-07T13:23:26.000Z</Time>
            <Position>
              <LatitudeDegrees>40.64320198260247707366943359375</LatitudeDegrees>
              <LongitudeDegrees>-3.730878643691539764404296875</LongitudeDegrees>
            </Position>
            <AltitudeMeters>794.79998779296875</AltitudeMeters>
            <DistanceMeters>15746.268215309</DistanceMeters>
          </Trackpoint>
          <Trackpoint>
            <Time>2020-03-07T13:23:27.000Z</Time>
            <Position>
              <LatitudeDegrees>40.6432582251727581024169921875</LatitudeDegrees>
              <LongitudeDegrees>-3.73088006861507892608642578125</LongitudeDegrees>
            </Position>
            <AltitudeMeters>794.79998779296875</AltitudeMeters>
            <DistanceMeters>15752.529891755</DistanceMeters>
          </Trackpoint>
          <Trackpoint>
            <Time>2020-03-07T13:23:28.000Z</Time>
            <Position>
              <LatitudeDegrees>40.64331471920013427734375</LatitudeDegrees>
              <LongitudeDegrees>-3.73088375665247440338134765625</LongitudeDegrees>
            </Position>
            <AltitudeMeters>795</AltitudeMeters>
            <DistanceMeters>15758.824649529</DistanceMeters>
          </Trackpoint>
          <Trackpoint>
            <Time>2020-03-07T13:23:29.000Z</Time>
            <Position>
              <LatitudeDegrees>40.6433685310184955596923828125</LatitudeDegrees>
              <LongitudeDegrees>-3.730892054736614227294921875</LongitudeDegrees>
            </Position>
            <AltitudeMeters>795</AltitudeMeters>
            <DistanceMeters>15764.854167567</DistanceMeters>
          </Trackpoint>
          <Trackpoint>
            <Time>2020-03-07T13:23:30.000Z</Time>
            <Position>
              <LatitudeDegrees>40.64342267811298370361328125</LatitudeDegrees>
              <LongitudeDegrees>-3.73090454377233982086181640625</LongitudeDegrees>
            </Position>
            <AltitudeMeters>795</AltitudeMeters>
            <DistanceMeters>15770.972884502</DistanceMeters>
          </Trackpoint>
          <Trackpoint>
            <Time>2020-03-07T13:23:31.000Z</Time>
            <Position>
              <LatitudeDegrees>40.64347741194069385528564453125</LatitudeDegrees>
              <LongitudeDegrees>-3.73091854155063629150390625</LongitudeDegrees>
            </Position>
            <AltitudeMeters>795.20001220703125</AltitudeMeters>
            <DistanceMeters>15777.178791046</DistanceMeters>
          </Trackpoint>
          <Trackpoint>
            <Time>2020-03-07T13:23:32.000Z</Time>
            <Position>
              <LatitudeDegrees>40.64353264868259429931640625</LatitudeDegrees>
              <LongitudeDegrees>-3.73093220405280590057373046875</LongitudeDegrees>
            </Position>
            <AltitudeMeters>795.20001220703125</AltitudeMeters>
            <DistanceMeters>15783.433974595</DistanceMeters>
          </Trackpoint>
          <Trackpoint>
            <Time>2020-03-07T13:23:33.000Z</Time>
            <Position>
              <LatitudeDegrees>40.6435881368815898895263671875</LatitudeDegrees>
              <LongitudeDegrees>-3.7309458665549755096435546875</LongitudeDegrees>
            </Position>
            <AltitudeMeters>795.4000244140625</AltitudeMeters>
            <DistanceMeters>15789.715808249</DistanceMeters>
          </Trackpoint>
          <Trackpoint>
            <Time>2020-03-07T13:23:34.000Z</Time>
            <Position>
              <LatitudeDegrees>40.64364270307123661041259765625</LatitudeDegrees>
              <LongitudeDegrees>-3.7309612892568111419677734375</LongitudeDegrees>
            </Position>
            <AltitudeMeters>795.5999755859375</AltitudeMeters>
            <DistanceMeters>15795.926805478</DistanceMeters>
          </Trackpoint>
          <Trackpoint>
            <Time>2020-03-07T13:23:35.000Z</Time>
            <Position>
              <LatitudeDegrees>40.64369735307991504669189453125</LatitudeDegrees>
              <LongitudeDegrees>-3.730980567634105682373046875</LongitudeDegrees>
            </Position>
            <AltitudeMeters>795.79998779296875</AltitudeMeters>
            <DistanceMeters>15802.224431677</DistanceMeters>
          </Trackpoint>
          <Trackpoint>
            <Time>2020-03-07T13:23:36.000Z</Time>
            <Position>
              <LatitudeDegrees>40.643751583993434906005859375</LatitudeDegrees>
              <LongitudeDegrees>-3.73100345022976398468017578125</LongitudeDegrees>
            </Position>
            <AltitudeMeters>795.79998779296875</AltitudeMeters>
            <DistanceMeters>15808.561367052</DistanceMeters>
          </Trackpoint>
          <Trackpoint>
            <Time>2020-03-07T13:23:37.000Z</Time>
            <Position>
              <LatitudeDegrees>40.64380564726889133453369140625</LatitudeDegrees>
              <LongitudeDegrees>-3.731030188500881195068359375</LongitudeDegrees>
            </Position>
            <AltitudeMeters>795.79998779296875</AltitudeMeters>
            <DistanceMeters>15814.98815238</DistanceMeters>
          </Trackpoint>
          <Trackpoint>
            <Time>2020-03-07T13:23:38.000Z</Time>
            <Position>
              <LatitudeDegrees>40.643859207630157470703125</LatitudeDegrees>
              <LongitudeDegrees>-3.731060363352298736572265625</LongitudeDegrees>
            </Position>
            <AltitudeMeters>795.79998779296875</AltitudeMeters>
            <DistanceMeters>15821.470896843</DistanceMeters>
          </Trackpoint>
          <Trackpoint>
            <Time>2020-03-07T13:23:39.000Z</Time>
            <Position>
              <LatitudeDegrees>40.64391276799142360687255859375</LatitudeDegrees>
              <LongitudeDegrees>-3.7310927174985408782958984375</LongitudeDegrees>
            </Position>
            <AltitudeMeters>796</AltitudeMeters>
            <DistanceMeters>15828.028428697</DistanceMeters>
          </Trackpoint>
          <Trackpoint>
            <Time>2020-03-07T13:23:40.000Z</Time>
            <Position>
              <LatitudeDegrees>40.6439673341810703277587890625</LatitudeDegrees>
              <LongitudeDegrees>-3.73112649656832218170166015625</LongitudeDegrees>
            </Position>
            <AltitudeMeters>796.20001220703125</AltitudeMeters>
            <DistanceMeters>15834.737745434</DistanceMeters>
          </Trackpoint>
          <Trackpoint>
            <Time>2020-03-07T13:23:41.000Z</Time>
            <Position>
              <LatitudeDegrees>40.64402215182781219482421875</LatitudeDegrees>
              <LongitudeDegrees>-3.73116103000938892364501953125</LongitudeDegrees>
            </Position>
            <AltitudeMeters>796.20001220703125</AltitudeMeters>
            <DistanceMeters>15841.500683936</DistanceMeters>
          </Trackpoint>
          <Trackpoint>
            <Time>2020-03-07T13:23:42.000Z</Time>
            <Position>
              <LatitudeDegrees>40.64407646656036376953125</LatitudeDegrees>
              <LongitudeDegrees>-3.73119615018367767333984375</LongitudeDegrees>
            </Position>
            <AltitudeMeters>796.20001220703125</AltitudeMeters>
            <DistanceMeters>15848.234853811</DistanceMeters>
          </Trackpoint>
          <Trackpoint>
            <Time>2020-03-07T13:23:43.000Z</Time>
            <Position>
              <LatitudeDegrees>40.6441299431025981903076171875</LatitudeDegrees>
              <LongitudeDegrees>-3.7312325276434421539306640625</LongitudeDegrees>
            </Position>
            <AltitudeMeters>796.20001220703125</AltitudeMeters>
            <DistanceMeters>15854.932720619</DistanceMeters>
          </Trackpoint>
          <Trackpoint>
            <Time>2020-03-07T13:23:44.000Z</Time>
            <Position>
              <LatitudeDegrees>40.6441822461783885955810546875</LatitudeDegrees>
              <LongitudeDegrees>-3.731271922588348388671875</LongitudeDegrees>
            </Position>
            <AltitudeMeters>796.20001220703125</AltitudeMeters>
            <DistanceMeters>15861.638671759</DistanceMeters>
          </Trackpoint>
          <Trackpoint>
            <Time>2020-03-07T13:23:45.000Z</Time>
            <Position>
              <LatitudeDegrees>40.644233711063861846923828125</LatitudeDegrees>
              <LongitudeDegrees>-3.7313143350183963775634765625</LongitudeDegrees>
            </Position>
            <AltitudeMeters>796.20001220703125</AltitudeMeters>
            <DistanceMeters>15868.394262506</DistanceMeters>
          </Trackpoint>
          <Trackpoint>
            <Time>2020-03-07T13:23:46.000Z</Time>
            <Position>
              <LatitudeDegrees>40.64428408630192279815673828125</LatitudeDegrees>
              <LongitudeDegrees>-3.73135976493358612060546875</LongitudeDegrees>
            </Position>
            <AltitudeMeters>796.20001220703125</AltitudeMeters>
            <DistanceMeters>15875.188506451</DistanceMeters>
          </Trackpoint>
          <Trackpoint>
            <Time>2020-03-07T13:23:47.000Z</Time>
            <Position>
              <LatitudeDegrees>40.64433387480676174163818359375</LatitudeDegrees>
              <LongitudeDegrees>-3.7314062006771564483642578125</LongitudeDegrees>
            </Position>
            <AltitudeMeters>796.20001220703125</AltitudeMeters>
            <DistanceMeters>15881.977432005</DistanceMeters>
          </Trackpoint>
          <Trackpoint>
            <Time>2020-03-07T13:23:48.000Z</Time>
            <Position>
              <LatitudeDegrees>40.6443834118545055389404296875</LatitudeDegrees>
              <LongitudeDegrees>-3.731453977525234222412109375</LongitudeDegrees>
            </Position>
            <AltitudeMeters>796.20001220703125</AltitudeMeters>
            <DistanceMeters>15888.810110485</DistanceMeters>
          </Trackpoint>
          <Trackpoint>
            <Time>2020-03-07T13:23:49.000Z</Time>
            <Position>
              <LatitudeDegrees>40.64443211071193218231201171875</LatitudeDegrees>
              <LongitudeDegrees>-3.7315037660300731658935546875</LongitudeDegrees>
            </Position>
            <AltitudeMeters>796.20001220703125</AltitudeMeters>
            <DistanceMeters>15895.670486453</DistanceMeters>
          </Trackpoint>
          <Trackpoint>
            <Time>2020-03-07T13:23:50.000Z</Time>
            <Position>
              <LatitudeDegrees>40.64448080956935882568359375</LatitudeDegrees>
              <LongitudeDegrees>-3.73155531473457813262939453125</LongitudeDegrees>
            </Position>
            <AltitudeMeters>796.20001220703125</AltitudeMeters>
            <DistanceMeters>15902.622390446</DistanceMeters>
          </Trackpoint>
          <Trackpoint>
            <Time>2020-03-07T13:23:51.000Z</Time>
            <Position>
              <LatitudeDegrees>40.644529424607753753662109375</LatitudeDegrees>
              <LongitudeDegrees>-3.7316097132861614227294921875</LongitudeDegrees>
            </Position>
            <AltitudeMeters>796.20001220703125</AltitudeMeters>
            <DistanceMeters>15909.719556529</DistanceMeters>
          </Trackpoint>
          <Trackpoint>
            <Time>2020-03-07T13:23:52.000Z</Time>
            <Position>
              <LatitudeDegrees>40.64457778818905353546142578125</LatitudeDegrees>
              <LongitudeDegrees>-3.731665872037410736083984375</LongitudeDegrees>
            </Position>
            <AltitudeMeters>796.20001220703125</AltitudeMeters>
            <DistanceMeters>15916.893916133</DistanceMeters>
          </Trackpoint>
          <Trackpoint>
            <Time>2020-03-07T13:23:53.000Z</Time>
            <Position>
              <LatitudeDegrees>40.6446264870464801788330078125</LatitudeDegrees>
              <LongitudeDegrees>-3.7317227013409137725830078125</LongitudeDegrees>
            </Position>
            <AltitudeMeters>796.20001220703125</AltitudeMeters>
            <DistanceMeters>15924.133430183</DistanceMeters>
          </Trackpoint>
          <Trackpoint>
            <Time>2020-03-07T13:23:54.000Z</Time>
            <Position>
              <LatitudeDegrees>40.64467434771358966827392578125</LatitudeDegrees>
              <LongitudeDegrees>-3.7317786924540996551513671875</LongitudeDegrees>
            </Position>
            <AltitudeMeters>796.20001220703125</AltitudeMeters>
            <DistanceMeters>15931.256631678</DistanceMeters>
          </Trackpoint>
          <Trackpoint>
            <Time>2020-03-07T13:23:55.000Z</Time>
            <Position>
              <LatitudeDegrees>40.64472095109522342681884765625</LatitudeDegrees>
              <LongitudeDegrees>-3.73183409683406352996826171875</LongitudeDegrees>
            </Position>
            <AltitudeMeters>796.4000244140625</AltitudeMeters>
            <DistanceMeters>15938.242226363</DistanceMeters>
          </Trackpoint>
          <Trackpoint>
            <Time>2020-03-07T13:23:56.000Z</Time>
            <Position>
              <LatitudeDegrees>40.64476856030523777008056640625</LatitudeDegrees>
              <LongitudeDegrees>-3.7318896688520908355712890625</LongitudeDegrees>
            </Position>
            <AltitudeMeters>796.4000244140625</AltitudeMeters>
            <DistanceMeters>15945.320281471</DistanceMeters>
          </Trackpoint>
          <Trackpoint>
            <Time>2020-03-07T13:23:57.000Z</Time>
            <Position>
              <LatitudeDegrees>40.64481566660106182098388671875</LatitudeDegrees>
              <LongitudeDegrees>-3.73194742016494274139404296875</LongitudeDegrees>
            </Position>
            <AltitudeMeters>796.4000244140625</AltitudeMeters>
            <DistanceMeters>15952.480782434</DistanceMeters>
          </Trackpoint>
          <Trackpoint>
            <Time>2020-03-07T13:23:58.000Z</Time>
            <Position>
              <LatitudeDegrees>40.64486168324947357177734375</LatitudeDegrees>
              <LongitudeDegrees>-3.73200776986777782440185546875</LongitudeDegrees>
            </Position>
            <AltitudeMeters>796.4000244140625</AltitudeMeters>
            <DistanceMeters>15959.705312997</DistanceMeters>
          </Trackpoint>
          <Trackpoint>
            <Time>2020-03-07T13:23:59.000Z</Time>
            <Position>
              <LatitudeDegrees>40.64491021446883678436279296875</LatitudeDegrees>
              <LongitudeDegrees>-3.73206979595124721527099609375</LongitudeDegrees>
            </Position>
            <AltitudeMeters>796.4000244140625</AltitudeMeters>
            <DistanceMeters>15967.22984483</DistanceMeters>
          </Trackpoint>
          <Trackpoint>
            <Time>2020-03-07T13:24:00.000Z</Time>
            <Position>
              <LatitudeDegrees>40.64496033824980258941650390625</LatitudeDegrees>
              <LongitudeDegrees>-3.732130229473114013671875</LongitudeDegrees>
            </Position>
            <AltitudeMeters>796.4000244140625</AltitudeMeters>
            <DistanceMeters>15974.791487776</DistanceMeters>
          </Trackpoint>
          <Trackpoint>
            <Time>2020-03-07T13:24:01.000Z</Time>
            <Position>
              <LatitudeDegrees>40.64500861801207065582275390625</LatitudeDegrees>
              <LongitudeDegrees>-3.732189573347568511962890625</LongitudeDegrees>
            </Position>
            <AltitudeMeters>796.4000244140625</AltitudeMeters>
            <DistanceMeters>15982.139947283</DistanceMeters>
          </Trackpoint>
          <Trackpoint>
            <Time>2020-03-07T13:24:02.000Z</Time>
            <Position>
              <LatitudeDegrees>40.64505689777433872222900390625</LatitudeDegrees>
              <LongitudeDegrees>-3.7322480790317058563232421875</LongitudeDegrees>
            </Position>
            <AltitudeMeters>796.5999755859375</AltitudeMeters>
            <DistanceMeters>15989.440324751</DistanceMeters>
          </Trackpoint>
          <Trackpoint>
            <Time>2020-03-07T13:24:03.000Z</Time>
            <Position>
              <LatitudeDegrees>40.6451049260795116424560546875</LatitudeDegrees>
              <LongitudeDegrees>-3.7323067523539066314697265625</LongitudeDegrees>
            </Position>
            <AltitudeMeters>796.5999755859375</AltitudeMeters>
            <DistanceMeters>15996.729561323</DistanceMeters>
          </Trackpoint>
          <Trackpoint>
            <Time>2020-03-07T13:24:04.000Z</Time>
            <Position>
              <LatitudeDegrees>40.6451508589088916778564453125</LatitudeDegrees>
              <LongitudeDegrees>-3.732367940247058868408203125</LongitudeDegrees>
            </Position>
            <AltitudeMeters>796.79998779296875</AltitudeMeters>
            <DistanceMeters>16003.998949698</DistanceMeters>
          </Trackpoint>
          <Trackpoint>
            <Time>2020-03-07T13:24:05.000Z</Time>
            <Position>
              <LatitudeDegrees>40.6451971270143985748291015625</LatitudeDegrees>
              <LongitudeDegrees>-3.7324294634163379669189453125</LongitudeDegrees>
            </Position>
            <AltitudeMeters>796.79998779296875</AltitudeMeters>
            <DistanceMeters>16011.314772487</DistanceMeters>
          </Trackpoint>
          <Trackpoint>
            <Time>2020-03-07T13:24:06.000Z</Time>
            <Position>
              <LatitudeDegrees>40.6452437303960323333740234375</LatitudeDegrees>
              <LongitudeDegrees>-3.73249224387109279632568359375</LongitudeDegrees>
            </Position>
            <AltitudeMeters>796.79998779296875</AltitudeMeters>
            <DistanceMeters>16018.732336492</DistanceMeters>
          </Trackpoint>
          <Trackpoint>
            <Time>2020-03-07T13:24:07.000Z</Time>
            <Position>
              <LatitudeDegrees>40.6452903337776660919189453125</LatitudeDegrees>
              <LongitudeDegrees>-3.73255561105906963348388671875</LongitudeDegrees>
            </Position>
            <AltitudeMeters>796.79998779296875</AltitudeMeters>
            <DistanceMeters>16026.185727015</DistanceMeters>
          </Trackpoint>
          <Trackpoint>
            <Time>2020-03-07T13:24:08.000Z</Time>
            <Position>
              <LatitudeDegrees>40.6453389488160610198974609375</LatitudeDegrees>
              <LongitudeDegrees>-3.73261679895222187042236328125</LongitudeDegrees>
            </Position>
            <AltitudeMeters>796.79998779296875</AltitudeMeters>
            <DistanceMeters>16033.668137987</DistanceMeters>
          </Trackpoint>
          <Trackpoint>
            <Time>2020-03-07T13:24:09.000Z</Time>
            <Position>
              <LatitudeDegrees>40.64538873732089996337890625</LatitudeDegrees>
              <LongitudeDegrees>-3.732677400112152099609375</LongitudeDegrees>
            </Position>
            <AltitudeMeters>796.79998779296875</AltitudeMeters>
            <DistanceMeters>16041.210649611</DistanceMeters>
          </Trackpoint>
          <Trackpoint>
            <Time>2020-03-07T13:24:10.000Z</Time>
            <Position>
              <LatitudeDegrees>40.64543777145445346832275390625</LatitudeDegrees>
              <LongitudeDegrees>-3.7327399291098117828369140625</LongitudeDegrees>
            </Position>
            <AltitudeMeters>796.79998779296875</AltitudeMeters>
            <DistanceMeters>16048.804467371</DistanceMeters>
          </Trackpoint>
          <Trackpoint>
            <Time>2020-03-07T13:24:11.000Z</Time>
            <Position>
              <LatitudeDegrees>40.64548638649284839630126953125</LatitudeDegrees>
              <LongitudeDegrees>-3.73280287720263004302978515625</LongitudeDegrees>
            </Position>
            <AltitudeMeters>796.79998779296875</AltitudeMeters>
            <DistanceMeters>16056.389956617</DistanceMeters>
          </Trackpoint>
          <Trackpoint>
            <Time>2020-03-07T13:24:12.000Z</Time>
            <Position>
              <LatitudeDegrees>40.645535252988338470458984375</LatitudeDegrees>
              <LongitudeDegrees>-3.73286372981965541839599609375</LongitudeDegrees>
            </Position>
            <AltitudeMeters>797</AltitudeMeters>
            <DistanceMeters>16063.872970985</DistanceMeters>
          </Trackpoint>
          <Trackpoint>
            <Time>2020-03-07T13:24:13.000Z</Time>
            <Position>
              <LatitudeDegrees>40.64558185636997222900390625</LatitudeDegrees>
              <LongitudeDegrees>-3.732925839722156524658203125</LongitudeDegrees>
            </Position>
            <AltitudeMeters>797</AltitudeMeters>
            <DistanceMeters>16071.249639654</DistanceMeters>
          </Trackpoint>
          <Trackpoint>
            <Time>2020-03-07T13:24:14.000Z</Time>
            <Position>
              <LatitudeDegrees>40.64562552608549594879150390625</LatitudeDegrees>
              <LongitudeDegrees>-3.73299113474786281585693359375</LongitudeDegrees>
            </Position>
            <AltitudeMeters>797</AltitudeMeters>
            <DistanceMeters>16078.599942189</DistanceMeters>
          </Trackpoint>
          <Trackpoint>
            <Time>2020-03-07T13:24:15.000Z</Time>
            <Position>
              <LatitudeDegrees>40.6456651724874973297119140625</LatitudeDegrees>
              <LongitudeDegrees>-3.733059279620647430419921875</LongitudeDegrees>
            </Position>
            <AltitudeMeters>797</AltitudeMeters>
            <DistanceMeters>16085.851918831</DistanceMeters>
          </Trackpoint>
          <Trackpoint>
            <Time>2020-03-07T13:24:16.000Z</Time>
            <Position>
              <LatitudeDegrees>40.6457013823091983795166015625</LatitudeDegrees>
              <LongitudeDegrees>-3.73312893323600292205810546875</LongitudeDegrees>
            </Position>
            <AltitudeMeters>797</AltitudeMeters>
            <DistanceMeters>16092.982089262</DistanceMeters>
          </Trackpoint>
          <Trackpoint>
            <Time>2020-03-07T13:24:17.000Z</Time>
            <Position>
              <LatitudeDegrees>40.6457355804741382598876953125</LatitudeDegrees>
              <LongitudeDegrees>-3.73319883830845355987548828125</LongitudeDegrees>
            </Position>
            <AltitudeMeters>797</AltitudeMeters>
            <DistanceMeters>16100.006357031</DistanceMeters>
          </Trackpoint>
          <Trackpoint>
            <Time>2020-03-07T13:24:18.000Z</Time>
            <Position>
              <LatitudeDegrees>40.645768940448760986328125</LatitudeDegrees>
              <LongitudeDegrees>-3.7332679890096187591552734375</LongitudeDegrees>
            </Position>
            <AltitudeMeters>797</AltitudeMeters>
            <DistanceMeters>16106.926363923</DistanceMeters>
          </Trackpoint>
          <Trackpoint>
            <Time>2020-03-07T13:24:19.000Z</Time>
            <Position>
              <LatitudeDegrees>40.645801462233066558837890625</LatitudeDegrees>
              <LongitudeDegrees>-3.73333630152046680450439453125</LongitudeDegrees>
            </Position>
            <AltitudeMeters>797</AltitudeMeters>
            <DistanceMeters>16113.736538121</DistanceMeters>
          </Trackpoint>
          <Trackpoint>
            <Time>2020-03-07T13:24:20.000Z</Time>
            <Position>
              <LatitudeDegrees>40.645833313465118408203125</LatitudeDegrees>
              <LongitudeDegrees>-3.733403943479061126708984375</LongitudeDegrees>
            </Position>
            <AltitudeMeters>797</AltitudeMeters>
            <DistanceMeters>16120.459971967</DistanceMeters>
          </Trackpoint>
          <Trackpoint>
            <Time>2020-03-07T13:24:21.000Z</Time>
            <Position>
              <LatitudeDegrees>40.6458639912307262420654296875</LatitudeDegrees>
              <LongitudeDegrees>-3.73347158543765544891357421875</LongitudeDegrees>
            </Position>
            <AltitudeMeters>797</AltitudeMeters>
            <DistanceMeters>16127.115913301</DistanceMeters>
          </Trackpoint>
          <Trackpoint>
            <Time>2020-03-07T13:24:22.000Z</Time>
            <Position>
              <LatitudeDegrees>40.6458931602537631988525390625</LatitudeDegrees>
              <LongitudeDegrees>-3.733540065586566925048828125</LongitudeDegrees>
            </Position>
            <AltitudeMeters>797.20001220703125</AltitudeMeters>
            <DistanceMeters>16133.747389176</DistanceMeters>
          </Trackpoint>
          <Trackpoint>
            <Time>2020-03-07T13:24:23.000Z</Time>
            <Position>
              <LatitudeDegrees>40.64592140726745128631591796875</LatitudeDegrees>
              <LongitudeDegrees>-3.733608461916446685791015625</LongitudeDegrees>
            </Position>
            <AltitudeMeters>797.20001220703125</AltitudeMeters>
            <DistanceMeters>16140.323484985</DistanceMeters>
          </Trackpoint>
          <Trackpoint>
            <Time>2020-03-07T13:24:24.000Z</Time>
            <Position>
              <LatitudeDegrees>40.6459494866430759429931640625</LatitudeDegrees>
              <LongitudeDegrees>-3.733676187694072723388671875</LongitudeDegrees>
            </Position>
            <AltitudeMeters>797.4000244140625</AltitudeMeters>
            <DistanceMeters>16146.840959925</DistanceMeters>
          </Trackpoint>
          <Trackpoint>
            <Time>2020-03-07T13:24:25.000Z</Time>
            <Position>
              <LatitudeDegrees>40.64597723074257373809814453125</LatitudeDegrees>
              <LongitudeDegrees>-3.733743242919445037841796875</LongitudeDegrees>
            </Position>
            <AltitudeMeters>797.5999755859375</AltitudeMeters>
            <DistanceMeters>16153.290887225</DistanceMeters>
          </Trackpoint>
          <Trackpoint>
            <Time>2020-03-07T13:24:26.000Z</Time>
            <Position>
              <LatitudeDegrees>40.64600371755659580230712890625</LatitudeDegrees>
              <LongitudeDegrees>-3.73381088487803936004638671875</LongitudeDegrees>
            </Position>
            <AltitudeMeters>797.79998779296875</AltitudeMeters>
            <DistanceMeters>16159.719077468</DistanceMeters>
          </Trackpoint>
          <Trackpoint>
            <Time>2020-03-07T13:24:27.000Z</Time>
            <Position>
              <LatitudeDegrees>40.6460302881896495819091796875</LatitudeDegrees>
              <LongitudeDegrees>-3.733877353370189666748046875</LongitudeDegrees>
            </Position>
            <AltitudeMeters>798</AltitudeMeters>
            <DistanceMeters>16166.063845454</DistanceMeters>
          </Trackpoint>
          <Trackpoint>
            <Time>2020-03-07T13:24:28.000Z</Time>
            <Position>
              <LatitudeDegrees>40.64605752937495708465576171875</LatitudeDegrees>
              <LongitudeDegrees>-3.73394298367202281951904296875</LongitudeDegrees>
            </Position>
            <AltitudeMeters>798.4000244140625</AltitudeMeters>
            <DistanceMeters>16172.38151416</DistanceMeters>
          </Trackpoint>
          <Trackpoint>
            <Time>2020-03-07T13:24:29.000Z</Time>
            <Position>
              <LatitudeDegrees>40.646085105836391448974609375</LatitudeDegrees>
              <LongitudeDegrees>-3.73400844633579254150390625</LongitudeDegrees>
            </Position>
            <AltitudeMeters>798.5999755859375</AltitudeMeters>
            <DistanceMeters>16178.704897629</DistanceMeters>
          </Trackpoint>
          <Trackpoint>
            <Time>2020-03-07T13:24:30.000Z</Time>
            <Position>
              <LatitudeDegrees>40.6461144424974918365478515625</LatitudeDegrees>
              <LongitudeDegrees>-3.734072484076023101806640625</LongitudeDegrees>
            </Position>
            <AltitudeMeters>798.79998779296875</AltitudeMeters>
            <DistanceMeters>16185.022566335</DistanceMeters>
          </Trackpoint>
          <Trackpoint>
            <Time>2020-03-07T13:24:31.000Z</Time>
            <Position>
              <LatitudeDegrees>40.64614369533956050872802734375</LatitudeDegrees>
              <LongitudeDegrees>-3.7341353483498096466064453125</LongitudeDegrees>
            </Position>
            <AltitudeMeters>799.20001220703125</AltitudeMeters>
            <DistanceMeters>16191.25098575</DistanceMeters>
          </Trackpoint>
          <Trackpoint>
            <Time>2020-03-07T13:24:32.000Z</Time>
            <Position>
              <LatitudeDegrees>40.6461741216480731964111328125</LatitudeDegrees>
              <LongitudeDegrees>-3.73419754207134246826171875</LongitudeDegrees>
            </Position>
            <AltitudeMeters>799.4000244140625</AltitudeMeters>
            <DistanceMeters>16197.499669654</DistanceMeters>
          </Trackpoint>
          <Trackpoint>
            <Time>2020-03-07T13:24:33.000Z</Time>
            <Position>
              <LatitudeDegrees>40.64620739780366420745849609375</LatitudeDegrees>
              <LongitudeDegrees>-3.73425780795514583587646484375</LongitudeDegrees>
            </Position>
            <AltitudeMeters>799.4000244140625</AltitudeMeters>
            <DistanceMeters>16203.794427429</DistanceMeters>
          </Trackpoint>
          <Trackpoint>
            <Time>2020-03-07T13:24:34.000Z</Time>
            <Position>
              <LatitudeDegrees>40.64624461345374584197998046875</LatitudeDegrees>
              <LongitudeDegrees>-3.73431497253477573394775390625</LongitudeDegrees>
            </Position>
            <AltitudeMeters>799.5999755859375</AltitudeMeters>
            <DistanceMeters>16210.155541525</DistanceMeters>
          </Trackpoint>
          <Trackpoint>
            <Time>2020-03-07T13:24:35.000Z</Time>
            <Position>
              <LatitudeDegrees>40.64628300257027149200439453125</LatitudeDegrees>
              <LongitudeDegrees>-3.73436911962926387786865234375</LongitudeDegrees>
            </Position>
            <AltitudeMeters>800</AltitudeMeters>
            <DistanceMeters>16216.412890122</DistanceMeters>
          </Trackpoint>
          <Trackpoint>
            <Time>2020-03-07T13:24:36.000Z</Time>
            <Position>
              <LatitudeDegrees>40.64632239751517772674560546875</LatitudeDegrees>
              <LongitudeDegrees>-3.73441974632441997528076171875</LongitudeDegrees>
            </Position>
            <AltitudeMeters>800.4000244140625</AltitudeMeters>
            <DistanceMeters>16222.536032893</DistanceMeters>
          </Trackpoint>
          <Trackpoint>
            <Time>2020-03-07T13:24:37.000Z</Time>
            <Position>
              <LatitudeDegrees>40.64636397175490856170654296875</LatitudeDegrees>
              <LongitudeDegrees>-3.73446651734411716461181640625</LongitudeDegrees>
            </Position>
            <AltitudeMeters>800.5999755859375</AltitudeMeters>
            <DistanceMeters>16228.619969393</DistanceMeters>
          </Trackpoint>
          <Trackpoint>
            <Time>2020-03-07T13:24:38.000Z</Time>
            <Position>
              <LatitudeDegrees>40.64640638418495655059814453125</LatitudeDegrees>
              <LongitudeDegrees>-3.73450960032641887664794921875</LongitudeDegrees>
            </Position>
            <AltitudeMeters>800.79998779296875</AltitudeMeters>
            <DistanceMeters>16234.580197638</DistanceMeters>
          </Trackpoint>
          <Trackpoint>
            <Time>2020-03-07T13:24:39.000Z</Time>
            <Position>
              <LatitudeDegrees>40.64645030535757541656494140625</LatitudeDegrees>
              <LongitudeDegrees>-3.734548576176166534423828125</LongitudeDegrees>
            </Position>
            <AltitudeMeters>800.79998779296875</AltitudeMeters>
            <DistanceMeters>16240.472620224</DistanceMeters>
          </Trackpoint>
          <Trackpoint>
            <Time>2020-03-07T13:24:40.000Z</Time>
            <Position>
              <LatitudeDegrees>40.6464959867298603057861328125</LatitudeDegrees>
              <LongitudeDegrees>-3.734583444893360137939453125</LongitudeDegrees>
            </Position>
            <AltitudeMeters>801</AltitudeMeters>
            <DistanceMeters>16246.347392744</DistanceMeters>
          </Trackpoint>
          <Trackpoint>
            <Time>2020-03-07T13:24:41.000Z</Time>
            <Position>
              <LatitudeDegrees>40.64654284156858921051025390625</LatitudeDegrees>
              <LongitudeDegrees>-3.73461437411606311798095703125</LongitudeDegrees>
            </Position>
            <AltitudeMeters>801.20001220703125</AltitudeMeters>
            <DistanceMeters>16252.179742011</DistanceMeters>
          </Trackpoint>
          <Trackpoint>
            <Time>2020-03-07T13:24:42.000Z</Time>
            <Position>
              <LatitudeDegrees>40.64659095369279384613037109375</LatitudeDegrees>
              <LongitudeDegrees>-3.7346426211297512054443359375</LongitudeDegrees>
            </Position>
            <AltitudeMeters>801.4000244140625</AltitudeMeters>
            <DistanceMeters>16258.042204884</DistanceMeters>
          </Trackpoint>
          <Trackpoint>
            <Time>2020-03-07T13:24:43.000Z</Time>
            <Position>
              <LatitudeDegrees>40.64663973636925220489501953125</LatitudeDegrees>
              <LongitudeDegrees>-3.73466818593442440032958984375</LongitudeDegrees>
            </Position>
            <AltitudeMeters>801.4000244140625</AltitudeMeters>
            <DistanceMeters>16263.88538202</DistanceMeters>
          </Trackpoint>
          <Trackpoint>
            <Time>2020-03-07T13:24:44.000Z</Time>
            <Position>
              <LatitudeDegrees>40.64668969251215457916259765625</LatitudeDegrees>
              <LongitudeDegrees>-3.7346902303397655487060546875</LongitudeDegrees>
            </Position>
            <AltitudeMeters>801.5999755859375</AltitudeMeters>
            <DistanceMeters>16269.749385012</DistanceMeters>
          </Trackpoint>
          <Trackpoint>
            <Time>2020-03-07T13:24:45.000Z</Time>
            <Position>
              <LatitudeDegrees>40.646739900112152099609375</LatitudeDegrees>
              <LongitudeDegrees>-3.73471009545028209686279296875</LongitudeDegrees>
            </Position>
            <AltitudeMeters>801.5999755859375</AltitudeMeters>
            <DistanceMeters>16275.584056228</DistanceMeters>
          </Trackpoint>
          <Trackpoint>
            <Time>2020-03-07T13:24:46.000Z</Time>
            <Position>
              <LatitudeDegrees>40.64678994007408618927001953125</LatitudeDegrees>
              <LongitudeDegrees>-3.7347294576466083526611328125</LongitudeDegrees>
            </Position>
            <AltitudeMeters>801.79998779296875</AltitudeMeters>
            <DistanceMeters>16281.389247464</DistanceMeters>
          </Trackpoint>
          <Trackpoint>
            <Time>2020-03-07T13:24:47.000Z</Time>
            <Position>
              <LatitudeDegrees>40.64684174023568630218505859375</LatitudeDegrees>
              <LongitudeDegrees>-3.73474613763391971588134765625</LongitudeDegrees>
            </Position>
            <AltitudeMeters>801.79998779296875</AltitudeMeters>
            <DistanceMeters>16287.324424648</DistanceMeters>
          </Trackpoint>
          <Trackpoint>
            <Time>2020-03-07T13:24:48.000Z</Time>
            <Position>
              <LatitudeDegrees>40.6468936242163181304931640625</LatitudeDegrees>
              <LongitudeDegrees>-3.7347613088786602020263671875</LongitudeDegrees>
            </Position>
            <AltitudeMeters>801.79998779296875</AltitudeMeters>
            <DistanceMeters>16293.239026591</DistanceMeters>
          </Trackpoint>
          <Trackpoint>
            <Time>2020-03-07T13:24:49.000Z</Time>
            <Position>
              <LatitudeDegrees>40.64694567583501338958740234375</LatitudeDegrees>
              <LongitudeDegrees>-3.73477530665695667266845703125</LongitudeDegrees>
            </Position>
            <AltitudeMeters>802</AltitudeMeters>
            <DistanceMeters>16299.152101594</DistanceMeters>
          </Trackpoint>
          <Trackpoint>
            <Time>2020-03-07T13:24:50.000Z</Time>
            <Position>
              <LatitudeDegrees>40.64699848182499408721923828125</LatitudeDegrees>
              <LongitudeDegrees>-3.73479022644460201263427734375</LongitudeDegrees>
            </Position>
            <AltitudeMeters>802</AltitudeMeters>
            <DistanceMeters>16305.16362103</DistanceMeters>
          </Trackpoint>
          <Trackpoint>
            <Time>2020-03-07T13:24:51.000Z</Time>
            <Position>
              <LatitudeDegrees>40.6470501981675624847412109375</LatitudeDegrees>
              <LongitudeDegrees>-3.73480732552707195281982421875</LongitudeDegrees>
            </Position>
            <AltitudeMeters>802.4000244140625</AltitudeMeters>
            <DistanceMeters>16311.098037441</DistanceMeters>
          </Trackpoint>
          <Trackpoint>
            <Time>2020-03-07T13:24:52.000Z</Time>
            <Position>
              <LatitudeDegrees>40.64710174687206745147705078125</LatitudeDegrees>
              <LongitudeDegrees>-3.73482652008533477783203125</LongitudeDegrees>
            </Position>
            <AltitudeMeters>802.79998779296875</AltitudeMeters>
            <DistanceMeters>16317.059780549</DistanceMeters>
          </Trackpoint>
          <Trackpoint>
            <Time>2020-03-07T13:24:53.000Z</Time>
            <Position>
              <LatitudeDegrees>40.64715304411947727203369140625</LatitudeDegrees>
              <LongitudeDegrees>-3.73484395444393157958984375</LongitudeDegrees>
            </Position>
            <AltitudeMeters>803</AltitudeMeters>
            <DistanceMeters>16322.955267317</DistanceMeters>
          </Trackpoint>
          <Trackpoint>
            <Time>2020-03-07T13:24:54.000Z</Time>
            <Position>
              <LatitudeDegrees>40.647204257547855377197265625</LatitudeDegrees>
              <LongitudeDegrees>-3.7348598800599575042724609375</LongitudeDegrees>
            </Position>
            <AltitudeMeters>803.20001220703125</AltitudeMeters>
            <DistanceMeters>16328.811565664</DistanceMeters>
          </Trackpoint>
          <Trackpoint>
            <Time>2020-03-07T13:24:55.000Z</Time>
            <Position>
              <LatitudeDegrees>40.6472550518810749053955078125</LatitudeDegrees>
              <LongitudeDegrees>-3.73487588949501514434814453125</LongitudeDegrees>
            </Position>
            <AltitudeMeters>803.4000244140625</AltitudeMeters>
            <DistanceMeters>16334.624529285</DistanceMeters>
          </Trackpoint>
          <Trackpoint>
            <Time>2020-03-07T13:24:56.000Z</Time>
            <Position>
              <LatitudeDegrees>40.6473063491284847259521484375</LatitudeDegrees>
              <LongitudeDegrees>-3.73489198274910449981689453125</LongitudeDegrees>
            </Position>
            <AltitudeMeters>803.5999755859375</AltitudeMeters>
            <DistanceMeters>16340.493150209</DistanceMeters>
          </Trackpoint>
          <Trackpoint>
            <Time>2020-03-07T13:24:57.000Z</Time>
            <Position>
              <LatitudeDegrees>40.64735672436654567718505859375</LatitudeDegrees>
              <LongitudeDegrees>-3.73490757308900356292724609375</LongitudeDegrees>
            </Position>
            <AltitudeMeters>804</AltitudeMeters>
            <DistanceMeters>16346.252270869</DistanceMeters>
          </Trackpoint>
          <Trackpoint>
            <Time>2020-03-07T13:24:58.000Z</Time>
            <Position>
              <LatitudeDegrees>40.6474065966904163360595703125</LatitudeDegrees>
              <LongitudeDegrees>-3.73492366634309291839599609375</LongitudeDegrees>
            </Position>
            <AltitudeMeters>804.20001220703125</AltitudeMeters>
            <DistanceMeters>16351.966529913</DistanceMeters>
          </Trackpoint>
          <Trackpoint>
            <Time>2020-03-07T13:24:59.000Z</Time>
            <Position>
              <LatitudeDegrees>40.6474542059004306793212890625</LatitudeDegrees>
              <LongitudeDegrees>-3.7349410168826580047607421875</LongitudeDegrees>
            </Position>
            <AltitudeMeters>804.4000244140625</AltitudeMeters>
            <DistanceMeters>16357.463314044</DistanceMeters>
          </Trackpoint>
          <Trackpoint>
            <Time>2020-03-07T13:25:00.000Z</Time>
            <Position>
              <LatitudeDegrees>40.64750290475785732269287109375</LatitudeDegrees>
              <LongitudeDegrees>-3.734956271946430206298828125</LongitudeDegrees>
            </Position>
            <AltitudeMeters>804.5999755859375</AltitudeMeters>
            <DistanceMeters>16363.034343818</DistanceMeters>
          </Trackpoint>
          <Trackpoint>
            <Time>2020-03-07T13:25:01.000Z</Time>
            <Position>
              <LatitudeDegrees>40.64755193889141082763671875</LatitudeDegrees>
              <LongitudeDegrees>-3.7349705211818218231201171875</LongitudeDegrees>
            </Position>
            <AltitudeMeters>804.79998779296875</AltitudeMeters>
            <DistanceMeters>16368.623982849</DistanceMeters>
          </Trackpoint>
          <Trackpoint>
            <Time>2020-03-07T13:25:02.000Z</Time>
            <Position>
              <LatitudeDegrees>40.6476013921201229095458984375</LatitudeDegrees>
              <LongitudeDegrees>-3.7349842675030231475830078125</LongitudeDegrees>
            </Position>
            <AltitudeMeters>805</AltitudeMeters>
            <DistanceMeters>16374.249050658</DistanceMeters>
          </Trackpoint>
          <Trackpoint>
            <Time>2020-03-07T13:25:03.000Z</Time>
            <Position>
              <LatitudeDegrees>40.64765059389173984527587890625</LatitudeDegrees>
              <LongitudeDegrees>-3.7349970079958438873291015625</LongitudeDegrees>
            </Position>
            <AltitudeMeters>805.20001220703125</AltitudeMeters>
            <DistanceMeters>16379.828988254</DistanceMeters>
          </Trackpoint>
          <Trackpoint>
            <Time>2020-03-07T13:25:04.000Z</Time>
            <Position>
              <LatitudeDegrees>40.6476996280252933502197265625</LatitudeDegrees>
              <LongitudeDegrees>-3.73500983230769634246826171875</LongitudeDegrees>
            </Position>
            <AltitudeMeters>805.4000244140625</AltitudeMeters>
            <DistanceMeters>16385.392719201</DistanceMeters>
          </Trackpoint>
          <Trackpoint>
            <Time>2020-03-07T13:25:05.000Z</Time>
            <Position>
              <LatitudeDegrees>40.64774849452078342437744140625</LatitudeDegrees>
              <LongitudeDegrees>-3.73502357862889766693115234375</LongitudeDegrees>
            </Position>
            <AltitudeMeters>805.4000244140625</AltitudeMeters>
            <DistanceMeters>16390.95320315</DistanceMeters>
          </Trackpoint>
          <Trackpoint>
            <Time>2020-03-07T13:25:06.000Z</Time>
            <Position>
              <LatitudeDegrees>40.64779736101627349853515625</LatitudeDegrees>
              <LongitudeDegrees>-3.7350369058549404144287109375</LongitudeDegrees>
            </Position>
            <AltitudeMeters>805.79998779296875</AltitudeMeters>
            <DistanceMeters>16396.507187408</DistanceMeters>
          </Trackpoint>
          <Trackpoint>
            <Time>2020-03-07T13:25:07.000Z</Time>
            <Position>
              <LatitudeDegrees>40.64784622751176357269287109375</LatitudeDegrees>
              <LongitudeDegrees>-3.73504939489066600799560546875</LongitudeDegrees>
            </Position>
            <AltitudeMeters>806</AltitudeMeters>
            <DistanceMeters>16402.047334502</DistanceMeters>
          </Trackpoint>
          <Trackpoint>
            <Time>2020-03-07T13:25:08.000Z</Time>
            <Position>
              <LatitudeDegrees>40.64789534546434879302978515625</LatitudeDegrees>
              <LongitudeDegrees>-3.7350630573928356170654296875</LongitudeDegrees>
            </Position>
            <AltitudeMeters>806.4000244140625</AltitudeMeters>
            <DistanceMeters>16407.633741594</DistanceMeters>
          </Trackpoint>
          <Trackpoint>
            <Time>2020-03-07T13:25:09.000Z</Time>
            <Position>
              <LatitudeDegrees>40.64794194884598255157470703125</LatitudeDegrees>
              <LongitudeDegrees>-3.73507873155176639556884765625</LongitudeDegrees>
            </Position>
            <AltitudeMeters>806.5999755859375</AltitudeMeters>
            <DistanceMeters>16412.986538298</DistanceMeters>
          </Trackpoint>
          <Trackpoint>
            <Time>2020-03-07T13:25:10.000Z</Time>
            <Position>
              <LatitudeDegrees>40.64798704348504543304443359375</LatitudeDegrees>
              <LongitudeDegrees>-3.7350925616919994354248046875</LongitudeDegrees>
            </Position>
            <AltitudeMeters>806.79998779296875</AltitudeMeters>
            <DistanceMeters>16418.139930853</DistanceMeters>
          </Trackpoint>
          <Trackpoint>
            <Time>2020-03-07T13:25:11.000Z</Time>
            <Position>
              <LatitudeDegrees>40.6480328924953937530517578125</LatitudeDegrees>
              <LongitudeDegrees>-3.73510672710835933685302734375</LongitudeDegrees>
            </Position>
            <AltitudeMeters>807</AltitudeMeters>
            <DistanceMeters>16423.381065514</DistanceMeters>
          </Trackpoint>
          <Trackpoint>
            <Time>2020-03-07T13:25:12.000Z</Time>
            <Position>
              <LatitudeDegrees>40.64807857386767864227294921875</LatitudeDegrees>
              <LongitudeDegrees>-3.73512147925794124603271484375</LongitudeDegrees>
            </Position>
            <AltitudeMeters>807.20001220703125</AltitudeMeters>
            <DistanceMeters>16428.615303943</DistanceMeters>
          </Trackpoint>
          <Trackpoint>
            <Time>2020-03-07T13:25:13.000Z</Time>
            <Position>
              <LatitudeDegrees>40.6481257639825344085693359375</LatitudeDegrees>
              <LongitudeDegrees>-3.73513639904558658599853515625</LongitudeDegrees>
            </Position>
            <AltitudeMeters>807.4000244140625</AltitudeMeters>
            <DistanceMeters>16434.016801605</DistanceMeters>
          </Trackpoint>
          <Trackpoint>
            <Time>2020-03-07T13:25:14.000Z</Time>
            <Position>
              <LatitudeDegrees>40.64817412756383419036865234375</LatitudeDegrees>
              <LongitudeDegrees>-3.73514997772872447967529296875</LongitudeDegrees>
            </Position>
            <AltitudeMeters>807.79998779296875</AltitudeMeters>
            <DistanceMeters>16439.520973338</DistanceMeters>
          </Trackpoint>
          <Trackpoint>
            <Time>2020-03-07T13:25:15.000Z</Time>
            <Position>
              <LatitudeDegrees>40.648222826421260833740234375</LatitudeDegrees>
              <LongitudeDegrees>-3.73516372404992580413818359375</LongitudeDegrees>
            </Position>
            <AltitudeMeters>808</AltitudeMeters>
            <DistanceMeters>16445.063564796</DistanceMeters>
          </Trackpoint>
          <Trackpoint>
            <Time>2020-03-07T13:25:16.000Z</Time>
            <Position>
              <LatitudeDegrees>40.64827303402125835418701171875</LatitudeDegrees>
              <LongitudeDegrees>-3.73517914675176143646240234375</LongitudeDegrees>
            </Position>
            <AltitudeMeters>808.20001220703125</AltitudeMeters>
            <DistanceMeters>16450.801478939</DistanceMeters>
          </Trackpoint>
          <Trackpoint>
            <Time>2020-03-07T13:25:17.000Z</Time>
            <Position>
              <LatitudeDegrees>40.6483232416212558746337890625</LatitudeDegrees>
              <LongitudeDegrees>-3.73519373126327991485595703125</LongitudeDegrees>
            </Position>
            <AltitudeMeters>808.5999755859375</AltitudeMeters>
            <DistanceMeters>16456.523633881</DistanceMeters>
          </Trackpoint>
          <Trackpoint>
            <Time>2020-03-07T13:25:18.000Z</Time>
            <Position>
              <LatitudeDegrees>40.64837378449738025665283203125</LatitudeDegrees>
              <LongitudeDegrees>-3.7352082319557666778564453125</LongitudeDegrees>
            </Position>
            <AltitudeMeters>808.79998779296875</AltitudeMeters>
            <DistanceMeters>16462.28040212</DistanceMeters>
          </Trackpoint>
          <Trackpoint>
            <Time>2020-03-07T13:25:19.000Z</Time>
            <Position>
              <LatitudeDegrees>40.6484244950115680694580078125</LatitudeDegrees>
              <LongitudeDegrees>-3.7352219782769680023193359375</LongitudeDegrees>
            </Position>
            <AltitudeMeters>808.79998779296875</AltitudeMeters>
            <DistanceMeters>16468.042657848</DistanceMeters>
          </Trackpoint>
          <Trackpoint>
            <Time>2020-03-07T13:25:20.000Z</Time>
            <Position>
              <LatitudeDegrees>40.6484761275351047515869140625</LatitudeDegrees>
              <LongitudeDegrees>-3.735235892236232757568359375</LongitudeDegrees>
            </Position>
            <AltitudeMeters>809.20001220703125</AltitudeMeters>
            <DistanceMeters>16473.908200556</DistanceMeters>
          </Trackpoint>
          <Trackpoint>
            <Time>2020-03-07T13:25:21.000Z</Time>
            <Position>
              <LatitudeDegrees>40.64852683804929256439208984375</LatitudeDegrees>
              <LongitudeDegrees>-3.735251985490322113037109375</LongitudeDegrees>
            </Position>
            <AltitudeMeters>809.20001220703125</AltitudeMeters>
            <DistanceMeters>16479.712613981</DistanceMeters>
          </Trackpoint>
          <Trackpoint>
            <Time>2020-03-07T13:25:22.000Z</Time>
            <Position>
              <LatitudeDegrees>40.64857679419219493865966796875</LatitudeDegrees>
              <LongitudeDegrees>-3.73527042567729949951171875</LongitudeDegrees>
            </Position>
            <AltitudeMeters>809.20001220703125</AltitudeMeters>
            <DistanceMeters>16485.486611057</DistanceMeters>
          </Trackpoint>
          <Trackpoint>
            <Time>2020-03-07T13:25:23.000Z</Time>
            <Position>
              <LatitudeDegrees>40.64862691797316074371337890625</LatitudeDegrees>
              <LongitudeDegrees>-3.73528827913105487823486328125</LongitudeDegrees>
            </Position>
            <AltitudeMeters>809.20001220703125</AltitudeMeters>
            <DistanceMeters>16491.266079265</DistanceMeters>
          </Trackpoint>
          <Trackpoint>
            <Time>2020-03-07T13:25:24.000Z</Time>
            <Position>
              <LatitudeDegrees>40.64867771230638027191162109375</LatitudeDegrees>
              <LongitudeDegrees>-3.73530554585158824920654296875</LongitudeDegrees>
            </Position>
            <AltitudeMeters>809.4000244140625</AltitudeMeters>
            <DistanceMeters>16497.105391609</DistanceMeters>
          </Trackpoint>
          <Trackpoint>
            <Time>2020-03-07T13:25:25.000Z</Time>
            <Position>
              <LatitudeDegrees>40.648730434477329254150390625</LatitudeDegrees>
              <LongitudeDegrees>-3.7353222258388996124267578125</LongitudeDegrees>
            </Position>
            <AltitudeMeters>809.79998779296875</AltitudeMeters>
            <DistanceMeters>16503.140897253</DistanceMeters>
          </Trackpoint>
          <Trackpoint>
            <Time>2020-03-07T13:25:26.000Z</Time>
            <Position>
              <LatitudeDegrees>40.648782737553119659423828125</LatitudeDegrees>
              <LongitudeDegrees>-3.7353383190929889678955078125</LongitudeDegrees>
            </Position>
            <AltitudeMeters>810</AltitudeMeters>
            <DistanceMeters>16509.118523244</DistanceMeters>
          </Trackpoint>
          <Trackpoint>
            <Time>2020-03-07T13:25:27.000Z</Time>
            <Position>
              <LatitudeDegrees>40.6488355435431003570556640625</LatitudeDegrees>
              <LongitudeDegrees>-3.73535349033772945404052734375</LongitudeDegrees>
            </Position>
            <AltitudeMeters>810.20001220703125</AltitudeMeters>
            <DistanceMeters>16515.134547378</DistanceMeters>
          </Trackpoint>
          <Trackpoint>
            <Time>2020-03-07T13:25:28.000Z</Time>
            <Position>
              <LatitudeDegrees>40.6488878466188907623291015625</LatitudeDegrees>
              <LongitudeDegrees>-3.7353684939444065093994140625</LongitudeDegrees>
            </Position>
            <AltitudeMeters>810.4000244140625</AltitudeMeters>
            <DistanceMeters>16521.092502606</DistanceMeters>
          </Trackpoint>
          <Trackpoint>
            <Time>2020-03-07T13:25:29.000Z</Time>
            <Position>
              <LatitudeDegrees>40.648939646780490875244140625</LatitudeDegrees>
              <LongitudeDegrees>-3.73538517393171787261962890625</LongitudeDegrees>
            </Position>
            <AltitudeMeters>810.5999755859375</AltitudeMeters>
            <DistanceMeters>16527.026919017</DistanceMeters>
          </Trackpoint>
          <Trackpoint>
            <Time>2020-03-07T13:25:30.000Z</Time>
            <Position>
              <LatitudeDegrees>40.648989267647266387939453125</LatitudeDegrees>
              <LongitudeDegrees>-3.7354023568332195281982421875</LongitudeDegrees>
            </Position>
            <AltitudeMeters>810.5999755859375</AltitudeMeters>
            <DistanceMeters>16532.737226017</DistanceMeters>
          </Trackpoint>
          <Trackpoint>
            <Time>2020-03-07T13:25:31.000Z</Time>
            <Position>
              <LatitudeDegrees>40.649038217961788177490234375</LatitudeDegrees>
              <LongitudeDegrees>-3.73542021028697490692138671875</LongitudeDegrees>
            </Position>
            <AltitudeMeters>810.79998779296875</AltitudeMeters>
            <DistanceMeters>16538.390317254</DistanceMeters>
          </Trackpoint>
          <Trackpoint>
            <Time>2020-03-07T13:25:32.000Z</Time>
            <Position>
              <LatitudeDegrees>40.64908674918115139007568359375</LatitudeDegrees>
              <LongitudeDegrees>-3.73543940484523773193359375</LongitudeDegrees>
            </Position>
            <AltitudeMeters>811</AltitudeMeters>
            <DistanceMeters>16544.029814504</DistanceMeters>
          </Trackpoint>
          <Trackpoint>
            <Time>2020-03-07T13:25:33.000Z</Time>
            <Position>
              <LatitudeDegrees>40.64913444221019744873046875</LatitudeDegrees>
              <LongitudeDegrees>-3.73545859940350055694580078125</LongitudeDegrees>
            </Position>
            <AltitudeMeters>811</AltitudeMeters>
            <DistanceMeters>16549.580546062</DistanceMeters>
          </Trackpoint>
          <Trackpoint>
            <Time>2020-03-07T13:25:34.000Z</Time>
            <Position>
              <LatitudeDegrees>40.6491802074015140533447265625</LatitudeDegrees>
              <LongitudeDegrees>-3.73547754250466823577880859375</LongitudeDegrees>
            </Position>
            <AltitudeMeters>811.20001220703125</AltitudeMeters>
            <DistanceMeters>16554.918984154</DistanceMeters>
          </Trackpoint>
          <Trackpoint>
            <Time>2020-03-07T13:25:35.000Z</Time>
            <Position>
              <LatitudeDegrees>40.649225302040576934814453125</LatitudeDegrees>
              <LongitudeDegrees>-3.73549640178680419921875</LongitudeDegrees>
            </Position>
            <AltitudeMeters>811.5999755859375</AltitudeMeters>
            <DistanceMeters>16560.185041954</DistanceMeters>
          </Trackpoint>
          <Trackpoint>
            <Time>2020-03-07T13:25:36.000Z</Time>
            <Position>
              <LatitudeDegrees>40.6492693908512592315673828125</LatitudeDegrees>
              <LongitudeDegrees>-3.7355146743357181549072265625</LongitudeDegrees>
            </Position>
            <AltitudeMeters>811.79998779296875</AltitudeMeters>
            <DistanceMeters>16565.328788058</DistanceMeters>
          </Trackpoint>
          <Trackpoint>
            <Time>2020-03-07T13:25:37.000Z</Time>
            <Position>
              <LatitudeDegrees>40.6493133120238780975341796875</LatitudeDegrees>
              <LongitudeDegrees>-3.7355326116085052490234375</LongitudeDegrees>
            </Position>
            <AltitudeMeters>812.20001220703125</AltitudeMeters>
            <DistanceMeters>16570.447015463</DistanceMeters>
          </Trackpoint>
          <Trackpoint>
            <Time>2020-03-07T13:25:38.000Z</Time>
            <Position>
              <LatitudeDegrees>40.64935547299683094024658203125</LatitudeDegrees>
              <LongitudeDegrees>-3.7355539016425609588623046875</LongitudeDegrees>
            </Position>
            <AltitudeMeters>812.4000244140625</AltitudeMeters>
            <DistanceMeters>16575.473560388</DistanceMeters>
          </Trackpoint>
          <Trackpoint>
            <Time>2020-03-07T13:25:39.000Z</Time>
            <Position>
              <LatitudeDegrees>40.64939838834106922149658203125</LatitudeDegrees>
              <LongitudeDegrees>-3.73557887971401214599609375</LongitudeDegrees>
            </Position>
            <AltitudeMeters>812.5999755859375</AltitudeMeters>
            <DistanceMeters>16580.695708496</DistanceMeters>
          </Trackpoint>
          <Trackpoint>
            <Time>2020-03-07T13:25:40.000Z</Time>
            <Position>
              <LatitudeDegrees>40.649440549314022064208984375</LatitudeDegrees>
              <LongitudeDegrees>-3.7356018461287021636962890625</LongitudeDegrees>
            </Position>
            <AltitudeMeters>812.79998779296875</AltitudeMeters>
            <DistanceMeters>16585.774084056</DistanceMeters>
          </Trackpoint>
          <Trackpoint>
            <Time>2020-03-07T13:25:41.000Z</Time>
            <Position>
              <LatitudeDegrees>40.649483464658260345458984375</LatitudeDegrees>
              <LongitudeDegrees>-3.73562623746693134307861328125</LongitudeDegrees>
            </Position>
            <AltitudeMeters>813.20001220703125</AltitudeMeters>
            <DistanceMeters>16590.977176327</DistanceMeters>
          </Trackpoint>
          <Trackpoint>
            <Time>2020-03-07T13:25:42.000Z</Time>
            <Position>
              <LatitudeDegrees>40.64952746964991092681884765625</LatitudeDegrees>
              <LongitudeDegrees>-3.7356521375477313995361328125</LongitudeDegrees>
            </Position>
            <AltitudeMeters>813.5999755859375</AltitudeMeters>
            <DistanceMeters>16596.341768914</DistanceMeters>
          </Trackpoint>
          <Trackpoint>
            <Time>2020-03-07T13:25:43.000Z</Time>
            <Position>
              <LatitudeDegrees>40.649571977555751800537109375</LatitudeDegrees>
              <LongitudeDegrees>-3.73567921109497547149658203125</LongitudeDegrees>
            </Position>
            <AltitudeMeters>813.79998779296875</AltitudeMeters>
            <DistanceMeters>16601.798983598</DistanceMeters>
          </Trackpoint>
          <Trackpoint>
            <Time>2020-03-07T13:25:44.000Z</Time>
            <Position>
              <LatitudeDegrees>40.64961598254740238189697265625</LatitudeDegrees>
              <LongitudeDegrees>-3.7357098050415515899658203125</LongitudeDegrees>
            </Position>
            <AltitudeMeters>814.20001220703125</AltitudeMeters>
            <DistanceMeters>16607.336685252</DistanceMeters>
          </Trackpoint>
          <Trackpoint>
            <Time>2020-03-07T13:25:45.000Z</Time>
            <Position>
              <LatitudeDegrees>40.64965956844389438629150390625</LatitudeDegrees>
              <LongitudeDegrees>-3.73574257828295230865478515625</LongitudeDegrees>
            </Position>
            <AltitudeMeters>814.5999755859375</AltitudeMeters>
            <DistanceMeters>16612.921475672</DistanceMeters>
          </Trackpoint>
          <Trackpoint>
            <Time>2020-03-07T13:25:46.000Z</Time>
            <Position>
              <LatitudeDegrees>40.6497023999691009521484375</LatitudeDegrees>
              <LongitudeDegrees>-3.73577560298144817352294921875</LongitudeDegrees>
            </Position>
            <AltitudeMeters>815</AltitudeMeters>
            <DistanceMeters>16618.444481939</DistanceMeters>
          </Trackpoint>
          <Trackpoint>
            <Time>2020-03-07T13:25:47.000Z</Time>
            <Position>
              <LatitudeDegrees>40.64974456094205379486083984375</LatitudeDegrees>
              <LongitudeDegrees>-3.7358083762228488922119140625</LongitudeDegrees>
            </Position>
            <AltitudeMeters>815.4000244140625</AltitudeMeters>
            <DistanceMeters>16623.892588149</DistanceMeters>
          </Trackpoint>
          <Trackpoint>
            <Time>2020-03-07T13:25:48.000Z</Time>
            <Position>
              <LatitudeDegrees>40.6497887335717678070068359375</LatitudeDegrees>
              <LongitudeDegrees>-3.7358412332832813262939453125</LongitudeDegrees>
            </Position>
            <AltitudeMeters>816</AltitudeMeters>
            <DistanceMeters>16629.538486647</DistanceMeters>
          </Trackpoint>
          <Trackpoint>
            <Time>2020-03-07T13:25:49.000Z</Time>
            <Position>
              <LatitudeDegrees>40.6498339958488941192626953125</LatitudeDegrees>
              <LongitudeDegrees>-3.7358761020004749298095703125</LongitudeDegrees>
            </Position>
            <AltitudeMeters>816.20001220703125</AltitudeMeters>
            <DistanceMeters>16635.373157862</DistanceMeters>
          </Trackpoint>
          <Trackpoint>
            <Time>2020-03-07T13:25:50.000Z</Time>
            <Position>
              <LatitudeDegrees>40.649880431592464447021484375</LatitudeDegrees>
              <LongitudeDegrees>-3.7359133176505565643310546875</LongitudeDegrees>
            </Position>
            <AltitudeMeters>816.4000244140625</AltitudeMeters>
            <DistanceMeters>16641.42211395</DistanceMeters>
          </Trackpoint>
          <Trackpoint>
            <Time>2020-03-07T13:25:51.000Z</Time>
            <Position>
              <LatitudeDegrees>40.64992837607860565185546875</LatitudeDegrees>
              <LongitudeDegrees>-3.73594977892935276031494140625</LongitudeDegrees>
            </Position>
            <AltitudeMeters>816.79998779296875</AltitudeMeters>
            <DistanceMeters>16647.582747951</DistanceMeters>
          </Trackpoint>
          <Trackpoint>
            <Time>2020-03-07T13:25:52.000Z</Time>
            <Position>
              <LatitudeDegrees>40.649977661669254302978515625</LatitudeDegrees>
              <LongitudeDegrees>-3.735985569655895233154296875</LongitudeDegrees>
            </Position>
            <AltitudeMeters>816.79998779296875</AltitudeMeters>
            <DistanceMeters>16653.845145415</DistanceMeters>
          </Trackpoint>
          <Trackpoint>
            <Time>2020-03-07T13:25:53.000Z</Time>
            <Position>
              <LatitudeDegrees>40.6500274501740932464599609375</LatitudeDegrees>
              <LongitudeDegrees>-3.73602136038243770599365234375</LongitudeDegrees>
            </Position>
            <AltitudeMeters>817</AltitudeMeters>
            <DistanceMeters>16660.156378828</DistanceMeters>
          </Trackpoint>
          <Trackpoint>
            <Time>2020-03-07T13:25:54.000Z</Time>
            <Position>
              <LatitudeDegrees>40.65007723867893218994140625</LatitudeDegrees>
              <LongitudeDegrees>-3.7360581569373607635498046875</LongitudeDegrees>
            </Position>
            <AltitudeMeters>817</AltitudeMeters>
            <DistanceMeters>16666.509680466</DistanceMeters>
          </Trackpoint>
          <Trackpoint>
            <Time>2020-03-07T13:25:55.000Z</Time>
            <Position>
              <LatitudeDegrees>40.65012711100280284881591796875</LatitudeDegrees>
              <LongitudeDegrees>-3.7360957078635692596435546875</LongitudeDegrees>
            </Position>
            <AltitudeMeters>817</AltitudeMeters>
            <DistanceMeters>16672.902655203</DistanceMeters>
          </Trackpoint>
          <Trackpoint>
            <Time>2020-03-07T13:25:56.000Z</Time>
            <Position>
              <LatitudeDegrees>40.6501769833266735076904296875</LatitudeDegrees>
              <LongitudeDegrees>-3.7361334264278411865234375</LongitudeDegrees>
            </Position>
            <AltitudeMeters>817</AltitudeMeters>
            <DistanceMeters>16679.302688543</DistanceMeters>
          </Trackpoint>
          <Trackpoint>
            <Time>2020-03-07T13:25:57.000Z</Time>
            <Position>
              <LatitudeDegrees>40.65022652037441730499267578125</LatitudeDegrees>
              <LongitudeDegrees>-3.73617030680179595947265625</LongitudeDegrees>
            </Position>
            <AltitudeMeters>817</AltitudeMeters>
            <DistanceMeters>16685.634634485</DistanceMeters>
          </Trackpoint>
          <Trackpoint>
            <Time>2020-03-07T13:25:58.000Z</Time>
            <Position>
              <LatitudeDegrees>40.650275386869907379150390625</LatitudeDegrees>
              <LongitudeDegrees>-3.73620626516640186309814453125</LongitudeDegrees>
            </Position>
            <AltitudeMeters>817</AltitudeMeters>
            <DistanceMeters>16691.863778766</DistanceMeters>
          </Trackpoint>
          <Trackpoint>
            <Time>2020-03-07T13:25:59.000Z</Time>
            <Position>
              <LatitudeDegrees>40.65032375045120716094970703125</LatitudeDegrees>
              <LongitudeDegrees>-3.73624046333134174346923828125</LongitudeDegrees>
            </Position>
            <AltitudeMeters>817</AltitudeMeters>
            <DistanceMeters>16697.972156281</DistanceMeters>
          </Trackpoint>
          <Trackpoint>
            <Time>2020-03-07T13:26:00.000Z</Time>
            <Position>
              <LatitudeDegrees>40.6503711082041263580322265625</LatitudeDegrees>
              <LongitudeDegrees>-3.73627365566790103912353515625</LongitudeDegrees>
            </Position>
            <AltitudeMeters>817.20001220703125</AltitudeMeters>
            <DistanceMeters>16703.942224264</DistanceMeters>
          </Trackpoint>
          <Trackpoint>
            <Time>2020-03-07T13:26:01.000Z</Time>
            <Position>
              <LatitudeDegrees>40.65041880123317241668701171875</LatitudeDegrees>
              <LongitudeDegrees>-3.7363076023757457733154296875</LongitudeDegrees>
            </Position>
            <AltitudeMeters>817.20001220703125</AltitudeMeters>
            <DistanceMeters>16709.974736848</DistanceMeters>
          </Trackpoint>
          <Trackpoint>
            <Time>2020-03-07T13:26:02.000Z</Time>
            <Position>
              <LatitudeDegrees>40.65046473406255245208740234375</LatitudeDegrees>
              <LongitudeDegrees>-3.7363418005406856536865234375</LongitudeDegrees>
            </Position>
            <AltitudeMeters>817.20001220703125</AltitudeMeters>
            <DistanceMeters>16715.846434376</DistanceMeters>
          </Trackpoint>
          <Trackpoint>
            <Time>2020-03-07T13:26:03.000Z</Time>
            <Position>
              <LatitudeDegrees>40.6505092419683933258056640625</LatitudeDegrees>
              <LongitudeDegrees>-3.73637708835303783416748046875</LongitudeDegrees>
            </Position>
            <AltitudeMeters>817.4000244140625</AltitudeMeters>
            <DistanceMeters>16721.627464813</DistanceMeters>
          </Trackpoint>
          <Trackpoint>
            <Time>2020-03-07T13:26:04.000Z</Time>
            <Position>
              <LatitudeDegrees>40.65055307932198047637939453125</LatitudeDegrees>
              <LongitudeDegrees>-3.73641304671764373779296875</LongitudeDegrees>
            </Position>
            <AltitudeMeters>817.4000244140625</AltitudeMeters>
            <DistanceMeters>16727.373242348</DistanceMeters>
          </Trackpoint>
          <Trackpoint>
            <Time>2020-03-07T13:26:05.000Z</Time>
            <Position>
              <LatitudeDegrees>40.650595910847187042236328125</LatitudeDegrees>
              <LongitudeDegrees>-3.7364480830729007720947265625</LongitudeDegrees>
            </Position>
            <AltitudeMeters>817.4000244140625</AltitudeMeters>
            <DistanceMeters>16732.983843607</DistanceMeters>
          </Trackpoint>
          <Trackpoint>
            <Time>2020-03-07T13:26:06.000Z</Time>
            <Position>
              <LatitudeDegrees>40.65064025111496448516845703125</LatitudeDegrees>
              <LongitudeDegrees>-3.7364832870662212371826171875</LongitudeDegrees>
            </Position>
            <AltitudeMeters>817.4000244140625</AltitudeMeters>
            <DistanceMeters>16738.745315728</DistanceMeters>
          </Trackpoint>
          <Trackpoint>
            <Time>2020-03-07T13:26:07.000Z</Time>
            <Position>
              <LatitudeDegrees>40.65068484283983707427978515625</LatitudeDegrees>
              <LongitudeDegrees>-3.73651857487857341766357421875</LongitudeDegrees>
            </Position>
            <AltitudeMeters>817.4000244140625</AltitudeMeters>
            <DistanceMeters>16744.53415099</DistanceMeters>
          </Trackpoint>
          <Trackpoint>
            <Time>2020-03-07T13:26:08.000Z</Time>
            <Position>
              <LatitudeDegrees>40.650730021297931671142578125</LatitudeDegrees>
              <LongitudeDegrees>-3.7365545332431793212890625</LongitudeDegrees>
            </Position>
            <AltitudeMeters>817.4000244140625</AltitudeMeters>
            <DistanceMeters>16750.407386215</DistanceMeters>
          </Trackpoint>
          <Trackpoint>
            <Time>2020-03-07T13:26:09.000Z</Time>
            <Position>
              <LatitudeDegrees>40.650776289403438568115234375</LatitudeDegrees>
              <LongitudeDegrees>-3.73658965341746807098388671875</LongitudeDegrees>
            </Position>
            <AltitudeMeters>817.5999755859375</AltitudeMeters>
            <DistanceMeters>16756.349405981</DistanceMeters>
          </Trackpoint>
          <Trackpoint>
            <Time>2020-03-07T13:26:10.000Z</Time>
            <Position>
              <LatitudeDegrees>40.65082213841378688812255859375</LatitudeDegrees>
              <LongitudeDegrees>-3.73662603087723255157470703125</LongitudeDegrees>
            </Position>
            <AltitudeMeters>818</AltitudeMeters>
            <DistanceMeters>16762.305087325</DistanceMeters>
          </Trackpoint>
          <Trackpoint>
            <Time>2020-03-07T13:26:11.000Z</Time>
            <Position>
              <LatitudeDegrees>40.65086790360510349273681640625</LatitudeDegrees>
              <LongitudeDegrees>-3.73666408471763134002685546875</LongitudeDegrees>
            </Position>
            <AltitudeMeters>818.20001220703125</AltitudeMeters>
            <DistanceMeters>16768.328611804</DistanceMeters>
          </Trackpoint>
          <Trackpoint>
            <Time>2020-03-07T13:26:12.000Z</Time>
            <Position>
              <LatitudeDegrees>40.65091400407254695892333984375</LatitudeDegrees>
              <LongitudeDegrees>-3.7367020547389984130859375</LongitudeDegrees>
            </Position>
            <AltitudeMeters>818.5999755859375</AltitudeMeters>
            <DistanceMeters>16774.37906054</DistanceMeters>
          </Trackpoint>
          <Trackpoint>
            <Time>2020-03-07T13:26:13.000Z</Time>
            <Position>
              <LatitudeDegrees>40.65096060745418071746826171875</LatitudeDegrees>
              <LongitudeDegrees>-3.73674086295068264007568359375</LongitudeDegrees>
            </Position>
            <AltitudeMeters>818.79998779296875</AltitudeMeters>
            <DistanceMeters>16780.514725842</DistanceMeters>
          </Trackpoint>
          <Trackpoint>
            <Time>2020-03-07T13:26:14.000Z</Time>
            <Position>
              <LatitudeDegrees>40.65100704319775104522705078125</LatitudeDegrees>
              <LongitudeDegrees>-3.736780174076557159423828125</LongitudeDegrees>
            </Position>
            <AltitudeMeters>819</AltitudeMeters>
            <DistanceMeters>16786.657010383</DistanceMeters>
          </Trackpoint>
          <Trackpoint>
            <Time>2020-03-07T13:26:15.000Z</Time>
            <Position>
              <LatitudeDegrees>40.65105364657938480377197265625</LatitudeDegrees>
              <LongitudeDegrees>-3.736818730831146240234375</LongitudeDegrees>
            </Position>
            <AltitudeMeters>819.79998779296875</AltitudeMeters>
            <DistanceMeters>16792.781627722</DistanceMeters>
          </Trackpoint>
          <Trackpoint>
            <Time>2020-03-07T13:26:16.000Z</Time>
            <Position>
              <LatitudeDegrees>40.65110075287520885467529296875</LatitudeDegrees>
              <LongitudeDegrees>-3.73685636557638645172119140625</LongitudeDegrees>
            </Position>
            <AltitudeMeters>820.20001220703125</AltitudeMeters>
            <DistanceMeters>16798.912139785</DistanceMeters>
          </Trackpoint>
          <Trackpoint>
            <Time>2020-03-07T13:26:17.000Z</Time>
            <Position>
              <LatitudeDegrees>40.65114886499941349029541015625</LatitudeDegrees>
              <LongitudeDegrees>-3.73689257539808750152587890625</LongitudeDegrees>
            </Position>
            <AltitudeMeters>820.5999755859375</AltitudeMeters>
            <DistanceMeters>16805.078634082</DistanceMeters>
          </Trackpoint>
          <Trackpoint>
            <Time>2020-03-07T13:26:18.000Z</Time>
            <Position>
              <LatitudeDegrees>40.65119865350425243377685546875</LatitudeDegrees>
              <LongitudeDegrees>-3.736929707229137420654296875</LongitudeDegrees>
            </Position>
            <AltitudeMeters>821</AltitudeMeters>
            <DistanceMeters>16811.446133059</DistanceMeters>
          </Trackpoint>
          <Trackpoint>
            <Time>2020-03-07T13:26:19.000Z</Time>
            <Position>
              <LatitudeDegrees>40.65125070512294769287109375</LatitudeDegrees>
              <LongitudeDegrees>-3.73696968890726566314697265625</LongitudeDegrees>
            </Position>
            <AltitudeMeters>821</AltitudeMeters>
            <DistanceMeters>16818.150737488</DistanceMeters>
          </Trackpoint>
          <Trackpoint>
            <Time>2020-03-07T13:26:20.000Z</Time>
            <Position>
              <LatitudeDegrees>40.65130376257002353668212890625</LatitudeDegrees>
              <LongitudeDegrees>-3.7370106764137744903564453125</LongitudeDegrees>
            </Position>
            <AltitudeMeters>821.20001220703125</AltitudeMeters>
            <DistanceMeters>16824.995300044</DistanceMeters>
          </Trackpoint>
          <Trackpoint>
            <Time>2020-03-07T13:26:21.000Z</Time>
            <Position>
              <LatitudeDegrees>40.65135690383613109588623046875</LatitudeDegrees>
              <LongitudeDegrees>-3.73705208301544189453125</LongitudeDegrees>
            </Position>
            <AltitudeMeters>821.20001220703125</AltitudeMeters>
            <DistanceMeters>16831.866198068</DistanceMeters>
          </Trackpoint>
          <Trackpoint>
            <Time>2020-03-07T13:26:22.000Z</Time>
            <Position>
              <LatitudeDegrees>40.65140954218804836273193359375</LatitudeDegrees>
              <LongitudeDegrees>-3.737096004188060760498046875</LongitudeDegrees>
            </Position>
            <AltitudeMeters>821.20001220703125</AltitudeMeters>
            <DistanceMeters>16838.799893113</DistanceMeters>
          </Trackpoint>
          <Trackpoint>
            <Time>2020-03-07T13:26:23.000Z</Time>
            <Position>
              <LatitudeDegrees>40.651462264358997344970703125</LatitudeDegrees>
              <LongitudeDegrees>-3.73714202083647251129150390625</LongitudeDegrees>
            </Position>
            <AltitudeMeters>821.20001220703125</AltitudeMeters>
            <DistanceMeters>16845.837646256</DistanceMeters>
          </Trackpoint>
          <Trackpoint>
            <Time>2020-03-07T13:26:24.000Z</Time>
            <Position>
              <LatitudeDegrees>40.6515143997967243194580078125</LatitudeDegrees>
              <LongitudeDegrees>-3.7371902167797088623046875</LongitudeDegrees>
            </Position>
            <AltitudeMeters>821.20001220703125</AltitudeMeters>
            <DistanceMeters>16852.925263293</DistanceMeters>
          </Trackpoint>
          <Trackpoint>
            <Time>2020-03-07T13:26:25.000Z</Time>
            <Position>
              <LatitudeDegrees>40.65156762488186359405517578125</LatitudeDegrees>
              <LongitudeDegrees>-3.73724050819873809814453125</LongitudeDegrees>
            </Position>
            <AltitudeMeters>821.20001220703125</AltitudeMeters>
            <DistanceMeters>16860.213880426</DistanceMeters>
          </Trackpoint>
          <Trackpoint>
            <Time>2020-03-07T13:26:26.000Z</Time>
            <Position>
              <LatitudeDegrees>40.65162219107151031494140625</LatitudeDegrees>
              <LongitudeDegrees>-3.7372943200170993804931640625</LongitudeDegrees>
            </Position>
            <AltitudeMeters>821.20001220703125</AltitudeMeters>
            <DistanceMeters>16867.799369672</DistanceMeters>
          </Trackpoint>
          <Trackpoint>
            <Time>2020-03-07T13:26:27.000Z</Time>
            <Position>
              <LatitudeDegrees>40.6516773439943790435791015625</LatitudeDegrees>
              <LongitudeDegrees>-3.73735223896801471710205078125</LongitudeDegrees>
            </Position>
            <AltitudeMeters>821.20001220703125</AltitudeMeters>
            <DistanceMeters>16875.648139098</DistanceMeters>
          </Trackpoint>
          <Trackpoint>
            <Time>2020-03-07T13:26:28.000Z</Time>
            <Position>
              <LatitudeDegrees>40.65173241309821605682373046875</LatitudeDegrees>
              <LongitudeDegrees>-3.7374140135943889617919921875</LongitudeDegrees>
            </Position>
            <AltitudeMeters>821.20001220703125</AltitudeMeters>
            <DistanceMeters>16883.696851318</DistanceMeters>
          </Trackpoint>
          <Trackpoint>
            <Time>2020-03-07T13:26:29.000Z</Time>
            <Position>
              <LatitudeDegrees>40.651787817478179931640625</LatitudeDegrees>
              <LongitudeDegrees>-3.73747830279171466827392578125</LongitudeDegrees>
            </Position>
            <AltitudeMeters>821.20001220703125</AltitudeMeters>
            <DistanceMeters>16891.913228348</DistanceMeters>
          </Trackpoint>
          <Trackpoint>
            <Time>2020-03-07T13:26:30.000Z</Time>
            <Position>
              <LatitudeDegrees>40.651843138039112091064453125</LatitudeDegrees>
              <LongitudeDegrees>-3.73754493892192840576171875</LongitudeDegrees>
            </Position>
            <AltitudeMeters>821.20001220703125</AltitudeMeters>
            <DistanceMeters>16900.25503685</DistanceMeters>
          </Trackpoint>
          <Trackpoint>
            <Time>2020-03-07T13:26:31.000Z</Time>
            <Position>
              <LatitudeDegrees>40.65189820714294910430908203125</LatitudeDegrees>
              <LongitudeDegrees>-3.73761509545147418975830078125</LongitudeDegrees>
            </Position>
            <AltitudeMeters>821</AltitudeMeters>
            <DistanceMeters>16908.778885456</DistanceMeters>
          </Trackpoint>
          <Trackpoint>
            <Time>2020-03-07T13:26:32.000Z</Time>
            <Position>
              <LatitudeDegrees>40.65195285715162754058837890625</LatitudeDegrees>
              <LongitudeDegrees>-3.73768768273293972015380859375</LongitudeDegrees>
            </Position>
            <AltitudeMeters>821</AltitudeMeters>
            <DistanceMeters>16917.414299244</DistanceMeters>
          </Trackpoint>
          <Trackpoint>
            <Time>2020-03-07T13:26:33.000Z</Time>
            <Position>
              <LatitudeDegrees>40.65200717188417911529541015625</LatitudeDegrees>
              <LongitudeDegrees>-3.73776278458535671234130859375</LongitudeDegrees>
            </Position>
            <AltitudeMeters>821</AltitudeMeters>
            <DistanceMeters>16926.175329421</DistanceMeters>
          </Trackpoint>
          <Trackpoint>
            <Time>2020-03-07T13:26:34.000Z</Time>
            <Position>
              <LatitudeDegrees>40.6520608998835086822509765625</LatitudeDegrees>
              <LongitudeDegrees>-3.73784006573259830474853515625</LongitudeDegrees>
            </Position>
            <AltitudeMeters>820.79998779296875</AltitudeMeters>
            <DistanceMeters>16935.026597309</DistanceMeters>
          </Trackpoint>
          <Trackpoint>
            <Time>2020-03-07T13:26:35.000Z</Time>
            <Position>
              <LatitudeDegrees>40.652113370597362518310546875</LatitudeDegrees>
              <LongitudeDegrees>-3.73792002908885478973388671875</LongitudeDegrees>
            </Position>
            <AltitudeMeters>820.79998779296875</AltitudeMeters>
            <DistanceMeters>16943.954052417</DistanceMeters>
          </Trackpoint>
          <Trackpoint>
            <Time>2020-03-07T13:26:36.000Z</Time>
            <Position>
              <LatitudeDegrees>40.6521646678447723388671875</LatitudeDegrees>
              <LongitudeDegrees>-3.73800284229218959808349609375</LongitudeDegrees>
            </Position>
            <AltitudeMeters>820.4000244140625</AltitudeMeters>
            <DistanceMeters>16952.981590282</DistanceMeters>
          </Trackpoint>
          <Trackpoint>
            <Time>2020-03-07T13:26:37.000Z</Time>
            <Position>
              <LatitudeDegrees>40.65221353434026241302490234375</LatitudeDegrees>
              <LongitudeDegrees>-3.73808900825679302215576171875</LongitudeDegrees>
            </Position>
            <AltitudeMeters>820.20001220703125</AltitudeMeters>
            <DistanceMeters>16962.065965253</DistanceMeters>
          </Trackpoint>
          <Trackpoint>
            <Time>2020-03-07T13:26:38.000Z</Time>
            <Position>
              <LatitudeDegrees>40.6522607244551181793212890625</LatitudeDegrees>
              <LongitudeDegrees>-3.73817752115428447723388671875</LongitudeDegrees>
            </Position>
            <AltitudeMeters>820</AltitudeMeters>
            <DistanceMeters>16971.201388971</DistanceMeters>
          </Trackpoint>
          <Trackpoint>
            <Time>2020-03-07T13:26:39.000Z</Time>
            <Position>
              <LatitudeDegrees>40.65230749547481536865234375</LatitudeDegrees>
              <LongitudeDegrees>-3.7382656149566173553466796875</LongitudeDegrees>
            </Position>
            <AltitudeMeters>819.5999755859375</AltitudeMeters>
            <DistanceMeters>16980.28029517</DistanceMeters>
          </Trackpoint>
          <Trackpoint>
            <Time>2020-03-07T13:26:40.000Z</Time>
            <Position>
              <LatitudeDegrees>40.65235334448516368865966796875</LatitudeDegrees>
              <LongitudeDegrees>-3.73835572041571140289306640625</LongitudeDegrees>
            </Position>
            <AltitudeMeters>819.4000244140625</AltitudeMeters>
            <DistanceMeters>16989.441383013</DistanceMeters>
          </Trackpoint>
          <Trackpoint>
            <Time>2020-03-07T13:26:41.000Z</Time>
            <Position>
              <LatitudeDegrees>40.65239776857197284698486328125</LatitudeDegrees>
              <LongitudeDegrees>-3.73844616115093231201171875</LongitudeDegrees>
            </Position>
            <AltitudeMeters>819.20001220703125</AltitudeMeters>
            <DistanceMeters>16998.539167397</DistanceMeters>
          </Trackpoint>
          <Trackpoint>
            <Time>2020-03-07T13:26:42.000Z</Time>
            <Position>
              <LatitudeDegrees>40.652440600097179412841796875</LatitudeDegrees>
              <LongitudeDegrees>-3.7385365180671215057373046875</LongitudeDegrees>
            </Position>
            <AltitudeMeters>819</AltitudeMeters>
            <DistanceMeters>17007.536144958</DistanceMeters>
          </Trackpoint>
          <Trackpoint>
            <Time>2020-03-07T13:26:43.000Z</Time>
            <Position>
              <LatitudeDegrees>40.6524810008704662322998046875</LatitudeDegrees>
              <LongitudeDegrees>-3.73862829990684986114501953125</LongitudeDegrees>
            </Position>
            <AltitudeMeters>818.5999755859375</AltitudeMeters>
            <DistanceMeters>17016.496917232</DistanceMeters>
          </Trackpoint>
          <Trackpoint>
            <Time>2020-03-07T13:26:44.000Z</Time>
            <Position>
              <LatitudeDegrees>40.65251762978732585906982421875</LatitudeDegrees>
              <LongitudeDegrees>-3.73871966265141963958740234375</LongitudeDegrees>
            </Position>
            <AltitudeMeters>818.4000244140625</AltitudeMeters>
            <DistanceMeters>17025.222832919</DistanceMeters>
          </Trackpoint>
          <Trackpoint>
            <Time>2020-03-07T13:26:45.000Z</Time>
            <Position>
              <LatitudeDegrees>40.65255367197096347808837890625</LatitudeDegrees>
              <LongitudeDegrees>-3.73881119303405284881591796875</LongitudeDegrees>
            </Position>
            <AltitudeMeters>818.4000244140625</AltitudeMeters>
            <DistanceMeters>17033.931138263</DistanceMeters>
          </Trackpoint>
          <Trackpoint>
            <Time>2020-03-07T13:26:46.000Z</Time>
            <Position>
              <LatitudeDegrees>40.65258912742137908935546875</LatitudeDegrees>
              <LongitudeDegrees>-3.7389009632170200347900390625</LongitudeDegrees>
            </Position>
            <AltitudeMeters>818.4000244140625</AltitudeMeters>
            <DistanceMeters>17042.477205094</DistanceMeters>
          </Trackpoint>
          <Trackpoint>
            <Time>2020-03-07T13:26:47.000Z</Time>
            <Position>
              <LatitudeDegrees>40.65262340940535068511962890625</LatitudeDegrees>
              <LongitudeDegrees>-3.7389891408383846282958984375</LongitudeDegrees>
            </Position>
            <AltitudeMeters>818.4000244140625</AltitudeMeters>
            <DistanceMeters>17050.84387424</DistanceMeters>
          </Trackpoint>
          <Trackpoint>
            <Time>2020-03-07T13:26:48.000Z</Time>
            <Position>
              <LatitudeDegrees>40.65265559591352939605712890625</LatitudeDegrees>
              <LongitudeDegrees>-3.73907572589814662933349609375</LongitudeDegrees>
            </Position>
            <AltitudeMeters>818.4000244140625</AltitudeMeters>
            <DistanceMeters>17058.985728524</DistanceMeters>
          </Trackpoint>
          <Trackpoint>
            <Time>2020-03-07T13:26:49.000Z</Time>
            <Position>
              <LatitudeDegrees>40.65268593840301036834716796875</LatitudeDegrees>
              <LongitudeDegrees>-3.73915770091116428375244140625</LongitudeDegrees>
            </Position>
            <AltitudeMeters>818.4000244140625</AltitudeMeters>
            <DistanceMeters>17066.686997386</DistanceMeters>
          </Trackpoint>
          <Trackpoint>
            <Time>2020-03-07T13:26:50.000Z</Time>
            <Position>
              <LatitudeDegrees>40.652715861797332763671875</LatitudeDegrees>
              <LongitudeDegrees>-3.739237077534198760986328125</LongitudeDegrees>
            </Position>
            <AltitudeMeters>818.4000244140625</AltitudeMeters>
            <DistanceMeters>17074.171821649</DistanceMeters>
          </Trackpoint>
          <Trackpoint>
            <Time>2020-03-07T13:26:51.000Z</Time>
            <Position>
              <LatitudeDegrees>40.65274461172521114349365234375</LatitudeDegrees>
              <LongitudeDegrees>-3.73931662179529666900634765625</LongitudeDegrees>
            </Position>
            <AltitudeMeters>818.4000244140625</AltitudeMeters>
            <DistanceMeters>17081.611873302</DistanceMeters>
          </Trackpoint>
          <Trackpoint>
            <Time>2020-03-07T13:26:52.000Z</Time>
            <Position>
              <LatitudeDegrees>40.65277445130050182342529296875</LatitudeDegrees>
              <LongitudeDegrees>-3.73939507640898227691650390625</LongitudeDegrees>
            </Position>
            <AltitudeMeters>818.4000244140625</AltitudeMeters>
            <DistanceMeters>17089.022738632</DistanceMeters>
          </Trackpoint>
          <Trackpoint>
            <Time>2020-03-07T13:26:53.000Z</Time>
            <Position>
              <LatitudeDegrees>40.6528028659522533416748046875</LatitudeDegrees>
              <LongitudeDegrees>-3.7394702620804309844970703125</LongitudeDegrees>
            </Position>
            <AltitudeMeters>818.5999755859375</AltitudeMeters>
            <DistanceMeters>17096.116086639</DistanceMeters>
          </Trackpoint>
          <Trackpoint>
            <Time>2020-03-07T13:26:54.000Z</Time>
            <Position>
              <LatitudeDegrees>40.65282826311886310577392578125</LatitudeDegrees>
              <LongitudeDegrees>-3.739544861018657684326171875</LongitudeDegrees>
            </Position>
            <AltitudeMeters>818.5999755859375</AltitudeMeters>
            <DistanceMeters>17103.020416697</DistanceMeters>
          </Trackpoint>
          <Trackpoint>
            <Time>2020-03-07T13:26:55.000Z</Time>
            <Position>
              <LatitudeDegrees>40.65285290591418743133544921875</LatitudeDegrees>
              <LongitudeDegrees>-3.73961954377591609954833984375</LongitudeDegrees>
            </Position>
            <AltitudeMeters>818.79998779296875</AltitudeMeters>
            <DistanceMeters>17109.89788283</DistanceMeters>
          </Trackpoint>
          <Trackpoint>
            <Time>2020-03-07T13:26:56.000Z</Time>
            <Position>
              <LatitudeDegrees>40.6528766267001628875732421875</LatitudeDegrees>
              <LongitudeDegrees>-3.73969296924769878387451171875</LongitudeDegrees>
            </Position>
            <AltitudeMeters>819</AltitudeMeters>
            <DistanceMeters>17116.637414306</DistanceMeters>
          </Trackpoint>
          <Trackpoint>
            <Time>2020-03-07T13:26:57.000Z</Time>
            <Position>
              <LatitudeDegrees>40.6529007665812969207763671875</LatitudeDegrees>
              <LongitudeDegrees>-3.7397651374340057373046875</LongitudeDegrees>
            </Position>
            <AltitudeMeters>819.4000244140625</AltitudeMeters>
            <DistanceMeters>17123.297424478</DistanceMeters>
          </Trackpoint>
          <Trackpoint>
            <Time>2020-03-07T13:26:58.000Z</Time>
            <Position>
              <LatitudeDegrees>40.652926079928874969482421875</LatitudeDegrees>
              <LongitudeDegrees>-3.7398353777825832366943359375</LongitudeDegrees>
            </Position>
            <AltitudeMeters>819.79998779296875</AltitudeMeters>
            <DistanceMeters>17129.863901084</DistanceMeters>
          </Trackpoint>
          <Trackpoint>
            <Time>2020-03-07T13:26:59.000Z</Time>
            <Position>
              <LatitudeDegrees>40.6529513932764530181884765625</LatitudeDegrees>
              <LongitudeDegrees>-3.739904277026653289794921875</LongitudeDegrees>
            </Position>
            <AltitudeMeters>820</AltitudeMeters>
            <DistanceMeters>17136.327114962</DistanceMeters>
          </Trackpoint>
          <Trackpoint>
            <Time>2020-03-07T13:27:00.000Z</Time>
            <Position>
              <LatitudeDegrees>40.65297729335725307464599609375</LatitudeDegrees>
              <LongitudeDegrees>-3.73997242189943790435791015625</LongitudeDegrees>
            </Position>
            <AltitudeMeters>820.20001220703125</AltitudeMeters>
            <DistanceMeters>17142.763728258</DistanceMeters>
          </Trackpoint>
          <Trackpoint>
            <Time>2020-03-07T13:27:01.000Z</Time>
            <Position>
              <LatitudeDegrees>40.6530026905238628387451171875</LatitudeDegrees>
              <LongitudeDegrees>-3.7400412373244762420654296875</LongitudeDegrees>
            </Position>
            <AltitudeMeters>820.4000244140625</AltitudeMeters>
            <DistanceMeters>17149.225544835</DistanceMeters>
          </Trackpoint>
          <Trackpoint>
            <Time>2020-03-07T13:27:02.000Z</Time>
            <Position>
              <LatitudeDegrees>40.6530285067856311798095703125</LatitudeDegrees>
              <LongitudeDegrees>-3.74011105857789516448974609375</LongitudeDegrees>
            </Position>
            <AltitudeMeters>820.5999755859375</AltitudeMeters>
            <DistanceMeters>17155.784453599</DistanceMeters>
          </Trackpoint>
          <Trackpoint>
            <Time>2020-03-07T13:27:03.000Z</Time>
            <Position>
              <LatitudeDegrees>40.6530553288757801055908203125</LatitudeDegrees>
              <LongitudeDegrees>-3.74018129892647266387939453125</LongitudeDegrees>
            </Position>
            <AltitudeMeters>821</AltitudeMeters>
            <DistanceMeters>17162.424774621</DistanceMeters>
          </Trackpoint>
          <Trackpoint>
            <Time>2020-03-07T13:27:04.000Z</Time>
            <Position>
              <LatitudeDegrees>40.6530821509659290313720703125</LatitudeDegrees>
              <LongitudeDegrees>-3.7402524612843990325927734375</LongitudeDegrees>
            </Position>
            <AltitudeMeters>821.20001220703125</AltitudeMeters>
            <DistanceMeters>17169.134764275</DistanceMeters>
          </Trackpoint>
          <Trackpoint>
            <Time>2020-03-07T13:27:05.000Z</Time>
            <Position>
              <LatitudeDegrees>40.65311006270349025726318359375</LatitudeDegrees>
              <LongitudeDegrees>-3.74032278545200824737548828125</LongitudeDegrees>
            </Position>
            <AltitudeMeters>821.5999755859375</AltitudeMeters>
            <DistanceMeters>17175.836674468</DistanceMeters>
          </Trackpoint>
          <Trackpoint>
            <Time>2020-03-07T13:27:06.000Z</Time>
            <Position>
              <LatitudeDegrees>40.65313755534589290618896484375</LatitudeDegrees>
              <LongitudeDegrees>-3.7403922714293003082275390625</LongitudeDegrees>
            </Position>
            <AltitudeMeters>821.5999755859375</AltitudeMeters>
            <DistanceMeters>17182.45451934</DistanceMeters>
          </Trackpoint>
          <Trackpoint>
            <Time>2020-03-07T13:27:07.000Z</Time>
            <Position>
              <LatitudeDegrees>40.65316488035023212432861328125</LatitudeDegrees>
              <LongitudeDegrees>-3.74046209268271923065185546875</LongitudeDegrees>
            </Position>
            <AltitudeMeters>821.79998779296875</AltitudeMeters>
            <DistanceMeters>17189.087356775</DistanceMeters>
          </Trackpoint>
          <Trackpoint>
            <Time>2020-03-07T13:27:08.000Z</Time>
            <Position>
              <LatitudeDegrees>40.65319270826876163482666015625</LatitudeDegrees>
              <LongitudeDegrees>-3.7405324168503284454345703125</LongitudeDegrees>
            </Position>
            <AltitudeMeters>821.79998779296875</AltitudeMeters>
            <DistanceMeters>17195.785223582</DistanceMeters>
          </Trackpoint>
          <Trackpoint>
            <Time>2020-03-07T13:27:09.000Z</Time>
            <Position>
              <LatitudeDegrees>40.65322137437760829925537109375</LatitudeDegrees>
              <LongitudeDegrees>-3.74060106463730335235595703125</LongitudeDegrees>
            </Position>
            <AltitudeMeters>822</AltitudeMeters>
            <DistanceMeters>17202.403068455</DistanceMeters>
          </Trackpoint>
          <Trackpoint>
            <Time>2020-03-07T13:27:10.000Z</Time>
            <Position>
              <LatitudeDegrees>40.65325054340064525604248046875</LatitudeDegrees>
              <LongitudeDegrees>-3.7406702153384685516357421875</LongitudeDegrees>
            </Position>
            <AltitudeMeters>822.4000244140625</AltitudeMeters>
            <DistanceMeters>17209.084061484</DistanceMeters>
          </Trackpoint>
          <Trackpoint>
            <Time>2020-03-07T13:27:11.000Z</Time>
            <Position>
              <LatitudeDegrees>40.65327736549079418182373046875</LatitudeDegrees>
              <LongitudeDegrees>-3.740741126239299774169921875</LongitudeDegrees>
            </Position>
            <AltitudeMeters>823</AltitudeMeters>
            <DistanceMeters>17215.77383419</DistanceMeters>
          </Trackpoint>
          <Trackpoint>
            <Time>2020-03-07T13:27:12.000Z</Time>
            <Position>
              <LatitudeDegrees>40.65330301411449909210205078125</LatitudeDegrees>
              <LongitudeDegrees>-3.74081329442560672760009765625</LongitudeDegrees>
            </Position>
            <AltitudeMeters>823.20001220703125</AltitudeMeters>
            <DistanceMeters>17222.502638192</DistanceMeters>
          </Trackpoint>
          <Trackpoint>
            <Time>2020-03-07T13:27:13.000Z</Time>
            <Position>
              <LatitudeDegrees>40.6533289141952991485595703125</LatitudeDegrees>
              <LongitudeDegrees>-3.74088563024997711181640625</LongitudeDegrees>
            </Position>
            <AltitudeMeters>823.5999755859375</AltitudeMeters>
            <DistanceMeters>17229.256892125</DistanceMeters>
          </Trackpoint>
          <Trackpoint>
            <Time>2020-03-07T13:27:14.000Z</Time>
            <Position>
              <LatitudeDegrees>40.6533550657331943511962890625</LatitudeDegrees>
              <LongitudeDegrees>-3.740957714617252349853515625</LongitudeDegrees>
            </Position>
            <AltitudeMeters>823.79998779296875</AltitudeMeters>
            <DistanceMeters>17236.003788845</DistanceMeters>
          </Trackpoint>
          <Trackpoint>
            <Time>2020-03-07T13:27:15.000Z</Time>
            <Position>
              <LatitudeDegrees>40.653381049633026123046875</LatitudeDegrees>
              <LongitudeDegrees>-3.74103088863193988800048828125</LongitudeDegrees>
            </Position>
            <AltitudeMeters>823.79998779296875</AltitudeMeters>
            <DistanceMeters>17242.825886323</DistanceMeters>
          </Trackpoint>
          <Trackpoint>
            <Time>2020-03-07T13:27:16.000Z</Time>
            <Position>
              <LatitudeDegrees>40.65340720117092132568359375</LatitudeDegrees>
              <LongitudeDegrees>-3.741103895008563995361328125</LongitudeDegrees>
            </Position>
            <AltitudeMeters>824</AltitudeMeters>
            <DistanceMeters>17249.643349447</DistanceMeters>
          </Trackpoint>
          <Trackpoint>
            <Time>2020-03-07T13:27:17.000Z</Time>
            <Position>
              <LatitudeDegrees>40.65343377180397510528564453125</LatitudeDegrees>
              <LongitudeDegrees>-3.74117740429937839508056640625</LongitudeDegrees>
            </Position>
            <AltitudeMeters>824.20001220703125</AltitudeMeters>
            <DistanceMeters>17256.518845806</DistanceMeters>
          </Trackpoint>
          <Trackpoint>
            <Time>2020-03-07T13:27:18.000Z</Time>
            <Position>
              <LatitudeDegrees>40.65346042625606060028076171875</LatitudeDegrees>
              <LongitudeDegrees>-3.74125133268535137176513671875</LongitudeDegrees>
            </Position>
            <AltitudeMeters>824.4000244140625</AltitudeMeters>
            <DistanceMeters>17263.430365494</DistanceMeters>
          </Trackpoint>
          <Trackpoint>
            <Time>2020-03-07T13:27:19.000Z</Time>
            <Position>
              <LatitudeDegrees>40.653488002717494964599609375</LatitudeDegrees>
              <LongitudeDegrees>-3.74132475815713405609130859375</LongitudeDegrees>
            </Position>
            <AltitudeMeters>824.5999755859375</AltitudeMeters>
            <DistanceMeters>17270.348414724</DistanceMeters>
          </Trackpoint>
          <Trackpoint>
            <Time>2020-03-07T13:27:20.000Z</Time>
            <Position>
              <LatitudeDegrees>40.65351591445505619049072265625</LatitudeDegrees>
              <LongitudeDegrees>-3.7413984350860118865966796875</LongitudeDegrees>
            </Position>
            <AltitudeMeters>824.5999755859375</AltitudeMeters>
            <DistanceMeters>17277.302266848</DistanceMeters>
          </Trackpoint>
          <Trackpoint>
            <Time>2020-03-07T13:27:21.000Z</Time>
            <Position>
              <LatitudeDegrees>40.65354407764971256256103515625</LatitudeDegrees>
              <LongitudeDegrees>-3.74147060327231884002685546875</LongitudeDegrees>
            </Position>
            <AltitudeMeters>824.79998779296875</AltitudeMeters>
            <DistanceMeters>17284.154740672</DistanceMeters>
          </Trackpoint>
          <Trackpoint>
            <Time>2020-03-07T13:27:22.000Z</Time>
            <Position>
              <LatitudeDegrees>40.65357173793017864227294921875</LatitudeDegrees>
              <LongitudeDegrees>-3.74154184944927692413330078125</LongitudeDegrees>
            </Position>
            <AltitudeMeters>824.79998779296875</AltitudeMeters>
            <DistanceMeters>17290.911667969</DistanceMeters>
          </Trackpoint>
          <Trackpoint>
            <Time>2020-03-07T13:27:23.000Z</Time>
            <Position>
              <LatitudeDegrees>40.65359889529645442962646484375</LatitudeDegrees>
              <LongitudeDegrees>-3.741611503064632415771484375</LongitudeDegrees>
            </Position>
            <AltitudeMeters>825</AltitudeMeters>
            <DistanceMeters>17297.525418062</DistanceMeters>
          </Trackpoint>
          <Trackpoint>
            <Time>2020-03-07T13:27:24.000Z</Time>
            <Position>
              <LatitudeDegrees>40.65362554974853992462158203125</LatitudeDegrees>
              <LongitudeDegrees>-3.74167914502322673797607421875</LongitudeDegrees>
            </Position>
            <AltitudeMeters>825.20001220703125</AltitudeMeters>
            <DistanceMeters>17303.962031358</DistanceMeters>
          </Trackpoint>
          <Trackpoint>
            <Time>2020-03-07T13:27:25.000Z</Time>
            <Position>
              <LatitudeDegrees>40.6536517851054668426513671875</LatitudeDegrees>
              <LongitudeDegrees>-3.7417457811534404754638671875</LongitudeDegrees>
            </Position>
            <AltitudeMeters>825.5999755859375</AltitudeMeters>
            <DistanceMeters>17310.301103859</DistanceMeters>
          </Trackpoint>
          <Trackpoint>
            <Time>2020-03-07T13:27:26.000Z</Time>
            <Position>
              <LatitudeDegrees>40.65367768518626689910888671875</LatitudeDegrees>
              <LongitudeDegrees>-3.74181241728365421295166015625</LongitudeDegrees>
            </Position>
            <AltitudeMeters>826</AltitudeMeters>
            <DistanceMeters>17316.623059122</DistanceMeters>
          </Trackpoint>
          <Trackpoint>
            <Time>2020-03-07T13:27:27.000Z</Time>
            <Position>
              <LatitudeDegrees>40.653704591095447540283203125</LatitudeDegrees>
              <LongitudeDegrees>-3.74187930487096309661865234375</LongitudeDegrees>
            </Position>
            <AltitudeMeters>826.20001220703125</AltitudeMeters>
            <DistanceMeters>17323.016033859</DistanceMeters>
          </Trackpoint>
          <Trackpoint>
            <Time>2020-03-07T13:27:28.000Z</Time>
            <Position>
              <LatitudeDegrees>40.65373267047107219696044921875</LatitudeDegrees>
              <LongitudeDegrees>-3.7419469468295574188232421875</LongitudeDegrees>
            </Position>
            <AltitudeMeters>826.4000244140625</AltitudeMeters>
            <DistanceMeters>17329.527270984</DistanceMeters>
          </Trackpoint>
          <Trackpoint>
            <Time>2020-03-07T13:27:29.000Z</Time>
            <Position>
              <LatitudeDegrees>40.65376200713217258453369140625</LatitudeDegrees>
              <LongitudeDegrees>-3.7420150078833103179931640625</LongitudeDegrees>
            </Position>
            <AltitudeMeters>826.5999755859375</AltitudeMeters>
            <DistanceMeters>17336.136923762</DistanceMeters>
          </Trackpoint>
          <Trackpoint>
            <Time>2020-03-07T13:27:30.000Z</Time>
            <Position>
              <LatitudeDegrees>40.6537942774593830108642578125</LatitudeDegrees>
              <LongitudeDegrees>-3.742081224918365478515625</LongitudeDegrees>
            </Position>
            <AltitudeMeters>826.79998779296875</AltitudeMeters>
            <DistanceMeters>17342.782002678</DistanceMeters>
          </Trackpoint>
          <Trackpoint>
            <Time>2020-03-07T13:27:31.000Z</Time>
            <Position>
              <LatitudeDegrees>40.65382939763367176055908203125</LatitudeDegrees>
              <LongitudeDegrees>-3.74214719049632549285888671875</LongitudeDegrees>
            </Position>
            <AltitudeMeters>826.79998779296875</AltitudeMeters>
            <DistanceMeters>17349.586870936</DistanceMeters>
          </Trackpoint>
          <Trackpoint>
            <Time>2020-03-07T13:27:32.000Z</Time>
            <Position>
              <LatitudeDegrees>40.65386309288442134857177734375</LatitudeDegrees>
              <LongitudeDegrees>-3.7422151677310466766357421875</LongitudeDegrees>
            </Position>
            <AltitudeMeters>827</AltitudeMeters>
            <DistanceMeters>17356.443296971</DistanceMeters>
          </Trackpoint>
          <Trackpoint>
            <Time>2020-03-07T13:27:33.000Z</Time>
            <Position>
              <LatitudeDegrees>40.6538958661258220672607421875</LatitudeDegrees>
              <LongitudeDegrees>-3.7422845698893070220947265625</LongitudeDegrees>
            </Position>
            <AltitudeMeters>827</AltitudeMeters>
            <DistanceMeters>17363.345664921</DistanceMeters>
          </Trackpoint>
          <Trackpoint>
            <Time>2020-03-07T13:27:34.000Z</Time>
            <Position>
              <LatitudeDegrees>40.6539287231862545013427734375</LatitudeDegrees>
              <LongitudeDegrees>-3.74235355295240879058837890625</LongitudeDegrees>
            </Position>
            <AltitudeMeters>827</AltitudeMeters>
            <DistanceMeters>17370.223131054</DistanceMeters>
          </Trackpoint>
          <Trackpoint>
            <Time>2020-03-07T13:27:35.000Z</Time>
            <Position>
              <LatitudeDegrees>40.6539625860750675201416015625</LatitudeDegrees>
              <LongitudeDegrees>-3.7424220331013202667236328125</LongitudeDegrees>
            </Position>
            <AltitudeMeters>827</AltitudeMeters>
            <DistanceMeters>17377.125499004</DistanceMeters>
          </Trackpoint>
          <Trackpoint>
            <Time>2020-03-07T13:27:36.000Z</Time>
            <Position>
              <LatitudeDegrees>40.6539971195161342620849609375</LatitudeDegrees>
              <LongitudeDegrees>-3.74249068088829517364501953125</LongitudeDegrees>
            </Position>
            <AltitudeMeters>827</AltitudeMeters>
            <DistanceMeters>17384.080000383</DistanceMeters>
          </Trackpoint>
          <Trackpoint>
            <Time>2020-03-07T13:27:37.000Z</Time>
            <Position>
              <LatitudeDegrees>40.6540306471288204193115234375</LatitudeDegrees>
              <LongitudeDegrees>-3.74256041832268238067626953125</LongitudeDegrees>
            </Position>
            <AltitudeMeters>827</AltitudeMeters>
            <DistanceMeters>17391.051361184</DistanceMeters>
          </Trackpoint>
          <Trackpoint>
            <Time>2020-03-07T13:27:38.000Z</Time>
            <Position>
              <LatitudeDegrees>40.65406576730310916900634765625</LatitudeDegrees>
              <LongitudeDegrees>-3.74263107776641845703125</LongitudeDegrees>
            </Position>
            <AltitudeMeters>827</AltitudeMeters>
            <DistanceMeters>17398.184064086</DistanceMeters>
          </Trackpoint>
          <Trackpoint>
            <Time>2020-03-07T13:27:39.000Z</Time>
            <Position>
              <LatitudeDegrees>40.65410214476287364959716796875</LatitudeDegrees>
              <LongitudeDegrees>-3.74270307831466197967529296875</LongitudeDegrees>
            </Position>
            <AltitudeMeters>827</AltitudeMeters>
            <DistanceMeters>17405.48815141</DistanceMeters>
          </Trackpoint>
          <Trackpoint>
            <Time>2020-03-07T13:27:40.000Z</Time>
            <Position>
              <LatitudeDegrees>40.65414137206971645355224609375</LatitudeDegrees>
              <LongitudeDegrees>-3.74277683906257152557373046875</LongitudeDegrees>
            </Position>
            <AltitudeMeters>827</AltitudeMeters>
            <DistanceMeters>17413.094444842</DistanceMeters>
          </Trackpoint>
          <Trackpoint>
            <Time>2020-03-07T13:27:41.000Z</Time>
            <Position>
              <LatitudeDegrees>40.65418009646236896514892578125</LatitudeDegrees>
              <LongitudeDegrees>-3.7428521923720836639404296875</LongitudeDegrees>
            </Position>
            <AltitudeMeters>827</AltitudeMeters>
            <DistanceMeters>17420.780455517</DistanceMeters>
          </Trackpoint>
          <Trackpoint>
            <Time>2020-03-07T13:27:42.000Z</Time>
            <Position>
              <LatitudeDegrees>40.654220916330814361572265625</LatitudeDegrees>
              <LongitudeDegrees>-3.742927797138690948486328125</LongitudeDegrees>
            </Position>
            <AltitudeMeters>827</AltitudeMeters>
            <DistanceMeters>17428.616559129</DistanceMeters>
          </Trackpoint>
          <Trackpoint>
            <Time>2020-03-07T13:27:43.000Z</Time>
            <Position>
              <LatitudeDegrees>40.65426475368440151214599609375</LatitudeDegrees>
              <LongitudeDegrees>-3.7430047430098056793212890625</LongitudeDegrees>
            </Position>
            <AltitudeMeters>826.79998779296875</AltitudeMeters>
            <DistanceMeters>17436.741204279</DistanceMeters>
          </Trackpoint>
          <Trackpoint>
            <Time>2020-03-07T13:27:44.000Z</Time>
            <Position>
              <LatitudeDegrees>40.65430699847638607025146484375</LatitudeDegrees>
              <LongitudeDegrees>-3.74308479018509387969970703125</LongitudeDegrees>
            </Position>
            <AltitudeMeters>826.79998779296875</AltitudeMeters>
            <DistanceMeters>17444.97459871</DistanceMeters>
          </Trackpoint>
          <Trackpoint>
            <Time>2020-03-07T13:27:45.000Z</Time>
            <Position>
              <LatitudeDegrees>40.65434874035418033599853515625</LatitudeDegrees>
              <LongitudeDegrees>-3.743166513741016387939453125</LongitudeDegrees>
            </Position>
            <AltitudeMeters>826.79998779296875</AltitudeMeters>
            <DistanceMeters>17453.293643479</DistanceMeters>
          </Trackpoint>
          <Trackpoint>
            <Time>2020-03-07T13:27:46.000Z</Time>
            <Position>
              <LatitudeDegrees>40.6543920747935771942138671875</LatitudeDegrees>
              <LongitudeDegrees>-3.74324865639209747314453125</LongitudeDegrees>
            </Position>
            <AltitudeMeters>826.5999755859375</AltitudeMeters>
            <DistanceMeters>17461.742475013</DistanceMeters>
          </Trackpoint>
          <Trackpoint>
            <Time>2020-03-07T13:27:47.000Z</Time>
            <Position>
              <LatitudeDegrees>40.654435493052005767822265625</LatitudeDegrees>
              <LongitudeDegrees>-3.74333004467189311981201171875</LongitudeDegrees>
            </Position>
            <AltitudeMeters>826.5999755859375</AltitudeMeters>
            <DistanceMeters>17470.143610501</DistanceMeters>
          </Trackpoint>
          <Trackpoint>
            <Time>2020-03-07T13:27:48.000Z</Time>
            <Position>
              <LatitudeDegrees>40.654480420053005218505859375</LatitudeDegrees>
              <LongitudeDegrees>-3.74341034330427646636962890625</LongitudeDegrees>
            </Position>
            <AltitudeMeters>826.4000244140625</AltitudeMeters>
            <DistanceMeters>17478.568359806</DistanceMeters>
          </Trackpoint>
          <Trackpoint>
            <Time>2020-03-07T13:27:49.000Z</Time>
            <Position>
              <LatitudeDegrees>40.65452408976852893829345703125</LatitudeDegrees>
              <LongitudeDegrees>-3.74349114485085010528564453125</LongitudeDegrees>
            </Position>
            <AltitudeMeters>826.20001220703125</AltitudeMeters>
            <DistanceMeters>17486.944736944</DistanceMeters>
          </Trackpoint>
          <Trackpoint>
            <Time>2020-03-07T13:27:50.000Z</Time>
            <Position>
              <LatitudeDegrees>40.65456935204565525054931640625</LatitudeDegrees>
              <LongitudeDegrees>-3.74357228167355060577392578125</LongitudeDegrees>
            </Position>
            <AltitudeMeters>826</AltitudeMeters>
            <DistanceMeters>17495.448433327</DistanceMeters>
          </Trackpoint>
          <Trackpoint>
            <Time>2020-03-07T13:27:51.000Z</Time>
            <Position>
              <LatitudeDegrees>40.65461511723697185516357421875</LatitudeDegrees>
              <LongitudeDegrees>-3.74365232884883880615234375</LongitudeDegrees>
            </Position>
            <AltitudeMeters>825.79998779296875</AltitudeMeters>
            <DistanceMeters>17503.911681306</DistanceMeters>
          </Trackpoint>
          <Trackpoint>
            <Time>2020-03-07T13:27:52.000Z</Time>
            <Position>
              <LatitudeDegrees>40.65466037951409816741943359375</LatitudeDegrees>
              <LongitudeDegrees>-3.743732459843158721923828125</LongitudeDegrees>
            </Position>
            <AltitudeMeters>825.5999755859375</AltitudeMeters>
            <DistanceMeters>17512.347677539</DistanceMeters>
          </Trackpoint>
          <Trackpoint>
            <Time>2020-03-07T13:27:53.000Z</Time>
            <Position>
              <LatitudeDegrees>40.65470497123897075653076171875</LatitudeDegrees>
              <LongitudeDegrees>-3.7438124231994152069091796875</LongitudeDegrees>
            </Position>
            <AltitudeMeters>825.20001220703125</AltitudeMeters>
            <DistanceMeters>17520.727826972</DistanceMeters>
          </Trackpoint>
          <Trackpoint>
            <Time>2020-03-07T13:27:54.000Z</Time>
            <Position>
              <LatitudeDegrees>40.654747299849987030029296875</LatitudeDegrees>
              <LongitudeDegrees>-3.7438905425369739532470703125</LongitudeDegrees>
            </Position>
            <AltitudeMeters>825</AltitudeMeters>
            <DistanceMeters>17528.833555576</DistanceMeters>
          </Trackpoint>
          <Trackpoint>
            <Time>2020-03-07T13:27:55.000Z</Time>
            <Position>
              <LatitudeDegrees>40.65479046665132045745849609375</LatitudeDegrees>
              <LongitudeDegrees>-3.74396706931293010711669921875</LongitudeDegrees>
            </Position>
            <AltitudeMeters>824.79998779296875</AltitudeMeters>
            <DistanceMeters>17536.885632877</DistanceMeters>
          </Trackpoint>
          <Trackpoint>
            <Time>2020-03-07T13:27:56.000Z</Time>
            <Position>
              <LatitudeDegrees>40.65483204089105129241943359375</LatitudeDegrees>
              <LongitudeDegrees>-3.744042254984378814697265625</LongitudeDegrees>
            </Position>
            <AltitudeMeters>824.5999755859375</AltitudeMeters>
            <DistanceMeters>17544.741302321</DistanceMeters>
          </Trackpoint>
          <Trackpoint>
            <Time>2020-03-07T13:27:57.000Z</Time>
            <Position>
              <LatitudeDegrees>40.654874034225940704345703125</LatitudeDegrees>
              <LongitudeDegrees>-3.744114004075527191162109375</LongitudeDegrees>
            </Position>
            <AltitudeMeters>824.4000244140625</AltitudeMeters>
            <DistanceMeters>17552.393165863</DistanceMeters>
          </Trackpoint>
          <Trackpoint>
            <Time>2020-03-07T13:27:58.000Z</Time>
            <Position>
              <LatitudeDegrees>40.65491728484630584716796875</LatitudeDegrees>
              <LongitudeDegrees>-3.74418265186250209808349609375</LongitudeDegrees>
            </Position>
            <AltitudeMeters>824.4000244140625</AltitudeMeters>
            <DistanceMeters>17559.927292258</DistanceMeters>
          </Trackpoint>
          <Trackpoint>
            <Time>2020-03-07T13:27:59.000Z</Time>
            <Position>
              <LatitudeDegrees>40.6549600325524806976318359375</LatitudeDegrees>
              <LongitudeDegrees>-3.74425021000206470489501953125</LongitudeDegrees>
            </Position>
            <AltitudeMeters>824.4000244140625</AltitudeMeters>
            <DistanceMeters>17567.353981084</DistanceMeters>
          </Trackpoint>
          <Trackpoint>
            <Time>2020-03-07T13:28:00.000Z</Time>
            <Position>
              <LatitudeDegrees>40.65500102005898952484130859375</LatitudeDegrees>
              <LongitudeDegrees>-3.74431617558002471923828125</LongitudeDegrees>
            </Position>
            <AltitudeMeters>824.4000244140625</AltitudeMeters>
            <DistanceMeters>17574.55346987</DistanceMeters>
          </Trackpoint>
          <Trackpoint>
            <Time>2020-03-07T13:28:01.000Z</Time>
            <Position>
              <LatitudeDegrees>40.6550408340990543365478515625</LatitudeDegrees>
              <LongitudeDegrees>-3.744380213320255279541015625</LongitudeDegrees>
            </Position>
            <AltitudeMeters>824.4000244140625</AltitudeMeters>
            <DistanceMeters>17581.544233328</DistanceMeters>
          </Trackpoint>
          <Trackpoint>
            <Time>2020-03-07T13:28:02.000Z</Time>
            <Position>
              <LatitudeDegrees>40.65508014522492885589599609375</LatitudeDegrees>
              <LongitudeDegrees>-3.74444467015564441680908203125</LongitudeDegrees>
            </Position>
            <AltitudeMeters>824.4000244140625</AltitudeMeters>
            <DistanceMeters>17588.527242192</DistanceMeters>
          </Trackpoint>
          <Trackpoint>
            <Time>2020-03-07T13:28:03.000Z</Time>
            <Position>
              <LatitudeDegrees>40.655118115246295928955078125</LatitudeDegrees>
              <LongitudeDegrees>-3.7445072829723358154296875</LongitudeDegrees>
            </Position>
            <AltitudeMeters>824.4000244140625</AltitudeMeters>
            <DistanceMeters>17595.295519506</DistanceMeters>
          </Trackpoint>
          <Trackpoint>
            <Time>2020-03-07T13:28:04.000Z</Time>
            <Position>
              <LatitudeDegrees>40.65515474416315555572509765625</LatitudeDegrees>
              <LongitudeDegrees>-3.7445698119699954986572265625</LongitudeDegrees>
            </Position>
            <AltitudeMeters>824.4000244140625</AltitudeMeters>
            <DistanceMeters>17601.967044578</DistanceMeters>
          </Trackpoint>
          <Trackpoint>
            <Time>2020-03-07T13:28:05.000Z</Time>
            <Position>
              <LatitudeDegrees>40.655189193785190582275390625</LatitudeDegrees>
              <LongitudeDegrees>-3.74463259242475032806396484375</LongitudeDegrees>
            </Position>
            <AltitudeMeters>824.4000244140625</AltitudeMeters>
            <DistanceMeters>17608.509411302</DistanceMeters>
          </Trackpoint>
          <Trackpoint>
            <Time>2020-03-07T13:28:06.000Z</Time>
            <Position>
              <LatitudeDegrees>40.6552228890359401702880859375</LatitudeDegrees>
              <LongitudeDegrees>-3.7446941994130611419677734375</LongitudeDegrees>
            </Position>
            <AltitudeMeters>824.79998779296875</AltitudeMeters>
            <DistanceMeters>17614.922834584</DistanceMeters>
          </Trackpoint>
          <Trackpoint>
            <Time>2020-03-07T13:28:07.000Z</Time>
            <Position>
              <LatitudeDegrees>40.65525817684829235076904296875</LatitudeDegrees>
              <LongitudeDegrees>-3.74475471675395965576171875</LongitudeDegrees>
            </Position>
            <AltitudeMeters>825</AltitudeMeters>
            <DistanceMeters>17621.369260865</DistanceMeters>
          </Trackpoint>
          <Trackpoint>
            <Time>2020-03-07T13:28:08.000Z</Time>
            <Position>
              <LatitudeDegrees>40.655290782451629638671875</LatitudeDegrees>
              <LongitudeDegrees>-3.7448155693709850311279296875</LongitudeDegrees>
            </Position>
            <AltitudeMeters>825</AltitudeMeters>
            <DistanceMeters>17627.661148907</DistanceMeters>
          </Trackpoint>
          <Trackpoint>
            <Time>2020-03-07T13:28:09.000Z</Time>
            <Position>
              <LatitudeDegrees>40.65532590262591838836669921875</LatitudeDegrees>
              <LongitudeDegrees>-3.7448735721409320831298828125</LongitudeDegrees>
            </Position>
            <AltitudeMeters>825.20001220703125</AltitudeMeters>
            <DistanceMeters>17633.927150214</DistanceMeters>
          </Trackpoint>
          <Trackpoint>
            <Time>2020-03-07T13:28:10.000Z</Time>
            <Position>
              <LatitudeDegrees>40.65536026842892169952392578125</LatitudeDegrees>
              <LongitudeDegrees>-3.74493434093892574310302734375</LongitudeDegrees>
            </Position>
            <AltitudeMeters>825.4000244140625</AltitudeMeters>
            <DistanceMeters>17640.327183554</DistanceMeters>
          </Trackpoint>
          <Trackpoint>
            <Time>2020-03-07T13:28:11.000Z</Time>
            <Position>
              <LatitudeDegrees>40.655392706394195556640625</LatitudeDegrees>
              <LongitudeDegrees>-3.7449967861175537109375</LongitudeDegrees>
            </Position>
            <AltitudeMeters>825.5999755859375</AltitudeMeters>
            <DistanceMeters>17646.718039189</DistanceMeters>
          </Trackpoint>
          <Trackpoint>
            <Time>2020-03-07T13:28:12.000Z</Time>
            <Position>
              <LatitudeDegrees>40.65542480908334255218505859375</LatitudeDegrees>
              <LongitudeDegrees>-3.74505914747714996337890625</LongitudeDegrees>
            </Position>
            <AltitudeMeters>825.5999755859375</AltitudeMeters>
            <DistanceMeters>17653.081282291</DistanceMeters>
          </Trackpoint>
          <Trackpoint>
            <Time>2020-03-07T13:28:13.000Z</Time>
            <Position>
              <LatitudeDegrees>40.65545783378183841705322265625</LatitudeDegrees>
              <LongitudeDegrees>-3.74511924572288990020751953125</LongitudeDegrees>
            </Position>
            <AltitudeMeters>825.79998779296875</AltitudeMeters>
            <DistanceMeters>17659.347283598</DistanceMeters>
          </Trackpoint>
          <Trackpoint>
            <Time>2020-03-07T13:28:14.000Z</Time>
            <Position>
              <LatitudeDegrees>40.6554914452135562896728515625</LatitudeDegrees>
              <LongitudeDegrees>-3.74517791904509067535400390625</LongitudeDegrees>
            </Position>
            <AltitudeMeters>826</AltitudeMeters>
            <DistanceMeters>17665.555372375</DistanceMeters>
          </Trackpoint>
          <Trackpoint>
            <Time>2020-03-07T13:28:15.000Z</Time>
            <Position>
              <LatitudeDegrees>40.65552421845495700836181640625</LatitudeDegrees>
              <LongitudeDegrees>-3.7452370114624500274658203125</LongitudeDegrees>
            </Position>
            <AltitudeMeters>826</AltitudeMeters>
            <DistanceMeters>17671.735762602</DistanceMeters>
          </Trackpoint>
          <Trackpoint>
            <Time>2020-03-07T13:28:16.000Z</Time>
            <Position>
              <LatitudeDegrees>40.655557326972484588623046875</LatitudeDegrees>
              <LongitudeDegrees>-3.7452960200607776641845703125</LongitudeDegrees>
            </Position>
            <AltitudeMeters>826.20001220703125</AltitudeMeters>
            <DistanceMeters>17677.93293253</DistanceMeters>
          </Trackpoint>
          <Trackpoint>
            <Time>2020-03-07T13:28:17.000Z</Time>
            <Position>
              <LatitudeDegrees>40.65559026785194873809814453125</LatitudeDegrees>
              <LongitudeDegrees>-3.745353855192661285400390625</LongitudeDegrees>
            </Position>
            <AltitudeMeters>826.4000244140625</AltitudeMeters>
            <DistanceMeters>17684.039831556</DistanceMeters>
          </Trackpoint>
          <Trackpoint>
            <Time>2020-03-07T13:28:18.000Z</Time>
            <Position>
              <LatitudeDegrees>40.6556228734552860260009765625</LatitudeDegrees>
              <LongitudeDegrees>-3.74541026540100574493408203125</LongitudeDegrees>
            </Position>
            <AltitudeMeters>826.5999755859375</AltitudeMeters>
            <DistanceMeters>17690.027268694</DistanceMeters>
          </Trackpoint>
          <Trackpoint>
            <Time>2020-03-07T13:28:19.000Z</Time>
            <Position>
              <LatitudeDegrees>40.65565447323024272918701171875</LatitudeDegrees>
              <LongitudeDegrees>-3.7454656697809696197509765625</LongitudeDegrees>
            </Position>
            <AltitudeMeters>826.79998779296875</AltitudeMeters>
            <DistanceMeters>17695.880482344</DistanceMeters>
          </Trackpoint>
          <Trackpoint>
            <Time>2020-03-07T13:28:20.000Z</Time>
            <Position>
              <LatitudeDegrees>40.65568548627197742462158203125</LatitudeDegrees>
              <LongitudeDegrees>-3.74552107416093349456787109375</LongitudeDegrees>
            </Position>
            <AltitudeMeters>827</AltitudeMeters>
            <DistanceMeters>17701.693445964</DistanceMeters>
          </Trackpoint>
          <Trackpoint>
            <Time>2020-03-07T13:28:21.000Z</Time>
            <Position>
              <LatitudeDegrees>40.6557154096662998199462890625</LatitudeDegrees>
              <LongitudeDegrees>-3.745575807988643646240234375</LongitudeDegrees>
            </Position>
            <AltitudeMeters>827</AltitudeMeters>
            <DistanceMeters>17707.389502904</DistanceMeters>
          </Trackpoint>
          <Trackpoint>
            <Time>2020-03-07T13:28:22.000Z</Time>
            <Position>
              <LatitudeDegrees>40.65574583597481250762939453125</LatitudeDegrees>
              <LongitudeDegrees>-3.7456269375979900360107421875</LongitudeDegrees>
            </Position>
            <AltitudeMeters>827</AltitudeMeters>
            <DistanceMeters>17712.876421426</DistanceMeters>
          </Trackpoint>
          <Trackpoint>
            <Time>2020-03-07T13:28:23.000Z</Time>
            <Position>
              <LatitudeDegrees>40.65577668137848377227783203125</LatitudeDegrees>
              <LongitudeDegrees>-3.7456767261028289794921875</LongitudeDegrees>
            </Position>
            <AltitudeMeters>827.4000244140625</AltitudeMeters>
            <DistanceMeters>17718.303769707</DistanceMeters>
          </Trackpoint>
          <Trackpoint>
            <Time>2020-03-07T13:28:24.000Z</Time>
            <Position>
              <LatitudeDegrees>40.65580517984926700592041015625</LatitudeDegrees>
              <LongitudeDegrees>-3.7457275204360485076904296875</LongitudeDegrees>
            </Position>
            <AltitudeMeters>827.5999755859375</AltitudeMeters>
            <DistanceMeters>17723.638823685</DistanceMeters>
          </Trackpoint>
          <Trackpoint>
            <Time>2020-03-07T13:28:25.000Z</Time>
            <Position>
              <LatitudeDegrees>40.65583250485360622406005859375</LatitudeDegrees>
              <LongitudeDegrees>-3.74577923677861690521240234375</LongitudeDegrees>
            </Position>
            <AltitudeMeters>828</AltitudeMeters>
            <DistanceMeters>17728.96031969</DistanceMeters>
          </Trackpoint>
          <Trackpoint>
            <Time>2020-03-07T13:28:26.000Z</Time>
            <Position>
              <LatitudeDegrees>40.65586083568632602691650390625</LatitudeDegrees>
              <LongitudeDegrees>-3.74582919292151927947998046875</LongitudeDegrees>
            </Position>
            <AltitudeMeters>828.4000244140625</AltitudeMeters>
            <DistanceMeters>17734.227234806</DistanceMeters>
          </Trackpoint>
          <Trackpoint>
            <Time>2020-03-07T13:28:27.000Z</Time>
            <Position>
              <LatitudeDegrees>40.65588916651904582977294921875</LatitudeDegrees>
              <LongitudeDegrees>-3.74587797559797763824462890625</LongitudeDegrees>
            </Position>
            <AltitudeMeters>828.5999755859375</AltitudeMeters>
            <DistanceMeters>17739.414683871</DistanceMeters>
          </Trackpoint>
          <Trackpoint>
            <Time>2020-03-07T13:28:28.000Z</Time>
            <Position>
              <LatitudeDegrees>40.65591699443757534027099609375</LatitudeDegrees>
              <LongitudeDegrees>-3.7459273450076580047607421875</LongitudeDegrees>
            </Position>
            <AltitudeMeters>828.79998779296875</AltitudeMeters>
            <DistanceMeters>17744.609091288</DistanceMeters>
          </Trackpoint>
          <Trackpoint>
            <Time>2020-03-07T13:28:29.000Z</Time>
            <Position>
              <LatitudeDegrees>40.65594297833740711212158203125</LatitudeDegrees>
              <LongitudeDegrees>-3.74597654677927494049072265625</LongitudeDegrees>
            </Position>
            <AltitudeMeters>829</AltitudeMeters>
            <DistanceMeters>17749.670546303</DistanceMeters>
          </Trackpoint>
          <Trackpoint>
            <Time>2020-03-07T13:28:30.000Z</Time>
            <Position>
              <LatitudeDegrees>40.65596946515142917633056640625</LatitudeDegrees>
              <LongitudeDegrees>-3.74602331779897212982177734375</LongitudeDegrees>
            </Position>
            <AltitudeMeters>829.4000244140625</AltitudeMeters>
            <DistanceMeters>17754.599126792</DistanceMeters>
          </Trackpoint>
          <Trackpoint>
            <Time>2020-03-07T13:28:31.000Z</Time>
            <Position>
              <LatitudeDegrees>40.65599896945059299468994140625</LatitudeDegrees>
              <LongitudeDegrees>-3.746066987514495849609375</LongitudeDegrees>
            </Position>
            <AltitudeMeters>829.5999755859375</AltitudeMeters>
            <DistanceMeters>17759.536859713</DistanceMeters>
          </Trackpoint>
          <Trackpoint>
            <Time>2020-03-07T13:28:32.000Z</Time>
            <Position>
              <LatitudeDegrees>40.65602713264524936676025390625</LatitudeDegrees>
              <LongitudeDegrees>-3.74611283652484416961669921875</LongitudeDegrees>
            </Position>
            <AltitudeMeters>829.79998779296875</AltitudeMeters>
            <DistanceMeters>17764.518290237</DistanceMeters>
          </Trackpoint>
          <Trackpoint>
            <Time>2020-03-07T13:28:33.000Z</Time>
            <Position>
              <LatitudeDegrees>40.6560552120208740234375</LatitudeDegrees>
              <LongitudeDegrees>-3.74616086483001708984375</LongitudeDegrees>
            </Position>
            <AltitudeMeters>830</AltitudeMeters>
            <DistanceMeters>17769.638281635</DistanceMeters>
          </Trackpoint>
          <Trackpoint>
            <Time>2020-03-07T13:28:34.000Z</Time>
            <Position>
              <LatitudeDegrees>40.65608329139649868011474609375</LatitudeDegrees>
              <LongitudeDegrees>-3.74620939604938030242919921875</LongitudeDegrees>
            </Position>
            <AltitudeMeters>830.5999755859375</AltitudeMeters>
            <DistanceMeters>17774.792550244</DistanceMeters>
          </Trackpoint>
          <Trackpoint>
            <Time>2020-03-07T13:28:35.000Z</Time>
            <Position>
              <LatitudeDegrees>40.65611061640083789825439453125</LatitudeDegrees>
              <LongitudeDegrees>-3.74625734053552150726318359375</LongitudeDegrees>
            </Position>
            <AltitudeMeters>831</AltitudeMeters>
            <DistanceMeters>17779.856680683</DistanceMeters>
          </Trackpoint>
          <Trackpoint>
            <Time>2020-03-07T13:28:36.000Z</Time>
            <Position>
              <LatitudeDegrees>40.65613760612905025482177734375</LatitudeDegrees>
              <LongitudeDegrees>-3.74630478210747241973876953125</LongitudeDegrees>
            </Position>
            <AltitudeMeters>831.4000244140625</AltitudeMeters>
            <DistanceMeters>17784.863425355</DistanceMeters>
          </Trackpoint>
          <Trackpoint>
            <Time>2020-03-07T13:28:37.000Z</Time>
            <Position>
              <LatitudeDegrees>40.6561650149524211883544921875</LatitudeDegrees>
              <LongitudeDegrees>-3.746352307498455047607421875</LongitudeDegrees>
            </Position>
            <AltitudeMeters>831.5999755859375</AltitudeMeters>
            <DistanceMeters>17789.904321616</DistanceMeters>
          </Trackpoint>
          <Trackpoint>
            <Time>2020-03-07T13:28:38.000Z</Time>
            <Position>
              <LatitudeDegrees>40.6561918370425701141357421875</LatitudeDegrees>
              <LongitudeDegrees>-3.746399916708469390869140625</LongitudeDegrees>
            </Position>
            <AltitudeMeters>831.79998779296875</AltitudeMeters>
            <DistanceMeters>17794.911967998</DistanceMeters>
          </Trackpoint>
          <Trackpoint>
            <Time>2020-03-07T13:28:39.000Z</Time>
            <Position>
              <LatitudeDegrees>40.65621824003756046295166015625</LatitudeDegrees>
              <LongitudeDegrees>-3.7464470230042934417724609375</LongitudeDegrees>
            </Position>
            <AltitudeMeters>832.20001220703125</AltitudeMeters>
            <DistanceMeters>17799.857010668</DistanceMeters>
          </Trackpoint>
          <Trackpoint>
            <Time>2020-03-07T13:28:40.000Z</Time>
            <Position>
              <LatitudeDegrees>40.656245313584804534912109375</LatitudeDegrees>
              <LongitudeDegrees>-3.74649287201464176177978515625</LongitudeDegrees>
            </Position>
            <AltitudeMeters>832.20001220703125</AltitudeMeters>
            <DistanceMeters>17804.763555664</DistanceMeters>
          </Trackpoint>
          <Trackpoint>
            <Time>2020-03-07T13:28:41.000Z</Time>
            <Position>
              <LatitudeDegrees>40.65627356059849262237548828125</LatitudeDegrees>
              <LongitudeDegrees>-3.746537379920482635498046875</LongitudeDegrees>
            </Position>
            <AltitudeMeters>832.4000244140625</AltitudeMeters>
            <DistanceMeters>17809.662733471</DistanceMeters>
          </Trackpoint>
          <Trackpoint>
            <Time>2020-03-07T13:28:42.000Z</Time>
            <Position>
              <LatitudeDegrees>40.65630055032670497894287109375</LatitudeDegrees>
              <LongitudeDegrees>-3.7465831451117992401123046875</LongitudeDegrees>
            </Position>
            <AltitudeMeters>832.5999755859375</AltitudeMeters>
            <DistanceMeters>17814.556378609</DistanceMeters>
          </Trackpoint>
          <Trackpoint>
            <Time>2020-03-07T13:28:43.000Z</Time>
            <Position>
              <LatitudeDegrees>40.65632678568363189697265625</LatitudeDegrees>
              <LongitudeDegrees>-3.74662882648408412933349609375</LongitudeDegrees>
            </Position>
            <AltitudeMeters>833</AltitudeMeters>
            <DistanceMeters>17819.393415725</DistanceMeters>
          </Trackpoint>
          <Trackpoint>
            <Time>2020-03-07T13:28:44.000Z</Time>
            <Position>
              <LatitudeDegrees>40.65635268576443195343017578125</LatitudeDegrees>
              <LongitudeDegrees>-3.74667509458959102630615234375</LongitudeDegrees>
            </Position>
            <AltitudeMeters>833.4000244140625</AltitudeMeters>
            <DistanceMeters>17824.247225512</DistanceMeters>
          </Trackpoint>
          <Trackpoint>
            <Time>2020-03-07T13:28:45.000Z</Time>
            <Position>
              <LatitudeDegrees>40.65638042986392974853515625</LatitudeDegrees>
              <LongitudeDegrees>-3.74671968631446361541748046875</LongitudeDegrees>
            </Position>
            <AltitudeMeters>834</AltitudeMeters>
            <DistanceMeters>17829.116823107</DistanceMeters>
          </Trackpoint>
          <Trackpoint>
            <Time>2020-03-07T13:28:46.000Z</Time>
            <Position>
              <LatitudeDegrees>40.65640968270599842071533203125</LatitudeDegrees>
              <LongitudeDegrees>-3.7467648647725582122802734375</LongitudeDegrees>
            </Position>
            <AltitudeMeters>834.20001220703125</AltitudeMeters>
            <DistanceMeters>17834.130776918</DistanceMeters>
          </Trackpoint>
          <Trackpoint>
            <Time>2020-03-07T13:28:47.000Z</Time>
            <Position>
              <LatitudeDegrees>40.6564389355480670928955078125</LatitudeDegrees>
              <LongitudeDegrees>-3.7468121387064456939697265625</LongitudeDegrees>
            </Position>
            <AltitudeMeters>834.5999755859375</AltitudeMeters>
            <DistanceMeters>17839.283293269</DistanceMeters>
          </Trackpoint>
          <Trackpoint>
            <Time>2020-03-07T13:28:48.000Z</Time>
            <Position>
              <LatitudeDegrees>40.6564674340188503265380859375</LatitudeDegrees>
              <LongitudeDegrees>-3.7468610890209674835205078125</LongitudeDegrees>
            </Position>
            <AltitudeMeters>835</AltitudeMeters>
            <DistanceMeters>17844.493322999</DistanceMeters>
          </Trackpoint>
          <Trackpoint>
            <Time>2020-03-07T13:28:49.000Z</Time>
            <Position>
              <LatitudeDegrees>40.65649316646158695220947265625</LatitudeDegrees>
              <LongitudeDegrees>-3.74690861441195011138916015625</LongitudeDegrees>
            </Position>
            <AltitudeMeters>835.20001220703125</AltitudeMeters>
            <DistanceMeters>17849.423735334</DistanceMeters>
          </Trackpoint>
          <Trackpoint>
            <Time>2020-03-07T13:28:50.000Z</Time>
            <Position>
              <LatitudeDegrees>40.6565177254378795623779296875</LatitudeDegrees>
              <LongitudeDegrees>-3.74695337377488613128662109375</LongitudeDegrees>
            </Position>
            <AltitudeMeters>835.5999755859375</AltitudeMeters>
            <DistanceMeters>17854.088763118</DistanceMeters>
          </Trackpoint>
          <Trackpoint>
            <Time>2020-03-07T13:28:51.000Z</Time>
            <Position>
              <LatitudeDegrees>40.6565408594906330108642578125</LatitudeDegrees>
              <LongitudeDegrees>-3.7469965405762195587158203125</LongitudeDegrees>
            </Position>
            <AltitudeMeters>835.79998779296875</AltitudeMeters>
            <DistanceMeters>17858.549961218</DistanceMeters>
          </Trackpoint>
          <Trackpoint>
            <Time>2020-03-07T13:28:52.000Z</Time>
            <Position>
              <LatitudeDegrees>40.656564496457576751708984375</LatitudeDegrees>
              <LongitudeDegrees>-3.7470397911965847015380859375</LongitudeDegrees>
            </Position>
            <AltitudeMeters>836</AltitudeMeters>
            <DistanceMeters>17863.050456908</DistanceMeters>
          </Trackpoint>
          <Trackpoint>
            <Time>2020-03-07T13:28:53.000Z</Time>
            <Position>
              <LatitudeDegrees>40.65658955834805965423583984375</LatitudeDegrees>
              <LongitudeDegrees>-3.7470833770930767059326171875</LongitudeDegrees>
            </Position>
            <AltitudeMeters>836.4000244140625</AltitudeMeters>
            <DistanceMeters>17867.668794332</DistanceMeters>
          </Trackpoint>
          <Trackpoint>
            <Time>2020-03-07T13:28:54.000Z</Time>
            <Position>
              <LatitudeDegrees>40.65661638043820858001708984375</LatitudeDegrees>
              <LongitudeDegrees>-3.7471276335418224334716796875</LongitudeDegrees>
            </Position>
            <AltitudeMeters>836.79998779296875</AltitudeMeters>
            <DistanceMeters>17872.45044191</DistanceMeters>
          </Trackpoint>
          <Trackpoint>
            <Time>2020-03-07T13:28:55.000Z</Time>
            <Position>
              <LatitudeDegrees>40.656643621623516082763671875</LatitudeDegrees>
              <LongitudeDegrees>-3.7471739016473293304443359375</LongitudeDegrees>
            </Position>
            <AltitudeMeters>837</AltitudeMeters>
            <DistanceMeters>17877.39548458</DistanceMeters>
          </Trackpoint>
          <Trackpoint>
            <Time>2020-03-07T13:28:56.000Z</Time>
            <Position>
              <LatitudeDegrees>40.6566706113517284393310546875</LatitudeDegrees>
              <LongitudeDegrees>-3.7472243607044219970703125</LongitudeDegrees>
            </Position>
            <AltitudeMeters>837.4000244140625</AltitudeMeters>
            <DistanceMeters>17882.608113477</DistanceMeters>
          </Trackpoint>
          <Trackpoint>
            <Time>2020-03-07T13:28:57.000Z</Time>
            <Position>
              <LatitudeDegrees>40.65670087002217769622802734375</LatitudeDegrees>
              <LongitudeDegrees>-3.7472764961421489715576171875</LongitudeDegrees>
            </Position>
            <AltitudeMeters>837.5999755859375</AltitudeMeters>
            <DistanceMeters>17888.150704935</DistanceMeters>
          </Trackpoint>
          <Trackpoint>
            <Time>2020-03-07T13:28:58.000Z</Time>
            <Position>
              <LatitudeDegrees>40.6567324697971343994140625</LatitudeDegrees>
              <LongitudeDegrees>-3.7473318167030811309814453125</LongitudeDegrees>
            </Position>
            <AltitudeMeters>837.5999755859375</AltitudeMeters>
            <DistanceMeters>17893.997744306</DistanceMeters>
          </Trackpoint>
          <Trackpoint>
            <Time>2020-03-07T13:28:59.000Z</Time>
            <Position>
              <LatitudeDegrees>40.65676608122885227203369140625</LatitudeDegrees>
              <LongitudeDegrees>-3.7473901547491550445556640625</LongitudeDegrees>
            </Position>
            <AltitudeMeters>837.5999755859375</AltitudeMeters>
            <DistanceMeters>17900.183976113</DistanceMeters>
          </Trackpoint>
          <Trackpoint>
            <Time>2020-03-07T13:29:00.000Z</Time>
            <Position>
              <LatitudeDegrees>40.65680581144988536834716796875</LatitudeDegrees>
              <LongitudeDegrees>-3.74745142646133899688720703125</LongitudeDegrees>
            </Position>
            <AltitudeMeters>837.79998779296875</AltitudeMeters>
            <DistanceMeters>17906.990171244</DistanceMeters>
          </Trackpoint>
          <Trackpoint>
            <Time>2020-03-07T13:29:01.000Z</Time>
            <Position>
              <LatitudeDegrees>40.65685157664120197296142578125</LatitudeDegrees>
              <LongitudeDegrees>-3.74751764349639415740966796875</LongitudeDegrees>
            </Position>
            <AltitudeMeters>837.79998779296875</AltitudeMeters>
            <DistanceMeters>17914.553605271</DistanceMeters>
          </Trackpoint>
          <Trackpoint>
            <Time>2020-03-07T13:29:02.000Z</Time>
            <Position>
              <LatitudeDegrees>40.65690136514604091644287109375</LatitudeDegrees>
              <LongitudeDegrees>-3.7475886382162570953369140625</LongitudeDegrees>
            </Position>
            <AltitudeMeters>837.79998779296875</AltitudeMeters>
            <DistanceMeters>17922.717058226</DistanceMeters>
          </Trackpoint>
          <Trackpoint>
            <Time>2020-03-07T13:29:03.000Z</Time>
            <Position>
              <LatitudeDegrees>40.6569515727460384368896484375</LatitudeDegrees>
              <LongitudeDegrees>-3.74766432680189609527587890625</LongitudeDegrees>
            </Position>
            <AltitudeMeters>837.79998779296875</AltitudeMeters>
            <DistanceMeters>17931.206938683</DistanceMeters>
          </Trackpoint>
          <Trackpoint>
            <Time>2020-03-07T13:29:04.000Z</Time>
            <Position>
              <LatitudeDegrees>40.65699792467057704925537109375</LatitudeDegrees>
              <LongitudeDegrees>-3.74774881638586521148681640625</LongitudeDegrees>
            </Position>
            <AltitudeMeters>837.79998779296875</AltitudeMeters>
            <DistanceMeters>17940.010639389</DistanceMeters>
          </Trackpoint>
          <Trackpoint>
            <Time>2020-03-07T13:29:05.000Z</Time>
            <Position>
              <LatitudeDegrees>40.65704201348125934600830078125</LatitudeDegrees>
              <LongitudeDegrees>-3.74783766455948352813720703125</LongitudeDegrees>
            </Position>
            <AltitudeMeters>837.79998779296875</AltitudeMeters>
            <DistanceMeters>17948.975441693</DistanceMeters>
          </Trackpoint>
          <Trackpoint>
            <Time>2020-03-07T13:29:06.000Z</Time>
            <Position>
              <LatitudeDegrees>40.6570809893310070037841796875</LatitudeDegrees>
              <LongitudeDegrees>-3.74793271534144878387451171875</LongitudeDegrees>
            </Position>
            <AltitudeMeters>837.5999755859375</AltitudeMeters>
            <DistanceMeters>17958.098996081</DistanceMeters>
          </Trackpoint>
          <Trackpoint>
            <Time>2020-03-07T13:29:07.000Z</Time>
            <Position>
              <LatitudeDegrees>40.65710940398275852203369140625</LatitudeDegrees>
              <LongitudeDegrees>-3.7480338849127292633056640625</LongitudeDegrees>
            </Position>
            <AltitudeMeters>837.5999755859375</AltitudeMeters>
            <DistanceMeters>17967.20868337</DistanceMeters>
          </Trackpoint>
          <Trackpoint>
            <Time>2020-03-07T13:29:08.000Z</Time>
            <Position>
              <LatitudeDegrees>40.6571299396455287933349609375</LatitudeDegrees>
              <LongitudeDegrees>-3.7481331266462802886962890625</LongitudeDegrees>
            </Position>
            <AltitudeMeters>837.20001220703125</AltitudeMeters>
            <DistanceMeters>17975.895185472</DistanceMeters>
          </Trackpoint>
          <Trackpoint>
            <Time>2020-03-07T13:29:09.000Z</Time>
            <Position>
              <LatitudeDegrees>40.6571482121944427490234375</LatitudeDegrees>
              <LongitudeDegrees>-3.74823261983692646026611328125</LongitudeDegrees>
            </Position>
            <AltitudeMeters>836.79998779296875</AltitudeMeters>
            <DistanceMeters>17984.538960834</DistanceMeters>
          </Trackpoint>
          <Trackpoint>
            <Time>2020-03-07T13:29:10.000Z</Time>
            <Position>
              <LatitudeDegrees>40.65716120414435863494873046875</LatitudeDegrees>
              <LongitudeDegrees>-3.74832431785762310028076171875</LongitudeDegrees>
            </Position>
            <AltitudeMeters>836.20001220703125</AltitudeMeters>
            <DistanceMeters>17992.415294065</DistanceMeters>
          </Trackpoint>
          <Trackpoint>
            <Time>2020-03-07T13:29:11.000Z</Time>
            <Position>
              <LatitudeDegrees>40.65717562101781368255615234375</LatitudeDegrees>
              <LongitudeDegrees>-3.74840813688933849334716796875</LongitudeDegrees>
            </Position>
            <AltitudeMeters>835.5999755859375</AltitudeMeters>
            <DistanceMeters>17999.67224975</DistanceMeters>
          </Trackpoint>
          <Trackpoint>
            <Time>2020-03-07T13:29:12.000Z</Time>
            <Position>
              <LatitudeDegrees>40.65719179809093475341796875</LatitudeDegrees>
              <LongitudeDegrees>-3.748484663665294647216796875</LongitudeDegrees>
            </Position>
            <AltitudeMeters>835.4000244140625</AltitudeMeters>
            <DistanceMeters>18006.380893503</DistanceMeters>
          </Trackpoint>
          <Trackpoint>
            <Time>2020-03-07T13:29:13.000Z</Time>
            <Position>
              <LatitudeDegrees>40.65721367485821247100830078125</LatitudeDegrees>
              <LongitudeDegrees>-3.74855197034776210784912109375</LongitudeDegrees>
            </Position>
            <AltitudeMeters>835.20001220703125</AltitudeMeters>
            <DistanceMeters>18012.56420521</DistanceMeters>
          </Trackpoint>
          <Trackpoint>
            <Time>2020-03-07T13:29:14.000Z</Time>
            <Position>
              <LatitudeDegrees>40.65724502317607402801513671875</LatitudeDegrees>
              <LongitudeDegrees>-3.74860636889934539794921875</LongitudeDegrees>
            </Position>
            <AltitudeMeters>835.20001220703125</AltitudeMeters>
            <DistanceMeters>18018.332725964</DistanceMeters>
          </Trackpoint>
          <Trackpoint>
            <Time>2020-03-07T13:29:15.000Z</Time>
            <Position>
              <LatitudeDegrees>40.6572878547012805938720703125</LatitudeDegrees>
              <LongitudeDegrees>-3.7486405670642852783203125</LongitudeDegrees>
            </Position>
            <AltitudeMeters>835.20001220703125</AltitudeMeters>
            <DistanceMeters>18023.906186556</DistanceMeters>
          </Trackpoint>
          <Trackpoint>
            <Time>2020-03-07T13:29:16.000Z</Time>
            <Position>
              <LatitudeDegrees>40.65733890049159526824951171875</LatitudeDegrees>
              <LongitudeDegrees>-3.7486554868519306182861328125</LongitudeDegrees>
            </Position>
            <AltitudeMeters>835</AltitudeMeters>
            <DistanceMeters>18029.725360609</DistanceMeters>
          </Trackpoint>
          <Trackpoint>
            <Time>2020-03-07T13:29:17.000Z</Time>
            <Position>
              <LatitudeDegrees>40.65739220939576625823974609375</LatitudeDegrees>
              <LongitudeDegrees>-3.74866311438381671905517578125</LongitudeDegrees>
            </Position>
            <AltitudeMeters>835</AltitudeMeters>
            <DistanceMeters>18035.693159324</DistanceMeters>
          </Trackpoint>
          <Trackpoint>
            <Time>2020-03-07T13:29:18.000Z</Time>
            <Position>
              <LatitudeDegrees>40.657447278499603271484375</LatitudeDegrees>
              <LongitudeDegrees>-3.7486715801060199737548828125</LongitudeDegrees>
            </Position>
            <AltitudeMeters>835</AltitudeMeters>
            <DistanceMeters>18041.863313478</DistanceMeters>
          </Trackpoint>
          <Trackpoint>
            <Time>2020-03-07T13:29:19.000Z</Time>
            <Position>
              <LatitudeDegrees>40.65750301815569400787353515625</LatitudeDegrees>
              <LongitudeDegrees>-3.74868205748498439788818359375</LongitudeDegrees>
            </Position>
            <AltitudeMeters>835</AltitudeMeters>
            <DistanceMeters>18048.130035305</DistanceMeters>
          </Trackpoint>
          <Trackpoint>
            <Time>2020-03-07T13:29:20.000Z</Time>
            <Position>
              <LatitudeDegrees>40.65756018273532390594482421875</LatitudeDegrees>
              <LongitudeDegrees>-3.7486937083303928375244140625</LongitudeDegrees>
            </Position>
            <AltitudeMeters>835</AltitudeMeters>
            <DistanceMeters>18054.568051372</DistanceMeters>
          </Trackpoint>
          <Trackpoint>
            <Time>2020-03-07T13:29:21.000Z</Time>
            <Position>
              <LatitudeDegrees>40.6576184369623661041259765625</LatitudeDegrees>
              <LongitudeDegrees>-3.74870418570935726165771484375</LongitudeDegrees>
            </Position>
            <AltitudeMeters>835.4000244140625</AltitudeMeters>
            <DistanceMeters>18061.111798196</DistanceMeters>
          </Trackpoint>
          <Trackpoint>
            <Time>2020-03-07T13:29:22.000Z</Time>
            <Position>
              <LatitudeDegrees>40.65767987631261348724365234375</LatitudeDegrees>
              <LongitudeDegrees>-3.7487114779651165008544921875</LongitudeDegrees>
            </Position>
            <AltitudeMeters>835.79998779296875</AltitudeMeters>
            <DistanceMeters>18067.977437207</DistanceMeters>
          </Trackpoint>
          <Trackpoint>
            <Time>2020-03-07T13:29:23.000Z</Time>
            <Position>
              <LatitudeDegrees>40.6577455066144466400146484375</LatitudeDegrees>
              <LongitudeDegrees>-3.74871927313506603240966796875</LongitudeDegrees>
            </Position>
            <AltitudeMeters>836.4000244140625</AltitudeMeters>
            <DistanceMeters>18075.311751448</DistanceMeters>
          </Trackpoint>
          <Trackpoint>
            <Time>2020-03-07T13:29:24.000Z</Time>
            <Position>
              <LatitudeDegrees>40.65781432203948497772216796875</LatitudeDegrees>
              <LongitudeDegrees>-3.74873167835175991058349609375</LongitudeDegrees>
            </Position>
            <AltitudeMeters>836.5999755859375</AltitudeMeters>
            <DistanceMeters>18083.042278332</DistanceMeters>
          </Trackpoint>
          <Trackpoint>
            <Time>2020-03-07T13:29:25.000Z</Time>
            <Position>
              <LatitudeDegrees>40.6578866578638553619384765625</LatitudeDegrees>
              <LongitudeDegrees>-3.7487527169287204742431640625</LongitudeDegrees>
            </Position>
            <AltitudeMeters>836.79998779296875</AltitudeMeters>
            <DistanceMeters>18091.286085421</DistanceMeters>
          </Trackpoint>
          <Trackpoint>
            <Time>2020-03-07T13:29:26.000Z</Time>
            <Position>
              <LatitudeDegrees>40.65796368755400180816650390625</LatitudeDegrees>
              <LongitudeDegrees>-3.74877509661018848419189453125</LongitudeDegrees>
            </Position>
            <AltitudeMeters>837</AltitudeMeters>
            <DistanceMeters>18100.064620172</DistanceMeters>
          </Trackpoint>
          <Trackpoint>
            <Time>2020-03-07T13:29:27.000Z</Time>
            <Position>
              <LatitudeDegrees>40.65804851241409778594970703125</LatitudeDegrees>
              <LongitudeDegrees>-3.7487854063510894775390625</LongitudeDegrees>
            </Position>
            <AltitudeMeters>837</AltitudeMeters>
            <DistanceMeters>18109.54588649</DistanceMeters>
          </Trackpoint>
          <Trackpoint>
            <Time>2020-03-07T13:29:28.000Z</Time>
            <Position>
              <LatitudeDegrees>40.65813819877803325653076171875</LatitudeDegrees>
              <LongitudeDegrees>-3.74878096394240856170654296875</LongitudeDegrees>
            </Position>
            <AltitudeMeters>837</AltitudeMeters>
            <DistanceMeters>18119.535901748</DistanceMeters>
          </Trackpoint>
          <Trackpoint>
            <Time>2020-03-07T13:29:29.000Z</Time>
            <Position>
              <LatitudeDegrees>40.6582291424274444580078125</LatitudeDegrees>
              <LongitudeDegrees>-3.7487691454589366912841796875</LongitudeDegrees>
            </Position>
            <AltitudeMeters>837</AltitudeMeters>
            <DistanceMeters>18129.706868061</DistanceMeters>
          </Trackpoint>
          <Trackpoint>
            <Time>2020-03-07T13:29:30.000Z</Time>
            <Position>
              <LatitudeDegrees>40.6583176553249359130859375</LatitudeDegrees>
              <LongitudeDegrees>-3.74876302666962146759033203125</LongitudeDegrees>
            </Position>
            <AltitudeMeters>837</AltitudeMeters>
            <DistanceMeters>18139.571812756</DistanceMeters>
          </Trackpoint>
          <Trackpoint>
            <Time>2020-03-07T13:29:31.000Z</Time>
            <Position>
              <LatitudeDegrees>40.6584076769649982452392578125</LatitudeDegrees>
              <LongitudeDegrees>-3.74876218847930431365966796875</LongitudeDegrees>
            </Position>
            <AltitudeMeters>837</AltitudeMeters>
            <DistanceMeters>18149.59161265</DistanceMeters>
          </Trackpoint>
          <Trackpoint>
            <Time>2020-03-07T13:29:32.000Z</Time>
            <Position>
              <LatitudeDegrees>40.65849007107317447662353515625</LatitudeDegrees>
              <LongitudeDegrees>-3.748781383037567138671875</LongitudeDegrees>
            </Position>
            <AltitudeMeters>836.79998779296875</AltitudeMeters>
            <DistanceMeters>18158.904230658</DistanceMeters>
          </Trackpoint>
          <Trackpoint>
            <Time>2020-03-07T13:29:33.000Z</Time>
            <Position>
              <LatitudeDegrees>40.6585657596588134765625</LatitudeDegrees>
              <LongitudeDegrees>-3.74881382100284099578857421875</LongitudeDegrees>
            </Position>
            <AltitudeMeters>836.20001220703125</AltitudeMeters>
            <DistanceMeters>18167.762637078</DistanceMeters>
          </Trackpoint>
          <Trackpoint>
            <Time>2020-03-07T13:29:34.000Z</Time>
            <Position>
              <LatitudeDegrees>40.6586396880447864532470703125</LatitudeDegrees>
              <LongitudeDegrees>-3.74885221011936664581298828125</LongitudeDegrees>
            </Position>
            <AltitudeMeters>835.20001220703125</AltitudeMeters>
            <DistanceMeters>18176.606250145</DistanceMeters>
          </Trackpoint>
          <Trackpoint>
            <Time>2020-03-07T13:29:35.000Z</Time>
            <Position>
              <LatitudeDegrees>40.65871219150722026824951171875</LatitudeDegrees>
              <LongitudeDegrees>-3.74889177270233631134033203125</LongitudeDegrees>
            </Position>
            <AltitudeMeters>834.5999755859375</AltitudeMeters>
            <DistanceMeters>18185.340440766</DistanceMeters>
          </Trackpoint>
          <Trackpoint>
            <Time>2020-03-07T13:29:36.000Z</Time>
            <Position>
              <LatitudeDegrees>40.65878461115062236785888671875</LatitudeDegrees>
              <LongitudeDegrees>-3.74892714433372020721435546875</LongitudeDegrees>
            </Position>
            <AltitudeMeters>834.4000244140625</AltitudeMeters>
            <DistanceMeters>18193.936025997</DistanceMeters>
          </Trackpoint>
          <Trackpoint>
            <Time>2020-03-07T13:29:37.000Z</Time>
            <Position>
              <LatitudeDegrees>40.6588579528033733367919921875</LatitudeDegrees>
              <LongitudeDegrees>-3.74895430169999599456787109375</LongitudeDegrees>
            </Position>
            <AltitudeMeters>834.4000244140625</AltitudeMeters>
            <DistanceMeters>18202.4152635</DistanceMeters>
          </Trackpoint>
          <Trackpoint>
            <Time>2020-03-07T13:29:38.000Z</Time>
            <Position>
              <LatitudeDegrees>40.65893095917999744415283203125</LatitudeDegrees>
              <LongitudeDegrees>-3.74897383153438568115234375</LongitudeDegrees>
            </Position>
            <AltitudeMeters>834.20001220703125</AltitudeMeters>
            <DistanceMeters>18210.707127106</DistanceMeters>
          </Trackpoint>
          <Trackpoint>
            <Time>2020-03-07T13:29:39.000Z</Time>
            <Position>
              <LatitudeDegrees>40.65900153480470180511474609375</LatitudeDegrees>
              <LongitudeDegrees>-3.748992942273616790771484375</LongitudeDegrees>
            </Position>
            <AltitudeMeters>834.20001220703125</AltitudeMeters>
            <DistanceMeters>18218.726616144</DistanceMeters>
          </Trackpoint>
          <Trackpoint>
            <Time>2020-03-07T13:29:40.000Z</Time>
            <Position>
              <LatitudeDegrees>40.65907076932489871978759765625</LatitudeDegrees>
              <LongitudeDegrees>-3.749019764363765716552734375</LongitudeDegrees>
            </Position>
            <AltitudeMeters>834.20001220703125</AltitudeMeters>
            <DistanceMeters>18226.758481812</DistanceMeters>
          </Trackpoint>
          <Trackpoint>
            <Time>2020-03-07T13:29:41.000Z</Time>
            <Position>
              <LatitudeDegrees>40.659136734902858734130859375</LatitudeDegrees>
              <LongitudeDegrees>-3.749054968357086181640625</LongitudeDegrees>
            </Position>
            <AltitudeMeters>834.20001220703125</AltitudeMeters>
            <DistanceMeters>18234.679971647</DistanceMeters>
          </Trackpoint>
          <Trackpoint>
            <Time>2020-03-07T13:29:42.000Z</Time>
            <Position>
              <LatitudeDegrees>40.65919800661504268646240234375</LatitudeDegrees>
              <LongitudeDegrees>-3.7490992248058319091796875</LongitudeDegrees>
            </Position>
            <AltitudeMeters>834.20001220703125</AltitudeMeters>
            <DistanceMeters>18242.456501847</DistanceMeters>
          </Trackpoint>
          <Trackpoint>
            <Time>2020-03-07T13:29:43.000Z</Time>
            <Position>
              <LatitudeDegrees>40.659256093204021453857421875</LatitudeDegrees>
              <LongitudeDegrees>-3.7491490133106708526611328125</LongitudeDegrees>
            </Position>
            <AltitudeMeters>834.20001220703125</AltitudeMeters>
            <DistanceMeters>18250.168316384</DistanceMeters>
          </Trackpoint>
          <Trackpoint>
            <Time>2020-03-07T13:29:44.000Z</Time>
            <Position>
              <LatitudeDegrees>40.65931417979300022125244140625</LatitudeDegrees>
              <LongitudeDegrees>-3.7491984665393829345703125</LongitudeDegrees>
            </Position>
            <AltitudeMeters>834.20001220703125</AltitudeMeters>
            <DistanceMeters>18257.864893641</DistanceMeters>
          </Trackpoint>
          <Trackpoint>
            <Time>2020-03-07T13:29:45.000Z</Time>
            <Position>
              <LatitudeDegrees>40.6593712605535984039306640625</LatitudeDegrees>
              <LongitudeDegrees>-3.74924666248261928558349609375</LongitudeDegrees>
            </Position>
            <AltitudeMeters>834.4000244140625</AltitudeMeters>
            <DistanceMeters>18265.409799333</DistanceMeters>
          </Trackpoint>
          <Trackpoint>
            <Time>2020-03-07T13:29:46.000Z</Time>
            <Position>
              <LatitudeDegrees>40.6594306044280529022216796875</LatitudeDegrees>
              <LongitudeDegrees>-3.749289326369762420654296875</LongitudeDegrees>
            </Position>
            <AltitudeMeters>834.79998779296875</AltitudeMeters>
            <DistanceMeters>18272.934331166</DistanceMeters>
          </Trackpoint>
          <Trackpoint>
            <Time>2020-03-07T13:29:47.000Z</Time>
            <Position>
              <LatitudeDegrees>40.65949137322604656219482421875</LatitudeDegrees>
              <LongitudeDegrees>-3.74932377599179744720458984375</LongitudeDegrees>
            </Position>
            <AltitudeMeters>835.4000244140625</AltitudeMeters>
            <DistanceMeters>18280.297521981</DistanceMeters>
          </Trackpoint>
          <Trackpoint>
            <Time>2020-03-07T13:29:48.000Z</Time>
            <Position>
              <LatitudeDegrees>40.65955214202404022216796875</LatitudeDegrees>
              <LongitudeDegrees>-3.7493521906435489654541015625</LongitudeDegrees>
            </Position>
            <AltitudeMeters>835.4000244140625</AltitudeMeters>
            <DistanceMeters>18287.474398463</DistanceMeters>
          </Trackpoint>
          <Trackpoint>
            <Time>2020-03-07T13:29:49.000Z</Time>
            <Position>
              <LatitudeDegrees>40.659610815346240997314453125</LatitudeDegrees>
              <LongitudeDegrees>-3.7493729777634143829345703125</LongitudeDegrees>
            </Position>
            <AltitudeMeters>835.4000244140625</AltitudeMeters>
            <DistanceMeters>18294.236669317</DistanceMeters>
          </Trackpoint>
          <Trackpoint>
            <Time>2020-03-07T13:29:50.000Z</Time>
            <Position>
              <LatitudeDegrees>40.659668482840061187744140625</LatitudeDegrees>
              <LongitudeDegrees>-3.7493900768458843231201171875</LongitudeDegrees>
            </Position>
            <AltitudeMeters>835.5999755859375</AltitudeMeters>
            <DistanceMeters>18300.816197148</DistanceMeters>
          </Trackpoint>
          <Trackpoint>
            <Time>2020-03-07T13:29:51.000Z</Time>
            <Position>
              <LatitudeDegrees>40.65972506068646907806396484375</LatitudeDegrees>
              <LongitudeDegrees>-3.7494011409580707550048828125</LongitudeDegrees>
            </Position>
            <AltitudeMeters>835.5999755859375</AltitudeMeters>
            <DistanceMeters>18307.182277816</DistanceMeters>
          </Trackpoint>
          <Trackpoint>
            <Time>2020-03-07T13:29:52.000Z</Time>
            <Position>
              <LatitudeDegrees>40.65978306345641613006591796875</LatitudeDegrees>
              <LongitudeDegrees>-3.74940407462418079376220703125</LongitudeDegrees>
            </Position>
            <AltitudeMeters>835.79998779296875</AltitudeMeters>
            <DistanceMeters>18313.642696791</DistanceMeters>
          </Trackpoint>
          <Trackpoint>
            <Time>2020-03-07T13:29:53.000Z</Time>
            <Position>
              <LatitudeDegrees>40.6598423235118389129638671875</LatitudeDegrees>
              <LongitudeDegrees>-3.749398626387119293212890625</LongitudeDegrees>
            </Position>
            <AltitudeMeters>836</AltitudeMeters>
            <DistanceMeters>18320.255081394</DistanceMeters>
          </Trackpoint>
          <Trackpoint>
            <Time>2020-03-07T13:29:54.000Z</Time>
            <Position>
              <LatitudeDegrees>40.65989940427243709564208984375</LatitudeDegrees>
              <LongitudeDegrees>-3.7493889033794403076171875</LongitudeDegrees>
            </Position>
            <AltitudeMeters>836.20001220703125</AltitudeMeters>
            <DistanceMeters>18326.661460827</DistanceMeters>
          </Trackpoint>
          <Trackpoint>
            <Time>2020-03-07T13:29:55.000Z</Time>
            <Position>
              <LatitudeDegrees>40.6599553115665912628173828125</LatitudeDegrees>
              <LongitudeDegrees>-3.749382533133029937744140625</LongitudeDegrees>
            </Position>
            <AltitudeMeters>836.4000244140625</AltitudeMeters>
            <DistanceMeters>18332.90725383</DistanceMeters>
          </Trackpoint>
          <Trackpoint>
            <Time>2020-03-07T13:29:56.000Z</Time>
            <Position>
              <LatitudeDegrees>40.66001088358461856842041015625</LatitudeDegrees>
              <LongitudeDegrees>-3.7493813596665859222412109375</LongitudeDegrees>
            </Position>
            <AltitudeMeters>837.20001220703125</AltitudeMeters>
            <DistanceMeters>18339.092755741</DistanceMeters>
          </Trackpoint>
          <Trackpoint>
            <Time>2020-03-07T13:29:57.000Z</Time>
            <Position>
              <LatitudeDegrees>40.66006637178361415863037109375</LatitudeDegrees>
              <LongitudeDegrees>-3.749381862580776214599609375</LongitudeDegrees>
            </Position>
            <AltitudeMeters>837.5999755859375</AltitudeMeters>
            <DistanceMeters>18345.268030053</DistanceMeters>
          </Trackpoint>
          <Trackpoint>
            <Time>2020-03-07T13:29:58.000Z</Time>
            <Position>
              <LatitudeDegrees>40.6601200997829437255859375</LatitudeDegrees>
              <LongitudeDegrees>-3.7493860535323619842529296875</LongitudeDegrees>
            </Position>
            <AltitudeMeters>838</AltitudeMeters>
            <DistanceMeters>18351.258482773</DistanceMeters>
          </Trackpoint>
          <Trackpoint>
            <Time>2020-03-07T13:29:59.000Z</Time>
            <Position>
              <LatitudeDegrees>40.6601715646684169769287109375</LatitudeDegrees>
              <LongitudeDegrees>-3.74939493834972381591796875</LongitudeDegrees>
            </Position>
            <AltitudeMeters>838.5999755859375</AltitudeMeters>
            <DistanceMeters>18357.035606844</DistanceMeters>
          </Trackpoint>
          <Trackpoint>
            <Time>2020-03-07T13:30:00.000Z</Time>
            <Position>
              <LatitudeDegrees>40.66022009588778018951416015625</LatitudeDegrees>
              <LongitudeDegrees>-3.74941094778478145599365234375</LongitudeDegrees>
            </Position>
            <AltitudeMeters>839.4000244140625</AltitudeMeters>
            <DistanceMeters>18362.605826109</DistanceMeters>
          </Trackpoint>
          <Trackpoint>
            <Time>2020-03-07T13:30:01.000Z</Time>
            <Position>
              <LatitudeDegrees>40.66026820801198482513427734375</LatitudeDegrees>
              <LongitudeDegrees>-3.749434836208820343017578125</LongitudeDegrees>
            </Position>
            <AltitudeMeters>840</AltitudeMeters>
            <DistanceMeters>18368.327981052</DistanceMeters>
          </Trackpoint>
          <Trackpoint>
            <Time>2020-03-07T13:30:02.000Z</Time>
            <Position>
              <LatitudeDegrees>40.66031246446073055267333984375</LatitudeDegrees>
              <LongitudeDegrees>-3.7494621612131595611572265625</LongitudeDegrees>
            </Position>
            <AltitudeMeters>840.4000244140625</AltitudeMeters>
            <DistanceMeters>18373.766963533</DistanceMeters>
          </Trackpoint>
          <Trackpoint>
            <Time>2020-03-07T13:30:03.000Z</Time>
            <Position>
              <LatitudeDegrees>40.66035144031047821044921875</LatitudeDegrees>
              <LongitudeDegrees>-3.74948856420814990997314453125</LongitudeDegrees>
            </Position>
            <AltitudeMeters>841</AltitudeMeters>
            <DistanceMeters>18378.643973001</DistanceMeters>
          </Trackpoint>
          <Trackpoint>
            <Time>2020-03-07T13:30:04.000Z</Time>
            <Position>
              <LatitudeDegrees>40.66038723103702068328857421875</LatitudeDegrees>
              <LongitudeDegrees>-3.7495174817740917205810546875</LongitudeDegrees>
            </Position>
            <AltitudeMeters>841.4000244140625</AltitudeMeters>
            <DistanceMeters>18383.314804264</DistanceMeters>
          </Trackpoint>
          <Trackpoint>
            <Time>2020-03-07T13:30:05.000Z</Time>
            <Position>
              <LatitudeDegrees>40.66042159684002399444580078125</LatitudeDegrees>
              <LongitudeDegrees>-3.749549500644207000732421875</LongitudeDegrees>
            </Position>
            <AltitudeMeters>841.79998779296875</AltitudeMeters>
            <DistanceMeters>18387.997220906</DistanceMeters>
          </Trackpoint>
          <Trackpoint>
            <Time>2020-03-07T13:30:06.000Z</Time>
            <Position>
              <LatitudeDegrees>40.6604565493762493133544921875</LatitudeDegrees>
              <LongitudeDegrees>-3.74958537518978118896484375</LongitudeDegrees>
            </Position>
            <AltitudeMeters>842</AltitudeMeters>
            <DistanceMeters>18392.92763324</DistanceMeters>
          </Trackpoint>
          <Trackpoint>
            <Time>2020-03-07T13:30:07.000Z</Time>
            <Position>
              <LatitudeDegrees>40.6604927591979503631591796875</LatitudeDegrees>
              <LongitudeDegrees>-3.749624602496623992919921875</LongitudeDegrees>
            </Position>
            <AltitudeMeters>842.5999755859375</AltitudeMeters>
            <DistanceMeters>18398.144591205</DistanceMeters>
          </Trackpoint>
          <Trackpoint>
            <Time>2020-03-07T13:30:08.000Z</Time>
            <Position>
              <LatitudeDegrees>40.66053022630512714385986328125</LatitudeDegrees>
              <LongitudeDegrees>-3.7496643327176570892333984375</LongitudeDegrees>
            </Position>
            <AltitudeMeters>843</AltitudeMeters>
            <DistanceMeters>18403.496544351</DistanceMeters>
          </Trackpoint>
          <Trackpoint>
            <Time>2020-03-07T13:30:09.000Z</Time>
            <Position>
              <LatitudeDegrees>40.66056693904101848602294921875</LatitudeDegrees>
              <LongitudeDegrees>-3.74970632605254650115966796875</LongitudeDegrees>
            </Position>
            <AltitudeMeters>843.4000244140625</AltitudeMeters>
            <DistanceMeters>18408.906394419</DistanceMeters>
          </Trackpoint>
          <Trackpoint>
            <Time>2020-03-07T13:30:10.000Z</Time>
            <Position>
              <LatitudeDegrees>40.66060214303433895111083984375</LatitudeDegrees>
              <LongitudeDegrees>-3.749749995768070220947265625</LongitudeDegrees>
            </Position>
            <AltitudeMeters>844</AltitudeMeters>
            <DistanceMeters>18414.286115136</DistanceMeters>
          </Trackpoint>
          <Trackpoint>
            <Time>2020-03-07T13:30:11.000Z</Time>
            <Position>
              <LatitudeDegrees>40.660637430846691131591796875</LatitudeDegrees>
              <LongitudeDegrees>-3.74979592859745025634765625</LongitudeDegrees>
            </Position>
            <AltitudeMeters>844.4000244140625</AltitudeMeters>
            <DistanceMeters>18419.805850449</DistanceMeters>
          </Trackpoint>
          <Trackpoint>
            <Time>2020-03-07T13:30:12.000Z</Time>
            <Position>
              <LatitudeDegrees>40.66067238338291645050048828125</LatitudeDegrees>
              <LongitudeDegrees>-3.74984244816005229949951171875</LongitudeDegrees>
            </Position>
            <AltitudeMeters>844.79998779296875</AltitudeMeters>
            <DistanceMeters>18425.335392821</DistanceMeters>
          </Trackpoint>
          <Trackpoint>
            <Time>2020-03-07T13:30:13.000Z</Time>
            <Position>
              <LatitudeDegrees>40.66070842556655406951904296875</LatitudeDegrees>
              <LongitudeDegrees>-3.7498889677226543426513671875</LongitudeDegrees>
            </Position>
            <AltitudeMeters>845.20001220703125</AltitudeMeters>
            <DistanceMeters>18430.94921209</DistanceMeters>
          </Trackpoint>
          <Trackpoint>
            <Time>2020-03-07T13:30:14.000Z</Time>
            <Position>
              <LatitudeDegrees>40.6607455573976039886474609375</LatitudeDegrees>
              <LongitudeDegrees>-3.74993464909493923187255859375</LongitudeDegrees>
            </Position>
            <AltitudeMeters>845.5999755859375</AltitudeMeters>
            <DistanceMeters>18436.602303327</DistanceMeters>
          </Trackpoint>
          <Trackpoint>
            <Time>2020-03-07T13:30:15.000Z</Time>
            <Position>
              <LatitudeDegrees>40.6607824377715587615966796875</LatitudeDegrees>
              <LongitudeDegrees>-3.7499788217246532440185546875</LongitudeDegrees>
            </Position>
            <AltitudeMeters>845.79998779296875</AltitudeMeters>
            <DistanceMeters>18442.148152258</DistanceMeters>
          </Trackpoint>
          <Trackpoint>
            <Time>2020-03-07T13:30:16.000Z</Time>
            <Position>
              <LatitudeDegrees>40.6608199886977672576904296875</LatitudeDegrees>
              <LongitudeDegrees>-3.75002257525920867919921875</LongitudeDegrees>
            </Position>
            <AltitudeMeters>846</AltitudeMeters>
            <DistanceMeters>18447.726471309</DistanceMeters>
          </Trackpoint>
          <Trackpoint>
            <Time>2020-03-07T13:30:17.000Z</Time>
            <Position>
              <LatitudeDegrees>40.66085896454751491546630859375</LatitudeDegrees>
              <LongitudeDegrees>-3.75006473623216152191162109375</LongitudeDegrees>
            </Position>
            <AltitudeMeters>846.20001220703125</AltitudeMeters>
            <DistanceMeters>18453.338681803</DistanceMeters>
          </Trackpoint>
          <Trackpoint>
            <Time>2020-03-07T13:30:18.000Z</Time>
            <Position>
              <LatitudeDegrees>40.66089768894016742706298828125</LatitudeDegrees>
              <LongitudeDegrees>-3.75010245479643344879150390625</LongitudeDegrees>
            </Position>
            <AltitudeMeters>846.4000244140625</AltitudeMeters>
            <DistanceMeters>18458.697379695</DistanceMeters>
          </Trackpoint>
          <Trackpoint>
            <Time>2020-03-07T13:30:19.000Z</Time>
            <Position>
              <LatitudeDegrees>40.66093876026570796966552734375</LatitudeDegrees>
              <LongitudeDegrees>-3.7501343898475170135498046875</LongitudeDegrees>
            </Position>
            <AltitudeMeters>846.4000244140625</AltitudeMeters>
            <DistanceMeters>18464.003581571</DistanceMeters>
          </Trackpoint>
          <Trackpoint>
            <Time>2020-03-07T13:30:20.000Z</Time>
            <Position>
              <LatitudeDegrees>40.6609784066677093505859375</LatitudeDegrees>
              <LongitudeDegrees>-3.75017303042113780975341796875</LongitudeDegrees>
            </Position>
            <AltitudeMeters>846.4000244140625</AltitudeMeters>
            <DistanceMeters>18469.491322904</DistanceMeters>
          </Trackpoint>
          <Trackpoint>
            <Time>2020-03-07T13:30:21.000Z</Time>
            <Position>
              <LatitudeDegrees>40.6610159575939178466796875</LatitudeDegrees>
              <LongitudeDegrees>-3.7502178736031055450439453125</LongitudeDegrees>
            </Position>
            <AltitudeMeters>846.5999755859375</AltitudeMeters>
            <DistanceMeters>18475.130820155</DistanceMeters>
          </Trackpoint>
          <Trackpoint>
            <Time>2020-03-07T13:30:22.000Z</Time>
            <Position>
              <LatitudeDegrees>40.66105191595852375030517578125</LatitudeDegrees>
              <LongitudeDegrees>-3.75026791356503963470458984375</LongitudeDegrees>
            </Position>
            <AltitudeMeters>846.5999755859375</AltitudeMeters>
            <DistanceMeters>18480.950770046</DistanceMeters>
          </Trackpoint>
          <Trackpoint>
            <Time>2020-03-07T13:30:23.000Z</Time>
            <Position>
              <LatitudeDegrees>40.66108644939959049224853515625</LatitudeDegrees>
              <LongitudeDegrees>-3.75031837262213230133056640625</LongitudeDegrees>
            </Position>
            <AltitudeMeters>846.5999755859375</AltitudeMeters>
            <DistanceMeters>18486.688684189</DistanceMeters>
          </Trackpoint>
          <Trackpoint>
            <Time>2020-03-07T13:30:24.000Z</Time>
            <Position>
              <LatitudeDegrees>40.66112064756453037261962890625</LatitudeDegrees>
              <LongitudeDegrees>-3.75036849640309810638427734375</LongitudeDegrees>
            </Position>
            <AltitudeMeters>846.79998779296875</AltitudeMeters>
            <DistanceMeters>18492.381569605</DistanceMeters>
          </Trackpoint>
          <Trackpoint>
            <Time>2020-03-07T13:30:25.000Z</Time>
            <Position>
              <LatitudeDegrees>40.661154426634311676025390625</LatitudeDegrees>
              <LongitudeDegrees>-3.75041627325117588043212890625</LongitudeDegrees>
            </Position>
            <AltitudeMeters>847</AltitudeMeters>
            <DistanceMeters>18497.896394848</DistanceMeters>
          </Trackpoint>
          <Trackpoint>
            <Time>2020-03-07T13:30:26.000Z</Time>
            <Position>
              <LatitudeDegrees>40.66118828952312469482421875</LatitudeDegrees>
              <LongitudeDegrees>-3.75046287663280963897705078125</LongitudeDegrees>
            </Position>
            <AltitudeMeters>847.20001220703125</AltitudeMeters>
            <DistanceMeters>18503.34532973</DistanceMeters>
          </Trackpoint>
          <Trackpoint>
            <Time>2020-03-07T13:30:27.000Z</Time>
            <Position>
              <LatitudeDegrees>40.6612216494977474212646484375</LatitudeDegrees>
              <LongitudeDegrees>-3.7505078874528408050537109375</LongitudeDegrees>
            </Position>
            <AltitudeMeters>847.4000244140625</AltitudeMeters>
            <DistanceMeters>18508.658334432</DistanceMeters>
          </Trackpoint>
          <Trackpoint>
            <Time>2020-03-07T13:30:28.000Z</Time>
            <Position>
              <LatitudeDegrees>40.66125475801527500152587890625</LatitudeDegrees>
              <LongitudeDegrees>-3.750553317368030548095703125</LongitudeDegrees>
            </Position>
            <AltitudeMeters>847.5999755859375</AltitudeMeters>
            <DistanceMeters>18513.97728447</DistanceMeters>
          </Trackpoint>
          <Trackpoint>
            <Time>2020-03-07T13:30:29.000Z</Time>
            <Position>
              <LatitudeDegrees>40.66128929145634174346923828125</LatitudeDegrees>
              <LongitudeDegrees>-3.75059715472161769866943359375</LongitudeDegrees>
            </Position>
            <AltitudeMeters>847.79998779296875</AltitudeMeters>
            <DistanceMeters>18519.312338448</DistanceMeters>
          </Trackpoint>
          <Trackpoint>
            <Time>2020-03-07T13:30:30.000Z</Time>
            <Position>
              <LatitudeDegrees>40.66132483072578907012939453125</LatitudeDegrees>
              <LongitudeDegrees>-3.7506373040378093719482421875</LongitudeDegrees>
            </Position>
            <AltitudeMeters>848</AltitudeMeters>
            <DistanceMeters>18524.52063468</DistanceMeters>
          </Trackpoint>
          <Trackpoint>
            <Time>2020-03-07T13:30:31.000Z</Time>
            <Position>
              <LatitudeDegrees>40.66136154346168041229248046875</LatitudeDegrees>
              <LongitudeDegrees>-3.75067326240241527557373046875</LongitudeDegrees>
            </Position>
            <AltitudeMeters>848.20001220703125</AltitudeMeters>
            <DistanceMeters>18529.611442022</DistanceMeters>
          </Trackpoint>
          <Trackpoint>
            <Time>2020-03-07T13:30:32.000Z</Time>
            <Position>
              <LatitudeDegrees>40.66139926202595233917236328125</LatitudeDegrees>
              <LongitudeDegrees>-3.7507057003676891326904296875</LongitudeDegrees>
            </Position>
            <AltitudeMeters>848.4000244140625</AltitudeMeters>
            <DistanceMeters>18534.624495258</DistanceMeters>
          </Trackpoint>
          <Trackpoint>
            <Time>2020-03-07T13:30:33.000Z</Time>
            <Position>
              <LatitudeDegrees>40.66143614239990711212158203125</LatitudeDegrees>
              <LongitudeDegrees>-3.7507388927042484283447265625</LongitudeDegrees>
            </Position>
            <AltitudeMeters>848.79998779296875</AltitudeMeters>
            <DistanceMeters>18539.594128954</DistanceMeters>
          </Trackpoint>
          <Trackpoint>
            <Time>2020-03-07T13:30:34.000Z</Time>
            <Position>
              <LatitudeDegrees>40.66147218458354473114013671875</LatitudeDegrees>
              <LongitudeDegrees>-3.75077225267887115478515625</LongitudeDegrees>
            </Position>
            <AltitudeMeters>849.4000244140625</AltitudeMeters>
            <DistanceMeters>18544.496991739</DistanceMeters>
          </Trackpoint>
          <Trackpoint>
            <Time>2020-03-07T13:30:35.000Z</Time>
            <Position>
              <LatitudeDegrees>40.66150889731943607330322265625</LatitudeDegrees>
              <LongitudeDegrees>-3.75080670230090618133544921875</LongitudeDegrees>
            </Position>
            <AltitudeMeters>849.5999755859375</AltitudeMeters>
            <DistanceMeters>18549.513646307</DistanceMeters>
          </Trackpoint>
          <Trackpoint>
            <Time>2020-03-07T13:30:36.000Z</Time>
            <Position>
              <LatitudeDegrees>40.6615470349788665771484375</LatitudeDegrees>
              <LongitudeDegrees>-3.7508414871990680694580078125</LongitudeDegrees>
            </Position>
            <AltitudeMeters>849.79998779296875</AltitudeMeters>
            <DistanceMeters>18554.675792719</DistanceMeters>
          </Trackpoint>
          <Trackpoint>
            <Time>2020-03-07T13:30:37.000Z</Time>
            <Position>
              <LatitudeDegrees>40.66158517263829708099365234375</LatitudeDegrees>
              <LongitudeDegrees>-3.7508775293827056884765625</LongitudeDegrees>
            </Position>
            <AltitudeMeters>850</AltitudeMeters>
            <DistanceMeters>18559.897940827</DistanceMeters>
          </Trackpoint>
          <Trackpoint>
            <Time>2020-03-07T13:30:38.000Z</Time>
            <Position>
              <LatitudeDegrees>40.6616239808499813079833984375</LatitudeDegrees>
              <LongitudeDegrees>-3.75091306865215301513671875</LongitudeDegrees>
            </Position>
            <AltitudeMeters>850.20001220703125</AltitudeMeters>
            <DistanceMeters>18565.157135076</DistanceMeters>
          </Trackpoint>
          <Trackpoint>
            <Time>2020-03-07T13:30:39.000Z</Time>
            <Position>
              <LatitudeDegrees>40.66166111268103122711181640625</LatitudeDegrees>
              <LongitudeDegrees>-3.750954307615756988525390625</LongitudeDegrees>
            </Position>
            <AltitudeMeters>850.5999755859375</AltitudeMeters>
            <DistanceMeters>18570.560304252</DistanceMeters>
          </Trackpoint>
          <Trackpoint>
            <Time>2020-03-07T13:30:40.000Z</Time>
            <Position>
              <LatitudeDegrees>40.66170059144496917724609375</LatitudeDegrees>
              <LongitudeDegrees>-3.75099278055131435394287109375</LongitudeDegrees>
            </Position>
            <AltitudeMeters>850.79998779296875</AltitudeMeters>
            <DistanceMeters>18576.024133745</DistanceMeters>
          </Trackpoint>
          <Trackpoint>
            <Time>2020-03-07T13:30:41.000Z</Time>
            <Position>
              <LatitudeDegrees>40.6617389805614948272705078125</LatitudeDegrees>
              <LongitudeDegrees>-3.75103251077234745025634765625</LongitudeDegrees>
            </Position>
            <AltitudeMeters>851.20001220703125</AltitudeMeters>
            <DistanceMeters>18581.456471162</DistanceMeters>
          </Trackpoint>
          <Trackpoint>
            <Time>2020-03-07T13:30:42.000Z</Time>
            <Position>
              <LatitudeDegrees>40.661778040230274200439453125</LatitudeDegrees>
              <LongitudeDegrees>-3.7510691396892070770263671875</LongitudeDegrees>
            </Position>
            <AltitudeMeters>851.4000244140625</AltitudeMeters>
            <DistanceMeters>18586.791525141</DistanceMeters>
          </Trackpoint>
          <Trackpoint>
            <Time>2020-03-07T13:30:43.000Z</Time>
            <Position>
              <LatitudeDegrees>40.66181835718452930450439453125</LatitudeDegrees>
              <LongitudeDegrees>-3.75110576860606670379638671875</LongitudeDegrees>
            </Position>
            <AltitudeMeters>851.79998779296875</AltitudeMeters>
            <DistanceMeters>18592.241288569</DistanceMeters>
          </Trackpoint>
          <Trackpoint>
            <Time>2020-03-07T13:30:44.000Z</Time>
            <Position>
              <LatitudeDegrees>40.66185909323394298553466796875</LatitudeDegrees>
              <LongitudeDegrees>-3.75114382244646549224853515625</LongitudeDegrees>
            </Position>
            <AltitudeMeters>852</AltitudeMeters>
            <DistanceMeters>18597.798523622</DistanceMeters>
          </Trackpoint>
          <Trackpoint>
            <Time>2020-03-07T13:30:45.000Z</Time>
            <Position>
              <LatitudeDegrees>40.6618999131023883819580078125</LatitudeDegrees>
              <LongitudeDegrees>-3.75118321739137172698974609375</LongitudeDegrees>
            </Position>
            <AltitudeMeters>852.20001220703125</AltitudeMeters>
            <DistanceMeters>18603.430009081</DistanceMeters>
          </Trackpoint>
          <Trackpoint>
            <Time>2020-03-07T13:30:46.000Z</Time>
            <Position>
              <LatitudeDegrees>40.6619431637227535247802734375</LatitudeDegrees>
              <LongitudeDegrees>-3.75121749937534332275390625</LongitudeDegrees>
            </Position>
            <AltitudeMeters>852.4000244140625</AltitudeMeters>
            <DistanceMeters>18609.047848271</DistanceMeters>
          </Trackpoint>
          <Trackpoint>
            <Time>2020-03-07T13:30:47.000Z</Time>
            <Position>
              <LatitudeDegrees>40.66198834218084812164306640625</LatitudeDegrees>
              <LongitudeDegrees>-3.7512471713125705718994140625</LongitudeDegrees>
            </Position>
            <AltitudeMeters>852.79998779296875</AltitudeMeters>
            <DistanceMeters>18614.665687462</DistanceMeters>
          </Trackpoint>
          <Trackpoint>
            <Time>2020-03-07T13:30:48.000Z</Time>
            <Position>
              <LatitudeDegrees>40.66203452646732330322265625</LatitudeDegrees>
              <LongitudeDegrees>-3.75127759762108325958251953125</LongitudeDegrees>
            </Position>
            <AltitudeMeters>853</AltitudeMeters>
            <DistanceMeters>18620.412250744</DistanceMeters>
          </Trackpoint>
          <Trackpoint>
            <Time>2020-03-07T13:30:49.000Z</Time>
            <Position>
              <LatitudeDegrees>40.66208221949636936187744140625</LatitudeDegrees>
              <LongitudeDegrees>-3.75130777247250080108642578125</LongitudeDegrees>
            </Position>
            <AltitudeMeters>853.20001220703125</AltitudeMeters>
            <DistanceMeters>18626.300074066</DistanceMeters>
          </Trackpoint>
          <Trackpoint>
            <Time>2020-03-07T13:30:50.000Z</Time>
            <Position>
              <LatitudeDegrees>40.66212932579219341278076171875</LatitudeDegrees>
              <LongitudeDegrees>-3.75133895315229892730712890625</LongitudeDegrees>
            </Position>
            <AltitudeMeters>853.4000244140625</AltitudeMeters>
            <DistanceMeters>18632.167156084</DistanceMeters>
          </Trackpoint>
          <Trackpoint>
            <Time>2020-03-07T13:30:51.000Z</Time>
            <Position>
              <LatitudeDegrees>40.66217358224093914031982421875</LatitudeDegrees>
              <LongitudeDegrees>-3.75137533061206340789794921875</LongitudeDegrees>
            </Position>
            <AltitudeMeters>853.79998779296875</AltitudeMeters>
            <DistanceMeters>18637.971569509</DistanceMeters>
          </Trackpoint>
          <Trackpoint>
            <Time>2020-03-07T13:30:52.000Z</Time>
            <Position>
              <LatitudeDegrees>40.6622170843183994293212890625</LatitudeDegrees>
              <LongitudeDegrees>-3.75141355209052562713623046875</LongitudeDegrees>
            </Position>
            <AltitudeMeters>854</AltitudeMeters>
            <DistanceMeters>18643.790743563</DistanceMeters>
          </Trackpoint>
          <Trackpoint>
            <Time>2020-03-07T13:30:53.000Z</Time>
            <Position>
              <LatitudeDegrees>40.66226159222424030303955078125</LatitudeDegrees>
              <LongitudeDegrees>-3.75145076774060726165771484375</LongitudeDegrees>
            </Position>
            <AltitudeMeters>854</AltitudeMeters>
            <DistanceMeters>18649.65628627</DistanceMeters>
          </Trackpoint>
          <Trackpoint>
            <Time>2020-03-07T13:30:54.000Z</Time>
            <Position>
              <LatitudeDegrees>40.662307441234588623046875</LatitudeDegrees>
              <LongitudeDegrees>-3.75148882158100605010986328125</LongitudeDegrees>
            </Position>
            <AltitudeMeters>854.20001220703125</AltitudeMeters>
            <DistanceMeters>18655.685804307</DistanceMeters>
          </Trackpoint>
          <Trackpoint>
            <Time>2020-03-07T13:30:55.000Z</Time>
            <Position>
              <LatitudeDegrees>40.662354715168476104736328125</LatitudeDegrees>
              <LongitudeDegrees>-3.75152503140270709991455078125</LongitudeDegrees>
            </Position>
            <AltitudeMeters>854.4000244140625</AltitudeMeters>
            <DistanceMeters>18661.771224876</DistanceMeters>
          </Trackpoint>
          <Trackpoint>
            <Time>2020-03-07T13:30:56.000Z</Time>
            <Position>
              <LatitudeDegrees>40.66240190528333187103271484375</LatitudeDegrees>
              <LongitudeDegrees>-3.75156207941472530364990234375</LongitudeDegrees>
            </Position>
            <AltitudeMeters>854.5999755859375</AltitudeMeters>
            <DistanceMeters>18667.884035713</DistanceMeters>
          </Trackpoint>
          <Trackpoint>
            <Time>2020-03-07T13:30:57.000Z</Time>
            <Position>
              <LatitudeDegrees>40.66244867630302906036376953125</LatitudeDegrees>
              <LongitudeDegrees>-3.7515998817980289459228515625</LongitudeDegrees>
            </Position>
            <AltitudeMeters>854.79998779296875</AltitudeMeters>
            <DistanceMeters>18673.989455892</DistanceMeters>
          </Trackpoint>
          <Trackpoint>
            <Time>2020-03-07T13:30:58.000Z</Time>
            <Position>
              <LatitudeDegrees>40.66249645315110683441162109375</LatitudeDegrees>
              <LongitudeDegrees>-3.75163600780069828033447265625</LongitudeDegrees>
            </Position>
            <AltitudeMeters>855</AltitudeMeters>
            <DistanceMeters>18680.119967955</DistanceMeters>
          </Trackpoint>
          <Trackpoint>
            <Time>2020-03-07T13:30:59.000Z</Time>
            <Position>
              <LatitudeDegrees>40.66254406236112117767333984375</LatitudeDegrees>
              <LongitudeDegrees>-3.75167288817465305328369140625</LongitudeDegrees>
            </Position>
            <AltitudeMeters>855.20001220703125</AltitudeMeters>
            <DistanceMeters>18686.265926771</DistanceMeters>
          </Trackpoint>
          <Trackpoint>
            <Time>2020-03-07T13:31:00.000Z</Time>
            <Position>
              <LatitudeDegrees>40.6625909171998500823974609375</LatitudeDegrees>
              <LongitudeDegrees>-3.7517125345766544342041015625</LongitudeDegrees>
            </Position>
            <AltitudeMeters>855.20001220703125</AltitudeMeters>
            <DistanceMeters>18692.462368091</DistanceMeters>
          </Trackpoint>
          <Trackpoint>
            <Time>2020-03-07T13:31:01.000Z</Time>
            <Position>
              <LatitudeDegrees>40.6626378558576107025146484375</LatitudeDegrees>
              <LongitudeDegrees>-3.751754276454448699951171875</LongitudeDegrees>
            </Position>
            <AltitudeMeters>855.20001220703125</AltitudeMeters>
            <DistanceMeters>18698.763577985</DistanceMeters>
          </Trackpoint>
          <Trackpoint>
            <Time>2020-03-07T13:31:02.000Z</Time>
            <Position>
              <LatitudeDegrees>40.66268772818148136138916015625</LatitudeDegrees>
              <LongitudeDegrees>-3.75179392285645008087158203125</LongitudeDegrees>
            </Position>
            <AltitudeMeters>855.4000244140625</AltitudeMeters>
            <DistanceMeters>18705.244929358</DistanceMeters>
          </Trackpoint>
          <Trackpoint>
            <Time>2020-03-07T13:31:03.000Z</Time>
            <Position>
              <LatitudeDegrees>40.66273869015276432037353515625</LatitudeDegrees>
              <LongitudeDegrees>-3.7518328987061977386474609375</LongitudeDegrees>
            </Position>
            <AltitudeMeters>855.4000244140625</AltitudeMeters>
            <DistanceMeters>18711.801772649</DistanceMeters>
          </Trackpoint>
          <Trackpoint>
            <Time>2020-03-07T13:31:04.000Z</Time>
            <Position>
              <LatitudeDegrees>40.66279015503823757171630859375</LatitudeDegrees>
              <LongitudeDegrees>-3.75187220983207225799560546875</LongitudeDegrees>
            </Position>
            <AltitudeMeters>855.5999755859375</AltitudeMeters>
            <DistanceMeters>18718.421663961</DistanceMeters>
          </Trackpoint>
          <Trackpoint>
            <Time>2020-03-07T13:31:05.000Z</Time>
            <Position>
              <LatitudeDegrees>40.66284212283790111541748046875</LatitudeDegrees>
              <LongitudeDegrees>-3.7519140355288982391357421875</LongitudeDegrees>
            </Position>
            <AltitudeMeters>855.79998779296875</AltitudeMeters>
            <DistanceMeters>18725.198607874</DistanceMeters>
          </Trackpoint>
          <Trackpoint>
            <Time>2020-03-07T13:31:06.000Z</Time>
            <Position>
              <LatitudeDegrees>40.66289409063756465911865234375</LatitudeDegrees>
              <LongitudeDegrees>-3.75195804052054882049560546875</LongitudeDegrees>
            </Position>
            <AltitudeMeters>856</AltitudeMeters>
            <DistanceMeters>18732.073447516</DistanceMeters>
          </Trackpoint>
          <Trackpoint>
            <Time>2020-03-07T13:31:07.000Z</Time>
            <Position>
              <LatitudeDegrees>40.6629459746181964874267578125</LatitudeDegrees>
              <LongitudeDegrees>-3.752003721892833709716796875</LongitudeDegrees>
            </Position>
            <AltitudeMeters>856</AltitudeMeters>
            <DistanceMeters>18739.017553521</DistanceMeters>
          </Trackpoint>
          <Trackpoint>
            <Time>2020-03-07T13:31:08.000Z</Time>
            <Position>
              <LatitudeDegrees>40.6629979424178600311279296875</LatitudeDegrees>
              <LongitudeDegrees>-3.752049319446086883544921875</LongitudeDegrees>
            </Position>
            <AltitudeMeters>856.20001220703125</AltitudeMeters>
            <DistanceMeters>18745.965559614</DistanceMeters>
          </Trackpoint>
          <Trackpoint>
            <Time>2020-03-07T13:31:09.000Z</Time>
            <Position>
              <LatitudeDegrees>40.663048736751079559326171875</LatitudeDegrees>
              <LongitudeDegrees>-3.75209634192287921905517578125</LongitudeDegrees>
            </Position>
            <AltitudeMeters>856.20001220703125</AltitudeMeters>
            <DistanceMeters>18752.873812216</DistanceMeters>
          </Trackpoint>
          <Trackpoint>
            <Time>2020-03-07T13:31:10.000Z</Time>
            <Position>
              <LatitudeDegrees>40.66309995017945766448974609375</LatitudeDegrees>
              <LongitudeDegrees>-3.7521421909332275390625</LongitudeDegrees>
            </Position>
            <AltitudeMeters>856.5999755859375</AltitudeMeters>
            <DistanceMeters>18759.764395786</DistanceMeters>
          </Trackpoint>
          <Trackpoint>
            <Time>2020-03-07T13:31:11.000Z</Time>
            <Position>
              <LatitudeDegrees>40.6631511636078357696533203125</LatitudeDegrees>
              <LongitudeDegrees>-3.75218686647713184356689453125</LongitudeDegrees>
            </Position>
            <AltitudeMeters>856.5999755859375</AltitudeMeters>
            <DistanceMeters>18766.599716958</DistanceMeters>
          </Trackpoint>
          <Trackpoint>
            <Time>2020-03-07T13:31:12.000Z</Time>
            <Position>
              <LatitudeDegrees>40.663201622664928436279296875</LatitudeDegrees>
              <LongitudeDegrees>-3.75223271548748016357421875</LongitudeDegrees>
            </Position>
            <AltitudeMeters>856.79998779296875</AltitudeMeters>
            <DistanceMeters>18773.420490656</DistanceMeters>
          </Trackpoint>
          <Trackpoint>
            <Time>2020-03-07T13:31:13.000Z</Time>
            <Position>
              <LatitudeDegrees>40.66325149498879909515380859375</LatitudeDegrees>
              <LongitudeDegrees>-3.75227873213589191436767578125</LongitudeDegrees>
            </Position>
            <AltitudeMeters>857</AltitudeMeters>
            <DistanceMeters>18780.196101967</DistanceMeters>
          </Trackpoint>
          <Trackpoint>
            <Time>2020-03-07T13:31:14.000Z</Time>
            <Position>
              <LatitudeDegrees>40.66330061294138431549072265625</LatitudeDegrees>
              <LongitudeDegrees>-3.75232466496527194976806640625</LongitudeDegrees>
            </Position>
            <AltitudeMeters>857</AltitudeMeters>
            <DistanceMeters>18786.89801216</DistanceMeters>
          </Trackpoint>
          <Trackpoint>
            <Time>2020-03-07T13:31:15.000Z</Time>
            <Position>
              <LatitudeDegrees>40.66335023380815982818603515625</LatitudeDegrees>
              <LongitudeDegrees>-3.75237093307077884674072265625</LongitudeDegrees>
            </Position>
            <AltitudeMeters>857.20001220703125</AltitudeMeters>
            <DistanceMeters>18793.662953211</DistanceMeters>
          </Trackpoint>
          <Trackpoint>
            <Time>2020-03-07T13:31:16.000Z</Time>
            <Position>
              <LatitudeDegrees>40.66339968703687191009521484375</LatitudeDegrees>
              <LongitudeDegrees>-3.7524182908236980438232421875</LongitudeDegrees>
            </Position>
            <AltitudeMeters>857.4000244140625</AltitudeMeters>
            <DistanceMeters>18800.465830674</DistanceMeters>
          </Trackpoint>
          <Trackpoint>
            <Time>2020-03-07T13:31:17.000Z</Time>
            <Position>
              <LatitudeDegrees>40.66344813443720340728759765625</LatitudeDegrees>
              <LongitudeDegrees>-3.75246665440499782562255859375</LongitudeDegrees>
            </Position>
            <AltitudeMeters>857.4000244140625</AltitudeMeters>
            <DistanceMeters>18807.228769176</DistanceMeters>
          </Trackpoint>
          <Trackpoint>
            <Time>2020-03-07T13:31:18.000Z</Time>
            <Position>
              <LatitudeDegrees>40.66349674947559833526611328125</LatitudeDegrees>
              <LongitudeDegrees>-3.75251443125307559967041015625</LongitudeDegrees>
            </Position>
            <AltitudeMeters>857.4000244140625</AltitudeMeters>
            <DistanceMeters>18813.977673205</DistanceMeters>
          </Trackpoint>
          <Trackpoint>
            <Time>2020-03-07T13:31:19.000Z</Time>
            <Position>
              <LatitudeDegrees>40.66354469396173954010009765625</LatitudeDegrees>
              <LongitudeDegrees>-3.752562291920185089111328125</LongitudeDegrees>
            </Position>
            <AltitudeMeters>857.5999755859375</AltitudeMeters>
            <DistanceMeters>18820.671494185</DistanceMeters>
          </Trackpoint>
          <Trackpoint>
            <Time>2020-03-07T13:31:20.000Z</Time>
            <Position>
              <LatitudeDegrees>40.66359146498143672943115234375</LatitudeDegrees>
              <LongitudeDegrees>-3.7526114098727703094482421875</LongitudeDegrees>
            </Position>
            <AltitudeMeters>858</AltitudeMeters>
            <DistanceMeters>18827.327435518</DistanceMeters>
          </Trackpoint>
          <Trackpoint>
            <Time>2020-03-07T13:31:21.000Z</Time>
            <Position>
              <LatitudeDegrees>40.6636379845440387725830078125</LatitudeDegrees>
              <LongitudeDegrees>-3.7526596896350383758544921875</LongitudeDegrees>
            </Position>
            <AltitudeMeters>858.20001220703125</AltitudeMeters>
            <DistanceMeters>18833.917248688</DistanceMeters>
          </Trackpoint>
          <Trackpoint>
            <Time>2020-03-07T13:31:22.000Z</Time>
            <Position>
              <LatitudeDegrees>40.66368416883051395416259765625</LatitudeDegrees>
              <LongitudeDegrees>-3.7527072988450527191162109375</LongitudeDegrees>
            </Position>
            <AltitudeMeters>858.4000244140625</AltitudeMeters>
            <DistanceMeters>18840.442339526</DistanceMeters>
          </Trackpoint>
          <Trackpoint>
            <Time>2020-03-07T13:31:23.000Z</Time>
            <Position>
              <LatitudeDegrees>40.6637295149266719818115234375</LatitudeDegrees>
              <LongitudeDegrees>-3.75275566242635250091552734375</LongitudeDegrees>
            </Position>
            <AltitudeMeters>858.4000244140625</AltitudeMeters>
            <DistanceMeters>18846.934827249</DistanceMeters>
          </Trackpoint>
          <Trackpoint>
            <Time>2020-03-07T13:31:24.000Z</Time>
            <Position>
              <LatitudeDegrees>40.663773603737354278564453125</LatitudeDegrees>
              <LongitudeDegrees>-3.7528058700263500213623046875</LongitudeDegrees>
            </Position>
            <AltitudeMeters>858.5999755859375</AltitudeMeters>
            <DistanceMeters>18853.418964503</DistanceMeters>
          </Trackpoint>
          <Trackpoint>
            <Time>2020-03-07T13:31:25.000Z</Time>
            <Position>
              <LatitudeDegrees>40.663815848529338836669921875</LatitudeDegrees>
              <LongitudeDegrees>-3.7528585083782672882080078125</LongitudeDegrees>
            </Position>
            <AltitudeMeters>858.5999755859375</AltitudeMeters>
            <DistanceMeters>18859.889160357</DistanceMeters>
          </Trackpoint>
          <Trackpoint>
            <Time>2020-03-07T13:31:26.000Z</Time>
            <Position>
              <LatitudeDegrees>40.66385666839778423309326171875</LatitudeDegrees>
              <LongitudeDegrees>-3.7529141642153263092041015625</LongitudeDegrees>
            </Position>
            <AltitudeMeters>858.79998779296875</AltitudeMeters>
            <DistanceMeters>18866.426003764</DistanceMeters>
          </Trackpoint>
          <Trackpoint>
            <Time>2020-03-07T13:31:27.000Z</Time>
            <Position>
              <LatitudeDegrees>40.66389572806656360626220703125</LatitudeDegrees>
              <LongitudeDegrees>-3.75297258608043193817138671875</LongitudeDegrees>
            </Position>
            <AltitudeMeters>859</AltitudeMeters>
            <DistanceMeters>18873.001412954</DistanceMeters>
          </Trackpoint>
          <Trackpoint>
            <Time>2020-03-07T13:31:28.000Z</Time>
            <Position>
              <LatitudeDegrees>40.66393218934535980224609375</LatitudeDegrees>
              <LongitudeDegrees>-3.75303528271615505218505859375</LongitudeDegrees>
            </Position>
            <AltitudeMeters>859.20001220703125</AltitudeMeters>
            <DistanceMeters>18879.671584364</DistanceMeters>
          </Trackpoint>
          <Trackpoint>
            <Time>2020-03-07T13:31:29.000Z</Time>
            <Position>
              <LatitudeDegrees>40.6639638729393482208251953125</LatitudeDegrees>
              <LongitudeDegrees>-3.7531035952270030975341796875</LongitudeDegrees>
            </Position>
            <AltitudeMeters>859.20001220703125</AltitudeMeters>
            <DistanceMeters>18886.432519726</DistanceMeters>
          </Trackpoint>
          <Trackpoint>
            <Time>2020-03-07T13:31:30.000Z</Time>
            <Position>
              <LatitudeDegrees>40.66399044357240200042724609375</LatitudeDegrees>
              <LongitudeDegrees>-3.75317685306072235107421875</LongitudeDegrees>
            </Position>
            <AltitudeMeters>859.20001220703125</AltitudeMeters>
            <DistanceMeters>18893.288287217</DistanceMeters>
          </Trackpoint>
          <Trackpoint>
            <Time>2020-03-07T13:31:31.000Z</Time>
            <Position>
              <LatitudeDegrees>40.66401307471096515655517578125</LatitudeDegrees>
              <LongitudeDegrees>-3.75325329601764678955078125</LongitudeDegrees>
            </Position>
            <AltitudeMeters>859.4000244140625</AltitudeMeters>
            <DistanceMeters>18900.216119222</DistanceMeters>
          </Trackpoint>
          <Trackpoint>
            <Time>2020-03-07T13:31:32.000Z</Time>
            <Position>
              <LatitudeDegrees>40.664030425250530242919921875</LatitudeDegrees>
              <LongitudeDegrees>-3.7533319182693958282470703125</LongitudeDegrees>
            </Position>
            <AltitudeMeters>859.4000244140625</AltitudeMeters>
            <DistanceMeters>18907.128945312</DistanceMeters>
          </Trackpoint>
          <Trackpoint>
            <Time>2020-03-07T13:31:33.000Z</Time>
            <Position>
              <LatitudeDegrees>40.6640436686575412750244140625</LatitudeDegrees>
              <LongitudeDegrees>-3.7534120492637157440185546875</LongitudeDegrees>
            </Position>
            <AltitudeMeters>859.4000244140625</AltitudeMeters>
            <DistanceMeters>18914.053517928</DistanceMeters>
          </Trackpoint>
          <Trackpoint>
            <Time>2020-03-07T13:31:34.000Z</Time>
            <Position>
              <LatitudeDegrees>40.66405129618942737579345703125</LatitudeDegrees>
              <LongitudeDegrees>-3.75349394045770168304443359375</LongitudeDegrees>
            </Position>
            <AltitudeMeters>859.4000244140625</AltitudeMeters>
            <DistanceMeters>18921.019695561</DistanceMeters>
          </Trackpoint>
          <Trackpoint>
            <Time>2020-03-07T13:31:35.000Z</Time>
            <Position>
              <LatitudeDegrees>40.66405364312231540679931640625</LatitudeDegrees>
              <LongitudeDegrees>-3.75357893295586109161376953125</LongitudeDegrees>
            </Position>
            <AltitudeMeters>859.4000244140625</AltitudeMeters>
            <DistanceMeters>18928.200345705</DistanceMeters>
          </Trackpoint>
          <Trackpoint>
            <Time>2020-03-07T13:31:36.000Z</Time>
            <Position>
              <LatitudeDegrees>40.6640540622174739837646484375</LatitudeDegrees>
              <LongitudeDegrees>-3.7536651827394962310791015625</LongitudeDegrees>
            </Position>
            <AltitudeMeters>859.4000244140625</AltitudeMeters>
            <DistanceMeters>18935.482765561</DistanceMeters>
          </Trackpoint>
          <Trackpoint>
            <Time>2020-03-07T13:31:37.000Z</Time>
            <Position>
              <LatitudeDegrees>40.6640527211129665374755859375</LatitudeDegrees>
              <LongitudeDegrees>-3.7537533603608608245849609375</LongitudeDegrees>
            </Position>
            <AltitudeMeters>859.4000244140625</AltitudeMeters>
            <DistanceMeters>18942.928883299</DistanceMeters>
          </Trackpoint>
          <Trackpoint>
            <Time>2020-03-07T13:31:38.000Z</Time>
            <Position>
              <LatitudeDegrees>40.6640510447323322296142578125</LatitudeDegrees>
              <LongitudeDegrees>-3.753843046724796295166015625</LongitudeDegrees>
            </Position>
            <AltitudeMeters>859.4000244140625</AltitudeMeters>
            <DistanceMeters>18950.503054913</DistanceMeters>
          </Trackpoint>
          <Trackpoint>
            <Time>2020-03-07T13:31:39.000Z</Time>
            <Position>
              <LatitudeDegrees>40.66405196674168109893798828125</LatitudeDegrees>
              <LongitudeDegrees>-3.75393197871744632720947265625</LongitudeDegrees>
            </Position>
            <AltitudeMeters>859.4000244140625</AltitudeMeters>
            <DistanceMeters>18958.011969436</DistanceMeters>
          </Trackpoint>
          <Trackpoint>
            <Time>2020-03-07T13:31:40.000Z</Time>
            <Position>
              <LatitudeDegrees>40.66405531950294971466064453125</LatitudeDegrees>
              <LongitudeDegrees>-3.75402174890041351318359375</LongitudeDegrees>
            </Position>
            <AltitudeMeters>859.4000244140625</AltitudeMeters>
            <DistanceMeters>18965.599839191</DistanceMeters>
          </Trackpoint>
          <Trackpoint>
            <Time>2020-03-07T13:31:41.000Z</Time>
            <Position>
              <LatitudeDegrees>40.66406118683516979217529296875</LatitudeDegrees>
              <LongitudeDegrees>-3.75411101616919040679931640625</LongitudeDegrees>
            </Position>
            <AltitudeMeters>859.20001220703125</AltitudeMeters>
            <DistanceMeters>18973.16387015</DistanceMeters>
          </Trackpoint>
          <Trackpoint>
            <Time>2020-03-07T13:31:42.000Z</Time>
            <Position>
              <LatitudeDegrees>40.6640728376805782318115234375</LatitudeDegrees>
              <LongitudeDegrees>-3.7541999481618404388427734375</LongitudeDegrees>
            </Position>
            <AltitudeMeters>859</AltitudeMeters>
            <DistanceMeters>18980.783211424</DistanceMeters>
          </Trackpoint>
          <Trackpoint>
            <Time>2020-03-07T13:31:43.000Z</Time>
            <Position>
              <LatitudeDegrees>40.66409387625753879547119140625</LatitudeDegrees>
              <LongitudeDegrees>-3.754286952316761016845703125</LongitudeDegrees>
            </Position>
            <AltitudeMeters>858.79998779296875</AltitudeMeters>
            <DistanceMeters>18988.492683725</DistanceMeters>
          </Trackpoint>
          <Trackpoint>
            <Time>2020-03-07T13:31:44.000Z</Time>
            <Position>
              <LatitudeDegrees>40.66412840969860553741455078125</LatitudeDegrees>
              <LongitudeDegrees>-3.7543649040162563323974609375</LongitudeDegrees>
            </Position>
            <AltitudeMeters>858.5999755859375</AltitudeMeters>
            <DistanceMeters>18996.113210059</DistanceMeters>
          </Trackpoint>
          <Trackpoint>
            <Time>2020-03-07T13:31:45.000Z</Time>
            <Position>
              <LatitudeDegrees>40.6641777791082859039306640625</LatitudeDegrees>
              <LongitudeDegrees>-3.75442483462393283843994140625</LongitudeDegrees>
            </Position>
            <AltitudeMeters>858.5999755859375</AltitudeMeters>
            <DistanceMeters>19003.582333988</DistanceMeters>
          </Trackpoint>
          <Trackpoint>
            <Time>2020-03-07T13:31:46.000Z</Time>
            <Position>
              <LatitudeDegrees>40.66423251293599605560302734375</LatitudeDegrees>
              <LongitudeDegrees>-3.7544721923768520355224609375</LongitudeDegrees>
            </Position>
            <AltitudeMeters>858.5999755859375</AltitudeMeters>
            <DistanceMeters>19010.869092492</DistanceMeters>
          </Trackpoint>
          <Trackpoint>
            <Time>2020-03-07T13:31:47.000Z</Time>
            <Position>
              <LatitudeDegrees>40.66428221762180328369140625</LatitudeDegrees>
              <LongitudeDegrees>-3.75451393425464630126953125</LongitudeDegrees>
            </Position>
            <AltitudeMeters>858.4000244140625</AltitudeMeters>
            <DistanceMeters>19017.428001256</DistanceMeters>
          </Trackpoint>
          <Trackpoint>
            <Time>2020-03-07T13:31:48.000Z</Time>
            <Position>
              <LatitudeDegrees>40.6643365323543548583984375</LatitudeDegrees>
              <LongitudeDegrees>-3.75452910549938678741455078125</LongitudeDegrees>
            </Position>
            <AltitudeMeters>858.4000244140625</AltitudeMeters>
            <DistanceMeters>19023.607660897</DistanceMeters>
          </Trackpoint>
          <Trackpoint>
            <Time>2020-03-07T13:31:49.000Z</Time>
            <Position>
              <LatitudeDegrees>40.6643957085907459259033203125</LatitudeDegrees>
              <LongitudeDegrees>-3.754534386098384857177734375</LongitudeDegrees>
            </Position>
            <AltitudeMeters>858.4000244140625</AltitudeMeters>
            <DistanceMeters>19030.209111414</DistanceMeters>
          </Trackpoint>
          <Trackpoint>
            <Time>2020-03-07T13:31:50.000Z</Time>
            <Position>
              <LatitudeDegrees>40.6644714809954166412353515625</LatitudeDegrees>
              <LongitudeDegrees>-3.7545100785791873931884765625</LongitudeDegrees>
            </Position>
            <AltitudeMeters>858.4000244140625</AltitudeMeters>
            <DistanceMeters>19038.889373959</DistanceMeters>
          </Trackpoint>
          <Trackpoint>
            <Time>2020-03-07T13:31:51.000Z</Time>
            <Position>
              <LatitudeDegrees>40.6645415537059307098388671875</LatitudeDegrees>
              <LongitudeDegrees>-3.7544772215187549591064453125</LongitudeDegrees>
            </Position>
            <AltitudeMeters>858.4000244140625</AltitudeMeters>
            <DistanceMeters>19047.167068085</DistanceMeters>
          </Trackpoint>
          <Trackpoint>
            <Time>2020-03-07T13:31:52.000Z</Time>
            <Position>
              <LatitudeDegrees>40.6646032445132732391357421875</LatitudeDegrees>
              <LongitudeDegrees>-3.7544433586299419403076171875</LongitudeDegrees>
            </Position>
            <AltitudeMeters>858.4000244140625</AltitudeMeters>
            <DistanceMeters>19054.604691919</DistanceMeters>
          </Trackpoint>
          <Trackpoint>
            <Time>2020-03-07T13:31:53.000Z</Time>
            <Position>
              <LatitudeDegrees>40.66465848125517368316650390625</LatitudeDegrees>
              <LongitudeDegrees>-3.75440488569438457489013671875</LongitudeDegrees>
            </Position>
            <AltitudeMeters>858.4000244140625</AltitudeMeters>
            <DistanceMeters>19061.558544043</DistanceMeters>
          </Trackpoint>
          <Trackpoint>
            <Time>2020-03-07T13:31:54.000Z</Time>
            <Position>
              <LatitudeDegrees>40.664711035788059234619140625</LatitudeDegrees>
              <LongitudeDegrees>-3.75436834059655666351318359375</LongitudeDegrees>
            </Position>
            <AltitudeMeters>858.5999755859375</AltitudeMeters>
            <DistanceMeters>19068.171611426</DistanceMeters>
          </Trackpoint>
          <Trackpoint>
            <Time>2020-03-07T13:31:55.000Z</Time>
            <Position>
              <LatitudeDegrees>40.66475755535066127777099609375</LatitudeDegrees>
              <LongitudeDegrees>-3.7543370760977268218994140625</LongitudeDegrees>
            </Position>
            <AltitudeMeters>858.5999755859375</AltitudeMeters>
            <DistanceMeters>19073.984575047</DistanceMeters>
          </Trackpoint>
          <Trackpoint>
            <Time>2020-03-07T13:31:56.000Z</Time>
            <Position>
              <LatitudeDegrees>40.6648023985326290130615234375</LatitudeDegrees>
              <LongitudeDegrees>-3.7543075717985630035400390625</LongitudeDegrees>
            </Position>
            <AltitudeMeters>858.79998779296875</AltitudeMeters>
            <DistanceMeters>19079.562894097</DistanceMeters>
          </Trackpoint>
          <Trackpoint>
            <Time>2020-03-07T13:31:57.000Z</Time>
            <Position>
              <LatitudeDegrees>40.664844475686550140380859375</LatitudeDegrees>
              <LongitudeDegrees>-3.75428033061325550079345703125</LongitudeDegrees>
            </Position>
            <AltitudeMeters>859</AltitudeMeters>
            <DistanceMeters>19084.779852062</DistanceMeters>
          </Trackpoint>
          <Trackpoint>
            <Time>2020-03-07T13:31:58.000Z</Time>
            <Position>
              <LatitudeDegrees>40.66488839685916900634765625</LatitudeDegrees>
              <LongitudeDegrees>-3.75425267033278942108154296875</LongitudeDegrees>
            </Position>
            <AltitudeMeters>859</AltitudeMeters>
            <DistanceMeters>19090.197208284</DistanceMeters>
          </Trackpoint>
          <Trackpoint>
            <Time>2020-03-07T13:31:59.000Z</Time>
            <Position>
              <LatitudeDegrees>40.66493290476500988006591796875</LatitudeDegrees>
              <LongitudeDegrees>-3.7542264349758625030517578125</LongitudeDegrees>
            </Position>
            <AltitudeMeters>859.20001220703125</AltitudeMeters>
            <DistanceMeters>19095.6228925</DistanceMeters>
          </Trackpoint>
          <Trackpoint>
            <Time>2020-03-07T13:32:00.000Z</Time>
            <Position>
              <LatitudeDegrees>40.66497799940407276153564453125</LatitudeDegrees>
              <LongitudeDegrees>-3.75420288182795047760009765625</LongitudeDegrees>
            </Position>
            <AltitudeMeters>859.5999755859375</AltitudeMeters>
            <DistanceMeters>19101.020209112</DistanceMeters>
          </Trackpoint>
          <Trackpoint>
            <Time>2020-03-07T13:32:01.000Z</Time>
            <Position>
              <LatitudeDegrees>40.66502409987151622772216796875</LatitudeDegrees>
              <LongitudeDegrees>-3.75418108887970447540283203125</LongitudeDegrees>
            </Position>
            <AltitudeMeters>859.79998779296875</AltitudeMeters>
            <DistanceMeters>19106.47080096</DistanceMeters>
          </Trackpoint>
          <Trackpoint>
            <Time>2020-03-07T13:32:02.000Z</Time>
            <Position>
              <LatitudeDegrees>40.6650722958147525787353515625</LatitudeDegrees>
              <LongitudeDegrees>-3.7541613914072513580322265625</LongitudeDegrees>
            </Position>
            <AltitudeMeters>860.4000244140625</AltitudeMeters>
            <DistanceMeters>19112.086228543</DistanceMeters>
          </Trackpoint>
          <Trackpoint>
            <Time>2020-03-07T13:32:03.000Z</Time>
            <Position>
              <LatitudeDegrees>40.665120743215084075927734375</LatitudeDegrees>
              <LongitudeDegrees>-3.754146136343479156494140625</LongitudeDegrees>
            </Position>
            <AltitudeMeters>861</AltitudeMeters>
            <DistanceMeters>19117.631263286</DistanceMeters>
          </Trackpoint>
          <Trackpoint>
            <Time>2020-03-07T13:32:04.000Z</Time>
            <Position>
              <LatitudeDegrees>40.66516994498670101165771484375</LatitudeDegrees>
              <LongitudeDegrees>-3.7541389279067516326904296875</LongitudeDegrees>
            </Position>
            <AltitudeMeters>861.4000244140625</AltitudeMeters>
            <DistanceMeters>19123.141174084</DistanceMeters>
          </Trackpoint>
          <Trackpoint>
            <Time>2020-03-07T13:32:05.000Z</Time>
            <Position>
              <LatitudeDegrees>40.66521889530122280120849609375</LatitudeDegrees>
              <LongitudeDegrees>-3.7541402690112590789794921875</LongitudeDegrees>
            </Position>
            <AltitudeMeters>862.20001220703125</AltitudeMeters>
            <DistanceMeters>19128.590108966</DistanceMeters>
          </Trackpoint>
          <Trackpoint>
            <Time>2020-03-07T13:32:06.000Z</Time>
            <Position>
              <LatitudeDegrees>40.66526935435831546783447265625</LatitudeDegrees>
              <LongitudeDegrees>-3.75414487905800342559814453125</LongitudeDegrees>
            </Position>
            <AltitudeMeters>862.5999755859375</AltitudeMeters>
            <DistanceMeters>19134.219990698</DistanceMeters>
          </Trackpoint>
          <Trackpoint>
            <Time>2020-03-07T13:32:07.000Z</Time>
            <Position>
              <LatitudeDegrees>40.6653200648725032806396484375</LatitudeDegrees>
              <LongitudeDegrees>-3.75415242277085781097412109375</LongitudeDegrees>
            </Position>
            <AltitudeMeters>863</AltitudeMeters>
            <DistanceMeters>19139.900172309</DistanceMeters>
          </Trackpoint>
          <Trackpoint>
            <Time>2020-03-07T13:32:08.000Z</Time>
            <Position>
              <LatitudeDegrees>40.66536792553961277008056640625</LatitudeDegrees>
              <LongitudeDegrees>-3.75416398979723453521728515625</LongitudeDegrees>
            </Position>
            <AltitudeMeters>863.4000244140625</AltitudeMeters>
            <DistanceMeters>19145.315861396</DistanceMeters>
          </Trackpoint>
          <Trackpoint>
            <Time>2020-03-07T13:32:09.000Z</Time>
            <Position>
              <LatitudeDegrees>40.66541687585413455963134765625</LatitudeDegrees>
              <LongitudeDegrees>-3.75417823903262615203857421875</LongitudeDegrees>
            </Position>
            <AltitudeMeters>863.79998779296875</AltitudeMeters>
            <DistanceMeters>19150.895798993</DistanceMeters>
          </Trackpoint>
          <Trackpoint>
            <Time>2020-03-07T13:32:10.000Z</Time>
            <Position>
              <LatitudeDegrees>40.6654672510921955108642578125</LatitudeDegrees>
              <LongitudeDegrees>-3.754194416105747222900390625</LongitudeDegrees>
            </Position>
            <AltitudeMeters>864.20001220703125</AltitudeMeters>
            <DistanceMeters>19156.66744971</DistanceMeters>
          </Trackpoint>
          <Trackpoint>
            <Time>2020-03-07T13:32:11.000Z</Time>
            <Position>
              <LatitudeDegrees>40.66551879979670047760009765625</LatitudeDegrees>
              <LongitudeDegrees>-3.75421210192143917083740234375</LongitudeDegrees>
            </Position>
            <AltitudeMeters>864.5999755859375</AltitudeMeters>
            <DistanceMeters>19162.595776415</DistanceMeters>
          </Trackpoint>
          <Trackpoint>
            <Time>2020-03-07T13:32:12.000Z</Time>
            <Position>
              <LatitudeDegrees>40.66556992940604686737060546875</LatitudeDegrees>
              <LongitudeDegrees>-3.75423272140324115753173828125</LongitudeDegrees>
            </Position>
            <AltitudeMeters>865</AltitudeMeters>
            <DistanceMeters>19168.546907384</DistanceMeters>
          </Trackpoint>
          <Trackpoint>
            <Time>2020-03-07T13:32:13.000Z</Time>
            <Position>
              <LatitudeDegrees>40.66562139429152011871337890625</LatitudeDegrees>
              <LongitudeDegrees>-3.754255436360836029052734375</LongitudeDegrees>
            </Position>
            <AltitudeMeters>865.20001220703125</AltitudeMeters>
            <DistanceMeters>19174.5883947</DistanceMeters>
          </Trackpoint>
          <Trackpoint>
            <Time>2020-03-07T13:32:14.000Z</Time>
            <Position>
              <LatitudeDegrees>40.665672607719898223876953125</LatitudeDegrees>
              <LongitudeDegrees>-3.75427915714681148529052734375</LongitudeDegrees>
            </Position>
            <AltitudeMeters>865.4000244140625</AltitudeMeters>
            <DistanceMeters>19180.629882015</DistanceMeters>
          </Trackpoint>
          <Trackpoint>
            <Time>2020-03-07T13:32:15.000Z</Time>
            <Position>
              <LatitudeDegrees>40.66572348587214946746826171875</LatitudeDegrees>
              <LongitudeDegrees>-3.75430262647569179534912109375</LongitudeDegrees>
            </Position>
            <AltitudeMeters>865.5999755859375</AltitudeMeters>
            <DistanceMeters>19186.629372386</DistanceMeters>
          </Trackpoint>
          <Trackpoint>
            <Time>2020-03-07T13:32:16.000Z</Time>
            <Position>
              <LatitudeDegrees>40.66577486693859100341796875</LatitudeDegrees>
              <LongitudeDegrees>-3.75432710163295269012451171875</LongitudeDegrees>
            </Position>
            <AltitudeMeters>865.5999755859375</AltitudeMeters>
            <DistanceMeters>19192.709597132</DistanceMeters>
          </Trackpoint>
          <Trackpoint>
            <Time>2020-03-07T13:32:17.000Z</Time>
            <Position>
              <LatitudeDegrees>40.66582540981471538543701171875</LatitudeDegrees>
              <LongitudeDegrees>-3.7543535046279430389404296875</LongitudeDegrees>
            </Position>
            <AltitudeMeters>865.79998779296875</AltitudeMeters>
            <DistanceMeters>19198.760045868</DistanceMeters>
          </Trackpoint>
          <Trackpoint>
            <Time>2020-03-07T13:32:18.000Z</Time>
            <Position>
              <LatitudeDegrees>40.66587620414793491363525390625</LatitudeDegrees>
              <LongitudeDegrees>-3.75438007526099681854248046875</LongitudeDegrees>
            </Position>
            <AltitudeMeters>865.79998779296875</AltitudeMeters>
            <DistanceMeters>19204.843240199</DistanceMeters>
          </Trackpoint>
          <Trackpoint>
            <Time>2020-03-07T13:32:19.000Z</Time>
            <Position>
              <LatitudeDegrees>40.6659269146621227264404296875</LatitudeDegrees>
              <LongitudeDegrees>-3.75440740026533603668212890625</LongitudeDegrees>
            </Position>
            <AltitudeMeters>866</AltitudeMeters>
            <DistanceMeters>19210.940520307</DistanceMeters>
          </Trackpoint>
          <Trackpoint>
            <Time>2020-03-07T13:32:20.000Z</Time>
            <Position>
              <LatitudeDegrees>40.66597712226212024688720703125</LatitudeDegrees>
              <LongitudeDegrees>-3.75443623401224613189697265625</LongitudeDegrees>
            </Position>
            <AltitudeMeters>866.20001220703125</AltitudeMeters>
            <DistanceMeters>19217.035578509</DistanceMeters>
          </Trackpoint>
          <Trackpoint>
            <Time>2020-03-07T13:32:21.000Z</Time>
            <Position>
              <LatitudeDegrees>40.66602858714759349822998046875</LatitudeDegrees>
              <LongitudeDegrees>-3.7544654868543148040771484375</LongitudeDegrees>
            </Position>
            <AltitudeMeters>866.20001220703125</AltitudeMeters>
            <DistanceMeters>19223.273414624</DistanceMeters>
          </Trackpoint>
          <Trackpoint>
            <Time>2020-03-07T13:32:22.000Z</Time>
            <Position>
              <LatitudeDegrees>40.6660798005759716033935546875</LatitudeDegrees>
              <LongitudeDegrees>-3.754494152963161468505859375</LongitudeDegrees>
            </Position>
            <AltitudeMeters>866.20001220703125</AltitudeMeters>
            <DistanceMeters>19229.4654825</DistanceMeters>
          </Trackpoint>
          <Trackpoint>
            <Time>2020-03-07T13:32:23.000Z</Time>
            <Position>
              <LatitudeDegrees>40.666129924356937408447265625</LatitudeDegrees>
              <LongitudeDegrees>-3.75452390871942043304443359375</LongitudeDegrees>
            </Position>
            <AltitudeMeters>866.4000244140625</AltitudeMeters>
            <DistanceMeters>19235.584199436</DistanceMeters>
          </Trackpoint>
          <Trackpoint>
            <Time>2020-03-07T13:32:24.000Z</Time>
            <Position>
              <LatitudeDegrees>40.66617862321436405181884765625</LatitudeDegrees>
              <LongitudeDegrees>-3.7545575201511383056640625</LongitudeDegrees>
            </Position>
            <AltitudeMeters>866.4000244140625</AltitudeMeters>
            <DistanceMeters>19241.701440381</DistanceMeters>
          </Trackpoint>
          <Trackpoint>
            <Time>2020-03-07T13:32:25.000Z</Time>
            <Position>
              <LatitudeDegrees>40.6662279926240444183349609375</LatitudeDegrees>
              <LongitudeDegrees>-3.75459163449704647064208984375</LongitudeDegrees>
            </Position>
            <AltitudeMeters>866.4000244140625</AltitudeMeters>
            <DistanceMeters>19247.905163925</DistanceMeters>
          </Trackpoint>
          <Trackpoint>
            <Time>2020-03-07T13:32:26.000Z</Time>
            <Position>
              <LatitudeDegrees>40.6662789545953273773193359375</LatitudeDegrees>
              <LongitudeDegrees>-3.75462398864328861236572265625</LongitudeDegrees>
            </Position>
            <AltitudeMeters>866.4000244140625</AltitudeMeters>
            <DistanceMeters>19254.201356075</DistanceMeters>
          </Trackpoint>
          <Trackpoint>
            <Time>2020-03-07T13:32:27.000Z</Time>
            <Position>
              <LatitudeDegrees>40.6663279049098491668701171875</LatitudeDegrees>
              <LongitudeDegrees>-3.75465718097984790802001953125</LongitudeDegrees>
            </Position>
            <AltitudeMeters>866.5999755859375</AltitudeMeters>
            <DistanceMeters>19260.327447626</DistanceMeters>
          </Trackpoint>
          <Trackpoint>
            <Time>2020-03-07T13:32:28.000Z</Time>
            <Position>
              <LatitudeDegrees>40.66637475974857807159423828125</LatitudeDegrees>
              <LongitudeDegrees>-3.754689283668994903564453125</LongitudeDegrees>
            </Position>
            <AltitudeMeters>866.5999755859375</AltitudeMeters>
            <DistanceMeters>19266.205293531</DistanceMeters>
          </Trackpoint>
          <Trackpoint>
            <Time>2020-03-07T13:32:29.000Z</Time>
            <Position>
              <LatitudeDegrees>40.6664207763969898223876953125</LatitudeDegrees>
              <LongitudeDegrees>-3.754720799624919891357421875</LongitudeDegrees>
            </Position>
            <AltitudeMeters>866.5999755859375</AltitudeMeters>
            <DistanceMeters>19271.976161916</DistanceMeters>
          </Trackpoint>
          <Trackpoint>
            <Time>2020-03-07T13:32:30.000Z</Time>
            <Position>
              <LatitudeDegrees>40.6664662063121795654296875</LatitudeDegrees>
              <LongitudeDegrees>-3.75475089065730571746826171875</LongitudeDegrees>
            </Position>
            <AltitudeMeters>866.5999755859375</AltitudeMeters>
            <DistanceMeters>19277.634841185</DistanceMeters>
          </Trackpoint>
          <Trackpoint>
            <Time>2020-03-07T13:32:31.000Z</Time>
            <Position>
              <LatitudeDegrees>40.66651113331317901611328125</LatitudeDegrees>
              <LongitudeDegrees>-3.754779808223247528076171875</LongitudeDegrees>
            </Position>
            <AltitudeMeters>866.79998779296875</AltitudeMeters>
            <DistanceMeters>19283.199383586</DistanceMeters>
          </Trackpoint>
          <Trackpoint>
            <Time>2020-03-07T13:32:32.000Z</Time>
            <Position>
              <LatitudeDegrees>40.666554383933544158935546875</LatitudeDegrees>
              <LongitudeDegrees>-3.75481165945529937744140625</LongitudeDegrees>
            </Position>
            <AltitudeMeters>867</AltitudeMeters>
            <DistanceMeters>19288.713390059</DistanceMeters>
          </Trackpoint>
          <Trackpoint>
            <Time>2020-03-07T13:32:33.000Z</Time>
            <Position>
              <LatitudeDegrees>40.6665967963635921478271484375</LatitudeDegrees>
              <LongitudeDegrees>-3.75484644435346126556396484375</LongitudeDegrees>
            </Position>
            <AltitudeMeters>867</AltitudeMeters>
            <DistanceMeters>19294.272249798</DistanceMeters>
          </Trackpoint>
          <Trackpoint>
            <Time>2020-03-07T13:32:34.000Z</Time>
            <Position>
              <LatitudeDegrees>40.66663979552686214447021484375</LatitudeDegrees>
              <LongitudeDegrees>-3.75487997196614742279052734375</LongitudeDegrees>
            </Position>
            <AltitudeMeters>867.20001220703125</AltitudeMeters>
            <DistanceMeters>19299.8319217</DistanceMeters>
          </Trackpoint>
          <Trackpoint>
            <Time>2020-03-07T13:32:35.000Z</Time>
            <Position>
              <LatitudeDegrees>40.66668279469013214111328125</LatitudeDegrees>
              <LongitudeDegrees>-3.75491148792207241058349609375</LongitudeDegrees>
            </Position>
            <AltitudeMeters>867.4000244140625</AltitudeMeters>
            <DistanceMeters>19305.307307878</DistanceMeters>
          </Trackpoint>
          <Trackpoint>
            <Time>2020-03-07T13:32:36.000Z</Time>
            <Position>
              <LatitudeDegrees>40.6667255423963069915771484375</LatitudeDegrees>
              <LongitudeDegrees>-3.75494317151606082916259765625</LongitudeDegrees>
            </Position>
            <AltitudeMeters>867.5999755859375</AltitudeMeters>
            <DistanceMeters>19310.765349852</DistanceMeters>
          </Trackpoint>
          <Trackpoint>
            <Time>2020-03-07T13:32:37.000Z</Time>
            <Position>
              <LatitudeDegrees>40.6667677871882915496826171875</LatitudeDegrees>
              <LongitudeDegrees>-3.75497435219585895538330078125</LongitudeDegrees>
            </Position>
            <AltitudeMeters>868</AltitudeMeters>
            <DistanceMeters>19316.154294632</DistanceMeters>
          </Trackpoint>
          <Trackpoint>
            <Time>2020-03-07T13:32:38.000Z</Time>
            <Position>
              <LatitudeDegrees>40.66681087017059326171875</LatitudeDegrees>
              <LongitudeDegrees>-3.755004443228244781494140625</LongitudeDegrees>
            </Position>
            <AltitudeMeters>868.20001220703125</AltitudeMeters>
            <DistanceMeters>19321.580810944</DistanceMeters>
          </Trackpoint>
          <Trackpoint>
            <Time>2020-03-07T13:32:39.000Z</Time>
            <Position>
              <LatitudeDegrees>40.6668542884290218353271484375</LatitudeDegrees>
              <LongitudeDegrees>-3.75503319315612316131591796875</LongitudeDegrees>
            </Position>
            <AltitudeMeters>868.5999755859375</AltitudeMeters>
            <DistanceMeters>19326.988156645</DistanceMeters>
          </Trackpoint>
          <Trackpoint>
            <Time>2020-03-07T13:32:40.000Z</Time>
            <Position>
              <LatitudeDegrees>40.66689695231616497039794921875</LatitudeDegrees>
              <LongitudeDegrees>-3.75506236217916011810302734375</LongitudeDegrees>
            </Position>
            <AltitudeMeters>868.79998779296875</AltitudeMeters>
            <DistanceMeters>19332.336734229</DistanceMeters>
          </Trackpoint>
          <Trackpoint>
            <Time>2020-03-07T13:32:41.000Z</Time>
            <Position>
              <LatitudeDegrees>40.6669394485652446746826171875</LatitudeDegrees>
              <LongitudeDegrees>-3.7550912797451019287109375</LongitudeDegrees>
            </Position>
            <AltitudeMeters>869</AltitudeMeters>
            <DistanceMeters>19337.659078619</DistanceMeters>
          </Trackpoint>
          <Trackpoint>
            <Time>2020-03-07T13:32:42.000Z</Time>
            <Position>
              <LatitudeDegrees>40.66698186099529266357421875</LatitudeDegrees>
              <LongitudeDegrees>-3.75511969439685344696044921875</LongitudeDegrees>
            </Position>
            <AltitudeMeters>869.20001220703125</AltitudeMeters>
            <DistanceMeters>19342.954207263</DistanceMeters>
          </Trackpoint>
          <Trackpoint>
            <Time>2020-03-07T13:32:43.000Z</Time>
            <Position>
              <LatitudeDegrees>40.66702402196824550628662109375</LatitudeDegrees>
              <LongitudeDegrees>-3.7551476061344146728515625</LongitudeDegrees>
            </Position>
            <AltitudeMeters>869.20001220703125</AltitudeMeters>
            <DistanceMeters>19348.205669294</DistanceMeters>
          </Trackpoint>
          <Trackpoint>
            <Time>2020-03-07T13:32:44.000Z</Time>
            <Position>
              <LatitudeDegrees>40.66706559620797634124755859375</LatitudeDegrees>
              <LongitudeDegrees>-3.75517585314810276031494140625</LongitudeDegrees>
            </Position>
            <AltitudeMeters>869.5999755859375</AltitudeMeters>
            <DistanceMeters>19353.411364195</DistanceMeters>
          </Trackpoint>
          <Trackpoint>
            <Time>2020-03-07T13:32:45.000Z</Time>
            <Position>
              <LatitudeDegrees>40.66710700280964374542236328125</LatitudeDegrees>
              <LongitudeDegrees>-3.75520460307598114013671875</LongitudeDegrees>
            </Position>
            <AltitudeMeters>869.79998779296875</AltitudeMeters>
            <DistanceMeters>19358.619660427</DistanceMeters>
          </Trackpoint>
          <Trackpoint>
            <Time>2020-03-07T13:32:46.000Z</Time>
            <Position>
              <LatitudeDegrees>40.66714840941131114959716796875</LatitudeDegrees>
              <LongitudeDegrees>-3.75523301772773265838623046875</LongitudeDegrees>
            </Position>
            <AltitudeMeters>870</AltitudeMeters>
            <DistanceMeters>19363.815805976</DistanceMeters>
          </Trackpoint>
          <Trackpoint>
            <Time>2020-03-07T13:32:47.000Z</Time>
            <Position>
              <LatitudeDegrees>40.66718981601297855377197265625</LatitudeDegrees>
              <LongitudeDegrees>-3.75526168383657932281494140625</LongitudeDegrees>
            </Position>
            <AltitudeMeters>870.20001220703125</AltitudeMeters>
            <DistanceMeters>19369.020633479</DistanceMeters>
          </Trackpoint>
          <Trackpoint>
            <Time>2020-03-07T13:32:48.000Z</Time>
            <Position>
              <LatitudeDegrees>40.66723071970045566558837890625</LatitudeDegrees>
              <LongitudeDegrees>-3.75529118813574314117431640625</LongitudeDegrees>
            </Position>
            <AltitudeMeters>870.79998779296875</AltitudeMeters>
            <DistanceMeters>19374.209823006</DistanceMeters>
          </Trackpoint>
          <Trackpoint>
            <Time>2020-03-07T13:32:49.000Z</Time>
            <Position>
              <LatitudeDegrees>40.66727145574986934661865234375</LatitudeDegrees>
              <LongitudeDegrees>-3.7553207762539386749267578125</LongitudeDegrees>
            </Position>
            <AltitudeMeters>870.79998779296875</AltitudeMeters>
            <DistanceMeters>19379.385944799</DistanceMeters>
          </Trackpoint>
          <Trackpoint>
            <Time>2020-03-07T13:32:50.000Z</Time>
            <Position>
              <LatitudeDegrees>40.66731219179928302764892578125</LatitudeDegrees>
              <LongitudeDegrees>-3.7553499452769756317138671875</LongitudeDegrees>
            </Position>
            <AltitudeMeters>871</AltitudeMeters>
            <DistanceMeters>19384.544591451</DistanceMeters>
          </Trackpoint>
          <Trackpoint>
            <Time>2020-03-07T13:32:51.000Z</Time>
            <Position>
              <LatitudeDegrees>40.66735192202031612396240234375</LatitudeDegrees>
              <LongitudeDegrees>-3.75538070686161518096923828125</LongitudeDegrees>
            </Position>
            <AltitudeMeters>871</AltitudeMeters>
            <DistanceMeters>19389.672513311</DistanceMeters>
          </Trackpoint>
          <Trackpoint>
            <Time>2020-03-07T13:32:52.000Z</Time>
            <Position>
              <LatitudeDegrees>40.667391903698444366455078125</LatitudeDegrees>
              <LongitudeDegrees>-3.7554116360843181610107421875</LongitudeDegrees>
            </Position>
            <AltitudeMeters>871.4000244140625</AltitudeMeters>
            <DistanceMeters>19394.832035126</DistanceMeters>
          </Trackpoint>
          <Trackpoint>
            <Time>2020-03-07T13:32:53.000Z</Time>
            <Position>
              <LatitudeDegrees>40.667433477938175201416015625</LatitudeDegrees>
              <LongitudeDegrees>-3.75544063746929168701171875</LongitudeDegrees>
            </Position>
            <AltitudeMeters>871.5999755859375</AltitudeMeters>
            <DistanceMeters>19400.067998464</DistanceMeters>
          </Trackpoint>
          <Trackpoint>
            <Time>2020-03-07T13:32:54.000Z</Time>
            <Position>
              <LatitudeDegrees>40.667475722730159759521484375</LatitudeDegrees>
              <LongitudeDegrees>-3.75546905212104320526123046875</LongitudeDegrees>
            </Position>
            <AltitudeMeters>871.79998779296875</AltitudeMeters>
            <DistanceMeters>19405.346901372</DistanceMeters>
          </Trackpoint>
          <Trackpoint>
            <Time>2020-03-07T13:32:55.000Z</Time>
            <Position>
              <LatitudeDegrees>40.66751788370311260223388671875</LatitudeDegrees>
              <LongitudeDegrees>-3.7554971314966678619384765625</LongitudeDegrees>
            </Position>
            <AltitudeMeters>872</AltitudeMeters>
            <DistanceMeters>19410.605237047</DistanceMeters>
          </Trackpoint>
          <Trackpoint>
            <Time>2020-03-07T13:32:56.000Z</Time>
            <Position>
              <LatitudeDegrees>40.66755912266671657562255859375</LatitudeDegrees>
              <LongitudeDegrees>-3.75552504323422908782958984375</LongitudeDegrees>
            </Position>
            <AltitudeMeters>872.4000244140625</AltitudeMeters>
            <DistanceMeters>19415.764758862</DistanceMeters>
          </Trackpoint>
          <Trackpoint>
            <Time>2020-03-07T13:32:57.000Z</Time>
            <Position>
              <LatitudeDegrees>40.66759935580193996429443359375</LatitudeDegrees>
              <LongitudeDegrees>-3.75555337406694889068603515625</LongitudeDegrees>
            </Position>
            <AltitudeMeters>872.5999755859375</AltitudeMeters>
            <DistanceMeters>19420.841355967</DistanceMeters>
          </Trackpoint>
          <Trackpoint>
            <Time>2020-03-07T13:32:58.000Z</Time>
            <Position>
              <LatitudeDegrees>40.6676381640136241912841796875</LatitudeDegrees>
              <LongitudeDegrees>-3.75558136962354183197021484375</LongitudeDegrees>
            </Position>
            <AltitudeMeters>872.79998779296875</AltitudeMeters>
            <DistanceMeters>19425.76535386</DistanceMeters>
          </Trackpoint>
          <Trackpoint>
            <Time>2020-03-07T13:32:59.000Z</Time>
            <Position>
              <LatitudeDegrees>40.6676757149398326873779296875</LatitudeDegrees>
              <LongitudeDegrees>-3.755608610808849334716796875</LongitudeDegrees>
            </Position>
            <AltitudeMeters>873</AltitudeMeters>
            <DistanceMeters>19430.536603457</DistanceMeters>
          </Trackpoint>
          <Trackpoint>
            <Time>2020-03-07T13:33:00.000Z</Time>
            <Position>
              <LatitudeDegrees>40.66771217621862888336181640625</LatitudeDegrees>
              <LongitudeDegrees>-3.755635432898998260498046875</LongitudeDegrees>
            </Position>
            <AltitudeMeters>873</AltitudeMeters>
            <DistanceMeters>19435.184177325</DistanceMeters>
          </Trackpoint>
          <Trackpoint>
            <Time>2020-03-07T13:33:01.000Z</Time>
            <Position>
              <LatitudeDegrees>40.66774805076420307159423828125</LatitudeDegrees>
              <LongitudeDegrees>-3.75566150061786174774169921875</LongitudeDegrees>
            </Position>
            <AltitudeMeters>873.20001220703125</AltitudeMeters>
            <DistanceMeters>19439.743479461</DistanceMeters>
          </Trackpoint>
          <Trackpoint>
            <Time>2020-03-07T13:33:02.000Z</Time>
            <Position>
              <LatitudeDegrees>40.66778426058590412139892578125</LatitudeDegrees>
              <LongitudeDegrees>-3.75568564049899578094482421875</LongitudeDegrees>
            </Position>
            <AltitudeMeters>873.5999755859375</AltitudeMeters>
            <DistanceMeters>19444.25999833</DistanceMeters>
          </Trackpoint>
          <Trackpoint>
            <Time>2020-03-07T13:33:03.000Z</Time>
            <Position>
              <LatitudeDegrees>40.66781996749341487884521484375</LatitudeDegrees>
              <LongitudeDegrees>-3.75570860691368579864501953125</LongitudeDegrees>
            </Position>
            <AltitudeMeters>873.5999755859375</AltitudeMeters>
            <DistanceMeters>19448.68257061</DistanceMeters>
          </Trackpoint>
          <Trackpoint>
            <Time>2020-03-07T13:33:04.000Z</Time>
            <Position>
              <LatitudeDegrees>40.66785517148673534393310546875</LatitudeDegrees>
              <LongitudeDegrees>-3.75573157332837581634521484375</LongitudeDegrees>
            </Position>
            <AltitudeMeters>874</AltitudeMeters>
            <DistanceMeters>19453.053799471</DistanceMeters>
          </Trackpoint>
          <Trackpoint>
            <Time>2020-03-07T13:33:05.000Z</Time>
            <Position>
              <LatitudeDegrees>40.66789138130843639373779296875</LatitudeDegrees>
              <LongitudeDegrees>-3.75575303100049495697021484375</LongitudeDegrees>
            </Position>
            <AltitudeMeters>874.20001220703125</AltitudeMeters>
            <DistanceMeters>19457.473307967</DistanceMeters>
          </Trackpoint>
          <Trackpoint>
            <Time>2020-03-07T13:33:06.000Z</Time>
            <Position>
              <LatitudeDegrees>40.66792868077754974365234375</LatitudeDegrees>
              <LongitudeDegrees>-3.75577381812036037445068359375</LongitudeDegrees>
            </Position>
            <AltitudeMeters>874.4000244140625</AltitudeMeters>
            <DistanceMeters>19461.980820807</DistanceMeters>
          </Trackpoint>
          <Trackpoint>
            <Time>2020-03-07T13:33:07.000Z</Time>
            <Position>
              <LatitudeDegrees>40.66796757280826568603515625</LatitudeDegrees>
              <LongitudeDegrees>-3.75579603016376495361328125</LongitudeDegrees>
            </Position>
            <AltitudeMeters>874.5999755859375</AltitudeMeters>
            <DistanceMeters>19466.698779946</DistanceMeters>
          </Trackpoint>
          <Trackpoint>
            <Time>2020-03-07T13:33:08.000Z</Time>
            <Position>
              <LatitudeDegrees>40.66800654865801334381103515625</LatitudeDegrees>
              <LongitudeDegrees>-3.7558183260262012481689453125</LongitudeDegrees>
            </Position>
            <AltitudeMeters>875.20001220703125</AltitudeMeters>
            <DistanceMeters>19471.427254253</DistanceMeters>
          </Trackpoint>
          <Trackpoint>
            <Time>2020-03-07T13:33:09.000Z</Time>
            <Position>
              <LatitudeDegrees>40.66804477013647556304931640625</LatitudeDegrees>
              <LongitudeDegrees>-3.7558397836983203887939453125</LongitudeDegrees>
            </Position>
            <AltitudeMeters>875.79998779296875</AltitudeMeters>
            <DistanceMeters>19476.051453753</DistanceMeters>
          </Trackpoint>
          <Trackpoint>
            <Time>2020-03-07T13:33:10.000Z</Time>
            <Position>
              <LatitudeDegrees>40.66808332689106464385986328125</LatitudeDegrees>
              <LongitudeDegrees>-3.7558609060943126678466796875</LongitudeDegrees>
            </Position>
            <AltitudeMeters>876.79998779296875</AltitudeMeters>
            <DistanceMeters>19480.699027621</DistanceMeters>
          </Trackpoint>
          <Trackpoint>
            <Time>2020-03-07T13:33:11.000Z</Time>
            <Position>
              <LatitudeDegrees>40.668122135102748870849609375</LatitudeDegrees>
              <LongitudeDegrees>-3.75588119029998779296875</LongitudeDegrees>
            </Position>
            <AltitudeMeters>877</AltitudeMeters>
            <DistanceMeters>19485.344658117</DistanceMeters>
          </Trackpoint>
          <Trackpoint>
            <Time>2020-03-07T13:33:12.000Z</Time>
            <Position>
              <LatitudeDegrees>40.66816111095249652862548828125</LatitudeDegrees>
              <LongitudeDegrees>-3.75589921139180660247802734375</LongitudeDegrees>
            </Position>
            <AltitudeMeters>877.4000244140625</AltitudeMeters>
            <DistanceMeters>19489.942419415</DistanceMeters>
          </Trackpoint>
          <Trackpoint>
            <Time>2020-03-07T13:33:13.000Z</Time>
            <Position>
              <LatitudeDegrees>40.66819950006902217864990234375</LatitudeDegrees>
              <LongitudeDegrees>-3.7559175677597522735595703125</LongitudeDegrees>
            </Position>
            <AltitudeMeters>877.79998779296875</AltitudeMeters>
            <DistanceMeters>19494.487836327</DistanceMeters>
          </Trackpoint>
          <Trackpoint>
            <Time>2020-03-07T13:33:14.000Z</Time>
            <Position>
              <LatitudeDegrees>40.6682369671761989593505859375</LatitudeDegrees>
              <LongitudeDegrees>-3.7559363432228565216064453125</LongitudeDegrees>
            </Position>
            <AltitudeMeters>878.4000244140625</AltitudeMeters>
            <DistanceMeters>19498.949034426</DistanceMeters>
          </Trackpoint>
          <Trackpoint>
            <Time>2020-03-07T13:33:15.000Z</Time>
            <Position>
              <LatitudeDegrees>40.6682725064456462860107421875</LatitudeDegrees>
              <LongitudeDegrees>-3.75595352612435817718505859375</LongitudeDegrees>
            </Position>
            <AltitudeMeters>878.5999755859375</AltitudeMeters>
            <DistanceMeters>19503.162480793</DistanceMeters>
          </Trackpoint>
          <Trackpoint>
            <Time>2020-03-07T13:33:16.000Z</Time>
            <Position>
              <LatitudeDegrees>40.668309219181537628173828125</LatitudeDegrees>
              <LongitudeDegrees>-3.7559702061116695404052734375</LongitudeDegrees>
            </Position>
            <AltitudeMeters>879.20001220703125</AltitudeMeters>
            <DistanceMeters>19507.484890788</DistanceMeters>
          </Trackpoint>
          <Trackpoint>
            <Time>2020-03-07T13:33:17.000Z</Time>
            <Position>
              <LatitudeDegrees>40.66834718920290470123291015625</LatitudeDegrees>
              <LongitudeDegrees>-3.75598520971834659576416015625</LongitudeDegrees>
            </Position>
            <AltitudeMeters>879.4000244140625</AltitudeMeters>
            <DistanceMeters>19511.897242181</DistanceMeters>
          </Trackpoint>
          <Trackpoint>
            <Time>2020-03-07T13:33:18.000Z</Time>
            <Position>
              <LatitudeDegrees>40.66838507540524005889892578125</LatitudeDegrees>
              <LongitudeDegrees>-3.75599945895373821258544921875</LongitudeDegrees>
            </Position>
            <AltitudeMeters>879.79998779296875</AltitudeMeters>
            <DistanceMeters>19516.282907789</DistanceMeters>
          </Trackpoint>
          <Trackpoint>
            <Time>2020-03-07T13:33:19.000Z</Time>
            <Position>
              <LatitudeDegrees>40.66842329688370227813720703125</LatitudeDegrees>
              <LongitudeDegrees>-3.7560144625604152679443359375</LongitudeDegrees>
            </Position>
            <AltitudeMeters>880</AltitudeMeters>
            <DistanceMeters>19520.721784539</DistanceMeters>
          </Trackpoint>
          <Trackpoint>
            <Time>2020-03-07T13:33:20.000Z</Time>
            <Position>
              <LatitudeDegrees>40.66846034489572048187255859375</LatitudeDegrees>
              <LongitudeDegrees>-3.75603382475674152374267578125</LongitudeDegrees>
            </Position>
            <AltitudeMeters>880.20001220703125</AltitudeMeters>
            <DistanceMeters>19525.157608766</DistanceMeters>
          </Trackpoint>
          <Trackpoint>
            <Time>2020-03-07T13:33:21.000Z</Time>
            <Position>
              <LatitudeDegrees>40.668496303260326385498046875</LatitudeDegrees>
              <LongitudeDegrees>-3.756056539714336395263671875</LongitudeDegrees>
            </Position>
            <AltitudeMeters>880.5999755859375</AltitudeMeters>
            <DistanceMeters>19529.595468241</DistanceMeters>
          </Trackpoint>
          <Trackpoint>
            <Time>2020-03-07T13:33:22.000Z</Time>
            <Position>
              <LatitudeDegrees>40.668532848358154296875</LatitudeDegrees>
              <LongitudeDegrees>-3.75607808120548725128173828125</LongitudeDegrees>
            </Position>
            <AltitudeMeters>881</AltitudeMeters>
            <DistanceMeters>19534.050589791</DistanceMeters>
          </Trackpoint>
          <Trackpoint>
            <Time>2020-03-07T13:33:23.000Z</Time>
            <Position>
              <LatitudeDegrees>40.66856880672276020050048828125</LatitudeDegrees>
              <LongitudeDegrees>-3.75610205344855785369873046875</LongitudeDegrees>
            </Position>
            <AltitudeMeters>881.20001220703125</AltitudeMeters>
            <DistanceMeters>19538.535005053</DistanceMeters>
          </Trackpoint>
          <Trackpoint>
            <Time>2020-03-07T13:33:24.000Z</Time>
            <Position>
              <LatitudeDegrees>40.66860619001090526580810546875</LatitudeDegrees>
              <LongitudeDegrees>-3.75612870790064334869384765625</LongitudeDegrees>
            </Position>
            <AltitudeMeters>881.4000244140625</AltitudeMeters>
            <DistanceMeters>19543.265388698</DistanceMeters>
          </Trackpoint>
          <Trackpoint>
            <Time>2020-03-07T13:33:25.000Z</Time>
            <Position>
              <LatitudeDegrees>40.66864340566098690032958984375</LatitudeDegrees>
              <LongitudeDegrees>-3.75615385361015796661376953125</LongitudeDegrees>
            </Position>
            <AltitudeMeters>881.79998779296875</AltitudeMeters>
            <DistanceMeters>19547.919757977</DistanceMeters>
          </Trackpoint>
          <Trackpoint>
            <Time>2020-03-07T13:33:26.000Z</Time>
            <Position>
              <LatitudeDegrees>40.668682046234607696533203125</LatitudeDegrees>
              <LongitudeDegrees>-3.75617514364421367645263671875</LongitudeDegrees>
            </Position>
            <AltitudeMeters>882.20001220703125</AltitudeMeters>
            <DistanceMeters>19552.580912761</DistanceMeters>
          </Trackpoint>
          <Trackpoint>
            <Time>2020-03-07T13:33:27.000Z</Time>
            <Position>
              <LatitudeDegrees>40.66872127354145050048828125</LatitudeDegrees>
              <LongitudeDegrees>-3.75619526021182537078857421875</LongitudeDegrees>
            </Position>
            <AltitudeMeters>882.4000244140625</AltitudeMeters>
            <DistanceMeters>19557.265257514</DistanceMeters>
          </Trackpoint>
          <Trackpoint>
            <Time>2020-03-07T13:33:28.000Z</Time>
            <Position>
              <LatitudeDegrees>40.6687599979341030120849609375</LatitudeDegrees>
              <LongitudeDegrees>-3.7562169693410396575927734375</LongitudeDegrees>
            </Position>
            <AltitudeMeters>882.79998779296875</AltitudeMeters>
            <DistanceMeters>19561.94863831</DistanceMeters>
          </Trackpoint>
          <Trackpoint>
            <Time>2020-03-07T13:33:29.000Z</Time>
            <Position>
              <LatitudeDegrees>40.66879930905997753143310546875</LatitudeDegrees>
              <LongitudeDegrees>-3.756239600479602813720703125</LongitudeDegrees>
            </Position>
            <AltitudeMeters>883</AltitudeMeters>
            <DistanceMeters>19566.722725966</DistanceMeters>
          </Trackpoint>
          <Trackpoint>
            <Time>2020-03-07T13:33:30.000Z</Time>
            <Position>
              <LatitudeDegrees>40.6688371114432811737060546875</LatitudeDegrees>
              <LongitudeDegrees>-3.75626164488494396209716796875</LongitudeDegrees>
            </Position>
            <AltitudeMeters>883.4000244140625</AltitudeMeters>
            <DistanceMeters>19571.323432345</DistanceMeters>
          </Trackpoint>
          <Trackpoint>
            <Time>2020-03-07T13:33:31.000Z</Time>
            <Position>
              <LatitudeDegrees>40.668872483074665069580078125</LatitudeDegrees>
              <LongitudeDegrees>-3.7562833540141582489013671875</LongitudeDegrees>
            </Position>
            <AltitudeMeters>883.79998779296875</AltitudeMeters>
            <DistanceMeters>19575.665643718</DistanceMeters>
          </Trackpoint>
          <Trackpoint>
            <Time>2020-03-07T13:33:32.000Z</Time>
            <Position>
              <LatitudeDegrees>40.66890693269670009613037109375</LatitudeDegrees>
              <LongitudeDegrees>-3.7563049793243408203125</LongitudeDegrees>
            </Position>
            <AltitudeMeters>884</AltitudeMeters>
            <DistanceMeters>19579.91217909</DistanceMeters>
          </Trackpoint>
          <Trackpoint>
            <Time>2020-03-07T13:33:33.000Z</Time>
            <Position>
              <LatitudeDegrees>40.66894113086163997650146484375</LatitudeDegrees>
              <LongitudeDegrees>-3.75632903538644313812255859375</LongitudeDegrees>
            </Position>
            <AltitudeMeters>884.20001220703125</AltitudeMeters>
            <DistanceMeters>19584.227270934</DistanceMeters>
          </Trackpoint>
          <Trackpoint>
            <Time>2020-03-07T13:33:34.000Z</Time>
            <Position>
              <LatitudeDegrees>40.6689762510359287261962890625</LatitudeDegrees>
              <LongitudeDegrees>-3.7563577853143215179443359375</LongitudeDegrees>
            </Position>
            <AltitudeMeters>884.5999755859375</AltitudeMeters>
            <DistanceMeters>19588.828958588</DistanceMeters>
          </Trackpoint>
          <Trackpoint>
            <Time>2020-03-07T13:33:35.000Z</Time>
            <Position>
              <LatitudeDegrees>40.6690111197531223297119140625</LatitudeDegrees>
              <LongitudeDegrees>-3.75638821162283420562744140625</LongitudeDegrees>
            </Position>
            <AltitudeMeters>884.79998779296875</AltitudeMeters>
            <DistanceMeters>19593.483327867</DistanceMeters>
          </Trackpoint>
          <Trackpoint>
            <Time>2020-03-07T13:33:36.000Z</Time>
            <Position>
              <LatitudeDegrees>40.66904607228934764862060546875</LatitudeDegrees>
              <LongitudeDegrees>-3.7564164586365222930908203125</LongitudeDegrees>
            </Position>
            <AltitudeMeters>885</AltitudeMeters>
            <DistanceMeters>19598.046589451</DistanceMeters>
          </Trackpoint>
          <Trackpoint>
            <Time>2020-03-07T13:33:37.000Z</Time>
            <Position>
              <LatitudeDegrees>40.6690862216055393218994140625</LatitudeDegrees>
              <LongitudeDegrees>-3.7564456276595592498779296875</LongitudeDegrees>
            </Position>
            <AltitudeMeters>885.20001220703125</AltitudeMeters>
            <DistanceMeters>19603.148913469</DistanceMeters>
          </Trackpoint>
          <Trackpoint>
            <Time>2020-03-07T13:33:38.000Z</Time>
            <Position>
              <LatitudeDegrees>40.66912419162690639495849609375</LatitudeDegrees>
              <LongitudeDegrees>-3.75647353939712047576904296875</LongitudeDegrees>
            </Position>
            <AltitudeMeters>886</AltitudeMeters>
            <DistanceMeters>19607.987817087</DistanceMeters>
          </Trackpoint>
          <Trackpoint>
            <Time>2020-03-07T13:33:39.000Z</Time>
            <Position>
              <LatitudeDegrees>40.66916224546730518341064453125</LatitudeDegrees>
              <LongitudeDegrees>-3.75650254078209400177001953125</LongitudeDegrees>
            </Position>
            <AltitudeMeters>886.20001220703125</AltitudeMeters>
            <DistanceMeters>19612.880539504</DistanceMeters>
          </Trackpoint>
          <Trackpoint>
            <Time>2020-03-07T13:33:40.000Z</Time>
            <Position>
              <LatitudeDegrees>40.66919929347932338714599609375</LatitudeDegrees>
              <LongitudeDegrees>-3.75653355382382869720458984375</LongitudeDegrees>
            </Position>
            <AltitudeMeters>886.4000244140625</AltitudeMeters>
            <DistanceMeters>19617.764949598</DistanceMeters>
          </Trackpoint>
          <Trackpoint>
            <Time>2020-03-07T13:33:41.000Z</Time>
            <Position>
              <LatitudeDegrees>40.66923818551003932952880859375</LatitudeDegrees>
              <LongitudeDegrees>-3.75656473450362682342529296875</LongitudeDegrees>
            </Position>
            <AltitudeMeters>886.5999755859375</AltitudeMeters>
            <DistanceMeters>19622.830862867</DistanceMeters>
          </Trackpoint>
          <Trackpoint>
            <Time>2020-03-07T13:33:42.000Z</Time>
            <Position>
              <LatitudeDegrees>40.66927875392138957977294921875</LatitudeDegrees>
              <LongitudeDegrees>-3.7565959990024566650390625</LongitudeDegrees>
            </Position>
            <AltitudeMeters>886.79998779296875</AltitudeMeters>
            <DistanceMeters>19628.059923153</DistanceMeters>
          </Trackpoint>
          <Trackpoint>
            <Time>2020-03-07T13:33:43.000Z</Time>
            <Position>
              <LatitudeDegrees>40.6693199090659618377685546875</LatitudeDegrees>
              <LongitudeDegrees>-3.7566256709396839141845703125</LongitudeDegrees>
            </Position>
            <AltitudeMeters>887</AltitudeMeters>
            <DistanceMeters>19633.281206595</DistanceMeters>
          </Trackpoint>
          <Trackpoint>
            <Time>2020-03-07T13:33:44.000Z</Time>
            <Position>
              <LatitudeDegrees>40.66936056129634380340576171875</LatitudeDegrees>
              <LongitudeDegrees>-3.75665710307657718658447265625</LongitudeDegrees>
            </Position>
            <AltitudeMeters>887.4000244140625</AltitudeMeters>
            <DistanceMeters>19638.527507483</DistanceMeters>
          </Trackpoint>
          <Trackpoint>
            <Time>2020-03-07T13:33:45.000Z</Time>
            <Position>
              <LatitudeDegrees>40.6694003753364086151123046875</LatitudeDegrees>
              <LongitudeDegrees>-3.75668979249894618988037109375</LongitudeDegrees>
            </Position>
            <AltitudeMeters>887.5999755859375</AltitudeMeters>
            <DistanceMeters>19643.747926116</DistanceMeters>
          </Trackpoint>
          <Trackpoint>
            <Time>2020-03-07T13:33:46.000Z</Time>
            <Position>
              <LatitudeDegrees>40.669442452490329742431640625</LatitudeDegrees>
              <LongitudeDegrees>-3.756720386445522308349609375</LongitudeDegrees>
            </Position>
            <AltitudeMeters>887.79998779296875</AltitudeMeters>
            <DistanceMeters>19649.0965037</DistanceMeters>
          </Trackpoint>
          <Trackpoint>
            <Time>2020-03-07T13:33:47.000Z</Time>
            <Position>
              <LatitudeDegrees>40.6694836914539337158203125</LatitudeDegrees>
              <LongitudeDegrees>-3.7567470408976078033447265625</LongitudeDegrees>
            </Position>
            <AltitudeMeters>888</AltitudeMeters>
            <DistanceMeters>19654.207669042</DistanceMeters>
          </Trackpoint>
          <Trackpoint>
            <Time>2020-03-07T13:33:48.000Z</Time>
            <Position>
              <LatitudeDegrees>40.66952199675142765045166015625</LatitudeDegrees>
              <LongitudeDegrees>-3.7567728571593761444091796875</LongitudeDegrees>
            </Position>
            <AltitudeMeters>888.4000244140625</AltitudeMeters>
            <DistanceMeters>19658.99592176</DistanceMeters>
          </Trackpoint>
          <Trackpoint>
            <Time>2020-03-07T13:33:49.000Z</Time>
            <Position>
              <LatitudeDegrees>40.669559799134731292724609375</LatitudeDegrees>
              <LongitudeDegrees>-3.7567993439733982086181640625</LongitudeDegrees>
            </Position>
            <AltitudeMeters>888.4000244140625</AltitudeMeters>
            <DistanceMeters>19663.760542645</DistanceMeters>
          </Trackpoint>
          <Trackpoint>
            <Time>2020-03-07T13:33:50.000Z</Time>
            <Position>
              <LatitudeDegrees>40.66959793679416179656982421875</LatitudeDegrees>
              <LongitudeDegrees>-3.7568281777203083038330078125</LongitudeDegrees>
            </Position>
            <AltitudeMeters>888.5999755859375</AltitudeMeters>
            <DistanceMeters>19668.654187783</DistanceMeters>
          </Trackpoint>
          <Trackpoint>
            <Time>2020-03-07T13:33:51.000Z</Time>
            <Position>
              <LatitudeDegrees>40.669636242091655731201171875</LatitudeDegrees>
              <LongitudeDegrees>-3.75686128623783588409423828125</LongitudeDegrees>
            </Position>
            <AltitudeMeters>888.79998779296875</AltitudeMeters>
            <DistanceMeters>19673.752085389</DistanceMeters>
          </Trackpoint>
          <Trackpoint>
            <Time>2020-03-07T13:33:52.000Z</Time>
            <Position>
              <LatitudeDegrees>40.66967639140784740447998046875</LatitudeDegrees>
              <LongitudeDegrees>-3.75689464621245861053466796875</LongitudeDegrees>
            </Position>
            <AltitudeMeters>889.20001220703125</AltitudeMeters>
            <DistanceMeters>19679.033553569</DistanceMeters>
          </Trackpoint>
          <Trackpoint>
            <Time>2020-03-07T13:33:53.000Z</Time>
            <Position>
              <LatitudeDegrees>40.66971612162888050079345703125</LatitudeDegrees>
              <LongitudeDegrees>-3.75692800618708133697509765625</LongitudeDegrees>
            </Position>
            <AltitudeMeters>889.5999755859375</AltitudeMeters>
            <DistanceMeters>19684.276410872</DistanceMeters>
          </Trackpoint>
          <Trackpoint>
            <Time>2020-03-07T13:33:54.000Z</Time>
            <Position>
              <LatitudeDegrees>40.6697540916502475738525390625</LatitudeDegrees>
              <LongitudeDegrees>-3.75696203671395778656005859375</LongitudeDegrees>
            </Position>
            <AltitudeMeters>889.79998779296875</AltitudeMeters>
            <DistanceMeters>19689.386692769</DistanceMeters>
          </Trackpoint>
          <Trackpoint>
            <Time>2020-03-07T13:33:55.000Z</Time>
            <Position>
              <LatitudeDegrees>40.66979155875742435455322265625</LatitudeDegrees>
              <LongitudeDegrees>-3.7569944746792316436767578125</LongitudeDegrees>
            </Position>
            <AltitudeMeters>890</AltitudeMeters>
            <DistanceMeters>19694.37627399</DistanceMeters>
          </Trackpoint>
          <Trackpoint>
            <Time>2020-03-07T13:33:56.000Z</Time>
            <Position>
              <LatitudeDegrees>40.6698295287787914276123046875</LatitudeDegrees>
              <LongitudeDegrees>-3.7570226378738880157470703125</LongitudeDegrees>
            </Position>
            <AltitudeMeters>890.4000244140625</AltitudeMeters>
            <DistanceMeters>19699.224499334</DistanceMeters>
          </Trackpoint>
          <Trackpoint>
            <Time>2020-03-07T13:33:57.000Z</Time>
            <Position>
              <LatitudeDegrees>40.66986766643822193145751953125</LatitudeDegrees>
              <LongitudeDegrees>-3.75704686157405376434326171875</LongitudeDegrees>
            </Position>
            <AltitudeMeters>890.79998779296875</AltitudeMeters>
            <DistanceMeters>19703.935754782</DistanceMeters>
          </Trackpoint>
          <Trackpoint>
            <Time>2020-03-07T13:33:58.000Z</Time>
            <Position>
              <LatitudeDegrees>40.66990639083087444305419921875</LatitudeDegrees>
              <LongitudeDegrees>-3.757071085274219512939453125</LongitudeDegrees>
            </Position>
            <AltitudeMeters>891.20001220703125</AltitudeMeters>
            <DistanceMeters>19708.706057984</DistanceMeters>
          </Trackpoint>
          <Trackpoint>
            <Time>2020-03-07T13:33:59.000Z</Time>
            <Position>
              <LatitudeDegrees>40.669944696128368377685546875</LatitudeDegrees>
              <LongitudeDegrees>-3.7570967338979244232177734375</LongitudeDegrees>
            </Position>
            <AltitudeMeters>891.4000244140625</AltitudeMeters>
            <DistanceMeters>19713.487705562</DistanceMeters>
          </Trackpoint>
          <Trackpoint>
            <Time>2020-03-07T13:34:00.000Z</Time>
            <Position>
              <LatitudeDegrees>40.6699825823307037353515625</LatitudeDegrees>
              <LongitudeDegrees>-3.757124729454517364501953125</LongitudeDegrees>
            </Position>
            <AltitudeMeters>891.5999755859375</AltitudeMeters>
            <DistanceMeters>19718.321007514</DistanceMeters>
          </Trackpoint>
          <Trackpoint>
            <Time>2020-03-07T13:34:01.000Z</Time>
            <Position>
              <LatitudeDegrees>40.67001971416175365447998046875</LatitudeDegrees>
              <LongitudeDegrees>-3.7571547366678714752197265625</LongitudeDegrees>
            </Position>
            <AltitudeMeters>891.5999755859375</AltitudeMeters>
            <DistanceMeters>19723.168301491</DistanceMeters>
          </Trackpoint>
          <Trackpoint>
            <Time>2020-03-07T13:34:02.000Z</Time>
            <Position>
              <LatitudeDegrees>40.67005676217377185821533203125</LatitudeDegrees>
              <LongitudeDegrees>-3.75718449242413043975830078125</LongitudeDegrees>
            </Position>
            <AltitudeMeters>891.79998779296875</AltitudeMeters>
            <DistanceMeters>19727.996930425</DistanceMeters>
          </Trackpoint>
          <Trackpoint>
            <Time>2020-03-07T13:34:03.000Z</Time>
            <Position>
              <LatitudeDegrees>40.67009397782385349273681640625</LatitudeDegrees>
              <LongitudeDegrees>-3.757214583456516265869140625</LongitudeDegrees>
            </Position>
            <AltitudeMeters>891.79998779296875</AltitudeMeters>
            <DistanceMeters>19732.85538901</DistanceMeters>
          </Trackpoint>
          <Trackpoint>
            <Time>2020-03-07T13:34:04.000Z</Time>
            <Position>
              <LatitudeDegrees>40.67013169638812541961669921875</LatitudeDegrees>
              <LongitudeDegrees>-3.75724383629858493804931640625</LongitudeDegrees>
            </Position>
            <AltitudeMeters>892</AltitudeMeters>
            <DistanceMeters>19737.724986606</DistanceMeters>
          </Trackpoint>
          <Trackpoint>
            <Time>2020-03-07T13:34:05.000Z</Time>
            <Position>
              <LatitudeDegrees>40.67017008550465106964111328125</LatitudeDegrees>
              <LongitudeDegrees>-3.75727166421711444854736328125</LongitudeDegrees>
            </Position>
            <AltitudeMeters>892</AltitudeMeters>
            <DistanceMeters>19742.601070206</DistanceMeters>
          </Trackpoint>
          <Trackpoint>
            <Time>2020-03-07T13:34:06.000Z</Time>
            <Position>
              <LatitudeDegrees>40.67020864225924015045166015625</LatitudeDegrees>
              <LongitudeDegrees>-3.75729898922145366668701171875</LongitudeDegrees>
            </Position>
            <AltitudeMeters>892.20001220703125</AltitudeMeters>
            <DistanceMeters>19747.472521827</DistanceMeters>
          </Trackpoint>
          <Trackpoint>
            <Time>2020-03-07T13:34:07.000Z</Time>
            <Position>
              <LatitudeDegrees>40.6702466122806072235107421875</LatitudeDegrees>
              <LongitudeDegrees>-3.757326900959014892578125</LongitudeDegrees>
            </Position>
            <AltitudeMeters>892.4000244140625</AltitudeMeters>
            <DistanceMeters>19752.311425444</DistanceMeters>
          </Trackpoint>
          <Trackpoint>
            <Time>2020-03-07T13:34:08.000Z</Time>
            <Position>
              <LatitudeDegrees>40.67028441466391086578369140625</LatitudeDegrees>
              <LongitudeDegrees>-3.75735531561076641082763671875</LongitudeDegrees>
            </Position>
            <AltitudeMeters>892.5999755859375</AltitudeMeters>
            <DistanceMeters>19757.154059906</DistanceMeters>
          </Trackpoint>
          <Trackpoint>
            <Time>2020-03-07T13:34:09.000Z</Time>
            <Position>
              <LatitudeDegrees>40.6703220494091510772705078125</LatitudeDegrees>
              <LongitudeDegrees>-3.75738498754799365997314453125</LongitudeDegrees>
            </Position>
            <AltitudeMeters>892.79998779296875</AltitudeMeters>
            <DistanceMeters>19762.034771089</DistanceMeters>
          </Trackpoint>
          <Trackpoint>
            <Time>2020-03-07T13:34:10.000Z</Time>
            <Position>
              <LatitudeDegrees>40.67035985179245471954345703125</LatitudeDegrees>
              <LongitudeDegrees>-3.75741549767553806304931640625</LongitudeDegrees>
            </Position>
            <AltitudeMeters>893</AltitudeMeters>
            <DistanceMeters>19766.968845075</DistanceMeters>
          </Trackpoint>
          <Trackpoint>
            <Time>2020-03-07T13:34:11.000Z</Time>
            <Position>
              <LatitudeDegrees>40.6703978218138217926025390625</LatitudeDegrees>
              <LongitudeDegrees>-3.7574470974504947662353515625</LongitudeDegrees>
            </Position>
            <AltitudeMeters>893</AltitudeMeters>
            <DistanceMeters>19771.966563699</DistanceMeters>
          </Trackpoint>
          <Trackpoint>
            <Time>2020-03-07T13:34:12.000Z</Time>
            <Position>
              <LatitudeDegrees>40.6704367138445377349853515625</LatitudeDegrees>
              <LongitudeDegrees>-3.75747886486351490020751953125</LongitudeDegrees>
            </Position>
            <AltitudeMeters>893.20001220703125</AltitudeMeters>
            <DistanceMeters>19777.059144532</DistanceMeters>
          </Trackpoint>
          <Trackpoint>
            <Time>2020-03-07T13:34:13.000Z</Time>
            <Position>
              <LatitudeDegrees>40.670477114617824554443359375</LatitudeDegrees>
              <LongitudeDegrees>-3.75751088373363018035888671875</LongitudeDegrees>
            </Position>
            <AltitudeMeters>893.20001220703125</AltitudeMeters>
            <DistanceMeters>19782.30544542</DistanceMeters>
          </Trackpoint>
          <Trackpoint>
            <Time>2020-03-07T13:34:14.000Z</Time>
            <Position>
              <LatitudeDegrees>40.67051927559077739715576171875</LatitudeDegrees>
              <LongitudeDegrees>-3.7575453333556652069091796875</LongitudeDegrees>
            </Position>
            <AltitudeMeters>893.4000244140625</AltitudeMeters>
            <DistanceMeters>19787.825180732</DistanceMeters>
          </Trackpoint>
          <Trackpoint>
            <Time>2020-03-07T13:34:15.000Z</Time>
            <Position>
              <LatitudeDegrees>40.67056219093501567840576171875</LatitudeDegrees>
              <LongitudeDegrees>-3.75758238136768341064453125</LongitudeDegrees>
            </Position>
            <AltitudeMeters>893.4000244140625</AltitudeMeters>
            <DistanceMeters>19793.533906149</DistanceMeters>
          </Trackpoint>
          <Trackpoint>
            <Time>2020-03-07T13:34:16.000Z</Time>
            <Position>
              <LatitudeDegrees>40.67060611210763454437255859375</LatitudeDegrees>
              <LongitudeDegrees>-3.75761901028454303741455078125</LongitudeDegrees>
            </Position>
            <AltitudeMeters>893.4000244140625</AltitudeMeters>
            <DistanceMeters>19799.31805978</DistanceMeters>
          </Trackpoint>
          <Trackpoint>
            <Time>2020-03-07T13:34:17.000Z</Time>
            <Position>
              <LatitudeDegrees>40.6706539727747440338134765625</LatitudeDegrees>
              <LongitudeDegrees>-3.75765572302043437957763671875</LongitudeDegrees>
            </Position>
            <AltitudeMeters>893.4000244140625</AltitudeMeters>
            <DistanceMeters>19805.480892045</DistanceMeters>
          </Trackpoint>
          <Trackpoint>
            <Time>2020-03-07T13:34:18.000Z</Time>
            <Position>
              <LatitudeDegrees>40.67070904187858104705810546875</LatitudeDegrees>
              <LongitudeDegrees>-3.75769369304180145263671875</LongitudeDegrees>
            </Position>
            <AltitudeMeters>893.4000244140625</AltitudeMeters>
            <DistanceMeters>19812.39763586</DistanceMeters>
          </Trackpoint>
          <Trackpoint>
            <Time>2020-03-07T13:34:19.000Z</Time>
            <Position>
              <LatitudeDegrees>40.67076721228659152984619140625</LatitudeDegrees>
              <LongitudeDegrees>-3.75773166306316852569580078125</LongitudeDegrees>
            </Position>
            <AltitudeMeters>893.4000244140625</AltitudeMeters>
            <DistanceMeters>19819.622166422</DistanceMeters>
          </Trackpoint>
          <Trackpoint>
            <Time>2020-03-07T13:34:20.000Z</Time>
            <Position>
              <LatitudeDegrees>40.6708242930471897125244140625</LatitudeDegrees>
              <LongitudeDegrees>-3.75777005217969417572021484375</LongitudeDegrees>
            </Position>
            <AltitudeMeters>893.4000244140625</AltitudeMeters>
            <DistanceMeters>19826.75423629</DistanceMeters>
          </Trackpoint>
          <Trackpoint>
            <Time>2020-03-07T13:34:21.000Z</Time>
            <Position>
              <LatitudeDegrees>40.6708799488842487335205078125</LatitudeDegrees>
              <LongitudeDegrees>-3.7578108720481395721435546875</LongitudeDegrees>
            </Position>
            <AltitudeMeters>893.4000244140625</AltitudeMeters>
            <DistanceMeters>19833.843127276</DistanceMeters>
          </Trackpoint>
          <Trackpoint>
            <Time>2020-03-07T13:34:22.000Z</Time>
            <Position>
              <LatitudeDegrees>40.670935101807117462158203125</LatitudeDegrees>
              <LongitudeDegrees>-3.75785454176366329193115234375</LongitudeDegrees>
            </Position>
            <AltitudeMeters>893.4000244140625</AltitudeMeters>
            <DistanceMeters>19841.00362824</DistanceMeters>
          </Trackpoint>
          <Trackpoint>
            <Time>2020-03-07T13:34:23.000Z</Time>
            <Position>
              <LatitudeDegrees>40.67099067382514476776123046875</LatitudeDegrees>
              <LongitudeDegrees>-3.7578980438411235809326171875</LongitudeDegrees>
            </Position>
            <AltitudeMeters>893.4000244140625</AltitudeMeters>
            <DistanceMeters>19848.196842961</DistanceMeters>
          </Trackpoint>
          <Trackpoint>
            <Time>2020-03-07T13:34:24.000Z</Time>
            <Position>
              <LatitudeDegrees>40.67104767076671123504638671875</LatitudeDegrees>
              <LongitudeDegrees>-3.75794087536633014678955078125</LongitudeDegrees>
            </Position>
            <AltitudeMeters>893.4000244140625</AltitudeMeters>
            <DistanceMeters>19855.498457257</DistanceMeters>
          </Trackpoint>
          <Trackpoint>
            <Time>2020-03-07T13:34:25.000Z</Time>
            <Position>
              <LatitudeDegrees>40.6711049191653728485107421875</LatitudeDegrees>
              <LongitudeDegrees>-3.75798496417701244354248046875</LongitudeDegrees>
            </Position>
            <AltitudeMeters>893.4000244140625</AltitudeMeters>
            <DistanceMeters>19862.8775738</DistanceMeters>
          </Trackpoint>
          <Trackpoint>
            <Time>2020-03-07T13:34:26.000Z</Time>
            <Position>
              <LatitudeDegrees>40.6711622513830661773681640625</LatitudeDegrees>
              <LongitudeDegrees>-3.7580309808254241943359375</LongitudeDegrees>
            </Position>
            <AltitudeMeters>893.4000244140625</AltitudeMeters>
            <DistanceMeters>19870.347906619</DistanceMeters>
          </Trackpoint>
          <Trackpoint>
            <Time>2020-03-07T13:34:27.000Z</Time>
            <Position>
              <LatitudeDegrees>40.6712205894291400909423828125</LatitudeDegrees>
              <LongitudeDegrees>-3.7580780871212482452392578125</LongitudeDegrees>
            </Position>
            <AltitudeMeters>893.20001220703125</AltitudeMeters>
            <DistanceMeters>19877.961912842</DistanceMeters>
          </Trackpoint>
          <Trackpoint>
            <Time>2020-03-07T13:34:28.000Z</Time>
            <Position>
              <LatitudeDegrees>40.67127934657037258148193359375</LatitudeDegrees>
              <LongitudeDegrees>-3.75812686979770660400390625</LongitudeDegrees>
            </Position>
            <AltitudeMeters>893</AltitudeMeters>
            <DistanceMeters>19885.690687368</DistanceMeters>
          </Trackpoint>
          <Trackpoint>
            <Time>2020-03-07T13:34:29.000Z</Time>
            <Position>
              <LatitudeDegrees>40.67133952863514423370361328125</LatitudeDegrees>
              <LongitudeDegrees>-3.75817514955997467041015625</LongitudeDegrees>
            </Position>
            <AltitudeMeters>893</AltitudeMeters>
            <DistanceMeters>19893.531974923</DistanceMeters>
          </Trackpoint>
          <Trackpoint>
            <Time>2020-03-07T13:34:30.000Z</Time>
            <Position>
              <LatitudeDegrees>40.67140071652829647064208984375</LatitudeDegrees>
              <LongitudeDegrees>-3.7582240998744964599609375</LongitudeDegrees>
            </Position>
            <AltitudeMeters>892.79998779296875</AltitudeMeters>
            <DistanceMeters>19901.498365401</DistanceMeters>
          </Trackpoint>
          <Trackpoint>
            <Time>2020-03-07T13:34:31.000Z</Time>
            <Position>
              <LatitudeDegrees>40.671462826430797576904296875</LatitudeDegrees>
              <LongitudeDegrees>-3.75827330164611339569091796875</LongitudeDegrees>
            </Position>
            <AltitudeMeters>892.79998779296875</AltitudeMeters>
            <DistanceMeters>19909.562769318</DistanceMeters>
          </Trackpoint>
          <Trackpoint>
            <Time>2020-03-07T13:34:32.000Z</Time>
            <Position>
              <LatitudeDegrees>40.6715256907045841217041015625</LatitudeDegrees>
              <LongitudeDegrees>-3.7583228386938571929931640625</LongitudeDegrees>
            </Position>
            <AltitudeMeters>892.5999755859375</AltitudeMeters>
            <DistanceMeters>19917.713491519</DistanceMeters>
          </Trackpoint>
          <Trackpoint>
            <Time>2020-03-07T13:34:33.000Z</Time>
            <Position>
              <LatitudeDegrees>40.67158947698771953582763671875</LatitudeDegrees>
              <LongitudeDegrees>-3.75837254337966442108154296875</LongitudeDegrees>
            </Position>
            <AltitudeMeters>892.4000244140625</AltitudeMeters>
            <DistanceMeters>19925.960584084</DistanceMeters>
          </Trackpoint>
          <Trackpoint>
            <Time>2020-03-07T13:34:34.000Z</Time>
            <Position>
              <LatitudeDegrees>40.67165435291826725006103515625</LatitudeDegrees>
              <LongitudeDegrees>-3.758422248065471649169921875</LongitudeDegrees>
            </Position>
            <AltitudeMeters>892.20001220703125</AltitudeMeters>
            <DistanceMeters>19934.312129478</DistanceMeters>
          </Trackpoint>
          <Trackpoint>
            <Time>2020-03-07T13:34:35.000Z</Time>
            <Position>
              <LatitudeDegrees>40.67171973176300525665283203125</LatitudeDegrees>
              <LongitudeDegrees>-3.75847111456096172332763671875</LongitudeDegrees>
            </Position>
            <AltitudeMeters>892.20001220703125</AltitudeMeters>
            <DistanceMeters>19942.677179529</DistanceMeters>
          </Trackpoint>
          <Trackpoint>
            <Time>2020-03-07T13:34:36.000Z</Time>
            <Position>
              <LatitudeDegrees>40.67178611643612384796142578125</LatitudeDegrees>
              <LongitudeDegrees>-3.75852090306580066680908203125</LongitudeDegrees>
            </Position>
            <AltitudeMeters>892</AltitudeMeters>
            <DistanceMeters>19951.177689614</DistanceMeters>
          </Trackpoint>
          <Trackpoint>
            <Time>2020-03-07T13:34:37.000Z</Time>
            <Position>
              <LatitudeDegrees>40.67185250110924243927001953125</LatitudeDegrees>
              <LongitudeDegrees>-3.75857119448482990264892578125</LongitudeDegrees>
            </Position>
            <AltitudeMeters>892</AltitudeMeters>
            <DistanceMeters>19959.699419178</DistanceMeters>
          </Trackpoint>
          <Trackpoint>
            <Time>2020-03-07T13:34:38.000Z</Time>
            <Position>
              <LatitudeDegrees>40.67191846668720245361328125</LatitudeDegrees>
              <LongitudeDegrees>-3.758621402084827423095703125</LongitudeDegrees>
            </Position>
            <AltitudeMeters>891.79998779296875</AltitudeMeters>
            <DistanceMeters>19968.176526488</DistanceMeters>
          </Trackpoint>
          <Trackpoint>
            <Time>2020-03-07T13:34:39.000Z</Time>
            <Position>
              <LatitudeDegrees>40.671983845531940460205078125</LatitudeDegrees>
              <LongitudeDegrees>-3.7586711905896663665771484375</LongitudeDegrees>
            </Position>
            <AltitudeMeters>891.4000244140625</AltitudeMeters>
            <DistanceMeters>19976.579811428</DistanceMeters>
          </Trackpoint>
          <Trackpoint>
            <Time>2020-03-07T13:34:40.000Z</Time>
            <Position>
              <LatitudeDegrees>40.67204830236732959747314453125</LatitudeDegrees>
              <LongitudeDegrees>-3.75872156582772731781005859375</LongitudeDegrees>
            </Position>
            <AltitudeMeters>891.20001220703125</AltitudeMeters>
            <DistanceMeters>19984.919454632</DistanceMeters>
          </Trackpoint>
          <Trackpoint>
            <Time>2020-03-07T13:34:41.000Z</Time>
            <Position>
              <LatitudeDegrees>40.672111921012401580810546875</LatitudeDegrees>
              <LongitudeDegrees>-3.7587721087038516998291015625</LongitudeDegrees>
            </Position>
            <AltitudeMeters>891.20001220703125</AltitudeMeters>
            <DistanceMeters>19993.186232634</DistanceMeters>
          </Trackpoint>
          <Trackpoint>
            <Time>2020-03-07T13:34:42.000Z</Time>
            <Position>
              <LatitudeDegrees>40.67217520438134670257568359375</LatitudeDegrees>
              <LongitudeDegrees>-3.758821897208690643310546875</LongitudeDegrees>
            </Position>
            <AltitudeMeters>891</AltitudeMeters>
            <DistanceMeters>20001.38830978</DistanceMeters>
          </Trackpoint>
          <Trackpoint>
            <Time>2020-03-07T13:34:43.000Z</Time>
            <Position>
              <LatitudeDegrees>40.67223857156932353973388671875</LatitudeDegrees>
              <LongitudeDegrees>-3.7588706798851490020751953125</LongitudeDegrees>
            </Position>
            <AltitudeMeters>890.79998779296875</AltitudeMeters>
            <DistanceMeters>20009.555633374</DistanceMeters>
          </Trackpoint>
          <Trackpoint>
            <Time>2020-03-07T13:34:44.000Z</Time>
            <Position>
              <LatitudeDegrees>40.67230126820504665374755859375</LatitudeDegrees>
              <LongitudeDegrees>-3.75891803763806819915771484375</LongitudeDegrees>
            </Position>
            <AltitudeMeters>890.79998779296875</AltitudeMeters>
            <DistanceMeters>20017.597611209</DistanceMeters>
          </Trackpoint>
          <Trackpoint>
            <Time>2020-03-07T13:34:45.000Z</Time>
            <Position>
              <LatitudeDegrees>40.67236379720270633697509765625</LatitudeDegrees>
              <LongitudeDegrees>-3.7589652277529239654541015625</LongitudeDegrees>
            </Position>
            <AltitudeMeters>890.79998779296875</AltitudeMeters>
            <DistanceMeters>20025.616537219</DistanceMeters>
          </Trackpoint>
          <Trackpoint>
            <Time>2020-03-07T13:34:46.000Z</Time>
            <Position>
              <LatitudeDegrees>40.6724262423813343048095703125</LatitudeDegrees>
              <LongitudeDegrees>-3.75901258550584316253662109375</LongitudeDegrees>
            </Position>
            <AltitudeMeters>890.5999755859375</AltitudeMeters>
            <DistanceMeters>20033.634337054</DistanceMeters>
          </Trackpoint>
          <Trackpoint>
            <Time>2020-03-07T13:34:47.000Z</Time>
            <Position>
              <LatitudeDegrees>40.67248868755996227264404296875</LatitudeDegrees>
              <LongitudeDegrees>-3.75905851833522319793701171875</LongitudeDegrees>
            </Position>
            <AltitudeMeters>890.5999755859375</AltitudeMeters>
            <DistanceMeters>20041.592788925</DistanceMeters>
          </Trackpoint>
          <Trackpoint>
            <Time>2020-03-07T13:34:48.000Z</Time>
            <Position>
              <LatitudeDegrees>40.67255121655762195587158203125</LatitudeDegrees>
              <LongitudeDegrees>-3.7591038644313812255859375</LongitudeDegrees>
            </Position>
            <AltitudeMeters>890.5999755859375</AltitudeMeters>
            <DistanceMeters>20049.535908219</DistanceMeters>
          </Trackpoint>
          <Trackpoint>
            <Time>2020-03-07T13:34:49.000Z</Time>
            <Position>
              <LatitudeDegrees>40.6726138293743133544921875</LatitudeDegrees>
              <LongitudeDegrees>-3.75914803706109523773193359375</LongitudeDegrees>
            </Position>
            <AltitudeMeters>890.5999755859375</AltitudeMeters>
            <DistanceMeters>20057.43970913</DistanceMeters>
          </Trackpoint>
          <Trackpoint>
            <Time>2020-03-07T13:34:50.000Z</Time>
            <Position>
              <LatitudeDegrees>40.6726755201816558837890625</LatitudeDegrees>
              <LongitudeDegrees>-3.759193383157253265380859375</LongitudeDegrees>
            </Position>
            <AltitudeMeters>890.5999755859375</AltitudeMeters>
            <DistanceMeters>20065.301123963</DistanceMeters>
          </Trackpoint>
          <Trackpoint>
            <Time>2020-03-07T13:34:51.000Z</Time>
            <Position>
              <LatitudeDegrees>40.67273645661771297454833984375</LatitudeDegrees>
              <LongitudeDegrees>-3.75924141146242618560791015625</LongitudeDegrees>
            </Position>
            <AltitudeMeters>890.5999755859375</AltitudeMeters>
            <DistanceMeters>20073.203782293</DistanceMeters>
          </Trackpoint>
          <Trackpoint>
            <Time>2020-03-07T13:34:52.000Z</Time>
            <Position>
              <LatitudeDegrees>40.6727983988821506500244140625</LatitudeDegrees>
              <LongitudeDegrees>-3.7592901103198528289794921875</LongitudeDegrees>
            </Position>
            <AltitudeMeters>890.5999755859375</AltitudeMeters>
            <DistanceMeters>20081.231149577</DistanceMeters>
          </Trackpoint>
          <Trackpoint>
            <Time>2020-03-07T13:34:53.000Z</Time>
            <Position>
              <LatitudeDegrees>40.67286201752722263336181640625</LatitudeDegrees>
              <LongitudeDegrees>-3.75933931209146976470947265625</LongitudeDegrees>
            </Position>
            <AltitudeMeters>890.5999755859375</AltitudeMeters>
            <DistanceMeters>20089.440379778</DistanceMeters>
          </Trackpoint>
          <Trackpoint>
            <Time>2020-03-07T13:34:54.000Z</Time>
            <Position>
              <LatitudeDegrees>40.67292722873389720916748046875</LatitudeDegrees>
              <LongitudeDegrees>-3.7593896873295307159423828125</LongitudeDegrees>
            </Position>
            <AltitudeMeters>890.5999755859375</AltitudeMeters>
            <DistanceMeters>20097.851720274</DistanceMeters>
          </Trackpoint>
          <Trackpoint>
            <Time>2020-03-07T13:34:55.000Z</Time>
            <Position>
              <LatitudeDegrees>40.67299411632120609283447265625</LatitudeDegrees>
              <LongitudeDegrees>-3.75944056548178195953369140625</LongitudeDegrees>
            </Position>
            <AltitudeMeters>890.5999755859375</AltitudeMeters>
            <DistanceMeters>20106.446254893</DistanceMeters>
          </Trackpoint>
          <Trackpoint>
            <Time>2020-03-07T13:34:56.000Z</Time>
            <Position>
              <LatitudeDegrees>40.673062093555927276611328125</LatitudeDegrees>
              <LongitudeDegrees>-3.75949152745306491851806640625</LongitudeDegrees>
            </Position>
            <AltitudeMeters>890.5999755859375</AltitudeMeters>
            <DistanceMeters>20115.15041145</DistanceMeters>
          </Trackpoint>
          <Trackpoint>
            <Time>2020-03-07T13:34:57.000Z</Time>
            <Position>
              <LatitudeDegrees>40.67313023842871189117431640625</LatitudeDegrees>
              <LongitudeDegrees>-3.7595445849001407623291015625</LongitudeDegrees>
            </Position>
            <AltitudeMeters>890.5999755859375</AltitudeMeters>
            <DistanceMeters>20123.958726658</DistanceMeters>
          </Trackpoint>
          <Trackpoint>
            <Time>2020-03-07T13:34:58.000Z</Time>
            <Position>
              <LatitudeDegrees>40.67319863475859165191650390625</LatitudeDegrees>
              <LongitudeDegrees>-3.7595972232520580291748046875</LongitudeDegrees>
            </Position>
            <AltitudeMeters>890.5999755859375</AltitudeMeters>
            <DistanceMeters>20132.773190778</DistanceMeters>
          </Trackpoint>
          <Trackpoint>
            <Time>2020-03-07T13:34:59.000Z</Time>
            <Position>
              <LatitudeDegrees>40.67326719872653484344482421875</LatitudeDegrees>
              <LongitudeDegrees>-3.75964709557592868804931640625</LongitudeDegrees>
            </Position>
            <AltitudeMeters>890.5999755859375</AltitudeMeters>
            <DistanceMeters>20141.48875175</DistanceMeters>
          </Trackpoint>
          <Trackpoint>
            <Time>2020-03-07T13:35:00.000Z</Time>
            <Position>
              <LatitudeDegrees>40.67333509214222431182861328125</LatitudeDegrees>
              <LongitudeDegrees>-3.75969654880464076995849609375</LongitudeDegrees>
            </Position>
            <AltitudeMeters>890.4000244140625</AltitudeMeters>
            <DistanceMeters>20150.122073878</DistanceMeters>
          </Trackpoint>
          <Trackpoint>
            <Time>2020-03-07T13:35:01.000Z</Time>
            <Position>
              <LatitudeDegrees>40.673400051891803741455078125</LatitudeDegrees>
              <LongitudeDegrees>-3.7597487680613994598388671875</LongitudeDegrees>
            </Position>
            <AltitudeMeters>890.4000244140625</AltitudeMeters>
            <DistanceMeters>20158.589588682</DistanceMeters>
          </Trackpoint>
          <Trackpoint>
            <Time>2020-03-07T13:35:02.000Z</Time>
            <Position>
              <LatitudeDegrees>40.6734625808894634246826171875</LatitudeDegrees>
              <LongitudeDegrees>-3.7598030827939510345458984375</LongitudeDegrees>
            </Position>
            <AltitudeMeters>890.4000244140625</AltitudeMeters>
            <DistanceMeters>20166.923816181</DistanceMeters>
          </Trackpoint>
          <Trackpoint>
            <Time>2020-03-07T13:35:03.000Z</Time>
            <Position>
              <LatitudeDegrees>40.67352469079196453094482421875</LatitudeDegrees>
              <LongitudeDegrees>-3.75985479913651943206787109375</LongitudeDegrees>
            </Position>
            <AltitudeMeters>890.5999755859375</AltitudeMeters>
            <DistanceMeters>20175.09942783</DistanceMeters>
          </Trackpoint>
          <Trackpoint>
            <Time>2020-03-07T13:35:04.000Z</Time>
            <Position>
              <LatitudeDegrees>40.67358688451349735260009765625</LatitudeDegrees>
              <LongitudeDegrees>-3.75990257598459720611572265625</LongitudeDegrees>
            </Position>
            <AltitudeMeters>890.5999755859375</AltitudeMeters>
            <DistanceMeters>20183.110467294</DistanceMeters>
          </Trackpoint>
          <Trackpoint>
            <Time>2020-03-07T13:35:05.000Z</Time>
            <Position>
              <LatitudeDegrees>40.6736486591398715972900390625</LatitudeDegrees>
              <LongitudeDegrees>-3.7599482573568820953369140625</LongitudeDegrees>
            </Position>
            <AltitudeMeters>890.5999755859375</AltitudeMeters>
            <DistanceMeters>20190.993676418</DistanceMeters>
          </Trackpoint>
          <Trackpoint>
            <Time>2020-03-07T13:35:06.000Z</Time>
            <Position>
              <LatitudeDegrees>40.67370959557592868804931640625</LatitudeDegrees>
              <LongitudeDegrees>-3.75999360345304012298583984375</LongitudeDegrees>
            </Position>
            <AltitudeMeters>890.5999755859375</AltitudeMeters>
            <DistanceMeters>20198.781809922</DistanceMeters>
          </Trackpoint>
          <Trackpoint>
            <Time>2020-03-07T13:35:07.000Z</Time>
            <Position>
              <LatitudeDegrees>40.67377053201198577880859375</LatitudeDegrees>
              <LongitudeDegrees>-3.76003869809210300445556640625</LongitudeDegrees>
            </Position>
            <AltitudeMeters>890.5999755859375</AltitudeMeters>
            <DistanceMeters>20206.559501231</DistanceMeters>
          </Trackpoint>
          <Trackpoint>
            <Time>2020-03-07T13:35:08.000Z</Time>
            <Position>
              <LatitudeDegrees>40.67383213900029659271240234375</LatitudeDegrees>
              <LongitudeDegrees>-3.76008127816021442413330078125</LongitudeDegrees>
            </Position>
            <AltitudeMeters>890.5999755859375</AltitudeMeters>
            <DistanceMeters>20214.301700365</DistanceMeters>
          </Trackpoint>
          <Trackpoint>
            <Time>2020-03-07T13:35:09.000Z</Time>
            <Position>
              <LatitudeDegrees>40.67389391362667083740234375</LatitudeDegrees>
              <LongitudeDegrees>-3.7601222656667232513427734375</LongitudeDegrees>
            </Position>
            <AltitudeMeters>890.5999755859375</AltitudeMeters>
            <DistanceMeters>20221.998864229</DistanceMeters>
          </Trackpoint>
          <Trackpoint>
            <Time>2020-03-07T13:35:10.000Z</Time>
            <Position>
              <LatitudeDegrees>40.67395552061498165130615234375</LatitudeDegrees>
              <LongitudeDegrees>-3.76016442663967609405517578125</LongitudeDegrees>
            </Position>
            <AltitudeMeters>890.5999755859375</AltitudeMeters>
            <DistanceMeters>20229.724717275</DistanceMeters>
          </Trackpoint>
          <Trackpoint>
            <Time>2020-03-07T13:35:11.000Z</Time>
            <Position>
              <LatitudeDegrees>40.67401687614619731903076171875</LatitudeDegrees>
              <LongitudeDegrees>-3.7602080963551998138427734375</LongitudeDegrees>
            </Position>
            <AltitudeMeters>890.5999755859375</AltitudeMeters>
            <DistanceMeters>20237.485555496</DistanceMeters>
          </Trackpoint>
          <Trackpoint>
            <Time>2020-03-07T13:35:12.000Z</Time>
            <Position>
              <LatitudeDegrees>40.67407722584903240203857421875</LatitudeDegrees>
              <LongitudeDegrees>-3.76025411300361156463623046875</LongitudeDegrees>
            </Position>
            <AltitudeMeters>890.5999755859375</AltitudeMeters>
            <DistanceMeters>20245.244648204</DistanceMeters>
          </Trackpoint>
          <Trackpoint>
            <Time>2020-03-07T13:35:13.000Z</Time>
            <Position>
              <LatitudeDegrees>40.6741371564567089080810546875</LatitudeDegrees>
              <LongitudeDegrees>-3.76030071638524532318115234375</LongitudeDegrees>
            </Position>
            <AltitudeMeters>890.79998779296875</AltitudeMeters>
            <DistanceMeters>20252.989179677</DistanceMeters>
          </Trackpoint>
          <Trackpoint>
            <Time>2020-03-07T13:35:14.000Z</Time>
            <Position>
              <LatitudeDegrees>40.674196667969226837158203125</LatitudeDegrees>
              <LongitudeDegrees>-3.76034648157656192779541015625</LongitudeDegrees>
            </Position>
            <AltitudeMeters>891</AltitudeMeters>
            <DistanceMeters>20260.656958216</DistanceMeters>
          </Trackpoint>
          <Trackpoint>
            <Time>2020-03-07T13:35:15.000Z</Time>
            <Position>
              <LatitudeDegrees>40.67425525747239589691162109375</LatitudeDegrees>
              <LongitudeDegrees>-3.760389648377895355224609375</LongitudeDegrees>
            </Position>
            <AltitudeMeters>891.4000244140625</AltitudeMeters>
            <DistanceMeters>20268.126686615</DistanceMeters>
          </Trackpoint>
          <Trackpoint>
            <Time>2020-03-07T13:35:16.000Z</Time>
            <Position>
              <LatitudeDegrees>40.67431191913783550262451171875</LatitudeDegrees>
              <LongitudeDegrees>-3.76043197698891162872314453125</LongitudeDegrees>
            </Position>
            <AltitudeMeters>891.79998779296875</AltitudeMeters>
            <DistanceMeters>20275.374926729</DistanceMeters>
          </Trackpoint>
          <Trackpoint>
            <Time>2020-03-07T13:35:17.000Z</Time>
            <Position>
              <LatitudeDegrees>40.67436673678457736968994140625</LatitudeDegrees>
              <LongitudeDegrees>-3.76047355122864246368408203125</LongitudeDegrees>
            </Position>
            <AltitudeMeters>892</AltitudeMeters>
            <DistanceMeters>20282.413321387</DistanceMeters>
          </Trackpoint>
          <Trackpoint>
            <Time>2020-03-07T13:35:18.000Z</Time>
            <Position>
              <LatitudeDegrees>40.67441903986036777496337890625</LatitudeDegrees>
              <LongitudeDegrees>-3.76051462255418300628662109375</LongitudeDegrees>
            </Position>
            <AltitudeMeters>892.20001220703125</AltitudeMeters>
            <DistanceMeters>20289.188932699</DistanceMeters>
          </Trackpoint>
          <Trackpoint>
            <Time>2020-03-07T13:35:19.000Z</Time>
            <Position>
              <LatitudeDegrees>40.67446924746036529541015625</LatitudeDegrees>
              <LongitudeDegrees>-3.76055502332746982574462890625</LongitudeDegrees>
            </Position>
            <AltitudeMeters>892.4000244140625</AltitudeMeters>
            <DistanceMeters>20295.735438851</DistanceMeters>
          </Trackpoint>
          <Trackpoint>
            <Time>2020-03-07T13:35:20.000Z</Time>
            <Position>
              <LatitudeDegrees>40.6745183654129505157470703125</LatitudeDegrees>
              <LongitudeDegrees>-3.7605929933488368988037109375</LongitudeDegrees>
            </Position>
            <AltitudeMeters>892.5999755859375</AltitudeMeters>
            <DistanceMeters>20302.072374226</DistanceMeters>
          </Trackpoint>
          <Trackpoint>
            <Time>2020-03-07T13:35:21.000Z</Time>
            <Position>
              <LatitudeDegrees>40.6745664775371551513671875</LatitudeDegrees>
              <LongitudeDegrees>-3.76062962226569652557373046875</LongitudeDegrees>
            </Position>
            <AltitudeMeters>892.79998779296875</AltitudeMeters>
            <DistanceMeters>20308.256416087</DistanceMeters>
          </Trackpoint>
          <Trackpoint>
            <Time>2020-03-07T13:35:22.000Z</Time>
            <Position>
              <LatitudeDegrees>40.67461215890944004058837890625</LatitudeDegrees>
              <LongitudeDegrees>-3.76066750846803188323974609375</LongitudeDegrees>
            </Position>
            <AltitudeMeters>892.79998779296875</AltitudeMeters>
            <DistanceMeters>20314.263427446</DistanceMeters>
          </Trackpoint>
          <Trackpoint>
            <Time>2020-03-07T13:35:23.000Z</Time>
            <Position>
              <LatitudeDegrees>40.674655996263027191162109375</LatitudeDegrees>
              <LongitudeDegrees>-3.760706819593906402587890625</LongitudeDegrees>
            </Position>
            <AltitudeMeters>893</AltitudeMeters>
            <DistanceMeters>20320.162742204</DistanceMeters>
          </Trackpoint>
          <Trackpoint>
            <Time>2020-03-07T13:35:24.000Z</Time>
            <Position>
              <LatitudeDegrees>40.67469991743564605712890625</LatitudeDegrees>
              <LongitudeDegrees>-3.7607452087104320526123046875</LongitudeDegrees>
            </Position>
            <AltitudeMeters>893.4000244140625</AltitudeMeters>
            <DistanceMeters>20326.028284912</DistanceMeters>
          </Trackpoint>
          <Trackpoint>
            <Time>2020-03-07T13:35:25.000Z</Time>
            <Position>
              <LatitudeDegrees>40.67474291659891605377197265625</LatitudeDegrees>
              <LongitudeDegrees>-3.76078418456017971038818359375</LongitudeDegrees>
            </Position>
            <AltitudeMeters>893.79998779296875</AltitudeMeters>
            <DistanceMeters>20331.83658635</DistanceMeters>
          </Trackpoint>
          <Trackpoint>
            <Time>2020-03-07T13:35:26.000Z</Time>
            <Position>
              <LatitudeDegrees>40.67478499375283718109130859375</LatitudeDegrees>
              <LongitudeDegrees>-3.76082458533346652984619140625</LongitudeDegrees>
            </Position>
            <AltitudeMeters>894</AltitudeMeters>
            <DistanceMeters>20337.630099458</DistanceMeters>
          </Trackpoint>
          <Trackpoint>
            <Time>2020-03-07T13:35:27.000Z</Time>
            <Position>
              <LatitudeDegrees>40.6748278252780437469482421875</LatitudeDegrees>
              <LongitudeDegrees>-3.7608649022877216339111328125</LongitudeDegrees>
            </Position>
            <AltitudeMeters>894.20001220703125</AltitudeMeters>
            <DistanceMeters>20343.487168726</DistanceMeters>
          </Trackpoint>
          <Trackpoint>
            <Time>2020-03-07T13:35:28.000Z</Time>
            <Position>
              <LatitudeDegrees>40.6748710758984088897705078125</LatitudeDegrees>
              <LongitudeDegrees>-3.76090387813746929168701171875</LongitudeDegrees>
            </Position>
            <AltitudeMeters>894.79998779296875</AltitudeMeters>
            <DistanceMeters>20349.317969513</DistanceMeters>
          </Trackpoint>
          <Trackpoint>
            <Time>2020-03-07T13:35:29.000Z</Time>
            <Position>
              <LatitudeDegrees>40.67491474561393260955810546875</LatitudeDegrees>
              <LongitudeDegrees>-3.76094059087336063385009765625</LongitudeDegrees>
            </Position>
            <AltitudeMeters>895.20001220703125</AltitudeMeters>
            <DistanceMeters>20355.082575424</DistanceMeters>
          </Trackpoint>
          <Trackpoint>
            <Time>2020-03-07T13:35:30.000Z</Time>
            <Position>
              <LatitudeDegrees>40.67495900206267833709716796875</LatitudeDegrees>
              <LongitudeDegrees>-3.76097428612411022186279296875</LongitudeDegrees>
            </Position>
            <AltitudeMeters>896</AltitudeMeters>
            <DistanceMeters>20360.771493949</DistanceMeters>
          </Trackpoint>
          <Trackpoint>
            <Time>2020-03-07T13:35:31.000Z</Time>
            <Position>
              <LatitudeDegrees>40.6750035099685192108154296875</LatitudeDegrees>
              <LongitudeDegrees>-3.76100622117519378662109375</LongitudeDegrees>
            </Position>
            <AltitudeMeters>896.4000244140625</AltitudeMeters>
            <DistanceMeters>20366.411791752</DistanceMeters>
          </Trackpoint>
          <Trackpoint>
            <Time>2020-03-07T13:35:32.000Z</Time>
            <Position>
              <LatitudeDegrees>40.67504684440791606903076171875</LatitudeDegrees>
              <LongitudeDegrees>-3.76103949733078479766845703125</LongitudeDegrees>
            </Position>
            <AltitudeMeters>896.79998779296875</AltitudeMeters>
            <DistanceMeters>20371.993347425</DistanceMeters>
          </Trackpoint>
          <Trackpoint>
            <Time>2020-03-07T13:35:33.000Z</Time>
            <Position>
              <LatitudeDegrees>40.67508959211409091949462890625</LatitudeDegrees>
              <LongitudeDegrees>-3.76107436604797840118408203125</LongitudeDegrees>
            </Position>
            <AltitudeMeters>897.20001220703125</AltitudeMeters>
            <DistanceMeters>20377.587023755</DistanceMeters>
          </Trackpoint>
          <Trackpoint>
            <Time>2020-03-07T13:35:34.000Z</Time>
            <Position>
              <LatitudeDegrees>40.67513267509639263153076171875</LatitudeDegrees>
              <LongitudeDegrees>-3.761109150946140289306640625</LongitudeDegrees>
            </Position>
            <AltitudeMeters>897.4000244140625</AltitudeMeters>
            <DistanceMeters>20383.210486007</DistanceMeters>
          </Trackpoint>
          <Trackpoint>
            <Time>2020-03-07T13:35:35.000Z</Time>
            <Position>
              <LatitudeDegrees>40.67517609335482120513916015625</LatitudeDegrees>
              <LongitudeDegrees>-3.76114360056817531585693359375</LongitudeDegrees>
            </Position>
            <AltitudeMeters>897.5999755859375</AltitudeMeters>
            <DistanceMeters>20388.850783811</DistanceMeters>
          </Trackpoint>
          <Trackpoint>
            <Time>2020-03-07T13:35:36.000Z</Time>
            <Position>
              <LatitudeDegrees>40.67521884106099605560302734375</LatitudeDegrees>
              <LongitudeDegrees>-3.76117964275181293487548828125</LongitudeDegrees>
            </Position>
            <AltitudeMeters>897.79998779296875</AltitudeMeters>
            <DistanceMeters>20394.498281487</DistanceMeters>
          </Trackpoint>
          <Trackpoint>
            <Time>2020-03-07T13:35:37.000Z</Time>
            <Position>
              <LatitudeDegrees>40.675261504948139190673828125</LatitudeDegrees>
              <LongitudeDegrees>-3.761215098202228546142578125</LongitudeDegrees>
            </Position>
            <AltitudeMeters>898</AltitudeMeters>
            <DistanceMeters>20400.112100756</DistanceMeters>
          </Trackpoint>
          <Trackpoint>
            <Time>2020-03-07T13:35:38.000Z</Time>
            <Position>
              <LatitudeDegrees>40.67530400119721889495849609375</LatitudeDegrees>
              <LongitudeDegrees>-3.761249966919422149658203125</LongitudeDegrees>
            </Position>
            <AltitudeMeters>898.4000244140625</AltitudeMeters>
            <DistanceMeters>20405.68313053</DistanceMeters>
          </Trackpoint>
          <Trackpoint>
            <Time>2020-03-07T13:35:39.000Z</Time>
            <Position>
              <LatitudeDegrees>40.675345994532108306884765625</LatitudeDegrees>
              <LongitudeDegrees>-3.76128575764596462249755859375</LongitudeDegrees>
            </Position>
            <AltitudeMeters>898.5999755859375</AltitudeMeters>
            <DistanceMeters>20411.249295482</DistanceMeters>
          </Trackpoint>
          <Trackpoint>
            <Time>2020-03-07T13:35:40.000Z</Time>
            <Position>
              <LatitudeDegrees>40.67538790404796600341796875</LatitudeDegrees>
              <LongitudeDegrees>-3.761321045458316802978515625</LongitudeDegrees>
            </Position>
            <AltitudeMeters>898.79998779296875</AltitudeMeters>
            <DistanceMeters>20416.783734866</DistanceMeters>
          </Trackpoint>
          <Trackpoint>
            <Time>2020-03-07T13:35:41.000Z</Time>
            <Position>
              <LatitudeDegrees>40.67543006502091884613037109375</LatitudeDegrees>
              <LongitudeDegrees>-3.7613560818135738372802734375</LongitudeDegrees>
            </Position>
            <AltitudeMeters>899</AltitudeMeters>
            <DistanceMeters>20422.331211817</DistanceMeters>
          </Trackpoint>
          <Trackpoint>
            <Time>2020-03-07T13:35:42.000Z</Time>
            <Position>
              <LatitudeDegrees>40.67547247745096683502197265625</LatitudeDegrees>
              <LongitudeDegrees>-3.76139153726398944854736328125</LongitudeDegrees>
            </Position>
            <AltitudeMeters>899.20001220703125</AltitudeMeters>
            <DistanceMeters>20427.920850848</DistanceMeters>
          </Trackpoint>
          <Trackpoint>
            <Time>2020-03-07T13:35:43.000Z</Time>
            <Position>
              <LatitudeDegrees>40.67551530897617340087890625</LatitudeDegrees>
              <LongitudeDegrees>-3.7614271603524684906005859375</LongitudeDegrees>
            </Position>
            <AltitudeMeters>899.20001220703125</AltitudeMeters>
            <DistanceMeters>20433.557144748</DistanceMeters>
          </Trackpoint>
          <Trackpoint>
            <Time>2020-03-07T13:35:44.000Z</Time>
            <Position>
              <LatitudeDegrees>40.67555780522525310516357421875</LatitudeDegrees>
              <LongitudeDegrees>-3.7614640407264232635498046875</LongitudeDegrees>
            </Position>
            <AltitudeMeters>899.4000244140625</AltitudeMeters>
            <DistanceMeters>20439.220609371</DistanceMeters>
          </Trackpoint>
          <Trackpoint>
            <Time>2020-03-07T13:35:45.000Z</Time>
            <Position>
              <LatitudeDegrees>40.6755996309220790863037109375</LatitudeDegrees>
              <LongitudeDegrees>-3.76150234602391719818115234375</LongitudeDegrees>
            </Position>
            <AltitudeMeters>899.5999755859375</AltitudeMeters>
            <DistanceMeters>20444.888855307</DistanceMeters>
          </Trackpoint>
          <Trackpoint>
            <Time>2020-03-07T13:35:46.000Z</Time>
            <Position>
              <LatitudeDegrees>40.6756405346095561981201171875</LatitudeDegrees>
              <LongitudeDegrees>-3.76154207624495029449462890625</LongitudeDegrees>
            </Position>
            <AltitudeMeters>900</AltitudeMeters>
            <DistanceMeters>20450.542745172</DistanceMeters>
          </Trackpoint>
          <Trackpoint>
            <Time>2020-03-07T13:35:47.000Z</Time>
            <Position>
              <LatitudeDegrees>40.67568118683993816375732421875</LatitudeDegrees>
              <LongitudeDegrees>-3.761582560837268829345703125</LongitudeDegrees>
            </Position>
            <AltitudeMeters>900.20001220703125</AltitudeMeters>
            <DistanceMeters>20456.214176411</DistanceMeters>
          </Trackpoint>
          <Trackpoint>
            <Time>2020-03-07T13:35:48.000Z</Time>
            <Position>
              <LatitudeDegrees>40.67572225816547870635986328125</LatitudeDegrees>
              <LongitudeDegrees>-3.76162178814411163330078125</LongitudeDegrees>
            </Position>
            <AltitudeMeters>900.4000244140625</AltitudeMeters>
            <DistanceMeters>20461.858475277</DistanceMeters>
          </Trackpoint>
          <Trackpoint>
            <Time>2020-03-07T13:35:49.000Z</Time>
            <Position>
              <LatitudeDegrees>40.67576450295746326446533203125</LatitudeDegrees>
              <LongitudeDegrees>-3.76165891997516155242919921875</LongitudeDegrees>
            </Position>
            <AltitudeMeters>900.5999755859375</AltitudeMeters>
            <DistanceMeters>20467.509169952</DistanceMeters>
          </Trackpoint>
          <Trackpoint>
            <Time>2020-03-07T13:35:50.000Z</Time>
            <Position>
              <LatitudeDegrees>40.675806663930416107177734375</LatitudeDegrees>
              <LongitudeDegrees>-3.7616963870823383331298828125</LongitudeDegrees>
            </Position>
            <AltitudeMeters>900.79998779296875</AltitudeMeters>
            <DistanceMeters>20473.169444788</DistanceMeters>
          </Trackpoint>
          <Trackpoint>
            <Time>2020-03-07T13:35:51.000Z</Time>
            <Position>
              <LatitudeDegrees>40.67584865726530551910400390625</LatitudeDegrees>
              <LongitudeDegrees>-3.7617346085608005523681640625</LongitudeDegrees>
            </Position>
            <AltitudeMeters>901</AltitudeMeters>
            <DistanceMeters>20478.849626399</DistanceMeters>
          </Trackpoint>
          <Trackpoint>
            <Time>2020-03-07T13:35:52.000Z</Time>
            <Position>
              <LatitudeDegrees>40.67589090205729007720947265625</LatitudeDegrees>
              <LongitudeDegrees>-3.76177358441054821014404296875</LongitudeDegrees>
            </Position>
            <AltitudeMeters>901.20001220703125</AltitudeMeters>
            <DistanceMeters>20484.588327366</DistanceMeters>
          </Trackpoint>
          <Trackpoint>
            <Time>2020-03-07T13:35:53.000Z</Time>
            <Position>
              <LatitudeDegrees>40.67593314684927463531494140625</LatitudeDegrees>
              <LongitudeDegrees>-3.76181230880320072174072265625</LongitudeDegrees>
            </Position>
            <AltitudeMeters>901.20001220703125</AltitudeMeters>
            <DistanceMeters>20490.313637619</DistanceMeters>
          </Trackpoint>
          <Trackpoint>
            <Time>2020-03-07T13:35:54.000Z</Time>
            <Position>
              <LatitudeDegrees>40.6759748049080371856689453125</LatitudeDegrees>
              <LongitudeDegrees>-3.7618519552052021026611328125</LongitudeDegrees>
            </Position>
            <AltitudeMeters>901.4000244140625</AltitudeMeters>
            <DistanceMeters>20496.031056331</DistanceMeters>
          </Trackpoint>
          <Trackpoint>
            <Time>2020-03-07T13:35:55.000Z</Time>
            <Position>
              <LatitudeDegrees>40.6760160438716411590576171875</LatitudeDegrees>
              <LongitudeDegrees>-3.76189294271171092987060546875</LongitudeDegrees>
            </Position>
            <AltitudeMeters>901.5999755859375</AltitudeMeters>
            <DistanceMeters>20501.779976211</DistanceMeters>
          </Trackpoint>
          <Trackpoint>
            <Time>2020-03-07T13:35:56.000Z</Time>
            <Position>
              <LatitudeDegrees>40.6760566122829914093017578125</LatitudeDegrees>
              <LongitudeDegrees>-3.76193434931337833404541015625</LongitudeDegrees>
            </Position>
            <AltitudeMeters>901.79998779296875</AltitudeMeters>
            <DistanceMeters>20507.490283211</DistanceMeters>
          </Trackpoint>
          <Trackpoint>
            <Time>2020-03-07T13:35:57.000Z</Time>
            <Position>
              <LatitudeDegrees>40.676097013056278228759765625</LatitudeDegrees>
              <LongitudeDegrees>-3.7619763426482677459716796875</LongitudeDegrees>
            </Position>
            <AltitudeMeters>902</AltitudeMeters>
            <DistanceMeters>20513.215593464</DistanceMeters>
          </Trackpoint>
          <Trackpoint>
            <Time>2020-03-07T13:35:58.000Z</Time>
            <Position>
              <LatitudeDegrees>40.67613682709634304046630859375</LatitudeDegrees>
              <LongitudeDegrees>-3.76201883889734745025634765625</LongitudeDegrees>
            </Position>
            <AltitudeMeters>902</AltitudeMeters>
            <DistanceMeters>20518.917196326</DistanceMeters>
          </Trackpoint>
          <Trackpoint>
            <Time>2020-03-07T13:35:59.000Z</Time>
            <Position>
              <LatitudeDegrees>40.6761756353080272674560546875</LatitudeDegrees>
              <LongitudeDegrees>-3.76206099987030029296875</LongitudeDegrees>
            </Position>
            <AltitudeMeters>902.20001220703125</AltitudeMeters>
            <DistanceMeters>20524.514100398</DistanceMeters>
          </Trackpoint>
          <Trackpoint>
            <Time>2020-03-07T13:36:00.000Z</Time>
            <Position>
              <LatitudeDegrees>40.67621461115777492523193359375</LatitudeDegrees>
              <LongitudeDegrees>-3.762101568281650543212890625</LongitudeDegrees>
            </Position>
            <AltitudeMeters>902.4000244140625</AltitudeMeters>
            <DistanceMeters>20530.041192636</DistanceMeters>
          </Trackpoint>
          <Trackpoint>
            <Time>2020-03-07T13:36:01.000Z</Time>
            <Position>
              <LatitudeDegrees>40.67625400610268115997314453125</LatitudeDegrees>
              <LongitudeDegrees>-3.76214087940752506256103515625</LongitudeDegrees>
            </Position>
            <AltitudeMeters>902.5999755859375</AltitudeMeters>
            <DistanceMeters>20535.539619314</DistanceMeters>
          </Trackpoint>
          <Trackpoint>
            <Time>2020-03-07T13:36:02.000Z</Time>
            <Position>
              <LatitudeDegrees>40.67629205994307994842529296875</LatitudeDegrees>
              <LongitudeDegrees>-3.76218044199049472808837890625</LongitudeDegrees>
            </Position>
            <AltitudeMeters>902.79998779296875</AltitudeMeters>
            <DistanceMeters>20540.932751635</DistanceMeters>
          </Trackpoint>
          <Trackpoint>
            <Time>2020-03-07T13:36:03.000Z</Time>
            <Position>
              <LatitudeDegrees>40.6763286888599395751953125</LatitudeDegrees>
              <LongitudeDegrees>-3.76222201623022556304931640625</LongitudeDegrees>
            </Position>
            <AltitudeMeters>903</AltitudeMeters>
            <DistanceMeters>20546.311633017</DistanceMeters>
          </Trackpoint>
          <Trackpoint>
            <Time>2020-03-07T13:36:04.000Z</Time>
            <Position>
              <LatitudeDegrees>40.67636498250067234039306640625</LatitudeDegrees>
              <LongitudeDegrees>-3.762264512479305267333984375</LongitudeDegrees>
            </Position>
            <AltitudeMeters>903.4000244140625</AltitudeMeters>
            <DistanceMeters>20551.713966501</DistanceMeters>
          </Trackpoint>
          <Trackpoint>
            <Time>2020-03-07T13:36:05.000Z</Time>
            <Position>
              <LatitudeDegrees>40.67640152759850025177001953125</LatitudeDegrees>
              <LongitudeDegrees>-3.7623065896332263946533203125</LongitudeDegrees>
            </Position>
            <AltitudeMeters>903.5999755859375</AltitudeMeters>
            <DistanceMeters>20557.112955921</DistanceMeters>
          </Trackpoint>
          <Trackpoint>
            <Time>2020-03-07T13:36:06.000Z</Time>
            <Position>
              <LatitudeDegrees>40.67643891088664531707763671875</LatitudeDegrees>
              <LongitudeDegrees>-3.76234774477779865264892578125</LongitudeDegrees>
            </Position>
            <AltitudeMeters>904</AltitudeMeters>
            <DistanceMeters>20562.534477739</DistanceMeters>
          </Trackpoint>
          <Trackpoint>
            <Time>2020-03-07T13:36:07.000Z</Time>
            <Position>
              <LatitudeDegrees>40.67647662945091724395751953125</LatitudeDegrees>
              <LongitudeDegrees>-3.7623897381126880645751953125</LongitudeDegrees>
            </Position>
            <AltitudeMeters>904.20001220703125</AltitudeMeters>
            <DistanceMeters>20568.028797128</DistanceMeters>
          </Trackpoint>
          <Trackpoint>
            <Time>2020-03-07T13:36:08.000Z</Time>
            <Position>
              <LatitudeDegrees>40.6765139289200305938720703125</LatitudeDegrees>
              <LongitudeDegrees>-3.76243324019014835357666015625</LongitudeDegrees>
            </Position>
            <AltitudeMeters>904.5999755859375</AltitudeMeters>
            <DistanceMeters>20573.571388586</DistanceMeters>
          </Trackpoint>
          <Trackpoint>
            <Time>2020-03-07T13:36:09.000Z</Time>
            <Position>
              <LatitudeDegrees>40.67655198276042938232421875</LatitudeDegrees>
              <LongitudeDegrees>-3.762476742267608642578125</LongitudeDegrees>
            </Position>
            <AltitudeMeters>904.5999755859375</AltitudeMeters>
            <DistanceMeters>20579.177159365</DistanceMeters>
          </Trackpoint>
          <Trackpoint>
            <Time>2020-03-07T13:36:10.000Z</Time>
            <Position>
              <LatitudeDegrees>40.676590539515018463134765625</LatitudeDegrees>
              <LongitudeDegrees>-3.76252032816410064697265625</LongitudeDegrees>
            </Position>
            <AltitudeMeters>905</AltitudeMeters>
            <DistanceMeters>20584.82945186</DistanceMeters>
          </Trackpoint>
          <Trackpoint>
            <Time>2020-03-07T13:36:11.000Z</Time>
            <Position>
              <LatitudeDegrees>40.6766306050121784210205078125</LatitudeDegrees>
              <LongitudeDegrees>-3.76256198622286319732666015625</LongitudeDegrees>
            </Position>
            <AltitudeMeters>905.20001220703125</AltitudeMeters>
            <DistanceMeters>20590.50883854</DistanceMeters>
          </Trackpoint>
          <Trackpoint>
            <Time>2020-03-07T13:36:12.000Z</Time>
            <Position>
              <LatitudeDegrees>40.67667226307094097137451171875</LatitudeDegrees>
              <LongitudeDegrees>-3.7626012973487377166748046875</LongitudeDegrees>
            </Position>
            <AltitudeMeters>905.4000244140625</AltitudeMeters>
            <DistanceMeters>20596.209649458</DistanceMeters>
          </Trackpoint>
          <Trackpoint>
            <Time>2020-03-07T13:36:13.000Z</Time>
            <Position>
              <LatitudeDegrees>40.676712580025196075439453125</LatitudeDegrees>
              <LongitudeDegrees>-3.7626416981220245361328125</LongitudeDegrees>
            </Position>
            <AltitudeMeters>905.79998779296875</AltitudeMeters>
            <DistanceMeters>20601.845943358</DistanceMeters>
          </Trackpoint>
          <Trackpoint>
            <Time>2020-03-07T13:36:14.000Z</Time>
            <Position>
              <LatitudeDegrees>40.676750801503658294677734375</LatitudeDegrees>
              <LongitudeDegrees>-3.7626834399998188018798828125</LongitudeDegrees>
            </Position>
            <AltitudeMeters>906.20001220703125</AltitudeMeters>
            <DistanceMeters>20607.370584377</DistanceMeters>
          </Trackpoint>
          <Trackpoint>
            <Time>2020-03-07T13:36:15.000Z</Time>
            <Position>
              <LatitudeDegrees>40.6767881847918033599853515625</LatitudeDegrees>
              <LongitudeDegrees>-3.76272576861083507537841796875</LongitudeDegrees>
            </Position>
            <AltitudeMeters>906.5999755859375</AltitudeMeters>
            <DistanceMeters>20612.855856905</DistanceMeters>
          </Trackpoint>
          <Trackpoint>
            <Time>2020-03-07T13:36:16.000Z</Time>
            <Position>
              <LatitudeDegrees>40.67682514898478984832763671875</LatitudeDegrees>
              <LongitudeDegrees>-3.76276885159313678741455078125</LongitudeDegrees>
            </Position>
            <AltitudeMeters>906.79998779296875</AltitudeMeters>
            <DistanceMeters>20618.346888251</DistanceMeters>
          </Trackpoint>
          <Trackpoint>
            <Time>2020-03-07T13:36:17.000Z</Time>
            <Position>
              <LatitudeDegrees>40.67686169408261775970458984375</LatitudeDegrees>
              <LongitudeDegrees>-3.76281327567994594573974609375</LongitudeDegrees>
            </Position>
            <AltitudeMeters>907.20001220703125</AltitudeMeters>
            <DistanceMeters>20623.87969578</DistanceMeters>
          </Trackpoint>
          <Trackpoint>
            <Time>2020-03-07T13:36:18.000Z</Time>
            <Position>
              <LatitudeDegrees>40.6768984906375408172607421875</LatitudeDegrees>
              <LongitudeDegrees>-3.76285870559513568878173828125</LongitudeDegrees>
            </Position>
            <AltitudeMeters>907.20001220703125</AltitudeMeters>
            <DistanceMeters>20629.490297038</DistanceMeters>
          </Trackpoint>
          <Trackpoint>
            <Time>2020-03-07T13:36:19.000Z</Time>
            <Position>
              <LatitudeDegrees>40.67693595774471759796142578125</LatitudeDegrees>
              <LongitudeDegrees>-3.76290279440581798553466796875</LongitudeDegrees>
            </Position>
            <AltitudeMeters>907.4000244140625</AltitudeMeters>
            <DistanceMeters>20635.079128259</DistanceMeters>
          </Trackpoint>
          <Trackpoint>
            <Time>2020-03-07T13:36:20.000Z</Time>
            <Position>
              <LatitudeDegrees>40.6769735924899578094482421875</LatitudeDegrees>
              <LongitudeDegrees>-3.76294621266424655914306640625</LongitudeDegrees>
            </Position>
            <AltitudeMeters>907.4000244140625</AltitudeMeters>
            <DistanceMeters>20640.644481995</DistanceMeters>
          </Trackpoint>
          <Trackpoint>
            <Time>2020-03-07T13:36:21.000Z</Time>
            <Position>
              <LatitudeDegrees>40.67701072432100772857666015625</LatitudeDegrees>
              <LongitudeDegrees>-3.7629898823797702789306640625</LongitudeDegrees>
            </Position>
            <AltitudeMeters>907.5999755859375</AltitudeMeters>
            <DistanceMeters>20646.182183649</DistanceMeters>
          </Trackpoint>
          <Trackpoint>
            <Time>2020-03-07T13:36:22.000Z</Time>
            <Position>
              <LatitudeDegrees>40.6770475208759307861328125</LatitudeDegrees>
              <LongitudeDegrees>-3.7630344741046428680419921875</LongitudeDegrees>
            </Position>
            <AltitudeMeters>907.79998779296875</AltitudeMeters>
            <DistanceMeters>20651.744291333</DistanceMeters>
          </Trackpoint>
          <Trackpoint>
            <Time>2020-03-07T13:36:23.000Z</Time>
            <Position>
              <LatitudeDegrees>40.6770838983356952667236328125</LatitudeDegrees>
              <LongitudeDegrees>-3.76307965256273746490478515625</LongitudeDegrees>
            </Position>
            <AltitudeMeters>908</AltitudeMeters>
            <DistanceMeters>20657.306399018</DistanceMeters>
          </Trackpoint>
          <Trackpoint>
            <Time>2020-03-07T13:36:24.000Z</Time>
            <Position>
              <LatitudeDegrees>40.6771199405193328857421875</LatitudeDegrees>
              <LongitudeDegrees>-3.7631256692111492156982421875</LongitudeDegrees>
            </Position>
            <AltitudeMeters>908.4000244140625</AltitudeMeters>
            <DistanceMeters>20662.889572299</DistanceMeters>
          </Trackpoint>
          <Trackpoint>
            <Time>2020-03-07T13:36:25.000Z</Time>
            <Position>
              <LatitudeDegrees>40.67715589888393878936767578125</LatitudeDegrees>
              <LongitudeDegrees>-3.76317185349762439727783203125</LongitudeDegrees>
            </Position>
            <AltitudeMeters>909</AltitudeMeters>
            <DistanceMeters>20668.47597939</DistanceMeters>
          </Trackpoint>
          <Trackpoint>
            <Time>2020-03-07T13:36:26.000Z</Time>
            <Position>
              <LatitudeDegrees>40.67719244398176670074462890625</LatitudeDegrees>
              <LongitudeDegrees>-3.7632198818027973175048828125</LongitudeDegrees>
            </Position>
            <AltitudeMeters>909</AltitudeMeters>
            <DistanceMeters>20674.218612861</DistanceMeters>
          </Trackpoint>
          <Trackpoint>
            <Time>2020-03-07T13:36:27.000Z</Time>
            <Position>
              <LatitudeDegrees>40.67722898907959461212158203125</LatitudeDegrees>
              <LongitudeDegrees>-3.76327025704085826873779296875</LongitudeDegrees>
            </Position>
            <AltitudeMeters>909.20001220703125</AltitudeMeters>
            <DistanceMeters>20680.102600716</DistanceMeters>
          </Trackpoint>
          <Trackpoint>
            <Time>2020-03-07T13:36:28.000Z</Time>
            <Position>
              <LatitudeDegrees>40.67726737819612026214599609375</LatitudeDegrees>
              <LongitudeDegrees>-3.7633224762976169586181640625</LongitudeDegrees>
            </Position>
            <AltitudeMeters>909.5999755859375</AltitudeMeters>
            <DistanceMeters>20686.241944254</DistanceMeters>
          </Trackpoint>
          <Trackpoint>
            <Time>2020-03-07T13:36:29.000Z</Time>
            <Position>
              <LatitudeDegrees>40.67730744369328022003173828125</LatitudeDegrees>
              <LongitudeDegrees>-3.763375617563724517822265625</LongitudeDegrees>
            </Position>
            <AltitudeMeters>910</AltitudeMeters>
            <DistanceMeters>20692.566755607</DistanceMeters>
          </Trackpoint>
          <Trackpoint>
            <Time>2020-03-07T13:36:30.000Z</Time>
            <Position>
              <LatitudeDegrees>40.6773484311997890472412109375</LatitudeDegrees>
              <LongitudeDegrees>-3.7634297646582126617431640625</LongitudeDegrees>
            </Position>
            <AltitudeMeters>910.20001220703125</AltitudeMeters>
            <DistanceMeters>20699.024378468</DistanceMeters>
          </Trackpoint>
          <Trackpoint>
            <Time>2020-03-07T13:36:31.000Z</Time>
            <Position>
              <LatitudeDegrees>40.67739017307758331298828125</LatitudeDegrees>
              <LongitudeDegrees>-3.763484247028827667236328125</LongitudeDegrees>
            </Position>
            <AltitudeMeters>910.20001220703125</AltitudeMeters>
            <DistanceMeters>20705.561912545</DistanceMeters>
          </Trackpoint>
          <Trackpoint>
            <Time>2020-03-07T13:36:32.000Z</Time>
            <Position>
              <LatitudeDegrees>40.67743216641247272491455078125</LatitudeDegrees>
              <LongitudeDegrees>-3.7635404057800769805908203125</LongitudeDegrees>
            </Position>
            <AltitudeMeters>910.20001220703125</AltitudeMeters>
            <DistanceMeters>20712.219210435</DistanceMeters>
          </Trackpoint>
          <Trackpoint>
            <Time>2020-03-07T13:36:33.000Z</Time>
            <Position>
              <LatitudeDegrees>40.67747541703283786773681640625</LatitudeDegrees>
              <LongitudeDegrees>-3.76359681598842144012451171875</LongitudeDegrees>
            </Position>
            <AltitudeMeters>910.4000244140625</AltitudeMeters>
            <DistanceMeters>20718.989488718</DistanceMeters>
          </Trackpoint>
          <Trackpoint>
            <Time>2020-03-07T13:36:34.000Z</Time>
            <Position>
              <LatitudeDegrees>40.67751967348158359527587890625</LatitudeDegrees>
              <LongitudeDegrees>-3.76365314237773418426513671875</LongitudeDegrees>
            </Position>
            <AltitudeMeters>910.4000244140625</AltitudeMeters>
            <DistanceMeters>20725.835370454</DistanceMeters>
          </Trackpoint>
          <Trackpoint>
            <Time>2020-03-07T13:36:35.000Z</Time>
            <Position>
              <LatitudeDegrees>40.67756543867290019989013671875</LatitudeDegrees>
              <LongitudeDegrees>-3.763708882033824920654296875</LongitudeDegrees>
            </Position>
            <AltitudeMeters>910.4000244140625</AltitudeMeters>
            <DistanceMeters>20732.7690655</DistanceMeters>
          </Trackpoint>
          <Trackpoint>
            <Time>2020-03-07T13:36:36.000Z</Time>
            <Position>
              <LatitudeDegrees>40.67761137150228023529052734375</LatitudeDegrees>
              <LongitudeDegrees>-3.76376529224216938018798828125</LongitudeDegrees>
            </Position>
            <AltitudeMeters>910.4000244140625</AltitudeMeters>
            <DistanceMeters>20739.755952736</DistanceMeters>
          </Trackpoint>
          <Trackpoint>
            <Time>2020-03-07T13:36:37.000Z</Time>
            <Position>
              <LatitudeDegrees>40.6776568852365016937255859375</LatitudeDegrees>
              <LongitudeDegrees>-3.7638240493834018707275390625</LongitudeDegrees>
            </Position>
            <AltitudeMeters>910.4000244140625</AltitudeMeters>
            <DistanceMeters>20746.845480611</DistanceMeters>
          </Trackpoint>
          <Trackpoint>
            <Time>2020-03-07T13:36:38.000Z</Time>
            <Position>
              <LatitudeDegrees>40.67770130932331085205078125</LatitudeDegrees>
              <LongitudeDegrees>-3.76388532109558582305908203125</LongitudeDegrees>
            </Position>
            <AltitudeMeters>910.4000244140625</AltitudeMeters>
            <DistanceMeters>20754.000935414</DistanceMeters>
          </Trackpoint>
          <Trackpoint>
            <Time>2020-03-07T13:36:39.000Z</Time>
            <Position>
              <LatitudeDegrees>40.6777453981339931488037109375</LatitudeDegrees>
              <LongitudeDegrees>-3.76394801773130893707275390625</LongitudeDegrees>
            </Position>
            <AltitudeMeters>910.5999755859375</AltitudeMeters>
            <DistanceMeters>20761.217962567</DistanceMeters>
          </Trackpoint>
          <Trackpoint>
            <Time>2020-03-07T13:36:40.000Z</Time>
            <Position>
              <LatitudeDegrees>40.67778906784951686859130859375</LatitudeDegrees>
              <LongitudeDegrees>-3.7640118040144443511962890625</LongitudeDegrees>
            </Position>
            <AltitudeMeters>910.5999755859375</AltitudeMeters>
            <DistanceMeters>20768.47118429</DistanceMeters>
          </Trackpoint>
          <Trackpoint>
            <Time>2020-03-07T13:36:41.000Z</Time>
            <Position>
              <LatitudeDegrees>40.67783265374600887298583984375</LatitudeDegrees>
              <LongitudeDegrees>-3.7640755064785480499267578125</LongitudeDegrees>
            </Position>
            <AltitudeMeters>910.5999755859375</AltitudeMeters>
            <DistanceMeters>20775.713192574</DistanceMeters>
          </Trackpoint>
          <Trackpoint>
            <Time>2020-03-07T13:36:42.000Z</Time>
            <Position>
              <LatitudeDegrees>40.67787523381412029266357421875</LatitudeDegrees>
              <LongitudeDegrees>-3.76413929276168346405029296875</LongitudeDegrees>
            </Position>
            <AltitudeMeters>910.5999755859375</AltitudeMeters>
            <DistanceMeters>20782.885034417</DistanceMeters>
          </Trackpoint>
          <Trackpoint>
            <Time>2020-03-07T13:36:43.000Z</Time>
            <Position>
              <LatitudeDegrees>40.67791764624416828155517578125</LatitudeDegrees>
              <LongitudeDegrees>-3.76420182175934314727783203125</LongitudeDegrees>
            </Position>
            <AltitudeMeters>910.5999755859375</AltitudeMeters>
            <DistanceMeters>20789.965640635</DistanceMeters>
          </Trackpoint>
          <Trackpoint>
            <Time>2020-03-07T13:36:44.000Z</Time>
            <Position>
              <LatitudeDegrees>40.67796039395034313201904296875</LatitudeDegrees>
              <LongitudeDegrees>-3.7642619200050830841064453125</LongitudeDegrees>
            </Position>
            <AltitudeMeters>910.5999755859375</AltitudeMeters>
            <DistanceMeters>20796.92079121</DistanceMeters>
          </Trackpoint>
          <Trackpoint>
            <Time>2020-03-07T13:36:45.000Z</Time>
            <Position>
              <LatitudeDegrees>40.678002052009105682373046875</LatitudeDegrees>
              <LongitudeDegrees>-3.764321766793727874755859375</LongitudeDegrees>
            </Position>
            <AltitudeMeters>910.5999755859375</AltitudeMeters>
            <DistanceMeters>20803.777217244</DistanceMeters>
          </Trackpoint>
          <Trackpoint>
            <Time>2020-03-07T13:36:46.000Z</Time>
            <Position>
              <LatitudeDegrees>40.67804069258272647857666015625</LatitudeDegrees>
              <LongitudeDegrees>-3.76438169740140438079833984375</LongitudeDegrees>
            </Position>
            <AltitudeMeters>910.5999755859375</AltitudeMeters>
            <DistanceMeters>20810.416858289</DistanceMeters>
          </Trackpoint>
          <Trackpoint>
            <Time>2020-03-07T13:36:47.000Z</Time>
            <Position>
              <LatitudeDegrees>40.6780806742608547210693359375</LatitudeDegrees>
              <LongitudeDegrees>-3.7644414603710174560546875</LongitudeDegrees>
            </Position>
            <AltitudeMeters>910.5999755859375</AltitudeMeters>
            <DistanceMeters>20817.142977748</DistanceMeters>
          </Trackpoint>
          <Trackpoint>
            <Time>2020-03-07T13:36:48.000Z</Time>
            <Position>
              <LatitudeDegrees>40.67811931483447551727294921875</LatitudeDegrees>
              <LongitudeDegrees>-3.7645003013312816619873046875</LongitudeDegrees>
            </Position>
            <AltitudeMeters>910.5999755859375</AltitudeMeters>
            <DistanceMeters>20823.712891401</DistanceMeters>
          </Trackpoint>
          <Trackpoint>
            <Time>2020-03-07T13:36:49.000Z</Time>
            <Position>
              <LatitudeDegrees>40.6781552731990814208984375</LatitudeDegrees>
              <LongitudeDegrees>-3.7645593099296092987060546875</LongitudeDegrees>
            </Position>
            <AltitudeMeters>910.79998779296875</AltitudeMeters>
            <DistanceMeters>20830.101627232</DistanceMeters>
          </Trackpoint>
          <Trackpoint>
            <Time>2020-03-07T13:36:50.000Z</Time>
            <Position>
              <LatitudeDegrees>40.67819039337337017059326171875</LatitudeDegrees>
              <LongitudeDegrees>-3.76461915671825408935546875</LongitudeDegrees>
            </Position>
            <AltitudeMeters>911</AltitudeMeters>
            <DistanceMeters>20836.488949471</DistanceMeters>
          </Trackpoint>
          <Trackpoint>
            <Time>2020-03-07T13:36:51.000Z</Time>
            <Position>
              <LatitudeDegrees>40.67822568118572235107421875</LatitudeDegrees>
              <LongitudeDegrees>-3.76467808149755001068115234375</LongitudeDegrees>
            </Position>
            <AltitudeMeters>911</AltitudeMeters>
            <DistanceMeters>20842.825884845</DistanceMeters>
          </Trackpoint>
          <Trackpoint>
            <Time>2020-03-07T13:36:52.000Z</Time>
            <Position>
              <LatitudeDegrees>40.6782607175409793853759765625</LatitudeDegrees>
              <LongitudeDegrees>-3.76473641954362392425537109375</LongitudeDegrees>
            </Position>
            <AltitudeMeters>911.4000244140625</AltitudeMeters>
            <DistanceMeters>20849.106280845</DistanceMeters>
          </Trackpoint>
          <Trackpoint>
            <Time>2020-03-07T13:36:53.000Z</Time>
            <Position>
              <LatitudeDegrees>40.67829768173396587371826171875</LatitudeDegrees>
              <LongitudeDegrees>-3.7647940032184123992919921875</LongitudeDegrees>
            </Position>
            <AltitudeMeters>911.4000244140625</AltitudeMeters>
            <DistanceMeters>20855.473779823</DistanceMeters>
          </Trackpoint>
          <Trackpoint>
            <Time>2020-03-07T13:36:54.000Z</Time>
            <Position>
              <LatitudeDegrees>40.67833523266017436981201171875</LatitudeDegrees>
              <LongitudeDegrees>-3.76485225744545459747314453125</LongitudeDegrees>
            </Position>
            <AltitudeMeters>911.5999755859375</AltitudeMeters>
            <DistanceMeters>20861.927206243</DistanceMeters>
          </Trackpoint>
          <Trackpoint>
            <Time>2020-03-07T13:36:55.000Z</Time>
            <Position>
              <LatitudeDegrees>40.6783700175583362579345703125</LatitudeDegrees>
              <LongitudeDegrees>-3.76491210423409938812255859375</LongitudeDegrees>
            </Position>
            <AltitudeMeters>912</AltitudeMeters>
            <DistanceMeters>20868.291868286</DistanceMeters>
          </Trackpoint>
          <Trackpoint>
            <Time>2020-03-07T13:36:56.000Z</Time>
            <Position>
              <LatitudeDegrees>40.6784068979322910308837890625</LatitudeDegrees>
              <LongitudeDegrees>-3.764972873032093048095703125</LongitudeDegrees>
            </Position>
            <AltitudeMeters>912.20001220703125</AltitudeMeters>
            <DistanceMeters>20874.861781939</DistanceMeters>
          </Trackpoint>
          <Trackpoint>
            <Time>2020-03-07T13:36:57.000Z</Time>
            <Position>
              <LatitudeDegrees>40.67844218574464321136474609375</LatitudeDegrees>
              <LongitudeDegrees>-3.7650327198207378387451171875</LongitudeDegrees>
            </Position>
            <AltitudeMeters>912.4000244140625</AltitudeMeters>
            <DistanceMeters>20881.261109769</DistanceMeters>
          </Trackpoint>
          <Trackpoint>
            <Time>2020-03-07T13:36:58.000Z</Time>
            <Position>
              <LatitudeDegrees>40.6784779764711856842041015625</LatitudeDegrees>
              <LongitudeDegrees>-3.7650932371616363525390625</LongitudeDegrees>
            </Position>
            <AltitudeMeters>912.5999755859375</AltitudeMeters>
            <DistanceMeters>20887.738977105</DistanceMeters>
          </Trackpoint>
          <Trackpoint>
            <Time>2020-03-07T13:36:59.000Z</Time>
            <Position>
              <LatitudeDegrees>40.67851410247385501861572265625</LatitudeDegrees>
              <LongitudeDegrees>-3.76515434123575687408447265625</LongitudeDegrees>
            </Position>
            <AltitudeMeters>912.79998779296875</AltitudeMeters>
            <DistanceMeters>20894.279273132</DistanceMeters>
          </Trackpoint>
          <Trackpoint>
            <Time>2020-03-07T13:37:00.000Z</Time>
            <Position>
              <LatitudeDegrees>40.6785497255623340606689453125</LatitudeDegrees>
              <LongitudeDegrees>-3.76521586440503597259521484375</LongitudeDegrees>
            </Position>
            <AltitudeMeters>913</AltitudeMeters>
            <DistanceMeters>20900.813353131</DistanceMeters>
          </Trackpoint>
          <Trackpoint>
            <Time>2020-03-07T13:37:01.000Z</Time>
            <Position>
              <LatitudeDegrees>40.67858702503144741058349609375</LatitudeDegrees>
              <LongitudeDegrees>-3.76527738757431507110595703125</LongitudeDegrees>
            </Position>
            <AltitudeMeters>913.20001220703125</AltitudeMeters>
            <DistanceMeters>20907.462507533</DistanceMeters>
          </Trackpoint>
          <Trackpoint>
            <Time>2020-03-07T13:37:02.000Z</Time>
            <Position>
              <LatitudeDegrees>40.67862398922443389892578125</LatitudeDegrees>
              <LongitudeDegrees>-3.765338994562625885009765625</LongitudeDegrees>
            </Position>
            <AltitudeMeters>913.20001220703125</AltitudeMeters>
            <DistanceMeters>20914.092621569</DistanceMeters>
          </Trackpoint>
          <Trackpoint>
            <Time>2020-03-07T13:37:03.000Z</Time>
            <Position>
              <LatitudeDegrees>40.67865994758903980255126953125</LatitudeDegrees>
              <LongitudeDegrees>-3.76540143974125385284423828125</LongitudeDegrees>
            </Position>
            <AltitudeMeters>913.4000244140625</AltitudeMeters>
            <DistanceMeters>20920.710466441</DistanceMeters>
          </Trackpoint>
          <Trackpoint>
            <Time>2020-03-07T13:37:04.000Z</Time>
            <Position>
              <LatitudeDegrees>40.67869531922042369842529296875</LatitudeDegrees>
              <LongitudeDegrees>-3.765464387834072113037109375</LongitudeDegrees>
            </Position>
            <AltitudeMeters>913.5999755859375</AltitudeMeters>
            <DistanceMeters>20927.322851045</DistanceMeters>
          </Trackpoint>
          <Trackpoint>
            <Time>2020-03-07T13:37:05.000Z</Time>
            <Position>
              <LatitudeDegrees>40.6787311099469661712646484375</LatitudeDegrees>
              <LongitudeDegrees>-3.7655275873839855194091796875</LongitudeDegrees>
            </Position>
            <AltitudeMeters>913.79998779296875</AltitudeMeters>
            <DistanceMeters>20933.981505213</DistanceMeters>
          </Trackpoint>
          <Trackpoint>
            <Time>2020-03-07T13:37:06.000Z</Time>
            <Position>
              <LatitudeDegrees>40.67876790650188922882080078125</LatitudeDegrees>
              <LongitudeDegrees>-3.765589110553264617919921875</LongitudeDegrees>
            </Position>
            <AltitudeMeters>913.79998779296875</AltitudeMeters>
            <DistanceMeters>20940.595255307</DistanceMeters>
          </Trackpoint>
          <Trackpoint>
            <Time>2020-03-07T13:37:07.000Z</Time>
            <Position>
              <LatitudeDegrees>40.67880327813327312469482421875</LatitudeDegrees>
              <LongitudeDegrees>-3.76564971171319484710693359375</LongitudeDegrees>
            </Position>
            <AltitudeMeters>914</AltitudeMeters>
            <DistanceMeters>20947.050080843</DistanceMeters>
          </Trackpoint>
          <Trackpoint>
            <Time>2020-03-07T13:37:08.000Z</Time>
            <Position>
              <LatitudeDegrees>40.67883680574595928192138671875</LatitudeDegrees>
              <LongitudeDegrees>-3.76571123488247394561767578125</LongitudeDegrees>
            </Position>
            <AltitudeMeters>914</AltitudeMeters>
            <DistanceMeters>20953.445879956</DistanceMeters>
          </Trackpoint>
          <Trackpoint>
            <Time>2020-03-07T13:37:09.000Z</Time>
            <Position>
              <LatitudeDegrees>40.678869746625423431396484375</LatitudeDegrees>
              <LongitudeDegrees>-3.7657730095088481903076171875</LongitudeDegrees>
            </Position>
            <AltitudeMeters>914</AltitudeMeters>
            <DistanceMeters>20959.820465747</DistanceMeters>
          </Trackpoint>
          <Trackpoint>
            <Time>2020-03-07T13:37:10.000Z</Time>
            <Position>
              <LatitudeDegrees>40.67890235222876071929931640625</LatitudeDegrees>
              <LongitudeDegrees>-3.76583528704941272735595703125</LongitudeDegrees>
            </Position>
            <AltitudeMeters>914.20001220703125</AltitudeMeters>
            <DistanceMeters>20966.207787985</DistanceMeters>
          </Trackpoint>
          <Trackpoint>
            <Time>2020-03-07T13:37:11.000Z</Time>
            <Position>
              <LatitudeDegrees>40.6789352931082248687744140625</LatitudeDegrees>
              <LongitudeDegrees>-3.7658973969519138336181640625</LongitudeDegrees>
            </Position>
            <AltitudeMeters>914.20001220703125</AltitudeMeters>
            <DistanceMeters>20972.604998818</DistanceMeters>
          </Trackpoint>
          <Trackpoint>
            <Time>2020-03-07T13:37:12.000Z</Time>
            <Position>
              <LatitudeDegrees>40.67896823398768901824951171875</LatitudeDegrees>
              <LongitudeDegrees>-3.7659604288637638092041015625</LongitudeDegrees>
            </Position>
            <AltitudeMeters>914.4000244140625</AltitudeMeters>
            <DistanceMeters>20979.065417792</DistanceMeters>
          </Trackpoint>
          <Trackpoint>
            <Time>2020-03-07T13:37:13.000Z</Time>
            <Position>
              <LatitudeDegrees>40.6790010072290897369384765625</LatitudeDegrees>
              <LongitudeDegrees>-3.76602463424205780029296875</LongitudeDegrees>
            </Position>
            <AltitudeMeters>914.5999755859375</AltitudeMeters>
            <DistanceMeters>20985.598115648</DistanceMeters>
          </Trackpoint>
          <Trackpoint>
            <Time>2020-03-07T13:37:14.000Z</Time>
            <Position>
              <LatitudeDegrees>40.67903378047049045562744140625</LatitudeDegrees>
              <LongitudeDegrees>-3.76608858816325664520263671875</LongitudeDegrees>
            </Position>
            <AltitudeMeters>914.5999755859375</AltitudeMeters>
            <DistanceMeters>20992.112818963</DistanceMeters>
          </Trackpoint>
          <Trackpoint>
            <Time>2020-03-07T13:37:15.000Z</Time>
            <Position>
              <LatitudeDegrees>40.679066218435764312744140625</LatitudeDegrees>
              <LongitudeDegrees>-3.76615229062736034393310546875</LongitudeDegrees>
            </Position>
            <AltitudeMeters>914.79998779296875</AltitudeMeters>
            <DistanceMeters>20998.589292161</DistanceMeters>
          </Trackpoint>
          <Trackpoint>
            <Time>2020-03-07T13:37:16.000Z</Time>
            <Position>
              <LatitudeDegrees>40.6790995784103870391845703125</LatitudeDegrees>
              <LongitudeDegrees>-3.766215406358242034912109375</LongitudeDegrees>
            </Position>
            <AltitudeMeters>914.79998779296875</AltitudeMeters>
            <DistanceMeters>21005.083170586</DistanceMeters>
          </Trackpoint>
          <Trackpoint>
            <Time>2020-03-07T13:37:17.000Z</Time>
            <Position>
              <LatitudeDegrees>40.67913151346147060394287109375</LatitudeDegrees>
              <LongitudeDegrees>-3.7662792764604091644287109375</LongitudeDegrees>
            </Position>
            <AltitudeMeters>915</AltitudeMeters>
            <DistanceMeters>21011.540094229</DistanceMeters>
          </Trackpoint>
          <Trackpoint>
            <Time>2020-03-07T13:37:18.000Z</Time>
            <Position>
              <LatitudeDegrees>40.6791636161506175994873046875</LatitudeDegrees>
              <LongitudeDegrees>-3.7663431465625762939453125</LongitudeDegrees>
            </Position>
            <AltitudeMeters>915</AltitudeMeters>
            <DistanceMeters>21018.007498198</DistanceMeters>
          </Trackpoint>
          <Trackpoint>
            <Time>2020-03-07T13:37:19.000Z</Time>
            <Position>
              <LatitudeDegrees>40.67919622175395488739013671875</LatitudeDegrees>
              <LongitudeDegrees>-3.76640684902667999267578125</LongitudeDegrees>
            </Position>
            <AltitudeMeters>915.20001220703125</AltitudeMeters>
            <DistanceMeters>21024.494420136</DistanceMeters>
          </Trackpoint>
          <Trackpoint>
            <Time>2020-03-07T13:37:20.000Z</Time>
            <Position>
              <LatitudeDegrees>40.67922790534794330596923828125</LatitudeDegrees>
              <LongitudeDegrees>-3.76647122204303741455078125</LongitudeDegrees>
            </Position>
            <AltitudeMeters>915.4000244140625</AltitudeMeters>
            <DistanceMeters>21030.972287473</DistanceMeters>
          </Trackpoint>
          <Trackpoint>
            <Time>2020-03-07T13:37:21.000Z</Time>
            <Position>
              <LatitudeDegrees>40.67925992421805858612060546875</LatitudeDegrees>
              <LongitudeDegrees>-3.7665350921452045440673828125</LongitudeDegrees>
            </Position>
            <AltitudeMeters>915.5999755859375</AltitudeMeters>
            <DistanceMeters>21037.434802738</DistanceMeters>
          </Trackpoint>
          <Trackpoint>
            <Time>2020-03-07T13:37:22.000Z</Time>
            <Position>
              <LatitudeDegrees>40.67929076962172985076904296875</LatitudeDegrees>
              <LongitudeDegrees>-3.7665984593331813812255859375</LongitudeDegrees>
            </Position>
            <AltitudeMeters>915.79998779296875</AltitudeMeters>
            <DistanceMeters>21043.790946381</DistanceMeters>
          </Trackpoint>
          <Trackpoint>
            <Time>2020-03-07T13:37:23.000Z</Time>
            <Position>
              <LatitudeDegrees>40.6793208606541156768798828125</LatitudeDegrees>
              <LongitudeDegrees>-3.76666174270212650299072265625</LongitudeDegrees>
            </Position>
            <AltitudeMeters>916</AltitudeMeters>
            <DistanceMeters>21050.095737932</DistanceMeters>
          </Trackpoint>
          <Trackpoint>
            <Time>2020-03-07T13:37:24.000Z</Time>
            <Position>
              <LatitudeDegrees>40.67934961058199405670166015625</LatitudeDegrees>
              <LongitudeDegrees>-3.76672544516623020172119140625</LongitudeDegrees>
            </Position>
            <AltitudeMeters>916</AltitudeMeters>
            <DistanceMeters>21056.353086529</DistanceMeters>
          </Trackpoint>
          <Trackpoint>
            <Time>2020-03-07T13:37:25.000Z</Time>
            <Position>
              <LatitudeDegrees>40.67937710322439670562744140625</LatitudeDegrees>
              <LongitudeDegrees>-3.76679032109677791595458984375</LongitudeDegrees>
            </Position>
            <AltitudeMeters>916.20001220703125</AltitudeMeters>
            <DistanceMeters>21062.625569535</DistanceMeters>
          </Trackpoint>
          <Trackpoint>
            <Time>2020-03-07T13:37:26.000Z</Time>
            <Position>
              <LatitudeDegrees>40.67940426059067249298095703125</LatitudeDegrees>
              <LongitudeDegrees>-3.76685536466538906097412109375</LongitudeDegrees>
            </Position>
            <AltitudeMeters>916.4000244140625</AltitudeMeters>
            <DistanceMeters>21068.892291362</DistanceMeters>
          </Trackpoint>
          <Trackpoint>
            <Time>2020-03-07T13:37:27.000Z</Time>
            <Position>
              <LatitudeDegrees>40.67943141795694828033447265625</LatitudeDegrees>
              <LongitudeDegrees>-3.76691873185336589813232421875</LongitudeDegrees>
            </Position>
            <AltitudeMeters>916.5999755859375</AltitudeMeters>
            <DistanceMeters>21075.036045877</DistanceMeters>
          </Trackpoint>
          <Trackpoint>
            <Time>2020-03-07T13:37:28.000Z</Time>
            <Position>
              <LatitudeDegrees>40.679456479847431182861328125</LatitudeDegrees>
              <LongitudeDegrees>-3.76698159612715244293212890625</LongitudeDegrees>
            </Position>
            <AltitudeMeters>916.79998779296875</AltitudeMeters>
            <DistanceMeters>21081.031019125</DistanceMeters>
          </Trackpoint>
          <Trackpoint>
            <Time>2020-03-07T13:37:29.000Z</Time>
            <Position>
              <LatitudeDegrees>40.679479949176311492919921875</LatitudeDegrees>
              <LongitudeDegrees>-3.767044208943843841552734375</LongitudeDegrees>
            </Position>
            <AltitudeMeters>916.79998779296875</AltitudeMeters>
            <DistanceMeters>21086.926505893</DistanceMeters>
          </Trackpoint>
          <Trackpoint>
            <Time>2020-03-07T13:37:30.000Z</Time>
            <Position>
              <LatitudeDegrees>40.679502747952938079833984375</LatitudeDegrees>
              <LongitudeDegrees>-3.767106235027313232421875</LongitudeDegrees>
            </Position>
            <AltitudeMeters>917</AltitudeMeters>
            <DistanceMeters>21092.74412796</DistanceMeters>
          </Trackpoint>
          <Trackpoint>
            <Time>2020-03-07T13:37:31.000Z</Time>
            <Position>
              <LatitudeDegrees>40.67952613346278667449951171875</LatitudeDegrees>
              <LongitudeDegrees>-3.76716733910143375396728515625</LongitudeDegrees>
            </Position>
            <AltitudeMeters>917.20001220703125</AltitudeMeters>
            <DistanceMeters>21098.521252031</DistanceMeters>
          </Trackpoint>
          <Trackpoint>
            <Time>2020-03-07T13:37:32.000Z</Time>
            <Position>
              <LatitudeDegrees>40.6795518659055233001708984375</LatitudeDegrees>
              <LongitudeDegrees>-3.7672260962426662445068359375</LongitudeDegrees>
            </Position>
            <AltitudeMeters>917.4000244140625</AltitudeMeters>
            <DistanceMeters>21104.248927626</DistanceMeters>
          </Trackpoint>
          <Trackpoint>
            <Time>2020-03-07T13:37:33.000Z</Time>
            <Position>
              <LatitudeDegrees>40.67957608960568904876708984375</LatitudeDegrees>
              <LongitudeDegrees>-3.767284937202930450439453125</LongitudeDegrees>
            </Position>
            <AltitudeMeters>917.5999755859375</AltitudeMeters>
            <DistanceMeters>21109.901220122</DistanceMeters>
          </Trackpoint>
          <Trackpoint>
            <Time>2020-03-07T13:37:34.000Z</Time>
            <Position>
              <LatitudeDegrees>40.67959771491587162017822265625</LatitudeDegrees>
              <LongitudeDegrees>-3.7673454545438289642333984375</LongitudeDegrees>
            </Position>
            <AltitudeMeters>917.79998779296875</AltitudeMeters>
            <DistanceMeters>21115.54711862</DistanceMeters>
          </Trackpoint>
          <Trackpoint>
            <Time>2020-03-07T13:37:35.000Z</Time>
            <Position>
              <LatitudeDegrees>40.67961766384541988372802734375</LatitudeDegrees>
              <LongitudeDegrees>-3.767406642436981201171875</LongitudeDegrees>
            </Position>
            <AltitudeMeters>918</AltitudeMeters>
            <DistanceMeters>21121.168974857</DistanceMeters>
          </Trackpoint>
          <Trackpoint>
            <Time>2020-03-07T13:37:36.000Z</Time>
            <Position>
              <LatitudeDegrees>40.67963845096528530120849609375</LatitudeDegrees>
              <LongitudeDegrees>-3.76746623776853084564208984375</LongitudeDegrees>
            </Position>
            <AltitudeMeters>918.4000244140625</AltitudeMeters>
            <DistanceMeters>21126.705861124</DistanceMeters>
          </Trackpoint>
          <Trackpoint>
            <Time>2020-03-07T13:37:37.000Z</Time>
            <Position>
              <LatitudeDegrees>40.6796611659228801727294921875</LatitudeDegrees>
              <LongitudeDegrees>-3.76752398908138275146484375</LongitudeDegrees>
            </Position>
            <AltitudeMeters>918.5999755859375</AltitudeMeters>
            <DistanceMeters>21132.19689247</DistanceMeters>
          </Trackpoint>
          <Trackpoint>
            <Time>2020-03-07T13:37:38.000Z</Time>
            <Position>
              <LatitudeDegrees>40.67968404851853847503662109375</LatitudeDegrees>
              <LongitudeDegrees>-3.7675801478326320648193359375</LongitudeDegrees>
            </Position>
            <AltitudeMeters>918.79998779296875</AltitudeMeters>
            <DistanceMeters>21137.578291466</DistanceMeters>
          </Trackpoint>
          <Trackpoint>
            <Time>2020-03-07T13:37:39.000Z</Time>
            <Position>
              <LatitudeDegrees>40.67970634438097476959228515625</LatitudeDegrees>
              <LongitudeDegrees>-3.76763588748872280120849609375</LongitudeDegrees>
            </Position>
            <AltitudeMeters>919.20001220703125</AltitudeMeters>
            <DistanceMeters>21142.896392577</DistanceMeters>
          </Trackpoint>
          <Trackpoint>
            <Time>2020-03-07T13:37:40.000Z</Time>
            <Position>
              <LatitudeDegrees>40.67972796969115734100341796875</LatitudeDegrees>
              <LongitudeDegrees>-3.7676921300590038299560546875</LongitudeDegrees>
            </Position>
            <AltitudeMeters>919.4000244140625</AltitudeMeters>
            <DistanceMeters>21148.218736967</DistanceMeters>
          </Trackpoint>
          <Trackpoint>
            <Time>2020-03-07T13:37:41.000Z</Time>
            <Position>
              <LatitudeDegrees>40.67974942736327648162841796875</LatitudeDegrees>
              <LongitudeDegrees>-3.76774921081960201263427734375</LongitudeDegrees>
            </Position>
            <AltitudeMeters>919.79998779296875</AltitudeMeters>
            <DistanceMeters>21153.595939285</DistanceMeters>
          </Trackpoint>
          <Trackpoint>
            <Time>2020-03-07T13:37:42.000Z</Time>
            <Position>
              <LatitudeDegrees>40.67976954393088817596435546875</LatitudeDegrees>
              <LongitudeDegrees>-3.767807297408580780029296875</LongitudeDegrees>
            </Position>
            <AltitudeMeters>920</AltitudeMeters>
            <DistanceMeters>21158.984884065</DistanceMeters>
          </Trackpoint>
          <Trackpoint>
            <Time>2020-03-07T13:37:43.000Z</Time>
            <Position>
              <LatitudeDegrees>40.67978672683238983154296875</LatitudeDegrees>
              <LongitudeDegrees>-3.76786597073078155517578125</LongitudeDegrees>
            </Position>
            <AltitudeMeters>920.20001220703125</AltitudeMeters>
            <DistanceMeters>21164.294488444</DistanceMeters>
          </Trackpoint>
          <Trackpoint>
            <Time>2020-03-07T13:37:44.000Z</Time>
            <Position>
              <LatitudeDegrees>40.67979787476360797882080078125</LatitudeDegrees>
              <LongitudeDegrees>-3.7679274939000606536865234375</LongitudeDegrees>
            </Position>
            <AltitudeMeters>920.4000244140625</AltitudeMeters>
            <DistanceMeters>21169.634617788</DistanceMeters>
          </Trackpoint>
          <Trackpoint>
            <Time>2020-03-07T13:37:45.000Z</Time>
            <Position>
              <LatitudeDegrees>40.6798046641051769256591796875</LatitudeDegrees>
              <LongitudeDegrees>-3.7679908610880374908447265625</LongitudeDegrees>
            </Position>
            <AltitudeMeters>920.5999755859375</AltitudeMeters>
            <DistanceMeters>21175.036951271</DistanceMeters>
          </Trackpoint>
          <Trackpoint>
            <Time>2020-03-07T13:37:46.000Z</Time>
            <Position>
              <LatitudeDegrees>40.67980818450450897216796875</LatitudeDegrees>
              <LongitudeDegrees>-3.76805531792342662811279296875</LongitudeDegrees>
            </Position>
            <AltitudeMeters>920.79998779296875</AltitudeMeters>
            <DistanceMeters>21180.491683335</DistanceMeters>
          </Trackpoint>
          <Trackpoint>
            <Time>2020-03-07T13:37:47.000Z</Time>
            <Position>
              <LatitudeDegrees>40.67980759777128696441650390625</LatitudeDegrees>
              <LongitudeDegrees>-3.76812078058719635009765625</LongitudeDegrees>
            </Position>
            <AltitudeMeters>921.20001220703125</AltitudeMeters>
            <DistanceMeters>21186.01795862</DistanceMeters>
          </Trackpoint>
          <Trackpoint>
            <Time>2020-03-07T13:37:48.000Z</Time>
            <Position>
              <LatitudeDegrees>40.67980340681970119476318359375</LatitudeDegrees>
              <LongitudeDegrees>-3.7681859917938709259033203125</LongitudeDegrees>
            </Position>
            <AltitudeMeters>921.4000244140625</AltitudeMeters>
            <DistanceMeters>21191.542599639</DistanceMeters>
          </Trackpoint>
          <Trackpoint>
            <Time>2020-03-07T13:37:49.000Z</Time>
            <Position>
              <LatitudeDegrees>40.6797952763736248016357421875</LatitudeDegrees>
              <LongitudeDegrees>-3.76825153827667236328125</LongitudeDegrees>
            </Position>
            <AltitudeMeters>921.5999755859375</AltitudeMeters>
            <DistanceMeters>21197.149175786</DistanceMeters>
          </Trackpoint>
          <Trackpoint>
            <Time>2020-03-07T13:37:50.000Z</Time>
            <Position>
              <LatitudeDegrees>40.6797832064330577850341796875</LatitudeDegrees>
              <LongitudeDegrees>-3.76831700094044208526611328125</LongitudeDegrees>
            </Position>
            <AltitudeMeters>921.79998779296875</AltitudeMeters>
            <DistanceMeters>21202.834918805</DistanceMeters>
          </Trackpoint>
          <Trackpoint>
            <Time>2020-03-07T13:37:51.000Z</Time>
            <Position>
              <LatitudeDegrees>40.6797651015222072601318359375</LatitudeDegrees>
              <LongitudeDegrees>-3.76838103868067264556884765625</LongitudeDegrees>
            </Position>
            <AltitudeMeters>922</AltitudeMeters>
            <DistanceMeters>21208.604222209</DistanceMeters>
          </Trackpoint>
          <Trackpoint>
            <Time>2020-03-07T13:37:52.000Z</Time>
            <Position>
              <LatitudeDegrees>40.6797419674694538116455078125</LatitudeDegrees>
              <LongitudeDegrees>-3.7684418074786663055419921875</LongitudeDegrees>
            </Position>
            <AltitudeMeters>922.20001220703125</AltitudeMeters>
            <DistanceMeters>21214.343709893</DistanceMeters>
          </Trackpoint>
          <Trackpoint>
            <Time>2020-03-07T13:37:53.000Z</Time>
            <Position>
              <LatitudeDegrees>40.6797141395509243011474609375</LatitudeDegrees>
              <LongitudeDegrees>-3.76849872060120105743408203125</LongitudeDegrees>
            </Position>
            <AltitudeMeters>922.4000244140625</AltitudeMeters>
            <DistanceMeters>21220.058759017</DistanceMeters>
          </Trackpoint>
          <Trackpoint>
            <Time>2020-03-07T13:37:54.000Z</Time>
            <Position>
              <LatitudeDegrees>40.67968287505209445953369140625</LatitudeDegrees>
              <LongitudeDegrees>-3.76855270005762577056884765625</LongitudeDegrees>
            </Position>
            <AltitudeMeters>922.5999755859375</AltitudeMeters>
            <DistanceMeters>21225.791949949</DistanceMeters>
          </Trackpoint>
          <Trackpoint>
            <Time>2020-03-07T13:37:55.000Z</Time>
            <Position>
              <LatitudeDegrees>40.67964901216328144073486328125</LatitudeDegrees>
              <LongitudeDegrees>-3.76860433258116245269775390625</LongitudeDegrees>
            </Position>
            <AltitudeMeters>922.79998779296875</AltitudeMeters>
            <DistanceMeters>21231.55342207</DistanceMeters>
          </Trackpoint>
          <Trackpoint>
            <Time>2020-03-07T13:37:56.000Z</Time>
            <Position>
              <LatitudeDegrees>40.67961112596094608306884765625</LatitudeDegrees>
              <LongitudeDegrees>-3.7686525285243988037109375</LongitudeDegrees>
            </Position>
            <AltitudeMeters>923</AltitudeMeters>
            <DistanceMeters>21237.412803492</DistanceMeters>
          </Trackpoint>
          <Trackpoint>
            <Time>2020-03-07T13:37:57.000Z</Time>
            <Position>
              <LatitudeDegrees>40.67957005463540554046630859375</LatitudeDegrees>
              <LongitudeDegrees>-3.76869670115411281585693359375</LongitudeDegrees>
            </Position>
            <AltitudeMeters>923</AltitudeMeters>
            <DistanceMeters>21243.31211825</DistanceMeters>
          </Trackpoint>
          <Trackpoint>
            <Time>2020-03-07T13:37:58.000Z</Time>
            <Position>
              <LatitudeDegrees>40.67952697165310382843017578125</LatitudeDegrees>
              <LongitudeDegrees>-3.76873643137514591217041015625</LongitudeDegrees>
            </Position>
            <AltitudeMeters>923.20001220703125</AltitudeMeters>
            <DistanceMeters>21249.163017309</DistanceMeters>
          </Trackpoint>
          <Trackpoint>
            <Time>2020-03-07T13:37:59.000Z</Time>
            <Position>
              <LatitudeDegrees>40.67948154173791408538818359375</LatitudeDegrees>
              <LongitudeDegrees>-3.76877331174910068511962890625</LongitudeDegrees>
            </Position>
            <AltitudeMeters>923.4000244140625</AltitudeMeters>
            <DistanceMeters>21255.10047623</DistanceMeters>
          </Trackpoint>
          <Trackpoint>
            <Time>2020-03-07T13:38:00.000Z</Time>
            <Position>
              <LatitudeDegrees>40.67943594418466091156005859375</LatitudeDegrees>
              <LongitudeDegrees>-3.76880968920886516571044921875</LongitudeDegrees>
            </Position>
            <AltitudeMeters>923.4000244140625</AltitudeMeters>
            <DistanceMeters>21261.032609733</DistanceMeters>
          </Trackpoint>
          <Trackpoint>
            <Time>2020-03-07T13:38:01.000Z</Time>
            <Position>
              <LatitudeDegrees>40.67939101718366146087646484375</LatitudeDegrees>
              <LongitudeDegrees>-3.7688464857637882232666015625</LongitudeDegrees>
            </Position>
            <AltitudeMeters>923.4000244140625</AltitudeMeters>
            <DistanceMeters>21266.918899168</DistanceMeters>
          </Trackpoint>
          <Trackpoint>
            <Time>2020-03-07T13:38:02.000Z</Time>
            <Position>
              <LatitudeDegrees>40.67934826947748661041259765625</LatitudeDegrees>
              <LongitudeDegrees>-3.7688840366899967193603515625</LongitudeDegrees>
            </Position>
            <AltitudeMeters>923.5999755859375</AltitudeMeters>
            <DistanceMeters>21272.63631788</DistanceMeters>
          </Trackpoint>
          <Trackpoint>
            <Time>2020-03-07T13:38:03.000Z</Time>
            <Position>
              <LatitudeDegrees>40.67930661141872406005859375</LatitudeDegrees>
              <LongitudeDegrees>-3.7689232639968395233154296875</LongitudeDegrees>
            </Position>
            <AltitudeMeters>923.5999755859375</AltitudeMeters>
            <DistanceMeters>21278.334752305</DistanceMeters>
          </Trackpoint>
          <Trackpoint>
            <Time>2020-03-07T13:38:04.000Z</Time>
            <Position>
              <LatitudeDegrees>40.67926964722573757171630859375</LatitudeDegrees>
              <LongitudeDegrees>-3.7689671851694583892822265625</LongitudeDegrees>
            </Position>
            <AltitudeMeters>923.5999755859375</AltitudeMeters>
            <DistanceMeters>21283.872453958</DistanceMeters>
          </Trackpoint>
          <Trackpoint>
            <Time>2020-03-07T13:38:05.000Z</Time>
            <Position>
              <LatitudeDegrees>40.67924098111689090728759765625</LatitudeDegrees>
              <LongitudeDegrees>-3.769014962017536163330078125</LongitudeDegrees>
            </Position>
            <AltitudeMeters>923.79998779296875</AltitudeMeters>
            <DistanceMeters>21289.014444218</DistanceMeters>
          </Trackpoint>
          <Trackpoint>
            <Time>2020-03-07T13:38:06.000Z</Time>
            <Position>
              <LatitudeDegrees>40.67921868525445461273193359375</LatitudeDegrees>
              <LongitudeDegrees>-3.76906718127429485321044921875</LongitudeDegrees>
            </Position>
            <AltitudeMeters>924</AltitudeMeters>
            <DistanceMeters>21294.073222394</DistanceMeters>
          </Trackpoint>
          <Trackpoint>
            <Time>2020-03-07T13:38:07.000Z</Time>
            <Position>
              <LatitudeDegrees>40.6792035140097141265869140625</LatitudeDegrees>
              <LongitudeDegrees>-3.76912317238748073577880859375</LongitudeDegrees>
            </Position>
            <AltitudeMeters>924.20001220703125</AltitudeMeters>
            <DistanceMeters>21299.092576265</DistanceMeters>
          </Trackpoint>
          <Trackpoint>
            <Time>2020-03-07T13:38:08.000Z</Time>
            <Position>
              <LatitudeDegrees>40.67919588647782802581787109375</LatitudeDegrees>
              <LongitudeDegrees>-3.76918151043355464935302734375</LongitudeDegrees>
            </Position>
            <AltitudeMeters>924.4000244140625</AltitudeMeters>
            <DistanceMeters>21304.089391388</DistanceMeters>
          </Trackpoint>
          <Trackpoint>
            <Time>2020-03-07T13:38:09.000Z</Time>
            <Position>
              <LatitudeDegrees>40.67919370718300342559814453125</LatitudeDegrees>
              <LongitudeDegrees>-3.76923750154674053192138671875</LongitudeDegrees>
            </Position>
            <AltitudeMeters>924.5999755859375</AltitudeMeters>
            <DistanceMeters>21308.822637595</DistanceMeters>
          </Trackpoint>
          <Trackpoint>
            <Time>2020-03-07T13:38:10.000Z</Time>
            <Position>
              <LatitudeDegrees>40.67919136025011539459228515625</LatitudeDegrees>
              <LongitudeDegrees>-3.76928645186126232147216796875</LongitudeDegrees>
            </Position>
            <AltitudeMeters>924.79998779296875</AltitudeMeters>
            <DistanceMeters>21312.962575407</DistanceMeters>
          </Trackpoint>
          <Trackpoint>
            <Time>2020-03-07T13:38:11.000Z</Time>
            <Position>
              <LatitudeDegrees>40.67918901331722736358642578125</LatitudeDegrees>
              <LongitudeDegrees>-3.76934210769832134246826171875</LongitudeDegrees>
            </Position>
            <AltitudeMeters>924.79998779296875</AltitudeMeters>
            <DistanceMeters>21317.667117613</DistanceMeters>
          </Trackpoint>
          <Trackpoint>
            <Time>2020-03-07T13:38:12.000Z</Time>
            <Position>
              <LatitudeDegrees>40.679186917841434478759765625</LatitudeDegrees>
              <LongitudeDegrees>-3.76940513961017131805419921875</LongitudeDegrees>
            </Position>
            <AltitudeMeters>925.20001220703125</AltitudeMeters>
            <DistanceMeters>21322.992006347</DistanceMeters>
          </Trackpoint>
          <Trackpoint>
            <Time>2020-03-07T13:38:13.000Z</Time>
            <Position>
              <LatitudeDegrees>40.67919001914560794830322265625</LatitudeDegrees>
              <LongitudeDegrees>-3.769467584788799285888671875</LongitudeDegrees>
            </Position>
            <AltitudeMeters>925.4000244140625</AltitudeMeters>
            <DistanceMeters>21328.273474527</DistanceMeters>
          </Trackpoint>
          <Trackpoint>
            <Time>2020-03-07T13:38:14.000Z</Time>
            <Position>
              <LatitudeDegrees>40.6792041845619678497314453125</LatitudeDegrees>
              <LongitudeDegrees>-3.7695281021296977996826171875</LongitudeDegrees>
            </Position>
            <AltitudeMeters>925.5999755859375</AltitudeMeters>
            <DistanceMeters>21333.618674417</DistanceMeters>
          </Trackpoint>
          <Trackpoint>
            <Time>2020-03-07T13:38:15.000Z</Time>
            <Position>
              <LatitudeDegrees>40.67922673188149929046630859375</LatitudeDegrees>
              <LongitudeDegrees>-3.769592307507991790771484375</LongitudeDegrees>
            </Position>
            <AltitudeMeters>925.5999755859375</AltitudeMeters>
            <DistanceMeters>21339.591010807</DistanceMeters>
          </Trackpoint>
          <Trackpoint>
            <Time>2020-03-07T13:38:16.000Z</Time>
            <Position>
              <LatitudeDegrees>40.67925506271421909332275390625</LatitudeDegrees>
              <LongitudeDegrees>-3.76965223811566829681396484375</LongitudeDegrees>
            </Position>
            <AltitudeMeters>925.5999755859375</AltitudeMeters>
            <DistanceMeters>21345.552753915</DistanceMeters>
          </Trackpoint>
          <Trackpoint>
            <Time>2020-03-07T13:38:17.000Z</Time>
            <Position>
              <LatitudeDegrees>40.67929144017398357391357421875</LatitudeDegrees>
              <LongitudeDegrees>-3.7697111628949642181396484375</LongitudeDegrees>
            </Position>
            <AltitudeMeters>925.5999755859375</AltitudeMeters>
            <DistanceMeters>21351.966177198</DistanceMeters>
          </Trackpoint>
          <Trackpoint>
            <Time>2020-03-07T13:38:18.000Z</Time>
            <Position>
              <LatitudeDegrees>40.6793312542140483856201171875</LatitudeDegrees>
              <LongitudeDegrees>-3.76976908184587955474853515625</LongitudeDegrees>
            </Position>
            <AltitudeMeters>925.5999755859375</AltitudeMeters>
            <DistanceMeters>21358.564891361</DistanceMeters>
          </Trackpoint>
          <Trackpoint>
            <Time>2020-03-07T13:38:19.000Z</Time>
            <Position>
              <LatitudeDegrees>40.6793681345880031585693359375</LatitudeDegrees>
              <LongitudeDegrees>-3.7698174454271793365478515625</LongitudeDegrees>
            </Position>
            <AltitudeMeters>925.79998779296875</AltitudeMeters>
            <DistanceMeters>21364.354506526</DistanceMeters>
          </Trackpoint>
          <Trackpoint>
            <Time>2020-03-07T13:38:20.000Z</Time>
            <Position>
              <LatitudeDegrees>40.6794009916484355926513671875</LatitudeDegrees>
              <LongitudeDegrees>-3.76986195333302021026611328125</LongitudeDegrees>
            </Position>
            <AltitudeMeters>925.79998779296875</AltitudeMeters>
            <DistanceMeters>21369.597363829</DistanceMeters>
          </Trackpoint>
          <Trackpoint>
            <Time>2020-03-07T13:38:21.000Z</Time>
            <Position>
              <LatitudeDegrees>40.679429657757282257080078125</LatitudeDegrees>
              <LongitudeDegrees>-3.76990721561014652252197265625</LongitudeDegrees>
            </Position>
            <AltitudeMeters>925.79998779296875</AltitudeMeters>
            <DistanceMeters>21374.576074489</DistanceMeters>
          </Trackpoint>
          <Trackpoint>
            <Time>2020-03-07T13:38:22.000Z</Time>
            <Position>
              <LatitudeDegrees>40.67945002578198909759521484375</LatitudeDegrees>
              <LongitudeDegrees>-3.7699549086391925811767578125</LongitudeDegrees>
            </Position>
            <AltitudeMeters>925.79998779296875</AltitudeMeters>
            <DistanceMeters>21379.196366765</DistanceMeters>
          </Trackpoint>
          <Trackpoint>
            <Time>2020-03-07T13:38:23.000Z</Time>
            <Position>
              <LatitudeDegrees>40.67944952286779880523681640625</LatitudeDegrees>
              <LongitudeDegrees>-3.76999623142182826995849609375</LongitudeDegrees>
            </Position>
            <AltitudeMeters>925.79998779296875</AltitudeMeters>
            <DistanceMeters>21382.686577808</DistanceMeters>
          </Trackpoint>
          <Trackpoint>
            <Time>2020-03-07T13:42:01.000Z</Time>
            <Position>
              <LatitudeDegrees>40.6791448406875133514404296875</LatitudeDegrees>
              <LongitudeDegrees>-3.76976841129362583160400390625</LongitudeDegrees>
            </Position>
            <AltitudeMeters>928.79998779296875</AltitudeMeters>
            <DistanceMeters>21421.671164324</DistanceMeters>
          </Trackpoint>
          <Trackpoint>
            <Time>2020-03-07T13:42:02.000Z</Time>
            <Position>
              <LatitudeDegrees>40.6791331060230731964111328125</LatitudeDegrees>
              <LongitudeDegrees>-3.7697463668882846832275390625</LongitudeDegrees>
            </Position>
            <AltitudeMeters>928.79998779296875</AltitudeMeters>
            <DistanceMeters>21423.94387278</DistanceMeters>
          </Trackpoint>
          <Trackpoint>
            <Time>2020-03-07T13:42:03.000Z</Time>
            <Position>
              <LatitudeDegrees>40.67911751568317413330078125</LatitudeDegrees>
              <LongitudeDegrees>-3.76972046680748462677001953125</LongitudeDegrees>
            </Position>
            <AltitudeMeters>928.79998779296875</AltitudeMeters>
            <DistanceMeters>21426.733841578</DistanceMeters>
          </Trackpoint>
          <Trackpoint>
            <Time>2020-03-07T13:42:04.000Z</Time>
            <Position>
              <LatitudeDegrees>40.67909748293459415435791015625</LatitudeDegrees>
              <LongitudeDegrees>-3.769690208137035369873046875</LongitudeDegrees>
            </Position>
            <AltitudeMeters>928.79998779296875</AltitudeMeters>
            <DistanceMeters>21430.122979704</DistanceMeters>
          </Trackpoint>
          <Trackpoint>
            <Time>2020-03-07T13:42:05.000Z</Time>
            <Position>
              <LatitudeDegrees>40.679070241749286651611328125</LatitudeDegrees>
              <LongitudeDegrees>-3.76966045238077640533447265625</LongitudeDegrees>
            </Position>
            <AltitudeMeters>928.79998779296875</AltitudeMeters>
            <DistanceMeters>21434.061719519</DistanceMeters>
          </Trackpoint>
          <Trackpoint>
            <Time>2020-03-07T13:42:06.000Z</Time>
            <Position>
              <LatitudeDegrees>40.6790355406701564788818359375</LatitudeDegrees>
              <LongitudeDegrees>-3.76963446848094463348388671875</LongitudeDegrees>
            </Position>
            <AltitudeMeters>928.79998779296875</AltitudeMeters>
            <DistanceMeters>21438.503646694</DistanceMeters>
          </Trackpoint>
          <Trackpoint>
            <Time>2020-03-07T13:42:07.000Z</Time>
            <Position>
              <LatitudeDegrees>40.67899287678301334381103515625</LatitudeDegrees>
              <LongitudeDegrees>-3.76961954869329929351806640625</LongitudeDegrees>
            </Position>
            <AltitudeMeters>928.79998779296875</AltitudeMeters>
            <DistanceMeters>21443.415709831</DistanceMeters>
          </Trackpoint>
          <Trackpoint>
            <Time>2020-03-07T13:42:08.000Z</Time>
            <Position>
              <LatitudeDegrees>40.67893990315496921539306640625</LatitudeDegrees>
              <LongitudeDegrees>-3.7696072272956371307373046875</LongitudeDegrees>
            </Position>
            <AltitudeMeters>928.79998779296875</AltitudeMeters>
            <DistanceMeters>21449.403146969</DistanceMeters>
          </Trackpoint>
          <Trackpoint>
            <Time>2020-03-07T13:42:09.000Z</Time>
            <Position>
              <LatitudeDegrees>40.67888743244111537933349609375</LatitudeDegrees>
              <LongitudeDegrees>-3.7696068920195102691650390625</LongitudeDegrees>
            </Position>
            <AltitudeMeters>928.79998779296875</AltitudeMeters>
            <DistanceMeters>21455.243232476</DistanceMeters>
          </Trackpoint>
          <Trackpoint>
            <Time>2020-03-07T13:42:10.000Z</Time>
            <Position>
              <LatitudeDegrees>40.6788347102701663970947265625</LatitudeDegrees>
              <LongitudeDegrees>-3.76961217261850833892822265625</LongitudeDegrees>
            </Position>
            <AltitudeMeters>928.79998779296875</AltitudeMeters>
            <DistanceMeters>21461.127987625</DistanceMeters>
          </Trackpoint>
          <Trackpoint>
            <Time>2020-03-07T13:42:11.000Z</Time>
            <Position>
              <LatitudeDegrees>40.6787814013659954071044921875</LatitudeDegrees>
              <LongitudeDegrees>-3.76961887814104557037353515625</LongitudeDegrees>
            </Position>
            <AltitudeMeters>928.79998779296875</AltitudeMeters>
            <DistanceMeters>21467.08821587</DistanceMeters>
          </Trackpoint>
          <Trackpoint>
            <Time>2020-03-07T13:42:12.000Z</Time>
            <Position>
              <LatitudeDegrees>40.67872817628085613250732421875</LatitudeDegrees>
              <LongitudeDegrees>-3.76962658949196338653564453125</LongitudeDegrees>
            </Position>
            <AltitudeMeters>928.79998779296875</AltitudeMeters>
            <DistanceMeters>21473.048444115</DistanceMeters>
          </Trackpoint>
          <Trackpoint>
            <Time>2020-03-07T13:42:13.000Z</Time>
            <Position>
              <LatitudeDegrees>40.6786737777292728424072265625</LatitudeDegrees>
              <LongitudeDegrees>-3.76963195390999317169189453125</LongitudeDegrees>
            </Position>
            <AltitudeMeters>928.5999755859375</AltitudeMeters>
            <DistanceMeters>21479.119751391</DistanceMeters>
          </Trackpoint>
          <Trackpoint>
            <Time>2020-03-07T13:42:14.000Z</Time>
            <Position>
              <LatitudeDegrees>40.6786197982728481292724609375</LatitudeDegrees>
              <LongitudeDegrees>-3.7696374021470546722412109375</LongitudeDegrees>
            </Position>
            <AltitudeMeters>928.4000244140625</AltitudeMeters>
            <DistanceMeters>21485.146273394</DistanceMeters>
          </Trackpoint>
          <Trackpoint>
            <Time>2020-03-07T13:42:15.000Z</Time>
            <Position>
              <LatitudeDegrees>40.6785661540925502777099609375</LatitudeDegrees>
              <LongitudeDegrees>-3.76964486204087734222412109375</LongitudeDegrees>
            </Position>
            <AltitudeMeters>928.20001220703125</AltitudeMeters>
            <DistanceMeters>21491.150277489</DistanceMeters>
          </Trackpoint>
          <Trackpoint>
            <Time>2020-03-07T13:42:16.000Z</Time>
            <Position>
              <LatitudeDegrees>40.6785128451883792877197265625</LatitudeDegrees>
              <LongitudeDegrees>-3.76965139992535114288330078125</LongitudeDegrees>
            </Position>
            <AltitudeMeters>928</AltitudeMeters>
            <DistanceMeters>21497.109748158</DistanceMeters>
          </Trackpoint>
          <Trackpoint>
            <Time>2020-03-07T13:42:17.000Z</Time>
            <Position>
              <LatitudeDegrees>40.6784592010080814361572265625</LatitudeDegrees>
              <LongitudeDegrees>-3.76965500414371490478515625</LongitudeDegrees>
            </Position>
            <AltitudeMeters>928</AltitudeMeters>
            <DistanceMeters>21503.088129424</DistanceMeters>
          </Trackpoint>
          <Trackpoint>
            <Time>2020-03-07T13:42:18.000Z</Time>
            <Position>
              <LatitudeDegrees>40.67840513773262500762939453125</LatitudeDegrees>
              <LongitudeDegrees>-3.76965810544788837432861328125</LongitudeDegrees>
            </Position>
            <AltitudeMeters>928</AltitudeMeters>
            <DistanceMeters>21509.111653903</DistanceMeters>
          </Trackpoint>
          <Trackpoint>
            <Time>2020-03-07T13:42:19.000Z</Time>
            <Position>
              <LatitudeDegrees>40.6783505715429782867431640625</LatitudeDegrees>
              <LongitudeDegrees>-3.7696615420281887054443359375</LongitudeDegrees>
            </Position>
            <AltitudeMeters>927.79998779296875</AltitudeMeters>
            <DistanceMeters>21515.191878649</DistanceMeters>
          </Trackpoint>
          <Trackpoint>
            <Time>2020-03-07T13:42:20.000Z</Time>
            <Position>
              <LatitudeDegrees>40.67829784937202930450439453125</LatitudeDegrees>
              <LongitudeDegrees>-3.7696585245430469512939453125</LongitudeDegrees>
            </Position>
            <AltitudeMeters>927.79998779296875</AltitudeMeters>
            <DistanceMeters>21521.065113875</DistanceMeters>
          </Trackpoint>
          <Trackpoint>
            <Time>2020-03-07T13:42:21.000Z</Time>
            <Position>
              <LatitudeDegrees>40.67824780941009521484375</LatitudeDegrees>
              <LongitudeDegrees>-3.7696420960128307342529296875</LongitudeDegrees>
            </Position>
            <AltitudeMeters>927.79998779296875</AltitudeMeters>
            <DistanceMeters>21526.804601558</DistanceMeters>
          </Trackpoint>
          <Trackpoint>
            <Time>2020-03-07T13:42:22.000Z</Time>
            <Position>
              <LatitudeDegrees>40.67820020020008087158203125</LatitudeDegrees>
              <LongitudeDegrees>-3.769619800150394439697265625</LongitudeDegrees>
            </Position>
            <AltitudeMeters>927.79998779296875</AltitudeMeters>
            <DistanceMeters>21532.42726086</DistanceMeters>
          </Trackpoint>
          <Trackpoint>
            <Time>2020-03-07T13:42:23.000Z</Time>
            <Position>
              <LatitudeDegrees>40.6781547702848911285400390625</LatitudeDegrees>
              <LongitudeDegrees>-3.769608400762081146240234375</LongitudeDegrees>
            </Position>
            <AltitudeMeters>927.79998779296875</AltitudeMeters>
            <DistanceMeters>21537.573639608</DistanceMeters>
          </Trackpoint>
          <Trackpoint>
            <Time>2020-03-07T13:42:24.000Z</Time>
            <Position>
              <LatitudeDegrees>40.6781135313212871551513671875</LatitudeDegrees>
              <LongitudeDegrees>-3.76960546709597110748291015625</LongitudeDegrees>
            </Position>
            <AltitudeMeters>927.79998779296875</AltitudeMeters>
            <DistanceMeters>21542.170418793</DistanceMeters>
          </Trackpoint>
          <Trackpoint>
            <Time>2020-03-07T13:42:25.000Z</Time>
            <Position>
              <LatitudeDegrees>40.67808059044182300567626953125</LatitudeDegrees>
              <LongitudeDegrees>-3.769603706896305084228515625</LongitudeDegrees>
            </Position>
            <AltitudeMeters>927.79998779296875</AltitudeMeters>
            <DistanceMeters>21545.838499204</DistanceMeters>
          </Trackpoint>
          <Trackpoint>
            <Time>2020-03-07T13:42:26.000Z</Time>
            <Position>
              <LatitudeDegrees>40.67804773338139057159423828125</LatitudeDegrees>
              <LongitudeDegrees>-3.76959465444087982177734375</LongitudeDegrees>
            </Position>
            <AltitudeMeters>927.79998779296875</AltitudeMeters>
            <DistanceMeters>21549.57487421</DistanceMeters>
          </Trackpoint>
          <Trackpoint>
            <Time>2020-03-07T13:42:27.000Z</Time>
            <Position>
              <LatitudeDegrees>40.67802158184349536895751953125</LatitudeDegrees>
              <LongitudeDegrees>-3.769572190940380096435546875</LongitudeDegrees>
            </Position>
            <AltitudeMeters>927.79998779296875</AltitudeMeters>
            <DistanceMeters>21553.048227363</DistanceMeters>
          </Trackpoint>
          <Trackpoint>
            <Time>2020-03-07T13:42:28.000Z</Time>
            <Position>
              <LatitudeDegrees>40.6780038960278034210205078125</LatitudeDegrees>
              <LongitudeDegrees>-3.76954595558345317840576171875</LongitudeDegrees>
            </Position>
            <AltitudeMeters>927.79998779296875</AltitudeMeters>
            <DistanceMeters>21556.010867116</DistanceMeters>
          </Trackpoint>
          <Trackpoint>
            <Time>2020-03-07T13:42:29.000Z</Time>
            <Position>
              <LatitudeDegrees>40.67798939533531665802001953125</LatitudeDegrees>
              <LongitudeDegrees>-3.7695250846445560455322265625</LongitudeDegrees>
            </Position>
            <AltitudeMeters>927.79998779296875</AltitudeMeters>
            <DistanceMeters>21558.399801672</DistanceMeters>
          </Trackpoint>
          <Trackpoint>
            <Time>2020-03-07T13:42:30.000Z</Time>
            <Position>
              <LatitudeDegrees>40.67797682248055934906005859375</LatitudeDegrees>
              <LongitudeDegrees>-3.7695076502859592437744140625</LongitudeDegrees>
            </Position>
            <AltitudeMeters>927.79998779296875</AltitudeMeters>
            <DistanceMeters>21560.429017002</DistanceMeters>
          </Trackpoint>
          <Trackpoint>
            <Time>2020-03-07T13:42:31.000Z</Time>
            <Position>
              <LatitudeDegrees>40.67796207033097743988037109375</LatitudeDegrees>
              <LongitudeDegrees>-3.7694908864796161651611328125</LongitudeDegrees>
            </Position>
            <AltitudeMeters>927.79998779296875</AltitudeMeters>
            <DistanceMeters>21562.595959491</DistanceMeters>
          </Trackpoint>
          <Trackpoint>
            <Time>2020-03-07T13:42:32.000Z</Time>
            <Position>
              <LatitudeDegrees>40.67794111557304859161376953125</LatitudeDegrees>
              <LongitudeDegrees>-3.7694813311100006103515625</LongitudeDegrees>
            </Position>
            <AltitudeMeters>928</AltitudeMeters>
            <DistanceMeters>21565.062996484</DistanceMeters>
          </Trackpoint>
          <Trackpoint>
            <Time>2020-03-07T13:42:33.000Z</Time>
            <Position>
              <LatitudeDegrees>40.6779133714735507965087890625</LatitudeDegrees>
              <LongitudeDegrees>-3.7694798223674297332763671875</LongitudeDegrees>
            </Position>
            <AltitudeMeters>928.20001220703125</AltitudeMeters>
            <DistanceMeters>21568.153922054</DistanceMeters>
          </Trackpoint>
          <Trackpoint>
            <Time>2020-03-07T13:42:34.000Z</Time>
            <Position>
              <LatitudeDegrees>40.67788043059408664703369140625</LatitudeDegrees>
              <LongitudeDegrees>-3.7694814987480640411376953125</LongitudeDegrees>
            </Position>
            <AltitudeMeters>928.4000244140625</AltitudeMeters>
            <DistanceMeters>21571.823233158</DistanceMeters>
          </Trackpoint>
          <Trackpoint>
            <Time>2020-03-07T13:42:35.000Z</Time>
            <Position>
              <LatitudeDegrees>40.67784472368657588958740234375</LatitudeDegrees>
              <LongitudeDegrees>-3.76948476769030094146728515625</LongitudeDegrees>
            </Position>
            <AltitudeMeters>928.4000244140625</AltitudeMeters>
            <DistanceMeters>21575.807561757</DistanceMeters>
          </Trackpoint>
          <Trackpoint>
            <Time>2020-03-07T13:42:36.000Z</Time>
            <Position>
              <LatitudeDegrees>40.677807591855525970458984375</LatitudeDegrees>
              <LongitudeDegrees>-3.76949164085090160369873046875</LongitudeDegrees>
            </Position>
            <AltitudeMeters>928.5999755859375</AltitudeMeters>
            <DistanceMeters>21579.980089454</DistanceMeters>
          </Trackpoint>
          <Trackpoint>
            <Time>2020-03-07T13:42:37.000Z</Time>
            <Position>
              <LatitudeDegrees>40.677768029272556304931640625</LatitudeDegrees>
              <LongitudeDegrees>-3.76949943602085113525390625</LongitudeDegrees>
            </Position>
            <AltitudeMeters>928.79998779296875</AltitudeMeters>
            <DistanceMeters>21584.431155363</DistanceMeters>
          </Trackpoint>
          <Trackpoint>
            <Time>2020-03-07T13:42:38.000Z</Time>
            <Position>
              <LatitudeDegrees>40.6777279637753963470458984375</LatitudeDegrees>
              <LongitudeDegrees>-3.7695083208382129669189453125</LongitudeDegrees>
            </Position>
            <AltitudeMeters>929</AltitudeMeters>
            <DistanceMeters>21588.952669829</DistanceMeters>
          </Trackpoint>
          <Trackpoint>
            <Time>2020-03-07T13:42:39.000Z</Time>
            <Position>
              <LatitudeDegrees>40.677687227725982666015625</LatitudeDegrees>
              <LongitudeDegrees>-3.76951443962752819061279296875</LongitudeDegrees>
            </Position>
            <AltitudeMeters>929.20001220703125</AltitudeMeters>
            <DistanceMeters>21593.515931412</DistanceMeters>
          </Trackpoint>
          <Trackpoint>
            <Time>2020-03-07T13:42:40.000Z</Time>
            <Position>
              <LatitudeDegrees>40.677645988762378692626953125</LatitudeDegrees>
              <LongitudeDegrees>-3.76951754093170166015625</LongitudeDegrees>
            </Position>
            <AltitudeMeters>929.4000244140625</AltitudeMeters>
            <DistanceMeters>21598.112710598</DistanceMeters>
          </Trackpoint>
          <Trackpoint>
            <Time>2020-03-07T13:42:41.000Z</Time>
            <Position>
              <LatitudeDegrees>40.67760583944618701934814453125</LatitudeDegrees>
              <LongitudeDegrees>-3.7695237435400485992431640625</LongitudeDegrees>
            </Position>
            <AltitudeMeters>929.79998779296875</AltitudeMeters>
            <DistanceMeters>21602.612202945</DistanceMeters>
          </Trackpoint>
          <Trackpoint>
            <Time>2020-03-07T13:42:42.000Z</Time>
            <Position>
              <LatitudeDegrees>40.6775646843016147613525390625</LatitudeDegrees>
              <LongitudeDegrees>-3.7695331312716007232666015625</LongitudeDegrees>
            </Position>
            <AltitudeMeters>930</AltitudeMeters>
            <DistanceMeters>21607.260748194</DistanceMeters>
          </Trackpoint>
          <Trackpoint>
            <Time>2020-03-07T13:42:43.000Z</Time>
            <Position>
              <LatitudeDegrees>40.677520930767059326171875</LatitudeDegrees>
              <LongitudeDegrees>-3.76954503357410430908203125</LongitudeDegrees>
            </Position>
            <AltitudeMeters>930</AltitudeMeters>
            <DistanceMeters>21612.23310672</DistanceMeters>
          </Trackpoint>
          <Trackpoint>
            <Time>2020-03-07T13:42:44.000Z</Time>
            <Position>
              <LatitudeDegrees>40.67747675813734531402587890625</LatitudeDegrees>
              <LongitudeDegrees>-3.76956372521817684173583984375</LongitudeDegrees>
            </Position>
            <AltitudeMeters>930.20001220703125</AltitudeMeters>
            <DistanceMeters>21617.396127702</DistanceMeters>
          </Trackpoint>
          <Trackpoint>
            <Time>2020-03-07T13:42:45.000Z</Time>
            <Position>
              <LatitudeDegrees>40.67743786610662937164306640625</LatitudeDegrees>
              <LongitudeDegrees>-3.76959440298378467559814453125</LongitudeDegrees>
            </Position>
            <AltitudeMeters>930.4000244140625</AltitudeMeters>
            <DistanceMeters>21622.440605417</DistanceMeters>
          </Trackpoint>
          <Trackpoint>
            <Time>2020-03-07T13:42:46.000Z</Time>
            <Position>
              <LatitudeDegrees>40.67740668542683124542236328125</LatitudeDegrees>
              <LongitudeDegrees>-3.76963555812835693359375</LongitudeDegrees>
            </Position>
            <AltitudeMeters>930.4000244140625</AltitudeMeters>
            <DistanceMeters>21627.350829862</DistanceMeters>
          </Trackpoint>
          <Trackpoint>
            <Time>2020-03-07T13:42:47.000Z</Time>
            <Position>
              <LatitudeDegrees>40.67737483419477939605712890625</LatitudeDegrees>
              <LongitudeDegrees>-3.769677467644214630126953125</LongitudeDegrees>
            </Position>
            <AltitudeMeters>930.5999755859375</AltitudeMeters>
            <DistanceMeters>21632.359377792</DistanceMeters>
          </Trackpoint>
          <Trackpoint>
            <Time>2020-03-07T13:42:48.000Z</Time>
            <Position>
              <LatitudeDegrees>40.6773377023637294769287109375</LatitudeDegrees>
              <LongitudeDegrees>-3.76971292309463024139404296875</LongitudeDegrees>
            </Position>
            <AltitudeMeters>930.79998779296875</AltitudeMeters>
            <DistanceMeters>21637.462586632</DistanceMeters>
          </Trackpoint>
          <Trackpoint>
            <Time>2020-03-07T13:42:49.000Z</Time>
            <Position>
              <LatitudeDegrees>40.67729554139077663421630859375</LatitudeDegrees>
              <LongitudeDegrees>-3.76974041573703289031982421875</LongitudeDegrees>
            </Position>
            <AltitudeMeters>931</AltitudeMeters>
            <DistanceMeters>21642.696825061</DistanceMeters>
          </Trackpoint>
          <Trackpoint>
            <Time>2020-03-07T13:42:50.000Z</Time>
            <Position>
              <LatitudeDegrees>40.6772498600184917449951171875</LatitudeDegrees>
              <LongitudeDegrees>-3.76975449733436107635498046875</LongitudeDegrees>
            </Position>
            <AltitudeMeters>931.20001220703125</AltitudeMeters>
            <DistanceMeters>21647.917243694</DistanceMeters>
          </Trackpoint>
          <Trackpoint>
            <Time>2020-03-07T13:42:51.000Z</Time>
            <Position>
              <LatitudeDegrees>40.6772029213607311248779296875</LatitudeDegrees>
              <LongitudeDegrees>-3.76975550316274166107177734375</LongitudeDegrees>
            </Position>
            <AltitudeMeters>931.4000244140625</AltitudeMeters>
            <DistanceMeters>21653.142849034</DistanceMeters>
          </Trackpoint>
          <Trackpoint>
            <Time>2020-03-07T13:42:52.000Z</Time>
            <Position>
              <LatitudeDegrees>40.67715807817876338958740234375</LatitudeDegrees>
              <LongitudeDegrees>-3.76974225975573062896728515625</LongitudeDegrees>
            </Position>
            <AltitudeMeters>931.5999755859375</AltitudeMeters>
            <DistanceMeters>21658.258429307</DistanceMeters>
          </Trackpoint>
          <Trackpoint>
            <Time>2020-03-07T13:42:53.000Z</Time>
            <Position>
              <LatitudeDegrees>40.67711851559579372406005859375</LatitudeDegrees>
              <LongitudeDegrees>-3.76971174962818622589111328125</LongitudeDegrees>
            </Position>
            <AltitudeMeters>931.79998779296875</AltitudeMeters>
            <DistanceMeters>21663.358983222</DistanceMeters>
          </Trackpoint>
          <Trackpoint>
            <Time>2020-03-07T13:42:54.000Z</Time>
            <Position>
              <LatitudeDegrees>40.67708716727793216705322265625</LatitudeDegrees>
              <LongitudeDegrees>-3.76966833136975765228271484375</LongitudeDegrees>
            </Position>
            <AltitudeMeters>931.79998779296875</AltitudeMeters>
            <DistanceMeters>21668.418653836</DistanceMeters>
          </Trackpoint>
          <Trackpoint>
            <Time>2020-03-07T13:42:55.000Z</Time>
            <Position>
              <LatitudeDegrees>40.6770631112158298492431640625</LatitudeDegrees>
              <LongitudeDegrees>-3.76961384899914264678955078125</LongitudeDegrees>
            </Position>
            <AltitudeMeters>931.79998779296875</AltitudeMeters>
            <DistanceMeters>21673.74014984</DistanceMeters>
          </Trackpoint>
          <Trackpoint>
            <Time>2020-03-07T13:42:56.000Z</Time>
            <Position>
              <LatitudeDegrees>40.6770507059991359710693359375</LatitudeDegrees>
              <LongitudeDegrees>-3.76954981125891208648681640625</LongitudeDegrees>
            </Position>
            <AltitudeMeters>931.79998779296875</AltitudeMeters>
            <DistanceMeters>21679.31846889</DistanceMeters>
          </Trackpoint>
          <Trackpoint>
            <Time>2020-03-07T13:42:57.000Z</Time>
            <Position>
              <LatitudeDegrees>40.6770540587604045867919921875</LatitudeDegrees>
              <LongitudeDegrees>-3.76948292367160320281982421875</LongitudeDegrees>
            </Position>
            <AltitudeMeters>931.79998779296875</AltitudeMeters>
            <DistanceMeters>21684.97714816</DistanceMeters>
          </Trackpoint>
          <Trackpoint>
            <Time>2020-03-07T13:42:58.000Z</Time>
            <Position>
              <LatitudeDegrees>40.67707040347158908843994140625</LatitudeDegrees>
              <LongitudeDegrees>-3.76941922120749950408935546875</LongitudeDegrees>
            </Position>
            <AltitudeMeters>931.79998779296875</AltitudeMeters>
            <DistanceMeters>21690.654149378</DistanceMeters>
          </Trackpoint>
          <Trackpoint>
            <Time>2020-03-07T13:42:59.000Z</Time>
            <Position>
              <LatitudeDegrees>40.67709781229496002197265625</LatitudeDegrees>
              <LongitudeDegrees>-3.76936205662786960601806640625</LongitudeDegrees>
            </Position>
            <AltitudeMeters>931.79998779296875</AltitudeMeters>
            <DistanceMeters>21696.362083838</DistanceMeters>
          </Trackpoint>
          <Trackpoint>
            <Time>2020-03-07T13:43:00.000Z</Time>
            <Position>
              <LatitudeDegrees>40.67713477648794651031494140625</LatitudeDegrees>
              <LongitudeDegrees>-3.7693155370652675628662109375</LongitudeDegrees>
            </Position>
            <AltitudeMeters>931.79998779296875</AltitudeMeters>
            <DistanceMeters>21702.049414831</DistanceMeters>
          </Trackpoint>
          <Trackpoint>
            <Time>2020-03-07T13:43:01.000Z</Time>
            <Position>
              <LatitudeDegrees>40.6771804578602313995361328125</LatitudeDegrees>
              <LongitudeDegrees>-3.76928108744323253631591796875</LongitudeDegrees>
            </Position>
            <AltitudeMeters>932</AltitudeMeters>
            <DistanceMeters>21707.905713179</DistanceMeters>
          </Trackpoint>
          <Trackpoint>
            <Time>2020-03-07T13:43:02.000Z</Time>
            <Position>
              <LatitudeDegrees>40.67723192274570465087890625</LatitudeDegrees>
              <LongitudeDegrees>-3.769263066351413726806640625</LongitudeDegrees>
            </Position>
            <AltitudeMeters>932</AltitudeMeters>
            <DistanceMeters>21713.83251648</DistanceMeters>
          </Trackpoint>
          <Trackpoint>
            <Time>2020-03-07T13:43:03.000Z</Time>
            <Position>
              <LatitudeDegrees>40.6772864051163196563720703125</LatitudeDegrees>
              <LongitudeDegrees>-3.76926532946527004241943359375</LongitudeDegrees>
            </Position>
            <AltitudeMeters>932</AltitudeMeters>
            <DistanceMeters>21719.899360106</DistanceMeters>
          </Trackpoint>
          <Trackpoint>
            <Time>2020-03-07T13:43:04.000Z</Time>
            <Position>
              <LatitudeDegrees>40.67733996547758579254150390625</LatitudeDegrees>
              <LongitudeDegrees>-3.76928628422319889068603515625</LongitudeDegrees>
            </Position>
            <AltitudeMeters>932</AltitudeMeters>
            <DistanceMeters>21726.11762251</DistanceMeters>
          </Trackpoint>
          <Trackpoint>
            <Time>2020-03-07T13:43:05.000Z</Time>
            <Position>
              <LatitudeDegrees>40.67739226855337619781494140625</LatitudeDegrees>
              <LongitudeDegrees>-3.76931763254106044769287109375</LongitudeDegrees>
            </Position>
            <AltitudeMeters>932</AltitudeMeters>
            <DistanceMeters>21732.512009591</DistanceMeters>
          </Trackpoint>
          <Trackpoint>
            <Time>2020-03-07T13:43:06.000Z</Time>
            <Position>
              <LatitudeDegrees>40.6774439848959445953369140625</LatitudeDegrees>
              <LongitudeDegrees>-3.7693483941256999969482421875</LongitudeDegrees>
            </Position>
            <AltitudeMeters>932</AltitudeMeters>
            <DistanceMeters>21738.826818977</DistanceMeters>
          </Trackpoint>
          <Trackpoint>
            <Time>2020-03-07T13:43:07.000Z</Time>
            <Position>
              <LatitudeDegrees>40.6774996407330036163330078125</LatitudeDegrees>
              <LongitudeDegrees>-3.76936943270266056060791015625</LongitudeDegrees>
            </Position>
            <AltitudeMeters>932</AltitudeMeters>
            <DistanceMeters>21745.270443073</DistanceMeters>
          </Trackpoint>
          <Trackpoint>
            <Time>2020-03-07T13:43:08.000Z</Time>
            <Position>
              <LatitudeDegrees>40.67755856551229953765869140625</LatitudeDegrees>
              <LongitudeDegrees>-3.76937513239681720733642578125</LongitudeDegrees>
            </Position>
            <AltitudeMeters>932</AltitudeMeters>
            <DistanceMeters>21751.846538882</DistanceMeters>
          </Trackpoint>
          <Trackpoint>
            <Time>2020-03-07T13:43:09.000Z</Time>
            <Position>
              <LatitudeDegrees>40.6776206754148006439208984375</LatitudeDegrees>
              <LongitudeDegrees>-3.7693708576261997222900390625</LongitudeDegrees>
            </Position>
            <AltitudeMeters>932</AltitudeMeters>
            <DistanceMeters>21758.768502881</DistanceMeters>
          </Trackpoint>
          <Trackpoint>
            <Time>2020-03-07T13:43:10.000Z</Time>
            <Position>
              <LatitudeDegrees>40.67768597044050693511962890625</LatitudeDegrees>
              <LongitudeDegrees>-3.76936306245625019073486328125</LongitudeDegrees>
            </Position>
            <AltitudeMeters>932</AltitudeMeters>
            <DistanceMeters>21766.065787362</DistanceMeters>
          </Trackpoint>
          <Trackpoint>
            <Time>2020-03-07T13:43:11.000Z</Time>
            <Position>
              <LatitudeDegrees>40.67775621078908443450927734375</LatitudeDegrees>
              <LongitudeDegrees>-3.769357614219188690185546875</LongitudeDegrees>
            </Position>
            <AltitudeMeters>932</AltitudeMeters>
            <DistanceMeters>21773.897280145</DistanceMeters>
          </Trackpoint>
          <Trackpoint>
            <Time>2020-03-07T13:43:12.000Z</Time>
            <Position>
              <LatitudeDegrees>40.6778308935463428497314453125</LatitudeDegrees>
              <LongitudeDegrees>-3.7693510763347148895263671875</LongitudeDegrees>
            </Position>
            <AltitudeMeters>932</AltitudeMeters>
            <DistanceMeters>21782.227172545</DistanceMeters>
          </Trackpoint>
          <Trackpoint>
            <Time>2020-03-07T13:43:13.000Z</Time>
            <Position>
              <LatitudeDegrees>40.6779093481600284576416015625</LatitudeDegrees>
              <LongitudeDegrees>-3.76934462226927280426025390625</LongitudeDegrees>
            </Position>
            <AltitudeMeters>932</AltitudeMeters>
            <DistanceMeters>21790.975825466</DistanceMeters>
          </Trackpoint>
          <Trackpoint>
            <Time>2020-03-07T13:43:14.000Z</Time>
            <Position>
              <LatitudeDegrees>40.67799123935401439666748046875</LatitudeDegrees>
              <LongitudeDegrees>-3.76934126950800418853759765625</LongitudeDegrees>
            </Position>
            <AltitudeMeters>932</AltitudeMeters>
            <DistanceMeters>21800.094924872</DistanceMeters>
          </Trackpoint>
          <Trackpoint>
            <Time>2020-03-07T13:43:15.000Z</Time>
            <Position>
              <LatitudeDegrees>40.6780769862234592437744140625</LatitudeDegrees>
              <LongitudeDegrees>-3.769337497651576995849609375</LongitudeDegrees>
            </Position>
            <AltitudeMeters>932</AltitudeMeters>
            <DistanceMeters>21809.644991473</DistanceMeters>
          </Trackpoint>
          <Trackpoint>
            <Time>2020-03-07T13:43:16.000Z</Time>
            <Position>
              <LatitudeDegrees>40.67816424183547496795654296875</LatitudeDegrees>
              <LongitudeDegrees>-3.76933313906192779541015625</LongitudeDegrees>
            </Position>
            <AltitudeMeters>932</AltitudeMeters>
            <DistanceMeters>21819.363767096</DistanceMeters>
          </Trackpoint>
          <Trackpoint>
            <Time>2020-03-07T13:43:17.000Z</Time>
            <Position>
              <LatitudeDegrees>40.67825392819941043853759765625</LatitudeDegrees>
              <LongitudeDegrees>-3.7693309597671031951904296875</LongitudeDegrees>
            </Position>
            <AltitudeMeters>932</AltitudeMeters>
            <DistanceMeters>21829.34835742</DistanceMeters>
          </Trackpoint>
          <Trackpoint>
            <Time>2020-03-07T13:43:18.000Z</Time>
            <Position>
              <LatitudeDegrees>40.67834462039172649383544921875</LatitudeDegrees>
              <LongitudeDegrees>-3.7693279422819614410400390625</LongitudeDegrees>
            </Position>
            <AltitudeMeters>932</AltitudeMeters>
            <DistanceMeters>21839.445365048</DistanceMeters>
          </Trackpoint>
          <Trackpoint>
            <Time>2020-03-07T13:43:19.000Z</Time>
            <Position>
              <LatitudeDegrees>40.67843430675566196441650390625</LatitudeDegrees>
              <LongitudeDegrees>-3.7693323008716106414794921875</LongitudeDegrees>
            </Position>
            <AltitudeMeters>931.20001220703125</AltitudeMeters>
            <DistanceMeters>21849.434476355</DistanceMeters>
          </Trackpoint>
          <Trackpoint>
            <Time>2020-03-07T13:43:20.000Z</Time>
            <Position>
              <LatitudeDegrees>40.67851996980607509613037109375</LatitudeDegrees>
              <LongitudeDegrees>-3.769348226487636566162109375</LongitudeDegrees>
            </Position>
            <AltitudeMeters>930.5999755859375</AltitudeMeters>
            <DistanceMeters>21859.063172781</DistanceMeters>
          </Trackpoint>
          <Trackpoint>
            <Time>2020-03-07T13:43:21.000Z</Time>
            <Position>
              <LatitudeDegrees>40.6786040402948856353759765625</LatitudeDegrees>
              <LongitudeDegrees>-3.76936691813170909881591796875</LongitudeDegrees>
            </Position>
            <AltitudeMeters>929.79998779296875</AltitudeMeters>
            <DistanceMeters>21868.551579504</DistanceMeters>
          </Trackpoint>
          <Trackpoint>
            <Time>2020-03-07T13:43:22.000Z</Time>
            <Position>
              <LatitudeDegrees>40.67868626676499843597412109375</LatitudeDegrees>
              <LongitudeDegrees>-3.7693820893764495849609375</LongitudeDegrees>
            </Position>
            <AltitudeMeters>929</AltitudeMeters>
            <DistanceMeters>21877.793141223</DistanceMeters>
          </Trackpoint>
          <Trackpoint>
            <Time>2020-03-07T13:43:23.000Z</Time>
            <Position>
              <LatitudeDegrees>40.67876639775931835174560546875</LatitudeDegrees>
              <LongitudeDegrees>-3.7693929858505725860595703125</LongitudeDegrees>
            </Position>
            <AltitudeMeters>928.4000244140625</AltitudeMeters>
            <DistanceMeters>21886.759957863</DistanceMeters>
          </Trackpoint>
          <Trackpoint>
            <Time>2020-03-07T13:43:24.000Z</Time>
            <Position>
              <LatitudeDegrees>40.67884434945881366729736328125</LatitudeDegrees>
              <LongitudeDegrees>-3.769397176802158355712890625</LongitudeDegrees>
            </Position>
            <AltitudeMeters>927.79998779296875</AltitudeMeters>
            <DistanceMeters>21895.443340747</DistanceMeters>
          </Trackpoint>
          <Trackpoint>
            <Time>2020-03-07T13:43:25.000Z</Time>
            <Position>
              <LatitudeDegrees>40.67891961894929409027099609375</LatitudeDegrees>
              <LongitudeDegrees>-3.7693936564028263092041015625</LongitudeDegrees>
            </Position>
            <AltitudeMeters>927.5999755859375</AltitudeMeters>
            <DistanceMeters>21903.826183635</DistanceMeters>
          </Trackpoint>
          <Trackpoint>
            <Time>2020-03-07T13:43:26.000Z</Time>
            <Position>
              <LatitudeDegrees>40.67899145185947418212890625</LatitudeDegrees>
              <LongitudeDegrees>-3.76938879489898681640625</LongitudeDegrees>
            </Position>
            <AltitudeMeters>927.4000244140625</AltitudeMeters>
            <DistanceMeters>21911.832149073</DistanceMeters>
          </Trackpoint>
          <Trackpoint>
            <Time>2020-03-07T13:43:27.000Z</Time>
            <Position>
              <LatitudeDegrees>40.67906144075095653533935546875</LatitudeDegrees>
              <LongitudeDegrees>-3.76938535831868648529052734375</LongitudeDegrees>
            </Position>
            <AltitudeMeters>927.4000244140625</AltitudeMeters>
            <DistanceMeters>21919.627815464</DistanceMeters>
          </Trackpoint>
          <Trackpoint>
            <Time>2020-03-07T13:43:28.000Z</Time>
            <Position>
              <LatitudeDegrees>40.67912883125245571136474609375</LatitudeDegrees>
              <LongitudeDegrees>-3.7693805806338787078857421875</LongitudeDegrees>
            </Position>
            <AltitudeMeters>927.4000244140625</AltitudeMeters>
            <DistanceMeters>21927.139134763</DistanceMeters>
          </Trackpoint>
          <Trackpoint>
            <Time>2020-03-07T13:43:29.000Z</Time>
            <Position>
              <LatitudeDegrees>40.679193623363971710205078125</LatitudeDegrees>
              <LongitudeDegrees>-3.7693748809397220611572265625</LongitudeDegrees>
            </Position>
            <AltitudeMeters>927.4000244140625</AltitudeMeters>
            <DistanceMeters>21934.366789447</DistanceMeters>
          </Trackpoint>
          <Trackpoint>
            <Time>2020-03-07T13:43:30.000Z</Time>
            <Position>
              <LatitudeDegrees>40.6792558170855045318603515625</LatitudeDegrees>
              <LongitudeDegrees>-3.7693695165216922760009765625</LongitudeDegrees>
            </Position>
            <AltitudeMeters>927.20001220703125</AltitudeMeters>
            <DistanceMeters>21941.303088698</DistanceMeters>
          </Trackpoint>
          <Trackpoint>
            <Time>2020-03-07T13:43:31.000Z</Time>
            <Position>
              <LatitudeDegrees>40.67931558005511760711669921875</LatitudeDegrees>
              <LongitudeDegrees>-3.76936339773237705230712890625</LongitudeDegrees>
            </Position>
            <AltitudeMeters>927.20001220703125</AltitudeMeters>
            <DistanceMeters>21947.973936973</DistanceMeters>
          </Trackpoint>
          <Trackpoint>
            <Time>2020-03-07T13:43:32.000Z</Time>
            <Position>
              <LatitudeDegrees>40.6793729960918426513671875</LatitudeDegrees>
              <LongitudeDegrees>-3.76935484819114208221435546875</LongitudeDegrees>
            </Position>
            <AltitudeMeters>927.20001220703125</AltitudeMeters>
            <DistanceMeters>21954.404936127</DistanceMeters>
          </Trackpoint>
          <Trackpoint>
            <Time>2020-03-07T13:43:33.000Z</Time>
            <Position>
              <LatitudeDegrees>40.67943024449050426483154296875</LatitudeDegrees>
              <LongitudeDegrees>-3.76934864558279514312744140625</LongitudeDegrees>
            </Position>
            <AltitudeMeters>927.20001220703125</AltitudeMeters>
            <DistanceMeters>21960.797910864</DistanceMeters>
          </Trackpoint>
          <Trackpoint>
            <Time>2020-03-07T13:43:34.000Z</Time>
            <Position>
              <LatitudeDegrees>40.679487995803356170654296875</LatitudeDegrees>
              <LongitudeDegrees>-3.76934881322085857391357421875</LongitudeDegrees>
            </Position>
            <AltitudeMeters>927.5999755859375</AltitudeMeters>
            <DistanceMeters>21967.226101107</DistanceMeters>
          </Trackpoint>
          <Trackpoint>
            <Time>2020-03-07T13:43:35.000Z</Time>
            <Position>
              <LatitudeDegrees>40.6795465014874935150146484375</LatitudeDegrees>
              <LongitudeDegrees>-3.769348897039890289306640625</LongitudeDegrees>
            </Position>
            <AltitudeMeters>928</AltitudeMeters>
            <DistanceMeters>21973.73872493</DistanceMeters>
          </Trackpoint>
          <Trackpoint>
            <Time>2020-03-07T13:43:36.000Z</Time>
            <Position>
              <LatitudeDegrees>40.67960676737129688262939453125</LatitudeDegrees>
              <LongitudeDegrees>-3.76934110186994075775146484375</LongitudeDegrees>
            </Position>
            <AltitudeMeters>928.4000244140625</AltitudeMeters>
            <DistanceMeters>21980.478256406</DistanceMeters>
          </Trackpoint>
          <Trackpoint>
            <Time>2020-03-07T13:43:37.000Z</Time>
            <Position>
              <LatitudeDegrees>40.6796675361692905426025390625</LatitudeDegrees>
              <LongitudeDegrees>-3.76933171413838863372802734375</LongitudeDegrees>
            </Position>
            <AltitudeMeters>928.79998779296875</AltitudeMeters>
            <DistanceMeters>21987.288430604</DistanceMeters>
          </Trackpoint>
          <Trackpoint>
            <Time>2020-03-07T13:43:38.000Z</Time>
            <Position>
              <LatitudeDegrees>40.67972771823406219482421875</LatitudeDegrees>
              <LongitudeDegrees>-3.76932366751134395599365234375</LongitudeDegrees>
            </Position>
            <AltitudeMeters>929.4000244140625</AltitudeMeters>
            <DistanceMeters>21994.021259412</DistanceMeters>
          </Trackpoint>
          <Trackpoint>
            <Time>2020-03-07T13:43:39.000Z</Time>
            <Position>
              <LatitudeDegrees>40.6797848828136920928955078125</LatitudeDegrees>
              <LongitudeDegrees>-3.76931729726493358612060546875</LongitudeDegrees>
            </Position>
            <AltitudeMeters>929.79998779296875</AltitudeMeters>
            <DistanceMeters>22000.407167743</DistanceMeters>
          </Trackpoint>
          <Trackpoint>
            <Time>2020-03-07T13:43:40.000Z</Time>
            <Position>
              <LatitudeDegrees>40.67984229885041713714599609375</LatitudeDegrees>
              <LongitudeDegrees>-3.7693108431994915008544921875</LongitudeDegrees>
            </Position>
            <AltitudeMeters>930.20001220703125</AltitudeMeters>
            <DistanceMeters>22006.821294986</DistanceMeters>
          </Trackpoint>
          <Trackpoint>
            <Time>2020-03-07T13:43:41.000Z</Time>
            <Position>
              <LatitudeDegrees>40.679899044334888458251953125</LatitudeDegrees>
              <LongitudeDegrees>-3.76930137164890766143798828125</LongitudeDegrees>
            </Position>
            <AltitudeMeters>930.5999755859375</AltitudeMeters>
            <DistanceMeters>22013.187375654</DistanceMeters>
          </Trackpoint>
          <Trackpoint>
            <Time>2020-03-07T13:43:42.000Z</Time>
            <Position>
              <LatitudeDegrees>40.679955370724201202392578125</LatitudeDegrees>
              <LongitudeDegrees>-3.7692907266318798065185546875</LongitudeDegrees>
            </Position>
            <AltitudeMeters>930.79998779296875</AltitudeMeters>
            <DistanceMeters>22019.52074755</DistanceMeters>
          </Trackpoint>
          <Trackpoint>
            <Time>2020-03-07T13:43:43.000Z</Time>
            <Position>
              <LatitudeDegrees>40.68001178093254566192626953125</LatitudeDegrees>
              <LongitudeDegrees>-3.76927957870066165924072265625</LongitudeDegrees>
            </Position>
            <AltitudeMeters>931.20001220703125</AltitudeMeters>
            <DistanceMeters>22025.869783795</DistanceMeters>
          </Trackpoint>
          <Trackpoint>
            <Time>2020-03-07T13:43:44.000Z</Time>
            <Position>
              <LatitudeDegrees>40.6800681911408901214599609375</LatitudeDegrees>
              <LongitudeDegrees>-3.76926742494106292724609375</LongitudeDegrees>
            </Position>
            <AltitudeMeters>931.5999755859375</AltitudeMeters>
            <DistanceMeters>22032.231607639</DistanceMeters>
          </Trackpoint>
          <Trackpoint>
            <Time>2020-03-07T13:43:45.000Z</Time>
            <Position>
              <LatitudeDegrees>40.68012476898729801177978515625</LatitudeDegrees>
              <LongitudeDegrees>-3.76925711520016193389892578125</LongitudeDegrees>
            </Position>
            <AltitudeMeters>931.79998779296875</AltitudeMeters>
            <DistanceMeters>22038.587751282</DistanceMeters>
          </Trackpoint>
          <Trackpoint>
            <Time>2020-03-07T13:43:46.000Z</Time>
            <Position>
              <LatitudeDegrees>40.6801808439195156097412109375</LatitudeDegrees>
              <LongitudeDegrees>-3.7692474760115146636962890625</LongitudeDegrees>
            </Position>
            <AltitudeMeters>932</AltitudeMeters>
            <DistanceMeters>22044.881074354</DistanceMeters>
          </Trackpoint>
          <Trackpoint>
            <Time>2020-03-07T13:43:47.000Z</Time>
            <Position>
              <LatitudeDegrees>40.6802364997565746307373046875</LatitudeDegrees>
              <LongitudeDegrees>-3.76923465169966220855712890625</LongitudeDegrees>
            </Position>
            <AltitudeMeters>932.4000244140625</AltitudeMeters>
            <DistanceMeters>22051.170091353</DistanceMeters>
          </Trackpoint>
          <Trackpoint>
            <Time>2020-03-07T13:43:48.000Z</Time>
            <Position>
              <LatitudeDegrees>40.68029223941266536712646484375</LatitudeDegrees>
              <LongitudeDegrees>-3.76921788789331912994384765625</LongitudeDegrees>
            </Position>
            <AltitudeMeters>932.5999755859375</AltitudeMeters>
            <DistanceMeters>22057.533334455</DistanceMeters>
          </Trackpoint>
          <Trackpoint>
            <Time>2020-03-07T13:43:49.000Z</Time>
            <Position>
              <LatitudeDegrees>40.680348314344882965087890625</LatitudeDegrees>
              <LongitudeDegrees>-3.76919911243021488189697265625</LongitudeDegrees>
            </Position>
            <AltitudeMeters>932.79998779296875</AltitudeMeters>
            <DistanceMeters>22063.972752987</DistanceMeters>
          </Trackpoint>
          <Trackpoint>
            <Time>2020-03-07T13:43:50.000Z</Time>
            <Position>
              <LatitudeDegrees>40.680404640734195709228515625</LatitudeDegrees>
              <LongitudeDegrees>-3.7691795825958251953125</LongitudeDegrees>
            </Position>
            <AltitudeMeters>932.79998779296875</AltitudeMeters>
            <DistanceMeters>22070.45549745</DistanceMeters>
          </Trackpoint>
          <Trackpoint>
            <Time>2020-03-07T13:43:51.000Z</Time>
            <Position>
              <LatitudeDegrees>40.6804607994854450225830078125</LatitudeDegrees>
              <LongitudeDegrees>-3.76916189678013324737548828125</LongitudeDegrees>
            </Position>
            <AltitudeMeters>933</AltitudeMeters>
            <DistanceMeters>22076.882282778</DistanceMeters>
          </Trackpoint>
          <Trackpoint>
            <Time>2020-03-07T13:43:52.000Z</Time>
            <Position>
              <LatitudeDegrees>40.68051687441766262054443359375</LatitudeDegrees>
              <LongitudeDegrees>-3.769142366945743560791015625</LongitudeDegrees>
            </Position>
            <AltitudeMeters>933</AltitudeMeters>
            <DistanceMeters>22083.337108315</DistanceMeters>
          </Trackpoint>
          <Trackpoint>
            <Time>2020-03-07T13:43:53.000Z</Time>
            <Position>
              <LatitudeDegrees>40.6805744580924510955810546875</LatitudeDegrees>
              <LongitudeDegrees>-3.7691230885684490203857421875</LongitudeDegrees>
            </Position>
            <AltitudeMeters>933.20001220703125</AltitudeMeters>
            <DistanceMeters>22089.949492919</DistanceMeters>
          </Trackpoint>
          <Trackpoint>
            <Time>2020-03-07T13:43:54.000Z</Time>
            <Position>
              <LatitudeDegrees>40.680633299052715301513671875</LatitudeDegrees>
              <LongitudeDegrees>-3.7691046483814716339111328125</LongitudeDegrees>
            </Position>
            <AltitudeMeters>933.20001220703125</AltitudeMeters>
            <DistanceMeters>22096.680980391</DistanceMeters>
          </Trackpoint>
          <Trackpoint>
            <Time>2020-03-07T13:43:55.000Z</Time>
            <Position>
              <LatitudeDegrees>40.68069155327975749969482421875</LatitudeDegrees>
              <LongitudeDegrees>-3.76908528618514537811279296875</LongitudeDegrees>
            </Position>
            <AltitudeMeters>933.4000244140625</AltitudeMeters>
            <DistanceMeters>22103.368052886</DistanceMeters>
          </Trackpoint>
          <Trackpoint>
            <Time>2020-03-07T13:43:56.000Z</Time>
            <Position>
              <LatitudeDegrees>40.68075056187808513641357421875</LatitudeDegrees>
              <LongitudeDegrees>-3.7690664269030094146728515625</LongitudeDegrees>
            </Position>
            <AltitudeMeters>933.4000244140625</AltitudeMeters>
            <DistanceMeters>22110.126316469</DistanceMeters>
          </Trackpoint>
          <Trackpoint>
            <Time>2020-03-07T13:43:57.000Z</Time>
            <Position>
              <LatitudeDegrees>40.6808108277618885040283203125</LatitudeDegrees>
              <LongitudeDegrees>-3.76904823817312717437744140625</LongitudeDegrees>
            </Position>
            <AltitudeMeters>933.5999755859375</AltitudeMeters>
            <DistanceMeters>22117.007720459</DistanceMeters>
          </Trackpoint>
          <Trackpoint>
            <Time>2020-03-07T13:43:58.000Z</Time>
            <Position>
              <LatitudeDegrees>40.68087059073150157928466796875</LatitudeDegrees>
              <LongitudeDegrees>-3.76903139054775238037109375</LongitudeDegrees>
            </Position>
            <AltitudeMeters>933.5999755859375</AltitudeMeters>
            <DistanceMeters>22123.809934194</DistanceMeters>
          </Trackpoint>
          <Trackpoint>
            <Time>2020-03-07T13:43:59.000Z</Time>
            <Position>
              <LatitudeDegrees>40.68093001842498779296875</LatitudeDegrees>
              <LongitudeDegrees>-3.76901688985526561737060546875</LongitudeDegrees>
            </Position>
            <AltitudeMeters>933.5999755859375</AltitudeMeters>
            <DistanceMeters>22130.536724889</DistanceMeters>
          </Trackpoint>
          <Trackpoint>
            <Time>2020-03-07T13:44:00.000Z</Time>
            <Position>
              <LatitudeDegrees>40.68098944611847400665283203125</LatitudeDegrees>
              <LongitudeDegrees>-3.7690067477524280548095703125</LongitudeDegrees>
            </Position>
            <AltitudeMeters>933.5999755859375</AltitudeMeters>
            <DistanceMeters>22137.206219365</DistanceMeters>
          </Trackpoint>
          <Trackpoint>
            <Time>2020-03-07T13:44:01.000Z</Time>
            <Position>
              <LatitudeDegrees>40.6810493767261505126953125</LatitudeDegrees>
              <LongitudeDegrees>-3.769000209867954254150390625</LongitudeDegrees>
            </Position>
            <AltitudeMeters>933.79998779296875</AltitudeMeters>
            <DistanceMeters>22143.899365803</DistanceMeters>
          </Trackpoint>
          <Trackpoint>
            <Time>2020-03-07T13:44:02.000Z</Time>
            <Position>
              <LatitudeDegrees>40.68110930733382701873779296875</LatitudeDegrees>
              <LongitudeDegrees>-3.76899593509733676910400390625</LongitudeDegrees>
            </Position>
            <AltitudeMeters>933.79998779296875</AltitudeMeters>
            <DistanceMeters>22150.579682995</DistanceMeters>
          </Trackpoint>
          <Trackpoint>
            <Time>2020-03-07T13:44:03.000Z</Time>
            <Position>
              <LatitudeDegrees>40.68116881884634494781494140625</LatitudeDegrees>
              <LongitudeDegrees>-3.7689946778118610382080078125</LongitudeDegrees>
            </Position>
            <AltitudeMeters>933.79998779296875</AltitudeMeters>
            <DistanceMeters>22157.204346875</DistanceMeters>
          </Trackpoint>
          <Trackpoint>
            <Time>2020-03-07T13:44:04.000Z</Time>
            <Position>
              <LatitudeDegrees>40.68122916854918003082275390625</LatitudeDegrees>
              <LongitudeDegrees>-3.7689980305731296539306640625</LongitudeDegrees>
            </Position>
            <AltitudeMeters>933.79998779296875</AltitudeMeters>
            <DistanceMeters>22163.92778072</DistanceMeters>
          </Trackpoint>
          <Trackpoint>
            <Time>2020-03-07T13:44:05.000Z</Time>
            <Position>
              <LatitudeDegrees>40.6812892667949199676513671875</LatitudeDegrees>
              <LongitudeDegrees>-3.76900917850434780120849609375</LongitudeDegrees>
            </Position>
            <AltitudeMeters>933.79998779296875</AltitudeMeters>
            <DistanceMeters>22170.682703094</DistanceMeters>
          </Trackpoint>
          <Trackpoint>
            <Time>2020-03-07T13:44:06.000Z</Time>
            <Position>
              <LatitudeDegrees>40.68134986795485019683837890625</LatitudeDegrees>
              <LongitudeDegrees>-3.76902359537780284881591796875</LongitudeDegrees>
            </Position>
            <AltitudeMeters>934</AltitudeMeters>
            <DistanceMeters>22177.536494575</DistanceMeters>
          </Trackpoint>
          <Trackpoint>
            <Time>2020-03-07T13:44:07.000Z</Time>
            <Position>
              <LatitudeDegrees>40.68140988238155841827392578125</LatitudeDegrees>
              <LongitudeDegrees>-3.76904186792671680450439453125</LongitudeDegrees>
            </Position>
            <AltitudeMeters>934</AltitudeMeters>
            <DistanceMeters>22184.391603459</DistanceMeters>
          </Trackpoint>
          <Trackpoint>
            <Time>2020-03-07T13:44:08.000Z</Time>
            <Position>
              <LatitudeDegrees>40.68146922625601291656494140625</LatitudeDegrees>
              <LongitudeDegrees>-3.769064582884311676025390625</LongitudeDegrees>
            </Position>
            <AltitudeMeters>934.20001220703125</AltitudeMeters>
            <DistanceMeters>22191.269069592</DistanceMeters>
          </Trackpoint>
          <Trackpoint>
            <Time>2020-03-07T13:44:09.000Z</Time>
            <Position>
              <LatitudeDegrees>40.68152748048305511474609375</LatitudeDegrees>
              <LongitudeDegrees>-3.76909299753606319427490234375</LongitudeDegrees>
            </Position>
            <AltitudeMeters>934.20001220703125</AltitudeMeters>
            <DistanceMeters>22198.181895681</DistanceMeters>
          </Trackpoint>
          <Trackpoint>
            <Time>2020-03-07T13:44:10.000Z</Time>
            <Position>
              <LatitudeDegrees>40.68158489651978015899658203125</LatitudeDegrees>
              <LongitudeDegrees>-3.76912585459649562835693359375</LongitudeDegrees>
            </Position>
            <AltitudeMeters>934.20001220703125</AltitudeMeters>
            <DistanceMeters>22205.148073314</DistanceMeters>
          </Trackpoint>
          <Trackpoint>
            <Time>2020-03-07T13:44:11.000Z</Time>
            <Position>
              <LatitudeDegrees>40.6816419772803783416748046875</LatitudeDegrees>
              <LongitudeDegrees>-3.76915887929499149322509765625</LongitudeDegrees>
            </Position>
            <AltitudeMeters>934.20001220703125</AltitudeMeters>
            <DistanceMeters>22212.0856743</DistanceMeters>
          </Trackpoint>
          <Trackpoint>
            <Time>2020-03-07T13:44:12.000Z</Time>
            <Position>
              <LatitudeDegrees>40.6816986389458179473876953125</LatitudeDegrees>
              <LongitudeDegrees>-3.76919240690767765045166015625</LongitudeDegrees>
            </Position>
            <AltitudeMeters>934.20001220703125</AltitudeMeters>
            <DistanceMeters>22218.99784722</DistanceMeters>
          </Trackpoint>
          <Trackpoint>
            <Time>2020-03-07T13:44:13.000Z</Time>
            <Position>
              <LatitudeDegrees>40.681753791868686676025390625</LatitudeDegrees>
              <LongitudeDegrees>-3.76922945491969585418701171875</LongitudeDegrees>
            </Position>
            <AltitudeMeters>934.20001220703125</AltitudeMeters>
            <DistanceMeters>22225.88712017</DistanceMeters>
          </Trackpoint>
          <Trackpoint>
            <Time>2020-03-07T13:44:14.000Z</Time>
            <Position>
              <LatitudeDegrees>40.68180902861058712005615234375</LatitudeDegrees>
              <LongitudeDegrees>-3.76926876604557037353515625</LongitudeDegrees>
            </Position>
            <AltitudeMeters>934.20001220703125</AltitudeMeters>
            <DistanceMeters>22232.872714855</DistanceMeters>
          </Trackpoint>
          <Trackpoint>
            <Time>2020-03-07T13:44:15.000Z</Time>
            <Position>
              <LatitudeDegrees>40.68186342716217041015625</LatitudeDegrees>
              <LongitudeDegrees>-3.76930765807628631591796875</LongitudeDegrees>
            </Position>
            <AltitudeMeters>934.20001220703125</AltitudeMeters>
            <DistanceMeters>22239.759365818</DistanceMeters>
          </Trackpoint>
          <Trackpoint>
            <Time>2020-03-07T13:44:16.000Z</Time>
            <Position>
              <LatitudeDegrees>40.68191765807569026947021484375</LatitudeDegrees>
              <LongitudeDegrees>-3.7693460471928119659423828125</LongitudeDegrees>
            </Position>
            <AltitudeMeters>934.20001220703125</AltitudeMeters>
            <DistanceMeters>22246.610521732</DistanceMeters>
          </Trackpoint>
          <Trackpoint>
            <Time>2020-03-07T13:44:17.000Z</Time>
            <Position>
              <LatitudeDegrees>40.6819722242653369903564453125</LatitudeDegrees>
              <LongitudeDegrees>-3.7693822570145130157470703125</LongitudeDegrees>
            </Position>
            <AltitudeMeters>934.20001220703125</AltitudeMeters>
            <DistanceMeters>22253.410079908</DistanceMeters>
          </Trackpoint>
          <Trackpoint>
            <Time>2020-03-07T13:44:18.000Z</Time>
            <Position>
              <LatitudeDegrees>40.68202762864530086517333984375</LatitudeDegrees>
              <LongitudeDegrees>-3.76941855065524578094482421875</LongitudeDegrees>
            </Position>
            <AltitudeMeters>934.20001220703125</AltitudeMeters>
            <DistanceMeters>22260.295419503</DistanceMeters>
          </Trackpoint>
          <Trackpoint>
            <Time>2020-03-07T13:44:19.000Z</Time>
            <Position>
              <LatitudeDegrees>40.68208194337785243988037109375</LatitudeDegrees>
              <LongitudeDegrees>-3.769454844295978546142578125</LongitudeDegrees>
            </Position>
            <AltitudeMeters>934.4000244140625</AltitudeMeters>
            <DistanceMeters>22267.072363415</DistanceMeters>
          </Trackpoint>
          <Trackpoint>
            <Time>2020-03-07T13:44:20.000Z</Time>
            <Position>
              <LatitudeDegrees>40.6821368448436260223388671875</LatitudeDegrees>
              <LongitudeDegrees>-3.769489042460918426513671875</LongitudeDegrees>
            </Position>
            <AltitudeMeters>934.5999755859375</AltitudeMeters>
            <DistanceMeters>22273.829290713</DistanceMeters>
          </Trackpoint>
          <Trackpoint>
            <Time>2020-03-07T13:44:21.000Z</Time>
            <Position>
              <LatitudeDegrees>40.6821935065090656280517578125</LatitudeDegrees>
              <LongitudeDegrees>-3.76951896585524082183837890625</LongitudeDegrees>
            </Position>
            <AltitudeMeters>934.5999755859375</AltitudeMeters>
            <DistanceMeters>22280.62220545</DistanceMeters>
          </Trackpoint>
          <Trackpoint>
            <Time>2020-03-07T13:44:22.000Z</Time>
            <Position>
              <LatitudeDegrees>40.6822505034506320953369140625</LatitudeDegrees>
              <LongitudeDegrees>-3.7695448659360408782958984375</LongitudeDegrees>
            </Position>
            <AltitudeMeters>934.5999755859375</AltitudeMeters>
            <DistanceMeters>22287.332195103</DistanceMeters>
          </Trackpoint>
          <Trackpoint>
            <Time>2020-03-07T13:44:23.000Z</Time>
            <Position>
              <LatitudeDegrees>40.6823075003921985626220703125</LatitudeDegrees>
              <LongitudeDegrees>-3.7695671617984771728515625</LongitudeDegrees>
            </Position>
            <AltitudeMeters>934.5999755859375</AltitudeMeters>
            <DistanceMeters>22293.948675331</DistanceMeters>
          </Trackpoint>
          <Trackpoint>
            <Time>2020-03-07T13:44:24.000Z</Time>
            <Position>
              <LatitudeDegrees>40.6823641620576381683349609375</LatitudeDegrees>
              <LongitudeDegrees>-3.769585601985454559326171875</LongitudeDegrees>
            </Position>
            <AltitudeMeters>934.5999755859375</AltitudeMeters>
            <DistanceMeters>22300.443944159</DistanceMeters>
          </Trackpoint>
          <Trackpoint>
            <Time>2020-03-07T13:44:25.000Z</Time>
            <Position>
              <LatitudeDegrees>40.682421661913394927978515625</LatitudeDegrees>
              <LongitudeDegrees>-3.76959959976375102996826171875</LongitudeDegrees>
            </Position>
            <AltitudeMeters>934.5999755859375</AltitudeMeters>
            <DistanceMeters>22306.953100684</DistanceMeters>
          </Trackpoint>
          <Trackpoint>
            <Time>2020-03-07T13:44:26.000Z</Time>
            <Position>
              <LatitudeDegrees>40.6824788264930248260498046875</LatitudeDegrees>
              <LongitudeDegrees>-3.76961032859981060028076171875</LongitudeDegrees>
            </Position>
            <AltitudeMeters>934.79998779296875</AltitudeMeters>
            <DistanceMeters>22313.380588509</DistanceMeters>
          </Trackpoint>
          <Trackpoint>
            <Time>2020-03-07T13:44:27.000Z</Time>
            <Position>
              <LatitudeDegrees>40.6825353205204010009765625</LatitudeDegrees>
              <LongitudeDegrees>-3.76961971633136272430419921875</LongitudeDegrees>
            </Position>
            <AltitudeMeters>935</AltitudeMeters>
            <DistanceMeters>22319.718236339</DistanceMeters>
          </Trackpoint>
          <Trackpoint>
            <Time>2020-03-07T13:44:28.000Z</Time>
            <Position>
              <LatitudeDegrees>40.68259106017649173736572265625</LatitudeDegrees>
              <LongitudeDegrees>-3.76962684094905853271484375</LongitudeDegrees>
            </Position>
            <AltitudeMeters>935</AltitudeMeters>
            <DistanceMeters>22325.951003691</DistanceMeters>
          </Trackpoint>
          <Trackpoint>
            <Time>2020-03-07T13:44:29.000Z</Time>
            <Position>
              <LatitudeDegrees>40.682646296918392181396484375</LatitudeDegrees>
              <LongitudeDegrees>-3.76962994225323200225830078125</LongitudeDegrees>
            </Position>
            <AltitudeMeters>935</AltitudeMeters>
            <DistanceMeters>22332.104304474</DistanceMeters>
          </Trackpoint>
          <Trackpoint>
            <Time>2020-03-07T13:44:30.000Z</Time>
            <Position>
              <LatitudeDegrees>40.68270153366029262542724609375</LatitudeDegrees>
              <LongitudeDegrees>-3.76962927170097827911376953125</LongitudeDegrees>
            </Position>
            <AltitudeMeters>935.20001220703125</AltitudeMeters>
            <DistanceMeters>22338.253935369</DistanceMeters>
          </Trackpoint>
          <Trackpoint>
            <Time>2020-03-07T13:44:31.000Z</Time>
            <Position>
              <LatitudeDegrees>40.68275618366897106170654296875</LatitudeDegrees>
              <LongitudeDegrees>-3.76962675713002681732177734375</LongitudeDegrees>
            </Position>
            <AltitudeMeters>935.4000244140625</AltitudeMeters>
            <DistanceMeters>22344.340839644</DistanceMeters>
          </Trackpoint>
          <Trackpoint>
            <Time>2020-03-07T13:44:32.000Z</Time>
            <Position>
              <LatitudeDegrees>40.6828100793063640594482421875</LatitudeDegrees>
              <LongitudeDegrees>-3.7696226499974727630615234375</LongitudeDegrees>
            </Position>
            <AltitudeMeters>935.5999755859375</AltitudeMeters>
            <DistanceMeters>22350.349354071</DistanceMeters>
          </Trackpoint>
          <Trackpoint>
            <Time>2020-03-07T13:44:33.000Z</Time>
            <Position>
              <LatitudeDegrees>40.68286347202956676483154296875</LatitudeDegrees>
              <LongitudeDegrees>-3.76961887814104557037353515625</LongitudeDegrees>
            </Position>
            <AltitudeMeters>935.79998779296875</AltitudeMeters>
            <DistanceMeters>22356.300485041</DistanceMeters>
          </Trackpoint>
          <Trackpoint>
            <Time>2020-03-07T13:44:34.000Z</Time>
            <Position>
              <LatitudeDegrees>40.6829161942005157470703125</LatitudeDegrees>
              <LongitudeDegrees>-3.76961418427526950836181640625</LongitudeDegrees>
            </Position>
            <AltitudeMeters>936.20001220703125</AltitudeMeters>
            <DistanceMeters>22362.182170416</DistanceMeters>
          </Trackpoint>
          <Trackpoint>
            <Time>2020-03-07T13:44:35.000Z</Time>
            <Position>
              <LatitudeDegrees>40.68296916782855987548828125</LatitudeDegrees>
              <LongitudeDegrees>-3.7696087360382080078125</LongitudeDegrees>
            </Position>
            <AltitudeMeters>936.4000244140625</AltitudeMeters>
            <DistanceMeters>22368.096772359</DistanceMeters>
          </Trackpoint>
          <Trackpoint>
            <Time>2020-03-07T13:44:36.000Z</Time>
            <Position>
              <LatitudeDegrees>40.6830226443707942962646484375</LatitudeDegrees>
              <LongitudeDegrees>-3.76960412599146366119384765625</LongitudeDegrees>
            </Position>
            <AltitudeMeters>936.5999755859375</AltitudeMeters>
            <DistanceMeters>22374.062300941</DistanceMeters>
          </Trackpoint>
          <Trackpoint>
            <Time>2020-03-07T13:44:37.000Z</Time>
            <Position>
              <LatitudeDegrees>40.6830762885510921478271484375</LatitudeDegrees>
              <LongitudeDegrees>-3.7695993483066558837890625</LongitudeDegrees>
            </Position>
            <AltitudeMeters>936.79998779296875</AltitudeMeters>
            <DistanceMeters>22380.046720978</DistanceMeters>
          </Trackpoint>
          <Trackpoint>
            <Time>2020-03-07T13:44:38.000Z</Time>
            <Position>
              <LatitudeDegrees>40.6831289269030094146728515625</LatitudeDegrees>
              <LongitudeDegrees>-3.76959306187927722930908203125</LongitudeDegrees>
            </Position>
            <AltitudeMeters>937.20001220703125</AltitudeMeters>
            <DistanceMeters>22385.929173947</DistanceMeters>
          </Trackpoint>
          <Trackpoint>
            <Time>2020-03-07T13:44:39.000Z</Time>
            <Position>
              <LatitudeDegrees>40.683180727064609527587890625</LatitudeDegrees>
              <LongitudeDegrees>-3.76958660781383514404296875</LongitudeDegrees>
            </Position>
            <AltitudeMeters>937.4000244140625</AltitudeMeters>
            <DistanceMeters>22391.720348605</DistanceMeters>
          </Trackpoint>
          <Trackpoint>
            <Time>2020-03-07T13:44:40.000Z</Time>
            <Position>
              <LatitudeDegrees>40.68323202431201934814453125</LatitudeDegrees>
              <LongitudeDegrees>-3.769580908119678497314453125</LongitudeDegrees>
            </Position>
            <AltitudeMeters>937.79998779296875</AltitudeMeters>
            <DistanceMeters>22397.450388565</DistanceMeters>
          </Trackpoint>
          <Trackpoint>
            <Time>2020-03-07T13:44:41.000Z</Time>
            <Position>
              <LatitudeDegrees>40.68328273482620716094970703125</LatitudeDegrees>
              <LongitudeDegrees>-3.7695743702352046966552734375</LongitudeDegrees>
            </Position>
            <AltitudeMeters>938</AltitudeMeters>
            <DistanceMeters>22403.121819804</DistanceMeters>
          </Trackpoint>
          <Trackpoint>
            <Time>2020-03-07T13:44:42.000Z</Time>
            <Position>
              <LatitudeDegrees>40.683333612978458404541015625</LatitudeDegrees>
              <LongitudeDegrees>-3.76956758089363574981689453125</LongitudeDegrees>
            </Position>
            <AltitudeMeters>938.4000244140625</AltitudeMeters>
            <DistanceMeters>22408.813912062</DistanceMeters>
          </Trackpoint>
          <Trackpoint>
            <Time>2020-03-07T13:44:43.000Z</Time>
            <Position>
              <LatitudeDegrees>40.6833847425878047943115234375</LatitudeDegrees>
              <LongitudeDegrees>-3.7695612944662570953369140625</LongitudeDegrees>
            </Position>
            <AltitudeMeters>938.5999755859375</AltitudeMeters>
            <DistanceMeters>22414.528961187</DistanceMeters>
          </Trackpoint>
          <Trackpoint>
            <Time>2020-03-07T13:44:44.000Z</Time>
            <Position>
              <LatitudeDegrees>40.683436207473278045654296875</LatitudeDegrees>
              <LongitudeDegrees>-3.76955584622919559478759765625</LongitudeDegrees>
            </Position>
            <AltitudeMeters>938.5999755859375</AltitudeMeters>
            <DistanceMeters>22420.275524469</DistanceMeters>
          </Trackpoint>
          <Trackpoint>
            <Time>2020-03-07T13:44:45.000Z</Time>
            <Position>
              <LatitudeDegrees>40.68348725326359272003173828125</LatitudeDegrees>
              <LongitudeDegrees>-3.76955199055373668670654296875</LongitudeDegrees>
            </Position>
            <AltitudeMeters>938.79998779296875</AltitudeMeters>
            <DistanceMeters>22425.966030082</DistanceMeters>
          </Trackpoint>
          <Trackpoint>
            <Time>2020-03-07T13:44:46.000Z</Time>
            <Position>
              <LatitudeDegrees>40.68353779613971710205078125</LatitudeDegrees>
              <LongitudeDegrees>-3.76954830251634120941162109375</LongitudeDegrees>
            </Position>
            <AltitudeMeters>938.79998779296875</AltitudeMeters>
            <DistanceMeters>22431.600721624</DistanceMeters>
          </Trackpoint>
          <Trackpoint>
            <Time>2020-03-07T13:44:47.000Z</Time>
            <Position>
              <LatitudeDegrees>40.68358733318746089935302734375</LatitudeDegrees>
              <LongitudeDegrees>-3.76954260282218456268310546875</LongitudeDegrees>
            </Position>
            <AltitudeMeters>939</AltitudeMeters>
            <DistanceMeters>22437.135161008</DistanceMeters>
          </Trackpoint>
          <Trackpoint>
            <Time>2020-03-07T13:44:48.000Z</Time>
            <Position>
              <LatitudeDegrees>40.6836358644068241119384765625</LatitudeDegrees>
              <LongitudeDegrees>-3.7695364840328693389892578125</LongitudeDegrees>
            </Position>
            <AltitudeMeters>939.20001220703125</AltitudeMeters>
            <DistanceMeters>22442.560845224</DistanceMeters>
          </Trackpoint>
          <Trackpoint>
            <Time>2020-03-07T13:44:49.000Z</Time>
            <Position>
              <LatitudeDegrees>40.683684311807155609130859375</LatitudeDegrees>
              <LongitudeDegrees>-3.7695314548909664154052734375</LongitudeDegrees>
            </Position>
            <AltitudeMeters>939.4000244140625</AltitudeMeters>
            <DistanceMeters>22447.969860632</DistanceMeters>
          </Trackpoint>
          <Trackpoint>
            <Time>2020-03-07T13:44:50.000Z</Time>
            <Position>
              <LatitudeDegrees>40.6837327592074871063232421875</LatitudeDegrees>
              <LongitudeDegrees>-3.76952684484422206878662109375</LongitudeDegrees>
            </Position>
            <AltitudeMeters>939.79998779296875</AltitudeMeters>
            <DistanceMeters>22453.377206332</DistanceMeters>
          </Trackpoint>
          <Trackpoint>
            <Time>2020-03-07T13:44:51.000Z</Time>
            <Position>
              <LatitudeDegrees>40.68378162570297718048095703125</LatitudeDegrees>
              <LongitudeDegrees>-3.76952223479747772216796875</LongitudeDegrees>
            </Position>
            <AltitudeMeters>940</AltitudeMeters>
            <DistanceMeters>22458.829454644</DistanceMeters>
          </Trackpoint>
          <Trackpoint>
            <Time>2020-03-07T13:44:52.000Z</Time>
            <Position>
              <LatitudeDegrees>40.6838309951126575469970703125</LatitudeDegrees>
              <LongitudeDegrees>-3.76951645128428936004638671875</LongitudeDegrees>
            </Position>
            <AltitudeMeters>940.20001220703125</AltitudeMeters>
            <DistanceMeters>22464.345917063</DistanceMeters>
          </Trackpoint>
          <Trackpoint>
            <Time>2020-03-07T13:44:53.000Z</Time>
            <Position>
              <LatitudeDegrees>40.6838802807033061981201171875</LatitudeDegrees>
              <LongitudeDegrees>-3.7695089913904666900634765625</LongitudeDegrees>
            </Position>
            <AltitudeMeters>940.4000244140625</AltitudeMeters>
            <DistanceMeters>22469.867288095</DistanceMeters>
          </Trackpoint>
          <Trackpoint>
            <Time>2020-03-07T13:44:54.000Z</Time>
            <Position>
              <LatitudeDegrees>40.68392965011298656463623046875</LatitudeDegrees>
              <LongitudeDegrees>-3.76950136385858058929443359375</LongitudeDegrees>
            </Position>
            <AltitudeMeters>940.5999755859375</AltitudeMeters>
            <DistanceMeters>22475.400095623</DistanceMeters>
          </Trackpoint>
          <Trackpoint>
            <Time>2020-03-07T13:44:55.000Z</Time>
            <Position>
              <LatitudeDegrees>40.68397876806557178497314453125</LatitudeDegrees>
              <LongitudeDegrees>-3.76949482597410678863525390625</LongitudeDegrees>
            </Position>
            <AltitudeMeters>941</AltitudeMeters>
            <DistanceMeters>22480.895236716</DistanceMeters>
          </Trackpoint>
          <Trackpoint>
            <Time>2020-03-07T13:44:56.000Z</Time>
            <Position>
              <LatitudeDegrees>40.68402788601815700531005859375</LatitudeDegrees>
              <LongitudeDegrees>-3.76948828808963298797607421875</LongitudeDegrees>
            </Position>
            <AltitudeMeters>941.20001220703125</AltitudeMeters>
            <DistanceMeters>22486.390377808</DistanceMeters>
          </Trackpoint>
          <Trackpoint>
            <Time>2020-03-07T13:44:57.000Z</Time>
            <Position>
              <LatitudeDegrees>40.6840774230659008026123046875</LatitudeDegrees>
              <LongitudeDegrees>-3.76948200166225433349609375</LongitudeDegrees>
            </Position>
            <AltitudeMeters>941.20001220703125</AltitudeMeters>
            <DistanceMeters>22491.929709876</DistanceMeters>
          </Trackpoint>
          <Trackpoint>
            <Time>2020-03-07T13:44:58.000Z</Time>
            <Position>
              <LatitudeDegrees>40.68412712775170803070068359375</LatitudeDegrees>
              <LongitudeDegrees>-3.76947705633938312530517578125</LongitudeDegrees>
            </Position>
            <AltitudeMeters>941.5999755859375</AltitudeMeters>
            <DistanceMeters>22497.478000658</DistanceMeters>
          </Trackpoint>
          <Trackpoint>
            <Time>2020-03-07T13:44:59.000Z</Time>
            <Position>
              <LatitudeDegrees>40.68417658098042011260986328125</LatitudeDegrees>
              <LongitudeDegrees>-3.76947269774973392486572265625</LongitudeDegrees>
            </Position>
            <AltitudeMeters>941.79998779296875</AltitudeMeters>
            <DistanceMeters>22502.994463076</DistanceMeters>
          </Trackpoint>
          <Trackpoint>
            <Time>2020-03-07T13:45:00.000Z</Time>
            <Position>
              <LatitudeDegrees>40.68422569893300533294677734375</LatitudeDegrees>
              <LongitudeDegrees>-3.7694680877029895782470703125</LongitudeDegrees>
            </Position>
            <AltitudeMeters>942.20001220703125</AltitudeMeters>
            <DistanceMeters>22508.474794659</DistanceMeters>
          </Trackpoint>
          <Trackpoint>
            <Time>2020-03-07T13:45:01.000Z</Time>
            <Position>
              <LatitudeDegrees>40.68427397869527339935302734375</LatitudeDegrees>
              <LongitudeDegrees>-3.76946297474205493927001953125</LongitudeDegrees>
            </Position>
            <AltitudeMeters>942.4000244140625</AltitudeMeters>
            <DistanceMeters>22513.865414845</DistanceMeters>
          </Trackpoint>
          <Trackpoint>
            <Time>2020-03-07T13:45:02.000Z</Time>
            <Position>
              <LatitudeDegrees>40.68432158790528774261474609375</LatitudeDegrees>
              <LongitudeDegrees>-3.76945811323821544647216796875</LongitudeDegrees>
            </Position>
            <AltitudeMeters>942.79998779296875</AltitudeMeters>
            <DistanceMeters>22519.180118893</DistanceMeters>
          </Trackpoint>
          <Trackpoint>
            <Time>2020-03-07T13:45:03.000Z</Time>
            <Position>
              <LatitudeDegrees>40.68436936475336551666259765625</LatitudeDegrees>
              <LongitudeDegrees>-3.76945383846759796142578125</LongitudeDegrees>
            </Position>
            <AltitudeMeters>943</AltitudeMeters>
            <DistanceMeters>22524.510092673</DistanceMeters>
          </Trackpoint>
          <Trackpoint>
            <Time>2020-03-07T13:45:04.000Z</Time>
            <Position>
              <LatitudeDegrees>40.68441764451563358306884765625</LatitudeDegrees>
              <LongitudeDegrees>-3.769448809325695037841796875</LongitudeDegrees>
            </Position>
            <AltitudeMeters>943.4000244140625</AltitudeMeters>
            <DistanceMeters>22529.90071286</DistanceMeters>
          </Trackpoint>
          <Trackpoint>
            <Time>2020-03-07T13:45:05.000Z</Time>
            <Position>
              <LatitudeDegrees>40.6844651699066162109375</LatitudeDegrees>
              <LongitudeDegrees>-3.769443444907665252685546875</LongitudeDegrees>
            </Position>
            <AltitudeMeters>943.4000244140625</AltitudeMeters>
            <DistanceMeters>22535.20861626</DistanceMeters>
          </Trackpoint>
          <Trackpoint>
            <Time>2020-03-07T13:45:06.000Z</Time>
            <Position>
              <LatitudeDegrees>40.68451336584985256195068359375</LatitudeDegrees>
              <LongitudeDegrees>-3.7694385834038257598876953125</LongitudeDegrees>
            </Position>
            <AltitudeMeters>943.5999755859375</AltitudeMeters>
            <DistanceMeters>22540.588336978</DistanceMeters>
          </Trackpoint>
          <Trackpoint>
            <Time>2020-03-07T13:45:07.000Z</Time>
            <Position>
              <LatitudeDegrees>40.68456131033599376678466796875</LatitudeDegrees>
              <LongitudeDegrees>-3.76943430863320827484130859375</LongitudeDegrees>
            </Position>
            <AltitudeMeters>943.79998779296875</AltitudeMeters>
            <DistanceMeters>22545.936914562</DistanceMeters>
          </Trackpoint>
          <Trackpoint>
            <Time>2020-03-07T13:45:08.000Z</Time>
            <Position>
              <LatitudeDegrees>40.68460975773632526397705078125</LatitudeDegrees>
              <LongitudeDegrees>-3.76942961476743221282958984375</LongitudeDegrees>
            </Position>
            <AltitudeMeters>943.79998779296875</AltitudeMeters>
            <DistanceMeters>22551.344260262</DistanceMeters>
          </Trackpoint>
          <Trackpoint>
            <Time>2020-03-07T13:45:09.000Z</Time>
            <Position>
              <LatitudeDegrees>40.68465761840343475341796875</LatitudeDegrees>
              <LongitudeDegrees>-3.76942425034940242767333984375</LongitudeDegrees>
            </Position>
            <AltitudeMeters>944.20001220703125</AltitudeMeters>
            <DistanceMeters>22556.689460153</DistanceMeters>
          </Trackpoint>
          <Trackpoint>
            <Time>2020-03-07T13:45:10.000Z</Time>
            <Position>
              <LatitudeDegrees>40.68470547907054424285888671875</LatitudeDegrees>
              <LongitudeDegrees>-3.769418299198150634765625</LongitudeDegrees>
            </Position>
            <AltitudeMeters>944.5999755859375</AltitudeMeters>
            <DistanceMeters>22562.040569608</DistanceMeters>
          </Trackpoint>
          <Trackpoint>
            <Time>2020-03-07T13:45:11.000Z</Time>
            <Position>
              <LatitudeDegrees>40.68475342355668544769287109375</LatitudeDegrees>
              <LongitudeDegrees>-3.7694141082465648651123046875</LongitudeDegrees>
            </Position>
            <AltitudeMeters>945</AltitudeMeters>
            <DistanceMeters>22567.389147193</DistanceMeters>
          </Trackpoint>
          <Trackpoint>
            <Time>2020-03-07T13:45:12.000Z</Time>
            <Position>
              <LatitudeDegrees>40.684801451861858367919921875</LatitudeDegrees>
              <LongitudeDegrees>-3.76941251568496227264404296875</LongitudeDegrees>
            </Position>
            <AltitudeMeters>945.20001220703125</AltitudeMeters>
            <DistanceMeters>22572.736036197</DistanceMeters>
          </Trackpoint>
          <Trackpoint>
            <Time>2020-03-07T13:45:13.000Z</Time>
            <Position>
              <LatitudeDegrees>40.68484964780509471893310546875</LatitudeDegrees>
              <LongitudeDegrees>-3.769409917294979095458984375</LongitudeDegrees>
            </Position>
            <AltitudeMeters>945.4000244140625</AltitudeMeters>
            <DistanceMeters>22578.104835318</DistanceMeters>
          </Trackpoint>
          <Trackpoint>
            <Time>2020-03-07T13:45:14.000Z</Time>
            <Position>
              <LatitudeDegrees>40.684897340834140777587890625</LatitudeDegrees>
              <LongitudeDegrees>-3.7694050557911396026611328125</LongitudeDegrees>
            </Position>
            <AltitudeMeters>945.79998779296875</AltitudeMeters>
            <DistanceMeters>22583.428027958</DistanceMeters>
          </Trackpoint>
          <Trackpoint>
            <Time>2020-03-07T13:45:15.000Z</Time>
            <Position>
              <LatitudeDegrees>40.684944950044155120849609375</LatitudeDegrees>
              <LongitudeDegrees>-3.76939960755407810211181640625</LongitudeDegrees>
            </Position>
            <AltitudeMeters>946</AltitudeMeters>
            <DistanceMeters>22588.747826787</DistanceMeters>
          </Trackpoint>
          <Trackpoint>
            <Time>2020-03-07T13:45:16.000Z</Time>
            <Position>
              <LatitudeDegrees>40.68499180488288402557373046875</LatitudeDegrees>
              <LongitudeDegrees>-3.76939742825925350189208984375</LongitudeDegrees>
            </Position>
            <AltitudeMeters>946.4000244140625</AltitudeMeters>
            <DistanceMeters>22593.966515372</DistanceMeters>
          </Trackpoint>
          <Trackpoint>
            <Time>2020-03-07T13:45:17.000Z</Time>
            <Position>
              <LatitudeDegrees>40.6850369833409786224365234375</LatitudeDegrees>
              <LongitudeDegrees>-3.76939943991601467132568359375</LongitudeDegrees>
            </Position>
            <AltitudeMeters>946.5999755859375</AltitudeMeters>
            <DistanceMeters>22598.996651971</DistanceMeters>
          </Trackpoint>
          <Trackpoint>
            <Time>2020-03-07T13:45:18.000Z</Time>
            <Position>
              <LatitudeDegrees>40.6850809045135974884033203125</LatitudeDegrees>
              <LongitudeDegrees>-3.76940413378179073333740234375</LongitudeDegrees>
            </Position>
            <AltitudeMeters>946.5999755859375</AltitudeMeters>
            <DistanceMeters>22603.901356207</DistanceMeters>
          </Trackpoint>
          <Trackpoint>
            <Time>2020-03-07T13:45:19.000Z</Time>
            <Position>
              <LatitudeDegrees>40.68512432277202606201171875</LatitudeDegrees>
              <LongitudeDegrees>-3.7694104202091693878173828125</LongitudeDegrees>
            </Position>
            <AltitudeMeters>947</AltitudeMeters>
            <DistanceMeters>22608.762601938</DistanceMeters>
          </Trackpoint>
          <Trackpoint>
            <Time>2020-03-07T13:45:20.000Z</Time>
            <Position>
              <LatitudeDegrees>40.6851680763065814971923828125</LatitudeDegrees>
              <LongitudeDegrees>-3.76941570080816745758056640625</LongitudeDegrees>
            </Position>
            <AltitudeMeters>947.4000244140625</AltitudeMeters>
            <DistanceMeters>22613.65255515</DistanceMeters>
          </Trackpoint>
          <Trackpoint>
            <Time>2020-03-07T13:45:21.000Z</Time>
            <Position>
              <LatitudeDegrees>40.6852106563746929168701171875</LatitudeDegrees>
              <LongitudeDegrees>-3.76941989175975322723388671875</LongitudeDegrees>
            </Position>
            <AltitudeMeters>947.79998779296875</AltitudeMeters>
            <DistanceMeters>22618.403890869</DistanceMeters>
          </Trackpoint>
          <Trackpoint>
            <Time>2020-03-07T13:45:22.000Z</Time>
            <Position>
              <LatitudeDegrees>40.68525231443345546722412109375</LatitudeDegrees>
              <LongitudeDegrees>-3.7694250047206878662109375</LongitudeDegrees>
            </Position>
            <AltitudeMeters>948.20001220703125</AltitudeMeters>
            <DistanceMeters>22623.061169432</DistanceMeters>
          </Trackpoint>
          <Trackpoint>
            <Time>2020-03-07T13:45:23.000Z</Time>
            <Position>
              <LatitudeDegrees>40.68529405631124973297119140625</LatitudeDegrees>
              <LongitudeDegrees>-3.769430033862590789794921875</LongitudeDegrees>
            </Position>
            <AltitudeMeters>948.4000244140625</AltitudeMeters>
            <DistanceMeters>22627.726197217</DistanceMeters>
          </Trackpoint>
          <Trackpoint>
            <Time>2020-03-07T13:45:24.000Z</Time>
            <Position>
              <LatitudeDegrees>40.68533529527485370635986328125</LatitudeDegrees>
              <LongitudeDegrees>-3.76943581737577915191650390625</LongitudeDegrees>
            </Position>
            <AltitudeMeters>948.79998779296875</AltitudeMeters>
            <DistanceMeters>22632.34160081</DistanceMeters>
          </Trackpoint>
          <Trackpoint>
            <Time>2020-03-07T13:45:25.000Z</Time>
            <Position>
              <LatitudeDegrees>40.68537552841007709503173828125</LatitudeDegrees>
              <LongitudeDegrees>-3.7694419361650943756103515625</LongitudeDegrees>
            </Position>
            <AltitudeMeters>949</AltitudeMeters>
            <DistanceMeters>22636.84911365</DistanceMeters>
          </Trackpoint>
          <Trackpoint>
            <Time>2020-03-07T13:45:26.000Z</Time>
            <Position>
              <LatitudeDegrees>40.6854151748120784759521484375</LatitudeDegrees>
              <LongitudeDegrees>-3.76944721676409244537353515625</LongitudeDegrees>
            </Position>
            <AltitudeMeters>949.4000244140625</AltitudeMeters>
            <DistanceMeters>22641.284937877</DistanceMeters>
          </Trackpoint>
          <Trackpoint>
            <Time>2020-03-07T13:45:27.000Z</Time>
            <Position>
              <LatitudeDegrees>40.68545515649020671844482421875</LatitudeDegrees>
              <LongitudeDegrees>-3.76945291645824909210205078125</LongitudeDegrees>
            </Position>
            <AltitudeMeters>949.5999755859375</AltitudeMeters>
            <DistanceMeters>22645.76229979</DistanceMeters>
          </Trackpoint>
          <Trackpoint>
            <Time>2020-03-07T13:45:28.000Z</Time>
            <Position>
              <LatitudeDegrees>40.6854936294257640838623046875</LatitudeDegrees>
              <LongitudeDegrees>-3.76945811323821544647216796875</LongitudeDegrees>
            </Position>
            <AltitudeMeters>950</AltitudeMeters>
            <DistanceMeters>22650.066915553</DistanceMeters>
          </Trackpoint>
          <Trackpoint>
            <Time>2020-03-07T13:45:29.000Z</Time>
            <Position>
              <LatitudeDegrees>40.685530342161655426025390625</LatitudeDegrees>
              <LongitudeDegrees>-3.769464232027530670166015625</LongitudeDegrees>
            </Position>
            <AltitudeMeters>950.20001220703125</AltitudeMeters>
            <DistanceMeters>22654.186079745</DistanceMeters>
          </Trackpoint>
          <Trackpoint>
            <Time>2020-03-07T13:45:30.000Z</Time>
            <Position>
              <LatitudeDegrees>40.68556982092559337615966796875</LatitudeDegrees>
              <LongitudeDegrees>-3.76947135664522647857666015625</LongitudeDegrees>
            </Position>
            <AltitudeMeters>950.5999755859375</AltitudeMeters>
            <DistanceMeters>22658.620885997</DistanceMeters>
          </Trackpoint>
          <Trackpoint>
            <Time>2020-03-07T13:45:31.000Z</Time>
            <Position>
              <LatitudeDegrees>40.6856119818985462188720703125</LatitudeDegrees>
              <LongitudeDegrees>-3.7694786489009857177734375</LongitudeDegrees>
            </Position>
            <AltitudeMeters>950.79998779296875</AltitudeMeters>
            <DistanceMeters>22663.353178209</DistanceMeters>
          </Trackpoint>
          <Trackpoint>
            <Time>2020-03-07T13:45:32.000Z</Time>
            <Position>
              <LatitudeDegrees>40.68565280176699161529541015625</LatitudeDegrees>
              <LongitudeDegrees>-3.76948602497577667236328125</LongitudeDegrees>
            </Position>
            <AltitudeMeters>951.20001220703125</AltitudeMeters>
            <DistanceMeters>22667.9401247</DistanceMeters>
          </Trackpoint>
          <Trackpoint>
            <Time>2020-03-07T13:45:33.000Z</Time>
            <Position>
              <LatitudeDegrees>40.685693956911563873291015625</LatitudeDegrees>
              <LongitudeDegrees>-3.7694932334125041961669921875</LongitudeDegrees>
            </Position>
            <AltitudeMeters>951.4000244140625</AltitudeMeters>
            <DistanceMeters>22672.560416976</DistanceMeters>
          </Trackpoint>
          <Trackpoint>
            <Time>2020-03-07T13:45:34.000Z</Time>
            <Position>
              <LatitudeDegrees>40.68573653697967529296875</LatitudeDegrees>
              <LongitudeDegrees>-3.7695014476776123046875</LongitudeDegrees>
            </Position>
            <AltitudeMeters>951.79998779296875</AltitudeMeters>
            <DistanceMeters>22677.349612542</DistanceMeters>
          </Trackpoint>
          <Trackpoint>
            <Time>2020-03-07T13:45:35.000Z</Time>
            <Position>
              <LatitudeDegrees>40.685778446495532989501953125</LatitudeDegrees>
              <LongitudeDegrees>-3.7695093266665935516357421875</LongitudeDegrees>
            </Position>
            <AltitudeMeters>952</AltitudeMeters>
            <DistanceMeters>22682.062784303</DistanceMeters>
          </Trackpoint>
          <Trackpoint>
            <Time>2020-03-07T13:45:36.000Z</Time>
            <Position>
              <LatitudeDegrees>40.68582060746848583221435546875</LatitudeDegrees>
              <LongitudeDegrees>-3.76951611600816249847412109375</LongitudeDegrees>
            </Position>
            <AltitudeMeters>952.20001220703125</AltitudeMeters>
            <DistanceMeters>22686.789348502</DistanceMeters>
          </Trackpoint>
          <Trackpoint>
            <Time>2020-03-07T13:45:37.000Z</Time>
            <Position>
              <LatitudeDegrees>40.6858627684414386749267578125</LatitudeDegrees>
              <LongitudeDegrees>-3.76952248625457286834716796875</LongitudeDegrees>
            </Position>
            <AltitudeMeters>952.4000244140625</AltitudeMeters>
            <DistanceMeters>22691.512090165</DistanceMeters>
          </Trackpoint>
          <Trackpoint>
            <Time>2020-03-07T13:45:38.000Z</Time>
            <Position>
              <LatitudeDegrees>40.68590559996664524078369140625</LatitudeDegrees>
              <LongitudeDegrees>-3.76952969469130039215087890625</LongitudeDegrees>
            </Position>
            <AltitudeMeters>953.20001220703125</AltitudeMeters>
            <DistanceMeters>22696.318225363</DistanceMeters>
          </Trackpoint>
          <Trackpoint>
            <Time>2020-03-07T13:45:39.000Z</Time>
            <Position>
              <LatitudeDegrees>40.6859479285776615142822265625</LatitudeDegrees>
              <LongitudeDegrees>-3.76953623257577419281005859375</LongitudeDegrees>
            </Position>
            <AltitudeMeters>953.5999755859375</AltitudeMeters>
            <DistanceMeters>22701.061952853</DistanceMeters>
          </Trackpoint>
          <Trackpoint>
            <Time>2020-03-07T13:45:40.000Z</Time>
            <Position>
              <LatitudeDegrees>40.68598941899836063385009765625</LatitudeDegrees>
              <LongitudeDegrees>-3.76954478211700916290283203125</LongitudeDegrees>
            </Position>
            <AltitudeMeters>953.79998779296875</AltitudeMeters>
            <DistanceMeters>22705.736649099</DistanceMeters>
          </Trackpoint>
          <Trackpoint>
            <Time>2020-03-07T13:45:41.000Z</Time>
            <Position>
              <LatitudeDegrees>40.68603317253291606903076171875</LatitudeDegrees>
              <LongitudeDegrees>-3.769554086029529571533203125</LongitudeDegrees>
            </Position>
            <AltitudeMeters>954</AltitudeMeters>
            <DistanceMeters>22710.669807927</DistanceMeters>
          </Trackpoint>
          <Trackpoint>
            <Time>2020-03-07T13:45:42.000Z</Time>
            <Position>
              <LatitudeDegrees>40.68607826717197895050048828125</LatitudeDegrees>
              <LongitudeDegrees>-3.76956104300916194915771484375</LongitudeDegrees>
            </Position>
            <AltitudeMeters>954.20001220703125</AltitudeMeters>
            <DistanceMeters>22715.723228173</DistanceMeters>
          </Trackpoint>
          <Trackpoint>
            <Time>2020-03-07T13:45:43.000Z</Time>
            <Position>
              <LatitudeDegrees>40.68612403236329555511474609375</LatitudeDegrees>
              <LongitudeDegrees>-3.76956649124622344970703125</LongitudeDegrees>
            </Position>
            <AltitudeMeters>954.4000244140625</AltitudeMeters>
            <DistanceMeters>22720.837925765</DistanceMeters>
          </Trackpoint>
          <Trackpoint>
            <Time>2020-03-07T13:45:44.000Z</Time>
            <Position>
              <LatitudeDegrees>40.68616845645010471343994140625</LatitudeDegrees>
              <LongitudeDegrees>-3.76957110129296779632568359375</LongitudeDegrees>
            </Position>
            <AltitudeMeters>954.79998779296875</AltitudeMeters>
            <DistanceMeters>22725.797555613</DistanceMeters>
          </Trackpoint>
          <Trackpoint>
            <Time>2020-03-07T13:45:45.000Z</Time>
            <Position>
              <LatitudeDegrees>40.6862126290798187255859375</LatitudeDegrees>
              <LongitudeDegrees>-3.76957629807293415069580078125</LongitudeDegrees>
            </Position>
            <AltitudeMeters>955</AltitudeMeters>
            <DistanceMeters>22730.733459405</DistanceMeters>
          </Trackpoint>
          <Trackpoint>
            <Time>2020-03-07T13:45:46.000Z</Time>
            <Position>
              <LatitudeDegrees>40.68625663407146930694580078125</LatitudeDegrees>
              <LongitudeDegrees>-3.7695817463099956512451171875</LongitudeDegrees>
            </Position>
            <AltitudeMeters>955.4000244140625</AltitudeMeters>
            <DistanceMeters>22735.653788149</DistanceMeters>
          </Trackpoint>
          <Trackpoint>
            <Time>2020-03-07T13:45:47.000Z</Time>
            <Position>
              <LatitudeDegrees>40.68629904650151729583740234375</LatitudeDegrees>
              <LongitudeDegrees>-3.76958794891834259033203125</LongitudeDegrees>
            </Position>
            <AltitudeMeters>955.5999755859375</AltitudeMeters>
            <DistanceMeters>22740.403222953</DistanceMeters>
          </Trackpoint>
          <Trackpoint>
            <Time>2020-03-07T13:45:48.000Z</Time>
            <Position>
              <LatitudeDegrees>40.686342380940914154052734375</LatitudeDegrees>
              <LongitudeDegrees>-3.7695944868028163909912109375</LongitudeDegrees>
            </Position>
            <AltitudeMeters>955.79998779296875</AltitudeMeters>
            <DistanceMeters>22745.257962855</DistanceMeters>
          </Trackpoint>
          <Trackpoint>
            <Time>2020-03-07T13:45:49.000Z</Time>
            <Position>
              <LatitudeDegrees>40.68638755939900875091552734375</LatitudeDegrees>
              <LongitudeDegrees>-3.76960110850632190704345703125</LongitudeDegrees>
            </Position>
            <AltitudeMeters>956.20001220703125</AltitudeMeters>
            <DistanceMeters>22750.317633469</DistanceMeters>
          </Trackpoint>
          <Trackpoint>
            <Time>2020-03-07T13:45:50.000Z</Time>
            <Position>
              <LatitudeDegrees>40.68643198348581790924072265625</LatitudeDegrees>
              <LongitudeDegrees>-3.769609071314334869384765625</LongitudeDegrees>
            </Position>
            <AltitudeMeters>956.4000244140625</AltitudeMeters>
            <DistanceMeters>22755.30721469</DistanceMeters>
          </Trackpoint>
          <Trackpoint>
            <Time>2020-03-07T13:45:51.000Z</Time>
            <Position>
              <LatitudeDegrees>40.6864753179252147674560546875</LatitudeDegrees>
              <LongitudeDegrees>-3.76961753703653812408447265625</LongitudeDegrees>
            </Position>
            <AltitudeMeters>956.5999755859375</AltitudeMeters>
            <DistanceMeters>22760.182372246</DistanceMeters>
          </Trackpoint>
          <Trackpoint>
            <Time>2020-03-07T13:45:52.000Z</Time>
            <Position>
              <LatitudeDegrees>40.6865168921649456024169921875</LatitudeDegrees>
              <LongitudeDegrees>-3.76962524838745594024658203125</LongitudeDegrees>
            </Position>
            <AltitudeMeters>956.79998779296875</AltitudeMeters>
            <DistanceMeters>22764.8551364</DistanceMeters>
          </Trackpoint>
          <Trackpoint>
            <Time>2020-03-07T13:45:53.000Z</Time>
            <Position>
              <LatitudeDegrees>40.6865598075091838836669921875</LatitudeDegrees>
              <LongitudeDegrees>-3.769632540643215179443359375</LongitudeDegrees>
            </Position>
            <AltitudeMeters>957</AltitudeMeters>
            <DistanceMeters>22769.672531595</DistanceMeters>
          </Trackpoint>
          <Trackpoint>
            <Time>2020-03-07T13:45:54.000Z</Time>
            <Position>
              <LatitudeDegrees>40.686604566872119903564453125</LatitudeDegrees>
              <LongitudeDegrees>-3.7696384079754352569580078125</LongitudeDegrees>
            </Position>
            <AltitudeMeters>957.20001220703125</AltitudeMeters>
            <DistanceMeters>22774.679276267</DistanceMeters>
          </Trackpoint>
          <Trackpoint>
            <Time>2020-03-07T13:45:55.000Z</Time>
            <Position>
              <LatitudeDegrees>40.68664957769215106964111328125</LatitudeDegrees>
              <LongitudeDegrees>-3.769644610583782196044921875</LongitudeDegrees>
            </Position>
            <AltitudeMeters>957.4000244140625</AltitudeMeters>
            <DistanceMeters>22779.716588527</DistanceMeters>
          </Trackpoint>
          <Trackpoint>
            <Time>2020-03-07T13:45:56.000Z</Time>
            <Position>
              <LatitudeDegrees>40.686694420874118804931640625</LatitudeDegrees>
              <LongitudeDegrees>-3.7696521542966365814208984375</LongitudeDegrees>
            </Position>
            <AltitudeMeters>957.5999755859375</AltitudeMeters>
            <DistanceMeters>22784.747622643</DistanceMeters>
          </Trackpoint>
          <Trackpoint>
            <Time>2020-03-07T13:45:57.000Z</Time>
            <Position>
              <LatitudeDegrees>40.686738677322864532470703125</LatitudeDegrees>
              <LongitudeDegrees>-3.7696591950953006744384765625</LongitudeDegrees>
            </Position>
            <AltitudeMeters>957.79998779296875</AltitudeMeters>
            <DistanceMeters>22789.709072873</DistanceMeters>
          </Trackpoint>
          <Trackpoint>
            <Time>2020-03-07T13:45:58.000Z</Time>
            <Position>
              <LatitudeDegrees>40.6867831014096736907958984375</LatitudeDegrees>
              <LongitudeDegrees>-3.76966648735105991363525390625</LongitudeDegrees>
            </Position>
            <AltitudeMeters>958</AltitudeMeters>
            <DistanceMeters>22794.692315815</DistanceMeters>
          </Trackpoint>
          <Trackpoint>
            <Time>2020-03-07T13:45:59.000Z</Time>
            <Position>
              <LatitudeDegrees>40.6868286989629268646240234375</LatitudeDegrees>
              <LongitudeDegrees>-3.76967386342585086822509765625</LongitudeDegrees>
            </Position>
            <AltitudeMeters>958.20001220703125</AltitudeMeters>
            <DistanceMeters>22799.805247587</DistanceMeters>
          </Trackpoint>
          <Trackpoint>
            <Time>2020-03-07T13:46:00.000Z</Time>
            <Position>
              <LatitudeDegrees>40.6868729554116725921630859375</LatitudeDegrees>
              <LongitudeDegrees>-3.7696803174912929534912109375</LongitudeDegrees>
            </Position>
            <AltitudeMeters>958.20001220703125</AltitudeMeters>
            <DistanceMeters>22804.761234666</DistanceMeters>
          </Trackpoint>
          <Trackpoint>
            <Time>2020-03-07T13:46:01.000Z</Time>
            <Position>
              <LatitudeDegrees>40.68691863678395748138427734375</LatitudeDegrees>
              <LongitudeDegrees>-3.76968744210898876190185546875</LongitudeDegrees>
            </Position>
            <AltitudeMeters>958.4000244140625</AltitudeMeters>
            <DistanceMeters>22809.881226064</DistanceMeters>
          </Trackpoint>
          <Trackpoint>
            <Time>2020-03-07T13:46:02.000Z</Time>
            <Position>
              <LatitudeDegrees>40.686964653432369232177734375</LatitudeDegrees>
              <LongitudeDegrees>-3.76969397999346256256103515625</LongitudeDegrees>
            </Position>
            <AltitudeMeters>958.5999755859375</AltitudeMeters>
            <DistanceMeters>22815.03198956</DistanceMeters>
          </Trackpoint>
          <Trackpoint>
            <Time>2020-03-07T13:46:03.000Z</Time>
            <Position>
              <LatitudeDegrees>40.6870097480714321136474609375</LatitudeDegrees>
              <LongitudeDegrees>-3.76970001496374607086181640625</LongitudeDegrees>
            </Position>
            <AltitudeMeters>958.5999755859375</AltitudeMeters>
            <DistanceMeters>22820.077362242</DistanceMeters>
          </Trackpoint>
          <Trackpoint>
            <Time>2020-03-07T13:46:04.000Z</Time>
            <Position>
              <LatitudeDegrees>40.687055177986621856689453125</LatitudeDegrees>
              <LongitudeDegrees>-3.76970554701983928680419921875</LongitudeDegrees>
            </Position>
            <AltitudeMeters>958.79998779296875</AltitudeMeters>
            <DistanceMeters>22825.155737801</DistanceMeters>
          </Trackpoint>
          <Trackpoint>
            <Time>2020-03-07T13:46:05.000Z</Time>
            <Position>
              <LatitudeDegrees>40.68710303865373134613037109375</LatitudeDegrees>
              <LongitudeDegrees>-3.76970940269529819488525390625</LongitudeDegrees>
            </Position>
            <AltitudeMeters>958.79998779296875</AltitudeMeters>
            <DistanceMeters>22830.491638009</DistanceMeters>
          </Trackpoint>
          <Trackpoint>
            <Time>2020-03-07T13:46:06.000Z</Time>
            <Position>
              <LatitudeDegrees>40.6871515698730945587158203125</LatitudeDegrees>
              <LongitudeDegrees>-3.76971158199012279510498046875</LongitudeDegrees>
            </Position>
            <AltitudeMeters>959.20001220703125</AltitudeMeters>
            <DistanceMeters>22835.895642748</DistanceMeters>
          </Trackpoint>
          <Trackpoint>
            <Time>2020-03-07T13:46:07.000Z</Time>
            <Position>
              <LatitudeDegrees>40.6872001849114894866943359375</LatitudeDegrees>
              <LongitudeDegrees>-3.76971275545656681060791015625</LongitudeDegrees>
            </Position>
            <AltitudeMeters>959.5999755859375</AltitudeMeters>
            <DistanceMeters>22841.306327347</DistanceMeters>
          </Trackpoint>
          <Trackpoint>
            <Time>2020-03-07T13:46:08.000Z</Time>
            <Position>
              <LatitudeDegrees>40.68724905140697956085205078125</LatitudeDegrees>
              <LongitudeDegrees>-3.76971225254237651824951171875</LongitudeDegrees>
            </Position>
            <AltitudeMeters>959.79998779296875</AltitudeMeters>
            <DistanceMeters>22846.745309828</DistanceMeters>
          </Trackpoint>
          <Trackpoint>
            <Time>2020-03-07T13:46:09.000Z</Time>
            <Position>
              <LatitudeDegrees>40.687298588454723358154296875</LatitudeDegrees>
              <LongitudeDegrees>-3.769710324704647064208984375</LongitudeDegrees>
            </Position>
            <AltitudeMeters>960</AltitudeMeters>
            <DistanceMeters>22852.26095372</DistanceMeters>
          </Trackpoint>
          <Trackpoint>
            <Time>2020-03-07T13:46:10.000Z</Time>
            <Position>
              <LatitudeDegrees>40.6873500533401966094970703125</LatitudeDegrees>
              <LongitudeDegrees>-3.76970957033336162567138671875</LongitudeDegrees>
            </Position>
            <AltitudeMeters>960</AltitudeMeters>
            <DistanceMeters>22857.990205667</DistanceMeters>
          </Trackpoint>
          <Trackpoint>
            <Time>2020-03-07T13:46:11.000Z</Time>
            <Position>
              <LatitudeDegrees>40.6874006800353527069091796875</LatitudeDegrees>
              <LongitudeDegrees>-3.76970923505723476409912109375</LongitudeDegrees>
            </Position>
            <AltitudeMeters>960.20001220703125</AltitudeMeters>
            <DistanceMeters>22863.625698445</DistanceMeters>
          </Trackpoint>
          <Trackpoint>
            <Time>2020-03-07T13:46:12.000Z</Time>
            <Position>
              <LatitudeDegrees>40.68745206110179424285888671875</LatitudeDegrees>
              <LongitudeDegrees>-3.76970864832401275634765625</LongitudeDegrees>
            </Position>
            <AltitudeMeters>960.20001220703125</AltitudeMeters>
            <DistanceMeters>22869.344696337</DistanceMeters>
          </Trackpoint>
          <Trackpoint>
            <Time>2020-03-07T13:46:13.000Z</Time>
            <Position>
              <LatitudeDegrees>40.687503106892108917236328125</LatitudeDegrees>
              <LongitudeDegrees>-3.76970940269529819488525390625</LongitudeDegrees>
            </Position>
            <AltitudeMeters>960.4000244140625</AltitudeMeters>
            <DistanceMeters>22875.025672768</DistanceMeters>
          </Trackpoint>
          <Trackpoint>
            <Time>2020-03-07T13:46:14.000Z</Time>
            <Position>
              <LatitudeDegrees>40.687553398311138153076171875</LatitudeDegrees>
              <LongitudeDegrees>-3.76971007324755191802978515625</LongitudeDegrees>
            </Position>
            <AltitudeMeters>960.4000244140625</AltitudeMeters>
            <DistanceMeters>22880.623383484</DistanceMeters>
          </Trackpoint>
          <Trackpoint>
            <Time>2020-03-07T13:46:15.000Z</Time>
            <Position>
              <LatitudeDegrees>40.6876038573682308197021484375</LatitudeDegrees>
              <LongitudeDegrees>-3.7697084806859493255615234375</LongitudeDegrees>
            </Position>
            <AltitudeMeters>960.4000244140625</AltitudeMeters>
            <DistanceMeters>22886.24041892</DistanceMeters>
          </Trackpoint>
          <Trackpoint>
            <Time>2020-03-07T13:46:16.000Z</Time>
            <Position>
              <LatitudeDegrees>40.68765473552048206329345703125</LatitudeDegrees>
              <LongitudeDegrees>-3.76970730721950531005859375</LongitudeDegrees>
            </Position>
            <AltitudeMeters>960.4000244140625</AltitudeMeters>
            <DistanceMeters>22891.903883543</DistanceMeters>
          </Trackpoint>
          <Trackpoint>
            <Time>2020-03-07T13:46:17.000Z</Time>
            <Position>
              <LatitudeDegrees>40.6877061165869235992431640625</LatitudeDegrees>
              <LongitudeDegrees>-3.76970739103853702545166015625</LongitudeDegrees>
            </Position>
            <AltitudeMeters>960.5999755859375</AltitudeMeters>
            <DistanceMeters>22897.622881434</DistanceMeters>
          </Trackpoint>
          <Trackpoint>
            <Time>2020-03-07T13:46:18.000Z</Time>
            <Position>
              <LatitudeDegrees>40.68775800056755542755126953125</LatitudeDegrees>
              <LongitudeDegrees>-3.7697078101336956024169921875</LongitudeDegrees>
            </Position>
            <AltitudeMeters>960.5999755859375</AltitudeMeters>
            <DistanceMeters>22903.39687851</DistanceMeters>
          </Trackpoint>
          <Trackpoint>
            <Time>2020-03-07T13:46:19.000Z</Time>
            <Position>
              <LatitudeDegrees>40.6878093816339969635009765625</LatitudeDegrees>
              <LongitudeDegrees>-3.7697081454098224639892578125</LongitudeDegrees>
            </Position>
            <AltitudeMeters>960.5999755859375</AltitudeMeters>
            <DistanceMeters>22909.115876401</DistanceMeters>
          </Trackpoint>
          <Trackpoint>
            <Time>2020-03-07T13:46:20.000Z</Time>
            <Position>
              <LatitudeDegrees>40.68786151707172393798828125</LatitudeDegrees>
              <LongitudeDegrees>-3.7697074748575687408447265625</LongitudeDegrees>
            </Position>
            <AltitudeMeters>960.5999755859375</AltitudeMeters>
            <DistanceMeters>22914.919511911</DistanceMeters>
          </Trackpoint>
          <Trackpoint>
            <Time>2020-03-07T13:46:21.000Z</Time>
            <Position>
              <LatitudeDegrees>40.68791457451879978179931640625</LatitudeDegrees>
              <LongitudeDegrees>-3.7697057984769344329833984375</LongitudeDegrees>
            </Position>
            <AltitudeMeters>960.79998779296875</AltitudeMeters>
            <DistanceMeters>22920.826475207</DistanceMeters>
          </Trackpoint>
          <Trackpoint>
            <Time>2020-03-07T13:46:22.000Z</Time>
            <Position>
              <LatitudeDegrees>40.6879676319658756256103515625</LatitudeDegrees>
              <LongitudeDegrees>-3.769703619182109832763671875</LongitudeDegrees>
            </Position>
            <AltitudeMeters>960.79998779296875</AltitudeMeters>
            <DistanceMeters>22926.734967023</DistanceMeters>
          </Trackpoint>
          <Trackpoint>
            <Time>2020-03-07T13:46:23.000Z</Time>
            <Position>
              <LatitudeDegrees>40.688020773231983184814453125</LatitudeDegrees>
              <LongitudeDegrees>-3.76970051787793636322021484375</LongitudeDegrees>
            </Position>
            <AltitudeMeters>960.79998779296875</AltitudeMeters>
            <DistanceMeters>22932.654910154</DistanceMeters>
          </Trackpoint>
          <Trackpoint>
            <Time>2020-03-07T13:46:24.000Z</Time>
            <Position>
              <LatitudeDegrees>40.68807341158390045166015625</LatitudeDegrees>
              <LongitudeDegrees>-3.7696977518498897552490234375</LongitudeDegrees>
            </Position>
            <AltitudeMeters>960.79998779296875</AltitudeMeters>
            <DistanceMeters>22938.517373028</DistanceMeters>
          </Trackpoint>
          <Trackpoint>
            <Time>2020-03-07T13:46:25.000Z</Time>
            <Position>
              <LatitudeDegrees>40.6881277263164520263671875</LatitudeDegrees>
              <LongitudeDegrees>-3.76969498582184314727783203125</LongitudeDegrees>
            </Position>
            <AltitudeMeters>961</AltitudeMeters>
            <DistanceMeters>22944.566329115</DistanceMeters>
          </Trackpoint>
          <Trackpoint>
            <Time>2020-03-07T13:46:26.000Z</Time>
            <Position>
              <LatitudeDegrees>40.68818229250609874725341796875</LatitudeDegrees>
              <LongitudeDegrees>-3.769691884517669677734375</LongitudeDegrees>
            </Position>
            <AltitudeMeters>961</AltitudeMeters>
            <DistanceMeters>22950.64432572</DistanceMeters>
          </Trackpoint>
          <Trackpoint>
            <Time>2020-03-07T13:46:27.000Z</Time>
            <Position>
              <LatitudeDegrees>40.68823794834315776824951171875</LatitudeDegrees>
              <LongitudeDegrees>-3.76968878321349620819091796875</LongitudeDegrees>
            </Position>
            <AltitudeMeters>961.20001220703125</AltitudeMeters>
            <DistanceMeters>22956.843680957</DistanceMeters>
          </Trackpoint>
          <Trackpoint>
            <Time>2020-03-07T13:46:28.000Z</Time>
            <Position>
              <LatitudeDegrees>40.68829427473247051239013671875</LatitudeDegrees>
              <LongitudeDegrees>-3.769686520099639892578125</LongitudeDegrees>
            </Position>
            <AltitudeMeters>961.20001220703125</AltitudeMeters>
            <DistanceMeters>22963.115444105</DistanceMeters>
          </Trackpoint>
          <Trackpoint>
            <Time>2020-03-07T13:46:29.000Z</Time>
            <Position>
              <LatitudeDegrees>40.6883498467504978179931640625</LatitudeDegrees>
              <LongitudeDegrees>-3.76968626864254474639892578125</LongitudeDegrees>
            </Position>
            <AltitudeMeters>961.20001220703125</AltitudeMeters>
            <DistanceMeters>22969.300216034</DistanceMeters>
          </Trackpoint>
          <Trackpoint>
            <Time>2020-03-07T13:46:30.000Z</Time>
            <Position>
              <LatitudeDegrees>40.6884061731398105621337890625</LatitudeDegrees>
              <LongitudeDegrees>-3.76968442462384700775146484375</LongitudeDegrees>
            </Position>
            <AltitudeMeters>961.4000244140625</AltitudeMeters>
            <DistanceMeters>22975.571979183</DistanceMeters>
          </Trackpoint>
          <Trackpoint>
            <Time>2020-03-07T13:46:31.000Z</Time>
            <Position>
              <LatitudeDegrees>40.6884630024433135986328125</LatitudeDegrees>
              <LongitudeDegrees>-3.7696816585958003997802734375</LongitudeDegrees>
            </Position>
            <AltitudeMeters>961.4000244140625</AltitudeMeters>
            <DistanceMeters>22981.901072254</DistanceMeters>
          </Trackpoint>
          <Trackpoint>
            <Time>2020-03-07T13:46:32.000Z</Time>
            <Position>
              <LatitudeDegrees>40.68852041848003864288330078125</LatitudeDegrees>
              <LongitudeDegrees>-3.76967956312000751495361328125</LongitudeDegrees>
            </Position>
            <AltitudeMeters>961.4000244140625</AltitudeMeters>
            <DistanceMeters>22988.293340702</DistanceMeters>
          </Trackpoint>
          <Trackpoint>
            <Time>2020-03-07T13:46:33.000Z</Time>
            <Position>
              <LatitudeDegrees>40.6885778345167636871337890625</LatitudeDegrees>
              <LongitudeDegrees>-3.7696779705584049224853515625</LongitudeDegrees>
            </Position>
            <AltitudeMeters>961.4000244140625</AltitudeMeters>
            <DistanceMeters>22994.684902783</DistanceMeters>
          </Trackpoint>
          <Trackpoint>
            <Time>2020-03-07T13:46:34.000Z</Time>
            <Position>
              <LatitudeDegrees>40.68863533437252044677734375</LatitudeDegrees>
              <LongitudeDegrees>-3.769676126539707183837890625</LongitudeDegrees>
            </Position>
            <AltitudeMeters>961.5999755859375</AltitudeMeters>
            <DistanceMeters>23001.086346909</DistanceMeters>
          </Trackpoint>
          <Trackpoint>
            <Time>2020-03-07T13:46:35.000Z</Time>
            <Position>
              <LatitudeDegrees>40.6886936724185943603515625</LatitudeDegrees>
              <LongitudeDegrees>-3.76967537216842174530029296875</LongitudeDegrees>
            </Position>
            <AltitudeMeters>961.79998779296875</AltitudeMeters>
            <DistanceMeters>23007.580225334</DistanceMeters>
          </Trackpoint>
          <Trackpoint>
            <Time>2020-03-07T13:46:36.000Z</Time>
            <Position>
              <LatitudeDegrees>40.68875125609338283538818359375</LatitudeDegrees>
              <LongitudeDegrees>-3.76967646181583404541015625</LongitudeDegrees>
            </Position>
            <AltitudeMeters>962</AltitudeMeters>
            <DistanceMeters>23013.990127659</DistanceMeters>
          </Trackpoint>
          <Trackpoint>
            <Time>2020-03-07T13:46:37.000Z</Time>
            <Position>
              <LatitudeDegrees>40.68880825303494930267333984375</LatitudeDegrees>
              <LongitudeDegrees>-3.76967688091099262237548828125</LongitudeDegrees>
            </Position>
            <AltitudeMeters>962.20001220703125</AltitudeMeters>
            <DistanceMeters>23020.334183988</DistanceMeters>
          </Trackpoint>
          <Trackpoint>
            <Time>2020-03-07T13:46:38.000Z</Time>
            <Position>
              <LatitudeDegrees>40.688865669071674346923828125</LatitudeDegrees>
              <LongitudeDegrees>-3.7696766294538974761962890625</LongitudeDegrees>
            </Position>
            <AltitudeMeters>962.4000244140625</AltitudeMeters>
            <DistanceMeters>23026.724333101</DistanceMeters>
          </Trackpoint>
          <Trackpoint>
            <Time>2020-03-07T13:46:39.000Z</Time>
            <Position>
              <LatitudeDegrees>40.6889224983751773834228515625</LatitudeDegrees>
              <LongitudeDegrees>-3.769676797091960906982421875</LongitudeDegrees>
            </Position>
            <AltitudeMeters>962.5999755859375</AltitudeMeters>
            <DistanceMeters>23033.049144454</DistanceMeters>
          </Trackpoint>
          <Trackpoint>
            <Time>2020-03-07T13:46:40.000Z</Time>
            <Position>
              <LatitudeDegrees>40.688979327678680419921875</LatitudeDegrees>
              <LongitudeDegrees>-3.76967738382518291473388671875</LongitudeDegrees>
            </Position>
            <AltitudeMeters>962.5999755859375</AltitudeMeters>
            <DistanceMeters>23039.374669627</DistanceMeters>
          </Trackpoint>
          <Trackpoint>
            <Time>2020-03-07T13:46:41.000Z</Time>
            <Position>
              <LatitudeDegrees>40.689035989344120025634765625</LatitudeDegrees>
              <LongitudeDegrees>-3.76967838965356349945068359375</LongitudeDegrees>
            </Position>
            <AltitudeMeters>962.5999755859375</AltitudeMeters>
            <DistanceMeters>23045.68232504</DistanceMeters>
          </Trackpoint>
          <Trackpoint>
            <Time>2020-03-07T13:46:42.000Z</Time>
            <Position>
              <LatitudeDegrees>40.68909357301890850067138671875</LatitudeDegrees>
              <LongitudeDegrees>-3.7696796469390392303466796875</LongitudeDegrees>
            </Position>
            <AltitudeMeters>962.79998779296875</AltitudeMeters>
            <DistanceMeters>23052.092227366</DistanceMeters>
          </Trackpoint>
          <Trackpoint>
            <Time>2020-03-07T13:46:43.000Z</Time>
            <Position>
              <LatitudeDegrees>40.68915073759853839874267578125</LatitudeDegrees>
              <LongitudeDegrees>-3.76967989839613437652587890625</LongitudeDegrees>
            </Position>
            <AltitudeMeters>962.79998779296875</AltitudeMeters>
            <DistanceMeters>23058.45405121</DistanceMeters>
          </Trackpoint>
          <Trackpoint>
            <Time>2020-03-07T13:46:44.000Z</Time>
            <Position>
              <LatitudeDegrees>40.68920656107366085052490234375</LatitudeDegrees>
              <LongitudeDegrees>-3.7696783058345317840576171875</LongitudeDegrees>
            </Position>
            <AltitudeMeters>962.79998779296875</AltitudeMeters>
            <DistanceMeters>23064.668682088</DistanceMeters>
          </Trackpoint>
          <Trackpoint>
            <Time>2020-03-07T13:46:45.000Z</Time>
            <Position>
              <LatitudeDegrees>40.68926297128200531005859375</LatitudeDegrees>
              <LongitudeDegrees>-3.76967771910130977630615234375</LongitudeDegrees>
            </Position>
            <AltitudeMeters>962.79998779296875</AltitudeMeters>
            <DistanceMeters>23070.947640103</DistanceMeters>
          </Trackpoint>
          <Trackpoint>
            <Time>2020-03-07T13:46:46.000Z</Time>
            <Position>
              <LatitudeDegrees>40.6893194653093814849853515625</LatitudeDegrees>
              <LongitudeDegrees>-3.7696749530732631683349609375</LongitudeDegrees>
            </Position>
            <AltitudeMeters>962.79998779296875</AltitudeMeters>
            <DistanceMeters>23077.240963174</DistanceMeters>
          </Trackpoint>
          <Trackpoint>
            <Time>2020-03-07T13:46:47.000Z</Time>
            <Position>
              <LatitudeDegrees>40.68937587551772594451904296875</LatitudeDegrees>
              <LongitudeDegrees>-3.76967109739780426025390625</LongitudeDegrees>
            </Position>
            <AltitudeMeters>962.79998779296875</AltitudeMeters>
            <DistanceMeters>23083.527107821</DistanceMeters>
          </Trackpoint>
          <Trackpoint>
            <Time>2020-03-07T13:46:48.000Z</Time>
            <Position>
              <LatitudeDegrees>40.6894317828118801116943359375</LatitudeDegrees>
              <LongitudeDegrees>-3.76966849900782108306884765625</LongitudeDegrees>
            </Position>
            <AltitudeMeters>963</AltitudeMeters>
            <DistanceMeters>23089.752626924</DistanceMeters>
          </Trackpoint>
          <Trackpoint>
            <Time>2020-03-07T13:46:49.000Z</Time>
            <Position>
              <LatitudeDegrees>40.6894877739250659942626953125</LatitudeDegrees>
              <LongitudeDegrees>-3.7696662358939647674560546875</LongitudeDegrees>
            </Position>
            <AltitudeMeters>963</AltitudeMeters>
            <DistanceMeters>23095.986842914</DistanceMeters>
          </Trackpoint>
          <Trackpoint>
            <Time>2020-03-07T13:46:50.000Z</Time>
            <Position>
              <LatitudeDegrees>40.6895439326763153076171875</LatitudeDegrees>
              <LongitudeDegrees>-3.76966363750398159027099609375</LongitudeDegrees>
            </Position>
            <AltitudeMeters>963.20001220703125</AltitudeMeters>
            <DistanceMeters>23102.241304614</DistanceMeters>
          </Trackpoint>
          <Trackpoint>
            <Time>2020-03-07T13:46:51.000Z</Time>
            <Position>
              <LatitudeDegrees>40.689599253237247467041015625</LatitudeDegrees>
              <LongitudeDegrees>-3.7696610391139984130859375</LongitudeDegrees>
            </Position>
            <AltitudeMeters>963.4000244140625</AltitudeMeters>
            <DistanceMeters>23108.402671457</DistanceMeters>
          </Trackpoint>
          <Trackpoint>
            <Time>2020-03-07T13:46:52.000Z</Time>
            <Position>
              <LatitudeDegrees>40.68965432234108448028564453125</LatitudeDegrees>
              <LongitudeDegrees>-3.7696588598191738128662109375</LongitudeDegrees>
            </Position>
            <AltitudeMeters>963.4000244140625</AltitudeMeters>
            <DistanceMeters>23114.535392581</DistanceMeters>
          </Trackpoint>
          <Trackpoint>
            <Time>2020-03-07T13:46:53.000Z</Time>
            <Position>
              <LatitudeDegrees>40.6897090561687946319580078125</LatitudeDegrees>
              <LongitudeDegrees>-3.7696561776101589202880859375</LongitudeDegrees>
            </Position>
            <AltitudeMeters>963.5999755859375</AltitudeMeters>
            <DistanceMeters>23120.630450783</DistanceMeters>
          </Trackpoint>
          <Trackpoint>
            <Time>2020-03-07T13:46:54.000Z</Time>
            <Position>
              <LatitudeDegrees>40.68976362235844135284423828125</LatitudeDegrees>
              <LongitudeDegrees>-3.76965240575373172760009765625</LongitudeDegrees>
            </Position>
            <AltitudeMeters>963.5999755859375</AltitudeMeters>
            <DistanceMeters>23126.710675529</DistanceMeters>
          </Trackpoint>
          <Trackpoint>
            <Time>2020-03-07T13:46:55.000Z</Time>
            <Position>
              <LatitudeDegrees>40.68981743417680263519287109375</LatitudeDegrees>
              <LongitudeDegrees>-3.7696488015353679656982421875</LongitudeDegrees>
            </Position>
            <AltitudeMeters>963.79998779296875</AltitudeMeters>
            <DistanceMeters>23132.707154863</DistanceMeters>
          </Trackpoint>
          <Trackpoint>
            <Time>2020-03-07T13:46:56.000Z</Time>
            <Position>
              <LatitudeDegrees>40.68987124599516391754150390625</LatitudeDegrees>
              <LongitudeDegrees>-3.76964536495506763458251953125</LongitudeDegrees>
            </Position>
            <AltitudeMeters>963.79998779296875</AltitudeMeters>
            <DistanceMeters>23138.703634197</DistanceMeters>
          </Trackpoint>
          <Trackpoint>
            <Time>2020-03-07T13:46:57.000Z</Time>
            <Position>
              <LatitudeDegrees>40.68992522545158863067626953125</LatitudeDegrees>
              <LongitudeDegrees>-3.76964268274605274200439453125</LongitudeDegrees>
            </Position>
            <AltitudeMeters>964</AltitudeMeters>
            <DistanceMeters>23144.716655574</DistanceMeters>
          </Trackpoint>
          <Trackpoint>
            <Time>2020-03-07T13:46:58.000Z</Time>
            <Position>
              <LatitudeDegrees>40.689978785812854766845703125</LatitudeDegrees>
              <LongitudeDegrees>-3.76964117400348186492919921875</LongitudeDegrees>
            </Position>
            <AltitudeMeters>964</AltitudeMeters>
            <DistanceMeters>23150.67991316</DistanceMeters>
          </Trackpoint>
          <Trackpoint>
            <Time>2020-03-07T13:46:59.000Z</Time>
            <Position>
              <LatitudeDegrees>40.6900329329073429107666015625</LatitudeDegrees>
              <LongitudeDegrees>-3.76963782124221324920654296875</LongitudeDegrees>
            </Position>
            <AltitudeMeters>964.20001220703125</AltitudeMeters>
            <DistanceMeters>23156.713922459</DistanceMeters>
          </Trackpoint>
          <Trackpoint>
            <Time>2020-03-07T13:47:00.000Z</Time>
            <Position>
              <LatitudeDegrees>40.690086744725704193115234375</LatitudeDegrees>
              <LongitudeDegrees>-3.76963346265256404876708984375</LongitudeDegrees>
            </Position>
            <AltitudeMeters>964.4000244140625</AltitudeMeters>
            <DistanceMeters>23162.715670116</DistanceMeters>
          </Trackpoint>
          <Trackpoint>
            <Time>2020-03-07T13:47:01.000Z</Time>
            <Position>
              <LatitudeDegrees>40.6901412270963191986083984375</LatitudeDegrees>
              <LongitudeDegrees>-3.76963094808161258697509765625</LongitudeDegrees>
            </Position>
            <AltitudeMeters>964.5999755859375</AltitudeMeters>
            <DistanceMeters>23168.783257912</DistanceMeters>
          </Trackpoint>
          <Trackpoint>
            <Time>2020-03-07T13:47:02.000Z</Time>
            <Position>
              <LatitudeDegrees>40.69019696675240993499755859375</LatitudeDegrees>
              <LongitudeDegrees>-3.7696276791393756866455078125</LongitudeDegrees>
            </Position>
            <AltitudeMeters>964.79998779296875</AltitudeMeters>
            <DistanceMeters>23174.99425514</DistanceMeters>
          </Trackpoint>
          <Trackpoint>
            <Time>2020-03-07T13:47:03.000Z</Time>
            <Position>
              <LatitudeDegrees>40.69025279022753238677978515625</LatitudeDegrees>
              <LongitudeDegrees>-3.76962524838745594024658203125</LongitudeDegrees>
            </Position>
            <AltitudeMeters>965</AltitudeMeters>
            <DistanceMeters>23181.211065188</DistanceMeters>
          </Trackpoint>
          <Trackpoint>
            <Time>2020-03-07T13:47:04.000Z</Time>
            <Position>
              <LatitudeDegrees>40.69030928425490856170654296875</LatitudeDegrees>
              <LongitudeDegrees>-3.769622482359409332275390625</LongitudeDegrees>
            </Position>
            <AltitudeMeters>965.20001220703125</AltitudeMeters>
            <DistanceMeters>23187.503670786</DistanceMeters>
          </Trackpoint>
          <Trackpoint>
            <Time>2020-03-07T13:47:05.000Z</Time>
            <Position>
              <LatitudeDegrees>40.69036577828228473663330078125</LatitudeDegrees>
              <LongitudeDegrees>-3.76962021924555301666259765625</LongitudeDegrees>
            </Position>
            <AltitudeMeters>965.20001220703125</AltitudeMeters>
            <DistanceMeters>23193.794123471</DistanceMeters>
          </Trackpoint>
          <Trackpoint>
            <Time>2020-03-07T13:47:06.000Z</Time>
            <Position>
              <LatitudeDegrees>40.69042176939547061920166015625</LatitudeDegrees>
              <LongitudeDegrees>-3.7696189619600772857666015625</LongitudeDegrees>
            </Position>
            <AltitudeMeters>965.4000244140625</AltitudeMeters>
            <DistanceMeters>23200.026890823</DistanceMeters>
          </Trackpoint>
          <Trackpoint>
            <Time>2020-03-07T13:47:07.000Z</Time>
            <Position>
              <LatitudeDegrees>40.6904781796038150787353515625</LatitudeDegrees>
              <LongitudeDegrees>-3.76961736939847469329833984375</LongitudeDegrees>
            </Position>
            <AltitudeMeters>965.4000244140625</AltitudeMeters>
            <DistanceMeters>23206.305848838</DistanceMeters>
          </Trackpoint>
          <Trackpoint>
            <Time>2020-03-07T13:47:08.000Z</Time>
            <Position>
              <LatitudeDegrees>40.690535008907318115234375</LatitudeDegrees>
              <LongitudeDegrees>-3.7696152739226818084716796875</LongitudeDegrees>
            </Position>
            <AltitudeMeters>965.5999755859375</AltitudeMeters>
            <DistanceMeters>23212.632801412</DistanceMeters>
          </Trackpoint>
          <Trackpoint>
            <Time>2020-03-07T13:47:09.000Z</Time>
            <Position>
              <LatitudeDegrees>40.69059125147759914398193359375</LatitudeDegrees>
              <LongitudeDegrees>-3.7696132622659206390380859375</LongitudeDegrees>
            </Position>
            <AltitudeMeters>965.5999755859375</AltitudeMeters>
            <DistanceMeters>23218.894477858</DistanceMeters>
          </Trackpoint>
          <Trackpoint>
            <Time>2020-03-07T13:47:10.000Z</Time>
            <Position>
              <LatitudeDegrees>40.6906478293240070343017578125</LatitudeDegrees>
              <LongitudeDegrees>-3.76961217261850833892822265625</LongitudeDegrees>
            </Position>
            <AltitudeMeters>965.5999755859375</AltitudeMeters>
            <DistanceMeters>23225.192104057</DistanceMeters>
          </Trackpoint>
          <Trackpoint>
            <Time>2020-03-07T13:47:11.000Z</Time>
            <Position>
              <LatitudeDegrees>40.69070507772266864776611328125</LatitudeDegrees>
              <LongitudeDegrees>-3.7696105800569057464599609375</LongitudeDegrees>
            </Position>
            <AltitudeMeters>965.79998779296875</AltitudeMeters>
            <DistanceMeters>23231.565273115</DistanceMeters>
          </Trackpoint>
          <Trackpoint>
            <Time>2020-03-07T13:47:12.000Z</Time>
            <Position>
              <LatitudeDegrees>40.690762661397457122802734375</LatitudeDegrees>
              <LongitudeDegrees>-3.76960865221917629241943359375</LongitudeDegrees>
            </Position>
            <AltitudeMeters>966</AltitudeMeters>
            <DistanceMeters>23237.976584056</DistanceMeters>
          </Trackpoint>
          <Trackpoint>
            <Time>2020-03-07T13:47:13.000Z</Time>
            <Position>
              <LatitudeDegrees>40.69082024507224559783935546875</LatitudeDegrees>
              <LongitudeDegrees>-3.76960672438144683837890625</LongitudeDegrees>
            </Position>
            <AltitudeMeters>966.20001220703125</AltitudeMeters>
            <DistanceMeters>23244.387894996</DistanceMeters>
          </Trackpoint>
          <Trackpoint>
            <Time>2020-03-07T13:47:14.000Z</Time>
            <Position>
              <LatitudeDegrees>40.69087891839444637298583984375</LatitudeDegrees>
              <LongitudeDegrees>-3.76960395835340023040771484375</LongitudeDegrees>
            </Position>
            <AltitudeMeters>966.4000244140625</AltitudeMeters>
            <DistanceMeters>23250.922665956</DistanceMeters>
          </Trackpoint>
          <Trackpoint>
            <Time>2020-03-07T13:47:15.000Z</Time>
            <Position>
              <LatitudeDegrees>40.6909385137259960174560546875</LatitudeDegrees>
              <LongitudeDegrees>-3.76960144378244876861572265625</LongitudeDegrees>
            </Position>
            <AltitudeMeters>966.5999755859375</AltitudeMeters>
            <DistanceMeters>23257.558906068</DistanceMeters>
          </Trackpoint>
          <Trackpoint>
            <Time>2020-03-07T13:47:16.000Z</Time>
            <Position>
              <LatitudeDegrees>40.69099660031497478485107421875</LatitudeDegrees>
              <LongitudeDegrees>-3.76959733664989471435546875</LongitudeDegrees>
            </Position>
            <AltitudeMeters>966.5999755859375</AltitudeMeters>
            <DistanceMeters>23264.033287494</DistanceMeters>
          </Trackpoint>
          <Trackpoint>
            <Time>2020-03-07T13:47:17.000Z</Time>
            <Position>
              <LatitudeDegrees>40.69105602800846099853515625</LatitudeDegrees>
              <LongitudeDegrees>-3.76959205605089664459228515625</LongitudeDegrees>
            </Position>
            <AltitudeMeters>966.5999755859375</AltitudeMeters>
            <DistanceMeters>23270.66340153</DistanceMeters>
          </Trackpoint>
          <Trackpoint>
            <Time>2020-03-07T13:47:18.000Z</Time>
            <Position>
              <LatitudeDegrees>40.691114701330661773681640625</LatitudeDegrees>
              <LongitudeDegrees>-3.76958518289029598236083984375</LongitudeDegrees>
            </Position>
            <AltitudeMeters>966.5999755859375</AltitudeMeters>
            <DistanceMeters>23277.219556186</DistanceMeters>
          </Trackpoint>
          <Trackpoint>
            <Time>2020-03-07T13:47:19.000Z</Time>
            <Position>
              <LatitudeDegrees>40.691172368824481964111328125</LatitudeDegrees>
              <LongitudeDegrees>-3.769576884806156158447265625</LongitudeDegrees>
            </Position>
            <AltitudeMeters>966.5999755859375</AltitudeMeters>
            <DistanceMeters>23283.675780536</DistanceMeters>
          </Trackpoint>
          <Trackpoint>
            <Time>2020-03-07T13:47:20.000Z</Time>
            <Position>
              <LatitudeDegrees>40.69123028777539730072021484375</LatitudeDegrees>
              <LongitudeDegrees>-3.769566155970096588134765625</LongitudeDegrees>
            </Position>
            <AltitudeMeters>966.79998779296875</AltitudeMeters>
            <DistanceMeters>23290.185630669</DistanceMeters>
          </Trackpoint>
          <Trackpoint>
            <Time>2020-03-07T13:47:21.000Z</Time>
            <Position>
              <LatitudeDegrees>40.6912872008979320526123046875</LatitudeDegrees>
              <LongitudeDegrees>-3.769553415477275848388671875</LongitudeDegrees>
            </Position>
            <AltitudeMeters>966.79998779296875</AltitudeMeters>
            <DistanceMeters>23296.611010775</DistanceMeters>
          </Trackpoint>
          <Trackpoint>
            <Time>2020-03-07T13:47:22.000Z</Time>
            <Position>
              <LatitudeDegrees>40.6913448683917522430419921875</LatitudeDegrees>
              <LongitudeDegrees>-3.76954025588929653167724609375</LongitudeDegrees>
            </Position>
            <AltitudeMeters>966.79998779296875</AltitudeMeters>
            <DistanceMeters>23303.125021</DistanceMeters>
          </Trackpoint>
          <Trackpoint>
            <Time>2020-03-07T13:47:23.000Z</Time>
            <Position>
              <LatitudeDegrees>40.6914015300571918487548828125</LatitudeDegrees>
              <LongitudeDegrees>-3.769525587558746337890625</LongitudeDegrees>
            </Position>
            <AltitudeMeters>967</AltitudeMeters>
            <DistanceMeters>23309.551806328</DistanceMeters>
          </Trackpoint>
          <Trackpoint>
            <Time>2020-03-07T13:47:24.000Z</Time>
            <Position>
              <LatitudeDegrees>40.6914565153419971466064453125</LatitudeDegrees>
              <LongitudeDegrees>-3.769507817924022674560546875</LongitudeDegrees>
            </Position>
            <AltitudeMeters>967</AltitudeMeters>
            <DistanceMeters>23315.853732716</DistanceMeters>
          </Trackpoint>
          <Trackpoint>
            <Time>2020-03-07T13:47:25.000Z</Time>
            <Position>
              <LatitudeDegrees>40.69151225499808788299560546875</LatitudeDegrees>
              <LongitudeDegrees>-3.7694895453751087188720703125</LongitudeDegrees>
            </Position>
            <AltitudeMeters>967</AltitudeMeters>
            <DistanceMeters>23322.246001164</DistanceMeters>
          </Trackpoint>
          <Trackpoint>
            <Time>2020-03-07T13:47:26.000Z</Time>
            <Position>
              <LatitudeDegrees>40.69156698882579803466796875</LatitudeDegrees>
              <LongitudeDegrees>-3.76947102136909961700439453125</LongitudeDegrees>
            </Position>
            <AltitudeMeters>967</AltitudeMeters>
            <DistanceMeters>23328.535018164</DistanceMeters>
          </Trackpoint>
          <Trackpoint>
            <Time>2020-03-07T13:47:27.000Z</Time>
            <Position>
              <LatitudeDegrees>40.69162063300609588623046875</LatitudeDegrees>
              <LongitudeDegrees>-3.76945207826793193817138671875</LongitudeDegrees>
            </Position>
            <AltitudeMeters>967</AltitudeMeters>
            <DistanceMeters>23334.71613889</DistanceMeters>
          </Trackpoint>
          <Trackpoint>
            <Time>2020-03-07T13:47:28.000Z</Time>
            <Position>
              <LatitudeDegrees>40.6916741095483303070068359375</LatitudeDegrees>
              <LongitudeDegrees>-3.76943363808095455169677734375</LongitudeDegrees>
            </Position>
            <AltitudeMeters>967.20001220703125</AltitudeMeters>
            <DistanceMeters>23340.868705871</DistanceMeters>
          </Trackpoint>
          <Trackpoint>
            <Time>2020-03-07T13:47:29.000Z</Time>
            <Position>
              <LatitudeDegrees>40.691726915538311004638671875</LatitudeDegrees>
              <LongitudeDegrees>-3.769416622817516326904296875</LongitudeDegrees>
            </Position>
            <AltitudeMeters>967.20001220703125</AltitudeMeters>
            <DistanceMeters>23346.919154607</DistanceMeters>
          </Trackpoint>
          <Trackpoint>
            <Time>2020-03-07T13:47:30.000Z</Time>
            <Position>
              <LatitudeDegrees>40.691779218614101409912109375</LatitudeDegrees>
              <LongitudeDegrees>-3.76939943991601467132568359375</LongitudeDegrees>
            </Position>
            <AltitudeMeters>967.4000244140625</AltitudeMeters>
            <DistanceMeters>23352.918644977</DistanceMeters>
          </Trackpoint>
          <Trackpoint>
            <Time>2020-03-07T13:47:31.000Z</Time>
            <Position>
              <LatitudeDegrees>40.69183026440441608428955078125</LatitudeDegrees>
              <LongitudeDegrees>-3.7693815864622592926025390625</LongitudeDegrees>
            </Position>
            <AltitudeMeters>967.4000244140625</AltitudeMeters>
            <DistanceMeters>23358.796490881</DistanceMeters>
          </Trackpoint>
          <Trackpoint>
            <Time>2020-03-07T13:47:32.000Z</Time>
            <Position>
              <LatitudeDegrees>40.6918803043663501739501953125</LatitudeDegrees>
              <LongitudeDegrees>-3.769361972808837890625</LongitudeDegrees>
            </Position>
            <AltitudeMeters>967.5999755859375</AltitudeMeters>
            <DistanceMeters>23364.607123878</DistanceMeters>
          </Trackpoint>
          <Trackpoint>
            <Time>2020-03-07T13:47:33.000Z</Time>
            <Position>
              <LatitudeDegrees>40.69193042814731597900390625</LatitudeDegrees>
              <LongitudeDegrees>-3.769342862069606781005859375</LongitudeDegrees>
            </Position>
            <AltitudeMeters>967.5999755859375</AltitudeMeters>
            <DistanceMeters>23370.413870424</DistanceMeters>
          </Trackpoint>
          <Trackpoint>
            <Time>2020-03-07T13:47:34.000Z</Time>
            <Position>
              <LatitudeDegrees>40.6919798813760280609130859375</LatitudeDegrees>
              <LongitudeDegrees>-3.76932484097778797149658203125</LongitudeDegrees>
            </Position>
            <AltitudeMeters>967.79998779296875</AltitudeMeters>
            <DistanceMeters>23376.123386687</DistanceMeters>
          </Trackpoint>
          <Trackpoint>
            <Time>2020-03-07T13:47:35.000Z</Time>
            <Position>
              <LatitudeDegrees>40.69202975369989871978759765625</LatitudeDegrees>
              <LongitudeDegrees>-3.76930723898112773895263671875</LongitudeDegrees>
            </Position>
            <AltitudeMeters>968</AltitudeMeters>
            <DistanceMeters>23381.868378367</DistanceMeters>
          </Trackpoint>
          <Trackpoint>
            <Time>2020-03-07T13:47:36.000Z</Time>
            <Position>
              <LatitudeDegrees>40.69207937456667423248291015625</LatitudeDegrees>
              <LongitudeDegrees>-3.769290558993816375732421875</LongitudeDegrees>
            </Position>
            <AltitudeMeters>968.20001220703125</AltitudeMeters>
            <DistanceMeters>23387.568397231</DistanceMeters>
          </Trackpoint>
          <Trackpoint>
            <Time>2020-03-07T13:47:37.000Z</Time>
            <Position>
              <LatitudeDegrees>40.692128576338291168212890625</LatitudeDegrees>
              <LongitudeDegrees>-3.7692746333777904510498046875</LongitudeDegrees>
            </Position>
            <AltitudeMeters>968.4000244140625</AltitudeMeters>
            <DistanceMeters>23393.207093814</DistanceMeters>
          </Trackpoint>
          <Trackpoint>
            <Time>2020-03-07T13:47:38.000Z</Time>
            <Position>
              <LatitudeDegrees>40.6921773590147495269775390625</LatitudeDegrees>
              <LongitudeDegrees>-3.769257031381130218505859375</LongitudeDegrees>
            </Position>
            <AltitudeMeters>968.5999755859375</AltitudeMeters>
            <DistanceMeters>23398.836975546</DistanceMeters>
          </Trackpoint>
          <Trackpoint>
            <Time>2020-03-07T13:47:39.000Z</Time>
            <Position>
              <LatitudeDegrees>40.692225135862827301025390625</LatitudeDegrees>
              <LongitudeDegrees>-3.76923901028931140899658203125</LongitudeDegrees>
            </Position>
            <AltitudeMeters>969</AltitudeMeters>
            <DistanceMeters>23404.367334388</DistanceMeters>
          </Trackpoint>
          <Trackpoint>
            <Time>2020-03-07T13:47:40.000Z</Time>
            <Position>
              <LatitudeDegrees>40.69227299652993679046630859375</LatitudeDegrees>
              <LongitudeDegrees>-3.769221492111682891845703125</LongitudeDegrees>
            </Position>
            <AltitudeMeters>969.20001220703125</AltitudeMeters>
            <DistanceMeters>23409.895243458</DistanceMeters>
          </Trackpoint>
          <Trackpoint>
            <Time>2020-03-07T13:47:41.000Z</Time>
            <Position>
              <LatitudeDegrees>40.69231959991157054901123046875</LatitudeDegrees>
              <LongitudeDegrees>-3.7692035548388957977294921875</LongitudeDegrees>
            </Position>
            <AltitudeMeters>969.5999755859375</AltitudeMeters>
            <DistanceMeters>23415.299248197</DistanceMeters>
          </Trackpoint>
          <Trackpoint>
            <Time>2020-03-07T13:47:42.000Z</Time>
            <Position>
              <LatitudeDegrees>40.69236603565514087677001953125</LatitudeDegrees>
              <LongitudeDegrees>-3.76918436028063297271728515625</LongitudeDegrees>
            </Position>
            <AltitudeMeters>969.79998779296875</AltitudeMeters>
            <DistanceMeters>23420.714937284</DistanceMeters>
          </Trackpoint>
          <Trackpoint>
            <Time>2020-03-07T13:47:43.000Z</Time>
            <Position>
              <LatitudeDegrees>40.69241163320839405059814453125</LatitudeDegrees>
              <LongitudeDegrees>-3.7691649980843067169189453125</LongitudeDegrees>
            </Position>
            <AltitudeMeters>970.20001220703125</AltitudeMeters>
            <DistanceMeters>23426.046605001</DistanceMeters>
          </Trackpoint>
          <Trackpoint>
            <Time>2020-03-07T13:47:44.000Z</Time>
            <Position>
              <LatitudeDegrees>40.692457146942615509033203125</LatitudeDegrees>
              <LongitudeDegrees>-3.769147060811519622802734375</LongitudeDegrees>
            </Position>
            <AltitudeMeters>970.4000244140625</AltitudeMeters>
            <DistanceMeters>23431.334053977</DistanceMeters>
          </Trackpoint>
          <Trackpoint>
            <Time>2020-03-07T13:47:45.000Z</Time>
            <Position>
              <LatitudeDegrees>40.69250249303877353668212890625</LatitudeDegrees>
              <LongitudeDegrees>-3.76912937499582767486572265625</LongitudeDegrees>
            </Position>
            <AltitudeMeters>970.5999755859375</AltitudeMeters>
            <DistanceMeters>23436.597538994</DistanceMeters>
          </Trackpoint>
          <Trackpoint>
            <Time>2020-03-07T13:47:46.000Z</Time>
            <Position>
              <LatitudeDegrees>40.692547671496868133544921875</LatitudeDegrees>
              <LongitudeDegrees>-3.76911185681819915771484375</LongitudeDegrees>
            </Position>
            <AltitudeMeters>970.79998779296875</AltitudeMeters>
            <DistanceMeters>23441.838673656</DistanceMeters>
          </Trackpoint>
          <Trackpoint>
            <Time>2020-03-07T13:47:47.000Z</Time>
            <Position>
              <LatitudeDegrees>40.69259217940270900726318359375</LatitudeDegrees>
              <LongitudeDegrees>-3.7690939195454120635986328125</LongitudeDegrees>
            </Position>
            <AltitudeMeters>971</AltitudeMeters>
            <DistanceMeters>23447.019155023</DistanceMeters>
          </Trackpoint>
          <Trackpoint>
            <Time>2020-03-07T13:47:48.000Z</Time>
            <Position>
              <LatitudeDegrees>40.69263710640370845794677734375</LatitudeDegrees>
              <LongitudeDegrees>-3.7690764851868152618408203125</LongitudeDegrees>
            </Position>
            <AltitudeMeters>971.20001220703125</AltitudeMeters>
            <DistanceMeters>23452.23178392</DistanceMeters>
          </Trackpoint>
          <Trackpoint>
            <Time>2020-03-07T13:47:49.000Z</Time>
            <Position>
              <LatitudeDegrees>40.69268186576664447784423828125</LatitudeDegrees>
              <LongitudeDegrees>-3.7690580449998378753662109375</LongitudeDegrees>
            </Position>
            <AltitudeMeters>971.5999755859375</AltitudeMeters>
            <DistanceMeters>23457.450472506</DistanceMeters>
          </Trackpoint>
          <Trackpoint>
            <Time>2020-03-07T13:47:50.000Z</Time>
            <Position>
              <LatitudeDegrees>40.69272645749151706695556640625</LatitudeDegrees>
              <LongitudeDegrees>-3.7690382637083530426025390625</LongitudeDegrees>
            </Position>
            <AltitudeMeters>972</AltitudeMeters>
            <DistanceMeters>23462.688160186</DistanceMeters>
          </Trackpoint>
          <Trackpoint>
            <Time>2020-03-07T13:47:51.000Z</Time>
            <Position>
              <LatitudeDegrees>40.69277138449251651763916015625</LatitudeDegrees>
              <LongitudeDegrees>-3.769018985331058502197265625</LongitudeDegrees>
            </Position>
            <AltitudeMeters>972.20001220703125</AltitudeMeters>
            <DistanceMeters>23467.946495861</DistanceMeters>
          </Trackpoint>
          <Trackpoint>
            <Time>2020-03-07T13:47:52.000Z</Time>
            <Position>
              <LatitudeDegrees>40.69281631149351596832275390625</LatitudeDegrees>
              <LongitudeDegrees>-3.76900046132504940032958984375</LongitudeDegrees>
            </Position>
            <AltitudeMeters>972.4000244140625</AltitudeMeters>
            <DistanceMeters>23473.185907316</DistanceMeters>
          </Trackpoint>
          <Trackpoint>
            <Time>2020-03-07T13:47:53.000Z</Time>
            <Position>
              <LatitudeDegrees>40.69286107085645198822021484375</LatitudeDegrees>
              <LongitudeDegrees>-3.76898068003356456756591796875</LongitudeDegrees>
            </Position>
            <AltitudeMeters>972.5999755859375</AltitudeMeters>
            <DistanceMeters>23478.440807292</DistanceMeters>
          </Trackpoint>
          <Trackpoint>
            <Time>2020-03-07T13:47:54.000Z</Time>
            <Position>
              <LatitudeDegrees>40.69290616549551486968994140625</LatitudeDegrees>
              <LongitudeDegrees>-3.76896123401820659637451171875</LongitudeDegrees>
            </Position>
            <AltitudeMeters>972.79998779296875</AltitudeMeters>
            <DistanceMeters>23483.72142052</DistanceMeters>
          </Trackpoint>
          <Trackpoint>
            <Time>2020-03-07T13:47:55.000Z</Time>
            <Position>
              <LatitudeDegrees>40.69295092485845088958740234375</LatitudeDegrees>
              <LongitudeDegrees>-3.7689430452883243560791015625</LongitudeDegrees>
            </Position>
            <AltitudeMeters>973</AltitudeMeters>
            <DistanceMeters>23488.934915518</DistanceMeters>
          </Trackpoint>
          <Trackpoint>
            <Time>2020-03-07T13:47:56.000Z</Time>
            <Position>
              <LatitudeDegrees>40.6929950974881649017333984375</LatitudeDegrees>
              <LongitudeDegrees>-3.7689249403774738311767578125</LongitudeDegrees>
            </Position>
            <AltitudeMeters>973.20001220703125</AltitudeMeters>
            <DistanceMeters>23494.083925563</DistanceMeters>
          </Trackpoint>
          <Trackpoint>
            <Time>2020-03-07T13:47:57.000Z</Time>
            <Position>
              <LatitudeDegrees>40.6930396892130374908447265625</LatitudeDegrees>
              <LongitudeDegrees>-3.768907003104686737060546875</LongitudeDegrees>
            </Position>
            <AltitudeMeters>973.5999755859375</AltitudeMeters>
            <DistanceMeters>23499.273115091</DistanceMeters>
          </Trackpoint>
          <Trackpoint>
            <Time>2020-03-07T13:47:58.000Z</Time>
            <Position>
              <LatitudeDegrees>40.6930839456617832183837890625</LatitudeDegrees>
              <LongitudeDegrees>-3.76888931728899478912353515625</LongitudeDegrees>
            </Position>
            <AltitudeMeters>973.79998779296875</AltitudeMeters>
            <DistanceMeters>23504.41861644</DistanceMeters>
          </Trackpoint>
          <Trackpoint>
            <Time>2020-03-07T13:47:59.000Z</Time>
            <Position>
              <LatitudeDegrees>40.693127028644084930419921875</LatitudeDegrees>
              <LongitudeDegrees>-3.76887179911136627197265625</LongitudeDegrees>
            </Position>
            <AltitudeMeters>974</AltitudeMeters>
            <DistanceMeters>23509.436170936</DistanceMeters>
          </Trackpoint>
          <Trackpoint>
            <Time>2020-03-07T13:48:00.000Z</Time>
            <Position>
              <LatitudeDegrees>40.6931701116263866424560546875</LatitudeDegrees>
              <LongitudeDegrees>-3.768856041133403778076171875</LongitudeDegrees>
            </Position>
            <AltitudeMeters>974.20001220703125</AltitudeMeters>
            <DistanceMeters>23514.413067528</DistanceMeters>
          </Trackpoint>
          <Trackpoint>
            <Time>2020-03-07T13:48:01.000Z</Time>
            <Position>
              <LatitudeDegrees>40.693212859332561492919921875</LatitudeDegrees>
              <LongitudeDegrees>-3.7688427977263927459716796875</LongitudeDegrees>
            </Position>
            <AltitudeMeters>974.4000244140625</AltitudeMeters>
            <DistanceMeters>23519.301173733</DistanceMeters>
          </Trackpoint>
          <Trackpoint>
            <Time>2020-03-07T13:48:02.000Z</Time>
            <Position>
              <LatitudeDegrees>40.69325552321970462799072265625</LatitudeDegrees>
              <LongitudeDegrees>-3.7688303925096988677978515625</LongitudeDegrees>
            </Position>
            <AltitudeMeters>974.5999755859375</AltitudeMeters>
            <DistanceMeters>23524.163348157</DistanceMeters>
          </Trackpoint>
          <Trackpoint>
            <Time>2020-03-07T13:48:03.000Z</Time>
            <Position>
              <LatitudeDegrees>40.6932988576591014862060546875</LatitudeDegrees>
              <LongitudeDegrees>-3.76881723292171955108642578125</LongitudeDegrees>
            </Position>
            <AltitudeMeters>974.79998779296875</AltitudeMeters>
            <DistanceMeters>23529.112953939</DistanceMeters>
          </Trackpoint>
          <Trackpoint>
            <Time>2020-03-07T13:48:04.000Z</Time>
            <Position>
              <LatitudeDegrees>40.69334252737462520599365234375</LatitudeDegrees>
              <LongitudeDegrees>-3.7688039056956768035888671875</LongitudeDegrees>
            </Position>
            <AltitudeMeters>975</AltitudeMeters>
            <DistanceMeters>23534.102535159</DistanceMeters>
          </Trackpoint>
          <Trackpoint>
            <Time>2020-03-07T13:48:05.000Z</Time>
            <Position>
              <LatitudeDegrees>40.69338686764240264892578125</LatitudeDegrees>
              <LongitudeDegrees>-3.76879124902188777923583984375</LongitudeDegrees>
            </Position>
            <AltitudeMeters>975.20001220703125</AltitudeMeters>
            <DistanceMeters>23539.15148612</DistanceMeters>
          </Trackpoint>
          <Trackpoint>
            <Time>2020-03-07T13:48:06.000Z</Time>
            <Position>
              <LatitudeDegrees>40.69342978298664093017578125</LatitudeDegrees>
              <LongitudeDegrees>-3.76877926290035247802734375</LongitudeDegrees>
            </Position>
            <AltitudeMeters>975.4000244140625</AltitudeMeters>
            <DistanceMeters>23544.034047109</DistanceMeters>
          </Trackpoint>
          <Trackpoint>
            <Time>2020-03-07T13:48:07.000Z</Time>
            <Position>
              <LatitudeDegrees>40.6934733688831329345703125</LatitudeDegrees>
              <LongitudeDegrees>-3.76876895315945148468017578125</LongitudeDegrees>
            </Position>
            <AltitudeMeters>975.79998779296875</AltitudeMeters>
            <DistanceMeters>23548.963543605</DistanceMeters>
          </Trackpoint>
          <Trackpoint>
            <Time>2020-03-07T13:48:08.000Z</Time>
            <Position>
              <LatitudeDegrees>40.69351586513221263885498046875</LatitudeDegrees>
              <LongitudeDegrees>-3.768759481608867645263671875</LongitudeDegrees>
            </Position>
            <AltitudeMeters>976</AltitudeMeters>
            <DistanceMeters>23553.760275282</DistanceMeters>
          </Trackpoint>
          <Trackpoint>
            <Time>2020-03-07T13:48:09.000Z</Time>
            <Position>
              <LatitudeDegrees>40.69355852901935577392578125</LatitudeDegrees>
              <LongitudeDegrees>-3.768753446638584136962890625</LongitudeDegrees>
            </Position>
            <AltitudeMeters>976.20001220703125</AltitudeMeters>
            <DistanceMeters>23558.53625404</DistanceMeters>
          </Trackpoint>
          <Trackpoint>
            <Time>2020-03-07T13:48:10.000Z</Time>
            <Position>
              <LatitudeDegrees>40.693600438535213470458984375</LatitudeDegrees>
              <LongitudeDegrees>-3.76875168643891811370849609375</LongitudeDegrees>
            </Position>
            <AltitudeMeters>976.5999755859375</AltitudeMeters>
            <DistanceMeters>23563.203217119</DistanceMeters>
          </Trackpoint>
          <Trackpoint>
            <Time>2020-03-07T13:48:11.000Z</Time>
            <Position>
              <LatitudeDegrees>40.6936405040323734283447265625</LatitudeDegrees>
              <LongitudeDegrees>-3.7687509320676326751708984375</LongitudeDegrees>
            </Position>
            <AltitudeMeters>976.79998779296875</AltitudeMeters>
            <DistanceMeters>23567.664415219</DistanceMeters>
          </Trackpoint>
          <Trackpoint>
            <Time>2020-03-07T13:48:12.000Z</Time>
            <Position>
              <LatitudeDegrees>40.693682245910167694091796875</LatitudeDegrees>
              <LongitudeDegrees>-3.768752776086330413818359375</LongitudeDegrees>
            </Position>
            <AltitudeMeters>977</AltitudeMeters>
            <DistanceMeters>23572.312960468</DistanceMeters>
          </Trackpoint>
          <Trackpoint>
            <Time>2020-03-07T13:48:13.000Z</Time>
            <Position>
              <LatitudeDegrees>40.69372373633086681365966796875</LatitudeDegrees>
              <LongitudeDegrees>-3.7687566317617893218994140625</LongitudeDegrees>
            </Position>
            <AltitudeMeters>977.20001220703125</AltitudeMeters>
            <DistanceMeters>23576.941063894</DistanceMeters>
          </Trackpoint>
          <Trackpoint>
            <Time>2020-03-07T13:48:14.000Z</Time>
            <Position>
              <LatitudeDegrees>40.69376480765640735626220703125</LatitudeDegrees>
              <LongitudeDegrees>-3.7687624990940093994140625</LongitudeDegrees>
            </Position>
            <AltitudeMeters>977.5999755859375</AltitudeMeters>
            <DistanceMeters>23581.538825192</DistanceMeters>
          </Trackpoint>
          <Trackpoint>
            <Time>2020-03-07T13:48:15.000Z</Time>
            <Position>
              <LatitudeDegrees>40.69380621425807476043701171875</LatitudeDegrees>
              <LongitudeDegrees>-3.7687707133591175079345703125</LongitudeDegrees>
            </Position>
            <AltitudeMeters>978</AltitudeMeters>
            <DistanceMeters>23586.198042269</DistanceMeters>
          </Trackpoint>
          <Trackpoint>
            <Time>2020-03-07T13:48:16.000Z</Time>
            <Position>
              <LatitudeDegrees>40.69384728558361530303955078125</LatitudeDegrees>
              <LongitudeDegrees>-3.76878085546195507049560546875</LongitudeDegrees>
            </Position>
            <AltitudeMeters>978.4000244140625</AltitudeMeters>
            <DistanceMeters>23590.848529672</DistanceMeters>
          </Trackpoint>
          <Trackpoint>
            <Time>2020-03-07T13:48:17.000Z</Time>
            <Position>
              <LatitudeDegrees>40.69388802163302898406982421875</LatitudeDegrees>
              <LongitudeDegrees>-3.768792338669300079345703125</LongitudeDegrees>
            </Position>
            <AltitudeMeters>978.5999755859375</AltitudeMeters>
            <DistanceMeters>23595.486378536</DistanceMeters>
          </Trackpoint>
          <Trackpoint>
            <Time>2020-03-07T13:48:18.000Z</Time>
            <Position>
              <LatitudeDegrees>40.6939291767776012420654296875</LatitudeDegrees>
              <LongitudeDegrees>-3.76880549825727939605712890625</LongitudeDegrees>
            </Position>
            <AltitudeMeters>978.79998779296875</AltitudeMeters>
            <DistanceMeters>23600.199550298</DistanceMeters>
          </Trackpoint>
          <Trackpoint>
            <Time>2020-03-07T13:48:19.000Z</Time>
            <Position>
              <LatitudeDegrees>40.69396966136991977691650390625</LatitudeDegrees>
              <LongitudeDegrees>-3.76882125623524188995361328125</LongitudeDegrees>
            </Position>
            <AltitudeMeters>979.20001220703125</AltitudeMeters>
            <DistanceMeters>23604.897369667</DistanceMeters>
          </Trackpoint>
          <Trackpoint>
            <Time>2020-03-07T13:48:20.000Z</Time>
            <Position>
              <LatitudeDegrees>40.6940099783241748809814453125</LatitudeDegrees>
              <LongitudeDegrees>-3.76883869059383869171142578125</LongitudeDegrees>
            </Position>
            <AltitudeMeters>979.4000244140625</AltitudeMeters>
            <DistanceMeters>23609.620111331</DistanceMeters>
          </Trackpoint>
          <Trackpoint>
            <Time>2020-03-07T13:48:21.000Z</Time>
            <Position>
              <LatitudeDegrees>40.694049708545207977294921875</LatitudeDegrees>
              <LongitudeDegrees>-3.7688568793237209320068359375</LongitudeDegrees>
            </Position>
            <AltitudeMeters>979.5999755859375</AltitudeMeters>
            <DistanceMeters>23614.300599067</DistanceMeters>
          </Trackpoint>
          <Trackpoint>
            <Time>2020-03-07T13:48:22.000Z</Time>
            <Position>
              <LatitudeDegrees>40.6940902769565582275390625</LatitudeDegrees>
              <LongitudeDegrees>-3.76887582242488861083984375</LongitudeDegrees>
            </Position>
            <AltitudeMeters>979.79998779296875</AltitudeMeters>
            <DistanceMeters>23619.089794633</DistanceMeters>
          </Trackpoint>
          <Trackpoint>
            <Time>2020-03-07T13:48:23.000Z</Time>
            <Position>
              <LatitudeDegrees>40.6941310130059719085693359375</LatitudeDegrees>
              <LongitudeDegrees>-3.76889484934508800506591796875</LongitudeDegrees>
            </Position>
            <AltitudeMeters>980</AltitudeMeters>
            <DistanceMeters>23623.899686092</DistanceMeters>
          </Trackpoint>
          <Trackpoint>
            <Time>2020-03-07T13:48:24.000Z</Time>
            <Position>
              <LatitudeDegrees>40.69417032413184642791748046875</LatitudeDegrees>
              <LongitudeDegrees>-3.768914043903350830078125</LongitudeDegrees>
            </Position>
            <AltitudeMeters>980.20001220703125</AltitudeMeters>
            <DistanceMeters>23628.564713877</DistanceMeters>
          </Trackpoint>
          <Trackpoint>
            <Time>2020-03-07T13:48:25.000Z</Time>
            <Position>
              <LatitudeDegrees>40.69420896470546722412109375</LatitudeDegrees>
              <LongitudeDegrees>-3.7689339928328990936279296875</LongitudeDegrees>
            </Position>
            <AltitudeMeters>980.4000244140625</AltitudeMeters>
            <DistanceMeters>23633.183051301</DistanceMeters>
          </Trackpoint>
          <Trackpoint>
            <Time>2020-03-07T13:48:26.000Z</Time>
            <Position>
              <LatitudeDegrees>40.69424810819327831268310546875</LatitudeDegrees>
              <LongitudeDegrees>-3.76895452849566936492919921875</LongitudeDegrees>
            </Position>
            <AltitudeMeters>981</AltitudeMeters>
            <DistanceMeters>23637.873175629</DistanceMeters>
          </Trackpoint>
          <Trackpoint>
            <Time>2020-03-07T13:48:27.000Z</Time>
            <Position>
              <LatitudeDegrees>40.6942875869572162628173828125</LatitudeDegrees>
              <LongitudeDegrees>-3.76897414214909076690673828125</LongitudeDegrees>
            </Position>
            <AltitudeMeters>981.4000244140625</AltitudeMeters>
            <DistanceMeters>23642.570033808</DistanceMeters>
          </Trackpoint>
          <Trackpoint>
            <Time>2020-03-07T13:48:28.000Z</Time>
            <Position>
              <LatitudeDegrees>40.694326646625995635986328125</LatitudeDegrees>
              <LongitudeDegrees>-3.768992833793163299560546875</LongitudeDegrees>
            </Position>
            <AltitudeMeters>981.4000244140625</AltitudeMeters>
            <DistanceMeters>23647.194233308</DistanceMeters>
          </Trackpoint>
          <Trackpoint>
            <Time>2020-03-07T13:48:29.000Z</Time>
            <Position>
              <LatitudeDegrees>40.69436629302799701690673828125</LatitudeDegrees>
              <LongitudeDegrees>-3.7690090946853160858154296875</LongitudeDegrees>
            </Position>
            <AltitudeMeters>981.5999755859375</AltitudeMeters>
            <DistanceMeters>23651.816479609</DistanceMeters>
          </Trackpoint>
          <Trackpoint>
            <Time>2020-03-07T13:48:30.000Z</Time>
            <Position>
              <LatitudeDegrees>40.69440635852515697479248046875</LatitudeDegrees>
              <LongitudeDegrees>-3.76902309246361255645751953125</LongitudeDegrees>
            </Position>
            <AltitudeMeters>981.79998779296875</AltitudeMeters>
            <DistanceMeters>23656.430904845</DistanceMeters>
          </Trackpoint>
          <Trackpoint>
            <Time>2020-03-07T13:48:31.000Z</Time>
            <Position>
              <LatitudeDegrees>40.69444642402231693267822265625</LatitudeDegrees>
              <LongitudeDegrees>-3.76903767697513103485107421875</LongitudeDegrees>
            </Position>
            <AltitudeMeters>982</AltitudeMeters>
            <DistanceMeters>23661.05705672</DistanceMeters>
          </Trackpoint>
          <Trackpoint>
            <Time>2020-03-07T13:48:32.000Z</Time>
            <Position>
              <LatitudeDegrees>40.694485567510128021240234375</LatitudeDegrees>
              <LongitudeDegrees>-3.769051842391490936279296875</LongitudeDegrees>
            </Position>
            <AltitudeMeters>982.20001220703125</AltitudeMeters>
            <DistanceMeters>23665.57457515</DistanceMeters>
          </Trackpoint>
          <Trackpoint>
            <Time>2020-03-07T13:48:33.000Z</Time>
            <Position>
              <LatitudeDegrees>40.69452554918825626373291015625</LatitudeDegrees>
              <LongitudeDegrees>-3.76906198449432849884033203125</LongitudeDegrees>
            </Position>
            <AltitudeMeters>982.5999755859375</AltitudeMeters>
            <DistanceMeters>23670.106064291</DistanceMeters>
          </Trackpoint>
          <Trackpoint>
            <Time>2020-03-07T13:48:34.000Z</Time>
            <Position>
              <LatitudeDegrees>40.694566033780574798583984375</LatitudeDegrees>
              <LongitudeDegrees>-3.769068606197834014892578125</LongitudeDegrees>
            </Position>
            <AltitudeMeters>982.79998779296875</AltitudeMeters>
            <DistanceMeters>23674.64551739</DistanceMeters>
          </Trackpoint>
          <Trackpoint>
            <Time>2020-03-07T13:48:35.000Z</Time>
            <Position>
              <LatitudeDegrees>40.6946067698299884796142578125</LatitudeDegrees>
              <LongitudeDegrees>-3.76907288096845149993896484375</LongitudeDegrees>
            </Position>
            <AltitudeMeters>983.20001220703125</AltitudeMeters>
            <DistanceMeters>23679.192920502</DistanceMeters>
          </Trackpoint>
          <Trackpoint>
            <Time>2020-03-07T13:48:36.000Z</Time>
            <Position>
              <LatitudeDegrees>40.6946483440697193145751953125</LatitudeDegrees>
              <LongitudeDegrees>-3.769075311720371246337890625</LongitudeDegrees>
            </Position>
            <AltitudeMeters>983.4000244140625</AltitudeMeters>
            <DistanceMeters>23683.824924564</DistanceMeters>
          </Trackpoint>
          <Trackpoint>
            <Time>2020-03-07T13:48:37.000Z</Time>
            <Position>
              <LatitudeDegrees>40.69469050504267215728759765625</LatitudeDegrees>
              <LongitudeDegrees>-3.76907539553940296173095703125</LongitudeDegrees>
            </Position>
            <AltitudeMeters>983.5999755859375</AltitudeMeters>
            <DistanceMeters>23688.516973836</DistanceMeters>
          </Trackpoint>
          <Trackpoint>
            <Time>2020-03-07T13:48:38.000Z</Time>
            <Position>
              <LatitudeDegrees>40.69473207928240299224853515625</LatitudeDegrees>
              <LongitudeDegrees>-3.76907162368297576904296875</LongitudeDegrees>
            </Position>
            <AltitudeMeters>983.79998779296875</AltitudeMeters>
            <DistanceMeters>23693.1548227</DistanceMeters>
          </Trackpoint>
          <Trackpoint>
            <Time>2020-03-07T13:48:39.000Z</Time>
            <Position>
              <LatitudeDegrees>40.69477298296988010406494140625</LatitudeDegrees>
              <LongitudeDegrees>-3.76906651072204113006591796875</LongitudeDegrees>
            </Position>
            <AltitudeMeters>984.20001220703125</AltitudeMeters>
            <DistanceMeters>23697.726980502</DistanceMeters>
          </Trackpoint>
          <Trackpoint>
            <Time>2020-03-07T13:48:40.000Z</Time>
            <Position>
              <LatitudeDegrees>40.69481313228607177734375</LatitudeDegrees>
              <LongitudeDegrees>-3.7690590508282184600830078125</LongitudeDegrees>
            </Position>
            <AltitudeMeters>984.4000244140625</AltitudeMeters>
            <DistanceMeters>23702.240499358</DistanceMeters>
          </Trackpoint>
          <Trackpoint>
            <Time>2020-03-07T13:48:41.000Z</Time>
            <Position>
              <LatitudeDegrees>40.69485261105000972747802734375</LatitudeDegrees>
              <LongitudeDegrees>-3.76904874108731746673583984375</LongitudeDegrees>
            </Position>
            <AltitudeMeters>984.4000244140625</AltitudeMeters>
            <DistanceMeters>23706.719877647</DistanceMeters>
          </Trackpoint>
          <Trackpoint>
            <Time>2020-03-07T13:48:42.000Z</Time>
            <Position>
              <LatitudeDegrees>40.69489158689975738525390625</LatitudeDegrees>
              <LongitudeDegrees>-3.76903600059449672698974609375</LongitudeDegrees>
            </Position>
            <AltitudeMeters>984.5999755859375</AltitudeMeters>
            <DistanceMeters>23711.189164961</DistanceMeters>
          </Trackpoint>
          <Trackpoint>
            <Time>2020-03-07T13:48:43.000Z</Time>
            <Position>
              <LatitudeDegrees>40.69493073038756847381591796875</LatitudeDegrees>
              <LongitudeDegrees>-3.769021667540073394775390625</LongitudeDegrees>
            </Position>
            <AltitudeMeters>984.79998779296875</AltitudeMeters>
            <DistanceMeters>23715.710679427</DistanceMeters>
          </Trackpoint>
          <Trackpoint>
            <Time>2020-03-07T13:48:44.000Z</Time>
            <Position>
              <LatitudeDegrees>40.6949705444276332855224609375</LatitudeDegrees>
              <LongitudeDegrees>-3.76900532282888889312744140625</LongitudeDegrees>
            </Position>
            <AltitudeMeters>985.4000244140625</AltitudeMeters>
            <DistanceMeters>23720.350474923</DistanceMeters>
          </Trackpoint>
          <Trackpoint>
            <Time>2020-03-07T13:48:45.000Z</Time>
            <Position>
              <LatitudeDegrees>40.69500985555350780487060546875</LatitudeDegrees>
              <LongitudeDegrees>-3.7689856253564357757568359375</LongitudeDegrees>
            </Position>
            <AltitudeMeters>985.79998779296875</AltitudeMeters>
            <DistanceMeters>23725.03096266</DistanceMeters>
          </Trackpoint>
          <Trackpoint>
            <Time>2020-03-07T13:48:46.000Z</Time>
            <Position>
              <LatitudeDegrees>40.69504941813647747039794921875</LatitudeDegrees>
              <LongitudeDegrees>-3.768962658941745758056640625</LongitudeDegrees>
            </Position>
            <AltitudeMeters>986</AltitudeMeters>
            <DistanceMeters>23729.840854119</DistanceMeters>
          </Trackpoint>
          <Trackpoint>
            <Time>2020-03-07T13:48:47.000Z</Time>
            <Position>
              <LatitudeDegrees>40.695090405642986297607421875</LatitudeDegrees>
              <LongitudeDegrees>-3.76893709413707256317138671875</LongitudeDegrees>
            </Position>
            <AltitudeMeters>986.20001220703125</AltitudeMeters>
            <DistanceMeters>23734.887121608</DistanceMeters>
          </Trackpoint>
          <Trackpoint>
            <Time>2020-03-07T13:48:48.000Z</Time>
            <Position>
              <LatitudeDegrees>40.6951324827969074249267578125</LatitudeDegrees>
              <LongitudeDegrees>-3.76891043968498706817626953125</LongitudeDegrees>
            </Position>
            <AltitudeMeters>986.20001220703125</AltitudeMeters>
            <DistanceMeters>23740.083267157</DistanceMeters>
          </Trackpoint>
          <Trackpoint>
            <Time>2020-03-07T13:48:49.000Z</Time>
            <Position>
              <LatitudeDegrees>40.695174895226955413818359375</LatitudeDegrees>
              <LongitudeDegrees>-3.768882192671298980712890625</LongitudeDegrees>
            </Position>
            <AltitudeMeters>986.4000244140625</AltitudeMeters>
            <DistanceMeters>23745.372423689</DistanceMeters>
          </Trackpoint>
          <Trackpoint>
            <Time>2020-03-07T13:48:50.000Z</Time>
            <Position>
              <LatitudeDegrees>40.69521722383797168731689453125</LatitudeDegrees>
              <LongitudeDegrees>-3.768851347267627716064453125</LongitudeDegrees>
            </Position>
            <AltitudeMeters>986.5999755859375</AltitudeMeters>
            <DistanceMeters>23750.755500441</DistanceMeters>
          </Trackpoint>
          <Trackpoint>
            <Time>2020-03-07T13:48:51.000Z</Time>
            <Position>
              <LatitudeDegrees>40.695259384810924530029296875</LatitudeDegrees>
              <LongitudeDegrees>-3.768818490207195281982421875</LongitudeDegrees>
            </Position>
            <AltitudeMeters>986.79998779296875</AltitudeMeters>
            <DistanceMeters>23756.206092289</DistanceMeters>
          </Trackpoint>
          <Trackpoint>
            <Time>2020-03-07T13:48:52.000Z</Time>
            <Position>
              <LatitudeDegrees>40.69530255161225795745849609375</LatitudeDegrees>
              <LongitudeDegrees>-3.76878554932773113250732421875</LongitudeDegrees>
            </Position>
            <AltitudeMeters>987</AltitudeMeters>
            <DistanceMeters>23761.756823847</DistanceMeters>
          </Trackpoint>
          <Trackpoint>
            <Time>2020-03-07T13:48:53.000Z</Time>
            <Position>
              <LatitudeDegrees>40.69534479640424251556396484375</LatitudeDegrees>
              <LongitudeDegrees>-3.768752776086330413818359375</LongitudeDegrees>
            </Position>
            <AltitudeMeters>987.20001220703125</AltitudeMeters>
            <DistanceMeters>23767.21155591</DistanceMeters>
          </Trackpoint>
          <Trackpoint>
            <Time>2020-03-07T13:48:54.000Z</Time>
            <Position>
              <LatitudeDegrees>40.69538771174848079681396484375</LatitudeDegrees>
              <LongitudeDegrees>-3.768721260130405426025390625</LongitudeDegrees>
            </Position>
            <AltitudeMeters>987.5999755859375</AltitudeMeters>
            <DistanceMeters>23772.678689806</DistanceMeters>
          </Trackpoint>
          <Trackpoint>
            <Time>2020-03-07T13:48:55.000Z</Time>
            <Position>
              <LatitudeDegrees>40.6954300403594970703125</LatitudeDegrees>
              <LongitudeDegrees>-3.7686909176409244537353515625</LongitudeDegrees>
            </Position>
            <AltitudeMeters>987.5999755859375</AltitudeMeters>
            <DistanceMeters>23778.039072557</DistanceMeters>
          </Trackpoint>
          <Trackpoint>
            <Time>2020-03-07T13:48:56.000Z</Time>
            <Position>
              <LatitudeDegrees>40.6954731233417987823486328125</LatitudeDegrees>
              <LongitudeDegrees>-3.76866015605628490447998046875</LongitudeDegrees>
            </Position>
            <AltitudeMeters>987.79998779296875</AltitudeMeters>
            <DistanceMeters>23783.491320869</DistanceMeters>
          </Trackpoint>
          <Trackpoint>
            <Time>2020-03-07T13:48:57.000Z</Time>
            <Position>
              <LatitudeDegrees>40.695516206324100494384765625</LatitudeDegrees>
              <LongitudeDegrees>-3.7686275504529476165771484375</LongitudeDegrees>
            </Position>
            <AltitudeMeters>988</AltitudeMeters>
            <DistanceMeters>23789.019229939</DistanceMeters>
          </Trackpoint>
          <Trackpoint>
            <Time>2020-03-07T13:48:58.000Z</Time>
            <Position>
              <LatitudeDegrees>40.69555954076349735260009765625</LatitudeDegrees>
              <LongitudeDegrees>-3.7685935199260711669921875</LongitudeDegrees>
            </Position>
            <AltitudeMeters>988.20001220703125</AltitudeMeters>
            <DistanceMeters>23794.632244879</DistanceMeters>
          </Trackpoint>
          <Trackpoint>
            <Time>2020-03-07T13:48:59.000Z</Time>
            <Position>
              <LatitudeDegrees>40.69560430012643337249755859375</LatitudeDegrees>
              <LongitudeDegrees>-3.76855856738984584808349609375</LongitudeDegrees>
            </Position>
            <AltitudeMeters>988.4000244140625</AltitudeMeters>
            <DistanceMeters>23800.421860044</DistanceMeters>
          </Trackpoint>
          <Trackpoint>
            <Time>2020-03-07T13:49:00.000Z</Time>
            <Position>
              <LatitudeDegrees>40.695650316774845123291015625</LatitudeDegrees>
              <LongitudeDegrees>-3.76852319575846195220947265625</LongitudeDegrees>
            </Position>
            <AltitudeMeters>988.5999755859375</AltitudeMeters>
            <DistanceMeters>23806.350186749</DistanceMeters>
          </Trackpoint>
          <Trackpoint>
            <Time>2020-03-07T13:49:01.000Z</Time>
            <Position>
              <LatitudeDegrees>40.6956967525184154510498046875</LatitudeDegrees>
              <LongitudeDegrees>-3.76848765648901462554931640625</LongitudeDegrees>
            </Position>
            <AltitudeMeters>988.79998779296875</AltitudeMeters>
            <DistanceMeters>23812.325546341</DistanceMeters>
          </Trackpoint>
          <Trackpoint>
            <Time>2020-03-07T13:49:02.000Z</Time>
            <Position>
              <LatitudeDegrees>40.69574310444295406341552734375</LatitudeDegrees>
              <LongitudeDegrees>-3.76845337450504302978515625</LongitudeDegrees>
            </Position>
            <AltitudeMeters>989</AltitudeMeters>
            <DistanceMeters>23818.240911606</DistanceMeters>
          </Trackpoint>
          <Trackpoint>
            <Time>2020-03-07T13:49:03.000Z</Time>
            <Position>
              <LatitudeDegrees>40.6957907974720001220703125</LatitudeDegrees>
              <LongitudeDegrees>-3.76842118799686431884765625</LongitudeDegrees>
            </Position>
            <AltitudeMeters>989</AltitudeMeters>
            <DistanceMeters>23824.204169192</DistanceMeters>
          </Trackpoint>
          <Trackpoint>
            <Time>2020-03-07T13:49:04.000Z</Time>
            <Position>
              <LatitudeDegrees>40.6958395801484584808349609375</LatitudeDegrees>
              <LongitudeDegrees>-3.7683915160596370697021484375</LongitudeDegrees>
            </Position>
            <AltitudeMeters>989.20001220703125</AltitudeMeters>
            <DistanceMeters>23830.182550459</DistanceMeters>
          </Trackpoint>
          <Trackpoint>
            <Time>2020-03-07T13:49:05.000Z</Time>
            <Position>
              <LatitudeDegrees>40.69588911719620227813720703125</LatitudeDegrees>
              <LongitudeDegrees>-3.7683623470366001129150390625</LongitudeDegrees>
            </Position>
            <AltitudeMeters>989.4000244140625</AltitudeMeters>
            <DistanceMeters>23836.221047679</DistanceMeters>
          </Trackpoint>
          <Trackpoint>
            <Time>2020-03-07T13:49:06.000Z</Time>
            <Position>
              <LatitudeDegrees>40.695939324796199798583984375</LatitudeDegrees>
              <LongitudeDegrees>-3.7683311663568019866943359375</LongitudeDegrees>
            </Position>
            <AltitudeMeters>989.5999755859375</AltitudeMeters>
            <DistanceMeters>23842.397784113</DistanceMeters>
          </Trackpoint>
          <Trackpoint>
            <Time>2020-03-07T13:49:07.000Z</Time>
            <Position>
              <LatitudeDegrees>40.6959897838532924652099609375</LatitudeDegrees>
              <LongitudeDegrees>-3.7683003209531307220458984375</LongitudeDegrees>
            </Position>
            <AltitudeMeters>989.79998779296875</AltitudeMeters>
            <DistanceMeters>23848.586934642</DistanceMeters>
          </Trackpoint>
          <Trackpoint>
            <Time>2020-03-07T13:49:08.000Z</Time>
            <Position>
              <LatitudeDegrees>40.696040578186511993408203125</LatitudeDegrees>
              <LongitudeDegrees>-3.7682704813778400421142578125</LongitudeDegrees>
            </Position>
            <AltitudeMeters>990.20001220703125</AltitudeMeters>
            <DistanceMeters>23854.776085172</DistanceMeters>
          </Trackpoint>
          <Trackpoint>
            <Time>2020-03-07T13:49:09.000Z</Time>
            <Position>
              <LatitudeDegrees>40.69609179161489009857177734375</LatitudeDegrees>
              <LongitudeDegrees>-3.76824139617383480072021484375</LongitudeDegrees>
            </Position>
            <AltitudeMeters>990.20001220703125</AltitudeMeters>
            <DistanceMeters>23860.981991716</DistanceMeters>
          </Trackpoint>
          <Trackpoint>
            <Time>2020-03-07T13:49:10.000Z</Time>
            <Position>
              <LatitudeDegrees>40.69614292122423648834228515625</LatitudeDegrees>
              <LongitudeDegrees>-3.7682153284549713134765625</LongitudeDegrees>
            </Position>
            <AltitudeMeters>990.5999755859375</AltitudeMeters>
            <DistanceMeters>23867.082973203</DistanceMeters>
          </Trackpoint>
          <Trackpoint>
            <Time>2020-03-07T13:49:11.000Z</Time>
            <Position>
              <LatitudeDegrees>40.69619379937648773193359375</LatitudeDegrees>
              <LongitudeDegrees>-3.768191523849964141845703125</LongitudeDegrees>
            </Position>
            <AltitudeMeters>990.79998779296875</AltitudeMeters>
            <DistanceMeters>23873.09148763</DistanceMeters>
          </Trackpoint>
          <Trackpoint>
            <Time>2020-03-07T13:49:12.000Z</Time>
            <Position>
              <LatitudeDegrees>40.69624467752873897552490234375</LatitudeDegrees>
              <LongitudeDegrees>-3.76816931180655956268310546875</LongitudeDegrees>
            </Position>
            <AltitudeMeters>990.79998779296875</AltitudeMeters>
            <DistanceMeters>23879.05625931</DistanceMeters>
          </Trackpoint>
          <Trackpoint>
            <Time>2020-03-07T13:49:13.000Z</Time>
            <Position>
              <LatitudeDegrees>40.69629698060452938079833984375</LatitudeDegrees>
              <LongitudeDegrees>-3.76814919523894786834716796875</LongitudeDegrees>
            </Position>
            <AltitudeMeters>991</AltitudeMeters>
            <DistanceMeters>23885.120125344</DistanceMeters>
          </Trackpoint>
          <Trackpoint>
            <Time>2020-03-07T13:49:14.000Z</Time>
            <Position>
              <LatitudeDegrees>40.696349702775478363037109375</LatitudeDegrees>
              <LongitudeDegrees>-3.76813150942325592041015625</LongitudeDegrees>
            </Position>
            <AltitudeMeters>991</AltitudeMeters>
            <DistanceMeters>23891.175049816</DistanceMeters>
          </Trackpoint>
          <Trackpoint>
            <Time>2020-03-07T13:49:15.000Z</Time>
            <Position>
              <LatitudeDegrees>40.69640225730836391448974609375</LatitudeDegrees>
              <LongitudeDegrees>-3.768115080893039703369140625</LongitudeDegrees>
            </Position>
            <AltitudeMeters>991.20001220703125</AltitudeMeters>
            <DistanceMeters>23897.186569252</DistanceMeters>
          </Trackpoint>
          <Trackpoint>
            <Time>2020-03-07T13:49:16.000Z</Time>
            <Position>
              <LatitudeDegrees>40.69645539857447147369384765625</LatitudeDegrees>
              <LongitudeDegrees>-3.7680984847247600555419921875</LongitudeDegrees>
            </Position>
            <AltitudeMeters>991.5999755859375</AltitudeMeters>
            <DistanceMeters>23903.263822962</DistanceMeters>
          </Trackpoint>
          <Trackpoint>
            <Time>2020-03-07T13:49:17.000Z</Time>
            <Position>
              <LatitudeDegrees>40.69650837220251560211181640625</LatitudeDegrees>
              <LongitudeDegrees>-3.76808163709938526153564453125</LongitudeDegrees>
            </Position>
            <AltitudeMeters>991.79998779296875</AltitudeMeters>
            <DistanceMeters>23909.328433531</DistanceMeters>
          </Trackpoint>
          <Trackpoint>
            <Time>2020-03-07T13:49:18.000Z</Time>
            <Position>
              <LatitudeDegrees>40.6965617649257183074951171875</LatitudeDegrees>
              <LongitudeDegrees>-3.76806520856916904449462890625</LongitudeDegrees>
            </Position>
            <AltitudeMeters>992</AltitudeMeters>
            <DistanceMeters>23915.430155024</DistanceMeters>
          </Trackpoint>
          <Trackpoint>
            <Time>2020-03-07T13:49:19.000Z</Time>
            <Position>
              <LatitudeDegrees>40.696615241467952728271484375</LatitudeDegrees>
              <LongitudeDegrees>-3.76804710365831851959228515625</LongitudeDegrees>
            </Position>
            <AltitudeMeters>992</AltitudeMeters>
            <DistanceMeters>23921.57537916</DistanceMeters>
          </Trackpoint>
          <Trackpoint>
            <Time>2020-03-07T13:49:20.000Z</Time>
            <Position>
              <LatitudeDegrees>40.6966687180101871490478515625</LatitudeDegrees>
              <LongitudeDegrees>-3.768026567995548248291015625</LongitudeDegrees>
            </Position>
            <AltitudeMeters>992</AltitudeMeters>
            <DistanceMeters>23927.774734397</DistanceMeters>
          </Trackpoint>
          <Trackpoint>
            <Time>2020-03-07T13:49:21.000Z</Time>
            <Position>
              <LatitudeDegrees>40.69672345183789730072021484375</LatitudeDegrees>
              <LongitudeDegrees>-3.76800812780857086181640625</LongitudeDegrees>
            </Position>
            <AltitudeMeters>992.20001220703125</AltitudeMeters>
            <DistanceMeters>23934.062315384</DistanceMeters>
          </Trackpoint>
          <Trackpoint>
            <Time>2020-03-07T13:49:22.000Z</Time>
            <Position>
              <LatitudeDegrees>40.69677894003689289093017578125</LatitudeDegrees>
              <LongitudeDegrees>-3.7679955549538135528564453125</LongitudeDegrees>
            </Position>
            <AltitudeMeters>992.79998779296875</AltitudeMeters>
            <DistanceMeters>23940.328316691</DistanceMeters>
          </Trackpoint>
          <Trackpoint>
            <Time>2020-03-07T13:49:23.000Z</Time>
            <Position>
              <LatitudeDegrees>40.69683526642620563507080078125</LatitudeDegrees>
              <LongitudeDegrees>-3.7679841555655002593994140625</LongitudeDegrees>
            </Position>
            <AltitudeMeters>993</AltitudeMeters>
            <DistanceMeters>23946.670949469</DistanceMeters>
          </Trackpoint>
          <Trackpoint>
            <Time>2020-03-07T13:49:24.000Z</Time>
            <Position>
              <LatitudeDegrees>40.69689192809164524078369140625</LatitudeDegrees>
              <LongitudeDegrees>-3.76797057688236236572265625</LongitudeDegrees>
            </Position>
            <AltitudeMeters>993.20001220703125</AltitudeMeters>
            <DistanceMeters>23953.080851794</DistanceMeters>
          </Trackpoint>
          <Trackpoint>
            <Time>2020-03-07T13:49:25.000Z</Time>
            <Position>
              <LatitudeDegrees>40.696949847042560577392578125</LatitudeDegrees>
              <LongitudeDegrees>-3.76795590855181217193603515625</LongitudeDegrees>
            </Position>
            <AltitudeMeters>993.4000244140625</AltitudeMeters>
            <DistanceMeters>23959.645265309</DistanceMeters>
          </Trackpoint>
          <Trackpoint>
            <Time>2020-03-07T13:49:26.000Z</Time>
            <Position>
              <LatitudeDegrees>40.69700717926025390625</LatitudeDegrees>
              <LongitudeDegrees>-3.76793864183127880096435546875</LongitudeDegrees>
            </Position>
            <AltitudeMeters>993.5999755859375</AltitudeMeters>
            <DistanceMeters>23966.190391943</DistanceMeters>
          </Trackpoint>
          <Trackpoint>
            <Time>2020-03-07T13:49:27.000Z</Time>
            <Position>
              <LatitudeDegrees>40.6970656849443912506103515625</LatitudeDegrees>
              <LongitudeDegrees>-3.767921626567840576171875</LongitudeDegrees>
            </Position>
            <AltitudeMeters>993.5999755859375</AltitudeMeters>
            <DistanceMeters>23972.858532344</DistanceMeters>
          </Trackpoint>
          <Trackpoint>
            <Time>2020-03-07T13:49:28.000Z</Time>
            <Position>
              <LatitudeDegrees>40.69712452590465545654296875</LatitudeDegrees>
              <LongitudeDegrees>-3.76790528185665607452392578125</LongitudeDegrees>
            </Position>
            <AltitudeMeters>993.79998779296875</AltitudeMeters>
            <DistanceMeters>23979.551004171</DistanceMeters>
          </Trackpoint>
          <Trackpoint>
            <Time>2020-03-07T13:49:29.000Z</Time>
            <Position>
              <LatitudeDegrees>40.69718353450298309326171875</LatitudeDegrees>
              <LongitudeDegrees>-3.767889104783535003662109375</LongitudeDegrees>
            </Position>
            <AltitudeMeters>993.79998779296875</AltitudeMeters>
            <DistanceMeters>23986.259647924</DistanceMeters>
          </Trackpoint>
          <Trackpoint>
            <Time>2020-03-07T13:49:30.000Z</Time>
            <Position>
              <LatitudeDegrees>40.69724380038678646087646484375</LatitudeDegrees>
              <LongitudeDegrees>-3.767873346805572509765625</LongitudeDegrees>
            </Position>
            <AltitudeMeters>993.79998779296875</AltitudeMeters>
            <DistanceMeters>23993.098271024</DistanceMeters>
          </Trackpoint>
          <Trackpoint>
            <Time>2020-03-07T13:49:31.000Z</Time>
            <Position>
              <LatitudeDegrees>40.69730482064187526702880859375</LatitudeDegrees>
              <LongitudeDegrees>-3.7678570859134197235107421875</LongitudeDegrees>
            </Position>
            <AltitudeMeters>994</AltitudeMeters>
            <DistanceMeters>24000.027406356</DistanceMeters>
          </Trackpoint>
          <Trackpoint>
            <Time>2020-03-07T13:49:32.000Z</Time>
            <Position>
              <LatitudeDegrees>40.69736659526824951171875</LatitudeDegrees>
              <LongitudeDegrees>-3.76784074120223522186279296875</LongitudeDegrees>
            </Position>
            <AltitudeMeters>994</AltitudeMeters>
            <DistanceMeters>24007.038806798</DistanceMeters>
          </Trackpoint>
          <Trackpoint>
            <Time>2020-03-07T13:49:33.000Z</Time>
            <Position>
              <LatitudeDegrees>40.69742820225656032562255859375</LatitudeDegrees>
              <LongitudeDegrees>-3.7678255699574947357177734375</LongitudeDegrees>
            </Position>
            <AltitudeMeters>994</AltitudeMeters>
            <DistanceMeters>24014.014052448</DistanceMeters>
          </Trackpoint>
          <Trackpoint>
            <Time>2020-03-07T13:49:34.000Z</Time>
            <Position>
              <LatitudeDegrees>40.6974894739687442779541015625</LatitudeDegrees>
              <LongitudeDegrees>-3.7678111530840396881103515625</LongitudeDegrees>
            </Position>
            <AltitudeMeters>994</AltitudeMeters>
            <DistanceMeters>24020.941232699</DistanceMeters>
          </Trackpoint>
          <Trackpoint>
            <Time>2020-03-07T13:49:35.000Z</Time>
            <Position>
              <LatitudeDegrees>40.69755074568092823028564453125</LatitudeDegrees>
              <LongitudeDegrees>-3.76779832877218723297119140625</LongitudeDegrees>
            </Position>
            <AltitudeMeters>994</AltitudeMeters>
            <DistanceMeters>24027.847524307</DistanceMeters>
          </Trackpoint>
          <Trackpoint>
            <Time>2020-03-07T13:49:36.000Z</Time>
            <Position>
              <LatitudeDegrees>40.69761277176439762115478515625</LatitudeDegrees>
              <LongitudeDegrees>-3.7677880190312862396240234375</LongitudeDegrees>
            </Position>
            <AltitudeMeters>994</AltitudeMeters>
            <DistanceMeters>24034.805919948</DistanceMeters>
          </Trackpoint>
          <Trackpoint>
            <Time>2020-03-07T13:49:37.000Z</Time>
            <Position>
              <LatitudeDegrees>40.69767546840012073516845703125</LatitudeDegrees>
              <LongitudeDegrees>-3.7677769549190998077392578125</LongitudeDegrees>
            </Position>
            <AltitudeMeters>994</AltitudeMeters>
            <DistanceMeters>24041.846880086</DistanceMeters>
          </Trackpoint>
          <Trackpoint>
            <Time>2020-03-07T13:49:38.000Z</Time>
            <Position>
              <LatitudeDegrees>40.69773749448359012603759765625</LatitudeDegrees>
              <LongitudeDegrees>-3.767763711512088775634765625</LongitudeDegrees>
            </Position>
            <AltitudeMeters>994</AltitudeMeters>
            <DistanceMeters>24048.840872087</DistanceMeters>
          </Trackpoint>
          <Trackpoint>
            <Time>2020-03-07T13:49:39.000Z</Time>
            <Position>
              <LatitudeDegrees>40.69780069403350353240966796875</LatitudeDegrees>
              <LongitudeDegrees>-3.76775021664798259735107421875</LongitudeDegrees>
            </Position>
            <AltitudeMeters>994.20001220703125</AltitudeMeters>
            <DistanceMeters>24055.966608529</DistanceMeters>
          </Trackpoint>
          <Trackpoint>
            <Time>2020-03-07T13:49:40.000Z</Time>
            <Position>
              <LatitudeDegrees>40.6978641450405120849609375</LatitudeDegrees>
              <LongitudeDegrees>-3.7677378952503204345703125</LongitudeDegrees>
            </Position>
            <AltitudeMeters>994.20001220703125</AltitudeMeters>
            <DistanceMeters>24063.105638676</DistanceMeters>
          </Trackpoint>
          <Trackpoint>
            <Time>2020-03-07T13:49:41.000Z</Time>
            <Position>
              <LatitudeDegrees>40.6979276798665523529052734375</LatitudeDegrees>
              <LongitudeDegrees>-3.7677266635000705718994140625</LongitudeDegrees>
            </Position>
            <AltitudeMeters>994.20001220703125</AltitudeMeters>
            <DistanceMeters>24070.240240341</DistanceMeters>
          </Trackpoint>
          <Trackpoint>
            <Time>2020-03-07T13:49:42.000Z</Time>
            <Position>
              <LatitudeDegrees>40.69799230434000492095947265625</LatitudeDegrees>
              <LongitudeDegrees>-3.7677164375782012939453125</LongitudeDegrees>
            </Position>
            <AltitudeMeters>994.20001220703125</AltitudeMeters>
            <DistanceMeters>24077.484742001</DistanceMeters>
          </Trackpoint>
          <Trackpoint>
            <Time>2020-03-07T13:49:43.000Z</Time>
            <Position>
              <LatitudeDegrees>40.698056258261203765869140625</LatitudeDegrees>
              <LongitudeDegrees>-3.76770545728504657745361328125</LongitudeDegrees>
            </Position>
            <AltitudeMeters>994.20001220703125</AltitudeMeters>
            <DistanceMeters>24084.66287659</DistanceMeters>
          </Trackpoint>
          <Trackpoint>
            <Time>2020-03-07T13:49:44.000Z</Time>
            <Position>
              <LatitudeDegrees>40.698120296001434326171875</LatitudeDegrees>
              <LongitudeDegrees>-3.76769523136317729949951171875</LongitudeDegrees>
            </Position>
            <AltitudeMeters>994.20001220703125</AltitudeMeters>
            <DistanceMeters>24091.841640151</DistanceMeters>
          </Trackpoint>
          <Trackpoint>
            <Time>2020-03-07T13:49:45.000Z</Time>
            <Position>
              <LatitudeDegrees>40.69818391464650630950927734375</LatitudeDegrees>
              <LongitudeDegrees>-3.76768626272678375244140625</LongitudeDegrees>
            </Position>
            <AltitudeMeters>994.20001220703125</AltitudeMeters>
            <DistanceMeters>24098.962939844</DistanceMeters>
          </Trackpoint>
          <Trackpoint>
            <Time>2020-03-07T13:49:46.000Z</Time>
            <Position>
              <LatitudeDegrees>40.69824703037738800048828125</LatitudeDegrees>
              <LongitudeDegrees>-3.7676777131855487823486328125</LongitudeDegrees>
            </Position>
            <AltitudeMeters>994.20001220703125</AltitudeMeters>
            <DistanceMeters>24106.02439027</DistanceMeters>
          </Trackpoint>
          <Trackpoint>
            <Time>2020-03-07T13:49:47.000Z</Time>
            <Position>
              <LatitudeDegrees>40.69830897264182567596435546875</LatitudeDegrees>
              <LongitudeDegrees>-3.7676679901778697967529296875</LongitudeDegrees>
            </Position>
            <AltitudeMeters>994</AltitudeMeters>
            <DistanceMeters>24112.967846048</DistanceMeters>
          </Trackpoint>
          <Trackpoint>
            <Time>2020-03-07T13:49:48.000Z</Time>
            <Position>
              <LatitudeDegrees>40.69837099872529506683349609375</LatitudeDegrees>
              <LongitudeDegrees>-3.76766170375049114227294921875</LongitudeDegrees>
            </Position>
            <AltitudeMeters>994</AltitudeMeters>
            <DistanceMeters>24119.892418664</DistanceMeters>
          </Trackpoint>
          <Trackpoint>
            <Time>2020-03-07T13:49:49.000Z</Time>
            <Position>
              <LatitudeDegrees>40.69843168370425701141357421875</LatitudeDegrees>
              <LongitudeDegrees>-3.76765784807503223419189453125</LongitudeDegrees>
            </Position>
            <AltitudeMeters>994</AltitudeMeters>
            <DistanceMeters>24126.654689519</DistanceMeters>
          </Trackpoint>
          <Trackpoint>
            <Time>2020-03-07T13:49:50.000Z</Time>
            <Position>
              <LatitudeDegrees>40.69849253632128238677978515625</LatitudeDegrees>
              <LongitudeDegrees>-3.76765382476150989532470703125</LongitudeDegrees>
            </Position>
            <AltitudeMeters>994</AltitudeMeters>
            <DistanceMeters>24133.435629664</DistanceMeters>
          </Trackpoint>
          <Trackpoint>
            <Time>2020-03-07T13:49:51.000Z</Time>
            <Position>
              <LatitudeDegrees>40.6985534727573394775390625</LatitudeDegrees>
              <LongitudeDegrees>-3.76765080727636814117431640625</LongitudeDegrees>
            </Position>
            <AltitudeMeters>994.20001220703125</AltitudeMeters>
            <DistanceMeters>24140.221894459</DistanceMeters>
          </Trackpoint>
          <Trackpoint>
            <Time>2020-03-07T13:49:52.000Z</Time>
            <Position>
              <LatitudeDegrees>40.69861449301242828369140625</LatitudeDegrees>
              <LongitudeDegrees>-3.767648041248321533203125</LongitudeDegrees>
            </Position>
            <AltitudeMeters>994.20001220703125</AltitudeMeters>
            <DistanceMeters>24147.017467351</DistanceMeters>
          </Trackpoint>
          <Trackpoint>
            <Time>2020-03-07T13:49:53.000Z</Time>
            <Position>
              <LatitudeDegrees>40.6986753456294536590576171875</LatitudeDegrees>
              <LongitudeDegrees>-3.767647035419940948486328125</LongitudeDegrees>
            </Position>
            <AltitudeMeters>994.20001220703125</AltitudeMeters>
            <DistanceMeters>24153.791079269</DistanceMeters>
          </Trackpoint>
          <Trackpoint>
            <Time>2020-03-07T13:49:54.000Z</Time>
            <Position>
              <LatitudeDegrees>40.6987358629703521728515625</LatitudeDegrees>
              <LongitudeDegrees>-3.767647705972194671630859375</LongitudeDegrees>
            </Position>
            <AltitudeMeters>994.20001220703125</AltitudeMeters>
            <DistanceMeters>24160.527260244</DistanceMeters>
          </Trackpoint>
          <Trackpoint>
            <Time>2020-03-07T13:49:55.000Z</Time>
            <Position>
              <LatitudeDegrees>40.6987953744828701019287109375</LatitudeDegrees>
              <LongitudeDegrees>-3.76764980144798755645751953125</LongitudeDegrees>
            </Position>
            <AltitudeMeters>994.20001220703125</AltitudeMeters>
            <DistanceMeters>24167.153287083</DistanceMeters>
          </Trackpoint>
          <Trackpoint>
            <Time>2020-03-07T13:49:56.000Z</Time>
            <Position>
              <LatitudeDegrees>40.69885463453829288482666015625</LatitudeDegrees>
              <LongitudeDegrees>-3.76765449531376361846923828125</LongitudeDegrees>
            </Position>
            <AltitudeMeters>994.20001220703125</AltitudeMeters>
            <DistanceMeters>24173.760890249</DistanceMeters>
          </Trackpoint>
          <Trackpoint>
            <Time>2020-03-07T13:49:57.000Z</Time>
            <Position>
              <LatitudeDegrees>40.6989128887653350830078125</LatitudeDegrees>
              <LongitudeDegrees>-3.76765952445566654205322265625</LongitudeDegrees>
            </Position>
            <AltitudeMeters>994.79998779296875</AltitudeMeters>
            <DistanceMeters>24180.258938991</DistanceMeters>
          </Trackpoint>
          <Trackpoint>
            <Time>2020-03-07T13:49:58.000Z</Time>
            <Position>
              <LatitudeDegrees>40.69897064007818698883056640625</LatitudeDegrees>
              <LongitudeDegrees>-3.76766371540725231170654296875</LongitudeDegrees>
            </Position>
            <AltitudeMeters>995.20001220703125</AltitudeMeters>
            <DistanceMeters>24186.696955058</DistanceMeters>
          </Trackpoint>
          <Trackpoint>
            <Time>2020-03-07T13:49:59.000Z</Time>
            <Position>
              <LatitudeDegrees>40.69902847521007061004638671875</LatitudeDegrees>
              <LongitudeDegrees>-3.7676669843494892120361328125</LongitudeDegrees>
            </Position>
            <AltitudeMeters>995.4000244140625</AltitudeMeters>
            <DistanceMeters>24193.141279814</DistanceMeters>
          </Trackpoint>
          <Trackpoint>
            <Time>2020-03-07T13:50:00.000Z</Time>
            <Position>
              <LatitudeDegrees>40.69908698089420795440673828125</LatitudeDegrees>
              <LongitudeDegrees>-3.767669834196567535400390625</LongitudeDegrees>
            </Position>
            <AltitudeMeters>995.5999755859375</AltitudeMeters>
            <DistanceMeters>24199.657369089</DistanceMeters>
          </Trackpoint>
          <Trackpoint>
            <Time>2020-03-07T13:50:01.000Z</Time>
            <Position>
              <LatitudeDegrees>40.69914557039737701416015625</LatitudeDegrees>
              <LongitudeDegrees>-3.76767209731042385101318359375</LongitudeDegrees>
            </Position>
            <AltitudeMeters>995.5999755859375</AltitudeMeters>
            <DistanceMeters>24206.18176794</DistanceMeters>
          </Trackpoint>
          <Trackpoint>
            <Time>2020-03-07T13:50:02.000Z</Time>
            <Position>
              <LatitudeDegrees>40.69920432753860950469970703125</LatitudeDegrees>
              <LongitudeDegrees>-3.7676746957004070281982421875</LongitudeDegrees>
            </Position>
            <AltitudeMeters>995.79998779296875</AltitudeMeters>
            <DistanceMeters>24212.724134663</DistanceMeters>
          </Trackpoint>
          <Trackpoint>
            <Time>2020-03-07T13:50:03.000Z</Time>
            <Position>
              <LatitudeDegrees>40.69926199503242969512939453125</LatitudeDegrees>
              <LongitudeDegrees>-3.767677210271358489990234375</LongitudeDegrees>
            </Position>
            <AltitudeMeters>995.79998779296875</AltitudeMeters>
            <DistanceMeters>24219.145297256</DistanceMeters>
          </Trackpoint>
          <Trackpoint>
            <Time>2020-03-07T13:50:04.000Z</Time>
            <Position>
              <LatitudeDegrees>40.69931991398334503173828125</LatitudeDegrees>
              <LongitudeDegrees>-3.7676790542900562286376953125</LongitudeDegrees>
            </Position>
            <AltitudeMeters>995.79998779296875</AltitudeMeters>
            <DistanceMeters>24225.593824376</DistanceMeters>
          </Trackpoint>
          <Trackpoint>
            <Time>2020-03-07T13:50:05.000Z</Time>
            <Position>
              <LatitudeDegrees>40.69937883876264095306396484375</LatitudeDegrees>
              <LongitudeDegrees>-3.767681233584880828857421875</LongitudeDegrees>
            </Position>
            <AltitudeMeters>996</AltitudeMeters>
            <DistanceMeters>24232.154109761</DistanceMeters>
          </Trackpoint>
          <Trackpoint>
            <Time>2020-03-07T13:50:06.000Z</Time>
            <Position>
              <LatitudeDegrees>40.69943751208484172821044921875</LatitudeDegrees>
              <LongitudeDegrees>-3.76768399961292743682861328125</LongitudeDegrees>
            </Position>
            <AltitudeMeters>996.20001220703125</AltitudeMeters>
            <DistanceMeters>24238.688880722</DistanceMeters>
          </Trackpoint>
          <Trackpoint>
            <Time>2020-03-07T13:50:07.000Z</Time>
            <Position>
              <LatitudeDegrees>40.6994961015880107879638671875</LatitudeDegrees>
              <LongitudeDegrees>-3.7676864303648471832275390625</LongitudeDegrees>
            </Position>
            <AltitudeMeters>996.20001220703125</AltitudeMeters>
            <DistanceMeters>24245.213279572</DistanceMeters>
          </Trackpoint>
          <Trackpoint>
            <Time>2020-03-07T13:50:08.000Z</Time>
            <Position>
              <LatitudeDegrees>40.69955527782440185546875</LatitudeDegrees>
              <LongitudeDegrees>-3.76768902875483036041259765625</LongitudeDegrees>
            </Position>
            <AltitudeMeters>996.4000244140625</AltitudeMeters>
            <DistanceMeters>24251.803777861</DistanceMeters>
          </Trackpoint>
          <Trackpoint>
            <Time>2020-03-07T13:50:09.000Z</Time>
            <Position>
              <LatitudeDegrees>40.69961453787982463836669921875</LatitudeDegrees>
              <LongitudeDegrees>-3.76769238151609897613525390625</LongitudeDegrees>
            </Position>
            <AltitudeMeters>996.5999755859375</AltitudeMeters>
            <DistanceMeters>24258.405912288</DistanceMeters>
          </Trackpoint>
          <Trackpoint>
            <Time>2020-03-07T13:50:10.000Z</Time>
            <Position>
              <LatitudeDegrees>40.69967354647815227508544921875</LatitudeDegrees>
              <LongitudeDegrees>-3.7676958180963993072509765625</LongitudeDegrees>
            </Position>
            <AltitudeMeters>996.5999755859375</AltitudeMeters>
            <DistanceMeters>24264.979948024</DistanceMeters>
          </Trackpoint>
          <Trackpoint>
            <Time>2020-03-07T13:50:11.000Z</Time>
            <Position>
              <LatitudeDegrees>40.69973221980035305023193359375</LatitudeDegrees>
              <LongitudeDegrees>-3.76769908703863620758056640625</LongitudeDegrees>
            </Position>
            <AltitudeMeters>996.79998779296875</AltitudeMeters>
            <DistanceMeters>24271.516791432</DistanceMeters>
          </Trackpoint>
          <Trackpoint>
            <Time>2020-03-07T13:50:12.000Z</Time>
            <Position>
              <LatitudeDegrees>40.69979139603674411773681640625</LatitudeDegrees>
              <LongitudeDegrees>-3.76770235598087310791015625</LongitudeDegrees>
            </Position>
            <AltitudeMeters>997</AltitudeMeters>
            <DistanceMeters>24278.109344649</DistanceMeters>
          </Trackpoint>
          <Trackpoint>
            <Time>2020-03-07T13:50:13.000Z</Time>
            <Position>
              <LatitudeDegrees>40.69985124282538890838623046875</LatitudeDegrees>
              <LongitudeDegrees>-3.76770461909472942352294921875</LongitudeDegrees>
            </Position>
            <AltitudeMeters>997.4000244140625</AltitudeMeters>
            <DistanceMeters>24284.772066</DistanceMeters>
          </Trackpoint>
          <Trackpoint>
            <Time>2020-03-07T13:50:14.000Z</Time>
            <Position>
              <LatitudeDegrees>40.6999115087091922760009765625</LatitudeDegrees>
              <LongitudeDegrees>-3.76770596019923686981201171875</LongitudeDegrees>
            </Position>
            <AltitudeMeters>997.5999755859375</AltitudeMeters>
            <DistanceMeters>24291.4800367</DistanceMeters>
          </Trackpoint>
          <Trackpoint>
            <Time>2020-03-07T13:50:15.000Z</Time>
            <Position>
              <LatitudeDegrees>40.699972026050090789794921875</LatitudeDegrees>
              <LongitudeDegrees>-3.76770746894180774688720703125</LongitudeDegrees>
            </Position>
            <AltitudeMeters>997.79998779296875</AltitudeMeters>
            <DistanceMeters>24298.216887909</DistanceMeters>
          </Trackpoint>
          <Trackpoint>
            <Time>2020-03-07T13:50:16.000Z</Time>
            <Position>
              <LatitudeDegrees>40.70003245957195758819580078125</LatitudeDegrees>
              <LongitudeDegrees>-3.767710737884044647216796875</LongitudeDegrees>
            </Position>
            <AltitudeMeters>997.79998779296875</AltitudeMeters>
            <DistanceMeters>24304.949716716</DistanceMeters>
          </Trackpoint>
          <Trackpoint>
            <Time>2020-03-07T13:50:17.000Z</Time>
            <Position>
              <LatitudeDegrees>40.70009331218898296356201171875</LatitudeDegrees>
              <LongitudeDegrees>-3.76771618612110614776611328125</LongitudeDegrees>
            </Position>
            <AltitudeMeters>998</AltitudeMeters>
            <DistanceMeters>24311.73864227</DistanceMeters>
          </Trackpoint>
          <Trackpoint>
            <Time>2020-03-07T13:50:18.000Z</Time>
            <Position>
              <LatitudeDegrees>40.7001547515392303466796875</LatitudeDegrees>
              <LongitudeDegrees>-3.76772004179656505584716796875</LongitudeDegrees>
            </Position>
            <AltitudeMeters>998</AltitudeMeters>
            <DistanceMeters>24318.583864448</DistanceMeters>
          </Trackpoint>
          <Trackpoint>
            <Time>2020-03-07T13:50:19.000Z</Time>
            <Position>
              <LatitudeDegrees>40.700216107070446014404296875</LatitudeDegrees>
              <LongitudeDegrees>-3.7677219696342945098876953125</LongitudeDegrees>
            </Position>
            <AltitudeMeters>998.4000244140625</AltitudeMeters>
            <DistanceMeters>24325.415221199</DistanceMeters>
          </Trackpoint>
          <Trackpoint>
            <Time>2020-03-07T13:50:20.000Z</Time>
            <Position>
              <LatitudeDegrees>40.70027754642069339752197265625</LatitudeDegrees>
              <LongitudeDegrees>-3.76772372983396053314208984375</LongitudeDegrees>
            </Position>
            <AltitudeMeters>998.5999755859375</AltitudeMeters>
            <DistanceMeters>24332.255164624</DistanceMeters>
          </Trackpoint>
          <Trackpoint>
            <Time>2020-03-07T13:50:21.000Z</Time>
            <Position>
              <LatitudeDegrees>40.7003383152186870574951171875</LatitudeDegrees>
              <LongitudeDegrees>-3.7677276693284511566162109375</LongitudeDegrees>
            </Position>
            <AltitudeMeters>998.79998779296875</AltitudeMeters>
            <DistanceMeters>24339.028109946</DistanceMeters>
          </Trackpoint>
          <Trackpoint>
            <Time>2020-03-07T13:50:22.000Z</Time>
            <Position>
              <LatitudeDegrees>40.70039807818830013275146484375</LatitudeDegrees>
              <LongitudeDegrees>-3.76773563213646411895751953125</LongitudeDegrees>
            </Position>
            <AltitudeMeters>999</AltitudeMeters>
            <DistanceMeters>24345.714507218</DistanceMeters>
          </Trackpoint>
          <Trackpoint>
            <Time>2020-03-07T13:50:23.000Z</Time>
            <Position>
              <LatitudeDegrees>40.700456835329532623291015625</LatitudeDegrees>
              <LongitudeDegrees>-3.76774619333446025848388671875</LongitudeDegrees>
            </Position>
            <AltitudeMeters>999.20001220703125</AltitudeMeters>
            <DistanceMeters>24352.314589699</DistanceMeters>
          </Trackpoint>
          <Trackpoint>
            <Time>2020-03-07T13:50:24.000Z</Time>
            <Position>
              <LatitudeDegrees>40.70051609538495540618896484375</LatitudeDegrees>
              <LongitudeDegrees>-3.76775625161826610565185546875</LongitudeDegrees>
            </Position>
            <AltitudeMeters>999.4000244140625</AltitudeMeters>
            <DistanceMeters>24358.965102042</DistanceMeters>
          </Trackpoint>
          <Trackpoint>
            <Time>2020-03-07T13:50:25.000Z</Time>
            <Position>
              <LatitudeDegrees>40.70057527162134647369384765625</LatitudeDegrees>
              <LongitudeDegrees>-3.76776874065399169921875</LongitudeDegrees>
            </Position>
            <AltitudeMeters>999.5999755859375</AltitudeMeters>
            <DistanceMeters>24365.634596518</DistanceMeters>
          </Trackpoint>
          <Trackpoint>
            <Time>2020-03-07T13:50:26.000Z</Time>
            <Position>
              <LatitudeDegrees>40.70063461549580097198486328125</LatitudeDegrees>
              <LongitudeDegrees>-3.7677856720983982086181640625</LongitudeDegrees>
            </Position>
            <AltitudeMeters>999.79998779296875</AltitudeMeters>
            <DistanceMeters>24372.392191991</DistanceMeters>
          </Trackpoint>
          <Trackpoint>
            <Time>2020-03-07T13:50:27.000Z</Time>
            <Position>
              <LatitudeDegrees>40.70069379173219203948974609375</LatitudeDegrees>
              <LongitudeDegrees>-3.7678071297705173492431640625</LongitudeDegrees>
            </Position>
            <AltitudeMeters>1000</AltitudeMeters>
            <DistanceMeters>24379.222226757</DistanceMeters>
          </Trackpoint>
          <Trackpoint>
            <Time>2020-03-07T13:50:28.000Z</Time>
            <Position>
              <LatitudeDegrees>40.7007520459592342376708984375</LatitudeDegrees>
              <LongitudeDegrees>-3.76783034764230251312255859375</LongitudeDegrees>
            </Position>
            <AltitudeMeters>1000.20001220703125</AltitudeMeters>
            <DistanceMeters>24385.995172079</DistanceMeters>
          </Trackpoint>
          <Trackpoint>
            <Time>2020-03-07T13:50:29.000Z</Time>
            <Position>
              <LatitudeDegrees>40.70080929435789585113525390625</LatitudeDegrees>
              <LongitudeDegrees>-3.76785599626600742340087890625</LongitudeDegrees>
            </Position>
            <AltitudeMeters>1000.4000244140625</AltitudeMeters>
            <DistanceMeters>24392.723976081</DistanceMeters>
          </Trackpoint>
          <Trackpoint>
            <Time>2020-03-07T13:50:30.000Z</Time>
            <Position>
              <LatitudeDegrees>40.7008655369281768798828125</LatitudeDegrees>
              <LongitudeDegrees>-3.7678845785558223724365234375</LongitudeDegrees>
            </Position>
            <AltitudeMeters>1000.5999755859375</AltitudeMeters>
            <DistanceMeters>24399.432619833</DistanceMeters>
          </Trackpoint>
          <Trackpoint>
            <Time>2020-03-07T13:50:31.000Z</Time>
            <Position>
              <LatitudeDegrees>40.7009230367839336395263671875</LatitudeDegrees>
              <LongitudeDegrees>-3.76791265793144702911376953125</LongitudeDegrees>
            </Position>
            <AltitudeMeters>1000.79998779296875</AltitudeMeters>
            <DistanceMeters>24406.257364099</DistanceMeters>
          </Trackpoint>
          <Trackpoint>
            <Time>2020-03-07T13:50:32.000Z</Time>
            <Position>
              <LatitudeDegrees>40.7009820453822612762451171875</LatitudeDegrees>
              <LongitudeDegrees>-3.767940737307071685791015625</LongitudeDegrees>
            </Position>
            <AltitudeMeters>1001.20001220703125</AltitudeMeters>
            <DistanceMeters>24413.239726359</DistanceMeters>
          </Trackpoint>
          <Trackpoint>
            <Time>2020-03-07T13:50:33.000Z</Time>
            <Position>
              <LatitudeDegrees>40.7010407187044620513916015625</LatitudeDegrees>
              <LongitudeDegrees>-3.76796982251107692718505859375</LongitudeDegrees>
            </Position>
            <AltitudeMeters>1001.5999755859375</AltitudeMeters>
            <DistanceMeters>24420.216913622</DistanceMeters>
          </Trackpoint>
          <Trackpoint>
            <Time>2020-03-07T13:50:34.000Z</Time>
            <Position>
              <LatitudeDegrees>40.70109964348375797271728515625</LatitudeDegrees>
              <LongitudeDegrees>-3.76800033263862133026123046875</LongitudeDegrees>
            </Position>
            <AltitudeMeters>1001.79998779296875</AltitudeMeters>
            <DistanceMeters>24427.262361104</DistanceMeters>
          </Trackpoint>
          <Trackpoint>
            <Time>2020-03-07T13:50:35.000Z</Time>
            <Position>
              <LatitudeDegrees>40.70115781389176845550537109375</LatitudeDegrees>
              <LongitudeDegrees>-3.7680300883948802947998046875</LongitudeDegrees>
            </Position>
            <AltitudeMeters>1002</AltitudeMeters>
            <DistanceMeters>24434.206467109</DistanceMeters>
          </Trackpoint>
          <Trackpoint>
            <Time>2020-03-07T13:50:36.000Z</Time>
            <Position>
              <LatitudeDegrees>40.70121665485203266143798828125</LatitudeDegrees>
              <LongitudeDegrees>-3.76805749721825122833251953125</LongitudeDegrees>
            </Position>
            <AltitudeMeters>1002.20001220703125</AltitudeMeters>
            <DistanceMeters>24441.151873387</DistanceMeters>
          </Trackpoint>
          <Trackpoint>
            <Time>2020-03-07T13:50:37.000Z</Time>
            <Position>
              <LatitudeDegrees>40.7012754119932651519775390625</LatitudeDegrees>
              <LongitudeDegrees>-3.76808297820389270782470703125</LongitudeDegrees>
            </Position>
            <AltitudeMeters>1002.20001220703125</AltitudeMeters>
            <DistanceMeters>24448.035901363</DistanceMeters>
          </Trackpoint>
          <Trackpoint>
            <Time>2020-03-07T13:50:38.000Z</Time>
            <Position>
              <LatitudeDegrees>40.70133425295352935791015625</LatitudeDegrees>
              <LongitudeDegrees>-3.76810829155147075653076171875</LongitudeDegrees>
            </Position>
            <AltitudeMeters>1002.4000244140625</AltitudeMeters>
            <DistanceMeters>24454.923863444</DistanceMeters>
          </Trackpoint>
          <Trackpoint>
            <Time>2020-03-07T13:50:39.000Z</Time>
            <Position>
              <LatitudeDegrees>40.701393596827983856201171875</LatitudeDegrees>
              <LongitudeDegrees>-3.76813343726098537445068359375</LongitudeDegrees>
            </Position>
            <AltitudeMeters>1002.5999755859375</AltitudeMeters>
            <DistanceMeters>24461.860813593</DistanceMeters>
          </Trackpoint>
          <Trackpoint>
            <Time>2020-03-07T13:50:40.000Z</Time>
            <Position>
              <LatitudeDegrees>40.70145386271178722381591796875</LatitudeDegrees>
              <LongitudeDegrees>-3.7681561522185802459716796875</LongitudeDegrees>
            </Position>
            <AltitudeMeters>1002.5999755859375</AltitudeMeters>
            <DistanceMeters>24468.837353712</DistanceMeters>
          </Trackpoint>
          <Trackpoint>
            <Time>2020-03-07T13:50:41.000Z</Time>
            <Position>
              <LatitudeDegrees>40.7015146315097808837890625</LatitudeDegrees>
              <LongitudeDegrees>-3.76817635260522365570068359375</LongitudeDegrees>
            </Position>
            <AltitudeMeters>1002.79998779296875</AltitudeMeters>
            <DistanceMeters>24475.812599363</DistanceMeters>
          </Trackpoint>
          <Trackpoint>
            <Time>2020-03-07T13:50:42.000Z</Time>
            <Position>
              <LatitudeDegrees>40.70157573558390140533447265625</LatitudeDegrees>
              <LongitudeDegrees>-3.768194876611232757568359375</LongitudeDegrees>
            </Position>
            <AltitudeMeters>1002.79998779296875</AltitudeMeters>
            <DistanceMeters>24482.79043371</DistanceMeters>
          </Trackpoint>
          <Trackpoint>
            <Time>2020-03-07T13:50:43.000Z</Time>
            <Position>
              <LatitudeDegrees>40.70163734257221221923828125</LatitudeDegrees>
              <LongitudeDegrees>-3.7682114727795124053955078125</LongitudeDegrees>
            </Position>
            <AltitudeMeters>1002.79998779296875</AltitudeMeters>
            <DistanceMeters>24489.788943168</DistanceMeters>
          </Trackpoint>
          <Trackpoint>
            <Time>2020-03-07T13:50:44.000Z</Time>
            <Position>
              <LatitudeDegrees>40.70169878192245960235595703125</LatitudeDegrees>
              <LongitudeDegrees>-3.76822681166231632232666015625</LongitudeDegrees>
            </Position>
            <AltitudeMeters>1002.79998779296875</AltitudeMeters>
            <DistanceMeters>24496.748636412</DistanceMeters>
          </Trackpoint>
          <Trackpoint>
            <Time>2020-03-07T13:50:45.000Z</Time>
            <Position>
              <LatitudeDegrees>40.70175913162529468536376953125</LatitudeDegrees>
              <LongitudeDegrees>-3.7682393006980419158935546875</LongitudeDegrees>
            </Position>
            <AltitudeMeters>1002.79998779296875</AltitudeMeters>
            <DistanceMeters>24503.548194588</DistanceMeters>
          </Trackpoint>
          <Trackpoint>
            <Time>2020-03-07T13:50:46.000Z</Time>
            <Position>
              <LatitudeDegrees>40.70181973278522491455078125</LatitudeDegrees>
              <LongitudeDegrees>-3.7682493589818477630615234375</LongitudeDegrees>
            </Position>
            <AltitudeMeters>1002.79998779296875</AltitudeMeters>
            <DistanceMeters>24510.346424596</DistanceMeters>
          </Trackpoint>
          <Trackpoint>
            <Time>2020-03-07T13:50:47.000Z</Time>
            <Position>
              <LatitudeDegrees>40.70188008248805999755859375</LatitudeDegrees>
              <LongitudeDegrees>-3.76825899817049503326416015625</LongitudeDegrees>
            </Position>
            <AltitudeMeters>1003</AltitudeMeters>
            <DistanceMeters>24517.11270035</DistanceMeters>
          </Trackpoint>
          <Trackpoint>
            <Time>2020-03-07T13:50:48.000Z</Time>
            <Position>
              <LatitudeDegrees>40.70194034837186336517333984375</LatitudeDegrees>
              <LongitudeDegrees>-3.76826771534979343414306640625</LongitudeDegrees>
            </Position>
            <AltitudeMeters>1003</AltitudeMeters>
            <DistanceMeters>24523.860266239</DistanceMeters>
          </Trackpoint>
          <Trackpoint>
            <Time>2020-03-07T13:50:49.000Z</Time>
            <Position>
              <LatitudeDegrees>40.70200086571276187896728515625</LatitudeDegrees>
              <LongitudeDegrees>-3.76827743835747241973876953125</LongitudeDegrees>
            </Position>
            <AltitudeMeters>1003</AltitudeMeters>
            <DistanceMeters>24530.645200263</DistanceMeters>
          </Trackpoint>
          <Trackpoint>
            <Time>2020-03-07T13:50:50.000Z</Time>
            <Position>
              <LatitudeDegrees>40.7020616345107555389404296875</LatitudeDegrees>
              <LongitudeDegrees>-3.76828883774578571319580078125</LongitudeDegrees>
            </Position>
            <AltitudeMeters>1003</AltitudeMeters>
            <DistanceMeters>24537.476557014</DistanceMeters>
          </Trackpoint>
          <Trackpoint>
            <Time>2020-03-07T13:50:51.000Z</Time>
            <Position>
              <LatitudeDegrees>40.70212206803262233734130859375</LatitudeDegrees>
              <LongitudeDegrees>-3.76829856075346469879150390625</LongitudeDegrees>
            </Position>
            <AltitudeMeters>1003</AltitudeMeters>
            <DistanceMeters>24544.253500927</DistanceMeters>
          </Trackpoint>
          <Trackpoint>
            <Time>2020-03-07T13:50:52.000Z</Time>
            <Position>
              <LatitudeDegrees>40.7021833397448062896728515625</LatitudeDegrees>
              <LongitudeDegrees>-3.768306858837604522705078125</LongitudeDegrees>
            </Position>
            <AltitudeMeters>1003</AltitudeMeters>
            <DistanceMeters>24551.108609811</DistanceMeters>
          </Trackpoint>
          <Trackpoint>
            <Time>2020-03-07T13:50:53.000Z</Time>
            <Position>
              <LatitudeDegrees>40.70224477909505367279052734375</LatitudeDegrees>
              <LongitudeDegrees>-3.76831565983593463897705078125</LongitudeDegrees>
            </Position>
            <AltitudeMeters>1003.20001220703125</AltitudeMeters>
            <DistanceMeters>24557.987388813</DistanceMeters>
          </Trackpoint>
          <Trackpoint>
            <Time>2020-03-07T13:50:54.000Z</Time>
            <Position>
              <LatitudeDegrees>40.7023060508072376251220703125</LatitudeDegrees>
              <LongitudeDegrees>-3.76832638867199420928955078125</LongitudeDegrees>
            </Position>
            <AltitudeMeters>1003.20001220703125</AltitudeMeters>
            <DistanceMeters>24564.867480435</DistanceMeters>
          </Trackpoint>
          <Trackpoint>
            <Time>2020-03-07T13:50:55.000Z</Time>
            <Position>
              <LatitudeDegrees>40.70236824452877044677734375</LatitudeDegrees>
              <LongitudeDegrees>-3.76833879388868808746337890625</LongitudeDegrees>
            </Position>
            <AltitudeMeters>1003.4000244140625</AltitudeMeters>
            <DistanceMeters>24571.868569989</DistanceMeters>
          </Trackpoint>
          <Trackpoint>
            <Time>2020-03-07T13:50:56.000Z</Time>
            <Position>
              <LatitudeDegrees>40.7024327851831912994384765625</LatitudeDegrees>
              <LongitudeDegrees>-3.768353126943111419677734375</LongitudeDegrees>
            </Position>
            <AltitudeMeters>1003.4000244140625</AltitudeMeters>
            <DistanceMeters>24579.153469388</DistanceMeters>
          </Trackpoint>
          <Trackpoint>
            <Time>2020-03-07T13:50:57.000Z</Time>
            <Position>
              <LatitudeDegrees>40.7024988345801830291748046875</LatitudeDegrees>
              <LongitudeDegrees>-3.76836963929235935211181640625</LongitudeDegrees>
            </Position>
            <AltitudeMeters>1003.5999755859375</AltitudeMeters>
            <DistanceMeters>24586.635276915</DistanceMeters>
          </Trackpoint>
          <Trackpoint>
            <Time>2020-03-07T13:50:58.000Z</Time>
            <Position>
              <LatitudeDegrees>40.70256630890071392059326171875</LatitudeDegrees>
              <LongitudeDegrees>-3.7683878280222415924072265625</LongitudeDegrees>
            </Position>
            <AltitudeMeters>1003.5999755859375</AltitudeMeters>
            <DistanceMeters>24594.300110726</DistanceMeters>
          </Trackpoint>
          <Trackpoint>
            <Time>2020-03-07T13:50:59.000Z</Time>
            <Position>
              <LatitudeDegrees>40.70263705216348171234130859375</LatitudeDegrees>
              <LongitudeDegrees>-3.76840886659920215606689453125</LongitudeDegrees>
            </Position>
            <AltitudeMeters>1003.5999755859375</AltitudeMeters>
            <DistanceMeters>24602.371230318</DistanceMeters>
          </Trackpoint>
          <Trackpoint>
            <Time>2020-03-07T13:51:00.000Z</Time>
            <Position>
              <LatitudeDegrees>40.70271131582558155059814453125</LatitudeDegrees>
              <LongitudeDegrees>-3.7684344314038753509521484375</LongitudeDegrees>
            </Position>
            <AltitudeMeters>1003.5999755859375</AltitudeMeters>
            <DistanceMeters>24610.914126655</DistanceMeters>
          </Trackpoint>
          <Trackpoint>
            <Time>2020-03-07T13:51:01.000Z</Time>
            <Position>
              <LatitudeDegrees>40.702787674963474273681640625</LatitudeDegrees>
              <LongitudeDegrees>-3.768467791378498077392578125</LongitudeDegrees>
            </Position>
            <AltitudeMeters>1003.5999755859375</AltitudeMeters>
            <DistanceMeters>24619.86784201</DistanceMeters>
          </Trackpoint>
          <Trackpoint>
            <Time>2020-03-07T13:51:02.000Z</Time>
            <Position>
              <LatitudeDegrees>40.70286688394844532012939453125</LatitudeDegrees>
              <LongitudeDegrees>-3.76850760541856288909912109375</LongitudeDegrees>
            </Position>
            <AltitudeMeters>1003.5999755859375</AltitudeMeters>
            <DistanceMeters>24629.302324694</DistanceMeters>
          </Trackpoint>
          <Trackpoint>
            <Time>2020-03-07T13:51:03.000Z</Time>
            <Position>
              <LatitudeDegrees>40.7029491104185581207275390625</LatitudeDegrees>
              <LongitudeDegrees>-3.76855018548667430877685546875</LongitudeDegrees>
            </Position>
            <AltitudeMeters>1003.5999755859375</AltitudeMeters>
            <DistanceMeters>24639.133801605</DistanceMeters>
          </Trackpoint>
          <Trackpoint>
            <Time>2020-03-07T13:51:04.000Z</Time>
            <Position>
              <LatitudeDegrees>40.703034102916717529296875</LatitudeDegrees>
              <LongitudeDegrees>-3.7685940228402614593505859375</LongitudeDegrees>
            </Position>
            <AltitudeMeters>1003.5999755859375</AltitudeMeters>
            <DistanceMeters>24649.291441757</DistanceMeters>
          </Trackpoint>
          <Trackpoint>
            <Time>2020-03-07T13:51:05.000Z</Time>
            <Position>
              <LatitudeDegrees>40.70312202908098697662353515625</LatitudeDegrees>
              <LongitudeDegrees>-3.768639452755451202392578125</LongitudeDegrees>
            </Position>
            <AltitudeMeters>1003.5999755859375</AltitudeMeters>
            <DistanceMeters>24659.801671304</DistanceMeters>
          </Trackpoint>
          <Trackpoint>
            <Time>2020-03-07T13:51:06.000Z</Time>
            <Position>
              <LatitudeDegrees>40.703212805092334747314453125</LatitudeDegrees>
              <LongitudeDegrees>-3.7686848826706409454345703125</LongitudeDegrees>
            </Position>
            <AltitudeMeters>1003.4000244140625</AltitudeMeters>
            <DistanceMeters>24670.607591834</DistanceMeters>
          </Trackpoint>
          <Trackpoint>
            <Time>2020-03-07T13:51:07.000Z</Time>
            <Position>
              <LatitudeDegrees>40.7033071853220462799072265625</LatitudeDegrees>
              <LongitudeDegrees>-3.76872670836746692657470703125</LongitudeDegrees>
            </Position>
            <AltitudeMeters>1003.4000244140625</AltitudeMeters>
            <DistanceMeters>24681.688700961</DistanceMeters>
          </Trackpoint>
          <Trackpoint>
            <Time>2020-03-07T13:51:08.000Z</Time>
            <Position>
              <LatitudeDegrees>40.7034055888652801513671875</LatitudeDegrees>
              <LongitudeDegrees>-3.7687656842172145843505859375</LongitudeDegrees>
            </Position>
            <AltitudeMeters>1003.20001220703125</AltitudeMeters>
            <DistanceMeters>24693.124328056</DistanceMeters>
          </Trackpoint>
          <Trackpoint>
            <Time>2020-03-07T13:51:09.000Z</Time>
            <Position>
              <LatitudeDegrees>40.70350793190300464630126953125</LatitudeDegrees>
              <LongitudeDegrees>-3.76880206167697906494140625</LongitudeDegrees>
            </Position>
            <AltitudeMeters>1003</AltitudeMeters>
            <DistanceMeters>24704.921426774</DistanceMeters>
          </Trackpoint>
          <Trackpoint>
            <Time>2020-03-07T13:51:10.000Z</Time>
            <Position>
              <LatitudeDegrees>40.703614465892314910888671875</LatitudeDegrees>
              <LongitudeDegrees>-3.7688330747187137603759765625</LongitudeDegrees>
            </Position>
            <AltitudeMeters>1002.5999755859375</AltitudeMeters>
            <DistanceMeters>24717.064041327</DistanceMeters>
          </Trackpoint>
          <Trackpoint>
            <Time>2020-03-07T13:51:11.000Z</Time>
            <Position>
              <LatitudeDegrees>40.70372544229030609130859375</LatitudeDegrees>
              <LongitudeDegrees>-3.76885511912405490875244140625</LongitudeDegrees>
            </Position>
            <AltitudeMeters>1002</AltitudeMeters>
            <DistanceMeters>24729.555265881</DistanceMeters>
          </Trackpoint>
          <Trackpoint>
            <Time>2020-03-07T13:51:12.000Z</Time>
            <Position>
              <LatitudeDegrees>40.7038412801921367645263671875</LatitudeDegrees>
              <LongitudeDegrees>-3.76886702142655849456787109375</LongitudeDegrees>
            </Position>
            <AltitudeMeters>1001</AltitudeMeters>
            <DistanceMeters>24742.486931886</DistanceMeters>
          </Trackpoint>
          <Trackpoint>
            <Time>2020-03-07T13:51:13.000Z</Time>
            <Position>
              <LatitudeDegrees>40.7039609737694263458251953125</LatitudeDegrees>
              <LongitudeDegrees>-3.76887322403490543365478515625</LongitudeDegrees>
            </Position>
            <AltitudeMeters>1000.4000244140625</AltitudeMeters>
            <DistanceMeters>24755.819149433</DistanceMeters>
          </Trackpoint>
          <Trackpoint>
            <Time>2020-03-07T13:51:14.000Z</Time>
            <Position>
              <LatitudeDegrees>40.70408393628895282745361328125</LatitudeDegrees>
              <LongitudeDegrees>-3.7688769958913326263427734375</LongitudeDegrees>
            </Position>
            <AltitudeMeters>1000</AltitudeMeters>
            <DistanceMeters>24769.508274547</DistanceMeters>
          </Trackpoint>
          <Trackpoint>
            <Time>2020-03-07T13:51:15.000Z</Time>
            <Position>
              <LatitudeDegrees>40.70421016775071620941162109375</LatitudeDegrees>
              <LongitudeDegrees>-3.7688759900629520416259765625</LongitudeDegrees>
            </Position>
            <AltitudeMeters>999.4000244140625</AltitudeMeters>
            <DistanceMeters>24783.558416935</DistanceMeters>
          </Trackpoint>
          <Trackpoint>
            <Time>2020-03-07T13:51:16.000Z</Time>
            <Position>
              <LatitudeDegrees>40.70433891378343105316162109375</LatitudeDegrees>
              <LongitudeDegrees>-3.76886987127363681793212890625</LongitudeDegrees>
            </Position>
            <AltitudeMeters>998.79998779296875</AltitudeMeters>
            <DistanceMeters>24797.897063331</DistanceMeters>
          </Trackpoint>
          <Trackpoint>
            <Time>2020-03-07T13:51:17.000Z</Time>
            <Position>
              <LatitudeDegrees>40.704468749463558197021484375</LatitudeDegrees>
              <LongitudeDegrees>-3.768863417208194732666015625</LongitudeDegrees>
            </Position>
            <AltitudeMeters>998</AltitudeMeters>
            <DistanceMeters>24812.358306029</DistanceMeters>
          </Trackpoint>
          <Trackpoint>
            <Time>2020-03-07T13:51:18.000Z</Time>
            <Position>
              <LatitudeDegrees>40.70459841750562191009521484375</LatitudeDegrees>
              <LongitudeDegrees>-3.76885780133306980133056640625</LongitudeDegrees>
            </Position>
            <AltitudeMeters>997.4000244140625</AltitudeMeters>
            <DistanceMeters>24826.798615072</DistanceMeters>
          </Trackpoint>
          <Trackpoint>
            <Time>2020-03-07T13:51:19.000Z</Time>
            <Position>
              <LatitudeDegrees>40.704727582633495330810546875</LatitudeDegrees>
              <LongitudeDegrees>-3.7688552029430866241455078125</LongitudeDegrees>
            </Position>
            <AltitudeMeters>996.4000244140625</AltitudeMeters>
            <DistanceMeters>24841.176254306</DistanceMeters>
          </Trackpoint>
          <Trackpoint>
            <Time>2020-03-07T13:51:20.000Z</Time>
            <Position>
              <LatitudeDegrees>40.70485532283782958984375</LatitudeDegrees>
              <LongitudeDegrees>-3.7688563764095306396484375</LongitudeDegrees>
            </Position>
            <AltitudeMeters>995.20001220703125</AltitudeMeters>
            <DistanceMeters>24855.394105454</DistanceMeters>
          </Trackpoint>
          <Trackpoint>
            <Time>2020-03-07T13:51:21.000Z</Time>
            <Position>
              <LatitudeDegrees>40.7049808837473392486572265625</LatitudeDegrees>
              <LongitudeDegrees>-3.7688629142940044403076171875</LongitudeDegrees>
            </Position>
            <AltitudeMeters>994</AltitudeMeters>
            <DistanceMeters>24869.380152642</DistanceMeters>
          </Trackpoint>
          <Trackpoint>
            <Time>2020-03-07T13:51:22.000Z</Time>
            <Position>
              <LatitudeDegrees>40.70510434918105602264404296875</LatitudeDegrees>
              <LongitudeDegrees>-3.768874146044254302978515625</LongitudeDegrees>
            </Position>
            <AltitudeMeters>992.4000244140625</AltitudeMeters>
            <DistanceMeters>24883.154437965</DistanceMeters>
          </Trackpoint>
          <Trackpoint>
            <Time>2020-03-07T13:51:23.000Z</Time>
            <Position>
              <LatitudeDegrees>40.70522605441510677337646484375</LatitudeDegrees>
              <LongitudeDegrees>-3.76888931728899478912353515625</LongitudeDegrees>
            </Position>
            <AltitudeMeters>991.4000244140625</AltitudeMeters>
            <DistanceMeters>24896.76085657</DistanceMeters>
          </Trackpoint>
          <Trackpoint>
            <Time>2020-03-07T13:51:24.000Z</Time>
            <Position>
              <LatitudeDegrees>40.7053463347256183624267578125</LatitudeDegrees>
              <LongitudeDegrees>-3.76890893094241619110107421875</LongitudeDegrees>
            </Position>
            <AltitudeMeters>990.5999755859375</AltitudeMeters>
            <DistanceMeters>24910.250299495</DistanceMeters>
          </Trackpoint>
          <Trackpoint>
            <Time>2020-03-07T13:51:25.000Z</Time>
            <Position>
              <LatitudeDegrees>40.70546460337936878204345703125</LatitudeDegrees>
              <LongitudeDegrees>-3.76893206499516963958740234375</LongitudeDegrees>
            </Position>
            <AltitudeMeters>990</AltitudeMeters>
            <DistanceMeters>24923.558111457</DistanceMeters>
          </Trackpoint>
          <Trackpoint>
            <Time>2020-03-07T13:51:26.000Z</Time>
            <Position>
              <LatitudeDegrees>40.70558111183345317840576171875</LatitudeDegrees>
              <LongitudeDegrees>-3.76895871944725513458251953125</LongitudeDegrees>
            </Position>
            <AltitudeMeters>989.4000244140625</AltitudeMeters>
            <DistanceMeters>24936.719568687</DistanceMeters>
          </Trackpoint>
          <Trackpoint>
            <Time>2020-03-07T13:51:27.000Z</Time>
            <Position>
              <LatitudeDegrees>40.7056961953639984130859375</LatitudeDegrees>
              <LongitudeDegrees>-3.76898839138448238372802734375</LongitudeDegrees>
            </Position>
            <AltitudeMeters>988.79998779296875</AltitudeMeters>
            <DistanceMeters>24949.771134189</DistanceMeters>
          </Trackpoint>
          <Trackpoint>
            <Time>2020-03-07T13:51:28.000Z</Time>
            <Position>
              <LatitudeDegrees>40.7058088481426239013671875</LatitudeDegrees>
              <LongitudeDegrees>-3.76902175135910511016845703125</LongitudeDegrees>
            </Position>
            <AltitudeMeters>988.4000244140625</AltitudeMeters>
            <DistanceMeters>24962.6218944</DistanceMeters>
          </Trackpoint>
          <Trackpoint>
            <Time>2020-03-07T13:51:29.000Z</Time>
            <Position>
              <LatitudeDegrees>40.70591923780739307403564453125</LatitudeDegrees>
              <LongitudeDegrees>-3.76905544660985469818115234375</LongitudeDegrees>
            </Position>
            <AltitudeMeters>988.20001220703125</AltitudeMeters>
            <DistanceMeters>24975.232909678</DistanceMeters>
          </Trackpoint>
          <Trackpoint>
            <Time>2020-03-07T13:51:30.000Z</Time>
            <Position>
              <LatitudeDegrees>40.70602945983409881591796875</LatitudeDegrees>
              <LongitudeDegrees>-3.76908796839416027069091796875</LongitudeDegrees>
            </Position>
            <AltitudeMeters>988.20001220703125</AltitudeMeters>
            <DistanceMeters>24987.804121546</DistanceMeters>
          </Trackpoint>
          <Trackpoint>
            <Time>2020-03-07T13:51:31.000Z</Time>
            <Position>
              <LatitudeDegrees>40.70613917894661426544189453125</LatitudeDegrees>
              <LongitudeDegrees>-3.76911898143589496612548828125</LongitudeDegrees>
            </Position>
            <AltitudeMeters>988</AltitudeMeters>
            <DistanceMeters>25000.293177172</DistanceMeters>
          </Trackpoint>
          <Trackpoint>
            <Time>2020-03-07T13:51:32.000Z</Time>
            <Position>
              <LatitudeDegrees>40.70624847896397113800048828125</LatitudeDegrees>
              <LongitudeDegrees>-3.7691462226212024688720703125</LongitudeDegrees>
            </Position>
            <AltitudeMeters>988</AltitudeMeters>
            <DistanceMeters>25012.673666563</DistanceMeters>
          </Trackpoint>
          <Trackpoint>
            <Time>2020-03-07T13:51:33.000Z</Time>
            <Position>
              <LatitudeDegrees>40.706357695162296295166015625</LatitudeDegrees>
              <LongitudeDegrees>-3.76916684210300445556640625</LongitudeDegrees>
            </Position>
            <AltitudeMeters>988</AltitudeMeters>
            <DistanceMeters>25024.953456729</DistanceMeters>
          </Trackpoint>
          <Trackpoint>
            <Time>2020-03-07T13:51:34.000Z</Time>
            <Position>
              <LatitudeDegrees>40.70646590553224086761474609375</LatitudeDegrees>
              <LongitudeDegrees>-3.7691782414913177490234375</LongitudeDegrees>
            </Position>
            <AltitudeMeters>988</AltitudeMeters>
            <DistanceMeters>25037.035683999</DistanceMeters>
          </Trackpoint>
          <Trackpoint>
            <Time>2020-03-07T13:51:35.000Z</Time>
            <Position>
              <LatitudeDegrees>40.7065717689692974090576171875</LatitudeDegrees>
              <LongitudeDegrees>-3.76917983405292034149169921875</LongitudeDegrees>
            </Position>
            <AltitudeMeters>988</AltitudeMeters>
            <DistanceMeters>25048.818996581</DistanceMeters>
          </Trackpoint>
          <Trackpoint>
            <Time>2020-03-07T13:51:36.000Z</Time>
            <Position>
              <LatitudeDegrees>40.70667562074959278106689453125</LatitudeDegrees>
              <LongitudeDegrees>-3.76916876994073390960693359375</LongitudeDegrees>
            </Position>
            <AltitudeMeters>988</AltitudeMeters>
            <DistanceMeters>25060.415370945</DistanceMeters>
          </Trackpoint>
          <Trackpoint>
            <Time>2020-03-07T13:51:37.000Z</Time>
            <Position>
              <LatitudeDegrees>40.7067746110260486602783203125</LatitudeDegrees>
              <LongitudeDegrees>-3.76914060674607753753662109375</LongitudeDegrees>
            </Position>
            <AltitudeMeters>988</AltitudeMeters>
            <DistanceMeters>25071.686356502</DistanceMeters>
          </Trackpoint>
          <Trackpoint>
            <Time>2020-03-07T13:51:38.000Z</Time>
            <Position>
              <LatitudeDegrees>40.70686605758965015411376953125</LatitudeDegrees>
              <LongitudeDegrees>-3.7690979428589344024658203125</LongitudeDegrees>
            </Position>
            <AltitudeMeters>988</AltitudeMeters>
            <DistanceMeters>25082.482244453</DistanceMeters>
          </Trackpoint>
          <Trackpoint>
            <Time>2020-03-07T13:51:39.000Z</Time>
            <Position>
              <LatitudeDegrees>40.706950128078460693359375</LatitudeDegrees>
              <LongitudeDegrees>-3.7690468132495880126953125</LongitudeDegrees>
            </Position>
            <AltitudeMeters>988</AltitudeMeters>
            <DistanceMeters>25092.785962654</DistanceMeters>
          </Trackpoint>
          <Trackpoint>
            <Time>2020-03-07T13:51:40.000Z</Time>
            <Position>
              <LatitudeDegrees>40.707026906311511993408203125</LatitudeDegrees>
              <LongitudeDegrees>-3.7689889781177043914794921875</LongitudeDegrees>
            </Position>
            <AltitudeMeters>988</AltitudeMeters>
            <DistanceMeters>25102.626620141</DistanceMeters>
          </Trackpoint>
          <Trackpoint>
            <Time>2020-03-07T13:51:41.000Z</Time>
            <Position>
              <LatitudeDegrees>40.7070984877645969390869140625</LatitudeDegrees>
              <LongitudeDegrees>-3.76892820931971073150634765625</LongitudeDegrees>
            </Position>
            <AltitudeMeters>988</AltitudeMeters>
            <DistanceMeters>25112.100740673</DistanceMeters>
          </Trackpoint>
          <Trackpoint>
            <Time>2020-03-07T13:51:42.000Z</Time>
            <Position>
              <LatitudeDegrees>40.7071665488183498382568359375</LatitudeDegrees>
              <LongitudeDegrees>-3.7688669376075267791748046875</LongitudeDegrees>
            </Position>
            <AltitudeMeters>988</AltitudeMeters>
            <DistanceMeters>25121.27168021</DistanceMeters>
          </Trackpoint>
          <Trackpoint>
            <Time>2020-03-07T13:51:43.000Z</Time>
            <Position>
              <LatitudeDegrees>40.70723243057727813720703125</LatitudeDegrees>
              <LongitudeDegrees>-3.76880767755210399627685546875</LongitudeDegrees>
            </Position>
            <AltitudeMeters>988</AltitudeMeters>
            <DistanceMeters>25130.147399161</DistanceMeters>
          </Trackpoint>
          <Trackpoint>
            <Time>2020-03-07T13:51:44.000Z</Time>
            <Position>
              <LatitudeDegrees>40.7072974741458892822265625</LatitudeDegrees>
              <LongitudeDegrees>-3.76874975860118865966796875</LongitudeDegrees>
            </Position>
            <AltitudeMeters>988.5999755859375</AltitudeMeters>
            <DistanceMeters>25138.882623598</DistanceMeters>
          </Trackpoint>
          <Trackpoint>
            <Time>2020-03-07T13:51:45.000Z</Time>
            <Position>
              <LatitudeDegrees>40.70735983550548553466796875</LatitudeDegrees>
              <LongitudeDegrees>-3.76869133673608303070068359375</LongitudeDegrees>
            </Position>
            <AltitudeMeters>989</AltitudeMeters>
            <DistanceMeters>25147.395341346</DistanceMeters>
          </Trackpoint>
          <Trackpoint>
            <Time>2020-03-07T13:51:46.000Z</Time>
            <Position>
              <LatitudeDegrees>40.70742018520832061767578125</LatitudeDegrees>
              <LongitudeDegrees>-3.76863249577581882476806640625</LongitudeDegrees>
            </Position>
            <AltitudeMeters>989.4000244140625</AltitudeMeters>
            <DistanceMeters>25155.747967915</DistanceMeters>
          </Trackpoint>
          <Trackpoint>
            <Time>2020-03-07T13:51:47.000Z</Time>
            <Position>
              <LatitudeDegrees>40.7074796967208385467529296875</LatitudeDegrees>
              <LongitudeDegrees>-3.768573738634586334228515625</LongitudeDegrees>
            </Position>
            <AltitudeMeters>989.79998779296875</AltitudeMeters>
            <DistanceMeters>25164.02129732</DistanceMeters>
          </Trackpoint>
          <Trackpoint>
            <Time>2020-03-07T13:51:48.000Z</Time>
            <Position>
              <LatitudeDegrees>40.7075387053191661834716796875</LatitudeDegrees>
              <LongitudeDegrees>-3.7685162387788295745849609375</LongitudeDegrees>
            </Position>
            <AltitudeMeters>990.4000244140625</AltitudeMeters>
            <DistanceMeters>25172.186962294</DistanceMeters>
          </Trackpoint>
          <Trackpoint>
            <Time>2020-03-07T13:51:49.000Z</Time>
            <Position>
              <LatitudeDegrees>40.707596205174922943115234375</LatitudeDegrees>
              <LongitudeDegrees>-3.7684605829417705535888671875</LongitudeDegrees>
            </Position>
            <AltitudeMeters>991</AltitudeMeters>
            <DistanceMeters>25180.124964147</DistanceMeters>
          </Trackpoint>
          <Trackpoint>
            <Time>2020-03-07T13:51:50.000Z</Time>
            <Position>
              <LatitudeDegrees>40.70765295065939426422119140625</LatitudeDegrees>
              <LongitudeDegrees>-3.76840668730437755584716796875</LongitudeDegrees>
            </Position>
            <AltitudeMeters>991.4000244140625</AltitudeMeters>
            <DistanceMeters>25187.907878305</DistanceMeters>
          </Trackpoint>
          <Trackpoint>
            <Time>2020-03-07T13:51:51.000Z</Time>
            <Position>
              <LatitudeDegrees>40.70770860649645328521728515625</LatitudeDegrees>
              <LongitudeDegrees>-3.76835346221923828125</LongitudeDegrees>
            </Position>
            <AltitudeMeters>992</AltitudeMeters>
            <DistanceMeters>25195.558561641</DistanceMeters>
          </Trackpoint>
          <Trackpoint>
            <Time>2020-03-07T13:51:52.000Z</Time>
            <Position>
              <LatitudeDegrees>40.70776342414319515228271484375</LatitudeDegrees>
              <LongitudeDegrees>-3.76830291934311389923095703125</LongitudeDegrees>
            </Position>
            <AltitudeMeters>992.20001220703125</AltitudeMeters>
            <DistanceMeters>25203.002253538</DistanceMeters>
          </Trackpoint>
          <Trackpoint>
            <Time>2020-03-07T13:51:53.000Z</Time>
            <Position>
              <LatitudeDegrees>40.70781656540930271148681640625</LatitudeDegrees>
              <LongitudeDegrees>-3.7682530470192432403564453125</LongitudeDegrees>
            </Position>
            <AltitudeMeters>992.5999755859375</AltitudeMeters>
            <DistanceMeters>25210.260453451</DistanceMeters>
          </Trackpoint>
          <Trackpoint>
            <Time>2020-03-07T13:51:54.000Z</Time>
            <Position>
              <LatitudeDegrees>40.70786836557090282440185546875</LatitudeDegrees>
              <LongitudeDegrees>-3.768203258514404296875</LongitudeDegrees>
            </Position>
            <AltitudeMeters>993.20001220703125</AltitudeMeters>
            <DistanceMeters>25217.394422251</DistanceMeters>
          </Trackpoint>
          <Trackpoint>
            <Time>2020-03-07T13:51:55.000Z</Time>
            <Position>
              <LatitudeDegrees>40.70791932754218578338623046875</LatitudeDegrees>
              <LongitudeDegrees>-3.76815506257116794586181640625</LongitudeDegrees>
            </Position>
            <AltitudeMeters>993.5999755859375</AltitudeMeters>
            <DistanceMeters>25224.374197492</DistanceMeters>
          </Trackpoint>
          <Trackpoint>
            <Time>2020-03-07T13:51:56.000Z</Time>
            <Position>
              <LatitudeDegrees>40.70796894840896129608154296875</LatitudeDegrees>
              <LongitudeDegrees>-3.7681066989898681640625</LongitudeDegrees>
            </Position>
            <AltitudeMeters>994</AltitudeMeters>
            <DistanceMeters>25231.241151634</DistanceMeters>
          </Trackpoint>
          <Trackpoint>
            <Time>2020-03-07T13:51:57.000Z</Time>
            <Position>
              <LatitudeDegrees>40.70801789872348308563232421875</LatitudeDegrees>
              <LongitudeDegrees>-3.76805934123694896697998046875</LongitudeDegrees>
            </Position>
            <AltitudeMeters>994.4000244140625</AltitudeMeters>
            <DistanceMeters>25237.996742382</DistanceMeters>
          </Trackpoint>
          <Trackpoint>
            <Time>2020-03-07T13:51:58.000Z</Time>
            <Position>
              <LatitudeDegrees>40.70806668139994144439697265625</LatitudeDegrees>
              <LongitudeDegrees>-3.7680133245885372161865234375</LongitudeDegrees>
            </Position>
            <AltitudeMeters>994.5999755859375</AltitudeMeters>
            <DistanceMeters>25244.670297433</DistanceMeters>
          </Trackpoint>
          <Trackpoint>
            <Time>2020-03-07T13:51:59.000Z</Time>
            <Position>
              <LatitudeDegrees>40.708115212619304656982421875</LatitudeDegrees>
              <LongitudeDegrees>-3.76796680502593517303466796875</LongitudeDegrees>
            </Position>
            <AltitudeMeters>994.79998779296875</AltitudeMeters>
            <DistanceMeters>25251.347234411</DistanceMeters>
          </Trackpoint>
          <Trackpoint>
            <Time>2020-03-07T13:52:00.000Z</Time>
            <Position>
              <LatitudeDegrees>40.70816315710544586181640625</LatitudeDegrees>
              <LongitudeDegrees>-3.76792003400623798370361328125</LongitudeDegrees>
            </Position>
            <AltitudeMeters>995</AltitudeMeters>
            <DistanceMeters>25257.984154848</DistanceMeters>
          </Trackpoint>
          <Trackpoint>
            <Time>2020-03-07T13:52:01.000Z</Time>
            <Position>
              <LatitudeDegrees>40.7082112692296504974365234375</LatitudeDegrees>
              <LongitudeDegrees>-3.76787410117685794830322265625</LongitudeDegrees>
            </Position>
            <AltitudeMeters>995.4000244140625</AltitudeMeters>
            <DistanceMeters>25264.593807625</DistanceMeters>
          </Trackpoint>
          <Trackpoint>
            <Time>2020-03-07T13:52:02.000Z</Time>
            <Position>
              <LatitudeDegrees>40.70826013572514057159423828125</LatitudeDegrees>
              <LongitudeDegrees>-3.76782900653779506683349609375</LongitudeDegrees>
            </Position>
            <AltitudeMeters>995.79998779296875</AltitudeMeters>
            <DistanceMeters>25271.230728063</DistanceMeters>
          </Trackpoint>
          <Trackpoint>
            <Time>2020-03-07T13:52:03.000Z</Time>
            <Position>
              <LatitudeDegrees>40.70830942131578922271728515625</LatitudeDegrees>
              <LongitudeDegrees>-3.76778475008904933929443359375</LongitudeDegrees>
            </Position>
            <AltitudeMeters>996</AltitudeMeters>
            <DistanceMeters>25277.866287779</DistanceMeters>
          </Trackpoint>
          <Trackpoint>
            <Time>2020-03-07T13:52:04.000Z</Time>
            <Position>
              <LatitudeDegrees>40.7083597965538501739501953125</LatitudeDegrees>
              <LongitudeDegrees>-3.7677434273064136505126953125</LongitudeDegrees>
            </Position>
            <AltitudeMeters>996.20001220703125</AltitudeMeters>
            <DistanceMeters>25284.469106046</DistanceMeters>
          </Trackpoint>
          <Trackpoint>
            <Time>2020-03-07T13:52:05.000Z</Time>
            <Position>
              <LatitudeDegrees>40.70841000415384769439697265625</LatitudeDegrees>
              <LongitudeDegrees>-3.76770394854247570037841796875</LongitudeDegrees>
            </Position>
            <AltitudeMeters>996.79998779296875</AltitudeMeters>
            <DistanceMeters>25290.974099375</DistanceMeters>
          </Trackpoint>
          <Trackpoint>
            <Time>2020-03-07T13:52:06.000Z</Time>
            <Position>
              <LatitudeDegrees>40.7084610499441623687744140625</LatitudeDegrees>
              <LongitudeDegrees>-3.76766681671142578125</LongitudeDegrees>
            </Position>
            <AltitudeMeters>997.20001220703125</AltitudeMeters>
            <DistanceMeters>25297.462413207</DistanceMeters>
          </Trackpoint>
          <Trackpoint>
            <Time>2020-03-07T13:52:07.000Z</Time>
            <Position>
              <LatitudeDegrees>40.70851209573447704315185546875</LatitudeDegrees>
              <LongitudeDegrees>-3.767634294927120208740234375</LongitudeDegrees>
            </Position>
            <AltitudeMeters>997.5999755859375</AltitudeMeters>
            <DistanceMeters>25303.772931183</DistanceMeters>
          </Trackpoint>
          <Trackpoint>
            <Time>2020-03-07T13:52:08.000Z</Time>
            <Position>
              <LatitudeDegrees>40.708564482629299163818359375</LatitudeDegrees>
              <LongitudeDegrees>-3.76760588027536869049072265625</LongitudeDegrees>
            </Position>
            <AltitudeMeters>998</AltitudeMeters>
            <DistanceMeters>25310.078438822</DistanceMeters>
          </Trackpoint>
          <Trackpoint>
            <Time>2020-03-07T13:52:09.000Z</Time>
            <Position>
              <LatitudeDegrees>40.70861787535250186920166015625</LatitudeDegrees>
              <LongitudeDegrees>-3.76758391968905925750732421875</LongitudeDegrees>
            </Position>
            <AltitudeMeters>998.20001220703125</AltitudeMeters>
            <DistanceMeters>25316.303232635</DistanceMeters>
          </Trackpoint>
          <Trackpoint>
            <Time>2020-03-07T13:52:10.000Z</Time>
            <Position>
              <LatitudeDegrees>40.708672106266021728515625</LatitudeDegrees>
              <LongitudeDegrees>-3.76756849698722362518310546875</LongitudeDegrees>
            </Position>
            <AltitudeMeters>998.4000244140625</AltitudeMeters>
            <DistanceMeters>25322.477775756</DistanceMeters>
          </Trackpoint>
          <Trackpoint>
            <Time>2020-03-07T13:52:11.000Z</Time>
            <Position>
              <LatitudeDegrees>40.70872616954147815704345703125</LatitudeDegrees>
              <LongitudeDegrees>-3.76755910925567150115966796875</LongitudeDegrees>
            </Position>
            <AltitudeMeters>998.79998779296875</AltitudeMeters>
            <DistanceMeters>25328.547595513</DistanceMeters>
          </Trackpoint>
          <Trackpoint>
            <Time>2020-03-07T13:52:12.000Z</Time>
            <Position>
              <LatitudeDegrees>40.70877998135983943939208984375</LatitudeDegrees>
              <LongitudeDegrees>-3.76755525358021259307861328125</LongitudeDegrees>
            </Position>
            <AltitudeMeters>999.5999755859375</AltitudeMeters>
            <DistanceMeters>25334.545580554</DistanceMeters>
          </Trackpoint>
          <Trackpoint>
            <Time>2020-03-07T13:52:13.000Z</Time>
            <Position>
              <LatitudeDegrees>40.70883312262594699859619140625</LatitudeDegrees>
              <LongitudeDegrees>-3.7675563432276248931884765625</LongitudeDegrees>
            </Position>
            <AltitudeMeters>999.79998779296875</AltitudeMeters>
            <DistanceMeters>25340.46094582</DistanceMeters>
          </Trackpoint>
          <Trackpoint>
            <Time>2020-03-07T13:52:14.000Z</Time>
            <Position>
              <LatitudeDegrees>40.70888576097786426544189453125</LatitudeDegrees>
              <LongitudeDegrees>-3.76756028272211551666259765625</LongitudeDegrees>
            </Position>
            <AltitudeMeters>1000.20001220703125</AltitudeMeters>
            <DistanceMeters>25346.328797341</DistanceMeters>
          </Trackpoint>
          <Trackpoint>
            <Time>2020-03-07T13:52:15.000Z</Time>
            <Position>
              <LatitudeDegrees>40.7089381478726863861083984375</LatitudeDegrees>
              <LongitudeDegrees>-3.76756749115884304046630859375</LongitudeDegrees>
            </Position>
            <AltitudeMeters>1000.5999755859375</AltitudeMeters>
            <DistanceMeters>25352.191260215</DistanceMeters>
          </Trackpoint>
          <Trackpoint>
            <Time>2020-03-07T13:52:16.000Z</Time>
            <Position>
              <LatitudeDegrees>40.70898969657719135284423828125</LatitudeDegrees>
              <LongitudeDegrees>-3.767578303813934326171875</LongitudeDegrees>
            </Position>
            <AltitudeMeters>1001</AltitudeMeters>
            <DistanceMeters>25358.001116129</DistanceMeters>
          </Trackpoint>
          <Trackpoint>
            <Time>2020-03-07T13:52:17.000Z</Time>
            <Position>
              <LatitudeDegrees>40.70904132910072803497314453125</LatitudeDegrees>
              <LongitudeDegrees>-3.76759028993546962738037109375</LongitudeDegrees>
            </Position>
            <AltitudeMeters>1001.4000244140625</AltitudeMeters>
            <DistanceMeters>25363.835787345</DistanceMeters>
          </Trackpoint>
          <Trackpoint>
            <Time>2020-03-07T13:52:18.000Z</Time>
            <Position>
              <LatitudeDegrees>40.70909262634813785552978515625</LatitudeDegrees>
              <LongitudeDegrees>-3.767602443695068359375</LongitudeDegrees>
            </Position>
            <AltitudeMeters>1001.79998779296875</AltitudeMeters>
            <DistanceMeters>25369.637866712</DistanceMeters>
          </Trackpoint>
          <Trackpoint>
            <Time>2020-03-07T13:52:19.000Z</Time>
            <Position>
              <LatitudeDegrees>40.70914492942392826080322265625</LatitudeDegrees>
              <LongitudeDegrees>-3.76761493273079395294189453125</LongitudeDegrees>
            </Position>
            <AltitudeMeters>1002</AltitudeMeters>
            <DistanceMeters>25375.553995201</DistanceMeters>
          </Trackpoint>
          <Trackpoint>
            <Time>2020-03-07T13:52:20.000Z</Time>
            <Position>
              <LatitudeDegrees>40.7091976515948772430419921875</LatitudeDegrees>
              <LongitudeDegrees>-3.76762649975717067718505859375</LongitudeDegrees>
            </Position>
            <AltitudeMeters>1002</AltitudeMeters>
            <DistanceMeters>25381.502849678</DistanceMeters>
          </Trackpoint>
          <Trackpoint>
            <Time>2020-03-07T13:52:21.000Z</Time>
            <Position>
              <LatitudeDegrees>40.70924970321357250213623046875</LatitudeDegrees>
              <LongitudeDegrees>-3.76763672567903995513916015625</LongitudeDegrees>
            </Position>
            <AltitudeMeters>1002.20001220703125</AltitudeMeters>
            <DistanceMeters>25387.359148025</DistanceMeters>
          </Trackpoint>
          <Trackpoint>
            <Time>2020-03-07T13:52:22.000Z</Time>
            <Position>
              <LatitudeDegrees>40.70930116809904575347900390625</LatitudeDegrees>
              <LongitudeDegrees>-3.76764628104865550994873046875</LongitudeDegrees>
            </Position>
            <AltitudeMeters>1002.4000244140625</AltitudeMeters>
            <DistanceMeters>25393.143301656</DistanceMeters>
          </Trackpoint>
          <Trackpoint>
            <Time>2020-03-07T13:52:23.000Z</Time>
            <Position>
              <LatitudeDegrees>40.709352381527423858642578125</LatitudeDegrees>
              <LongitudeDegrees>-3.767656423151493072509765625</LongitudeDegrees>
            </Position>
            <AltitudeMeters>1002.4000244140625</AltitudeMeters>
            <DistanceMeters>25398.907907567</DistanceMeters>
          </Trackpoint>
          <Trackpoint>
            <Time>2020-03-07T13:52:24.000Z</Time>
            <Position>
              <LatitudeDegrees>40.70940275676548480987548828125</LatitudeDegrees>
              <LongitudeDegrees>-3.76766614615917205810546875</LongitudeDegrees>
            </Position>
            <AltitudeMeters>1002.5999755859375</AltitudeMeters>
            <DistanceMeters>25404.57456018</DistanceMeters>
          </Trackpoint>
          <Trackpoint>
            <Time>2020-03-07T13:52:25.000Z</Time>
            <Position>
              <LatitudeDegrees>40.7094527967274188995361328125</LatitudeDegrees>
              <LongitudeDegrees>-3.76767545007169246673583984375</LongitudeDegrees>
            </Position>
            <AltitudeMeters>1002.79998779296875</AltitudeMeters>
            <DistanceMeters>25410.19962799</DistanceMeters>
          </Trackpoint>
          <Trackpoint>
            <Time>2020-03-07T13:52:26.000Z</Time>
            <Position>
              <LatitudeDegrees>40.70950149558484554290771484375</LatitudeDegrees>
              <LongitudeDegrees>-3.76768601126968860626220703125</LongitudeDegrees>
            </Position>
            <AltitudeMeters>1003.20001220703125</AltitudeMeters>
            <DistanceMeters>25415.693125553</DistanceMeters>
          </Trackpoint>
          <Trackpoint>
            <Time>2020-03-07T13:52:27.000Z</Time>
            <Position>
              <LatitudeDegrees>40.709548853337764739990234375</LatitudeDegrees>
              <LongitudeDegrees>-3.76769858412444591522216796875</LongitudeDegrees>
            </Position>
            <AltitudeMeters>1003.4000244140625</AltitudeMeters>
            <DistanceMeters>25421.070327871</DistanceMeters>
          </Trackpoint>
          <Trackpoint>
            <Time>2020-03-07T13:52:28.000Z</Time>
            <Position>
              <LatitudeDegrees>40.709597133100032806396484375</LatitudeDegrees>
              <LongitudeDegrees>-3.76770813949406147003173828125</LongitudeDegrees>
            </Position>
            <AltitudeMeters>1003.4000244140625</AltitudeMeters>
            <DistanceMeters>25426.504327316</DistanceMeters>
          </Trackpoint>
          <Trackpoint>
            <Time>2020-03-07T13:52:29.000Z</Time>
            <Position>
              <LatitudeDegrees>40.7096449099481105804443359375</LatitudeDegrees>
              <LongitudeDegrees>-3.7677152641117572784423828125</LongitudeDegrees>
            </Position>
            <AltitudeMeters>1003.4000244140625</AltitudeMeters>
            <DistanceMeters>25431.856280463</DistanceMeters>
          </Trackpoint>
          <Trackpoint>
            <Time>2020-03-07T13:52:30.000Z</Time>
            <Position>
              <LatitudeDegrees>40.70969126187264919281005859375</LatitudeDegrees>
              <LongitudeDegrees>-3.76772155053913593292236328125</LongitudeDegrees>
            </Position>
            <AltitudeMeters>1003.5999755859375</AltitudeMeters>
            <DistanceMeters>25437.042859077</DistanceMeters>
          </Trackpoint>
          <Trackpoint>
            <Time>2020-03-07T13:52:31.000Z</Time>
            <Position>
              <LatitudeDegrees>40.709737949073314666748046875</LatitudeDegrees>
              <LongitudeDegrees>-3.76772515475749969482421875</LongitudeDegrees>
            </Position>
            <AltitudeMeters>1003.79998779296875</AltitudeMeters>
            <DistanceMeters>25442.248553979</DistanceMeters>
          </Trackpoint>
          <Trackpoint>
            <Time>2020-03-07T13:52:32.000Z</Time>
            <Position>
              <LatitudeDegrees>40.7097840495407581329345703125</LatitudeDegrees>
              <LongitudeDegrees>-3.76772607676684856414794921875</LongitudeDegrees>
            </Position>
            <AltitudeMeters>1003.79998779296875</AltitudeMeters>
            <DistanceMeters>25447.380876356</DistanceMeters>
          </Trackpoint>
          <Trackpoint>
            <Time>2020-03-07T13:52:33.000Z</Time>
            <Position>
              <LatitudeDegrees>40.709829144179821014404296875</LatitudeDegrees>
              <LongitudeDegrees>-3.76772507093846797943115234375</LongitudeDegrees>
            </Position>
            <AltitudeMeters>1004.20001220703125</AltitudeMeters>
            <DistanceMeters>25452.402028956</DistanceMeters>
          </Trackpoint>
          <Trackpoint>
            <Time>2020-03-07T13:52:34.000Z</Time>
            <Position>
              <LatitudeDegrees>40.70987482555210590362548828125</LatitudeDegrees>
              <LongitudeDegrees>-3.767721466720104217529296875</LongitudeDegrees>
            </Position>
            <AltitudeMeters>1004.4000244140625</AltitudeMeters>
            <DistanceMeters>25457.495496304</DistanceMeters>
          </Trackpoint>
          <Trackpoint>
            <Time>2020-03-07T13:52:35.000Z</Time>
            <Position>
              <LatitudeDegrees>40.70992092601954936981201171875</LatitudeDegrees>
              <LongitudeDegrees>-3.76771367155015468597412109375</LongitudeDegrees>
            </Position>
            <AltitudeMeters>1004.5999755859375</AltitudeMeters>
            <DistanceMeters>25462.669000589</DistanceMeters>
          </Trackpoint>
          <Trackpoint>
            <Time>2020-03-07T13:52:36.000Z</Time>
            <Position>
              <LatitudeDegrees>40.70996635593473911285400390625</LatitudeDegrees>
              <LongitudeDegrees>-3.767702020704746246337890625</LongitudeDegrees>
            </Position>
            <AltitudeMeters>1004.79998779296875</AltitudeMeters>
            <DistanceMeters>25467.819764085</DistanceMeters>
          </Trackpoint>
          <Trackpoint>
            <Time>2020-03-07T13:52:37.000Z</Time>
            <Position>
              <LatitudeDegrees>40.7100120373070240020751953125</LatitudeDegrees>
              <LongitudeDegrees>-3.76768718473613262176513671875</LongitudeDegrees>
            </Position>
            <AltitudeMeters>1005</AltitudeMeters>
            <DistanceMeters>25473.055727423</DistanceMeters>
          </Trackpoint>
          <Trackpoint>
            <Time>2020-03-07T13:52:38.000Z</Time>
            <Position>
              <LatitudeDegrees>40.71005721576511859893798828125</LatitudeDegrees>
              <LongitudeDegrees>-3.7676716782152652740478515625</LongitudeDegrees>
            </Position>
            <AltitudeMeters>1005.4000244140625</AltitudeMeters>
            <DistanceMeters>25478.251872972</DistanceMeters>
          </Trackpoint>
          <Trackpoint>
            <Time>2020-03-07T13:52:39.000Z</Time>
            <Position>
              <LatitudeDegrees>40.7101018913090229034423828125</LatitudeDegrees>
              <LongitudeDegrees>-3.767653405666351318359375</LongitudeDegrees>
            </Position>
            <AltitudeMeters>1005.5999755859375</AltitudeMeters>
            <DistanceMeters>25483.456700475</DistanceMeters>
          </Trackpoint>
          <Trackpoint>
            <Time>2020-03-07T13:52:40.000Z</Time>
            <Position>
              <LatitudeDegrees>40.7101458124816417694091796875</LatitudeDegrees>
              <LongitudeDegrees>-3.76763203181326389312744140625</LongitudeDegrees>
            </Position>
            <AltitudeMeters>1005.79998779296875</AltitudeMeters>
            <DistanceMeters>25488.666730205</DistanceMeters>
          </Trackpoint>
          <Trackpoint>
            <Time>2020-03-07T13:52:41.000Z</Time>
            <Position>
              <LatitudeDegrees>40.7101890631020069122314453125</LatitudeDegrees>
              <LongitudeDegrees>-3.767610490322113037109375</LongitudeDegrees>
            </Position>
            <AltitudeMeters>1006.4000244140625</AltitudeMeters>
            <DistanceMeters>25493.812231554</DistanceMeters>
          </Trackpoint>
          <Trackpoint>
            <Time>2020-03-07T13:52:42.000Z</Time>
            <Position>
              <LatitudeDegrees>40.71023256517946720123291015625</LatitudeDegrees>
              <LongitudeDegrees>-3.76758836209774017333984375</LongitudeDegrees>
            </Position>
            <AltitudeMeters>1006.5999755859375</AltitudeMeters>
            <DistanceMeters>25499.001421082</DistanceMeters>
          </Trackpoint>
          <Trackpoint>
            <Time>2020-03-07T13:52:43.000Z</Time>
            <Position>
              <LatitudeDegrees>40.71027665399014949798583984375</LatitudeDegrees>
              <LongitudeDegrees>-3.7675660662353038787841796875</LongitudeDegrees>
            </Position>
            <AltitudeMeters>1006.79998779296875</AltitudeMeters>
            <DistanceMeters>25504.256321059</DistanceMeters>
          </Trackpoint>
          <Trackpoint>
            <Time>2020-03-07T13:52:44.000Z</Time>
            <Position>
              <LatitudeDegrees>40.7103211618959903717041015625</LatitudeDegrees>
              <LongitudeDegrees>-3.76754335127770900726318359375</LongitudeDegrees>
            </Position>
            <AltitudeMeters>1007</AltitudeMeters>
            <DistanceMeters>25509.567625871</DistanceMeters>
          </Trackpoint>
          <Trackpoint>
            <Time>2020-03-07T13:52:45.000Z</Time>
            <Position>
              <LatitudeDegrees>40.71036650799214839935302734375</LatitudeDegrees>
              <LongitudeDegrees>-3.76752038486301898956298828125</LongitudeDegrees>
            </Position>
            <AltitudeMeters>1007.4000244140625</AltitudeMeters>
            <DistanceMeters>25514.973301349</DistanceMeters>
          </Trackpoint>
          <Trackpoint>
            <Time>2020-03-07T13:52:46.000Z</Time>
            <Position>
              <LatitudeDegrees>40.71041160263121128082275390625</LatitudeDegrees>
              <LongitudeDegrees>-3.76749708317220211029052734375</LongitudeDegrees>
            </Position>
            <AltitudeMeters>1007.5999755859375</AltitudeMeters>
            <DistanceMeters>25520.363921536</DistanceMeters>
          </Trackpoint>
          <Trackpoint>
            <Time>2020-03-07T13:52:47.000Z</Time>
            <Position>
              <LatitudeDegrees>40.710456781089305877685546875</LatitudeDegrees>
              <LongitudeDegrees>-3.767474032938480377197265625</LongitudeDegrees>
            </Position>
            <AltitudeMeters>1007.79998779296875</AltitudeMeters>
            <DistanceMeters>25525.756216609</DistanceMeters>
          </Trackpoint>
          <Trackpoint>
            <Time>2020-03-07T13:52:48.000Z</Time>
            <Position>
              <LatitudeDegrees>40.7105022110044956207275390625</LatitudeDegrees>
              <LongitudeDegrees>-3.767452575266361236572265625</LongitudeDegrees>
            </Position>
            <AltitudeMeters>1008</AltitudeMeters>
            <DistanceMeters>25531.126697421</DistanceMeters>
          </Trackpoint>
          <Trackpoint>
            <Time>2020-03-07T13:52:49.000Z</Time>
            <Position>
              <LatitudeDegrees>40.71054738946259021759033203125</LatitudeDegrees>
              <LongitudeDegrees>-3.76743136905133724212646484375</LongitudeDegrees>
            </Position>
            <AltitudeMeters>1008.4000244140625</AltitudeMeters>
            <DistanceMeters>25536.465135513</DistanceMeters>
          </Trackpoint>
          <Trackpoint>
            <Time>2020-03-07T13:52:50.000Z</Time>
            <Position>
              <LatitudeDegrees>40.7105924002826213836669921875</LatitudeDegrees>
              <LongitudeDegrees>-3.76740840263664722442626953125</LongitudeDegrees>
            </Position>
            <AltitudeMeters>1008.5999755859375</AltitudeMeters>
            <DistanceMeters>25541.835616326</DistanceMeters>
          </Trackpoint>
          <Trackpoint>
            <Time>2020-03-07T13:52:51.000Z</Time>
            <Position>
              <LatitudeDegrees>40.71063774637877941131591796875</LatitudeDegrees>
              <LongitudeDegrees>-3.76738459803164005279541015625</LongitudeDegrees>
            </Position>
            <AltitudeMeters>1008.79998779296875</AltitudeMeters>
            <DistanceMeters>25547.266291207</DistanceMeters>
          </Trackpoint>
          <Trackpoint>
            <Time>2020-03-07T13:52:52.000Z</Time>
            <Position>
              <LatitudeDegrees>40.71068401448428630828857421875</LatitudeDegrees>
              <LongitudeDegrees>-3.76736079342663288116455078125</LongitudeDegrees>
            </Position>
            <AltitudeMeters>1008.79998779296875</AltitudeMeters>
            <DistanceMeters>25552.792566493</DistanceMeters>
          </Trackpoint>
          <Trackpoint>
            <Time>2020-03-07T13:52:53.000Z</Time>
            <Position>
              <LatitudeDegrees>40.7107308693230152130126953125</LatitudeDegrees>
              <LongitudeDegrees>-3.767336569726467132568359375</LongitudeDegrees>
            </Position>
            <AltitudeMeters>1009</AltitudeMeters>
            <DistanceMeters>25558.393502626</DistanceMeters>
          </Trackpoint>
          <Trackpoint>
            <Time>2020-03-07T13:52:54.000Z</Time>
            <Position>
              <LatitudeDegrees>40.71077738888561725616455078125</LatitudeDegrees>
              <LongitudeDegrees>-3.767310418188571929931640625</LongitudeDegrees>
            </Position>
            <AltitudeMeters>1009</AltitudeMeters>
            <DistanceMeters>25564.021780175</DistanceMeters>
          </Trackpoint>
          <Trackpoint>
            <Time>2020-03-07T13:52:55.000Z</Time>
            <Position>
              <LatitudeDegrees>40.710823573172092437744140625</LatitudeDegrees>
              <LongitudeDegrees>-3.76728367991745471954345703125</LongitudeDegrees>
            </Position>
            <AltitudeMeters>1009</AltitudeMeters>
            <DistanceMeters>25569.635599444</DistanceMeters>
          </Trackpoint>
          <Trackpoint>
            <Time>2020-03-07T13:52:56.000Z</Time>
            <Position>
              <LatitudeDegrees>40.71087084710597991943359375</LatitudeDegrees>
              <LongitudeDegrees>-3.76725836656987667083740234375</LongitudeDegrees>
            </Position>
            <AltitudeMeters>1009.20001220703125</AltitudeMeters>
            <DistanceMeters>25575.314986124</DistanceMeters>
          </Trackpoint>
          <Trackpoint>
            <Time>2020-03-07T13:52:57.000Z</Time>
            <Position>
              <LatitudeDegrees>40.71091803722083568572998046875</LatitudeDegrees>
              <LongitudeDegrees>-3.76723288558423519134521484375</LongitudeDegrees>
            </Position>
            <AltitudeMeters>1009.4000244140625</AltitudeMeters>
            <DistanceMeters>25580.991191965</DistanceMeters>
          </Trackpoint>
          <Trackpoint>
            <Time>2020-03-07T13:52:58.000Z</Time>
            <Position>
              <LatitudeDegrees>40.710964389145374298095703125</LatitudeDegrees>
              <LongitudeDegrees>-3.76720824278891086578369140625</LongitudeDegrees>
            </Position>
            <AltitudeMeters>1009.5999755859375</AltitudeMeters>
            <DistanceMeters>25586.55329965</DistanceMeters>
          </Trackpoint>
          <Trackpoint>
            <Time>2020-03-07T13:52:59.000Z</Time>
            <Position>
              <LatitudeDegrees>40.7110108248889446258544921875</LatitudeDegrees>
              <LongitudeDegrees>-3.76718393526971340179443359375</LongitudeDegrees>
            </Position>
            <AltitudeMeters>1009.79998779296875</AltitudeMeters>
            <DistanceMeters>25592.113783599</DistanceMeters>
          </Trackpoint>
          <Trackpoint>
            <Time>2020-03-07T13:53:00.000Z</Time>
            <Position>
              <LatitudeDegrees>40.7110579311847686767578125</LatitudeDegrees>
              <LongitudeDegrees>-3.767159879207611083984375</LongitudeDegrees>
            </Position>
            <AltitudeMeters>1009.79998779296875</AltitudeMeters>
            <DistanceMeters>25597.736442901</DistanceMeters>
          </Trackpoint>
          <Trackpoint>
            <Time>2020-03-07T13:53:01.000Z</Time>
            <Position>
              <LatitudeDegrees>40.711104869842529296875</LatitudeDegrees>
              <LongitudeDegrees>-3.7671359069645404815673828125</LongitudeDegrees>
            </Position>
            <AltitudeMeters>1009.79998779296875</AltitudeMeters>
            <DistanceMeters>25603.338991046</DistanceMeters>
          </Trackpoint>
          <Trackpoint>
            <Time>2020-03-07T13:53:02.000Z</Time>
            <Position>
              <LatitudeDegrees>40.711152143776416778564453125</LatitudeDegrees>
              <LongitudeDegrees>-3.76711201854050159454345703125</LongitudeDegrees>
            </Position>
            <AltitudeMeters>1010</AltitudeMeters>
            <DistanceMeters>25608.973682588</DistanceMeters>
          </Trackpoint>
          <Trackpoint>
            <Time>2020-03-07T13:53:03.000Z</Time>
            <Position>
              <LatitudeDegrees>40.71119916625320911407470703125</LatitudeDegrees>
              <LongitudeDegrees>-3.76708804629743099212646484375</LongitudeDegrees>
            </Position>
            <AltitudeMeters>1010</AltitudeMeters>
            <DistanceMeters>25614.584283847</DistanceMeters>
          </Trackpoint>
          <Trackpoint>
            <Time>2020-03-07T13:53:04.000Z</Time>
            <Position>
              <LatitudeDegrees>40.7112471945583820343017578125</LatitudeDegrees>
              <LongitudeDegrees>-3.76706264913082122802734375</LongitudeDegrees>
            </Position>
            <AltitudeMeters>1010.20001220703125</AltitudeMeters>
            <DistanceMeters>25620.342620473</DistanceMeters>
          </Trackpoint>
          <Trackpoint>
            <Time>2020-03-07T13:53:05.000Z</Time>
            <Position>
              <LatitudeDegrees>40.71129597723484039306640625</LatitudeDegrees>
              <LongitudeDegrees>-3.76703708432614803314208984375</LongitudeDegrees>
            </Position>
            <AltitudeMeters>1010.20001220703125</AltitudeMeters>
            <DistanceMeters>25626.185024855</DistanceMeters>
          </Trackpoint>
          <Trackpoint>
            <Time>2020-03-07T13:53:06.000Z</Time>
            <Position>
              <LatitudeDegrees>40.71134450845420360565185546875</LatitudeDegrees>
              <LongitudeDegrees>-3.76701302826404571533203125</LongitudeDegrees>
            </Position>
            <AltitudeMeters>1010.4000244140625</AltitudeMeters>
            <DistanceMeters>25631.955110803</DistanceMeters>
          </Trackpoint>
          <Trackpoint>
            <Time>2020-03-07T13:53:07.000Z</Time>
            <Position>
              <LatitudeDegrees>40.71139345876872539520263671875</LatitudeDegrees>
              <LongitudeDegrees>-3.7669880501925945281982421875</LongitudeDegrees>
            </Position>
            <AltitudeMeters>1010.5999755859375</AltitudeMeters>
            <DistanceMeters>25637.797515185</DistanceMeters>
          </Trackpoint>
          <Trackpoint>
            <Time>2020-03-07T13:53:08.000Z</Time>
            <Position>
              <LatitudeDegrees>40.71144207380712032318115234375</LatitudeDegrees>
              <LongitudeDegrees>-3.76696231774985790252685546875</LongitudeDegrees>
            </Position>
            <AltitudeMeters>1010.5999755859375</AltitudeMeters>
            <DistanceMeters>25643.629090262</DistanceMeters>
          </Trackpoint>
          <Trackpoint>
            <Time>2020-03-07T13:53:09.000Z</Time>
            <Position>
              <LatitudeDegrees>40.7114909403026103973388671875</LatitudeDegrees>
              <LongitudeDegrees>-3.7669367529451847076416015625</LongitudeDegrees>
            </Position>
            <AltitudeMeters>1011</AltitudeMeters>
            <DistanceMeters>25649.480760953</DistanceMeters>
          </Trackpoint>
          <Trackpoint>
            <Time>2020-03-07T13:53:10.000Z</Time>
            <Position>
              <LatitudeDegrees>40.711539722979068756103515625</LatitudeDegrees>
              <LongitudeDegrees>-3.76691169105470180511474609375</LongitudeDegrees>
            </Position>
            <AltitudeMeters>1011.20001220703125</AltitudeMeters>
            <DistanceMeters>25655.30768874</DistanceMeters>
          </Trackpoint>
          <Trackpoint>
            <Time>2020-03-07T13:53:11.000Z</Time>
            <Position>
              <LatitudeDegrees>40.71158959530293941497802734375</LatitudeDegrees>
              <LongitudeDegrees>-3.76688520424067974090576171875</LongitudeDegrees>
            </Position>
            <AltitudeMeters>1011.4000244140625</AltitudeMeters>
            <DistanceMeters>25661.292108777</DistanceMeters>
          </Trackpoint>
          <Trackpoint>
            <Time>2020-03-07T13:53:12.000Z</Time>
            <Position>
              <LatitudeDegrees>40.71163929998874664306640625</LatitudeDegrees>
              <LongitudeDegrees>-3.7668576277792453765869140625</LongitudeDegrees>
            </Position>
            <AltitudeMeters>1011.5999755859375</AltitudeMeters>
            <DistanceMeters>25667.293104099</DistanceMeters>
          </Trackpoint>
          <Trackpoint>
            <Time>2020-03-07T13:53:13.000Z</Time>
            <Position>
              <LatitudeDegrees>40.71168950758874416351318359375</LatitudeDegrees>
              <LongitudeDegrees>-3.76683063805103302001953125</LongitudeDegrees>
            </Position>
            <AltitudeMeters>1011.79998779296875</AltitudeMeters>
            <DistanceMeters>25673.327113398</DistanceMeters>
          </Trackpoint>
          <Trackpoint>
            <Time>2020-03-07T13:53:14.000Z</Time>
            <Position>
              <LatitudeDegrees>40.71173996664583683013916015625</LatitudeDegrees>
              <LongitudeDegrees>-3.76680540852248668670654296875</LongitudeDegrees>
            </Position>
            <AltitudeMeters>1012</AltitudeMeters>
            <DistanceMeters>25679.334124757</DistanceMeters>
          </Trackpoint>
          <Trackpoint>
            <Time>2020-03-07T13:53:15.000Z</Time>
            <Position>
              <LatitudeDegrees>40.71179042570292949676513671875</LatitudeDegrees>
              <LongitudeDegrees>-3.76678026281297206878662109375</LongitudeDegrees>
            </Position>
            <AltitudeMeters>1012.20001220703125</AltitudeMeters>
            <DistanceMeters>25685.336624654</DistanceMeters>
          </Trackpoint>
          <Trackpoint>
            <Time>2020-03-07T13:53:16.000Z</Time>
            <Position>
              <LatitudeDegrees>40.71184046566486358642578125</LatitudeDegrees>
              <LongitudeDegrees>-3.76675528474152088165283203125</LongitudeDegrees>
            </Position>
            <AltitudeMeters>1012.4000244140625</AltitudeMeters>
            <DistanceMeters>25691.292305998</DistanceMeters>
          </Trackpoint>
          <Trackpoint>
            <Time>2020-03-07T13:53:17.000Z</Time>
            <Position>
              <LatitudeDegrees>40.71189017035067081451416015625</LatitudeDegrees>
              <LongitudeDegrees>-3.76672963611781597137451171875</LongitudeDegrees>
            </Position>
            <AltitudeMeters>1012.5999755859375</AltitudeMeters>
            <DistanceMeters>25697.232805871</DistanceMeters>
          </Trackpoint>
          <Trackpoint>
            <Time>2020-03-07T13:53:18.000Z</Time>
            <Position>
              <LatitudeDegrees>40.71194012649357318878173828125</LatitudeDegrees>
              <LongitudeDegrees>-3.766704238951206207275390625</LongitudeDegrees>
            </Position>
            <AltitudeMeters>1012.79998779296875</AltitudeMeters>
            <DistanceMeters>25703.191518868</DistanceMeters>
          </Trackpoint>
          <Trackpoint>
            <Time>2020-03-07T13:53:19.000Z</Time>
            <Position>
              <LatitudeDegrees>40.7119891606271266937255859375</LatitudeDegrees>
              <LongitudeDegrees>-3.7666806019842624664306640625</LongitudeDegrees>
            </Position>
            <AltitudeMeters>1012.79998779296875</AltitudeMeters>
            <DistanceMeters>25709.002151865</DistanceMeters>
          </Trackpoint>
          <Trackpoint>
            <Time>2020-03-07T13:53:20.000Z</Time>
            <Position>
              <LatitudeDegrees>40.71203735657036304473876953125</LatitudeDegrees>
              <LongitudeDegrees>-3.766655288636684417724609375</LongitudeDegrees>
            </Position>
            <AltitudeMeters>1012.79998779296875</AltitudeMeters>
            <DistanceMeters>25714.776148941</DistanceMeters>
          </Trackpoint>
          <Trackpoint>
            <Time>2020-03-07T13:53:21.000Z</Time>
            <Position>
              <LatitudeDegrees>40.71208446286618709564208984375</LatitudeDegrees>
              <LongitudeDegrees>-3.7666293047368526458740234375</LongitudeDegrees>
            </Position>
            <AltitudeMeters>1013</AltitudeMeters>
            <DistanceMeters>25720.458714679</DistanceMeters>
          </Trackpoint>
          <Trackpoint>
            <Time>2020-03-07T13:53:22.000Z</Time>
            <Position>
              <LatitudeDegrees>40.7121308147907257080078125</LatitudeDegrees>
              <LongitudeDegrees>-3.76660323701798915863037109375</LongitudeDegrees>
            </Position>
            <AltitudeMeters>1013.20001220703125</AltitudeMeters>
            <DistanceMeters>25726.066901217</DistanceMeters>
          </Trackpoint>
          <Trackpoint>
            <Time>2020-03-07T13:53:23.000Z</Time>
            <Position>
              <LatitudeDegrees>40.71217699907720088958740234375</LatitudeDegrees>
              <LongitudeDegrees>-3.7665773369371891021728515625</LongitudeDegrees>
            </Position>
            <AltitudeMeters>1013.4000244140625</AltitudeMeters>
            <DistanceMeters>25731.652500032</DistanceMeters>
          </Trackpoint>
          <Trackpoint>
            <Time>2020-03-07T13:53:24.000Z</Time>
            <Position>
              <LatitudeDegrees>40.71222393773496150970458984375</LatitudeDegrees>
              <LongitudeDegrees>-3.76655193977057933807373046875</LongitudeDegrees>
            </Position>
            <AltitudeMeters>1013.5999755859375</AltitudeMeters>
            <DistanceMeters>25737.298398529</DistanceMeters>
          </Trackpoint>
          <Trackpoint>
            <Time>2020-03-07T13:53:25.000Z</Time>
            <Position>
              <LatitudeDegrees>40.71226953528821468353271484375</LatitudeDegrees>
              <LongitudeDegrees>-3.7665263749659061431884765625</LongitudeDegrees>
            </Position>
            <AltitudeMeters>1013.79998779296875</AltitudeMeters>
            <DistanceMeters>25742.813223773</DistanceMeters>
          </Trackpoint>
          <Trackpoint>
            <Time>2020-03-07T13:53:26.000Z</Time>
            <Position>
              <LatitudeDegrees>40.7123147137463092803955078125</LatitudeDegrees>
              <LongitudeDegrees>-3.766500391066074371337890625</LongitudeDegrees>
            </Position>
            <AltitudeMeters>1014</AltitudeMeters>
            <DistanceMeters>25748.298496301</DistanceMeters>
          </Trackpoint>
          <Trackpoint>
            <Time>2020-03-07T13:53:27.000Z</Time>
            <Position>
              <LatitudeDegrees>40.71236022748053073883056640625</LatitudeDegrees>
              <LongitudeDegrees>-3.76647415570914745330810546875</LongitudeDegrees>
            </Position>
            <AltitudeMeters>1014.20001220703125</AltitudeMeters>
            <DistanceMeters>25753.826405371</DistanceMeters>
          </Trackpoint>
          <Trackpoint>
            <Time>2020-03-07T13:53:28.000Z</Time>
            <Position>
              <LatitudeDegrees>40.7124052383005619049072265625</LatitudeDegrees>
              <LongitudeDegrees>-3.7664469145238399505615234375</LongitudeDegrees>
            </Position>
            <AltitudeMeters>1014.4000244140625</AltitudeMeters>
            <DistanceMeters>25759.337954805</DistanceMeters>
          </Trackpoint>
          <Trackpoint>
            <Time>2020-03-07T13:53:29.000Z</Time>
            <Position>
              <LatitudeDegrees>40.7124491594731807708740234375</LatitudeDegrees>
              <LongitudeDegrees>-3.76641565002501010894775390625</LongitudeDegrees>
            </Position>
            <AltitudeMeters>1014.79998779296875</AltitudeMeters>
            <DistanceMeters>25764.891939062</DistanceMeters>
          </Trackpoint>
          <Trackpoint>
            <Time>2020-03-07T13:53:30.000Z</Time>
            <Position>
              <LatitudeDegrees>40.71249282918870449066162109375</LatitudeDegrees>
              <LongitudeDegrees>-3.76638229005038738250732421875</LongitudeDegrees>
            </Position>
            <AltitudeMeters>1015.20001220703125</AltitudeMeters>
            <DistanceMeters>25770.508170629</DistanceMeters>
          </Trackpoint>
          <Trackpoint>
            <Time>2020-03-07T13:53:31.000Z</Time>
            <Position>
              <LatitudeDegrees>40.71253524161875247955322265625</LatitudeDegrees>
              <LongitudeDegrees>-3.76634624786674976348876953125</LongitudeDegrees>
            </Position>
            <AltitudeMeters>1015.4000244140625</AltitudeMeters>
            <DistanceMeters>25776.123598213</DistanceMeters>
          </Trackpoint>
          <Trackpoint>
            <Time>2020-03-07T13:53:32.000Z</Time>
            <Position>
              <LatitudeDegrees>40.7125768996775150299072265625</LatitudeDegrees>
              <LongitudeDegrees>-3.76630752347409725189208984375</LongitudeDegrees>
            </Position>
            <AltitudeMeters>1015.5999755859375</AltitudeMeters>
            <DistanceMeters>25781.796621432</DistanceMeters>
          </Trackpoint>
          <Trackpoint>
            <Time>2020-03-07T13:53:33.000Z</Time>
            <Position>
              <LatitudeDegrees>40.712617971003055572509765625</LatitudeDegrees>
              <LongitudeDegrees>-3.76626661978662014007568359375</LongitudeDegrees>
            </Position>
            <AltitudeMeters>1016</AltitudeMeters>
            <DistanceMeters>25787.524297027</DistanceMeters>
          </Trackpoint>
          <Trackpoint>
            <Time>2020-03-07T13:53:34.000Z</Time>
            <Position>
              <LatitudeDegrees>40.7126583717763423919677734375</LatitudeDegrees>
              <LongitudeDegrees>-3.76622403971850872039794921875</LongitudeDegrees>
            </Position>
            <AltitudeMeters>1016.20001220703125</AltitudeMeters>
            <DistanceMeters>25793.27949645</DistanceMeters>
          </Trackpoint>
          <Trackpoint>
            <Time>2020-03-07T13:53:35.000Z</Time>
            <Position>
              <LatitudeDegrees>40.7126962579786777496337890625</LatitudeDegrees>
              <LongitudeDegrees>-3.76617810688912868499755859375</LongitudeDegrees>
            </Position>
            <AltitudeMeters>1016.4000244140625</AltitudeMeters>
            <DistanceMeters>25799.006383706</DistanceMeters>
          </Trackpoint>
          <Trackpoint>
            <Time>2020-03-07T13:53:36.000Z</Time>
            <Position>
              <LatitudeDegrees>40.71273338980972766876220703125</LatitudeDegrees>
              <LongitudeDegrees>-3.7661307491362094879150390625</LongitudeDegrees>
            </Position>
            <AltitudeMeters>1016.4000244140625</AltitudeMeters>
            <DistanceMeters>25804.755303586</DistanceMeters>
          </Trackpoint>
          <Trackpoint>
            <Time>2020-03-07T13:53:37.000Z</Time>
            <Position>
              <LatitudeDegrees>40.712769515812397003173828125</LatitudeDegrees>
              <LongitudeDegrees>-3.76608238555490970611572265625</LongitudeDegrees>
            </Position>
            <AltitudeMeters>1016.5999755859375</AltitudeMeters>
            <DistanceMeters>25810.483767411</DistanceMeters>
          </Trackpoint>
          <Trackpoint>
            <Time>2020-03-07T13:53:38.000Z</Time>
            <Position>
              <LatitudeDegrees>40.71280471980571746826171875</LatitudeDegrees>
              <LongitudeDegrees>-3.766034357249736785888671875</LongitudeDegrees>
            </Position>
            <AltitudeMeters>1017</AltitudeMeters>
            <DistanceMeters>25816.120061311</DistanceMeters>
          </Trackpoint>
          <Trackpoint>
            <Time>2020-03-07T13:53:39.000Z</Time>
            <Position>
              <LatitudeDegrees>40.71283916942775249481201171875</LatitudeDegrees>
              <LongitudeDegrees>-3.7659855745732784271240234375</LongitudeDegrees>
            </Position>
            <AltitudeMeters>1017.4000244140625</AltitudeMeters>
            <DistanceMeters>25821.74512912</DistanceMeters>
          </Trackpoint>
          <Trackpoint>
            <Time>2020-03-07T13:53:40.000Z</Time>
            <Position>
              <LatitudeDegrees>40.71287303231656551361083984375</LatitudeDegrees>
              <LongitudeDegrees>-3.7659381330013275146484375</LongitudeDegrees>
            </Position>
            <AltitudeMeters>1017.79998779296875</AltitudeMeters>
            <DistanceMeters>25827.243555799</DistanceMeters>
          </Trackpoint>
          <Trackpoint>
            <Time>2020-03-07T13:53:41.000Z</Time>
            <Position>
              <LatitudeDegrees>40.71290605701506137847900390625</LatitudeDegrees>
              <LongitudeDegrees>-3.7658925354480743408203125</LongitudeDegrees>
            </Position>
            <AltitudeMeters>1018</AltitudeMeters>
            <DistanceMeters>25832.564203283</DistanceMeters>
          </Trackpoint>
          <Trackpoint>
            <Time>2020-03-07T13:53:42.000Z</Time>
            <Position>
              <LatitudeDegrees>40.712938494980335235595703125</LatitudeDegrees>
              <LongitudeDegrees>-3.76584626734256744384765625</LongitudeDegrees>
            </Position>
            <AltitudeMeters>1018.20001220703125</AltitudeMeters>
            <DistanceMeters>25837.880606133</DistanceMeters>
          </Trackpoint>
          <Trackpoint>
            <Time>2020-03-07T13:53:43.000Z</Time>
            <Position>
              <LatitudeDegrees>40.7129703462123870849609375</LatitudeDegrees>
              <LongitudeDegrees>-3.7658001668751239776611328125</LongitudeDegrees>
            </Position>
            <AltitudeMeters>1018.4000244140625</AltitudeMeters>
            <DistanceMeters>25843.142375263</DistanceMeters>
          </Trackpoint>
          <Trackpoint>
            <Time>2020-03-07T13:53:44.000Z</Time>
            <Position>
              <LatitudeDegrees>40.7130025327205657958984375</LatitudeDegrees>
              <LongitudeDegrees>-3.76575532369315624237060546875</LongitudeDegrees>
            </Position>
            <AltitudeMeters>1018.5999755859375</AltitudeMeters>
            <DistanceMeters>25848.352404994</DistanceMeters>
          </Trackpoint>
          <Trackpoint>
            <Time>2020-03-07T13:53:45.000Z</Time>
            <Position>
              <LatitudeDegrees>40.71303497068583965301513671875</LatitudeDegrees>
              <LongitudeDegrees>-3.7657109834253787994384765625</LongitudeDegrees>
            </Position>
            <AltitudeMeters>1018.79998779296875</AltitudeMeters>
            <DistanceMeters>25853.552025064</DistanceMeters>
          </Trackpoint>
          <Trackpoint>
            <Time>2020-03-07T13:53:46.000Z</Time>
            <Position>
              <LatitudeDegrees>40.713067241013050079345703125</LatitudeDegrees>
              <LongitudeDegrees>-3.7656667269766330718994140625</LongitudeDegrees>
            </Position>
            <AltitudeMeters>1019.20001220703125</AltitudeMeters>
            <DistanceMeters>25858.733377905</DistanceMeters>
          </Trackpoint>
          <Trackpoint>
            <Time>2020-03-07T13:53:47.000Z</Time>
            <Position>
              <LatitudeDegrees>40.713098756968975067138671875</LatitudeDegrees>
              <LongitudeDegrees>-3.76562205143272876739501953125</LongitudeDegrees>
            </Position>
            <AltitudeMeters>1019.4000244140625</AltitudeMeters>
            <DistanceMeters>25863.88238795</DistanceMeters>
          </Trackpoint>
          <Trackpoint>
            <Time>2020-03-07T13:53:48.000Z</Time>
            <Position>
              <LatitudeDegrees>40.71313060820102691650390625</LatitudeDegrees>
              <LongitudeDegrees>-3.765578381717205047607421875</LongitudeDegrees>
            </Position>
            <AltitudeMeters>1019.5999755859375</AltitudeMeters>
            <DistanceMeters>25868.995319722</DistanceMeters>
          </Trackpoint>
          <Trackpoint>
            <Time>2020-03-07T13:53:49.000Z</Time>
            <Position>
              <LatitudeDegrees>40.71316204033792018890380859375</LatitudeDegrees>
              <LongitudeDegrees>-3.765534125268459320068359375</LongitudeDegrees>
            </Position>
            <AltitudeMeters>1019.79998779296875</AltitudeMeters>
            <DistanceMeters>25874.112664901</DistanceMeters>
          </Trackpoint>
          <Trackpoint>
            <Time>2020-03-07T13:53:50.000Z</Time>
            <Position>
              <LatitudeDegrees>40.71319271810352802276611328125</LatitudeDegrees>
              <LongitudeDegrees>-3.76548978500068187713623046875</LongitudeDegrees>
            </Position>
            <AltitudeMeters>1020</AltitudeMeters>
            <DistanceMeters>25879.178578171</DistanceMeters>
          </Trackpoint>
          <Trackpoint>
            <Time>2020-03-07T13:53:51.000Z</Time>
            <Position>
              <LatitudeDegrees>40.71322389878332614898681640625</LatitudeDegrees>
              <LongitudeDegrees>-3.7654459476470947265625</LongitudeDegrees>
            </Position>
            <AltitudeMeters>1020.4000244140625</AltitudeMeters>
            <DistanceMeters>25884.249836172</DistanceMeters>
          </Trackpoint>
          <Trackpoint>
            <Time>2020-03-07T13:53:52.000Z</Time>
            <Position>
              <LatitudeDegrees>40.71325608529150485992431640625</LatitudeDegrees>
              <LongitudeDegrees>-3.765402697026729583740234375</LongitudeDegrees>
            </Position>
            <AltitudeMeters>1020.5999755859375</AltitudeMeters>
            <DistanceMeters>25889.362767944</DistanceMeters>
          </Trackpoint>
          <Trackpoint>
            <Time>2020-03-07T13:53:53.000Z</Time>
            <Position>
              <LatitudeDegrees>40.713287852704524993896484375</LatitudeDegrees>
              <LongitudeDegrees>-3.7653592787683010101318359375</LongitudeDegrees>
            </Position>
            <AltitudeMeters>1021</AltitudeMeters>
            <DistanceMeters>25894.453575286</DistanceMeters>
          </Trackpoint>
          <Trackpoint>
            <Time>2020-03-07T13:53:54.000Z</Time>
            <Position>
              <LatitudeDegrees>40.71331970393657684326171875</LatitudeDegrees>
              <LongitudeDegrees>-3.76531443558633327484130859375</LongitudeDegrees>
            </Position>
            <AltitudeMeters>1021.20001220703125</AltitudeMeters>
            <DistanceMeters>25899.637541673</DistanceMeters>
          </Trackpoint>
          <Trackpoint>
            <Time>2020-03-07T13:53:55.000Z</Time>
            <Position>
              <LatitudeDegrees>40.7133510522544384002685546875</LatitudeDegrees>
              <LongitudeDegrees>-3.7652690894901752471923828125</LongitudeDegrees>
            </Position>
            <AltitudeMeters>1021.4000244140625</AltitudeMeters>
            <DistanceMeters>25904.814535674</DistanceMeters>
          </Trackpoint>
          <Trackpoint>
            <Time>2020-03-07T13:53:56.000Z</Time>
            <Position>
              <LatitudeDegrees>40.713383741676807403564453125</LatitudeDegrees>
              <LongitudeDegrees>-3.765224330127239227294921875</LongitudeDegrees>
            </Position>
            <AltitudeMeters>1021.5999755859375</AltitudeMeters>
            <DistanceMeters>25910.057392976</DistanceMeters>
          </Trackpoint>
          <Trackpoint>
            <Time>2020-03-07T13:53:57.000Z</Time>
            <Position>
              <LatitudeDegrees>40.71341601200401782989501953125</LatitudeDegrees>
              <LongitudeDegrees>-3.7651792354881763458251953125</LongitudeDegrees>
            </Position>
            <AltitudeMeters>1021.79998779296875</AltitudeMeters>
            <DistanceMeters>25915.288179879</DistanceMeters>
          </Trackpoint>
          <Trackpoint>
            <Time>2020-03-07T13:53:58.000Z</Time>
            <Position>
              <LatitudeDegrees>40.7134466059505939483642578125</LatitudeDegrees>
              <LongitudeDegrees>-3.76513279974460601806640625</LongitudeDegrees>
            </Position>
            <AltitudeMeters>1021.79998779296875</AltitudeMeters>
            <DistanceMeters>25920.47823942</DistanceMeters>
          </Trackpoint>
          <Trackpoint>
            <Time>2020-03-07T13:53:59.000Z</Time>
            <Position>
              <LatitudeDegrees>40.7134771160781383514404296875</LatitudeDegrees>
              <LongitudeDegrees>-3.76508653163909912109375</LongitudeDegrees>
            </Position>
            <AltitudeMeters>1022</AltitudeMeters>
            <DistanceMeters>25925.651743704</DistanceMeters>
          </Trackpoint>
          <Trackpoint>
            <Time>2020-03-07T13:54:00.000Z</Time>
            <Position>
              <LatitudeDegrees>40.7135089673101902008056640625</LatitudeDegrees>
              <LongitudeDegrees>-3.76504185609519481658935546875</LongitudeDegrees>
            </Position>
            <AltitudeMeters>1022.20001220703125</AltitudeMeters>
            <DistanceMeters>25930.826120638</DistanceMeters>
          </Trackpoint>
          <Trackpoint>
            <Time>2020-03-07T13:54:01.000Z</Time>
            <Position>
              <LatitudeDegrees>40.71354106999933719635009765625</LatitudeDegrees>
              <LongitudeDegrees>-3.76499600708484649658203125</LongitudeDegrees>
            </Position>
            <AltitudeMeters>1022.4000244140625</AltitudeMeters>
            <DistanceMeters>25936.092178439</DistanceMeters>
          </Trackpoint>
          <Trackpoint>
            <Time>2020-03-07T13:54:02.000Z</Time>
            <Position>
              <LatitudeDegrees>40.7135736756026744842529296875</LatitudeDegrees>
              <LongitudeDegrees>-3.76494864933192729949951171875</LongitudeDegrees>
            </Position>
            <AltitudeMeters>1022.4000244140625</AltitudeMeters>
            <DistanceMeters>25941.48949505</DistanceMeters>
          </Trackpoint>
          <Trackpoint>
            <Time>2020-03-07T13:54:03.000Z</Time>
            <Position>
              <LatitudeDegrees>40.7136068679392337799072265625</LatitudeDegrees>
              <LongitudeDegrees>-3.76490020193159580230712890625</LongitudeDegrees>
            </Position>
            <AltitudeMeters>1022.5999755859375</AltitudeMeters>
            <DistanceMeters>25946.998586348</DistanceMeters>
          </Trackpoint>
          <Trackpoint>
            <Time>2020-03-07T13:54:04.000Z</Time>
            <Position>
              <LatitudeDegrees>40.71363980881869792938232421875</LatitudeDegrees>
              <LongitudeDegrees>-3.7648510001599788665771484375</LongitudeDegrees>
            </Position>
            <AltitudeMeters>1022.79998779296875</AltitudeMeters>
            <DistanceMeters>25952.537103269</DistanceMeters>
          </Trackpoint>
          <Trackpoint>
            <Time>2020-03-07T13:54:05.000Z</Time>
            <Position>
              <LatitudeDegrees>40.71367350406944751739501953125</LatitudeDegrees>
              <LongitudeDegrees>-3.76480129547417163848876953125</LongitudeDegrees>
            </Position>
            <AltitudeMeters>1023</AltitudeMeters>
            <DistanceMeters>25958.162973685</DistanceMeters>
          </Trackpoint>
          <Trackpoint>
            <Time>2020-03-07T13:54:06.000Z</Time>
            <Position>
              <LatitudeDegrees>40.7137074507772922515869140625</LatitudeDegrees>
              <LongitudeDegrees>-3.76475083641707897186279296875</LongitudeDegrees>
            </Position>
            <AltitudeMeters>1023.20001220703125</AltitudeMeters>
            <DistanceMeters>25963.856652147</DistanceMeters>
          </Trackpoint>
          <Trackpoint>
            <Time>2020-03-07T13:54:07.000Z</Time>
            <Position>
              <LatitudeDegrees>40.71374072693288326263427734375</LatitudeDegrees>
              <LongitudeDegrees>-3.76470104791224002838134765625</LongitudeDegrees>
            </Position>
            <AltitudeMeters>1023.4000244140625</AltitudeMeters>
            <DistanceMeters>25969.4567821</DistanceMeters>
          </Trackpoint>
          <Trackpoint>
            <Time>2020-03-07T13:54:08.000Z</Time>
            <Position>
              <LatitudeDegrees>40.713774003088474273681640625</LatitudeDegrees>
              <LongitudeDegrees>-3.76465000212192535400390625</LongitudeDegrees>
            </Position>
            <AltitudeMeters>1023.5999755859375</AltitudeMeters>
            <DistanceMeters>25975.136963711</DistanceMeters>
          </Trackpoint>
          <Trackpoint>
            <Time>2020-03-07T13:54:09.000Z</Time>
            <Position>
              <LatitudeDegrees>40.71380828507244586944580078125</LatitudeDegrees>
              <LongitudeDegrees>-3.76459828577935695648193359375</LongitudeDegrees>
            </Position>
            <AltitudeMeters>1023.79998779296875</AltitudeMeters>
            <DistanceMeters>25980.932814328</DistanceMeters>
          </Trackpoint>
          <Trackpoint>
            <Time>2020-03-07T13:54:10.000Z</Time>
            <Position>
              <LatitudeDegrees>40.7138455845415592193603515625</LatitudeDegrees>
              <LongitudeDegrees>-3.76454715617001056671142578125</LongitudeDegrees>
            </Position>
            <AltitudeMeters>1024</AltitudeMeters>
            <DistanceMeters>25986.918743105</DistanceMeters>
          </Trackpoint>
          <Trackpoint>
            <Time>2020-03-07T13:54:11.000Z</Time>
            <Position>
              <LatitudeDegrees>40.71388204582035541534423828125</LatitudeDegrees>
              <LongitudeDegrees>-3.76449518837034702301025390625</LongitudeDegrees>
            </Position>
            <AltitudeMeters>1024</AltitudeMeters>
            <DistanceMeters>25992.893347041</DistanceMeters>
          </Trackpoint>
          <Trackpoint>
            <Time>2020-03-07T13:54:12.000Z</Time>
            <Position>
              <LatitudeDegrees>40.7139163278043270111083984375</LatitudeDegrees>
              <LongitudeDegrees>-3.76444003544747829437255859375</LongitudeDegrees>
            </Position>
            <AltitudeMeters>1024.4000244140625</AltitudeMeters>
            <DistanceMeters>25998.910871992</DistanceMeters>
          </Trackpoint>
          <Trackpoint>
            <Time>2020-03-07T13:54:13.000Z</Time>
            <Position>
              <LatitudeDegrees>40.71395002305507659912109375</LatitudeDegrees>
              <LongitudeDegrees>-3.764383792877197265625</LongitudeDegrees>
            </Position>
            <AltitudeMeters>1024.5999755859375</AltitudeMeters>
            <DistanceMeters>26004.959081618</DistanceMeters>
          </Trackpoint>
          <Trackpoint>
            <Time>2020-03-07T13:54:14.000Z</Time>
            <Position>
              <LatitudeDegrees>40.71398430503904819488525390625</LatitudeDegrees>
              <LongitudeDegrees>-3.76432855613529682159423828125</LongitudeDegrees>
            </Position>
            <AltitudeMeters>1024.5999755859375</AltitudeMeters>
            <DistanceMeters>26010.982606097</DistanceMeters>
          </Trackpoint>
          <Trackpoint>
            <Time>2020-03-07T13:54:15.000Z</Time>
            <Position>
              <LatitudeDegrees>40.7140190899372100830078125</LatitudeDegrees>
              <LongitudeDegrees>-3.76427306793630123138427734375</LongitudeDegrees>
            </Position>
            <AltitudeMeters>1024.800048828125</AltitudeMeters>
            <DistanceMeters>26017.058373744</DistanceMeters>
          </Trackpoint>
          <Trackpoint>
            <Time>2020-03-07T13:54:16.000Z</Time>
            <Position>
              <LatitudeDegrees>40.7140534557402133941650390625</LatitudeDegrees>
              <LongitudeDegrees>-3.76421707682311534881591796875</LongitudeDegrees>
            </Position>
            <AltitudeMeters>1024.800048828125</AltitudeMeters>
            <DistanceMeters>26023.136370349</DistanceMeters>
          </Trackpoint>
          <Trackpoint>
            <Time>2020-03-07T13:54:17.000Z</Time>
            <Position>
              <LatitudeDegrees>40.71408757008612155914306640625</LatitudeDegrees>
              <LongitudeDegrees>-3.764160163700580596923828125</LongitudeDegrees>
            </Position>
            <AltitudeMeters>1025</AltitudeMeters>
            <DistanceMeters>26029.258038197</DistanceMeters>
          </Trackpoint>
          <Trackpoint>
            <Time>2020-03-07T13:54:18.000Z</Time>
            <Position>
              <LatitudeDegrees>40.71411975659430027008056640625</LatitudeDegrees>
              <LongitudeDegrees>-3.76410090364515781402587890625</LongitudeDegrees>
            </Position>
            <AltitudeMeters>1025</AltitudeMeters>
            <DistanceMeters>26035.40913731</DistanceMeters>
          </Trackpoint>
          <Trackpoint>
            <Time>2020-03-07T13:54:19.000Z</Time>
            <Position>
              <LatitudeDegrees>40.71414892561733722686767578125</LatitudeDegrees>
              <LongitudeDegrees>-3.7640389613807201385498046875</LongitudeDegrees>
            </Position>
            <AltitudeMeters>1025.199951171875</AltitudeMeters>
            <DistanceMeters>26041.561704291</DistanceMeters>
          </Trackpoint>
          <Trackpoint>
            <Time>2020-03-07T13:54:20.000Z</Time>
            <Position>
              <LatitudeDegrees>40.7141754962503910064697265625</LatitudeDegrees>
              <LongitudeDegrees>-3.763976432383060455322265625</LongitudeDegrees>
            </Position>
            <AltitudeMeters>1025.4000244140625</AltitudeMeters>
            <DistanceMeters>26047.609167362</DistanceMeters>
          </Trackpoint>
          <Trackpoint>
            <Time>2020-03-07T13:54:21.000Z</Time>
            <Position>
              <LatitudeDegrees>40.7142013125121593475341796875</LatitudeDegrees>
              <LongitudeDegrees>-3.7639142386615276336669921875</LongitudeDegrees>
            </Position>
            <AltitudeMeters>1025.800048828125</AltitudeMeters>
            <DistanceMeters>26053.590568776</DistanceMeters>
          </Trackpoint>
          <Trackpoint>
            <Time>2020-03-07T13:54:22.000Z</Time>
            <Position>
              <LatitudeDegrees>40.71422402746975421905517578125</LatitudeDegrees>
              <LongitudeDegrees>-3.7638515420258045196533203125</LongitudeDegrees>
            </Position>
            <AltitudeMeters>1026.199951171875</AltitudeMeters>
            <DistanceMeters>26059.45303165</DistanceMeters>
          </Trackpoint>
          <Trackpoint>
            <Time>2020-03-07T13:54:23.000Z</Time>
            <Position>
              <LatitudeDegrees>40.7142435573041439056396484375</LatitudeDegrees>
              <LongitudeDegrees>-3.76378859393298625946044921875</LongitudeDegrees>
            </Position>
            <AltitudeMeters>1026.4000244140625</AltitudeMeters>
            <DistanceMeters>26065.190945793</DistanceMeters>
          </Trackpoint>
          <Trackpoint>
            <Time>2020-03-07T13:54:24.000Z</Time>
            <Position>
              <LatitudeDegrees>40.71426023729145526885986328125</LatitudeDegrees>
              <LongitudeDegrees>-3.76372572965919971466064453125</LongitudeDegrees>
            </Position>
            <AltitudeMeters>1027</AltitudeMeters>
            <DistanceMeters>26070.810392147</DistanceMeters>
          </Trackpoint>
          <Trackpoint>
            <Time>2020-03-07T13:54:25.000Z</Time>
            <Position>
              <LatitudeDegrees>40.71427314542233943939208984375</LatitudeDegrees>
              <LongitudeDegrees>-3.7636609375476837158203125</LongitudeDegrees>
            </Position>
            <AltitudeMeters>1027.4000244140625</AltitudeMeters>
            <DistanceMeters>26076.462684643</DistanceMeters>
          </Trackpoint>
          <Trackpoint>
            <Time>2020-03-07T13:54:26.000Z</Time>
            <Position>
              <LatitudeDegrees>40.71428471244871616363525390625</LatitudeDegrees>
              <LongitudeDegrees>-3.7635953910648822784423828125</LongitudeDegrees>
            </Position>
            <AltitudeMeters>1027.5999755859375</AltitudeMeters>
            <DistanceMeters>26082.140481126</DistanceMeters>
          </Trackpoint>
          <Trackpoint>
            <Time>2020-03-07T13:54:27.000Z</Time>
            <Position>
              <LatitudeDegrees>40.7142961956560611724853515625</LatitudeDegrees>
              <LongitudeDegrees>-3.76352976076304912567138671875</LongitudeDegrees>
            </Position>
            <AltitudeMeters>1027.800048828125</AltitudeMeters>
            <DistanceMeters>26087.823046864</DistanceMeters>
          </Trackpoint>
          <Trackpoint>
            <Time>2020-03-07T13:54:28.000Z</Time>
            <Position>
              <LatitudeDegrees>40.71430549956858158111572265625</LatitudeDegrees>
              <LongitudeDegrees>-3.76346354372799396514892578125</LongitudeDegrees>
            </Position>
            <AltitudeMeters>1028</AltitudeMeters>
            <DistanceMeters>26093.504023295</DistanceMeters>
          </Trackpoint>
          <Trackpoint>
            <Time>2020-03-07T13:54:29.000Z</Time>
            <Position>
              <LatitudeDegrees>40.71431388147175312042236328125</LatitudeDegrees>
              <LongitudeDegrees>-3.7633972428739070892333984375</LongitudeDegrees>
            </Position>
            <AltitudeMeters>1028</AltitudeMeters>
            <DistanceMeters>26099.173862106</DistanceMeters>
          </Trackpoint>
          <Trackpoint>
            <Time>2020-03-07T13:54:30.000Z</Time>
            <Position>
              <LatitudeDegrees>40.714320838451385498046875</LatitudeDegrees>
              <LongitudeDegrees>-3.76333127729594707489013671875</LongitudeDegrees>
            </Position>
            <AltitudeMeters>1028.199951171875</AltitudeMeters>
            <DistanceMeters>26104.79330846</DistanceMeters>
          </Trackpoint>
          <Trackpoint>
            <Time>2020-03-07T13:54:31.000Z</Time>
            <Position>
              <LatitudeDegrees>40.7143263705074787139892578125</LatitudeDegrees>
              <LongitudeDegrees>-3.76326598227024078369140625</LongitudeDegrees>
            </Position>
            <AltitudeMeters>1028.4000244140625</AltitudeMeters>
            <DistanceMeters>26110.335899917</DistanceMeters>
          </Trackpoint>
          <Trackpoint>
            <Time>2020-03-07T13:54:32.000Z</Time>
            <Position>
              <LatitudeDegrees>40.71433215402066707611083984375</LatitudeDegrees>
              <LongitudeDegrees>-3.763201273977756500244140625</LongitudeDegrees>
            </Position>
            <AltitudeMeters>1028.800048828125</AltitudeMeters>
            <DistanceMeters>26115.832684048</DistanceMeters>
          </Trackpoint>
          <Trackpoint>
            <Time>2020-03-07T13:54:33.000Z</Time>
            <Position>
              <LatitudeDegrees>40.714338608086109161376953125</LatitudeDegrees>
              <LongitudeDegrees>-3.7631370685994625091552734375</LongitudeDegrees>
            </Position>
            <AltitudeMeters>1029.199951171875</AltitudeMeters>
            <DistanceMeters>26121.297339828</DistanceMeters>
          </Trackpoint>
          <Trackpoint>
            <Time>2020-03-07T13:54:34.000Z</Time>
            <Position>
              <LatitudeDegrees>40.71434573270380496978759765625</LatitudeDegrees>
              <LongitudeDegrees>-3.76307294704020023345947265625</LongitudeDegrees>
            </Position>
            <AltitudeMeters>1029.5999755859375</AltitudeMeters>
            <DistanceMeters>26126.764473724</DistanceMeters>
          </Trackpoint>
          <Trackpoint>
            <Time>2020-03-07T13:54:35.000Z</Time>
            <Position>
              <LatitudeDegrees>40.7143521867692470550537109375</LatitudeDegrees>
              <LongitudeDegrees>-3.76300823874771595001220703125</LongitudeDegrees>
            </Position>
            <AltitudeMeters>1029.800048828125</AltitudeMeters>
            <DistanceMeters>26132.271105789</DistanceMeters>
          </Trackpoint>
          <Trackpoint>
            <Time>2020-03-07T13:54:36.000Z</Time>
            <Position>
              <LatitudeDegrees>40.71435763500630855560302734375</LatitudeDegrees>
              <LongitudeDegrees>-3.76294411718845367431640625</LongitudeDegrees>
            </Position>
            <AltitudeMeters>1030</AltitudeMeters>
            <DistanceMeters>26137.715066744</DistanceMeters>
          </Trackpoint>
          <Trackpoint>
            <Time>2020-03-07T13:54:37.000Z</Time>
            <Position>
              <LatitudeDegrees>40.71436350233852863311767578125</LatitudeDegrees>
              <LongitudeDegrees>-3.76288066618144512176513671875</LongitudeDegrees>
            </Position>
            <AltitudeMeters>1030.199951171875</AltitudeMeters>
            <DistanceMeters>26143.107361817</DistanceMeters>
          </Trackpoint>
          <Trackpoint>
            <Time>2020-03-07T13:54:38.000Z</Time>
            <Position>
              <LatitudeDegrees>40.7143704593181610107421875</LatitudeDegrees>
              <LongitudeDegrees>-3.762817718088626861572265625</LongitudeDegrees>
            </Position>
            <AltitudeMeters>1030.199951171875</AltitudeMeters>
            <DistanceMeters>26148.474478721</DistanceMeters>
          </Trackpoint>
          <Trackpoint>
            <Time>2020-03-07T13:54:39.000Z</Time>
            <Position>
              <LatitudeDegrees>40.71437758393585681915283203125</LatitudeDegrees>
              <LongitudeDegrees>-3.76275510527193546295166015625</LongitudeDegrees>
            </Position>
            <AltitudeMeters>1030.5999755859375</AltitudeMeters>
            <DistanceMeters>26153.816298781</DistanceMeters>
          </Trackpoint>
          <Trackpoint>
            <Time>2020-03-07T13:54:40.000Z</Time>
            <Position>
              <LatitudeDegrees>40.7143843732774257659912109375</LatitudeDegrees>
              <LongitudeDegrees>-3.7626924924552440643310546875</LongitudeDegrees>
            </Position>
            <AltitudeMeters>1030.800048828125</AltitudeMeters>
            <DistanceMeters>26159.152198989</DistanceMeters>
          </Trackpoint>
          <Trackpoint>
            <Time>2020-03-07T13:54:41.000Z</Time>
            <Position>
              <LatitudeDegrees>40.714390575885772705078125</LatitudeDegrees>
              <LongitudeDegrees>-3.76262962818145751953125</LongitudeDegrees>
            </Position>
            <AltitudeMeters>1031.199951171875</AltitudeMeters>
            <DistanceMeters>26164.500776573</DistanceMeters>
          </Trackpoint>
          <Trackpoint>
            <Time>2020-03-07T13:54:42.000Z</Time>
            <Position>
              <LatitudeDegrees>40.71439619176089763641357421875</LatitudeDegrees>
              <LongitudeDegrees>-3.76256600953638553619384765625</LongitudeDegrees>
            </Position>
            <AltitudeMeters>1031.4000244140625</AltitudeMeters>
            <DistanceMeters>26169.904781312</DistanceMeters>
          </Trackpoint>
          <Trackpoint>
            <Time>2020-03-07T13:54:43.000Z</Time>
            <Position>
              <LatitudeDegrees>40.714401304721832275390625</LatitudeDegrees>
              <LongitudeDegrees>-3.76250247471034526824951171875</LongitudeDegrees>
            </Position>
            <AltitudeMeters>1031.4000244140625</AltitudeMeters>
            <DistanceMeters>26175.295401499</DistanceMeters>
          </Trackpoint>
          <Trackpoint>
            <Time>2020-03-07T13:54:44.000Z</Time>
            <Position>
              <LatitudeDegrees>40.714407004415988922119140625</LatitudeDegrees>
              <LongitudeDegrees>-3.7624393589794635772705078125</LongitudeDegrees>
            </Position>
            <AltitudeMeters>1031.800048828125</AltitudeMeters>
            <DistanceMeters>26180.657468582</DistanceMeters>
          </Trackpoint>
          <Trackpoint>
            <Time>2020-03-07T13:54:45.000Z</Time>
            <Position>
              <LatitudeDegrees>40.7144138775765895843505859375</LatitudeDegrees>
              <LongitudeDegrees>-3.76237641088664531707763671875</LongitudeDegrees>
            </Position>
            <AltitudeMeters>1032.199951171875</AltitudeMeters>
            <DistanceMeters>26186.02290274</DistanceMeters>
          </Trackpoint>
          <Trackpoint>
            <Time>2020-03-07T13:54:46.000Z</Time>
            <Position>
              <LatitudeDegrees>40.7144214212894439697265625</LatitudeDegrees>
              <LongitudeDegrees>-3.7623139657080173492431640625</LongitudeDegrees>
            </Position>
            <AltitudeMeters>1032.4000244140625</AltitudeMeters>
            <DistanceMeters>26191.356263856</DistanceMeters>
          </Trackpoint>
          <Trackpoint>
            <Time>2020-03-07T13:54:47.000Z</Time>
            <Position>
              <LatitudeDegrees>40.71442804299294948577880859375</LatitudeDegrees>
              <LongitudeDegrees>-3.7622519396245479583740234375</LongitudeDegrees>
            </Position>
            <AltitudeMeters>1032.5999755859375</AltitudeMeters>
            <DistanceMeters>26196.640296063</DistanceMeters>
          </Trackpoint>
          <Trackpoint>
            <Time>2020-03-07T13:54:48.000Z</Time>
            <Position>
              <LatitudeDegrees>40.71443240158259868621826171875</LatitudeDegrees>
              <LongitudeDegrees>-3.76218974590301513671875</LongitudeDegrees>
            </Position>
            <AltitudeMeters>1032.800048828125</AltitudeMeters>
            <DistanceMeters>26201.909782287</DistanceMeters>
          </Trackpoint>
          <Trackpoint>
            <Time>2020-03-07T13:54:49.000Z</Time>
            <Position>
              <LatitudeDegrees>40.714436508715152740478515625</LatitudeDegrees>
              <LongitudeDegrees>-3.7621268816292285919189453125</LongitudeDegrees>
            </Position>
            <AltitudeMeters>1033</AltitudeMeters>
            <DistanceMeters>26207.232974927</DistanceMeters>
          </Trackpoint>
          <Trackpoint>
            <Time>2020-03-07T13:54:50.000Z</Time>
            <Position>
              <LatitudeDegrees>40.7144415378570556640625</LatitudeDegrees>
              <LongitudeDegrees>-3.76206426881253719329833984375</LongitudeDegrees>
            </Position>
            <AltitudeMeters>1033</AltitudeMeters>
            <DistanceMeters>26212.545129752</DistanceMeters>
          </Trackpoint>
          <Trackpoint>
            <Time>2020-03-07T13:54:51.000Z</Time>
            <Position>
              <LatitudeDegrees>40.714446566998958587646484375</LatitudeDegrees>
              <LongitudeDegrees>-3.76200241036713123321533203125</LongitudeDegrees>
            </Position>
            <AltitudeMeters>1033.199951171875</AltitudeMeters>
            <DistanceMeters>26217.794871966</DistanceMeters>
          </Trackpoint>
          <Trackpoint>
            <Time>2020-03-07T13:54:52.000Z</Time>
            <Position>
              <LatitudeDegrees>40.7144497521221637725830078125</LatitudeDegrees>
              <LongitudeDegrees>-3.761940300464630126953125</LongitudeDegrees>
            </Position>
            <AltitudeMeters>1033.4000244140625</AltitudeMeters>
            <DistanceMeters>26223.046333996</DistanceMeters>
          </Trackpoint>
          <Trackpoint>
            <Time>2020-03-07T13:54:53.000Z</Time>
            <Position>
              <LatitudeDegrees>40.7144514285027980804443359375</LatitudeDegrees>
              <LongitudeDegrees>-3.761878274381160736083984375</LongitudeDegrees>
            </Position>
            <AltitudeMeters>1033.5999755859375</AltitudeMeters>
            <DistanceMeters>26228.282297335</DistanceMeters>
          </Trackpoint>
          <Trackpoint>
            <Time>2020-03-07T13:54:54.000Z</Time>
            <Position>
              <LatitudeDegrees>40.714452266693115234375</LatitudeDegrees>
              <LongitudeDegrees>-3.761816918849945068359375</LongitudeDegrees>
            </Position>
            <AltitudeMeters>1033.5999755859375</AltitudeMeters>
            <DistanceMeters>26233.459291336</DistanceMeters>
          </Trackpoint>
          <Trackpoint>
            <Time>2020-03-07T13:54:55.000Z</Time>
            <Position>
              <LatitudeDegrees>40.7144509255886077880859375</LatitudeDegrees>
              <LongitudeDegrees>-3.761755563318729400634765625</LongitudeDegrees>
            </Position>
            <AltitudeMeters>1033.800048828125</AltitudeMeters>
            <DistanceMeters>26238.637157398</DistanceMeters>
          </Trackpoint>
          <Trackpoint>
            <Time>2020-03-07T13:54:56.000Z</Time>
            <Position>
              <LatitudeDegrees>40.71444832719862461090087890625</LatitudeDegrees>
              <LongitudeDegrees>-3.76169412396848201751708984375</LongitudeDegrees>
            </Position>
            <AltitudeMeters>1034</AltitudeMeters>
            <DistanceMeters>26243.828086805</DistanceMeters>
          </Trackpoint>
          <Trackpoint>
            <Time>2020-03-07T13:54:57.000Z</Time>
            <Position>
              <LatitudeDegrees>40.7144437171518802642822265625</LatitudeDegrees>
              <LongitudeDegrees>-3.761632852256298065185546875</LongitudeDegrees>
            </Position>
            <AltitudeMeters>1034.199951171875</AltitudeMeters>
            <DistanceMeters>26249.023363361</DistanceMeters>
          </Trackpoint>
          <Trackpoint>
            <Time>2020-03-07T13:54:58.000Z</Time>
            <Position>
              <LatitudeDegrees>40.714436508715152740478515625</LatitudeDegrees>
              <LongitudeDegrees>-3.76157225109636783599853515625</LongitudeDegrees>
            </Position>
            <AltitudeMeters>1034.4000244140625</AltitudeMeters>
            <DistanceMeters>26254.198612798</DistanceMeters>
          </Trackpoint>
          <Trackpoint>
            <Time>2020-03-07T13:54:59.000Z</Time>
            <Position>
              <LatitudeDegrees>40.7144293002784252166748046875</LatitudeDegrees>
              <LongitudeDegrees>-3.76151173375546932220458984375</LongitudeDegrees>
            </Position>
            <AltitudeMeters>1034.5999755859375</AltitudeMeters>
            <DistanceMeters>26259.366878089</DistanceMeters>
          </Trackpoint>
          <Trackpoint>
            <Time>2020-03-07T13:55:00.000Z</Time>
            <Position>
              <LatitudeDegrees>40.71442100219428539276123046875</LatitudeDegrees>
              <LongitudeDegrees>-3.7614519707858562469482421875</LongitudeDegrees>
            </Position>
            <AltitudeMeters>1035</AltitudeMeters>
            <DistanceMeters>26264.492157826</DistanceMeters>
          </Trackpoint>
          <Trackpoint>
            <Time>2020-03-07T13:55:01.000Z</Time>
            <Position>
              <LatitudeDegrees>40.71441178210079669952392578125</LatitudeDegrees>
              <LongitudeDegrees>-3.76139254309237003326416015625</LongitudeDegrees>
            </Position>
            <AltitudeMeters>1035.199951171875</AltitudeMeters>
            <DistanceMeters>26269.609503005</DistanceMeters>
          </Trackpoint>
          <Trackpoint>
            <Time>2020-03-07T13:55:02.000Z</Time>
            <Position>
              <LatitudeDegrees>40.7144038192927837371826171875</LatitudeDegrees>
              <LongitudeDegrees>-3.76133286394178867340087890625</LongitudeDegrees>
            </Position>
            <AltitudeMeters>1036</AltitudeMeters>
            <DistanceMeters>26274.721551639</DistanceMeters>
          </Trackpoint>
          <Trackpoint>
            <Time>2020-03-07T13:55:03.000Z</Time>
            <Position>
              <LatitudeDegrees>40.71439526975154876708984375</LatitudeDegrees>
              <LongitudeDegrees>-3.761272430419921875</LongitudeDegrees>
            </Position>
            <AltitudeMeters>1036.199951171875</AltitudeMeters>
            <DistanceMeters>26279.907259657</DistanceMeters>
          </Trackpoint>
          <Trackpoint>
            <Time>2020-03-07T13:55:04.000Z</Time>
            <Position>
              <LatitudeDegrees>40.714385211467742919921875</LatitudeDegrees>
              <LongitudeDegrees>-3.76121182925999164581298828125</LongitudeDegrees>
            </Position>
            <AltitudeMeters>1036.4000244140625</AltitudeMeters>
            <DistanceMeters>26285.141498086</DistanceMeters>
          </Trackpoint>
          <Trackpoint>
            <Time>2020-03-07T13:55:05.000Z</Time>
            <Position>
              <LatitudeDegrees>40.7143746502697467803955078125</LatitudeDegrees>
              <LongitudeDegrees>-3.76115147955715656280517578125</LongitudeDegrees>
            </Position>
            <AltitudeMeters>1036.5999755859375</AltitudeMeters>
            <DistanceMeters>26290.365375095</DistanceMeters>
          </Trackpoint>
          <Trackpoint>
            <Time>2020-03-07T13:55:06.000Z</Time>
            <Position>
              <LatitudeDegrees>40.714364089071750640869140625</LatitudeDegrees>
              <LongitudeDegrees>-3.7610908783972263336181640625</LongitudeDegrees>
            </Position>
            <AltitudeMeters>1037</AltitudeMeters>
            <DistanceMeters>26295.609954473</DistanceMeters>
          </Trackpoint>
          <Trackpoint>
            <Time>2020-03-07T13:55:07.000Z</Time>
            <Position>
              <LatitudeDegrees>40.7143531925976276397705078125</LatitudeDegrees>
              <LongitudeDegrees>-3.76103078015148639678955078125</LongitudeDegrees>
            </Position>
            <AltitudeMeters>1037.4000244140625</AltitudeMeters>
            <DistanceMeters>26300.823449471</DistanceMeters>
          </Trackpoint>
          <Trackpoint>
            <Time>2020-03-07T13:55:08.000Z</Time>
            <Position>
              <LatitudeDegrees>40.714341290295124053955078125</LatitudeDegrees>
              <LongitudeDegrees>-3.76097135245800018310546875</LongitudeDegrees>
            </Position>
            <AltitudeMeters>1037.5999755859375</AltitudeMeters>
            <DistanceMeters>26306.00915749</DistanceMeters>
          </Trackpoint>
          <Trackpoint>
            <Time>2020-03-07T13:55:09.000Z</Time>
            <Position>
              <LatitudeDegrees>40.71432712487876415252685546875</LatitudeDegrees>
              <LongitudeDegrees>-3.760912008583545684814453125</LongitudeDegrees>
            </Position>
            <AltitudeMeters>1037.5999755859375</AltitudeMeters>
            <DistanceMeters>26311.258899703</DistanceMeters>
          </Trackpoint>
          <Trackpoint>
            <Time>2020-03-07T13:55:10.000Z</Time>
            <Position>
              <LatitudeDegrees>40.71431321091949939727783203125</LatitudeDegrees>
              <LongitudeDegrees>-3.76085157506167888641357421875</LongitudeDegrees>
            </Position>
            <AltitudeMeters>1037.800048828125</AltitudeMeters>
            <DistanceMeters>26316.587179007</DistanceMeters>
          </Trackpoint>
          <Trackpoint>
            <Time>2020-03-07T13:55:11.000Z</Time>
            <Position>
              <LatitudeDegrees>40.714300386607646942138671875</LatitudeDegrees>
              <LongitudeDegrees>-3.760789968073368072509765625</LongitudeDegrees>
            </Position>
            <AltitudeMeters>1037.800048828125</AltitudeMeters>
            <DistanceMeters>26321.977799193</DistanceMeters>
          </Trackpoint>
          <Trackpoint>
            <Time>2020-03-07T13:55:12.000Z</Time>
            <Position>
              <LatitudeDegrees>40.7142874784767627716064453125</LatitudeDegrees>
              <LongitudeDegrees>-3.760727606713771820068359375</LongitudeDegrees>
            </Position>
            <AltitudeMeters>1038</AltitudeMeters>
            <DistanceMeters>26327.431703465</DistanceMeters>
          </Trackpoint>
          <Trackpoint>
            <Time>2020-03-07T13:55:13.000Z</Time>
            <Position>
              <LatitudeDegrees>40.71427415125072002410888671875</LatitudeDegrees>
              <LongitudeDegrees>-3.7606650777161121368408203125</LongitudeDegrees>
            </Position>
            <AltitudeMeters>1038.4000244140625</AltitudeMeters>
            <DistanceMeters>26332.912858848</DistanceMeters>
          </Trackpoint>
          <Trackpoint>
            <Time>2020-03-07T13:55:14.000Z</Time>
            <Position>
              <LatitudeDegrees>40.71426124311983585357666015625</LatitudeDegrees>
              <LongitudeDegrees>-3.760602213442325592041015625</LongitudeDegrees>
            </Position>
            <AltitudeMeters>1038.800048828125</AltitudeMeters>
            <DistanceMeters>26338.407999941</DistanceMeters>
          </Trackpoint>
          <Trackpoint>
            <Time>2020-03-07T13:55:15.000Z</Time>
            <Position>
              <LatitudeDegrees>40.71424908936023712158203125</LatitudeDegrees>
              <LongitudeDegrees>-3.76053926534950733184814453125</LongitudeDegrees>
            </Position>
            <AltitudeMeters>1039</AltitudeMeters>
            <DistanceMeters>26343.888331523</DistanceMeters>
          </Trackpoint>
          <Trackpoint>
            <Time>2020-03-07T13:55:16.000Z</Time>
            <Position>
              <LatitudeDegrees>40.714238025248050689697265625</LatitudeDegrees>
              <LongitudeDegrees>-3.76047707162797451019287109375</LongitudeDegrees>
            </Position>
            <AltitudeMeters>1039.199951171875</AltitudeMeters>
            <DistanceMeters>26349.277276303</DistanceMeters>
          </Trackpoint>
          <Trackpoint>
            <Time>2020-03-07T13:55:17.000Z</Time>
            <Position>
              <LatitudeDegrees>40.71422620676457881927490234375</LatitudeDegrees>
              <LongitudeDegrees>-3.7604163028299808502197265625</LongitudeDegrees>
            </Position>
            <AltitudeMeters>1039.4000244140625</AltitudeMeters>
            <DistanceMeters>26354.569846296</DistanceMeters>
          </Trackpoint>
          <Trackpoint>
            <Time>2020-03-07T13:55:18.000Z</Time>
            <Position>
              <LatitudeDegrees>40.7142140530049800872802734375</LatitudeDegrees>
              <LongitudeDegrees>-3.76035653986036777496337890625</LongitudeDegrees>
            </Position>
            <AltitudeMeters>1039.5999755859375</AltitudeMeters>
            <DistanceMeters>26359.790264929</DistanceMeters>
          </Trackpoint>
          <Trackpoint>
            <Time>2020-03-07T13:55:19.000Z</Time>
            <Position>
              <LatitudeDegrees>40.71420290507376194000244140625</LatitudeDegrees>
              <LongitudeDegrees>-3.7602974474430084228515625</LongitudeDegrees>
            </Position>
            <AltitudeMeters>1039.800048828125</AltitudeMeters>
            <DistanceMeters>26364.926984054</DistanceMeters>
          </Trackpoint>
          <Trackpoint>
            <Time>2020-03-07T13:55:20.000Z</Time>
            <Position>
              <LatitudeDegrees>40.71419334970414638519287109375</LatitudeDegrees>
              <LongitudeDegrees>-3.76023902557790279388427734375</LongitudeDegrees>
            </Position>
            <AltitudeMeters>1040</AltitudeMeters>
            <DistanceMeters>26369.968775917</DistanceMeters>
          </Trackpoint>
          <Trackpoint>
            <Time>2020-03-07T13:55:21.000Z</Time>
            <Position>
              <LatitudeDegrees>40.71418362669646739959716796875</LatitudeDegrees>
              <LongitudeDegrees>-3.7601812742650508880615234375</LongitudeDegrees>
            </Position>
            <AltitudeMeters>1040.4000244140625</AltitudeMeters>
            <DistanceMeters>26374.958357138</DistanceMeters>
          </Trackpoint>
          <Trackpoint>
            <Time>2020-03-07T13:55:22.000Z</Time>
            <Position>
              <LatitudeDegrees>40.7141738198697566986083984375</LatitudeDegrees>
              <LongitudeDegrees>-3.7601236067712306976318359375</LongitudeDegrees>
            </Position>
            <AltitudeMeters>1040.5999755859375</AltitudeMeters>
            <DistanceMeters>26379.943411839</DistanceMeters>
          </Trackpoint>
          <Trackpoint>
            <Time>2020-03-07T13:55:23.000Z</Time>
            <Position>
              <LatitudeDegrees>40.714164264500141143798828125</LatitudeDegrees>
              <LongitudeDegrees>-3.760065771639347076416015625</LongitudeDegrees>
            </Position>
            <AltitudeMeters>1040.800048828125</AltitudeMeters>
            <DistanceMeters>26384.937515476</DistanceMeters>
          </Trackpoint>
          <Trackpoint>
            <Time>2020-03-07T13:55:24.000Z</Time>
            <Position>
              <LatitudeDegrees>40.7141563855111598968505859375</LatitudeDegrees>
              <LongitudeDegrees>-3.760006427764892578125</LongitudeDegrees>
            </Position>
            <AltitudeMeters>1040.800048828125</AltitudeMeters>
            <DistanceMeters>26390.021222665</DistanceMeters>
          </Trackpoint>
          <Trackpoint>
            <Time>2020-03-07T13:55:25.000Z</Time>
            <Position>
              <LatitudeDegrees>40.71415110491216182708740234375</LatitudeDegrees>
              <LongitudeDegrees>-3.75994549132883548736572265625</LongitudeDegrees>
            </Position>
            <AltitudeMeters>1041</AltitudeMeters>
            <DistanceMeters>26395.195599599</DistanceMeters>
          </Trackpoint>
          <Trackpoint>
            <Time>2020-03-07T13:55:26.000Z</Time>
            <Position>
              <LatitudeDegrees>40.714147500693798065185546875</LatitudeDegrees>
              <LongitudeDegrees>-3.7598835490643978118896484375</LongitudeDegrees>
            </Position>
            <AltitudeMeters>1041.199951171875</AltitudeMeters>
            <DistanceMeters>26400.436734261</DistanceMeters>
          </Trackpoint>
          <Trackpoint>
            <Time>2020-03-07T13:55:27.000Z</Time>
            <Position>
              <LatitudeDegrees>40.71414649486541748046875</LatitudeDegrees>
              <LongitudeDegrees>-3.75981925986707210540771484375</LongitudeDegrees>
            </Position>
            <AltitudeMeters>1041.199951171875</AltitudeMeters>
            <DistanceMeters>26405.860753901</DistanceMeters>
          </Trackpoint>
          <Trackpoint>
            <Time>2020-03-07T13:55:28.000Z</Time>
            <Position>
              <LatitudeDegrees>40.7141486741602420806884765625</LatitudeDegrees>
              <LongitudeDegrees>-3.75975337810814380645751953125</LongitudeDegrees>
            </Position>
            <AltitudeMeters>1041.4000244140625</AltitudeMeters>
            <DistanceMeters>26411.424484848</DistanceMeters>
          </Trackpoint>
          <Trackpoint>
            <Time>2020-03-07T13:55:29.000Z</Time>
            <Position>
              <LatitudeDegrees>40.714152865111827850341796875</LatitudeDegrees>
              <LongitudeDegrees>-3.7596870772540569305419921875</LongitudeDegrees>
            </Position>
            <AltitudeMeters>1041.5999755859375</AltitudeMeters>
            <DistanceMeters>26417.036695342</DistanceMeters>
          </Trackpoint>
          <Trackpoint>
            <Time>2020-03-07T13:55:30.000Z</Time>
            <Position>
              <LatitudeDegrees>40.714160911738872528076171875</LatitudeDegrees>
              <LongitudeDegrees>-3.75962194986641407012939453125</LongitudeDegrees>
            </Position>
            <AltitudeMeters>1041.800048828125</AltitudeMeters>
            <DistanceMeters>26422.603671394</DistanceMeters>
          </Trackpoint>
          <Trackpoint>
            <Time>2020-03-07T13:55:31.000Z</Time>
            <Position>
              <LatitudeDegrees>40.7141719758510589599609375</LatitudeDegrees>
              <LongitudeDegrees>-3.7595583312213420867919921875</LongitudeDegrees>
            </Position>
            <AltitudeMeters>1041.800048828125</AltitudeMeters>
            <DistanceMeters>26428.110303459</DistanceMeters>
          </Trackpoint>
          <Trackpoint>
            <Time>2020-03-07T13:55:32.000Z</Time>
            <Position>
              <LatitudeDegrees>40.7141845487058162689208984375</LatitudeDegrees>
              <LongitudeDegrees>-3.75949504785239696502685546875</LongitudeDegrees>
            </Position>
            <AltitudeMeters>1042</AltitudeMeters>
            <DistanceMeters>26433.630038771</DistanceMeters>
          </Trackpoint>
          <Trackpoint>
            <Time>2020-03-07T13:55:33.000Z</Time>
            <Position>
              <LatitudeDegrees>40.7141989655792713165283203125</LatitudeDegrees>
              <LongitudeDegrees>-3.759432099759578704833984375</LongitudeDegrees>
            </Position>
            <AltitudeMeters>1042</AltitudeMeters>
            <DistanceMeters>26439.177515722</DistanceMeters>
          </Trackpoint>
          <Trackpoint>
            <Time>2020-03-07T13:55:34.000Z</Time>
            <Position>
              <LatitudeDegrees>40.714214555919170379638671875</LatitudeDegrees>
              <LongitudeDegrees>-3.7593695707619190216064453125</LongitudeDegrees>
            </Position>
            <AltitudeMeters>1042</AltitudeMeters>
            <DistanceMeters>26444.730686984</DistanceMeters>
          </Trackpoint>
          <Trackpoint>
            <Time>2020-03-07T13:55:35.000Z</Time>
            <Position>
              <LatitudeDegrees>40.71423140354454517364501953125</LatitudeDegrees>
              <LongitudeDegrees>-3.75930704176425933837890625</LongitudeDegrees>
            </Position>
            <AltitudeMeters>1042.199951171875</AltitudeMeters>
            <DistanceMeters>26450.3283977</DistanceMeters>
          </Trackpoint>
          <Trackpoint>
            <Time>2020-03-07T13:55:36.000Z</Time>
            <Position>
              <LatitudeDegrees>40.71424883790314197540283203125</LatitudeDegrees>
              <LongitudeDegrees>-3.75924375839531421661376953125</LongitudeDegrees>
            </Position>
            <AltitudeMeters>1042.199951171875</AltitudeMeters>
            <DistanceMeters>26456.008579311</DistanceMeters>
          </Trackpoint>
          <Trackpoint>
            <Time>2020-03-07T13:55:37.000Z</Time>
            <Position>
              <LatitudeDegrees>40.71426652371883392333984375</LatitudeDegrees>
              <LongitudeDegrees>-3.75917972065508365631103515625</LongitudeDegrees>
            </Position>
            <AltitudeMeters>1042.199951171875</AltitudeMeters>
            <DistanceMeters>26461.758284508</DistanceMeters>
          </Trackpoint>
          <Trackpoint>
            <Time>2020-03-07T13:55:38.000Z</Time>
            <Position>
              <LatitudeDegrees>40.71428270079195499420166015625</LatitudeDegrees>
              <LongitudeDegrees>-3.7591130845248699188232421875</LongitudeDegrees>
            </Position>
            <AltitudeMeters>1042.199951171875</AltitudeMeters>
            <DistanceMeters>26467.661424774</DistanceMeters>
          </Trackpoint>
          <Trackpoint>
            <Time>2020-03-07T13:55:39.000Z</Time>
            <Position>
              <LatitudeDegrees>40.71429879404604434967041015625</LatitudeDegrees>
              <LongitudeDegrees>-3.75904561020433902740478515625</LongitudeDegrees>
            </Position>
            <AltitudeMeters>1042.199951171875</AltitudeMeters>
            <DistanceMeters>26473.629223488</DistanceMeters>
          </Trackpoint>
          <Trackpoint>
            <Time>2020-03-07T13:55:40.000Z</Time>
            <Position>
              <LatitudeDegrees>40.71431622840464115142822265625</LatitudeDegrees>
              <LongitudeDegrees>-3.7589779682457447052001953125</LongitudeDegrees>
            </Position>
            <AltitudeMeters>1042.199951171875</AltitudeMeters>
            <DistanceMeters>26479.655745492</DistanceMeters>
          </Trackpoint>
          <Trackpoint>
            <Time>2020-03-07T13:55:41.000Z</Time>
            <Position>
              <LatitudeDegrees>40.71433416567742824554443359375</LatitudeDegrees>
              <LongitudeDegrees>-3.75891032628715038299560546875</LongitudeDegrees>
            </Position>
            <AltitudeMeters>1042.199951171875</AltitudeMeters>
            <DistanceMeters>26485.700221424</DistanceMeters>
          </Trackpoint>
          <Trackpoint>
            <Time>2020-03-07T13:55:42.000Z</Time>
            <Position>
              <LatitudeDegrees>40.7143525220453739166259765625</LatitudeDegrees>
              <LongitudeDegrees>-3.758842684328556060791015625</LongitudeDegrees>
            </Position>
            <AltitudeMeters>1042.199951171875</AltitudeMeters>
            <DistanceMeters>26491.761108403</DistanceMeters>
          </Trackpoint>
          <Trackpoint>
            <Time>2020-03-07T13:55:43.000Z</Time>
            <Position>
              <LatitudeDegrees>40.714371465146541595458984375</LatitudeDegrees>
              <LongitudeDegrees>-3.758775293827056884765625</LongitudeDegrees>
            </Position>
            <AltitudeMeters>1042.199951171875</AltitudeMeters>
            <DistanceMeters>26497.823485093</DistanceMeters>
          </Trackpoint>
          <Trackpoint>
            <Time>2020-03-07T13:55:44.000Z</Time>
            <Position>
              <LatitudeDegrees>40.71438931860029697418212890625</LatitudeDegrees>
              <LongitudeDegrees>-3.75870798714458942413330078125</LongitudeDegrees>
            </Position>
            <AltitudeMeters>1042.199951171875</AltitudeMeters>
            <DistanceMeters>26503.839509227</DistanceMeters>
          </Trackpoint>
          <Trackpoint>
            <Time>2020-03-07T13:55:45.000Z</Time>
            <Position>
              <LatitudeDegrees>40.71440507657825946807861328125</LatitudeDegrees>
              <LongitudeDegrees>-3.75864160247147083282470703125</LongitudeDegrees>
            </Position>
            <AltitudeMeters>1042.199951171875</AltitudeMeters>
            <DistanceMeters>26509.708899454</DistanceMeters>
          </Trackpoint>
          <Trackpoint>
            <Time>2020-03-07T13:55:46.000Z</Time>
            <Position>
              <LatitudeDegrees>40.714421086013317108154296875</LatitudeDegrees>
              <LongitudeDegrees>-3.7585763074457645416259765625</LongitudeDegrees>
            </Position>
            <AltitudeMeters>1042.199951171875</AltitudeMeters>
            <DistanceMeters>26515.498514619</DistanceMeters>
          </Trackpoint>
          <Trackpoint>
            <Time>2020-03-07T13:55:47.000Z</Time>
            <Position>
              <LatitudeDegrees>40.714437849819660186767578125</LatitudeDegrees>
              <LongitudeDegrees>-3.7585126049816608428955078125</LongitudeDegrees>
            </Position>
            <AltitudeMeters>1042.4000244140625</AltitudeMeters>
            <DistanceMeters>26521.187433143</DistanceMeters>
          </Trackpoint>
          <Trackpoint>
            <Time>2020-03-07T13:55:48.000Z</Time>
            <Position>
              <LatitudeDegrees>40.7144547812640666961669921875</LatitudeDegrees>
              <LongitudeDegrees>-3.75844932161271572113037109375</LongitudeDegrees>
            </Position>
            <AltitudeMeters>1042.4000244140625</AltitudeMeters>
            <DistanceMeters>26526.849303097</DistanceMeters>
          </Trackpoint>
          <Trackpoint>
            <Time>2020-03-07T13:55:49.000Z</Time>
            <Position>
              <LatitudeDegrees>40.71447229944169521331787109375</LatitudeDegrees>
              <LongitudeDegrees>-3.75838645733892917633056640625</LongitudeDegrees>
            </Position>
            <AltitudeMeters>1042.4000244140625</AltitudeMeters>
            <DistanceMeters>26532.499997772</DistanceMeters>
          </Trackpoint>
          <Trackpoint>
            <Time>2020-03-07T13:55:50.000Z</Time>
            <Position>
              <LatitudeDegrees>40.71448872797191143035888671875</LatitudeDegrees>
              <LongitudeDegrees>-3.75832401216030120849609375</LongitudeDegrees>
            </Position>
            <AltitudeMeters>1042.4000244140625</AltitudeMeters>
            <DistanceMeters>26538.076697806</DistanceMeters>
          </Trackpoint>
          <Trackpoint>
            <Time>2020-03-07T13:55:51.000Z</Time>
            <Position>
              <LatitudeDegrees>40.7145059108734130859375</LatitudeDegrees>
              <LongitudeDegrees>-3.7582608126103878021240234375</LongitudeDegrees>
            </Position>
            <AltitudeMeters>1042.5999755859375</AltitudeMeters>
            <DistanceMeters>26543.740162429</DistanceMeters>
          </Trackpoint>
          <Trackpoint>
            <Time>2020-03-07T13:55:52.000Z</Time>
            <Position>
              <LatitudeDegrees>40.71452443487942218780517578125</LatitudeDegrees>
              <LongitudeDegrees>-3.75819752924144268035888671875</LongitudeDegrees>
            </Position>
            <AltitudeMeters>1042.800048828125</AltitudeMeters>
            <DistanceMeters>26549.462317371</DistanceMeters>
          </Trackpoint>
          <Trackpoint>
            <Time>2020-03-07T13:55:53.000Z</Time>
            <Position>
              <LatitudeDegrees>40.7145422883331775665283203125</LatitudeDegrees>
              <LongitudeDegrees>-3.75813382677733898162841796875</LongitudeDegrees>
            </Position>
            <AltitudeMeters>1042.800048828125</AltitudeMeters>
            <DistanceMeters>26555.192357332</DistanceMeters>
          </Trackpoint>
          <Trackpoint>
            <Time>2020-03-07T13:55:54.000Z</Time>
            <Position>
              <LatitudeDegrees>40.7145600579679012298583984375</LatitudeDegrees>
              <LongitudeDegrees>-3.75807012431323528289794921875</LongitudeDegrees>
            </Position>
            <AltitudeMeters>1043</AltitudeMeters>
            <DistanceMeters>26560.919244588</DistanceMeters>
          </Trackpoint>
          <Trackpoint>
            <Time>2020-03-07T13:55:55.000Z</Time>
            <Position>
              <LatitudeDegrees>40.71457765996456146240234375</LatitudeDegrees>
              <LongitudeDegrees>-3.75800675712525844573974609375</LongitudeDegrees>
            </Position>
            <AltitudeMeters>1043.199951171875</AltitudeMeters>
            <DistanceMeters>26566.61292305</DistanceMeters>
          </Trackpoint>
          <Trackpoint>
            <Time>2020-03-07T13:55:56.000Z</Time>
            <Position>
              <LatitudeDegrees>40.71459534578025341033935546875</LatitudeDegrees>
              <LongitudeDegrees>-3.75794338993728160858154296875</LongitudeDegrees>
            </Position>
            <AltitudeMeters>1043.4000244140625</AltitudeMeters>
            <DistanceMeters>26572.31056509</DistanceMeters>
          </Trackpoint>
          <Trackpoint>
            <Time>2020-03-07T13:55:57.000Z</Time>
            <Position>
              <LatitudeDegrees>40.714613534510135650634765625</LatitudeDegrees>
              <LongitudeDegrees>-3.75787968747317790985107421875</LongitudeDegrees>
            </Position>
            <AltitudeMeters>1043.5999755859375</AltitudeMeters>
            <DistanceMeters>26578.05319856</DistanceMeters>
          </Trackpoint>
          <Trackpoint>
            <Time>2020-03-07T13:55:58.000Z</Time>
            <Position>
              <LatitudeDegrees>40.71463239379227161407470703125</LatitudeDegrees>
              <LongitudeDegrees>-3.7578159011900424957275390625</LongitudeDegrees>
            </Position>
            <AltitudeMeters>1043.800048828125</AltitudeMeters>
            <DistanceMeters>26583.829541042</DistanceMeters>
          </Trackpoint>
          <Trackpoint>
            <Time>2020-03-07T13:55:59.000Z</Time>
            <Position>
              <LatitudeDegrees>40.71465150453150272369384765625</LatitudeDegrees>
              <LongitudeDegrees>-3.75775194726884365081787109375</LongitudeDegrees>
            </Position>
            <AltitudeMeters>1044</AltitudeMeters>
            <DistanceMeters>26589.62850687</DistanceMeters>
          </Trackpoint>
          <Trackpoint>
            <Time>2020-03-07T13:56:00.000Z</Time>
            <Position>
              <LatitudeDegrees>40.71466977708041667938232421875</LatitudeDegrees>
              <LongitudeDegrees>-3.75768790952861309051513671875</LongitudeDegrees>
            </Position>
            <AltitudeMeters>1044.199951171875</AltitudeMeters>
            <DistanceMeters>26595.400939813</DistanceMeters>
          </Trackpoint>
          <Trackpoint>
            <Time>2020-03-07T13:56:01.000Z</Time>
            <Position>
              <LatitudeDegrees>40.71468704380095005035400390625</LatitudeDegrees>
              <LongitudeDegrees>-3.75762370415031909942626953125</LongitudeDegrees>
            </Position>
            <AltitudeMeters>1044.199951171875</AltitudeMeters>
            <DistanceMeters>26601.148288735</DistanceMeters>
          </Trackpoint>
          <Trackpoint>
            <Time>2020-03-07T13:56:02.000Z</Time>
            <Position>
              <LatitudeDegrees>40.71470313705503940582275390625</LatitudeDegrees>
              <LongitudeDegrees>-3.75755958259105682373046875</LongitudeDegrees>
            </Position>
            <AltitudeMeters>1044.4000244140625</AltitudeMeters>
            <DistanceMeters>26606.846723159</DistanceMeters>
          </Trackpoint>
          <Trackpoint>
            <Time>2020-03-07T13:56:03.000Z</Time>
            <Position>
              <LatitudeDegrees>40.71471889503300189971923828125</LatitudeDegrees>
              <LongitudeDegrees>-3.75749646686017513275146484375</LongitudeDegrees>
            </Position>
            <AltitudeMeters>1044.800048828125</AltitudeMeters>
            <DistanceMeters>26612.452493938</DistanceMeters>
          </Trackpoint>
          <Trackpoint>
            <Time>2020-03-07T13:56:04.000Z</Time>
            <Position>
              <LatitudeDegrees>40.71473448537290096282958984375</LatitudeDegrees>
              <LongitudeDegrees>-3.75743351876735687255859375</LongitudeDegrees>
            </Position>
            <AltitudeMeters>1044.800048828125</AltitudeMeters>
            <DistanceMeters>26618.03890103</DistanceMeters>
          </Trackpoint>
          <Trackpoint>
            <Time>2020-03-07T13:56:05.000Z</Time>
            <Position>
              <LatitudeDegrees>40.7147513329982757568359375</LatitudeDegrees>
              <LongitudeDegrees>-3.75737140886485576629638671875</LongitudeDegrees>
            </Position>
            <AltitudeMeters>1045</AltitudeMeters>
            <DistanceMeters>26623.602631977</DistanceMeters>
          </Trackpoint>
          <Trackpoint>
            <Time>2020-03-07T13:56:06.000Z</Time>
            <Position>
              <LatitudeDegrees>40.7147679291665554046630859375</LatitudeDegrees>
              <LongitudeDegrees>-3.75730938278138637542724609375</LongitudeDegrees>
            </Position>
            <AltitudeMeters>1045.4000244140625</AltitudeMeters>
            <DistanceMeters>26629.15173647</DistanceMeters>
          </Trackpoint>
          <Trackpoint>
            <Time>2020-03-07T13:56:07.000Z</Time>
            <Position>
              <LatitudeDegrees>40.71478477679193019866943359375</LatitudeDegrees>
              <LongitudeDegrees>-3.7572477757930755615234375</LongitudeDegrees>
            </Position>
            <AltitudeMeters>1045.4000244140625</AltitudeMeters>
            <DistanceMeters>26634.676377488</DistanceMeters>
          </Trackpoint>
          <Trackpoint>
            <Time>2020-03-07T13:56:08.000Z</Time>
            <Position>
              <LatitudeDegrees>40.7148044742643833160400390625</LatitudeDegrees>
              <LongitudeDegrees>-3.7571862526237964630126953125</LongitudeDegrees>
            </Position>
            <AltitudeMeters>1045.800048828125</AltitudeMeters>
            <DistanceMeters>26640.309466216</DistanceMeters>
          </Trackpoint>
          <Trackpoint>
            <Time>2020-03-07T13:56:09.000Z</Time>
            <Position>
              <LatitudeDegrees>40.714825093746185302734375</LatitudeDegrees>
              <LongitudeDegrees>-3.75712498091161251068115234375</LongitudeDegrees>
            </Position>
            <AltitudeMeters>1045.800048828125</AltitudeMeters>
            <DistanceMeters>26645.964953</DistanceMeters>
          </Trackpoint>
          <Trackpoint>
            <Time>2020-03-07T13:56:10.000Z</Time>
            <Position>
              <LatitudeDegrees>40.71484294719994068145751953125</LatitudeDegrees>
              <LongitudeDegrees>-3.75706329010426998138427734375</LongitudeDegrees>
            </Position>
            <AltitudeMeters>1046</AltitudeMeters>
            <DistanceMeters>26651.536793164</DistanceMeters>
          </Trackpoint>
          <Trackpoint>
            <Time>2020-03-07T13:56:11.000Z</Time>
            <Position>
              <LatitudeDegrees>40.71486088447272777557373046875</LatitudeDegrees>
              <LongitudeDegrees>-3.75700143165886402130126953125</LongitudeDegrees>
            </Position>
            <AltitudeMeters>1046.199951171875</AltitudeMeters>
            <DistanceMeters>26657.124816459</DistanceMeters>
          </Trackpoint>
          <Trackpoint>
            <Time>2020-03-07T13:56:12.000Z</Time>
            <Position>
              <LatitudeDegrees>40.71488049812614917755126953125</LatitudeDegrees>
              <LongitudeDegrees>-3.75694024376571178436279296875</LongitudeDegrees>
            </Position>
            <AltitudeMeters>1046.4000244140625</AltitudeMeters>
            <DistanceMeters>26662.729781753</DistanceMeters>
          </Trackpoint>
          <Trackpoint>
            <Time>2020-03-07T13:56:13.000Z</Time>
            <Position>
              <LatitudeDegrees>40.71490078233182430267333984375</LatitudeDegrees>
              <LongitudeDegrees>-3.756879977881908416748046875</LongitudeDegrees>
            </Position>
            <AltitudeMeters>1046.5999755859375</AltitudeMeters>
            <DistanceMeters>26668.2935127</DistanceMeters>
          </Trackpoint>
          <Trackpoint>
            <Time>2020-03-07T13:56:14.000Z</Time>
            <Position>
              <LatitudeDegrees>40.71492307819426059722900390625</LatitudeDegrees>
              <LongitudeDegrees>-3.75682197511196136474609375</LongitudeDegrees>
            </Position>
            <AltitudeMeters>1047</AltitudeMeters>
            <DistanceMeters>26673.779608287</DistanceMeters>
          </Trackpoint>
          <Trackpoint>
            <Time>2020-03-07T13:56:15.000Z</Time>
            <Position>
              <LatitudeDegrees>40.7149486429989337921142578125</LatitudeDegrees>
              <LongitudeDegrees>-3.75676724128425121307373046875</LongitudeDegrees>
            </Position>
            <AltitudeMeters>1047.199951171875</AltitudeMeters>
            <DistanceMeters>26679.203627927</DistanceMeters>
          </Trackpoint>
          <Trackpoint>
            <Time>2020-03-07T13:56:16.000Z</Time>
            <Position>
              <LatitudeDegrees>40.71497596800327301025390625</LatitudeDegrees>
              <LongitudeDegrees>-3.75671577639877796173095703125</LongitudeDegrees>
            </Position>
            <AltitudeMeters>1047.4000244140625</AltitudeMeters>
            <DistanceMeters>26684.505573605</DistanceMeters>
          </Trackpoint>
          <Trackpoint>
            <Time>2020-03-07T13:56:17.000Z</Time>
            <Position>
              <LatitudeDegrees>40.7150046341121196746826171875</LatitudeDegrees>
              <LongitudeDegrees>-3.75666682608425617218017578125</LongitudeDegrees>
            </Position>
            <AltitudeMeters>1047.5999755859375</AltitudeMeters>
            <DistanceMeters>26689.724262191</DistanceMeters>
          </Trackpoint>
          <Trackpoint>
            <Time>2020-03-07T13:56:18.000Z</Time>
            <Position>
              <LatitudeDegrees>40.71503497660160064697265625</LatitudeDegrees>
              <LongitudeDegrees>-3.75662089325487613677978515625</LongitudeDegrees>
            </Position>
            <AltitudeMeters>1048</AltitudeMeters>
            <DistanceMeters>26694.864496006</DistanceMeters>
          </Trackpoint>
          <Trackpoint>
            <Time>2020-03-07T13:56:19.000Z</Time>
            <Position>
              <LatitudeDegrees>40.71506456471979618072509765625</LatitudeDegrees>
              <LongitudeDegrees>-3.75657462514936923980712890625</LongitudeDegrees>
            </Position>
            <AltitudeMeters>1048.199951171875</AltitudeMeters>
            <DistanceMeters>26699.971242599</DistanceMeters>
          </Trackpoint>
          <Trackpoint>
            <Time>2020-03-07T13:56:20.000Z</Time>
            <Position>
              <LatitudeDegrees>40.7150918059051036834716796875</LatitudeDegrees>
              <LongitudeDegrees>-3.7565262615680694580078125</LongitudeDegrees>
            </Position>
            <AltitudeMeters>1048.5999755859375</AltitudeMeters>
            <DistanceMeters>26705.054949788</DistanceMeters>
          </Trackpoint>
          <Trackpoint>
            <Time>2020-03-07T13:56:21.000Z</Time>
            <Position>
              <LatitudeDegrees>40.715119801461696624755859375</LatitudeDegrees>
              <LongitudeDegrees>-3.75647856853902339935302734375</LongitudeDegrees>
            </Position>
            <AltitudeMeters>1049.199951171875</AltitudeMeters>
            <DistanceMeters>26710.144870153</DistanceMeters>
          </Trackpoint>
          <Trackpoint>
            <Time>2020-03-07T13:56:22.000Z</Time>
            <Position>
              <LatitudeDegrees>40.71515039540827274322509765625</LatitudeDegrees>
              <LongitudeDegrees>-3.7564332224428653717041015625</LongitudeDegrees>
            </Position>
            <AltitudeMeters>1049.4000244140625</AltitudeMeters>
            <DistanceMeters>26715.26574332</DistanceMeters>
          </Trackpoint>
          <Trackpoint>
            <Time>2020-03-07T13:56:23.000Z</Time>
            <Position>
              <LatitudeDegrees>40.71518291719257831573486328125</LatitudeDegrees>
              <LongitudeDegrees>-3.7563886307179927825927734375</LongitudeDegrees>
            </Position>
            <AltitudeMeters>1049.800048828125</AltitudeMeters>
            <DistanceMeters>26720.486161953</DistanceMeters>
          </Trackpoint>
          <Trackpoint>
            <Time>2020-03-07T13:56:24.000Z</Time>
            <Position>
              <LatitudeDegrees>40.7152161933481693267822265625</LatitudeDegrees>
              <LongitudeDegrees>-3.75634278170764446258544921875</LongitudeDegrees>
            </Position>
            <AltitudeMeters>1050</AltitudeMeters>
            <DistanceMeters>26725.842331561</DistanceMeters>
          </Trackpoint>
          <Trackpoint>
            <Time>2020-03-07T13:56:25.000Z</Time>
            <Position>
              <LatitudeDegrees>40.71524980477988719940185546875</LatitudeDegrees>
              <LongitudeDegrees>-3.75629517249763011932373046875</LongitudeDegrees>
            </Position>
            <AltitudeMeters>1050.199951171875</AltitudeMeters>
            <DistanceMeters>26731.331718147</DistanceMeters>
          </Trackpoint>
          <Trackpoint>
            <Time>2020-03-07T13:56:26.000Z</Time>
            <Position>
              <LatitudeDegrees>40.71528299711644649505615234375</LatitudeDegrees>
              <LongitudeDegrees>-3.7562471441924571990966796875</LongitudeDegrees>
            </Position>
            <AltitudeMeters>1050.4000244140625</AltitudeMeters>
            <DistanceMeters>26736.814520759</DistanceMeters>
          </Trackpoint>
          <Trackpoint>
            <Time>2020-03-07T13:56:27.000Z</Time>
            <Position>
              <LatitudeDegrees>40.7153161056339740753173828125</LatitudeDegrees>
              <LongitudeDegrees>-3.75619710423052310943603515625</LongitudeDegrees>
            </Position>
            <AltitudeMeters>1050.800048828125</AltitudeMeters>
            <DistanceMeters>26742.417874736</DistanceMeters>
          </Trackpoint>
          <Trackpoint>
            <Time>2020-03-07T13:56:28.000Z</Time>
            <Position>
              <LatitudeDegrees>40.71534938178956508636474609375</LatitudeDegrees>
              <LongitudeDegrees>-3.75614413060247898101806640625</LongitudeDegrees>
            </Position>
            <AltitudeMeters>1050.800048828125</AltitudeMeters>
            <DistanceMeters>26748.223065972</DistanceMeters>
          </Trackpoint>
          <Trackpoint>
            <Time>2020-03-07T13:56:29.000Z</Time>
            <Position>
              <LatitudeDegrees>40.7153831608593463897705078125</LatitudeDegrees>
              <LongitudeDegrees>-3.756088055670261383056640625</LongitudeDegrees>
            </Position>
            <AltitudeMeters>1051</AltitudeMeters>
            <DistanceMeters>26754.266047781</DistanceMeters>
          </Trackpoint>
          <Trackpoint>
            <Time>2020-03-07T13:56:30.000Z</Time>
            <Position>
              <LatitudeDegrees>40.71541777811944484710693359375</LatitudeDegrees>
              <LongitudeDegrees>-3.75602929852902889251708984375</LongitudeDegrees>
            </Position>
            <AltitudeMeters>1051</AltitudeMeters>
            <DistanceMeters>26760.54428668</DistanceMeters>
          </Trackpoint>
          <Trackpoint>
            <Time>2020-03-07T13:56:31.000Z</Time>
            <Position>
              <LatitudeDegrees>40.71545231156051158905029296875</LatitudeDegrees>
              <LongitudeDegrees>-3.75596827827394008636474609375</LongitudeDegrees>
            </Position>
            <AltitudeMeters>1051</AltitudeMeters>
            <DistanceMeters>26766.969666786</DistanceMeters>
          </Trackpoint>
          <Trackpoint>
            <Time>2020-03-07T13:56:32.000Z</Time>
            <Position>
              <LatitudeDegrees>40.71548416279256343841552734375</LatitudeDegrees>
              <LongitudeDegrees>-3.755905330181121826171875</LongitudeDegrees>
            </Position>
            <AltitudeMeters>1051</AltitudeMeters>
            <DistanceMeters>26773.354868047</DistanceMeters>
          </Trackpoint>
          <Trackpoint>
            <Time>2020-03-07T13:56:33.000Z</Time>
            <Position>
              <LatitudeDegrees>40.7155129127204418182373046875</LatitudeDegrees>
              <LongitudeDegrees>-3.755840621888637542724609375</LongitudeDegrees>
            </Position>
            <AltitudeMeters>1051</AltitudeMeters>
            <DistanceMeters>26779.682534201</DistanceMeters>
          </Trackpoint>
          <Trackpoint>
            <Time>2020-03-07T13:56:34.000Z</Time>
            <Position>
              <LatitudeDegrees>40.71553898043930530548095703125</LatitudeDegrees>
              <LongitudeDegrees>-3.7557744048535823822021484375</LongitudeDegrees>
            </Position>
            <AltitudeMeters>1051</AltitudeMeters>
            <DistanceMeters>26785.977291975</DistanceMeters>
          </Trackpoint>
          <Trackpoint>
            <Time>2020-03-07T13:56:35.000Z</Time>
            <Position>
              <LatitudeDegrees>40.7155635394155979156494140625</LatitudeDegrees>
              <LongitudeDegrees>-3.75570709817111492156982421875</LongitudeDegrees>
            </Position>
            <AltitudeMeters>1051</AltitudeMeters>
            <DistanceMeters>26792.279934776</DistanceMeters>
          </Trackpoint>
          <Trackpoint>
            <Time>2020-03-07T13:56:36.000Z</Time>
            <Position>
              <LatitudeDegrees>40.7155881822109222412109375</LatitudeDegrees>
              <LongitudeDegrees>-3.75563870184123516082763671875</LongitudeDegrees>
            </Position>
            <AltitudeMeters>1051</AltitudeMeters>
            <DistanceMeters>26798.668670608</DistanceMeters>
          </Trackpoint>
          <Trackpoint>
            <Time>2020-03-07T13:56:37.000Z</Time>
            <Position>
              <LatitudeDegrees>40.715613663196563720703125</LatitudeDegrees>
              <LongitudeDegrees>-3.75557013787329196929931640625</LongitudeDegrees>
            </Position>
            <AltitudeMeters>1051</AltitudeMeters>
            <DistanceMeters>26805.110893154</DistanceMeters>
          </Trackpoint>
          <Trackpoint>
            <Time>2020-03-07T13:56:38.000Z</Time>
            <Position>
              <LatitudeDegrees>40.7156393118202686309814453125</LatitudeDegrees>
              <LongitudeDegrees>-3.75550157390534877777099609375</LongitudeDegrees>
            </Position>
            <AltitudeMeters>1051</AltitudeMeters>
            <DistanceMeters>26811.56152043</DistanceMeters>
          </Trackpoint>
          <Trackpoint>
            <Time>2020-03-07T13:56:39.000Z</Time>
            <Position>
              <LatitudeDegrees>40.7156624458730220794677734375</LatitudeDegrees>
              <LongitudeDegrees>-3.755433596670627593994140625</LongitudeDegrees>
            </Position>
            <AltitudeMeters>1051.199951171875</AltitudeMeters>
            <DistanceMeters>26817.847665077</DistanceMeters>
          </Trackpoint>
          <Trackpoint>
            <Time>2020-03-07T13:56:40.000Z</Time>
            <Position>
              <LatitudeDegrees>40.71568541228771209716796875</LatitudeDegrees>
              <LongitudeDegrees>-3.75536746345460414886474609375</LongitudeDegrees>
            </Position>
            <AltitudeMeters>1051.199951171875</AltitudeMeters>
            <DistanceMeters>26823.984066202</DistanceMeters>
          </Trackpoint>
          <Trackpoint>
            <Time>2020-03-07T13:56:41.000Z</Time>
            <Position>
              <LatitudeDegrees>40.71570762433111667633056640625</LatitudeDegrees>
              <LongitudeDegrees>-3.7553020007908344268798828125</LongitudeDegrees>
            </Position>
            <AltitudeMeters>1051.199951171875</AltitudeMeters>
            <DistanceMeters>26830.034514938</DistanceMeters>
          </Trackpoint>
          <Trackpoint>
            <Time>2020-03-07T13:56:42.000Z</Time>
            <Position>
              <LatitudeDegrees>40.7157301716506481170654296875</LatitudeDegrees>
              <LongitudeDegrees>-3.75523603521287441253662109375</LongitudeDegrees>
            </Position>
            <AltitudeMeters>1051.199951171875</AltitudeMeters>
            <DistanceMeters>26836.139195559</DistanceMeters>
          </Trackpoint>
          <Trackpoint>
            <Time>2020-03-07T13:56:43.000Z</Time>
            <Position>
              <LatitudeDegrees>40.715753473341464996337890625</LatitudeDegrees>
              <LongitudeDegrees>-3.75517115928232669830322265625</LongitudeDegrees>
            </Position>
            <AltitudeMeters>1051.199951171875</AltitudeMeters>
            <DistanceMeters>26842.195611208</DistanceMeters>
          </Trackpoint>
          <Trackpoint>
            <Time>2020-03-07T13:56:44.000Z</Time>
            <Position>
              <LatitudeDegrees>40.7157771103084087371826171875</LatitudeDegrees>
              <LongitudeDegrees>-3.75510611571371555328369140625</LongitudeDegrees>
            </Position>
            <AltitudeMeters>1051.199951171875</AltitudeMeters>
            <DistanceMeters>26848.280289788</DistanceMeters>
          </Trackpoint>
          <Trackpoint>
            <Time>2020-03-07T13:56:45.000Z</Time>
            <Position>
              <LatitudeDegrees>40.71580099873244762420654296875</LatitudeDegrees>
              <LongitudeDegrees>-3.75504157505929470062255859375</LongitudeDegrees>
            </Position>
            <AltitudeMeters>1051.199951171875</AltitudeMeters>
            <DistanceMeters>26854.33968669</DistanceMeters>
          </Trackpoint>
          <Trackpoint>
            <Time>2020-03-07T13:56:46.000Z</Time>
            <Position>
              <LatitudeDegrees>40.71582463569939136505126953125</LatitudeDegrees>
              <LongitudeDegrees>-3.75497871078550815582275390625</LongitudeDegrees>
            </Position>
            <AltitudeMeters>1051.199951171875</AltitudeMeters>
            <DistanceMeters>26860.260392455</DistanceMeters>
          </Trackpoint>
          <Trackpoint>
            <Time>2020-03-07T13:56:47.000Z</Time>
            <Position>
              <LatitudeDegrees>40.715847350656986236572265625</LatitudeDegrees>
              <LongitudeDegrees>-3.7549171037971973419189453125</LongitudeDegrees>
            </Position>
            <AltitudeMeters>1051.199951171875</AltitudeMeters>
            <DistanceMeters>26866.039860663</DistanceMeters>
          </Trackpoint>
          <Trackpoint>
            <Time>2020-03-07T13:56:48.000Z</Time>
            <Position>
              <LatitudeDegrees>40.715870149433612823486328125</LatitudeDegrees>
              <LongitudeDegrees>-3.75485591590404510498046875</LongitudeDegrees>
            </Position>
            <AltitudeMeters>1051.199951171875</AltitudeMeters>
            <DistanceMeters>26871.791921171</DistanceMeters>
          </Trackpoint>
          <Trackpoint>
            <Time>2020-03-07T13:56:49.000Z</Time>
            <Position>
              <LatitudeDegrees>40.71589403785765171051025390625</LatitudeDegrees>
              <LongitudeDegrees>-3.75479430891573429107666015625</LongitudeDegrees>
            </Position>
            <AltitudeMeters>1051.5999755859375</AltitudeMeters>
            <DistanceMeters>26877.629686883</DistanceMeters>
          </Trackpoint>
          <Trackpoint>
            <Time>2020-03-07T13:56:50.000Z</Time>
            <Position>
              <LatitudeDegrees>40.71591801010072231292724609375</LatitudeDegrees>
              <LongitudeDegrees>-3.7547337077558040618896484375</LongitudeDegrees>
            </Position>
            <AltitudeMeters>1051.5999755859375</AltitudeMeters>
            <DistanceMeters>26883.39585905</DistanceMeters>
          </Trackpoint>
          <Trackpoint>
            <Time>2020-03-07T13:56:51.000Z</Time>
            <Position>
              <LatitudeDegrees>40.7159420661628246307373046875</LatitudeDegrees>
              <LongitudeDegrees>-3.75467394478619098663330078125</LongitudeDegrees>
            </Position>
            <AltitudeMeters>1051.800048828125</AltitudeMeters>
            <DistanceMeters>26889.104584467</DistanceMeters>
          </Trackpoint>
          <Trackpoint>
            <Time>2020-03-07T13:56:52.000Z</Time>
            <Position>
              <LatitudeDegrees>40.7159668765962123870849609375</LatitudeDegrees>
              <LongitudeDegrees>-3.754614181816577911376953125</LongitudeDegrees>
            </Position>
            <AltitudeMeters>1052</AltitudeMeters>
            <DistanceMeters>26894.853504347</DistanceMeters>
          </Trackpoint>
          <Trackpoint>
            <Time>2020-03-07T13:56:53.000Z</Time>
            <Position>
              <LatitudeDegrees>40.7159926928579807281494140625</LatitudeDegrees>
              <LongitudeDegrees>-3.7545553408563137054443359375</LongitudeDegrees>
            </Position>
            <AltitudeMeters>1052.199951171875</AltitudeMeters>
            <DistanceMeters>26900.589844518</DistanceMeters>
          </Trackpoint>
          <Trackpoint>
            <Time>2020-03-07T13:56:54.000Z</Time>
            <Position>
              <LatitudeDegrees>40.71601976640522480010986328125</LatitudeDegrees>
              <LongitudeDegrees>-3.7544973380863666534423828125</LongitudeDegrees>
            </Position>
            <AltitudeMeters>1052.4000244140625</AltitudeMeters>
            <DistanceMeters>26906.335622053</DistanceMeters>
          </Trackpoint>
          <Trackpoint>
            <Time>2020-03-07T13:56:55.000Z</Time>
            <Position>
              <LatitudeDegrees>40.7160473428666591644287109375</LatitudeDegrees>
              <LongitudeDegrees>-3.75443958677351474761962890625</LongitudeDegrees>
            </Position>
            <AltitudeMeters>1053</AltitudeMeters>
            <DistanceMeters>26912.093958679</DistanceMeters>
          </Trackpoint>
          <Trackpoint>
            <Time>2020-03-07T13:56:56.000Z</Time>
            <Position>
              <LatitudeDegrees>40.71607567369937896728515625</LatitudeDegrees>
              <LongitudeDegrees>-3.75438342802226543426513671875</LongitudeDegrees>
            </Position>
            <AltitudeMeters>1053</AltitudeMeters>
            <DistanceMeters>26917.786050938</DistanceMeters>
          </Trackpoint>
          <Trackpoint>
            <Time>2020-03-07T13:56:57.000Z</Time>
            <Position>
              <LatitudeDegrees>40.71610408835113048553466796875</LatitudeDegrees>
              <LongitudeDegrees>-3.75432752072811126708984375</LongitudeDegrees>
            </Position>
            <AltitudeMeters>1053.4000244140625</AltitudeMeters>
            <DistanceMeters>26923.463847421</DistanceMeters>
          </Trackpoint>
          <Trackpoint>
            <Time>2020-03-07T13:56:58.000Z</Time>
            <Position>
              <LatitudeDegrees>40.71613258682191371917724609375</LatitudeDegrees>
              <LongitudeDegrees>-3.75427186489105224609375</LongitudeDegrees>
            </Position>
            <AltitudeMeters>1053.4000244140625</AltitudeMeters>
            <DistanceMeters>26929.129703205</DistanceMeters>
          </Trackpoint>
          <Trackpoint>
            <Time>2020-03-07T13:56:59.000Z</Time>
            <Position>
              <LatitudeDegrees>40.71616058237850666046142578125</LatitudeDegrees>
              <LongitudeDegrees>-3.7542170472443103790283203125</LongitudeDegrees>
            </Position>
            <AltitudeMeters>1053.800048828125</AltitudeMeters>
            <DistanceMeters>26934.704783753</DistanceMeters>
          </Trackpoint>
          <Trackpoint>
            <Time>2020-03-07T13:57:00.000Z</Time>
            <Position>
              <LatitudeDegrees>40.716190338134765625</LatitudeDegrees>
              <LongitudeDegrees>-3.75416331924498081207275390625</LongitudeDegrees>
            </Position>
            <AltitudeMeters>1054</AltitudeMeters>
            <DistanceMeters>26940.318603022</DistanceMeters>
          </Trackpoint>
          <Trackpoint>
            <Time>2020-03-07T13:57:01.000Z</Time>
            <Position>
              <LatitudeDegrees>40.71622277610003948211669921875</LatitudeDegrees>
              <LongitudeDegrees>-3.754110597074031829833984375</LongitudeDegrees>
            </Position>
            <AltitudeMeters>1054.199951171875</AltitudeMeters>
            <DistanceMeters>26946.047066848</DistanceMeters>
          </Trackpoint>
          <Trackpoint>
            <Time>2020-03-07T13:57:02.000Z</Time>
            <Position>
              <LatitudeDegrees>40.7162560522556304931640625</LatitudeDegrees>
              <LongitudeDegrees>-3.75405686907470226287841796875</LongitudeDegrees>
            </Position>
            <AltitudeMeters>1054.5999755859375</AltitudeMeters>
            <DistanceMeters>26951.900280497</DistanceMeters>
          </Trackpoint>
          <Trackpoint>
            <Time>2020-03-07T13:57:03.000Z</Time>
            <Position>
              <LatitudeDegrees>40.7162904180586338043212890625</LatitudeDegrees>
              <LongitudeDegrees>-3.75400272198021411895751953125</LongitudeDegrees>
            </Position>
            <AltitudeMeters>1054.800048828125</AltitudeMeters>
            <DistanceMeters>26957.858235726</DistanceMeters>
          </Trackpoint>
          <Trackpoint>
            <Time>2020-03-07T13:57:04.000Z</Time>
            <Position>
              <LatitudeDegrees>40.71632646024227142333984375</LatitudeDegrees>
              <LongitudeDegrees>-3.75394999980926513671875</LongitudeDegrees>
            </Position>
            <AltitudeMeters>1055.199951171875</AltitudeMeters>
            <DistanceMeters>26963.848688445</DistanceMeters>
          </Trackpoint>
          <Trackpoint>
            <Time>2020-03-07T13:57:05.000Z</Time>
            <Position>
              <LatitudeDegrees>40.7163645140826702117919921875</LatitudeDegrees>
              <LongitudeDegrees>-3.7538992054760456085205078125</LongitudeDegrees>
            </Position>
            <AltitudeMeters>1055.5999755859375</AltitudeMeters>
            <DistanceMeters>26969.874461208</DistanceMeters>
          </Trackpoint>
          <Trackpoint>
            <Time>2020-03-07T13:57:06.000Z</Time>
            <Position>
              <LatitudeDegrees>40.7164040766656398773193359375</LatitudeDegrees>
              <LongitudeDegrees>-3.75384966842830181121826171875</LongitudeDegrees>
            </Position>
            <AltitudeMeters>1055.800048828125</AltitudeMeters>
            <DistanceMeters>26975.94502477</DistanceMeters>
          </Trackpoint>
          <Trackpoint>
            <Time>2020-03-07T13:57:07.000Z</Time>
            <Position>
              <LatitudeDegrees>40.71644389070570468902587890625</LatitudeDegrees>
              <LongitudeDegrees>-3.7537996284663677215576171875</LongitudeDegrees>
            </Position>
            <AltitudeMeters>1056</AltitudeMeters>
            <DistanceMeters>26982.06521734</DistanceMeters>
          </Trackpoint>
          <Trackpoint>
            <Time>2020-03-07T13:57:08.000Z</Time>
            <Position>
              <LatitudeDegrees>40.71648336946964263916015625</LatitudeDegrees>
              <LongitudeDegrees>-3.75374841503798961639404296875</LongitudeDegrees>
            </Position>
            <AltitudeMeters>1056.199951171875</AltitudeMeters>
            <DistanceMeters>26988.227316937</DistanceMeters>
          </Trackpoint>
          <Trackpoint>
            <Time>2020-03-07T13:57:09.000Z</Time>
            <Position>
              <LatitudeDegrees>40.7165214233100414276123046875</LatitudeDegrees>
              <LongitudeDegrees>-3.7536973692476749420166015625</LongitudeDegrees>
            </Position>
            <AltitudeMeters>1056.4000244140625</AltitudeMeters>
            <DistanceMeters>26994.268056868</DistanceMeters>
          </Trackpoint>
          <Trackpoint>
            <Time>2020-03-07T13:57:10.000Z</Time>
            <Position>
              <LatitudeDegrees>40.71655821986496448516845703125</LatitudeDegrees>
              <LongitudeDegrees>-3.7536443956196308135986328125</LongitudeDegrees>
            </Position>
            <AltitudeMeters>1056.4000244140625</AltitudeMeters>
            <DistanceMeters>27000.329688748</DistanceMeters>
          </Trackpoint>
          <Trackpoint>
            <Time>2020-03-07T13:57:11.000Z</Time>
            <Position>
              <LatitudeDegrees>40.71659493260085582733154296875</LatitudeDegrees>
              <LongitudeDegrees>-3.75359033234417438507080078125</LongitudeDegrees>
            </Position>
            <AltitudeMeters>1056.4000244140625</AltitudeMeters>
            <DistanceMeters>27006.453568847</DistanceMeters>
          </Trackpoint>
          <Trackpoint>
            <Time>2020-03-07T13:57:12.000Z</Time>
            <Position>
              <LatitudeDegrees>40.71663231588900089263916015625</LatitudeDegrees>
              <LongitudeDegrees>-3.7535364367067813873291015625</LongitudeDegrees>
            </Position>
            <AltitudeMeters>1056.5999755859375</AltitudeMeters>
            <DistanceMeters>27012.617133692</DistanceMeters>
          </Trackpoint>
          <Trackpoint>
            <Time>2020-03-07T13:57:13.000Z</Time>
            <Position>
              <LatitudeDegrees>40.71667112410068511962890625</LatitudeDegrees>
              <LongitudeDegrees>-3.753483295440673828125</LongitudeDegrees>
            </Position>
            <AltitudeMeters>1056.5999755859375</AltitudeMeters>
            <DistanceMeters>27018.842652795</DistanceMeters>
          </Trackpoint>
          <Trackpoint>
            <Time>2020-03-07T13:57:14.000Z</Time>
            <Position>
              <LatitudeDegrees>40.7167121954262256622314453125</LatitudeDegrees>
              <LongitudeDegrees>-3.75343040563166141510009765625</LongitudeDegrees>
            </Position>
            <AltitudeMeters>1056.5999755859375</AltitudeMeters>
            <DistanceMeters>27025.230681869</DistanceMeters>
          </Trackpoint>
          <Trackpoint>
            <Time>2020-03-07T13:57:15.000Z</Time>
            <Position>
              <LatitudeDegrees>40.71675561368465423583984375</LatitudeDegrees>
              <LongitudeDegrees>-3.7533761747181415557861328125</LongitudeDegrees>
            </Position>
            <AltitudeMeters>1056.5999755859375</AltitudeMeters>
            <DistanceMeters>27031.88526637</DistanceMeters>
          </Trackpoint>
          <Trackpoint>
            <Time>2020-03-07T13:57:16.000Z</Time>
            <Position>
              <LatitudeDegrees>40.71679978631436824798583984375</LatitudeDegrees>
              <LongitudeDegrees>-3.7533188425004482269287109375</LongitudeDegrees>
            </Position>
            <AltitudeMeters>1056.5999755859375</AltitudeMeters>
            <DistanceMeters>27038.782399304</DistanceMeters>
          </Trackpoint>
          <Trackpoint>
            <Time>2020-03-07T13:57:17.000Z</Time>
            <Position>
              <LatitudeDegrees>40.7168439589440822601318359375</LatitudeDegrees>
              <LongitudeDegrees>-3.75325891189277172088623046875</LongitudeDegrees>
            </Position>
            <AltitudeMeters>1056.5999755859375</AltitudeMeters>
            <DistanceMeters>27045.834252321</DistanceMeters>
          </Trackpoint>
          <Trackpoint>
            <Time>2020-03-07T13:57:18.000Z</Time>
            <Position>
              <LatitudeDegrees>40.71688880212604999542236328125</LatitudeDegrees>
              <LongitudeDegrees>-3.75319772399961948394775390625</LongitudeDegrees>
            </Position>
            <AltitudeMeters>1056.800048828125</AltitudeMeters>
            <DistanceMeters>27053.014902465</DistanceMeters>
          </Trackpoint>
          <Trackpoint>
            <Time>2020-03-07T13:57:19.000Z</Time>
            <Position>
              <LatitudeDegrees>40.716934315860271453857421875</LatitudeDegrees>
              <LongitudeDegrees>-3.75313586555421352386474609375</LongitudeDegrees>
            </Position>
            <AltitudeMeters>1056.800048828125</AltitudeMeters>
            <DistanceMeters>27060.287395692</DistanceMeters>
          </Trackpoint>
          <Trackpoint>
            <Time>2020-03-07T13:57:20.000Z</Time>
            <Position>
              <LatitudeDegrees>40.716981254518032073974609375</LatitudeDegrees>
              <LongitudeDegrees>-3.75307358801364898681640625</LongitudeDegrees>
            </Position>
            <AltitudeMeters>1057</AltitudeMeters>
            <DistanceMeters>27067.69704243</DistanceMeters>
          </Trackpoint>
          <Trackpoint>
            <Time>2020-03-07T13:57:21.000Z</Time>
            <Position>
              <LatitudeDegrees>40.7170285284519195556640625</LatitudeDegrees>
              <LongitudeDegrees>-3.75301097519695758819580078125</LongitudeDegrees>
            </Position>
            <AltitudeMeters>1057</AltitudeMeters>
            <DistanceMeters>27075.152855638</DistanceMeters>
          </Trackpoint>
          <Trackpoint>
            <Time>2020-03-07T13:57:22.000Z</Time>
            <Position>
              <LatitudeDegrees>40.71707739494740962982177734375</LatitudeDegrees>
              <LongitudeDegrees>-3.7529490329325199127197265625</LongitudeDegrees>
            </Position>
            <AltitudeMeters>1057</AltitudeMeters>
            <DistanceMeters>27082.694768626</DistanceMeters>
          </Trackpoint>
          <Trackpoint>
            <Time>2020-03-07T13:57:23.000Z</Time>
            <Position>
              <LatitudeDegrees>40.7171277701854705810546875</LatitudeDegrees>
              <LongitudeDegrees>-3.75288583338260650634765625</LongitudeDegrees>
            </Position>
            <AltitudeMeters>1057</AltitudeMeters>
            <DistanceMeters>27090.431717427</DistanceMeters>
          </Trackpoint>
          <Trackpoint>
            <Time>2020-03-07T13:57:24.000Z</Time>
            <Position>
              <LatitudeDegrees>40.71717697195708751678466796875</LatitudeDegrees>
              <LongitudeDegrees>-3.7528194487094879150390625</LongitudeDegrees>
            </Position>
            <AltitudeMeters>1057.199951171875</AltitudeMeters>
            <DistanceMeters>27098.264363171</DistanceMeters>
          </Trackpoint>
          <Trackpoint>
            <Time>2020-03-07T13:57:25.000Z</Time>
            <Position>
              <LatitudeDegrees>40.7172251679003238677978515625</LatitudeDegrees>
              <LongitudeDegrees>-3.752751052379608154296875</LongitudeDegrees>
            </Position>
            <AltitudeMeters>1057.199951171875</AltitudeMeters>
            <DistanceMeters>27106.142989033</DistanceMeters>
          </Trackpoint>
          <Trackpoint>
            <Time>2020-03-07T13:57:26.000Z</Time>
            <Position>
              <LatitudeDegrees>40.71727369911968708038330078125</LatitudeDegrees>
              <LongitudeDegrees>-3.75268558971583843231201171875</LongitudeDegrees>
            </Position>
            <AltitudeMeters>1057.199951171875</AltitudeMeters>
            <DistanceMeters>27113.867673179</DistanceMeters>
          </Trackpoint>
          <Trackpoint>
            <Time>2020-03-07T13:57:27.000Z</Time>
            <Position>
              <LatitudeDegrees>40.71732214652001857757568359375</LatitudeDegrees>
              <LongitudeDegrees>-3.75262356363236904144287109375</LongitudeDegrees>
            </Position>
            <AltitudeMeters>1057.199951171875</AltitudeMeters>
            <DistanceMeters>27121.381997367</DistanceMeters>
          </Trackpoint>
          <Trackpoint>
            <Time>2020-03-07T13:57:28.000Z</Time>
            <Position>
              <LatitudeDegrees>40.7173691689968109130859375</LatitudeDegrees>
              <LongitudeDegrees>-3.75256128609180450439453125</LongitudeDegrees>
            </Position>
            <AltitudeMeters>1057.199951171875</AltitudeMeters>
            <DistanceMeters>27128.79773506</DistanceMeters>
          </Trackpoint>
          <Trackpoint>
            <Time>2020-03-07T13:57:29.000Z</Time>
            <Position>
              <LatitudeDegrees>40.71741543710231781005859375</LatitudeDegrees>
              <LongitudeDegrees>-3.752499260008335113525390625</LongitudeDegrees>
            </Position>
            <AltitudeMeters>1057.199951171875</AltitudeMeters>
            <DistanceMeters>27136.138817829</DistanceMeters>
          </Trackpoint>
          <Trackpoint>
            <Time>2020-03-07T13:57:30.000Z</Time>
            <Position>
              <LatitudeDegrees>40.71746212430298328399658203125</LatitudeDegrees>
              <LongitudeDegrees>-3.75243748538196086883544921875</LongitudeDegrees>
            </Position>
            <AltitudeMeters>1057.199951171875</AltitudeMeters>
            <DistanceMeters>27143.498328581</DistanceMeters>
          </Trackpoint>
          <Trackpoint>
            <Time>2020-03-07T13:57:31.000Z</Time>
            <Position>
              <LatitudeDegrees>40.71750856004655361175537109375</LatitudeDegrees>
              <LongitudeDegrees>-3.75237562693655490875244140625</LongitudeDegrees>
            </Position>
            <AltitudeMeters>1057.199951171875</AltitudeMeters>
            <DistanceMeters>27150.843100646</DistanceMeters>
          </Trackpoint>
          <Trackpoint>
            <Time>2020-03-07T13:57:32.000Z</Time>
            <Position>
              <LatitudeDegrees>40.71755533106625080108642578125</LatitudeDegrees>
              <LongitudeDegrees>-3.7523143552243709564208984375</LongitudeDegrees>
            </Position>
            <AltitudeMeters>1057.199951171875</AltitudeMeters>
            <DistanceMeters>27158.179261468</DistanceMeters>
          </Trackpoint>
          <Trackpoint>
            <Time>2020-03-07T13:57:33.000Z</Time>
            <Position>
              <LatitudeDegrees>40.7176020182669162750244140625</LatitudeDegrees>
              <LongitudeDegrees>-3.7522543407976627349853515625</LongitudeDegrees>
            </Position>
            <AltitudeMeters>1057.199951171875</AltitudeMeters>
            <DistanceMeters>27165.433728058</DistanceMeters>
          </Trackpoint>
          <Trackpoint>
            <Time>2020-03-07T13:57:34.000Z</Time>
            <Position>
              <LatitudeDegrees>40.7176492922008037567138671875</LatitudeDegrees>
              <LongitudeDegrees>-3.752194829285144805908203125</LongitudeDegrees>
            </Position>
            <AltitudeMeters>1057.199951171875</AltitudeMeters>
            <DistanceMeters>27172.706842096</DistanceMeters>
          </Trackpoint>
          <Trackpoint>
            <Time>2020-03-07T13:57:35.000Z</Time>
            <Position>
              <LatitudeDegrees>40.7176958955824375152587890625</LatitudeDegrees>
              <LongitudeDegrees>-3.752135820686817169189453125</LongitudeDegrees>
            </Position>
            <AltitudeMeters>1057.199951171875</AltitudeMeters>
            <DistanceMeters>27179.89628975</DistanceMeters>
          </Trackpoint>
          <Trackpoint>
            <Time>2020-03-07T13:57:36.000Z</Time>
            <Position>
              <LatitudeDegrees>40.71774241514503955841064453125</LatitudeDegrees>
              <LongitudeDegrees>-3.75207639299333095550537109375</LongitudeDegrees>
            </Position>
            <AltitudeMeters>1057.199951171875</AltitudeMeters>
            <DistanceMeters>27187.103300205</DistanceMeters>
          </Trackpoint>
          <Trackpoint>
            <Time>2020-03-07T13:57:37.000Z</Time>
            <Position>
              <LatitudeDegrees>40.717788599431514739990234375</LatitudeDegrees>
              <LongitudeDegrees>-3.752017803490161895751953125</LongitudeDegrees>
            </Position>
            <AltitudeMeters>1057.199951171875</AltitudeMeters>
            <DistanceMeters>27194.234736984</DistanceMeters>
          </Trackpoint>
          <Trackpoint>
            <Time>2020-03-07T13:57:38.000Z</Time>
            <Position>
              <LatitudeDegrees>40.71783646009862422943115234375</LatitudeDegrees>
              <LongitudeDegrees>-3.7519623152911663055419921875</LongitudeDegrees>
            </Position>
            <AltitudeMeters>1057.199951171875</AltitudeMeters>
            <DistanceMeters>27201.326811842</DistanceMeters>
          </Trackpoint>
          <Trackpoint>
            <Time>2020-03-07T13:57:39.000Z</Time>
            <Position>
              <LatitudeDegrees>40.71788608096539974212646484375</LatitudeDegrees>
              <LongitudeDegrees>-3.7519103474915027618408203125</LongitudeDegrees>
            </Position>
            <AltitudeMeters>1057.199951171875</AltitudeMeters>
            <DistanceMeters>27208.378024568</DistanceMeters>
          </Trackpoint>
          <Trackpoint>
            <Time>2020-03-07T13:57:40.000Z</Time>
            <Position>
              <LatitudeDegrees>40.7179366238415241241455078125</LatitudeDegrees>
              <LongitudeDegrees>-3.751860223710536956787109375</LongitudeDegrees>
            </Position>
            <AltitudeMeters>1057.199951171875</AltitudeMeters>
            <DistanceMeters>27215.415136136</DistanceMeters>
          </Trackpoint>
          <Trackpoint>
            <Time>2020-03-07T13:57:41.000Z</Time>
            <Position>
              <LatitudeDegrees>40.7179887592792510986328125</LatitudeDegrees>
              <LongitudeDegrees>-3.751810602843761444091796875</LongitudeDegrees>
            </Position>
            <AltitudeMeters>1057.4000244140625</AltitudeMeters>
            <DistanceMeters>27222.570590939</DistanceMeters>
          </Trackpoint>
          <Trackpoint>
            <Time>2020-03-07T13:57:42.000Z</Time>
            <Position>
              <LatitudeDegrees>40.7180402241647243499755859375</LatitudeDegrees>
              <LongitudeDegrees>-3.75176005996763706207275390625</LongitudeDegrees>
            </Position>
            <AltitudeMeters>1057.5999755859375</AltitudeMeters>
            <DistanceMeters>27229.711518167</DistanceMeters>
          </Trackpoint>
          <Trackpoint>
            <Time>2020-03-07T13:57:43.000Z</Time>
            <Position>
              <LatitudeDegrees>40.718092359602451324462890625</LatitudeDegrees>
              <LongitudeDegrees>-3.75170909799635410308837890625</LongitudeDegrees>
            </Position>
            <AltitudeMeters>1057.800048828125</AltitudeMeters>
            <DistanceMeters>27236.933548459</DistanceMeters>
          </Trackpoint>
          <Trackpoint>
            <Time>2020-03-07T13:57:44.000Z</Time>
            <Position>
              <LatitudeDegrees>40.71814675815403461456298828125</LatitudeDegrees>
              <LongitudeDegrees>-3.75166081823408603668212890625</LongitudeDegrees>
            </Position>
            <AltitudeMeters>1058</AltitudeMeters>
            <DistanceMeters>27244.230214185</DistanceMeters>
          </Trackpoint>
          <Trackpoint>
            <Time>2020-03-07T13:57:45.000Z</Time>
            <Position>
              <LatitudeDegrees>40.71820157580077648162841796875</LatitudeDegrees>
              <LongitudeDegrees>-3.75161371193826198577880859375</LongitudeDegrees>
            </Position>
            <AltitudeMeters>1058.4000244140625</AltitudeMeters>
            <DistanceMeters>27251.512014023</DistanceMeters>
          </Trackpoint>
          <Trackpoint>
            <Time>2020-03-07T13:57:46.000Z</Time>
            <Position>
              <LatitudeDegrees>40.7182568125426769256591796875</LatitudeDegrees>
              <LongitudeDegrees>-3.7515670247375965118408203125</LongitudeDegrees>
            </Position>
            <AltitudeMeters>1058.5999755859375</AltitudeMeters>
            <DistanceMeters>27258.813628319</DistanceMeters>
          </Trackpoint>
          <Trackpoint>
            <Time>2020-03-07T13:57:47.000Z</Time>
            <Position>
              <LatitudeDegrees>40.71831221692264080047607421875</LatitudeDegrees>
              <LongitudeDegrees>-3.75152050517499446868896484375</LongitudeDegrees>
            </Position>
            <AltitudeMeters>1058.800048828125</AltitudeMeters>
            <DistanceMeters>27266.122659188</DistanceMeters>
          </Trackpoint>
          <Trackpoint>
            <Time>2020-03-07T13:57:48.000Z</Time>
            <Position>
              <LatitudeDegrees>40.7183682918548583984375</LatitudeDegrees>
              <LongitudeDegrees>-3.75147306360304355621337890625</LongitudeDegrees>
            </Position>
            <AltitudeMeters>1058.800048828125</AltitudeMeters>
            <DistanceMeters>27273.535961099</DistanceMeters>
          </Trackpoint>
          <Trackpoint>
            <Time>2020-03-07T13:57:49.000Z</Time>
            <Position>
              <LatitudeDegrees>40.7184237800538539886474609375</LatitudeDegrees>
              <LongitudeDegrees>-3.7514241971075534820556640625</LongitudeDegrees>
            </Position>
            <AltitudeMeters>1059</AltitudeMeters>
            <DistanceMeters>27280.960825859</DistanceMeters>
          </Trackpoint>
          <Trackpoint>
            <Time>2020-03-07T13:57:50.000Z</Time>
            <Position>
              <LatitudeDegrees>40.71847935207188129425048828125</LatitudeDegrees>
              <LongitudeDegrees>-3.7513755820691585540771484375</LongitudeDegrees>
            </Position>
            <AltitudeMeters>1059</AltitudeMeters>
            <DistanceMeters>27288.38264951</DistanceMeters>
          </Trackpoint>
          <Trackpoint>
            <Time>2020-03-07T13:57:51.000Z</Time>
            <Position>
              <LatitudeDegrees>40.71853517554700374603271484375</LatitudeDegrees>
              <LongitudeDegrees>-3.7513269670307636260986328125</LongitudeDegrees>
            </Position>
            <AltitudeMeters>1059</AltitudeMeters>
            <DistanceMeters>27295.827554426</DistanceMeters>
          </Trackpoint>
          <Trackpoint>
            <Time>2020-03-07T13:57:52.000Z</Time>
            <Position>
              <LatitudeDegrees>40.7185904122889041900634765625</LatitudeDegrees>
              <LongitudeDegrees>-3.75127793289721012115478515625</LongitudeDegrees>
            </Position>
            <AltitudeMeters>1059.4000244140625</AltitudeMeters>
            <DistanceMeters>27303.238419755</DistanceMeters>
          </Trackpoint>
          <Trackpoint>
            <Time>2020-03-07T13:57:53.000Z</Time>
            <Position>
              <LatitudeDegrees>40.71864548139274120330810546875</LatitudeDegrees>
              <LongitudeDegrees>-3.7512297369539737701416015625</LongitudeDegrees>
            </Position>
            <AltitudeMeters>1059.199951171875</AltitudeMeters>
            <DistanceMeters>27310.594248604</DistanceMeters>
          </Trackpoint>
          <Trackpoint>
            <Time>2020-03-07T13:57:54.000Z</Time>
            <Position>
              <LatitudeDegrees>40.71870063431560993194580078125</LatitudeDegrees>
              <LongitudeDegrees>-3.75118263065814971923828125</LongitudeDegrees>
            </Position>
            <AltitudeMeters>1059.199951171875</AltitudeMeters>
            <DistanceMeters>27317.906984939</DistanceMeters>
          </Trackpoint>
          <Trackpoint>
            <Time>2020-03-07T13:57:55.000Z</Time>
            <Position>
              <LatitudeDegrees>40.71875561960041522979736328125</LatitudeDegrees>
              <LongitudeDegrees>-3.7511355243623256683349609375</LongitudeDegrees>
            </Position>
            <AltitudeMeters>1059.199951171875</AltitudeMeters>
            <DistanceMeters>27325.203650665</DistanceMeters>
          </Trackpoint>
          <Trackpoint>
            <Time>2020-03-07T13:57:56.000Z</Time>
            <Position>
              <LatitudeDegrees>40.71881043724715709686279296875</LatitudeDegrees>
              <LongitudeDegrees>-3.75108699314296245574951171875</LongitudeDegrees>
            </Position>
            <AltitudeMeters>1059.199951171875</AltitudeMeters>
            <DistanceMeters>27332.55088123</DistanceMeters>
          </Trackpoint>
          <Trackpoint>
            <Time>2020-03-07T13:57:57.000Z</Time>
            <Position>
              <LatitudeDegrees>40.7188660092651844024658203125</LatitudeDegrees>
              <LongitudeDegrees>-3.7510393001139163970947265625</LongitudeDegrees>
            </Position>
            <AltitudeMeters>1059.199951171875</AltitudeMeters>
            <DistanceMeters>27339.929997773</DistanceMeters>
          </Trackpoint>
          <Trackpoint>
            <Time>2020-03-07T13:57:58.000Z</Time>
            <Position>
              <LatitudeDegrees>40.7189223356544971466064453125</LatitudeDegrees>
              <LongitudeDegrees>-3.75099244527518749237060546875</LongitudeDegrees>
            </Position>
            <AltitudeMeters>1059.199951171875</AltitudeMeters>
            <DistanceMeters>27347.341472324</DistanceMeters>
          </Trackpoint>
          <Trackpoint>
            <Time>2020-03-07T13:57:59.000Z</Time>
            <Position>
              <LatitudeDegrees>40.7189784944057464599609375</LatitudeDegrees>
              <LongitudeDegrees>-3.75094500370323657989501953125</LongitudeDegrees>
            </Position>
            <AltitudeMeters>1059.199951171875</AltitudeMeters>
            <DistanceMeters>27354.764512567</DistanceMeters>
          </Trackpoint>
          <Trackpoint>
            <Time>2020-03-07T13:58:00.000Z</Time>
            <Position>
              <LatitudeDegrees>40.7190348207950592041015625</LatitudeDegrees>
              <LongitudeDegrees>-3.750896640121936798095703125</LongitudeDegrees>
            </Position>
            <AltitudeMeters>1059.4000244140625</AltitudeMeters>
            <DistanceMeters>27362.244509469</DistanceMeters>
          </Trackpoint>
          <Trackpoint>
            <Time>2020-03-07T13:58:01.000Z</Time>
            <Position>
              <LatitudeDegrees>40.719092153012752532958984375</LatitudeDegrees>
              <LongitudeDegrees>-3.7508481927216053009033203125</LongitudeDegrees>
            </Position>
            <AltitudeMeters>1059.4000244140625</AltitudeMeters>
            <DistanceMeters>27369.822256898</DistanceMeters>
          </Trackpoint>
          <Trackpoint>
            <Time>2020-03-07T13:58:02.000Z</Time>
            <Position>
              <LatitudeDegrees>40.71914973668754100799560546875</LatitudeDegrees>
              <LongitudeDegrees>-3.75079907476902008056640625</LongitudeDegrees>
            </Position>
            <AltitudeMeters>1059.4000244140625</AltitudeMeters>
            <DistanceMeters>27377.454032122</DistanceMeters>
          </Trackpoint>
          <Trackpoint>
            <Time>2020-03-07T13:58:03.000Z</Time>
            <Position>
              <LatitudeDegrees>40.71920723654329776763916015625</LatitudeDegrees>
              <LongitudeDegrees>-3.75074802897870540618896484375</LongitudeDegrees>
            </Position>
            <AltitudeMeters>1059.4000244140625</AltitudeMeters>
            <DistanceMeters>27385.168188185</DistanceMeters>
          </Trackpoint>
          <Trackpoint>
            <Time>2020-03-07T13:58:04.000Z</Time>
            <Position>
              <LatitudeDegrees>40.71926473639905452728271484375</LatitudeDegrees>
              <LongitudeDegrees>-3.75069673173129558563232421875</LongitudeDegrees>
            </Position>
            <AltitudeMeters>1059.4000244140625</AltitudeMeters>
            <DistanceMeters>27392.894041232</DistanceMeters>
          </Trackpoint>
          <Trackpoint>
            <Time>2020-03-07T13:58:05.000Z</Time>
            <Position>
              <LatitudeDegrees>40.719322822988033294677734375</LatitudeDegrees>
              <LongitudeDegrees>-3.750645853579044342041015625</LongitudeDegrees>
            </Position>
            <AltitudeMeters>1059.4000244140625</AltitudeMeters>
            <DistanceMeters>27400.654297658</DistanceMeters>
          </Trackpoint>
          <Trackpoint>
            <Time>2020-03-07T13:58:06.000Z</Time>
            <Position>
              <LatitudeDegrees>40.71938258595764636993408203125</LatitudeDegrees>
              <LongitudeDegrees>-3.75059480778872966766357421875</LongitudeDegrees>
            </Position>
            <AltitudeMeters>1059.4000244140625</AltitudeMeters>
            <DistanceMeters>27408.578636848</DistanceMeters>
          </Trackpoint>
          <Trackpoint>
            <Time>2020-03-07T13:58:07.000Z</Time>
            <Position>
              <LatitudeDegrees>40.719443522393703460693359375</LatitudeDegrees>
              <LongitudeDegrees>-3.7505424208939075469970703125</LongitudeDegrees>
            </Position>
            <AltitudeMeters>1059.4000244140625</AltitudeMeters>
            <DistanceMeters>27416.674332916</DistanceMeters>
          </Trackpoint>
          <Trackpoint>
            <Time>2020-03-07T13:58:08.000Z</Time>
            <Position>
              <LatitudeDegrees>40.71950546465814113616943359375</LatitudeDegrees>
              <LongitudeDegrees>-3.75048886053264141082763671875</LongitudeDegrees>
            </Position>
            <AltitudeMeters>1059.4000244140625</AltitudeMeters>
            <DistanceMeters>27424.917044555</DistanceMeters>
          </Trackpoint>
          <Trackpoint>
            <Time>2020-03-07T13:58:09.000Z</Time>
            <Position>
              <LatitudeDegrees>40.71956849656999111175537109375</LatitudeDegrees>
              <LongitudeDegrees>-3.75043270178139209747314453125</LongitudeDegrees>
            </Position>
            <AltitudeMeters>1059.4000244140625</AltitudeMeters>
            <DistanceMeters>27433.382426216</DistanceMeters>
          </Trackpoint>
          <Trackpoint>
            <Time>2020-03-07T13:58:10.000Z</Time>
            <Position>
              <LatitudeDegrees>40.7196324504911899566650390625</LatitudeDegrees>
              <LongitudeDegrees>-3.750374279916286468505859375</LongitudeDegrees>
            </Position>
            <AltitudeMeters>1059.4000244140625</AltitudeMeters>
            <DistanceMeters>27442.039771911</DistanceMeters>
          </Trackpoint>
          <Trackpoint>
            <Time>2020-03-07T13:58:11.000Z</Time>
            <Position>
              <LatitudeDegrees>40.71969757787883281707763671875</LatitudeDegrees>
              <LongitudeDegrees>-3.7503130920231342315673828125</LongitudeDegrees>
            </Position>
            <AltitudeMeters>1059.4000244140625</AltitudeMeters>
            <DistanceMeters>27450.938352715</DistanceMeters>
          </Trackpoint>
          <Trackpoint>
            <Time>2020-03-07T13:58:12.000Z</Time>
            <Position>
              <LatitudeDegrees>40.71976228617131710052490234375</LatitudeDegrees>
              <LongitudeDegrees>-3.75024829991161823272705078125</LongitudeDegrees>
            </Position>
            <AltitudeMeters>1059.4000244140625</AltitudeMeters>
            <DistanceMeters>27459.979384292</DistanceMeters>
          </Trackpoint>
          <Trackpoint>
            <Time>2020-03-07T13:58:13.000Z</Time>
            <Position>
              <LatitudeDegrees>40.7198265753686428070068359375</LatitudeDegrees>
              <LongitudeDegrees>-3.750179149210453033447265625</LongitudeDegrees>
            </Position>
            <AltitudeMeters>1059.4000244140625</AltitudeMeters>
            <DistanceMeters>27469.211169681</DistanceMeters>
          </Trackpoint>
          <Trackpoint>
            <Time>2020-03-07T13:58:14.000Z</Time>
            <Position>
              <LatitudeDegrees>40.71988985873758792877197265625</LatitudeDegrees>
              <LongitudeDegrees>-3.7501037120819091796875</LongitudeDegrees>
            </Position>
            <AltitudeMeters>1059.4000244140625</AltitudeMeters>
            <DistanceMeters>27478.704333691</DistanceMeters>
          </Trackpoint>
          <Trackpoint>
            <Time>2020-03-07T13:58:15.000Z</Time>
            <Position>
              <LatitudeDegrees>40.71995104663074016571044921875</LatitudeDegrees>
              <LongitudeDegrees>-3.75002198852598667144775390625</LongitudeDegrees>
            </Position>
            <AltitudeMeters>1059.199951171875</AltitudeMeters>
            <DistanceMeters>27488.395195109</DistanceMeters>
          </Trackpoint>
          <Trackpoint>
            <Time>2020-03-07T13:58:16.000Z</Time>
            <Position>
              <LatitudeDegrees>40.7200106419622898101806640625</LatitudeDegrees>
              <LongitudeDegrees>-3.749935068190097808837890625</LongitudeDegrees>
            </Position>
            <AltitudeMeters>1059.199951171875</AltitudeMeters>
            <DistanceMeters>27498.28254094</DistanceMeters>
          </Trackpoint>
          <Trackpoint>
            <Time>2020-03-07T13:58:17.000Z</Time>
            <Position>
              <LatitudeDegrees>40.7200703211128711700439453125</LatitudeDegrees>
              <LongitudeDegrees>-3.749845884740352630615234375</LongitudeDegrees>
            </Position>
            <AltitudeMeters>1059.199951171875</AltitudeMeters>
            <DistanceMeters>27508.318549741</DistanceMeters>
          </Trackpoint>
          <Trackpoint>
            <Time>2020-03-07T13:58:18.000Z</Time>
            <Position>
              <LatitudeDegrees>40.7201320119202136993408203125</LatitudeDegrees>
              <LongitudeDegrees>-3.7497551925480365753173828125</LongitudeDegrees>
            </Position>
            <AltitudeMeters>1058.800048828125</AltitudeMeters>
            <DistanceMeters>27518.598138962</DistanceMeters>
          </Trackpoint>
          <Trackpoint>
            <Time>2020-03-07T13:58:19.000Z</Time>
            <Position>
              <LatitudeDegrees>40.72019554674625396728515625</LatitudeDegrees>
              <LongitudeDegrees>-3.74966441653668880462646484375</LongitudeDegrees>
            </Position>
            <AltitudeMeters>1058.5999755859375</AltitudeMeters>
            <DistanceMeters>27529.021664266</DistanceMeters>
          </Trackpoint>
          <Trackpoint>
            <Time>2020-03-07T13:58:20.000Z</Time>
            <Position>
              <LatitudeDegrees>40.72026067413389682769775390625</LatitudeDegrees>
              <LongitudeDegrees>-3.74957271851599216461181640625</LongitudeDegrees>
            </Position>
            <AltitudeMeters>1058.199951171875</AltitudeMeters>
            <DistanceMeters>27539.622148749</DistanceMeters>
          </Trackpoint>
          <Trackpoint>
            <Time>2020-03-07T13:58:21.000Z</Time>
            <Position>
              <LatitudeDegrees>40.7203251309692859649658203125</LatitudeDegrees>
              <LongitudeDegrees>-3.7494792602956295013427734375</LongitudeDegrees>
            </Position>
            <AltitudeMeters>1057.5999755859375</AltitudeMeters>
            <DistanceMeters>27550.281249171</DistanceMeters>
          </Trackpoint>
          <Trackpoint>
            <Time>2020-03-07T13:58:22.000Z</Time>
            <Position>
              <LatitudeDegrees>40.72038866579532623291015625</LatitudeDegrees>
              <LongitudeDegrees>-3.749384544789791107177734375</LongitudeDegrees>
            </Position>
            <AltitudeMeters>1057.199951171875</AltitudeMeters>
            <DistanceMeters>27560.950933971</DistanceMeters>
          </Trackpoint>
          <Trackpoint>
            <Time>2020-03-07T13:58:23.000Z</Time>
            <Position>
              <LatitudeDegrees>40.72045194916427135467529296875</LatitudeDegrees>
              <LongitudeDegrees>-3.74928907491266727447509765625</LongitudeDegrees>
            </Position>
            <AltitudeMeters>1056.800048828125</AltitudeMeters>
            <DistanceMeters>27571.650199324</DistanceMeters>
          </Trackpoint>
          <Trackpoint>
            <Time>2020-03-07T13:58:24.000Z</Time>
            <Position>
              <LatitudeDegrees>40.72051531635224819183349609375</LatitudeDegrees>
              <LongitudeDegrees>-3.7491939403116703033447265625</LongitudeDegrees>
            </Position>
            <AltitudeMeters>1056.199951171875</AltitudeMeters>
            <DistanceMeters>27582.334262049</DistanceMeters>
          </Trackpoint>
          <Trackpoint>
            <Time>2020-03-07T13:58:25.000Z</Time>
            <Position>
              <LatitudeDegrees>40.7205782644450664520263671875</LatitudeDegrees>
              <LongitudeDegrees>-3.7490983866155147552490234375</LongitudeDegrees>
            </Position>
            <AltitudeMeters>1055.800048828125</AltitudeMeters>
            <DistanceMeters>27593.013675211</DistanceMeters>
          </Trackpoint>
          <Trackpoint>
            <Time>2020-03-07T13:58:26.000Z</Time>
            <Position>
              <LatitudeDegrees>40.72064104489982128143310546875</LatitudeDegrees>
              <LongitudeDegrees>-3.74900358729064464569091796875</LongitudeDegrees>
            </Position>
            <AltitudeMeters>1055.5999755859375</AltitudeMeters>
            <DistanceMeters>27603.633309137</DistanceMeters>
          </Trackpoint>
          <Trackpoint>
            <Time>2020-03-07T13:58:27.000Z</Time>
            <Position>
              <LatitudeDegrees>40.720703490078449249267578125</LatitudeDegrees>
              <LongitudeDegrees>-3.74890937469899654388427734375</LongitudeDegrees>
            </Position>
            <AltitudeMeters>1055</AltitudeMeters>
            <DistanceMeters>27614.191542592</DistanceMeters>
          </Trackpoint>
          <Trackpoint>
            <Time>2020-03-07T13:58:28.000Z</Time>
            <Position>
              <LatitudeDegrees>40.72076610289514064788818359375</LatitudeDegrees>
              <LongitudeDegrees>-3.748816587030887603759765625</LongitudeDegrees>
            </Position>
            <AltitudeMeters>1054.4000244140625</AltitudeMeters>
            <DistanceMeters>27624.671227211</DistanceMeters>
          </Trackpoint>
          <Trackpoint>
            <Time>2020-03-07T13:58:29.000Z</Time>
            <Position>
              <LatitudeDegrees>40.720828883349895477294921875</LatitudeDegrees>
              <LongitudeDegrees>-3.748725391924381256103515625</LongitudeDegrees>
            </Position>
            <AltitudeMeters>1054.199951171875</AltitudeMeters>
            <DistanceMeters>27635.063518309</DistanceMeters>
          </Trackpoint>
          <Trackpoint>
            <Time>2020-03-07T13:58:30.000Z</Time>
            <Position>
              <LatitudeDegrees>40.7208909094333648681640625</LatitudeDegrees>
              <LongitudeDegrees>-3.748634867370128631591796875</LongitudeDegrees>
            </Position>
            <AltitudeMeters>1053.800048828125</AltitudeMeters>
            <DistanceMeters>27645.357591705</DistanceMeters>
          </Trackpoint>
          <Trackpoint>
            <Time>2020-03-07T13:58:31.000Z</Time>
            <Position>
              <LatitudeDegrees>40.720952264964580535888671875</LatitudeDegrees>
              <LongitudeDegrees>-3.74854509718716144561767578125</LongitudeDegrees>
            </Position>
            <AltitudeMeters>1053.4000244140625</AltitudeMeters>
            <DistanceMeters>27655.555158097</DistanceMeters>
          </Trackpoint>
          <Trackpoint>
            <Time>2020-03-07T13:58:32.000Z</Time>
            <Position>
              <LatitudeDegrees>40.72101362049579620361328125</LatitudeDegrees>
              <LongitudeDegrees>-3.7484563328325748443603515625</LongitudeDegrees>
            </Position>
            <AltitudeMeters>1053.199951171875</AltitudeMeters>
            <DistanceMeters>27665.689658059</DistanceMeters>
          </Trackpoint>
          <Trackpoint>
            <Time>2020-03-07T13:58:33.000Z</Time>
            <Position>
              <LatitudeDegrees>40.7210748083889484405517578125</LatitudeDegrees>
              <LongitudeDegrees>-3.74836874194443225860595703125</LongitudeDegrees>
            </Position>
            <AltitudeMeters>1053</AltitudeMeters>
            <DistanceMeters>27675.738255712</DistanceMeters>
          </Trackpoint>
          <Trackpoint>
            <Time>2020-03-07T13:58:34.000Z</Time>
            <Position>
              <LatitudeDegrees>40.72113524191081523895263671875</LatitudeDegrees>
              <LongitudeDegrees>-3.748280815780162811279296875</LongitudeDegrees>
            </Position>
            <AltitudeMeters>1053</AltitudeMeters>
            <DistanceMeters>27685.750843224</DistanceMeters>
          </Trackpoint>
          <Trackpoint>
            <Time>2020-03-07T13:58:35.000Z</Time>
            <Position>
              <LatitudeDegrees>40.721194334328174591064453125</LatitudeDegrees>
              <LongitudeDegrees>-3.74819238670170307159423828125</LongitudeDegrees>
            </Position>
            <AltitudeMeters>1052.800048828125</AltitudeMeters>
            <DistanceMeters>27695.695560274</DistanceMeters>
          </Trackpoint>
          <Trackpoint>
            <Time>2020-03-07T13:58:36.000Z</Time>
            <Position>
              <LatitudeDegrees>40.7212528400123119354248046875</LatitudeDegrees>
              <LongitudeDegrees>-3.74810345470905303955078125</LongitudeDegrees>
            </Position>
            <AltitudeMeters>1052.5999755859375</AltitudeMeters>
            <DistanceMeters>27705.629375019</DistanceMeters>
          </Trackpoint>
          <Trackpoint>
            <Time>2020-03-07T13:58:37.000Z</Time>
            <Position>
              <LatitudeDegrees>40.72131193242967128753662109375</LatitudeDegrees>
              <LongitudeDegrees>-3.748015277087688446044921875</LongitudeDegrees>
            </Position>
            <AltitudeMeters>1052.4000244140625</AltitudeMeters>
            <DistanceMeters>27715.558188873</DistanceMeters>
          </Trackpoint>
          <Trackpoint>
            <Time>2020-03-07T13:58:38.000Z</Time>
            <Position>
              <LatitudeDegrees>40.72137144394218921661376953125</LatitudeDegrees>
              <LongitudeDegrees>-3.74792852438986301422119140625</LongitudeDegrees>
            </Position>
            <AltitudeMeters>1052.4000244140625</AltitudeMeters>
            <DistanceMeters>27725.429081681</DistanceMeters>
          </Trackpoint>
          <Trackpoint>
            <Time>2020-03-07T13:58:39.000Z</Time>
            <Position>
              <LatitudeDegrees>40.72143095545470714569091796875</LatitudeDegrees>
              <LongitudeDegrees>-3.74784185551106929779052734375</LongitudeDegrees>
            </Position>
            <AltitudeMeters>1052.4000244140625</AltitudeMeters>
            <DistanceMeters>27735.29448405</DistanceMeters>
          </Trackpoint>
          <Trackpoint>
            <Time>2020-03-07T13:58:40.000Z</Time>
            <Position>
              <LatitudeDegrees>40.72149029932916164398193359375</LatitudeDegrees>
              <LongitudeDegrees>-3.7477554380893707275390625</LongitudeDegrees>
            </Position>
            <AltitudeMeters>1052.4000244140625</AltitudeMeters>
            <DistanceMeters>27745.131470335</DistanceMeters>
          </Trackpoint>
          <Trackpoint>
            <Time>2020-03-07T13:58:41.000Z</Time>
            <Position>
              <LatitudeDegrees>40.72154939174652099609375</LatitudeDegrees>
              <LongitudeDegrees>-3.74766893684864044189453125</LongitudeDegrees>
            </Position>
            <AltitudeMeters>1052.4000244140625</AltitudeMeters>
            <DistanceMeters>27754.954677392</DistanceMeters>
          </Trackpoint>
          <Trackpoint>
            <Time>2020-03-07T13:58:42.000Z</Time>
            <Position>
              <LatitudeDegrees>40.72160781361162662506103515625</LatitudeDegrees>
              <LongitudeDegrees>-3.747582770884037017822265625</LongitudeDegrees>
            </Position>
            <AltitudeMeters>1052.4000244140625</AltitudeMeters>
            <DistanceMeters>27764.70730756</DistanceMeters>
          </Trackpoint>
          <Trackpoint>
            <Time>2020-03-07T13:58:43.000Z</Time>
            <Position>
              <LatitudeDegrees>40.72166581638157367706298828125</LatitudeDegrees>
              <LongitudeDegrees>-3.747496269643306732177734375</LongitudeDegrees>
            </Position>
            <AltitudeMeters>1052.199951171875</AltitudeMeters>
            <DistanceMeters>27774.450210801</DistanceMeters>
          </Trackpoint>
          <Trackpoint>
            <Time>2020-03-07T13:58:44.000Z</Time>
            <Position>
              <LatitudeDegrees>40.72172432206571102142333984375</LatitudeDegrees>
              <LongitudeDegrees>-3.747411109507083892822265625</LongitudeDegrees>
            </Position>
            <AltitudeMeters>1052.199951171875</AltitudeMeters>
            <DistanceMeters>27784.146195839</DistanceMeters>
          </Trackpoint>
          <Trackpoint>
            <Time>2020-03-07T13:58:45.000Z</Time>
            <Position>
              <LatitudeDegrees>40.721782743930816650390625</LatitudeDegrees>
              <LongitudeDegrees>-3.74732770957052707672119140625</LongitudeDegrees>
            </Position>
            <AltitudeMeters>1052.199951171875</AltitudeMeters>
            <DistanceMeters>27793.726472296</DistanceMeters>
          </Trackpoint>
          <Trackpoint>
            <Time>2020-03-07T13:58:46.000Z</Time>
            <Position>
              <LatitudeDegrees>40.72183982469141483306884765625</LatitudeDegrees>
              <LongitudeDegrees>-3.74724246561527252197265625</LongitudeDegrees>
            </Position>
            <AltitudeMeters>1052.199951171875</AltitudeMeters>
            <DistanceMeters>27803.321818012</DistanceMeters>
          </Trackpoint>
          <Trackpoint>
            <Time>2020-03-07T13:58:47.000Z</Time>
            <Position>
              <LatitudeDegrees>40.7218955643475055694580078125</LatitudeDegrees>
              <LongitudeDegrees>-3.7471571378409862518310546875</LongitudeDegrees>
            </Position>
            <AltitudeMeters>1052.199951171875</AltitudeMeters>
            <DistanceMeters>27812.824489449</DistanceMeters>
          </Trackpoint>
          <Trackpoint>
            <Time>2020-03-07T13:58:48.000Z</Time>
            <Position>
              <LatitudeDegrees>40.72195105254650115966796875</LatitudeDegrees>
              <LongitudeDegrees>-3.74707172624766826629638671875</LongitudeDegrees>
            </Position>
            <AltitudeMeters>1052.199951171875</AltitudeMeters>
            <DistanceMeters>27822.313847821</DistanceMeters>
          </Trackpoint>
          <Trackpoint>
            <Time>2020-03-07T13:58:49.000Z</Time>
            <Position>
              <LatitudeDegrees>40.722006373107433319091796875</LatitudeDegrees>
              <LongitudeDegrees>-3.74698698520660400390625</LongitudeDegrees>
            </Position>
            <AltitudeMeters>1052.199951171875</AltitudeMeters>
            <DistanceMeters>27831.748330504</DistanceMeters>
          </Trackpoint>
          <Trackpoint>
            <Time>2020-03-07T13:58:50.000Z</Time>
            <Position>
              <LatitudeDegrees>40.72206261567771434783935546875</LatitudeDegrees>
              <LongitudeDegrees>-3.74690408818423748016357421875</LongitudeDegrees>
            </Position>
            <AltitudeMeters>1052.199951171875</AltitudeMeters>
            <DistanceMeters>27841.133391273</DistanceMeters>
          </Trackpoint>
          <Trackpoint>
            <Time>2020-03-07T13:58:51.000Z</Time>
            <Position>
              <LatitudeDegrees>40.722120366990566253662109375</LatitudeDegrees>
              <LongitudeDegrees>-3.74682228080928325653076171875</LongitudeDegrees>
            </Position>
            <AltitudeMeters>1052.199951171875</AltitudeMeters>
            <DistanceMeters>27850.563565864</DistanceMeters>
          </Trackpoint>
          <Trackpoint>
            <Time>2020-03-07T13:58:52.000Z</Time>
            <Position>
              <LatitudeDegrees>40.722177028656005859375</LatitudeDegrees>
              <LongitudeDegrees>-3.7467383779585361480712890625</LongitudeDegrees>
            </Position>
            <AltitudeMeters>1052.199951171875</AltitudeMeters>
            <DistanceMeters>27860.043403456</DistanceMeters>
          </Trackpoint>
          <Trackpoint>
            <Time>2020-03-07T13:58:53.000Z</Time>
            <Position>
              <LatitudeDegrees>40.7222321815788745880126953125</LatitudeDegrees>
              <LongitudeDegrees>-3.746651709079742431640625</LongitudeDegrees>
            </Position>
            <AltitudeMeters>1052.199951171875</AltitudeMeters>
            <DistanceMeters>27869.589687103</DistanceMeters>
          </Trackpoint>
          <Trackpoint>
            <Time>2020-03-07T13:58:54.000Z</Time>
            <Position>
              <LatitudeDegrees>40.72228792123496532440185546875</LatitudeDegrees>
              <LongitudeDegrees>-3.74656512401998043060302734375</LongitudeDegrees>
            </Position>
            <AltitudeMeters>1052.199951171875</AltitudeMeters>
            <DistanceMeters>27879.172790851</DistanceMeters>
          </Trackpoint>
          <Trackpoint>
            <Time>2020-03-07T13:58:55.000Z</Time>
            <Position>
              <LatitudeDegrees>40.7223446667194366455078125</LatitudeDegrees>
              <LongitudeDegrees>-3.74648029915988445281982421875</LongitudeDegrees>
            </Position>
            <AltitudeMeters>1052.4000244140625</AltitudeMeters>
            <DistanceMeters>27888.716236299</DistanceMeters>
          </Trackpoint>
          <Trackpoint>
            <Time>2020-03-07T13:58:56.000Z</Time>
            <Position>
              <LatitudeDegrees>40.72240166366100311279296875</LatitudeDegrees>
              <LongitudeDegrees>-3.74639631249010562896728515625</LongitudeDegrees>
            </Position>
            <AltitudeMeters>1052.4000244140625</AltitudeMeters>
            <DistanceMeters>27898.225557279</DistanceMeters>
          </Trackpoint>
          <Trackpoint>
            <Time>2020-03-07T13:58:57.000Z</Time>
            <Position>
              <LatitudeDegrees>40.72245799005031585693359375</LatitudeDegrees>
              <LongitudeDegrees>-3.7463124096393585205078125</LongitudeDegrees>
            </Position>
            <AltitudeMeters>1052.4000244140625</AltitudeMeters>
            <DistanceMeters>27907.680595978</DistanceMeters>
          </Trackpoint>
          <Trackpoint>
            <Time>2020-03-07T13:58:58.000Z</Time>
            <Position>
              <LatitudeDegrees>40.7225136458873748779296875</LatitudeDegrees>
              <LongitudeDegrees>-3.746228255331516265869140625</LongitudeDegrees>
            </Position>
            <AltitudeMeters>1052.4000244140625</AltitudeMeters>
            <DistanceMeters>27917.102627687</DistanceMeters>
          </Trackpoint>
          <Trackpoint>
            <Time>2020-03-07T13:58:59.000Z</Time>
            <Position>
              <LatitudeDegrees>40.72256972081959247589111328125</LatitudeDegrees>
              <LongitudeDegrees>-3.746143095195293426513671875</LongitudeDegrees>
            </Position>
            <AltitudeMeters>1052.4000244140625</AltitudeMeters>
            <DistanceMeters>27926.618593564</DistanceMeters>
          </Trackpoint>
          <Trackpoint>
            <Time>2020-03-07T13:59:00.000Z</Time>
            <Position>
              <LatitudeDegrees>40.7226257957518100738525390625</LatitudeDegrees>
              <LongitudeDegrees>-3.7460554204881191253662109375</LongitudeDegrees>
            </Position>
            <AltitudeMeters>1052.4000244140625</AltitudeMeters>
            <DistanceMeters>27936.295467683</DistanceMeters>
          </Trackpoint>
          <Trackpoint>
            <Time>2020-03-07T13:59:01.000Z</Time>
            <Position>
              <LatitudeDegrees>40.72268019430339336395263671875</LatitudeDegrees>
              <LongitudeDegrees>-3.74596179462969303131103515625</LongitudeDegrees>
            </Position>
            <AltitudeMeters>1052.4000244140625</AltitudeMeters>
            <DistanceMeters>27946.24699261</DistanceMeters>
          </Trackpoint>
          <Trackpoint>
            <Time>2020-03-07T13:59:02.000Z</Time>
            <Position>
              <LatitudeDegrees>40.7227320782840251922607421875</LatitudeDegrees>
              <LongitudeDegrees>-3.74586104415357112884521484375</LongitudeDegrees>
            </Position>
            <AltitudeMeters>1052.4000244140625</AltitudeMeters>
            <DistanceMeters>27956.521749235</DistanceMeters>
          </Trackpoint>
          <Trackpoint>
            <Time>2020-03-07T13:59:03.000Z</Time>
            <Position>
              <LatitudeDegrees>40.72277926839888095855712890625</LatitudeDegrees>
              <LongitudeDegrees>-3.74575124122202396392822265625</LongitudeDegrees>
            </Position>
            <AltitudeMeters>1052.4000244140625</AltitudeMeters>
            <DistanceMeters>27967.169830744</DistanceMeters>
          </Trackpoint>
          <Trackpoint>
            <Time>2020-03-07T13:59:04.000Z</Time>
            <Position>
              <LatitudeDegrees>40.72281648404896259307861328125</LatitudeDegrees>
              <LongitudeDegrees>-3.7456312961876392364501953125</LongitudeDegrees>
            </Position>
            <AltitudeMeters>1052.4000244140625</AltitudeMeters>
            <DistanceMeters>27978.102446708</DistanceMeters>
          </Trackpoint>
          <Trackpoint>
            <Time>2020-03-07T13:59:05.000Z</Time>
            <Position>
              <LatitudeDegrees>40.7228407077491283416748046875</LatitudeDegrees>
              <LongitudeDegrees>-3.745500706136226654052734375</LongitudeDegrees>
            </Position>
            <AltitudeMeters>1052.4000244140625</AltitudeMeters>
            <DistanceMeters>27989.442920628</DistanceMeters>
          </Trackpoint>
          <Trackpoint>
            <Time>2020-03-07T13:59:06.000Z</Time>
            <Position>
              <LatitudeDegrees>40.722855962812900543212890625</LatitudeDegrees>
              <LongitudeDegrees>-3.74536315910518169403076171875</LongitudeDegrees>
            </Position>
            <AltitudeMeters>1052.199951171875</AltitudeMeters>
            <DistanceMeters>28001.169386595</DistanceMeters>
          </Trackpoint>
          <Trackpoint>
            <Time>2020-03-07T13:59:07.000Z</Time>
            <Position>
              <LatitudeDegrees>40.72286241687834262847900390625</LatitudeDegrees>
              <LongitudeDegrees>-3.74522100202739238739013671875</LongitudeDegrees>
            </Position>
            <AltitudeMeters>1052.199951171875</AltitudeMeters>
            <DistanceMeters>28013.182657662</DistanceMeters>
          </Trackpoint>
          <Trackpoint>
            <Time>2020-03-07T13:59:08.000Z</Time>
            <Position>
              <LatitudeDegrees>40.72286057285964488983154296875</LatitudeDegrees>
              <LongitudeDegrees>-3.74507549218833446502685546875</LongitudeDegrees>
            </Position>
            <AltitudeMeters>1052</AltitudeMeters>
            <DistanceMeters>28025.458770474</DistanceMeters>
          </Trackpoint>
          <Trackpoint>
            <Time>2020-03-07T13:59:09.000Z</Time>
            <Position>
              <LatitudeDegrees>40.7228542864322662353515625</LatitudeDegrees>
              <LongitudeDegrees>-3.74492947943508625030517578125</LongitudeDegrees>
            </Position>
            <AltitudeMeters>1051.800048828125</AltitudeMeters>
            <DistanceMeters>28037.794687474</DistanceMeters>
          </Trackpoint>
          <Trackpoint>
            <Time>2020-03-07T13:59:10.000Z</Time>
            <Position>
              <LatitudeDegrees>40.72284917347133159637451171875</LatitudeDegrees>
              <LongitudeDegrees>-3.7447830475866794586181640625</LongitudeDegrees>
            </Position>
            <AltitudeMeters>1051.4000244140625</AltitudeMeters>
            <DistanceMeters>28050.159850407</DistanceMeters>
          </Trackpoint>
          <Trackpoint>
            <Time>2020-03-07T13:59:11.000Z</Time>
            <Position>
              <LatitudeDegrees>40.72284447960555553436279296875</LatitudeDegrees>
              <LongitudeDegrees>-3.74463594518601894378662109375</LongitudeDegrees>
            </Position>
            <AltitudeMeters>1050.800048828125</AltitudeMeters>
            <DistanceMeters>28062.579663844</DistanceMeters>
          </Trackpoint>
          <Trackpoint>
            <Time>2020-03-07T13:59:12.000Z</Time>
            <Position>
              <LatitudeDegrees>40.722839869558811187744140625</LatitudeDegrees>
              <LongitudeDegrees>-3.74448842369019985198974609375</LongitudeDegrees>
            </Position>
            <AltitudeMeters>1050.199951171875</AltitudeMeters>
            <DistanceMeters>28075.034327756</DistanceMeters>
          </Trackpoint>
          <Trackpoint>
            <Time>2020-03-07T13:59:13.000Z</Time>
            <Position>
              <LatitudeDegrees>40.7228360138833522796630859375</LatitudeDegrees>
              <LongitudeDegrees>-3.74433956108987331390380859375</LongitudeDegrees>
            </Position>
            <AltitudeMeters>1049.4000244140625</AltitudeMeters>
            <DistanceMeters>28087.598713789</DistanceMeters>
          </Trackpoint>
          <Trackpoint>
            <Time>2020-03-07T13:59:14.000Z</Time>
            <Position>
              <LatitudeDegrees>40.72283215820789337158203125</LatitudeDegrees>
              <LongitudeDegrees>-3.7441899441182613372802734375</LongitudeDegrees>
            </Position>
            <AltitudeMeters>1048.5999755859375</AltitudeMeters>
            <DistanceMeters>28100.226544954</DistanceMeters>
          </Trackpoint>
          <Trackpoint>
            <Time>2020-03-07T13:59:15.000Z</Time>
            <Position>
              <LatitudeDegrees>40.7228299789130687713623046875</LatitudeDegrees>
              <LongitudeDegrees>-3.74403747729957103729248046875</LongitudeDegrees>
            </Position>
            <AltitudeMeters>1047.5999755859375</AltitudeMeters>
            <DistanceMeters>28113.089596329</DistanceMeters>
          </Trackpoint>
          <Trackpoint>
            <Time>2020-03-07T13:59:16.000Z</Time>
            <Position>
              <LatitudeDegrees>40.7228301465511322021484375</LatitudeDegrees>
              <LongitudeDegrees>-3.74388165771961212158203125</LongitudeDegrees>
            </Position>
            <AltitudeMeters>1046.800048828125</AltitudeMeters>
            <DistanceMeters>28126.233546364</DistanceMeters>
          </Trackpoint>
          <Trackpoint>
            <Time>2020-03-07T13:59:17.000Z</Time>
            <Position>
              <LatitudeDegrees>40.7228301465511322021484375</LatitudeDegrees>
              <LongitudeDegrees>-3.74372215010225772857666015625</LongitudeDegrees>
            </Position>
            <AltitudeMeters>1045</AltitudeMeters>
            <DistanceMeters>28139.688470093</DistanceMeters>
          </Trackpoint>
          <Trackpoint>
            <Time>2020-03-07T13:59:18.000Z</Time>
            <Position>
              <LatitudeDegrees>40.7228306494653224945068359375</LatitudeDegrees>
              <LongitudeDegrees>-3.74355820007622241973876953125</LongitudeDegrees>
            </Position>
            <AltitudeMeters>1044.5999755859375</AltitudeMeters>
            <DistanceMeters>28153.518040552</DistanceMeters>
          </Trackpoint>
          <Trackpoint>
            <Time>2020-03-07T13:59:19.000Z</Time>
            <Position>
              <LatitudeDegrees>40.72283173911273479461669921875</LatitudeDegrees>
              <LongitudeDegrees>-3.743389807641506195068359375</LongitudeDegrees>
            </Position>
            <AltitudeMeters>1044</AltitudeMeters>
            <DistanceMeters>28167.723183572</DistanceMeters>
          </Trackpoint>
          <Trackpoint>
            <Time>2020-03-07T13:59:20.000Z</Time>
            <Position>
              <LatitudeDegrees>40.72283106856048107147216796875</LatitudeDegrees>
              <LongitudeDegrees>-3.7432166375219821929931640625</LongitudeDegrees>
            </Position>
            <AltitudeMeters>1043.4000244140625</AltitudeMeters>
            <DistanceMeters>28182.330740054</DistanceMeters>
          </Trackpoint>
          <Trackpoint>
            <Time>2020-03-07T13:59:21.000Z</Time>
            <Position>
              <LatitudeDegrees>40.72282888926565647125244140625</LatitudeDegrees>
              <LongitudeDegrees>-3.74303952790796756744384765625</LongitudeDegrees>
            </Position>
            <AltitudeMeters>1042.800048828125</AltitudeMeters>
            <DistanceMeters>28197.272614434</DistanceMeters>
          </Trackpoint>
          <Trackpoint>
            <Time>2020-03-07T13:59:22.000Z</Time>
            <Position>
              <LatitudeDegrees>40.722826458513736724853515625</LatitudeDegrees>
              <LongitudeDegrees>-3.742858730256557464599609375</LongitudeDegrees>
            </Position>
            <AltitudeMeters>1042.4000244140625</AltitudeMeters>
            <DistanceMeters>28212.526104187</DistanceMeters>
          </Trackpoint>
          <Trackpoint>
            <Time>2020-03-07T13:59:23.000Z</Time>
            <Position>
              <LatitudeDegrees>40.722823441028594970703125</LatitudeDegrees>
              <LongitudeDegrees>-3.74267541803419589996337890625</LongitudeDegrees>
            </Position>
            <AltitudeMeters>1041.800048828125</AltitudeMeters>
            <DistanceMeters>28227.992997384</DistanceMeters>
          </Trackpoint>
          <Trackpoint>
            <Time>2020-03-07T13:59:24.000Z</Time>
            <Position>
              <LatitudeDegrees>40.72282251901924610137939453125</LatitudeDegrees>
              <LongitudeDegrees>-3.74249068088829517364501953125</LongitudeDegrees>
            </Position>
            <AltitudeMeters>1041</AltitudeMeters>
            <DistanceMeters>28243.576799099</DistanceMeters>
          </Trackpoint>
          <Trackpoint>
            <Time>2020-03-07T13:59:25.000Z</Time>
            <Position>
              <LatitudeDegrees>40.7228232733905315399169921875</LatitudeDegrees>
              <LongitudeDegrees>-3.74230527319014072418212890625</LongitudeDegrees>
            </Position>
            <AltitudeMeters>1040.199951171875</AltitudeMeters>
            <DistanceMeters>28259.21670673</DistanceMeters>
          </Trackpoint>
          <Trackpoint>
            <Time>2020-03-07T13:59:26.000Z</Time>
            <Position>
              <LatitudeDegrees>40.72282520122826099395751953125</LatitudeDegrees>
              <LongitudeDegrees>-3.74211986549198627471923828125</LongitudeDegrees>
            </Position>
            <AltitudeMeters>1039.4000244140625</AltitudeMeters>
            <DistanceMeters>28274.857769067</DistanceMeters>
          </Trackpoint>
          <Trackpoint>
            <Time>2020-03-07T13:59:27.000Z</Time>
            <Position>
              <LatitudeDegrees>40.7228266261518001556396484375</LatitudeDegrees>
              <LongitudeDegrees>-3.7419355474412441253662109375</LongitudeDegrees>
            </Position>
            <AltitudeMeters>1038.199951171875</AltitudeMeters>
            <DistanceMeters>28290.406183988</DistanceMeters>
          </Trackpoint>
          <Trackpoint>
            <Time>2020-03-07T13:59:28.000Z</Time>
            <Position>
              <LatitudeDegrees>40.72283215820789337158203125</LatitudeDegrees>
              <LongitudeDegrees>-3.741752989590167999267578125</LongitudeDegrees>
            </Position>
            <AltitudeMeters>1037</AltitudeMeters>
            <DistanceMeters>28305.817806248</DistanceMeters>
          </Trackpoint>
          <Trackpoint>
            <Time>2020-03-07T13:59:29.000Z</Time>
            <Position>
              <LatitudeDegrees>40.7228500954806804656982421875</LatitudeDegrees>
              <LongitudeDegrees>-3.7415747903287410736083984375</LongitudeDegrees>
            </Position>
            <AltitudeMeters>1035.800048828125</AltitudeMeters>
            <DistanceMeters>28320.98134266</DistanceMeters>
          </Trackpoint>
          <Trackpoint>
            <Time>2020-03-07T13:59:30.000Z</Time>
            <Position>
              <LatitudeDegrees>40.72288446128368377685546875</LatitudeDegrees>
              <LongitudeDegrees>-3.74140388332307338714599609375</LongitudeDegrees>
            </Position>
            <AltitudeMeters>1034.199951171875</AltitudeMeters>
            <DistanceMeters>28335.89660207</DistanceMeters>
          </Trackpoint>
          <Trackpoint>
            <Time>2020-03-07T13:59:31.000Z</Time>
            <Position>
              <LatitudeDegrees>40.72293416596949100494384765625</LatitudeDegrees>
              <LongitudeDegrees>-3.74124228022992610931396484375</LongitudeDegrees>
            </Position>
            <AltitudeMeters>1033</AltitudeMeters>
            <DistanceMeters>28350.608259767</DistanceMeters>
          </Trackpoint>
          <Trackpoint>
            <Time>2020-03-07T13:59:32.000Z</Time>
            <Position>
              <LatitudeDegrees>40.7229937613010406494140625</LatitudeDegrees>
              <LongitudeDegrees>-3.74108855612576007843017578125</LongitudeDegrees>
            </Position>
            <AltitudeMeters>1031.5999755859375</AltitudeMeters>
            <DistanceMeters>28365.173719457</DistanceMeters>
          </Trackpoint>
          <Trackpoint>
            <Time>2020-03-07T13:59:33.000Z</Time>
            <Position>
              <LatitudeDegrees>40.72305905632674694061279296875</LatitudeDegrees>
              <LongitudeDegrees>-3.7409407831728458404541015625</LongitudeDegrees>
            </Position>
            <AltitudeMeters>1030.4000244140625</AltitudeMeters>
            <DistanceMeters>28379.602455106</DistanceMeters>
          </Trackpoint>
          <Trackpoint>
            <Time>2020-03-07T13:59:34.000Z</Time>
            <Position>
              <LatitudeDegrees>40.7231273688375949859619140625</LatitudeDegrees>
              <LongitudeDegrees>-3.7407976202666759490966796875</LongitudeDegrees>
            </Position>
            <AltitudeMeters>1029.4000244140625</AltitudeMeters>
            <DistanceMeters>28393.872924052</DistanceMeters>
          </Trackpoint>
          <Trackpoint>
            <Time>2020-03-07T13:59:35.000Z</Time>
            <Position>
              <LatitudeDegrees>40.7231947593390941619873046875</LatitudeDegrees>
              <LongitudeDegrees>-3.7406561337411403656005859375</LongitudeDegrees>
            </Position>
            <AltitudeMeters>1028.5999755859375</AltitudeMeters>
            <DistanceMeters>28407.968944841</DistanceMeters>
          </Trackpoint>
          <Trackpoint>
            <Time>2020-03-07T13:59:36.000Z</Time>
            <Position>
              <LatitudeDegrees>40.72326307184994220733642578125</LatitudeDegrees>
              <LongitudeDegrees>-3.740517161786556243896484375</LongitudeDegrees>
            </Position>
            <AltitudeMeters>1028</AltitudeMeters>
            <DistanceMeters>28421.941426822</DistanceMeters>
          </Trackpoint>
          <Trackpoint>
            <Time>2020-03-07T13:59:37.000Z</Time>
            <Position>
              <LatitudeDegrees>40.72333783842623233795166015625</LatitudeDegrees>
              <LongitudeDegrees>-3.7403862364590167999267578125</LongitudeDegrees>
            </Position>
            <AltitudeMeters>1026.800048828125</AltitudeMeters>
            <DistanceMeters>28435.770017815</DistanceMeters>
          </Trackpoint>
          <Trackpoint>
            <Time>2020-03-07T13:59:38.000Z</Time>
            <Position>
              <LatitudeDegrees>40.7234244234859943389892578125</LatitudeDegrees>
              <LongitudeDegrees>-3.74027048237621784210205078125</LongitudeDegrees>
            </Position>
            <AltitudeMeters>1026.4000244140625</AltitudeMeters>
            <DistanceMeters>28449.489453423</DistanceMeters>
          </Trackpoint>
          <Trackpoint>
            <Time>2020-03-07T13:59:39.000Z</Time>
            <Position>
              <LatitudeDegrees>40.7235243357717990875244140625</LatitudeDegrees>
              <LongitudeDegrees>-3.7401743419468402862548828125</LongitudeDegrees>
            </Position>
            <AltitudeMeters>1026</AltitudeMeters>
            <DistanceMeters>28463.25258946</DistanceMeters>
          </Trackpoint>
          <Trackpoint>
            <Time>2020-03-07T13:59:40.000Z</Time>
            <Position>
              <LatitudeDegrees>40.7236319594085216522216796875</LatitudeDegrees>
              <LongitudeDegrees>-3.7400923669338226318359375</LongitudeDegrees>
            </Position>
            <AltitudeMeters>1025.800048828125</AltitudeMeters>
            <DistanceMeters>28477.083792208</DistanceMeters>
          </Trackpoint>
          <Trackpoint>
            <Time>2020-03-07T13:59:41.000Z</Time>
            <Position>
              <LatitudeDegrees>40.72374285198748111724853515625</LatitudeDegrees>
              <LongitudeDegrees>-3.74001818709075450897216796875</LongitudeDegrees>
            </Position>
            <AltitudeMeters>1025.5999755859375</AltitudeMeters>
            <DistanceMeters>28490.921848469</DistanceMeters>
          </Trackpoint>
          <Trackpoint>
            <Time>2020-03-07T13:59:42.000Z</Time>
            <Position>
              <LatitudeDegrees>40.72385349310934543609619140625</LatitudeDegrees>
              <LongitudeDegrees>-3.7399475276470184326171875</LongitudeDegrees>
            </Position>
            <AltitudeMeters>1025.5999755859375</AltitudeMeters>
            <DistanceMeters>28504.603055453</DistanceMeters>
          </Trackpoint>
          <Trackpoint>
            <Time>2020-03-07T13:59:43.000Z</Time>
            <Position>
              <LatitudeDegrees>40.72396262548863887786865234375</LatitudeDegrees>
              <LongitudeDegrees>-3.73987988568842411041259765625</LongitudeDegrees>
            </Position>
            <AltitudeMeters>1025.5999755859375</AltitudeMeters>
            <DistanceMeters>28518.02303476</DistanceMeters>
          </Trackpoint>
          <Trackpoint>
            <Time>2020-03-07T13:59:44.000Z</Time>
            <Position>
              <LatitudeDegrees>40.7240701653063297271728515625</LatitudeDegrees>
              <LongitudeDegrees>-3.73981350101530551910400390625</LongitudeDegrees>
            </Position>
            <AltitudeMeters>1025.199951171875</AltitudeMeters>
            <DistanceMeters>28531.237557765</DistanceMeters>
          </Trackpoint>
          <Trackpoint>
            <Time>2020-03-07T13:59:45.000Z</Time>
            <Position>
              <LatitudeDegrees>40.7241767831146717071533203125</LatitudeDegrees>
              <LongitudeDegrees>-3.73975030146539211273193359375</LongitudeDegrees>
            </Position>
            <AltitudeMeters>1025</AltitudeMeters>
            <DistanceMeters>28544.246850318</DistanceMeters>
          </Trackpoint>
          <Trackpoint>
            <Time>2020-03-07T13:59:46.000Z</Time>
            <Position>
              <LatitudeDegrees>40.72428197599947452545166015625</LatitudeDegrees>
              <LongitudeDegrees>-3.73968643136322498321533203125</LongitudeDegrees>
            </Position>
            <AltitudeMeters>1024.5999755859375</AltitudeMeters>
            <DistanceMeters>28557.134799189</DistanceMeters>
          </Trackpoint>
          <Trackpoint>
            <Time>2020-03-07T13:59:47.000Z</Time>
            <Position>
              <LatitudeDegrees>40.72438540868461132049560546875</LatitudeDegrees>
              <LongitudeDegrees>-3.739622645080089569091796875</LongitudeDegrees>
            </Position>
            <AltitudeMeters>1024.4000244140625</AltitudeMeters>
            <DistanceMeters>28569.842823706</DistanceMeters>
          </Trackpoint>
          <Trackpoint>
            <Time>2020-03-07T13:59:48.000Z</Time>
            <Position>
              <LatitudeDegrees>40.72448716498911380767822265625</LatitudeDegrees>
              <LongitudeDegrees>-3.73956103809177875518798828125</LongitudeDegrees>
            </Position>
            <AltitudeMeters>1024</AltitudeMeters>
            <DistanceMeters>28582.304011231</DistanceMeters>
          </Trackpoint>
          <Trackpoint>
            <Time>2020-03-07T13:59:49.000Z</Time>
            <Position>
              <LatitudeDegrees>40.724587328732013702392578125</LatitudeDegrees>
              <LongitudeDegrees>-3.73950102366507053375244140625</LongitudeDegrees>
            </Position>
            <AltitudeMeters>1023.5999755859375</AltitudeMeters>
            <DistanceMeters>28594.548084455</DistanceMeters>
          </Trackpoint>
          <Trackpoint>
            <Time>2020-03-07T13:59:50.000Z</Time>
            <Position>
              <LatitudeDegrees>40.7246857322752475738525390625</LatitudeDegrees>
              <LongitudeDegrees>-3.73943991959095001220703125</LongitudeDegrees>
            </Position>
            <AltitudeMeters>1023.20001220703125</AltitudeMeters>
            <DistanceMeters>28606.652712512</DistanceMeters>
          </Trackpoint>
          <Trackpoint>
            <Time>2020-03-07T13:59:51.000Z</Time>
            <Position>
              <LatitudeDegrees>40.724782459437847137451171875</LatitudeDegrees>
              <LongitudeDegrees>-3.739379905164241790771484375</LongitudeDegrees>
            </Position>
            <AltitudeMeters>1023.20001220703125</AltitudeMeters>
            <DistanceMeters>28618.549282946</DistanceMeters>
          </Trackpoint>
          <Trackpoint>
            <Time>2020-03-07T13:59:52.000Z</Time>
            <Position>
              <LatitudeDegrees>40.7248766720294952392578125</LatitudeDegrees>
              <LongitudeDegrees>-3.73931922018527984619140625</LongitudeDegrees>
            </Position>
            <AltitudeMeters>1023</AltitudeMeters>
            <DistanceMeters>28630.217851523</DistanceMeters>
          </Trackpoint>
          <Trackpoint>
            <Time>2020-03-07T13:59:53.000Z</Time>
            <Position>
              <LatitudeDegrees>40.72496694512665271759033203125</LatitudeDegrees>
              <LongitudeDegrees>-3.739252500236034393310546875</LongitudeDegrees>
            </Position>
            <AltitudeMeters>1023</AltitudeMeters>
            <DistanceMeters>28641.733740661</DistanceMeters>
          </Trackpoint>
          <Trackpoint>
            <Time>2020-03-07T13:59:54.000Z</Time>
            <Position>
              <LatitudeDegrees>40.72505076415836811065673828125</LatitudeDegrees>
              <LongitudeDegrees>-3.7391755543649196624755859375</LongitudeDegrees>
            </Position>
            <AltitudeMeters>1023</AltitudeMeters>
            <DistanceMeters>28653.098474859</DistanceMeters>
          </Trackpoint>
          <Trackpoint>
            <Time>2020-03-07T13:59:55.000Z</Time>
            <Position>
              <LatitudeDegrees>40.7251262851059436798095703125</LatitudeDegrees>
              <LongitudeDegrees>-3.73908855020999908447265625</LongitudeDegrees>
            </Position>
            <AltitudeMeters>1023</AltitudeMeters>
            <DistanceMeters>28664.256731623</DistanceMeters>
          </Trackpoint>
          <Trackpoint>
            <Time>2020-03-07T13:59:56.000Z</Time>
            <Position>
              <LatitudeDegrees>40.72519174776971340179443359375</LatitudeDegrees>
              <LongitudeDegrees>-3.7389908172190189361572265625</LongitudeDegrees>
            </Position>
            <AltitudeMeters>1023</AltitudeMeters>
            <DistanceMeters>28675.258921165</DistanceMeters>
          </Trackpoint>
          <Trackpoint>
            <Time>2020-03-07T13:59:57.000Z</Time>
            <Position>
              <LatitudeDegrees>40.72524723596870899200439453125</LatitudeDegrees>
              <LongitudeDegrees>-3.738886378705501556396484375</LongitudeDegrees>
            </Position>
            <AltitudeMeters>1023</AltitudeMeters>
            <DistanceMeters>28686.017523298</DistanceMeters>
          </Trackpoint>
          <Trackpoint>
            <Time>2020-03-07T13:59:58.000Z</Time>
            <Position>
              <LatitudeDegrees>40.72529484517872333526611328125</LatitudeDegrees>
              <LongitudeDegrees>-3.7387792579829692840576171875</LongitudeDegrees>
            </Position>
            <AltitudeMeters>1023</AltitudeMeters>
            <DistanceMeters>28696.492467636</DistanceMeters>
          </Trackpoint>
          <Trackpoint>
            <Time>2020-03-07T13:59:59.000Z</Time>
            <Position>
              <LatitudeDegrees>40.72533843107521533966064453125</LatitudeDegrees>
              <LongitudeDegrees>-3.7386729754507541656494140625</LongitudeDegrees>
            </Position>
            <AltitudeMeters>1023</AltitudeMeters>
            <DistanceMeters>28706.685605502</DistanceMeters>
          </Trackpoint>
          <Trackpoint>
            <Time>2020-03-07T14:00:00.000Z</Time>
            <Position>
              <LatitudeDegrees>40.72537983767688274383544921875</LatitudeDegrees>
              <LongitudeDegrees>-3.73856811784207820892333984375</LongitudeDegrees>
            </Position>
            <AltitudeMeters>1023</AltitudeMeters>
            <DistanceMeters>28716.658884403</DistanceMeters>
          </Trackpoint>
          <Trackpoint>
            <Time>2020-03-07T14:00:01.000Z</Time>
            <Position>
              <LatitudeDegrees>40.72542007081210613250732421875</LatitudeDegrees>
              <LongitudeDegrees>-3.7384657748043537139892578125</LongitudeDegrees>
            </Position>
            <AltitudeMeters>1023.20001220703125</AltitudeMeters>
            <DistanceMeters>28726.384161811</DistanceMeters>
          </Trackpoint>
          <Trackpoint>
            <Time>2020-03-07T14:00:02.000Z</Time>
            <Position>
              <LatitudeDegrees>40.72546198032796382904052734375</LatitudeDegrees>
              <LongitudeDegrees>-3.7383698858320713043212890625</LongitudeDegrees>
            </Position>
            <AltitudeMeters>1023.4000244140625</AltitudeMeters>
            <DistanceMeters>28735.720989859</DistanceMeters>
          </Trackpoint>
          <Trackpoint>
            <Time>2020-03-07T14:00:03.000Z</Time>
            <Position>
              <LatitudeDegrees>40.72550858370959758758544921875</LatitudeDegrees>
              <LongitudeDegrees>-3.73828078620135784149169921875</LongitudeDegrees>
            </Position>
            <AltitudeMeters>1023.5999755859375</AltitudeMeters>
            <DistanceMeters>28744.852458847</DistanceMeters>
          </Trackpoint>
          <Trackpoint>
            <Time>2020-03-07T14:00:04.000Z</Time>
            <Position>
              <LatitudeDegrees>40.72555862367153167724609375</LatitudeDegrees>
              <LongitudeDegrees>-3.738197386264801025390625</LongitudeDegrees>
            </Position>
            <AltitudeMeters>1023.5999755859375</AltitudeMeters>
            <DistanceMeters>28753.824812579</DistanceMeters>
          </Trackpoint>
          <Trackpoint>
            <Time>2020-03-07T14:00:05.000Z</Time>
            <Position>
              <LatitudeDegrees>40.7256121002137660980224609375</LatitudeDegrees>
              <LongitudeDegrees>-3.73812027275562286376953125</LongitudeDegrees>
            </Position>
            <AltitudeMeters>1023.79998779296875</AltitudeMeters>
            <DistanceMeters>28762.641325384</DistanceMeters>
          </Trackpoint>
          <Trackpoint>
            <Time>2020-03-07T14:00:06.000Z</Time>
            <Position>
              <LatitudeDegrees>40.72566817514598369598388671875</LatitudeDegrees>
              <LongitudeDegrees>-3.73804994858801364898681640625</LongitudeDegrees>
            </Position>
            <AltitudeMeters>1023.79998779296875</AltitudeMeters>
            <DistanceMeters>28771.25213009</DistanceMeters>
          </Trackpoint>
          <Trackpoint>
            <Time>2020-03-07T14:00:07.000Z</Time>
            <Position>
              <LatitudeDegrees>40.72572383098304271697998046875</LatitudeDegrees>
              <LongitudeDegrees>-3.73798348009586334228515625</LongitudeDegrees>
            </Position>
            <AltitudeMeters>1024.199951171875</AltitudeMeters>
            <DistanceMeters>28779.606918592</DistanceMeters>
          </Trackpoint>
          <Trackpoint>
            <Time>2020-03-07T14:00:08.000Z</Time>
            <Position>
              <LatitudeDegrees>40.72577680461108684539794921875</LatitudeDegrees>
              <LongitudeDegrees>-3.73791717924177646636962890625</LongitudeDegrees>
            </Position>
            <AltitudeMeters>1024.4000244140625</AltitudeMeters>
            <DistanceMeters>28787.732675108</DistanceMeters>
          </Trackpoint>
          <Trackpoint>
            <Time>2020-03-07T14:00:09.000Z</Time>
            <Position>
              <LatitudeDegrees>40.72582818567752838134765625</LatitudeDegrees>
              <LongitudeDegrees>-3.7378527224063873291015625</LongitudeDegrees>
            </Position>
            <AltitudeMeters>1024.5999755859375</AltitudeMeters>
            <DistanceMeters>28795.623898534</DistanceMeters>
          </Trackpoint>
          <Trackpoint>
            <Time>2020-03-07T14:00:10.000Z</Time>
            <Position>
              <LatitudeDegrees>40.72588057257235050201416015625</LatitudeDegrees>
              <LongitudeDegrees>-3.73779430054128170013427734375</LongitudeDegrees>
            </Position>
            <AltitudeMeters>1024.800048828125</AltitudeMeters>
            <DistanceMeters>28803.258039832</DistanceMeters>
          </Trackpoint>
          <Trackpoint>
            <Time>2020-03-07T14:00:11.000Z</Time>
            <Position>
              <LatitudeDegrees>40.72593438439071178436279296875</LatitudeDegrees>
              <LongitudeDegrees>-3.7377442605793476104736328125</LongitudeDegrees>
            </Position>
            <AltitudeMeters>1025.199951171875</AltitudeMeters>
            <DistanceMeters>28810.584963092</DistanceMeters>
          </Trackpoint>
          <Trackpoint>
            <Time>2020-03-07T14:00:12.000Z</Time>
            <Position>
              <LatitudeDegrees>40.7259896211326122283935546875</LatitudeDegrees>
              <LongitudeDegrees>-3.73769807629287242889404296875</LongitudeDegrees>
            </Position>
            <AltitudeMeters>1025.4000244140625</AltitudeMeters>
            <DistanceMeters>28817.863041714</DistanceMeters>
          </Trackpoint>
          <Trackpoint>
            <Time>2020-03-07T14:00:13.000Z</Time>
            <Position>
              <LatitudeDegrees>40.72604385204613208770751953125</LatitudeDegrees>
              <LongitudeDegrees>-3.7376520596444606781005859375</LongitudeDegrees>
            </Position>
            <AltitudeMeters>1025.800048828125</AltitudeMeters>
            <DistanceMeters>28825.039289059</DistanceMeters>
          </Trackpoint>
          <Trackpoint>
            <Time>2020-03-07T14:00:14.000Z</Time>
            <Position>
              <LatitudeDegrees>40.72609464637935161590576171875</LatitudeDegrees>
              <LongitudeDegrees>-3.737604618072509765625</LongitudeDegrees>
            </Position>
            <AltitudeMeters>1026.4000244140625</AltitudeMeters>
            <DistanceMeters>28831.965165615</DistanceMeters>
          </Trackpoint>
          <Trackpoint>
            <Time>2020-03-07T14:00:15.000Z</Time>
            <Position>
              <LatitudeDegrees>40.7261435128748416900634765625</LatitudeDegrees>
              <LongitudeDegrees>-3.7375568412244319915771484375</LongitudeDegrees>
            </Position>
            <AltitudeMeters>1026.5999755859375</AltitudeMeters>
            <DistanceMeters>28838.733442929</DistanceMeters>
          </Trackpoint>
          <Trackpoint>
            <Time>2020-03-07T14:00:16.000Z</Time>
            <Position>
              <LatitudeDegrees>40.72619296610355377197265625</LatitudeDegrees>
              <LongitudeDegrees>-3.73751032166182994842529296875</LongitudeDegrees>
            </Position>
            <AltitudeMeters>1026.800048828125</AltitudeMeters>
            <DistanceMeters>28845.493042533</DistanceMeters>
          </Trackpoint>
          <Trackpoint>
            <Time>2020-03-07T14:00:17.000Z</Time>
            <Position>
              <LatitudeDegrees>40.72624350897967815399169921875</LatitudeDegrees>
              <LongitudeDegrees>-3.7374656461179256439208984375</LongitudeDegrees>
            </Position>
            <AltitudeMeters>1027.4000244140625</AltitudeMeters>
            <DistanceMeters>28852.263320816</DistanceMeters>
          </Trackpoint>
          <Trackpoint>
            <Time>2020-03-07T14:00:18.000Z</Time>
            <Position>
              <LatitudeDegrees>40.72629396803677082061767578125</LatitudeDegrees>
              <LongitudeDegrees>-3.73742155730724334716796875</LongitudeDegrees>
            </Position>
            <AltitudeMeters>1027.800048828125</AltitudeMeters>
            <DistanceMeters>28858.999501791</DistanceMeters>
          </Trackpoint>
          <Trackpoint>
            <Time>2020-03-07T14:00:19.000Z</Time>
            <Position>
              <LatitudeDegrees>40.726343505084514617919921875</LatitudeDegrees>
              <LongitudeDegrees>-3.73737704940140247344970703125</LongitudeDegrees>
            </Position>
            <AltitudeMeters>1028</AltitudeMeters>
            <DistanceMeters>28865.669673202</DistanceMeters>
          </Trackpoint>
          <Trackpoint>
            <Time>2020-03-07T14:00:20.000Z</Time>
            <Position>
              <LatitudeDegrees>40.7263932935893535614013671875</LatitudeDegrees>
              <LongitudeDegrees>-3.73733329586684703826904296875</LongitudeDegrees>
            </Position>
            <AltitudeMeters>1028.4000244140625</AltitudeMeters>
            <DistanceMeters>28872.326971091</DistanceMeters>
          </Trackpoint>
          <Trackpoint>
            <Time>2020-03-07T14:00:21.000Z</Time>
            <Position>
              <LatitudeDegrees>40.7264429144561290740966796875</LatitudeDegrees>
              <LongitudeDegrees>-3.7372892908751964569091796875</LongitudeDegrees>
            </Position>
            <AltitudeMeters>1028.800048828125</AltitudeMeters>
            <DistanceMeters>28878.981555592</DistanceMeters>
          </Trackpoint>
          <Trackpoint>
            <Time>2020-03-07T14:00:22.000Z</Time>
            <Position>
              <LatitudeDegrees>40.72649211622774600982666015625</LatitudeDegrees>
              <LongitudeDegrees>-3.73724495060741901397705078125</LongitudeDegrees>
            </Position>
            <AltitudeMeters>1029.199951171875</AltitudeMeters>
            <DistanceMeters>28885.613031467</DistanceMeters>
          </Trackpoint>
          <Trackpoint>
            <Time>2020-03-07T14:00:23.000Z</Time>
            <Position>
              <LatitudeDegrees>40.72654031217098236083984375</LatitudeDegrees>
              <LongitudeDegrees>-3.737200610339641571044921875</LongitudeDegrees>
            </Position>
            <AltitudeMeters>1029.4000244140625</AltitudeMeters>
            <DistanceMeters>28892.152637115</DistanceMeters>
          </Trackpoint>
          <Trackpoint>
            <Time>2020-03-07T14:00:24.000Z</Time>
            <Position>
              <LatitudeDegrees>40.7265884242951869964599609375</LatitudeDegrees>
              <LongitudeDegrees>-3.737156689167022705078125</LongitudeDegrees>
            </Position>
            <AltitudeMeters>1029.800048828125</AltitudeMeters>
            <DistanceMeters>28898.664567627</DistanceMeters>
          </Trackpoint>
          <Trackpoint>
            <Time>2020-03-07T14:00:25.000Z</Time>
            <Position>
              <LatitudeDegrees>40.726635865867137908935546875</LatitudeDegrees>
              <LongitudeDegrees>-3.737110756337642669677734375</LongitudeDegrees>
            </Position>
            <AltitudeMeters>1030</AltitudeMeters>
            <DistanceMeters>28905.213831945</DistanceMeters>
          </Trackpoint>
          <Trackpoint>
            <Time>2020-03-07T14:00:26.000Z</Time>
            <Position>
              <LatitudeDegrees>40.72668322362005710601806640625</LatitudeDegrees>
              <LongitudeDegrees>-3.73706423677504062652587890625</LongitudeDegrees>
            </Position>
            <AltitudeMeters>1030.199951171875</AltitudeMeters>
            <DistanceMeters>28911.785119912</DistanceMeters>
          </Trackpoint>
          <Trackpoint>
            <Time>2020-03-07T14:00:27.000Z</Time>
            <Position>
              <LatitudeDegrees>40.72673133574426174163818359375</LatitudeDegrees>
              <LongitudeDegrees>-3.73701880685985088348388671875</LongitudeDegrees>
            </Position>
            <AltitudeMeters>1030.4000244140625</AltitudeMeters>
            <DistanceMeters>28918.370135257</DistanceMeters>
          </Trackpoint>
          <Trackpoint>
            <Time>2020-03-07T14:00:28.000Z</Time>
            <Position>
              <LatitudeDegrees>40.72677844204008579254150390625</LatitudeDegrees>
              <LongitudeDegrees>-3.73697387985885143280029296875</LongitudeDegrees>
            </Position>
            <AltitudeMeters>1030.5999755859375</AltitudeMeters>
            <DistanceMeters>28924.838935319</DistanceMeters>
          </Trackpoint>
          <Trackpoint>
            <Time>2020-03-07T14:00:29.000Z</Time>
            <Position>
              <LatitudeDegrees>40.72682571597397327423095703125</LatitudeDegrees>
              <LongitudeDegrees>-3.7369298748672008514404296875</LongitudeDegrees>
            </Position>
            <AltitudeMeters>1030.800048828125</AltitudeMeters>
            <DistanceMeters>28931.278353851</DistanceMeters>
          </Trackpoint>
          <Trackpoint>
            <Time>2020-03-07T14:00:30.000Z</Time>
            <Position>
              <LatitudeDegrees>40.7268734090030193328857421875</LatitudeDegrees>
              <LongitudeDegrees>-3.73688654042780399322509765625</LongitudeDegrees>
            </Position>
            <AltitudeMeters>1031.199951171875</AltitudeMeters>
            <DistanceMeters>28937.723379191</DistanceMeters>
          </Trackpoint>
          <Trackpoint>
            <Time>2020-03-07T14:00:31.000Z</Time>
            <Position>
              <LatitudeDegrees>40.72692026384174823760986328125</LatitudeDegrees>
              <LongitudeDegrees>-3.7368430383503437042236328125</LongitudeDegrees>
            </Position>
            <AltitudeMeters>1031.4000244140625</AltitudeMeters>
            <DistanceMeters>28944.10008949</DistanceMeters>
          </Trackpoint>
          <Trackpoint>
            <Time>2020-03-07T14:00:32.000Z</Time>
            <Position>
              <LatitudeDegrees>40.72696586139500141143798828125</LatitudeDegrees>
              <LongitudeDegrees>-3.7367994524538516998291015625</LongitudeDegrees>
            </Position>
            <AltitudeMeters>1031.4000244140625</AltitudeMeters>
            <DistanceMeters>28950.367531753</DistanceMeters>
          </Trackpoint>
          <Trackpoint>
            <Time>2020-03-07T14:00:33.000Z</Time>
            <Position>
              <LatitudeDegrees>40.72701129131019115447998046875</LatitudeDegrees>
              <LongitudeDegrees>-3.73675636947154998779296875</LongitudeDegrees>
            </Position>
            <AltitudeMeters>1031.800048828125</AltitudeMeters>
            <DistanceMeters>28956.594501181</DistanceMeters>
          </Trackpoint>
          <Trackpoint>
            <Time>2020-03-07T14:00:34.000Z</Time>
            <Position>
              <LatitudeDegrees>40.72705705650150775909423828125</LatitudeDegrees>
              <LongitudeDegrees>-3.73671521432697772979736328125</LongitudeDegrees>
            </Position>
            <AltitudeMeters>1031.800048828125</AltitudeMeters>
            <DistanceMeters>28962.758798519</DistanceMeters>
          </Trackpoint>
          <Trackpoint>
            <Time>2020-03-07T14:00:35.000Z</Time>
            <Position>
              <LatitudeDegrees>40.72710298933088779449462890625</LatitudeDegrees>
              <LongitudeDegrees>-3.73667414300143718719482421875</LongitudeDegrees>
            </Position>
            <AltitudeMeters>1032</AltitudeMeters>
            <DistanceMeters>28968.934803935</DistanceMeters>
          </Trackpoint>
          <Trackpoint>
            <Time>2020-03-07T14:00:36.000Z</Time>
            <Position>
              <LatitudeDegrees>40.72714774869382381439208984375</LatitudeDegrees>
              <LongitudeDegrees>-3.73663223348557949066162109375</LongitudeDegrees>
            </Position>
            <AltitudeMeters>1032.4000244140625</AltitudeMeters>
            <DistanceMeters>28975.04318145</DistanceMeters>
          </Trackpoint>
          <Trackpoint>
            <Time>2020-03-07T14:00:37.000Z</Time>
            <Position>
              <LatitudeDegrees>40.72719267569482326507568359375</LatitudeDegrees>
              <LongitudeDegrees>-3.736589737236499786376953125</LongitudeDegrees>
            </Position>
            <AltitudeMeters>1032.5999755859375</AltitudeMeters>
            <DistanceMeters>28981.195748431</DistanceMeters>
          </Trackpoint>
          <Trackpoint>
            <Time>2020-03-07T14:00:38.000Z</Time>
            <Position>
              <LatitudeDegrees>40.72723810561001300811767578125</LatitudeDegrees>
              <LongitudeDegrees>-3.73654690571129322052001953125</LongitudeDegrees>
            </Position>
            <AltitudeMeters>1033</AltitudeMeters>
            <DistanceMeters>28987.411105784</DistanceMeters>
          </Trackpoint>
          <Trackpoint>
            <Time>2020-03-07T14:00:39.000Z</Time>
            <Position>
              <LatitudeDegrees>40.72728403843939304351806640625</LatitudeDegrees>
              <LongitudeDegrees>-3.73650449328124523162841796875</LongitudeDegrees>
            </Position>
            <AltitudeMeters>1033.4000244140625</AltitudeMeters>
            <DistanceMeters>28993.650389361</DistanceMeters>
          </Trackpoint>
          <Trackpoint>
            <Time>2020-03-07T14:00:40.000Z</Time>
            <Position>
              <LatitudeDegrees>40.72733013890683650970458984375</LatitudeDegrees>
              <LongitudeDegrees>-3.73646141029894351959228515625</LongitudeDegrees>
            </Position>
            <AltitudeMeters>1033.5999755859375</AltitudeMeters>
            <DistanceMeters>28999.937252219</DistanceMeters>
          </Trackpoint>
          <Trackpoint>
            <Time>2020-03-07T14:00:41.000Z</Time>
            <Position>
              <LatitudeDegrees>40.72737556882202625274658203125</LatitudeDegrees>
              <LongitudeDegrees>-3.736416399478912353515625</LongitudeDegrees>
            </Position>
            <AltitudeMeters>1033.800048828125</AltitudeMeters>
            <DistanceMeters>29006.259921625</DistanceMeters>
          </Trackpoint>
          <Trackpoint>
            <Time>2020-03-07T14:00:42.000Z</Time>
            <Position>
              <LatitudeDegrees>40.7274219207465648651123046875</LatitudeDegrees>
              <LongitudeDegrees>-3.7363708019256591796875</LongitudeDegrees>
            </Position>
            <AltitudeMeters>1034</AltitudeMeters>
            <DistanceMeters>29012.695131845</DistanceMeters>
          </Trackpoint>
          <Trackpoint>
            <Time>2020-03-07T14:00:43.000Z</Time>
            <Position>
              <LatitudeDegrees>40.72746969759464263916015625</LatitudeDegrees>
              <LongitudeDegrees>-3.73632612638175487518310546875</LongitudeDegrees>
            </Position>
            <AltitudeMeters>1034.4000244140625</AltitudeMeters>
            <DistanceMeters>29019.212606785</DistanceMeters>
          </Trackpoint>
          <Trackpoint>
            <Time>2020-03-07T14:00:44.000Z</Time>
            <Position>
              <LatitudeDegrees>40.72751906700432300567626953125</LatitudeDegrees>
              <LongitudeDegrees>-3.7362824566662311553955078125</LongitudeDegrees>
            </Position>
            <AltitudeMeters>1034.5999755859375</AltitudeMeters>
            <DistanceMeters>29025.827722086</DistanceMeters>
          </Trackpoint>
          <Trackpoint>
            <Time>2020-03-07T14:00:45.000Z</Time>
            <Position>
              <LatitudeDegrees>40.72756852023303508758544921875</LatitudeDegrees>
              <LongitudeDegrees>-3.73623744584619998931884765625</LongitudeDegrees>
            </Position>
            <AltitudeMeters>1034.5999755859375</AltitudeMeters>
            <DistanceMeters>29032.51479458</DistanceMeters>
          </Trackpoint>
          <Trackpoint>
            <Time>2020-03-07T14:00:46.000Z</Time>
            <Position>
              <LatitudeDegrees>40.72761747054755687713623046875</LatitudeDegrees>
              <LongitudeDegrees>-3.73619101010262966156005859375</LongitudeDegrees>
            </Position>
            <AltitudeMeters>1034.5999755859375</AltitudeMeters>
            <DistanceMeters>29039.224784234</DistanceMeters>
          </Trackpoint>
          <Trackpoint>
            <Time>2020-03-07T14:00:47.000Z</Time>
            <Position>
              <LatitudeDegrees>40.72766709141433238983154296875</LatitudeDegrees>
              <LongitudeDegrees>-3.736145831644535064697265625</LongitudeDegrees>
            </Position>
            <AltitudeMeters>1034.800048828125</AltitudeMeters>
            <DistanceMeters>29045.934100971</DistanceMeters>
          </Trackpoint>
          <Trackpoint>
            <Time>2020-03-07T14:00:48.000Z</Time>
            <Position>
              <LatitudeDegrees>40.72771671228110790252685546875</LatitudeDegrees>
              <LongitudeDegrees>-3.73610132373869419097900390625</LongitudeDegrees>
            </Position>
            <AltitudeMeters>1034.800048828125</AltitudeMeters>
            <DistanceMeters>29052.611714128</DistanceMeters>
          </Trackpoint>
          <Trackpoint>
            <Time>2020-03-07T14:00:49.000Z</Time>
            <Position>
              <LatitudeDegrees>40.72776599787175655364990234375</LatitudeDegrees>
              <LongitudeDegrees>-3.7360556423664093017578125</LongitudeDegrees>
            </Position>
            <AltitudeMeters>1034.800048828125</AltitudeMeters>
            <DistanceMeters>29059.314971574</DistanceMeters>
          </Trackpoint>
          <Trackpoint>
            <Time>2020-03-07T14:00:50.000Z</Time>
            <Position>
              <LatitudeDegrees>40.72781478054821491241455078125</LatitudeDegrees>
              <LongitudeDegrees>-3.73600895516574382781982421875</LongitudeDegrees>
            </Position>
            <AltitudeMeters>1034.800048828125</AltitudeMeters>
            <DistanceMeters>29066.021595968</DistanceMeters>
          </Trackpoint>
          <Trackpoint>
            <Time>2020-03-07T14:00:51.000Z</Time>
            <Position>
              <LatitudeDegrees>40.72786373086273670196533203125</LatitudeDegrees>
              <LongitudeDegrees>-3.7359622679650783538818359375</LongitudeDegrees>
            </Position>
            <AltitudeMeters>1034.800048828125</AltitudeMeters>
            <DistanceMeters>29072.743686605</DistanceMeters>
          </Trackpoint>
          <Trackpoint>
            <Time>2020-03-07T14:00:52.000Z</Time>
            <Position>
              <LatitudeDegrees>40.72791318409144878387451171875</LatitudeDegrees>
              <LongitudeDegrees>-3.73591683804988861083984375</LongitudeDegrees>
            </Position>
            <AltitudeMeters>1035</AltitudeMeters>
            <DistanceMeters>29079.450310999</DistanceMeters>
          </Trackpoint>
          <Trackpoint>
            <Time>2020-03-07T14:00:53.000Z</Time>
            <Position>
              <LatitudeDegrees>40.72796297259628772735595703125</LatitudeDegrees>
              <LongitudeDegrees>-3.73587216250598430633544921875</LongitudeDegrees>
            </Position>
            <AltitudeMeters>1035</AltitudeMeters>
            <DistanceMeters>29086.151547464</DistanceMeters>
          </Trackpoint>
          <Trackpoint>
            <Time>2020-03-07T14:00:54.000Z</Time>
            <Position>
              <LatitudeDegrees>40.7280121743679046630859375</LatitudeDegrees>
              <LongitudeDegrees>-3.7358278222382068634033203125</LongitudeDegrees>
            </Position>
            <AltitudeMeters>1035.199951171875</AltitudeMeters>
            <DistanceMeters>29092.783023339</DistanceMeters>
          </Trackpoint>
          <Trackpoint>
            <Time>2020-03-07T14:00:55.000Z</Time>
            <Position>
              <LatitudeDegrees>40.72806087322533130645751953125</LatitudeDegrees>
              <LongitudeDegrees>-3.73578364960849285125732421875</LongitudeDegrees>
            </Position>
            <AltitudeMeters>1035.199951171875</AltitudeMeters>
            <DistanceMeters>29099.359805696</DistanceMeters>
          </Trackpoint>
          <Trackpoint>
            <Time>2020-03-07T14:00:56.000Z</Time>
            <Position>
              <LatitudeDegrees>40.72810865007340908050537109375</LatitudeDegrees>
              <LongitudeDegrees>-3.7357389740645885467529296875</LongitudeDegrees>
            </Position>
            <AltitudeMeters>1035.199951171875</AltitudeMeters>
            <DistanceMeters>29105.877280636</DistanceMeters>
          </Trackpoint>
          <Trackpoint>
            <Time>2020-03-07T14:00:57.000Z</Time>
            <Position>
              <LatitudeDegrees>40.72815592400729656219482421875</LatitudeDegrees>
              <LongitudeDegrees>-3.7356943823397159576416015625</LongitudeDegrees>
            </Position>
            <AltitudeMeters>1035.199951171875</AltitudeMeters>
            <DistanceMeters>29112.346080697</DistanceMeters>
          </Trackpoint>
          <Trackpoint>
            <Time>2020-03-07T14:00:58.000Z</Time>
            <Position>
              <LatitudeDegrees>40.7282031141221523284912109375</LatitudeDegrees>
              <LongitudeDegrees>-3.73564995825290679931640625</LongitudeDegrees>
            </Position>
            <AltitudeMeters>1035.4000244140625</AltitudeMeters>
            <DistanceMeters>29118.798807445</DistanceMeters>
          </Trackpoint>
          <Trackpoint>
            <Time>2020-03-07T14:00:59.000Z</Time>
            <Position>
              <LatitudeDegrees>40.7282493822276592254638671875</LatitudeDegrees>
              <LongitudeDegrees>-3.7356048636138439178466796875</LongitudeDegrees>
            </Position>
            <AltitudeMeters>1035.4000244140625</AltitudeMeters>
            <DistanceMeters>29125.201662047</DistanceMeters>
          </Trackpoint>
          <Trackpoint>
            <Time>2020-03-07T14:01:00.000Z</Time>
            <Position>
              <LatitudeDegrees>40.72829573415219783782958984375</LatitudeDegrees>
              <LongitudeDegrees>-3.7355599366128444671630859375</LongitudeDegrees>
            </Position>
            <AltitudeMeters>1035.4000244140625</AltitudeMeters>
            <DistanceMeters>29131.603106174</DistanceMeters>
          </Trackpoint>
          <Trackpoint>
            <Time>2020-03-07T14:01:01.000Z</Time>
            <Position>
              <LatitudeDegrees>40.72834216989576816558837890625</LatitudeDegrees>
              <LongitudeDegrees>-3.73551559634506702423095703125</LongitudeDegrees>
            </Position>
            <AltitudeMeters>1035.5999755859375</AltitudeMeters>
            <DistanceMeters>29137.983355746</DistanceMeters>
          </Trackpoint>
          <Trackpoint>
            <Time>2020-03-07T14:01:02.000Z</Time>
            <Position>
              <LatitudeDegrees>40.72838927619159221649169921875</LatitudeDegrees>
              <LongitudeDegrees>-3.73547234572470188140869140625</LongitudeDegrees>
            </Position>
            <AltitudeMeters>1035.5999755859375</AltitudeMeters>
            <DistanceMeters>29144.370677985</DistanceMeters>
          </Trackpoint>
          <Trackpoint>
            <Time>2020-03-07T14:01:03.000Z</Time>
            <Position>
              <LatitudeDegrees>40.728436298668384552001953125</LatitudeDegrees>
              <LongitudeDegrees>-3.73542943038046360015869140625</LongitudeDegrees>
            </Position>
            <AltitudeMeters>1035.5999755859375</AltitudeMeters>
            <DistanceMeters>29150.733921087</DistanceMeters>
          </Trackpoint>
          <Trackpoint>
            <Time>2020-03-07T14:01:04.000Z</Time>
            <Position>
              <LatitudeDegrees>40.72848332114517688751220703125</LatitudeDegrees>
              <LongitudeDegrees>-3.73538601212203502655029296875</LongitudeDegrees>
            </Position>
            <AltitudeMeters>1035.5999755859375</AltitudeMeters>
            <DistanceMeters>29157.121243325</DistanceMeters>
          </Trackpoint>
          <Trackpoint>
            <Time>2020-03-07T14:01:05.000Z</Time>
            <Position>
              <LatitudeDegrees>40.7285306788980960845947265625</LatitudeDegrees>
              <LongitudeDegrees>-3.7353430129587650299072265625</LongitudeDegrees>
            </Position>
            <AltitudeMeters>1035.5999755859375</AltitudeMeters>
            <DistanceMeters>29163.519865567</DistanceMeters>
          </Trackpoint>
          <Trackpoint>
            <Time>2020-03-07T14:01:06.000Z</Time>
            <Position>
              <LatitudeDegrees>40.7285776175558567047119140625</LatitudeDegrees>
              <LongitudeDegrees>-3.73529917560517787933349609375</LongitudeDegrees>
            </Position>
            <AltitudeMeters>1035.5999755859375</AltitudeMeters>
            <DistanceMeters>29169.919898907</DistanceMeters>
          </Trackpoint>
          <Trackpoint>
            <Time>2020-03-07T14:01:07.000Z</Time>
            <Position>
              <LatitudeDegrees>40.728624053299427032470703125</LatitudeDegrees>
              <LongitudeDegrees>-3.7352545000612735748291015625</LongitudeDegrees>
            </Position>
            <AltitudeMeters>1035.5999755859375</AltitudeMeters>
            <DistanceMeters>29176.315698019</DistanceMeters>
          </Trackpoint>
          <Trackpoint>
            <Time>2020-03-07T14:01:08.000Z</Time>
            <Position>
              <LatitudeDegrees>40.7286711595952510833740234375</LatitudeDegrees>
              <LongitudeDegrees>-3.7352102436125278472900390625</LongitudeDegrees>
            </Position>
            <AltitudeMeters>1035.800048828125</AltitudeMeters>
            <DistanceMeters>29182.750908239</DistanceMeters>
          </Trackpoint>
          <Trackpoint>
            <Time>2020-03-07T14:01:09.000Z</Time>
            <Position>
              <LatitudeDegrees>40.72871868498623371124267578125</LatitudeDegrees>
              <LongitudeDegrees>-3.735166490077972412109375</LongitudeDegrees>
            </Position>
            <AltitudeMeters>1036</AltitudeMeters>
            <DistanceMeters>29189.200135487</DistanceMeters>
          </Trackpoint>
          <Trackpoint>
            <Time>2020-03-07T14:01:10.000Z</Time>
            <Position>
              <LatitudeDegrees>40.72876713238656520843505859375</LatitudeDegrees>
              <LongitudeDegrees>-3.73512282036244869232177734375</LongitudeDegrees>
            </Position>
            <AltitudeMeters>1036.199951171875</AltitudeMeters>
            <DistanceMeters>29195.728685159</DistanceMeters>
          </Trackpoint>
          <Trackpoint>
            <Time>2020-03-07T14:01:11.000Z</Time>
            <Position>
              <LatitudeDegrees>40.72881574742496013641357421875</LatitudeDegrees>
              <LongitudeDegrees>-3.73507873155176639556884765625</LongitudeDegrees>
            </Position>
            <AltitudeMeters>1036.199951171875</AltitudeMeters>
            <DistanceMeters>29202.29447414</DistanceMeters>
          </Trackpoint>
          <Trackpoint>
            <Time>2020-03-07T14:01:12.000Z</Time>
            <Position>
              <LatitudeDegrees>40.7288639433681964874267578125</LatitudeDegrees>
              <LongitudeDegrees>-3.73503447510302066802978515625</LongitudeDegrees>
            </Position>
            <AltitudeMeters>1036.4000244140625</AltitudeMeters>
            <DistanceMeters>29208.829935989</DistanceMeters>
          </Trackpoint>
          <Trackpoint>
            <Time>2020-03-07T14:01:13.000Z</Time>
            <Position>
              <LatitudeDegrees>40.72891096584498882293701171875</LatitudeDegrees>
              <LongitudeDegrees>-3.7349903024733066558837890625</LongitudeDegrees>
            </Position>
            <AltitudeMeters>1036.4000244140625</AltitudeMeters>
            <DistanceMeters>29215.253910565</DistanceMeters>
          </Trackpoint>
          <Trackpoint>
            <Time>2020-03-07T14:01:14.000Z</Time>
            <Position>
              <LatitudeDegrees>40.7289574854075908660888671875</LatitudeDegrees>
              <LongitudeDegrees>-3.73494495637714862823486328125</LongitudeDegrees>
            </Position>
            <AltitudeMeters>1036.5999755859375</AltitudeMeters>
            <DistanceMeters>29221.691225285</DistanceMeters>
          </Trackpoint>
          <Trackpoint>
            <Time>2020-03-07T14:01:15.000Z</Time>
            <Position>
              <LatitudeDegrees>40.7290037535130977630615234375</LatitudeDegrees>
              <LongitudeDegrees>-3.7348997779190540313720703125</LongitudeDegrees>
            </Position>
            <AltitudeMeters>1036.5999755859375</AltitudeMeters>
            <DistanceMeters>29228.097604717</DistanceMeters>
          </Trackpoint>
          <Trackpoint>
            <Time>2020-03-07T14:01:16.000Z</Time>
            <Position>
              <LatitudeDegrees>40.72905111126601696014404296875</LatitudeDegrees>
              <LongitudeDegrees>-3.7348555214703083038330078125</LongitudeDegrees>
            </Position>
            <AltitudeMeters>1037</AltitudeMeters>
            <DistanceMeters>29234.556625786</DistanceMeters>
          </Trackpoint>
          <Trackpoint>
            <Time>2020-03-07T14:01:17.000Z</Time>
            <Position>
              <LatitudeDegrees>40.72909922339022159576416015625</LatitudeDegrees>
              <LongitudeDegrees>-3.7348110973834991455078125</LongitudeDegrees>
            </Position>
            <AltitudeMeters>1037.199951171875</AltitudeMeters>
            <DistanceMeters>29241.092087635</DistanceMeters>
          </Trackpoint>
          <Trackpoint>
            <Time>2020-03-07T14:01:18.000Z</Time>
            <Position>
              <LatitudeDegrees>40.72914817370474338531494140625</LatitudeDegrees>
              <LongitudeDegrees>-3.7347666732966899871826171875</LongitudeDegrees>
            </Position>
            <AltitudeMeters>1037.199951171875</AltitudeMeters>
            <DistanceMeters>29247.704472239</DistanceMeters>
          </Trackpoint>
          <Trackpoint>
            <Time>2020-03-07T14:01:19.000Z</Time>
            <Position>
              <LatitudeDegrees>40.72919779457151889801025390625</LatitudeDegrees>
              <LongitudeDegrees>-3.73472216539084911346435546875</LongitudeDegrees>
            </Position>
            <AltitudeMeters>1037.4000244140625</AltitudeMeters>
            <DistanceMeters>29254.38343755</DistanceMeters>
          </Trackpoint>
          <Trackpoint>
            <Time>2020-03-07T14:01:20.000Z</Time>
            <Position>
              <LatitudeDegrees>40.7292485050857067108154296875</LatitudeDegrees>
              <LongitudeDegrees>-3.7346784956753253936767578125</LongitudeDegrees>
            </Position>
            <AltitudeMeters>1037.4000244140625</AltitudeMeters>
            <DistanceMeters>29261.122969026</DistanceMeters>
          </Trackpoint>
          <Trackpoint>
            <Time>2020-03-07T14:01:21.000Z</Time>
            <Position>
              <LatitudeDegrees>40.72930055670440196990966796875</LatitudeDegrees>
              <LongitudeDegrees>-3.73463532887399196624755859375</LongitudeDegrees>
            </Position>
            <AltitudeMeters>1037.5999755859375</AltitudeMeters>
            <DistanceMeters>29267.964892461</DistanceMeters>
          </Trackpoint>
          <Trackpoint>
            <Time>2020-03-07T14:01:22.000Z</Time>
            <Position>
              <LatitudeDegrees>40.729352943599224090576171875</LatitudeDegrees>
              <LongitudeDegrees>-3.7345936708152294158935546875</LongitudeDegrees>
            </Position>
            <AltitudeMeters>1037.800048828125</AltitudeMeters>
            <DistanceMeters>29274.772414206</DistanceMeters>
          </Trackpoint>
          <Trackpoint>
            <Time>2020-03-07T14:01:23.000Z</Time>
            <Position>
              <LatitudeDegrees>40.729405917227268218994140625</LatitudeDegrees>
              <LongitudeDegrees>-3.73455486260354518890380859375</LongitudeDegrees>
            </Position>
            <AltitudeMeters>1037.800048828125</AltitudeMeters>
            <DistanceMeters>29281.515964085</DistanceMeters>
          </Trackpoint>
          <Trackpoint>
            <Time>2020-03-07T14:01:24.000Z</Time>
            <Position>
              <LatitudeDegrees>40.72945964522659778594970703125</LatitudeDegrees>
              <LongitudeDegrees>-3.73451865278184413909912109375</LongitudeDegrees>
            </Position>
            <AltitudeMeters>1038</AltitudeMeters>
            <DistanceMeters>29288.231334645</DistanceMeters>
          </Trackpoint>
          <Trackpoint>
            <Time>2020-03-07T14:01:25.000Z</Time>
            <Position>
              <LatitudeDegrees>40.72951395995914936065673828125</LatitudeDegrees>
              <LongitudeDegrees>-3.73448713682591915130615234375</LongitudeDegrees>
            </Position>
            <AltitudeMeters>1038.199951171875</AltitudeMeters>
            <DistanceMeters>29294.83552038</DistanceMeters>
          </Trackpoint>
          <Trackpoint>
            <Time>2020-03-07T14:01:26.000Z</Time>
            <Position>
              <LatitudeDegrees>40.7295696996152400970458984375</LatitudeDegrees>
              <LongitudeDegrees>-3.73446199111640453338623046875</LongitudeDegrees>
            </Position>
            <AltitudeMeters>1038.199951171875</AltitudeMeters>
            <DistanceMeters>29301.391675036</DistanceMeters>
          </Trackpoint>
          <Trackpoint>
            <Time>2020-03-07T14:01:27.000Z</Time>
            <Position>
              <LatitudeDegrees>40.72962594218552112579345703125</LatitudeDegrees>
              <LongitudeDegrees>-3.7344421260058879852294921875</LongitudeDegrees>
            </Position>
            <AltitudeMeters>1038.4000244140625</AltitudeMeters>
            <DistanceMeters>29307.87163302</DistanceMeters>
          </Trackpoint>
          <Trackpoint>
            <Time>2020-03-07T14:01:28.000Z</Time>
            <Position>
              <LatitudeDegrees>40.72968344204127788543701171875</LatitudeDegrees>
              <LongitudeDegrees>-3.73442863114178180694580078125</LongitudeDegrees>
            </Position>
            <AltitudeMeters>1038.4000244140625</AltitudeMeters>
            <DistanceMeters>29314.371765917</DistanceMeters>
          </Trackpoint>
          <Trackpoint>
            <Time>2020-03-07T14:01:29.000Z</Time>
            <Position>
              <LatitudeDegrees>40.7297430373728275299072265625</LatitudeDegrees>
              <LongitudeDegrees>-3.73442041687667369842529296875</LongitudeDegrees>
            </Position>
            <AltitudeMeters>1038.5999755859375</AltitudeMeters>
            <DistanceMeters>29321.041260393</DistanceMeters>
          </Trackpoint>
          <Trackpoint>
            <Time>2020-03-07T14:01:30.000Z</Time>
            <Position>
              <LatitudeDegrees>40.72980078868567943572998046875</LatitudeDegrees>
              <LongitudeDegrees>-3.73441471718251705169677734375</LongitudeDegrees>
            </Position>
            <AltitudeMeters>1038.800048828125</AltitudeMeters>
            <DistanceMeters>29327.487686673</DistanceMeters>
          </Trackpoint>
          <Trackpoint>
            <Time>2020-03-07T14:01:31.000Z</Time>
            <Position>
              <LatitudeDegrees>40.729856528341770172119140625</LatitudeDegrees>
              <LongitudeDegrees>-3.7344085983932018280029296875</LongitudeDegrees>
            </Position>
            <AltitudeMeters>1039</AltitudeMeters>
            <DistanceMeters>29333.713205776</DistanceMeters>
          </Trackpoint>
          <Trackpoint>
            <Time>2020-03-07T14:01:32.000Z</Time>
            <Position>
              <LatitudeDegrees>40.7299116812646389007568359375</LatitudeDegrees>
              <LongitudeDegrees>-3.73440331779420375823974609375</LongitudeDegrees>
            </Position>
            <AltitudeMeters>1039</AltitudeMeters>
            <DistanceMeters>29339.867973902</DistanceMeters>
          </Trackpoint>
          <Trackpoint>
            <Time>2020-03-07T14:01:33.000Z</Time>
            <Position>
              <LatitudeDegrees>40.7299649901688098907470703125</LatitudeDegrees>
              <LongitudeDegrees>-3.734400384128093719482421875</LongitudeDegrees>
            </Position>
            <AltitudeMeters>1039</AltitudeMeters>
            <DistanceMeters>29345.806953494</DistanceMeters>
          </Trackpoint>
          <Trackpoint>
            <Time>2020-03-07T14:01:34.000Z</Time>
            <Position>
              <LatitudeDegrees>40.73001771233975887298583984375</LatitudeDegrees>
              <LongitudeDegrees>-3.7343966960906982421875</LongitudeDegrees>
            </Position>
            <AltitudeMeters>1039.199951171875</AltitudeMeters>
            <DistanceMeters>29351.684031203</DistanceMeters>
          </Trackpoint>
          <Trackpoint>
            <Time>2020-03-07T14:01:35.000Z</Time>
            <Position>
              <LatitudeDegrees>40.73007009923458099365234375</LatitudeDegrees>
              <LongitudeDegrees>-3.73439158312976360321044921875</LongitudeDegrees>
            </Position>
            <AltitudeMeters>1039.4000244140625</AltitudeMeters>
            <DistanceMeters>29357.531070575</DistanceMeters>
          </Trackpoint>
          <Trackpoint>
            <Time>2020-03-07T14:01:36.000Z</Time>
            <Position>
              <LatitudeDegrees>40.7301208935678005218505859375</LatitudeDegrees>
              <LongitudeDegrees>-3.73438286595046520233154296875</LongitudeDegrees>
            </Position>
            <AltitudeMeters>1039.800048828125</AltitudeMeters>
            <DistanceMeters>29363.231881492</DistanceMeters>
          </Trackpoint>
          <Trackpoint>
            <Time>2020-03-07T14:01:37.000Z</Time>
            <Position>
              <LatitudeDegrees>40.730169676244258880615234375</LatitudeDegrees>
              <LongitudeDegrees>-3.73436920344829559326171875</LongitudeDegrees>
            </Position>
            <AltitudeMeters>1040</AltitudeMeters>
            <DistanceMeters>29368.78261305</DistanceMeters>
          </Trackpoint>
          <Trackpoint>
            <Time>2020-03-07T14:01:38.000Z</Time>
            <Position>
              <LatitudeDegrees>40.73021669872105121612548828125</LatitudeDegrees>
              <LongitudeDegrees>-3.73435118235647678375244140625</LongitudeDegrees>
            </Position>
            <AltitudeMeters>1040.5999755859375</AltitudeMeters>
            <DistanceMeters>29374.233204899</DistanceMeters>
          </Trackpoint>
          <Trackpoint>
            <Time>2020-03-07T14:01:39.000Z</Time>
            <Position>
              <LatitudeDegrees>40.73026196099817752838134765625</LatitudeDegrees>
              <LongitudeDegrees>-3.73433056287467479705810546875</LongitudeDegrees>
            </Position>
            <AltitudeMeters>1041.199951171875</AltitudeMeters>
            <DistanceMeters>29379.563178679</DistanceMeters>
          </Trackpoint>
          <Trackpoint>
            <Time>2020-03-07T14:01:40.000Z</Time>
            <Position>
              <LatitudeDegrees>40.7303039543330669403076171875</LatitudeDegrees>
              <LongitudeDegrees>-3.73430483043193817138671875</LongitudeDegrees>
            </Position>
            <AltitudeMeters>1041.4000244140625</AltitudeMeters>
            <DistanceMeters>29384.714818677</DistanceMeters>
          </Trackpoint>
          <Trackpoint>
            <Time>2020-03-07T14:01:41.000Z</Time>
            <Position>
              <LatitudeDegrees>40.7303431816399097442626953125</LatitudeDegrees>
              <LongitudeDegrees>-3.73427054844796657562255859375</LongitudeDegrees>
            </Position>
            <AltitudeMeters>1041.800048828125</AltitudeMeters>
            <DistanceMeters>29389.952506357</DistanceMeters>
          </Trackpoint>
          <Trackpoint>
            <Time>2020-03-07T14:01:42.000Z</Time>
            <Position>
              <LatitudeDegrees>40.7303797267377376556396484375</LatitudeDegrees>
              <LongitudeDegrees>-3.734230063855648040771484375</LongitudeDegrees>
            </Position>
            <AltitudeMeters>1042.199951171875</AltitudeMeters>
            <DistanceMeters>29395.263811169</DistanceMeters>
          </Trackpoint>
          <Trackpoint>
            <Time>2020-03-07T14:01:43.000Z</Time>
            <Position>
              <LatitudeDegrees>40.73041342198848724365234375</LatitudeDegrees>
              <LongitudeDegrees>-3.73418605886399745941162109375</LongitudeDegrees>
            </Position>
            <AltitudeMeters>1042.800048828125</AltitudeMeters>
            <DistanceMeters>29400.541003202</DistanceMeters>
          </Trackpoint>
          <Trackpoint>
            <Time>2020-03-07T14:01:44.000Z</Time>
            <Position>
              <LatitudeDegrees>40.730445943772792816162109375</LatitudeDegrees>
              <LongitudeDegrees>-3.73413878493010997772216796875</LongitudeDegrees>
            </Position>
            <AltitudeMeters>1043.199951171875</AltitudeMeters>
            <DistanceMeters>29405.927433896</DistanceMeters>
          </Trackpoint>
          <Trackpoint>
            <Time>2020-03-07T14:01:45.000Z</Time>
            <Position>
              <LatitudeDegrees>40.73047854937613010406494140625</LatitudeDegrees>
              <LongitudeDegrees>-3.73409016989171504974365234375</LongitudeDegrees>
            </Position>
            <AltitudeMeters>1043.5999755859375</AltitudeMeters>
            <DistanceMeters>29411.403644618</DistanceMeters>
          </Trackpoint>
          <Trackpoint>
            <Time>2020-03-07T14:01:46.000Z</Time>
            <Position>
              <LatitudeDegrees>40.73050989769399166107177734375</LatitudeDegrees>
              <LongitudeDegrees>-3.734040297567844390869140625</LongitudeDegrees>
            </Position>
            <AltitudeMeters>1044</AltitudeMeters>
            <DistanceMeters>29416.868300398</DistanceMeters>
          </Trackpoint>
          <Trackpoint>
            <Time>2020-03-07T14:01:47.000Z</Time>
            <Position>
              <LatitudeDegrees>40.73054082691669464111328125</LatitudeDegrees>
              <LongitudeDegrees>-3.7339890003204345703125</LongitudeDegrees>
            </Position>
            <AltitudeMeters>1044.199951171875</AltitudeMeters>
            <DistanceMeters>29422.39784277</DistanceMeters>
          </Trackpoint>
          <Trackpoint>
            <Time>2020-03-07T14:01:48.000Z</Time>
            <Position>
              <LatitudeDegrees>40.7305715046823024749755859375</LatitudeDegrees>
              <LongitudeDegrees>-3.7339385412633419036865234375</LongitudeDegrees>
            </Position>
            <AltitudeMeters>1044.5999755859375</AltitudeMeters>
            <DistanceMeters>29427.855057454</DistanceMeters>
          </Trackpoint>
          <Trackpoint>
            <Time>2020-03-07T14:01:49.000Z</Time>
            <Position>
              <LatitudeDegrees>40.73060209862887859344482421875</LatitudeDegrees>
              <LongitudeDegrees>-3.73388866893947124481201171875</LongitudeDegrees>
            </Position>
            <AltitudeMeters>1044.5999755859375</AltitudeMeters>
            <DistanceMeters>29433.26741073</DistanceMeters>
          </Trackpoint>
          <Trackpoint>
            <Time>2020-03-07T14:01:50.000Z</Time>
            <Position>
              <LatitudeDegrees>40.73063193820416927337646484375</LatitudeDegrees>
              <LongitudeDegrees>-3.73383971862494945526123046875</LongitudeDegrees>
            </Position>
            <AltitudeMeters>1045</AltitudeMeters>
            <DistanceMeters>29438.566801048</DistanceMeters>
          </Trackpoint>
          <Trackpoint>
            <Time>2020-03-07T14:01:51.000Z</Time>
            <Position>
              <LatitudeDegrees>40.7306613586843013763427734375</LatitudeDegrees>
              <LongitudeDegrees>-3.73379043303430080413818359375</LongitudeDegrees>
            </Position>
            <AltitudeMeters>1045.5999755859375</AltitudeMeters>
            <DistanceMeters>29443.857664586</DistanceMeters>
          </Trackpoint>
          <Trackpoint>
            <Time>2020-03-07T14:01:52.000Z</Time>
            <Position>
              <LatitudeDegrees>40.7306905277073383331298828125</LatitudeDegrees>
              <LongitudeDegrees>-3.73374165035784244537353515625</LongitudeDegrees>
            </Position>
            <AltitudeMeters>1046.4000244140625</AltitudeMeters>
            <DistanceMeters>29449.098799248</DistanceMeters>
          </Trackpoint>
          <Trackpoint>
            <Time>2020-03-07T14:01:53.000Z</Time>
            <Position>
              <LatitudeDegrees>40.73072078637778759002685546875</LatitudeDegrees>
              <LongitudeDegrees>-3.7336947955191135406494140625</LongitudeDegrees>
            </Position>
            <AltitudeMeters>1046.800048828125</AltitudeMeters>
            <DistanceMeters>29454.291467951</DistanceMeters>
          </Trackpoint>
          <Trackpoint>
            <Time>2020-03-07T14:01:54.000Z</Time>
            <Position>
              <LatitudeDegrees>40.73075129650533199310302734375</LatitudeDegrees>
              <LongitudeDegrees>-3.733648359775543212890625</LongitudeDegrees>
            </Position>
            <AltitudeMeters>1047</AltitudeMeters>
            <DistanceMeters>29459.475434338</DistanceMeters>
          </Trackpoint>
          <Trackpoint>
            <Time>2020-03-07T14:01:55.000Z</Time>
            <Position>
              <LatitudeDegrees>40.7307810522615909576416015625</LatitudeDegrees>
              <LongitudeDegrees>-3.73360083438456058502197265625</LongitudeDegrees>
            </Position>
            <AltitudeMeters>1047.199951171875</AltitudeMeters>
            <DistanceMeters>29464.675054408</DistanceMeters>
          </Trackpoint>
          <Trackpoint>
            <Time>2020-03-07T14:01:56.000Z</Time>
            <Position>
              <LatitudeDegrees>40.7308092154562473297119140625</LatitudeDegrees>
              <LongitudeDegrees>-3.73355356045067310333251953125</LongitudeDegrees>
            </Position>
            <AltitudeMeters>1047.800048828125</AltitudeMeters>
            <DistanceMeters>29469.74720265</DistanceMeters>
          </Trackpoint>
          <Trackpoint>
            <Time>2020-03-07T14:01:57.000Z</Time>
            <Position>
              <LatitudeDegrees>40.73083578608930110931396484375</LatitudeDegrees>
              <LongitudeDegrees>-3.73350645415484905242919921875</LongitudeDegrees>
            </Position>
            <AltitudeMeters>1048.199951171875</AltitudeMeters>
            <DistanceMeters>29474.69954428</DistanceMeters>
          </Trackpoint>
          <Trackpoint>
            <Time>2020-03-07T14:10:59.000Z</Time>
            <Position>
              <LatitudeDegrees>40.7309768535196781158447265625</LatitudeDegrees>
              <LongitudeDegrees>-3.733348958194255828857421875</LongitudeDegrees>
            </Position>
            <AltitudeMeters>1051.5999755859375</AltitudeMeters>
            <DistanceMeters>29495.265968634</DistanceMeters>
          </Trackpoint>
          <Trackpoint>
            <Time>2020-03-07T14:11:00.000Z</Time>
            <Position>
              <LatitudeDegrees>40.73099336586892604827880859375</LatitudeDegrees>
              <LongitudeDegrees>-3.733322806656360626220703125</LongitudeDegrees>
            </Position>
            <AltitudeMeters>1051.5999755859375</AltitudeMeters>
            <DistanceMeters>29498.138857401</DistanceMeters>
          </Trackpoint>
          <Trackpoint>
            <Time>2020-03-07T14:11:01.000Z</Time>
            <Position>
              <LatitudeDegrees>40.73101163841784000396728515625</LatitudeDegrees>
              <LongitudeDegrees>-3.73329455964267253875732421875</LongitudeDegrees>
            </Position>
            <AltitudeMeters>1051.4000244140625</AltitudeMeters>
            <DistanceMeters>29501.271858055</DistanceMeters>
          </Trackpoint>
          <Trackpoint>
            <Time>2020-03-07T14:11:02.000Z</Time>
            <Position>
              <LatitudeDegrees>40.73103477247059345245361328125</LatitudeDegrees>
              <LongitudeDegrees>-3.7332673184573650360107421875</LongitudeDegrees>
            </Position>
            <AltitudeMeters>1051.4000244140625</AltitudeMeters>
            <DistanceMeters>29504.72304203</DistanceMeters>
          </Trackpoint>
          <Trackpoint>
            <Time>2020-03-07T14:11:03.000Z</Time>
            <Position>
              <LatitudeDegrees>40.73106058873236179351806640625</LatitudeDegrees>
              <LongitudeDegrees>-3.73323940671980381011962890625</LongitudeDegrees>
            </Position>
            <AltitudeMeters>1051.4000244140625</AltitudeMeters>
            <DistanceMeters>29508.438817438</DistanceMeters>
          </Trackpoint>
          <Trackpoint>
            <Time>2020-03-07T14:11:04.000Z</Time>
            <Position>
              <LatitudeDegrees>40.7310885004699230194091796875</LatitudeDegrees>
              <LongitudeDegrees>-3.733210153877735137939453125</LongitudeDegrees>
            </Position>
            <AltitudeMeters>1051.4000244140625</AltitudeMeters>
            <DistanceMeters>29512.406111634</DistanceMeters>
          </Trackpoint>
          <Trackpoint>
            <Time>2020-03-07T14:11:05.000Z</Time>
            <Position>
              <LatitudeDegrees>40.7311181724071502685546875</LatitudeDegrees>
              <LongitudeDegrees>-3.73317955993115901947021484375</LongitudeDegrees>
            </Position>
            <AltitudeMeters>1051.4000244140625</AltitudeMeters>
            <DistanceMeters>29516.595916953</DistanceMeters>
          </Trackpoint>
          <Trackpoint>
            <Time>2020-03-07T14:11:06.000Z</Time>
            <Position>
              <LatitudeDegrees>40.7311476767063140869140625</LatitudeDegrees>
              <LongitudeDegrees>-3.73314636759459972381591796875</LongitudeDegrees>
            </Position>
            <AltitudeMeters>1051.4000244140625</AltitudeMeters>
            <DistanceMeters>29520.911008797</DistanceMeters>
          </Trackpoint>
          <Trackpoint>
            <Time>2020-03-07T14:11:07.000Z</Time>
            <Position>
              <LatitudeDegrees>40.73117776773869991302490234375</LatitudeDegrees>
              <LongitudeDegrees>-3.73311082832515239715576171875</LongitudeDegrees>
            </Position>
            <AltitudeMeters>1051.4000244140625</AltitudeMeters>
            <DistanceMeters>29525.406485533</DistanceMeters>
          </Trackpoint>
          <Trackpoint>
            <Time>2020-03-07T14:11:08.000Z</Time>
            <Position>
              <LatitudeDegrees>40.731209702789783477783203125</LatitudeDegrees>
              <LongitudeDegrees>-3.7330752052366733551025390625</LongitudeDegrees>
            </Position>
            <AltitudeMeters>1051.4000244140625</AltitudeMeters>
            <DistanceMeters>29530.061824776</DistanceMeters>
          </Trackpoint>
          <Trackpoint>
            <Time>2020-03-07T14:11:09.000Z</Time>
            <Position>
              <LatitudeDegrees>40.73124147020280361175537109375</LatitudeDegrees>
              <LongitudeDegrees>-3.73303824104368686676025390625</LongitudeDegrees>
            </Position>
            <AltitudeMeters>1051.199951171875</AltitudeMeters>
            <DistanceMeters>29534.775954402</DistanceMeters>
          </Trackpoint>
          <Trackpoint>
            <Time>2020-03-07T14:11:10.000Z</Time>
            <Position>
              <LatitudeDegrees>40.73127365671098232269287109375</LatitudeDegrees>
              <LongitudeDegrees>-3.7330004386603832244873046875</LongitudeDegrees>
            </Position>
            <AltitudeMeters>1051.199951171875</AltitudeMeters>
            <DistanceMeters>29539.571744712</DistanceMeters>
          </Trackpoint>
          <Trackpoint>
            <Time>2020-03-07T14:11:11.000Z</Time>
            <Position>
              <LatitudeDegrees>40.7313087768852710723876953125</LatitudeDegrees>
              <LongitudeDegrees>-3.73296464793384075164794921875</LongitudeDegrees>
            </Position>
            <AltitudeMeters>1051</AltitudeMeters>
            <DistanceMeters>29544.511306085</DistanceMeters>
          </Trackpoint>
          <Trackpoint>
            <Time>2020-03-07T14:11:12.000Z</Time>
            <Position>
              <LatitudeDegrees>40.73134808801114559173583984375</LatitudeDegrees>
              <LongitudeDegrees>-3.7329300306737422943115234375</LongitudeDegrees>
            </Position>
            <AltitudeMeters>1051</AltitudeMeters>
            <DistanceMeters>29549.771358767</DistanceMeters>
          </Trackpoint>
          <Trackpoint>
            <Time>2020-03-07T14:11:13.000Z</Time>
            <Position>
              <LatitudeDegrees>40.73139217682182788848876953125</LatitudeDegrees>
              <LongitudeDegrees>-3.7328971736133098602294921875</LongitudeDegrees>
            </Position>
            <AltitudeMeters>1050.800048828125</AltitudeMeters>
            <DistanceMeters>29555.40605031</DistanceMeters>
          </Trackpoint>
          <Trackpoint>
            <Time>2020-03-07T14:11:14.000Z</Time>
            <Position>
              <LatitudeDegrees>40.73144137859344482421875</LatitudeDegrees>
              <LongitudeDegrees>-3.73286741785705089569091796875</LongitudeDegrees>
            </Position>
            <AltitudeMeters>1050.4000244140625</AltitudeMeters>
            <DistanceMeters>29561.429574789</DistanceMeters>
          </Trackpoint>
          <Trackpoint>
            <Time>2020-03-07T14:11:15.000Z</Time>
            <Position>
              <LatitudeDegrees>40.7314945198595523834228515625</LatitudeDegrees>
              <LongitudeDegrees>-3.73283858411014080047607421875</LongitudeDegrees>
            </Position>
            <AltitudeMeters>1050.199951171875</AltitudeMeters>
            <DistanceMeters>29567.824667925</DistanceMeters>
          </Trackpoint>
          <Trackpoint>
            <Time>2020-03-07T14:11:16.000Z</Time>
            <Position>
              <LatitudeDegrees>40.73155126534402370452880859375</LatitudeDegrees>
              <LongitudeDegrees>-3.73281419277191162109375</LongitudeDegrees>
            </Position>
            <AltitudeMeters>1050</AltitudeMeters>
            <DistanceMeters>29574.467028462</DistanceMeters>
          </Trackpoint>
          <Trackpoint>
            <Time>2020-03-07T14:11:17.000Z</Time>
            <Position>
              <LatitudeDegrees>40.73161161504685878753662109375</LatitudeDegrees>
              <LongitudeDegrees>-3.7327982671558856964111328125</LongitudeDegrees>
            </Position>
            <AltitudeMeters>1049.5999755859375</AltitudeMeters>
            <DistanceMeters>29581.316866212</DistanceMeters>
          </Trackpoint>
          <Trackpoint>
            <Time>2020-03-07T14:11:18.000Z</Time>
            <Position>
              <LatitudeDegrees>40.73167481459677219390869140625</LatitudeDegrees>
              <LongitudeDegrees>-3.73279340565204620361328125</LongitudeDegrees>
            </Position>
            <AltitudeMeters>1049.4000244140625</AltitudeMeters>
            <DistanceMeters>29588.362954509</DistanceMeters>
          </Trackpoint>
          <Trackpoint>
            <Time>2020-03-07T14:11:19.000Z</Time>
            <Position>
              <LatitudeDegrees>40.7317409478127956390380859375</LatitudeDegrees>
              <LongitudeDegrees>-3.73280036263167858123779296875</LongitudeDegrees>
            </Position>
            <AltitudeMeters>1049</AltitudeMeters>
            <DistanceMeters>29595.746964366</DistanceMeters>
          </Trackpoint>
          <Trackpoint>
            <Time>2020-03-07T14:11:20.000Z</Time>
            <Position>
              <LatitudeDegrees>40.7318080030381679534912109375</LatitudeDegrees>
              <LongitudeDegrees>-3.73281829990446567535400390625</LongitudeDegrees>
            </Position>
            <AltitudeMeters>1048.5999755859375</AltitudeMeters>
            <DistanceMeters>29603.362156479</DistanceMeters>
          </Trackpoint>
          <Trackpoint>
            <Time>2020-03-07T14:11:21.000Z</Time>
            <Position>
              <LatitudeDegrees>40.73187522590160369873046875</LatitudeDegrees>
              <LongitudeDegrees>-3.73284704983234405517578125</LongitudeDegrees>
            </Position>
            <AltitudeMeters>1048.4000244140625</AltitudeMeters>
            <DistanceMeters>29611.227590588</DistanceMeters>
          </Trackpoint>
          <Trackpoint>
            <Time>2020-03-07T14:11:22.000Z</Time>
            <Position>
              <LatitudeDegrees>40.73194202966988086700439453125</LatitudeDegrees>
              <LongitudeDegrees>-3.73288434930145740509033203125</LongitudeDegrees>
            </Position>
            <AltitudeMeters>1048</AltitudeMeters>
            <DistanceMeters>29619.300947496</DistanceMeters>
          </Trackpoint>
          <Trackpoint>
            <Time>2020-03-07T14:11:23.000Z</Time>
            <Position>
              <LatitudeDegrees>40.73200933635234832763671875</LatitudeDegrees>
              <LongitudeDegrees>-3.73292751610279083251953125</LongitudeDegrees>
            </Position>
            <AltitudeMeters>1047.5999755859375</AltitudeMeters>
            <DistanceMeters>29627.63029785</DistanceMeters>
          </Trackpoint>
          <Trackpoint>
            <Time>2020-03-07T14:11:24.000Z</Time>
            <Position>
              <LatitudeDegrees>40.73207697831094264984130859375</LatitudeDegrees>
              <LongitudeDegrees>-3.7329749576747417449951171875</LongitudeDegrees>
            </Position>
            <AltitudeMeters>1047.199951171875</AltitudeMeters>
            <DistanceMeters>29636.156264973</DistanceMeters>
          </Trackpoint>
          <Trackpoint>
            <Time>2020-03-07T14:11:25.000Z</Time>
            <Position>
              <LatitudeDegrees>40.73214520700275897979736328125</LatitudeDegrees>
              <LongitudeDegrees>-3.733025752007961273193359375</LongitudeDegrees>
            </Position>
            <AltitudeMeters>1046.800048828125</AltitudeMeters>
            <DistanceMeters>29644.875451493</DistanceMeters>
          </Trackpoint>
          <Trackpoint>
            <Time>2020-03-07T14:11:26.000Z</Time>
            <Position>
              <LatitudeDegrees>40.73221511207520961761474609375</LatitudeDegrees>
              <LongitudeDegrees>-3.7330755405128002166748046875</LongitudeDegrees>
            </Position>
            <AltitudeMeters>1046.5999755859375</AltitudeMeters>
            <DistanceMeters>29653.717532801</DistanceMeters>
          </Trackpoint>
          <Trackpoint>
            <Time>2020-03-07T14:11:27.000Z</Time>
            <Position>
              <LatitudeDegrees>40.73228619061410427093505859375</LatitudeDegrees>
              <LongitudeDegrees>-3.73312692157924175262451171875</LongitudeDegrees>
            </Position>
            <AltitudeMeters>1046</AltitudeMeters>
            <DistanceMeters>29662.737565437</DistanceMeters>
          </Trackpoint>
          <Trackpoint>
            <Time>2020-03-07T14:11:28.000Z</Time>
            <Position>
              <LatitudeDegrees>40.73235760442912578582763671875</LatitudeDegrees>
              <LongitudeDegrees>-3.73317964375019073486328125</LongitudeDegrees>
            </Position>
            <AltitudeMeters>1045.4000244140625</AltitudeMeters>
            <DistanceMeters>29671.844774238</DistanceMeters>
          </Trackpoint>
          <Trackpoint>
            <Time>2020-03-07T14:11:29.000Z</Time>
            <Position>
              <LatitudeDegrees>40.732430107891559600830078125</LatitudeDegrees>
              <LongitudeDegrees>-3.7332284264266490936279296875</LongitudeDegrees>
            </Position>
            <AltitudeMeters>1044.4000244140625</AltitudeMeters>
            <DistanceMeters>29680.902769301</DistanceMeters>
          </Trackpoint>
          <Trackpoint>
            <Time>2020-03-07T14:11:30.000Z</Time>
            <Position>
              <LatitudeDegrees>40.73250629939138889312744140625</LatitudeDegrees>
              <LongitudeDegrees>-3.73326815664768218994140625</LongitudeDegrees>
            </Position>
            <AltitudeMeters>1044.199951171875</AltitudeMeters>
            <DistanceMeters>29690.020878416</DistanceMeters>
          </Trackpoint>
          <Trackpoint>
            <Time>2020-03-07T14:11:31.000Z</Time>
            <Position>
              <LatitudeDegrees>40.73258735239505767822265625</LatitudeDegrees>
              <LongitudeDegrees>-3.7332954816520214080810546875</LongitudeDegrees>
            </Position>
            <AltitudeMeters>1043.4000244140625</AltitudeMeters>
            <DistanceMeters>29699.33204182</DistanceMeters>
          </Trackpoint>
          <Trackpoint>
            <Time>2020-03-07T14:11:32.000Z</Time>
            <Position>
              <LatitudeDegrees>40.732672847807407379150390625</LatitudeDegrees>
              <LongitudeDegrees>-3.73331283219158649444580078125</LongitudeDegrees>
            </Position>
            <AltitudeMeters>1042.800048828125</AltitudeMeters>
            <DistanceMeters>29708.959331398</DistanceMeters>
          </Trackpoint>
          <Trackpoint>
            <Time>2020-03-07T14:11:33.000Z</Time>
            <Position>
              <LatitudeDegrees>40.73276261799037456512451171875</LatitudeDegrees>
              <LongitudeDegrees>-3.73332054354250431060791015625</LongitudeDegrees>
            </Position>
            <AltitudeMeters>1042.199951171875</AltitudeMeters>
            <DistanceMeters>29718.97191891</DistanceMeters>
          </Trackpoint>
          <Trackpoint>
            <Time>2020-03-07T14:11:34.000Z</Time>
            <Position>
              <LatitudeDegrees>40.73285599239170551300048828125</LatitudeDegrees>
              <LongitudeDegrees>-3.73331735841929912567138671875</LongitudeDegrees>
            </Position>
            <AltitudeMeters>1041.5999755859375</AltitudeMeters>
            <DistanceMeters>29729.368553703</DistanceMeters>
          </Trackpoint>
          <Trackpoint>
            <Time>2020-03-07T14:11:35.000Z</Time>
            <Position>
              <LatitudeDegrees>40.73294986970722675323486328125</LatitudeDegrees>
              <LongitudeDegrees>-3.73330838978290557861328125</LongitudeDegrees>
            </Position>
            <AltitudeMeters>1040.800048828125</AltitudeMeters>
            <DistanceMeters>29739.84436007</DistanceMeters>
          </Trackpoint>
          <Trackpoint>
            <Time>2020-03-07T14:11:36.000Z</Time>
            <Position>
              <LatitudeDegrees>40.73304424993693828582763671875</LatitudeDegrees>
              <LongitudeDegrees>-3.7333005107939243316650390625</LongitudeDegrees>
            </Position>
            <AltitudeMeters>1040.4000244140625</AltitudeMeters>
            <DistanceMeters>29750.37004332</DistanceMeters>
          </Trackpoint>
          <Trackpoint>
            <Time>2020-03-07T14:11:37.000Z</Time>
            <Position>
              <LatitudeDegrees>40.733138211071491241455078125</LatitudeDegrees>
              <LongitudeDegrees>-3.73329631984233856201171875</LongitudeDegrees>
            </Position>
            <AltitudeMeters>1039.800048828125</AltitudeMeters>
            <DistanceMeters>29760.834206304</DistanceMeters>
          </Trackpoint>
          <Trackpoint>
            <Time>2020-03-07T14:11:38.000Z</Time>
            <Position>
              <LatitudeDegrees>40.7332309149205684661865234375</LatitudeDegrees>
              <LongitudeDegrees>-3.7332931347191333770751953125</LongitudeDegrees>
            </Position>
            <AltitudeMeters>1039.199951171875</AltitudeMeters>
            <DistanceMeters>29771.155874866</DistanceMeters>
          </Trackpoint>
          <Trackpoint>
            <Time>2020-03-07T14:11:39.000Z</Time>
            <Position>
              <LatitudeDegrees>40.7333234511315822601318359375</LatitudeDegrees>
              <LongitudeDegrees>-3.733295314013957977294921875</LongitudeDegrees>
            </Position>
            <AltitudeMeters>1038.5999755859375</AltitudeMeters>
            <DistanceMeters>29781.45696356</DistanceMeters>
          </Trackpoint>
          <Trackpoint>
            <Time>2020-03-07T14:11:40.000Z</Time>
            <Position>
              <LatitudeDegrees>40.73341481387615203857421875</LatitudeDegrees>
              <LongitudeDegrees>-3.733312077820301055908203125</LongitudeDegrees>
            </Position>
            <AltitudeMeters>1037.800048828125</AltitudeMeters>
            <DistanceMeters>29791.724247154</DistanceMeters>
          </Trackpoint>
          <Trackpoint>
            <Time>2020-03-07T14:11:41.000Z</Time>
            <Position>
              <LatitudeDegrees>40.73350240476429462432861328125</LatitudeDegrees>
              <LongitudeDegrees>-3.7333464436233043670654296875</LongitudeDegrees>
            </Position>
            <AltitudeMeters>1037</AltitudeMeters>
            <DistanceMeters>29801.895213468</DistanceMeters>
          </Trackpoint>
          <Trackpoint>
            <Time>2020-03-07T14:11:42.000Z</Time>
            <Position>
              <LatitudeDegrees>40.73358588851988315582275390625</LatitudeDegrees>
              <LongitudeDegrees>-3.73339564539492130279541015625</LongitudeDegrees>
            </Position>
            <AltitudeMeters>1036</AltitudeMeters>
            <DistanceMeters>29812.071505359</DistanceMeters>
          </Trackpoint>
          <Trackpoint>
            <Time>2020-03-07T14:11:43.000Z</Time>
            <Position>
              <LatitudeDegrees>40.73366534896194934844970703125</LatitudeDegrees>
              <LongitudeDegrees>-3.7334560789167881011962890625</LongitudeDegrees>
            </Position>
            <AltitudeMeters>1035.199951171875</AltitudeMeters>
            <DistanceMeters>29822.27925007</DistanceMeters>
          </Trackpoint>
          <Trackpoint>
            <Time>2020-03-07T14:11:44.000Z</Time>
            <Position>
              <LatitudeDegrees>40.73374313302338123321533203125</LatitudeDegrees>
              <LongitudeDegrees>-3.73352187685668468475341796875</LongitudeDegrees>
            </Position>
            <AltitudeMeters>1034.4000244140625</AltitudeMeters>
            <DistanceMeters>29832.562352479</DistanceMeters>
          </Trackpoint>
          <Trackpoint>
            <Time>2020-03-07T14:11:45.000Z</Time>
            <Position>
              <LatitudeDegrees>40.733822174370288848876953125</LatitudeDegrees>
              <LongitudeDegrees>-3.73359194956719875335693359375</LongitudeDegrees>
            </Position>
            <AltitudeMeters>1033.5999755859375</AltitudeMeters>
            <DistanceMeters>29843.16070711</DistanceMeters>
          </Trackpoint>
          <Trackpoint>
            <Time>2020-03-07T14:11:46.000Z</Time>
            <Position>
              <LatitudeDegrees>40.733901299536228179931640625</LatitudeDegrees>
              <LongitudeDegrees>-3.73366856016218662261962890625</LongitudeDegrees>
            </Position>
            <AltitudeMeters>1032.800048828125</AltitudeMeters>
            <DistanceMeters>29854.083406867</DistanceMeters>
          </Trackpoint>
          <Trackpoint>
            <Time>2020-03-07T14:11:47.000Z</Time>
            <Position>
              <LatitudeDegrees>40.73397816158831119537353515625</LatitudeDegrees>
              <LongitudeDegrees>-3.73375556431710720062255859375</LongitudeDegrees>
            </Position>
            <AltitudeMeters>1032.199951171875</AltitudeMeters>
            <DistanceMeters>29865.354392424</DistanceMeters>
          </Trackpoint>
          <Trackpoint>
            <Time>2020-03-07T14:11:48.000Z</Time>
            <Position>
              <LatitudeDegrees>40.73404974304139614105224609375</LatitudeDegrees>
              <LongitudeDegrees>-3.7338537164032459259033203125</LongitudeDegrees>
            </Position>
            <AltitudeMeters>1031.4000244140625</AltitudeMeters>
            <DistanceMeters>29876.842803859</DistanceMeters>
          </Trackpoint>
          <Trackpoint>
            <Time>2020-03-07T14:11:49.000Z</Time>
            <Position>
              <LatitudeDegrees>40.73411596007645130157470703125</LatitudeDegrees>
              <LongitudeDegrees>-3.73396259732544422149658203125</LongitudeDegrees>
            </Position>
            <AltitudeMeters>1030.800048828125</AltitudeMeters>
            <DistanceMeters>29888.616916716</DistanceMeters>
          </Trackpoint>
          <Trackpoint>
            <Time>2020-03-07T14:11:50.000Z</Time>
            <Position>
              <LatitudeDegrees>40.7341784052550792694091796875</LatitudeDegrees>
              <LongitudeDegrees>-3.73407809995114803314208984375</LongitudeDegrees>
            </Position>
            <AltitudeMeters>1030.199951171875</AltitudeMeters>
            <DistanceMeters>29900.583493179</DistanceMeters>
          </Trackpoint>
          <Trackpoint>
            <Time>2020-03-07T14:11:51.000Z</Time>
            <Position>
              <LatitudeDegrees>40.73424152098596096038818359375</LatitudeDegrees>
              <LongitudeDegrees>-3.73419494368135929107666015625</LongitudeDegrees>
            </Position>
            <AltitudeMeters>1029.5999755859375</AltitudeMeters>
            <DistanceMeters>29912.685883022</DistanceMeters>
          </Trackpoint>
          <Trackpoint>
            <Time>2020-03-07T14:11:52.000Z</Time>
            <Position>
              <LatitudeDegrees>40.73430907912552356719970703125</LatitudeDegrees>
              <LongitudeDegrees>-3.7343086861073970794677734375</LongitudeDegrees>
            </Position>
            <AltitudeMeters>1029</AltitudeMeters>
            <DistanceMeters>29924.874517796</DistanceMeters>
          </Trackpoint>
          <Trackpoint>
            <Time>2020-03-07T14:11:53.000Z</Time>
            <Position>
              <LatitudeDegrees>40.734382756054401397705078125</LatitudeDegrees>
              <LongitudeDegrees>-3.73441739939153194427490234375</LongitudeDegrees>
            </Position>
            <AltitudeMeters>1028.4000244140625</AltitudeMeters>
            <DistanceMeters>29937.175614941</DistanceMeters>
          </Trackpoint>
          <Trackpoint>
            <Time>2020-03-07T14:11:54.000Z</Time>
            <Position>
              <LatitudeDegrees>40.73446582071483135223388671875</LatitudeDegrees>
              <LongitudeDegrees>-3.73451479710638523101806640625</LongitudeDegrees>
            </Position>
            <AltitudeMeters>1027.800048828125</AltitudeMeters>
            <DistanceMeters>29949.542968531</DistanceMeters>
          </Trackpoint>
          <Trackpoint>
            <Time>2020-03-07T14:11:55.000Z</Time>
            <Position>
              <LatitudeDegrees>40.73456154204905033111572265625</LatitudeDegrees>
              <LongitudeDegrees>-3.73459224589169025421142578125</LongitudeDegrees>
            </Position>
            <AltitudeMeters>1026.800048828125</AltitudeMeters>
            <DistanceMeters>29962.040336341</DistanceMeters>
          </Trackpoint>
          <Trackpoint>
            <Time>2020-03-07T14:11:56.000Z</Time>
            <Position>
              <LatitudeDegrees>40.73466933332383632659912109375</LatitudeDegrees>
              <LongitudeDegrees>-3.7346439622342586517333984375</LongitudeDegrees>
            </Position>
            <AltitudeMeters>1026</AltitudeMeters>
            <DistanceMeters>29974.806495499</DistanceMeters>
          </Trackpoint>
          <Trackpoint>
            <Time>2020-03-07T14:11:57.000Z</Time>
            <Position>
              <LatitudeDegrees>40.734785757958889007568359375</LatitudeDegrees>
              <LongitudeDegrees>-3.734667263925075531005859375</LongitudeDegrees>
            </Position>
            <AltitudeMeters>1024.4000244140625</AltitudeMeters>
            <DistanceMeters>29987.91329428</DistanceMeters>
          </Trackpoint>
          <Trackpoint>
            <Time>2020-03-07T14:11:58.000Z</Time>
            <Position>
              <LatitudeDegrees>40.73490679264068603515625</LatitudeDegrees>
              <LongitudeDegrees>-3.73466148041188716888427734375</LongitudeDegrees>
            </Position>
            <AltitudeMeters>1023.4000244140625</AltitudeMeters>
            <DistanceMeters>30001.393697032</DistanceMeters>
          </Trackpoint>
          <Trackpoint>
            <Time>2020-03-07T14:11:59.000Z</Time>
            <Position>
              <LatitudeDegrees>40.73502673767507076263427734375</LatitudeDegrees>
              <LongitudeDegrees>-3.73462007381021976470947265625</LongitudeDegrees>
            </Position>
            <AltitudeMeters>1022.79998779296875</AltitudeMeters>
            <DistanceMeters>30015.192871716</DistanceMeters>
          </Trackpoint>
          <Trackpoint>
            <Time>2020-03-07T14:12:00.000Z</Time>
            <Position>
              <LatitudeDegrees>40.7351369597017765045166015625</LatitudeDegrees>
              <LongitudeDegrees>-3.7345370091497898101806640625</LongitudeDegrees>
            </Position>
            <AltitudeMeters>1022.20001220703125</AltitudeMeters>
            <DistanceMeters>30029.320247607</DistanceMeters>
          </Trackpoint>
          <Trackpoint>
            <Time>2020-03-07T14:12:01.000Z</Time>
            <Position>
              <LatitudeDegrees>40.7352315075695514678955078125</LatitudeDegrees>
              <LongitudeDegrees>-3.73441773466765880584716796875</LongitudeDegrees>
            </Position>
            <AltitudeMeters>1021.4000244140625</AltitudeMeters>
            <DistanceMeters>30043.878265815</DistanceMeters>
          </Trackpoint>
          <Trackpoint>
            <Time>2020-03-07T14:12:02.000Z</Time>
            <Position>
              <LatitudeDegrees>40.73530711233615875244140625</LatitudeDegrees>
              <LongitudeDegrees>-3.7342734821140766143798828125</LongitudeDegrees>
            </Position>
            <AltitudeMeters>1020.5999755859375</AltitudeMeters>
            <DistanceMeters>30058.671028994</DistanceMeters>
          </Trackpoint>
          <Trackpoint>
            <Time>2020-03-07T14:12:03.000Z</Time>
            <Position>
              <LatitudeDegrees>40.735359080135822296142578125</LatitudeDegrees>
              <LongitudeDegrees>-3.734109364449977874755859375</LongitudeDegrees>
            </Position>
            <AltitudeMeters>1020</AltitudeMeters>
            <DistanceMeters>30073.672012461</DistanceMeters>
          </Trackpoint>
          <Trackpoint>
            <Time>2020-03-07T14:12:04.000Z</Time>
            <Position>
              <LatitudeDegrees>40.7353813759982585906982421875</LatitudeDegrees>
              <LongitudeDegrees>-3.7339321710169315338134765625</LongitudeDegrees>
            </Position>
            <AltitudeMeters>1019.20001220703125</AltitudeMeters>
            <DistanceMeters>30088.820951789</DistanceMeters>
          </Trackpoint>
          <Trackpoint>
            <Time>2020-03-07T14:12:05.000Z</Time>
            <Position>
              <LatitudeDegrees>40.73537886142730712890625</LatitudeDegrees>
              <LongitudeDegrees>-3.73375120572745800018310546875</LongitudeDegrees>
            </Position>
            <AltitudeMeters>1018.20001220703125</AltitudeMeters>
            <DistanceMeters>30104.085389626</DistanceMeters>
          </Trackpoint>
          <Trackpoint>
            <Time>2020-03-07T14:12:06.000Z</Time>
            <Position>
              <LatitudeDegrees>40.735365450382232666015625</LatitudeDegrees>
              <LongitudeDegrees>-3.7335694022476673126220703125</LongitudeDegrees>
            </Position>
            <AltitudeMeters>1017</AltitudeMeters>
            <DistanceMeters>30119.490858431</DistanceMeters>
          </Trackpoint>
          <Trackpoint>
            <Time>2020-03-07T14:12:07.000Z</Time>
            <Position>
              <LatitudeDegrees>40.73535162024199962615966796875</LatitudeDegrees>
              <LongitudeDegrees>-3.73338676057755947113037109375</LongitudeDegrees>
            </Position>
            <AltitudeMeters>1015.79998779296875</AltitudeMeters>
            <DistanceMeters>30134.971173953</DistanceMeters>
          </Trackpoint>
          <Trackpoint>
            <Time>2020-03-07T14:12:08.000Z</Time>
            <Position>
              <LatitudeDegrees>40.735343992710113525390625</LatitudeDegrees>
              <LongitudeDegrees>-3.733200095593929290771484375</LongitudeDegrees>
            </Position>
            <AltitudeMeters>1014.4000244140625</AltitudeMeters>
            <DistanceMeters>30150.736446676</DistanceMeters>
          </Trackpoint>
          <Trackpoint>
            <Time>2020-03-07T14:12:09.000Z</Time>
            <Position>
              <LatitudeDegrees>40.73535145260393619537353515625</LatitudeDegrees>
              <LongitudeDegrees>-3.73301208950579166412353515625</LongitudeDegrees>
            </Position>
            <AltitudeMeters>1012.79998779296875</AltitudeMeters>
            <DistanceMeters>30166.614156655</DistanceMeters>
          </Trackpoint>
          <Trackpoint>
            <Time>2020-03-07T14:12:10.000Z</Time>
            <Position>
              <LatitudeDegrees>40.73538196273148059844970703125</LatitudeDegrees>
              <LongitudeDegrees>-3.73282584361732006072998046875</LongitudeDegrees>
            </Position>
            <AltitudeMeters>1011</AltitudeMeters>
            <DistanceMeters>30182.684070349</DistanceMeters>
          </Trackpoint>
          <Trackpoint>
            <Time>2020-03-07T14:12:11.000Z</Time>
            <Position>
              <LatitudeDegrees>40.73543325997889041900634765625</LatitudeDegrees>
              <LongitudeDegrees>-3.73264496214687824249267578125</LongitudeDegrees>
            </Position>
            <AltitudeMeters>1009.4000244140625</AltitudeMeters>
            <DistanceMeters>30198.972214686</DistanceMeters>
          </Trackpoint>
          <Trackpoint>
            <Time>2020-03-07T14:12:12.000Z</Time>
            <Position>
              <LatitudeDegrees>40.73549813590943813323974609375</LatitudeDegrees>
              <LongitudeDegrees>-3.7324700318276882171630859375</LongitudeDegrees>
            </Position>
            <AltitudeMeters>1007.5999755859375</AltitudeMeters>
            <DistanceMeters>30215.397273707</DistanceMeters>
          </Trackpoint>
          <Trackpoint>
            <Time>2020-03-07T14:12:13.000Z</Time>
            <Position>
              <LatitudeDegrees>40.73557206429541110992431640625</LatitudeDegrees>
              <LongitudeDegrees>-3.73230147175490856170654296875</LongitudeDegrees>
            </Position>
            <AltitudeMeters>1006</AltitudeMeters>
            <DistanceMeters>30231.822607612</DistanceMeters>
          </Trackpoint>
          <Trackpoint>
            <Time>2020-03-07T14:12:14.000Z</Time>
            <Position>
              <LatitudeDegrees>40.73564783670008182525634765625</LatitudeDegrees>
              <LongitudeDegrees>-3.73213400132954120635986328125</LongitudeDegrees>
            </Position>
            <AltitudeMeters>1004.4000244140625</AltitudeMeters>
            <DistanceMeters>30248.272936815</DistanceMeters>
          </Trackpoint>
          <Trackpoint>
            <Time>2020-03-07T14:12:15.000Z</Time>
            <Position>
              <LatitudeDegrees>40.73572427965700626373291015625</LatitudeDegrees>
              <LongitudeDegrees>-3.73196988366544246673583984375</LongitudeDegrees>
            </Position>
            <AltitudeMeters>1003</AltitudeMeters>
            <DistanceMeters>30264.520004077</DistanceMeters>
          </Trackpoint>
          <Trackpoint>
            <Time>2020-03-07T14:12:16.000Z</Time>
            <Position>
              <LatitudeDegrees>40.73579938150942325592041015625</LatitudeDegrees>
              <LongitudeDegrees>-3.73180794529616832733154296875</LongitudeDegrees>
            </Position>
            <AltitudeMeters>1001.4000244140625</AltitudeMeters>
            <DistanceMeters>30280.531934953</DistanceMeters>
          </Trackpoint>
          <Trackpoint>
            <Time>2020-03-07T14:12:17.000Z</Time>
            <Position>
              <LatitudeDegrees>40.73587381280958652496337890625</LatitudeDegrees>
              <LongitudeDegrees>-3.73164801858365535736083984375</LongitudeDegrees>
            </Position>
            <AltitudeMeters>1000.20001220703125</AltitudeMeters>
            <DistanceMeters>30296.360658876</DistanceMeters>
          </Trackpoint>
          <Trackpoint>
            <Time>2020-03-07T14:12:18.000Z</Time>
            <Position>
              <LatitudeDegrees>40.73594774119555950164794921875</LatitudeDegrees>
              <LongitudeDegrees>-3.73149127699434757232666015625</LongitudeDegrees>
            </Position>
            <AltitudeMeters>999</AltitudeMeters>
            <DistanceMeters>30311.931127474</DistanceMeters>
          </Trackpoint>
          <Trackpoint>
            <Time>2020-03-07T14:12:19.000Z</Time>
            <Position>
              <LatitudeDegrees>40.73602032847702503204345703125</LatitudeDegrees>
              <LongitudeDegrees>-3.73133755289018154144287109375</LongitudeDegrees>
            </Position>
            <AltitudeMeters>997.5999755859375</AltitudeMeters>
            <DistanceMeters>30327.206505548</DistanceMeters>
          </Trackpoint>
          <Trackpoint>
            <Time>2020-03-07T14:12:20.000Z</Time>
            <Position>
              <LatitudeDegrees>40.73609258048236370086669921875</LatitudeDegrees>
              <LongitudeDegrees>-3.73118869028985500335693359375</LongitudeDegrees>
            </Position>
            <AltitudeMeters>996.20001220703125</AltitudeMeters>
            <DistanceMeters>30342.116012308</DistanceMeters>
          </Trackpoint>
          <Trackpoint>
            <Time>2020-03-07T14:12:21.000Z</Time>
            <Position>
              <LatitudeDegrees>40.73616349138319492340087890625</LatitudeDegrees>
              <LongitudeDegrees>-3.7310427613556385040283203125</LongitudeDegrees>
            </Position>
            <AltitudeMeters>995</AltitudeMeters>
            <DistanceMeters>30356.735927131</DistanceMeters>
          </Trackpoint>
          <Trackpoint>
            <Time>2020-03-07T14:12:22.000Z</Time>
            <Position>
              <LatitudeDegrees>40.73623289354145526885986328125</LatitudeDegrees>
              <LongitudeDegrees>-3.730900101363658905029296875</LongitudeDegrees>
            </Position>
            <AltitudeMeters>994.20001220703125</AltitudeMeters>
            <DistanceMeters>30371.033579754</DistanceMeters>
          </Trackpoint>
          <Trackpoint>
            <Time>2020-03-07T14:12:23.000Z</Time>
            <Position>
              <LatitudeDegrees>40.73630112223327159881591796875</LatitudeDegrees>
              <LongitudeDegrees>-3.73076154850423336029052734375</LongitudeDegrees>
            </Position>
            <AltitudeMeters>993.4000244140625</AltitudeMeters>
            <DistanceMeters>30384.9698233</DistanceMeters>
          </Trackpoint>
          <Trackpoint>
            <Time>2020-03-07T14:12:24.000Z</Time>
            <Position>
              <LatitudeDegrees>40.736368596553802490234375</LatitudeDegrees>
              <LongitudeDegrees>-3.73062710277736186981201171875</LongitudeDegrees>
            </Position>
            <AltitudeMeters>992.4000244140625</AltitudeMeters>
            <DistanceMeters>30398.569935645</DistanceMeters>
          </Trackpoint>
          <Trackpoint>
            <Time>2020-03-07T14:12:25.000Z</Time>
            <Position>
              <LatitudeDegrees>40.7364341430366039276123046875</LatitudeDegrees>
              <LongitudeDegrees>-3.73049567453563213348388671875</LongitudeDegrees>
            </Position>
            <AltitudeMeters>991.4000244140625</AltitudeMeters>
            <DistanceMeters>30411.839353891</DistanceMeters>
          </Trackpoint>
          <Trackpoint>
            <Time>2020-03-07T14:12:26.000Z</Time>
            <Position>
              <LatitudeDegrees>40.73650027625262737274169921875</LatitudeDegrees>
              <LongitudeDegrees>-3.7303685210645198822021484375</LongitudeDegrees>
            </Position>
            <AltitudeMeters>991.20001220703125</AltitudeMeters>
            <DistanceMeters>30424.845869646</DistanceMeters>
          </Trackpoint>
          <Trackpoint>
            <Time>2020-03-07T14:12:27.000Z</Time>
            <Position>
              <LatitudeDegrees>40.73656766675412654876708984375</LatitudeDegrees>
              <LongitudeDegrees>-3.73024673201143741607666015625</LongitudeDegrees>
            </Position>
            <AltitudeMeters>991</AltitudeMeters>
            <DistanceMeters>30437.564548407</DistanceMeters>
          </Trackpoint>
          <Trackpoint>
            <Time>2020-03-07T14:12:28.000Z</Time>
            <Position>
              <LatitudeDegrees>40.73664075694978237152099609375</LatitudeDegrees>
              <LongitudeDegrees>-3.73013424687087535858154296875</LongitudeDegrees>
            </Position>
            <AltitudeMeters>991</AltitudeMeters>
            <DistanceMeters>30450.061193638</DistanceMeters>
          </Trackpoint>
          <Trackpoint>
            <Time>2020-03-07T14:12:29.000Z</Time>
            <Position>
              <LatitudeDegrees>40.73672197759151458740234375</LatitudeDegrees>
              <LongitudeDegrees>-3.73003609478473663330078125</LongitudeDegrees>
            </Position>
            <AltitudeMeters>991</AltitudeMeters>
            <DistanceMeters>30462.31816642</DistanceMeters>
          </Trackpoint>
          <Trackpoint>
            <Time>2020-03-07T14:12:30.000Z</Time>
            <Position>
              <LatitudeDegrees>40.7368093170225620269775390625</LatitudeDegrees>
              <LongitudeDegrees>-3.72994950972497463226318359375</LongitudeDegrees>
            </Position>
            <AltitudeMeters>991</AltitudeMeters>
            <DistanceMeters>30474.476387976</DistanceMeters>
          </Trackpoint>
          <Trackpoint>
            <Time>2020-03-07T14:12:31.000Z</Time>
            <Position>
              <LatitudeDegrees>40.736899673938751220703125</LatitudeDegrees>
              <LongitudeDegrees>-3.72987306676805019378662109375</LongitudeDegrees>
            </Position>
            <AltitudeMeters>991</AltitudeMeters>
            <DistanceMeters>30486.422572644</DistanceMeters>
          </Trackpoint>
          <Trackpoint>
            <Time>2020-03-07T14:12:32.000Z</Time>
            <Position>
              <LatitudeDegrees>40.73699413798749446868896484375</LatitudeDegrees>
              <LongitudeDegrees>-3.72980835847556591033935546875</LongitudeDegrees>
            </Position>
            <AltitudeMeters>991</AltitudeMeters>
            <DistanceMeters>30498.268177646</DistanceMeters>
          </Trackpoint>
          <Trackpoint>
            <Time>2020-03-07T14:12:33.000Z</Time>
            <Position>
              <LatitudeDegrees>40.73709287680685520172119140625</LatitudeDegrees>
              <LongitudeDegrees>-3.72975655831396579742431640625</LongitudeDegrees>
            </Position>
            <AltitudeMeters>991</AltitudeMeters>
            <DistanceMeters>30510.093945861</DistanceMeters>
          </Trackpoint>
          <Trackpoint>
            <Time>2020-03-07T14:12:34.000Z</Time>
            <Position>
              <LatitudeDegrees>40.73719463311135768890380859375</LatitudeDegrees>
              <LongitudeDegrees>-3.7297200970351696014404296875</LongitudeDegrees>
            </Position>
            <AltitudeMeters>991</AltitudeMeters>
            <DistanceMeters>30521.829264172</DistanceMeters>
          </Trackpoint>
          <Trackpoint>
            <Time>2020-03-07T14:12:35.000Z</Time>
            <Position>
              <LatitudeDegrees>40.737298987805843353271484375</LatitudeDegrees>
              <LongitudeDegrees>-3.72969805262982845306396484375</LongitudeDegrees>
            </Position>
            <AltitudeMeters>991</AltitudeMeters>
            <DistanceMeters>30533.591867254</DistanceMeters>
          </Trackpoint>
          <Trackpoint>
            <Time>2020-03-07T14:12:36.000Z</Time>
            <Position>
              <LatitudeDegrees>40.73740459978580474853515625</LatitudeDegrees>
              <LongitudeDegrees>-3.72969008982181549072265625</LongitudeDegrees>
            </Position>
            <AltitudeMeters>991.20001220703125</AltitudeMeters>
            <DistanceMeters>30545.365980111</DistanceMeters>
          </Trackpoint>
          <Trackpoint>
            <Time>2020-03-07T14:12:37.000Z</Time>
            <Position>
              <LatitudeDegrees>40.7375093735754489898681640625</LatitudeDegrees>
              <LongitudeDegrees>-3.729691766202449798583984375</LongitudeDegrees>
            </Position>
            <AltitudeMeters>991.20001220703125</AltitudeMeters>
            <DistanceMeters>30557.028356001</DistanceMeters>
          </Trackpoint>
          <Trackpoint>
            <Time>2020-03-07T14:12:38.000Z</Time>
            <Position>
              <LatitudeDegrees>40.73761305771768093109130859375</LatitudeDegrees>
              <LongitudeDegrees>-3.7297003157436847686767578125</LongitudeDegrees>
            </Position>
            <AltitudeMeters>991.20001220703125</AltitudeMeters>
            <DistanceMeters>30568.590416876</DistanceMeters>
          </Trackpoint>
          <Trackpoint>
            <Time>2020-03-07T14:12:39.000Z</Time>
            <Position>
              <LatitudeDegrees>40.7377152331173419952392578125</LatitudeDegrees>
              <LongitudeDegrees>-3.72971414588391780853271484375</LongitudeDegrees>
            </Position>
            <AltitudeMeters>991.20001220703125</AltitudeMeters>
            <DistanceMeters>30580.022095068</DistanceMeters>
          </Trackpoint>
          <Trackpoint>
            <Time>2020-03-07T14:12:40.000Z</Time>
            <Position>
              <LatitudeDegrees>40.7378174923360347747802734375</LatitudeDegrees>
              <LongitudeDegrees>-3.72972906567156314849853515625</LongitudeDegrees>
            </Position>
            <AltitudeMeters>991.20001220703125</AltitudeMeters>
            <DistanceMeters>30591.473504157</DistanceMeters>
          </Trackpoint>
          <Trackpoint>
            <Time>2020-03-07T14:12:41.000Z</Time>
            <Position>
              <LatitudeDegrees>40.7379187457263469696044921875</LatitudeDegrees>
              <LongitudeDegrees>-3.729740716516971588134765625</LongitudeDegrees>
            </Position>
            <AltitudeMeters>991.20001220703125</AltitudeMeters>
            <DistanceMeters>30602.786074306</DistanceMeters>
          </Trackpoint>
          <Trackpoint>
            <Time>2020-03-07T14:12:42.000Z</Time>
            <Position>
              <LatitudeDegrees>40.73801890946924686431884765625</LatitudeDegrees>
              <LongitudeDegrees>-3.72974314726889133453369140625</LongitudeDegrees>
            </Position>
            <AltitudeMeters>991.20001220703125</AltitudeMeters>
            <DistanceMeters>30613.936235402</DistanceMeters>
          </Trackpoint>
          <Trackpoint>
            <Time>2020-03-07T14:12:43.000Z</Time>
            <Position>
              <LatitudeDegrees>40.73811815120279788970947265625</LatitudeDegrees>
              <LongitudeDegrees>-3.72973392717540264129638671875</LongitudeDegrees>
            </Position>
            <AltitudeMeters>991.20001220703125</AltitudeMeters>
            <DistanceMeters>30625.009192458</DistanceMeters>
          </Trackpoint>
          <Trackpoint>
            <Time>2020-03-07T14:12:44.000Z</Time>
            <Position>
              <LatitudeDegrees>40.73821588419377803802490234375</LatitudeDegrees>
              <LongitudeDegrees>-3.72971464879810810089111328125</LongitudeDegrees>
            </Position>
            <AltitudeMeters>991.20001220703125</AltitudeMeters>
            <DistanceMeters>30636.0080985</DistanceMeters>
          </Trackpoint>
          <Trackpoint>
            <Time>2020-03-07T14:12:45.000Z</Time>
            <Position>
              <LatitudeDegrees>40.73831160552799701690673828125</LatitudeDegrees>
              <LongitudeDegrees>-3.72968732379376888275146484375</LongitudeDegrees>
            </Position>
            <AltitudeMeters>991.20001220703125</AltitudeMeters>
            <DistanceMeters>30646.908453808</DistanceMeters>
          </Trackpoint>
          <Trackpoint>
            <Time>2020-03-07T14:12:46.000Z</Time>
            <Position>
              <LatitudeDegrees>40.73840632103383541107177734375</LatitudeDegrees>
              <LongitudeDegrees>-3.729653544723987579345703125</LongitudeDegrees>
            </Position>
            <AltitudeMeters>990.79998779296875</AltitudeMeters>
            <DistanceMeters>30657.828259642</DistanceMeters>
          </Trackpoint>
          <Trackpoint>
            <Time>2020-03-07T14:12:47.000Z</Time>
            <Position>
              <LatitudeDegrees>40.73849936015903949737548828125</LatitudeDegrees>
              <LongitudeDegrees>-3.72961674816906452178955078125</LongitudeDegrees>
            </Position>
            <AltitudeMeters>990.5999755859375</AltitudeMeters>
            <DistanceMeters>30668.638357664</DistanceMeters>
          </Trackpoint>
          <Trackpoint>
            <Time>2020-03-07T14:12:48.000Z</Time>
            <Position>
              <LatitudeDegrees>40.738591812551021575927734375</LatitudeDegrees>
              <LongitudeDegrees>-3.72957743704319000244140625</LongitudeDegrees>
            </Position>
            <AltitudeMeters>990.4000244140625</AltitudeMeters>
            <DistanceMeters>30679.448873348</DistanceMeters>
          </Trackpoint>
          <Trackpoint>
            <Time>2020-03-07T14:12:49.000Z</Time>
            <Position>
              <LatitudeDegrees>40.738683678209781646728515625</LatitudeDegrees>
              <LongitudeDegrees>-3.729536868631839752197265625</LongitudeDegrees>
            </Position>
            <AltitudeMeters>990.20001220703125</AltitudeMeters>
            <DistanceMeters>30690.230951262</DistanceMeters>
          </Trackpoint>
          <Trackpoint>
            <Time>2020-03-07T14:12:50.000Z</Time>
            <Position>
              <LatitudeDegrees>40.73877520859241485595703125</LatitudeDegrees>
              <LongitudeDegrees>-3.729496635496616363525390625</LongitudeDegrees>
            </Position>
            <AltitudeMeters>990</AltitudeMeters>
            <DistanceMeters>30700.968549505</DistanceMeters>
          </Trackpoint>
          <Trackpoint>
            <Time>2020-03-07T14:12:51.000Z</Time>
            <Position>
              <LatitudeDegrees>40.738866738975048065185546875</LatitudeDegrees>
              <LongitudeDegrees>-3.729454390704631805419921875</LongitudeDegrees>
            </Position>
            <AltitudeMeters>989.79998779296875</AltitudeMeters>
            <DistanceMeters>30711.760672835</DistanceMeters>
          </Trackpoint>
          <Trackpoint>
            <Time>2020-03-07T14:12:52.000Z</Time>
            <Position>
              <LatitudeDegrees>40.73895935900509357452392578125</LatitudeDegrees>
              <LongitudeDegrees>-3.72941021807491779327392578125</LongitudeDegrees>
            </Position>
            <AltitudeMeters>989.5999755859375</AltitudeMeters>
            <DistanceMeters>30722.722159831</DistanceMeters>
          </Trackpoint>
          <Trackpoint>
            <Time>2020-03-07T14:12:53.000Z</Time>
            <Position>
              <LatitudeDegrees>40.73905415832996368408203125</LatitudeDegrees>
              <LongitudeDegrees>-3.72936696745455265045166015625</LongitudeDegrees>
            </Position>
            <AltitudeMeters>989.5999755859375</AltitudeMeters>
            <DistanceMeters>30733.886080069</DistanceMeters>
          </Trackpoint>
          <Trackpoint>
            <Time>2020-03-07T14:12:54.000Z</Time>
            <Position>
              <LatitudeDegrees>40.739151053130626678466796875</LatitudeDegrees>
              <LongitudeDegrees>-3.72932421974837779998779296875</LongitudeDegrees>
            </Position>
            <AltitudeMeters>989.4000244140625</AltitudeMeters>
            <DistanceMeters>30745.25716905</DistanceMeters>
          </Trackpoint>
          <Trackpoint>
            <Time>2020-03-07T14:12:55.000Z</Time>
            <Position>
              <LatitudeDegrees>40.739249289035797119140625</LatitudeDegrees>
              <LongitudeDegrees>-3.72927929274737834930419921875</LongitudeDegrees>
            </Position>
            <AltitudeMeters>989.4000244140625</AltitudeMeters>
            <DistanceMeters>30756.828988422</DistanceMeters>
          </Trackpoint>
          <Trackpoint>
            <Time>2020-03-07T14:12:56.000Z</Time>
            <Position>
              <LatitudeDegrees>40.73935045860707759857177734375</LatitudeDegrees>
              <LongitudeDegrees>-3.7292326055467128753662109375</LongitudeDegrees>
            </Position>
            <AltitudeMeters>989.4000244140625</AltitudeMeters>
            <DistanceMeters>30768.757774806</DistanceMeters>
          </Trackpoint>
          <Trackpoint>
            <Time>2020-03-07T14:12:57.000Z</Time>
            <Position>
              <LatitudeDegrees>40.73945456184446811676025390625</LatitudeDegrees>
              <LongitudeDegrees>-3.72918558306992053985595703125</LongitudeDegrees>
            </Position>
            <AltitudeMeters>989.20001220703125</AltitudeMeters>
            <DistanceMeters>30781.004429029</DistanceMeters>
          </Trackpoint>
          <Trackpoint>
            <Time>2020-03-07T14:12:58.000Z</Time>
            <Position>
              <LatitudeDegrees>40.73956109583377838134765625</LatitudeDegrees>
              <LongitudeDegrees>-3.72913847677409648895263671875</LongitudeDegrees>
            </Position>
            <AltitudeMeters>988.79998779296875</AltitudeMeters>
            <DistanceMeters>30793.509742454</DistanceMeters>
          </Trackpoint>
          <Trackpoint>
            <Time>2020-03-07T14:12:59.000Z</Time>
            <Position>
              <LatitudeDegrees>40.73966972529888153076171875</LatitudeDegrees>
              <LongitudeDegrees>-3.72909187339246273040771484375</LongitudeDegrees>
            </Position>
            <AltitudeMeters>988.5999755859375</AltitudeMeters>
            <DistanceMeters>30806.223095209</DistanceMeters>
          </Trackpoint>
          <Trackpoint>
            <Time>2020-03-07T14:13:00.000Z</Time>
            <Position>
              <LatitudeDegrees>40.73978011496365070343017578125</LatitudeDegrees>
              <LongitudeDegrees>-3.7290441803634166717529296875</LongitudeDegrees>
            </Position>
            <AltitudeMeters>988.20001220703125</AltitudeMeters>
            <DistanceMeters>30819.151269284</DistanceMeters>
          </Trackpoint>
          <Trackpoint>
            <Time>2020-03-07T14:13:01.000Z</Time>
            <Position>
              <LatitudeDegrees>40.7398908399045467376708984375</LatitudeDegrees>
              <LongitudeDegrees>-3.7289945594966411590576171875</LongitudeDegrees>
            </Position>
            <AltitudeMeters>988</AltitudeMeters>
            <DistanceMeters>30832.166113652</DistanceMeters>
          </Trackpoint>
          <Trackpoint>
            <Time>2020-03-07T14:13:02.000Z</Time>
            <Position>
              <LatitudeDegrees>40.74000156484544277191162109375</LatitudeDegrees>
              <LongitudeDegrees>-3.72894334606826305389404296875</LongitudeDegrees>
            </Position>
            <AltitudeMeters>987.5999755859375</AltitudeMeters>
            <DistanceMeters>30845.22459609</DistanceMeters>
          </Trackpoint>
          <Trackpoint>
            <Time>2020-03-07T14:13:03.000Z</Time>
            <Position>
              <LatitudeDegrees>40.7401116192340850830078125</LatitudeDegrees>
              <LongitudeDegrees>-3.72889213263988494873046875</LongitudeDegrees>
            </Position>
            <AltitudeMeters>987.20001220703125</AltitudeMeters>
            <DistanceMeters>30858.213048196</DistanceMeters>
          </Trackpoint>
          <Trackpoint>
            <Time>2020-03-07T14:13:04.000Z</Time>
            <Position>
              <LatitudeDegrees>40.74022083543241024017333984375</LatitudeDegrees>
              <LongitudeDegrees>-3.72884276323020458221435546875</LongitudeDegrees>
            </Position>
            <AltitudeMeters>986.4000244140625</AltitudeMeters>
            <DistanceMeters>30871.062051567</DistanceMeters>
          </Trackpoint>
          <Trackpoint>
            <Time>2020-03-07T14:13:05.000Z</Time>
            <Position>
              <LatitudeDegrees>40.740330219268798828125</LatitudeDegrees>
              <LongitudeDegrees>-3.7287977524101734161376953125</LongitudeDegrees>
            </Position>
            <AltitudeMeters>985.5999755859375</AltitudeMeters>
            <DistanceMeters>30883.814055982</DistanceMeters>
          </Trackpoint>
          <Trackpoint>
            <Time>2020-03-07T14:13:06.000Z</Time>
            <Position>
              <LatitudeDegrees>40.74044044129550457000732421875</LatitudeDegrees>
              <LongitudeDegrees>-3.7287561781704425811767578125</LongitudeDegrees>
            </Position>
            <AltitudeMeters>984.79998779296875</AltitudeMeters>
            <DistanceMeters>30896.573139732</DistanceMeters>
          </Trackpoint>
          <Trackpoint>
            <Time>2020-03-07T14:13:07.000Z</Time>
            <Position>
              <LatitudeDegrees>40.74055125005543231964111328125</LatitudeDegrees>
              <LongitudeDegrees>-3.72871418483555316925048828125</LongitudeDegrees>
            </Position>
            <AltitudeMeters>984.20001220703125</AltitudeMeters>
            <DistanceMeters>30909.404913338</DistanceMeters>
          </Trackpoint>
          <Trackpoint>
            <Time>2020-03-07T14:13:08.000Z</Time>
            <Position>
              <LatitudeDegrees>40.74066222645342350006103515625</LatitudeDegrees>
              <LongitudeDegrees>-3.728669844567775726318359375</LongitudeDegrees>
            </Position>
            <AltitudeMeters>983.20001220703125</AltitudeMeters>
            <DistanceMeters>30922.310366834</DistanceMeters>
          </Trackpoint>
          <Trackpoint>
            <Time>2020-03-07T14:13:09.000Z</Time>
            <Position>
              <LatitudeDegrees>40.74077211320400238037109375</LatitudeDegrees>
              <LongitudeDegrees>-3.72861578129231929779052734375</LongitudeDegrees>
            </Position>
            <AltitudeMeters>982.5999755859375</AltitudeMeters>
            <DistanceMeters>30935.362970109</DistanceMeters>
          </Trackpoint>
          <Trackpoint>
            <Time>2020-03-07T14:13:10.000Z</Time>
            <Position>
              <LatitudeDegrees>40.74087680317461490631103515625</LatitudeDegrees>
              <LongitudeDegrees>-3.72854151763021945953369140625</LongitudeDegrees>
            </Position>
            <AltitudeMeters>982.20001220703125</AltitudeMeters>
            <DistanceMeters>30948.591152952</DistanceMeters>
          </Trackpoint>
          <Trackpoint>
            <Time>2020-03-07T14:13:11.000Z</Time>
            <Position>
              <LatitudeDegrees>40.7409707643091678619384765625</LatitudeDegrees>
              <LongitudeDegrees>-3.7284406833350658416748046875</LongitudeDegrees>
            </Position>
            <AltitudeMeters>981.79998779296875</AltitudeMeters>
            <DistanceMeters>30962.069880933</DistanceMeters>
          </Trackpoint>
          <Trackpoint>
            <Time>2020-03-07T14:13:12.000Z</Time>
            <Position>
              <LatitudeDegrees>40.74104997329413890838623046875</LatitudeDegrees>
              <LongitudeDegrees>-3.7283147871494293212890625</LongitudeDegrees>
            </Position>
            <AltitudeMeters>981.20001220703125</AltitudeMeters>
            <DistanceMeters>30975.870037171</DistanceMeters>
          </Trackpoint>
          <Trackpoint>
            <Time>2020-03-07T14:13:13.000Z</Time>
            <Position>
              <LatitudeDegrees>40.7411166094243526458740234375</LatitudeDegrees>
              <LongitudeDegrees>-3.7281734682619571685791015625</LongitudeDegrees>
            </Position>
            <AltitudeMeters>981</AltitudeMeters>
            <DistanceMeters>30989.906997954</DistanceMeters>
          </Trackpoint>
          <Trackpoint>
            <Time>2020-03-07T14:13:14.000Z</Time>
            <Position>
              <LatitudeDegrees>40.74117838405072689056396484375</LatitudeDegrees>
              <LongitudeDegrees>-3.728025443851947784423828125</LongitudeDegrees>
            </Position>
            <AltitudeMeters>980.79998779296875</AltitudeMeters>
            <DistanceMeters>31004.158470838</DistanceMeters>
          </Trackpoint>
          <Trackpoint>
            <Time>2020-03-07T14:13:15.000Z</Time>
            <Position>
              <LatitudeDegrees>40.741244852542877197265625</LatitudeDegrees>
              <LongitudeDegrees>-3.72787850908935070037841796875</LongitudeDegrees>
            </Position>
            <AltitudeMeters>980.4000244140625</AltitudeMeters>
            <DistanceMeters>31018.590335346</DistanceMeters>
          </Trackpoint>
          <Trackpoint>
            <Time>2020-03-07T14:13:16.000Z</Time>
            <Position>
              <LatitudeDegrees>40.74132473208010196685791015625</LatitudeDegrees>
              <LongitudeDegrees>-3.7277423031628131866455078125</LongitudeDegrees>
            </Position>
            <AltitudeMeters>979.79998779296875</AltitudeMeters>
            <DistanceMeters>31033.115441406</DistanceMeters>
          </Trackpoint>
          <Trackpoint>
            <Time>2020-03-07T14:13:17.000Z</Time>
            <Position>
              <LatitudeDegrees>40.741424225270748138427734375</LatitudeDegrees>
              <LongitudeDegrees>-3.72762881219387054443359375</LongitudeDegrees>
            </Position>
            <AltitudeMeters>979.20001220703125</AltitudeMeters>
            <DistanceMeters>31047.752023437</DistanceMeters>
          </Trackpoint>
          <Trackpoint>
            <Time>2020-03-07T14:13:18.000Z</Time>
            <Position>
              <LatitudeDegrees>40.7415397278964519500732421875</LatitudeDegrees>
              <LongitudeDegrees>-3.72754725627601146697998046875</LongitudeDegrees>
            </Position>
            <AltitudeMeters>978.4000244140625</AltitudeMeters>
            <DistanceMeters>31062.331735351</DistanceMeters>
          </Trackpoint>
          <Trackpoint>
            <Time>2020-03-07T14:13:19.000Z</Time>
            <Position>
              <LatitudeDegrees>40.7416654564440250396728515625</LatitudeDegrees>
              <LongitudeDegrees>-3.727505765855312347412109375</LongitudeDegrees>
            </Position>
            <AltitudeMeters>977.4000244140625</AltitudeMeters>
            <DistanceMeters>31076.756715472</DistanceMeters>
          </Trackpoint>
          <Trackpoint>
            <Time>2020-03-07T14:13:20.000Z</Time>
            <Position>
              <LatitudeDegrees>40.74179478920996189117431640625</LatitudeDegrees>
              <LongitudeDegrees>-3.7275005690753459930419921875</LongitudeDegrees>
            </Position>
            <AltitudeMeters>976.4000244140625</AltitudeMeters>
            <DistanceMeters>31091.158201359</DistanceMeters>
          </Trackpoint>
          <Trackpoint>
            <Time>2020-03-07T14:13:21.000Z</Time>
            <Position>
              <LatitudeDegrees>40.74192202650010585784912109375</LatitudeDegrees>
              <LongitudeDegrees>-3.7275196798145771026611328125</LongitudeDegrees>
            </Position>
            <AltitudeMeters>975.5999755859375</AltitudeMeters>
            <DistanceMeters>31105.411574989</DistanceMeters>
          </Trackpoint>
          <Trackpoint>
            <Time>2020-03-07T14:13:22.000Z</Time>
            <Position>
              <LatitudeDegrees>40.74204741977155208587646484375</LatitudeDegrees>
              <LongitudeDegrees>-3.727550022304058074951171875</LongitudeDegrees>
            </Position>
            <AltitudeMeters>973.5999755859375</AltitudeMeters>
            <DistanceMeters>31119.600816844</DistanceMeters>
          </Trackpoint>
          <Trackpoint>
            <Time>2020-03-07T14:13:23.000Z</Time>
            <Position>
              <LatitudeDegrees>40.742171891033649444580078125</LatitudeDegrees>
              <LongitudeDegrees>-3.7275813706219196319580078125</LongitudeDegrees>
            </Position>
            <AltitudeMeters>972.5999755859375</AltitudeMeters>
            <DistanceMeters>31133.704522878</DistanceMeters>
          </Trackpoint>
          <Trackpoint>
            <Time>2020-03-07T14:13:24.000Z</Time>
            <Position>
              <LatitudeDegrees>40.74229602701961994171142578125</LatitudeDegrees>
              <LongitudeDegrees>-3.72760509140789508819580078125</LongitudeDegrees>
            </Position>
            <AltitudeMeters>971.79998779296875</AltitudeMeters>
            <DistanceMeters>31147.665043638</DistanceMeters>
          </Trackpoint>
          <Trackpoint>
            <Time>2020-03-07T14:13:25.000Z</Time>
            <Position>
              <LatitudeDegrees>40.742420665919780731201171875</LatitudeDegrees>
              <LongitudeDegrees>-3.72760961763560771942138671875</LongitudeDegrees>
            </Position>
            <AltitudeMeters>971.20001220703125</AltitudeMeters>
            <DistanceMeters>31161.542848594</DistanceMeters>
          </Trackpoint>
          <Trackpoint>
            <Time>2020-03-07T14:13:26.000Z</Time>
            <Position>
              <LatitudeDegrees>40.7425435446202754974365234375</LatitudeDegrees>
              <LongitudeDegrees>-3.72758581303060054779052734375</LongitudeDegrees>
            </Position>
            <AltitudeMeters>970.20001220703125</AltitudeMeters>
            <DistanceMeters>31175.365887969</DistanceMeters>
          </Trackpoint>
          <Trackpoint>
            <Time>2020-03-07T14:13:27.000Z</Time>
            <Position>
              <LatitudeDegrees>40.74266214855015277862548828125</LatitudeDegrees>
              <LongitudeDegrees>-3.7275340966880321502685546875</LongitudeDegrees>
            </Position>
            <AltitudeMeters>969.4000244140625</AltitudeMeters>
            <DistanceMeters>31189.268396958</DistanceMeters>
          </Trackpoint>
          <Trackpoint>
            <Time>2020-03-07T14:13:28.000Z</Time>
            <Position>
              <LatitudeDegrees>40.74277304112911224365234375</LatitudeDegrees>
              <LongitudeDegrees>-3.72745723463594913482666015625</LongitudeDegrees>
            </Position>
            <AltitudeMeters>968.79998779296875</AltitudeMeters>
            <DistanceMeters>31203.209499329</DistanceMeters>
          </Trackpoint>
          <Trackpoint>
            <Time>2020-03-07T14:13:29.000Z</Time>
            <Position>
              <LatitudeDegrees>40.742871277034282684326171875</LatitudeDegrees>
              <LongitudeDegrees>-3.7273550592362880706787109375</LongitudeDegrees>
            </Position>
            <AltitudeMeters>968.4000244140625</AltitudeMeters>
            <DistanceMeters>31217.130183238</DistanceMeters>
          </Trackpoint>
          <Trackpoint>
            <Time>2020-03-07T14:13:30.000Z</Time>
            <Position>
              <LatitudeDegrees>40.7429559342563152313232421875</LatitudeDegrees>
              <LongitudeDegrees>-3.72723293490707874298095703125</LongitudeDegrees>
            </Position>
            <AltitudeMeters>968.20001220703125</AltitudeMeters>
            <DistanceMeters>31231.088763374</DistanceMeters>
          </Trackpoint>
          <Trackpoint>
            <Time>2020-03-07T14:13:31.000Z</Time>
            <Position>
              <LatitudeDegrees>40.74302407912909984588623046875</LatitudeDegrees>
              <LongitudeDegrees>-3.727095387876033782958984375</LongitudeDegrees>
            </Position>
            <AltitudeMeters>968</AltitudeMeters>
            <DistanceMeters>31244.947359836</DistanceMeters>
          </Trackpoint>
          <Trackpoint>
            <Time>2020-03-07T14:13:32.000Z</Time>
            <Position>
              <LatitudeDegrees>40.7430762983858585357666015625</LatitudeDegrees>
              <LongitudeDegrees>-3.72694526799023151397705078125</LongitudeDegrees>
            </Position>
            <AltitudeMeters>967.79998779296875</AltitudeMeters>
            <DistanceMeters>31258.876798179</DistanceMeters>
          </Trackpoint>
          <Trackpoint>
            <Time>2020-03-07T14:13:33.000Z</Time>
            <Position>
              <LatitudeDegrees>40.7431178726255893707275390625</LatitudeDegrees>
              <LongitudeDegrees>-3.726788945496082305908203125</LongitudeDegrees>
            </Position>
            <AltitudeMeters>967.5999755859375</AltitudeMeters>
            <DistanceMeters>31272.847987549</DistanceMeters>
          </Trackpoint>
          <Trackpoint>
            <Time>2020-03-07T14:13:34.000Z</Time>
            <Position>
              <LatitudeDegrees>40.7431577704846858978271484375</LatitudeDegrees>
              <LongitudeDegrees>-3.7266285158693790435791015625</LongitudeDegrees>
            </Position>
            <AltitudeMeters>967.4000244140625</AltitudeMeters>
            <DistanceMeters>31287.087099403</DistanceMeters>
          </Trackpoint>
          <Trackpoint>
            <Time>2020-03-07T14:13:35.000Z</Time>
            <Position>
              <LatitudeDegrees>40.74320227839052677154541015625</LatitudeDegrees>
              <LongitudeDegrees>-3.7264679186046123504638671875</LongitudeDegrees>
            </Position>
            <AltitudeMeters>967</AltitudeMeters>
            <DistanceMeters>31301.50738374</DistanceMeters>
          </Trackpoint>
          <Trackpoint>
            <Time>2020-03-07T14:13:36.000Z</Time>
            <Position>
              <LatitudeDegrees>40.74325583875179290771484375</LatitudeDegrees>
              <LongitudeDegrees>-3.72630975209176540374755859375</LongitudeDegrees>
            </Position>
            <AltitudeMeters>966.5999755859375</AltitudeMeters>
            <DistanceMeters>31316.116794639</DistanceMeters>
          </Trackpoint>
          <Trackpoint>
            <Time>2020-03-07T14:13:37.000Z</Time>
            <Position>
              <LatitudeDegrees>40.74332364834845066070556640625</LatitudeDegrees>
              <LongitudeDegrees>-3.72616021893918514251708984375</LongitudeDegrees>
            </Position>
            <AltitudeMeters>966.4000244140625</AltitudeMeters>
            <DistanceMeters>31330.812484764</DistanceMeters>
          </Trackpoint>
          <Trackpoint>
            <Time>2020-03-07T14:13:38.000Z</Time>
            <Position>
              <LatitudeDegrees>40.74341014958918094635009765625</LatitudeDegrees>
              <LongitudeDegrees>-3.72602753341197967529296875</LongitudeDegrees>
            </Position>
            <AltitudeMeters>966</AltitudeMeters>
            <DistanceMeters>31345.573165115</DistanceMeters>
          </Trackpoint>
          <Trackpoint>
            <Time>2020-03-07T14:13:39.000Z</Time>
            <Position>
              <LatitudeDegrees>40.74351442046463489532470703125</LatitudeDegrees>
              <LongitudeDegrees>-3.72591714374721050262451171875</LongitudeDegrees>
            </Position>
            <AltitudeMeters>965.4000244140625</AltitudeMeters>
            <DistanceMeters>31360.4508408</DistanceMeters>
          </Trackpoint>
          <Trackpoint>
            <Time>2020-03-07T14:13:40.000Z</Time>
            <Position>
              <LatitudeDegrees>40.7436338625848293304443359375</LatitudeDegrees>
              <LongitudeDegrees>-3.72583583928644657135009765625</LongitudeDegrees>
            </Position>
            <AltitudeMeters>964.5999755859375</AltitudeMeters>
            <DistanceMeters>31375.409023649</DistanceMeters>
          </Trackpoint>
          <Trackpoint>
            <Time>2020-03-07T14:13:41.000Z</Time>
            <Position>
              <LatitudeDegrees>40.74376420117914676666259765625</LatitudeDegrees>
              <LongitudeDegrees>-3.72578806243836879730224609375</LongitudeDegrees>
            </Position>
            <AltitudeMeters>963.79998779296875</AltitudeMeters>
            <DistanceMeters>31390.464686334</DistanceMeters>
          </Trackpoint>
          <Trackpoint>
            <Time>2020-03-07T14:13:42.000Z</Time>
            <Position>
              <LatitudeDegrees>40.74389948509633541107177734375</LatitudeDegrees>
              <LongitudeDegrees>-3.72577398084104061126708984375</LongitudeDegrees>
            </Position>
            <AltitudeMeters>963</AltitudeMeters>
            <DistanceMeters>31405.568554091</DistanceMeters>
          </Trackpoint>
          <Trackpoint>
            <Time>2020-03-07T14:13:43.000Z</Time>
            <Position>
              <LatitudeDegrees>40.7440355233848094940185546875</LatitudeDegrees>
              <LongitudeDegrees>-3.7257886491715908050537109375</LongitudeDegrees>
            </Position>
            <AltitudeMeters>962.4000244140625</AltitudeMeters>
            <DistanceMeters>31420.760351014</DistanceMeters>
          </Trackpoint>
          <Trackpoint>
            <Time>2020-03-07T14:13:44.000Z</Time>
            <Position>
              <LatitudeDegrees>40.7441698014736175537109375</LatitudeDegrees>
              <LongitudeDegrees>-3.72582494281232357025146484375</LongitudeDegrees>
            </Position>
            <AltitudeMeters>961.5999755859375</AltitudeMeters>
            <DistanceMeters>31436.015912629</DistanceMeters>
          </Trackpoint>
          <Trackpoint>
            <Time>2020-03-07T14:13:45.000Z</Time>
            <Position>
              <LatitudeDegrees>40.74430148117244243621826171875</LatitudeDegrees>
              <LongitudeDegrees>-3.72587540186941623687744140625</LongitudeDegrees>
            </Position>
            <AltitudeMeters>961</AltitudeMeters>
            <DistanceMeters>31451.277096451</DistanceMeters>
          </Trackpoint>
          <Trackpoint>
            <Time>2020-03-07T14:13:46.000Z</Time>
            <Position>
              <LatitudeDegrees>40.74443198740482330322265625</LatitudeDegrees>
              <LongitudeDegrees>-3.72592829167842864990234375</LongitudeDegrees>
            </Position>
            <AltitudeMeters>960.4000244140625</AltitudeMeters>
            <DistanceMeters>31466.471865107</DistanceMeters>
          </Trackpoint>
          <Trackpoint>
            <Time>2020-03-07T14:13:47.000Z</Time>
            <Position>
              <LatitudeDegrees>40.7445619069039821624755859375</LatitudeDegrees>
              <LongitudeDegrees>-3.725976906716823577880859375</LongitudeDegrees>
            </Position>
            <AltitudeMeters>959.5999755859375</AltitudeMeters>
            <DistanceMeters>31481.50171515</DistanceMeters>
          </Trackpoint>
          <Trackpoint>
            <Time>2020-03-07T14:13:48.000Z</Time>
            <Position>
              <LatitudeDegrees>40.74469207786023616790771484375</LatitudeDegrees>
              <LongitudeDegrees>-3.72602158226072788238525390625</LongitudeDegrees>
            </Position>
            <AltitudeMeters>958.5999755859375</AltitudeMeters>
            <DistanceMeters>31496.471966891</DistanceMeters>
          </Trackpoint>
          <Trackpoint>
            <Time>2020-03-07T14:13:49.000Z</Time>
            <Position>
              <LatitudeDegrees>40.744821913540363311767578125</LatitudeDegrees>
              <LongitudeDegrees>-3.72606148011982440948486328125</LongitudeDegrees>
            </Position>
            <AltitudeMeters>958</AltitudeMeters>
            <DistanceMeters>31511.309529484</DistanceMeters>
          </Trackpoint>
          <Trackpoint>
            <Time>2020-03-07T14:13:50.000Z</Time>
            <Position>
              <LatitudeDegrees>40.7449531741440296173095703125</LatitudeDegrees>
              <LongitudeDegrees>-3.72609232552349567413330078125</LongitudeDegrees>
            </Position>
            <AltitudeMeters>957.4000244140625</AltitudeMeters>
            <DistanceMeters>31526.148917752</DistanceMeters>
          </Trackpoint>
          <Trackpoint>
            <Time>2020-03-07T14:13:51.000Z</Time>
            <Position>
              <LatitudeDegrees>40.7450844347476959228515625</LatitudeDegrees>
              <LongitudeDegrees>-3.72611411847174167633056640625</LongitudeDegrees>
            </Position>
            <AltitudeMeters>955.79998779296875</AltitudeMeters>
            <DistanceMeters>31540.873459695</DistanceMeters>
          </Trackpoint>
          <Trackpoint>
            <Time>2020-03-07T14:13:52.000Z</Time>
            <Position>
              <LatitudeDegrees>40.7452146895229816436767578125</LatitudeDegrees>
              <LongitudeDegrees>-3.7261286191642284393310546875</LongitudeDegrees>
            </Position>
            <AltitudeMeters>955</AltitudeMeters>
            <DistanceMeters>31555.422170698</DistanceMeters>
          </Trackpoint>
          <Trackpoint>
            <Time>2020-03-07T14:13:53.000Z</Time>
            <Position>
              <LatitudeDegrees>40.745343603193759918212890625</LatitudeDegrees>
              <LongitudeDegrees>-3.7261433713138103485107421875</LongitudeDegrees>
            </Position>
            <AltitudeMeters>954</AltitudeMeters>
            <DistanceMeters>31569.82459709</DistanceMeters>
          </Trackpoint>
          <Trackpoint>
            <Time>2020-03-07T14:13:54.000Z</Time>
            <Position>
              <LatitudeDegrees>40.74546941556036472320556640625</LatitudeDegrees>
              <LongitudeDegrees>-3.7261601351201534271240234375</LongitudeDegrees>
            </Position>
            <AltitudeMeters>953.20001220703125</AltitudeMeters>
            <DistanceMeters>31583.899461815</DistanceMeters>
          </Trackpoint>
          <Trackpoint>
            <Time>2020-03-07T14:13:55.000Z</Time>
            <Position>
              <LatitudeDegrees>40.74559279717504978179931640625</LatitudeDegrees>
              <LongitudeDegrees>-3.72617396526038646697998046875</LongitudeDegrees>
            </Position>
            <AltitudeMeters>952.4000244140625</AltitudeMeters>
            <DistanceMeters>31597.681284188</DistanceMeters>
          </Trackpoint>
          <Trackpoint>
            <Time>2020-03-07T14:13:56.000Z</Time>
            <Position>
              <LatitudeDegrees>40.74571416713297367095947265625</LatitudeDegrees>
              <LongitudeDegrees>-3.72618251480162143707275390625</LongitudeDegrees>
            </Position>
            <AltitudeMeters>951.5999755859375</AltitudeMeters>
            <DistanceMeters>31611.208830127</DistanceMeters>
          </Trackpoint>
          <Trackpoint>
            <Time>2020-03-07T14:13:57.000Z</Time>
            <Position>
              <LatitudeDegrees>40.74583369307219982147216796875</LatitudeDegrees>
              <LongitudeDegrees>-3.72617899440228939056396484375</LongitudeDegrees>
            </Position>
            <AltitudeMeters>951.20001220703125</AltitudeMeters>
            <DistanceMeters>31624.515963518</DistanceMeters>
          </Trackpoint>
          <Trackpoint>
            <Time>2020-03-07T14:13:58.000Z</Time>
            <Position>
              <LatitudeDegrees>40.7459509558975696563720703125</LatitudeDegrees>
              <LongitudeDegrees>-3.72615351341664791107177734375</LongitudeDegrees>
            </Position>
            <AltitudeMeters>951</AltitudeMeters>
            <DistanceMeters>31637.743122362</DistanceMeters>
          </Trackpoint>
          <Trackpoint>
            <Time>2020-03-07T14:13:59.000Z</Time>
            <Position>
              <LatitudeDegrees>40.7460636086761951446533203125</LatitudeDegrees>
              <LongitudeDegrees>-3.7261048145592212677001953125</LongitudeDegrees>
            </Position>
            <AltitudeMeters>950.79998779296875</AltitudeMeters>
            <DistanceMeters>31650.937129096</DistanceMeters>
          </Trackpoint>
          <Trackpoint>
            <Time>2020-03-07T14:14:00.000Z</Time>
            <Position>
              <LatitudeDegrees>40.74616997502744197845458984375</LatitudeDegrees>
              <LongitudeDegrees>-3.72603616677224636077880859375</LongitudeDegrees>
            </Position>
            <AltitudeMeters>950.79998779296875</AltitudeMeters>
            <DistanceMeters>31664.115385057</DistanceMeters>
          </Trackpoint>
          <Trackpoint>
            <Time>2020-03-07T14:14:01.000Z</Time>
            <Position>
              <LatitudeDegrees>40.7462681271135807037353515625</LatitudeDegrees>
              <LongitudeDegrees>-3.72594748623669147491455078125</LongitudeDegrees>
            </Position>
            <AltitudeMeters>950.79998779296875</AltitudeMeters>
            <DistanceMeters>31677.354485622</DistanceMeters>
          </Trackpoint>
          <Trackpoint>
            <Time>2020-03-07T14:14:02.000Z</Time>
            <Position>
              <LatitudeDegrees>40.74635320343077182769775390625</LatitudeDegrees>
              <LongitudeDegrees>-3.725835420191287994384765625</LongitudeDegrees>
            </Position>
            <AltitudeMeters>950.5999755859375</AltitudeMeters>
            <DistanceMeters>31690.732006131</DistanceMeters>
          </Trackpoint>
          <Trackpoint>
            <Time>2020-03-07T14:14:03.000Z</Time>
            <Position>
              <LatitudeDegrees>40.74642227031290531158447265625</LatitudeDegrees>
              <LongitudeDegrees>-3.7257024832069873809814453125</LongitudeDegrees>
            </Position>
            <AltitudeMeters>950.4000244140625</AltitudeMeters>
            <DistanceMeters>31704.324480668</DistanceMeters>
          </Trackpoint>
          <Trackpoint>
            <Time>2020-03-07T14:14:04.000Z</Time>
            <Position>
              <LatitudeDegrees>40.74648077599704265594482421875</LatitudeDegrees>
              <LongitudeDegrees>-3.72555814683437347412109375</LongitudeDegrees>
            </Position>
            <AltitudeMeters>950.4000244140625</AltitudeMeters>
            <DistanceMeters>31718.127908249</DistanceMeters>
          </Trackpoint>
          <Trackpoint>
            <Time>2020-03-07T14:14:05.000Z</Time>
            <Position>
              <LatitudeDegrees>40.7465356774628162384033203125</LatitudeDegrees>
              <LongitudeDegrees>-3.72540903277695178985595703125</LongitudeDegrees>
            </Position>
            <AltitudeMeters>950.20001220703125</AltitudeMeters>
            <DistanceMeters>31732.108143388</DistanceMeters>
          </Trackpoint>
          <Trackpoint>
            <Time>2020-03-07T14:14:06.000Z</Time>
            <Position>
              <LatitudeDegrees>40.746593512594699859619140625</LatitudeDegrees>
              <LongitudeDegrees>-3.72525949962437152862548828125</LongitudeDegrees>
            </Position>
            <AltitudeMeters>950</AltitudeMeters>
            <DistanceMeters>31746.265529331</DistanceMeters>
          </Trackpoint>
          <Trackpoint>
            <Time>2020-03-07T14:14:07.000Z</Time>
            <Position>
              <LatitudeDegrees>40.7466593943536281585693359375</LatitudeDegrees>
              <LongitudeDegrees>-3.72511449269950389862060546875</LongitudeDegrees>
            </Position>
            <AltitudeMeters>950</AltitudeMeters>
            <DistanceMeters>31760.523020374</DistanceMeters>
          </Trackpoint>
          <Trackpoint>
            <Time>2020-03-07T14:14:08.000Z</Time>
            <Position>
              <LatitudeDegrees>40.746736340224742889404296875</LatitudeDegrees>
              <LongitudeDegrees>-3.72497803531587123870849609375</LongitudeDegrees>
            </Position>
            <AltitudeMeters>949.79998779296875</AltitudeMeters>
            <DistanceMeters>31774.86670406</DistanceMeters>
          </Trackpoint>
          <Trackpoint>
            <Time>2020-03-07T14:14:09.000Z</Time>
            <Position>
              <LatitudeDegrees>40.746824853122234344482421875</LatitudeDegrees>
              <LongitudeDegrees>-3.72485364787280559539794921875</LongitudeDegrees>
            </Position>
            <AltitudeMeters>949.5999755859375</AltitudeMeters>
            <DistanceMeters>31789.256585329</DistanceMeters>
          </Trackpoint>
          <Trackpoint>
            <Time>2020-03-07T14:14:10.000Z</Time>
            <Position>
              <LatitudeDegrees>40.7469266094267368316650390625</LatitudeDegrees>
              <LongitudeDegrees>-3.7247482873499393463134765625</LongitudeDegrees>
            </Position>
            <AltitudeMeters>949</AltitudeMeters>
            <DistanceMeters>31803.651172301</DistanceMeters>
          </Trackpoint>
          <Trackpoint>
            <Time>2020-03-07T14:14:11.000Z</Time>
            <Position>
              <LatitudeDegrees>40.7470406033098697662353515625</LatitudeDegrees>
              <LongitudeDegrees>-3.72466564178466796875</LongitudeDegrees>
            </Position>
            <AltitudeMeters>948.4000244140625</AltitudeMeters>
            <DistanceMeters>31818.126769832</DistanceMeters>
          </Trackpoint>
          <Trackpoint>
            <Time>2020-03-07T14:14:12.000Z</Time>
            <Position>
              <LatitudeDegrees>40.7471633143723011016845703125</LatitudeDegrees>
              <LongitudeDegrees>-3.7246064655482769012451171875</LongitudeDegrees>
            </Position>
            <AltitudeMeters>947.5999755859375</AltitudeMeters>
            <DistanceMeters>31832.667409772</DistanceMeters>
          </Trackpoint>
          <Trackpoint>
            <Time>2020-03-07T14:14:13.000Z</Time>
            <Position>
              <LatitudeDegrees>40.7472927309572696685791015625</LatitudeDegrees>
              <LongitudeDegrees>-3.72457654215395450592041015625</LongitudeDegrees>
            </Position>
            <AltitudeMeters>946.79998779296875</AltitudeMeters>
            <DistanceMeters>31847.291030061</DistanceMeters>
          </Trackpoint>
          <Trackpoint>
            <Time>2020-03-07T14:14:14.000Z</Time>
            <Position>
              <LatitudeDegrees>40.74742474593222141265869140625</LatitudeDegrees>
              <LongitudeDegrees>-3.7245746143162250518798828125</LongitudeDegrees>
            </Position>
            <AltitudeMeters>945.79998779296875</AltitudeMeters>
            <DistanceMeters>31861.985491192</DistanceMeters>
          </Trackpoint>
          <Trackpoint>
            <Time>2020-03-07T14:14:15.000Z</Time>
            <Position>
              <LatitudeDegrees>40.74755600653588771820068359375</LatitudeDegrees>
              <LongitudeDegrees>-3.7245950661599636077880859375</LongitudeDegrees>
            </Position>
            <AltitudeMeters>945.20001220703125</AltitudeMeters>
            <DistanceMeters>31876.696535072</DistanceMeters>
          </Trackpoint>
          <Trackpoint>
            <Time>2020-03-07T14:14:16.000Z</Time>
            <Position>
              <LatitudeDegrees>40.7476843334734439849853515625</LatitudeDegrees>
              <LongitudeDegrees>-3.72463873587548732757568359375</LongitudeDegrees>
            </Position>
            <AltitudeMeters>944.4000244140625</AltitudeMeters>
            <DistanceMeters>31891.44650564</DistanceMeters>
          </Trackpoint>
          <Trackpoint>
            <Time>2020-03-07T14:14:17.000Z</Time>
            <Position>
              <LatitudeDegrees>40.747807212173938751220703125</LatitudeDegrees>
              <LongitudeDegrees>-3.72470310889184474945068359375</LongitudeDegrees>
            </Position>
            <AltitudeMeters>943.79998779296875</AltitudeMeters>
            <DistanceMeters>31906.16061835</DistanceMeters>
          </Trackpoint>
          <Trackpoint>
            <Time>2020-03-07T14:14:18.000Z</Time>
            <Position>
              <LatitudeDegrees>40.7479267381131649017333984375</LatitudeDegrees>
              <LongitudeDegrees>-3.72477821074426174163818359375</LongitudeDegrees>
            </Position>
            <AltitudeMeters>943</AltitudeMeters>
            <DistanceMeters>31920.894662865</DistanceMeters>
          </Trackpoint>
          <Trackpoint>
            <Time>2020-03-07T14:14:19.000Z</Time>
            <Position>
              <LatitudeDegrees>40.74804550968110561370849609375</LatitudeDegrees>
              <LongitudeDegrees>-3.7248547375202178955078125</LongitudeDegrees>
            </Position>
            <AltitudeMeters>942.20001220703125</AltitudeMeters>
            <DistanceMeters>31935.604785972</DistanceMeters>
          </Trackpoint>
          <Trackpoint>
            <Time>2020-03-07T14:14:20.000Z</Time>
            <Position>
              <LatitudeDegrees>40.7481654547154903411865234375</LatitudeDegrees>
              <LongitudeDegrees>-3.72492874972522258758544921875</LongitudeDegrees>
            </Position>
            <AltitudeMeters>940.5999755859375</AltitudeMeters>
            <DistanceMeters>31950.341588152</DistanceMeters>
          </Trackpoint>
          <Trackpoint>
            <Time>2020-03-07T14:14:21.000Z</Time>
            <Position>
              <LatitudeDegrees>40.748286657035350799560546875</LatitudeDegrees>
              <LongitudeDegrees>-3.72499932534992694854736328125</LongitudeDegrees>
            </Position>
            <AltitudeMeters>939.5999755859375</AltitudeMeters>
            <DistanceMeters>31965.086354019</DistanceMeters>
          </Trackpoint>
          <Trackpoint>
            <Time>2020-03-07T14:14:22.000Z</Time>
            <Position>
              <LatitudeDegrees>40.74840978719294071197509765625</LatitudeDegrees>
              <LongitudeDegrees>-3.7250647880136966705322265625</LongitudeDegrees>
            </Position>
            <AltitudeMeters>938.5999755859375</AltitudeMeters>
            <DistanceMeters>31979.861098279</DistanceMeters>
          </Trackpoint>
          <Trackpoint>
            <Time>2020-03-07T14:14:23.000Z</Time>
            <Position>
              <LatitudeDegrees>40.74853434227406978607177734375</LatitudeDegrees>
              <LongitudeDegrees>-3.7251269817352294921875</LongitudeDegrees>
            </Position>
            <AltitudeMeters>937.5999755859375</AltitudeMeters>
            <DistanceMeters>31994.683133558</DistanceMeters>
          </Trackpoint>
          <Trackpoint>
            <Time>2020-03-07T14:14:24.000Z</Time>
            <Position>
              <LatitudeDegrees>40.74865956790745258331298828125</LatitudeDegrees>
              <LongitudeDegrees>-3.72518858872354030609130859375</LongitudeDegrees>
            </Position>
            <AltitudeMeters>936.5999755859375</AltitudeMeters>
            <DistanceMeters>32009.557167068</DistanceMeters>
          </Trackpoint>
          <Trackpoint>
            <Time>2020-03-07T14:14:25.000Z</Time>
            <Position>
              <LatitudeDegrees>40.74878529645502567291259765625</LatitudeDegrees>
              <LongitudeDegrees>-3.725251369178295135498046875</LongitudeDegrees>
            </Position>
            <AltitudeMeters>936</AltitudeMeters>
            <DistanceMeters>32024.518971607</DistanceMeters>
          </Trackpoint>
          <Trackpoint>
            <Time>2020-03-07T14:14:26.000Z</Time>
            <Position>
              <LatitudeDegrees>40.7489104382693767547607421875</LatitudeDegrees>
              <LongitudeDegrees>-3.72531632892787456512451171875</LongitudeDegrees>
            </Position>
            <AltitudeMeters>935.4000244140625</AltitudeMeters>
            <DistanceMeters>32039.485603702</DistanceMeters>
          </Trackpoint>
          <Trackpoint>
            <Time>2020-03-07T14:14:27.000Z</Time>
            <Position>
              <LatitudeDegrees>40.749034993350505828857421875</LatitudeDegrees>
              <LongitudeDegrees>-3.7253812886774539947509765625</LongitudeDegrees>
            </Position>
            <AltitudeMeters>934.79998779296875</AltitudeMeters>
            <DistanceMeters>32054.391173158</DistanceMeters>
          </Trackpoint>
          <Trackpoint>
            <Time>2020-03-07T14:14:28.000Z</Time>
            <Position>
              <LatitudeDegrees>40.74915912933647632598876953125</LatitudeDegrees>
              <LongitudeDegrees>-3.7254448235034942626953125</LongitudeDegrees>
            </Position>
            <AltitudeMeters>934</AltitudeMeters>
            <DistanceMeters>32069.209857276</DistanceMeters>
          </Trackpoint>
          <Trackpoint>
            <Time>2020-03-07T14:14:29.000Z</Time>
            <Position>
              <LatitudeDegrees>40.74928267858922481536865234375</LatitudeDegrees>
              <LongitudeDegrees>-3.72550760395824909210205078125</LongitudeDegrees>
            </Position>
            <AltitudeMeters>933</AltitudeMeters>
            <DistanceMeters>32083.94482107</DistanceMeters>
          </Trackpoint>
          <Trackpoint>
            <Time>2020-03-07T14:14:30.000Z</Time>
            <Position>
              <LatitudeDegrees>40.74940538965165615081787109375</LatitudeDegrees>
              <LongitudeDegrees>-3.7255687080323696136474609375</LongitudeDegrees>
            </Position>
            <AltitudeMeters>932.20001220703125</AltitudeMeters>
            <DistanceMeters>32098.542483346</DistanceMeters>
          </Trackpoint>
          <Trackpoint>
            <Time>2020-03-07T14:14:31.000Z</Time>
            <Position>
              <LatitudeDegrees>40.7495263405144214630126953125</LatitudeDegrees>
              <LongitudeDegrees>-3.725628219544887542724609375</LongitudeDegrees>
            </Position>
            <AltitudeMeters>931.4000244140625</AltitudeMeters>
            <DistanceMeters>32112.909441526</DistanceMeters>
          </Trackpoint>
          <Trackpoint>
            <Time>2020-03-07T14:14:32.000Z</Time>
            <Position>
              <LatitudeDegrees>40.749645531177520751953125</LatitudeDegrees>
              <LongitudeDegrees>-3.72568865306675434112548828125</LongitudeDegrees>
            </Position>
            <AltitudeMeters>930.5999755859375</AltitudeMeters>
            <DistanceMeters>32127.12030461</DistanceMeters>
          </Trackpoint>
          <Trackpoint>
            <Time>2020-03-07T14:14:33.000Z</Time>
            <Position>
              <LatitudeDegrees>40.749761871993541717529296875</LatitudeDegrees>
              <LongitudeDegrees>-3.72575034387409687042236328125</LongitudeDegrees>
            </Position>
            <AltitudeMeters>929.79998779296875</AltitudeMeters>
            <DistanceMeters>32141.074679137</DistanceMeters>
          </Trackpoint>
          <Trackpoint>
            <Time>2020-03-07T14:14:34.000Z</Time>
            <Position>
              <LatitudeDegrees>40.74987494386732578277587890625</LatitudeDegrees>
              <LongitudeDegrees>-3.725816309452056884765625</LongitudeDegrees>
            </Position>
            <AltitudeMeters>928.79998779296875</AltitudeMeters>
            <DistanceMeters>32154.834206118</DistanceMeters>
          </Trackpoint>
          <Trackpoint>
            <Time>2020-03-07T14:14:35.000Z</Time>
            <Position>
              <LatitudeDegrees>40.74998273514211177825927734375</LatitudeDegrees>
              <LongitudeDegrees>-3.72589065693318843841552734375</LongitudeDegrees>
            </Position>
            <AltitudeMeters>928.20001220703125</AltitudeMeters>
            <DistanceMeters>32168.370760746</DistanceMeters>
          </Trackpoint>
          <Trackpoint>
            <Time>2020-03-07T14:14:36.000Z</Time>
            <Position>
              <LatitudeDegrees>40.75008532963693141937255859375</LatitudeDegrees>
              <LongitudeDegrees>-3.7259737215936183929443359375</LongitudeDegrees>
            </Position>
            <AltitudeMeters>927.5999755859375</AltitudeMeters>
            <DistanceMeters>32181.766831407</DistanceMeters>
          </Trackpoint>
          <Trackpoint>
            <Time>2020-03-07T14:14:37.000Z</Time>
            <Position>
              <LatitudeDegrees>40.7501844875514507293701171875</LatitudeDegrees>
              <LongitudeDegrees>-3.726063072681427001953125</LongitudeDegrees>
            </Position>
            <AltitudeMeters>927.4000244140625</AltitudeMeters>
            <DistanceMeters>32195.129493253</DistanceMeters>
          </Trackpoint>
          <Trackpoint>
            <Time>2020-03-07T14:14:38.000Z</Time>
            <Position>
              <LatitudeDegrees>40.75028188526630401611328125</LatitudeDegrees>
              <LongitudeDegrees>-3.7261554412543773651123046875</LongitudeDegrees>
            </Position>
            <AltitudeMeters>927</AltitudeMeters>
            <DistanceMeters>32208.4779564</DistanceMeters>
          </Trackpoint>
          <Trackpoint>
            <Time>2020-03-07T14:14:39.000Z</Time>
            <Position>
              <LatitudeDegrees>40.75038137845695018768310546875</LatitudeDegrees>
              <LongitudeDegrees>-3.726245127618312835693359375</LongitudeDegrees>
            </Position>
            <AltitudeMeters>926.5999755859375</AltitudeMeters>
            <DistanceMeters>32221.887838663</DistanceMeters>
          </Trackpoint>
          <Trackpoint>
            <Time>2020-03-07T14:14:40.000Z</Time>
            <Position>
              <LatitudeDegrees>40.7504855655133724212646484375</LatitudeDegrees>
              <LongitudeDegrees>-3.72632701881229877471923828125</LongitudeDegrees>
            </Position>
            <AltitudeMeters>926.20001220703125</AltitudeMeters>
            <DistanceMeters>32235.384308647</DistanceMeters>
          </Trackpoint>
          <Trackpoint>
            <Time>2020-03-07T14:14:41.000Z</Time>
            <Position>
              <LatitudeDegrees>40.750596038997173309326171875</LatitudeDegrees>
              <LongitudeDegrees>-3.7263944931328296661376953125</LongitudeDegrees>
            </Position>
            <AltitudeMeters>926</AltitudeMeters>
            <DistanceMeters>32248.932865543</DistanceMeters>
          </Trackpoint>
          <Trackpoint>
            <Time>2020-03-07T14:14:42.000Z</Time>
            <Position>
              <LatitudeDegrees>40.75071313418447971343994140625</LatitudeDegrees>
              <LongitudeDegrees>-3.7264427728950977325439453125</LongitudeDegrees>
            </Position>
            <AltitudeMeters>925.79998779296875</AltitudeMeters>
            <DistanceMeters>32262.586322911</DistanceMeters>
          </Trackpoint>
          <Trackpoint>
            <Time>2020-03-07T14:14:43.000Z</Time>
            <Position>
              <LatitudeDegrees>40.75083467178046703338623046875</LatitudeDegrees>
              <LongitudeDegrees>-3.72647009789943695068359375</LongitudeDegrees>
            </Position>
            <AltitudeMeters>925.5999755859375</AltitudeMeters>
            <DistanceMeters>32276.308720081</DistanceMeters>
          </Trackpoint>
          <Trackpoint>
            <Time>2020-03-07T14:14:44.000Z</Time>
            <Position>
              <LatitudeDegrees>40.7509579695761203765869140625</LatitudeDegrees>
              <LongitudeDegrees>-3.7264766357839107513427734375</LongitudeDegrees>
            </Position>
            <AltitudeMeters>925.4000244140625</AltitudeMeters>
            <DistanceMeters>32290.043614583</DistanceMeters>
          </Trackpoint>
          <Trackpoint>
            <Time>2020-03-07T14:14:45.000Z</Time>
            <Position>
              <LatitudeDegrees>40.75108051300048828125</LatitudeDegrees>
              <LongitudeDegrees>-3.726461045444011688232421875</LongitudeDegrees>
            </Position>
            <AltitudeMeters>925.20001220703125</AltitudeMeters>
            <DistanceMeters>32303.746255916</DistanceMeters>
          </Trackpoint>
          <Trackpoint>
            <Time>2020-03-07T14:14:46.000Z</Time>
            <Position>
              <LatitudeDegrees>40.75120179913938045501708984375</LatitudeDegrees>
              <LongitudeDegrees>-3.72642441652715206146240234375</LongitudeDegrees>
            </Position>
            <AltitudeMeters>925.4000244140625</AltitudeMeters>
            <DistanceMeters>32317.594749102</DistanceMeters>
          </Trackpoint>
          <Trackpoint>
            <Time>2020-03-07T14:14:47.000Z</Time>
            <Position>
              <LatitudeDegrees>40.75131990015506744384765625</LatitudeDegrees>
              <LongitudeDegrees>-3.7263675034046173095703125</LongitudeDegrees>
            </Position>
            <AltitudeMeters>925</AltitudeMeters>
            <DistanceMeters>32331.588219282</DistanceMeters>
          </Trackpoint>
          <Trackpoint>
            <Time>2020-03-07T14:14:48.000Z</Time>
            <Position>
              <LatitudeDegrees>40.75143196620047092437744140625</LatitudeDegrees>
              <LongitudeDegrees>-3.7262912280857563018798828125</LongitudeDegrees>
            </Position>
            <AltitudeMeters>924.20001220703125</AltitudeMeters>
            <DistanceMeters>32345.62196316</DistanceMeters>
          </Trackpoint>
          <Trackpoint>
            <Time>2020-03-07T14:14:49.000Z</Time>
            <Position>
              <LatitudeDegrees>40.75153606943786144256591796875</LatitudeDegrees>
              <LongitudeDegrees>-3.7261950038373470306396484375</LongitudeDegrees>
            </Position>
            <AltitudeMeters>923.4000244140625</AltitudeMeters>
            <DistanceMeters>32359.766905853</DistanceMeters>
          </Trackpoint>
          <Trackpoint>
            <Time>2020-03-07T14:14:50.000Z</Time>
            <Position>
              <LatitudeDegrees>40.75163078494369983673095703125</LatitudeDegrees>
              <LongitudeDegrees>-3.72608042322099208831787109375</LongitudeDegrees>
            </Position>
            <AltitudeMeters>922.4000244140625</AltitudeMeters>
            <DistanceMeters>32374.066453083</DistanceMeters>
          </Trackpoint>
          <Trackpoint>
            <Time>2020-03-07T14:14:51.000Z</Time>
            <Position>
              <LatitudeDegrees>40.75171527452766895294189453125</LatitudeDegrees>
              <LongitudeDegrees>-3.7259519286453723907470703125</LongitudeDegrees>
            </Position>
            <AltitudeMeters>921.5999755859375</AltitudeMeters>
            <DistanceMeters>32388.412654752</DistanceMeters>
          </Trackpoint>
          <Trackpoint>
            <Time>2020-03-07T14:14:52.000Z</Time>
            <Position>
              <LatitudeDegrees>40.75178928673267364501953125</LatitudeDegrees>
              <LongitudeDegrees>-3.7258117832243442535400390625</LongitudeDegrees>
            </Position>
            <AltitudeMeters>921</AltitudeMeters>
            <DistanceMeters>32402.817275418</DistanceMeters>
          </Trackpoint>
          <Trackpoint>
            <Time>2020-03-07T14:14:53.000Z</Time>
            <Position>
              <LatitudeDegrees>40.7518575154244899749755859375</LatitudeDegrees>
              <LongitudeDegrees>-3.72566501609981060028076171875</LongitudeDegrees>
            </Position>
            <AltitudeMeters>920.4000244140625</AltitudeMeters>
            <DistanceMeters>32417.336785212</DistanceMeters>
          </Trackpoint>
          <Trackpoint>
            <Time>2020-03-07T14:14:54.000Z</Time>
            <Position>
              <LatitudeDegrees>40.751925744116306304931640625</LatitudeDegrees>
              <LongitudeDegrees>-3.725518248975276947021484375</LongitudeDegrees>
            </Position>
            <AltitudeMeters>919.4000244140625</AltitudeMeters>
            <DistanceMeters>32431.855673065</DistanceMeters>
          </Trackpoint>
          <Trackpoint>
            <Time>2020-03-07T14:14:55.000Z</Time>
            <Position>
              <LatitudeDegrees>40.751996822655200958251953125</LatitudeDegrees>
              <LongitudeDegrees>-3.725373744964599609375</LongitudeDegrees>
            </Position>
            <AltitudeMeters>918.4000244140625</AltitudeMeters>
            <DistanceMeters>32446.382644067</DistanceMeters>
          </Trackpoint>
          <Trackpoint>
            <Time>2020-03-07T14:14:56.000Z</Time>
            <Position>
              <LatitudeDegrees>40.7520690746605396270751953125</LatitudeDegrees>
              <LongitudeDegrees>-3.725230582058429718017578125</LongitudeDegrees>
            </Position>
            <AltitudeMeters>917.79998779296875</AltitudeMeters>
            <DistanceMeters>32460.886597351</DistanceMeters>
          </Trackpoint>
          <Trackpoint>
            <Time>2020-03-07T14:14:57.000Z</Time>
            <Position>
              <LatitudeDegrees>40.75214392505586147308349609375</LatitudeDegrees>
              <LongitudeDegrees>-3.72508917935192584991455078125</LongitudeDegrees>
            </Position>
            <AltitudeMeters>917.4000244140625</AltitudeMeters>
            <DistanceMeters>32475.431583804</DistanceMeters>
          </Trackpoint>
          <Trackpoint>
            <Time>2020-03-07T14:14:58.000Z</Time>
            <Position>
              <LatitudeDegrees>40.75222514569759368896484375</LatitudeDegrees>
              <LongitudeDegrees>-3.7249544821679592132568359375</LongitudeDegrees>
            </Position>
            <AltitudeMeters>916.79998779296875</AltitudeMeters>
            <DistanceMeters>32489.947361556</DistanceMeters>
          </Trackpoint>
          <Trackpoint>
            <Time>2020-03-07T14:14:59.000Z</Time>
            <Position>
              <LatitudeDegrees>40.7523158378899097442626953125</LatitudeDegrees>
              <LongitudeDegrees>-3.7248307652771472930908203125</LongitudeDegrees>
            </Position>
            <AltitudeMeters>916</AltitudeMeters>
            <DistanceMeters>32504.463139308</DistanceMeters>
          </Trackpoint>
          <Trackpoint>
            <Time>2020-03-07T14:15:00.000Z</Time>
            <Position>
              <LatitudeDegrees>40.75241616927087306976318359375</LatitudeDegrees>
              <LongitudeDegrees>-3.72472289018332958221435546875</LongitudeDegrees>
            </Position>
            <AltitudeMeters>915.4000244140625</AltitudeMeters>
            <DistanceMeters>32518.865879188</DistanceMeters>
          </Trackpoint>
          <Trackpoint>
            <Time>2020-03-07T14:15:01.000Z</Time>
            <Position>
              <LatitudeDegrees>40.7525248825550079345703125</LatitudeDegrees>
              <LongitudeDegrees>-3.72463135980069637298583984375</LongitudeDegrees>
            </Position>
            <AltitudeMeters>914.79998779296875</AltitudeMeters>
            <DistanceMeters>32533.217115495</DistanceMeters>
          </Trackpoint>
          <Trackpoint>
            <Time>2020-03-07T14:15:02.000Z</Time>
            <Position>
              <LatitudeDegrees>40.75263745151460170745849609375</LatitudeDegrees>
              <LongitudeDegrees>-3.72455139644443988800048828125</LongitudeDegrees>
            </Position>
            <AltitudeMeters>914</AltitudeMeters>
            <DistanceMeters>32547.445124974</DistanceMeters>
          </Trackpoint>
          <Trackpoint>
            <Time>2020-03-07T14:15:03.000Z</Time>
            <Position>
              <LatitudeDegrees>40.7527506910264492034912109375</LatitudeDegrees>
              <LongitudeDegrees>-3.72447662986814975738525390625</LongitudeDegrees>
            </Position>
            <AltitudeMeters>913.20001220703125</AltitudeMeters>
            <DistanceMeters>32561.537301568</DistanceMeters>
          </Trackpoint>
          <Trackpoint>
            <Time>2020-03-07T14:15:04.000Z</Time>
            <Position>
              <LatitudeDegrees>40.75286359526216983795166015625</LatitudeDegrees>
              <LongitudeDegrees>-3.72440437786281108856201171875</LongitudeDegrees>
            </Position>
            <AltitudeMeters>912.4000244140625</AltitudeMeters>
            <DistanceMeters>32575.502672706</DistanceMeters>
          </Trackpoint>
          <Trackpoint>
            <Time>2020-03-07T14:15:05.000Z</Time>
            <Position>
              <LatitudeDegrees>40.75297406874597072601318359375</LatitudeDegrees>
              <LongitudeDegrees>-3.7243295274674892425537109375</LongitudeDegrees>
            </Position>
            <AltitudeMeters>911.5999755859375</AltitudeMeters>
            <DistanceMeters>32589.323425472</DistanceMeters>
          </Trackpoint>
          <Trackpoint>
            <Time>2020-03-07T14:15:06.000Z</Time>
            <Position>
              <LatitudeDegrees>40.75307984836399555206298828125</LatitudeDegrees>
              <LongitudeDegrees>-3.72424629516899585723876953125</LongitudeDegrees>
            </Position>
            <AltitudeMeters>911</AltitudeMeters>
            <DistanceMeters>32603.02969084</DistanceMeters>
          </Trackpoint>
          <Trackpoint>
            <Time>2020-03-07T14:15:07.000Z</Time>
            <Position>
              <LatitudeDegrees>40.753179006278514862060546875</LatitudeDegrees>
              <LongitudeDegrees>-3.72415191493928432464599609375</LongitudeDegrees>
            </Position>
            <AltitudeMeters>910.4000244140625</AltitudeMeters>
            <DistanceMeters>32616.63577761</DistanceMeters>
          </Trackpoint>
          <Trackpoint>
            <Time>2020-03-07T14:15:08.000Z</Time>
            <Position>
              <LatitudeDegrees>40.75327162630856037139892578125</LatitudeDegrees>
              <LongitudeDegrees>-3.724048398435115814208984375</LongitudeDegrees>
            </Position>
            <AltitudeMeters>909.5999755859375</AltitudeMeters>
            <DistanceMeters>32630.142948464</DistanceMeters>
          </Trackpoint>
          <Trackpoint>
            <Time>2020-03-07T14:15:09.000Z</Time>
            <Position>
              <LatitudeDegrees>40.7533598877489566802978515625</LatitudeDegrees>
              <LongitudeDegrees>-3.72394002042710781097412109375</LongitudeDegrees>
            </Position>
            <AltitudeMeters>909</AltitudeMeters>
            <DistanceMeters>32643.559562934</DistanceMeters>
          </Trackpoint>
          <Trackpoint>
            <Time>2020-03-07T14:15:10.000Z</Time>
            <Position>
              <LatitudeDegrees>40.7534453831613063812255859375</LatitudeDegrees>
              <LongitudeDegrees>-3.72383105568587779998779296875</LongitudeDegrees>
            </Position>
            <AltitudeMeters>908</AltitudeMeters>
            <DistanceMeters>32656.786380428</DistanceMeters>
          </Trackpoint>
          <Trackpoint>
            <Time>2020-03-07T14:15:11.000Z</Time>
            <Position>
              <LatitudeDegrees>40.75352928601205348968505859375</LatitudeDegrees>
              <LongitudeDegrees>-3.7237213365733623504638671875</LongitudeDegrees>
            </Position>
            <AltitudeMeters>907.4000244140625</AltitudeMeters>
            <DistanceMeters>32669.931017459</DistanceMeters>
          </Trackpoint>
          <Trackpoint>
            <Time>2020-03-07T14:15:12.000Z</Time>
            <Position>
              <LatitudeDegrees>40.7536116801202297210693359375</LatitudeDegrees>
              <LongitudeDegrees>-3.72361178509891033172607421875</LongitudeDegrees>
            </Position>
            <AltitudeMeters>906.79998779296875</AltitudeMeters>
            <DistanceMeters>32682.947249411</DistanceMeters>
          </Trackpoint>
          <Trackpoint>
            <Time>2020-03-07T14:15:13.000Z</Time>
            <Position>
              <LatitudeDegrees>40.753692649304866790771484375</LatitudeDegrees>
              <LongitudeDegrees>-3.7235017307102680206298828125</LongitudeDegrees>
            </Position>
            <AltitudeMeters>906.4000244140625</AltitudeMeters>
            <DistanceMeters>32695.882406404</DistanceMeters>
          </Trackpoint>
          <Trackpoint>
            <Time>2020-03-07T14:15:14.000Z</Time>
            <Position>
              <LatitudeDegrees>40.75377185828983783721923828125</LatitudeDegrees>
              <LongitudeDegrees>-3.72339134104549884796142578125</LongitudeDegrees>
            </Position>
            <AltitudeMeters>906.20001220703125</AltitudeMeters>
            <DistanceMeters>32708.702211055</DistanceMeters>
          </Trackpoint>
          <Trackpoint>
            <Time>2020-03-07T14:15:15.000Z</Time>
            <Position>
              <LatitudeDegrees>40.75384779833257198333740234375</LatitudeDegrees>
              <LongitudeDegrees>-3.72327768243849277496337890625</LongitudeDegrees>
            </Position>
            <AltitudeMeters>905.5999755859375</AltitudeMeters>
            <DistanceMeters>32721.480389417</DistanceMeters>
          </Trackpoint>
          <Trackpoint>
            <Time>2020-03-07T14:15:16.000Z</Time>
            <Position>
              <LatitudeDegrees>40.75391820631921291351318359375</LatitudeDegrees>
              <LongitudeDegrees>-3.72315748594701290130615234375</LongitudeDegrees>
            </Position>
            <AltitudeMeters>905.20001220703125</AltitudeMeters>
            <DistanceMeters>32734.290681343</DistanceMeters>
          </Trackpoint>
          <Trackpoint>
            <Time>2020-03-07T14:15:17.000Z</Time>
            <Position>
              <LatitudeDegrees>40.75398090295493602752685546875</LatitudeDegrees>
              <LongitudeDegrees>-3.72302890755236148834228515625</LongitudeDegrees>
            </Position>
            <AltitudeMeters>904.4000244140625</AltitudeMeters>
            <DistanceMeters>32747.183533904</DistanceMeters>
          </Trackpoint>
          <Trackpoint>
            <Time>2020-03-07T14:15:18.000Z</Time>
            <Position>
              <LatitudeDegrees>40.75403404422104358673095703125</LatitudeDegrees>
              <LongitudeDegrees>-3.7228915281593799591064453125</LongitudeDegrees>
            </Position>
            <AltitudeMeters>904.20001220703125</AltitudeMeters>
            <DistanceMeters>32760.189355368</DistanceMeters>
          </Trackpoint>
          <Trackpoint>
            <Time>2020-03-07T14:15:19.000Z</Time>
            <Position>
              <LatitudeDegrees>40.75408047996461391448974609375</LatitudeDegrees>
              <LongitudeDegrees>-3.72274719178676605224609375</LongitudeDegrees>
            </Position>
            <AltitudeMeters>904</AltitudeMeters>
            <DistanceMeters>32773.410710057</DistanceMeters>
          </Trackpoint>
          <Trackpoint>
            <Time>2020-03-07T14:15:20.000Z</Time>
            <Position>
              <LatitudeDegrees>40.7541216351091861724853515625</LatitudeDegrees>
              <LongitudeDegrees>-3.72259807772934436798095703125</LongitudeDegrees>
            </Position>
            <AltitudeMeters>904</AltitudeMeters>
            <DistanceMeters>32786.791605234</DistanceMeters>
          </Trackpoint>
          <Trackpoint>
            <Time>2020-03-07T14:15:21.000Z</Time>
            <Position>
              <LatitudeDegrees>40.75416077859699726104736328125</LatitudeDegrees>
              <LongitudeDegrees>-3.722445107996463775634765625</LongitudeDegrees>
            </Position>
            <AltitudeMeters>903.5999755859375</AltitudeMeters>
            <DistanceMeters>32800.405322174</DistanceMeters>
          </Trackpoint>
          <Trackpoint>
            <Time>2020-03-07T14:15:22.000Z</Time>
            <Position>
              <LatitudeDegrees>40.75420151464641094207763671875</LatitudeDegrees>
              <LongitudeDegrees>-3.7222903780639171600341796875</LongitudeDegrees>
            </Position>
            <AltitudeMeters>903.4000244140625</AltitudeMeters>
            <DistanceMeters>32814.21692472</DistanceMeters>
          </Trackpoint>
          <Trackpoint>
            <Time>2020-03-07T14:15:23.000Z</Time>
            <Position>
              <LatitudeDegrees>40.7542436756193637847900390625</LatitudeDegrees>
              <LongitudeDegrees>-3.7221349775791168212890625</LongitudeDegrees>
            </Position>
            <AltitudeMeters>903.20001220703125</AltitudeMeters>
            <DistanceMeters>32828.134040428</DistanceMeters>
          </Trackpoint>
          <Trackpoint>
            <Time>2020-03-07T14:15:24.000Z</Time>
            <Position>
              <LatitudeDegrees>40.7542875967919826507568359375</LatitudeDegrees>
              <LongitudeDegrees>-3.72198049910366535186767578125</LongitudeDegrees>
            </Position>
            <AltitudeMeters>903</AltitudeMeters>
            <DistanceMeters>32842.045639846</DistanceMeters>
          </Trackpoint>
          <Trackpoint>
            <Time>2020-03-07T14:15:25.000Z</Time>
            <Position>
              <LatitudeDegrees>40.7543348707258701324462890625</LatitudeDegrees>
              <LongitudeDegrees>-3.72182828374207019805908203125</LongitudeDegrees>
            </Position>
            <AltitudeMeters>903</AltitudeMeters>
            <DistanceMeters>32855.916285422</DistanceMeters>
          </Trackpoint>
          <Trackpoint>
            <Time>2020-03-07T14:15:26.000Z</Time>
            <Position>
              <LatitudeDegrees>40.7543925382196903228759765625</LatitudeDegrees>
              <LongitudeDegrees>-3.7216843664646148681640625</LongitudeDegrees>
            </Position>
            <AltitudeMeters>902.4000244140625</AltitudeMeters>
            <DistanceMeters>32869.643288196</DistanceMeters>
          </Trackpoint>
          <Trackpoint>
            <Time>2020-03-07T14:15:27.000Z</Time>
            <Position>
              <LatitudeDegrees>40.75446437112987041473388671875</LatitudeDegrees>
              <LongitudeDegrees>-3.721554279327392578125</LongitudeDegrees>
            </Position>
            <AltitudeMeters>902</AltitudeMeters>
            <DistanceMeters>32883.216150442</DistanceMeters>
          </Trackpoint>
          <Trackpoint>
            <Time>2020-03-07T14:15:28.000Z</Time>
            <Position>
              <LatitudeDegrees>40.75454735197126865386962890625</LatitudeDegrees>
              <LongitudeDegrees>-3.72144120745360851287841796875</LongitudeDegrees>
            </Position>
            <AltitudeMeters>901.20001220703125</AltitudeMeters>
            <DistanceMeters>32896.489991317</DistanceMeters>
          </Trackpoint>
          <Trackpoint>
            <Time>2020-03-07T14:15:29.000Z</Time>
            <Position>
              <LatitudeDegrees>40.75463712215423583984375</LatitudeDegrees>
              <LongitudeDegrees>-3.72134397737681865692138671875</LongitudeDegrees>
            </Position>
            <AltitudeMeters>900.4000244140625</AltitudeMeters>
            <DistanceMeters>32909.414323178</DistanceMeters>
          </Trackpoint>
          <Trackpoint>
            <Time>2020-03-07T14:15:30.000Z</Time>
            <Position>
              <LatitudeDegrees>40.75473007746040821075439453125</LatitudeDegrees>
              <LongitudeDegrees>-3.7212570570409297943115234375</LongitudeDegrees>
            </Position>
            <AltitudeMeters>899.79998779296875</AltitudeMeters>
            <DistanceMeters>32922.093180416</DistanceMeters>
          </Trackpoint>
          <Trackpoint>
            <Time>2020-03-07T14:15:31.000Z</Time>
            <Position>
              <LatitudeDegrees>40.754822529852390289306640625</LatitudeDegrees>
              <LongitudeDegrees>-3.72117583639919757843017578125</LongitudeDegrees>
            </Position>
            <AltitudeMeters>899.20001220703125</AltitudeMeters>
            <DistanceMeters>32934.453595593</DistanceMeters>
          </Trackpoint>
          <Trackpoint>
            <Time>2020-03-07T14:15:32.000Z</Time>
            <Position>
              <LatitudeDegrees>40.75491137802600860595703125</LatitudeDegrees>
              <LongitudeDegrees>-3.72109453193843364715576171875</LongitudeDegrees>
            </Position>
            <AltitudeMeters>898.4000244140625</AltitudeMeters>
            <DistanceMeters>32946.486394341</DistanceMeters>
          </Trackpoint>
          <Trackpoint>
            <Time>2020-03-07T14:15:33.000Z</Time>
            <Position>
              <LatitudeDegrees>40.7549950294196605682373046875</LatitudeDegrees>
              <LongitudeDegrees>-3.72100736014544963836669921875</LongitudeDegrees>
            </Position>
            <AltitudeMeters>897.79998779296875</AltitudeMeters>
            <DistanceMeters>32958.348377781</DistanceMeters>
          </Trackpoint>
          <Trackpoint>
            <Time>2020-03-07T14:15:34.000Z</Time>
            <Position>
              <LatitudeDegrees>40.755068622529506683349609375</LatitudeDegrees>
              <LongitudeDegrees>-3.720910213887691497802734375</LongitudeDegrees>
            </Position>
            <AltitudeMeters>897.5999755859375</AltitudeMeters>
            <DistanceMeters>32969.932286274</DistanceMeters>
          </Trackpoint>
          <Trackpoint>
            <Time>2020-03-07T14:15:35.000Z</Time>
            <Position>
              <LatitudeDegrees>40.755127631127834320068359375</LatitudeDegrees>
              <LongitudeDegrees>-3.72079990804195404052734375</LongitudeDegrees>
            </Position>
            <AltitudeMeters>897.4000244140625</AltitudeMeters>
            <DistanceMeters>32981.318057105</DistanceMeters>
          </Trackpoint>
          <Trackpoint>
            <Time>2020-03-07T14:15:36.000Z</Time>
            <Position>
              <LatitudeDegrees>40.755175240337848663330078125</LatitudeDegrees>
              <LongitudeDegrees>-3.72068230994045734405517578125</LongitudeDegrees>
            </Position>
            <AltitudeMeters>897.20001220703125</AltitudeMeters>
            <DistanceMeters>32992.560163221</DistanceMeters>
          </Trackpoint>
          <Trackpoint>
            <Time>2020-03-07T14:15:37.000Z</Time>
            <Position>
              <LatitudeDegrees>40.7552169822156429290771484375</LatitudeDegrees>
              <LongitudeDegrees>-3.72056295163929462432861328125</LongitudeDegrees>
            </Position>
            <AltitudeMeters>897.20001220703125</AltitudeMeters>
            <DistanceMeters>33003.644531498</DistanceMeters>
          </Trackpoint>
          <Trackpoint>
            <Time>2020-03-07T14:15:38.000Z</Time>
            <Position>
              <LatitudeDegrees>40.75525444932281970977783203125</LatitudeDegrees>
              <LongitudeDegrees>-3.7204433418810367584228515625</LongitudeDegrees>
            </Position>
            <AltitudeMeters>897.20001220703125</AltitudeMeters>
            <DistanceMeters>33014.557306037</DistanceMeters>
          </Trackpoint>
          <Trackpoint>
            <Time>2020-03-07T14:15:39.000Z</Time>
            <Position>
              <LatitudeDegrees>40.75529032386839389801025390625</LatitudeDegrees>
              <LongitudeDegrees>-3.7203253246843814849853515625</LongitudeDegrees>
            </Position>
            <AltitudeMeters>897.20001220703125</AltitudeMeters>
            <DistanceMeters>33025.278913805</DistanceMeters>
          </Trackpoint>
          <Trackpoint>
            <Time>2020-03-07T14:15:40.000Z</Time>
            <Position>
              <LatitudeDegrees>40.75532577931880950927734375</LatitudeDegrees>
              <LongitudeDegrees>-3.72020957060158252716064453125</LongitudeDegrees>
            </Position>
            <AltitudeMeters>897.20001220703125</AltitudeMeters>
            <DistanceMeters>33035.80588384</DistanceMeters>
          </Trackpoint>
          <Trackpoint>
            <Time>2020-03-07T14:15:41.000Z</Time>
            <Position>
              <LatitudeDegrees>40.75536190532147884368896484375</LatitudeDegrees>
              <LongitudeDegrees>-3.72009490616619586944580078125</LongitudeDegrees>
            </Position>
            <AltitudeMeters>897.20001220703125</AltitudeMeters>
            <DistanceMeters>33046.27608575</DistanceMeters>
          </Trackpoint>
          <Trackpoint>
            <Time>2020-03-07T14:15:42.000Z</Time>
            <Position>
              <LatitudeDegrees>40.75539811514317989349365234375</LatitudeDegrees>
              <LongitudeDegrees>-3.71998107992112636566162109375</LongitudeDegrees>
            </Position>
            <AltitudeMeters>897.20001220703125</AltitudeMeters>
            <DistanceMeters>33056.68530701</DistanceMeters>
          </Trackpoint>
          <Trackpoint>
            <Time>2020-03-07T14:15:43.000Z</Time>
            <Position>
              <LatitudeDegrees>40.755433402955532073974609375</LatitudeDegrees>
              <LongitudeDegrees>-3.7198676727712154388427734375</LongitudeDegrees>
            </Position>
            <AltitudeMeters>897.4000244140625</AltitudeMeters>
            <DistanceMeters>33067.022274388</DistanceMeters>
          </Trackpoint>
          <Trackpoint>
            <Time>2020-03-07T14:15:44.000Z</Time>
            <Position>
              <LatitudeDegrees>40.7554686069488525390625</LatitudeDegrees>
              <LongitudeDegrees>-3.7197560258209705352783203125</LongitudeDegrees>
            </Position>
            <AltitudeMeters>897.5999755859375</AltitudeMeters>
            <DistanceMeters>33077.218512424</DistanceMeters>
          </Trackpoint>
          <Trackpoint>
            <Time>2020-03-07T14:15:45.000Z</Time>
            <Position>
              <LatitudeDegrees>40.75550707988440990447998046875</LatitudeDegrees>
              <LongitudeDegrees>-3.7196484021842479705810546875</LongitudeDegrees>
            </Position>
            <AltitudeMeters>897.79998779296875</AltitudeMeters>
            <DistanceMeters>33087.251821559</DistanceMeters>
          </Trackpoint>
          <Trackpoint>
            <Time>2020-03-07T14:15:46.000Z</Time>
            <Position>
              <LatitudeDegrees>40.755552761256694793701171875</LatitudeDegrees>
              <LongitudeDegrees>-3.71954639442265033721923828125</LongitudeDegrees>
            </Position>
            <AltitudeMeters>898</AltitudeMeters>
            <DistanceMeters>33097.242288762</DistanceMeters>
          </Trackpoint>
          <Trackpoint>
            <Time>2020-03-07T14:15:47.000Z</Time>
            <Position>
              <LatitudeDegrees>40.7556102611124515533447265625</LatitudeDegrees>
              <LongitudeDegrees>-3.71945478022098541259765625</LongitudeDegrees>
            </Position>
            <AltitudeMeters>898</AltitudeMeters>
            <DistanceMeters>33107.272897504</DistanceMeters>
          </Trackpoint>
          <Trackpoint>
            <Time>2020-03-07T14:15:48.000Z</Time>
            <Position>
              <LatitudeDegrees>40.75567790307104587554931640625</LatitudeDegrees>
              <LongitudeDegrees>-3.71937523595988750457763671875</LongitudeDegrees>
            </Position>
            <AltitudeMeters>898</AltitudeMeters>
            <DistanceMeters>33117.355585668</DistanceMeters>
          </Trackpoint>
          <Trackpoint>
            <Time>2020-03-07T14:15:49.000Z</Time>
            <Position>
              <LatitudeDegrees>40.7557554356753826141357421875</LatitudeDegrees>
              <LongitudeDegrees>-3.719308935105800628662109375</LongitudeDegrees>
            </Position>
            <AltitudeMeters>898.20001220703125</AltitudeMeters>
            <DistanceMeters>33127.637370772</DistanceMeters>
          </Trackpoint>
          <Trackpoint>
            <Time>2020-03-07T14:15:50.000Z</Time>
            <Position>
              <LatitudeDegrees>40.75583900325000286102294921875</LatitudeDegrees>
              <LongitudeDegrees>-3.719255626201629638671875</LongitudeDegrees>
            </Position>
            <AltitudeMeters>898.20001220703125</AltitudeMeters>
            <DistanceMeters>33137.967784288</DistanceMeters>
          </Trackpoint>
          <Trackpoint>
            <Time>2020-03-07T14:15:51.000Z</Time>
            <Position>
              <LatitudeDegrees>40.7559259235858917236328125</LatitudeDegrees>
              <LongitudeDegrees>-3.71920709498226642608642578125</LongitudeDegrees>
            </Position>
            <AltitudeMeters>898.20001220703125</AltitudeMeters>
            <DistanceMeters>33148.471568082</DistanceMeters>
          </Trackpoint>
          <Trackpoint>
            <Time>2020-03-07T14:15:52.000Z</Time>
            <Position>
              <LatitudeDegrees>40.75601418502628803253173828125</LatitudeDegrees>
              <LongitudeDegrees>-3.7191585637629032135009765625</LongitudeDegrees>
            </Position>
            <AltitudeMeters>898.20001220703125</AltitudeMeters>
            <DistanceMeters>33159.113711605</DistanceMeters>
          </Trackpoint>
          <Trackpoint>
            <Time>2020-03-07T14:15:53.000Z</Time>
            <Position>
              <LatitudeDegrees>40.7561031170189380645751953125</LatitudeDegrees>
              <LongitudeDegrees>-3.71910701505839824676513671875</LongitudeDegrees>
            </Position>
            <AltitudeMeters>898.20001220703125</AltitudeMeters>
            <DistanceMeters>33169.924227288</DistanceMeters>
          </Trackpoint>
          <Trackpoint>
            <Time>2020-03-07T14:15:54.000Z</Time>
            <Position>
              <LatitudeDegrees>40.75619372539222240447998046875</LatitudeDegrees>
              <LongitudeDegrees>-3.7190529517829418182373046875</LongitudeDegrees>
            </Position>
            <AltitudeMeters>898.20001220703125</AltitudeMeters>
            <DistanceMeters>33180.99106635</DistanceMeters>
          </Trackpoint>
          <Trackpoint>
            <Time>2020-03-07T14:15:55.000Z</Time>
            <Position>
              <LatitudeDegrees>40.75628575868904590606689453125</LatitudeDegrees>
              <LongitudeDegrees>-3.71899905614554882049560546875</LongitudeDegrees>
            </Position>
            <AltitudeMeters>898</AltitudeMeters>
            <DistanceMeters>33192.197774305</DistanceMeters>
          </Trackpoint>
          <Trackpoint>
            <Time>2020-03-07T14:15:56.000Z</Time>
            <Position>
              <LatitudeDegrees>40.75637896545231342315673828125</LatitudeDegrees>
              <LongitudeDegrees>-3.718944489955902099609375</LongitudeDegrees>
            </Position>
            <AltitudeMeters>898</AltitudeMeters>
            <DistanceMeters>33203.546208128</DistanceMeters>
          </Trackpoint>
          <Trackpoint>
            <Time>2020-03-07T14:15:57.000Z</Time>
            <Position>
              <LatitudeDegrees>40.7564729265868663787841796875</LatitudeDegrees>
              <LongitudeDegrees>-3.71888908557593822479248046875</LongitudeDegrees>
            </Position>
            <AltitudeMeters>897.5999755859375</AltitudeMeters>
            <DistanceMeters>33214.99998264</DistanceMeters>
          </Trackpoint>
          <Trackpoint>
            <Time>2020-03-07T14:15:58.000Z</Time>
            <Position>
              <LatitudeDegrees>40.75656705535948276519775390625</LatitudeDegrees>
              <LongitudeDegrees>-3.7188323400914669036865234375</LongitudeDegrees>
            </Position>
            <AltitudeMeters>897.4000244140625</AltitudeMeters>
            <DistanceMeters>33226.517439953</DistanceMeters>
          </Trackpoint>
          <Trackpoint>
            <Time>2020-03-07T14:15:59.000Z</Time>
            <Position>
              <LatitudeDegrees>40.75665950775146484375</LatitudeDegrees>
              <LongitudeDegrees>-3.71877257712185382843017578125</LongitudeDegrees>
            </Position>
            <AltitudeMeters>897</AltitudeMeters>
            <DistanceMeters>33237.974761685</DistanceMeters>
          </Trackpoint>
          <Trackpoint>
            <Time>2020-03-07T14:16:00.000Z</Time>
            <Position>
              <LatitudeDegrees>40.75674961321055889129638671875</LatitudeDegrees>
              <LongitudeDegrees>-3.71870912611484527587890625</LongitudeDegrees>
            </Position>
            <AltitudeMeters>896.79998779296875</AltitudeMeters>
            <DistanceMeters>33249.341482134</DistanceMeters>
          </Trackpoint>
          <Trackpoint>
            <Time>2020-03-07T14:16:01.000Z</Time>
            <Position>
              <LatitudeDegrees>40.75683611445128917694091796875</LatitudeDegrees>
              <LongitudeDegrees>-3.7186392210423946380615234375</LongitudeDegrees>
            </Position>
            <AltitudeMeters>896.4000244140625</AltitudeMeters>
            <DistanceMeters>33260.630079867</DistanceMeters>
          </Trackpoint>
          <Trackpoint>
            <Time>2020-03-07T14:16:02.000Z</Time>
            <Position>
              <LatitudeDegrees>40.75691725127398967742919921875</LatitudeDegrees>
              <LongitudeDegrees>-3.7185607664287090301513671875</LongitudeDegrees>
            </Position>
            <AltitudeMeters>896</AltitudeMeters>
            <DistanceMeters>33271.82388801</DistanceMeters>
          </Trackpoint>
          <Trackpoint>
            <Time>2020-03-07T14:16:03.000Z</Time>
            <Position>
              <LatitudeDegrees>40.7569934427738189697265625</LatitudeDegrees>
              <LongitudeDegrees>-3.71847686357796192169189453125</LongitudeDegrees>
            </Position>
            <AltitudeMeters>895.5999755859375</AltitudeMeters>
            <DistanceMeters>33282.867447782</DistanceMeters>
          </Trackpoint>
          <Trackpoint>
            <Time>2020-03-07T14:16:04.000Z</Time>
            <Position>
              <LatitudeDegrees>40.75706628151237964630126953125</LatitudeDegrees>
              <LongitudeDegrees>-3.71839036233723163604736328125</LongitudeDegrees>
            </Position>
            <AltitudeMeters>895.4000244140625</AltitudeMeters>
            <DistanceMeters>33293.771944406</DistanceMeters>
          </Trackpoint>
          <Trackpoint>
            <Time>2020-03-07T14:16:05.000Z</Time>
            <Position>
              <LatitudeDegrees>40.75713668949902057647705078125</LatitudeDegrees>
              <LongitudeDegrees>-3.71830352582037448883056640625</LongitudeDegrees>
            </Position>
            <AltitudeMeters>894.79998779296875</AltitudeMeters>
            <DistanceMeters>33304.496078571</DistanceMeters>
          </Trackpoint>
          <Trackpoint>
            <Time>2020-03-07T14:16:06.000Z</Time>
            <Position>
              <LatitudeDegrees>40.75720391236245632171630859375</LatitudeDegrees>
              <LongitudeDegrees>-3.7182157672941684722900390625</LongitudeDegrees>
            </Position>
            <AltitudeMeters>893.4000244140625</AltitudeMeters>
            <DistanceMeters>33315.018758712</DistanceMeters>
          </Trackpoint>
          <Trackpoint>
            <Time>2020-03-07T14:16:07.000Z</Time>
            <Position>
              <LatitudeDegrees>40.757268369197845458984375</LatitudeDegrees>
              <LongitudeDegrees>-3.7181262485682964324951171875</LongitudeDegrees>
            </Position>
            <AltitudeMeters>892.4000244140625</AltitudeMeters>
            <DistanceMeters>33325.431883024</DistanceMeters>
          </Trackpoint>
          <Trackpoint>
            <Time>2020-03-07T14:16:08.000Z</Time>
            <Position>
              <LatitudeDegrees>40.7573312334716320037841796875</LatitudeDegrees>
              <LongitudeDegrees>-3.71803647838532924652099609375</LongitudeDegrees>
            </Position>
            <AltitudeMeters>891.79998779296875</AltitudeMeters>
            <DistanceMeters>33335.739106189</DistanceMeters>
          </Trackpoint>
          <Trackpoint>
            <Time>2020-03-07T14:16:09.000Z</Time>
            <Position>
              <LatitudeDegrees>40.7573929242789745330810546875</LatitudeDegrees>
              <LongitudeDegrees>-3.7179472111165523529052734375</LongitudeDegrees>
            </Position>
            <AltitudeMeters>891.20001220703125</AltitudeMeters>
            <DistanceMeters>33345.926484093</DistanceMeters>
          </Trackpoint>
          <Trackpoint>
            <Time>2020-03-07T14:16:10.000Z</Time>
            <Position>
              <LatitudeDegrees>40.757453776895999908447265625</LatitudeDegrees>
              <LongitudeDegrees>-3.71785744093358516693115234375</LongitudeDegrees>
            </Position>
            <AltitudeMeters>890.79998779296875</AltitudeMeters>
            <DistanceMeters>33356.083235213</DistanceMeters>
          </Trackpoint>
          <Trackpoint>
            <Time>2020-03-07T14:16:11.000Z</Time>
            <Position>
              <LatitudeDegrees>40.7575149647891521453857421875</LatitudeDegrees>
              <LongitudeDegrees>-3.7177685089409351348876953125</LongitudeDegrees>
            </Position>
            <AltitudeMeters>890.4000244140625</AltitudeMeters>
            <DistanceMeters>33366.212387623</DistanceMeters>
          </Trackpoint>
          <Trackpoint>
            <Time>2020-03-07T14:16:12.000Z</Time>
            <Position>
              <LatitudeDegrees>40.75757573358714580535888671875</LatitudeDegrees>
              <LongitudeDegrees>-3.7176786549389362335205078125</LongitudeDegrees>
            </Position>
            <AltitudeMeters>890.20001220703125</AltitudeMeters>
            <DistanceMeters>33376.367360444</DistanceMeters>
          </Trackpoint>
          <Trackpoint>
            <Time>2020-03-07T14:16:13.000Z</Time>
            <Position>
              <LatitudeDegrees>40.7576358318328857421875</LatitudeDegrees>
              <LongitudeDegrees>-3.71758704073727130889892578125</LongitudeDegrees>
            </Position>
            <AltitudeMeters>890.20001220703125</AltitudeMeters>
            <DistanceMeters>33386.585273335</DistanceMeters>
          </Trackpoint>
          <Trackpoint>
            <Time>2020-03-07T14:16:14.000Z</Time>
            <Position>
              <LatitudeDegrees>40.75769660063087940216064453125</LatitudeDegrees>
              <LongitudeDegrees>-3.717497102916240692138671875</LongitudeDegrees>
            </Position>
            <AltitudeMeters>889.79998779296875</AltitudeMeters>
            <DistanceMeters>33396.746024487</DistanceMeters>
          </Trackpoint>
          <Trackpoint>
            <Time>2020-03-07T14:16:15.000Z</Time>
            <Position>
              <LatitudeDegrees>40.75775678269565105438232421875</LatitudeDegrees>
              <LongitudeDegrees>-3.71740850619971752166748046875</LongitudeDegrees>
            </Position>
            <AltitudeMeters>889.5999755859375</AltitudeMeters>
            <DistanceMeters>33406.778433572</DistanceMeters>
          </Trackpoint>
          <Trackpoint>
            <Time>2020-03-07T14:16:16.000Z</Time>
            <Position>
              <LatitudeDegrees>40.75781755149364471435546875</LatitudeDegrees>
              <LongitudeDegrees>-3.71732066385447978973388671875</LongitudeDegrees>
            </Position>
            <AltitudeMeters>889.4000244140625</AltitudeMeters>
            <DistanceMeters>33416.808142022</DistanceMeters>
          </Trackpoint>
          <Trackpoint>
            <Time>2020-03-07T14:16:17.000Z</Time>
            <Position>
              <LatitudeDegrees>40.75787865556776523590087890625</LatitudeDegrees>
              <LongitudeDegrees>-3.7172337435185909271240234375</LongitudeDegrees>
            </Position>
            <AltitudeMeters>889.4000244140625</AltitudeMeters>
            <DistanceMeters>33426.806289162</DistanceMeters>
          </Trackpoint>
          <Trackpoint>
            <Time>2020-03-07T14:16:18.000Z</Time>
            <Position>
              <LatitudeDegrees>40.75794017873704433441162109375</LatitudeDegrees>
              <LongitudeDegrees>-3.71714732609689235687255859375</LongitudeDegrees>
            </Position>
            <AltitudeMeters>889.20001220703125</AltitudeMeters>
            <DistanceMeters>33436.804436302</DistanceMeters>
          </Trackpoint>
          <Trackpoint>
            <Time>2020-03-07T14:16:19.000Z</Time>
            <Position>
              <LatitudeDegrees>40.75800119899213314056396484375</LatitudeDegrees>
              <LongitudeDegrees>-3.7170607410371303558349609375</LongitudeDegrees>
            </Position>
            <AltitudeMeters>889</AltitudeMeters>
            <DistanceMeters>33446.775451378</DistanceMeters>
          </Trackpoint>
          <Trackpoint>
            <Time>2020-03-07T14:16:20.000Z</Time>
            <Position>
              <LatitudeDegrees>40.7580604590475559234619140625</LatitudeDegrees>
              <LongitudeDegrees>-3.71697449125349521636962890625</LongitudeDegrees>
            </Position>
            <AltitudeMeters>888.5999755859375</AltitudeMeters>
            <DistanceMeters>33456.593141328</DistanceMeters>
          </Trackpoint>
          <Trackpoint>
            <Time>2020-03-07T14:16:21.000Z</Time>
            <Position>
              <LatitudeDegrees>40.75811888091266155242919921875</LatitudeDegrees>
              <LongitudeDegrees>-3.71688882820308208465576171875</LongitudeDegrees>
            </Position>
            <AltitudeMeters>888.4000244140625</AltitudeMeters>
            <DistanceMeters>33466.310987769</DistanceMeters>
          </Trackpoint>
          <Trackpoint>
            <Time>2020-03-07T14:16:22.000Z</Time>
            <Position>
              <LatitudeDegrees>40.75817788951098918914794921875</LatitudeDegrees>
              <LongitudeDegrees>-3.7168035842478275299072265625</LongitudeDegrees>
            </Position>
            <AltitudeMeters>888.4000244140625</AltitudeMeters>
            <DistanceMeters>33476.046473497</DistanceMeters>
          </Trackpoint>
          <Trackpoint>
            <Time>2020-03-07T14:16:23.000Z</Time>
            <Position>
              <LatitudeDegrees>40.75823756866157054901123046875</LatitudeDegrees>
              <LongitudeDegrees>-3.716719262301921844482421875</LongitudeDegrees>
            </Position>
            <AltitudeMeters>888.4000244140625</AltitudeMeters>
            <DistanceMeters>33485.775464261</DistanceMeters>
          </Trackpoint>
          <Trackpoint>
            <Time>2020-03-07T14:16:24.000Z</Time>
            <Position>
              <LatitudeDegrees>40.75829573906958103179931640625</LatitudeDegrees>
              <LongitudeDegrees>-3.716635443270206451416015625</LongitudeDegrees>
            </Position>
            <AltitudeMeters>888.20001220703125</AltitudeMeters>
            <DistanceMeters>33495.359510254</DistanceMeters>
          </Trackpoint>
          <Trackpoint>
            <Time>2020-03-07T14:16:25.000Z</Time>
            <Position>
              <LatitudeDegrees>40.7583534903824329376220703125</LatitudeDegrees>
              <LongitudeDegrees>-3.7165506184101104736328125</LongitudeDegrees>
            </Position>
            <AltitudeMeters>887.79998779296875</AltitudeMeters>
            <DistanceMeters>33504.975537645</DistanceMeters>
          </Trackpoint>
          <Trackpoint>
            <Time>2020-03-07T14:16:26.000Z</Time>
            <Position>
              <LatitudeDegrees>40.7584114931523799896240234375</LatitudeDegrees>
              <LongitudeDegrees>-3.716466128826141357421875</LongitudeDegrees>
            </Position>
            <AltitudeMeters>887.5999755859375</AltitudeMeters>
            <DistanceMeters>33514.589217086</DistanceMeters>
          </Trackpoint>
          <Trackpoint>
            <Time>2020-03-07T14:16:27.000Z</Time>
            <Position>
              <LatitudeDegrees>40.75846857391297817230224609375</LatitudeDegrees>
              <LongitudeDegrees>-3.7163811363279819488525390625</LongitudeDegrees>
            </Position>
            <AltitudeMeters>887.20001220703125</AltitudeMeters>
            <DistanceMeters>33524.165722522</DistanceMeters>
          </Trackpoint>
          <Trackpoint>
            <Time>2020-03-07T14:16:28.000Z</Time>
            <Position>
              <LatitudeDegrees>40.7585254870355129241943359375</LatitudeDegrees>
              <LongitudeDegrees>-3.71629606001079082489013671875</LongitudeDegrees>
            </Position>
            <AltitudeMeters>887</AltitudeMeters>
            <DistanceMeters>33533.73515329</DistanceMeters>
          </Trackpoint>
          <Trackpoint>
            <Time>2020-03-07T14:16:29.000Z</Time>
            <Position>
              <LatitudeDegrees>40.7585813105106353759765625</LatitudeDegrees>
              <LongitudeDegrees>-3.71621240861713886260986328125</LongitudeDegrees>
            </Position>
            <AltitudeMeters>887</AltitudeMeters>
            <DistanceMeters>33543.133674864</DistanceMeters>
          </Trackpoint>
          <Trackpoint>
            <Time>2020-03-07T14:16:30.000Z</Time>
            <Position>
              <LatitudeDegrees>40.758636631071567535400390625</LatitudeDegrees>
              <LongitudeDegrees>-3.7161306850612163543701171875</LongitudeDegrees>
            </Position>
            <AltitudeMeters>886.79998779296875</AltitudeMeters>
            <DistanceMeters>33552.373770793</DistanceMeters>
          </Trackpoint>
          <Trackpoint>
            <Time>2020-03-07T14:16:31.000Z</Time>
            <Position>
              <LatitudeDegrees>40.758692957460880279541015625</LatitudeDegrees>
              <LongitudeDegrees>-3.71605114080011844635009765625</LongitudeDegrees>
            </Position>
            <AltitudeMeters>886.79998779296875</AltitudeMeters>
            <DistanceMeters>33561.553567815</DistanceMeters>
          </Trackpoint>
          <Trackpoint>
            <Time>2020-03-07T14:16:32.000Z</Time>
            <Position>
              <LatitudeDegrees>40.75874869711697101593017578125</LatitudeDegrees>
              <LongitudeDegrees>-3.715972937643527984619140625</LongitudeDegrees>
            </Position>
            <AltitudeMeters>886.79998779296875</AltitudeMeters>
            <DistanceMeters>33570.606576918</DistanceMeters>
          </Trackpoint>
          <Trackpoint>
            <Time>2020-03-07T14:16:33.000Z</Time>
            <Position>
              <LatitudeDegrees>40.758804939687252044677734375</LatitudeDegrees>
              <LongitudeDegrees>-3.71589548885822296142578125</LongitudeDegrees>
            </Position>
            <AltitudeMeters>886.5999755859375</AltitudeMeters>
            <DistanceMeters>33579.651602765</DistanceMeters>
          </Trackpoint>
          <Trackpoint>
            <Time>2020-03-07T14:16:34.000Z</Time>
            <Position>
              <LatitudeDegrees>40.75886051170527935028076171875</LatitudeDegrees>
              <LongitudeDegrees>-3.7158183753490447998046875</LongitudeDegrees>
            </Position>
            <AltitudeMeters>886.5999755859375</AltitudeMeters>
            <DistanceMeters>33588.624962874</DistanceMeters>
          </Trackpoint>
          <Trackpoint>
            <Time>2020-03-07T14:16:35.000Z</Time>
            <Position>
              <LatitudeDegrees>40.75891465879976749420166015625</LatitudeDegrees>
              <LongitudeDegrees>-3.715740256011486053466796875</LongitudeDegrees>
            </Position>
            <AltitudeMeters>886.5999755859375</AltitudeMeters>
            <DistanceMeters>33597.552417982</DistanceMeters>
          </Trackpoint>
          <Trackpoint>
            <Time>2020-03-07T14:16:36.000Z</Time>
            <Position>
              <LatitudeDegrees>40.7589690573513507843017578125</LatitudeDegrees>
              <LongitudeDegrees>-3.71566138230264186859130859375</LongitudeDegrees>
            </Position>
            <AltitudeMeters>886.4000244140625</AltitudeMeters>
            <DistanceMeters>33606.545379932</DistanceMeters>
          </Trackpoint>
          <Trackpoint>
            <Time>2020-03-07T14:16:37.000Z</Time>
            <Position>
              <LatitudeDegrees>40.75902529992163181304931640625</LatitudeDegrees>
              <LongitudeDegrees>-3.71558292768895626068115234375</LongitudeDegrees>
            </Position>
            <AltitudeMeters>886.4000244140625</AltitudeMeters>
            <DistanceMeters>33615.652588732</DistanceMeters>
          </Trackpoint>
          <Trackpoint>
            <Time>2020-03-07T14:16:38.000Z</Time>
            <Position>
              <LatitudeDegrees>40.759079195559024810791015625</LatitudeDegrees>
              <LongitudeDegrees>-3.71550380252301692962646484375</LongitudeDegrees>
            </Position>
            <AltitudeMeters>886.4000244140625</AltitudeMeters>
            <DistanceMeters>33624.623432687</DistanceMeters>
          </Trackpoint>
          <Trackpoint>
            <Time>2020-03-07T14:16:39.000Z</Time>
            <Position>
              <LatitudeDegrees>40.759132169187068939208984375</LatitudeDegrees>
              <LongitudeDegrees>-3.71542149223387241363525390625</LongitudeDegrees>
            </Position>
            <AltitudeMeters>886.4000244140625</AltitudeMeters>
            <DistanceMeters>33633.729154071</DistanceMeters>
          </Trackpoint>
          <Trackpoint>
            <Time>2020-03-07T14:16:40.000Z</Time>
            <Position>
              <LatitudeDegrees>40.75918614864349365234375</LatitudeDegrees>
              <LongitudeDegrees>-3.71533800847828388214111328125</LongitudeDegrees>
            </Position>
            <AltitudeMeters>886.20001220703125</AltitudeMeters>
            <DistanceMeters>33642.982433751</DistanceMeters>
          </Trackpoint>
          <Trackpoint>
            <Time>2020-03-07T14:16:41.000Z</Time>
            <Position>
              <LatitudeDegrees>40.7592411339282989501953125</LatitudeDegrees>
              <LongitudeDegrees>-3.7152556143701076507568359375</LongitudeDegrees>
            </Position>
            <AltitudeMeters>886</AltitudeMeters>
            <DistanceMeters>33652.239616122</DistanceMeters>
          </Trackpoint>
          <Trackpoint>
            <Time>2020-03-07T14:16:42.000Z</Time>
            <Position>
              <LatitudeDegrees>40.75929854996502399444580078125</LatitudeDegrees>
              <LongitudeDegrees>-3.71517154388129711151123046875</LongitudeDegrees>
            </Position>
            <AltitudeMeters>885.5999755859375</AltitudeMeters>
            <DistanceMeters>33661.78306157</DistanceMeters>
          </Trackpoint>
          <Trackpoint>
            <Time>2020-03-07T14:16:43.000Z</Time>
            <Position>
              <LatitudeDegrees>40.7593569718301296234130859375</LatitudeDegrees>
              <LongitudeDegrees>-3.715087138116359710693359375</LongitudeDegrees>
            </Position>
            <AltitudeMeters>885.20001220703125</AltitudeMeters>
            <DistanceMeters>33671.423005381</DistanceMeters>
          </Trackpoint>
          <Trackpoint>
            <Time>2020-03-07T14:16:44.000Z</Time>
            <Position>
              <LatitudeDegrees>40.759417153894901275634765625</LatitudeDegrees>
              <LongitudeDegrees>-3.71500407345592975616455078125</LongitudeDegrees>
            </Position>
            <AltitudeMeters>885</AltitudeMeters>
            <DistanceMeters>33681.113866799</DistanceMeters>
          </Trackpoint>
          <Trackpoint>
            <Time>2020-03-07T14:16:45.000Z</Time>
            <Position>
              <LatitudeDegrees>40.75947691686451435089111328125</LatitudeDegrees>
              <LongitudeDegrees>-3.714922182261943817138671875</LongitudeDegrees>
            </Position>
            <AltitudeMeters>884.79998779296875</AltitudeMeters>
            <DistanceMeters>33690.700738971</DistanceMeters>
          </Trackpoint>
          <Trackpoint>
            <Time>2020-03-07T14:16:46.000Z</Time>
            <Position>
              <LatitudeDegrees>40.75953458435833454132080078125</LatitudeDegrees>
              <LongitudeDegrees>-3.71484045870602130889892578125</LongitudeDegrees>
            </Position>
            <AltitudeMeters>884.5999755859375</AltitudeMeters>
            <DistanceMeters>33700.117498004</DistanceMeters>
          </Trackpoint>
          <Trackpoint>
            <Time>2020-03-07T14:16:47.000Z</Time>
            <Position>
              <LatitudeDegrees>40.75959024019539356231689453125</LatitudeDegrees>
              <LongitudeDegrees>-3.7147597409784793853759765625</LongitudeDegrees>
            </Position>
            <AltitudeMeters>884.5999755859375</AltitudeMeters>
            <DistanceMeters>33709.319892089</DistanceMeters>
          </Trackpoint>
          <Trackpoint>
            <Time>2020-03-07T14:16:48.000Z</Time>
            <Position>
              <LatitudeDegrees>40.75964304618537425994873046875</LatitudeDegrees>
              <LongitudeDegrees>-3.7146799452602863311767578125</LongitudeDegrees>
            </Position>
            <AltitudeMeters>884.20001220703125</AltitudeMeters>
            <DistanceMeters>33718.253414105</DistanceMeters>
          </Trackpoint>
          <Trackpoint>
            <Time>2020-03-07T14:16:49.000Z</Time>
            <Position>
              <LatitudeDegrees>40.7596944272518157958984375</LatitudeDegrees>
              <LongitudeDegrees>-3.71460140682756900787353515625</LongitudeDegrees>
            </Position>
            <AltitudeMeters>883.5999755859375</AltitudeMeters>
            <DistanceMeters>33727.002067026</DistanceMeters>
          </Trackpoint>
          <Trackpoint>
            <Time>2020-03-07T14:16:50.000Z</Time>
            <Position>
              <LatitudeDegrees>40.7597458921372890472412109375</LatitudeDegrees>
              <LongitudeDegrees>-3.7145233713090419769287109375</LongitudeDegrees>
            </Position>
            <AltitudeMeters>883.20001220703125</AltitudeMeters>
            <DistanceMeters>33735.724877589</DistanceMeters>
          </Trackpoint>
          <Trackpoint>
            <Time>2020-03-07T14:16:51.000Z</Time>
            <Position>
              <LatitudeDegrees>40.7597951777279376983642578125</LatitudeDegrees>
              <LongitudeDegrees>-3.7144459225237369537353515625</LongitudeDegrees>
            </Position>
            <AltitudeMeters>883</AltitudeMeters>
            <DistanceMeters>33744.252433253</DistanceMeters>
          </Trackpoint>
          <Trackpoint>
            <Time>2020-03-07T14:16:52.000Z</Time>
            <Position>
              <LatitudeDegrees>40.75983968563377857208251953125</LatitudeDegrees>
              <LongitudeDegrees>-3.71436872519552707672119140625</LongitudeDegrees>
            </Position>
            <AltitudeMeters>882.5999755859375</AltitudeMeters>
            <DistanceMeters>33752.431357773</DistanceMeters>
          </Trackpoint>
          <Trackpoint>
            <Time>2020-03-07T14:16:53.000Z</Time>
            <Position>
              <LatitudeDegrees>40.759883858263492584228515625</LatitudeDegrees>
              <LongitudeDegrees>-3.71429110877215862274169921875</LongitudeDegrees>
            </Position>
            <AltitudeMeters>882.5999755859375</AltitudeMeters>
            <DistanceMeters>33760.616352405</DistanceMeters>
          </Trackpoint>
          <Trackpoint>
            <Time>2020-03-07T14:16:54.000Z</Time>
            <Position>
              <LatitudeDegrees>40.75992518104612827301025390625</LatitudeDegrees>
              <LongitudeDegrees>-3.7142118997871875762939453125</LongitudeDegrees>
            </Position>
            <AltitudeMeters>882.4000244140625</AltitudeMeters>
            <DistanceMeters>33768.724308776</DistanceMeters>
          </Trackpoint>
          <Trackpoint>
            <Time>2020-03-07T14:16:55.000Z</Time>
            <Position>
              <LatitudeDegrees>40.75996256433427333831787109375</LatitudeDegrees>
              <LongitudeDegrees>-3.714131601154804229736328125</LongitudeDegrees>
            </Position>
            <AltitudeMeters>882</AltitudeMeters>
            <DistanceMeters>33776.670269668</DistanceMeters>
          </Trackpoint>
          <Trackpoint>
            <Time>2020-03-07T14:16:56.000Z</Time>
            <Position>
              <LatitudeDegrees>40.759998522698879241943359375</LatitudeDegrees>
              <LongitudeDegrees>-3.714051134884357452392578125</LongitudeDegrees>
            </Position>
            <AltitudeMeters>881.79998779296875</AltitudeMeters>
            <DistanceMeters>33784.546602899</DistanceMeters>
          </Trackpoint>
          <Trackpoint>
            <Time>2020-03-07T14:16:57.000Z</Time>
            <Position>
              <LatitudeDegrees>40.76003330759704113006591796875</LatitudeDegrees>
              <LongitudeDegrees>-3.7139705009758472442626953125</LongitudeDegrees>
            </Position>
            <AltitudeMeters>881.79998779296875</AltitudeMeters>
            <DistanceMeters>33792.370020192</DistanceMeters>
          </Trackpoint>
          <Trackpoint>
            <Time>2020-03-07T14:16:58.000Z</Time>
            <Position>
              <LatitudeDegrees>40.7600670866668224334716796875</LatitudeDegrees>
              <LongitudeDegrees>-3.7138890288770198822021484375</LongitudeDegrees>
            </Position>
            <AltitudeMeters>881.79998779296875</AltitudeMeters>
            <DistanceMeters>33800.200359843</DistanceMeters>
          </Trackpoint>
          <Trackpoint>
            <Time>2020-03-07T14:16:59.000Z</Time>
            <Position>
              <LatitudeDegrees>40.76009868644177913665771484375</LatitudeDegrees>
              <LongitudeDegrees>-3.71380629949271678924560546875</LongitudeDegrees>
            </Position>
            <AltitudeMeters>881.79998779296875</AltitudeMeters>
            <DistanceMeters>33808.012226241</DistanceMeters>
          </Trackpoint>
          <Trackpoint>
            <Time>2020-03-07T14:17:00.000Z</Time>
            <Position>
              <LatitudeDegrees>40.760127604007720947265625</LatitudeDegrees>
              <LongitudeDegrees>-3.71372214518487453460693359375</LongitudeDegrees>
            </Position>
            <AltitudeMeters>881.79998779296875</AltitudeMeters>
            <DistanceMeters>33815.802678331</DistanceMeters>
          </Trackpoint>
          <Trackpoint>
            <Time>2020-03-07T14:17:01.000Z</Time>
            <Position>
              <LatitudeDegrees>40.7601557672023773193359375</LatitudeDegrees>
              <LongitudeDegrees>-3.71363765560090541839599609375</LongitudeDegrees>
            </Position>
            <AltitudeMeters>881.79998779296875</AltitudeMeters>
            <DistanceMeters>33823.585592489</DistanceMeters>
          </Trackpoint>
          <Trackpoint>
            <Time>2020-03-07T14:17:02.000Z</Time>
            <Position>
              <LatitudeDegrees>40.760182254016399383544921875</LatitudeDegrees>
              <LongitudeDegrees>-3.71355257928371429443359375</LongitudeDegrees>
            </Position>
            <AltitudeMeters>881.79998779296875</AltitudeMeters>
            <DistanceMeters>33831.339446303</DistanceMeters>
          </Trackpoint>
          <Trackpoint>
            <Time>2020-03-07T14:17:03.000Z</Time>
            <Position>
              <LatitudeDegrees>40.76020580716431140899658203125</LatitudeDegrees>
              <LongitudeDegrees>-3.71346540749073028564453125</LongitudeDegrees>
            </Position>
            <AltitudeMeters>881.79998779296875</AltitudeMeters>
            <DistanceMeters>33839.141480993</DistanceMeters>
          </Trackpoint>
          <Trackpoint>
            <Time>2020-03-07T14:17:04.000Z</Time>
            <Position>
              <LatitudeDegrees>40.76022927649319171905517578125</LatitudeDegrees>
              <LongitudeDegrees>-3.71337697841227054595947265625</LongitudeDegrees>
            </Position>
            <AltitudeMeters>882</AltitudeMeters>
            <DistanceMeters>33847.041282149</DistanceMeters>
          </Trackpoint>
          <Trackpoint>
            <Time>2020-03-07T14:17:05.000Z</Time>
            <Position>
              <LatitudeDegrees>40.76025165617465972900390625</LatitudeDegrees>
              <LongitudeDegrees>-3.7132858671247959136962890625</LongitudeDegrees>
            </Position>
            <AltitudeMeters>882</AltitudeMeters>
            <DistanceMeters>33855.116316638</DistanceMeters>
          </Trackpoint>
          <Trackpoint>
            <Time>2020-03-07T14:17:06.000Z</Time>
            <Position>
              <LatitudeDegrees>40.7602729462087154388427734375</LatitudeDegrees>
              <LongitudeDegrees>-3.71319224126636981964111328125</LongitudeDegrees>
            </Position>
            <AltitudeMeters>882</AltitudeMeters>
            <DistanceMeters>33863.357932682</DistanceMeters>
          </Trackpoint>
          <Trackpoint>
            <Time>2020-03-07T14:17:07.000Z</Time>
            <Position>
              <LatitudeDegrees>40.76029364950954914093017578125</LatitudeDegrees>
              <LongitudeDegrees>-3.71309685520827770233154296875</LongitudeDegrees>
            </Position>
            <AltitudeMeters>882</AltitudeMeters>
            <DistanceMeters>33871.722442966</DistanceMeters>
          </Trackpoint>
          <Trackpoint>
            <Time>2020-03-07T14:17:08.000Z</Time>
            <Position>
              <LatitudeDegrees>40.76031695120036602020263671875</LatitudeDegrees>
              <LongitudeDegrees>-3.71300046332180500030517578125</LongitudeDegrees>
            </Position>
            <AltitudeMeters>882</AltitudeMeters>
            <DistanceMeters>33880.252116225</DistanceMeters>
          </Trackpoint>
          <Trackpoint>
            <Time>2020-03-07T14:17:09.000Z</Time>
            <Position>
              <LatitudeDegrees>40.76034192927181720733642578125</LatitudeDegrees>
              <LongitudeDegrees>-3.71290348470211029052734375</LongitudeDegrees>
            </Position>
            <AltitudeMeters>882</AltitudeMeters>
            <DistanceMeters>33888.887530012</DistanceMeters>
          </Trackpoint>
          <Trackpoint>
            <Time>2020-03-07T14:17:10.000Z</Time>
            <Position>
              <LatitudeDegrees>40.76036707498133182525634765625</LatitudeDegrees>
              <LongitudeDegrees>-3.7128060869872570037841796875</LongitudeDegrees>
            </Position>
            <AltitudeMeters>881.79998779296875</AltitudeMeters>
            <DistanceMeters>33897.562589498</DistanceMeters>
          </Trackpoint>
          <Trackpoint>
            <Time>2020-03-07T14:17:11.000Z</Time>
            <Position>
              <LatitudeDegrees>40.7603939808905124664306640625</LatitudeDegrees>
              <LongitudeDegrees>-3.712709359824657440185546875</LongitudeDegrees>
            </Position>
            <AltitudeMeters>881.79998779296875</AltitudeMeters>
            <DistanceMeters>33906.2490916</DistanceMeters>
          </Trackpoint>
          <Trackpoint>
            <Time>2020-03-07T14:17:12.000Z</Time>
            <Position>
              <LatitudeDegrees>40.7604231499135494232177734375</LatitudeDegrees>
              <LongitudeDegrees>-3.71261221356689929962158203125</LongitudeDegrees>
            </Position>
            <AltitudeMeters>881.79998779296875</AltitudeMeters>
            <DistanceMeters>33915.058431925</DistanceMeters>
          </Trackpoint>
          <Trackpoint>
            <Time>2020-03-07T14:17:13.000Z</Time>
            <Position>
              <LatitudeDegrees>40.76045542024075984954833984375</LatitudeDegrees>
              <LongitudeDegrees>-3.71251523494720458984375</LongitudeDegrees>
            </Position>
            <AltitudeMeters>881.5999755859375</AltitudeMeters>
            <DistanceMeters>33923.987909793</DistanceMeters>
          </Trackpoint>
          <Trackpoint>
            <Time>2020-03-07T14:17:14.000Z</Time>
            <Position>
              <LatitudeDegrees>40.76049129478633403778076171875</LatitudeDegrees>
              <LongitudeDegrees>-3.71241909451782703399658203125</LongitudeDegrees>
            </Position>
            <AltitudeMeters>881.5999755859375</AltitudeMeters>
            <DistanceMeters>33933.023446364</DistanceMeters>
          </Trackpoint>
          <Trackpoint>
            <Time>2020-03-07T14:17:15.000Z</Time>
            <Position>
              <LatitudeDegrees>40.760529935359954833984375</LatitudeDegrees>
              <LongitudeDegrees>-3.71232471428811550140380859375</LongitudeDegrees>
            </Position>
            <AltitudeMeters>881.4000244140625</AltitudeMeters>
            <DistanceMeters>33942.068472212</DistanceMeters>
          </Trackpoint>
          <Trackpoint>
            <Time>2020-03-07T14:17:16.000Z</Time>
            <Position>
              <LatitudeDegrees>40.76057058759033679962158203125</LatitudeDegrees>
              <LongitudeDegrees>-3.7122314237058162689208984375</LongitudeDegrees>
            </Position>
            <AltitudeMeters>881</AltitudeMeters>
            <DistanceMeters>33951.141906343</DistanceMeters>
          </Trackpoint>
          <Trackpoint>
            <Time>2020-03-07T14:17:17.000Z</Time>
            <Position>
              <LatitudeDegrees>40.76061199419200420379638671875</LatitudeDegrees>
              <LongitudeDegrees>-3.7121372111141681671142578125</LongitudeDegrees>
            </Position>
            <AltitudeMeters>880.5999755859375</AltitudeMeters>
            <DistanceMeters>33960.324653962</DistanceMeters>
          </Trackpoint>
          <Trackpoint>
            <Time>2020-03-07T14:17:18.000Z</Time>
            <Position>
              <LatitudeDegrees>40.76065532863140106201171875</LatitudeDegrees>
              <LongitudeDegrees>-3.71204308234155178070068359375</LongitudeDegrees>
            </Position>
            <AltitudeMeters>880.20001220703125</AltitudeMeters>
            <DistanceMeters>33969.611054236</DistanceMeters>
          </Trackpoint>
          <Trackpoint>
            <Time>2020-03-07T14:17:19.000Z</Time>
            <Position>
              <LatitudeDegrees>40.76069933362305164337158203125</LatitudeDegrees>
              <LongitudeDegrees>-3.7119504623115062713623046875</LongitudeDegrees>
            </Position>
            <AltitudeMeters>879.5999755859375</AltitudeMeters>
            <DistanceMeters>33978.829135345</DistanceMeters>
          </Trackpoint>
          <Trackpoint>
            <Time>2020-03-07T14:17:20.000Z</Time>
            <Position>
              <LatitudeDegrees>40.76074308715760707855224609375</LatitudeDegrees>
              <LongitudeDegrees>-3.71185876429080963134765625</LongitudeDegrees>
            </Position>
            <AltitudeMeters>879.4000244140625</AltitudeMeters>
            <DistanceMeters>33987.966041645</DistanceMeters>
          </Trackpoint>
          <Trackpoint>
            <Time>2020-03-07T14:17:21.000Z</Time>
            <Position>
              <LatitudeDegrees>40.760787092149257659912109375</LatitudeDegrees>
              <LongitudeDegrees>-3.71176715008914470672607421875</LongitudeDegrees>
            </Position>
            <AltitudeMeters>879</AltitudeMeters>
            <DistanceMeters>33997.111344703</DistanceMeters>
          </Trackpoint>
          <Trackpoint>
            <Time>2020-03-07T14:17:22.000Z</Time>
            <Position>
              <LatitudeDegrees>40.7608291693031787872314453125</LatitudeDegrees>
              <LongitudeDegrees>-3.71167478151619434356689453125</LongitudeDegrees>
            </Position>
            <AltitudeMeters>879</AltitudeMeters>
            <DistanceMeters>34006.197707502</DistanceMeters>
          </Trackpoint>
          <Trackpoint>
            <Time>2020-03-07T14:17:23.000Z</Time>
            <Position>
              <LatitudeDegrees>40.7608697377145290374755859375</LatitudeDegrees>
              <LongitudeDegrees>-3.71158241294324398040771484375</LongitudeDegrees>
            </Position>
            <AltitudeMeters>878.79998779296875</AltitudeMeters>
            <DistanceMeters>34015.199200486</DistanceMeters>
          </Trackpoint>
          <Trackpoint>
            <Time>2020-03-07T14:17:24.000Z</Time>
            <Position>
              <LatitudeDegrees>40.76091038994491100311279296875</LatitudeDegrees>
              <LongitudeDegrees>-3.71149155311286449432373046875</LongitudeDegrees>
            </Position>
            <AltitudeMeters>878.5999755859375</AltitudeMeters>
            <DistanceMeters>34024.096258994</DistanceMeters>
          </Trackpoint>
          <Trackpoint>
            <Time>2020-03-07T14:17:25.000Z</Time>
            <Position>
              <LatitudeDegrees>40.7609505392611026763916015625</LatitudeDegrees>
              <LongitudeDegrees>-3.71140069328248500823974609375</LongitudeDegrees>
            </Position>
            <AltitudeMeters>878.5999755859375</AltitudeMeters>
            <DistanceMeters>34032.96434423</DistanceMeters>
          </Trackpoint>
          <Trackpoint>
            <Time>2020-03-07T14:17:26.000Z</Time>
            <Position>
              <LatitudeDegrees>40.76099236495792865753173828125</LatitudeDegrees>
              <LongitudeDegrees>-3.7113110907375812530517578125</LongitudeDegrees>
            </Position>
            <AltitudeMeters>878.4000244140625</AltitudeMeters>
            <DistanceMeters>34041.837010483</DistanceMeters>
          </Trackpoint>
          <Trackpoint>
            <Time>2020-03-07T14:17:27.000Z</Time>
            <Position>
              <LatitudeDegrees>40.7610343582928180694580078125</LatitudeDegrees>
              <LongitudeDegrees>-3.7112225778400897979736328125</LongitudeDegrees>
            </Position>
            <AltitudeMeters>878.20001220703125</AltitudeMeters>
            <DistanceMeters>34050.642249625</DistanceMeters>
          </Trackpoint>
          <Trackpoint>
            <Time>2020-03-07T14:17:28.000Z</Time>
            <Position>
              <LatitudeDegrees>40.76107584871351718902587890625</LatitudeDegrees>
              <LongitudeDegrees>-3.711134903132915496826171875</LongitudeDegrees>
            </Position>
            <AltitudeMeters>878</AltitudeMeters>
            <DistanceMeters>34059.357810597</DistanceMeters>
          </Trackpoint>
          <Trackpoint>
            <Time>2020-03-07T14:17:29.000Z</Time>
            <Position>
              <LatitudeDegrees>40.76111708767712116241455078125</LatitudeDegrees>
              <LongitudeDegrees>-3.7110475637018680572509765625</LongitudeDegrees>
            </Position>
            <AltitudeMeters>877.79998779296875</AltitudeMeters>
            <DistanceMeters>34068.034951681</DistanceMeters>
          </Trackpoint>
          <Trackpoint>
            <Time>2020-03-07T14:17:30.000Z</Time>
            <Position>
              <LatitudeDegrees>40.76115614734590053558349609375</LatitudeDegrees>
              <LongitudeDegrees>-3.71095955371856689453125</LongitudeDegrees>
            </Position>
            <AltitudeMeters>877.5999755859375</AltitudeMeters>
            <DistanceMeters>34076.634738078</DistanceMeters>
          </Trackpoint>
          <Trackpoint>
            <Time>2020-03-07T14:17:31.000Z</Time>
            <Position>
              <LatitudeDegrees>40.76119420118629932403564453125</LatitudeDegrees>
              <LongitudeDegrees>-3.7108708731830120086669921875</LongitudeDegrees>
            </Position>
            <AltitudeMeters>877.4000244140625</AltitudeMeters>
            <DistanceMeters>34085.228221956</DistanceMeters>
          </Trackpoint>
          <Trackpoint>
            <Time>2020-03-07T14:17:32.000Z</Time>
            <Position>
              <LatitudeDegrees>40.761231668293476104736328125</LatitudeDegrees>
              <LongitudeDegrees>-3.71078261174261569976806640625</LongitudeDegrees>
            </Position>
            <AltitudeMeters>877.20001220703125</AltitudeMeters>
            <DistanceMeters>34093.758424532</DistanceMeters>
          </Trackpoint>
          <Trackpoint>
            <Time>2020-03-07T14:17:33.000Z</Time>
            <Position>
              <LatitudeDegrees>40.7612688839435577392578125</LatitudeDegrees>
              <LongitudeDegrees>-3.71069393120706081390380859375</LongitudeDegrees>
            </Position>
            <AltitudeMeters>877</AltitudeMeters>
            <DistanceMeters>34102.305547932</DistanceMeters>
          </Trackpoint>
          <Trackpoint>
            <Time>2020-03-07T14:17:34.000Z</Time>
            <Position>
              <LatitudeDegrees>40.76130752451717853546142578125</LatitudeDegrees>
              <LongitudeDegrees>-3.7106053344905376434326171875</LongitudeDegrees>
            </Position>
            <AltitudeMeters>876.79998779296875</AltitudeMeters>
            <DistanceMeters>34110.924214235</DistanceMeters>
          </Trackpoint>
          <Trackpoint>
            <Time>2020-03-07T14:17:35.000Z</Time>
            <Position>
              <LatitudeDegrees>40.76134725473821163177490234375</LatitudeDegrees>
              <LongitudeDegrees>-3.71051724068820476531982421875</LongitudeDegrees>
            </Position>
            <AltitudeMeters>876.5999755859375</AltitudeMeters>
            <DistanceMeters>34119.567989596</DistanceMeters>
          </Trackpoint>
          <Trackpoint>
            <Time>2020-03-07T14:17:36.000Z</Time>
            <Position>
              <LatitudeDegrees>40.7613874040544033050537109375</LatitudeDegrees>
              <LongitudeDegrees>-3.7104298174381256103515625</LongitudeDegrees>
            </Position>
            <AltitudeMeters>876.5999755859375</AltitudeMeters>
            <DistanceMeters>34128.186655898</DistanceMeters>
          </Trackpoint>
          <Trackpoint>
            <Time>2020-03-07T14:17:37.000Z</Time>
            <Position>
              <LatitudeDegrees>40.7614269666373729705810546875</LatitudeDegrees>
              <LongitudeDegrees>-3.71034373529255390167236328125</LongitudeDegrees>
            </Position>
            <AltitudeMeters>876.4000244140625</AltitudeMeters>
            <DistanceMeters>34136.674940763</DistanceMeters>
          </Trackpoint>
          <Trackpoint>
            <Time>2020-03-07T14:17:38.000Z</Time>
            <Position>
              <LatitudeDegrees>40.76146711595356464385986328125</LatitudeDegrees>
              <LongitudeDegrees>-3.71025748550891876220703125</LongitudeDegrees>
            </Position>
            <AltitudeMeters>876.4000244140625</AltitudeMeters>
            <DistanceMeters>34145.209905712</DistanceMeters>
          </Trackpoint>
          <Trackpoint>
            <Time>2020-03-07T14:17:39.000Z</Time>
            <Position>
              <LatitudeDegrees>40.76150651089847087860107421875</LatitudeDegrees>
              <LongitudeDegrees>-3.710171319544315338134765625</LongitudeDegrees>
            </Position>
            <AltitudeMeters>876.4000244140625</AltitudeMeters>
            <DistanceMeters>34153.694998492</DistanceMeters>
          </Trackpoint>
          <Trackpoint>
            <Time>2020-03-07T14:17:40.000Z</Time>
            <Position>
              <LatitudeDegrees>40.76154473237693309783935546875</LatitudeDegrees>
              <LongitudeDegrees>-3.71008540503680706024169921875</LongitudeDegrees>
            </Position>
            <AltitudeMeters>876.20001220703125</AltitudeMeters>
            <DistanceMeters>34162.095059047</DistanceMeters>
          </Trackpoint>
          <Trackpoint>
            <Time>2020-03-07T14:17:41.000Z</Time>
            <Position>
              <LatitudeDegrees>40.7615825347602367401123046875</LatitudeDegrees>
              <LongitudeDegrees>-3.70999940671026706695556640625</LongitudeDegrees>
            </Position>
            <AltitudeMeters>876.20001220703125</AltitudeMeters>
            <DistanceMeters>34170.477901935</DistanceMeters>
          </Trackpoint>
          <Trackpoint>
            <Time>2020-03-07T14:17:42.000Z</Time>
            <Position>
              <LatitudeDegrees>40.76161958277225494384765625</LatitudeDegrees>
              <LongitudeDegrees>-3.7099129892885684967041015625</LongitudeDegrees>
            </Position>
            <AltitudeMeters>876.20001220703125</AltitudeMeters>
            <DistanceMeters>34178.849426485</DistanceMeters>
          </Trackpoint>
          <Trackpoint>
            <Time>2020-03-07T14:17:43.000Z</Time>
            <Position>
              <LatitudeDegrees>40.7616578042507171630859375</LatitudeDegrees>
              <LongitudeDegrees>-3.70982640422880649566650390625</LongitudeDegrees>
            </Position>
            <AltitudeMeters>876</AltitudeMeters>
            <DistanceMeters>34187.2987924</DistanceMeters>
          </Trackpoint>
          <Trackpoint>
            <Time>2020-03-07T14:17:44.000Z</Time>
            <Position>
              <LatitudeDegrees>40.76169761829078197479248046875</LatitudeDegrees>
              <LongitudeDegrees>-3.70974057354032993316650390625</LongitudeDegrees>
            </Position>
            <AltitudeMeters>875.79998779296875</AltitudeMeters>
            <DistanceMeters>34195.783353049</DistanceMeters>
          </Trackpoint>
          <Trackpoint>
            <Time>2020-03-07T14:17:45.000Z</Time>
            <Position>
              <LatitudeDegrees>40.7617367617785930633544921875</LatitudeDegrees>
              <LongitudeDegrees>-3.709654994308948516845703125</LongitudeDegrees>
            </Position>
            <AltitudeMeters>875.79998779296875</AltitudeMeters>
            <DistanceMeters>34204.210781555</DistanceMeters>
          </Trackpoint>
          <Trackpoint>
            <Time>2020-03-07T14:17:46.000Z</Time>
            <Position>
              <LatitudeDegrees>40.76177640818059444427490234375</LatitudeDegrees>
              <LongitudeDegrees>-3.70956991799175739288330078125</LongitudeDegrees>
            </Position>
            <AltitudeMeters>875.5999755859375</AltitudeMeters>
            <DistanceMeters>34212.631242364</DistanceMeters>
          </Trackpoint>
          <Trackpoint>
            <Time>2020-03-07T14:17:47.000Z</Time>
            <Position>
              <LatitudeDegrees>40.76181580312550067901611328125</LatitudeDegrees>
              <LongitudeDegrees>-3.70948593132197856903076171875</LongitudeDegrees>
            </Position>
            <AltitudeMeters>875.5999755859375</AltitudeMeters>
            <DistanceMeters>34220.958966369</DistanceMeters>
          </Trackpoint>
          <Trackpoint>
            <Time>2020-03-07T14:17:48.000Z</Time>
            <Position>
              <LatitudeDegrees>40.76185368932783603668212890625</LatitudeDegrees>
              <LongitudeDegrees>-3.70940261520445346832275390625</LongitudeDegrees>
            </Position>
            <AltitudeMeters>875.5999755859375</AltitudeMeters>
            <DistanceMeters>34229.151128973</DistanceMeters>
          </Trackpoint>
          <Trackpoint>
            <Time>2020-03-07T14:17:49.000Z</Time>
            <Position>
              <LatitudeDegrees>40.76189207844436168670654296875</LatitudeDegrees>
              <LongitudeDegrees>-3.7093202210962772369384765625</LongitudeDegrees>
            </Position>
            <AltitudeMeters>875.5999755859375</AltitudeMeters>
            <DistanceMeters>34237.306281516</DistanceMeters>
          </Trackpoint>
          <Trackpoint>
            <Time>2020-03-07T14:17:50.000Z</Time>
            <Position>
              <LatitudeDegrees>40.76192979700863361358642578125</LatitudeDegrees>
              <LongitudeDegrees>-3.70923782698810100555419921875</LongitudeDegrees>
            </Position>
            <AltitudeMeters>875.5999755859375</AltitudeMeters>
            <DistanceMeters>34245.422030255</DistanceMeters>
          </Trackpoint>
          <Trackpoint>
            <Time>2020-03-07T14:17:51.000Z</Time>
            <Position>
              <LatitudeDegrees>40.76196734793484210968017578125</LatitudeDegrees>
              <LongitudeDegrees>-3.70915451087057590484619140625</LongitudeDegrees>
            </Position>
            <AltitudeMeters>875.5999755859375</AltitudeMeters>
            <DistanceMeters>34253.594880153</DistanceMeters>
          </Trackpoint>
          <Trackpoint>
            <Time>2020-03-07T14:17:52.000Z</Time>
            <Position>
              <LatitudeDegrees>40.76200439594686031341552734375</LatitudeDegrees>
              <LongitudeDegrees>-3.70907119475305080413818359375</LongitudeDegrees>
            </Position>
            <AltitudeMeters>875.5999755859375</AltitudeMeters>
            <DistanceMeters>34261.739506698</DistanceMeters>
          </Trackpoint>
          <Trackpoint>
            <Time>2020-03-07T14:17:53.000Z</Time>
            <Position>
              <LatitudeDegrees>40.76204194687306880950927734375</LatitudeDegrees>
              <LongitudeDegrees>-3.708988130092620849609375</LongitudeDegrees>
            </Position>
            <AltitudeMeters>875.5999755859375</AltitudeMeters>
            <DistanceMeters>34269.895212865</DistanceMeters>
          </Trackpoint>
          <Trackpoint>
            <Time>2020-03-07T14:17:54.000Z</Time>
            <Position>
              <LatitudeDegrees>40.76207949779927730560302734375</LatitudeDegrees>
              <LongitudeDegrees>-3.7089049816131591796875</LongitudeDegrees>
            </Position>
            <AltitudeMeters>875.5999755859375</AltitudeMeters>
            <DistanceMeters>34278.056453203</DistanceMeters>
          </Trackpoint>
          <Trackpoint>
            <Time>2020-03-07T14:17:55.000Z</Time>
            <Position>
              <LatitudeDegrees>40.76211570762097835540771484375</LatitudeDegrees>
              <LongitudeDegrees>-3.708821833133697509765625</LongitudeDegrees>
            </Position>
            <AltitudeMeters>875.5999755859375</AltitudeMeters>
            <DistanceMeters>34286.142662669</DistanceMeters>
          </Trackpoint>
          <Trackpoint>
            <Time>2020-03-07T14:17:56.000Z</Time>
            <Position>
              <LatitudeDegrees>40.76215124689042568206787109375</LatitudeDegrees>
              <LongitudeDegrees>-3.70873776264488697052001953125</LongitudeDegrees>
            </Position>
            <AltitudeMeters>875.5999755859375</AltitudeMeters>
            <DistanceMeters>34294.259523992</DistanceMeters>
          </Trackpoint>
          <Trackpoint>
            <Time>2020-03-07T14:17:57.000Z</Time>
            <Position>
              <LatitudeDegrees>40.76218661852180957794189453125</LatitudeDegrees>
              <LongitudeDegrees>-3.7086530216038227081298828125</LongitudeDegrees>
            </Position>
            <AltitudeMeters>875.79998779296875</AltitudeMeters>
            <DistanceMeters>34302.415783745</DistanceMeters>
          </Trackpoint>
          <Trackpoint>
            <Time>2020-03-07T14:17:58.000Z</Time>
            <Position>
              <LatitudeDegrees>40.7622219063341617584228515625</LatitudeDegrees>
              <LongitudeDegrees>-3.7085678614675998687744140625</LongitudeDegrees>
            </Position>
            <AltitudeMeters>876</AltitudeMeters>
            <DistanceMeters>34310.599123339</DistanceMeters>
          </Trackpoint>
          <Trackpoint>
            <Time>2020-03-07T14:17:59.000Z</Time>
            <Position>
              <LatitudeDegrees>40.7622564397752285003662109375</LatitudeDegrees>
              <LongitudeDegrees>-3.70848228223621845245361328125</LongitudeDegrees>
            </Position>
            <AltitudeMeters>876</AltitudeMeters>
            <DistanceMeters>34318.773630399</DistanceMeters>
          </Trackpoint>
          <Trackpoint>
            <Time>2020-03-07T14:18:00.000Z</Time>
            <Position>
              <LatitudeDegrees>40.7622908055782318115234375</LatitudeDegrees>
              <LongitudeDegrees>-3.708397038280963897705078125</LongitudeDegrees>
            </Position>
            <AltitudeMeters>876</AltitudeMeters>
            <DistanceMeters>34326.914930117</DistanceMeters>
          </Trackpoint>
          <Trackpoint>
            <Time>2020-03-07T14:18:01.000Z</Time>
            <Position>
              <LatitudeDegrees>40.76232433319091796875</LatitudeDegrees>
              <LongitudeDegrees>-3.7083108723163604736328125</LongitudeDegrees>
            </Position>
            <AltitudeMeters>876</AltitudeMeters>
            <DistanceMeters>34335.081700876</DistanceMeters>
          </Trackpoint>
          <Trackpoint>
            <Time>2020-03-07T14:18:02.000Z</Time>
            <Position>
              <LatitudeDegrees>40.7623570226132869720458984375</LatitudeDegrees>
              <LongitudeDegrees>-3.70822428725659847259521484375</LongitudeDegrees>
            </Position>
            <AltitudeMeters>876</AltitudeMeters>
            <DistanceMeters>34343.237407043</DistanceMeters>
          </Trackpoint>
          <Trackpoint>
            <Time>2020-03-07T14:18:03.000Z</Time>
            <Position>
              <LatitudeDegrees>40.7623902149498462677001953125</LatitudeDegrees>
              <LongitudeDegrees>-3.70813795365393161773681640625</LongitudeDegrees>
            </Position>
            <AltitudeMeters>876</AltitudeMeters>
            <DistanceMeters>34351.399200591</DistanceMeters>
          </Trackpoint>
          <Trackpoint>
            <Time>2020-03-07T14:18:04.000Z</Time>
            <Position>
              <LatitudeDegrees>40.76242382638156414031982421875</LatitudeDegrees>
              <LongitudeDegrees>-3.70805162005126476287841796875</LongitudeDegrees>
            </Position>
            <AltitudeMeters>876</AltitudeMeters>
            <DistanceMeters>34359.581988431</DistanceMeters>
          </Trackpoint>
          <Trackpoint>
            <Time>2020-03-07T14:18:05.000Z</Time>
            <Position>
              <LatitudeDegrees>40.7624576054513454437255859375</LatitudeDegrees>
              <LongitudeDegrees>-3.70796461589634418487548828125</LongitudeDegrees>
            </Position>
            <AltitudeMeters>876</AltitudeMeters>
            <DistanceMeters>34367.824152291</DistanceMeters>
          </Trackpoint>
          <Trackpoint>
            <Time>2020-03-07T14:18:06.000Z</Time>
            <Position>
              <LatitudeDegrees>40.7624907977879047393798828125</LatitudeDegrees>
              <LongitudeDegrees>-3.70787710882723331451416015625</LongitudeDegrees>
            </Position>
            <AltitudeMeters>876</AltitudeMeters>
            <DistanceMeters>34376.075076258</DistanceMeters>
          </Trackpoint>
          <Trackpoint>
            <Time>2020-03-07T14:18:07.000Z</Time>
            <Position>
              <LatitudeDegrees>40.76252373866736888885498046875</LatitudeDegrees>
              <LongitudeDegrees>-3.7077890150249004364013671875</LongitudeDegrees>
            </Position>
            <AltitudeMeters>875.5999755859375</AltitudeMeters>
            <DistanceMeters>34384.357132806</DistanceMeters>
          </Trackpoint>
          <Trackpoint>
            <Time>2020-03-07T14:18:08.000Z</Time>
            <Position>
              <LatitudeDegrees>40.76255701482295989990234375</LatitudeDegrees>
              <LongitudeDegrees>-3.707701005041599273681640625</LongitudeDegrees>
            </Position>
            <AltitudeMeters>875.5999755859375</AltitudeMeters>
            <DistanceMeters>34392.649540907</DistanceMeters>
          </Trackpoint>
          <Trackpoint>
            <Time>2020-03-07T14:18:09.000Z</Time>
            <Position>
              <LatitudeDegrees>40.76259062625467777252197265625</LatitudeDegrees>
              <LongitudeDegrees>-3.70761374942958354949951171875</LongitudeDegrees>
            </Position>
            <AltitudeMeters>875.4000244140625</AltitudeMeters>
            <DistanceMeters>34400.902106359</DistanceMeters>
          </Trackpoint>
          <Trackpoint>
            <Time>2020-03-07T14:18:10.000Z</Time>
            <Position>
              <LatitudeDegrees>40.762624405324459075927734375</LatitudeDegrees>
              <LongitudeDegrees>-3.70752699673175811767578125</LongitudeDegrees>
            </Position>
            <AltitudeMeters>875.4000244140625</AltitudeMeters>
            <DistanceMeters>34409.125624006</DistanceMeters>
          </Trackpoint>
          <Trackpoint>
            <Time>2020-03-07T14:18:11.000Z</Time>
            <Position>
              <LatitudeDegrees>40.76265751384198665618896484375</LatitudeDegrees>
              <LongitudeDegrees>-3.7074391543865203857421875</LongitudeDegrees>
            </Position>
            <AltitudeMeters>875.4000244140625</AltitudeMeters>
            <DistanceMeters>34417.397861871</DistanceMeters>
          </Trackpoint>
          <Trackpoint>
            <Time>2020-03-07T14:18:12.000Z</Time>
            <Position>
              <LatitudeDegrees>40.762691460549831390380859375</LatitudeDegrees>
              <LongitudeDegrees>-3.70735089294612407684326171875</LongitudeDegrees>
            </Position>
            <AltitudeMeters>875.20001220703125</AltitudeMeters>
            <DistanceMeters>34425.742917266</DistanceMeters>
          </Trackpoint>
          <Trackpoint>
            <Time>2020-03-07T14:18:13.000Z</Time>
            <Position>
              <LatitudeDegrees>40.762726329267024993896484375</LatitudeDegrees>
              <LongitudeDegrees>-3.70726271532475948333740234375</LongitudeDegrees>
            </Position>
            <AltitudeMeters>875.20001220703125</AltitudeMeters>
            <DistanceMeters>34434.128452744</DistanceMeters>
          </Trackpoint>
          <Trackpoint>
            <Time>2020-03-07T14:18:14.000Z</Time>
            <Position>
              <LatitudeDegrees>40.7627610303461551666259765625</LatitudeDegrees>
              <LongitudeDegrees>-3.7071751244366168975830078125</LongitudeDegrees>
            </Position>
            <AltitudeMeters>874.79998779296875</AltitudeMeters>
            <DistanceMeters>34442.46159668</DistanceMeters>
          </Trackpoint>
          <Trackpoint>
            <Time>2020-03-07T14:18:15.000Z</Time>
            <Position>
              <LatitudeDegrees>40.762794725596904754638671875</LatitudeDegrees>
              <LongitudeDegrees>-3.70708703063428401947021484375</LongitudeDegrees>
            </Position>
            <AltitudeMeters>874.5999755859375</AltitudeMeters>
            <DistanceMeters>34450.780641449</DistanceMeters>
          </Trackpoint>
          <Trackpoint>
            <Time>2020-03-07T14:18:16.000Z</Time>
            <Position>
              <LatitudeDegrees>40.7628280855715274810791015625</LatitudeDegrees>
              <LongitudeDegrees>-3.7069994397461414337158203125</LongitudeDegrees>
            </Position>
            <AltitudeMeters>874.5999755859375</AltitudeMeters>
            <DistanceMeters>34459.045234495</DistanceMeters>
          </Trackpoint>
          <Trackpoint>
            <Time>2020-03-07T14:18:17.000Z</Time>
            <Position>
              <LatitudeDegrees>40.76286203227937221527099609375</LatitudeDegrees>
              <LongitudeDegrees>-3.70691235177218914031982421875</LongitudeDegrees>
            </Position>
            <AltitudeMeters>874.4000244140625</AltitudeMeters>
            <DistanceMeters>34467.302175645</DistanceMeters>
          </Trackpoint>
          <Trackpoint>
            <Time>2020-03-07T14:18:18.000Z</Time>
            <Position>
              <LatitudeDegrees>40.762895978987216949462890625</LatitudeDegrees>
              <LongitudeDegrees>-3.70682551525533199310302734375</LongitudeDegrees>
            </Position>
            <AltitudeMeters>874.4000244140625</AltitudeMeters>
            <DistanceMeters>34475.540504029</DistanceMeters>
          </Trackpoint>
          <Trackpoint>
            <Time>2020-03-07T14:18:19.000Z</Time>
            <Position>
              <LatitudeDegrees>40.76292908750474452972412109375</LatitudeDegrees>
              <LongitudeDegrees>-3.70673867873847484588623046875</LongitudeDegrees>
            </Position>
            <AltitudeMeters>874.4000244140625</AltitudeMeters>
            <DistanceMeters>34483.736523713</DistanceMeters>
          </Trackpoint>
          <Trackpoint>
            <Time>2020-03-07T14:18:20.000Z</Time>
            <Position>
              <LatitudeDegrees>40.76296177692711353302001953125</LatitudeDegrees>
              <LongitudeDegrees>-3.70665184222161769866943359375</LongitudeDegrees>
            </Position>
            <AltitudeMeters>874.4000244140625</AltitudeMeters>
            <DistanceMeters>34491.911030774</DistanceMeters>
          </Trackpoint>
          <Trackpoint>
            <Time>2020-03-07T14:18:21.000Z</Time>
            <Position>
              <LatitudeDegrees>40.76299496926367282867431640625</LatitudeDegrees>
              <LongitudeDegrees>-3.70656584389507770538330078125</LongitudeDegrees>
            </Position>
            <AltitudeMeters>874.4000244140625</AltitudeMeters>
            <DistanceMeters>34500.047892607</DistanceMeters>
          </Trackpoint>
          <Trackpoint>
            <Time>2020-03-07T14:18:22.000Z</Time>
            <Position>
              <LatitudeDegrees>40.76302816160023212432861328125</LatitudeDegrees>
              <LongitudeDegrees>-3.706480599939823150634765625</LongitudeDegrees>
            </Position>
            <AltitudeMeters>874</AltitudeMeters>
            <DistanceMeters>34508.128516516</DistanceMeters>
          </Trackpoint>
          <Trackpoint>
            <Time>2020-03-07T14:18:23.000Z</Time>
            <Position>
              <LatitudeDegrees>40.763060934841632843017578125</LatitudeDegrees>
              <LongitudeDegrees>-3.70639485307037830352783203125</LongitudeDegrees>
            </Position>
            <AltitudeMeters>873.79998779296875</AltitudeMeters>
            <DistanceMeters>34516.226443111</DistanceMeters>
          </Trackpoint>
          <Trackpoint>
            <Time>2020-03-07T14:18:24.000Z</Time>
            <Position>
              <LatitudeDegrees>40.7630927860736846923828125</LatitudeDegrees>
              <LongitudeDegrees>-3.7063091062009334564208984375</LongitudeDegrees>
            </Position>
            <AltitudeMeters>873.5999755859375</AltitudeMeters>
            <DistanceMeters>34524.278520412</DistanceMeters>
          </Trackpoint>
          <Trackpoint>
            <Time>2020-03-07T14:18:25.000Z</Time>
            <Position>
              <LatitudeDegrees>40.76312254182994365692138671875</LatitudeDegrees>
              <LongitudeDegrees>-3.706222437322139739990234375</LongitudeDegrees>
            </Position>
            <AltitudeMeters>873.4000244140625</AltitudeMeters>
            <DistanceMeters>34532.300823998</DistanceMeters>
          </Trackpoint>
          <Trackpoint>
            <Time>2020-03-07T14:18:26.000Z</Time>
            <Position>
              <LatitudeDegrees>40.76315154321491718292236328125</LatitudeDegrees>
              <LongitudeDegrees>-3.70613493025302886962890625</LongitudeDegrees>
            </Position>
            <AltitudeMeters>873.4000244140625</AltitudeMeters>
            <DistanceMeters>34540.352901299</DistanceMeters>
          </Trackpoint>
          <Trackpoint>
            <Time>2020-03-07T14:18:27.000Z</Time>
            <Position>
              <LatitudeDegrees>40.763179622590541839599609375</LatitudeDegrees>
              <LongitudeDegrees>-3.70604641735553741455078125</LongitudeDegrees>
            </Position>
            <AltitudeMeters>873.5999755859375</AltitudeMeters>
            <DistanceMeters>34548.44301836</DistanceMeters>
          </Trackpoint>
          <Trackpoint>
            <Time>2020-03-07T14:18:28.000Z</Time>
            <Position>
              <LatitudeDegrees>40.76320518739521503448486328125</LatitudeDegrees>
              <LongitudeDegrees>-3.7059574015438556671142578125</LongitudeDegrees>
            </Position>
            <AltitudeMeters>873.5999755859375</AltitudeMeters>
            <DistanceMeters>34556.469260654</DistanceMeters>
          </Trackpoint>
          <Trackpoint>
            <Time>2020-03-07T14:18:29.000Z</Time>
            <Position>
              <LatitudeDegrees>40.76322865672409534454345703125</LatitudeDegrees>
              <LongitudeDegrees>-3.70586729608476161956787109375</LongitudeDegrees>
            </Position>
            <AltitudeMeters>873.20001220703125</AltitudeMeters>
            <DistanceMeters>34564.502250525</DistanceMeters>
          </Trackpoint>
          <Trackpoint>
            <Time>2020-03-07T14:18:30.000Z</Time>
            <Position>
              <LatitudeDegrees>40.763251371681690216064453125</LatitudeDegrees>
              <LongitudeDegrees>-3.7057766877114772796630859375</LongitudeDegrees>
            </Position>
            <AltitudeMeters>873.20001220703125</AltitudeMeters>
            <DistanceMeters>34572.548718576</DistanceMeters>
          </Trackpoint>
          <Trackpoint>
            <Time>2020-03-07T14:18:31.000Z</Time>
            <Position>
              <LatitudeDegrees>40.7632733322679996490478515625</LatitudeDegrees>
              <LongitudeDegrees>-3.70568490587174892425537109375</LongitudeDegrees>
            </Position>
            <AltitudeMeters>873.20001220703125</AltitudeMeters>
            <DistanceMeters>34580.663354577</DistanceMeters>
          </Trackpoint>
          <Trackpoint>
            <Time>2020-03-07T14:18:32.000Z</Time>
            <Position>
              <LatitudeDegrees>40.76329596340656280517578125</LatitudeDegrees>
              <LongitudeDegrees>-3.70559270493686199188232421875</LongitudeDegrees>
            </Position>
            <AltitudeMeters>873.20001220703125</AltitudeMeters>
            <DistanceMeters>34588.833441791</DistanceMeters>
          </Trackpoint>
          <Trackpoint>
            <Time>2020-03-07T14:18:33.000Z</Time>
            <Position>
              <LatitudeDegrees>40.76331934891641139984130859375</LatitudeDegrees>
              <LongitudeDegrees>-3.70550067164003849029541015625</LongitudeDegrees>
            </Position>
            <AltitudeMeters>873.20001220703125</AltitudeMeters>
            <DistanceMeters>34597.016781385</DistanceMeters>
          </Trackpoint>
          <Trackpoint>
            <Time>2020-03-07T14:18:34.000Z</Time>
            <Position>
              <LatitudeDegrees>40.76334415934979915618896484375</LatitudeDegrees>
              <LongitudeDegrees>-3.70540897361934185028076171875</LongitudeDegrees>
            </Position>
            <AltitudeMeters>873.20001220703125</AltitudeMeters>
            <DistanceMeters>34605.224361434</DistanceMeters>
          </Trackpoint>
          <Trackpoint>
            <Time>2020-03-07T14:18:35.000Z</Time>
            <Position>
              <LatitudeDegrees>40.76336679048836231231689453125</LatitudeDegrees>
              <LongitudeDegrees>-3.705316521227359771728515625</LongitudeDegrees>
            </Position>
            <AltitudeMeters>873.20001220703125</AltitudeMeters>
            <DistanceMeters>34613.414870448</DistanceMeters>
          </Trackpoint>
          <Trackpoint>
            <Time>2020-03-07T14:18:36.000Z</Time>
            <Position>
              <LatitudeDegrees>40.7633879967033863067626953125</LatitudeDegrees>
              <LongitudeDegrees>-3.70522406883537769317626953125</LongitudeDegrees>
            </Position>
            <AltitudeMeters>873.20001220703125</AltitudeMeters>
            <DistanceMeters>34621.558388202</DistanceMeters>
          </Trackpoint>
          <Trackpoint>
            <Time>2020-03-07T14:18:37.000Z</Time>
            <Position>
              <LatitudeDegrees>40.76340819709002971649169921875</LatitudeDegrees>
              <LongitudeDegrees>-3.70513186790049076080322265625</LongitudeDegrees>
            </Position>
            <AltitudeMeters>873.20001220703125</AltitudeMeters>
            <DistanceMeters>34629.649621372</DistanceMeters>
          </Trackpoint>
          <Trackpoint>
            <Time>2020-03-07T14:18:38.000Z</Time>
            <Position>
              <LatitudeDegrees>40.76342848129570484161376953125</LatitudeDegrees>
              <LongitudeDegrees>-3.70504067279398441314697265625</LongitudeDegrees>
            </Position>
            <AltitudeMeters>873.20001220703125</AltitudeMeters>
            <DistanceMeters>34637.662351463</DistanceMeters>
          </Trackpoint>
          <Trackpoint>
            <Time>2020-03-07T14:18:39.000Z</Time>
            <Position>
              <LatitudeDegrees>40.7634506933391094207763671875</LatitudeDegrees>
              <LongitudeDegrees>-3.7049505673348903656005859375</LongitudeDegrees>
            </Position>
            <AltitudeMeters>873.20001220703125</AltitudeMeters>
            <DistanceMeters>34645.65024982</DistanceMeters>
          </Trackpoint>
          <Trackpoint>
            <Time>2020-03-07T14:18:40.000Z</Time>
            <Position>
              <LatitudeDegrees>40.763472653925418853759765625</LatitudeDegrees>
              <LongitudeDegrees>-3.70486046187579631805419921875</LongitudeDegrees>
            </Position>
            <AltitudeMeters>873.20001220703125</AltitudeMeters>
            <DistanceMeters>34653.62966515</DistanceMeters>
          </Trackpoint>
          <Trackpoint>
            <Time>2020-03-07T14:18:41.000Z</Time>
            <Position>
              <LatitudeDegrees>40.76349335722625255584716796875</LatitudeDegrees>
              <LongitudeDegrees>-3.70476976968348026275634765625</LongitudeDegrees>
            </Position>
            <AltitudeMeters>873</AltitudeMeters>
            <DistanceMeters>34661.614736832</DistanceMeters>
          </Trackpoint>
          <Trackpoint>
            <Time>2020-03-07T14:18:42.000Z</Time>
            <Position>
              <LatitudeDegrees>40.7635140605270862579345703125</LatitudeDegrees>
              <LongitudeDegrees>-3.70467924512922763824462890625</LongitudeDegrees>
            </Position>
            <AltitudeMeters>873</AltitudeMeters>
            <DistanceMeters>34669.585660107</DistanceMeters>
          </Trackpoint>
          <Trackpoint>
            <Time>2020-03-07T14:18:43.000Z</Time>
            <Position>
              <LatitudeDegrees>40.763535015285015106201171875</LatitudeDegrees>
              <LongitudeDegrees>-3.70458905585110187530517578125</LongitudeDegrees>
            </Position>
            <AltitudeMeters>872.79998779296875</AltitudeMeters>
            <DistanceMeters>34677.538436692</DistanceMeters>
          </Trackpoint>
          <Trackpoint>
            <Time>2020-03-07T14:18:44.000Z</Time>
            <Position>
              <LatitudeDegrees>40.763557143509387969970703125</LatitudeDegrees>
              <LongitudeDegrees>-3.70449970476329326629638671875</LongitudeDegrees>
            </Position>
            <AltitudeMeters>872.5999755859375</AltitudeMeters>
            <DistanceMeters>34685.463915337</DistanceMeters>
          </Trackpoint>
          <Trackpoint>
            <Time>2020-03-07T14:18:45.000Z</Time>
            <Position>
              <LatitudeDegrees>40.763578601181507110595703125</LatitudeDegrees>
              <LongitudeDegrees>-3.70441035367548465728759765625</LongitudeDegrees>
            </Position>
            <AltitudeMeters>872.5999755859375</AltitudeMeters>
            <DistanceMeters>34693.366573667</DistanceMeters>
          </Trackpoint>
          <Trackpoint>
            <Time>2020-03-07T14:18:46.000Z</Time>
            <Position>
              <LatitudeDegrees>40.7635995559394359588623046875</LatitudeDegrees>
              <LongitudeDegrees>-3.704320080578327178955078125</LongitudeDegrees>
            </Position>
            <AltitudeMeters>872.5999755859375</AltitudeMeters>
            <DistanceMeters>34701.326160109</DistanceMeters>
          </Trackpoint>
          <Trackpoint>
            <Time>2020-03-07T14:18:47.000Z</Time>
            <Position>
              <LatitudeDegrees>40.76362143270671367645263671875</LatitudeDegrees>
              <LongitudeDegrees>-3.70422922074794769287109375</LongitudeDegrees>
            </Position>
            <AltitudeMeters>872.5999755859375</AltitudeMeters>
            <DistanceMeters>34709.363645218</DistanceMeters>
          </Trackpoint>
          <Trackpoint>
            <Time>2020-03-07T14:18:48.000Z</Time>
            <Position>
              <LatitudeDegrees>40.76364406384527683258056640625</LatitudeDegrees>
              <LongitudeDegrees>-3.7041381932795047760009765625</LongitudeDegrees>
            </Position>
            <AltitudeMeters>872.79998779296875</AltitudeMeters>
            <DistanceMeters>34717.439797901</DistanceMeters>
          </Trackpoint>
          <Trackpoint>
            <Time>2020-03-07T14:18:49.000Z</Time>
            <Position>
              <LatitudeDegrees>40.763666443526744842529296875</LatitudeDegrees>
              <LongitudeDegrees>-3.70404683053493499755859375</LongitudeDegrees>
            </Position>
            <AltitudeMeters>872.5999755859375</AltitudeMeters>
            <DistanceMeters>34725.534378476</DistanceMeters>
          </Trackpoint>
          <Trackpoint>
            <Time>2020-03-07T14:18:50.000Z</Time>
            <Position>
              <LatitudeDegrees>40.76368890702724456787109375</LatitudeDegrees>
              <LongitudeDegrees>-3.7039554677903652191162109375</LongitudeDegrees>
            </Position>
            <AltitudeMeters>872.4000244140625</AltitudeMeters>
            <DistanceMeters>34733.632305071</DistanceMeters>
          </Trackpoint>
          <Trackpoint>
            <Time>2020-03-07T14:18:51.000Z</Time>
            <Position>
              <LatitudeDegrees>40.76371145434677600860595703125</LatitudeDegrees>
              <LongitudeDegrees>-3.703864105045795440673828125</LongitudeDegrees>
            </Position>
            <AltitudeMeters>872.4000244140625</AltitudeMeters>
            <DistanceMeters>34741.732461578</DistanceMeters>
          </Trackpoint>
          <Trackpoint>
            <Time>2020-03-07T14:18:52.000Z</Time>
            <Position>
              <LatitudeDegrees>40.7637338340282440185546875</LatitudeDegrees>
              <LongitudeDegrees>-3.70377215556800365447998046875</LongitudeDegrees>
            </Position>
            <AltitudeMeters>872.5999755859375</AltitudeMeters>
            <DistanceMeters>34749.874315861</DistanceMeters>
          </Trackpoint>
          <Trackpoint>
            <Time>2020-03-07T14:18:53.000Z</Time>
            <Position>
              <LatitudeDegrees>40.763755626976490020751953125</LatitudeDegrees>
              <LongitudeDegrees>-3.70367961935698986053466796875</LongitudeDegrees>
            </Position>
            <AltitudeMeters>872.5999755859375</AltitudeMeters>
            <DistanceMeters>34758.043297739</DistanceMeters>
          </Trackpoint>
          <Trackpoint>
            <Time>2020-03-07T14:18:54.000Z</Time>
            <Position>
              <LatitudeDegrees>40.7637767493724822998046875</LatitudeDegrees>
              <LongitudeDegrees>-3.70358725078403949737548828125</LongitudeDegrees>
            </Position>
            <AltitudeMeters>872.5999755859375</AltitudeMeters>
            <DistanceMeters>34766.176829569</DistanceMeters>
          </Trackpoint>
          <Trackpoint>
            <Time>2020-03-07T14:18:55.000Z</Time>
            <Position>
              <LatitudeDegrees>40.763797871768474578857421875</LatitudeDegrees>
              <LongitudeDegrees>-3.70349563658237457275390625</LongitudeDegrees>
            </Position>
            <AltitudeMeters>872.5999755859375</AltitudeMeters>
            <DistanceMeters>34774.249067897</DistanceMeters>
          </Trackpoint>
          <Trackpoint>
            <Time>2020-03-07T14:18:56.000Z</Time>
            <Position>
              <LatitudeDegrees>40.763819329440593719482421875</LatitudeDegrees>
              <LongitudeDegrees>-3.7034051120281219482421875</LongitudeDegrees>
            </Position>
            <AltitudeMeters>872.79998779296875</AltitudeMeters>
            <DistanceMeters>34782.244875625</DistanceMeters>
          </Trackpoint>
          <Trackpoint>
            <Time>2020-03-07T14:18:57.000Z</Time>
            <Position>
              <LatitudeDegrees>40.76384070329368114471435546875</LatitudeDegrees>
              <LongitudeDegrees>-3.70331601239740848541259765625</LongitudeDegrees>
            </Position>
            <AltitudeMeters>872.5999755859375</AltitudeMeters>
            <DistanceMeters>34790.123501487</DistanceMeters>
          </Trackpoint>
          <Trackpoint>
            <Time>2020-03-07T14:18:58.000Z</Time>
            <Position>
              <LatitudeDegrees>40.763861574232578277587890625</LatitudeDegrees>
              <LongitudeDegrees>-3.70322783477604389190673828125</LongitudeDegrees>
            </Position>
            <AltitudeMeters>872.5999755859375</AltitudeMeters>
            <DistanceMeters>34797.911055236</DistanceMeters>
          </Trackpoint>
          <Trackpoint>
            <Time>2020-03-07T14:18:59.000Z</Time>
            <Position>
              <LatitudeDegrees>40.763881690800189971923828125</LatitudeDegrees>
              <LongitudeDegrees>-3.7031414173543453216552734375</LongitudeDegrees>
            </Position>
            <AltitudeMeters>872.79998779296875</AltitudeMeters>
            <DistanceMeters>34805.533358815</DistanceMeters>
          </Trackpoint>
          <Trackpoint>
            <Time>2020-03-07T14:19:00.000Z</Time>
            <Position>
              <LatitudeDegrees>40.76390172354876995086669921875</LatitudeDegrees>
              <LongitudeDegrees>-3.7030562572181224822998046875</LongitudeDegrees>
            </Position>
            <AltitudeMeters>872.79998779296875</AltitudeMeters>
            <DistanceMeters>34813.050086049</DistanceMeters>
          </Trackpoint>
          <Trackpoint>
            <Time>2020-03-07T14:19:01.000Z</Time>
            <Position>
              <LatitudeDegrees>40.76392184011638164520263671875</LatitudeDegrees>
              <LongitudeDegrees>-3.70297168381512165069580078125</LongitudeDegrees>
            </Position>
            <AltitudeMeters>872.79998779296875</AltitudeMeters>
            <DistanceMeters>34820.52283606</DistanceMeters>
          </Trackpoint>
          <Trackpoint>
            <Time>2020-03-07T14:19:02.000Z</Time>
            <Position>
              <LatitudeDegrees>40.763942040503025054931640625</LatitudeDegrees>
              <LongitudeDegrees>-3.70288811624050140380859375</LongitudeDegrees>
            </Position>
            <AltitudeMeters>873</AltitudeMeters>
            <DistanceMeters>34827.917233457</DistanceMeters>
          </Trackpoint>
          <Trackpoint>
            <Time>2020-03-07T14:19:03.000Z</Time>
            <Position>
              <LatitudeDegrees>40.76396207325160503387451171875</LatitudeDegrees>
              <LongitudeDegrees>-3.7028051353991031646728515625</LongitudeDegrees>
            </Position>
            <AltitudeMeters>873</AltitudeMeters>
            <DistanceMeters>34835.258931237</DistanceMeters>
          </Trackpoint>
          <Trackpoint>
            <Time>2020-03-07T14:19:04.000Z</Time>
            <Position>
              <LatitudeDegrees>40.76398193836212158203125</LatitudeDegrees>
              <LongitudeDegrees>-3.7027223221957683563232421875</LongitudeDegrees>
            </Position>
            <AltitudeMeters>873</AltitudeMeters>
            <DistanceMeters>34842.58215621</DistanceMeters>
          </Trackpoint>
          <Trackpoint>
            <Time>2020-03-07T14:19:05.000Z</Time>
            <Position>
              <LatitudeDegrees>40.76400264166295528411865234375</LatitudeDegrees>
              <LongitudeDegrees>-3.70263992808759212493896484375</LongitudeDegrees>
            </Position>
            <AltitudeMeters>873</AltitudeMeters>
            <DistanceMeters>34849.901064152</DistanceMeters>
          </Trackpoint>
          <Trackpoint>
            <Time>2020-03-07T14:19:06.000Z</Time>
            <Position>
              <LatitudeDegrees>40.7640223391354084014892578125</LatitudeDegrees>
              <LongitudeDegrees>-3.702558539807796478271484375</LongitudeDegrees>
            </Position>
            <AltitudeMeters>873</AltitudeMeters>
            <DistanceMeters>34857.104314755</DistanceMeters>
          </Trackpoint>
          <Trackpoint>
            <Time>2020-03-07T14:19:07.000Z</Time>
            <Position>
              <LatitudeDegrees>40.76404094696044921875</LatitudeDegrees>
              <LongitudeDegrees>-3.70247882790863513946533203125</LongitudeDegrees>
            </Position>
            <AltitudeMeters>873.20001220703125</AltitudeMeters>
            <DistanceMeters>34864.136933661</DistanceMeters>
          </Trackpoint>
          <Trackpoint>
            <Time>2020-03-07T14:19:08.000Z</Time>
            <Position>
              <LatitudeDegrees>40.76405880041420459747314453125</LatitudeDegrees>
              <LongitudeDegrees>-3.70240188203752040863037109375</LongitudeDegrees>
            </Position>
            <AltitudeMeters>873.20001220703125</AltitudeMeters>
            <DistanceMeters>34870.920536654</DistanceMeters>
          </Trackpoint>
          <Trackpoint>
            <Time>2020-03-07T14:19:09.000Z</Time>
            <Position>
              <LatitudeDegrees>40.76407824642956256866455078125</LatitudeDegrees>
              <LongitudeDegrees>-3.70232627727091312408447265625</LongitudeDegrees>
            </Position>
            <AltitudeMeters>873.20001220703125</AltitudeMeters>
            <DistanceMeters>34877.652024126</DistanceMeters>
          </Trackpoint>
          <Trackpoint>
            <Time>2020-03-07T14:19:10.000Z</Time>
            <Position>
              <LatitudeDegrees>40.76409836299717426300048828125</LatitudeDegrees>
              <LongitudeDegrees>-3.70225050486624240875244140625</LongitudeDegrees>
            </Position>
            <AltitudeMeters>873.5999755859375</AltitudeMeters>
            <DistanceMeters>34884.420968496</DistanceMeters>
          </Trackpoint>
          <Trackpoint>
            <Time>2020-03-07T14:19:11.000Z</Time>
            <Position>
              <LatitudeDegrees>40.7641173899173736572265625</LatitudeDegrees>
              <LongitudeDegrees>-3.70217406190931797027587890625</LongitudeDegrees>
            </Position>
            <AltitudeMeters>873.5999755859375</AltitudeMeters>
            <DistanceMeters>34891.204571488</DistanceMeters>
          </Trackpoint>
          <Trackpoint>
            <Time>2020-03-07T14:19:12.000Z</Time>
            <Position>
              <LatitudeDegrees>40.76413591392338275909423828125</LatitudeDegrees>
              <LongitudeDegrees>-3.702097870409488677978515625</LongitudeDegrees>
            </Position>
            <AltitudeMeters>873.79998779296875</AltitudeMeters>
            <DistanceMeters>34897.950798973</DistanceMeters>
          </Trackpoint>
          <Trackpoint>
            <Time>2020-03-07T14:19:13.000Z</Time>
            <Position>
              <LatitudeDegrees>40.7641554437577724456787109375</LatitudeDegrees>
              <LongitudeDegrees>-3.702022098004817962646484375</LongitudeDegrees>
            </Position>
            <AltitudeMeters>873.79998779296875</AltitudeMeters>
            <DistanceMeters>34904.699033965</DistanceMeters>
          </Trackpoint>
          <Trackpoint>
            <Time>2020-03-07T14:19:14.000Z</Time>
            <Position>
              <LatitudeDegrees>40.76417581178247928619384765625</LatitudeDegrees>
              <LongitudeDegrees>-3.7019468285143375396728515625</LongitudeDegrees>
            </Position>
            <AltitudeMeters>874</AltitudeMeters>
            <DistanceMeters>34911.437225441</DistanceMeters>
          </Trackpoint>
          <Trackpoint>
            <Time>2020-03-07T14:19:15.000Z</Time>
            <Position>
              <LatitudeDegrees>40.7641973532736301422119140625</LatitudeDegrees>
              <LongitudeDegrees>-3.70187264867126941680908203125</LongitudeDegrees>
            </Position>
            <AltitudeMeters>874</AltitudeMeters>
            <DistanceMeters>34918.135092248</DistanceMeters>
          </Trackpoint>
          <Trackpoint>
            <Time>2020-03-07T14:19:16.000Z</Time>
            <Position>
              <LatitudeDegrees>40.76421872712671756744384765625</LatitudeDegrees>
              <LongitudeDegrees>-3.70179939083755016326904296875</LongitudeDegrees>
            </Position>
            <AltitudeMeters>874</AltitudeMeters>
            <DistanceMeters>34924.75293712</DistanceMeters>
          </Trackpoint>
          <Trackpoint>
            <Time>2020-03-07T14:19:17.000Z</Time>
            <Position>
              <LatitudeDegrees>40.76423984952270984649658203125</LatitudeDegrees>
              <LongitudeDegrees>-3.70172613300383090972900390625</LongitudeDegrees>
            </Position>
            <AltitudeMeters>874.20001220703125</AltitudeMeters>
            <DistanceMeters>34931.361223561</DistanceMeters>
          </Trackpoint>
          <Trackpoint>
            <Time>2020-03-07T14:19:18.000Z</Time>
            <Position>
              <LatitudeDegrees>40.76426147483289241790771484375</LatitudeDegrees>
              <LongitudeDegrees>-3.701653294265270233154296875</LongitudeDegrees>
            </Position>
            <AltitudeMeters>874.20001220703125</AltitudeMeters>
            <DistanceMeters>34937.956515687</DistanceMeters>
          </Trackpoint>
          <Trackpoint>
            <Time>2020-03-07T14:19:19.000Z</Time>
            <Position>
              <LatitudeDegrees>40.764282010495662689208984375</LatitudeDegrees>
              <LongitudeDegrees>-3.70158079080283641815185546875</LongitudeDegrees>
            </Position>
            <AltitudeMeters>874.20001220703125</AltitudeMeters>
            <DistanceMeters>34944.481606525</DistanceMeters>
          </Trackpoint>
          <Trackpoint>
            <Time>2020-03-07T14:19:20.000Z</Time>
            <Position>
              <LatitudeDegrees>40.7643036358058452606201171875</LatitudeDegrees>
              <LongitudeDegrees>-3.7015089578926563262939453125</LongitudeDegrees>
            </Position>
            <AltitudeMeters>874.4000244140625</AltitudeMeters>
            <DistanceMeters>34950.9976958</DistanceMeters>
          </Trackpoint>
          <Trackpoint>
            <Time>2020-03-07T14:19:21.000Z</Time>
            <Position>
              <LatitudeDegrees>40.7643267698585987091064453125</LatitudeDegrees>
              <LongitudeDegrees>-3.70143838226795196533203125</LongitudeDegrees>
            </Position>
            <AltitudeMeters>874.4000244140625</AltitudeMeters>
            <DistanceMeters>34957.480440262</DistanceMeters>
          </Trackpoint>
          <Trackpoint>
            <Time>2020-03-07T14:19:22.000Z</Time>
            <Position>
              <LatitudeDegrees>40.76434998773038387298583984375</LatitudeDegrees>
              <LongitudeDegrees>-3.7013674713671207427978515625</LongitudeDegrees>
            </Position>
            <AltitudeMeters>874.4000244140625</AltitudeMeters>
            <DistanceMeters>34963.992370773</DistanceMeters>
          </Trackpoint>
          <Trackpoint>
            <Time>2020-03-07T14:19:23.000Z</Time>
            <Position>
              <LatitudeDegrees>40.7643723674118518829345703125</LatitudeDegrees>
              <LongitudeDegrees>-3.7012957222759723663330078125</LongitudeDegrees>
            </Position>
            <AltitudeMeters>874.4000244140625</AltitudeMeters>
            <DistanceMeters>34970.5326668</DistanceMeters>
          </Trackpoint>
          <Trackpoint>
            <Time>2020-03-07T14:19:24.000Z</Time>
            <Position>
              <LatitudeDegrees>40.76439491473138332366943359375</LatitudeDegrees>
              <LongitudeDegrees>-3.701224140822887420654296875</LongitudeDegrees>
            </Position>
            <AltitudeMeters>874.4000244140625</AltitudeMeters>
            <DistanceMeters>34977.06743776</DistanceMeters>
          </Trackpoint>
          <Trackpoint>
            <Time>2020-03-07T14:19:25.000Z</Time>
            <Position>
              <LatitudeDegrees>40.7644189707934856414794921875</LatitudeDegrees>
              <LongitudeDegrees>-3.70115499012172222137451171875</LongitudeDegrees>
            </Position>
            <AltitudeMeters>874.5999755859375</AltitudeMeters>
            <DistanceMeters>34983.482268885</DistanceMeters>
          </Trackpoint>
          <Trackpoint>
            <Time>2020-03-07T14:19:26.000Z</Time>
            <Position>
              <LatitudeDegrees>40.7644444517791271209716796875</LatitudeDegrees>
              <LongitudeDegrees>-3.701087348163127899169921875</LongitudeDegrees>
            </Position>
            <AltitudeMeters>874.5999755859375</AltitudeMeters>
            <DistanceMeters>34989.851185856</DistanceMeters>
          </Trackpoint>
          <Trackpoint>
            <Time>2020-03-07T14:19:27.000Z</Time>
            <Position>
              <LatitudeDegrees>40.764470435678958892822265625</LatitudeDegrees>
              <LongitudeDegrees>-3.7010194547474384307861328125</LongitudeDegrees>
            </Position>
            <AltitudeMeters>874.5999755859375</AltitudeMeters>
            <DistanceMeters>34996.263905102</DistanceMeters>
          </Trackpoint>
          <Trackpoint>
            <Time>2020-03-07T14:19:28.000Z</Time>
            <Position>
              <LatitudeDegrees>40.7644964195787906646728515625</LatitudeDegrees>
              <LongitudeDegrees>-3.70095130987465381622314453125</LongitudeDegrees>
            </Position>
            <AltitudeMeters>874.79998779296875</AltitudeMeters>
            <DistanceMeters>35002.694904255</DistanceMeters>
          </Trackpoint>
          <Trackpoint>
            <Time>2020-03-07T14:19:29.000Z</Time>
            <Position>
              <LatitudeDegrees>40.76452164910733699798583984375</LatitudeDegrees>
              <LongitudeDegrees>-3.70088224299252033233642578125</LongitudeDegrees>
            </Position>
            <AltitudeMeters>875</AltitudeMeters>
            <DistanceMeters>35009.15881667</DistanceMeters>
          </Trackpoint>
          <Trackpoint>
            <Time>2020-03-07T14:19:30.000Z</Time>
            <Position>
              <LatitudeDegrees>40.7645477168262004852294921875</LatitudeDegrees>
              <LongitudeDegrees>-3.70081250555813312530517578125</LongitudeDegrees>
            </Position>
            <AltitudeMeters>875</AltitudeMeters>
            <DistanceMeters>35015.714971326</DistanceMeters>
          </Trackpoint>
          <Trackpoint>
            <Time>2020-03-07T14:19:31.000Z</Time>
            <Position>
              <LatitudeDegrees>40.764574371278285980224609375</LatitudeDegrees>
              <LongitudeDegrees>-3.70074243284761905670166015625</LongitudeDegrees>
            </Position>
            <AltitudeMeters>875</AltitudeMeters>
            <DistanceMeters>35022.324624103</DistanceMeters>
          </Trackpoint>
          <Trackpoint>
            <Time>2020-03-07T14:19:32.000Z</Time>
            <Position>
              <LatitudeDegrees>40.76460110954940319061279296875</LatitudeDegrees>
              <LongitudeDegrees>-3.70067185722291469573974609375</LongitudeDegrees>
            </Position>
            <AltitudeMeters>875.20001220703125</AltitudeMeters>
            <DistanceMeters>35028.976494109</DistanceMeters>
          </Trackpoint>
          <Trackpoint>
            <Time>2020-03-07T14:19:33.000Z</Time>
            <Position>
              <LatitudeDegrees>40.7646296918392181396484375</LatitudeDegrees>
              <LongitudeDegrees>-3.70060019195079803466796875</LongitudeDegrees>
            </Position>
            <AltitudeMeters>875.20001220703125</AltitudeMeters>
            <DistanceMeters>35035.803884138</DistanceMeters>
          </Trackpoint>
          <Trackpoint>
            <Time>2020-03-07T14:19:34.000Z</Time>
            <Position>
              <LatitudeDegrees>40.76465860940515995025634765625</LatitudeDegrees>
              <LongitudeDegrees>-3.7005282752215862274169921875</LongitudeDegrees>
            </Position>
            <AltitudeMeters>875.20001220703125</AltitudeMeters>
            <DistanceMeters>35042.666892132</DistanceMeters>
          </Trackpoint>
          <Trackpoint>
            <Time>2020-03-07T14:19:35.000Z</Time>
            <Position>
              <LatitudeDegrees>40.76468878425657749176025390625</LatitudeDegrees>
              <LongitudeDegrees>-3.70045560412108898162841796875</LongitudeDegrees>
            </Position>
            <AltitudeMeters>875.20001220703125</AltitudeMeters>
            <DistanceMeters>35049.653133123</DistanceMeters>
          </Trackpoint>
          <Trackpoint>
            <Time>2020-03-07T14:19:36.000Z</Time>
            <Position>
              <LatitudeDegrees>40.764720551669597625732421875</LatitudeDegrees>
              <LongitudeDegrees>-3.70038201101124286651611328125</LongitudeDegrees>
            </Position>
            <AltitudeMeters>875.20001220703125</AltitudeMeters>
            <DistanceMeters>35056.7946926</DistanceMeters>
          </Trackpoint>
          <Trackpoint>
            <Time>2020-03-07T14:19:37.000Z</Time>
            <Position>
              <LatitudeDegrees>40.7647535763680934906005859375</LatitudeDegrees>
              <LongitudeDegrees>-3.700306154787540435791015625</LongitudeDegrees>
            </Position>
            <AltitudeMeters>875.20001220703125</AltitudeMeters>
            <DistanceMeters>35064.170137027</DistanceMeters>
          </Trackpoint>
          <Trackpoint>
            <Time>2020-03-07T14:19:38.000Z</Time>
            <Position>
              <LatitudeDegrees>40.76478903181850910186767578125</LatitudeDegrees>
              <LongitudeDegrees>-3.7002293765544891357421875</LongitudeDegrees>
            </Position>
            <AltitudeMeters>875.20001220703125</AltitudeMeters>
            <DistanceMeters>35071.749671731</DistanceMeters>
          </Trackpoint>
          <Trackpoint>
            <Time>2020-03-07T14:19:39.000Z</Time>
            <Position>
              <LatitudeDegrees>40.7648256607353687286376953125</LatitudeDegrees>
              <LongitudeDegrees>-3.70015117339789867401123046875</LongitudeDegrees>
            </Position>
            <AltitudeMeters>875.20001220703125</AltitudeMeters>
            <DistanceMeters>35079.501196011</DistanceMeters>
          </Trackpoint>
          <Trackpoint>
            <Time>2020-03-07T14:19:40.000Z</Time>
            <Position>
              <LatitudeDegrees>40.76486329548060894012451171875</LatitudeDegrees>
              <LongitudeDegrees>-3.700072132050991058349609375</LongitudeDegrees>
            </Position>
            <AltitudeMeters>875.20001220703125</AltitudeMeters>
            <DistanceMeters>35087.372368381</DistanceMeters>
          </Trackpoint>
          <Trackpoint>
            <Time>2020-03-07T14:19:41.000Z</Time>
            <Position>
              <LatitudeDegrees>40.76490260660648345947265625</LatitudeDegrees>
              <LongitudeDegrees>-3.6999941803514957427978515625</LongitudeDegrees>
            </Position>
            <AltitudeMeters>875.20001220703125</AltitudeMeters>
            <DistanceMeters>35095.267595907</DistanceMeters>
          </Trackpoint>
          <Trackpoint>
            <Time>2020-03-07T14:19:42.000Z</Time>
            <Position>
              <LatitudeDegrees>40.76494426466524600982666015625</LatitudeDegrees>
              <LongitudeDegrees>-3.69991849176585674285888671875</LongitudeDegrees>
            </Position>
            <AltitudeMeters>875</AltitudeMeters>
            <DistanceMeters>35103.155385629</DistanceMeters>
          </Trackpoint>
          <Trackpoint>
            <Time>2020-03-07T14:19:43.000Z</Time>
            <Position>
              <LatitudeDegrees>40.76498986221849918365478515625</LatitudeDegrees>
              <LongitudeDegrees>-3.699845485389232635498046875</LongitudeDegrees>
            </Position>
            <AltitudeMeters>875</AltitudeMeters>
            <DistanceMeters>35111.133103271</DistanceMeters>
          </Trackpoint>
          <Trackpoint>
            <Time>2020-03-07T14:19:44.000Z</Time>
            <Position>
              <LatitudeDegrees>40.76504183001816272735595703125</LatitudeDegrees>
              <LongitudeDegrees>-3.69977717287838459014892578125</LongitudeDegrees>
            </Position>
            <AltitudeMeters>874.5999755859375</AltitudeMeters>
            <DistanceMeters>35119.295449993</DistanceMeters>
          </Trackpoint>
          <Trackpoint>
            <Time>2020-03-07T14:19:45.000Z</Time>
            <Position>
              <LatitudeDegrees>40.76509949751198291778564453125</LatitudeDegrees>
              <LongitudeDegrees>-3.69971514679491519927978515625</LongitudeDegrees>
            </Position>
            <AltitudeMeters>874.4000244140625</AltitudeMeters>
            <DistanceMeters>35127.574234941</DistanceMeters>
          </Trackpoint>
          <Trackpoint>
            <Time>2020-03-07T14:19:46.000Z</Time>
            <Position>
              <LatitudeDegrees>40.76515984721481800079345703125</LatitudeDegrees>
              <LongitudeDegrees>-3.69965471327304840087890625</LongitudeDegrees>
            </Position>
            <AltitudeMeters>874</AltitudeMeters>
            <DistanceMeters>35136.004877365</DistanceMeters>
          </Trackpoint>
          <Trackpoint>
            <Time>2020-03-07T14:19:47.000Z</Time>
            <Position>
              <LatitudeDegrees>40.7652212865650653839111328125</LatitudeDegrees>
              <LongitudeDegrees>-3.6995958723127841949462890625</LongitudeDegrees>
            </Position>
            <AltitudeMeters>873.79998779296875</AltitudeMeters>
            <DistanceMeters>35144.453174484</DistanceMeters>
          </Trackpoint>
          <Trackpoint>
            <Time>2020-03-07T14:19:48.000Z</Time>
            <Position>
              <LatitudeDegrees>40.76528440229594707489013671875</LatitudeDegrees>
              <LongitudeDegrees>-3.69953946210443973541259765625</LongitudeDegrees>
            </Position>
            <AltitudeMeters>873.20001220703125</AltitudeMeters>
            <DistanceMeters>35152.936670772</DistanceMeters>
          </Trackpoint>
          <Trackpoint>
            <Time>2020-03-07T14:19:49.000Z</Time>
            <Position>
              <LatitudeDegrees>40.7653460092842578887939453125</LatitudeDegrees>
              <LongitudeDegrees>-3.69948045350611209869384765625</LongitudeDegrees>
            </Position>
            <AltitudeMeters>872.5999755859375</AltitudeMeters>
            <DistanceMeters>35161.407917286</DistanceMeters>
          </Trackpoint>
          <Trackpoint>
            <Time>2020-03-07T14:19:50.000Z</Time>
            <Position>
              <LatitudeDegrees>40.76540711335837841033935546875</LatitudeDegrees>
              <LongitudeDegrees>-3.69941809214651584625244140625</LongitudeDegrees>
            </Position>
            <AltitudeMeters>872.20001220703125</AltitudeMeters>
            <DistanceMeters>35170.003502517</DistanceMeters>
          </Trackpoint>
          <Trackpoint>
            <Time>2020-03-07T14:19:51.000Z</Time>
            <Position>
              <LatitudeDegrees>40.76546679250895977020263671875</LatitudeDegrees>
              <LongitudeDegrees>-3.69935170747339725494384765625</LongitudeDegrees>
            </Position>
            <AltitudeMeters>872</AltitudeMeters>
            <DistanceMeters>35178.689484827</DistanceMeters>
          </Trackpoint>
          <Trackpoint>
            <Time>2020-03-07T14:19:52.000Z</Time>
            <Position>
              <LatitudeDegrees>40.76552278362214565277099609375</LatitudeDegrees>
              <LongitudeDegrees>-3.69927945546805858612060546875</LongitudeDegrees>
            </Position>
            <AltitudeMeters>871.79998779296875</AltitudeMeters>
            <DistanceMeters>35187.40349153</DistanceMeters>
          </Trackpoint>
          <Trackpoint>
            <Time>2020-03-07T14:19:53.000Z</Time>
            <Position>
              <LatitudeDegrees>40.76557584106922149658203125</LatitudeDegrees>
              <LongitudeDegrees>-3.69920276105403900146484375</LongitudeDegrees>
            </Position>
            <AltitudeMeters>871.20001220703125</AltitudeMeters>
            <DistanceMeters>35196.159366643</DistanceMeters>
          </Trackpoint>
          <Trackpoint>
            <Time>2020-03-07T14:19:54.000Z</Time>
            <Position>
              <LatitudeDegrees>40.76562546193599700927734375</LatitudeDegrees>
              <LongitudeDegrees>-3.699123971164226531982421875</LongitudeDegrees>
            </Position>
            <AltitudeMeters>870.79998779296875</AltitudeMeters>
            <DistanceMeters>35204.796871583</DistanceMeters>
          </Trackpoint>
          <Trackpoint>
            <Time>2020-03-07T14:19:55.000Z</Time>
            <Position>
              <LatitudeDegrees>40.76567265205085277557373046875</LatitudeDegrees>
              <LongitudeDegrees>-3.6990436725318431854248046875</LongitudeDegrees>
            </Position>
            <AltitudeMeters>870.4000244140625</AltitudeMeters>
            <DistanceMeters>35213.364572057</DistanceMeters>
          </Trackpoint>
          <Trackpoint>
            <Time>2020-03-07T14:19:56.000Z</Time>
            <Position>
              <LatitudeDegrees>40.76571841724216938018798828125</LatitudeDegrees>
              <LongitudeDegrees>-3.69896295480430126190185546875</LongitudeDegrees>
            </Position>
            <AltitudeMeters>870.20001220703125</AltitudeMeters>
            <DistanceMeters>35221.864019777</DistanceMeters>
          </Trackpoint>
          <Trackpoint>
            <Time>2020-03-07T14:19:57.000Z</Time>
            <Position>
              <LatitudeDegrees>40.76576233841478824615478515625</LatitudeDegrees>
              <LongitudeDegrees>-3.69888215325772762298583984375</LongitudeDegrees>
            </Position>
            <AltitudeMeters>869.79998779296875</AltitudeMeters>
            <DistanceMeters>35230.247939806</DistanceMeters>
          </Trackpoint>
          <Trackpoint>
            <Time>2020-03-07T14:19:58.000Z</Time>
            <Position>
              <LatitudeDegrees>40.76580575667321681976318359375</LatitudeDegrees>
              <LongitudeDegrees>-3.69880302809178829193115234375</LongitudeDegrees>
            </Position>
            <AltitudeMeters>869.4000244140625</AltitudeMeters>
            <DistanceMeters>35238.484075686</DistanceMeters>
          </Trackpoint>
          <Trackpoint>
            <Time>2020-03-07T14:19:59.000Z</Time>
            <Position>
              <LatitudeDegrees>40.7658482529222965240478515625</LatitudeDegrees>
              <LongitudeDegrees>-3.698724992573261260986328125</LongitudeDegrees>
            </Position>
            <AltitudeMeters>869</AltitudeMeters>
            <DistanceMeters>35246.586461492</DistanceMeters>
          </Trackpoint>
          <Trackpoint>
            <Time>2020-03-07T14:20:00.000Z</Time>
            <Position>
              <LatitudeDegrees>40.76589259319007396697998046875</LatitudeDegrees>
              <LongitudeDegrees>-3.69864888489246368408203125</LongitudeDegrees>
            </Position>
            <AltitudeMeters>868.79998779296875</AltitudeMeters>
            <DistanceMeters>35254.680484262</DistanceMeters>
          </Trackpoint>
          <Trackpoint>
            <Time>2020-03-07T14:20:01.000Z</Time>
            <Position>
              <LatitudeDegrees>40.76593785546720027923583984375</LatitudeDegrees>
              <LongitudeDegrees>-3.6985739506781101226806640625</LongitudeDegrees>
            </Position>
            <AltitudeMeters>868.5999755859375</AltitudeMeters>
            <DistanceMeters>35262.759990597</DistanceMeters>
          </Trackpoint>
          <Trackpoint>
            <Time>2020-03-07T14:20:02.000Z</Time>
            <Position>
              <LatitudeDegrees>40.7659842073917388916015625</LatitudeDegrees>
              <LongitudeDegrees>-3.698500357568264007568359375</LongitudeDegrees>
            </Position>
            <AltitudeMeters>868.4000244140625</AltitudeMeters>
            <DistanceMeters>35270.828312671</DistanceMeters>
          </Trackpoint>
          <Trackpoint>
            <Time>2020-03-07T14:20:03.000Z</Time>
            <Position>
              <LatitudeDegrees>40.7660319842398166656494140625</LatitudeDegrees>
              <LongitudeDegrees>-3.69842919521033763885498046875</LongitudeDegrees>
            </Position>
            <AltitudeMeters>868.4000244140625</AltitudeMeters>
            <DistanceMeters>35278.844986174</DistanceMeters>
          </Trackpoint>
          <Trackpoint>
            <Time>2020-03-07T14:20:04.000Z</Time>
            <Position>
              <LatitudeDegrees>40.766082443296909332275390625</LatitudeDegrees>
              <LongitudeDegrees>-3.6983627267181873321533203125</LongitudeDegrees>
            </Position>
            <AltitudeMeters>868.4000244140625</AltitudeMeters>
            <DistanceMeters>35286.77843642</DistanceMeters>
          </Trackpoint>
          <Trackpoint>
            <Time>2020-03-07T14:20:05.000Z</Time>
            <Position>
              <LatitudeDegrees>40.76613667421042919158935546875</LatitudeDegrees>
              <LongitudeDegrees>-3.69830145500600337982177734375</LongitudeDegrees>
            </Position>
            <AltitudeMeters>868.4000244140625</AltitudeMeters>
            <DistanceMeters>35294.722124115</DistanceMeters>
          </Trackpoint>
          <Trackpoint>
            <Time>2020-03-07T14:20:06.000Z</Time>
            <Position>
              <LatitudeDegrees>40.76619266532361507415771484375</LatitudeDegrees>
              <LongitudeDegrees>-3.69824244640767574310302734375</LongitudeDegrees>
            </Position>
            <AltitudeMeters>868.20001220703125</AltitudeMeters>
            <DistanceMeters>35302.69587908</DistanceMeters>
          </Trackpoint>
          <Trackpoint>
            <Time>2020-03-07T14:20:07.000Z</Time>
            <Position>
              <LatitudeDegrees>40.76625041663646697998046875</LatitudeDegrees>
              <LongitudeDegrees>-3.6981836892664432525634765625</LongitudeDegrees>
            </Position>
            <AltitudeMeters>868.20001220703125</AltitudeMeters>
            <DistanceMeters>35310.810515081</DistanceMeters>
          </Trackpoint>
          <Trackpoint>
            <Time>2020-03-07T14:20:08.000Z</Time>
            <Position>
              <LatitudeDegrees>40.76630833558738231658935546875</LatitudeDegrees>
              <LongitudeDegrees>-3.69812409393489360809326171875</LongitudeDegrees>
            </Position>
            <AltitudeMeters>868.20001220703125</AltitudeMeters>
            <DistanceMeters>35318.983917404</DistanceMeters>
          </Trackpoint>
          <Trackpoint>
            <Time>2020-03-07T14:20:09.000Z</Time>
            <Position>
              <LatitudeDegrees>40.76636767946183681488037109375</LatitudeDegrees>
              <LongitudeDegrees>-3.69806491769850254058837890625</LongitudeDegrees>
            </Position>
            <AltitudeMeters>868.20001220703125</AltitudeMeters>
            <DistanceMeters>35327.261611531</DistanceMeters>
          </Trackpoint>
          <Trackpoint>
            <Time>2020-03-07T14:20:10.000Z</Time>
            <Position>
              <LatitudeDegrees>40.76642886735498905181884765625</LatitudeDegrees>
              <LongitudeDegrees>-3.698005490005016326904296875</LongitudeDegrees>
            </Position>
            <AltitudeMeters>868</AltitudeMeters>
            <DistanceMeters>35335.715785355</DistanceMeters>
          </Trackpoint>
          <Trackpoint>
            <Time>2020-03-07T14:20:11.000Z</Time>
            <Position>
              <LatitudeDegrees>40.76649173162877559661865234375</LatitudeDegrees>
              <LongitudeDegrees>-3.69794480502605438232421875</LongitudeDegrees>
            </Position>
            <AltitudeMeters>868</AltitudeMeters>
            <DistanceMeters>35344.383555311</DistanceMeters>
          </Trackpoint>
          <Trackpoint>
            <Time>2020-03-07T14:20:12.000Z</Time>
            <Position>
              <LatitudeDegrees>40.7665555179119110107421875</LatitudeDegrees>
              <LongitudeDegrees>-3.697882778942584991455078125</LongitudeDegrees>
            </Position>
            <AltitudeMeters>868</AltitudeMeters>
            <DistanceMeters>35353.201092279</DistanceMeters>
          </Trackpoint>
          <Trackpoint>
            <Time>2020-03-07T14:20:13.000Z</Time>
            <Position>
              <LatitudeDegrees>40.7666207291185855865478515625</LatitudeDegrees>
              <LongitudeDegrees>-3.697819411754608154296875</LongitudeDegrees>
            </Position>
            <AltitudeMeters>868</AltitudeMeters>
            <DistanceMeters>35362.213112449</DistanceMeters>
          </Trackpoint>
          <Trackpoint>
            <Time>2020-03-07T14:20:14.000Z</Time>
            <Position>
              <LatitudeDegrees>40.76668468303978443145751953125</LatitudeDegrees>
              <LongitudeDegrees>-3.69775445200502872467041015625</LongitudeDegrees>
            </Position>
            <AltitudeMeters>867.79998779296875</AltitudeMeters>
            <DistanceMeters>35371.194016791</DistanceMeters>
          </Trackpoint>
          <Trackpoint>
            <Time>2020-03-07T14:20:15.000Z</Time>
            <Position>
              <LatitudeDegrees>40.76674872078001499176025390625</LatitudeDegrees>
              <LongitudeDegrees>-3.697688989341259002685546875</LongitudeDegrees>
            </Position>
            <AltitudeMeters>867.79998779296875</AltitudeMeters>
            <DistanceMeters>35380.208040745</DistanceMeters>
          </Trackpoint>
          <Trackpoint>
            <Time>2020-03-07T14:20:16.000Z</Time>
            <Position>
              <LatitudeDegrees>40.7668131776154041290283203125</LatitudeDegrees>
              <LongitudeDegrees>-3.69762428104877471923828125</LongitudeDegrees>
            </Position>
            <AltitudeMeters>867.5999755859375</AltitudeMeters>
            <DistanceMeters>35389.220060914</DistanceMeters>
          </Trackpoint>
          <Trackpoint>
            <Time>2020-03-07T14:20:17.000Z</Time>
            <Position>
              <LatitudeDegrees>40.76687796972692012786865234375</LatitudeDegrees>
              <LongitudeDegrees>-3.69755898602306842803955078125</LongitudeDegrees>
            </Position>
            <AltitudeMeters>867.4000244140625</AltitudeMeters>
            <DistanceMeters>35398.292002091</DistanceMeters>
          </Trackpoint>
          <Trackpoint>
            <Time>2020-03-07T14:20:18.000Z</Time>
            <Position>
              <LatitudeDegrees>40.76694108545780181884765625</LatitudeDegrees>
              <LongitudeDegrees>-3.69749042205512523651123046875</LongitudeDegrees>
            </Position>
            <AltitudeMeters>867.4000244140625</AltitudeMeters>
            <DistanceMeters>35407.389290182</DistanceMeters>
          </Trackpoint>
          <Trackpoint>
            <Time>2020-03-07T14:20:19.000Z</Time>
            <Position>
              <LatitudeDegrees>40.76700286008417606353759765625</LatitudeDegrees>
              <LongitudeDegrees>-3.69741934351623058319091796875</LongitudeDegrees>
            </Position>
            <AltitudeMeters>867.20001220703125</AltitudeMeters>
            <DistanceMeters>35416.509874823</DistanceMeters>
          </Trackpoint>
          <Trackpoint>
            <Time>2020-03-07T14:20:20.000Z</Time>
            <Position>
              <LatitudeDegrees>40.767062790691852569580078125</LatitudeDegrees>
              <LongitudeDegrees>-3.6973458342254161834716796875</LongitudeDegrees>
            </Position>
            <AltitudeMeters>866.79998779296875</AltitudeMeters>
            <DistanceMeters>35425.614108546</DistanceMeters>
          </Trackpoint>
          <Trackpoint>
            <Time>2020-03-07T14:20:21.000Z</Time>
            <Position>
              <LatitudeDegrees>40.76712121255695819854736328125</LatitudeDegrees>
              <LongitudeDegrees>-3.697269894182682037353515625</LongitudeDegrees>
            </Position>
            <AltitudeMeters>866.4000244140625</AltitudeMeters>
            <DistanceMeters>35434.739147444</DistanceMeters>
          </Trackpoint>
          <Trackpoint>
            <Time>2020-03-07T14:20:22.000Z</Time>
            <Position>
              <LatitudeDegrees>40.76717737130820751190185546875</LatitudeDegrees>
              <LongitudeDegrees>-3.69719135574996471405029296875</LongitudeDegrees>
            </Position>
            <AltitudeMeters>866.4000244140625</AltitudeMeters>
            <DistanceMeters>35443.84387708</DistanceMeters>
          </Trackpoint>
          <Trackpoint>
            <Time>2020-03-07T14:20:23.000Z</Time>
            <Position>
              <LatitudeDegrees>40.7672314345836639404296875</LatitudeDegrees>
              <LongitudeDegrees>-3.6971114762127399444580078125</LongitudeDegrees>
            </Position>
            <AltitudeMeters>866.20001220703125</AltitudeMeters>
            <DistanceMeters>35452.873915302</DistanceMeters>
          </Trackpoint>
          <Trackpoint>
            <Time>2020-03-07T14:20:24.000Z</Time>
            <Position>
              <LatitudeDegrees>40.76728482730686664581298828125</LatitudeDegrees>
              <LongitudeDegrees>-3.69703008793294429779052734375</LongitudeDegrees>
            </Position>
            <AltitudeMeters>865.79998779296875</AltitudeMeters>
            <DistanceMeters>35461.949837147</DistanceMeters>
          </Trackpoint>
          <Trackpoint>
            <Time>2020-03-07T14:20:25.000Z</Time>
            <Position>
              <LatitudeDegrees>40.767337381839752197265625</LatitudeDegrees>
              <LongitudeDegrees>-3.696948029100894927978515625</LongitudeDegrees>
            </Position>
            <AltitudeMeters>865.5999755859375</AltitudeMeters>
            <DistanceMeters>35471.008829073</DistanceMeters>
          </Trackpoint>
          <Trackpoint>
            <Time>2020-03-07T14:20:26.000Z</Time>
            <Position>
              <LatitudeDegrees>40.7673896849155426025390625</LatitudeDegrees>
              <LongitudeDegrees>-3.6968670599162578582763671875</LongitudeDegrees>
            </Position>
            <AltitudeMeters>865.4000244140625</AltitudeMeters>
            <DistanceMeters>35479.979673028</DistanceMeters>
          </Trackpoint>
          <Trackpoint>
            <Time>2020-03-07T14:20:27.000Z</Time>
            <Position>
              <LatitudeDegrees>40.7674414850771427154541015625</LatitudeDegrees>
              <LongitudeDegrees>-3.696787767112255096435546875</LongitudeDegrees>
            </Position>
            <AltitudeMeters>865.20001220703125</AltitudeMeters>
            <DistanceMeters>35488.806422122</DistanceMeters>
          </Trackpoint>
          <Trackpoint>
            <Time>2020-03-07T14:20:28.000Z</Time>
            <Position>
              <LatitudeDegrees>40.76749186031520366668701171875</LatitudeDegrees>
              <LongitudeDegrees>-3.69670788757503032684326171875</LongitudeDegrees>
            </Position>
            <AltitudeMeters>865</AltitudeMeters>
            <DistanceMeters>35497.568482948</DistanceMeters>
          </Trackpoint>
          <Trackpoint>
            <Time>2020-03-07T14:20:29.000Z</Time>
            <Position>
              <LatitudeDegrees>40.76754114590585231781005859375</LatitudeDegrees>
              <LongitudeDegrees>-3.69662725366652011871337890625</LongitudeDegrees>
            </Position>
            <AltitudeMeters>864.79998779296875</AltitudeMeters>
            <DistanceMeters>35506.303190492</DistanceMeters>
          </Trackpoint>
          <Trackpoint>
            <Time>2020-03-07T14:20:30.000Z</Time>
            <Position>
              <LatitudeDegrees>40.7675906829535961151123046875</LatitudeDegrees>
              <LongitudeDegrees>-3.696546368300914764404296875</LongitudeDegrees>
            </Position>
            <AltitudeMeters>864.5999755859375</AltitudeMeters>
            <DistanceMeters>35515.071432667</DistanceMeters>
          </Trackpoint>
          <Trackpoint>
            <Time>2020-03-07T14:20:31.000Z</Time>
            <Position>
              <LatitudeDegrees>40.7676409743726253509521484375</LatitudeDegrees>
              <LongitudeDegrees>-3.696465902030467987060546875</LongitudeDegrees>
            </Position>
            <AltitudeMeters>864.4000244140625</AltitudeMeters>
            <DistanceMeters>35523.866410485</DistanceMeters>
          </Trackpoint>
          <Trackpoint>
            <Time>2020-03-07T14:20:32.000Z</Time>
            <Position>
              <LatitudeDegrees>40.76769000850617885589599609375</LatitudeDegrees>
              <LongitudeDegrees>-3.696386106312274932861328125</LongitudeDegrees>
            </Position>
            <AltitudeMeters>864.20001220703125</AltitudeMeters>
            <DistanceMeters>35532.52792739</DistanceMeters>
          </Trackpoint>
          <Trackpoint>
            <Time>2020-03-07T14:20:33.000Z</Time>
            <Position>
              <LatitudeDegrees>40.76773770153522491455078125</LatitudeDegrees>
              <LongitudeDegrees>-3.69630672968924045562744140625</LongitudeDegrees>
            </Position>
            <AltitudeMeters>864</AltitudeMeters>
            <DistanceMeters>35541.06870941</DistanceMeters>
          </Trackpoint>
          <Trackpoint>
            <Time>2020-03-07T14:20:34.000Z</Time>
            <Position>
              <LatitudeDegrees>40.76778489165008068084716796875</LatitudeDegrees>
              <LongitudeDegrees>-3.69622819125652313232421875</LongitudeDegrees>
            </Position>
            <AltitudeMeters>864</AltitudeMeters>
            <DistanceMeters>35549.520212511</DistanceMeters>
          </Trackpoint>
          <Trackpoint>
            <Time>2020-03-07T14:20:35.000Z</Time>
            <Position>
              <LatitudeDegrees>40.76783157885074615478515625</LatitudeDegrees>
              <LongitudeDegrees>-3.696151077747344970703125</LongitudeDegrees>
            </Position>
            <AltitudeMeters>864</AltitudeMeters>
            <DistanceMeters>35557.842513054</DistanceMeters>
          </Trackpoint>
          <Trackpoint>
            <Time>2020-03-07T14:20:36.000Z</Time>
            <Position>
              <LatitudeDegrees>40.76787851750850677490234375</LatitudeDegrees>
              <LongitudeDegrees>-3.6960764788091182708740234375</LongitudeDegrees>
            </Position>
            <AltitudeMeters>864</AltitudeMeters>
            <DistanceMeters>35566.018124703</DistanceMeters>
          </Trackpoint>
          <Trackpoint>
            <Time>2020-03-07T14:20:37.000Z</Time>
            <Position>
              <LatitudeDegrees>40.7679256238043308258056640625</LatitudeDegrees>
              <LongitudeDegrees>-3.6960030533373355865478515625</LongitudeDegrees>
            </Position>
            <AltitudeMeters>864</AltitudeMeters>
            <DistanceMeters>35574.129421577</DistanceMeters>
          </Trackpoint>
          <Trackpoint>
            <Time>2020-03-07T14:20:38.000Z</Time>
            <Position>
              <LatitudeDegrees>40.7679705508053302764892578125</LatitudeDegrees>
              <LongitudeDegrees>-3.6959296278655529022216796875</LongitudeDegrees>
            </Position>
            <AltitudeMeters>864</AltitudeMeters>
            <DistanceMeters>35582.085603819</DistanceMeters>
          </Trackpoint>
          <Trackpoint>
            <Time>2020-03-07T14:20:39.000Z</Time>
            <Position>
              <LatitudeDegrees>40.768013298511505126953125</LatitudeDegrees>
              <LongitudeDegrees>-3.69585813023149967193603515625</LongitudeDegrees>
            </Position>
            <AltitudeMeters>864</AltitudeMeters>
            <DistanceMeters>35589.764562028</DistanceMeters>
          </Trackpoint>
          <Trackpoint>
            <Time>2020-03-07T14:20:40.000Z</Time>
            <Position>
              <LatitudeDegrees>40.76805554330348968505859375</LatitudeDegrees>
              <LongitudeDegrees>-3.69578872807323932647705078125</LongitudeDegrees>
            </Position>
            <AltitudeMeters>864</AltitudeMeters>
            <DistanceMeters>35597.269867942</DistanceMeters>
          </Trackpoint>
          <Trackpoint>
            <Time>2020-03-07T14:20:41.000Z</Time>
            <Position>
              <LatitudeDegrees>40.7680969499051570892333984375</LatitudeDegrees>
              <LongitudeDegrees>-3.69571982882916927337646484375</LongitudeDegrees>
            </Position>
            <AltitudeMeters>864.20001220703125</AltitudeMeters>
            <DistanceMeters>35604.683778875</DistanceMeters>
          </Trackpoint>
          <Trackpoint>
            <Time>2020-03-07T14:20:42.000Z</Time>
            <Position>
              <LatitudeDegrees>40.76813869178295135498046875</LatitudeDegrees>
              <LongitudeDegrees>-3.69565109722316265106201171875</LongitudeDegrees>
            </Position>
            <AltitudeMeters>864.20001220703125</AltitudeMeters>
            <DistanceMeters>35612.110467701</DistanceMeters>
          </Trackpoint>
          <Trackpoint>
            <Time>2020-03-07T14:20:43.000Z</Time>
            <Position>
              <LatitudeDegrees>40.76817934401333332061767578125</LatitudeDegrees>
              <LongitudeDegrees>-3.69558253325521945953369140625</LongitudeDegrees>
            </Position>
            <AltitudeMeters>864.4000244140625</AltitudeMeters>
            <DistanceMeters>35619.450320292</DistanceMeters>
          </Trackpoint>
          <Trackpoint>
            <Time>2020-03-07T14:20:44.000Z</Time>
            <Position>
              <LatitudeDegrees>40.7682199962437152862548828125</LatitudeDegrees>
              <LongitudeDegrees>-3.6955155618488788604736328125</LongitudeDegrees>
            </Position>
            <AltitudeMeters>864.4000244140625</AltitudeMeters>
            <DistanceMeters>35626.683594994</DistanceMeters>
          </Trackpoint>
          <Trackpoint>
            <Time>2020-03-07T14:20:45.000Z</Time>
            <Position>
              <LatitudeDegrees>40.7682614028453826904296875</LatitudeDegrees>
              <LongitudeDegrees>-3.69545076973736286163330078125</LongitudeDegrees>
            </Position>
            <AltitudeMeters>864.4000244140625</AltitudeMeters>
            <DistanceMeters>35633.829578642</DistanceMeters>
          </Trackpoint>
          <Trackpoint>
            <Time>2020-03-07T14:20:46.000Z</Time>
            <Position>
              <LatitudeDegrees>40.76830255798995494842529296875</LatitudeDegrees>
              <LongitudeDegrees>-3.6953868158161640167236328125</LongitudeDegrees>
            </Position>
            <AltitudeMeters>864.5999755859375</AltitudeMeters>
            <DistanceMeters>35640.903805359</DistanceMeters>
          </Trackpoint>
          <Trackpoint>
            <Time>2020-03-07T14:20:47.000Z</Time>
            <Position>
              <LatitudeDegrees>40.768342874944210052490234375</LatitudeDegrees>
              <LongitudeDegrees>-3.69532286189496517181396484375</LongitudeDegrees>
            </Position>
            <AltitudeMeters>864.79998779296875</AltitudeMeters>
            <DistanceMeters>35647.917781155</DistanceMeters>
          </Trackpoint>
          <Trackpoint>
            <Time>2020-03-07T14:20:48.000Z</Time>
            <Position>
              <LatitudeDegrees>40.7683829404413700103759765625</LatitudeDegrees>
              <LongitudeDegrees>-3.695259578526020050048828125</LongitudeDegrees>
            </Position>
            <AltitudeMeters>865</AltitudeMeters>
            <DistanceMeters>35654.870334586</DistanceMeters>
          </Trackpoint>
          <Trackpoint>
            <Time>2020-03-07T14:20:49.000Z</Time>
            <Position>
              <LatitudeDegrees>40.7684238441288471221923828125</LatitudeDegrees>
              <LongitudeDegrees>-3.69519713334739208221435546875</LongitudeDegrees>
            </Position>
            <AltitudeMeters>865.4000244140625</AltitudeMeters>
            <DistanceMeters>35661.829379058</DistanceMeters>
          </Trackpoint>
          <Trackpoint>
            <Time>2020-03-07T14:20:50.000Z</Time>
            <Position>
              <LatitudeDegrees>40.76846449635922908782958984375</LatitudeDegrees>
              <LongitudeDegrees>-3.69513611309230327606201171875</LongitudeDegrees>
            </Position>
            <AltitudeMeters>865.4000244140625</AltitudeMeters>
            <DistanceMeters>35668.679875922</DistanceMeters>
          </Trackpoint>
          <Trackpoint>
            <Time>2020-03-07T14:20:51.000Z</Time>
            <Position>
              <LatitudeDegrees>40.76850657351315021514892578125</LatitudeDegrees>
              <LongitudeDegrees>-3.69507643394172191619873046875</LongitudeDegrees>
            </Position>
            <AltitudeMeters>865.5999755859375</AltitudeMeters>
            <DistanceMeters>35675.553401943</DistanceMeters>
          </Trackpoint>
          <Trackpoint>
            <Time>2020-03-07T14:20:52.000Z</Time>
            <Position>
              <LatitudeDegrees>40.7685489021241664886474609375</LatitudeDegrees>
              <LongitudeDegrees>-3.695018179714679718017578125</LongitudeDegrees>
            </Position>
            <AltitudeMeters>865.79998779296875</AltitudeMeters>
            <DistanceMeters>35682.359597073</DistanceMeters>
          </Trackpoint>
          <Trackpoint>
            <Time>2020-03-07T14:20:53.000Z</Time>
            <Position>
              <LatitudeDegrees>40.7685921527445316314697265625</LatitudeDegrees>
              <LongitudeDegrees>-3.69496084749698638916015625</LongitudeDegrees>
            </Position>
            <AltitudeMeters>866</AltitudeMeters>
            <DistanceMeters>35689.180370771</DistanceMeters>
          </Trackpoint>
          <Trackpoint>
            <Time>2020-03-07T14:20:54.000Z</Time>
            <Position>
              <LatitudeDegrees>40.76863599009811878204345703125</LatitudeDegrees>
              <LongitudeDegrees>-3.69490460492670536041259765625</LongitudeDegrees>
            </Position>
            <AltitudeMeters>866</AltitudeMeters>
            <DistanceMeters>35695.983911897</DistanceMeters>
          </Trackpoint>
          <Trackpoint>
            <Time>2020-03-07T14:20:55.000Z</Time>
            <Position>
              <LatitudeDegrees>40.76868091709911823272705078125</LatitudeDegrees>
              <LongitudeDegrees>-3.69484961964190006256103515625</LongitudeDegrees>
            </Position>
            <AltitudeMeters>866.20001220703125</AltitudeMeters>
            <DistanceMeters>35702.802037265</DistanceMeters>
          </Trackpoint>
          <Trackpoint>
            <Time>2020-03-07T14:20:56.000Z</Time>
            <Position>
              <LatitudeDegrees>40.76872651465237140655517578125</LatitudeDegrees>
              <LongitudeDegrees>-3.6947957240045070648193359375</LongitudeDegrees>
            </Position>
            <AltitudeMeters>866.5999755859375</AltitudeMeters>
            <DistanceMeters>35709.613537303</DistanceMeters>
          </Trackpoint>
          <Trackpoint>
            <Time>2020-03-07T14:20:57.000Z</Time>
            <Position>
              <LatitudeDegrees>40.76877177692949771881103515625</LatitudeDegrees>
              <LongitudeDegrees>-3.6947420798242092132568359375</LongitudeDegrees>
            </Position>
            <AltitudeMeters>867</AltitudeMeters>
            <DistanceMeters>35716.382481673</DistanceMeters>
          </Trackpoint>
          <Trackpoint>
            <Time>2020-03-07T14:20:58.000Z</Time>
            <Position>
              <LatitudeDegrees>40.768817625939846038818359375</LatitudeDegrees>
              <LongitudeDegrees>-3.69468969292938709259033203125</LongitudeDegrees>
            </Position>
            <AltitudeMeters>867.20001220703125</AltitudeMeters>
            <DistanceMeters>35723.131385701</DistanceMeters>
          </Trackpoint>
          <Trackpoint>
            <Time>2020-03-07T14:20:59.000Z</Time>
            <Position>
              <LatitudeDegrees>40.7688647322356700897216796875</LatitudeDegrees>
              <LongitudeDegrees>-3.6946396529674530029296875</LongitudeDegrees>
            </Position>
            <AltitudeMeters>867.4000244140625</AltitudeMeters>
            <DistanceMeters>35729.860189702</DistanceMeters>
          </Trackpoint>
          <Trackpoint>
            <Time>2020-03-07T14:21:00.000Z</Time>
            <Position>
              <LatitudeDegrees>40.7689131796360015869140625</LatitudeDegrees>
              <LongitudeDegrees>-3.69459145702421665191650390625</LongitudeDegrees>
            </Position>
            <AltitudeMeters>867.4000244140625</AltitudeMeters>
            <DistanceMeters>35736.611769213</DistanceMeters>
          </Trackpoint>
          <Trackpoint>
            <Time>2020-03-07T14:21:01.000Z</Time>
            <Position>
              <LatitudeDegrees>40.768962465226650238037109375</LatitudeDegrees>
              <LongitudeDegrees>-3.694544769823551177978515625</LongitudeDegrees>
            </Position>
            <AltitudeMeters>867.4000244140625</AltitudeMeters>
            <DistanceMeters>35743.362679953</DistanceMeters>
          </Trackpoint>
          <Trackpoint>
            <Time>2020-03-07T14:21:02.000Z</Time>
            <Position>
              <LatitudeDegrees>40.7690124213695526123046875</LatitudeDegrees>
              <LongitudeDegrees>-3.694498501718044281005859375</LongitudeDegrees>
            </Position>
            <AltitudeMeters>867.4000244140625</AltitudeMeters>
            <DistanceMeters>35750.15559469</DistanceMeters>
          </Trackpoint>
          <Trackpoint>
            <Time>2020-03-07T14:21:03.000Z</Time>
            <Position>
              <LatitudeDegrees>40.769063048064708709716796875</LatitudeDegrees>
              <LongitudeDegrees>-3.6944524012506008148193359375</LongitudeDegrees>
            </Position>
            <AltitudeMeters>867.4000244140625</AltitudeMeters>
            <DistanceMeters>35757.001476426</DistanceMeters>
          </Trackpoint>
          <Trackpoint>
            <Time>2020-03-07T14:21:04.000Z</Time>
            <Position>
              <LatitudeDegrees>40.7691148482263088226318359375</LatitudeDegrees>
              <LongitudeDegrees>-3.69440755806863307952880859375</LongitudeDegrees>
            </Position>
            <AltitudeMeters>867.4000244140625</AltitudeMeters>
            <DistanceMeters>35763.895335456</DistanceMeters>
          </Trackpoint>
          <Trackpoint>
            <Time>2020-03-07T14:21:05.000Z</Time>
            <Position>
              <LatitudeDegrees>40.76916924677789211273193359375</LatitudeDegrees>
              <LongitudeDegrees>-3.69436430744826793670654296875</LongitudeDegrees>
            </Position>
            <AltitudeMeters>867.4000244140625</AltitudeMeters>
            <DistanceMeters>35770.961899171</DistanceMeters>
          </Trackpoint>
          <Trackpoint>
            <Time>2020-03-07T14:21:06.000Z</Time>
            <Position>
              <LatitudeDegrees>40.76922364532947540283203125</LatitudeDegrees>
              <LongitudeDegrees>-3.69432038627564907073974609375</LongitudeDegrees>
            </Position>
            <AltitudeMeters>867.4000244140625</AltitudeMeters>
            <DistanceMeters>35778.059065253</DistanceMeters>
          </Trackpoint>
          <Trackpoint>
            <Time>2020-03-07T14:21:07.000Z</Time>
            <Position>
              <LatitudeDegrees>40.7692787982523441314697265625</LatitudeDegrees>
              <LongitudeDegrees>-3.69427562691271305084228515625</LongitudeDegrees>
            </Position>
            <AltitudeMeters>867.4000244140625</AltitudeMeters>
            <DistanceMeters>35785.264822643</DistanceMeters>
          </Trackpoint>
          <Trackpoint>
            <Time>2020-03-07T14:21:08.000Z</Time>
            <Position>
              <LatitudeDegrees>40.7693344540894031524658203125</LatitudeDegrees>
              <LongitudeDegrees>-3.6942301131784915924072265625</LongitudeDegrees>
            </Position>
            <AltitudeMeters>867.4000244140625</AltitudeMeters>
            <DistanceMeters>35792.550961498</DistanceMeters>
          </Trackpoint>
          <Trackpoint>
            <Time>2020-03-07T14:21:09.000Z</Time>
            <Position>
              <LatitudeDegrees>40.76939220540225505828857421875</LatitudeDegrees>
              <LongitudeDegrees>-3.6941851861774921417236328125</LongitudeDegrees>
            </Position>
            <AltitudeMeters>867.4000244140625</AltitudeMeters>
            <DistanceMeters>35800.011012511</DistanceMeters>
          </Trackpoint>
          <Trackpoint>
            <Time>2020-03-07T14:21:10.000Z</Time>
            <Position>
              <LatitudeDegrees>40.7694504596292972564697265625</LatitudeDegrees>
              <LongitudeDegrees>-3.69413900189101696014404296875</LongitudeDegrees>
            </Position>
            <AltitudeMeters>867</AltitudeMeters>
            <DistanceMeters>35807.572655457</DistanceMeters>
          </Trackpoint>
          <Trackpoint>
            <Time>2020-03-07T14:21:11.000Z</Time>
            <Position>
              <LatitudeDegrees>40.76950921677052974700927734375</LatitudeDegrees>
              <LongitudeDegrees>-3.69409256614744663238525390625</LongitudeDegrees>
            </Position>
            <AltitudeMeters>867</AltitudeMeters>
            <DistanceMeters>35815.194959035</DistanceMeters>
          </Trackpoint>
          <Trackpoint>
            <Time>2020-03-07T14:21:12.000Z</Time>
            <Position>
              <LatitudeDegrees>40.76957023702561855316162109375</LatitudeDegrees>
              <LongitudeDegrees>-3.69404680095613002777099609375</LongitudeDegrees>
            </Position>
            <AltitudeMeters>866.79998779296875</AltitudeMeters>
            <DistanceMeters>35823.00624744</DistanceMeters>
          </Trackpoint>
          <Trackpoint>
            <Time>2020-03-07T14:21:13.000Z</Time>
            <Position>
              <LatitudeDegrees>40.7696318440139293670654296875</LatitudeDegrees>
              <LongitudeDegrees>-3.69399885646998882293701171875</LongitudeDegrees>
            </Position>
            <AltitudeMeters>866.5999755859375</AltitudeMeters>
            <DistanceMeters>35830.965266616</DistanceMeters>
          </Trackpoint>
          <Trackpoint>
            <Time>2020-03-07T14:21:14.000Z</Time>
            <Position>
              <LatitudeDegrees>40.7696942053735256195068359375</LatitudeDegrees>
              <LongitudeDegrees>-3.6939504928886890411376953125</LongitudeDegrees>
            </Position>
            <AltitudeMeters>866.4000244140625</AltitudeMeters>
            <DistanceMeters>35839.015100687</DistanceMeters>
          </Trackpoint>
          <Trackpoint>
            <Time>2020-03-07T14:21:15.000Z</Time>
            <Position>
              <LatitudeDegrees>40.76975765638053417205810546875</LatitudeDegrees>
              <LongitudeDegrees>-3.693901710212230682373046875</LongitudeDegrees>
            </Position>
            <AltitudeMeters>866.4000244140625</AltitudeMeters>
            <DistanceMeters>35847.187398122</DistanceMeters>
          </Trackpoint>
          <Trackpoint>
            <Time>2020-03-07T14:21:16.000Z</Time>
            <Position>
              <LatitudeDegrees>40.76982236467301845550537109375</LatitudeDegrees>
              <LongitudeDegrees>-3.693855442106723785400390625</LongitudeDegrees>
            </Position>
            <AltitudeMeters>866</AltitudeMeters>
            <DistanceMeters>35855.37845837</DistanceMeters>
          </Trackpoint>
          <Trackpoint>
            <Time>2020-03-07T14:21:17.000Z</Time>
            <Position>
              <LatitudeDegrees>40.76988908462226390838623046875</LatitudeDegrees>
              <LongitudeDegrees>-3.69381420314311981201171875</LongitudeDegrees>
            </Position>
            <AltitudeMeters>865.20001220703125</AltitudeMeters>
            <DistanceMeters>35863.577782679</DistanceMeters>
          </Trackpoint>
          <Trackpoint>
            <Time>2020-03-07T14:21:18.000Z</Time>
            <Position>
              <LatitudeDegrees>40.76995722949504852294921875</LatitudeDegrees>
              <LongitudeDegrees>-3.69377757422626018524169921875</LongitudeDegrees>
            </Position>
            <AltitudeMeters>864.79998779296875</AltitudeMeters>
            <DistanceMeters>35871.766637768</DistanceMeters>
          </Trackpoint>
          <Trackpoint>
            <Time>2020-03-07T14:21:19.000Z</Time>
            <Position>
              <LatitudeDegrees>40.770027637481689453125</LatitudeDegrees>
              <LongitudeDegrees>-3.693748824298381805419921875</LongitudeDegrees>
            </Position>
            <AltitudeMeters>864.5999755859375</AltitudeMeters>
            <DistanceMeters>35879.96981579</DistanceMeters>
          </Trackpoint>
          <Trackpoint>
            <Time>2020-03-07T14:21:20.000Z</Time>
            <Position>
              <LatitudeDegrees>40.77010030858218669891357421875</LatitudeDegrees>
              <LongitudeDegrees>-3.6937312223017215728759765625</LongitudeDegrees>
            </Position>
            <AltitudeMeters>864.4000244140625</AltitudeMeters>
            <DistanceMeters>35888.193882459</DistanceMeters>
          </Trackpoint>
          <Trackpoint>
            <Time>2020-03-07T14:21:21.000Z</Time>
            <Position>
              <LatitudeDegrees>40.770174153149127960205078125</LatitudeDegrees>
              <LongitudeDegrees>-3.693723343312740325927734375</LongitudeDegrees>
            </Position>
            <AltitudeMeters>864.20001220703125</AltitudeMeters>
            <DistanceMeters>35896.43988001</DistanceMeters>
          </Trackpoint>
          <Trackpoint>
            <Time>2020-03-07T14:21:22.000Z</Time>
            <Position>
              <LatitudeDegrees>40.7702484168112277984619140625</LatitudeDegrees>
              <LongitudeDegrees>-3.69372460059821605682373046875</LongitudeDegrees>
            </Position>
            <AltitudeMeters>863.79998779296875</AltitudeMeters>
            <DistanceMeters>35904.706658012</DistanceMeters>
          </Trackpoint>
          <Trackpoint>
            <Time>2020-03-07T14:21:23.000Z</Time>
            <Position>
              <LatitudeDegrees>40.77032200992107391357421875</LatitudeDegrees>
              <LongitudeDegrees>-3.693734742701053619384765625</LongitudeDegrees>
            </Position>
            <AltitudeMeters>863.5999755859375</AltitudeMeters>
            <DistanceMeters>35912.942245676</DistanceMeters>
          </Trackpoint>
          <Trackpoint>
            <Time>2020-03-07T14:21:24.000Z</Time>
            <Position>
              <LatitudeDegrees>40.77039484865963459014892578125</LatitudeDegrees>
              <LongitudeDegrees>-3.69375226087868213653564453125</LongitudeDegrees>
            </Position>
            <AltitudeMeters>863.4000244140625</AltitudeMeters>
            <DistanceMeters>35921.182765979</DistanceMeters>
          </Trackpoint>
          <Trackpoint>
            <Time>2020-03-07T14:21:25.000Z</Time>
            <Position>
              <LatitudeDegrees>40.770466513931751251220703125</LatitudeDegrees>
              <LongitudeDegrees>-3.69377707131206989288330078125</LongitudeDegrees>
            </Position>
            <AltitudeMeters>863</AltitudeMeters>
            <DistanceMeters>35929.42876353</DistanceMeters>
          </Trackpoint>
          <Trackpoint>
            <Time>2020-03-07T14:21:26.000Z</Time>
            <Position>
              <LatitudeDegrees>40.7705364190042018890380859375</LatitudeDegrees>
              <LongitudeDegrees>-3.69380724616348743438720703125</LongitudeDegrees>
            </Position>
            <AltitudeMeters>863</AltitudeMeters>
            <DistanceMeters>35937.614309768</DistanceMeters>
          </Trackpoint>
          <Trackpoint>
            <Time>2020-03-07T14:21:27.000Z</Time>
            <Position>
              <LatitudeDegrees>40.7706051506102085113525390625</LatitudeDegrees>
              <LongitudeDegrees>-3.6938421986997127532958984375</LongitudeDegrees>
            </Position>
            <AltitudeMeters>862.79998779296875</AltitudeMeters>
            <DistanceMeters>35945.811981931</DistanceMeters>
          </Trackpoint>
          <Trackpoint>
            <Time>2020-03-07T14:21:28.000Z</Time>
            <Position>
              <LatitudeDegrees>40.77067145146429538726806640625</LatitudeDegrees>
              <LongitudeDegrees>-3.693882264196872711181640625</LongitudeDegrees>
            </Position>
            <AltitudeMeters>862.79998779296875</AltitudeMeters>
            <DistanceMeters>35953.92773067</DistanceMeters>
          </Trackpoint>
          <Trackpoint>
            <Time>2020-03-07T14:21:29.000Z</Time>
            <Position>
              <LatitudeDegrees>40.77073632739484310150146484375</LatitudeDegrees>
              <LongitudeDegrees>-3.6939246766269207000732421875</LongitudeDegrees>
            </Position>
            <AltitudeMeters>862.79998779296875</AltitudeMeters>
            <DistanceMeters>35961.985413316</DistanceMeters>
          </Trackpoint>
          <Trackpoint>
            <Time>2020-03-07T14:21:30.000Z</Time>
            <Position>
              <LatitudeDegrees>40.77080137096345424652099609375</LatitudeDegrees>
              <LongitudeDegrees>-3.69396708905696868896484375</LongitudeDegrees>
            </Position>
            <AltitudeMeters>862.5999755859375</AltitudeMeters>
            <DistanceMeters>35970.059888651</DistanceMeters>
          </Trackpoint>
          <Trackpoint>
            <Time>2020-03-07T14:21:31.000Z</Time>
            <Position>
              <LatitudeDegrees>40.77086674980819225311279296875</LatitudeDegrees>
              <LongitudeDegrees>-3.69400874711573123931884765625</LongitudeDegrees>
            </Position>
            <AltitudeMeters>862.5999755859375</AltitudeMeters>
            <DistanceMeters>35978.139953792</DistanceMeters>
          </Trackpoint>
          <Trackpoint>
            <Time>2020-03-07T14:21:32.000Z</Time>
            <Position>
              <LatitudeDegrees>40.7709313742816448211669921875</LatitudeDegrees>
              <LongitudeDegrees>-3.6940490640699863433837890625</LongitudeDegrees>
            </Position>
            <AltitudeMeters>862.5999755859375</AltitudeMeters>
            <DistanceMeters>35986.095000977</DistanceMeters>
          </Trackpoint>
          <Trackpoint>
            <Time>2020-03-07T14:21:33.000Z</Time>
            <Position>
              <LatitudeDegrees>40.770995914936065673828125</LatitudeDegrees>
              <LongitudeDegrees>-3.694086112082004547119140625</LongitudeDegrees>
            </Position>
            <AltitudeMeters>862.5999755859375</AltitudeMeters>
            <DistanceMeters>35993.927646722</DistanceMeters>
          </Trackpoint>
          <Trackpoint>
            <Time>2020-03-07T14:21:34.000Z</Time>
            <Position>
              <LatitudeDegrees>40.77106095850467681884765625</LatitudeDegrees>
              <LongitudeDegrees>-3.69411821477115154266357421875</LongitudeDegrees>
            </Position>
            <AltitudeMeters>862.5999755859375</AltitudeMeters>
            <DistanceMeters>36001.65583704</DistanceMeters>
          </Trackpoint>
          <Trackpoint>
            <Time>2020-03-07T14:21:35.000Z</Time>
            <Position>
              <LatitudeDegrees>40.7711244933307170867919921875</LatitudeDegrees>
              <LongitudeDegrees>-3.69414688087999820709228515625</LongitudeDegrees>
            </Position>
            <AltitudeMeters>862.5999755859375</AltitudeMeters>
            <DistanceMeters>36009.128587052</DistanceMeters>
          </Trackpoint>
          <Trackpoint>
            <Time>2020-03-07T14:21:36.000Z</Time>
            <Position>
              <LatitudeDegrees>40.77118760906159877777099609375</LatitudeDegrees>
              <LongitudeDegrees>-3.69417202658951282501220703125</LongitudeDegrees>
            </Position>
            <AltitudeMeters>862.5999755859375</AltitudeMeters>
            <DistanceMeters>36016.466593991</DistanceMeters>
          </Trackpoint>
          <Trackpoint>
            <Time>2020-03-07T14:21:37.000Z</Time>
            <Position>
              <LatitudeDegrees>40.77124980278313159942626953125</LatitudeDegrees>
              <LongitudeDegrees>-3.69418996386229991912841796875</LongitudeDegrees>
            </Position>
            <AltitudeMeters>862.5999755859375</AltitudeMeters>
            <DistanceMeters>36023.551662441</DistanceMeters>
          </Trackpoint>
          <Trackpoint>
            <Time>2020-03-07T14:21:38.000Z</Time>
            <Position>
              <LatitudeDegrees>40.77131149359047412872314453125</LatitudeDegrees>
              <LongitudeDegrees>-3.69420320726931095123291015625</LongitudeDegrees>
            </Position>
            <AltitudeMeters>862.5999755859375</AltitudeMeters>
            <DistanceMeters>36030.508111224</DistanceMeters>
          </Trackpoint>
          <Trackpoint>
            <Time>2020-03-07T14:21:39.000Z</Time>
            <Position>
              <LatitudeDegrees>40.7713719271123409271240234375</LatitudeDegrees>
              <LongitudeDegrees>-3.694213517010211944580078125</LongitudeDegrees>
            </Position>
            <AltitudeMeters>862.5999755859375</AltitudeMeters>
            <DistanceMeters>36037.291048602</DistanceMeters>
          </Trackpoint>
          <Trackpoint>
            <Time>2020-03-07T14:21:40.000Z</Time>
            <Position>
              <LatitudeDegrees>40.7714312709867954254150390625</LatitudeDegrees>
              <LongitudeDegrees>-3.69422080926597118377685546875</LongitudeDegrees>
            </Position>
            <AltitudeMeters>862.5999755859375</AltitudeMeters>
            <DistanceMeters>36043.925247317</DistanceMeters>
          </Trackpoint>
          <Trackpoint>
            <Time>2020-03-07T14:21:41.000Z</Time>
            <Position>
              <LatitudeDegrees>40.77148986048996448516845703125</LatitudeDegrees>
              <LongitudeDegrees>-3.6942257545888423919677734375</LongitudeDegrees>
            </Position>
            <AltitudeMeters>862.5999755859375</AltitudeMeters>
            <DistanceMeters>36050.460709166</DistanceMeters>
          </Trackpoint>
          <Trackpoint>
            <Time>2020-03-07T14:21:42.000Z</Time>
            <Position>
              <LatitudeDegrees>40.77154752798378467559814453125</LatitudeDegrees>
              <LongitudeDegrees>-3.69422768242657184600830078125</LongitudeDegrees>
            </Position>
            <AltitudeMeters>862.5999755859375</AltitudeMeters>
            <DistanceMeters>36056.881168571</DistanceMeters>
          </Trackpoint>
          <Trackpoint>
            <Time>2020-03-07T14:21:43.000Z</Time>
            <Position>
              <LatitudeDegrees>40.77160385437309741973876953125</LatitudeDegrees>
              <LongitudeDegrees>-3.694226928055286407470703125</LongitudeDegrees>
            </Position>
            <AltitudeMeters>862.79998779296875</AltitudeMeters>
            <DistanceMeters>36063.151491755</DistanceMeters>
          </Trackpoint>
          <Trackpoint>
            <Time>2020-03-07T14:21:44.000Z</Time>
            <Position>
              <LatitudeDegrees>40.77165833674371242523193359375</LatitudeDegrees>
              <LongitudeDegrees>-3.6942244134843349456787109375</LongitudeDegrees>
            </Position>
            <AltitudeMeters>863</AltitudeMeters>
            <DistanceMeters>36069.21982363</DistanceMeters>
          </Trackpoint>
          <Trackpoint>
            <Time>2020-03-07T14:21:45.000Z</Time>
            <Position>
              <LatitudeDegrees>40.77171097509562969207763671875</LatitudeDegrees>
              <LongitudeDegrees>-3.69421946816146373748779296875</LongitudeDegrees>
            </Position>
            <AltitudeMeters>863</AltitudeMeters>
            <DistanceMeters>36075.093827553</DistanceMeters>
          </Trackpoint>
          <Trackpoint>
            <Time>2020-03-07T14:21:46.000Z</Time>
            <Position>
              <LatitudeDegrees>40.77176378108561038970947265625</LatitudeDegrees>
              <LongitudeDegrees>-3.69421460665762424468994140625</LongitudeDegrees>
            </Position>
            <AltitudeMeters>863.20001220703125</AltitudeMeters>
            <DistanceMeters>36080.98471745</DistanceMeters>
          </Trackpoint>
          <Trackpoint>
            <Time>2020-03-07T14:21:47.000Z</Time>
            <Position>
              <LatitudeDegrees>40.771816335618495941162109375</LatitudeDegrees>
              <LongitudeDegrees>-3.69420924223959445953369140625</LongitudeDegrees>
            </Position>
            <AltitudeMeters>863.20001220703125</AltitudeMeters>
            <DistanceMeters>36086.851029863</DistanceMeters>
          </Trackpoint>
          <Trackpoint>
            <Time>2020-03-07T14:21:48.000Z</Time>
            <Position>
              <LatitudeDegrees>40.77186872251331806182861328125</LatitudeDegrees>
              <LongitudeDegrees>-3.69420169852674007415771484375</LongitudeDegrees>
            </Position>
            <AltitudeMeters>863.4000244140625</AltitudeMeters>
            <DistanceMeters>36092.71657257</DistanceMeters>
          </Trackpoint>
          <Trackpoint>
            <Time>2020-03-07T14:21:49.000Z</Time>
            <Position>
              <LatitudeDegrees>40.7719207741320133209228515625</LatitudeDegrees>
              <LongitudeDegrees>-3.6941932328045368194580078125</LongitudeDegrees>
            </Position>
            <AltitudeMeters>863.5999755859375</AltitudeMeters>
            <DistanceMeters>36098.553564811</DistanceMeters>
          </Trackpoint>
          <Trackpoint>
            <Time>2020-03-07T14:21:50.000Z</Time>
            <Position>
              <LatitudeDegrees>40.77197282575070858001708984375</LatitudeDegrees>
              <LongitudeDegrees>-3.69418426416814327239990234375</LongitudeDegrees>
            </Position>
            <AltitudeMeters>864</AltitudeMeters>
            <DistanceMeters>36104.395969193</DistanceMeters>
          </Trackpoint>
          <Trackpoint>
            <Time>2020-03-07T14:21:51.000Z</Time>
            <Position>
              <LatitudeDegrees>40.77202512882649898529052734375</LatitudeDegrees>
              <LongitudeDegrees>-3.6941744573414325714111328125</LongitudeDegrees>
            </Position>
            <AltitudeMeters>864.4000244140625</AltitudeMeters>
            <DistanceMeters>36110.276119081</DistanceMeters>
          </Trackpoint>
          <Trackpoint>
            <Time>2020-03-07T14:21:52.000Z</Time>
            <Position>
              <LatitudeDegrees>40.77207709662616252899169921875</LatitudeDegrees>
              <LongitudeDegrees>-3.694163896143436431884765625</LongitudeDegrees>
            </Position>
            <AltitudeMeters>864.5999755859375</AltitudeMeters>
            <DistanceMeters>36116.127789772</DistanceMeters>
          </Trackpoint>
          <Trackpoint>
            <Time>2020-03-07T14:21:53.000Z</Time>
            <Position>
              <LatitudeDegrees>40.7721296511590480804443359375</LatitudeDegrees>
              <LongitudeDegrees>-3.694152496755123138427734375</LongitudeDegrees>
            </Position>
            <AltitudeMeters>865</AltitudeMeters>
            <DistanceMeters>36122.054593073</DistanceMeters>
          </Trackpoint>
          <Trackpoint>
            <Time>2020-03-07T14:21:54.000Z</Time>
            <Position>
              <LatitudeDegrees>40.7721829600632190704345703125</LatitudeDegrees>
              <LongitudeDegrees>-3.69413799606263637542724609375</LongitudeDegrees>
            </Position>
            <AltitudeMeters>865.20001220703125</AltitudeMeters>
            <DistanceMeters>36128.112499532</DistanceMeters>
          </Trackpoint>
          <Trackpoint>
            <Time>2020-03-07T14:21:55.000Z</Time>
            <Position>
              <LatitudeDegrees>40.7722372747957706451416015625</LatitudeDegrees>
              <LongitudeDegrees>-3.694120310246944427490234375</LongitudeDegrees>
            </Position>
            <AltitudeMeters>865.4000244140625</AltitudeMeters>
            <DistanceMeters>36134.338018634</DistanceMeters>
          </Trackpoint>
          <Trackpoint>
            <Time>2020-03-07T14:21:56.000Z</Time>
            <Position>
              <LatitudeDegrees>40.772293098270893096923828125</LatitudeDegrees>
              <LongitudeDegrees>-3.69410254061222076416015625</LongitudeDegrees>
            </Position>
            <AltitudeMeters>865.4000244140625</AltitudeMeters>
            <DistanceMeters>36140.728167747</DistanceMeters>
          </Trackpoint>
          <Trackpoint>
            <Time>2020-03-07T14:21:57.000Z</Time>
            <Position>
              <LatitudeDegrees>40.772350095212459564208984375</LatitudeDegrees>
              <LongitudeDegrees>-3.6940839327871799468994140625</LongitudeDegrees>
            </Position>
            <AltitudeMeters>865.5999755859375</AltitudeMeters>
            <DistanceMeters>36147.263629596</DistanceMeters>
          </Trackpoint>
          <Trackpoint>
            <Time>2020-03-07T14:21:58.000Z</Time>
            <Position>
              <LatitudeDegrees>40.772407092154026031494140625</LatitudeDegrees>
              <LongitudeDegrees>-3.6940629780292510986328125</LongitudeDegrees>
            </Position>
            <AltitudeMeters>865.5999755859375</AltitudeMeters>
            <DistanceMeters>36153.84864494</DistanceMeters>
          </Trackpoint>
          <Trackpoint>
            <Time>2020-03-07T14:21:59.000Z</Time>
            <Position>
              <LatitudeDegrees>40.772465430200099945068359375</LatitudeDegrees>
              <LongitudeDegrees>-3.69404059834778308868408203125</LongitudeDegrees>
            </Position>
            <AltitudeMeters>865.5999755859375</AltitudeMeters>
            <DistanceMeters>36160.610915795</DistanceMeters>
          </Trackpoint>
          <Trackpoint>
            <Time>2020-03-07T14:22:00.000Z</Time>
            <Position>
              <LatitudeDegrees>40.77252519316971302032470703125</LatitudeDegrees>
              <LongitudeDegrees>-3.6940202303230762481689453125</LongitudeDegrees>
            </Position>
            <AltitudeMeters>865.5999755859375</AltitudeMeters>
            <DistanceMeters>36167.480499443</DistanceMeters>
          </Trackpoint>
          <Trackpoint>
            <Time>2020-03-07T14:22:01.000Z</Time>
            <Position>
              <LatitudeDegrees>40.7725849561393260955810546875</LatitudeDegrees>
              <LongitudeDegrees>-3.69399885646998882293701171875</LongitudeDegrees>
            </Position>
            <AltitudeMeters>865.5999755859375</AltitudeMeters>
            <DistanceMeters>36174.37173823</DistanceMeters>
          </Trackpoint>
          <Trackpoint>
            <Time>2020-03-07T14:22:02.000Z</Time>
            <Position>
              <LatitudeDegrees>40.77264455147087574005126953125</LatitudeDegrees>
              <LongitudeDegrees>-3.69397454895079135894775390625</LongitudeDegrees>
            </Position>
            <AltitudeMeters>865.5999755859375</AltitudeMeters>
            <DistanceMeters>36181.313242959</DistanceMeters>
          </Trackpoint>
          <Trackpoint>
            <Time>2020-03-07T14:22:03.000Z</Time>
            <Position>
              <LatitudeDegrees>40.7727049849927425384521484375</LatitudeDegrees>
              <LongitudeDegrees>-3.69395099580287933349609375</LongitudeDegrees>
            </Position>
            <AltitudeMeters>865.5999755859375</AltitudeMeters>
            <DistanceMeters>36188.325931196</DistanceMeters>
          </Trackpoint>
          <Trackpoint>
            <Time>2020-03-07T14:22:04.000Z</Time>
            <Position>
              <LatitudeDegrees>40.772766508162021636962890625</LatitudeDegrees>
              <LongitudeDegrees>-3.6939276941120624542236328125</LongitudeDegrees>
            </Position>
            <AltitudeMeters>865.5999755859375</AltitudeMeters>
            <DistanceMeters>36195.449766513</DistanceMeters>
          </Trackpoint>
          <Trackpoint>
            <Time>2020-03-07T14:22:05.000Z</Time>
            <Position>
              <LatitudeDegrees>40.7728287018835544586181640625</LatitudeDegrees>
              <LongitudeDegrees>-3.69390447624027729034423828125</LongitudeDegrees>
            </Position>
            <AltitudeMeters>865.4000244140625</AltitudeMeters>
            <DistanceMeters>36202.643608886</DistanceMeters>
          </Trackpoint>
          <Trackpoint>
            <Time>2020-03-07T14:22:06.000Z</Time>
            <Position>
              <LatitudeDegrees>40.772890560328960418701171875</LatitudeDegrees>
              <LongitudeDegrees>-3.693878240883350372314453125</LongitudeDegrees>
            </Position>
            <AltitudeMeters>865</AltitudeMeters>
            <DistanceMeters>36209.874386342</DistanceMeters>
          </Trackpoint>
          <Trackpoint>
            <Time>2020-03-07T14:22:07.000Z</Time>
            <Position>
              <LatitudeDegrees>40.77295283786952495574951171875</LatitudeDegrees>
              <LongitudeDegrees>-3.69385032914578914642333984375</LongitudeDegrees>
            </Position>
            <AltitudeMeters>865</AltitudeMeters>
            <DistanceMeters>36217.193911159</DistanceMeters>
          </Trackpoint>
          <Trackpoint>
            <Time>2020-03-07T14:22:08.000Z</Time>
            <Position>
              <LatitudeDegrees>40.77301637269556522369384765625</LatitudeDegrees>
              <LongitudeDegrees>-3.69382266886532306671142578125</LongitudeDegrees>
            </Position>
            <AltitudeMeters>864.5999755859375</AltitudeMeters>
            <DistanceMeters>36224.640028896</DistanceMeters>
          </Trackpoint>
          <Trackpoint>
            <Time>2020-03-07T14:22:09.000Z</Time>
            <Position>
              <LatitudeDegrees>40.7730804942548274993896484375</LatitudeDegrees>
              <LongitudeDegrees>-3.69379467330873012542724609375</LongitudeDegrees>
            </Position>
            <AltitudeMeters>864.4000244140625</AltitudeMeters>
            <DistanceMeters>36232.15675613</DistanceMeters>
          </Trackpoint>
          <Trackpoint>
            <Time>2020-03-07T14:22:10.000Z</Time>
            <Position>
              <LatitudeDegrees>40.77314545400440692901611328125</LatitudeDegrees>
              <LongitudeDegrees>-3.69376282207667827606201171875</LongitudeDegrees>
            </Position>
            <AltitudeMeters>864.20001220703125</AltitudeMeters>
            <DistanceMeters>36239.868570668</DistanceMeters>
          </Trackpoint>
          <Trackpoint>
            <Time>2020-03-07T14:22:11.000Z</Time>
            <Position>
              <LatitudeDegrees>40.7732112519443035125732421875</LatitudeDegrees>
              <LongitudeDegrees>-3.69372627697885036468505859375</LongitudeDegrees>
            </Position>
            <AltitudeMeters>864</AltitudeMeters>
            <DistanceMeters>36247.813963321</DistanceMeters>
          </Trackpoint>
          <Trackpoint>
            <Time>2020-03-07T14:22:12.000Z</Time>
            <Position>
              <LatitudeDegrees>40.77327688224613666534423828125</LatitudeDegrees>
              <LongitudeDegrees>-3.69368688203394412994384765625</LongitudeDegrees>
            </Position>
            <AltitudeMeters>863.79998779296875</AltitudeMeters>
            <DistanceMeters>36255.837955161</DistanceMeters>
          </Trackpoint>
          <Trackpoint>
            <Time>2020-03-07T14:22:13.000Z</Time>
            <Position>
              <LatitudeDegrees>40.77334159053862094879150390625</LatitudeDegrees>
              <LongitudeDegrees>-3.69364547543227672576904296875</LongitudeDegrees>
            </Position>
            <AltitudeMeters>863.5999755859375</AltitudeMeters>
            <DistanceMeters>36263.840536129</DistanceMeters>
          </Trackpoint>
          <Trackpoint>
            <Time>2020-03-07T14:22:14.000Z</Time>
            <Position>
              <LatitudeDegrees>40.773405544459819793701171875</LatitudeDegrees>
              <LongitudeDegrees>-3.69360054843127727508544921875</LongitudeDegrees>
            </Position>
            <AltitudeMeters>863.5999755859375</AltitudeMeters>
            <DistanceMeters>36271.903260254</DistanceMeters>
          </Trackpoint>
          <Trackpoint>
            <Time>2020-03-07T14:22:15.000Z</Time>
            <Position>
              <LatitudeDegrees>40.77346681617200374603271484375</LatitudeDegrees>
              <LongitudeDegrees>-3.69355226866900920867919921875</LongitudeDegrees>
            </Position>
            <AltitudeMeters>863.4000244140625</AltitudeMeters>
            <DistanceMeters>36279.844674101</DistanceMeters>
          </Trackpoint>
          <Trackpoint>
            <Time>2020-03-07T14:22:16.000Z</Time>
            <Position>
              <LatitudeDegrees>40.77352590858936309814453125</LatitudeDegrees>
              <LongitudeDegrees>-3.6934998817741870880126953125</LongitudeDegrees>
            </Position>
            <AltitudeMeters>863</AltitudeMeters>
            <DistanceMeters>36287.766163936</DistanceMeters>
          </Trackpoint>
          <Trackpoint>
            <Time>2020-03-07T14:22:17.000Z</Time>
            <Position>
              <LatitudeDegrees>40.77358223497867584228515625</LatitudeDegrees>
              <LongitudeDegrees>-3.69344447739422321319580078125</LongitudeDegrees>
            </Position>
            <AltitudeMeters>862.79998779296875</AltitudeMeters>
            <DistanceMeters>36295.583230348</DistanceMeters>
          </Trackpoint>
          <Trackpoint>
            <Time>2020-03-07T14:22:18.000Z</Time>
            <Position>
              <LatitudeDegrees>40.7736365497112274169921875</LatitudeDegrees>
              <LongitudeDegrees>-3.6933855526149272918701171875</LongitudeDegrees>
            </Position>
            <AltitudeMeters>862.4000244140625</AltitudeMeters>
            <DistanceMeters>36303.407224738</DistanceMeters>
          </Trackpoint>
          <Trackpoint>
            <Time>2020-03-07T14:22:19.000Z</Time>
            <Position>
              <LatitudeDegrees>40.77368759550154209136962890625</LatitudeDegrees>
              <LongitudeDegrees>-3.69332277216017246246337890625</LongitudeDegrees>
            </Position>
            <AltitudeMeters>862.20001220703125</AltitudeMeters>
            <DistanceMeters>36311.171552806</DistanceMeters>
          </Trackpoint>
          <Trackpoint>
            <Time>2020-03-07T14:22:20.000Z</Time>
            <Position>
              <LatitudeDegrees>40.77373654581606388092041015625</LatitudeDegrees>
              <LongitudeDegrees>-3.69325739331543445587158203125</LongitudeDegrees>
            </Position>
            <AltitudeMeters>862</AltitudeMeters>
            <DistanceMeters>36318.920746851</DistanceMeters>
          </Trackpoint>
          <Trackpoint>
            <Time>2020-03-07T14:22:21.000Z</Time>
            <Position>
              <LatitudeDegrees>40.773783735930919647216796875</LatitudeDegrees>
              <LongitudeDegrees>-3.6931897513568401336669921875</LongitudeDegrees>
            </Position>
            <AltitudeMeters>860.5999755859375</AltitudeMeters>
            <DistanceMeters>36326.67285358</DistanceMeters>
          </Trackpoint>
          <Trackpoint>
            <Time>2020-03-07T14:22:22.000Z</Time>
            <Position>
              <LatitudeDegrees>40.77383008785545825958251953125</LatitudeDegrees>
              <LongitudeDegrees>-3.69312110356986522674560546875</LongitudeDegrees>
            </Position>
            <AltitudeMeters>860.20001220703125</AltitudeMeters>
            <DistanceMeters>36334.424960309</DistanceMeters>
          </Trackpoint>
          <Trackpoint>
            <Time>2020-03-07T14:22:23.000Z</Time>
            <Position>
              <LatitudeDegrees>40.77387618832290172576904296875</LatitudeDegrees>
              <LongitudeDegrees>-3.69305220432579517364501953125</LongitudeDegrees>
            </Position>
            <AltitudeMeters>860</AltitudeMeters>
            <DistanceMeters>36342.174154354</DistanceMeters>
          </Trackpoint>
          <Trackpoint>
            <Time>2020-03-07T14:22:24.000Z</Time>
            <Position>
              <LatitudeDegrees>40.7739230431616306304931640625</LatitudeDegrees>
              <LongitudeDegrees>-3.69298271834850311279296875</LongitudeDegrees>
            </Position>
            <AltitudeMeters>859.79998779296875</AltitudeMeters>
            <DistanceMeters>36350.017169127</DistanceMeters>
          </Trackpoint>
          <Trackpoint>
            <Time>2020-03-07T14:22:25.000Z</Time>
            <Position>
              <LatitudeDegrees>40.7739709876477718353271484375</LatitudeDegrees>
              <LongitudeDegrees>-3.692913316190242767333984375</LongitudeDegrees>
            </Position>
            <AltitudeMeters>859.5999755859375</AltitudeMeters>
            <DistanceMeters>36357.935808583</DistanceMeters>
          </Trackpoint>
          <Trackpoint>
            <Time>2020-03-07T14:22:26.000Z</Time>
            <Position>
              <LatitudeDegrees>40.77402102760970592498779296875</LatitudeDegrees>
              <LongitudeDegrees>-3.69284433312714099884033203125</LongitudeDegrees>
            </Position>
            <AltitudeMeters>859.5999755859375</AltitudeMeters>
            <DistanceMeters>36365.987885884</DistanceMeters>
          </Trackpoint>
          <Trackpoint>
            <Time>2020-03-07T14:22:27.000Z</Time>
            <Position>
              <LatitudeDegrees>40.77407282777130603790283203125</LatitudeDegrees>
              <LongitudeDegrees>-3.692775182425975799560546875</LongitudeDegrees>
            </Position>
            <AltitudeMeters>859.4000244140625</AltitudeMeters>
            <DistanceMeters>36374.1861088</DistanceMeters>
          </Trackpoint>
          <Trackpoint>
            <Time>2020-03-07T14:22:28.000Z</Time>
            <Position>
              <LatitudeDegrees>40.7741258852183818817138671875</LatitudeDegrees>
              <LongitudeDegrees>-3.692704774439334869384765625</LongitudeDegrees>
            </Position>
            <AltitudeMeters>859.4000244140625</AltitudeMeters>
            <DistanceMeters>36382.558172665</DistanceMeters>
          </Trackpoint>
          <Trackpoint>
            <Time>2020-03-07T14:22:29.000Z</Time>
            <Position>
              <LatitudeDegrees>40.77418246306478977203369140625</LatitudeDegrees>
              <LongitudeDegrees>-3.6926352046430110931396484375</LongitudeDegrees>
            </Position>
            <AltitudeMeters>859.4000244140625</AltitudeMeters>
            <DistanceMeters>36391.163207635</DistanceMeters>
          </Trackpoint>
          <Trackpoint>
            <Time>2020-03-07T14:22:30.000Z</Time>
            <Position>
              <LatitudeDegrees>40.77424339950084686279296875</LatitudeDegrees>
              <LongitudeDegrees>-3.6925701610743999481201171875</LongitudeDegrees>
            </Position>
            <AltitudeMeters>859.20001220703125</AltitudeMeters>
            <DistanceMeters>36399.884465221</DistanceMeters>
          </Trackpoint>
          <Trackpoint>
            <Time>2020-03-07T14:22:31.000Z</Time>
            <Position>
              <LatitudeDegrees>40.77430802397429943084716796875</LatitudeDegrees>
              <LongitudeDegrees>-3.692510984838008880615234375</LongitudeDegrees>
            </Position>
            <AltitudeMeters>859.20001220703125</AltitudeMeters>
            <DistanceMeters>36408.63724584</DistanceMeters>
          </Trackpoint>
          <Trackpoint>
            <Time>2020-03-07T14:22:32.000Z</Time>
            <Position>
              <LatitudeDegrees>40.7743766717612743377685546875</LatitudeDegrees>
              <LongitudeDegrees>-3.6924601905047893524169921875</LongitudeDegrees>
            </Position>
            <AltitudeMeters>859</AltitudeMeters>
            <DistanceMeters>36417.395698865</DistanceMeters>
          </Trackpoint>
          <Trackpoint>
            <Time>2020-03-07T14:22:33.000Z</Time>
            <Position>
              <LatitudeDegrees>40.7744470797479152679443359375</LatitudeDegrees>
              <LongitudeDegrees>-3.6924152635037899017333984375</LongitudeDegrees>
            </Position>
            <AltitudeMeters>859</AltitudeMeters>
            <DistanceMeters>36426.098817915</DistanceMeters>
          </Trackpoint>
          <Trackpoint>
            <Time>2020-03-07T14:22:34.000Z</Time>
            <Position>
              <LatitudeDegrees>40.77451832592487335205078125</LatitudeDegrees>
              <LongitudeDegrees>-3.6923730187118053436279296875</LongitudeDegrees>
            </Position>
            <AltitudeMeters>858.79998779296875</AltitudeMeters>
            <DistanceMeters>36434.791035677</DistanceMeters>
          </Trackpoint>
          <Trackpoint>
            <Time>2020-03-07T14:22:35.000Z</Time>
            <Position>
              <LatitudeDegrees>40.77458999119699001312255859375</LatitudeDegrees>
              <LongitudeDegrees>-3.692333288490772247314453125</LongitudeDegrees>
            </Position>
            <AltitudeMeters>858.5999755859375</AltitudeMeters>
            <DistanceMeters>36443.442120786</DistanceMeters>
          </Trackpoint>
          <Trackpoint>
            <Time>2020-03-07T14:22:36.000Z</Time>
            <Position>
              <LatitudeDegrees>40.77466073445975780487060546875</LatitudeDegrees>
              <LongitudeDegrees>-3.69229473173618316650390625</LongitudeDegrees>
            </Position>
            <AltitudeMeters>858.4000244140625</AltitudeMeters>
            <DistanceMeters>36451.959610683</DistanceMeters>
          </Trackpoint>
          <Trackpoint>
            <Time>2020-03-07T14:22:37.000Z</Time>
            <Position>
              <LatitudeDegrees>40.77473063953220844268798828125</LatitudeDegrees>
              <LongitudeDegrees>-3.69225575588643550872802734375</LongitudeDegrees>
            </Position>
            <AltitudeMeters>858.20001220703125</AltitudeMeters>
            <DistanceMeters>36460.404700603</DistanceMeters>
          </Trackpoint>
          <Trackpoint>
            <Time>2020-03-07T14:22:38.000Z</Time>
            <Position>
              <LatitudeDegrees>40.7748004607856273651123046875</LatitudeDegrees>
              <LongitudeDegrees>-3.6922171153128147125244140625</LongitudeDegrees>
            </Position>
            <AltitudeMeters>858</AltitudeMeters>
            <DistanceMeters>36468.830521691</DistanceMeters>
          </Trackpoint>
          <Trackpoint>
            <Time>2020-03-07T14:22:39.000Z</Time>
            <Position>
              <LatitudeDegrees>40.7748698629438877105712890625</LatitudeDegrees>
              <LongitudeDegrees>-3.69218065403401851654052734375</LongitudeDegrees>
            </Position>
            <AltitudeMeters>857.79998779296875</AltitudeMeters>
            <DistanceMeters>36477.144137336</DistanceMeters>
          </Trackpoint>
          <Trackpoint>
            <Time>2020-03-07T14:22:40.000Z</Time>
            <Position>
              <LatitudeDegrees>40.7749399356544017791748046875</LatitudeDegrees>
              <LongitudeDegrees>-3.692144192755222320556640625</LongitudeDegrees>
            </Position>
            <AltitudeMeters>857.4000244140625</AltitudeMeters>
            <DistanceMeters>36485.526980224</DistanceMeters>
          </Trackpoint>
          <Trackpoint>
            <Time>2020-03-07T14:22:41.000Z</Time>
            <Position>
              <LatitudeDegrees>40.77501059509813785552978515625</LatitudeDegrees>
              <LongitudeDegrees>-3.6921068094670772552490234375</LongitudeDegrees>
            </Position>
            <AltitudeMeters>857.20001220703125</AltitudeMeters>
            <DistanceMeters>36493.998759705</DistanceMeters>
          </Trackpoint>
          <Trackpoint>
            <Time>2020-03-07T14:22:42.000Z</Time>
            <Position>
              <LatitudeDegrees>40.77508150599896907806396484375</LatitudeDegrees>
              <LongitudeDegrees>-3.6920682527124881744384765625</LongitudeDegrees>
            </Position>
            <AltitudeMeters>857.20001220703125</AltitudeMeters>
            <DistanceMeters>36502.533724654</DistanceMeters>
          </Trackpoint>
          <Trackpoint>
            <Time>2020-03-07T14:22:43.000Z</Time>
            <Position>
              <LatitudeDegrees>40.7751531712710857391357421875</LatitudeDegrees>
              <LongitudeDegrees>-3.69202827103435993194580078125</LongitudeDegrees>
            </Position>
            <AltitudeMeters>857</AltitudeMeters>
            <DistanceMeters>36511.193156205</DistanceMeters>
          </Trackpoint>
          <Trackpoint>
            <Time>2020-03-07T14:22:44.000Z</Time>
            <Position>
              <LatitudeDegrees>40.775225423276424407958984375</LatitudeDegrees>
              <LongitudeDegrees>-3.69198636151850223541259765625</LongitudeDegrees>
            </Position>
            <AltitudeMeters>856.79998779296875</AltitudeMeters>
            <DistanceMeters>36519.97631868</DistanceMeters>
          </Trackpoint>
          <Trackpoint>
            <Time>2020-03-07T14:22:45.000Z</Time>
            <Position>
              <LatitudeDegrees>40.77529750764369964599609375</LatitudeDegrees>
              <LongitudeDegrees>-3.691944368183612823486328125</LongitudeDegrees>
            </Position>
            <AltitudeMeters>856.5999755859375</AltitudeMeters>
            <DistanceMeters>36528.745075771</DistanceMeters>
          </Trackpoint>
          <Trackpoint>
            <Time>2020-03-07T14:22:46.000Z</Time>
            <Position>
              <LatitudeDegrees>40.7753694243729114532470703125</LatitudeDegrees>
              <LongitudeDegrees>-3.69190170429646968841552734375</LongitudeDegrees>
            </Position>
            <AltitudeMeters>856.4000244140625</AltitudeMeters>
            <DistanceMeters>36537.520009494</DistanceMeters>
          </Trackpoint>
          <Trackpoint>
            <Time>2020-03-07T14:22:47.000Z</Time>
            <Position>
              <LatitudeDegrees>40.77544100582599639892578125</LatitudeDegrees>
              <LongitudeDegrees>-3.69185862131416797637939453125</LongitudeDegrees>
            </Position>
            <AltitudeMeters>856.4000244140625</AltitudeMeters>
            <DistanceMeters>36546.275884608</DistanceMeters>
          </Trackpoint>
          <Trackpoint>
            <Time>2020-03-07T14:22:48.000Z</Time>
            <Position>
              <LatitudeDegrees>40.77551183290779590606689453125</LatitudeDegrees>
              <LongitudeDegrees>-3.6918131075799465179443359375</LongitudeDegrees>
            </Position>
            <AltitudeMeters>856.4000244140625</AltitudeMeters>
            <DistanceMeters>36555.043096861</DistanceMeters>
          </Trackpoint>
          <Trackpoint>
            <Time>2020-03-07T14:22:49.000Z</Time>
            <Position>
              <LatitudeDegrees>40.77558190561830997467041015625</LatitudeDegrees>
              <LongitudeDegrees>-3.69176440872251987457275390625</LongitudeDegrees>
            </Position>
            <AltitudeMeters>856.20001220703125</AltitudeMeters>
            <DistanceMeters>36563.85653646</DistanceMeters>
          </Trackpoint>
          <Trackpoint>
            <Time>2020-03-07T14:22:50.000Z</Time>
            <Position>
              <LatitudeDegrees>40.775651223957538604736328125</LatitudeDegrees>
              <LongitudeDegrees>-3.69171202182769775390625</LongitudeDegrees>
            </Position>
            <AltitudeMeters>856.20001220703125</AltitudeMeters>
            <DistanceMeters>36572.745471654</DistanceMeters>
          </Trackpoint>
          <Trackpoint>
            <Time>2020-03-07T14:22:51.000Z</Time>
            <Position>
              <LatitudeDegrees>40.775719620287418365478515625</LatitudeDegrees>
              <LongitudeDegrees>-3.691657371819019317626953125</LongitudeDegrees>
            </Position>
            <AltitudeMeters>856.20001220703125</AltitudeMeters>
            <DistanceMeters>36581.642530163</DistanceMeters>
          </Trackpoint>
          <Trackpoint>
            <Time>2020-03-07T14:22:52.000Z</Time>
            <Position>
              <LatitudeDegrees>40.7757876813411712646484375</LatitudeDegrees>
              <LongitudeDegrees>-3.6916025541722774505615234375</LongitudeDegrees>
            </Position>
            <AltitudeMeters>856</AltitudeMeters>
            <DistanceMeters>36590.515196416</DistanceMeters>
          </Trackpoint>
          <Trackpoint>
            <Time>2020-03-07T14:22:53.000Z</Time>
            <Position>
              <LatitudeDegrees>40.77585674822330474853515625</LatitudeDegrees>
              <LongitudeDegrees>-3.69155117310583591461181640625</LongitudeDegrees>
            </Position>
            <AltitudeMeters>856</AltitudeMeters>
            <DistanceMeters>36599.338364159</DistanceMeters>
          </Trackpoint>
          <Trackpoint>
            <Time>2020-03-07T14:22:54.000Z</Time>
            <Position>
              <LatitudeDegrees>40.77592690475285053253173828125</LatitudeDegrees>
              <LongitudeDegrees>-3.69150339625775814056396484375</LongitudeDegrees>
            </Position>
            <AltitudeMeters>856</AltitudeMeters>
            <DistanceMeters>36608.124096539</DistanceMeters>
          </Trackpoint>
          <Trackpoint>
            <Time>2020-03-07T14:22:55.000Z</Time>
            <Position>
              <LatitudeDegrees>40.7759980671107769012451171875</LatitudeDegrees>
              <LongitudeDegrees>-3.69145830161869525909423828125</LongitudeDegrees>
            </Position>
            <AltitudeMeters>856</AltitudeMeters>
            <DistanceMeters>36616.909828918</DistanceMeters>
          </Trackpoint>
          <Trackpoint>
            <Time>2020-03-07T14:22:56.000Z</Time>
            <Position>
              <LatitudeDegrees>40.77607157640159130096435546875</LatitudeDegrees>
              <LongitudeDegrees>-3.69141806848347187042236328125</LongitudeDegrees>
            </Position>
            <AltitudeMeters>855.79998779296875</AltitudeMeters>
            <DistanceMeters>36625.7672159</DistanceMeters>
          </Trackpoint>
          <Trackpoint>
            <Time>2020-03-07T14:22:57.000Z</Time>
            <Position>
              <LatitudeDegrees>40.77614642679691314697265625</LatitudeDegrees>
              <LongitudeDegrees>-3.69138278067111968994140625</LongitudeDegrees>
            </Position>
            <AltitudeMeters>855.79998779296875</AltitudeMeters>
            <DistanceMeters>36634.612360461</DistanceMeters>
          </Trackpoint>
          <Trackpoint>
            <Time>2020-03-07T14:22:58.000Z</Time>
            <Position>
              <LatitudeDegrees>40.7762221992015838623046875</LatitudeDegrees>
              <LongitudeDegrees>-3.69135067798197269439697265625</LongitudeDegrees>
            </Position>
            <AltitudeMeters>855.79998779296875</AltitudeMeters>
            <DistanceMeters>36643.469747443</DistanceMeters>
          </Trackpoint>
          <Trackpoint>
            <Time>2020-03-07T14:22:59.000Z</Time>
            <Position>
              <LatitudeDegrees>40.77629855833947658538818359375</LatitudeDegrees>
              <LongitudeDegrees>-3.69132117368280887603759765625</LongitudeDegrees>
            </Position>
            <AltitudeMeters>855.5999755859375</AltitudeMeters>
            <DistanceMeters>36652.325095197</DistanceMeters>
          </Trackpoint>
          <Trackpoint>
            <Time>2020-03-07T14:23:00.000Z</Time>
            <Position>
              <LatitudeDegrees>40.77637600712478160858154296875</LatitudeDegrees>
              <LongitudeDegrees>-3.69129669852554798126220703125</LongitudeDegrees>
            </Position>
            <AltitudeMeters>855.4000244140625</AltitudeMeters>
            <DistanceMeters>36661.188597048</DistanceMeters>
          </Trackpoint>
          <Trackpoint>
            <Time>2020-03-07T14:23:01.000Z</Time>
            <Position>
              <LatitudeDegrees>40.77645479701459407806396484375</LatitudeDegrees>
              <LongitudeDegrees>-3.69128026999533176422119140625</LongitudeDegrees>
            </Position>
            <AltitudeMeters>855.20001220703125</AltitudeMeters>
            <DistanceMeters>36670.066350547</DistanceMeters>
          </Trackpoint>
          <Trackpoint>
            <Time>2020-03-07T14:23:02.000Z</Time>
            <Position>
              <LatitudeDegrees>40.77653400599956512451171875</LatitudeDegrees>
              <LongitudeDegrees>-3.6912713013589382171630859375</LongitudeDegrees>
            </Position>
            <AltitudeMeters>855.20001220703125</AltitudeMeters>
            <DistanceMeters>36678.914557302</DistanceMeters>
          </Trackpoint>
          <Trackpoint>
            <Time>2020-03-07T14:23:03.000Z</Time>
            <Position>
              <LatitudeDegrees>40.77661371789872646331787109375</LatitudeDegrees>
              <LongitudeDegrees>-3.6912635900080204010009765625</LongitudeDegrees>
            </Position>
            <AltitudeMeters>855.20001220703125</AltitudeMeters>
            <DistanceMeters>36687.810600802</DistanceMeters>
          </Trackpoint>
          <Trackpoint>
            <Time>2020-03-07T14:23:04.000Z</Time>
            <Position>
              <LatitudeDegrees>40.7766941003501415252685546875</LatitudeDegrees>
              <LongitudeDegrees>-3.6912501789629459381103515625</LongitudeDegrees>
            </Position>
            <AltitudeMeters>855</AltitudeMeters>
            <DistanceMeters>36696.829131643</DistanceMeters>
          </Trackpoint>
          <Trackpoint>
            <Time>2020-03-07T14:23:05.000Z</Time>
            <Position>
              <LatitudeDegrees>40.77677540481090545654296875</LatitudeDegrees>
              <LongitudeDegrees>-3.69122981093823909759521484375</LongitudeDegrees>
            </Position>
            <AltitudeMeters>855</AltitudeMeters>
            <DistanceMeters>36706.03937258</DistanceMeters>
          </Trackpoint>
          <Trackpoint>
            <Time>2020-03-07T14:23:06.000Z</Time>
            <Position>
              <LatitudeDegrees>40.77685679309070110321044921875</LatitudeDegrees>
              <LongitudeDegrees>-3.6912018992006778717041015625</LongitudeDegrees>
            </Position>
            <AltitudeMeters>855</AltitudeMeters>
            <DistanceMeters>36715.398418552</DistanceMeters>
          </Trackpoint>
          <Trackpoint>
            <Time>2020-03-07T14:23:07.000Z</Time>
            <Position>
              <LatitudeDegrees>40.7769375108182430267333984375</LatitudeDegrees>
              <LongitudeDegrees>-3.69116552174091339111328125</LongitudeDegrees>
            </Position>
            <AltitudeMeters>854.79998779296875</AltitudeMeters>
            <DistanceMeters>36724.89110694</DistanceMeters>
          </Trackpoint>
          <Trackpoint>
            <Time>2020-03-07T14:23:08.000Z</Time>
            <Position>
              <LatitudeDegrees>40.7770186476409435272216796875</LatitudeDegrees>
              <LongitudeDegrees>-3.69112260639667510986328125</LongitudeDegrees>
            </Position>
            <AltitudeMeters>854.79998779296875</AltitudeMeters>
            <DistanceMeters>36734.619169498</DistanceMeters>
          </Trackpoint>
          <Trackpoint>
            <Time>2020-03-07T14:23:09.000Z</Time>
            <Position>
              <LatitudeDegrees>40.77709970064461231231689453125</LatitudeDegrees>
              <LongitudeDegrees>-3.691076003015041351318359375</LongitudeDegrees>
            </Position>
            <AltitudeMeters>854.5999755859375</AltitudeMeters>
            <DistanceMeters>36744.458909313</DistanceMeters>
          </Trackpoint>
          <Trackpoint>
            <Time>2020-03-07T14:23:10.000Z</Time>
            <Position>
              <LatitudeDegrees>40.7771812565624713897705078125</LatitudeDegrees>
              <LongitudeDegrees>-3.69102713651955127716064453125</LongitudeDegrees>
            </Position>
            <AltitudeMeters>854.5999755859375</AltitudeMeters>
            <DistanceMeters>36754.427207121</DistanceMeters>
          </Trackpoint>
          <Trackpoint>
            <Time>2020-03-07T14:23:11.000Z</Time>
            <Position>
              <LatitudeDegrees>40.777263231575489044189453125</LatitudeDegrees>
              <LongitudeDegrees>-3.6909770965576171875</LongitudeDegrees>
            </Position>
            <AltitudeMeters>854.5999755859375</AltitudeMeters>
            <DistanceMeters>36764.478500334</DistanceMeters>
          </Trackpoint>
          <Trackpoint>
            <Time>2020-03-07T14:23:12.000Z</Time>
            <Position>
              <LatitudeDegrees>40.777346380054950714111328125</LatitudeDegrees>
              <LongitudeDegrees>-3.69093040935695171356201171875</LongitudeDegrees>
            </Position>
            <AltitudeMeters>854.5999755859375</AltitudeMeters>
            <DistanceMeters>36774.535182499</DistanceMeters>
          </Trackpoint>
          <Trackpoint>
            <Time>2020-03-07T14:23:13.000Z</Time>
            <Position>
              <LatitudeDegrees>40.7774310372769832611083984375</LatitudeDegrees>
              <LongitudeDegrees>-3.69088866747915744781494140625</LongitudeDegrees>
            </Position>
            <AltitudeMeters>854.4000244140625</AltitudeMeters>
            <DistanceMeters>36784.593211452</DistanceMeters>
          </Trackpoint>
          <Trackpoint>
            <Time>2020-03-07T14:23:14.000Z</Time>
            <Position>
              <LatitudeDegrees>40.77751661650836467742919921875</LatitudeDegrees>
              <LongitudeDegrees>-3.69085296057164669036865234375</LongitudeDegrees>
            </Position>
            <AltitudeMeters>854</AltitudeMeters>
            <DistanceMeters>36794.582322759</DistanceMeters>
          </Trackpoint>
          <Trackpoint>
            <Time>2020-03-07T14:23:15.000Z</Time>
            <Position>
              <LatitudeDegrees>40.77760362066328525543212890625</LatitudeDegrees>
              <LongitudeDegrees>-3.69082731194794178009033203125</LongitudeDegrees>
            </Position>
            <AltitudeMeters>853.5999755859375</AltitudeMeters>
            <DistanceMeters>36804.503858089</DistanceMeters>
          </Trackpoint>
          <Trackpoint>
            <Time>2020-03-07T14:23:16.000Z</Time>
            <Position>
              <LatitudeDegrees>40.7776915468275547027587890625</LatitudeDegrees>
              <LongitudeDegrees>-3.690813817083835601806640625</LongitudeDegrees>
            </Position>
            <AltitudeMeters>852.79998779296875</AltitudeMeters>
            <DistanceMeters>36814.356437537</DistanceMeters>
          </Trackpoint>
          <Trackpoint>
            <Time>2020-03-07T14:23:17.000Z</Time>
            <Position>
              <LatitudeDegrees>40.77777922153472900390625</LatitudeDegrees>
              <LongitudeDegrees>-3.6908079497516155242919921875</LongitudeDegrees>
            </Position>
            <AltitudeMeters>852.20001220703125</AltitudeMeters>
            <DistanceMeters>36824.128030463</DistanceMeters>
          </Trackpoint>
          <Trackpoint>
            <Time>2020-03-07T14:23:18.000Z</Time>
            <Position>
              <LatitudeDegrees>40.7778663933277130126953125</LatitudeDegrees>
              <LongitudeDegrees>-3.6908056028187274932861328125</LongitudeDegrees>
            </Position>
            <AltitudeMeters>851.79998779296875</AltitudeMeters>
            <DistanceMeters>36833.83285902</DistanceMeters>
          </Trackpoint>
          <Trackpoint>
            <Time>2020-03-07T14:23:19.000Z</Time>
            <Position>
              <LatitudeDegrees>40.7779517211019992828369140625</LatitudeDegrees>
              <LongitudeDegrees>-3.690803758800029754638671875</LongitudeDegrees>
            </Position>
            <AltitudeMeters>851.4000244140625</AltitudeMeters>
            <DistanceMeters>36843.331728628</DistanceMeters>
          </Trackpoint>
          <Trackpoint>
            <Time>2020-03-07T14:23:20.000Z</Time>
            <Position>
              <LatitudeDegrees>40.77803461812436580657958984375</LatitudeDegrees>
              <LongitudeDegrees>-3.69080283679068088531494140625</LongitudeDegrees>
            </Position>
            <AltitudeMeters>851</AltitudeMeters>
            <DistanceMeters>36852.55911129</DistanceMeters>
          </Trackpoint>
          <Trackpoint>
            <Time>2020-03-07T14:23:21.000Z</Time>
            <Position>
              <LatitudeDegrees>40.77811575494706630706787109375</LatitudeDegrees>
              <LongitudeDegrees>-3.69080283679068088531494140625</LongitudeDegrees>
            </Position>
            <AltitudeMeters>851</AltitudeMeters>
            <DistanceMeters>36861.589149511</DistanceMeters>
          </Trackpoint>
          <Trackpoint>
            <Time>2020-03-07T14:23:22.000Z</Time>
            <Position>
              <LatitudeDegrees>40.778196640312671661376953125</LatitudeDegrees>
              <LongitudeDegrees>-3.6908019147813320159912109375</LongitudeDegrees>
            </Position>
            <AltitudeMeters>850.79998779296875</AltitudeMeters>
            <DistanceMeters>36870.592147132</DistanceMeters>
          </Trackpoint>
          <Trackpoint>
            <Time>2020-03-07T14:23:23.000Z</Time>
            <Position>
              <LatitudeDegrees>40.77827635221183300018310546875</LatitudeDegrees>
              <LongitudeDegrees>-3.69080032221972942352294921875</LongitudeDegrees>
            </Position>
            <AltitudeMeters>850.5999755859375</AltitudeMeters>
            <DistanceMeters>36879.465831068</DistanceMeters>
          </Trackpoint>
          <Trackpoint>
            <Time>2020-03-07T14:23:24.000Z</Time>
            <Position>
              <LatitudeDegrees>40.77835480682551860809326171875</LatitudeDegrees>
              <LongitudeDegrees>-3.69080007076263427734375</LongitudeDegrees>
            </Position>
            <AltitudeMeters>850.4000244140625</AltitudeMeters>
            <DistanceMeters>36888.19795369</DistanceMeters>
          </Trackpoint>
          <Trackpoint>
            <Time>2020-03-07T14:23:25.000Z</Time>
            <Position>
              <LatitudeDegrees>40.77843292616307735443115234375</LatitudeDegrees>
              <LongitudeDegrees>-3.6908029206097126007080078125</LongitudeDegrees>
            </Position>
            <AltitudeMeters>850.20001220703125</AltitudeMeters>
            <DistanceMeters>36896.895883355</DistanceMeters>
          </Trackpoint>
          <Trackpoint>
            <Time>2020-03-07T14:23:26.000Z</Time>
            <Position>
              <LatitudeDegrees>40.7785102911293506622314453125</LatitudeDegrees>
              <LongitudeDegrees>-3.69080635719001293182373046875</LongitudeDegrees>
            </Position>
            <AltitudeMeters>850</AltitudeMeters>
            <DistanceMeters>36905.511405879</DistanceMeters>
          </Trackpoint>
          <Trackpoint>
            <Time>2020-03-07T14:23:27.000Z</Time>
            <Position>
              <LatitudeDegrees>40.77858681790530681610107421875</LatitudeDegrees>
              <LongitudeDegrees>-3.69081088341772556304931640625</LongitudeDegrees>
            </Position>
            <AltitudeMeters>849.79998779296875</AltitudeMeters>
            <DistanceMeters>36914.037373002</DistanceMeters>
          </Trackpoint>
          <Trackpoint>
            <Time>2020-03-07T14:23:28.000Z</Time>
            <Position>
              <LatitudeDegrees>40.778661668300628662109375</LatitudeDegrees>
              <LongitudeDegrees>-3.69081641547381877899169921875</LongitudeDegrees>
            </Position>
            <AltitudeMeters>849.5999755859375</AltitudeMeters>
            <DistanceMeters>36922.381346239</DistanceMeters>
          </Trackpoint>
          <Trackpoint>
            <Time>2020-03-07T14:23:29.000Z</Time>
            <Position>
              <LatitudeDegrees>40.77873601578176021575927734375</LatitudeDegrees>
              <LongitudeDegrees>-3.69082429446280002593994140625</LongitudeDegrees>
            </Position>
            <AltitudeMeters>849.5999755859375</AltitudeMeters>
            <DistanceMeters>36930.683005315</DistanceMeters>
          </Trackpoint>
          <Trackpoint>
            <Time>2020-03-07T14:23:30.000Z</Time>
            <Position>
              <LatitudeDegrees>40.77881011180579662322998046875</LatitudeDegrees>
              <LongitudeDegrees>-3.69083753786981105804443359375</LongitudeDegrees>
            </Position>
            <AltitudeMeters>849.5999755859375</AltitudeMeters>
            <DistanceMeters>36939.005305858</DistanceMeters>
          </Trackpoint>
          <Trackpoint>
            <Time>2020-03-07T14:23:31.000Z</Time>
            <Position>
              <LatitudeDegrees>40.77888429164886474609375</LatitudeDegrees>
              <LongitudeDegrees>-3.69085564278066158294677734375</LongitudeDegrees>
            </Position>
            <AltitudeMeters>849.5999755859375</AltitudeMeters>
            <DistanceMeters>36947.401603066</DistanceMeters>
          </Trackpoint>
          <Trackpoint>
            <Time>2020-03-07T14:23:32.000Z</Time>
            <Position>
              <LatitudeDegrees>40.77895863912999629974365234375</LatitudeDegrees>
              <LongitudeDegrees>-3.690876178443431854248046875</LongitudeDegrees>
            </Position>
            <AltitudeMeters>849.4000244140625</AltitudeMeters>
            <DistanceMeters>36955.856310934</DistanceMeters>
          </Trackpoint>
          <Trackpoint>
            <Time>2020-03-07T14:23:33.000Z</Time>
            <Position>
              <LatitudeDegrees>40.77903290279209613800048828125</LatitudeDegrees>
              <LongitudeDegrees>-3.690898306667804718017578125</LongitudeDegrees>
            </Position>
            <AltitudeMeters>849.4000244140625</AltitudeMeters>
            <DistanceMeters>36964.330221948</DistanceMeters>
          </Trackpoint>
          <Trackpoint>
            <Time>2020-03-07T14:23:34.000Z</Time>
            <Position>
              <LatitudeDegrees>40.7791067473590373992919921875</LatitudeDegrees>
              <LongitudeDegrees>-3.690920770168304443359375</LongitudeDegrees>
            </Position>
            <AltitudeMeters>849.4000244140625</AltitudeMeters>
            <DistanceMeters>36972.764612396</DistanceMeters>
          </Trackpoint>
          <Trackpoint>
            <Time>2020-03-07T14:23:35.000Z</Time>
            <Position>
              <LatitudeDegrees>40.77917958609759807586669921875</LatitudeDegrees>
              <LongitudeDegrees>-3.69094566442072391510009765625</LongitudeDegrees>
            </Position>
            <AltitudeMeters>849.4000244140625</AltitudeMeters>
            <DistanceMeters>36981.138833175</DistanceMeters>
          </Trackpoint>
          <Trackpoint>
            <Time>2020-03-07T14:23:36.000Z</Time>
            <Position>
              <LatitudeDegrees>40.7792505808174610137939453125</LatitudeDegrees>
              <LongitudeDegrees>-3.69097064249217510223388671875</LongitudeDegrees>
            </Position>
            <AltitudeMeters>849.4000244140625</AltitudeMeters>
            <DistanceMeters>36989.316653554</DistanceMeters>
          </Trackpoint>
          <Trackpoint>
            <Time>2020-03-07T14:23:37.000Z</Time>
            <Position>
              <LatitudeDegrees>40.77932124026119709014892578125</LatitudeDegrees>
              <LongitudeDegrees>-3.690995872020721435546875</LongitudeDegrees>
            </Position>
            <AltitudeMeters>849.20001220703125</AltitudeMeters>
            <DistanceMeters>36997.463497229</DistanceMeters>
          </Trackpoint>
          <Trackpoint>
            <Time>2020-03-07T14:23:38.000Z</Time>
            <Position>
              <LatitudeDegrees>40.7793907262384891510009765625</LatitudeDegrees>
              <LongitudeDegrees>-3.6910198442637920379638671875</LongitudeDegrees>
            </Position>
            <AltitudeMeters>849.20001220703125</AltitudeMeters>
            <DistanceMeters>37005.457045935</DistanceMeters>
          </Trackpoint>
          <Trackpoint>
            <Time>2020-03-07T14:23:39.000Z</Time>
            <Position>
              <LatitudeDegrees>40.779459960758686065673828125</LatitudeDegrees>
              <LongitudeDegrees>-3.69104322977364063262939453125</LongitudeDegrees>
            </Position>
            <AltitudeMeters>849.20001220703125</AltitudeMeters>
            <DistanceMeters>37013.410957901</DistanceMeters>
          </Trackpoint>
          <Trackpoint>
            <Time>2020-03-07T14:23:40.000Z</Time>
            <Position>
              <LatitudeDegrees>40.77952944673597812652587890625</LatitudeDegrees>
              <LongitudeDegrees>-3.69106770493090152740478515625</LongitudeDegrees>
            </Position>
            <AltitudeMeters>849</AltitudeMeters>
            <DistanceMeters>37021.415795342</DistanceMeters>
          </Trackpoint>
          <Trackpoint>
            <Time>2020-03-07T14:23:41.000Z</Time>
            <Position>
              <LatitudeDegrees>40.779598094522953033447265625</LatitudeDegrees>
              <LongitudeDegrees>-3.691092766821384429931640625</LongitudeDegrees>
            </Position>
            <AltitudeMeters>848.79998779296875</AltitudeMeters>
            <DistanceMeters>37029.343552405</DistanceMeters>
          </Trackpoint>
          <Trackpoint>
            <Time>2020-03-07T14:23:42.000Z</Time>
            <Position>
              <LatitudeDegrees>40.77966724522411823272705078125</LatitudeDegrees>
              <LongitudeDegrees>-3.69111816398799419403076171875</LongitudeDegrees>
            </Position>
            <AltitudeMeters>848.79998779296875</AltitudeMeters>
            <DistanceMeters>37037.332015976</DistanceMeters>
          </Trackpoint>
          <Trackpoint>
            <Time>2020-03-07T14:23:43.000Z</Time>
            <Position>
              <LatitudeDegrees>40.77973664738237857818603515625</LatitudeDegrees>
              <LongitudeDegrees>-3.69114339351654052734375</LongitudeDegrees>
            </Position>
            <AltitudeMeters>848.79998779296875</AltitudeMeters>
            <DistanceMeters>37045.344182564</DistanceMeters>
          </Trackpoint>
          <Trackpoint>
            <Time>2020-03-07T14:23:44.000Z</Time>
            <Position>
              <LatitudeDegrees>40.7798061333596706390380859375</LatitudeDegrees>
              <LongitudeDegrees>-3.6911661922931671142578125</LongitudeDegrees>
            </Position>
            <AltitudeMeters>848.5999755859375</AltitudeMeters>
            <DistanceMeters>37053.312839763</DistanceMeters>
          </Trackpoint>
          <Trackpoint>
            <Time>2020-03-07T14:23:45.000Z</Time>
            <Position>
              <LatitudeDegrees>40.7798758707940578460693359375</LatitudeDegrees>
              <LongitudeDegrees>-3.69118832051753997802734375</LongitudeDegrees>
            </Position>
            <AltitudeMeters>848.5999755859375</AltitudeMeters>
            <DistanceMeters>37061.295649385</DistanceMeters>
          </Trackpoint>
          <Trackpoint>
            <Time>2020-03-07T14:23:46.000Z</Time>
            <Position>
              <LatitudeDegrees>40.77994585968554019927978515625</LatitudeDegrees>
              <LongitudeDegrees>-3.691210784018039703369140625</LongitudeDegrees>
            </Position>
            <AltitudeMeters>848.5999755859375</AltitudeMeters>
            <DistanceMeters>37069.312886074</DistanceMeters>
          </Trackpoint>
          <Trackpoint>
            <Time>2020-03-07T14:23:47.000Z</Time>
            <Position>
              <LatitudeDegrees>40.78001542948186397552490234375</LatitudeDegrees>
              <LongitudeDegrees>-3.691233582794666290283203125</LongitudeDegrees>
            </Position>
            <AltitudeMeters>848.5999755859375</AltitudeMeters>
            <DistanceMeters>37077.290603717</DistanceMeters>
          </Trackpoint>
          <Trackpoint>
            <Time>2020-03-07T14:23:48.000Z</Time>
            <Position>
              <LatitudeDegrees>40.78008449636399745941162109375</LatitudeDegrees>
              <LongitudeDegrees>-3.691257052123546600341796875</LongitudeDegrees>
            </Position>
            <AltitudeMeters>848.5999755859375</AltitudeMeters>
            <DistanceMeters>37085.227467913</DistanceMeters>
          </Trackpoint>
          <Trackpoint>
            <Time>2020-03-07T14:23:49.000Z</Time>
            <Position>
              <LatitudeDegrees>40.78015238977968692779541015625</LatitudeDegrees>
              <LongitudeDegrees>-3.6912790127098560333251953125</LongitudeDegrees>
            </Position>
            <AltitudeMeters>848.5999755859375</AltitudeMeters>
            <DistanceMeters>37093.007480921</DistanceMeters>
          </Trackpoint>
          <Trackpoint>
            <Time>2020-03-07T14:23:50.000Z</Time>
            <Position>
              <LatitudeDegrees>40.7802198641002178192138671875</LatitudeDegrees>
              <LongitudeDegrees>-3.691300638020038604736328125</LongitudeDegrees>
            </Position>
            <AltitudeMeters>848.5999755859375</AltitudeMeters>
            <DistanceMeters>37100.73567124</DistanceMeters>
          </Trackpoint>
          <Trackpoint>
            <Time>2020-03-07T14:23:51.000Z</Time>
            <Position>
              <LatitudeDegrees>40.78028582967817783355712890625</LatitudeDegrees>
              <LongitudeDegrees>-3.691323436796665191650390625</LongitudeDegrees>
            </Position>
            <AltitudeMeters>848.5999755859375</AltitudeMeters>
            <DistanceMeters>37108.325325885</DistanceMeters>
          </Trackpoint>
          <Trackpoint>
            <Time>2020-03-07T14:29:23.000Z</Time>
            <Position>
              <LatitudeDegrees>40.78041558153927326202392578125</LatitudeDegrees>
              <LongitudeDegrees>-3.69140516035258769989013671875</LongitudeDegrees>
            </Position>
            <AltitudeMeters>849.79998779296875</AltitudeMeters>
            <DistanceMeters>37124.325409234</DistanceMeters>
          </Trackpoint>
          <Trackpoint>
            <Time>2020-03-07T14:29:24.000Z</Time>
            <Position>
              <LatitudeDegrees>40.78044734895229339599609375</LatitudeDegrees>
              <LongitudeDegrees>-3.69140625</LongitudeDegrees>
            </Position>
            <AltitudeMeters>849.79998779296875</AltitudeMeters>
            <DistanceMeters>37127.863160773</DistanceMeters>
          </Trackpoint>
          <Trackpoint>
            <Time>2020-03-07T14:29:25.000Z</Time>
            <Position>
              <LatitudeDegrees>40.78048263676464557647705078125</LatitudeDegrees>
              <LongitudeDegrees>-3.691412620246410369873046875</LongitudeDegrees>
            </Position>
            <AltitudeMeters>849.79998779296875</AltitudeMeters>
            <DistanceMeters>37131.827039305</DistanceMeters>
          </Trackpoint>
          <Trackpoint>
            <Time>2020-03-07T14:29:26.000Z</Time>
            <Position>
              <LatitudeDegrees>40.780523121356964111328125</LatitudeDegrees>
              <LongitudeDegrees>-3.69142460636794567108154296875</LongitudeDegrees>
            </Position>
            <AltitudeMeters>849.79998779296875</AltitudeMeters>
            <DistanceMeters>37136.445376729</DistanceMeters>
          </Trackpoint>
          <Trackpoint>
            <Time>2020-03-07T14:29:27.000Z</Time>
            <Position>
              <LatitudeDegrees>40.7805665396153926849365234375</LatitudeDegrees>
              <LongitudeDegrees>-3.69143868796527385711669921875</LongitudeDegrees>
            </Position>
            <AltitudeMeters>849.79998779296875</AltitudeMeters>
            <DistanceMeters>37141.421366038</DistanceMeters>
          </Trackpoint>
          <Trackpoint>
            <Time>2020-03-07T14:29:28.000Z</Time>
            <Position>
              <LatitudeDegrees>40.78061163425445556640625</LatitudeDegrees>
              <LongitudeDegrees>-3.6914530210196971893310546875</LongitudeDegrees>
            </Position>
            <AltitudeMeters>849.79998779296875</AltitudeMeters>
            <DistanceMeters>37146.58438702</DistanceMeters>
          </Trackpoint>
          <Trackpoint>
            <Time>2020-03-07T14:29:29.000Z</Time>
            <Position>
              <LatitudeDegrees>40.78065848909318447113037109375</LatitudeDegrees>
              <LongitudeDegrees>-3.691466264426708221435546875</LongitudeDegrees>
            </Position>
            <AltitudeMeters>849.79998779296875</AltitudeMeters>
            <DistanceMeters>37151.918594635</DistanceMeters>
          </Trackpoint>
          <Trackpoint>
            <Time>2020-03-07T14:29:30.000Z</Time>
            <Position>
              <LatitudeDegrees>40.7807063497602939605712890625</LatitudeDegrees>
              <LongitudeDegrees>-3.69147925637662410736083984375</LongitudeDegrees>
            </Position>
            <AltitudeMeters>849.79998779296875</AltitudeMeters>
            <DistanceMeters>37157.357577116</DistanceMeters>
          </Trackpoint>
          <Trackpoint>
            <Time>2020-03-07T14:29:31.000Z</Time>
            <Position>
              <LatitudeDegrees>40.780754126608371734619140625</LatitudeDegrees>
              <LongitudeDegrees>-3.69149182923138141632080078125</LongitudeDegrees>
            </Position>
            <AltitudeMeters>849.79998779296875</AltitudeMeters>
            <DistanceMeters>37162.779931669</DistanceMeters>
          </Trackpoint>
          <Trackpoint>
            <Time>2020-03-07T14:29:32.000Z</Time>
            <Position>
              <LatitudeDegrees>40.78080316074192523956298828125</LatitudeDegrees>
              <LongitudeDegrees>-3.69150356389582157135009765625</LongitudeDegrees>
            </Position>
            <AltitudeMeters>849.79998779296875</AltitudeMeters>
            <DistanceMeters>37168.325780601</DistanceMeters>
          </Trackpoint>
          <Trackpoint>
            <Time>2020-03-07T14:29:33.000Z</Time>
            <Position>
              <LatitudeDegrees>40.78085345216095447540283203125</LatitudeDegrees>
              <LongitudeDegrees>-3.691514544188976287841796875</LongitudeDegrees>
            </Position>
            <AltitudeMeters>849.79998779296875</AltitudeMeters>
            <DistanceMeters>37173.999599643</DistanceMeters>
          </Trackpoint>
          <Trackpoint>
            <Time>2020-03-07T14:29:34.000Z</Time>
            <Position>
              <LatitudeDegrees>40.78090525232255458831787109375</LatitudeDegrees>
              <LongitudeDegrees>-3.691531978547573089599609375</LongitudeDegrees>
            </Position>
            <AltitudeMeters>849.5999755859375</AltitudeMeters>
            <DistanceMeters>37179.949213047</DistanceMeters>
          </Trackpoint>
          <Trackpoint>
            <Time>2020-03-07T14:29:35.000Z</Time>
            <Position>
              <LatitudeDegrees>40.7809581421315670013427734375</LatitudeDegrees>
              <LongitudeDegrees>-3.6915475688874721527099609375</LongitudeDegrees>
            </Position>
            <AltitudeMeters>849.4000244140625</AltitudeMeters>
            <DistanceMeters>37185.980228543</DistanceMeters>
          </Trackpoint>
          <Trackpoint>
            <Time>2020-03-07T14:29:36.000Z</Time>
            <Position>
              <LatitudeDegrees>40.7810124568641185760498046875</LatitudeDegrees>
              <LongitudeDegrees>-3.691564500331878662109375</LongitudeDegrees>
            </Position>
            <AltitudeMeters>849.20001220703125</AltitudeMeters>
            <DistanceMeters>37192.191225771</DistanceMeters>
          </Trackpoint>
          <Trackpoint>
            <Time>2020-03-07T14:29:37.000Z</Time>
            <Position>
              <LatitudeDegrees>40.78106693923473358154296875</LatitudeDegrees>
              <LongitudeDegrees>-3.691584281623363494873046875</LongitudeDegrees>
            </Position>
            <AltitudeMeters>849.20001220703125</AltitudeMeters>
            <DistanceMeters>37198.480960655</DistanceMeters>
          </Trackpoint>
          <Trackpoint>
            <Time>2020-03-07T14:29:38.000Z</Time>
            <Position>
              <LatitudeDegrees>40.78112033195793628692626953125</LatitudeDegrees>
              <LongitudeDegrees>-3.691606409847736358642578125</LongitudeDegrees>
            </Position>
            <AltitudeMeters>849.20001220703125</AltitudeMeters>
            <DistanceMeters>37204.709380069</DistanceMeters>
          </Trackpoint>
          <Trackpoint>
            <Time>2020-03-07T14:29:39.000Z</Time>
            <Position>
              <LatitudeDegrees>40.7811727188527584075927734375</LatitudeDegrees>
              <LongitudeDegrees>-3.69162954390048980712890625</LongitudeDegrees>
            </Position>
            <AltitudeMeters>849</AltitudeMeters>
            <DistanceMeters>37210.857542396</DistanceMeters>
          </Trackpoint>
          <Trackpoint>
            <Time>2020-03-07T14:29:40.000Z</Time>
            <Position>
              <LatitudeDegrees>40.78122359700500965118408203125</LatitudeDegrees>
              <LongitudeDegrees>-3.69165041483938694000244140625</LongitudeDegrees>
            </Position>
            <AltitudeMeters>849</AltitudeMeters>
            <DistanceMeters>37216.787392113</DistanceMeters>
          </Trackpoint>
          <Trackpoint>
            <Time>2020-03-07T14:29:41.000Z</Time>
            <Position>
              <LatitudeDegrees>40.78127288259565830230712890625</LatitudeDegrees>
              <LongitudeDegrees>-3.69166952557861804962158203125</LongitudeDegrees>
            </Position>
            <AltitudeMeters>848.79998779296875</AltitudeMeters>
            <DistanceMeters>37222.50323121</DistanceMeters>
          </Trackpoint>
          <Trackpoint>
            <Time>2020-03-07T14:29:42.000Z</Time>
            <Position>
              <LatitudeDegrees>40.78132166527211666107177734375</LatitudeDegrees>
              <LongitudeDegrees>-3.69168008677661418914794921875</LongitudeDegrees>
            </Position>
            <AltitudeMeters>848.79998779296875</AltitudeMeters>
            <DistanceMeters>37228.004941511</DistanceMeters>
          </Trackpoint>
          <Trackpoint>
            <Time>2020-03-07T14:29:43.000Z</Time>
            <Position>
              <LatitudeDegrees>40.78136642463505268096923828125</LatitudeDegrees>
              <LongitudeDegrees>-3.691665418446063995361328125</LongitudeDegrees>
            </Position>
            <AltitudeMeters>848.5999755859375</AltitudeMeters>
            <DistanceMeters>37233.138143539</DistanceMeters>
          </Trackpoint>
          <Trackpoint>
            <Time>2020-03-07T14:29:44.000Z</Time>
            <Position>
              <LatitudeDegrees>40.7814042270183563232421875</LatitudeDegrees>
              <LongitudeDegrees>-3.69162459857761859893798828125</LongitudeDegrees>
            </Position>
            <AltitudeMeters>848.5999755859375</AltitudeMeters>
            <DistanceMeters>37238.573804504</DistanceMeters>
          </Trackpoint>
          <Trackpoint>
            <Time>2020-03-07T14:29:45.000Z</Time>
            <Position>
              <LatitudeDegrees>40.7814256846904754638671875</LatitudeDegrees>
              <LongitudeDegrees>-3.69156776927411556243896484375</LongitudeDegrees>
            </Position>
            <AltitudeMeters>848.5999755859375</AltitudeMeters>
            <DistanceMeters>37243.926601208</DistanceMeters>
          </Trackpoint>
          <Trackpoint>
            <Time>2020-03-07T14:29:46.000Z</Time>
            <Position>
              <LatitudeDegrees>40.7814255170524120330810546875</LatitudeDegrees>
              <LongitudeDegrees>-3.69150339625775814056396484375</LongitudeDegrees>
            </Position>
            <AltitudeMeters>848.5999755859375</AltitudeMeters>
            <DistanceMeters>37249.352285424</DistanceMeters>
          </Trackpoint>
          <Trackpoint>
            <Time>2020-03-07T14:29:47.000Z</Time>
            <Position>
              <LatitudeDegrees>40.78142040409147739410400390625</LatitudeDegrees>
              <LongitudeDegrees>-3.6914362572133541107177734375</LongitudeDegrees>
            </Position>
            <AltitudeMeters>848.4000244140625</AltitudeMeters>
            <DistanceMeters>37255.039616417</DistanceMeters>
          </Trackpoint>
          <Trackpoint>
            <Time>2020-03-07T14:29:48.000Z</Time>
            <Position>
              <LatitudeDegrees>40.78142677433788776397705078125</LatitudeDegrees>
              <LongitudeDegrees>-3.69136802852153778076171875</LongitudeDegrees>
            </Position>
            <AltitudeMeters>848.4000244140625</AltitudeMeters>
            <DistanceMeters>37260.8339088</DistanceMeters>
          </Trackpoint>
          <Trackpoint>
            <Time>2020-03-07T14:29:49.000Z</Time>
            <Position>
              <LatitudeDegrees>40.781438760459423065185546875</LatitudeDegrees>
              <LongitudeDegrees>-3.691298961639404296875</LongitudeDegrees>
            </Position>
            <AltitudeMeters>848.4000244140625</AltitudeMeters>
            <DistanceMeters>37266.806245189</DistanceMeters>
          </Trackpoint>
          <Trackpoint>
            <Time>2020-03-07T14:29:50.000Z</Time>
            <Position>
              <LatitudeDegrees>40.78145275823771953582763671875</LatitudeDegrees>
              <LongitudeDegrees>-3.6912297271192073822021484375</LongitudeDegrees>
            </Position>
            <AltitudeMeters>848.20001220703125</AltitudeMeters>
            <DistanceMeters>37272.84474241</DistanceMeters>
          </Trackpoint>
          <Trackpoint>
            <Time>2020-03-07T14:29:51.000Z</Time>
            <Position>
              <LatitudeDegrees>40.78146390616893768310546875</LatitudeDegrees>
              <LongitudeDegrees>-3.6911581456661224365234375</LongitudeDegrees>
            </Position>
            <AltitudeMeters>848.20001220703125</AltitudeMeters>
            <DistanceMeters>37279.003177362</DistanceMeters>
          </Trackpoint>
          <Trackpoint>
            <Time>2020-03-07T14:29:52.000Z</Time>
            <Position>
              <LatitudeDegrees>40.7814821787178516387939453125</LatitudeDegrees>
              <LongitudeDegrees>-3.69108949787914752960205078125</LongitudeDegrees>
            </Position>
            <AltitudeMeters>848</AltitudeMeters>
            <DistanceMeters>37285.135162222</DistanceMeters>
          </Trackpoint>
          <Trackpoint>
            <Time>2020-03-07T14:29:53.000Z</Time>
            <Position>
              <LatitudeDegrees>40.7815043069422245025634765625</LatitudeDegrees>
              <LongitudeDegrees>-3.691022694110870361328125</LongitudeDegrees>
            </Position>
            <AltitudeMeters>848</AltitudeMeters>
            <DistanceMeters>37291.280386358</DistanceMeters>
          </Trackpoint>
          <Trackpoint>
            <Time>2020-03-07T14:29:54.000Z</Time>
            <Position>
              <LatitudeDegrees>40.78152953647077083587646484375</LatitudeDegrees>
              <LongitudeDegrees>-3.69095605798065662384033203125</LongitudeDegrees>
            </Position>
            <AltitudeMeters>847.79998779296875</AltitudeMeters>
            <DistanceMeters>37297.559344373</DistanceMeters>
          </Trackpoint>
          <Trackpoint>
            <Time>2020-03-07T14:29:55.000Z</Time>
            <Position>
              <LatitudeDegrees>40.78155769966542720794677734375</LatitudeDegrees>
              <LongitudeDegrees>-3.69088925421237945556640625</LongitudeDegrees>
            </Position>
            <AltitudeMeters>847.5999755859375</AltitudeMeters>
            <DistanceMeters>37304.002968469</DistanceMeters>
          </Trackpoint>
          <Trackpoint>
            <Time>2020-03-07T14:29:56.000Z</Time>
            <Position>
              <LatitudeDegrees>40.781585276126861572265625</LatitudeDegrees>
              <LongitudeDegrees>-3.690820522606372833251953125</LongitudeDegrees>
            </Position>
            <AltitudeMeters>847.4000244140625</AltitudeMeters>
            <DistanceMeters>37310.559123125</DistanceMeters>
          </Trackpoint>
          <Trackpoint>
            <Time>2020-03-07T14:29:57.000Z</Time>
            <Position>
              <LatitudeDegrees>40.78161369077861309051513671875</LatitudeDegrees>
              <LongitudeDegrees>-3.69075204245746135711669921875</LongitudeDegrees>
            </Position>
            <AltitudeMeters>847.20001220703125</AltitudeMeters>
            <DistanceMeters>37317.140023263</DistanceMeters>
          </Trackpoint>
          <Trackpoint>
            <Time>2020-03-07T14:29:58.000Z</Time>
            <Position>
              <LatitudeDegrees>40.78164520673453807830810546875</LatitudeDegrees>
              <LongitudeDegrees>-3.6906842328608036041259765625</LongitudeDegrees>
            </Position>
            <AltitudeMeters>847.20001220703125</AltitudeMeters>
            <DistanceMeters>37323.845974403</DistanceMeters>
          </Trackpoint>
          <Trackpoint>
            <Time>2020-03-07T14:29:59.000Z</Time>
            <Position>
              <LatitudeDegrees>40.7816751301288604736328125</LatitudeDegrees>
              <LongitudeDegrees>-3.69061457924544811248779296875</LongitudeDegrees>
            </Position>
            <AltitudeMeters>847</AltitudeMeters>
            <DistanceMeters>37330.595547401</DistanceMeters>
          </Trackpoint>
          <Trackpoint>
            <Time>2020-03-07T14:30:00.000Z</Time>
            <Position>
              <LatitudeDegrees>40.78170119784772396087646484375</LatitudeDegrees>
              <LongitudeDegrees>-3.69054249487817287445068359375</LongitudeDegrees>
            </Position>
            <AltitudeMeters>847</AltitudeMeters>
            <DistanceMeters>37337.328376208</DistanceMeters>
          </Trackpoint>
          <Trackpoint>
            <Time>2020-03-07T14:30:01.000Z</Time>
            <Position>
              <LatitudeDegrees>40.78172533772885799407958984375</LatitudeDegrees>
              <LongitudeDegrees>-3.6904693208634853363037109375</LongitudeDegrees>
            </Position>
            <AltitudeMeters>846.79998779296875</AltitudeMeters>
            <DistanceMeters>37344.055838073</DistanceMeters>
          </Trackpoint>
          <Trackpoint>
            <Time>2020-03-07T14:30:02.000Z</Time>
            <Position>
              <LatitudeDegrees>40.78175065107643604278564453125</LatitudeDegrees>
              <LongitudeDegrees>-3.690397404134273529052734375</LongitudeDegrees>
            </Position>
            <AltitudeMeters>846.79998779296875</AltitudeMeters>
            <DistanceMeters>37350.740209266</DistanceMeters>
          </Trackpoint>
          <Trackpoint>
            <Time>2020-03-07T14:30:03.000Z</Time>
            <Position>
              <LatitudeDegrees>40.78177629970014095306396484375</LatitudeDegrees>
              <LongitudeDegrees>-3.69032557122409343719482421875</LongitudeDegrees>
            </Position>
            <AltitudeMeters>846.79998779296875</AltitudeMeters>
            <DistanceMeters>37357.434030246</DistanceMeters>
          </Trackpoint>
          <Trackpoint>
            <Time>2020-03-07T14:30:04.000Z</Time>
            <Position>
              <LatitudeDegrees>40.78180379234254360198974609375</LatitudeDegrees>
              <LongitudeDegrees>-3.690255582332611083984375</LongitudeDegrees>
            </Position>
            <AltitudeMeters>846.79998779296875</AltitudeMeters>
            <DistanceMeters>37364.079109163</DistanceMeters>
          </Trackpoint>
          <Trackpoint>
            <Time>2020-03-07T14:30:05.000Z</Time>
            <Position>
              <LatitudeDegrees>40.78183631412684917449951171875</LatitudeDegrees>
              <LongitudeDegrees>-3.6901876889169216156005859375</LongitudeDegrees>
            </Position>
            <AltitudeMeters>846.5999755859375</AltitudeMeters>
            <DistanceMeters>37370.850054304</DistanceMeters>
          </Trackpoint>
          <Trackpoint>
            <Time>2020-03-07T14:30:06.000Z</Time>
            <Position>
              <LatitudeDegrees>40.7818682491779327392578125</LatitudeDegrees>
              <LongitudeDegrees>-3.69012172333896160125732421875</LongitudeDegrees>
            </Position>
            <AltitudeMeters>846.5999755859375</AltitudeMeters>
            <DistanceMeters>37377.448768468</DistanceMeters>
          </Trackpoint>
          <Trackpoint>
            <Time>2020-03-07T14:30:07.000Z</Time>
            <Position>
              <LatitudeDegrees>40.781901776790618896484375</LatitudeDegrees>
              <LongitudeDegrees>-3.69005835615098476409912109375</LongitudeDegrees>
            </Position>
            <AltitudeMeters>846.5999755859375</AltitudeMeters>
            <DistanceMeters>37383.963471783</DistanceMeters>
          </Trackpoint>
          <Trackpoint>
            <Time>2020-03-07T14:30:08.000Z</Time>
            <Position>
              <LatitudeDegrees>40.781938321888446807861328125</LatitudeDegrees>
              <LongitudeDegrees>-3.689998090267181396484375</LongitudeDegrees>
            </Position>
            <AltitudeMeters>846.5999755859375</AltitudeMeters>
            <DistanceMeters>37390.470547044</DistanceMeters>
          </Trackpoint>
          <Trackpoint>
            <Time>2020-03-07T14:30:09.000Z</Time>
            <Position>
              <LatitudeDegrees>40.78197620809078216552734375</LatitudeDegrees>
              <LongitudeDegrees>-3.68993866257369518280029296875</LongitudeDegrees>
            </Position>
            <AltitudeMeters>846.4000244140625</AltitudeMeters>
            <DistanceMeters>37397.018432424</DistanceMeters>
          </Trackpoint>
          <Trackpoint>
            <Time>2020-03-07T14:30:10.000Z</Time>
            <Position>
              <LatitudeDegrees>40.78201300464570522308349609375</LatitudeDegrees>
              <LongitudeDegrees>-3.6898792348802089691162109375</LongitudeDegrees>
            </Position>
            <AltitudeMeters>846.4000244140625</AltitudeMeters>
            <DistanceMeters>37403.48793042</DistanceMeters>
          </Trackpoint>
          <Trackpoint>
            <Time>2020-03-07T14:30:11.000Z</Time>
            <Position>
              <LatitudeDegrees>40.7820474542677402496337890625</LatitudeDegrees>
              <LongitudeDegrees>-3.68981695733964443206787109375</LongitudeDegrees>
            </Position>
            <AltitudeMeters>846.4000244140625</AltitudeMeters>
            <DistanceMeters>37409.988063317</DistanceMeters>
          </Trackpoint>
          <Trackpoint>
            <Time>2020-03-07T14:30:12.000Z</Time>
            <Position>
              <LatitudeDegrees>40.782087855041027069091796875</LatitudeDegrees>
              <LongitudeDegrees>-3.68975442834198474884033203125</LongitudeDegrees>
            </Position>
            <AltitudeMeters>846.20001220703125</AltitudeMeters>
            <DistanceMeters>37416.915243568</DistanceMeters>
          </Trackpoint>
          <Trackpoint>
            <Time>2020-03-07T14:30:13.000Z</Time>
            <Position>
              <LatitudeDegrees>40.78212632797658443450927734375</LatitudeDegrees>
              <LongitudeDegrees>-3.68969005532562732696533203125</LongitudeDegrees>
            </Position>
            <AltitudeMeters>846.20001220703125</AltitudeMeters>
            <DistanceMeters>37423.826763255</DistanceMeters>
          </Trackpoint>
          <Trackpoint>
            <Time>2020-03-07T14:30:14.000Z</Time>
            <Position>
              <LatitudeDegrees>40.78216605819761753082275390625</LatitudeDegrees>
              <LongitudeDegrees>-3.689626269042491912841796875</LongitudeDegrees>
            </Position>
            <AltitudeMeters>846.20001220703125</AltitudeMeters>
            <DistanceMeters>37430.78775386</DistanceMeters>
          </Trackpoint>
          <Trackpoint>
            <Time>2020-03-07T14:30:15.000Z</Time>
            <Position>
              <LatitudeDegrees>40.78220511786639690399169921875</LatitudeDegrees>
              <LongitudeDegrees>-3.689562566578388214111328125</LongitudeDegrees>
            </Position>
            <AltitudeMeters>846</AltitudeMeters>
            <DistanceMeters>37437.696006461</DistanceMeters>
          </Trackpoint>
          <Trackpoint>
            <Time>2020-03-07T14:30:16.000Z</Time>
            <Position>
              <LatitudeDegrees>40.78224384225904941558837890625</LatitudeDegrees>
              <LongitudeDegrees>-3.689499534666538238525390625</LongitudeDegrees>
            </Position>
            <AltitudeMeters>846</AltitudeMeters>
            <DistanceMeters>37444.536609953</DistanceMeters>
          </Trackpoint>
          <Trackpoint>
            <Time>2020-03-07T14:30:17.000Z</Time>
            <Position>
              <LatitudeDegrees>40.78228223137557506561279296875</LatitudeDegrees>
              <LongitudeDegrees>-3.68943725712597370147705078125</LongitudeDegrees>
            </Position>
            <AltitudeMeters>846</AltitudeMeters>
            <DistanceMeters>37451.304220146</DistanceMeters>
          </Trackpoint>
          <Trackpoint>
            <Time>2020-03-07T14:30:18.000Z</Time>
            <Position>
              <LatitudeDegrees>40.78231575898826122283935546875</LatitudeDegrees>
              <LongitudeDegrees>-3.68937187828123569488525390625</LongitudeDegrees>
            </Position>
            <AltitudeMeters>846</AltitudeMeters>
            <DistanceMeters>37457.958804647</DistanceMeters>
          </Trackpoint>
          <Trackpoint>
            <Time>2020-03-07T14:30:19.000Z</Time>
            <Position>
              <LatitudeDegrees>40.7823438383638858795166015625</LatitudeDegrees>
              <LongitudeDegrees>-3.68930465541779994964599609375</LongitudeDegrees>
            </Position>
            <AltitudeMeters>846</AltitudeMeters>
            <DistanceMeters>37464.429000501</DistanceMeters>
          </Trackpoint>
          <Trackpoint>
            <Time>2020-03-07T14:30:20.000Z</Time>
            <Position>
              <LatitudeDegrees>40.78237107954919338226318359375</LatitudeDegrees>
              <LongitudeDegrees>-3.68923542089760303497314453125</LongitudeDegrees>
            </Position>
            <AltitudeMeters>846</AltitudeMeters>
            <DistanceMeters>37471.004409691</DistanceMeters>
          </Trackpoint>
          <Trackpoint>
            <Time>2020-03-07T14:30:21.000Z</Time>
            <Position>
              <LatitudeDegrees>40.7823931239545345306396484375</LatitudeDegrees>
              <LongitudeDegrees>-3.6891625821590423583984375</LongitudeDegrees>
            </Position>
            <AltitudeMeters>846</AltitudeMeters>
            <DistanceMeters>37477.615428522</DistanceMeters>
          </Trackpoint>
          <Trackpoint>
            <Time>2020-03-07T14:30:22.000Z</Time>
            <Position>
              <LatitudeDegrees>40.7824098877608776092529296875</LatitudeDegrees>
              <LongitudeDegrees>-3.6890856362879276275634765625</LongitudeDegrees>
            </Position>
            <AltitudeMeters>846</AltitudeMeters>
            <DistanceMeters>37484.363663514</DistanceMeters>
          </Trackpoint>
          <Trackpoint>
            <Time>2020-03-07T14:30:23.000Z</Time>
            <Position>
              <LatitudeDegrees>40.78242371790111064910888671875</LatitudeDegrees>
              <LongitudeDegrees>-3.6890075169503688812255859375</LongitudeDegrees>
            </Position>
            <AltitudeMeters>845.79998779296875</AltitudeMeters>
            <DistanceMeters>37491.124598876</DistanceMeters>
          </Trackpoint>
          <Trackpoint>
            <Time>2020-03-07T14:30:24.000Z</Time>
            <Position>
              <LatitudeDegrees>40.78243888914585113525390625</LatitudeDegrees>
              <LongitudeDegrees>-3.68892897851765155792236328125</LongitudeDegrees>
            </Position>
            <AltitudeMeters>845.79998779296875</AltitudeMeters>
            <DistanceMeters>37497.955955627</DistanceMeters>
          </Trackpoint>
          <Trackpoint>
            <Time>2020-03-07T14:30:25.000Z</Time>
            <Position>
              <LatitudeDegrees>40.7824551500380039215087890625</LatitudeDegrees>
              <LongitudeDegrees>-3.6888526193797588348388671875</LongitudeDegrees>
            </Position>
            <AltitudeMeters>845.79998779296875</AltitudeMeters>
            <DistanceMeters>37504.641002248</DistanceMeters>
          </Trackpoint>
          <Trackpoint>
            <Time>2020-03-07T14:30:26.000Z</Time>
            <Position>
              <LatitudeDegrees>40.7824705727398395538330078125</LatitudeDegrees>
              <LongitudeDegrees>-3.6887771822512149810791015625</LongitudeDegrees>
            </Position>
            <AltitudeMeters>845.79998779296875</AltitudeMeters>
            <DistanceMeters>37511.226017592</DistanceMeters>
          </Trackpoint>
          <Trackpoint>
            <Time>2020-03-07T14:30:27.000Z</Time>
            <Position>
              <LatitudeDegrees>40.78248306177556514739990234375</LatitudeDegrees>
              <LongitudeDegrees>-3.6887027509510517120361328125</LongitudeDegrees>
            </Position>
            <AltitudeMeters>845.79998779296875</AltitudeMeters>
            <DistanceMeters>37517.650694971</DistanceMeters>
          </Trackpoint>
          <Trackpoint>
            <Time>2020-03-07T14:30:28.000Z</Time>
            <Position>
              <LatitudeDegrees>40.7824977301061153411865234375</LatitudeDegrees>
              <LongitudeDegrees>-3.68862957693636417388916015625</LongitudeDegrees>
            </Position>
            <AltitudeMeters>845.79998779296875</AltitudeMeters>
            <DistanceMeters>37524.030944544</DistanceMeters>
          </Trackpoint>
          <Trackpoint>
            <Time>2020-03-07T14:30:29.000Z</Time>
            <Position>
              <LatitudeDegrees>40.782512985169887542724609375</LatitudeDegrees>
              <LongitudeDegrees>-3.68855481036007404327392578125</LongitudeDegrees>
            </Position>
            <AltitudeMeters>845.79998779296875</AltitudeMeters>
            <DistanceMeters>37530.556727294</DistanceMeters>
          </Trackpoint>
          <Trackpoint>
            <Time>2020-03-07T14:30:30.000Z</Time>
            <Position>
              <LatitudeDegrees>40.78252614475786685943603515625</LatitudeDegrees>
              <LongitudeDegrees>-3.6884771101176738739013671875</LongitudeDegrees>
            </Position>
            <AltitudeMeters>845.79998779296875</AltitudeMeters>
            <DistanceMeters>37537.266044031</DistanceMeters>
          </Trackpoint>
          <Trackpoint>
            <Time>2020-03-07T14:30:31.000Z</Time>
            <Position>
              <LatitudeDegrees>40.7825366221368312835693359375</LatitudeDegrees>
              <LongitudeDegrees>-3.68839840404689311981201171875</LongitudeDegrees>
            </Position>
            <AltitudeMeters>845.79998779296875</AltitudeMeters>
            <DistanceMeters>37544.000213906</DistanceMeters>
          </Trackpoint>
          <Trackpoint>
            <Time>2020-03-07T14:30:32.000Z</Time>
            <Position>
              <LatitudeDegrees>40.7825476862490177154541015625</LatitudeDegrees>
              <LongitudeDegrees>-3.68831994943320751190185546875</LongitudeDegrees>
            </Position>
            <AltitudeMeters>845.79998779296875</AltitudeMeters>
            <DistanceMeters>37550.726333365</DistanceMeters>
          </Trackpoint>
          <Trackpoint>
            <Time>2020-03-07T14:30:33.000Z</Time>
            <Position>
              <LatitudeDegrees>40.78255967237055301666259765625</LatitudeDegrees>
              <LongitudeDegrees>-3.6882420815527439117431640625</LongitudeDegrees>
            </Position>
            <AltitudeMeters>845.79998779296875</AltitudeMeters>
            <DistanceMeters>37557.422851835</DistanceMeters>
          </Trackpoint>
          <Trackpoint>
            <Time>2020-03-07T14:30:34.000Z</Time>
            <Position>
              <LatitudeDegrees>40.78257341869175434112548828125</LatitudeDegrees>
              <LongitudeDegrees>-3.6881639622151851654052734375</LongitudeDegrees>
            </Position>
            <AltitudeMeters>845.79998779296875</AltitudeMeters>
            <DistanceMeters>37564.182451439</DistanceMeters>
          </Trackpoint>
          <Trackpoint>
            <Time>2020-03-07T14:30:35.000Z</Time>
            <Position>
              <LatitudeDegrees>40.782587416470050811767578125</LatitudeDegrees>
              <LongitudeDegrees>-3.68808659724891185760498046875</LongitudeDegrees>
            </Position>
            <AltitudeMeters>845.5999755859375</AltitudeMeters>
            <DistanceMeters>37570.887055868</DistanceMeters>
          </Trackpoint>
          <Trackpoint>
            <Time>2020-03-07T14:30:36.000Z</Time>
            <Position>
              <LatitudeDegrees>40.782602839171886444091796875</LatitudeDegrees>
              <LongitudeDegrees>-3.68801099248230457305908203125</LongitudeDegrees>
            </Position>
            <AltitudeMeters>845.5999755859375</AltitudeMeters>
            <DistanceMeters>37577.485770031</DistanceMeters>
          </Trackpoint>
          <Trackpoint>
            <Time>2020-03-07T14:30:37.000Z</Time>
            <Position>
              <LatitudeDegrees>40.78262555412948131561279296875</LatitudeDegrees>
              <LongitudeDegrees>-3.68794008158147335052490234375</LongitudeDegrees>
            </Position>
            <AltitudeMeters>845.5999755859375</AltitudeMeters>
            <DistanceMeters>37583.974083863</DistanceMeters>
          </Trackpoint>
          <Trackpoint>
            <Time>2020-03-07T14:30:38.000Z</Time>
            <Position>
              <LatitudeDegrees>40.78265422023832798004150390625</LatitudeDegrees>
              <LongitudeDegrees>-3.68787822313606739044189453125</LongitudeDegrees>
            </Position>
            <AltitudeMeters>845.5999755859375</AltitudeMeters>
            <DistanceMeters>37590.085417283</DistanceMeters>
          </Trackpoint>
          <Trackpoint>
            <Time>2020-03-07T14:30:39.000Z</Time>
            <Position>
              <LatitudeDegrees>40.78268229961395263671875</LatitudeDegrees>
              <LongitudeDegrees>-3.6878253333270549774169921875</LongitudeDegrees>
            </Position>
            <AltitudeMeters>845.5999755859375</AltitudeMeters>
            <DistanceMeters>37595.52854881</DistanceMeters>
          </Trackpoint>
          <Trackpoint>
            <Time>2020-03-07T14:30:40.000Z</Time>
            <Position>
              <LatitudeDegrees>40.782709456980228424072265625</LatitudeDegrees>
              <LongitudeDegrees>-3.6877750419080257415771484375</LongitudeDegrees>
            </Position>
            <AltitudeMeters>845.4000244140625</AltitudeMeters>
            <DistanceMeters>37600.733376312</DistanceMeters>
          </Trackpoint>
          <Trackpoint>
            <Time>2020-03-07T14:30:41.000Z</Time>
            <Position>
              <LatitudeDegrees>40.78273594379425048828125</LatitudeDegrees>
              <LongitudeDegrees>-3.6877254210412502288818359375</LongitudeDegrees>
            </Position>
            <AltitudeMeters>845.4000244140625</AltitudeMeters>
            <DistanceMeters>37605.850721492</DistanceMeters>
          </Trackpoint>
          <Trackpoint>
            <Time>2020-03-07T14:30:42.000Z</Time>
            <Position>
              <LatitudeDegrees>40.78276067040860652923583984375</LatitudeDegrees>
              <LongitudeDegrees>-3.687674291431903839111328125</LongitudeDegrees>
            </Position>
            <AltitudeMeters>845.4000244140625</AltitudeMeters>
            <DistanceMeters>37610.96453625</DistanceMeters>
          </Trackpoint>
          <Trackpoint>
            <Time>2020-03-07T14:30:43.000Z</Time>
            <Position>
              <LatitudeDegrees>40.7827874086797237396240234375</LatitudeDegrees>
              <LongitudeDegrees>-3.687619976699352264404296875</LongitudeDegrees>
            </Position>
            <AltitudeMeters>845.4000244140625</AltitudeMeters>
            <DistanceMeters>37616.42505934</DistanceMeters>
          </Trackpoint>
          <Trackpoint>
            <Time>2020-03-07T14:30:44.000Z</Time>
            <Position>
              <LatitudeDegrees>40.78281381167471408843994140625</LatitudeDegrees>
              <LongitudeDegrees>-3.6875613033771514892578125</LongitudeDegrees>
            </Position>
            <AltitudeMeters>845.20001220703125</AltitudeMeters>
            <DistanceMeters>37622.177119848</DistanceMeters>
          </Trackpoint>
          <Trackpoint>
            <Time>2020-03-07T14:30:45.000Z</Time>
            <Position>
              <LatitudeDegrees>40.78284147195518016815185546875</LatitudeDegrees>
              <LongitudeDegrees>-3.68750288151204586029052734375</LongitudeDegrees>
            </Position>
            <AltitudeMeters>845.20001220703125</AltitudeMeters>
            <DistanceMeters>37627.983866394</DistanceMeters>
          </Trackpoint>
          <Trackpoint>
            <Time>2020-03-07T14:30:46.000Z</Time>
            <Position>
              <LatitudeDegrees>40.78287147916853427886962890625</LatitudeDegrees>
              <LongitudeDegrees>-3.6874478124082088470458984375</LongitudeDegrees>
            </Position>
            <AltitudeMeters>845.20001220703125</AltitudeMeters>
            <DistanceMeters>37633.70207475</DistanceMeters>
          </Trackpoint>
          <Trackpoint>
            <Time>2020-03-07T14:30:47.000Z</Time>
            <Position>
              <LatitudeDegrees>40.78290299512445926666259765625</LatitudeDegrees>
              <LongitudeDegrees>-3.687390647828578948974609375</LongitudeDegrees>
            </Position>
            <AltitudeMeters>845.20001220703125</AltitudeMeters>
            <DistanceMeters>37639.660787747</DistanceMeters>
          </Trackpoint>
          <Trackpoint>
            <Time>2020-03-07T14:30:48.000Z</Time>
            <Position>
              <LatitudeDegrees>40.78293568454682826995849609375</LatitudeDegrees>
              <LongitudeDegrees>-3.68732954375445842742919921875</LongitudeDegrees>
            </Position>
            <AltitudeMeters>845.20001220703125</AltitudeMeters>
            <DistanceMeters>37645.966295385</DistanceMeters>
          </Trackpoint>
          <Trackpoint>
            <Time>2020-03-07T14:30:49.000Z</Time>
            <Position>
              <LatitudeDegrees>40.78296753577888011932373046875</LatitudeDegrees>
              <LongitudeDegrees>-3.68726517073810100555419921875</LongitudeDegrees>
            </Position>
            <AltitudeMeters>845.20001220703125</AltitudeMeters>
            <DistanceMeters>37652.446950101</DistanceMeters>
          </Trackpoint>
          <Trackpoint>
            <Time>2020-03-07T14:30:50.000Z</Time>
            <Position>
              <LatitudeDegrees>40.78300039283931255340576171875</LatitudeDegrees>
              <LongitudeDegrees>-3.68719962425529956817626953125</LongitudeDegrees>
            </Position>
            <AltitudeMeters>845.20001220703125</AltitudeMeters>
            <DistanceMeters>37659.07161398</DistanceMeters>
          </Trackpoint>
          <Trackpoint>
            <Time>2020-03-07T14:30:51.000Z</Time>
            <Position>
              <LatitudeDegrees>40.78303299844264984130859375</LatitudeDegrees>
              <LongitudeDegrees>-3.687133155763149261474609375</LongitudeDegrees>
            </Position>
            <AltitudeMeters>845</AltitudeMeters>
            <DistanceMeters>37665.746522008</DistanceMeters>
          </Trackpoint>
          <Trackpoint>
            <Time>2020-03-07T14:30:52.000Z</Time>
            <Position>
              <LatitudeDegrees>40.78306577168405055999755859375</LatitudeDegrees>
              <LongitudeDegrees>-3.68706534616649150848388671875</LongitudeDegrees>
            </Position>
            <AltitudeMeters>845</AltitudeMeters>
            <DistanceMeters>37672.526130337</DistanceMeters>
          </Trackpoint>
          <Trackpoint>
            <Time>2020-03-07T14:30:53.000Z</Time>
            <Position>
              <LatitudeDegrees>40.783098377287387847900390625</LatitudeDegrees>
              <LongitudeDegrees>-3.6869938485324382781982421875</LongitudeDegrees>
            </Position>
            <AltitudeMeters>845</AltitudeMeters>
            <DistanceMeters>37679.560675021</DistanceMeters>
          </Trackpoint>
          <Trackpoint>
            <Time>2020-03-07T14:30:54.000Z</Time>
            <Position>
              <LatitudeDegrees>40.7831283845007419586181640625</LatitudeDegrees>
              <LongitudeDegrees>-3.6869207583367824554443359375</LongitudeDegrees>
            </Position>
            <AltitudeMeters>845</AltitudeMeters>
            <DistanceMeters>37686.568210658</DistanceMeters>
          </Trackpoint>
          <Trackpoint>
            <Time>2020-03-07T14:30:55.000Z</Time>
            <Position>
              <LatitudeDegrees>40.783158726990222930908203125</LatitudeDegrees>
              <LongitudeDegrees>-3.6868463270366191864013671875</LongitudeDegrees>
            </Position>
            <AltitudeMeters>845</AltitudeMeters>
            <DistanceMeters>37693.69267974</DistanceMeters>
          </Trackpoint>
          <Trackpoint>
            <Time>2020-03-07T14:30:56.000Z</Time>
            <Position>
              <LatitudeDegrees>40.78318320214748382568359375</LatitudeDegrees>
              <LongitudeDegrees>-3.68676812388002872467041015625</LongitudeDegrees>
            </Position>
            <AltitudeMeters>845</AltitudeMeters>
            <DistanceMeters>37700.824749608</DistanceMeters>
          </Trackpoint>
          <Trackpoint>
            <Time>2020-03-07T14:30:57.000Z</Time>
            <Position>
              <LatitudeDegrees>40.7832024805247783660888671875</LatitudeDegrees>
              <LongitudeDegrees>-3.68668698705732822418212890625</LongitudeDegrees>
            </Position>
            <AltitudeMeters>845</AltitudeMeters>
            <DistanceMeters>37707.991553276</DistanceMeters>
          </Trackpoint>
          <Trackpoint>
            <Time>2020-03-07T14:30:58.000Z</Time>
            <Position>
              <LatitudeDegrees>40.78321941196918487548828125</LatitudeDegrees>
              <LongitudeDegrees>-3.68660400621592998504638671875</LongitudeDegrees>
            </Position>
            <AltitudeMeters>845</AltitudeMeters>
            <DistanceMeters>37715.234808355</DistanceMeters>
          </Trackpoint>
          <Trackpoint>
            <Time>2020-03-07T14:30:59.000Z</Time>
            <Position>
              <LatitudeDegrees>40.78323927707970142364501953125</LatitudeDegrees>
              <LongitudeDegrees>-3.686521947383880615234375</LongitudeDegrees>
            </Position>
            <AltitudeMeters>845</AltitudeMeters>
            <DistanceMeters>37722.495496083</DistanceMeters>
          </Trackpoint>
          <Trackpoint>
            <Time>2020-03-07T14:31:00.000Z</Time>
            <Position>
              <LatitudeDegrees>40.78326744027435779571533203125</LatitudeDegrees>
              <LongitudeDegrees>-3.6864429898560047149658203125</LongitudeDegrees>
            </Position>
            <AltitudeMeters>844.79998779296875</AltitudeMeters>
            <DistanceMeters>37729.851324931</DistanceMeters>
          </Trackpoint>
          <Trackpoint>
            <Time>2020-03-07T14:31:01.000Z</Time>
            <Position>
              <LatitudeDegrees>40.78330348245799541473388671875</LatitudeDegrees>
              <LongitudeDegrees>-3.68636964820325374603271484375</LongitudeDegrees>
            </Position>
            <AltitudeMeters>844.79998779296875</AltitudeMeters>
            <DistanceMeters>37737.219419636</DistanceMeters>
          </Trackpoint>
          <Trackpoint>
            <Time>2020-03-07T14:31:02.000Z</Time>
            <Position>
              <LatitudeDegrees>40.78334824182093143463134765625</LatitudeDegrees>
              <LongitudeDegrees>-3.68630611337721347808837890625</LongitudeDegrees>
            </Position>
            <AltitudeMeters>844.79998779296875</AltitudeMeters>
            <DistanceMeters>37744.532155971</DistanceMeters>
          </Trackpoint>
          <Trackpoint>
            <Time>2020-03-07T14:31:03.000Z</Time>
            <Position>
              <LatitudeDegrees>40.78339953906834125518798828125</LatitudeDegrees>
              <LongitudeDegrees>-3.68625347502529621124267578125</LongitudeDegrees>
            </Position>
            <AltitudeMeters>844.79998779296875</AltitudeMeters>
            <DistanceMeters>37751.762933426</DistanceMeters>
          </Trackpoint>
          <Trackpoint>
            <Time>2020-03-07T14:31:04.000Z</Time>
            <Position>
              <LatitudeDegrees>40.78345418907701969146728515625</LatitudeDegrees>
              <LongitudeDegrees>-3.68620611727237701416015625</LongitudeDegrees>
            </Position>
            <AltitudeMeters>844.79998779296875</AltitudeMeters>
            <DistanceMeters>37759.03853018</DistanceMeters>
          </Trackpoint>
          <Trackpoint>
            <Time>2020-03-07T14:31:05.000Z</Time>
            <Position>
              <LatitudeDegrees>40.783508755266666412353515625</LatitudeDegrees>
              <LongitudeDegrees>-3.6861600168049335479736328125</LongitudeDegrees>
            </Position>
            <AltitudeMeters>844.79998779296875</AltitudeMeters>
            <DistanceMeters>37766.248672348</DistanceMeters>
          </Trackpoint>
          <Trackpoint>
            <Time>2020-03-07T14:31:06.000Z</Time>
            <Position>
              <LatitudeDegrees>40.783563740551471710205078125</LatitudeDegrees>
              <LongitudeDegrees>-3.686114586889743804931640625</LongitudeDegrees>
            </Position>
            <AltitudeMeters>844.79998779296875</AltitudeMeters>
            <DistanceMeters>37773.466950611</DistanceMeters>
          </Trackpoint>
          <Trackpoint>
            <Time>2020-03-07T14:31:07.000Z</Time>
            <Position>
              <LatitudeDegrees>40.783617384731769561767578125</LatitudeDegrees>
              <LongitudeDegrees>-3.68606924079358577728271484375</LongitudeDegrees>
            </Position>
            <AltitudeMeters>844.79998779296875</AltitudeMeters>
            <DistanceMeters>37780.555204651</DistanceMeters>
          </Trackpoint>
          <Trackpoint>
            <Time>2020-03-07T14:31:08.000Z</Time>
            <Position>
              <LatitudeDegrees>40.78367044217884540557861328125</LatitudeDegrees>
              <LongitudeDegrees>-3.68602297268807888031005859375</LongitudeDegrees>
            </Position>
            <AltitudeMeters>844.79998779296875</AltitudeMeters>
            <DistanceMeters>37787.631983859</DistanceMeters>
          </Trackpoint>
          <Trackpoint>
            <Time>2020-03-07T14:31:09.000Z</Time>
            <Position>
              <LatitudeDegrees>40.78372140415012836456298828125</LatitudeDegrees>
              <LongitudeDegrees>-3.68597402237355709075927734375</LongitudeDegrees>
            </Position>
            <AltitudeMeters>844.79998779296875</AltitudeMeters>
            <DistanceMeters>37794.645959655</DistanceMeters>
          </Trackpoint>
          <Trackpoint>
            <Time>2020-03-07T14:31:10.000Z</Time>
            <Position>
              <LatitudeDegrees>40.7837731204926967620849609375</LatitudeDegrees>
              <LongitudeDegrees>-3.6859253235161304473876953125</LongitudeDegrees>
            </Position>
            <AltitudeMeters>844.79998779296875</AltitudeMeters>
            <DistanceMeters>37801.715078627</DistanceMeters>
          </Trackpoint>
          <Trackpoint>
            <Time>2020-03-07T14:31:11.000Z</Time>
            <Position>
              <LatitudeDegrees>40.7838257588446140289306640625</LatitudeDegrees>
              <LongitudeDegrees>-3.68587662465870380401611328125</LongitudeDegrees>
            </Position>
            <AltitudeMeters>844.79998779296875</AltitudeMeters>
            <DistanceMeters>37808.869271334</DistanceMeters>
          </Trackpoint>
          <Trackpoint>
            <Time>2020-03-07T14:31:12.000Z</Time>
            <Position>
              <LatitudeDegrees>40.783878900110721588134765625</LatitudeDegrees>
              <LongitudeDegrees>-3.68582583032548427581787109375</LongitudeDegrees>
            </Position>
            <AltitudeMeters>845</AltitudeMeters>
            <DistanceMeters>37816.170885629</DistanceMeters>
          </Trackpoint>
          <Trackpoint>
            <Time>2020-03-07T14:31:13.000Z</Time>
            <Position>
              <LatitudeDegrees>40.7839323766529560089111328125</LatitudeDegrees>
              <LongitudeDegrees>-3.68577436544001102447509765625</LongitudeDegrees>
            </Position>
            <AltitudeMeters>845</AltitudeMeters>
            <DistanceMeters>37823.535302723</DistanceMeters>
          </Trackpoint>
          <Trackpoint>
            <Time>2020-03-07T14:31:14.000Z</Time>
            <Position>
              <LatitudeDegrees>40.78398576937615871429443359375</LatitudeDegrees>
              <LongitudeDegrees>-3.6857231520116329193115234375</LongitudeDegrees>
            </Position>
            <AltitudeMeters>845.20001220703125</AltitudeMeters>
            <DistanceMeters>37830.880074787</DistanceMeters>
          </Trackpoint>
          <Trackpoint>
            <Time>2020-03-07T14:31:15.000Z</Time>
            <Position>
              <LatitudeDegrees>40.784041844308376312255859375</LatitudeDegrees>
              <LongitudeDegrees>-3.68567361496388912200927734375</LongitudeDegrees>
            </Position>
            <AltitudeMeters>845.20001220703125</AltitudeMeters>
            <DistanceMeters>37838.388387995</DistanceMeters>
          </Trackpoint>
          <Trackpoint>
            <Time>2020-03-07T14:31:16.000Z</Time>
            <Position>
              <LatitudeDegrees>40.78409590758383274078369140625</LatitudeDegrees>
              <LongitudeDegrees>-3.6856232397258281707763671875</LongitudeDegrees>
            </Position>
            <AltitudeMeters>845.20001220703125</AltitudeMeters>
            <DistanceMeters>37845.752805089</DistanceMeters>
          </Trackpoint>
          <Trackpoint>
            <Time>2020-03-07T14:31:17.000Z</Time>
            <Position>
              <LatitudeDegrees>40.78415013849735260009765625</LatitudeDegrees>
              <LongitudeDegrees>-3.68557470850646495819091796875</LongitudeDegrees>
            </Position>
            <AltitudeMeters>845.20001220703125</AltitudeMeters>
            <DistanceMeters>37853.043899658</DistanceMeters>
          </Trackpoint>
          <Trackpoint>
            <Time>2020-03-07T14:31:18.000Z</Time>
            <Position>
              <LatitudeDegrees>40.78420286066830158233642578125</LatitudeDegrees>
              <LongitudeDegrees>-3.68552441708743572235107421875</LongitudeDegrees>
            </Position>
            <AltitudeMeters>845.20001220703125</AltitudeMeters>
            <DistanceMeters>37860.282166269</DistanceMeters>
          </Trackpoint>
          <Trackpoint>
            <Time>2020-03-07T14:31:19.000Z</Time>
            <Position>
              <LatitudeDegrees>40.78425449319183826446533203125</LatitudeDegrees>
              <LongitudeDegrees>-3.68547379039227962493896484375</LongitudeDegrees>
            </Position>
            <AltitudeMeters>845.20001220703125</AltitudeMeters>
            <DistanceMeters>37867.440144597</DistanceMeters>
          </Trackpoint>
          <Trackpoint>
            <Time>2020-03-07T14:31:20.000Z</Time>
            <Position>
              <LatitudeDegrees>40.7843072153627872467041015625</LatitudeDegrees>
              <LongitudeDegrees>-3.68542517535388469696044921875</LongitudeDegrees>
            </Position>
            <AltitudeMeters>845.20001220703125</AltitudeMeters>
            <DistanceMeters>37874.596861274</DistanceMeters>
          </Trackpoint>
          <Trackpoint>
            <Time>2020-03-07T14:31:21.000Z</Time>
            <Position>
              <LatitudeDegrees>40.78435826115310192108154296875</LatitudeDegrees>
              <LongitudeDegrees>-3.68537731468677520751953125</LongitudeDegrees>
            </Position>
            <AltitudeMeters>845.20001220703125</AltitudeMeters>
            <DistanceMeters>37881.56433506</DistanceMeters>
          </Trackpoint>
          <Trackpoint>
            <Time>2020-03-07T14:31:22.000Z</Time>
            <Position>
              <LatitudeDegrees>40.78440964221954345703125</LatitudeDegrees>
              <LongitudeDegrees>-3.68532978929579257965087890625</LongitudeDegrees>
            </Position>
            <AltitudeMeters>845.20001220703125</AltitudeMeters>
            <DistanceMeters>37888.546050655</DistanceMeters>
          </Trackpoint>
          <Trackpoint>
            <Time>2020-03-07T14:31:23.000Z</Time>
            <Position>
              <LatitudeDegrees>40.784456916153430938720703125</LatitudeDegrees>
              <LongitudeDegrees>-3.68527664802968502044677734375</LongitudeDegrees>
            </Position>
            <AltitudeMeters>845.20001220703125</AltitudeMeters>
            <DistanceMeters>37895.455610276</DistanceMeters>
          </Trackpoint>
          <Trackpoint>
            <Time>2020-03-07T14:31:24.000Z</Time>
            <Position>
              <LatitudeDegrees>40.78449237160384654998779296875</LatitudeDegrees>
              <LongitudeDegrees>-3.6852116882801055908203125</LongitudeDegrees>
            </Position>
            <AltitudeMeters>845</AltitudeMeters>
            <DistanceMeters>37902.204514304</DistanceMeters>
          </Trackpoint>
          <Trackpoint>
            <Time>2020-03-07T14:31:25.000Z</Time>
            <Position>
              <LatitudeDegrees>40.7845155894756317138671875</LatitudeDegrees>
              <LongitudeDegrees>-3.68513918481767177581787109375</LongitudeDegrees>
            </Position>
            <AltitudeMeters>845</AltitudeMeters>
            <DistanceMeters>37908.838713019</DistanceMeters>
          </Trackpoint>
          <Trackpoint>
            <Time>2020-03-07T14:31:26.000Z</Time>
            <Position>
              <LatitudeDegrees>40.7845355384051799774169921875</LatitudeDegrees>
              <LongitudeDegrees>-3.68506760336458683013916015625</LongitudeDegrees>
            </Position>
            <AltitudeMeters>844.79998779296875</AltitudeMeters>
            <DistanceMeters>37915.266903263</DistanceMeters>
          </Trackpoint>
          <Trackpoint>
            <Time>2020-03-07T14:31:27.000Z</Time>
            <Position>
              <LatitudeDegrees>40.7845556549727916717529296875</LatitudeDegrees>
              <LongitudeDegrees>-3.684998117387294769287109375</LongitudeDegrees>
            </Position>
            <AltitudeMeters>844.5999755859375</AltitudeMeters>
            <DistanceMeters>37921.536506341</DistanceMeters>
          </Trackpoint>
          <Trackpoint>
            <Time>2020-03-07T14:31:28.000Z</Time>
            <Position>
              <LatitudeDegrees>40.78457434661686420440673828125</LatitudeDegrees>
              <LongitudeDegrees>-3.68492946960031986236572265625</LongitudeDegrees>
            </Position>
            <AltitudeMeters>844.5999755859375</AltitudeMeters>
            <DistanceMeters>37927.684668668</DistanceMeters>
          </Trackpoint>
          <Trackpoint>
            <Time>2020-03-07T14:31:29.000Z</Time>
            <Position>
              <LatitudeDegrees>40.78459446318447589874267578125</LatitudeDegrees>
              <LongitudeDegrees>-3.68486224673688411712646484375</LongitudeDegrees>
            </Position>
            <AltitudeMeters>844.4000244140625</AltitudeMeters>
            <DistanceMeters>37933.775280626</DistanceMeters>
          </Trackpoint>
          <Trackpoint>
            <Time>2020-03-07T14:31:30.000Z</Time>
            <Position>
              <LatitudeDegrees>40.78461390919983386993408203125</LatitudeDegrees>
              <LongitudeDegrees>-3.68479602970182895660400390625</LongitudeDegrees>
            </Position>
            <AltitudeMeters>844.4000244140625</AltitudeMeters>
            <DistanceMeters>37939.760455081</DistanceMeters>
          </Trackpoint>
          <Trackpoint>
            <Time>2020-03-07T14:31:31.000Z</Time>
            <Position>
              <LatitudeDegrees>40.7846317626535892486572265625</LatitudeDegrees>
              <LongitudeDegrees>-3.684733249247074127197265625</LongitudeDegrees>
            </Position>
            <AltitudeMeters>844.20001220703125</AltitudeMeters>
            <DistanceMeters>37945.412747577</DistanceMeters>
          </Trackpoint>
          <Trackpoint>
            <Time>2020-03-07T14:31:32.000Z</Time>
            <Position>
              <LatitudeDegrees>40.784647352993488311767578125</LatitudeDegrees>
              <LongitudeDegrees>-3.68467784486711025238037109375</LongitudeDegrees>
            </Position>
            <AltitudeMeters>844.20001220703125</AltitudeMeters>
            <DistanceMeters>37950.393271645</DistanceMeters>
          </Trackpoint>
          <Trackpoint>
            <Time>2020-03-07T14:31:33.000Z</Time>
            <Position>
              <LatitudeDegrees>40.78465883620083332061767578125</LatitudeDegrees>
              <LongitudeDegrees>-3.6846328340470790863037109375</LongitudeDegrees>
            </Position>
            <AltitudeMeters>844.20001220703125</AltitudeMeters>
            <DistanceMeters>37954.395690365</DistanceMeters>
          </Trackpoint>
          <Trackpoint>
            <Time>2020-03-07T14:31:34.000Z</Time>
            <Position>
              <LatitudeDegrees>40.7846605964004993438720703125</LatitudeDegrees>
              <LongitudeDegrees>-3.6845999769866466522216796875</LongitudeDegrees>
            </Position>
            <AltitudeMeters>844</AltitudeMeters>
            <DistanceMeters>37957.172682494</DistanceMeters>
          </Trackpoint>
          <Trackpoint>
            <Time>2020-03-07T14:31:35.000Z</Time>
            <Position>
              <LatitudeDegrees>40.78465841710567474365234375</LatitudeDegrees>
              <LongitudeDegrees>-3.68458346463739871978759765625</LongitudeDegrees>
            </Position>
            <AltitudeMeters>844</AltitudeMeters>
            <DistanceMeters>37958.585356162</DistanceMeters>
          </Trackpoint>
          <Trackpoint>
            <Time>2020-03-07T14:31:36.000Z</Time>
            <Position>
              <LatitudeDegrees>40.7846579141914844512939453125</LatitudeDegrees>
              <LongitudeDegrees>-3.6845781840384006500244140625</LongitudeDegrees>
            </Position>
            <AltitudeMeters>844</AltitudeMeters>
            <DistanceMeters>37959.041088275</DistanceMeters>
          </Trackpoint>
          <Trackpoint>
            <Time>2020-03-07T14:35:09.000Z</Time>
            <Position>
              <LatitudeDegrees>40.78470979817211627960205078125</LatitudeDegrees>
              <LongitudeDegrees>-3.68449847213923931121826171875</LongitudeDegrees>
            </Position>
            <AltitudeMeters>845.20001220703125</AltitudeMeters>
            <DistanceMeters>37967.90000437</DistanceMeters>
          </Trackpoint>
          <Trackpoint>
            <Time>2020-03-07T14:35:10.000Z</Time>
            <Position>
              <LatitudeDegrees>40.78471952117979526519775390625</LatitudeDegrees>
              <LongitudeDegrees>-3.684474416077136993408203125</LongitudeDegrees>
            </Position>
            <AltitudeMeters>845.20001220703125</AltitudeMeters>
            <DistanceMeters>37970.196428686</DistanceMeters>
          </Trackpoint>
          <Trackpoint>
            <Time>2020-03-07T14:35:11.000Z</Time>
            <Position>
              <LatitudeDegrees>40.784728489816188812255859375</LatitudeDegrees>
              <LongitudeDegrees>-3.68444851599633693695068359375</LongitudeDegrees>
            </Position>
            <AltitudeMeters>845.20001220703125</AltitudeMeters>
            <DistanceMeters>37972.596676334</DistanceMeters>
          </Trackpoint>
          <Trackpoint>
            <Time>2020-03-07T14:35:12.000Z</Time>
            <Position>
              <LatitudeDegrees>40.7847403921186923980712890625</LatitudeDegrees>
              <LongitudeDegrees>-3.6844185926020145416259765625</LongitudeDegrees>
            </Position>
            <AltitudeMeters>845.20001220703125</AltitudeMeters>
            <DistanceMeters>37975.444308447</DistanceMeters>
          </Trackpoint>
          <Trackpoint>
            <Time>2020-03-07T14:35:13.000Z</Time>
            <Position>
              <LatitudeDegrees>40.78475489281117916107177734375</LatitudeDegrees>
              <LongitudeDegrees>-3.6843855679035186767578125</LongitudeDegrees>
            </Position>
            <AltitudeMeters>845.20001220703125</AltitudeMeters>
            <DistanceMeters>37978.662615095</DistanceMeters>
          </Trackpoint>
          <Trackpoint>
            <Time>2020-03-07T14:35:14.000Z</Time>
            <Position>
              <LatitudeDegrees>40.78477132134139537811279296875</LatitudeDegrees>
              <LongitudeDegrees>-3.684349693357944488525390625</LongitudeDegrees>
            </Position>
            <AltitudeMeters>845.20001220703125</AltitudeMeters>
            <DistanceMeters>37982.195257965</DistanceMeters>
          </Trackpoint>
          <Trackpoint>
            <Time>2020-03-07T14:35:15.000Z</Time>
            <Position>
              <LatitudeDegrees>40.7847891747951507568359375</LatitudeDegrees>
              <LongitudeDegrees>-3.68431105278432369232177734375</LongitudeDegrees>
            </Position>
            <AltitudeMeters>845.20001220703125</AltitudeMeters>
            <DistanceMeters>37986.01055392</DistanceMeters>
          </Trackpoint>
          <Trackpoint>
            <Time>2020-03-07T14:35:16.000Z</Time>
            <Position>
              <LatitudeDegrees>40.78480820171535015106201171875</LatitudeDegrees>
              <LongitudeDegrees>-3.684268556535243988037109375</LongitudeDegrees>
            </Position>
            <AltitudeMeters>845.20001220703125</AltitudeMeters>
            <DistanceMeters>37990.171161633</DistanceMeters>
          </Trackpoint>
          <Trackpoint>
            <Time>2020-03-07T14:35:17.000Z</Time>
            <Position>
              <LatitudeDegrees>40.78482873737812042236328125</LatitudeDegrees>
              <LongitudeDegrees>-3.6842248030006885528564453125</LongitudeDegrees>
            </Position>
            <AltitudeMeters>845.20001220703125</AltitudeMeters>
            <DistanceMeters>37994.509211807</DistanceMeters>
          </Trackpoint>
          <Trackpoint>
            <Time>2020-03-07T14:35:18.000Z</Time>
            <Position>
              <LatitudeDegrees>40.78485078178346157073974609375</LatitudeDegrees>
              <LongitudeDegrees>-3.68418213911354541778564453125</LongitudeDegrees>
            </Position>
            <AltitudeMeters>845.20001220703125</AltitudeMeters>
            <DistanceMeters>37998.862845973</DistanceMeters>
          </Trackpoint>
          <Trackpoint>
            <Time>2020-03-07T14:35:19.000Z</Time>
            <Position>
              <LatitudeDegrees>40.78487433493137359619140625</LatitudeDegrees>
              <LongitudeDegrees>-3.68413545191287994384765625</LongitudeDegrees>
            </Position>
            <AltitudeMeters>845.4000244140625</AltitudeMeters>
            <DistanceMeters>38003.590365323</DistanceMeters>
          </Trackpoint>
          <Trackpoint>
            <Time>2020-03-07T14:35:20.000Z</Time>
            <Position>
              <LatitudeDegrees>40.78489847481250762939453125</LatitudeDegrees>
              <LongitudeDegrees>-3.684084825217723846435546875</LongitudeDegrees>
            </Position>
            <AltitudeMeters>845.4000244140625</AltitudeMeters>
            <DistanceMeters>38008.633052629</DistanceMeters>
          </Trackpoint>
          <Trackpoint>
            <Time>2020-03-07T14:35:21.000Z</Time>
            <Position>
              <LatitudeDegrees>40.7849241234362125396728515625</LatitudeDegrees>
              <LongitudeDegrees>-3.68403428234159946441650390625</LongitudeDegrees>
            </Position>
            <AltitudeMeters>845.4000244140625</AltitudeMeters>
            <DistanceMeters>38013.760974489</DistanceMeters>
          </Trackpoint>
          <Trackpoint>
            <Time>2020-03-07T14:35:22.000Z</Time>
            <Position>
              <LatitudeDegrees>40.78495211899280548095703125</LatitudeDegrees>
              <LongitudeDegrees>-3.68398415856063365936279296875</LongitudeDegrees>
            </Position>
            <AltitudeMeters>845.20001220703125</AltitudeMeters>
            <DistanceMeters>38019.009856582</DistanceMeters>
          </Trackpoint>
          <Trackpoint>
            <Time>2020-03-07T14:35:23.000Z</Time>
            <Position>
              <LatitudeDegrees>40.78498137183487415313720703125</LatitudeDegrees>
              <LongitudeDegrees>-3.68393294513225555419921875</LongitudeDegrees>
            </Position>
            <AltitudeMeters>845.20001220703125</AltitudeMeters>
            <DistanceMeters>38024.41553206</DistanceMeters>
          </Trackpoint>
          <Trackpoint>
            <Time>2020-03-07T14:35:24.000Z</Time>
            <Position>
              <LatitudeDegrees>40.785012133419513702392578125</LatitudeDegrees>
              <LongitudeDegrees>-3.683878295123577117919921875</LongitudeDegrees>
            </Position>
            <AltitudeMeters>845.20001220703125</AltitudeMeters>
            <DistanceMeters>38030.155019744</DistanceMeters>
          </Trackpoint>
          <Trackpoint>
            <Time>2020-03-07T14:35:25.000Z</Time>
            <Position>
              <LatitudeDegrees>40.785042978823184967041015625</LatitudeDegrees>
              <LongitudeDegrees>-3.68382171727716922760009765625</LongitudeDegrees>
            </Position>
            <AltitudeMeters>845.20001220703125</AltitudeMeters>
            <DistanceMeters>38036.029792264</DistanceMeters>
          </Trackpoint>
          <Trackpoint>
            <Time>2020-03-07T14:35:26.000Z</Time>
            <Position>
              <LatitudeDegrees>40.785075835883617401123046875</LatitudeDegrees>
              <LongitudeDegrees>-3.68376388214528560638427734375</LongitudeDegrees>
            </Position>
            <AltitudeMeters>845.20001220703125</AltitudeMeters>
            <DistanceMeters>38042.124109651</DistanceMeters>
          </Trackpoint>
          <Trackpoint>
            <Time>2020-03-07T14:35:27.000Z</Time>
            <Position>
              <LatitudeDegrees>40.785107351839542388916015625</LatitudeDegrees>
              <LongitudeDegrees>-3.68370437063276767730712890625</LongitudeDegrees>
            </Position>
            <AltitudeMeters>845</AltitudeMeters>
            <DistanceMeters>38048.245777499</DistanceMeters>
          </Trackpoint>
          <Trackpoint>
            <Time>2020-03-07T14:35:28.000Z</Time>
            <Position>
              <LatitudeDegrees>40.7851403765380382537841796875</LatitudeDegrees>
              <LongitudeDegrees>-3.6836441047489643096923828125</LongitudeDegrees>
            </Position>
            <AltitudeMeters>845</AltitudeMeters>
            <DistanceMeters>38054.516100684</DistanceMeters>
          </Trackpoint>
          <Trackpoint>
            <Time>2020-03-07T14:35:29.000Z</Time>
            <Position>
              <LatitudeDegrees>40.78517465852200984954833984375</LatitudeDegrees>
              <LongitudeDegrees>-3.68358434177935123443603515625</LongitudeDegrees>
            </Position>
            <AltitudeMeters>845</AltitudeMeters>
            <DistanceMeters>38060.835198565</DistanceMeters>
          </Trackpoint>
          <Trackpoint>
            <Time>2020-03-07T14:35:30.000Z</Time>
            <Position>
              <LatitudeDegrees>40.78521036542952060699462890625</LatitudeDegrees>
              <LongitudeDegrees>-3.68352390825748443603515625</LongitudeDegrees>
            </Position>
            <AltitudeMeters>845</AltitudeMeters>
            <DistanceMeters>38067.294918625</DistanceMeters>
          </Trackpoint>
          <Trackpoint>
            <Time>2020-03-07T14:35:31.000Z</Time>
            <Position>
              <LatitudeDegrees>40.7852436415851116180419921875</LatitudeDegrees>
              <LongitudeDegrees>-3.683462552726268768310546875</LongitudeDegrees>
            </Position>
            <AltitudeMeters>845</AltitudeMeters>
            <DistanceMeters>38073.655322894</DistanceMeters>
          </Trackpoint>
          <Trackpoint>
            <Time>2020-03-07T14:35:32.000Z</Time>
            <Position>
              <LatitudeDegrees>40.7852775044739246368408203125</LatitudeDegrees>
              <LongitudeDegrees>-3.68339809589087963104248046875</LongitudeDegrees>
            </Position>
            <AltitudeMeters>844.79998779296875</AltitudeMeters>
            <DistanceMeters>38080.267024647</DistanceMeters>
          </Trackpoint>
          <Trackpoint>
            <Time>2020-03-07T14:35:33.000Z</Time>
            <Position>
              <LatitudeDegrees>40.78531161881983280181884765625</LatitudeDegrees>
              <LongitudeDegrees>-3.6833336390554904937744140625</LongitudeDegrees>
            </Position>
            <AltitudeMeters>844.5999755859375</AltitudeMeters>
            <DistanceMeters>38086.894414165</DistanceMeters>
          </Trackpoint>
          <Trackpoint>
            <Time>2020-03-07T14:35:34.000Z</Time>
            <Position>
              <LatitudeDegrees>40.78534598462283611297607421875</LatitudeDegrees>
              <LongitudeDegrees>-3.683271110057830810546875</LongitudeDegrees>
            </Position>
            <AltitudeMeters>844.5999755859375</AltitudeMeters>
            <DistanceMeters>38093.406344676</DistanceMeters>
          </Trackpoint>
          <Trackpoint>
            <Time>2020-03-07T14:35:35.000Z</Time>
            <Position>
              <LatitudeDegrees>40.785383619368076324462890625</LatitudeDegrees>
              <LongitudeDegrees>-3.6832079105079174041748046875</LongitudeDegrees>
            </Position>
            <AltitudeMeters>844.4000244140625</AltitudeMeters>
            <DistanceMeters>38100.18262232</DistanceMeters>
          </Trackpoint>
          <Trackpoint>
            <Time>2020-03-07T14:35:36.000Z</Time>
            <Position>
              <LatitudeDegrees>40.78542150557041168212890625</LatitudeDegrees>
              <LongitudeDegrees>-3.6831445433199405670166015625</LongitudeDegrees>
            </Position>
            <AltitudeMeters>844.20001220703125</AltitudeMeters>
            <DistanceMeters>38106.986163446</DistanceMeters>
          </Trackpoint>
          <Trackpoint>
            <Time>2020-03-07T14:35:37.000Z</Time>
            <Position>
              <LatitudeDegrees>40.78545914031565189361572265625</LatitudeDegrees>
              <LongitudeDegrees>-3.683082349598407745361328125</LongitudeDegrees>
            </Position>
            <AltitudeMeters>844.20001220703125</AltitudeMeters>
            <DistanceMeters>38113.694807199</DistanceMeters>
          </Trackpoint>
          <Trackpoint>
            <Time>2020-03-07T14:35:38.000Z</Time>
            <Position>
              <LatitudeDegrees>40.7854937575757503509521484375</LatitudeDegrees>
              <LongitudeDegrees>-3.6830194853246212005615234375</LongitudeDegrees>
            </Position>
            <AltitudeMeters>844</AltitudeMeters>
            <DistanceMeters>38120.245450164</DistanceMeters>
          </Trackpoint>
          <Trackpoint>
            <Time>2020-03-07T14:35:39.000Z</Time>
            <Position>
              <LatitudeDegrees>40.7855282910168170928955078125</LatitudeDegrees>
              <LongitudeDegrees>-3.6829551123082637786865234375</LongitudeDegrees>
            </Position>
            <AltitudeMeters>843.5999755859375</AltitudeMeters>
            <DistanceMeters>38126.893925493</DistanceMeters>
          </Trackpoint>
          <Trackpoint>
            <Time>2020-03-07T14:35:40.000Z</Time>
            <Position>
              <LatitudeDegrees>40.78556659631431102752685546875</LatitudeDegrees>
              <LongitudeDegrees>-3.682889230549335479736328125</LongitudeDegrees>
            </Position>
            <AltitudeMeters>843.4000244140625</AltitudeMeters>
            <DistanceMeters>38133.893725117</DistanceMeters>
          </Trackpoint>
          <Trackpoint>
            <Time>2020-03-07T14:35:41.000Z</Time>
            <Position>
              <LatitudeDegrees>40.78560523688793182373046875</LatitudeDegrees>
              <LongitudeDegrees>-3.68282360024750232696533203125</LongitudeDegrees>
            </Position>
            <AltitudeMeters>843</AltitudeMeters>
            <DistanceMeters>38140.899972012</DistanceMeters>
          </Trackpoint>
          <Trackpoint>
            <Time>2020-03-07T14:35:42.000Z</Time>
            <Position>
              <LatitudeDegrees>40.785643123090267181396484375</LatitudeDegrees>
              <LongitudeDegrees>-3.68276073597371578216552734375</LongitudeDegrees>
            </Position>
            <AltitudeMeters>843</AltitudeMeters>
            <DistanceMeters>38147.671583946</DistanceMeters>
          </Trackpoint>
          <Trackpoint>
            <Time>2020-03-07T14:35:43.000Z</Time>
            <Position>
              <LatitudeDegrees>40.78568167984485626220703125</LatitudeDegrees>
              <LongitudeDegrees>-3.68269938044250011444091796875</LongitudeDegrees>
            </Position>
            <AltitudeMeters>843</AltitudeMeters>
            <DistanceMeters>38154.390987358</DistanceMeters>
          </Trackpoint>
          <Trackpoint>
            <Time>2020-03-07T14:35:44.000Z</Time>
            <Position>
              <LatitudeDegrees>40.78572015278041362762451171875</LatitudeDegrees>
              <LongitudeDegrees>-3.682636432349681854248046875</LongitudeDegrees>
            </Position>
            <AltitudeMeters>842.79998779296875</AltitudeMeters>
            <DistanceMeters>38161.208450483</DistanceMeters>
          </Trackpoint>
          <Trackpoint>
            <Time>2020-03-07T14:35:45.000Z</Time>
            <Position>
              <LatitudeDegrees>40.78575770370662212371826171875</LatitudeDegrees>
              <LongitudeDegrees>-3.68257164023816585540771484375</LongitudeDegrees>
            </Position>
            <AltitudeMeters>842.79998779296875</AltitudeMeters>
            <DistanceMeters>38168.084603496</DistanceMeters>
          </Trackpoint>
          <Trackpoint>
            <Time>2020-03-07T14:35:46.000Z</Time>
            <Position>
              <LatitudeDegrees>40.78579659573733806610107421875</LatitudeDegrees>
              <LongitudeDegrees>-3.68250668048858642578125</LongitudeDegrees>
            </Position>
            <AltitudeMeters>842.79998779296875</AltitudeMeters>
            <DistanceMeters>38175.063731833</DistanceMeters>
          </Trackpoint>
          <Trackpoint>
            <Time>2020-03-07T14:35:47.000Z</Time>
            <Position>
              <LatitudeDegrees>40.7858380861580371856689453125</LatitudeDegrees>
              <LongitudeDegrees>-3.68244163691997528076171875</LongitudeDegrees>
            </Position>
            <AltitudeMeters>842.5999755859375</AltitudeMeters>
            <DistanceMeters>38182.231165466</DistanceMeters>
          </Trackpoint>
          <Trackpoint>
            <Time>2020-03-07T14:35:48.000Z</Time>
            <Position>
              <LatitudeDegrees>40.78587890602648258209228515625</LatitudeDegrees>
              <LongitudeDegrees>-3.6823774315416812896728515625</LongitudeDegrees>
            </Position>
            <AltitudeMeters>842.5999755859375</AltitudeMeters>
            <DistanceMeters>38189.296451206</DistanceMeters>
          </Trackpoint>
          <Trackpoint>
            <Time>2020-03-07T14:35:49.000Z</Time>
            <Position>
              <LatitudeDegrees>40.78591905534267425537109375</LatitudeDegrees>
              <LongitudeDegrees>-3.68231213651597499847412109375</LongitudeDegrees>
            </Position>
            <AltitudeMeters>842.5999755859375</AltitudeMeters>
            <DistanceMeters>38196.384705246</DistanceMeters>
          </Trackpoint>
          <Trackpoint>
            <Time>2020-03-07T14:35:50.000Z</Time>
            <Position>
              <LatitudeDegrees>40.78596021048724651336669921875</LatitudeDegrees>
              <LongitudeDegrees>-3.68224583566188812255859375</LongitudeDegrees>
            </Position>
            <AltitudeMeters>842.5999755859375</AltitudeMeters>
            <DistanceMeters>38203.609235808</DistanceMeters>
          </Trackpoint>
          <Trackpoint>
            <Time>2020-03-07T14:35:51.000Z</Time>
            <Position>
              <LatitudeDegrees>40.7860013656318187713623046875</LatitudeDegrees>
              <LongitudeDegrees>-3.68218003772199153900146484375</LongitudeDegrees>
            </Position>
            <AltitudeMeters>842.5999755859375</AltitudeMeters>
            <DistanceMeters>38210.801195059</DistanceMeters>
          </Trackpoint>
          <Trackpoint>
            <Time>2020-03-07T14:35:52.000Z</Time>
            <Position>
              <LatitudeDegrees>40.7860419340431690216064453125</LatitudeDegrees>
              <LongitudeDegrees>-3.682114072144031524658203125</LongitudeDegrees>
            </Position>
            <AltitudeMeters>842.4000244140625</AltitudeMeters>
            <DistanceMeters>38217.962957007</DistanceMeters>
          </Trackpoint>
          <Trackpoint>
            <Time>2020-03-07T14:35:53.000Z</Time>
            <Position>
              <LatitudeDegrees>40.7860818319022655487060546875</LatitudeDegrees>
              <LongitudeDegrees>-3.6820465140044689178466796875</LongitudeDegrees>
            </Position>
            <AltitudeMeters>842.4000244140625</AltitudeMeters>
            <DistanceMeters>38225.183111529</DistanceMeters>
          </Trackpoint>
          <Trackpoint>
            <Time>2020-03-07T14:35:54.000Z</Time>
            <Position>
              <LatitudeDegrees>40.78612181358039379119873046875</LatitudeDegrees>
              <LongitudeDegrees>-3.681978620588779449462890625</LongitudeDegrees>
            </Position>
            <AltitudeMeters>842.4000244140625</AltitudeMeters>
            <DistanceMeters>38232.431974531</DistanceMeters>
          </Trackpoint>
          <Trackpoint>
            <Time>2020-03-07T14:35:55.000Z</Time>
            <Position>
              <LatitudeDegrees>40.786162801086902618408203125</LatitudeDegrees>
              <LongitudeDegrees>-3.68190963752567768096923828125</LongitudeDegrees>
            </Position>
            <AltitudeMeters>842.4000244140625</AltitudeMeters>
            <DistanceMeters>38239.822096474</DistanceMeters>
          </Trackpoint>
          <Trackpoint>
            <Time>2020-03-07T14:35:56.000Z</Time>
            <Position>
              <LatitudeDegrees>40.786204040050506591796875</LatitudeDegrees>
              <LongitudeDegrees>-3.68184006772935390472412109375</LongitudeDegrees>
            </Position>
            <AltitudeMeters>842.4000244140625</AltitudeMeters>
            <DistanceMeters>38247.268214212</DistanceMeters>
          </Trackpoint>
          <Trackpoint>
            <Time>2020-03-07T14:35:57.000Z</Time>
            <Position>
              <LatitudeDegrees>40.78624402172863483428955078125</LatitudeDegrees>
              <LongitudeDegrees>-3.68176949210464954376220703125</LongitudeDegrees>
            </Position>
            <AltitudeMeters>842.4000244140625</AltitudeMeters>
            <DistanceMeters>38254.696118834</DistanceMeters>
          </Trackpoint>
          <Trackpoint>
            <Time>2020-03-07T14:35:58.000Z</Time>
            <Position>
              <LatitudeDegrees>40.78628442250192165374755859375</LatitudeDegrees>
              <LongitudeDegrees>-3.681700341403484344482421875</LongitudeDegrees>
            </Position>
            <AltitudeMeters>842.4000244140625</AltitudeMeters>
            <DistanceMeters>38262.056856478</DistanceMeters>
          </Trackpoint>
          <Trackpoint>
            <Time>2020-03-07T14:35:59.000Z</Time>
            <Position>
              <LatitudeDegrees>40.78632432036101818084716796875</LatitudeDegrees>
              <LongitudeDegrees>-3.68162984959781169891357421875</LongitudeDegrees>
            </Position>
            <AltitudeMeters>842.20001220703125</AltitudeMeters>
            <DistanceMeters>38269.473811763</DistanceMeters>
          </Trackpoint>
          <Trackpoint>
            <Time>2020-03-07T14:36:00.000Z</Time>
            <Position>
              <LatitudeDegrees>40.7863636314868927001953125</LatitudeDegrees>
              <LongitudeDegrees>-3.681558184325695037841796875</LongitudeDegrees>
            </Position>
            <AltitudeMeters>842.20001220703125</AltitudeMeters>
            <DistanceMeters>38276.932046869</DistanceMeters>
          </Trackpoint>
          <Trackpoint>
            <Time>2020-03-07T14:36:01.000Z</Time>
            <Position>
              <LatitudeDegrees>40.7864010147750377655029296875</LatitudeDegrees>
              <LongitudeDegrees>-3.68148635141551494598388671875</LongitudeDegrees>
            </Position>
            <AltitudeMeters>842</AltitudeMeters>
            <DistanceMeters>38284.278048286</DistanceMeters>
          </Trackpoint>
          <Trackpoint>
            <Time>2020-03-07T14:36:02.000Z</Time>
            <Position>
              <LatitudeDegrees>40.786437727510929107666015625</LatitudeDegrees>
              <LongitudeDegrees>-3.68141326121985912322998046875</LongitudeDegrees>
            </Position>
            <AltitudeMeters>842</AltitudeMeters>
            <DistanceMeters>38291.670613649</DistanceMeters>
          </Trackpoint>
          <Trackpoint>
            <Time>2020-03-07T14:36:03.000Z</Time>
            <Position>
              <LatitudeDegrees>40.7864737696945667266845703125</LatitudeDegrees>
              <LongitudeDegrees>-3.6813404224812984466552734375</LongitudeDegrees>
            </Position>
            <AltitudeMeters>842</AltitudeMeters>
            <DistanceMeters>38299.003696576</DistanceMeters>
          </Trackpoint>
          <Trackpoint>
            <Time>2020-03-07T14:36:04.000Z</Time>
            <Position>
              <LatitudeDegrees>40.786509476602077484130859375</LatitudeDegrees>
              <LongitudeDegrees>-3.68126741610467433929443359375</LongitudeDegrees>
            </Position>
            <AltitudeMeters>842</AltitudeMeters>
            <DistanceMeters>38306.328770926</DistanceMeters>
          </Trackpoint>
          <Trackpoint>
            <Time>2020-03-07T14:36:05.000Z</Time>
            <Position>
              <LatitudeDegrees>40.7865431718528270721435546875</LatitudeDegrees>
              <LongitudeDegrees>-3.6811945773661136627197265625</LongitudeDegrees>
            </Position>
            <AltitudeMeters>842</AltitudeMeters>
            <DistanceMeters>38313.521985647</DistanceMeters>
          </Trackpoint>
          <Trackpoint>
            <Time>2020-03-07T14:36:06.000Z</Time>
            <Position>
              <LatitudeDegrees>40.78657611273229122161865234375</LatitudeDegrees>
              <LongitudeDegrees>-3.681122995913028717041015625</LongitudeDegrees>
            </Position>
            <AltitudeMeters>842</AltitudeMeters>
            <DistanceMeters>38320.581517636</DistanceMeters>
          </Trackpoint>
          <Trackpoint>
            <Time>2020-03-07T14:36:07.000Z</Time>
            <Position>
              <LatitudeDegrees>40.78660846687853336334228515625</LatitudeDegrees>
              <LongitudeDegrees>-3.681052587926387786865234375</LongitudeDegrees>
            </Position>
            <AltitudeMeters>842</AltitudeMeters>
            <DistanceMeters>38327.521721361</DistanceMeters>
          </Trackpoint>
          <Trackpoint>
            <Time>2020-03-07T14:36:08.000Z</Time>
            <Position>
              <LatitudeDegrees>40.7866398990154266357421875</LatitudeDegrees>
              <LongitudeDegrees>-3.6809818446636199951171875</LongitudeDegrees>
            </Position>
            <AltitudeMeters>842</AltitudeMeters>
            <DistanceMeters>38334.433241049</DistanceMeters>
          </Trackpoint>
          <Trackpoint>
            <Time>2020-03-07T14:36:09.000Z</Time>
            <Position>
              <LatitudeDegrees>40.78666864894330501556396484375</LatitudeDegrees>
              <LongitudeDegrees>-3.68090934120118618011474609375</LongitudeDegrees>
            </Position>
            <AltitudeMeters>842</AltitudeMeters>
            <DistanceMeters>38341.329719326</DistanceMeters>
          </Trackpoint>
          <Trackpoint>
            <Time>2020-03-07T14:36:10.000Z</Time>
            <Position>
              <LatitudeDegrees>40.78669689595699310302734375</LatitudeDegrees>
              <LongitudeDegrees>-3.68083658628165721893310546875</LongitudeDegrees>
            </Position>
            <AltitudeMeters>842</AltitudeMeters>
            <DistanceMeters>38348.220302896</DistanceMeters>
          </Trackpoint>
          <Trackpoint>
            <Time>2020-03-07T14:36:11.000Z</Time>
            <Position>
              <LatitudeDegrees>40.78672430478036403656005859375</LatitudeDegrees>
              <LongitudeDegrees>-3.68076433427631855010986328125</LongitudeDegrees>
            </Position>
            <AltitudeMeters>842</AltitudeMeters>
            <DistanceMeters>38355.031140047</DistanceMeters>
          </Trackpoint>
          <Trackpoint>
            <Time>2020-03-07T14:36:12.000Z</Time>
            <Position>
              <LatitudeDegrees>40.7867493666708469390869140625</LatitudeDegrees>
              <LongitudeDegrees>-3.68069224990904331207275390625</LongitudeDegrees>
            </Position>
            <AltitudeMeters>842</AltitudeMeters>
            <DistanceMeters>38361.71551124</DistanceMeters>
          </Trackpoint>
          <Trackpoint>
            <Time>2020-03-07T14:36:13.000Z</Time>
            <Position>
              <LatitudeDegrees>40.7867721654474735260009765625</LatitudeDegrees>
              <LongitudeDegrees>-3.6806205846369266510009765625</LongitudeDegrees>
            </Position>
            <AltitudeMeters>842</AltitudeMeters>
            <DistanceMeters>38368.266154205</DistanceMeters>
          </Trackpoint>
          <Trackpoint>
            <Time>2020-03-07T14:36:14.000Z</Time>
            <Position>
              <LatitudeDegrees>40.78679454512894153594970703125</LatitudeDegrees>
              <LongitudeDegrees>-3.68055067956447601318359375</LongitudeDegrees>
            </Position>
            <AltitudeMeters>842.20001220703125</AltitudeMeters>
            <DistanceMeters>38374.661953318</DistanceMeters>
          </Trackpoint>
          <Trackpoint>
            <Time>2020-03-07T14:36:15.000Z</Time>
            <Position>
              <LatitudeDegrees>40.786815918982028961181640625</LatitudeDegrees>
              <LongitudeDegrees>-3.680481277406215667724609375</LongitudeDegrees>
            </Position>
            <AltitudeMeters>842.20001220703125</AltitudeMeters>
            <DistanceMeters>38380.975332558</DistanceMeters>
          </Trackpoint>
          <Trackpoint>
            <Time>2020-03-07T14:36:16.000Z</Time>
            <Position>
              <LatitudeDegrees>40.78683477826416492462158203125</LatitudeDegrees>
              <LongitudeDegrees>-3.6804117076098918914794921875</LongitudeDegrees>
            </Position>
            <AltitudeMeters>842.20001220703125</AltitudeMeters>
            <DistanceMeters>38387.202301985</DistanceMeters>
          </Trackpoint>
          <Trackpoint>
            <Time>2020-03-07T14:36:17.000Z</Time>
            <Position>
              <LatitudeDegrees>40.78685170970857143402099609375</LatitudeDegrees>
              <LongitudeDegrees>-3.680342137813568115234375</LongitudeDegrees>
            </Position>
            <AltitudeMeters>842.4000244140625</AltitudeMeters>
            <DistanceMeters>38393.360736938</DistanceMeters>
          </Trackpoint>
          <Trackpoint>
            <Time>2020-03-07T14:36:18.000Z</Time>
            <Position>
              <LatitudeDegrees>40.78686864115297794342041015625</LatitudeDegrees>
              <LongitudeDegrees>-3.680273406207561492919921875</LongitudeDegrees>
            </Position>
            <AltitudeMeters>842.5999755859375</AltitudeMeters>
            <DistanceMeters>38399.45060754</DistanceMeters>
          </Trackpoint>
          <Trackpoint>
            <Time>2020-03-07T14:36:19.000Z</Time>
            <Position>
              <LatitudeDegrees>40.78688590787351131439208984375</LatitudeDegrees>
              <LongitudeDegrees>-3.68020593188703060150146484375</LongitudeDegrees>
            </Position>
            <AltitudeMeters>842.5999755859375</AltitudeMeters>
            <DistanceMeters>38405.453107437</DistanceMeters>
          </Trackpoint>
          <Trackpoint>
            <Time>2020-03-07T14:36:20.000Z</Time>
            <Position>
              <LatitudeDegrees>40.7869039289653301239013671875</LatitudeDegrees>
              <LongitudeDegrees>-3.68014038540422916412353515625</LongitudeDegrees>
            </Position>
            <AltitudeMeters>842.5999755859375</AltitudeMeters>
            <DistanceMeters>38411.329416851</DistanceMeters>
          </Trackpoint>
          <Trackpoint>
            <Time>2020-03-07T14:36:21.000Z</Time>
            <Position>
              <LatitudeDegrees>40.786917172372341156005859375</LatitudeDegrees>
              <LongitudeDegrees>-3.68007634766399860382080078125</LongitudeDegrees>
            </Position>
            <AltitudeMeters>842.79998779296875</AltitudeMeters>
            <DistanceMeters>38416.92390029</DistanceMeters>
          </Trackpoint>
          <Trackpoint>
            <Time>2020-03-07T14:36:22.000Z</Time>
            <Position>
              <LatitudeDegrees>40.7869277335703372955322265625</LatitudeDegrees>
              <LongitudeDegrees>-3.6800140701234340667724609375</LongitudeDegrees>
            </Position>
            <AltitudeMeters>843</AltitudeMeters>
            <DistanceMeters>38422.301942206</DistanceMeters>
          </Trackpoint>
          <Trackpoint>
            <Time>2020-03-07T14:36:23.000Z</Time>
            <Position>
              <LatitudeDegrees>40.78693754039704799652099609375</LatitudeDegrees>
              <LongitudeDegrees>-3.679954223334789276123046875</LongitudeDegrees>
            </Position>
            <AltitudeMeters>843</AltitudeMeters>
            <DistanceMeters>38427.463213901</DistanceMeters>
          </Trackpoint>
          <Trackpoint>
            <Time>2020-03-07T14:36:24.000Z</Time>
            <Position>
              <LatitudeDegrees>40.7869495265185832977294921875</LatitudeDegrees>
              <LongitudeDegrees>-3.679895885288715362548828125</LongitudeDegrees>
            </Position>
            <AltitudeMeters>843.20001220703125</AltitudeMeters>
            <DistanceMeters>38432.557567609</DistanceMeters>
          </Trackpoint>
          <Trackpoint>
            <Time>2020-03-07T14:36:25.000Z</Time>
            <Position>
              <LatitudeDegrees>40.78696168027818202972412109375</LatitudeDegrees>
              <LongitudeDegrees>-3.67983813397586345672607421875</LongitudeDegrees>
            </Position>
            <AltitudeMeters>843.20001220703125</AltitudeMeters>
            <DistanceMeters>38437.609200615</DistanceMeters>
          </Trackpoint>
          <Trackpoint>
            <Time>2020-03-07T14:36:26.000Z</Time>
            <Position>
              <LatitudeDegrees>40.78697190620005130767822265625</LatitudeDegrees>
              <LongitudeDegrees>-3.67978147231042385101318359375</LongitudeDegrees>
            </Position>
            <AltitudeMeters>843.4000244140625</AltitudeMeters>
            <DistanceMeters>38442.519425061</DistanceMeters>
          </Trackpoint>
          <Trackpoint>
            <Time>2020-03-07T14:36:27.000Z</Time>
            <Position>
              <LatitudeDegrees>40.78698045574128627777099609375</LatitudeDegrees>
              <LongitudeDegrees>-3.67972447536885738372802734375</LongitudeDegrees>
            </Position>
            <AltitudeMeters>843.5999755859375</AltitudeMeters>
            <DistanceMeters>38447.416759339</DistanceMeters>
          </Trackpoint>
          <Trackpoint>
            <Time>2020-03-07T14:36:28.000Z</Time>
            <Position>
              <LatitudeDegrees>40.7869885861873626708984375</LatitudeDegrees>
              <LongitudeDegrees>-3.6796670593321323394775390625</LongitudeDegrees>
            </Position>
            <AltitudeMeters>843.79998779296875</AltitudeMeters>
            <DistanceMeters>38452.338923</DistanceMeters>
          </Trackpoint>
          <Trackpoint>
            <Time>2020-03-07T14:36:29.000Z</Time>
            <Position>
              <LatitudeDegrees>40.78699638135731220245361328125</LatitudeDegrees>
              <LongitudeDegrees>-3.679610230028629302978515625</LongitudeDegrees>
            </Position>
            <AltitudeMeters>844</AltitudeMeters>
            <DistanceMeters>38457.206665863</DistanceMeters>
          </Trackpoint>
          <Trackpoint>
            <Time>2020-03-07T14:36:30.000Z</Time>
            <Position>
              <LatitudeDegrees>40.7870051823556423187255859375</LatitudeDegrees>
              <LongitudeDegrees>-3.6795540712773799896240234375</LongitudeDegrees>
            </Position>
            <AltitudeMeters>844.20001220703125</AltitudeMeters>
            <DistanceMeters>38462.039033573</DistanceMeters>
          </Trackpoint>
          <Trackpoint>
            <Time>2020-03-07T14:36:31.000Z</Time>
            <Position>
              <LatitudeDegrees>40.78701163642108440399169921875</LatitudeDegrees>
              <LongitudeDegrees>-3.6794977448880672454833984375</LongitudeDegrees>
            </Position>
            <AltitudeMeters>844.4000244140625</AltitudeMeters>
            <DistanceMeters>38466.839528869</DistanceMeters>
          </Trackpoint>
          <Trackpoint>
            <Time>2020-03-07T14:36:32.000Z</Time>
            <Position>
              <LatitudeDegrees>40.78701951541006565093994140625</LatitudeDegrees>
              <LongitudeDegrees>-3.67944250814616680145263671875</LongitudeDegrees>
            </Position>
            <AltitudeMeters>844.79998779296875</AltitudeMeters>
            <DistanceMeters>38471.576589135</DistanceMeters>
          </Trackpoint>
          <Trackpoint>
            <Time>2020-03-07T14:36:33.000Z</Time>
            <Position>
              <LatitudeDegrees>40.7870263047516345977783203125</LatitudeDegrees>
              <LongitudeDegrees>-3.6793867684900760650634765625</LongitudeDegrees>
            </Position>
            <AltitudeMeters>845</AltitudeMeters>
            <DistanceMeters>38476.33362304</DistanceMeters>
          </Trackpoint>
          <Trackpoint>
            <Time>2020-03-07T14:36:34.000Z</Time>
            <Position>
              <LatitudeDegrees>40.78703393228352069854736328125</LatitudeDegrees>
              <LongitudeDegrees>-3.67933035828173160552978515625</LongitudeDegrees>
            </Position>
            <AltitudeMeters>845.20001220703125</AltitudeMeters>
            <DistanceMeters>38481.162251973</DistanceMeters>
          </Trackpoint>
          <Trackpoint>
            <Time>2020-03-07T14:36:35.000Z</Time>
            <Position>
              <LatitudeDegrees>40.7870434038341045379638671875</LatitudeDegrees>
              <LongitudeDegrees>-3.67927269078791141510009765625</LongitudeDegrees>
            </Position>
            <AltitudeMeters>845.20001220703125</AltitudeMeters>
            <DistanceMeters>38486.134610498</DistanceMeters>
          </Trackpoint>
          <Trackpoint>
            <Time>2020-03-07T14:36:36.000Z</Time>
            <Position>
              <LatitudeDegrees>40.7870502769947052001953125</LatitudeDegrees>
              <LongitudeDegrees>-3.679215274751186370849609375</LongitudeDegrees>
            </Position>
            <AltitudeMeters>845.5999755859375</AltitudeMeters>
            <DistanceMeters>38491.033788306</DistanceMeters>
          </Trackpoint>
          <Trackpoint>
            <Time>2020-03-07T14:36:37.000Z</Time>
            <Position>
              <LatitudeDegrees>40.787051953375339508056640625</LatitudeDegrees>
              <LongitudeDegrees>-3.6791550926864147186279296875</LongitudeDegrees>
            </Position>
            <AltitudeMeters>846</AltitudeMeters>
            <DistanceMeters>38496.10949595</DistanceMeters>
          </Trackpoint>
          <Trackpoint>
            <Time>2020-03-07T14:36:38.000Z</Time>
            <Position>
              <LatitudeDegrees>40.787051953375339508056640625</LatitudeDegrees>
              <LongitudeDegrees>-3.6790962517261505126953125</LongitudeDegrees>
            </Position>
            <AltitudeMeters>846.4000244140625</AltitudeMeters>
            <DistanceMeters>38501.069125799</DistanceMeters>
          </Trackpoint>
          <Trackpoint>
            <Time>2020-03-07T14:36:39.000Z</Time>
            <Position>
              <LatitudeDegrees>40.78705002553761005401611328125</LatitudeDegrees>
              <LongitudeDegrees>-3.67903598584234714508056640625</LongitudeDegrees>
            </Position>
            <AltitudeMeters>846.79998779296875</AltitudeMeters>
            <DistanceMeters>38506.152832988</DistanceMeters>
          </Trackpoint>
          <Trackpoint>
            <Time>2020-03-07T14:36:40.000Z</Time>
            <Position>
              <LatitudeDegrees>40.78704332001507282257080078125</LatitudeDegrees>
              <LongitudeDegrees>-3.67897513322532176971435546875</LongitudeDegrees>
            </Position>
            <AltitudeMeters>847</AltitudeMeters>
            <DistanceMeters>38511.335057157</DistanceMeters>
          </Trackpoint>
          <Trackpoint>
            <Time>2020-03-07T14:36:41.000Z</Time>
            <Position>
              <LatitudeDegrees>40.78703259117901325225830078125</LatitudeDegrees>
              <LongitudeDegrees>-3.678916208446025848388671875</LongitudeDegrees>
            </Position>
            <AltitudeMeters>847.5999755859375</AltitudeMeters>
            <DistanceMeters>38516.441803751</DistanceMeters>
          </Trackpoint>
          <Trackpoint>
            <Time>2020-03-07T14:36:42.000Z</Time>
            <Position>
              <LatitudeDegrees>40.78702186234295368194580078125</LatitudeDegrees>
              <LongitudeDegrees>-3.6788573674857616424560546875</LongitudeDegrees>
            </Position>
            <AltitudeMeters>847.79998779296875</AltitudeMeters>
            <DistanceMeters>38521.541472383</DistanceMeters>
          </Trackpoint>
          <Trackpoint>
            <Time>2020-03-07T14:36:43.000Z</Time>
            <Position>
              <LatitudeDegrees>40.78701029531657695770263671875</LatitudeDegrees>
              <LongitudeDegrees>-3.67879877798259258270263671875</LongitudeDegrees>
            </Position>
            <AltitudeMeters>848</AltitudeMeters>
            <DistanceMeters>38526.644681223</DistanceMeters>
          </Trackpoint>
          <Trackpoint>
            <Time>2020-03-07T14:36:44.000Z</Time>
            <Position>
              <LatitudeDegrees>40.78699705190956592559814453125</LatitudeDegrees>
              <LongitudeDegrees>-3.67874043993651866912841796875</LongitudeDegrees>
            </Position>
            <AltitudeMeters>848.20001220703125</AltitudeMeters>
            <DistanceMeters>38531.777883251</DistanceMeters>
          </Trackpoint>
          <Trackpoint>
            <Time>2020-03-07T14:36:45.000Z</Time>
            <Position>
              <LatitudeDegrees>40.78698179684579372406005859375</LatitudeDegrees>
              <LongitudeDegrees>-3.67868294008076190948486328125</LongitudeDegrees>
            </Position>
            <AltitudeMeters>848.4000244140625</AltitudeMeters>
            <DistanceMeters>38536.912844129</DistanceMeters>
          </Trackpoint>
          <Trackpoint>
            <Time>2020-03-07T14:36:46.000Z</Time>
            <Position>
              <LatitudeDegrees>40.78696402721107006072998046875</LatitudeDegrees>
              <LongitudeDegrees>-3.6786263622343540191650390625</LongitudeDegrees>
            </Position>
            <AltitudeMeters>848.4000244140625</AltitudeMeters>
            <DistanceMeters>38542.074115824</DistanceMeters>
          </Trackpoint>
          <Trackpoint>
            <Time>2020-03-07T14:36:47.000Z</Time>
            <Position>
              <LatitudeDegrees>40.78694458119571208953857421875</LatitudeDegrees>
              <LongitudeDegrees>-3.67857011966407299041748046875</LongitudeDegrees>
            </Position>
            <AltitudeMeters>848.5999755859375</AltitudeMeters>
            <DistanceMeters>38547.284145555</DistanceMeters>
          </Trackpoint>
          <Trackpoint>
            <Time>2020-03-07T14:36:48.000Z</Time>
            <Position>
              <LatitudeDegrees>40.7869242131710052490234375</LatitudeDegrees>
              <LongitudeDegrees>-3.6785147152841091156005859375</LongitudeDegrees>
            </Position>
            <AltitudeMeters>848.5999755859375</AltitudeMeters>
            <DistanceMeters>38552.475074962</DistanceMeters>
          </Trackpoint>
          <Trackpoint>
            <Time>2020-03-07T14:36:49.000Z</Time>
            <Position>
              <LatitudeDegrees>40.78690501861274242401123046875</LatitudeDegrees>
              <LongitudeDegrees>-3.6784593947231769561767578125</LongitudeDegrees>
            </Position>
            <AltitudeMeters>848.79998779296875</AltitudeMeters>
            <DistanceMeters>38557.604757482</DistanceMeters>
          </Trackpoint>
          <Trackpoint>
            <Time>2020-03-07T14:36:50.000Z</Time>
            <Position>
              <LatitudeDegrees>40.78688775189220905303955078125</LatitudeDegrees>
              <LongitudeDegrees>-3.6784044094383716583251953125</LongitudeDegrees>
            </Position>
            <AltitudeMeters>848.79998779296875</AltitudeMeters>
            <DistanceMeters>38562.621412049</DistanceMeters>
          </Trackpoint>
          <Trackpoint>
            <Time>2020-03-07T14:36:51.000Z</Time>
            <Position>
              <LatitudeDegrees>40.786872915923595428466796875</LatitudeDegrees>
              <LongitudeDegrees>-3.678349591791629791259765625</LongitudeDegrees>
            </Position>
            <AltitudeMeters>848.79998779296875</AltitudeMeters>
            <DistanceMeters>38567.526116286</DistanceMeters>
          </Trackpoint>
          <Trackpoint>
            <Time>2020-03-07T14:36:52.000Z</Time>
            <Position>
              <LatitudeDegrees>40.78685782849788665771484375</LatitudeDegrees>
              <LongitudeDegrees>-3.67829334922134876251220703125</LongitudeDegrees>
            </Position>
            <AltitudeMeters>848.79998779296875</AltitudeMeters>
            <DistanceMeters>38572.555355206</DistanceMeters>
          </Trackpoint>
          <Trackpoint>
            <Time>2020-03-07T14:36:53.000Z</Time>
            <Position>
              <LatitudeDegrees>40.78684299252927303314208984375</LatitudeDegrees>
              <LongitudeDegrees>-3.67823819629848003387451171875</LongitudeDegrees>
            </Position>
            <AltitudeMeters>849</AltitudeMeters>
            <DistanceMeters>38577.487598706</DistanceMeters>
          </Trackpoint>
          <Trackpoint>
            <Time>2020-03-07T14:36:54.000Z</Time>
            <Position>
              <LatitudeDegrees>40.786828659474849700927734375</LatitudeDegrees>
              <LongitudeDegrees>-3.678182624280452728271484375</LongitudeDegrees>
            </Position>
            <AltitudeMeters>849</AltitudeMeters>
            <DistanceMeters>38582.436292202</DistanceMeters>
          </Trackpoint>
          <Trackpoint>
            <Time>2020-03-07T14:36:55.000Z</Time>
            <Position>
              <LatitudeDegrees>40.78681566752493381500244140625</LatitudeDegrees>
              <LongitudeDegrees>-3.67812822572886943817138671875</LongitudeDegrees>
            </Position>
            <AltitudeMeters>849.20001220703125</AltitudeMeters>
            <DistanceMeters>38587.24336674</DistanceMeters>
          </Trackpoint>
          <Trackpoint>
            <Time>2020-03-07T14:36:56.000Z</Time>
            <Position>
              <LatitudeDegrees>40.786805860698223114013671875</LatitudeDegrees>
              <LongitudeDegrees>-3.67807424627244472503662109375</LongitudeDegrees>
            </Position>
            <AltitudeMeters>849.4000244140625</AltitudeMeters>
            <DistanceMeters>38591.921924777</DistanceMeters>
          </Trackpoint>
          <Trackpoint>
            <Time>2020-03-07T14:36:57.000Z</Time>
            <Position>
              <LatitudeDegrees>40.78680192120373249053955078125</LatitudeDegrees>
              <LongitudeDegrees>-3.67802160792052745819091796875</LongitudeDegrees>
            </Position>
            <AltitudeMeters>849.5999755859375</AltitudeMeters>
            <DistanceMeters>38596.38109828</DistanceMeters>
          </Trackpoint>
          <Trackpoint>
            <Time>2020-03-07T14:36:58.000Z</Time>
            <Position>
              <LatitudeDegrees>40.786809884011745452880859375</LatitudeDegrees>
              <LongitudeDegrees>-3.67797550745308399200439453125</LongitudeDegrees>
            </Position>
            <AltitudeMeters>849.79998779296875</AltitudeMeters>
            <DistanceMeters>38600.367692633</DistanceMeters>
          </Trackpoint>
          <Trackpoint>
            <Time>2020-03-07T14:36:59.000Z</Time>
            <Position>
              <LatitudeDegrees>40.78682564198970794677734375</LatitudeDegrees>
              <LongitudeDegrees>-3.67794181220233440399169921875</LongitudeDegrees>
            </Position>
            <AltitudeMeters>850.20001220703125</AltitudeMeters>
            <DistanceMeters>38603.707175289</DistanceMeters>
          </Trackpoint>
          <Trackpoint>
            <Time>2020-03-07T14:37:00.000Z</Time>
            <Position>
              <LatitudeDegrees>40.78684533946216106414794921875</LatitudeDegrees>
              <LongitudeDegrees>-3.677923120558261871337890625</LongitudeDegrees>
            </Position>
            <AltitudeMeters>850.4000244140625</AltitudeMeters>
            <DistanceMeters>38606.408342031</DistanceMeters>
          </Trackpoint>
          <Trackpoint>
            <Time>2020-03-07T14:37:01.000Z</Time>
            <Position>
              <LatitudeDegrees>40.786868222057819366455078125</LatitudeDegrees>
              <LongitudeDegrees>-3.67791381664574146270751953125</LongitudeDegrees>
            </Position>
            <AltitudeMeters>850.5999755859375</AltitudeMeters>
            <DistanceMeters>38609.072481683</DistanceMeters>
          </Trackpoint>
          <Trackpoint>
            <Time>2020-03-07T14:37:02.000Z</Time>
            <Position>
              <LatitudeDegrees>40.78689579851925373077392578125</LatitudeDegrees>
              <LongitudeDegrees>-3.677917420864105224609375</LongitudeDegrees>
            </Position>
            <AltitudeMeters>850.5999755859375</AltitudeMeters>
            <DistanceMeters>38612.15755876</DistanceMeters>
          </Trackpoint>
          <Trackpoint>
            <Time>2020-03-07T14:37:03.000Z</Time>
            <Position>
              <LatitudeDegrees>40.78692622482776641845703125</LatitudeDegrees>
              <LongitudeDegrees>-3.6779348552227020263671875</LongitudeDegrees>
            </Position>
            <AltitudeMeters>850.79998779296875</AltitudeMeters>
            <DistanceMeters>38615.848952176</DistanceMeters>
          </Trackpoint>
          <Trackpoint>
            <Time>2020-03-07T14:37:04.000Z</Time>
            <Position>
              <LatitudeDegrees>40.78695463947951793670654296875</LatitudeDegrees>
              <LongitudeDegrees>-3.67796838283538818359375</LongitudeDegrees>
            </Position>
            <AltitudeMeters>850.79998779296875</AltitudeMeters>
            <DistanceMeters>38620.089103376</DistanceMeters>
          </Trackpoint>
          <Trackpoint>
            <Time>2020-03-07T14:37:05.000Z</Time>
            <Position>
              <LatitudeDegrees>40.78697852790355682373046875</LatitudeDegrees>
              <LongitudeDegrees>-3.67801423184573650360107421875</LongitudeDegrees>
            </Position>
            <AltitudeMeters>850.79998779296875</AltitudeMeters>
            <DistanceMeters>38624.779227705</DistanceMeters>
          </Trackpoint>
          <Trackpoint>
            <Time>2020-03-07T14:37:06.000Z</Time>
            <Position>
              <LatitudeDegrees>40.7869974710047245025634765625</LatitudeDegrees>
              <LongitudeDegrees>-3.67806804366409778594970703125</LongitudeDegrees>
            </Position>
            <AltitudeMeters>851</AltitudeMeters>
            <DistanceMeters>38629.780558703</DistanceMeters>
          </Trackpoint>
          <Trackpoint>
            <Time>2020-03-07T14:37:07.000Z</Time>
            <Position>
              <LatitudeDegrees>40.787012390792369842529296875</LatitudeDegrees>
              <LongitudeDegrees>-3.6781279742717742919921875</LongitudeDegrees>
            </Position>
            <AltitudeMeters>851.20001220703125</AltitudeMeters>
            <DistanceMeters>38635.095262751</DistanceMeters>
          </Trackpoint>
          <Trackpoint>
            <Time>2020-03-07T14:37:08.000Z</Time>
            <Position>
              <LatitudeDegrees>40.78702588565647602081298828125</LatitudeDegrees>
              <LongitudeDegrees>-3.678191006183624267578125</LongitudeDegrees>
            </Position>
            <AltitudeMeters>851.4000244140625</AltitudeMeters>
            <DistanceMeters>38640.614998063</DistanceMeters>
          </Trackpoint>
          <Trackpoint>
            <Time>2020-03-07T14:37:09.000Z</Time>
            <Position>
              <LatitudeDegrees>40.7870393805205821990966796875</LatitudeDegrees>
              <LongitudeDegrees>-3.67825604975223541259765625</LongitudeDegrees>
            </Position>
            <AltitudeMeters>851.79998779296875</AltitudeMeters>
            <DistanceMeters>38646.299152663</DistanceMeters>
          </Trackpoint>
          <Trackpoint>
            <Time>2020-03-07T14:37:10.000Z</Time>
            <Position>
              <LatitudeDegrees>40.78705371357500553131103515625</LatitudeDegrees>
              <LongitudeDegrees>-3.678322769701480865478515625</LongitudeDegrees>
            </Position>
            <AltitudeMeters>851.79998779296875</AltitudeMeters>
            <DistanceMeters>38652.143875</DistanceMeters>
          </Trackpoint>
          <Trackpoint>
            <Time>2020-03-07T14:37:11.000Z</Time>
            <Position>
              <LatitudeDegrees>40.787070058286190032958984375</LatitudeDegrees>
              <LongitudeDegrees>-3.67839041166007518768310546875</LongitudeDegrees>
            </Position>
            <AltitudeMeters>852</AltitudeMeters>
            <DistanceMeters>38658.127540523</DistanceMeters>
          </Trackpoint>
          <Trackpoint>
            <Time>2020-03-07T14:37:12.000Z</Time>
            <Position>
              <LatitudeDegrees>40.78708657063543796539306640625</LatitudeDegrees>
              <LongitudeDegrees>-3.67845981381833553314208984375</LongitudeDegrees>
            </Position>
            <AltitudeMeters>852</AltitudeMeters>
            <DistanceMeters>38664.258789029</DistanceMeters>
          </Trackpoint>
          <Trackpoint>
            <Time>2020-03-07T14:37:13.000Z</Time>
            <Position>
              <LatitudeDegrees>40.7871017418801784515380859375</LatitudeDegrees>
              <LongitudeDegrees>-3.67852921597659587860107421875</LongitudeDegrees>
            </Position>
            <AltitudeMeters>852</AltitudeMeters>
            <DistanceMeters>38670.346435021</DistanceMeters>
          </Trackpoint>
          <Trackpoint>
            <Time>2020-03-07T14:37:14.000Z</Time>
            <Position>
              <LatitudeDegrees>40.78711708076298236846923828125</LatitudeDegrees>
              <LongitudeDegrees>-3.678601719439029693603515625</LongitudeDegrees>
            </Position>
            <AltitudeMeters>852</AltitudeMeters>
            <DistanceMeters>38676.691203006</DistanceMeters>
          </Trackpoint>
          <Trackpoint>
            <Time>2020-03-07T14:37:15.000Z</Time>
            <Position>
              <LatitudeDegrees>40.78713300637900829315185546875</LatitudeDegrees>
              <LongitudeDegrees>-3.67867656983435153961181640625</LongitudeDegrees>
            </Position>
            <AltitudeMeters>852</AltitudeMeters>
            <DistanceMeters>38683.243224329</DistanceMeters>
          </Trackpoint>
          <Trackpoint>
            <Time>2020-03-07T14:37:16.000Z</Time>
            <Position>
              <LatitudeDegrees>40.78714943490922451019287109375</LatitudeDegrees>
              <LongitudeDegrees>-3.67875150404870510101318359375</LongitudeDegrees>
            </Position>
            <AltitudeMeters>852</AltitudeMeters>
            <DistanceMeters>38689.817260065</DistanceMeters>
          </Trackpoint>
          <Trackpoint>
            <Time>2020-03-07T14:37:17.000Z</Time>
            <Position>
              <LatitudeDegrees>40.787165276706218719482421875</LatitudeDegrees>
              <LongitudeDegrees>-3.67882895283401012420654296875</LongitudeDegrees>
            </Position>
            <AltitudeMeters>852</AltitudeMeters>
            <DistanceMeters>38696.576859669</DistanceMeters>
          </Trackpoint>
          <Trackpoint>
            <Time>2020-03-07T14:37:18.000Z</Time>
            <Position>
              <LatitudeDegrees>40.787178687751293182373046875</LatitudeDegrees>
              <LongitudeDegrees>-3.67890648543834686279296875</LongitudeDegrees>
            </Position>
            <AltitudeMeters>852</AltitudeMeters>
            <DistanceMeters>38703.278769862</DistanceMeters>
          </Trackpoint>
          <Trackpoint>
            <Time>2020-03-07T14:37:19.000Z</Time>
            <Position>
              <LatitudeDegrees>40.78719117678701877593994140625</LatitudeDegrees>
              <LongitudeDegrees>-3.67898561060428619384765625</LongitudeDegrees>
            </Position>
            <AltitudeMeters>851.79998779296875</AltitudeMeters>
            <DistanceMeters>38710.089607013</DistanceMeters>
          </Trackpoint>
          <Trackpoint>
            <Time>2020-03-07T14:37:20.000Z</Time>
            <Position>
              <LatitudeDegrees>40.787204839289188385009765625</LatitudeDegrees>
              <LongitudeDegrees>-3.67906565777957439422607421875</LongitudeDegrees>
            </Position>
            <AltitudeMeters>851.79998779296875</AltitudeMeters>
            <DistanceMeters>38717.004392242</DistanceMeters>
          </Trackpoint>
          <Trackpoint>
            <Time>2020-03-07T14:37:21.000Z</Time>
            <Position>
              <LatitudeDegrees>40.78721984289586544036865234375</LatitudeDegrees>
              <LongitudeDegrees>-3.67914679460227489471435546875</LongitudeDegrees>
            </Position>
            <AltitudeMeters>851.79998779296875</AltitudeMeters>
            <DistanceMeters>38724.042786901</DistanceMeters>
          </Trackpoint>
          <Trackpoint>
            <Time>2020-03-07T14:37:22.000Z</Time>
            <Position>
              <LatitudeDegrees>40.7872351817786693572998046875</LatitudeDegrees>
              <LongitudeDegrees>-3.67922910489141941070556640625</LongitudeDegrees>
            </Position>
            <AltitudeMeters>851.5999755859375</AltitudeMeters>
            <DistanceMeters>38731.185610706</DistanceMeters>
          </Trackpoint>
          <Trackpoint>
            <Time>2020-03-07T14:37:23.000Z</Time>
            <Position>
              <LatitudeDegrees>40.78725077211856842041015625</LatitudeDegrees>
              <LongitudeDegrees>-3.67931292392313480377197265625</LongitudeDegrees>
            </Position>
            <AltitudeMeters>851.5999755859375</AltitudeMeters>
            <DistanceMeters>38738.458724744</DistanceMeters>
          </Trackpoint>
          <Trackpoint>
            <Time>2020-03-07T14:37:24.000Z</Time>
            <Position>
              <LatitudeDegrees>40.78726611100137233734130859375</LatitudeDegrees>
              <LongitudeDegrees>-3.67939732968807220458984375</LongitudeDegrees>
            </Position>
            <AltitudeMeters>851.4000244140625</AltitudeMeters>
            <DistanceMeters>38745.773930346</DistanceMeters>
          </Trackpoint>
          <Trackpoint>
            <Time>2020-03-07T14:37:25.000Z</Time>
            <Position>
              <LatitudeDegrees>40.7872807793319225311279296875</LatitudeDegrees>
              <LongitudeDegrees>-3.67948324419558048248291015625</LongitudeDegrees>
            </Position>
            <AltitudeMeters>851.4000244140625</AltitudeMeters>
            <DistanceMeters>38753.195753997</DistanceMeters>
          </Trackpoint>
          <Trackpoint>
            <Time>2020-03-07T14:37:26.000Z</Time>
            <Position>
              <LatitudeDegrees>40.78729595057666301727294921875</LatitudeDegrees>
              <LongitudeDegrees>-3.679571337997913360595703125</LongitudeDegrees>
            </Position>
            <AltitudeMeters>851.4000244140625</AltitudeMeters>
            <DistanceMeters>38760.809760221</DistanceMeters>
          </Trackpoint>
          <Trackpoint>
            <Time>2020-03-07T14:37:27.000Z</Time>
            <Position>
              <LatitudeDegrees>40.78731103800237178802490234375</LatitudeDegrees>
              <LongitudeDegrees>-3.67966094054281711578369140625</LongitudeDegrees>
            </Position>
            <AltitudeMeters>851.4000244140625</AltitudeMeters>
            <DistanceMeters>38768.544958119</DistanceMeters>
          </Trackpoint>
          <Trackpoint>
            <Time>2020-03-07T14:37:28.000Z</Time>
            <Position>
              <LatitudeDegrees>40.78732662834227085113525390625</LatitudeDegrees>
              <LongitudeDegrees>-3.679752051830291748046875</LongitudeDegrees>
            </Position>
            <AltitudeMeters>851.4000244140625</AltitudeMeters>
            <DistanceMeters>38776.416704085</DistanceMeters>
          </Trackpoint>
          <Trackpoint>
            <Time>2020-03-07T14:37:29.000Z</Time>
            <Position>
              <LatitudeDegrees>40.78734171576797962188720703125</LatitudeDegrees>
              <LongitudeDegrees>-3.6798437498509883880615234375</LongitudeDegrees>
            </Position>
            <AltitudeMeters>851.4000244140625</AltitudeMeters>
            <DistanceMeters>38784.325073667</DistanceMeters>
          </Trackpoint>
          <Trackpoint>
            <Time>2020-03-07T14:37:30.000Z</Time>
            <Position>
              <LatitudeDegrees>40.78735613264143466949462890625</LatitudeDegrees>
              <LongitudeDegrees>-3.67993586696684360504150390625</LongitudeDegrees>
            </Position>
            <AltitudeMeters>851.20001220703125</AltitudeMeters>
            <DistanceMeters>38792.251691603</DistanceMeters>
          </Trackpoint>
          <Trackpoint>
            <Time>2020-03-07T14:37:31.000Z</Time>
            <Position>
              <LatitudeDegrees>40.78737088479101657867431640625</LatitudeDegrees>
              <LongitudeDegrees>-3.6800291575491428375244140625</LongitudeDegrees>
            </Position>
            <AltitudeMeters>851.20001220703125</AltitudeMeters>
            <DistanceMeters>38800.283557271</DistanceMeters>
          </Trackpoint>
          <Trackpoint>
            <Time>2020-03-07T14:37:32.000Z</Time>
            <Position>
              <LatitudeDegrees>40.7873850502073764801025390625</LatitudeDegrees>
              <LongitudeDegrees>-3.680122196674346923828125</LongitudeDegrees>
            </Position>
            <AltitudeMeters>851</AltitudeMeters>
            <DistanceMeters>38808.280494271</DistanceMeters>
          </Trackpoint>
          <Trackpoint>
            <Time>2020-03-07T14:37:33.000Z</Time>
            <Position>
              <LatitudeDegrees>40.78739955089986324310302734375</LatitudeDegrees>
              <LongitudeDegrees>-3.680217079818248748779296875</LongitudeDegrees>
            </Position>
            <AltitudeMeters>850.79998779296875</AltitudeMeters>
            <DistanceMeters>38816.437307573</DistanceMeters>
          </Trackpoint>
          <Trackpoint>
            <Time>2020-03-07T14:37:34.000Z</Time>
            <Position>
              <LatitudeDegrees>40.78741430304944515228271484375</LatitudeDegrees>
              <LongitudeDegrees>-3.6803131364285945892333984375</LongitudeDegrees>
            </Position>
            <AltitudeMeters>850.5999755859375</AltitudeMeters>
            <DistanceMeters>38824.696435702</DistanceMeters>
          </Trackpoint>
          <Trackpoint>
            <Time>2020-03-07T14:37:35.000Z</Time>
            <Position>
              <LatitudeDegrees>40.78742871992290019989013671875</LatitudeDegrees>
              <LongitudeDegrees>-3.6804096959531307220458984375</LongitudeDegrees>
            </Position>
            <AltitudeMeters>850.5999755859375</AltitudeMeters>
            <DistanceMeters>38832.990477078</DistanceMeters>
          </Trackpoint>
          <Trackpoint>
            <Time>2020-03-07T14:37:36.000Z</Time>
            <Position>
              <LatitudeDegrees>40.78744363971054553985595703125</LatitudeDegrees>
              <LongitudeDegrees>-3.68050734512507915496826171875</LongitudeDegrees>
            </Position>
            <AltitudeMeters>850.4000244140625</AltitudeMeters>
            <DistanceMeters>38841.385160906</DistanceMeters>
          </Trackpoint>
          <Trackpoint>
            <Time>2020-03-07T14:37:37.000Z</Time>
            <Position>
              <LatitudeDegrees>40.78745939768850803375244140625</LatitudeDegrees>
              <LongitudeDegrees>-3.68060625158250331878662109375</LongitudeDegrees>
            </Position>
            <AltitudeMeters>850</AltitudeMeters>
            <DistanceMeters>38849.902120697</DistanceMeters>
          </Trackpoint>
          <Trackpoint>
            <Time>2020-03-07T14:37:38.000Z</Time>
            <Position>
              <LatitudeDegrees>40.78747498802840709686279296875</LatitudeDegrees>
              <LongitudeDegrees>-3.68070448748767375946044921875</LongitudeDegrees>
            </Position>
            <AltitudeMeters>850</AltitudeMeters>
            <DistanceMeters>38858.360032117</DistanceMeters>
          </Trackpoint>
          <Trackpoint>
            <Time>2020-03-07T14:37:39.000Z</Time>
            <Position>
              <LatitudeDegrees>40.787491165101528167724609375</LatitudeDegrees>
              <LongitudeDegrees>-3.6808039806783199310302734375</LongitudeDegrees>
            </Position>
            <AltitudeMeters>849.79998779296875</AltitudeMeters>
            <DistanceMeters>38866.935633703</DistanceMeters>
          </Trackpoint>
          <Trackpoint>
            <Time>2020-03-07T14:37:40.000Z</Time>
            <Position>
              <LatitudeDegrees>40.787509940564632415771484375</LatitudeDegrees>
              <LongitudeDegrees>-3.68090330623090267181396484375</LongitudeDegrees>
            </Position>
            <AltitudeMeters>849.5999755859375</AltitudeMeters>
            <DistanceMeters>38875.562677811</DistanceMeters>
          </Trackpoint>
          <Trackpoint>
            <Time>2020-03-07T14:37:41.000Z</Time>
            <Position>
              <LatitudeDegrees>40.7875295542180538177490234375</LatitudeDegrees>
              <LongitudeDegrees>-3.681003637611865997314453125</LongitudeDegrees>
            </Position>
            <AltitudeMeters>849.5999755859375</AltitudeMeters>
            <DistanceMeters>38884.295317479</DistanceMeters>
          </Trackpoint>
          <Trackpoint>
            <Time>2020-03-07T14:37:42.000Z</Time>
            <Position>
              <LatitudeDegrees>40.7875513471662998199462890625</LatitudeDegrees>
              <LongitudeDegrees>-3.6811040528118610382080078125</LongitudeDegrees>
            </Position>
            <AltitudeMeters>849.20001220703125</AltitudeMeters>
            <DistanceMeters>38893.097992411</DistanceMeters>
          </Trackpoint>
          <Trackpoint>
            <Time>2020-03-07T14:37:43.000Z</Time>
            <Position>
              <LatitudeDegrees>40.78757490031421184539794921875</LatitudeDegrees>
              <LongitudeDegrees>-3.68120379745960235595703125</LongitudeDegrees>
            </Position>
            <AltitudeMeters>849</AltitudeMeters>
            <DistanceMeters>38901.903231553</DistanceMeters>
          </Trackpoint>
          <Trackpoint>
            <Time>2020-03-07T14:37:44.000Z</Time>
            <Position>
              <LatitudeDegrees>40.787599794566631317138671875</LatitudeDegrees>
              <LongitudeDegrees>-3.681302368640899658203125</LongitudeDegrees>
            </Position>
            <AltitudeMeters>848.79998779296875</AltitudeMeters>
            <DistanceMeters>38910.660653505</DistanceMeters>
          </Trackpoint>
          <Trackpoint>
            <Time>2020-03-07T14:37:45.000Z</Time>
            <Position>
              <LatitudeDegrees>40.78762653283774852752685546875</LatitudeDegrees>
              <LongitudeDegrees>-3.68140135891735553741455078125</LongitudeDegrees>
            </Position>
            <AltitudeMeters>848.5999755859375</AltitudeMeters>
            <DistanceMeters>38919.517020931</DistanceMeters>
          </Trackpoint>
          <Trackpoint>
            <Time>2020-03-07T14:37:46.000Z</Time>
            <Position>
              <LatitudeDegrees>40.78765519894659519195556640625</LatitudeDegrees>
              <LongitudeDegrees>-3.68150076828896999359130859375</LongitudeDegrees>
            </Position>
            <AltitudeMeters>848.5999755859375</AltitudeMeters>
            <DistanceMeters>38928.480815898</DistanceMeters>
          </Trackpoint>
          <Trackpoint>
            <Time>2020-03-07T14:37:47.000Z</Time>
            <Position>
              <LatitudeDegrees>40.7876859605312347412109375</LatitudeDegrees>
              <LongitudeDegrees>-3.68160034529864788055419921875</LongitudeDegrees>
            </Position>
            <AltitudeMeters>848.5999755859375</AltitudeMeters>
            <DistanceMeters>38937.543794179</DistanceMeters>
          </Trackpoint>
          <Trackpoint>
            <Time>2020-03-07T14:37:48.000Z</Time>
            <Position>
              <LatitudeDegrees>40.7877194881439208984375</LatitudeDegrees>
              <LongitudeDegrees>-3.6816998384892940521240234375</LongitudeDegrees>
            </Position>
            <AltitudeMeters>848.20001220703125</AltitudeMeters>
            <DistanceMeters>38946.720639657</DistanceMeters>
          </Trackpoint>
          <Trackpoint>
            <Time>2020-03-07T14:37:49.000Z</Time>
            <Position>
              <LatitudeDegrees>40.78775578178465366363525390625</LatitudeDegrees>
              <LongitudeDegrees>-3.68179882876574993133544921875</LongitudeDegrees>
            </Position>
            <AltitudeMeters>848</AltitudeMeters>
            <DistanceMeters>38955.988545954</DistanceMeters>
          </Trackpoint>
          <Trackpoint>
            <Time>2020-03-07T14:37:50.000Z</Time>
            <Position>
              <LatitudeDegrees>40.787794925272464752197265625</LatitudeDegrees>
              <LongitudeDegrees>-3.68189706467092037200927734375</LongitudeDegrees>
            </Position>
            <AltitudeMeters>848</AltitudeMeters>
            <DistanceMeters>38965.342766432</DistanceMeters>
          </Trackpoint>
          <Trackpoint>
            <Time>2020-03-07T14:37:51.000Z</Time>
            <Position>
              <LatitudeDegrees>40.7878363318741321563720703125</LatitudeDegrees>
              <LongitudeDegrees>-3.68199429474771022796630859375</LongitudeDegrees>
            </Position>
            <AltitudeMeters>847.79998779296875</AltitudeMeters>
            <DistanceMeters>38974.743689693</DistanceMeters>
          </Trackpoint>
          <Trackpoint>
            <Time>2020-03-07T14:37:52.000Z</Time>
            <Position>
              <LatitudeDegrees>40.787880085408687591552734375</LatitudeDegrees>
              <LongitudeDegrees>-3.682090938091278076171875</LongitudeDegrees>
            </Position>
            <AltitudeMeters>847.79998779296875</AltitudeMeters>
            <DistanceMeters>38984.232572252</DistanceMeters>
          </Trackpoint>
          <Trackpoint>
            <Time>2020-03-07T14:37:53.000Z</Time>
            <Position>
              <LatitudeDegrees>40.78792626969516277313232421875</LatitudeDegrees>
              <LongitudeDegrees>-3.68218657560646533966064453125</LongitudeDegrees>
            </Position>
            <AltitudeMeters>847.5999755859375</AltitudeMeters>
            <DistanceMeters>38993.792089688</DistanceMeters>
          </Trackpoint>
          <Trackpoint>
            <Time>2020-03-07T14:37:54.000Z</Time>
            <Position>
              <LatitudeDegrees>40.7879748009145259857177734375</LatitudeDegrees>
              <LongitudeDegrees>-3.68228137493133544921875</LongitudeDegrees>
            </Position>
            <AltitudeMeters>847.5999755859375</AltitudeMeters>
            <DistanceMeters>39003.435779713</DistanceMeters>
          </Trackpoint>
          <Trackpoint>
            <Time>2020-03-07T14:37:55.000Z</Time>
            <Position>
              <LatitudeDegrees>40.78802534379065036773681640625</LatitudeDegrees>
              <LongitudeDegrees>-3.68237550370395183563232421875</LongitudeDegrees>
            </Position>
            <AltitudeMeters>847.5999755859375</AltitudeMeters>
            <DistanceMeters>39013.160128561</DistanceMeters>
          </Trackpoint>
          <Trackpoint>
            <Time>2020-03-07T14:37:56.000Z</Time>
            <Position>
              <LatitudeDegrees>40.788079239428043365478515625</LatitudeDegrees>
              <LongitudeDegrees>-3.68246845901012420654296875</LongitudeDegrees>
            </Position>
            <AltitudeMeters>847.4000244140625</AltitudeMeters>
            <DistanceMeters>39023.026446216</DistanceMeters>
          </Trackpoint>
          <Trackpoint>
            <Time>2020-03-07T14:37:57.000Z</Time>
            <Position>
              <LatitudeDegrees>40.7881360687315464019775390625</LatitudeDegrees>
              <LongitudeDegrees>-3.68256007321178913116455078125</LongitudeDegrees>
            </Position>
            <AltitudeMeters>847.4000244140625</AltitudeMeters>
            <DistanceMeters>39033.006513509</DistanceMeters>
          </Trackpoint>
          <Trackpoint>
            <Time>2020-03-07T14:37:58.000Z</Time>
            <Position>
              <LatitudeDegrees>40.78819549642503261566162109375</LatitudeDegrees>
              <LongitudeDegrees>-3.68265093304216861724853515625</LongitudeDegrees>
            </Position>
            <AltitudeMeters>847.20001220703125</AltitudeMeters>
            <DistanceMeters>39043.124962339</DistanceMeters>
          </Trackpoint>
          <Trackpoint>
            <Time>2020-03-07T14:37:59.000Z</Time>
            <Position>
              <LatitudeDegrees>40.788257606327533721923828125</LatitudeDegrees>
              <LongitudeDegrees>-3.682739697396755218505859375</LongitudeDegrees>
            </Position>
            <AltitudeMeters>847.20001220703125</AltitudeMeters>
            <DistanceMeters>39053.310124006</DistanceMeters>
          </Trackpoint>
          <Trackpoint>
            <Time>2020-03-07T14:38:00.000Z</Time>
            <Position>
              <LatitudeDegrees>40.78832172788679599761962890625</LatitudeDegrees>
              <LongitudeDegrees>-3.68282577954232692718505859375</LongitudeDegrees>
            </Position>
            <AltitudeMeters>847</AltitudeMeters>
            <DistanceMeters>39063.486415898</DistanceMeters>
          </Trackpoint>
          <Trackpoint>
            <Time>2020-03-07T14:38:01.000Z</Time>
            <Position>
              <LatitudeDegrees>40.788387022912502288818359375</LatitudeDegrees>
              <LongitudeDegrees>-3.6829098500311374664306640625</LongitudeDegrees>
            </Position>
            <AltitudeMeters>846.79998779296875</AltitudeMeters>
            <DistanceMeters>39073.636051954</DistanceMeters>
          </Trackpoint>
          <Trackpoint>
            <Time>2020-03-07T14:38:02.000Z</Time>
            <Position>
              <LatitudeDegrees>40.7884542457759380340576171875</LatitudeDegrees>
              <LongitudeDegrees>-3.6829916574060916900634765625</LongitudeDegrees>
            </Position>
            <AltitudeMeters>846.5999755859375</AltitudeMeters>
            <DistanceMeters>39083.810125193</DistanceMeters>
          </Trackpoint>
          <Trackpoint>
            <Time>2020-03-07T14:38:03.000Z</Time>
            <Position>
              <LatitudeDegrees>40.78852373175323009490966796875</LatitudeDegrees>
              <LongitudeDegrees>-3.6830721236765384674072265625</LongitudeDegrees>
            </Position>
            <AltitudeMeters>846.4000244140625</AltitudeMeters>
            <DistanceMeters>39094.095861706</DistanceMeters>
          </Trackpoint>
          <Trackpoint>
            <Time>2020-03-07T14:38:04.000Z</Time>
            <Position>
              <LatitudeDegrees>40.7885947264730930328369140625</LatitudeDegrees>
              <LongitudeDegrees>-3.68315032683312892913818359375</LongitudeDegrees>
            </Position>
            <AltitudeMeters>846.20001220703125</AltitudeMeters>
            <DistanceMeters>39104.385109309</DistanceMeters>
          </Trackpoint>
          <Trackpoint>
            <Time>2020-03-07T14:38:05.000Z</Time>
            <Position>
              <LatitudeDegrees>40.78866823576390743255615234375</LatitudeDegrees>
              <LongitudeDegrees>-3.68322559632360935211181640625</LongitudeDegrees>
            </Position>
            <AltitudeMeters>846.20001220703125</AltitudeMeters>
            <DistanceMeters>39114.737789025</DistanceMeters>
          </Trackpoint>
          <Trackpoint>
            <Time>2020-03-07T14:38:06.000Z</Time>
            <Position>
              <LatitudeDegrees>40.78874384053051471710205078125</LatitudeDegrees>
              <LongitudeDegrees>-3.6832984350621700286865234375</LongitudeDegrees>
            </Position>
            <AltitudeMeters>846</AltitudeMeters>
            <DistanceMeters>39125.153514559</DistanceMeters>
          </Trackpoint>
          <Trackpoint>
            <Time>2020-03-07T14:38:07.000Z</Time>
            <Position>
              <LatitudeDegrees>40.7888207025825977325439453125</LatitudeDegrees>
              <LongitudeDegrees>-3.68336892686784267425537109375</LongitudeDegrees>
            </Position>
            <AltitudeMeters>845.79998779296875</AltitudeMeters>
            <DistanceMeters>39135.569240093</DistanceMeters>
          </Trackpoint>
          <Trackpoint>
            <Time>2020-03-07T14:38:08.000Z</Time>
            <Position>
              <LatitudeDegrees>40.78889806754887104034423828125</LatitudeDegrees>
              <LongitudeDegrees>-3.68343807756900787353515625</LongitudeDegrees>
            </Position>
            <AltitudeMeters>845.4000244140625</AltitudeMeters>
            <DistanceMeters>39145.966309157</DistanceMeters>
          </Trackpoint>
          <Trackpoint>
            <Time>2020-03-07T14:38:09.000Z</Time>
            <Position>
              <LatitudeDegrees>40.78897685743868350982666015625</LatitudeDegrees>
              <LongitudeDegrees>-3.68350387550890445709228515625</LongitudeDegrees>
            </Position>
            <AltitudeMeters>845.20001220703125</AltitudeMeters>
            <DistanceMeters>39156.341207287</DistanceMeters>
          </Trackpoint>
          <Trackpoint>
            <Time>2020-03-07T14:38:10.000Z</Time>
            <Position>
              <LatitudeDegrees>40.789056234061717987060546875</LatitudeDegrees>
              <LongitudeDegrees>-3.6835674941539764404296875</LongitudeDegrees>
            </Position>
            <AltitudeMeters>845</AltitudeMeters>
            <DistanceMeters>39166.675553618</DistanceMeters>
          </Trackpoint>
          <Trackpoint>
            <Time>2020-03-07T14:38:11.000Z</Time>
            <Position>
              <LatitudeDegrees>40.7891358621418476104736328125</LatitudeDegrees>
              <LongitudeDegrees>-3.68363027460873126983642578125</LongitudeDegrees>
            </Position>
            <AltitudeMeters>845</AltitudeMeters>
            <DistanceMeters>39176.99722218</DistanceMeters>
          </Trackpoint>
          <Trackpoint>
            <Time>2020-03-07T14:38:12.000Z</Time>
            <Position>
              <LatitudeDegrees>40.7892156578600406646728515625</LatitudeDegrees>
              <LongitudeDegrees>-3.6836910434067249298095703125</LongitudeDegrees>
            </Position>
            <AltitudeMeters>844.79998779296875</AltitudeMeters>
            <DistanceMeters>39187.249543371</DistanceMeters>
          </Trackpoint>
          <Trackpoint>
            <Time>2020-03-07T14:38:13.000Z</Time>
            <Position>
              <LatitudeDegrees>40.7892952859401702880859375</LatitudeDegrees>
              <LongitudeDegrees>-3.68375030346214771270751953125</LongitudeDegrees>
            </Position>
            <AltitudeMeters>844.79998779296875</AltitudeMeters>
            <DistanceMeters>39197.422285186</DistanceMeters>
          </Trackpoint>
          <Trackpoint>
            <Time>2020-03-07T14:38:14.000Z</Time>
            <Position>
              <LatitudeDegrees>40.789374746382236480712890625</LatitudeDegrees>
              <LongitudeDegrees>-3.68380830623209476470947265625</LongitudeDegrees>
            </Position>
            <AltitudeMeters>844.79998779296875</AltitudeMeters>
            <DistanceMeters>39207.526891777</DistanceMeters>
          </Trackpoint>
          <Trackpoint>
            <Time>2020-03-07T14:38:15.000Z</Time>
            <Position>
              <LatitudeDegrees>40.7894540391862392425537109375</LatitudeDegrees>
              <LongitudeDegrees>-3.68386614136397838592529296875</LongitudeDegrees>
            </Position>
            <AltitudeMeters>844.79998779296875</AltitudeMeters>
            <DistanceMeters>39217.608684299</DistanceMeters>
          </Trackpoint>
          <Trackpoint>
            <Time>2020-03-07T14:38:16.000Z</Time>
            <Position>
              <LatitudeDegrees>40.78953224234282970428466796875</LatitudeDegrees>
              <LongitudeDegrees>-3.68392355740070343017578125</LongitudeDegrees>
            </Position>
            <AltitudeMeters>844.79998779296875</AltitudeMeters>
            <DistanceMeters>39227.56746583</DistanceMeters>
          </Trackpoint>
          <Trackpoint>
            <Time>2020-03-07T14:38:17.000Z</Time>
            <Position>
              <LatitudeDegrees>40.78960952349007129669189453125</LatitudeDegrees>
              <LongitudeDegrees>-3.6839803867042064666748046875</LongitudeDegrees>
            </Position>
            <AltitudeMeters>844.79998779296875</AltitudeMeters>
            <DistanceMeters>39237.412710395</DistanceMeters>
          </Trackpoint>
          <Trackpoint>
            <Time>2020-03-07T14:38:18.000Z</Time>
            <Position>
              <LatitudeDegrees>40.78968546353280544281005859375</LatitudeDegrees>
              <LongitudeDegrees>-3.68403696455061435699462890625</LongitudeDegrees>
            </Position>
            <AltitudeMeters>844.5999755859375</AltitudeMeters>
            <DistanceMeters>39247.117538952</DistanceMeters>
          </Trackpoint>
          <Trackpoint>
            <Time>2020-03-07T14:38:19.000Z</Time>
            <Position>
              <LatitudeDegrees>40.78976157121360301971435546875</LatitudeDegrees>
              <LongitudeDegrees>-3.68409194983541965484619140625</LongitudeDegrees>
            </Position>
            <AltitudeMeters>844.5999755859375</AltitudeMeters>
            <DistanceMeters>39256.772926526</DistanceMeters>
          </Trackpoint>
          <Trackpoint>
            <Time>2020-03-07T14:38:20.000Z</Time>
            <Position>
              <LatitudeDegrees>40.7898362539708614349365234375</LatitudeDegrees>
              <LongitudeDegrees>-3.6841460131108760833740234375</LongitudeDegrees>
            </Position>
            <AltitudeMeters>844.5999755859375</AltitudeMeters>
            <DistanceMeters>39266.252764118</DistanceMeters>
          </Trackpoint>
          <Trackpoint>
            <Time>2020-03-07T14:38:21.000Z</Time>
            <Position>
              <LatitudeDegrees>40.78991018235683441162109375</LatitudeDegrees>
              <LongitudeDegrees>-3.68419990874826908111572265625</LongitudeDegrees>
            </Position>
            <AltitudeMeters>844.4000244140625</AltitudeMeters>
            <DistanceMeters>39275.651285692</DistanceMeters>
          </Trackpoint>
          <Trackpoint>
            <Time>2020-03-07T14:38:22.000Z</Time>
            <Position>
              <LatitudeDegrees>40.78998318873345851898193359375</LatitudeDegrees>
              <LongitudeDegrees>-3.68425439111888408660888671875</LongitudeDegrees>
            </Position>
            <AltitudeMeters>844.20001220703125</AltitudeMeters>
            <DistanceMeters>39284.983760567</DistanceMeters>
          </Trackpoint>
          <Trackpoint>
            <Time>2020-03-07T14:38:23.000Z</Time>
            <Position>
              <LatitudeDegrees>40.7900561951100826263427734375</LatitudeDegrees>
              <LongitudeDegrees>-3.6843082867562770843505859375</LongitudeDegrees>
            </Position>
            <AltitudeMeters>844.20001220703125</AltitudeMeters>
            <DistanceMeters>39294.292499126</DistanceMeters>
          </Trackpoint>
          <Trackpoint>
            <Time>2020-03-07T14:38:24.000Z</Time>
            <Position>
              <LatitudeDegrees>40.79012869857251644134521484375</LatitudeDegrees>
              <LongitudeDegrees>-3.68436184711754322052001953125</LongitudeDegrees>
            </Position>
            <AltitudeMeters>844.20001220703125</AltitudeMeters>
            <DistanceMeters>39303.538456821</DistanceMeters>
          </Trackpoint>
          <Trackpoint>
            <Time>2020-03-07T14:38:25.000Z</Time>
            <Position>
              <LatitudeDegrees>40.79019986093044281005859375</LatitudeDegrees>
              <LongitudeDegrees>-3.6844165809452533721923828125</LongitudeDegrees>
            </Position>
            <AltitudeMeters>844.4000244140625</AltitudeMeters>
            <DistanceMeters>39312.703979237</DistanceMeters>
          </Trackpoint>
          <Trackpoint>
            <Time>2020-03-07T14:38:26.000Z</Time>
            <Position>
              <LatitudeDegrees>40.79027102328836917877197265625</LatitudeDegrees>
              <LongitudeDegrees>-3.68447081185877323150634765625</LongitudeDegrees>
            </Position>
            <AltitudeMeters>844.4000244140625</AltitudeMeters>
            <DistanceMeters>39321.848294841</DistanceMeters>
          </Trackpoint>
          <Trackpoint>
            <Time>2020-03-07T14:38:27.000Z</Time>
            <Position>
              <LatitudeDegrees>40.79034193418920040130615234375</LatitudeDegrees>
              <LongitudeDegrees>-3.6845242045819759368896484375</LongitudeDegrees>
            </Position>
            <AltitudeMeters>844.5999755859375</AltitudeMeters>
            <DistanceMeters>39330.93316681</DistanceMeters>
          </Trackpoint>
          <Trackpoint>
            <Time>2020-03-07T14:38:28.000Z</Time>
            <Position>
              <LatitudeDegrees>40.79041183926165103912353515625</LatitudeDegrees>
              <LongitudeDegrees>-3.684577681124210357666015625</LongitudeDegrees>
            </Position>
            <AltitudeMeters>844.5999755859375</AltitudeMeters>
            <DistanceMeters>39339.924120282</DistanceMeters>
          </Trackpoint>
          <Trackpoint>
            <Time>2020-03-07T14:38:29.000Z</Time>
            <Position>
              <LatitudeDegrees>40.79048207961022853851318359375</LatitudeDegrees>
              <LongitudeDegrees>-3.68463107384741306304931640625</LongitudeDegrees>
            </Position>
            <AltitudeMeters>844.5999755859375</AltitudeMeters>
            <DistanceMeters>39348.944152918</DistanceMeters>
          </Trackpoint>
          <Trackpoint>
            <Time>2020-03-07T14:38:30.000Z</Time>
            <Position>
              <LatitudeDegrees>40.79055315814912319183349609375</LatitudeDegrees>
              <LongitudeDegrees>-3.684684298932552337646484375</LongitudeDegrees>
            </Position>
            <AltitudeMeters>844.79998779296875</AltitudeMeters>
            <DistanceMeters>39358.037966204</DistanceMeters>
          </Trackpoint>
          <Trackpoint>
            <Time>2020-03-07T14:38:31.000Z</Time>
            <Position>
              <LatitudeDegrees>40.79062423668801784515380859375</LatitudeDegrees>
              <LongitudeDegrees>-3.68473702110350131988525390625</LongitudeDegrees>
            </Position>
            <AltitudeMeters>844.79998779296875</AltitudeMeters>
            <DistanceMeters>39367.111897932</DistanceMeters>
          </Trackpoint>
          <Trackpoint>
            <Time>2020-03-07T14:38:32.000Z</Time>
            <Position>
              <LatitudeDegrees>40.79069514758884906768798828125</LatitudeDegrees>
              <LongitudeDegrees>-3.68479217402637004852294921875</LongitudeDegrees>
            </Position>
            <AltitudeMeters>844.79998779296875</AltitudeMeters>
            <DistanceMeters>39376.271014165</DistanceMeters>
          </Trackpoint>
          <Trackpoint>
            <Time>2020-03-07T14:38:33.000Z</Time>
            <Position>
              <LatitudeDegrees>40.79076438210904598236083984375</LatitudeDegrees>
              <LongitudeDegrees>-3.68484984152019023895263671875</LongitudeDegrees>
            </Position>
            <AltitudeMeters>844.79998779296875</AltitudeMeters>
            <DistanceMeters>39385.381197072</DistanceMeters>
          </Trackpoint>
          <Trackpoint>
            <Time>2020-03-07T14:38:34.000Z</Time>
            <Position>
              <LatitudeDegrees>40.790832526981830596923828125</LatitudeDegrees>
              <LongitudeDegrees>-3.684908933937549591064453125</LongitudeDegrees>
            </Position>
            <AltitudeMeters>844.79998779296875</AltitudeMeters>
            <DistanceMeters>39394.454133579</DistanceMeters>
          </Trackpoint>
          <Trackpoint>
            <Time>2020-03-07T14:38:35.000Z</Time>
            <Position>
              <LatitudeDegrees>40.790900252759456634521484375</LatitudeDegrees>
              <LongitudeDegrees>-3.68496886454522609710693359375</LongitudeDegrees>
            </Position>
            <AltitudeMeters>845</AltitudeMeters>
            <DistanceMeters>39403.527070086</DistanceMeters>
          </Trackpoint>
          <Trackpoint>
            <Time>2020-03-07T14:38:36.000Z</Time>
            <Position>
              <LatitudeDegrees>40.7909663021564483642578125</LatitudeDegrees>
              <LongitudeDegrees>-3.68502795696258544921875</LongitudeDegrees>
            </Position>
            <AltitudeMeters>845</AltitudeMeters>
            <DistanceMeters>39412.405840686</DistanceMeters>
          </Trackpoint>
          <Trackpoint>
            <Time>2020-03-07T14:38:37.000Z</Time>
            <Position>
              <LatitudeDegrees>40.7910325191915035247802734375</LatitudeDegrees>
              <LongitudeDegrees>-3.6850878037512302398681640625</LongitudeDegrees>
            </Position>
            <AltitudeMeters>845.20001220703125</AltitudeMeters>
            <DistanceMeters>39421.336835324</DistanceMeters>
          </Trackpoint>
          <Trackpoint>
            <Time>2020-03-07T14:38:38.000Z</Time>
            <Position>
              <LatitudeDegrees>40.79109781421720981597900390625</LatitudeDegrees>
              <LongitudeDegrees>-3.68514798581600189208984375</LongitudeDegrees>
            </Position>
            <AltitudeMeters>845.20001220703125</AltitudeMeters>
            <DistanceMeters>39430.198299354</DistanceMeters>
          </Trackpoint>
          <Trackpoint>
            <Time>2020-03-07T14:38:39.000Z</Time>
            <Position>
              <LatitudeDegrees>40.79116252250969409942626953125</LatitudeDegrees>
              <LongitudeDegrees>-3.68520892225205898284912109375</LongitudeDegrees>
            </Position>
            <AltitudeMeters>845.4000244140625</AltitudeMeters>
            <DistanceMeters>39439.043443915</DistanceMeters>
          </Trackpoint>
          <Trackpoint>
            <Time>2020-03-07T14:38:40.000Z</Time>
            <Position>
              <LatitudeDegrees>40.7912269793450832366943359375</LatitudeDegrees>
              <LongitudeDegrees>-3.68527178652584552764892578125</LongitudeDegrees>
            </Position>
            <AltitudeMeters>845.4000244140625</AltitudeMeters>
            <DistanceMeters>39447.961790921</DistanceMeters>
          </Trackpoint>
          <Trackpoint>
            <Time>2020-03-07T14:38:41.000Z</Time>
            <Position>
              <LatitudeDegrees>40.79129059799015522003173828125</LatitudeDegrees>
              <LongitudeDegrees>-3.68533498607575893402099609375</LongitudeDegrees>
            </Position>
            <AltitudeMeters>845.5999755859375</AltitudeMeters>
            <DistanceMeters>39456.822235865</DistanceMeters>
          </Trackpoint>
          <Trackpoint>
            <Time>2020-03-07T14:38:42.000Z</Time>
            <Position>
              <LatitudeDegrees>40.7913543842732906341552734375</LatitudeDegrees>
              <LongitudeDegrees>-3.68539768271148204803466796875</LongitudeDegrees>
            </Position>
            <AltitudeMeters>845.5999755859375</AltitudeMeters>
            <DistanceMeters>39465.671463115</DistanceMeters>
          </Trackpoint>
          <Trackpoint>
            <Time>2020-03-07T14:38:43.000Z</Time>
            <Position>
              <LatitudeDegrees>40.79141783528029918670654296875</LatitudeDegrees>
              <LongitudeDegrees>-3.68546088226139545440673828125</LongitudeDegrees>
            </Position>
            <AltitudeMeters>845.5999755859375</AltitudeMeters>
            <DistanceMeters>39474.516607677</DistanceMeters>
          </Trackpoint>
          <Trackpoint>
            <Time>2020-03-07T14:38:44.000Z</Time>
            <Position>
              <LatitudeDegrees>40.79147952608764171600341796875</LatitudeDegrees>
              <LongitudeDegrees>-3.6855256743729114532470703125</LongitudeDegrees>
            </Position>
            <AltitudeMeters>845.5999755859375</AltitudeMeters>
            <DistanceMeters>39483.289997649</DistanceMeters>
          </Trackpoint>
          <Trackpoint>
            <Time>2020-03-07T14:38:45.000Z</Time>
            <Position>
              <LatitudeDegrees>40.79153920523822307586669921875</LatitudeDegrees>
              <LongitudeDegrees>-3.685592897236347198486328125</LongitudeDegrees>
            </Position>
            <AltitudeMeters>845.5999755859375</AltitudeMeters>
            <DistanceMeters>39492.020051783</DistanceMeters>
          </Trackpoint>
          <Trackpoint>
            <Time>2020-03-07T14:38:46.000Z</Time>
            <Position>
              <LatitudeDegrees>40.7915974594652652740478515625</LatitudeDegrees>
              <LongitudeDegrees>-3.68566221557557582855224609375</LongitudeDegrees>
            </Position>
            <AltitudeMeters>845.79998779296875</AltitudeMeters>
            <DistanceMeters>39500.747002266</DistanceMeters>
          </Trackpoint>
          <Trackpoint>
            <Time>2020-03-07T14:38:47.000Z</Time>
            <Position>
              <LatitudeDegrees>40.7916554622352123260498046875</LatitudeDegrees>
              <LongitudeDegrees>-3.68573111481964588165283203125</LongitudeDegrees>
            </Position>
            <AltitudeMeters>845.79998779296875</AltitudeMeters>
            <DistanceMeters>39509.429345161</DistanceMeters>
          </Trackpoint>
          <Trackpoint>
            <Time>2020-03-07T14:38:48.000Z</Time>
            <Position>
              <LatitudeDegrees>40.79171287827193737030029296875</LatitudeDegrees>
              <LongitudeDegrees>-3.6858006007969379425048828125</LongitudeDegrees>
            </Position>
            <AltitudeMeters>845.79998779296875</AltitudeMeters>
            <DistanceMeters>39518.097115118</DistanceMeters>
          </Trackpoint>
          <Trackpoint>
            <Time>2020-03-07T14:38:49.000Z</Time>
            <Position>
              <LatitudeDegrees>40.79176895320415496826171875</LatitudeDegrees>
              <LongitudeDegrees>-3.68587092496454715728759765625</LongitudeDegrees>
            </Position>
            <AltitudeMeters>845.79998779296875</AltitudeMeters>
            <DistanceMeters>39526.703724036</DistanceMeters>
          </Trackpoint>
          <Trackpoint>
            <Time>2020-03-07T14:38:50.000Z</Time>
            <Position>
              <LatitudeDegrees>40.79182418994605541229248046875</LatitudeDegrees>
              <LongitudeDegrees>-3.68594217114150524139404296875</LongitudeDegrees>
            </Position>
            <AltitudeMeters>845.79998779296875</AltitudeMeters>
            <DistanceMeters>39535.297207914</DistanceMeters>
          </Trackpoint>
          <Trackpoint>
            <Time>2020-03-07T14:38:51.000Z</Time>
            <Position>
              <LatitudeDegrees>40.79187833704054355621337890625</LatitudeDegrees>
              <LongitudeDegrees>-3.68601509369909763336181640625</LongitudeDegrees>
            </Position>
            <AltitudeMeters>845.79998779296875</AltitudeMeters>
            <DistanceMeters>39543.904341417</DistanceMeters>
          </Trackpoint>
          <Trackpoint>
            <Time>2020-03-07T14:38:52.000Z</Time>
            <Position>
              <LatitudeDegrees>40.79193164594471454620361328125</LatitudeDegrees>
              <LongitudeDegrees>-3.68608835153281688690185546875</LongitudeDegrees>
            </Position>
            <AltitudeMeters>845.79998779296875</AltitudeMeters>
            <DistanceMeters>39552.466770433</DistanceMeters>
          </Trackpoint>
          <Trackpoint>
            <Time>2020-03-07T14:38:53.000Z</Time>
            <Position>
              <LatitudeDegrees>40.79198445193469524383544921875</LatitudeDegrees>
              <LongitudeDegrees>-3.68616244755685329437255859375</LongitudeDegrees>
            </Position>
            <AltitudeMeters>845.79998779296875</AltitudeMeters>
            <DistanceMeters>39561.041318958</DistanceMeters>
          </Trackpoint>
          <Trackpoint>
            <Time>2020-03-07T14:38:54.000Z</Time>
            <Position>
              <LatitudeDegrees>40.79203541390597820281982421875</LatitudeDegrees>
              <LongitudeDegrees>-3.68623838759958744049072265625</LongitudeDegrees>
            </Position>
            <AltitudeMeters>846</AltitudeMeters>
            <DistanceMeters>39569.592667333</DistanceMeters>
          </Trackpoint>
          <Trackpoint>
            <Time>2020-03-07T14:38:55.000Z</Time>
            <Position>
              <LatitudeDegrees>40.792085118591785430908203125</LatitudeDegrees>
              <LongitudeDegrees>-3.68631566874682903289794921875</LongitudeDegrees>
            </Position>
            <AltitudeMeters>846</AltitudeMeters>
            <DistanceMeters>39578.137677464</DistanceMeters>
          </Trackpoint>
          <Trackpoint>
            <Time>2020-03-07T14:38:56.000Z</Time>
            <Position>
              <LatitudeDegrees>40.792134068906307220458984375</LatitudeDegrees>
              <LongitudeDegrees>-3.6863937042653560638427734375</LongitudeDegrees>
            </Position>
            <AltitudeMeters>846</AltitudeMeters>
            <DistanceMeters>39586.677402129</DistanceMeters>
          </Trackpoint>
          <Trackpoint>
            <Time>2020-03-07T14:38:57.000Z</Time>
            <Position>
              <LatitudeDegrees>40.79218260012567043304443359375</LatitudeDegrees>
              <LongitudeDegrees>-3.68647274561226367950439453125</LongitudeDegrees>
            </Position>
            <AltitudeMeters>846</AltitudeMeters>
            <DistanceMeters>39595.253003715</DistanceMeters>
          </Trackpoint>
          <Trackpoint>
            <Time>2020-03-07T14:38:58.000Z</Time>
            <Position>
              <LatitudeDegrees>40.7922301255166530609130859375</LatitudeDegrees>
              <LongitudeDegrees>-3.6865519545972347259521484375</LongitudeDegrees>
            </Position>
            <AltitudeMeters>846</AltitudeMeters>
            <DistanceMeters>39603.768903193</DistanceMeters>
          </Trackpoint>
          <Trackpoint>
            <Time>2020-03-07T14:38:59.000Z</Time>
            <Position>
              <LatitudeDegrees>40.79227681271731853485107421875</LatitudeDegrees>
              <LongitudeDegrees>-3.6866319179534912109375</LongitudeDegrees>
            </Position>
            <AltitudeMeters>846</AltitudeMeters>
            <DistanceMeters>39612.27790742</DistanceMeters>
          </Trackpoint>
          <Trackpoint>
            <Time>2020-03-07T14:39:00.000Z</Time>
            <Position>
              <LatitudeDegrees>40.79232308082282543182373046875</LatitudeDegrees>
              <LongitudeDegrees>-3.68671213276684284210205078125</LongitudeDegrees>
            </Position>
            <AltitudeMeters>846.20001220703125</AltitudeMeters>
            <DistanceMeters>39620.775230012</DistanceMeters>
          </Trackpoint>
          <Trackpoint>
            <Time>2020-03-07T14:39:01.000Z</Time>
            <Position>
              <LatitudeDegrees>40.7923685945570468902587890625</LatitudeDegrees>
              <LongitudeDegrees>-3.6867940239608287811279296875</LongitudeDegrees>
            </Position>
            <AltitudeMeters>846.20001220703125</AltitudeMeters>
            <DistanceMeters>39629.335549536</DistanceMeters>
          </Trackpoint>
          <Trackpoint>
            <Time>2020-03-07T14:39:02.000Z</Time>
            <Position>
              <LatitudeDegrees>40.79241310246288776397705078125</LatitudeDegrees>
              <LongitudeDegrees>-3.68687507696449756622314453125</LongitudeDegrees>
            </Position>
            <AltitudeMeters>846.4000244140625</AltitudeMeters>
            <DistanceMeters>39637.77315125</DistanceMeters>
          </Trackpoint>
          <Trackpoint>
            <Time>2020-03-07T14:39:03.000Z</Time>
            <Position>
              <LatitudeDegrees>40.79245652072131633758544921875</LatitudeDegrees>
              <LongitudeDegrees>-3.686956129968166351318359375</LongitudeDegrees>
            </Position>
            <AltitudeMeters>846.5999755859375</AltitudeMeters>
            <DistanceMeters>39646.140360024</DistanceMeters>
          </Trackpoint>
          <Trackpoint>
            <Time>2020-03-07T14:39:04.000Z</Time>
            <Position>
              <LatitudeDegrees>40.79249809496104717254638671875</LatitudeDegrees>
              <LongitudeDegrees>-3.68703718297183513641357421875</LongitudeDegrees>
            </Position>
            <AltitudeMeters>846.79998779296875</AltitudeMeters>
            <DistanceMeters>39654.390189486</DistanceMeters>
          </Trackpoint>
          <Trackpoint>
            <Time>2020-03-07T14:39:05.000Z</Time>
            <Position>
              <LatitudeDegrees>40.79253832809627056121826171875</LatitudeDegrees>
              <LongitudeDegrees>-3.68711848743259906768798828125</LongitudeDegrees>
            </Position>
            <AltitudeMeters>846.79998779296875</AltitudeMeters>
            <DistanceMeters>39662.574632477</DistanceMeters>
          </Trackpoint>
          <Trackpoint>
            <Time>2020-03-07T14:39:06.000Z</Time>
            <Position>
              <LatitudeDegrees>40.79257805831730365753173828125</LatitudeDegrees>
              <LongitudeDegrees>-3.68720012716948986053466796875</LongitudeDegrees>
            </Position>
            <AltitudeMeters>847</AltitudeMeters>
            <DistanceMeters>39670.753556996</DistanceMeters>
          </Trackpoint>
          <Trackpoint>
            <Time>2020-03-07T14:39:07.000Z</Time>
            <Position>
              <LatitudeDegrees>40.79261644743382930755615234375</LatitudeDegrees>
              <LongitudeDegrees>-3.68728260509669780731201171875</LongitudeDegrees>
            </Position>
            <AltitudeMeters>847</AltitudeMeters>
            <DistanceMeters>39678.912584116</DistanceMeters>
          </Trackpoint>
          <Trackpoint>
            <Time>2020-03-07T14:39:08.000Z</Time>
            <Position>
              <LatitudeDegrees>40.7926539145410060882568359375</LatitudeDegrees>
              <LongitudeDegrees>-3.6873646639287471771240234375</LongitudeDegrees>
            </Position>
            <AltitudeMeters>847</AltitudeMeters>
            <DistanceMeters>39686.988177721</DistanceMeters>
          </Trackpoint>
          <Trackpoint>
            <Time>2020-03-07T14:39:09.000Z</Time>
            <Position>
              <LatitudeDegrees>40.79269037581980228424072265625</LatitudeDegrees>
              <LongitudeDegrees>-3.68744655512273311614990234375</LongitudeDegrees>
            </Position>
            <AltitudeMeters>847</AltitudeMeters>
            <DistanceMeters>39694.99414316</DistanceMeters>
          </Trackpoint>
          <Trackpoint>
            <Time>2020-03-07T14:39:10.000Z</Time>
            <Position>
              <LatitudeDegrees>40.79272658564150333404541015625</LatitudeDegrees>
              <LongitudeDegrees>-3.68752853013575077056884765625</LongitudeDegrees>
            </Position>
            <AltitudeMeters>847.20001220703125</AltitudeMeters>
            <DistanceMeters>39702.991080159</DistanceMeters>
          </Trackpoint>
          <Trackpoint>
            <Time>2020-03-07T14:39:11.000Z</Time>
            <Position>
              <LatitudeDegrees>40.79276195727288722991943359375</LatitudeDegrees>
              <LongitudeDegrees>-3.687610924243927001953125</LongitudeDegrees>
            </Position>
            <AltitudeMeters>847.20001220703125</AltitudeMeters>
            <DistanceMeters>39710.972192816</DistanceMeters>
          </Trackpoint>
          <Trackpoint>
            <Time>2020-03-07T14:39:12.000Z</Time>
            <Position>
              <LatitudeDegrees>40.79279598779976367950439453125</LatitudeDegrees>
              <LongitudeDegrees>-3.68769482709467411041259765625</LongitudeDegrees>
            </Position>
            <AltitudeMeters>847.20001220703125</AltitudeMeters>
            <DistanceMeters>39718.993370701</DistanceMeters>
          </Trackpoint>
          <Trackpoint>
            <Time>2020-03-07T14:39:13.000Z</Time>
            <Position>
              <LatitudeDegrees>40.79282884486019611358642578125</LatitudeDegrees>
              <LongitudeDegrees>-3.68777981959283351898193359375</LongitudeDegrees>
            </Position>
            <AltitudeMeters>847.20001220703125</AltitudeMeters>
            <DistanceMeters>39727.034225589</DistanceMeters>
          </Trackpoint>
          <Trackpoint>
            <Time>2020-03-07T14:39:14.000Z</Time>
            <Position>
              <LatitudeDegrees>40.79286061227321624755859375</LatitudeDegrees>
              <LongitudeDegrees>-3.68786497972905635833740234375</LongitudeDegrees>
            </Position>
            <AltitudeMeters>847.20001220703125</AltitudeMeters>
            <DistanceMeters>39735.033985071</DistanceMeters>
          </Trackpoint>
          <Trackpoint>
            <Time>2020-03-07T14:39:15.000Z</Time>
            <Position>
              <LatitudeDegrees>40.79289120621979236602783203125</LatitudeDegrees>
              <LongitudeDegrees>-3.68795097805559635162353515625</LongitudeDegrees>
            </Position>
            <AltitudeMeters>847.20001220703125</AltitudeMeters>
            <DistanceMeters>39743.041078348</DistanceMeters>
          </Trackpoint>
          <Trackpoint>
            <Time>2020-03-07T14:39:16.000Z</Time>
            <Position>
              <LatitudeDegrees>40.79292087815701961517333984375</LatitudeDegrees>
              <LongitudeDegrees>-3.68803731165826320648193359375</LongitudeDegrees>
            </Position>
            <AltitudeMeters>847.20001220703125</AltitudeMeters>
            <DistanceMeters>39751.030107094</DistanceMeters>
          </Trackpoint>
          <Trackpoint>
            <Time>2020-03-07T14:39:17.000Z</Time>
            <Position>
              <LatitudeDegrees>40.7929509691894054412841796875</LatitudeDegrees>
              <LongitudeDegrees>-3.688124231994152069091796875</LongitudeDegrees>
            </Position>
            <AltitudeMeters>847.20001220703125</AltitudeMeters>
            <DistanceMeters>39759.083866409</DistanceMeters>
          </Trackpoint>
          <Trackpoint>
            <Time>2020-03-07T14:39:18.000Z</Time>
            <Position>
              <LatitudeDegrees>40.79297955147922039031982421875</LatitudeDegrees>
              <LongitudeDegrees>-3.6882115714251995086669921875</LongitudeDegrees>
            </Position>
            <AltitudeMeters>847.4000244140625</AltitudeMeters>
            <DistanceMeters>39767.102229351</DistanceMeters>
          </Trackpoint>
          <Trackpoint>
            <Time>2020-03-07T14:39:19.000Z</Time>
            <Position>
              <LatitudeDegrees>40.793006457388401031494140625</LatitudeDegrees>
              <LongitudeDegrees>-3.6882987432181835174560546875</LongitudeDegrees>
            </Position>
            <AltitudeMeters>847.5999755859375</AltitudeMeters>
            <DistanceMeters>39775.034541288</DistanceMeters>
          </Trackpoint>
          <Trackpoint>
            <Time>2020-03-07T14:39:20.000Z</Time>
            <Position>
              <LatitudeDegrees>40.79303336329758167266845703125</LatitudeDegrees>
              <LongitudeDegrees>-3.68838717229664325714111328125</LongitudeDegrees>
            </Position>
            <AltitudeMeters>847.79998779296875</AltitudeMeters>
            <DistanceMeters>39783.065282597</DistanceMeters>
          </Trackpoint>
          <Trackpoint>
            <Time>2020-03-07T14:39:21.000Z</Time>
            <Position>
              <LatitudeDegrees>40.7930595986545085906982421875</LatitudeDegrees>
              <LongitudeDegrees>-3.6884757690131664276123046875</LongitudeDegrees>
            </Position>
            <AltitudeMeters>848</AltitudeMeters>
            <DistanceMeters>39791.081392874</DistanceMeters>
          </Trackpoint>
          <Trackpoint>
            <Time>2020-03-07T14:39:22.000Z</Time>
            <Position>
              <LatitudeDegrees>40.79308449290692806243896484375</LatitudeDegrees>
              <LongitudeDegrees>-3.6885649524629116058349609375</LongitudeDegrees>
            </Position>
            <AltitudeMeters>848</AltitudeMeters>
            <DistanceMeters>39799.090741353</DistanceMeters>
          </Trackpoint>
          <Trackpoint>
            <Time>2020-03-07T14:39:23.000Z</Time>
            <Position>
              <LatitudeDegrees>40.79310812987387180328369140625</LatitudeDegrees>
              <LongitudeDegrees>-3.688653968274593353271484375</LongitudeDegrees>
            </Position>
            <AltitudeMeters>848.20001220703125</AltitudeMeters>
            <DistanceMeters>39807.038974792</DistanceMeters>
          </Trackpoint>
          <Trackpoint>
            <Time>2020-03-07T14:39:24.000Z</Time>
            <Position>
              <LatitudeDegrees>40.793131850659847259521484375</LatitudeDegrees>
              <LongitudeDegrees>-3.688745833933353424072265625</LongitudeDegrees>
            </Position>
            <AltitudeMeters>848.20001220703125</AltitudeMeters>
            <DistanceMeters>39815.217899311</DistanceMeters>
          </Trackpoint>
          <Trackpoint>
            <Time>2020-03-07T14:39:25.000Z</Time>
            <Position>
              <LatitudeDegrees>40.79315389506518840789794921875</LatitudeDegrees>
              <LongitudeDegrees>-3.68883644230663776397705078125</LongitudeDegrees>
            </Position>
            <AltitudeMeters>848.20001220703125</AltitudeMeters>
            <DistanceMeters>39823.23738835</DistanceMeters>
          </Trackpoint>
          <Trackpoint>
            <Time>2020-03-07T14:39:26.000Z</Time>
            <Position>
              <LatitudeDegrees>40.7931756041944026947021484375</LatitudeDegrees>
              <LongitudeDegrees>-3.6889273859560489654541015625</LongitudeDegrees>
            </Position>
            <AltitudeMeters>848.20001220703125</AltitudeMeters>
            <DistanceMeters>39831.272626154</DistanceMeters>
          </Trackpoint>
          <Trackpoint>
            <Time>2020-03-07T14:39:27.000Z</Time>
            <Position>
              <LatitudeDegrees>40.7931967265903949737548828125</LatitudeDegrees>
              <LongitudeDegrees>-3.68901916779577732086181640625</LongitudeDegrees>
            </Position>
            <AltitudeMeters>848.4000244140625</AltitudeMeters>
            <DistanceMeters>39839.356043324</DistanceMeters>
          </Trackpoint>
          <Trackpoint>
            <Time>2020-03-07T14:39:28.000Z</Time>
            <Position>
              <LatitudeDegrees>40.7932171784341335296630859375</LatitudeDegrees>
              <LongitudeDegrees>-3.68911120109260082244873046875</LongitudeDegrees>
            </Position>
            <AltitudeMeters>848.4000244140625</AltitudeMeters>
            <DistanceMeters>39847.438343306</DistanceMeters>
          </Trackpoint>
          <Trackpoint>
            <Time>2020-03-07T14:39:29.000Z</Time>
            <Position>
              <LatitudeDegrees>40.7932369597256183624267578125</LatitudeDegrees>
              <LongitudeDegrees>-3.6892029829323291778564453125</LongitudeDegrees>
            </Position>
            <AltitudeMeters>848.5999755859375</AltitudeMeters>
            <DistanceMeters>39855.479198195</DistanceMeters>
          </Trackpoint>
          <Trackpoint>
            <Time>2020-03-07T14:39:30.000Z</Time>
            <Position>
              <LatitudeDegrees>40.79325548373162746429443359375</LatitudeDegrees>
              <LongitudeDegrees>-3.68929392658174037933349609375</LongitudeDegrees>
            </Position>
            <AltitudeMeters>848.5999755859375</AltitudeMeters>
            <DistanceMeters>39863.414924571</DistanceMeters>
          </Trackpoint>
          <Trackpoint>
            <Time>2020-03-07T14:39:31.000Z</Time>
            <Position>
              <LatitudeDegrees>40.79327191226184368133544921875</LatitudeDegrees>
              <LongitudeDegrees>-3.6893847025930881500244140625</LongitudeDegrees>
            </Position>
            <AltitudeMeters>848.5999755859375</AltitudeMeters>
            <DistanceMeters>39871.279784623</DistanceMeters>
          </Trackpoint>
          <Trackpoint>
            <Time>2020-03-07T14:39:32.000Z</Time>
            <Position>
              <LatitudeDegrees>40.7932869158685207366943359375</LatitudeDegrees>
              <LongitudeDegrees>-3.6894752271473407745361328125</LongitudeDegrees>
            </Position>
            <AltitudeMeters>848.5999755859375</AltitudeMeters>
            <DistanceMeters>39879.08818242</DistanceMeters>
          </Trackpoint>
          <Trackpoint>
            <Time>2020-03-07T14:39:33.000Z</Time>
            <Position>
              <LatitudeDegrees>40.79330041073262691497802734375</LatitudeDegrees>
              <LongitudeDegrees>-3.68956625461578369140625</LongitudeDegrees>
            </Position>
            <AltitudeMeters>848.5999755859375</AltitudeMeters>
            <DistanceMeters>39886.904671224</DistanceMeters>
          </Trackpoint>
          <Trackpoint>
            <Time>2020-03-07T14:39:34.000Z</Time>
            <Position>
              <LatitudeDegrees>40.79331298358738422393798828125</LatitudeDegrees>
              <LongitudeDegrees>-3.689656443893909454345703125</LongitudeDegrees>
            </Position>
            <AltitudeMeters>848.5999755859375</AltitudeMeters>
            <DistanceMeters>39894.63227729</DistanceMeters>
          </Trackpoint>
          <Trackpoint>
            <Time>2020-03-07T14:39:35.000Z</Time>
            <Position>
              <LatitudeDegrees>40.79332605935633182525634765625</LatitudeDegrees>
              <LongitudeDegrees>-3.68974789045751094818115234375</LongitudeDegrees>
            </Position>
            <AltitudeMeters>848.5999755859375</AltitudeMeters>
            <DistanceMeters>39902.474140627</DistanceMeters>
          </Trackpoint>
          <Trackpoint>
            <Time>2020-03-07T14:39:36.000Z</Time>
            <Position>
              <LatitudeDegrees>40.79333846457302570343017578125</LatitudeDegrees>
              <LongitudeDegrees>-3.68984092958271503448486328125</LongitudeDegrees>
            </Position>
            <AltitudeMeters>848.79998779296875</AltitudeMeters>
            <DistanceMeters>39910.433727069</DistanceMeters>
          </Trackpoint>
          <Trackpoint>
            <Time>2020-03-07T14:39:37.000Z</Time>
            <Position>
              <LatitudeDegrees>40.79335003159940242767333984375</LatitudeDegrees>
              <LongitudeDegrees>-3.68993463926017284393310546875</LongitudeDegrees>
            </Position>
            <AltitudeMeters>848.79998779296875</AltitudeMeters>
            <DistanceMeters>39918.434050927</DistanceMeters>
          </Trackpoint>
          <Trackpoint>
            <Time>2020-03-07T14:39:38.000Z</Time>
            <Position>
              <LatitudeDegrees>40.7933603413403034210205078125</LatitudeDegrees>
              <LongitudeDegrees>-3.6900287680327892303466796875</LongitudeDegrees>
            </Position>
            <AltitudeMeters>848.79998779296875</AltitudeMeters>
            <DistanceMeters>39926.447907905</DistanceMeters>
          </Trackpoint>
          <Trackpoint>
            <Time>2020-03-07T14:39:39.000Z</Time>
            <Position>
              <LatitudeDegrees>40.79336914233863353729248046875</LatitudeDegrees>
              <LongitudeDegrees>-3.69012289680540561676025390625</LongitudeDegrees>
            </Position>
            <AltitudeMeters>849</AltitudeMeters>
            <DistanceMeters>39934.439761926</DistanceMeters>
          </Trackpoint>
          <Trackpoint>
            <Time>2020-03-07T14:39:40.000Z</Time>
            <Position>
              <LatitudeDegrees>40.79337685368955135345458984375</LatitudeDegrees>
              <LongitudeDegrees>-3.690217696130275726318359375</LongitudeDegrees>
            </Position>
            <AltitudeMeters>849</AltitudeMeters>
            <DistanceMeters>39942.473875842</DistanceMeters>
          </Trackpoint>
          <Trackpoint>
            <Time>2020-03-07T14:39:41.000Z</Time>
            <Position>
              <LatitudeDegrees>40.7933841459453105926513671875</LatitudeDegrees>
              <LongitudeDegrees>-3.69031081907451152801513671875</LongitudeDegrees>
            </Position>
            <AltitudeMeters>849</AltitudeMeters>
            <DistanceMeters>39950.362810298</DistanceMeters>
          </Trackpoint>
          <Trackpoint>
            <Time>2020-03-07T14:39:42.000Z</Time>
            <Position>
              <LatitudeDegrees>40.79339034855365753173828125</LatitudeDegrees>
              <LongitudeDegrees>-3.690405450761318206787109375</LongitudeDegrees>
            </Position>
            <AltitudeMeters>849.20001220703125</AltitudeMeters>
            <DistanceMeters>39958.366519582</DistanceMeters>
          </Trackpoint>
          <Trackpoint>
            <Time>2020-03-07T14:39:43.000Z</Time>
            <Position>
              <LatitudeDegrees>40.7933968864381313323974609375</LatitudeDegrees>
              <LongitudeDegrees>-3.69050075300037860870361328125</LongitudeDegrees>
            </Position>
            <AltitudeMeters>849.20001220703125</AltitudeMeters>
            <DistanceMeters>39966.430363608</DistanceMeters>
          </Trackpoint>
          <Trackpoint>
            <Time>2020-03-07T14:39:44.000Z</Time>
            <Position>
              <LatitudeDegrees>40.79340166412293910980224609375</LatitudeDegrees>
              <LongitudeDegrees>-3.6905948817729949951171875</LongitudeDegrees>
            </Position>
            <AltitudeMeters>849.4000244140625</AltitudeMeters>
            <DistanceMeters>39974.379733077</DistanceMeters>
          </Trackpoint>
          <Trackpoint>
            <Time>2020-03-07T14:39:45.000Z</Time>
            <Position>
              <LatitudeDegrees>40.79340501688420772552490234375</LatitudeDegrees>
              <LongitudeDegrees>-3.69068800471723079681396484375</LongitudeDegrees>
            </Position>
            <AltitudeMeters>849.4000244140625</AltitudeMeters>
            <DistanceMeters>39982.235402521</DistanceMeters>
          </Trackpoint>
          <Trackpoint>
            <Time>2020-03-07T14:39:46.000Z</Time>
            <Position>
              <LatitudeDegrees>40.79340803436934947967529296875</LatitudeDegrees>
              <LongitudeDegrees>-3.69078196585178375244140625</LongitudeDegrees>
            </Position>
            <AltitudeMeters>849.5999755859375</AltitudeMeters>
            <DistanceMeters>39990.15974171</DistanceMeters>
          </Trackpoint>
          <Trackpoint>
            <Time>2020-03-07T14:39:47.000Z</Time>
            <Position>
              <LatitudeDegrees>40.79341054894030094146728515625</LatitudeDegrees>
              <LongitudeDegrees>-3.690876178443431854248046875</LongitudeDegrees>
            </Position>
            <AltitudeMeters>849.5999755859375</AltitudeMeters>
            <DistanceMeters>39998.103429405</DistanceMeters>
          </Trackpoint>
          <Trackpoint>
            <Time>2020-03-07T14:39:48.000Z</Time>
            <Position>
              <LatitudeDegrees>40.7934124767780303955078125</LatitudeDegrees>
              <LongitudeDegrees>-3.6909702233970165252685546875</LongitudeDegrees>
            </Position>
            <AltitudeMeters>849.5999755859375</AltitudeMeters>
            <DistanceMeters>40006.030616925</DistanceMeters>
          </Trackpoint>
          <Trackpoint>
            <Time>2020-03-07T14:39:49.000Z</Time>
            <Position>
              <LatitudeDegrees>40.7934124767780303955078125</LatitudeDegrees>
              <LongitudeDegrees>-3.69106384925544261932373046875</LongitudeDegrees>
            </Position>
            <AltitudeMeters>849.5999755859375</AltitudeMeters>
            <DistanceMeters>40013.920123686</DistanceMeters>
          </Trackpoint>
          <Trackpoint>
            <Time>2020-03-07T14:39:50.000Z</Time>
            <Position>
              <LatitudeDegrees>40.793410800397396087646484375</LatitudeDegrees>
              <LongitudeDegrees>-3.691156804561614990234375</LongitudeDegrees>
            </Position>
            <AltitudeMeters>849.79998779296875</AltitudeMeters>
            <DistanceMeters>40021.755074845</DistanceMeters>
          </Trackpoint>
          <Trackpoint>
            <Time>2020-03-07T14:39:51.000Z</Time>
            <Position>
              <LatitudeDegrees>40.79340904019773006439208984375</LatitudeDegrees>
              <LongitudeDegrees>-3.69124975986778736114501953125</LongitudeDegrees>
            </Position>
            <AltitudeMeters>849.79998779296875</AltitudeMeters>
            <DistanceMeters>40029.590026004</DistanceMeters>
          </Trackpoint>
          <Trackpoint>
            <Time>2020-03-07T14:39:52.000Z</Time>
            <Position>
              <LatitudeDegrees>40.79340585507452487945556640625</LatitudeDegrees>
              <LongitudeDegrees>-3.69134229607880115509033203125</LongitudeDegrees>
            </Position>
            <AltitudeMeters>849.79998779296875</AltitudeMeters>
            <DistanceMeters>40037.395532122</DistanceMeters>
          </Trackpoint>
          <Trackpoint>
            <Time>2020-03-07T14:39:53.000Z</Time>
            <Position>
              <LatitudeDegrees>40.79340099357068538665771484375</LatitudeDegrees>
              <LongitudeDegrees>-3.6914344131946563720703125</LongitudeDegrees>
            </Position>
            <AltitudeMeters>849.79998779296875</AltitudeMeters>
            <DistanceMeters>40045.176125447</DistanceMeters>
          </Trackpoint>
          <Trackpoint>
            <Time>2020-03-07T14:39:54.000Z</Time>
            <Position>
              <LatitudeDegrees>40.79339747317135334014892578125</LatitudeDegrees>
              <LongitudeDegrees>-3.69152602739632129669189453125</LongitudeDegrees>
            </Position>
            <AltitudeMeters>849.79998779296875</AltitudeMeters>
            <DistanceMeters>40052.905484137</DistanceMeters>
          </Trackpoint>
          <Trackpoint>
            <Time>2020-03-07T14:39:55.000Z</Time>
            <Position>
              <LatitudeDegrees>40.7933958806097507476806640625</LatitudeDegrees>
              <LongitudeDegrees>-3.69161822833120822906494140625</LongitudeDegrees>
            </Position>
            <AltitudeMeters>850</AltitudeMeters>
            <DistanceMeters>40060.676787197</DistanceMeters>
          </Trackpoint>
          <Trackpoint>
            <Time>2020-03-07T14:39:56.000Z</Time>
            <Position>
              <LatitudeDegrees>40.7933990657329559326171875</LatitudeDegrees>
              <LongitudeDegrees>-3.6917108483612537384033203125</LongitudeDegrees>
            </Position>
            <AltitudeMeters>850</AltitudeMeters>
            <DistanceMeters>40068.489809452</DistanceMeters>
          </Trackpoint>
          <Trackpoint>
            <Time>2020-03-07T14:39:57.000Z</Time>
            <Position>
              <LatitudeDegrees>40.79340702854096889495849609375</LatitudeDegrees>
              <LongitudeDegrees>-3.69180363602936267852783203125</LongitudeDegrees>
            </Position>
            <AltitudeMeters>850</AltitudeMeters>
            <DistanceMeters>40076.359260783</DistanceMeters>
          </Trackpoint>
          <Trackpoint>
            <Time>2020-03-07T14:39:58.000Z</Time>
            <Position>
              <LatitudeDegrees>40.793419182300567626953125</LatitudeDegrees>
              <LongitudeDegrees>-3.6918955855071544647216796875</LongitudeDegrees>
            </Position>
            <AltitudeMeters>850.20001220703125</AltitudeMeters>
            <DistanceMeters>40084.225268907</DistanceMeters>
          </Trackpoint>
          <Trackpoint>
            <Time>2020-03-07T14:39:59.000Z</Time>
            <Position>
              <LatitudeDegrees>40.7934381254017353057861328125</LatitudeDegrees>
              <LongitudeDegrees>-3.691985942423343658447265625</LongitudeDegrees>
            </Position>
            <AltitudeMeters>850.20001220703125</AltitudeMeters>
            <DistanceMeters>40092.125070063</DistanceMeters>
          </Trackpoint>
          <Trackpoint>
            <Time>2020-03-07T14:40:00.000Z</Time>
            <Position>
              <LatitudeDegrees>40.7934579066932201385498046875</LatitudeDegrees>
              <LongitudeDegrees>-3.692076466977596282958984375</LongitudeDegrees>
            </Position>
            <AltitudeMeters>850.20001220703125</AltitudeMeters>
            <DistanceMeters>40100.06420941</DistanceMeters>
          </Trackpoint>
          <Trackpoint>
            <Time>2020-03-07T14:40:01.000Z</Time>
            <Position>
              <LatitudeDegrees>40.79345866106450557708740234375</LatitudeDegrees>
              <LongitudeDegrees>-3.6921685002744197845458984375</LongitudeDegrees>
            </Position>
            <AltitudeMeters>850.4000244140625</AltitudeMeters>
            <DistanceMeters>40107.820392058</DistanceMeters>
          </Trackpoint>
          <Trackpoint>
            <Time>2020-03-07T14:40:02.000Z</Time>
            <Position>
              <LatitudeDegrees>40.7934344373643398284912109375</LatitudeDegrees>
              <LongitudeDegrees>-3.6922570131719112396240234375</LongitudeDegrees>
            </Position>
            <AltitudeMeters>850.4000244140625</AltitudeMeters>
            <DistanceMeters>40115.751565522</DistanceMeters>
          </Trackpoint>
          <Trackpoint>
            <Time>2020-03-07T14:40:03.000Z</Time>
            <Position>
              <LatitudeDegrees>40.79339713789522647857666015625</LatitudeDegrees>
              <LongitudeDegrees>-3.6923394910991191864013671875</LongitudeDegrees>
            </Position>
            <AltitudeMeters>850.4000244140625</AltitudeMeters>
            <DistanceMeters>40123.846703862</DistanceMeters>
          </Trackpoint>
          <Trackpoint>
            <Time>2020-03-07T14:40:04.000Z</Time>
            <Position>
              <LatitudeDegrees>40.79335589893162250518798828125</LatitudeDegrees>
              <LongitudeDegrees>-3.6924187839031219482421875</LongitudeDegrees>
            </Position>
            <AltitudeMeters>850.4000244140625</AltitudeMeters>
            <DistanceMeters>40131.952432466</DistanceMeters>
          </Trackpoint>
          <Trackpoint>
            <Time>2020-03-07T14:40:05.000Z</Time>
            <Position>
              <LatitudeDegrees>40.79331650398671627044677734375</LatitudeDegrees>
              <LongitudeDegrees>-3.69249933399260044097900390625</LongitudeDegrees>
            </Position>
            <AltitudeMeters>850.4000244140625</AltitudeMeters>
            <DistanceMeters>40140.032497608</DistanceMeters>
          </Trackpoint>
          <Trackpoint>
            <Time>2020-03-07T14:40:06.000Z</Time>
            <Position>
              <LatitudeDegrees>40.7932849042117595672607421875</LatitudeDegrees>
              <LongitudeDegrees>-3.69258684106171131134033203125</LongitudeDegrees>
            </Position>
            <AltitudeMeters>850.4000244140625</AltitudeMeters>
            <DistanceMeters>40148.202584821</DistanceMeters>
          </Trackpoint>
          <Trackpoint>
            <Time>2020-03-07T14:40:07.000Z</Time>
            <Position>
              <LatitudeDegrees>40.793261267244815826416015625</LatitudeDegrees>
              <LongitudeDegrees>-3.69267761707305908203125</LongitudeDegrees>
            </Position>
            <AltitudeMeters>850.5999755859375</AltitudeMeters>
            <DistanceMeters>40156.29214377</DistanceMeters>
          </Trackpoint>
          <Trackpoint>
            <Time>2020-03-07T14:40:08.000Z</Time>
            <Position>
              <LatitudeDegrees>40.79324123449623584747314453125</LatitudeDegrees>
              <LongitudeDegrees>-3.692769818007946014404296875</LongitudeDegrees>
            </Position>
            <AltitudeMeters>850.5999755859375</AltitudeMeters>
            <DistanceMeters>40164.374443752</DistanceMeters>
          </Trackpoint>
          <Trackpoint>
            <Time>2020-03-07T14:40:09.000Z</Time>
            <Position>
              <LatitudeDegrees>40.7932225428521633148193359375</LatitudeDegrees>
              <LongitudeDegrees>-3.69286344386637210845947265625</LongitudeDegrees>
            </Position>
            <AltitudeMeters>850.5999755859375</AltitudeMeters>
            <DistanceMeters>40172.534024233</DistanceMeters>
          </Trackpoint>
          <Trackpoint>
            <Time>2020-03-07T14:40:10.000Z</Time>
            <Position>
              <LatitudeDegrees>40.793202929198741912841796875</LatitudeDegrees>
              <LongitudeDegrees>-3.6929579079151153564453125</LongitudeDegrees>
            </Position>
            <AltitudeMeters>850.5999755859375</AltitudeMeters>
            <DistanceMeters>40180.788230843</DistanceMeters>
          </Trackpoint>
          <Trackpoint>
            <Time>2020-03-07T14:40:11.000Z</Time>
            <Position>
              <LatitudeDegrees>40.79318247735500335693359375</LatitudeDegrees>
              <LongitudeDegrees>-3.69305270723998546600341796875</LongitudeDegrees>
            </Position>
            <AltitudeMeters>850.5999755859375</AltitudeMeters>
            <DistanceMeters>40189.094239754</DistanceMeters>
          </Trackpoint>
          <Trackpoint>
            <Time>2020-03-07T14:40:12.000Z</Time>
            <Position>
              <LatitudeDegrees>40.79316210933029651641845703125</LatitudeDegrees>
              <LongitudeDegrees>-3.69314759038388729095458984375</LongitudeDegrees>
            </Position>
            <AltitudeMeters>850.5999755859375</AltitudeMeters>
            <DistanceMeters>40197.404596224</DistanceMeters>
          </Trackpoint>
          <Trackpoint>
            <Time>2020-03-07T14:40:13.000Z</Time>
            <Position>
              <LatitudeDegrees>40.79314115457236766815185546875</LatitudeDegrees>
              <LongitudeDegrees>-3.6932420544326305389404296875</LongitudeDegrees>
            </Position>
            <AltitudeMeters>850.5999755859375</AltitudeMeters>
            <DistanceMeters>40205.699181953</DistanceMeters>
          </Trackpoint>
          <Trackpoint>
            <Time>2020-03-07T14:40:14.000Z</Time>
            <Position>
              <LatitudeDegrees>40.793118774890899658203125</LatitudeDegrees>
              <LongitudeDegrees>-3.693335764110088348388671875</LongitudeDegrees>
            </Position>
            <AltitudeMeters>850.5999755859375</AltitudeMeters>
            <DistanceMeters>40213.979057578</DistanceMeters>
          </Trackpoint>
          <Trackpoint>
            <Time>2020-03-07T14:40:15.000Z</Time>
            <Position>
              <LatitudeDegrees>40.79309522174298763275146484375</LatitudeDegrees>
              <LongitudeDegrees>-3.69343073107302188873291015625</LongitudeDegrees>
            </Position>
            <AltitudeMeters>850.5999755859375</AltitudeMeters>
            <DistanceMeters>40222.400054569</DistanceMeters>
          </Trackpoint>
          <Trackpoint>
            <Time>2020-03-07T14:40:16.000Z</Time>
            <Position>
              <LatitudeDegrees>40.79307242296636104583740234375</LatitudeDegrees>
              <LongitudeDegrees>-3.6935267038643360137939453125</LongitudeDegrees>
            </Position>
            <AltitudeMeters>850.5999755859375</AltitudeMeters>
            <DistanceMeters>40230.875563881</DistanceMeters>
          </Trackpoint>
          <Trackpoint>
            <Time>2020-03-07T14:40:17.000Z</Time>
            <Position>
              <LatitudeDegrees>40.793049372732639312744140625</LatitudeDegrees>
              <LongitudeDegrees>-3.69362133555114269256591796875</LongitudeDegrees>
            </Position>
            <AltitudeMeters>850.5999755859375</AltitudeMeters>
            <DistanceMeters>40239.25194102</DistanceMeters>
          </Trackpoint>
          <Trackpoint>
            <Time>2020-03-07T14:40:18.000Z</Time>
            <Position>
              <LatitudeDegrees>40.7930235564708709716796875</LatitudeDegrees>
              <LongitudeDegrees>-3.69371621869504451751708984375</LongitudeDegrees>
            </Position>
            <AltitudeMeters>850.5999755859375</AltitudeMeters>
            <DistanceMeters>40247.74820085</DistanceMeters>
          </Trackpoint>
          <Trackpoint>
            <Time>2020-03-07T14:40:19.000Z</Time>
            <Position>
              <LatitudeDegrees>40.79299606382846832275390625</LatitudeDegrees>
              <LongitudeDegrees>-3.69381026364862918853759765625</LongitudeDegrees>
            </Position>
            <AltitudeMeters>850.4000244140625</AltitudeMeters>
            <DistanceMeters>40256.243397783</DistanceMeters>
          </Trackpoint>
          <Trackpoint>
            <Time>2020-03-07T14:40:20.000Z</Time>
            <Position>
              <LatitudeDegrees>40.79296790063381195068359375</LatitudeDegrees>
              <LongitudeDegrees>-3.693904392421245574951171875</LongitudeDegrees>
            </Position>
            <AltitudeMeters>850.4000244140625</AltitudeMeters>
            <DistanceMeters>40264.772012311</DistanceMeters>
          </Trackpoint>
          <Trackpoint>
            <Time>2020-03-07T14:40:21.000Z</Time>
            <Position>
              <LatitudeDegrees>40.79293948598206043243408203125</LatitudeDegrees>
              <LongitudeDegrees>-3.69399868883192539215087890625</LongitudeDegrees>
            </Position>
            <AltitudeMeters>850.4000244140625</AltitudeMeters>
            <DistanceMeters>40273.323360686</DistanceMeters>
          </Trackpoint>
          <Trackpoint>
            <Time>2020-03-07T14:40:22.000Z</Time>
            <Position>
              <LatitudeDegrees>40.79291081987321376800537109375</LatitudeDegrees>
              <LongitudeDegrees>-3.69409239850938320159912109375</LongitudeDegrees>
            </Position>
            <AltitudeMeters>850.20001220703125</AltitudeMeters>
            <DistanceMeters>40281.839790337</DistanceMeters>
          </Trackpoint>
          <Trackpoint>
            <Time>2020-03-07T14:40:23.000Z</Time>
            <Position>
              <LatitudeDegrees>40.79288098029792308807373046875</LatitudeDegrees>
              <LongitudeDegrees>-3.6941855214536190032958984375</LongitudeDegrees>
            </Position>
            <AltitudeMeters>850.20001220703125</AltitudeMeters>
            <DistanceMeters>40290.360460182</DistanceMeters>
          </Trackpoint>
          <Trackpoint>
            <Time>2020-03-07T14:40:24.000Z</Time>
            <Position>
              <LatitudeDegrees>40.79285147599875926971435546875</LatitudeDegrees>
              <LongitudeDegrees>-3.6942783929407596588134765625</LongitudeDegrees>
            </Position>
            <AltitudeMeters>850</AltitudeMeters>
            <DistanceMeters>40298.847681152</DistanceMeters>
          </Trackpoint>
          <Trackpoint>
            <Time>2020-03-07T14:40:25.000Z</Time>
            <Position>
              <LatitudeDegrees>40.79282230697572231292724609375</LatitudeDegrees>
              <LongitudeDegrees>-3.69436983950436115264892578125</LongitudeDegrees>
            </Position>
            <AltitudeMeters>850</AltitudeMeters>
            <DistanceMeters>40307.208952098</DistanceMeters>
          </Trackpoint>
          <Trackpoint>
            <Time>2020-03-07T14:40:26.000Z</Time>
            <Position>
              <LatitudeDegrees>40.79279162921011447906494140625</LatitudeDegrees>
              <LongitudeDegrees>-3.6944611184298992156982421875</LongitudeDegrees>
            </Position>
            <AltitudeMeters>850</AltitudeMeters>
            <DistanceMeters>40315.624049214</DistanceMeters>
          </Trackpoint>
          <Trackpoint>
            <Time>2020-03-07T14:40:27.000Z</Time>
            <Position>
              <LatitudeDegrees>40.7927606999874114990234375</LatitudeDegrees>
              <LongitudeDegrees>-3.69455256499350070953369140625</LongitudeDegrees>
            </Position>
            <AltitudeMeters>850</AltitudeMeters>
            <DistanceMeters>40324.063791094</DistanceMeters>
          </Trackpoint>
          <Trackpoint>
            <Time>2020-03-07T14:40:28.000Z</Time>
            <Position>
              <LatitudeDegrees>40.79272918403148651123046875</LatitudeDegrees>
              <LongitudeDegrees>-3.69464376010000705718994140625</LongitudeDegrees>
            </Position>
            <AltitudeMeters>850</AltitudeMeters>
            <DistanceMeters>40332.511019282</DistanceMeters>
          </Trackpoint>
          <Trackpoint>
            <Time>2020-03-07T14:40:29.000Z</Time>
            <Position>
              <LatitudeDegrees>40.79269691370427608489990234375</LatitudeDegrees>
              <LongitudeDegrees>-3.6947343684732913970947265625</LongitudeDegrees>
            </Position>
            <AltitudeMeters>850</AltitudeMeters>
            <DistanceMeters>40340.949156088</DistanceMeters>
          </Trackpoint>
          <Trackpoint>
            <Time>2020-03-07T14:40:30.000Z</Time>
            <Position>
              <LatitudeDegrees>40.79266657121479511260986328125</LatitudeDegrees>
              <LongitudeDegrees>-3.69482514448463916778564453125</LongitudeDegrees>
            </Position>
            <AltitudeMeters>850</AltitudeMeters>
            <DistanceMeters>40349.31096701</DistanceMeters>
          </Trackpoint>
          <Trackpoint>
            <Time>2020-03-07T14:40:31.000Z</Time>
            <Position>
              <LatitudeDegrees>40.79263572581112384796142578125</LatitudeDegrees>
              <LongitudeDegrees>-3.69491499848663806915283203125</LongitudeDegrees>
            </Position>
            <AltitudeMeters>849.79998779296875</AltitudeMeters>
            <DistanceMeters>40357.624039549</DistanceMeters>
          </Trackpoint>
          <Trackpoint>
            <Time>2020-03-07T14:40:32.000Z</Time>
            <Position>
              <LatitudeDegrees>40.7926029525697231292724609375</LatitudeDegrees>
              <LongitudeDegrees>-3.69500334374606609344482421875</LongitudeDegrees>
            </Position>
            <AltitudeMeters>849.79998779296875</AltitudeMeters>
            <DistanceMeters>40365.91372481</DistanceMeters>
          </Trackpoint>
          <Trackpoint>
            <Time>2020-03-07T14:40:33.000Z</Time>
            <Position>
              <LatitudeDegrees>40.79256917349994182586669921875</LatitudeDegrees>
              <LongitudeDegrees>-3.6950890906155109405517578125</LongitudeDegrees>
            </Position>
            <AltitudeMeters>849.79998779296875</AltitudeMeters>
            <DistanceMeters>40374.058905694</DistanceMeters>
          </Trackpoint>
          <Trackpoint>
            <Time>2020-03-07T14:40:34.000Z</Time>
            <Position>
              <LatitudeDegrees>40.7925352267920970916748046875</LatitudeDegrees>
              <LongitudeDegrees>-3.6951735801994800567626953125</LongitudeDegrees>
            </Position>
            <AltitudeMeters>849.5999755859375</AltitudeMeters>
            <DistanceMeters>40382.118829387</DistanceMeters>
          </Trackpoint>
          <Trackpoint>
            <Time>2020-03-07T14:40:35.000Z</Time>
            <Position>
              <LatitudeDegrees>40.7925030402839183807373046875</LatitudeDegrees>
              <LongitudeDegrees>-3.69525781832635402679443359375</LongitudeDegrees>
            </Position>
            <AltitudeMeters>849.5999755859375</AltitudeMeters>
            <DistanceMeters>40390.069334724</DistanceMeters>
          </Trackpoint>
          <Trackpoint>
            <Time>2020-03-07T14:40:36.000Z</Time>
            <Position>
              <LatitudeDegrees>40.79247060231864452362060546875</LatitudeDegrees>
              <LongitudeDegrees>-3.69534038007259368896484375</LongitudeDegrees>
            </Position>
            <AltitudeMeters>849.5999755859375</AltitudeMeters>
            <DistanceMeters>40397.907166698</DistanceMeters>
          </Trackpoint>
          <Trackpoint>
            <Time>2020-03-07T14:40:37.000Z</Time>
            <Position>
              <LatitudeDegrees>40.7924366556107997894287109375</LatitudeDegrees>
              <LongitudeDegrees>-3.69542126543819904327392578125</LongitudeDegrees>
            </Position>
            <AltitudeMeters>849.5999755859375</AltitudeMeters>
            <DistanceMeters>40405.700516052</DistanceMeters>
          </Trackpoint>
          <Trackpoint>
            <Time>2020-03-07T14:40:38.000Z</Time>
            <Position>
              <LatitudeDegrees>40.7924027927219867706298828125</LatitudeDegrees>
              <LongitudeDegrees>-3.695501647889614105224609375</LongitudeDegrees>
            </Position>
            <AltitudeMeters>849.5999755859375</AltitudeMeters>
            <DistanceMeters>40413.451457839</DistanceMeters>
          </Trackpoint>
          <Trackpoint>
            <Time>2020-03-07T14:40:39.000Z</Time>
            <Position>
              <LatitudeDegrees>40.7923692651093006134033203125</LatitudeDegrees>
              <LongitudeDegrees>-3.6955812759697437286376953125</LongitudeDegrees>
            </Position>
            <AltitudeMeters>849.5999755859375</AltitudeMeters>
            <DistanceMeters>40421.129240007</DistanceMeters>
          </Trackpoint>
          <Trackpoint>
            <Time>2020-03-07T14:40:40.000Z</Time>
            <Position>
              <LatitudeDegrees>40.79233464784920215606689453125</LatitudeDegrees>
              <LongitudeDegrees>-3.69565998204052448272705078125</LongitudeDegrees>
            </Position>
            <AltitudeMeters>849.5999755859375</AltitudeMeters>
            <DistanceMeters>40428.798784841</DistanceMeters>
          </Trackpoint>
          <Trackpoint>
            <Time>2020-03-07T14:40:41.000Z</Time>
            <Position>
              <LatitudeDegrees>40.79229944385588169097900390625</LatitudeDegrees>
              <LongitudeDegrees>-3.6957381851971149444580078125</LongitudeDegrees>
            </Position>
            <AltitudeMeters>849.5999755859375</AltitudeMeters>
            <DistanceMeters>40436.464796679</DistanceMeters>
          </Trackpoint>
          <Trackpoint>
            <Time>2020-03-07T14:40:42.000Z</Time>
            <Position>
              <LatitudeDegrees>40.7922649942338466644287109375</LatitudeDegrees>
              <LongitudeDegrees>-3.69581655599176883697509765625</LongitudeDegrees>
            </Position>
            <AltitudeMeters>849.5999755859375</AltitudeMeters>
            <DistanceMeters>40444.10130332</DistanceMeters>
          </Trackpoint>
          <Trackpoint>
            <Time>2020-03-07T14:40:43.000Z</Time>
            <Position>
              <LatitudeDegrees>40.79223071224987506866455078125</LatitudeDegrees>
              <LongitudeDegrees>-3.69589450769126415252685546875</LongitudeDegrees>
            </Position>
            <AltitudeMeters>849.5999755859375</AltitudeMeters>
            <DistanceMeters>40451.697498978</DistanceMeters>
          </Trackpoint>
          <Trackpoint>
            <Time>2020-03-07T14:40:44.000Z</Time>
            <Position>
              <LatitudeDegrees>40.79219634644687175750732421875</LatitudeDegrees>
              <LongitudeDegrees>-3.69597212411463260650634765625</LongitudeDegrees>
            </Position>
            <AltitudeMeters>849.5999755859375</AltitudeMeters>
            <DistanceMeters>40459.274054657</DistanceMeters>
          </Trackpoint>
          <Trackpoint>
            <Time>2020-03-07T14:40:45.000Z</Time>
            <Position>
              <LatitudeDegrees>40.79216189682483673095703125</LatitudeDegrees>
              <LongitudeDegrees>-3.696049489080905914306640625</LongitudeDegrees>
            </Position>
            <AltitudeMeters>849.79998779296875</AltitudeMeters>
            <DistanceMeters>40466.836891704</DistanceMeters>
          </Trackpoint>
          <Trackpoint>
            <Time>2020-03-07T14:40:46.000Z</Time>
            <Position>
              <LatitudeDegrees>40.792126692831516265869140625</LatitudeDegrees>
              <LongitudeDegrees>-3.69612551294267177581787109375</LongitudeDegrees>
            </Position>
            <AltitudeMeters>849.79998779296875</AltitudeMeters>
            <DistanceMeters>40474.347008711</DistanceMeters>
          </Trackpoint>
          <Trackpoint>
            <Time>2020-03-07T14:40:47.000Z</Time>
            <Position>
              <LatitudeDegrees>40.79209056682884693145751953125</LatitudeDegrees>
              <LongitudeDegrees>-3.69620128534734249114990234375</LongitudeDegrees>
            </Position>
            <AltitudeMeters>849.79998779296875</AltitudeMeters>
            <DistanceMeters>40481.893111153</DistanceMeters>
          </Trackpoint>
          <Trackpoint>
            <Time>2020-03-07T14:40:48.000Z</Time>
            <Position>
              <LatitudeDegrees>40.79205452464520931243896484375</LatitudeDegrees>
              <LongitudeDegrees>-3.69627689011394977569580078125</LongitudeDegrees>
            </Position>
            <AltitudeMeters>849.79998779296875</AltitudeMeters>
            <DistanceMeters>40489.421842111</DistanceMeters>
          </Trackpoint>
          <Trackpoint>
            <Time>2020-03-07T14:40:49.000Z</Time>
            <Position>
              <LatitudeDegrees>40.79201663844287395477294921875</LatitudeDegrees>
              <LongitudeDegrees>-3.6963514052331447601318359375</LongitudeDegrees>
            </Position>
            <AltitudeMeters>849.79998779296875</AltitudeMeters>
            <DistanceMeters>40496.98587307</DistanceMeters>
          </Trackpoint>
          <Trackpoint>
            <Time>2020-03-07T14:40:50.000Z</Time>
            <Position>
              <LatitudeDegrees>40.7919773273169994354248046875</LatitudeDegrees>
              <LongitudeDegrees>-3.69642407633364200592041015625</LongitudeDegrees>
            </Position>
            <AltitudeMeters>849.79998779296875</AltitudeMeters>
            <DistanceMeters>40504.512204814</DistanceMeters>
          </Trackpoint>
          <Trackpoint>
            <Time>2020-03-07T14:40:51.000Z</Time>
            <Position>
              <LatitudeDegrees>40.79193818382918834686279296875</LatitudeDegrees>
              <LongitudeDegrees>-3.69649666361510753631591796875</LongitudeDegrees>
            </Position>
            <AltitudeMeters>850</AltitudeMeters>
            <DistanceMeters>40512.021119338</DistanceMeters>
          </Trackpoint>
          <Trackpoint>
            <Time>2020-03-07T14:40:52.000Z</Time>
            <Position>
              <LatitudeDegrees>40.791900046169757843017578125</LatitudeDegrees>
              <LongitudeDegrees>-3.696570508182048797607421875</LongitudeDegrees>
            </Position>
            <AltitudeMeters>850</AltitudeMeters>
            <DistanceMeters>40519.55404708</DistanceMeters>
          </Trackpoint>
          <Trackpoint>
            <Time>2020-03-07T14:40:53.000Z</Time>
            <Position>
              <LatitudeDegrees>40.79186107032001018524169921875</LatitudeDegrees>
              <LongitudeDegrees>-3.6966434307396411895751953125</LongitudeDegrees>
            </Position>
            <AltitudeMeters>850</AltitudeMeters>
            <DistanceMeters>40527.07617836</DistanceMeters>
          </Trackpoint>
          <Trackpoint>
            <Time>2020-03-07T14:40:54.000Z</Time>
            <Position>
              <LatitudeDegrees>40.7918210886418819427490234375</LatitudeDegrees>
              <LongitudeDegrees>-3.6967148445546627044677734375</LongitudeDegrees>
            </Position>
            <AltitudeMeters>849.79998779296875</AltitudeMeters>
            <DistanceMeters>40534.561002624</DistanceMeters>
          </Trackpoint>
          <Trackpoint>
            <Time>2020-03-07T14:40:55.000Z</Time>
            <Position>
              <LatitudeDegrees>40.7917825318872928619384765625</LatitudeDegrees>
              <LongitudeDegrees>-3.69678718037903308868408203125</LongitudeDegrees>
            </Position>
            <AltitudeMeters>850</AltitudeMeters>
            <DistanceMeters>40542.015604588</DistanceMeters>
          </Trackpoint>
          <Trackpoint>
            <Time>2020-03-07T14:40:56.000Z</Time>
            <Position>
              <LatitudeDegrees>40.79174288548529148101806640625</LatitudeDegrees>
              <LongitudeDegrees>-3.696858845651149749755859375</LongitudeDegrees>
            </Position>
            <AltitudeMeters>850</AltitudeMeters>
            <DistanceMeters>40549.495601489</DistanceMeters>
          </Trackpoint>
          <Trackpoint>
            <Time>2020-03-07T14:40:57.000Z</Time>
            <Position>
              <LatitudeDegrees>40.79170131124556064605712890625</LatitudeDegrees>
              <LongitudeDegrees>-3.696928583085536956787109375</LongitudeDegrees>
            </Position>
            <AltitudeMeters>850</AltitudeMeters>
            <DistanceMeters>40556.975598391</DistanceMeters>
          </Trackpoint>
          <Trackpoint>
            <Time>2020-03-07T14:40:58.000Z</Time>
            <Position>
              <LatitudeDegrees>40.79165906645357608795166015625</LatitudeDegrees>
              <LongitudeDegrees>-3.69699739851057529449462890625</LongitudeDegrees>
            </Position>
            <AltitudeMeters>850</AltitudeMeters>
            <DistanceMeters>40564.441094477</DistanceMeters>
          </Trackpoint>
          <Trackpoint>
            <Time>2020-03-07T14:40:59.000Z</Time>
            <Position>
              <LatitudeDegrees>40.79161732457578182220458984375</LatitudeDegrees>
              <LongitudeDegrees>-3.69706646539270877838134765625</LongitudeDegrees>
            </Position>
            <AltitudeMeters>850.20001220703125</AltitudeMeters>
            <DistanceMeters>40571.888424839</DistanceMeters>
          </Trackpoint>
          <Trackpoint>
            <Time>2020-03-07T14:41:00.000Z</Time>
            <Position>
              <LatitudeDegrees>40.791576169431209564208984375</LatitudeDegrees>
              <LongitudeDegrees>-3.69713486172258853912353515625</LongitudeDegrees>
            </Position>
            <AltitudeMeters>850.5999755859375</AltitudeMeters>
            <DistanceMeters>40579.25038917</DistanceMeters>
          </Trackpoint>
          <Trackpoint>
            <Time>2020-03-07T14:41:01.000Z</Time>
            <Position>
              <LatitudeDegrees>40.79153467901051044464111328125</LatitudeDegrees>
              <LongitudeDegrees>-3.6972026713192462921142578125</LongitudeDegrees>
            </Position>
            <AltitudeMeters>850.79998779296875</AltitudeMeters>
            <DistanceMeters>40586.597005187</DistanceMeters>
          </Trackpoint>
          <Trackpoint>
            <Time>2020-03-07T14:41:02.000Z</Time>
            <Position>
              <LatitudeDegrees>40.791494362056255340576171875</LatitudeDegrees>
              <LongitudeDegrees>-3.697271905839443206787109375</LongitudeDegrees>
            </Position>
            <AltitudeMeters>850.79998779296875</AltitudeMeters>
            <DistanceMeters>40593.957742831</DistanceMeters>
          </Trackpoint>
          <Trackpoint>
            <Time>2020-03-07T14:41:03.000Z</Time>
            <Position>
              <LatitudeDegrees>40.791454799473285675048828125</LatitudeDegrees>
              <LongitudeDegrees>-3.69734072126448154449462890625</LongitudeDegrees>
            </Position>
            <AltitudeMeters>851</AltitudeMeters>
            <DistanceMeters>40601.239542669</DistanceMeters>
          </Trackpoint>
          <Trackpoint>
            <Time>2020-03-07T14:41:04.000Z</Time>
            <Position>
              <LatitudeDegrees>40.791415236890316009521484375</LatitudeDegrees>
              <LongitudeDegrees>-3.69740861468017101287841796875</LongitudeDegrees>
            </Position>
            <AltitudeMeters>851</AltitudeMeters>
            <DistanceMeters>40608.459071825</DistanceMeters>
          </Trackpoint>
          <Trackpoint>
            <Time>2020-03-07T14:41:05.000Z</Time>
            <Position>
              <LatitudeDegrees>40.79137491993606090545654296875</LatitudeDegrees>
              <LongitudeDegrees>-3.6974752508103847503662109375</LongitudeDegrees>
            </Position>
            <AltitudeMeters>851.20001220703125</AltitudeMeters>
            <DistanceMeters>40615.647263351</DistanceMeters>
          </Trackpoint>
          <Trackpoint>
            <Time>2020-03-07T14:41:06.000Z</Time>
            <Position>
              <LatitudeDegrees>40.79133384861052036285400390625</LatitudeDegrees>
              <LongitudeDegrees>-3.6975402943789958953857421875</LongitudeDegrees>
            </Position>
            <AltitudeMeters>851.20001220703125</AltitudeMeters>
            <DistanceMeters>40622.785028498</DistanceMeters>
          </Trackpoint>
          <Trackpoint>
            <Time>2020-03-07T14:41:07.000Z</Time>
            <Position>
              <LatitudeDegrees>40.7912930287420749664306640625</LatitudeDegrees>
              <LongitudeDegrees>-3.69760424830019474029541015625</LongitudeDegrees>
            </Position>
            <AltitudeMeters>851.20001220703125</AltitudeMeters>
            <DistanceMeters>40629.833679475</DistanceMeters>
          </Trackpoint>
          <Trackpoint>
            <Time>2020-03-07T14:41:08.000Z</Time>
            <Position>
              <LatitudeDegrees>40.7912524603307247161865234375</LatitudeDegrees>
              <LongitudeDegrees>-3.6976678669452667236328125</LongitudeDegrees>
            </Position>
            <AltitudeMeters>851.20001220703125</AltitudeMeters>
            <DistanceMeters>40636.843147781</DistanceMeters>
          </Trackpoint>
          <Trackpoint>
            <Time>2020-03-07T14:41:09.000Z</Time>
            <Position>
              <LatitudeDegrees>40.79121314920485019683837890625</LatitudeDegrees>
              <LongitudeDegrees>-3.69773215614259243011474609375</LongitudeDegrees>
            </Position>
            <AltitudeMeters>851.20001220703125</AltitudeMeters>
            <DistanceMeters>40643.806732383</DistanceMeters>
          </Trackpoint>
          <Trackpoint>
            <Time>2020-03-07T14:41:10.000Z</Time>
            <Position>
              <LatitudeDegrees>40.7911729998886585235595703125</LatitudeDegrees>
              <LongitudeDegrees>-3.69779518805444240570068359375</LongitudeDegrees>
            </Position>
            <AltitudeMeters>851.4000244140625</AltitudeMeters>
            <DistanceMeters>40650.748237112</DistanceMeters>
          </Trackpoint>
          <Trackpoint>
            <Time>2020-03-07T14:41:11.000Z</Time>
            <Position>
              <LatitudeDegrees>40.79113326966762542724609375</LatitudeDegrees>
              <LongitudeDegrees>-3.6978571303188800811767578125</LongitudeDegrees>
            </Position>
            <AltitudeMeters>851.4000244140625</AltitudeMeters>
            <DistanceMeters>40657.589500607</DistanceMeters>
          </Trackpoint>
          <Trackpoint>
            <Time>2020-03-07T14:41:12.000Z</Time>
            <Position>
              <LatitudeDegrees>40.7910948805510997772216796875</LatitudeDegrees>
              <LongitudeDegrees>-3.69791974313557147979736328125</LongitudeDegrees>
            </Position>
            <AltitudeMeters>851.4000244140625</AltitudeMeters>
            <DistanceMeters>40664.379756149</DistanceMeters>
          </Trackpoint>
          <Trackpoint>
            <Time>2020-03-07T14:41:13.000Z</Time>
            <Position>
              <LatitudeDegrees>40.7910569943487644195556640625</LatitudeDegrees>
              <LongitudeDegrees>-3.6979815177619457244873046875</LongitudeDegrees>
            </Position>
            <AltitudeMeters>851.4000244140625</AltitudeMeters>
            <DistanceMeters>40671.078971023</DistanceMeters>
          </Trackpoint>
          <Trackpoint>
            <Time>2020-03-07T14:41:14.000Z</Time>
            <Position>
              <LatitudeDegrees>40.79101835377514362335205078125</LatitudeDegrees>
              <LongitudeDegrees>-3.69804128073155879974365234375</LongitudeDegrees>
            </Position>
            <AltitudeMeters>851.5999755859375</AltitudeMeters>
            <DistanceMeters>40677.702271663</DistanceMeters>
          </Trackpoint>
          <Trackpoint>
            <Time>2020-03-07T14:41:15.000Z</Time>
            <Position>
              <LatitudeDegrees>40.790980048477649688720703125</LatitudeDegrees>
              <LongitudeDegrees>-3.69810028932988643646240234375</LongitudeDegrees>
            </Position>
            <AltitudeMeters>851.5999755859375</AltitudeMeters>
            <DistanceMeters>40684.252225341</DistanceMeters>
          </Trackpoint>
          <Trackpoint>
            <Time>2020-03-07T14:41:16.000Z</Time>
            <Position>
              <LatitudeDegrees>40.79094241373240947723388671875</LatitudeDegrees>
              <LongitudeDegrees>-3.69815862737596035003662109375</LongitudeDegrees>
            </Position>
            <AltitudeMeters>851.79998779296875</AltitudeMeters>
            <DistanceMeters>40690.71124641</DistanceMeters>
          </Trackpoint>
          <Trackpoint>
            <Time>2020-03-07T14:41:17.000Z</Time>
            <Position>
              <LatitudeDegrees>40.79090570099651813507080078125</LatitudeDegrees>
              <LongitudeDegrees>-3.6982158757746219635009765625</LongitudeDegrees>
            </Position>
            <AltitudeMeters>852</AltitudeMeters>
            <DistanceMeters>40697.033201672</DistanceMeters>
          </Trackpoint>
          <Trackpoint>
            <Time>2020-03-07T14:41:18.000Z</Time>
            <Position>
              <LatitudeDegrees>40.79087016172707080841064453125</LatitudeDegrees>
              <LongitudeDegrees>-3.698272369801998138427734375</LongitudeDegrees>
            </Position>
            <AltitudeMeters>852.4000244140625</AltitudeMeters>
            <DistanceMeters>40703.222352202</DistanceMeters>
          </Trackpoint>
          <Trackpoint>
            <Time>2020-03-07T14:41:19.000Z</Time>
            <Position>
              <LatitudeDegrees>40.7908353768289089202880859375</LatitudeDegrees>
              <LongitudeDegrees>-3.6983276903629302978515625</LongitudeDegrees>
            </Position>
            <AltitudeMeters>852.5999755859375</AltitudeMeters>
            <DistanceMeters>40709.281749104</DistanceMeters>
          </Trackpoint>
          <Trackpoint>
            <Time>2020-03-07T14:41:20.000Z</Time>
            <Position>
              <LatitudeDegrees>40.790801011025905609130859375</LatitudeDegrees>
              <LongitudeDegrees>-3.6983821727335453033447265625</LongitudeDegrees>
            </Position>
            <AltitudeMeters>852.5999755859375</AltitudeMeters>
            <DistanceMeters>40715.257108696</DistanceMeters>
          </Trackpoint>
          <Trackpoint>
            <Time>2020-03-07T14:41:21.000Z</Time>
            <Position>
              <LatitudeDegrees>40.79076714813709259033203125</LatitudeDegrees>
              <LongitudeDegrees>-3.69843573309481143951416015625</LongitudeDegrees>
            </Position>
            <AltitudeMeters>852.79998779296875</AltitudeMeters>
            <DistanceMeters>40721.138026378</DistanceMeters>
          </Trackpoint>
          <Trackpoint>
            <Time>2020-03-07T14:41:22.000Z</Time>
            <Position>
              <LatitudeDegrees>40.790734626352787017822265625</LatitudeDegrees>
              <LongitudeDegrees>-3.6984884552657604217529296875</LongitudeDegrees>
            </Position>
            <AltitudeMeters>853</AltitudeMeters>
            <DistanceMeters>40726.868066339</DistanceMeters>
          </Trackpoint>
          <Trackpoint>
            <Time>2020-03-07T14:41:23.000Z</Time>
            <Position>
              <LatitudeDegrees>40.7907026074826717376708984375</LatitudeDegrees>
              <LongitudeDegrees>-3.6985404230654239654541015625</LongitudeDegrees>
            </Position>
            <AltitudeMeters>853.20001220703125</AltitudeMeters>
            <DistanceMeters>40732.514764482</DistanceMeters>
          </Trackpoint>
          <Trackpoint>
            <Time>2020-03-07T14:41:24.000Z</Time>
            <Position>
              <LatitudeDegrees>40.790670923888683319091796875</LatitudeDegrees>
              <LongitudeDegrees>-3.69859197176992893218994140625</LongitudeDegrees>
            </Position>
            <AltitudeMeters>853.4000244140625</AltitudeMeters>
            <DistanceMeters>40738.109247922</DistanceMeters>
          </Trackpoint>
          <Trackpoint>
            <Time>2020-03-07T14:41:25.000Z</Time>
            <Position>
              <LatitudeDegrees>40.79063915647566318511962890625</LatitudeDegrees>
              <LongitudeDegrees>-3.6986423470079898834228515625</LongitudeDegrees>
            </Position>
            <AltitudeMeters>853.4000244140625</AltitudeMeters>
            <DistanceMeters>40743.63388894</DistanceMeters>
          </Trackpoint>
          <Trackpoint>
            <Time>2020-03-07T14:41:26.000Z</Time>
            <Position>
              <LatitudeDegrees>40.79060747288167476654052734375</LatitudeDegrees>
              <LongitudeDegrees>-3.6986923031508922576904296875</LongitudeDegrees>
            </Position>
            <AltitudeMeters>853.4000244140625</AltitudeMeters>
            <DistanceMeters>40749.126564554</DistanceMeters>
          </Trackpoint>
          <Trackpoint>
            <Time>2020-03-07T14:41:27.000Z</Time>
            <Position>
              <LatitudeDegrees>40.7905762083828449249267578125</LatitudeDegrees>
              <LongitudeDegrees>-3.69874284602701663970947265625</LongitudeDegrees>
            </Position>
            <AltitudeMeters>853.5999755859375</AltitudeMeters>
            <DistanceMeters>40754.625812322</DistanceMeters>
          </Trackpoint>
          <Trackpoint>
            <Time>2020-03-07T14:41:28.000Z</Time>
            <Position>
              <LatitudeDegrees>40.7905456982553005218505859375</LatitudeDegrees>
              <LongitudeDegrees>-3.69879305362701416015625</LongitudeDegrees>
            </Position>
            <AltitudeMeters>853.79998779296875</AltitudeMeters>
            <DistanceMeters>40760.049831962</DistanceMeters>
          </Trackpoint>
          <Trackpoint>
            <Time>2020-03-07T14:41:29.000Z</Time>
            <Position>
              <LatitudeDegrees>40.79051493667066097259521484375</LatitudeDegrees>
              <LongitudeDegrees>-3.69884309358894824981689453125</LongitudeDegrees>
            </Position>
            <AltitudeMeters>854</AltitudeMeters>
            <DistanceMeters>40765.482169379</DistanceMeters>
          </Trackpoint>
          <Trackpoint>
            <Time>2020-03-07T14:41:30.000Z</Time>
            <Position>
              <LatitudeDegrees>40.790484510362148284912109375</LatitudeDegrees>
              <LongitudeDegrees>-3.698893301188945770263671875</LongitudeDegrees>
            </Position>
            <AltitudeMeters>854</AltitudeMeters>
            <DistanceMeters>40770.901192224</DistanceMeters>
          </Trackpoint>
          <Trackpoint>
            <Time>2020-03-07T14:41:31.000Z</Time>
            <Position>
              <LatitudeDegrees>40.790455341339111328125</LatitudeDegrees>
              <LongitudeDegrees>-3.69894468225538730621337890625</LongitudeDegrees>
            </Position>
            <AltitudeMeters>854.20001220703125</AltitudeMeters>
            <DistanceMeters>40776.3135455</DistanceMeters>
          </Trackpoint>
          <Trackpoint>
            <Time>2020-03-07T14:41:32.000Z</Time>
            <Position>
              <LatitudeDegrees>40.79042742960155010223388671875</LatitudeDegrees>
              <LongitudeDegrees>-3.69899757206439971923828125</LongitudeDegrees>
            </Position>
            <AltitudeMeters>854.5999755859375</AltitudeMeters>
            <DistanceMeters>40781.747544946</DistanceMeters>
          </Trackpoint>
          <Trackpoint>
            <Time>2020-03-07T14:41:33.000Z</Time>
            <Position>
              <LatitudeDegrees>40.79039859585464000701904296875</LatitudeDegrees>
              <LongitudeDegrees>-3.6990500427782535552978515625</LongitudeDegrees>
            </Position>
            <AltitudeMeters>854.79998779296875</AltitudeMeters>
            <DistanceMeters>40787.211374438</DistanceMeters>
          </Trackpoint>
          <Trackpoint>
            <Time>2020-03-07T14:41:34.000Z</Time>
            <Position>
              <LatitudeDegrees>40.79036925919353961944580078125</LatitudeDegrees>
              <LongitudeDegrees>-3.699101172387599945068359375</LongitudeDegrees>
            </Position>
            <AltitudeMeters>855</AltitudeMeters>
            <DistanceMeters>40792.617885092</DistanceMeters>
          </Trackpoint>
          <Trackpoint>
            <Time>2020-03-07T14:41:35.000Z</Time>
            <Position>
              <LatitudeDegrees>40.79034009017050266265869140625</LatitudeDegrees>
              <LongitudeDegrees>-3.69915205053985118865966796875</LongitudeDegrees>
            </Position>
            <AltitudeMeters>855.4000244140625</AltitudeMeters>
            <DistanceMeters>40797.99508741</DistanceMeters>
          </Trackpoint>
          <Trackpoint>
            <Time>2020-03-07T14:41:36.000Z</Time>
            <Position>
              <LatitudeDegrees>40.79031192697584629058837890625</LatitudeDegrees>
              <LongitudeDegrees>-3.6992025934159755706787109375</LongitudeDegrees>
            </Position>
            <AltitudeMeters>855.4000244140625</AltitudeMeters>
            <DistanceMeters>40803.282536386</DistanceMeters>
          </Trackpoint>
          <Trackpoint>
            <Time>2020-03-07T14:41:37.000Z</Time>
            <Position>
              <LatitudeDegrees>40.79028476960957050323486328125</LatitudeDegrees>
              <LongitudeDegrees>-3.69925464503467082977294921875</LongitudeDegrees>
            </Position>
            <AltitudeMeters>855.79998779296875</AltitudeMeters>
            <DistanceMeters>40808.609120675</DistanceMeters>
          </Trackpoint>
          <Trackpoint>
            <Time>2020-03-07T14:41:38.000Z</Time>
            <Position>
              <LatitudeDegrees>40.7902580313384532928466796875</LatitudeDegrees>
              <LongitudeDegrees>-3.69930661283433437347412109375</LongitudeDegrees>
            </Position>
            <AltitudeMeters>856</AltitudeMeters>
            <DistanceMeters>40813.903396573</DistanceMeters>
          </Trackpoint>
          <Trackpoint>
            <Time>2020-03-07T14:41:39.000Z</Time>
            <Position>
              <LatitudeDegrees>40.7902315445244312286376953125</LatitudeDegrees>
              <LongitudeDegrees>-3.69935908354818820953369140625</LongitudeDegrees>
            </Position>
            <AltitudeMeters>856.20001220703125</AltitudeMeters>
            <DistanceMeters>40819.218100621</DistanceMeters>
          </Trackpoint>
          <Trackpoint>
            <Time>2020-03-07T14:41:40.000Z</Time>
            <Position>
              <LatitudeDegrees>40.7902047224342823028564453125</LatitudeDegrees>
              <LongitudeDegrees>-3.6994114704430103302001953125</LongitudeDegrees>
            </Position>
            <AltitudeMeters>856.5999755859375</AltitudeMeters>
            <DistanceMeters>40824.5480744</DistanceMeters>
          </Trackpoint>
          <Trackpoint>
            <Time>2020-03-07T14:41:41.000Z</Time>
            <Position>
              <LatitudeDegrees>40.79017764888703823089599609375</LatitudeDegrees>
              <LongitudeDegrees>-3.6994641087949275970458984375</LongitudeDegrees>
            </Position>
            <AltitudeMeters>856.79998779296875</AltitudeMeters>
            <DistanceMeters>40829.910141483</DistanceMeters>
          </Trackpoint>
          <Trackpoint>
            <Time>2020-03-07T14:41:42.000Z</Time>
            <Position>
              <LatitudeDegrees>40.79015082679688930511474609375</LatitudeDegrees>
              <LongitudeDegrees>-3.69951683096587657928466796875</LongitudeDegrees>
            </Position>
            <AltitudeMeters>857.20001220703125</AltitudeMeters>
            <DistanceMeters>40835.262094629</DistanceMeters>
          </Trackpoint>
          <Trackpoint>
            <Time>2020-03-07T14:41:43.000Z</Time>
            <Position>
              <LatitudeDegrees>40.79012433998286724090576171875</LatitudeDegrees>
              <LongitudeDegrees>-3.69956946931779384613037109375</LongitudeDegrees>
            </Position>
            <AltitudeMeters>857.4000244140625</AltitudeMeters>
            <DistanceMeters>40840.587831208</DistanceMeters>
          </Trackpoint>
          <Trackpoint>
            <Time>2020-03-07T14:41:44.000Z</Time>
            <Position>
              <LatitudeDegrees>40.7900977693498134613037109375</LatitudeDegrees>
              <LongitudeDegrees>-3.6996226944029331207275390625</LongitudeDegrees>
            </Position>
            <AltitudeMeters>857.20001220703125</AltitudeMeters>
            <DistanceMeters>40845.959993186</DistanceMeters>
          </Trackpoint>
          <Trackpoint>
            <Time>2020-03-07T14:41:45.000Z</Time>
            <Position>
              <LatitudeDegrees>40.7900712825357913970947265625</LatitudeDegrees>
              <LongitudeDegrees>-3.699676506221294403076171875</LongitudeDegrees>
            </Position>
            <AltitudeMeters>857.4000244140625</AltitudeMeters>
            <DistanceMeters>40851.368173805</DistanceMeters>
          </Trackpoint>
          <Trackpoint>
            <Time>2020-03-07T14:41:46.000Z</Time>
            <Position>
              <LatitudeDegrees>40.79004420898854732513427734375</LatitudeDegrees>
              <LongitudeDegrees>-3.69972939603030681610107421875</LongitudeDegrees>
            </Position>
            <AltitudeMeters>858</AltitudeMeters>
            <DistanceMeters>40856.747055187</DistanceMeters>
          </Trackpoint>
          <Trackpoint>
            <Time>2020-03-07T14:41:47.000Z</Time>
            <Position>
              <LatitudeDegrees>40.790017805993556976318359375</LatitudeDegrees>
              <LongitudeDegrees>-3.69978270493447780609130859375</LongitudeDegrees>
            </Position>
            <AltitudeMeters>858.20001220703125</AltitudeMeters>
            <DistanceMeters>40862.115854309</DistanceMeters>
          </Trackpoint>
          <Trackpoint>
            <Time>2020-03-07T14:41:48.000Z</Time>
            <Position>
              <LatitudeDegrees>40.78999324701726436614990234375</LatitudeDegrees>
              <LongitudeDegrees>-3.69983668439090251922607421875</LongitudeDegrees>
            </Position>
            <AltitudeMeters>858.4000244140625</AltitudeMeters>
            <DistanceMeters>40867.422056185</DistanceMeters>
          </Trackpoint>
          <Trackpoint>
            <Time>2020-03-07T14:41:49.000Z</Time>
            <Position>
              <LatitudeDegrees>40.78996810130774974822998046875</LatitudeDegrees>
              <LongitudeDegrees>-3.69989066384732723236083984375</LongitudeDegrees>
            </Position>
            <AltitudeMeters>858.5999755859375</AltitudeMeters>
            <DistanceMeters>40872.762185529</DistanceMeters>
          </Trackpoint>
          <Trackpoint>
            <Time>2020-03-07T14:41:50.000Z</Time>
            <Position>
              <LatitudeDegrees>40.789941363036632537841796875</LatitudeDegrees>
              <LongitudeDegrees>-3.699943721294403076171875</LongitudeDegrees>
            </Position>
            <AltitudeMeters>859.20001220703125</AltitudeMeters>
            <DistanceMeters>40878.132666342</DistanceMeters>
          </Trackpoint>
          <Trackpoint>
            <Time>2020-03-07T14:41:51.000Z</Time>
            <Position>
              <LatitudeDegrees>40.78991462476551532745361328125</LatitudeDegrees>
              <LongitudeDegrees>-3.6999968625605106353759765625</LongitudeDegrees>
            </Position>
            <AltitudeMeters>859.20001220703125</AltitudeMeters>
            <DistanceMeters>40883.50986866</DistanceMeters>
          </Trackpoint>
          <Trackpoint>
            <Time>2020-03-07T14:41:52.000Z</Time>
            <Position>
              <LatitudeDegrees>40.7898895628750324249267578125</LatitudeDegrees>
              <LongitudeDegrees>-3.7000501714646816253662109375</LongitudeDegrees>
            </Position>
            <AltitudeMeters>859.5999755859375</AltitudeMeters>
            <DistanceMeters>40888.797317636</DistanceMeters>
          </Trackpoint>
          <Trackpoint>
            <Time>2020-03-07T14:41:53.000Z</Time>
            <Position>
              <LatitudeDegrees>40.78986592590808868408203125</LatitudeDegrees>
              <LongitudeDegrees>-3.70010356418788433074951171875</LongitudeDegrees>
            </Position>
            <AltitudeMeters>859.79998779296875</AltitudeMeters>
            <DistanceMeters>40894.009080288</DistanceMeters>
          </Trackpoint>
          <Trackpoint>
            <Time>2020-03-07T14:41:54.000Z</Time>
            <Position>
              <LatitudeDegrees>40.78984270803630352020263671875</LatitudeDegrees>
              <LongitudeDegrees>-3.7001577951014041900634765625</LongitudeDegrees>
            </Position>
            <AltitudeMeters>860</AltitudeMeters>
            <DistanceMeters>40899.260542319</DistanceMeters>
          </Trackpoint>
          <Trackpoint>
            <Time>2020-03-07T14:41:55.000Z</Time>
            <Position>
              <LatitudeDegrees>40.7898201607167720794677734375</LatitudeDegrees>
              <LongitudeDegrees>-3.7002121098339557647705078125</LongitudeDegrees>
            </Position>
            <AltitudeMeters>860.20001220703125</AltitudeMeters>
            <DistanceMeters>40904.480960952</DistanceMeters>
          </Trackpoint>
          <Trackpoint>
            <Time>2020-03-07T14:41:56.000Z</Time>
            <Position>
              <LatitudeDegrees>40.7897983677685260772705078125</LatitudeDegrees>
              <LongitudeDegrees>-3.70026550255715847015380859375</LongitudeDegrees>
            </Position>
            <AltitudeMeters>860.4000244140625</AltitudeMeters>
            <DistanceMeters>40909.592126294</DistanceMeters>
          </Trackpoint>
          <Trackpoint>
            <Time>2020-03-07T14:41:57.000Z</Time>
            <Position>
              <LatitudeDegrees>40.78977716155350208282470703125</LatitudeDegrees>
              <LongitudeDegrees>-3.70031881146132946014404296875</LongitudeDegrees>
            </Position>
            <AltitudeMeters>860.5999755859375</AltitudeMeters>
            <DistanceMeters>40914.666944322</DistanceMeters>
          </Trackpoint>
          <Trackpoint>
            <Time>2020-03-07T14:41:58.000Z</Time>
            <Position>
              <LatitudeDegrees>40.78975654207170009613037109375</LatitudeDegrees>
              <LongitudeDegrees>-3.7003693543374538421630859375</LongitudeDegrees>
            </Position>
            <AltitudeMeters>860.79998779296875</AltitudeMeters>
            <DistanceMeters>40919.504914779</DistanceMeters>
          </Trackpoint>
          <Trackpoint>
            <Time>2020-03-07T14:41:59.000Z</Time>
            <Position>
              <LatitudeDegrees>40.7897353358566761016845703125</LatitudeDegrees>
              <LongitudeDegrees>-3.7004193104803562164306640625</LongitudeDegrees>
            </Position>
            <AltitudeMeters>861</AltitudeMeters>
            <DistanceMeters>40924.331673239</DistanceMeters>
          </Trackpoint>
          <Trackpoint>
            <Time>2020-03-07T14:42:00.000Z</Time>
            <Position>
              <LatitudeDegrees>40.78971379436552524566650390625</LatitudeDegrees>
              <LongitudeDegrees>-3.700469098985195159912109375</LongitudeDegrees>
            </Position>
            <AltitudeMeters>861.20001220703125</AltitudeMeters>
            <DistanceMeters>40929.164975191</DistanceMeters>
          </Trackpoint>
          <Trackpoint>
            <Time>2020-03-07T14:42:01.000Z</Time>
            <Position>
              <LatitudeDegrees>40.78969334252178668975830078125</LatitudeDegrees>
              <LongitudeDegrees>-3.70052031241357326507568359375</LongitudeDegrees>
            </Position>
            <AltitudeMeters>861.4000244140625</AltitudeMeters>
            <DistanceMeters>40934.043835868</DistanceMeters>
          </Trackpoint>
          <Trackpoint>
            <Time>2020-03-07T14:42:02.000Z</Time>
            <Position>
              <LatitudeDegrees>40.78967272303998470306396484375</LatitudeDegrees>
              <LongitudeDegrees>-3.70057160966098308563232421875</LongitudeDegrees>
            </Position>
            <AltitudeMeters>861.5999755859375</AltitudeMeters>
            <DistanceMeters>40938.937481005</DistanceMeters>
          </Trackpoint>
          <Trackpoint>
            <Time>2020-03-07T14:42:03.000Z</Time>
            <Position>
              <LatitudeDegrees>40.7896525226533412933349609375</LatitudeDegrees>
              <LongitudeDegrees>-3.70062441565096378326416015625</LongitudeDegrees>
            </Position>
            <AltitudeMeters>861.79998779296875</AltitudeMeters>
            <DistanceMeters>40943.922535706</DistanceMeters>
          </Trackpoint>
          <Trackpoint>
            <Time>2020-03-07T14:42:04.000Z</Time>
            <Position>
              <LatitudeDegrees>40.789630897343158721923828125</LatitudeDegrees>
              <LongitudeDegrees>-3.70068007148802280426025390625</LongitudeDegrees>
            </Position>
            <AltitudeMeters>862</AltitudeMeters>
            <DistanceMeters>40949.192878688</DistanceMeters>
          </Trackpoint>
          <Trackpoint>
            <Time>2020-03-07T14:42:05.000Z</Time>
            <Position>
              <LatitudeDegrees>40.78960843384265899658203125</LatitudeDegrees>
              <LongitudeDegrees>-3.7007378228008747100830078125</LongitudeDegrees>
            </Position>
            <AltitudeMeters>862.20001220703125</AltitudeMeters>
            <DistanceMeters>40954.66331499</DistanceMeters>
          </Trackpoint>
          <Trackpoint>
            <Time>2020-03-07T14:42:06.000Z</Time>
            <Position>
              <LatitudeDegrees>40.7895863056182861328125</LatitudeDegrees>
              <LongitudeDegrees>-3.70079808868467807769775390625</LongitudeDegrees>
            </Position>
            <AltitudeMeters>862.20001220703125</AltitudeMeters>
            <DistanceMeters>40960.306813871</DistanceMeters>
          </Trackpoint>
          <Trackpoint>
            <Time>2020-03-07T14:42:07.000Z</Time>
            <Position>
              <LatitudeDegrees>40.78956308774650096893310546875</LatitudeDegrees>
              <LongitudeDegrees>-3.7008591927587985992431640625</LongitudeDegrees>
            </Position>
            <AltitudeMeters>862.4000244140625</AltitudeMeters>
            <DistanceMeters>40966.068285992</DistanceMeters>
          </Trackpoint>
          <Trackpoint>
            <Time>2020-03-07T14:42:08.000Z</Time>
            <Position>
              <LatitudeDegrees>40.78953995369374752044677734375</LatitudeDegrees>
              <LongitudeDegrees>-3.70092063210904598236083984375</LongitudeDegrees>
            </Position>
            <AltitudeMeters>862.4000244140625</AltitudeMeters>
            <DistanceMeters>40971.851658983</DistanceMeters>
          </Trackpoint>
          <Trackpoint>
            <Time>2020-03-07T14:42:09.000Z</Time>
            <Position>
              <LatitudeDegrees>40.78951715491712093353271484375</LatitudeDegrees>
              <LongitudeDegrees>-3.70098316110670566558837890625</LongitudeDegrees>
            </Position>
            <AltitudeMeters>862.4000244140625</AltitudeMeters>
            <DistanceMeters>40977.699470496</DistanceMeters>
          </Trackpoint>
          <Trackpoint>
            <Time>2020-03-07T14:42:10.000Z</Time>
            <Position>
              <LatitudeDegrees>40.78949435614049434661865234375</LatitudeDegrees>
              <LongitudeDegrees>-3.70104719884693622589111328125</LongitudeDegrees>
            </Position>
            <AltitudeMeters>862.5999755859375</AltitudeMeters>
            <DistanceMeters>40983.662728082</DistanceMeters>
          </Trackpoint>
          <Trackpoint>
            <Time>2020-03-07T14:42:11.000Z</Time>
            <Position>
              <LatitudeDegrees>40.7894708029925823211669921875</LatitudeDegrees>
              <LongitudeDegrees>-3.7011119909584522247314453125</LongitudeDegrees>
            </Position>
            <AltitudeMeters>862.5999755859375</AltitudeMeters>
            <DistanceMeters>40989.719143731</DistanceMeters>
          </Trackpoint>
          <Trackpoint>
            <Time>2020-03-07T14:42:12.000Z</Time>
            <Position>
              <LatitudeDegrees>40.78944616019725799560546875</LatitudeDegrees>
              <LongitudeDegrees>-3.70117678306996822357177734375</LongitudeDegrees>
            </Position>
            <AltitudeMeters>862.5999755859375</AltitudeMeters>
            <DistanceMeters>40995.828999378</DistanceMeters>
          </Trackpoint>
          <Trackpoint>
            <Time>2020-03-07T14:42:13.000Z</Time>
            <Position>
              <LatitudeDegrees>40.7894225232303142547607421875</LatitudeDegrees>
              <LongitudeDegrees>-3.7012454308569431304931640625</LongitudeDegrees>
            </Position>
            <AltitudeMeters>862.5999755859375</AltitudeMeters>
            <DistanceMeters>41002.183722177</DistanceMeters>
          </Trackpoint>
          <Trackpoint>
            <Time>2020-03-07T14:42:14.000Z</Time>
            <Position>
              <LatitudeDegrees>40.78939930535852909088134765625</LatitudeDegrees>
              <LongitudeDegrees>-3.70131541974842548370361328125</LongitudeDegrees>
            </Position>
            <AltitudeMeters>862.5999755859375</AltitudeMeters>
            <DistanceMeters>41008.623140709</DistanceMeters>
          </Trackpoint>
          <Trackpoint>
            <Time>2020-03-07T14:42:15.000Z</Time>
            <Position>
              <LatitudeDegrees>40.78937550075352191925048828125</LatitudeDegrees>
              <LongitudeDegrees>-3.70138716883957386016845703125</LongitudeDegrees>
            </Position>
            <AltitudeMeters>862.5999755859375</AltitudeMeters>
            <DistanceMeters>41015.224591225</DistanceMeters>
          </Trackpoint>
          <Trackpoint>
            <Time>2020-03-07T14:42:16.000Z</Time>
            <Position>
              <LatitudeDegrees>40.78935102559626102447509765625</LatitudeDegrees>
              <LongitudeDegrees>-3.70146025903522968292236328125</LongitudeDegrees>
            </Position>
            <AltitudeMeters>862.4000244140625</AltitudeMeters>
            <DistanceMeters>41021.959431534</DistanceMeters>
          </Trackpoint>
          <Trackpoint>
            <Time>2020-03-07T14:42:17.000Z</Time>
            <Position>
              <LatitudeDegrees>40.7893266342580318450927734375</LatitudeDegrees>
              <LongitudeDegrees>-3.70153435505926609039306640625</LongitudeDegrees>
            </Position>
            <AltitudeMeters>862.4000244140625</AltitudeMeters>
            <DistanceMeters>41028.768279635</DistanceMeters>
          </Trackpoint>
          <Trackpoint>
            <Time>2020-03-07T14:42:18.000Z</Time>
            <Position>
              <LatitudeDegrees>40.78930199146270751953125</LatitudeDegrees>
              <LongitudeDegrees>-3.7016132287681102752685546875</LongitudeDegrees>
            </Position>
            <AltitudeMeters>862.20001220703125</AltitudeMeters>
            <DistanceMeters>41035.95835527</DistanceMeters>
          </Trackpoint>
          <Trackpoint>
            <Time>2020-03-07T14:42:19.000Z</Time>
            <Position>
              <LatitudeDegrees>40.789276845753192901611328125</LatitudeDegrees>
              <LongitudeDegrees>-3.7016906775534152984619140625</LongitudeDegrees>
            </Position>
            <AltitudeMeters>862.20001220703125</AltitudeMeters>
            <DistanceMeters>41043.059337375</DistanceMeters>
          </Trackpoint>
          <Trackpoint>
            <Time>2020-03-07T14:42:20.000Z</Time>
            <Position>
              <LatitudeDegrees>40.78925278969109058380126953125</LatitudeDegrees>
              <LongitudeDegrees>-3.70176854543387889862060546875</LongitudeDegrees>
            </Position>
            <AltitudeMeters>862.20001220703125</AltitudeMeters>
            <DistanceMeters>41050.146317352</DistanceMeters>
          </Trackpoint>
          <Trackpoint>
            <Time>2020-03-07T14:42:21.000Z</Time>
            <Position>
              <LatitudeDegrees>40.78922915272414684295654296875</LatitudeDegrees>
              <LongitudeDegrees>-3.70184632949531078338623046875</LongitudeDegrees>
            </Position>
            <AltitudeMeters>862.20001220703125</AltitudeMeters>
            <DistanceMeters>41057.209685695</DistanceMeters>
          </Trackpoint>
          <Trackpoint>
            <Time>2020-03-07T14:42:22.000Z</Time>
            <Position>
              <LatitudeDegrees>40.789204426109790802001953125</LatitudeDegrees>
              <LongitudeDegrees>-3.70192428119480609893798828125</LongitudeDegrees>
            </Position>
            <AltitudeMeters>862</AltitudeMeters>
            <DistanceMeters>41064.330985387</DistanceMeters>
          </Trackpoint>
          <Trackpoint>
            <Time>2020-03-07T14:42:23.000Z</Time>
            <Position>
              <LatitudeDegrees>40.789179615676403045654296875</LatitudeDegrees>
              <LongitudeDegrees>-3.702001981437206268310546875</LongitudeDegrees>
            </Position>
            <AltitudeMeters>862</AltitudeMeters>
            <DistanceMeters>41071.436416929</DistanceMeters>
          </Trackpoint>
          <Trackpoint>
            <Time>2020-03-07T14:42:24.000Z</Time>
            <Position>
              <LatitudeDegrees>40.789156146347522735595703125</LatitudeDegrees>
              <LongitudeDegrees>-3.70208051986992359161376953125</LongitudeDegrees>
            </Position>
            <AltitudeMeters>862</AltitudeMeters>
            <DistanceMeters>41078.551373608</DistanceMeters>
          </Trackpoint>
          <Trackpoint>
            <Time>2020-03-07T14:42:25.000Z</Time>
            <Position>
              <LatitudeDegrees>40.78913225792348384857177734375</LatitudeDegrees>
              <LongitudeDegrees>-3.70215914212167263031005859375</LongitudeDegrees>
            </Position>
            <AltitudeMeters>862</AltitudeMeters>
            <DistanceMeters>41085.690403756</DistanceMeters>
          </Trackpoint>
          <Trackpoint>
            <Time>2020-03-07T14:42:26.000Z</Time>
            <Position>
              <LatitudeDegrees>40.7891097106039524078369140625</LatitudeDegrees>
              <LongitudeDegrees>-3.70223960839211940765380859375</LongitudeDegrees>
            </Position>
            <AltitudeMeters>862</AltitudeMeters>
            <DistanceMeters>41092.921181211</DistanceMeters>
          </Trackpoint>
          <Trackpoint>
            <Time>2020-03-07T14:42:27.000Z</Time>
            <Position>
              <LatitudeDegrees>40.7890869118273258209228515625</LatitudeDegrees>
              <LongitudeDegrees>-3.70232024230062961578369140625</LongitudeDegrees>
            </Position>
            <AltitudeMeters>861.79998779296875</AltitudeMeters>
            <DistanceMeters>41100.174402934</DistanceMeters>
          </Trackpoint>
          <Trackpoint>
            <Time>2020-03-07T14:42:28.000Z</Time>
            <Position>
              <LatitudeDegrees>40.789063274860382080078125</LatitudeDegrees>
              <LongitudeDegrees>-3.70240288786590099334716796875</LongitudeDegrees>
            </Position>
            <AltitudeMeters>861.79998779296875</AltitudeMeters>
            <DistanceMeters>41107.619307851</DistanceMeters>
          </Trackpoint>
          <Trackpoint>
            <Time>2020-03-07T14:42:29.000Z</Time>
            <Position>
              <LatitudeDegrees>40.78904055990278720855712890625</LatitudeDegrees>
              <LongitudeDegrees>-3.702485449612140655517578125</LongitudeDegrees>
            </Position>
            <AltitudeMeters>861.5999755859375</AltitudeMeters>
            <DistanceMeters>41115.021638826</DistanceMeters>
          </Trackpoint>
          <Trackpoint>
            <Time>2020-03-07T14:42:30.000Z</Time>
            <Position>
              <LatitudeDegrees>40.78901792876422405242919921875</LatitudeDegrees>
              <LongitudeDegrees>-3.70256918482482433319091796875</LongitudeDegrees>
            </Position>
            <AltitudeMeters>861.5999755859375</AltitudeMeters>
            <DistanceMeters>41122.513698301</DistanceMeters>
          </Trackpoint>
          <Trackpoint>
            <Time>2020-03-07T14:42:31.000Z</Time>
            <Position>
              <LatitudeDegrees>40.78899496234953403472900390625</LatitudeDegrees>
              <LongitudeDegrees>-3.7026535905897617340087890625</LongitudeDegrees>
            </Position>
            <AltitudeMeters>861.5999755859375</AltitudeMeters>
            <DistanceMeters>41130.072355169</DistanceMeters>
          </Trackpoint>
          <Trackpoint>
            <Time>2020-03-07T14:42:32.000Z</Time>
            <Position>
              <LatitudeDegrees>40.78897316940128803253173828125</LatitudeDegrees>
              <LongitudeDegrees>-3.70274059474468231201171875</LongitudeDegrees>
            </Position>
            <AltitudeMeters>861.5999755859375</AltitudeMeters>
            <DistanceMeters>41137.795285631</DistanceMeters>
          </Trackpoint>
          <Trackpoint>
            <Time>2020-03-07T14:42:33.000Z</Time>
            <Position>
              <LatitudeDegrees>40.78895037062466144561767578125</LatitudeDegrees>
              <LongitudeDegrees>-3.70282776653766632080078125</LongitudeDegrees>
            </Position>
            <AltitudeMeters>861.4000244140625</AltitudeMeters>
            <DistanceMeters>41145.567169658</DistanceMeters>
          </Trackpoint>
          <Trackpoint>
            <Time>2020-03-07T14:42:34.000Z</Time>
            <Position>
              <LatitudeDegrees>40.78892706893384456634521484375</LatitudeDegrees>
              <LongitudeDegrees>-3.70291535742580890655517578125</LongitudeDegrees>
            </Position>
            <AltitudeMeters>861.4000244140625</AltitudeMeters>
            <DistanceMeters>41153.390586951</DistanceMeters>
          </Trackpoint>
          <Trackpoint>
            <Time>2020-03-07T14:42:35.000Z</Time>
            <Position>
              <LatitudeDegrees>40.78890435397624969482421875</LatitudeDegrees>
              <LongitudeDegrees>-3.70300420559942722320556640625</LongitudeDegrees>
            </Position>
            <AltitudeMeters>861.4000244140625</AltitudeMeters>
            <DistanceMeters>41161.293816592</DistanceMeters>
          </Trackpoint>
          <Trackpoint>
            <Time>2020-03-07T14:42:36.000Z</Time>
            <Position>
              <LatitudeDegrees>40.78888180665671825408935546875</LatitudeDegrees>
              <LongitudeDegrees>-3.70309322141110897064208984375</LongitudeDegrees>
            </Position>
            <AltitudeMeters>861.4000244140625</AltitudeMeters>
            <DistanceMeters>41169.204469521</DistanceMeters>
          </Trackpoint>
          <Trackpoint>
            <Time>2020-03-07T14:42:37.000Z</Time>
            <Position>
              <LatitudeDegrees>40.78885900788009166717529296875</LatitudeDegrees>
              <LongitudeDegrees>-3.70318223722279071807861328125</LongitudeDegrees>
            </Position>
            <AltitudeMeters>861.4000244140625</AltitudeMeters>
            <DistanceMeters>41177.123108976</DistanceMeters>
          </Trackpoint>
          <Trackpoint>
            <Time>2020-03-07T14:42:38.000Z</Time>
            <Position>
              <LatitudeDegrees>40.78883671201765537261962890625</LatitudeDegrees>
              <LongitudeDegrees>-3.7032748572528362274169921875</LongitudeDegrees>
            </Position>
            <AltitudeMeters>861.4000244140625</AltitudeMeters>
            <DistanceMeters>41185.313066719</DistanceMeters>
          </Trackpoint>
          <Trackpoint>
            <Time>2020-03-07T14:42:39.000Z</Time>
            <Position>
              <LatitudeDegrees>40.7888151705265045166015625</LatitudeDegrees>
              <LongitudeDegrees>-3.703365884721279144287109375</LongitudeDegrees>
            </Position>
            <AltitudeMeters>861.20001220703125</AltitudeMeters>
            <DistanceMeters>41193.349428254</DistanceMeters>
          </Trackpoint>
          <Trackpoint>
            <Time>2020-03-07T14:42:40.000Z</Time>
            <Position>
              <LatitudeDegrees>40.78879329375922679901123046875</LatitudeDegrees>
              <LongitudeDegrees>-3.70345816947519779205322265625</LongitudeDegrees>
            </Position>
            <AltitudeMeters>861.20001220703125</AltitudeMeters>
            <DistanceMeters>41201.498488456</DistanceMeters>
          </Trackpoint>
          <Trackpoint>
            <Time>2020-03-07T14:42:41.000Z</Time>
            <Position>
              <LatitudeDegrees>40.788772590458393096923828125</LatitudeDegrees>
              <LongitudeDegrees>-3.70355154387652873992919921875</LongitudeDegrees>
            </Position>
            <AltitudeMeters>861.4000244140625</AltitudeMeters>
            <DistanceMeters>41209.697812765</DistanceMeters>
          </Trackpoint>
          <Trackpoint>
            <Time>2020-03-07T14:42:42.000Z</Time>
            <Position>
              <LatitudeDegrees>40.78875280916690826416015625</LatitudeDegrees>
              <LongitudeDegrees>-3.70364424772560596466064453125</LongitudeDegrees>
            </Position>
            <AltitudeMeters>861.20001220703125</AltitudeMeters>
            <DistanceMeters>41217.814674088</DistanceMeters>
          </Trackpoint>
          <Trackpoint>
            <Time>2020-03-07T14:42:43.000Z</Time>
            <Position>
              <LatitudeDegrees>40.7887331955134868621826171875</LatitudeDegrees>
              <LongitudeDegrees>-3.70373678393661975860595703125</LongitudeDegrees>
            </Position>
            <AltitudeMeters>861.20001220703125</AltitudeMeters>
            <DistanceMeters>41225.912600683</DistanceMeters>
          </Trackpoint>
          <Trackpoint>
            <Time>2020-03-07T14:42:44.000Z</Time>
            <Position>
              <LatitudeDegrees>40.78871265985071659088134765625</LatitudeDegrees>
              <LongitudeDegrees>-3.7038300745189189910888671875</LongitudeDegrees>
            </Position>
            <AltitudeMeters>861.20001220703125</AltitudeMeters>
            <DistanceMeters>41234.09925002</DistanceMeters>
          </Trackpoint>
          <Trackpoint>
            <Time>2020-03-07T14:42:45.000Z</Time>
            <Position>
              <LatitudeDegrees>40.78869086690247058868408203125</LatitudeDegrees>
              <LongitudeDegrees>-3.703924119472503662109375</LongitudeDegrees>
            </Position>
            <AltitudeMeters>861.20001220703125</AltitudeMeters>
            <DistanceMeters>41242.387301148</DistanceMeters>
          </Trackpoint>
          <Trackpoint>
            <Time>2020-03-07T14:42:46.000Z</Time>
            <Position>
              <LatitudeDegrees>40.78866991214454174041748046875</LatitudeDegrees>
              <LongitudeDegrees>-3.7040195055305957794189453125</LongitudeDegrees>
            </Position>
            <AltitudeMeters>861.20001220703125</AltitudeMeters>
            <DistanceMeters>41250.757207543</DistanceMeters>
          </Trackpoint>
          <Trackpoint>
            <Time>2020-03-07T14:42:47.000Z</Time>
            <Position>
              <LatitudeDegrees>40.78864979557693004608154296875</LatitudeDegrees>
              <LongitudeDegrees>-3.704119585454463958740234375</LongitudeDegrees>
            </Position>
            <AltitudeMeters>861.20001220703125</AltitudeMeters>
            <DistanceMeters>41259.483640643</DistanceMeters>
          </Trackpoint>
          <Trackpoint>
            <Time>2020-03-07T14:42:48.000Z</Time>
            <Position>
              <LatitudeDegrees>40.78862766735255718231201171875</LatitudeDegrees>
              <LongitudeDegrees>-3.70421337895095348358154296875</LongitudeDegrees>
            </Position>
            <AltitudeMeters>861.20001220703125</AltitudeMeters>
            <DistanceMeters>41267.762425591</DistanceMeters>
          </Trackpoint>
          <Trackpoint>
            <Time>2020-03-07T14:42:49.000Z</Time>
            <Position>
              <LatitudeDegrees>40.7886061258614063262939453125</LatitudeDegrees>
              <LongitudeDegrees>-3.7043085135519504547119140625</LongitudeDegrees>
            </Position>
            <AltitudeMeters>861.20001220703125</AltitudeMeters>
            <DistanceMeters>41276.129634365</DistanceMeters>
          </Trackpoint>
          <Trackpoint>
            <Time>2020-03-07T14:42:50.000Z</Time>
            <Position>
              <LatitudeDegrees>40.7885829918086528778076171875</LatitudeDegrees>
              <LongitudeDegrees>-3.70439811609685420989990234375</LongitudeDegrees>
            </Position>
            <AltitudeMeters>861.20001220703125</AltitudeMeters>
            <DistanceMeters>41284.107917943</DistanceMeters>
          </Trackpoint>
          <Trackpoint>
            <Time>2020-03-07T14:42:51.000Z</Time>
            <Position>
              <LatitudeDegrees>40.7885581813752651214599609375</LatitudeDegrees>
              <LongitudeDegrees>-3.7044902332127094268798828125</LongitudeDegrees>
            </Position>
            <AltitudeMeters>861.20001220703125</AltitudeMeters>
            <DistanceMeters>41292.347342359</DistanceMeters>
          </Trackpoint>
          <Trackpoint>
            <Time>2020-03-07T14:42:52.000Z</Time>
            <Position>
              <LatitudeDegrees>40.788532197475433349609375</LatitudeDegrees>
              <LongitudeDegrees>-3.70457899756729602813720703125</LongitudeDegrees>
            </Position>
            <AltitudeMeters>861.20001220703125</AltitudeMeters>
            <DistanceMeters>41300.366831397</DistanceMeters>
          </Trackpoint>
          <Trackpoint>
            <Time>2020-03-07T14:42:53.000Z</Time>
            <Position>
              <LatitudeDegrees>40.7885062135756015777587890625</LatitudeDegrees>
              <LongitudeDegrees>-3.704670779407024383544921875</LongitudeDegrees>
            </Position>
            <AltitudeMeters>861</AltitudeMeters>
            <DistanceMeters>41308.623772547</DistanceMeters>
          </Trackpoint>
          <Trackpoint>
            <Time>2020-03-07T14:42:54.000Z</Time>
            <Position>
              <LatitudeDegrees>40.78847914002835750579833984375</LatitudeDegrees>
              <LongitudeDegrees>-3.70475904084742069244384765625</LongitudeDegrees>
            </Position>
            <AltitudeMeters>860.79998779296875</AltitudeMeters>
            <DistanceMeters>41316.648327059</DistanceMeters>
          </Trackpoint>
          <Trackpoint>
            <Time>2020-03-07T14:42:55.000Z</Time>
            <Position>
              <LatitudeDegrees>40.7884515635669231414794921875</LatitudeDegrees>
              <LongitudeDegrees>-3.70484705083072185516357421875</LongitudeDegrees>
            </Position>
            <AltitudeMeters>860.5999755859375</AltitudeMeters>
            <DistanceMeters>41324.674006798</DistanceMeters>
          </Trackpoint>
          <Trackpoint>
            <Time>2020-03-07T14:42:56.000Z</Time>
            <Position>
              <LatitudeDegrees>40.788420550525188446044921875</LatitudeDegrees>
              <LongitudeDegrees>-3.70493304915726184844970703125</LongitudeDegrees>
            </Position>
            <AltitudeMeters>860.4000244140625</AltitudeMeters>
            <DistanceMeters>41332.701374082</DistanceMeters>
          </Trackpoint>
          <Trackpoint>
            <Time>2020-03-07T14:42:57.000Z</Time>
            <Position>
              <LatitudeDegrees>40.788387693464756011962890625</LatitudeDegrees>
              <LongitudeDegrees>-3.705018796026706695556640625</LongitudeDegrees>
            </Position>
            <AltitudeMeters>860.20001220703125</AltitudeMeters>
            <DistanceMeters>41340.80041571</DistanceMeters>
          </Trackpoint>
          <Trackpoint>
            <Time>2020-03-07T14:42:58.000Z</Time>
            <Position>
              <LatitudeDegrees>40.788353495299816131591796875</LatitudeDegrees>
              <LongitudeDegrees>-3.7051044590771198272705078125</LongitudeDegrees>
            </Position>
            <AltitudeMeters>859.79998779296875</AltitudeMeters>
            <DistanceMeters>41348.961102799</DistanceMeters>
          </Trackpoint>
          <Trackpoint>
            <Time>2020-03-07T14:42:59.000Z</Time>
            <Position>
              <LatitudeDegrees>40.7883184589445590972900390625</LatitudeDegrees>
              <LongitudeDegrees>-3.70518920011818408966064453125</LongitudeDegrees>
            </Position>
            <AltitudeMeters>859.5999755859375</AltitudeMeters>
            <DistanceMeters>41357.096854782</DistanceMeters>
          </Trackpoint>
          <Trackpoint>
            <Time>2020-03-07T14:43:00.000Z</Time>
            <Position>
              <LatitudeDegrees>40.7882825843989849090576171875</LatitudeDegrees>
              <LongitudeDegrees>-3.705274946987628936767578125</LongitudeDegrees>
            </Position>
            <AltitudeMeters>859.5999755859375</AltitudeMeters>
            <DistanceMeters>41365.352155317</DistanceMeters>
          </Trackpoint>
          <Trackpoint>
            <Time>2020-03-07T14:43:01.000Z</Time>
            <Position>
              <LatitudeDegrees>40.78824453055858612060546875</LatitudeDegrees>
              <LongitudeDegrees>-3.70535977184772491455078125</LongitudeDegrees>
            </Position>
            <AltitudeMeters>859.5999755859375</AltitudeMeters>
            <DistanceMeters>41373.660338292</DistanceMeters>
          </Trackpoint>
          <Trackpoint>
            <Time>2020-03-07T14:43:02.000Z</Time>
            <Position>
              <LatitudeDegrees>40.7882044650614261627197265625</LatitudeDegrees>
              <LongitudeDegrees>-3.70544317178428173065185546875</LongitudeDegrees>
            </Position>
            <AltitudeMeters>859.4000244140625</AltitudeMeters>
            <DistanceMeters>41381.98372381</DistanceMeters>
          </Trackpoint>
          <Trackpoint>
            <Time>2020-03-07T14:43:03.000Z</Time>
            <Position>
              <LatitudeDegrees>40.78816314227879047393798828125</LatitudeDegrees>
              <LongitudeDegrees>-3.70552447624504566192626953125</LongitudeDegrees>
            </Position>
            <AltitudeMeters>859.4000244140625</AltitudeMeters>
            <DistanceMeters>41390.236289262</DistanceMeters>
          </Trackpoint>
          <Trackpoint>
            <Time>2020-03-07T14:43:04.000Z</Time>
            <Position>
              <LatitudeDegrees>40.78812106512486934661865234375</LatitudeDegrees>
              <LongitudeDegrees>-3.70560393668711185455322265625</LongitudeDegrees>
            </Position>
            <AltitudeMeters>859.20001220703125</AltitudeMeters>
            <DistanceMeters>41398.407481661</DistanceMeters>
          </Trackpoint>
          <Trackpoint>
            <Time>2020-03-07T14:43:05.000Z</Time>
            <Position>
              <LatitudeDegrees>40.78807814978063106536865234375</LatitudeDegrees>
              <LongitudeDegrees>-3.70568155311048030853271484375</LongitudeDegrees>
            </Position>
            <AltitudeMeters>859.20001220703125</AltitudeMeters>
            <DistanceMeters>41406.507080748</DistanceMeters>
          </Trackpoint>
          <Trackpoint>
            <Time>2020-03-07T14:43:06.000Z</Time>
            <Position>
              <LatitudeDegrees>40.7880354858934879302978515625</LatitudeDegrees>
              <LongitudeDegrees>-3.70575807988643646240234375</LongitudeDegrees>
            </Position>
            <AltitudeMeters>859.20001220703125</AltitudeMeters>
            <DistanceMeters>41414.515865486</DistanceMeters>
          </Trackpoint>
          <Trackpoint>
            <Time>2020-03-07T14:43:07.000Z</Time>
            <Position>
              <LatitudeDegrees>40.78799298964440822601318359375</LatitudeDegrees>
              <LongitudeDegrees>-3.7058326788246631622314453125</LongitudeDegrees>
            </Position>
            <AltitudeMeters>859.20001220703125</AltitudeMeters>
            <DistanceMeters>41422.383021513</DistanceMeters>
          </Trackpoint>
          <Trackpoint>
            <Time>2020-03-07T14:43:08.000Z</Time>
            <Position>
              <LatitudeDegrees>40.78794806264340877532958984375</LatitudeDegrees>
              <LongitudeDegrees>-3.7059030868113040924072265625</LongitudeDegrees>
            </Position>
            <AltitudeMeters>859.20001220703125</AltitudeMeters>
            <DistanceMeters>41430.142696102</DistanceMeters>
          </Trackpoint>
          <Trackpoint>
            <Time>2020-03-07T14:43:09.000Z</Time>
            <Position>
              <LatitudeDegrees>40.78790162689983844757080078125</LatitudeDegrees>
              <LongitudeDegrees>-3.70597022585570812225341796875</LongitudeDegrees>
            </Position>
            <AltitudeMeters>859.20001220703125</AltitudeMeters>
            <DistanceMeters>41437.805173315</DistanceMeters>
          </Trackpoint>
          <Trackpoint>
            <Time>2020-03-07T14:43:10.000Z</Time>
            <Position>
              <LatitudeDegrees>40.78785669989883899688720703125</LatitudeDegrees>
              <LongitudeDegrees>-3.70603711344301700592041015625</LongitudeDegrees>
            </Position>
            <AltitudeMeters>859.20001220703125</AltitudeMeters>
            <DistanceMeters>41445.34049817</DistanceMeters>
          </Trackpoint>
          <Trackpoint>
            <Time>2020-03-07T14:43:11.000Z</Time>
            <Position>
              <LatitudeDegrees>40.7878152094781398773193359375</LatitudeDegrees>
              <LongitudeDegrees>-3.7061059288680553436279296875</LongitudeDegrees>
            </Position>
            <AltitudeMeters>859.20001220703125</AltitudeMeters>
            <DistanceMeters>41452.753800082</DistanceMeters>
          </Trackpoint>
          <Trackpoint>
            <Time>2020-03-07T14:43:12.000Z</Time>
            <Position>
              <LatitudeDegrees>40.78777782618999481201171875</LatitudeDegrees>
              <LongitudeDegrees>-3.70617692358791828155517578125</LongitudeDegrees>
            </Position>
            <AltitudeMeters>859.20001220703125</AltitudeMeters>
            <DistanceMeters>41460.041797725</DistanceMeters>
          </Trackpoint>
          <Trackpoint>
            <Time>2020-03-07T14:43:13.000Z</Time>
            <Position>
              <LatitudeDegrees>40.7877494953572750091552734375</LatitudeDegrees>
              <LongitudeDegrees>-3.70625252835452556610107421875</LongitudeDegrees>
            </Position>
            <AltitudeMeters>859.20001220703125</AltitudeMeters>
            <DistanceMeters>41467.150405731</DistanceMeters>
          </Trackpoint>
          <Trackpoint>
            <Time>2020-03-07T14:43:14.000Z</Time>
            <Position>
              <LatitudeDegrees>40.78773817978799343109130859375</LatitudeDegrees>
              <LongitudeDegrees>-3.70633182115852832794189453125</LongitudeDegrees>
            </Position>
            <AltitudeMeters>859.20001220703125</AltitudeMeters>
            <DistanceMeters>41473.949299855</DistanceMeters>
          </Trackpoint>
          <Trackpoint>
            <Time>2020-03-07T14:43:15.000Z</Time>
            <Position>
              <LatitudeDegrees>40.787748657166957855224609375</LatitudeDegrees>
              <LongitudeDegrees>-3.70640583336353302001953125</LongitudeDegrees>
            </Position>
            <AltitudeMeters>859.20001220703125</AltitudeMeters>
            <DistanceMeters>41480.294067841</DistanceMeters>
          </Trackpoint>
          <Trackpoint>
            <Time>2020-03-07T14:43:16.000Z</Time>
            <Position>
              <LatitudeDegrees>40.7877830229699611663818359375</LatitudeDegrees>
              <LongitudeDegrees>-3.706461824476718902587890625</LongitudeDegrees>
            </Position>
            <AltitudeMeters>859.4000244140625</AltitudeMeters>
            <DistanceMeters>41486.368349062</DistanceMeters>
          </Trackpoint>
          <Trackpoint>
            <Time>2020-03-07T14:43:17.000Z</Time>
            <Position>
              <LatitudeDegrees>40.78783457167446613311767578125</LatitudeDegrees>
              <LongitudeDegrees>-3.706495352089405059814453125</LongitudeDegrees>
            </Position>
            <AltitudeMeters>859.5999755859375</AltitudeMeters>
            <DistanceMeters>41492.764148174</DistanceMeters>
          </Trackpoint>
          <Trackpoint>
            <Time>2020-03-07T14:43:18.000Z</Time>
            <Position>
              <LatitudeDegrees>40.78789207153022289276123046875</LatitudeDegrees>
              <LongitudeDegrees>-3.70651312172412872314453125</LongitudeDegrees>
            </Position>
            <AltitudeMeters>859.79998779296875</AltitudeMeters>
            <DistanceMeters>41499.336123192</DistanceMeters>
          </Trackpoint>
          <Trackpoint>
            <Time>2020-03-07T14:43:19.000Z</Time>
            <Position>
              <LatitudeDegrees>40.78795124776661396026611328125</LatitudeDegrees>
              <LongitudeDegrees>-3.70652141980826854705810546875</LongitudeDegrees>
            </Position>
            <AltitudeMeters>860.20001220703125</AltitudeMeters>
            <DistanceMeters>41505.958742106</DistanceMeters>
          </Trackpoint>
          <Trackpoint>
            <Time>2020-03-07T14:43:20.000Z</Time>
            <Position>
              <LatitudeDegrees>40.7880116812884807586669921875</LatitudeDegrees>
              <LongitudeDegrees>-3.70652678422629833221435546875</LongitudeDegrees>
            </Position>
            <AltitudeMeters>860.4000244140625</AltitudeMeters>
            <DistanceMeters>41512.699613316</DistanceMeters>
          </Trackpoint>
          <Trackpoint>
            <Time>2020-03-07T14:43:21.000Z</Time>
            <Position>
              <LatitudeDegrees>40.7880727015435695648193359375</LatitudeDegrees>
              <LongitudeDegrees>-3.70653114281594753265380859375</LongitudeDegrees>
            </Position>
            <AltitudeMeters>860.5999755859375</AltitudeMeters>
            <DistanceMeters>41519.501163259</DistanceMeters>
          </Trackpoint>
          <Trackpoint>
            <Time>2020-03-07T14:43:22.000Z</Time>
            <Position>
              <LatitudeDegrees>40.7881340570747852325439453125</LatitudeDegrees>
              <LongitudeDegrees>-3.70653483085334300994873046875</LongitudeDegrees>
            </Position>
            <AltitudeMeters>860.79998779296875</AltitudeMeters>
            <DistanceMeters>41526.337805393</DistanceMeters>
          </Trackpoint>
          <Trackpoint>
            <Time>2020-03-07T14:43:23.000Z</Time>
            <Position>
              <LatitudeDegrees>40.7881964184343814849853515625</LatitudeDegrees>
              <LongitudeDegrees>-3.70653835125267505645751953125</LongitudeDegrees>
            </Position>
            <AltitudeMeters>861.4000244140625</AltitudeMeters>
            <DistanceMeters>41533.285811486</DistanceMeters>
          </Trackpoint>
          <Trackpoint>
            <Time>2020-03-07T14:43:24.000Z</Time>
            <Position>
              <LatitudeDegrees>40.78825886361300945281982421875</LatitudeDegrees>
              <LongitudeDegrees>-3.7065417878329753875732421875</LongitudeDegrees>
            </Position>
            <AltitudeMeters>862</AltitudeMeters>
            <DistanceMeters>41540.241611195</DistanceMeters>
          </Trackpoint>
          <Trackpoint>
            <Time>2020-03-07T14:43:25.000Z</Time>
            <Position>
              <LatitudeDegrees>40.78832139261066913604736328125</LatitudeDegrees>
              <LongitudeDegrees>-3.70654321275651454925537109375</LongitudeDegrees>
            </Position>
            <AltitudeMeters>862.5999755859375</AltitudeMeters>
            <DistanceMeters>41547.201953149</DistanceMeters>
          </Trackpoint>
          <Trackpoint>
            <Time>2020-03-07T14:43:26.000Z</Time>
            <Position>
              <LatitudeDegrees>40.78838408924639225006103515625</LatitudeDegrees>
              <LongitudeDegrees>-3.70654522441327571868896484375</LongitudeDegrees>
            </Position>
            <AltitudeMeters>862.79998779296875</AltitudeMeters>
            <DistanceMeters>41554.182375235</DistanceMeters>
          </Trackpoint>
          <Trackpoint>
            <Time>2020-03-07T14:43:27.000Z</Time>
            <Position>
              <LatitudeDegrees>40.78844695352017879486083984375</LatitudeDegrees>
              <LongitudeDegrees>-3.70654740370810031890869140625</LongitudeDegrees>
            </Position>
            <AltitudeMeters>863</AltitudeMeters>
            <DistanceMeters>41561.182174859</DistanceMeters>
          </Trackpoint>
          <Trackpoint>
            <Time>2020-03-07T14:43:28.000Z</Time>
            <Position>
              <LatitudeDegrees>40.7885099016129970550537109375</LatitudeDegrees>
              <LongitudeDegrees>-3.70655142702162265777587890625</LongitudeDegrees>
            </Position>
            <AltitudeMeters>863.20001220703125</AltitudeMeters>
            <DistanceMeters>41568.197437978</DistanceMeters>
          </Trackpoint>
          <Trackpoint>
            <Time>2020-03-07T14:43:29.000Z</Time>
            <Position>
              <LatitudeDegrees>40.788572765886783599853515625</LatitudeDegrees>
              <LongitudeDegrees>-3.706558384001255035400390625</LongitudeDegrees>
            </Position>
            <AltitudeMeters>863.20001220703125</AltitudeMeters>
            <DistanceMeters>41575.219134168</DistanceMeters>
          </Trackpoint>
          <Trackpoint>
            <Time>2020-03-07T14:43:30.000Z</Time>
            <Position>
              <LatitudeDegrees>40.788635127246379852294921875</LatitudeDegrees>
              <LongitudeDegrees>-3.70656634680926799774169921875</LongitudeDegrees>
            </Position>
            <AltitudeMeters>863.4000244140625</AltitudeMeters>
            <DistanceMeters>41582.192437664</DistanceMeters>
          </Trackpoint>
          <Trackpoint>
            <Time>2020-03-07T14:43:31.000Z</Time>
            <Position>
              <LatitudeDegrees>40.7886969856917858123779296875</LatitudeDegrees>
              <LongitudeDegrees>-3.70657456107437610626220703125</LongitudeDegrees>
            </Position>
            <AltitudeMeters>863.5999755859375</AltitudeMeters>
            <DistanceMeters>41589.111792063</DistanceMeters>
          </Trackpoint>
          <Trackpoint>
            <Time>2020-03-07T14:43:32.000Z</Time>
            <Position>
              <LatitudeDegrees>40.78875859268009662628173828125</LatitudeDegrees>
              <LongitudeDegrees>-3.7065843679010868072509765625</LongitudeDegrees>
            </Position>
            <AltitudeMeters>863.79998779296875</AltitudeMeters>
            <DistanceMeters>41596.018083672</DistanceMeters>
          </Trackpoint>
          <Trackpoint>
            <Time>2020-03-07T14:43:33.000Z</Time>
            <Position>
              <LatitudeDegrees>40.78881927765905857086181640625</LatitudeDegrees>
              <LongitudeDegrees>-3.70659350417554378509521484375</LongitudeDegrees>
            </Position>
            <AltitudeMeters>863.79998779296875</AltitudeMeters>
            <DistanceMeters>41602.81631368</DistanceMeters>
          </Trackpoint>
          <Trackpoint>
            <Time>2020-03-07T14:43:34.000Z</Time>
            <Position>
              <LatitudeDegrees>40.78887945972383022308349609375</LatitudeDegrees>
              <LongitudeDegrees>-3.7066038139164447784423828125</LongitudeDegrees>
            </Position>
            <AltitudeMeters>864</AltitudeMeters>
            <DistanceMeters>41609.570567613</DistanceMeters>
          </Trackpoint>
          <Trackpoint>
            <Time>2020-03-07T14:43:35.000Z</Time>
            <Position>
              <LatitudeDegrees>40.7889390550553798675537109375</LatitudeDegrees>
              <LongitudeDegrees>-3.7066158838570117950439453125</LongitudeDegrees>
            </Position>
            <AltitudeMeters>864</AltitudeMeters>
            <DistanceMeters>41616.281902897</DistanceMeters>
          </Trackpoint>
          <Trackpoint>
            <Time>2020-03-07T14:43:36.000Z</Time>
            <Position>
              <LatitudeDegrees>40.78899848274886608123779296875</LatitudeDegrees>
              <LongitudeDegrees>-3.70662686415016651153564453125</LongitudeDegrees>
            </Position>
            <AltitudeMeters>864.20001220703125</AltitudeMeters>
            <DistanceMeters>41622.960868209</DistanceMeters>
          </Trackpoint>
          <Trackpoint>
            <Time>2020-03-07T14:43:37.000Z</Time>
            <Position>
              <LatitudeDegrees>40.7890580780804157257080078125</LatitudeDegrees>
              <LongitudeDegrees>-3.7066380120813846588134765625</LongitudeDegrees>
            </Position>
            <AltitudeMeters>864.5999755859375</AltitudeMeters>
            <DistanceMeters>41629.659409084</DistanceMeters>
          </Trackpoint>
          <Trackpoint>
            <Time>2020-03-07T14:43:38.000Z</Time>
            <Position>
              <LatitudeDegrees>40.78911750577390193939208984375</LatitudeDegrees>
              <LongitudeDegrees>-3.70665033347904682159423828125</LongitudeDegrees>
            </Position>
            <AltitudeMeters>864.79998779296875</AltitudeMeters>
            <DistanceMeters>41636.354578945</DistanceMeters>
          </Trackpoint>
          <Trackpoint>
            <Time>2020-03-07T14:43:39.000Z</Time>
            <Position>
              <LatitudeDegrees>40.78917684964835643768310546875</LatitudeDegrees>
              <LongitudeDegrees>-3.70666374452412128448486328125</LongitudeDegrees>
            </Position>
            <AltitudeMeters>865</AltitudeMeters>
            <DistanceMeters>41643.056489137</DistanceMeters>
          </Trackpoint>
          <Trackpoint>
            <Time>2020-03-07T14:43:40.000Z</Time>
            <Position>
              <LatitudeDegrees>40.789236612617969512939453125</LatitudeDegrees>
              <LongitudeDegrees>-3.70667765848338603973388671875</LongitudeDegrees>
            </Position>
            <AltitudeMeters>865</AltitudeMeters>
            <DistanceMeters>41649.810743071</DistanceMeters>
          </Trackpoint>
          <Trackpoint>
            <Time>2020-03-07T14:43:41.000Z</Time>
            <Position>
              <LatitudeDegrees>40.78929587267339229583740234375</LatitudeDegrees>
              <LongitudeDegrees>-3.70669123716652393341064453125</LongitudeDegrees>
            </Position>
            <AltitudeMeters>865.20001220703125</AltitudeMeters>
            <DistanceMeters>41656.504564051</DistanceMeters>
          </Trackpoint>
          <Trackpoint>
            <Time>2020-03-07T14:43:42.000Z</Time>
            <Position>
              <LatitudeDegrees>40.78935471363365650177001953125</LatitudeDegrees>
              <LongitudeDegrees>-3.706704564392566680908203125</LongitudeDegrees>
            </Position>
            <AltitudeMeters>865.4000244140625</AltitudeMeters>
            <DistanceMeters>41663.149642968</DistanceMeters>
          </Trackpoint>
          <Trackpoint>
            <Time>2020-03-07T14:43:43.000Z</Time>
            <Position>
              <LatitudeDegrees>40.7894138060510158538818359375</LatitudeDegrees>
              <LongitudeDegrees>-3.70671755634248256683349609375</LongitudeDegrees>
            </Position>
            <AltitudeMeters>865.5999755859375</AltitudeMeters>
            <DistanceMeters>41669.817783369</DistanceMeters>
          </Trackpoint>
          <Trackpoint>
            <Time>2020-03-07T14:43:44.000Z</Time>
            <Position>
              <LatitudeDegrees>40.78947356902062892913818359375</LatitudeDegrees>
              <LongitudeDegrees>-3.70672912336885929107666015625</LongitudeDegrees>
            </Position>
            <AltitudeMeters>865.79998779296875</AltitudeMeters>
            <DistanceMeters>41676.539874005</DistanceMeters>
          </Trackpoint>
          <Trackpoint>
            <Time>2020-03-07T14:43:45.000Z</Time>
            <Position>
              <LatitudeDegrees>40.78953333199024200439453125</LatitudeDegrees>
              <LongitudeDegrees>-3.7067406065762042999267578125</LongitudeDegrees>
            </Position>
            <AltitudeMeters>865.79998779296875</AltitudeMeters>
            <DistanceMeters>41683.261964642</DistanceMeters>
          </Trackpoint>
          <Trackpoint>
            <Time>2020-03-07T14:43:46.000Z</Time>
            <Position>
              <LatitudeDegrees>40.789593346416950225830078125</LatitudeDegrees>
              <LongitudeDegrees>-3.70675384998321533203125</LongitudeDegrees>
            </Position>
            <AltitudeMeters>866</AltitudeMeters>
            <DistanceMeters>41690.034243303</DistanceMeters>
          </Trackpoint>
          <Trackpoint>
            <Time>2020-03-07T14:43:47.000Z</Time>
            <Position>
              <LatitudeDegrees>40.7896528579294681549072265625</LatitudeDegrees>
              <LongitudeDegrees>-3.70676885358989238739013671875</LongitudeDegrees>
            </Position>
            <AltitudeMeters>866.20001220703125</AltitudeMeters>
            <DistanceMeters>41696.777793182</DistanceMeters>
          </Trackpoint>
          <Trackpoint>
            <Time>2020-03-07T14:43:48.000Z</Time>
            <Position>
              <LatitudeDegrees>40.7897115312516689300537109375</LatitudeDegrees>
              <LongitudeDegrees>-3.70678477920591831207275390625</LongitudeDegrees>
            </Position>
            <AltitudeMeters>866.4000244140625</AltitudeMeters>
            <DistanceMeters>41703.445256443</DistanceMeters>
          </Trackpoint>
          <Trackpoint>
            <Time>2020-03-07T14:43:49.000Z</Time>
            <Position>
              <LatitudeDegrees>40.78976978547871112823486328125</LatitudeDegrees>
              <LongitudeDegrees>-3.70680145919322967529296875</LongitudeDegrees>
            </Position>
            <AltitudeMeters>866.4000244140625</AltitudeMeters>
            <DistanceMeters>41710.080135693</DistanceMeters>
          </Trackpoint>
          <Trackpoint>
            <Time>2020-03-07T14:43:50.000Z</Time>
            <Position>
              <LatitudeDegrees>40.78982778824865818023681640625</LatitudeDegrees>
              <LongitudeDegrees>-3.706818558275699615478515625</LongitudeDegrees>
            </Position>
            <AltitudeMeters>866.5999755859375</AltitudeMeters>
            <DistanceMeters>41716.695250994</DistanceMeters>
          </Trackpoint>
          <Trackpoint>
            <Time>2020-03-07T14:43:51.000Z</Time>
            <Position>
              <LatitudeDegrees>40.789886377751827239990234375</LatitudeDegrees>
              <LongitudeDegrees>-3.70683641172945499420166015625</LongitudeDegrees>
            </Position>
            <AltitudeMeters>866.5999755859375</AltitudeMeters>
            <DistanceMeters>41723.387722821</DistanceMeters>
          </Trackpoint>
          <Trackpoint>
            <Time>2020-03-07T14:43:52.000Z</Time>
            <Position>
              <LatitudeDegrees>40.7899428717792034149169921875</LatitudeDegrees>
              <LongitudeDegrees>-3.70685954578220844268798828125</LongitudeDegrees>
            </Position>
            <AltitudeMeters>866.79998779296875</AltitudeMeters>
            <DistanceMeters>41729.971366716</DistanceMeters>
          </Trackpoint>
          <Trackpoint>
            <Time>2020-03-07T14:43:53.000Z</Time>
            <Position>
              <LatitudeDegrees>40.78999777324497699737548828125</LatitudeDegrees>
              <LongitudeDegrees>-3.70688670314848423004150390625</LongitudeDegrees>
            </Position>
            <AltitudeMeters>866.79998779296875</AltitudeMeters>
            <DistanceMeters>41736.496457553</DistanceMeters>
          </Trackpoint>
          <Trackpoint>
            <Time>2020-03-07T14:43:54.000Z</Time>
            <Position>
              <LatitudeDegrees>40.79005242325365543365478515625</LatitudeDegrees>
              <LongitudeDegrees>-3.70691905729472637176513671875</LongitudeDegrees>
            </Position>
            <AltitudeMeters>866.79998779296875</AltitudeMeters>
            <DistanceMeters>41743.16188898</DistanceMeters>
          </Trackpoint>
          <Trackpoint>
            <Time>2020-03-07T14:43:55.000Z</Time>
            <Position>
              <LatitudeDegrees>40.79010707326233386993408203125</LatitudeDegrees>
              <LongitudeDegrees>-3.7069590389728546142578125</LongitudeDegrees>
            </Position>
            <AltitudeMeters>867</AltitudeMeters>
            <DistanceMeters>41750.115091787</DistanceMeters>
          </Trackpoint>
          <Trackpoint>
            <Time>2020-03-07T14:43:56.000Z</Time>
            <Position>
              <LatitudeDegrees>40.7901618070900440216064453125</LatitudeDegrees>
              <LongitudeDegrees>-3.70700530707836151123046875</LongitudeDegrees>
            </Position>
            <AltitudeMeters>867</AltitudeMeters>
            <DistanceMeters>41757.348366489</DistanceMeters>
          </Trackpoint>
          <Trackpoint>
            <Time>2020-03-07T14:43:57.000Z</Time>
            <Position>
              <LatitudeDegrees>40.790216289460659027099609375</LatitudeDegrees>
              <LongitudeDegrees>-3.707056604325771331787109375</LongitudeDegrees>
            </Position>
            <AltitudeMeters>867.4000244140625</AltitudeMeters>
            <DistanceMeters>41764.795696851</DistanceMeters>
          </Trackpoint>
          <Trackpoint>
            <Time>2020-03-07T14:43:58.000Z</Time>
            <Position>
              <LatitudeDegrees>40.7902674190700054168701171875</LatitudeDegrees>
              <LongitudeDegrees>-3.707116954028606414794921875</LongitudeDegrees>
            </Position>
            <AltitudeMeters>867.79998779296875</AltitudeMeters>
            <DistanceMeters>41772.427472075</DistanceMeters>
          </Trackpoint>
          <Trackpoint>
            <Time>2020-03-07T14:43:59.000Z</Time>
            <Position>
              <LatitudeDegrees>40.79031393863260746002197265625</LatitudeDegrees>
              <LongitudeDegrees>-3.70718811638653278350830078125</LongitudeDegrees>
            </Position>
            <AltitudeMeters>868</AltitudeMeters>
            <DistanceMeters>41780.349531863</DistanceMeters>
          </Trackpoint>
          <Trackpoint>
            <Time>2020-03-07T14:44:00.000Z</Time>
            <Position>
              <LatitudeDegrees>40.790356434881687164306640625</LatitudeDegrees>
              <LongitudeDegrees>-3.70726548135280609130859375</LongitudeDegrees>
            </Position>
            <AltitudeMeters>868.20001220703125</AltitudeMeters>
            <DistanceMeters>41788.40385177</DistanceMeters>
          </Trackpoint>
          <Trackpoint>
            <Time>2020-03-07T14:44:01.000Z</Time>
            <Position>
              <LatitudeDegrees>40.79039474017918109893798828125</LatitudeDegrees>
              <LongitudeDegrees>-3.70734728872776031494140625</LongitudeDegrees>
            </Position>
            <AltitudeMeters>868.20001220703125</AltitudeMeters>
            <DistanceMeters>41796.509580375</DistanceMeters>
          </Trackpoint>
          <Trackpoint>
            <Time>2020-03-07T14:44:02.000Z</Time>
            <Position>
              <LatitudeDegrees>40.79043128527700901031494140625</LatitudeDegrees>
              <LongitudeDegrees>-3.7074322812259197235107421875</LongitudeDegrees>
            </Position>
            <AltitudeMeters>868.20001220703125</AltitudeMeters>
            <DistanceMeters>41804.745716256</DistanceMeters>
          </Trackpoint>
          <Trackpoint>
            <Time>2020-03-07T14:44:03.000Z</Time>
            <Position>
              <LatitudeDegrees>40.79046665690839290618896484375</LatitudeDegrees>
              <LongitudeDegrees>-3.70751936919987201690673828125</LongitudeDegrees>
            </Position>
            <AltitudeMeters>868.20001220703125</AltitudeMeters>
            <DistanceMeters>41813.07344026</DistanceMeters>
          </Trackpoint>
          <Trackpoint>
            <Time>2020-03-07T14:44:04.000Z</Time>
            <Position>
              <LatitudeDegrees>40.79050085507333278656005859375</LatitudeDegrees>
              <LongitudeDegrees>-3.7076113186776638031005859375</LongitudeDegrees>
            </Position>
            <AltitudeMeters>868.20001220703125</AltitudeMeters>
            <DistanceMeters>41821.706762388</DistanceMeters>
          </Trackpoint>
          <Trackpoint>
            <Time>2020-03-07T14:44:05.000Z</Time>
            <Position>
              <LatitudeDegrees>40.79053505323827266693115234375</LatitudeDegrees>
              <LongitudeDegrees>-3.707705028355121612548828125</LongitudeDegrees>
            </Position>
            <AltitudeMeters>868.20001220703125</AltitudeMeters>
            <DistanceMeters>41830.472944598</DistanceMeters>
          </Trackpoint>
          <Trackpoint>
            <Time>2020-03-07T14:44:06.000Z</Time>
            <Position>
              <LatitudeDegrees>40.790570341050624847412109375</LatitudeDegrees>
              <LongitudeDegrees>-3.707798905670642852783203125</LongitudeDegrees>
            </Position>
            <AltitudeMeters>868.20001220703125</AltitudeMeters>
            <DistanceMeters>41839.304807387</DistanceMeters>
          </Trackpoint>
          <Trackpoint>
            <Time>2020-03-07T14:44:07.000Z</Time>
            <Position>
              <LatitudeDegrees>40.79060621559619903564453125</LatitudeDegrees>
              <LongitudeDegrees>-3.7078932859003543853759765625</LongitudeDegrees>
            </Position>
            <AltitudeMeters>868.20001220703125</AltitudeMeters>
            <DistanceMeters>41848.203895566</DistanceMeters>
          </Trackpoint>
          <Trackpoint>
            <Time>2020-03-07T14:44:08.000Z</Time>
            <Position>
              <LatitudeDegrees>40.790641419589519500732421875</LatitudeDegrees>
              <LongitudeDegrees>-3.7079888395965099334716796875</LongitudeDegrees>
            </Position>
            <AltitudeMeters>868.20001220703125</AltitudeMeters>
            <DistanceMeters>41857.158619393</DistanceMeters>
          </Trackpoint>
          <Trackpoint>
            <Time>2020-03-07T14:44:09.000Z</Time>
            <Position>
              <LatitudeDegrees>40.7906757853925228118896484375</LatitudeDegrees>
              <LongitudeDegrees>-3.7080823816359043121337890625</LongitudeDegrees>
            </Position>
            <AltitudeMeters>868.20001220703125</AltitudeMeters>
            <DistanceMeters>41865.92016491</DistanceMeters>
          </Trackpoint>
          <Trackpoint>
            <Time>2020-03-07T14:44:10.000Z</Time>
            <Position>
              <LatitudeDegrees>40.7907106541097164154052734375</LatitudeDegrees>
              <LongitudeDegrees>-3.70817550458014011383056640625</LongitudeDegrees>
            </Position>
            <AltitudeMeters>868</AltitudeMeters>
            <DistanceMeters>41874.674492913</DistanceMeters>
          </Trackpoint>
          <Trackpoint>
            <Time>2020-03-07T14:44:11.000Z</Time>
            <Position>
              <LatitudeDegrees>40.79074661247432231903076171875</LatitudeDegrees>
              <LongitudeDegrees>-3.708268962800502777099609375</LongitudeDegrees>
            </Position>
            <AltitudeMeters>868</AltitudeMeters>
            <DistanceMeters>41883.508400351</DistanceMeters>
          </Trackpoint>
          <Trackpoint>
            <Time>2020-03-07T14:44:12.000Z</Time>
            <Position>
              <LatitudeDegrees>40.7907813973724842071533203125</LatitudeDegrees>
              <LongitudeDegrees>-3.70836007408797740936279296875</LongitudeDegrees>
            </Position>
            <AltitudeMeters>868</AltitudeMeters>
            <DistanceMeters>41892.107136649</DistanceMeters>
          </Trackpoint>
          <Trackpoint>
            <Time>2020-03-07T14:44:13.000Z</Time>
            <Position>
              <LatitudeDegrees>40.790815092623233795166015625</LatitudeDegrees>
              <LongitudeDegrees>-3.70844959281384944915771484375</LongitudeDegrees>
            </Position>
            <AltitudeMeters>868</AltitudeMeters>
            <DistanceMeters>41900.531350011</DistanceMeters>
          </Trackpoint>
          <Trackpoint>
            <Time>2020-03-07T14:44:14.000Z</Time>
            <Position>
              <LatitudeDegrees>40.7908474467694759368896484375</LatitudeDegrees>
              <LongitudeDegrees>-3.708537518978118896484375</LongitudeDegrees>
            </Position>
            <AltitudeMeters>868</AltitudeMeters>
            <DistanceMeters>41908.768582216</DistanceMeters>
          </Trackpoint>
          <Trackpoint>
            <Time>2020-03-07T14:44:15.000Z</Time>
            <Position>
              <LatitudeDegrees>40.79087871126830577850341796875</LatitudeDegrees>
              <LongitudeDegrees>-3.708622343838214874267578125</LongitudeDegrees>
            </Position>
            <AltitudeMeters>868</AltitudeMeters>
            <DistanceMeters>41916.71851964</DistanceMeters>
          </Trackpoint>
          <Trackpoint>
            <Time>2020-03-07T14:44:16.000Z</Time>
            <Position>
              <LatitudeDegrees>40.79090888611972332000732421875</LatitudeDegrees>
              <LongitudeDegrees>-3.708705492317676544189453125</LongitudeDegrees>
            </Position>
            <AltitudeMeters>868</AltitudeMeters>
            <DistanceMeters>41924.488660636</DistanceMeters>
          </Trackpoint>
          <Trackpoint>
            <Time>2020-03-07T14:44:17.000Z</Time>
            <Position>
              <LatitudeDegrees>40.79093788750469684600830078125</LatitudeDegrees>
              <LongitudeDegrees>-3.70878629386425018310546875</LongitudeDegrees>
            </Position>
            <AltitudeMeters>868</AltitudeMeters>
            <DistanceMeters>41932.023985492</DistanceMeters>
          </Trackpoint>
          <Trackpoint>
            <Time>2020-03-07T14:44:18.000Z</Time>
            <Position>
              <LatitudeDegrees>40.79096605069935321807861328125</LatitudeDegrees>
              <LongitudeDegrees>-3.7088645808398723602294921875</LongitudeDegrees>
            </Position>
            <AltitudeMeters>868</AltitudeMeters>
            <DistanceMeters>41939.328072815</DistanceMeters>
          </Trackpoint>
          <Trackpoint>
            <Time>2020-03-07T14:44:19.000Z</Time>
            <Position>
              <LatitudeDegrees>40.7909953035414218902587890625</LatitudeDegrees>
              <LongitudeDegrees>-3.70894211344420909881591796875</LongitudeDegrees>
            </Position>
            <AltitudeMeters>868</AltitudeMeters>
            <DistanceMeters>41946.627213245</DistanceMeters>
          </Trackpoint>
          <Trackpoint>
            <Time>2020-03-07T14:44:20.000Z</Time>
            <Position>
              <LatitudeDegrees>40.7910253107547760009765625</LatitudeDegrees>
              <LongitudeDegrees>-3.7090181373059749603271484375</LongitudeDegrees>
            </Position>
            <AltitudeMeters>868</AltitudeMeters>
            <DistanceMeters>41953.851743808</DistanceMeters>
          </Trackpoint>
          <Trackpoint>
            <Time>2020-03-07T14:44:21.000Z</Time>
            <Position>
              <LatitudeDegrees>40.79105523414909839630126953125</LatitudeDegrees>
              <LongitudeDegrees>-3.7090945802628993988037109375</LongitudeDegrees>
            </Position>
            <AltitudeMeters>868</AltitudeMeters>
            <DistanceMeters>41961.103720449</DistanceMeters>
          </Trackpoint>
          <Trackpoint>
            <Time>2020-03-07T14:44:22.000Z</Time>
            <Position>
              <LatitudeDegrees>40.7910848222672939300537109375</LatitudeDegrees>
              <LongitudeDegrees>-3.70917211286723613739013671875</LongitudeDegrees>
            </Position>
            <AltitudeMeters>868.4000244140625</AltitudeMeters>
            <DistanceMeters>41968.420777456</DistanceMeters>
          </Trackpoint>
          <Trackpoint>
            <Time>2020-03-07T14:44:23.000Z</Time>
            <Position>
              <LatitudeDegrees>40.79111508093774318695068359375</LatitudeDegrees>
              <LongitudeDegrees>-3.709249310195446014404296875</LongitudeDegrees>
            </Position>
            <AltitudeMeters>868.79998779296875</AltitudeMeters>
            <DistanceMeters>41975.745851805</DistanceMeters>
          </Trackpoint>
          <Trackpoint>
            <Time>2020-03-07T14:44:24.000Z</Time>
            <Position>
              <LatitudeDegrees>40.79114391468465328216552734375</LatitudeDegrees>
              <LongitudeDegrees>-3.70932675898075103759765625</LongitudeDegrees>
            </Position>
            <AltitudeMeters>869.4000244140625</AltitudeMeters>
            <DistanceMeters>41983.018965843</DistanceMeters>
          </Trackpoint>
          <Trackpoint>
            <Time>2020-03-07T14:44:25.000Z</Time>
            <Position>
              <LatitudeDegrees>40.79117157496511936187744140625</LatitudeDegrees>
              <LongitudeDegrees>-3.7094052135944366455078125</LongitudeDegrees>
            </Position>
            <AltitudeMeters>869.79998779296875</AltitudeMeters>
            <DistanceMeters>41990.311917938</DistanceMeters>
          </Trackpoint>
          <Trackpoint>
            <Time>2020-03-07T14:44:26.000Z</Time>
            <Position>
              <LatitudeDegrees>40.79119873233139514923095703125</LatitudeDegrees>
              <LongitudeDegrees>-3.70948375202715396881103515625</LongitudeDegrees>
            </Position>
            <AltitudeMeters>870.20001220703125</AltitudeMeters>
            <DistanceMeters>41997.587514691</DistanceMeters>
          </Trackpoint>
          <Trackpoint>
            <Time>2020-03-07T14:44:27.000Z</Time>
            <Position>
              <LatitudeDegrees>40.79122521914541721343994140625</LatitudeDegrees>
              <LongitudeDegrees>-3.70956304483115673065185546875</LongitudeDegrees>
            </Position>
            <AltitudeMeters>870.5999755859375</AltitudeMeters>
            <DistanceMeters>42004.891602015</DistanceMeters>
          </Trackpoint>
          <Trackpoint>
            <Time>2020-03-07T14:44:28.000Z</Time>
            <Position>
              <LatitudeDegrees>40.7912506163120269775390625</LatitudeDegrees>
              <LongitudeDegrees>-3.70964300818741321563720703125</LongitudeDegrees>
            </Position>
            <AltitudeMeters>871</AltitudeMeters>
            <DistanceMeters>42012.199397311</DistanceMeters>
          </Trackpoint>
          <Trackpoint>
            <Time>2020-03-07T14:44:29.000Z</Time>
            <Position>
              <LatitudeDegrees>40.791273079812526702880859375</LatitudeDegrees>
              <LongitudeDegrees>-3.70972506701946258544921875</LongitudeDegrees>
            </Position>
            <AltitudeMeters>871.4000244140625</AltitudeMeters>
            <DistanceMeters>42019.552770533</DistanceMeters>
          </Trackpoint>
          <Trackpoint>
            <Time>2020-03-07T14:44:30.000Z</Time>
            <Position>
              <LatitudeDegrees>40.7912916876375675201416015625</LatitudeDegrees>
              <LongitudeDegrees>-3.70980997569859027862548828125</LongitudeDegrees>
            </Position>
            <AltitudeMeters>871.5999755859375</AltitudeMeters>
            <DistanceMeters>42027.001313322</DistanceMeters>
          </Trackpoint>
          <Trackpoint>
            <Time>2020-03-07T14:44:31.000Z</Time>
            <Position>
              <LatitudeDegrees>40.79130803234875202178955078125</LatitudeDegrees>
              <LongitudeDegrees>-3.7098972313106060028076171875</LongitudeDegrees>
            </Position>
            <AltitudeMeters>872</AltitudeMeters>
            <DistanceMeters>42034.575484936</DistanceMeters>
          </Trackpoint>
          <Trackpoint>
            <Time>2020-03-07T14:44:32.000Z</Time>
            <Position>
              <LatitudeDegrees>40.79132328741252422332763671875</LatitudeDegrees>
              <LongitudeDegrees>-3.70998633094131946563720703125</LongitudeDegrees>
            </Position>
            <AltitudeMeters>872.20001220703125</AltitudeMeters>
            <DistanceMeters>42042.2726488</DistanceMeters>
          </Trackpoint>
          <Trackpoint>
            <Time>2020-03-07T14:44:33.000Z</Time>
            <Position>
              <LatitudeDegrees>40.7913376204669475555419921875</LatitudeDegrees>
              <LongitudeDegrees>-3.71007836423814296722412109375</LongitudeDegrees>
            </Position>
            <AltitudeMeters>872.5999755859375</AltitudeMeters>
            <DistanceMeters>42050.190147817</DistanceMeters>
          </Trackpoint>
          <Trackpoint>
            <Time>2020-03-07T14:44:34.000Z</Time>
            <Position>
              <LatitudeDegrees>40.7913513667881488800048828125</LatitudeDegrees>
              <LongitudeDegrees>-3.71017207391560077667236328125</LongitudeDegrees>
            </Position>
            <AltitudeMeters>872.79998779296875</AltitudeMeters>
            <DistanceMeters>42058.23324844</DistanceMeters>
          </Trackpoint>
          <Trackpoint>
            <Time>2020-03-07T14:44:35.000Z</Time>
            <Position>
              <LatitudeDegrees>40.79136486165225505828857421875</LatitudeDegrees>
              <LongitudeDegrees>-3.710267879068851470947265625</LongitudeDegrees>
            </Position>
            <AltitudeMeters>872.79998779296875</AltitudeMeters>
            <DistanceMeters>42066.444678329</DistanceMeters>
          </Trackpoint>
          <Trackpoint>
            <Time>2020-03-07T14:44:36.000Z</Time>
            <Position>
              <LatitudeDegrees>40.7913766801357269287109375</LatitudeDegrees>
              <LongitudeDegrees>-3.71036552824079990386962890625</LongitudeDegrees>
            </Position>
            <AltitudeMeters>872.79998779296875</AltitudeMeters>
            <DistanceMeters>42074.77673856</DistanceMeters>
          </Trackpoint>
          <Trackpoint>
            <Time>2020-03-07T14:44:37.000Z</Time>
            <Position>
              <LatitudeDegrees>40.79138799570500850677490234375</LatitudeDegrees>
              <LongitudeDegrees>-3.71046342886984348297119140625</LongitudeDegrees>
            </Position>
            <AltitudeMeters>872.79998779296875</AltitudeMeters>
            <DistanceMeters>42083.121793954</DistanceMeters>
          </Trackpoint>
          <Trackpoint>
            <Time>2020-03-07T14:44:38.000Z</Time>
            <Position>
              <LatitudeDegrees>40.79140023328363895416259765625</LatitudeDegrees>
              <LongitudeDegrees>-3.71056200005114078521728515625</LongitudeDegrees>
            </Position>
            <AltitudeMeters>872.79998779296875</AltitudeMeters>
            <DistanceMeters>42091.539036958</DistanceMeters>
          </Trackpoint>
          <Trackpoint>
            <Time>2020-03-07T14:44:39.000Z</Time>
            <Position>
              <LatitudeDegrees>40.79141356050968170166015625</LatitudeDegrees>
              <LongitudeDegrees>-3.71066258288919925689697265625</LongitudeDegrees>
            </Position>
            <AltitudeMeters>872.79998779296875</AltitudeMeters>
            <DistanceMeters>42100.14302247</DistanceMeters>
          </Trackpoint>
          <Trackpoint>
            <Time>2020-03-07T14:44:40.000Z</Time>
            <Position>
              <LatitudeDegrees>40.7914301566779613494873046875</LatitudeDegrees>
              <LongitudeDegrees>-3.7107642553746700286865234375</LongitudeDegrees>
            </Position>
            <AltitudeMeters>872.79998779296875</AltitudeMeters>
            <DistanceMeters>42108.906629042</DistanceMeters>
          </Trackpoint>
          <Trackpoint>
            <Time>2020-03-07T14:44:41.000Z</Time>
            <Position>
              <LatitudeDegrees>40.79144750721752643585205078125</LatitudeDegrees>
              <LongitudeDegrees>-3.7108675204217433929443359375</LongitudeDegrees>
            </Position>
            <AltitudeMeters>872.79998779296875</AltitudeMeters>
            <DistanceMeters>42117.81991197</DistanceMeters>
          </Trackpoint>
          <Trackpoint>
            <Time>2020-03-07T14:44:42.000Z</Time>
            <Position>
              <LatitudeDegrees>40.7914616726338863372802734375</LatitudeDegrees>
              <LongitudeDegrees>-3.7109727971255779266357421875</LongitudeDegrees>
            </Position>
            <AltitudeMeters>872.79998779296875</AltitudeMeters>
            <DistanceMeters>42126.82992791</DistanceMeters>
          </Trackpoint>
          <Trackpoint>
            <Time>2020-03-07T14:44:43.000Z</Time>
            <Position>
              <LatitudeDegrees>40.791476257145404815673828125</LatitudeDegrees>
              <LongitudeDegrees>-3.71107933111488819122314453125</LongitudeDegrees>
            </Position>
            <AltitudeMeters>872.79998779296875</AltitudeMeters>
            <DistanceMeters>42135.952987407</DistanceMeters>
          </Trackpoint>
          <Trackpoint>
            <Time>2020-03-07T14:44:44.000Z</Time>
            <Position>
              <LatitudeDegrees>40.791491009294986724853515625</LatitudeDegrees>
              <LongitudeDegrees>-3.71118729002773761749267578125</LongitudeDegrees>
            </Position>
            <AltitudeMeters>872.79998779296875</AltitudeMeters>
            <DistanceMeters>42145.197480008</DistanceMeters>
          </Trackpoint>
          <Trackpoint>
            <Time>2020-03-07T14:44:45.000Z</Time>
            <Position>
              <LatitudeDegrees>40.7915055938065052032470703125</LatitudeDegrees>
              <LongitudeDegrees>-3.71129625476896762847900390625</LongitudeDegrees>
            </Position>
            <AltitudeMeters>872.79998779296875</AltitudeMeters>
            <DistanceMeters>42154.522210893</DistanceMeters>
          </Trackpoint>
          <Trackpoint>
            <Time>2020-03-07T14:44:46.000Z</Time>
            <Position>
              <LatitudeDegrees>40.7915193401277065277099609375</LatitudeDegrees>
              <LongitudeDegrees>-3.711405806243419647216796875</LongitudeDegrees>
            </Position>
            <AltitudeMeters>872.79998779296875</AltitudeMeters>
            <DistanceMeters>42163.880291966</DistanceMeters>
          </Trackpoint>
          <Trackpoint>
            <Time>2020-03-07T14:44:47.000Z</Time>
            <Position>
              <LatitudeDegrees>40.79153451137244701385498046875</LatitudeDegrees>
              <LongitudeDegrees>-3.7115152738988399505615234375</LongitudeDegrees>
            </Position>
            <AltitudeMeters>872.5999755859375</AltitudeMeters>
            <DistanceMeters>42173.258133641</DistanceMeters>
          </Trackpoint>
          <Trackpoint>
            <Time>2020-03-07T14:44:48.000Z</Time>
            <Position>
              <LatitudeDegrees>40.79154926352202892303466796875</LatitudeDegrees>
              <LongitudeDegrees>-3.71162381954491138458251953125</LongitudeDegrees>
            </Position>
            <AltitudeMeters>872.5999755859375</AltitudeMeters>
            <DistanceMeters>42182.551338207</DistanceMeters>
          </Trackpoint>
          <Trackpoint>
            <Time>2020-03-07T14:44:49.000Z</Time>
            <Position>
              <LatitudeDegrees>40.7915629260241985321044921875</LatitudeDegrees>
              <LongitudeDegrees>-3.7117325328290462493896484375</LongitudeDegrees>
            </Position>
            <AltitudeMeters>872.5999755859375</AltitudeMeters>
            <DistanceMeters>42191.837738481</DistanceMeters>
          </Trackpoint>
          <Trackpoint>
            <Time>2020-03-07T14:44:50.000Z</Time>
            <Position>
              <LatitudeDegrees>40.79157650470733642578125</LatitudeDegrees>
              <LongitudeDegrees>-3.71184174902737140655517578125</LongitudeDegrees>
            </Position>
            <AltitudeMeters>872.5999755859375</AltitudeMeters>
            <DistanceMeters>42201.163921854</DistanceMeters>
          </Trackpoint>
          <Trackpoint>
            <Time>2020-03-07T14:44:51.000Z</Time>
            <Position>
              <LatitudeDegrees>40.79158966429531574249267578125</LatitudeDegrees>
              <LongitudeDegrees>-3.71195088140666484832763671875</LongitudeDegrees>
            </Position>
            <AltitudeMeters>872.5999755859375</AltitudeMeters>
            <DistanceMeters>42210.475570151</DistanceMeters>
          </Trackpoint>
          <Trackpoint>
            <Time>2020-03-07T14:44:52.000Z</Time>
            <Position>
              <LatitudeDegrees>40.79160190187394618988037109375</LatitudeDegrees>
              <LongitudeDegrees>-3.71205967850983142852783203125</LongitudeDegrees>
            </Position>
            <AltitudeMeters>872.4000244140625</AltitudeMeters>
            <DistanceMeters>42219.743476448</DistanceMeters>
          </Trackpoint>
          <Trackpoint>
            <Time>2020-03-07T14:44:53.000Z</Time>
            <Position>
              <LatitudeDegrees>40.7916142232716083526611328125</LatitudeDegrees>
              <LongitudeDegrees>-3.71216881088912487030029296875</LongitudeDegrees>
            </Position>
            <AltitudeMeters>872.4000244140625</AltitudeMeters>
            <DistanceMeters>42229.041538175</DistanceMeters>
          </Trackpoint>
          <Trackpoint>
            <Time>2020-03-07T14:44:54.000Z</Time>
            <Position>
              <LatitudeDegrees>40.791626460850238800048828125</LatitudeDegrees>
              <LongitudeDegrees>-3.71227827854454517364501953125</LongitudeDegrees>
            </Position>
            <AltitudeMeters>872.5999755859375</AltitudeMeters>
            <DistanceMeters>42238.365784847</DistanceMeters>
          </Trackpoint>
          <Trackpoint>
            <Time>2020-03-07T14:44:55.000Z</Time>
            <Position>
              <LatitudeDegrees>40.7916390337049961090087890625</LatitudeDegrees>
              <LongitudeDegrees>-3.71238774619996547698974609375</LongitudeDegrees>
            </Position>
            <AltitudeMeters>872.5999755859375</AltitudeMeters>
            <DistanceMeters>42247.695840416</DistanceMeters>
          </Trackpoint>
          <Trackpoint>
            <Time>2020-03-07T14:44:56.000Z</Time>
            <Position>
              <LatitudeDegrees>40.79165185801684856414794921875</LatitudeDegrees>
              <LongitudeDegrees>-3.7124978005886077880859375</LongitudeDegrees>
            </Position>
            <AltitudeMeters>872.5999755859375</AltitudeMeters>
            <DistanceMeters>42257.078495438</DistanceMeters>
          </Trackpoint>
          <Trackpoint>
            <Time>2020-03-07T14:44:57.000Z</Time>
            <Position>
              <LatitudeDegrees>40.79166434705257415771484375</LatitudeDegrees>
              <LongitudeDegrees>-3.712609112262725830078125</LongitudeDegrees>
            </Position>
            <AltitudeMeters>872.5999755859375</AltitudeMeters>
            <DistanceMeters>42266.56023795</DistanceMeters>
          </Trackpoint>
          <Trackpoint>
            <Time>2020-03-07T14:44:58.000Z</Time>
            <Position>
              <LatitudeDegrees>40.79167717136442661285400390625</LatitudeDegrees>
              <LongitudeDegrees>-3.71272050775587558746337890625</LongitudeDegrees>
            </Position>
            <AltitudeMeters>872.5999755859375</AltitudeMeters>
            <DistanceMeters>42276.055304207</DistanceMeters>
          </Trackpoint>
          <Trackpoint>
            <Time>2020-03-07T14:44:59.000Z</Time>
            <Position>
              <LatitudeDegrees>40.79168991185724735260009765625</LatitudeDegrees>
              <LongitudeDegrees>-3.71283299289643764495849609375</LongitudeDegrees>
            </Position>
            <AltitudeMeters>872.5999755859375</AltitudeMeters>
            <DistanceMeters>42285.6393502</DistanceMeters>
          </Trackpoint>
          <Trackpoint>
            <Time>2020-03-07T14:45:00.000Z</Time>
            <Position>
              <LatitudeDegrees>40.7917044125497341156005859375</LatitudeDegrees>
              <LongitudeDegrees>-3.71294547803699970245361328125</LongitudeDegrees>
            </Position>
            <AltitudeMeters>872.79998779296875</AltitudeMeters>
            <DistanceMeters>42295.25443848</DistanceMeters>
          </Trackpoint>
          <Trackpoint>
            <Time>2020-03-07T14:45:01.000Z</Time>
            <Position>
              <LatitudeDegrees>40.791721008718013763427734375</LatitudeDegrees>
              <LongitudeDegrees>-3.7130568735301494598388671875</LongitudeDegrees>
            </Position>
            <AltitudeMeters>873</AltitudeMeters>
            <DistanceMeters>42304.821509862</DistanceMeters>
          </Trackpoint>
          <Trackpoint>
            <Time>2020-03-07T14:45:02.000Z</Time>
            <Position>
              <LatitudeDegrees>40.79173835925757884979248046875</LatitudeDegrees>
              <LongitudeDegrees>-3.71316860429942607879638671875</LongitudeDegrees>
            </Position>
            <AltitudeMeters>873</AltitudeMeters>
            <DistanceMeters>42314.43190121</DistanceMeters>
          </Trackpoint>
          <Trackpoint>
            <Time>2020-03-07T14:45:03.000Z</Time>
            <Position>
              <LatitudeDegrees>40.79175478778779506683349609375</LatitudeDegrees>
              <LongitudeDegrees>-3.7132798321545124053955078125</LongitudeDegrees>
            </Position>
            <AltitudeMeters>873.20001220703125</AltitudeMeters>
            <DistanceMeters>42323.981022213</DistanceMeters>
          </Trackpoint>
          <Trackpoint>
            <Time>2020-03-07T14:45:04.000Z</Time>
            <Position>
              <LatitudeDegrees>40.7917691208422183990478515625</LatitudeDegrees>
              <LongitudeDegrees>-3.7133908085525035858154296875</LongitudeDegrees>
            </Position>
            <AltitudeMeters>873.20001220703125</AltitudeMeters>
            <DistanceMeters>42333.468001286</DistanceMeters>
          </Trackpoint>
          <Trackpoint>
            <Time>2020-03-07T14:45:05.000Z</Time>
            <Position>
              <LatitudeDegrees>40.79178228043019771575927734375</LatitudeDegrees>
              <LongitudeDegrees>-3.71350228786468505859375</LongitudeDegrees>
            </Position>
            <AltitudeMeters>873.4000244140625</AltitudeMeters>
            <DistanceMeters>42342.975422871</DistanceMeters>
          </Trackpoint>
          <Trackpoint>
            <Time>2020-03-07T14:45:06.000Z</Time>
            <Position>
              <LatitudeDegrees>40.7917956076562404632568359375</LatitudeDegrees>
              <LongitudeDegrees>-3.71361301280558109283447265625</LongitudeDegrees>
            </Position>
            <AltitudeMeters>873.5999755859375</AltitudeMeters>
            <DistanceMeters>42352.422818045</DistanceMeters>
          </Trackpoint>
          <Trackpoint>
            <Time>2020-03-07T14:45:07.000Z</Time>
            <Position>
              <LatitudeDegrees>40.791809521615505218505859375</LatitudeDegrees>
              <LongitudeDegrees>-3.71372331865131855010986328125</LongitudeDegrees>
            </Position>
            <AltitudeMeters>873.79998779296875</AltitudeMeters>
            <DistanceMeters>42361.845808105</DistanceMeters>
          </Trackpoint>
          <Trackpoint>
            <Time>2020-03-07T14:45:08.000Z</Time>
            <Position>
              <LatitudeDegrees>40.79182351939380168914794921875</LatitudeDegrees>
              <LongitudeDegrees>-3.713833205401897430419921875</LongitudeDegrees>
            </Position>
            <AltitudeMeters>874</AltitudeMeters>
            <DistanceMeters>42371.23567852</DistanceMeters>
          </Trackpoint>
          <Trackpoint>
            <Time>2020-03-07T14:45:09.000Z</Time>
            <Position>
              <LatitudeDegrees>40.7918381877243518829345703125</LatitudeDegrees>
              <LongitudeDegrees>-3.71394325979053974151611328125</LongitudeDegrees>
            </Position>
            <AltitudeMeters>874.20001220703125</AltitudeMeters>
            <DistanceMeters>42380.652437552</DistanceMeters>
          </Trackpoint>
          <Trackpoint>
            <Time>2020-03-07T14:45:10.000Z</Time>
            <Position>
              <LatitudeDegrees>40.79185268841683864593505859375</LatitudeDegrees>
              <LongitudeDegrees>-3.71405356563627719879150390625</LongitudeDegrees>
            </Position>
            <AltitudeMeters>874.5999755859375</AltitudeMeters>
            <DistanceMeters>42390.086920236</DistanceMeters>
          </Trackpoint>
          <Trackpoint>
            <Time>2020-03-07T14:45:11.000Z</Time>
            <Position>
              <LatitudeDegrees>40.7918676920235157012939453125</LatitudeDegrees>
              <LongitudeDegrees>-3.71416454203426837921142578125</LongitudeDegrees>
            </Position>
            <AltitudeMeters>874.79998779296875</AltitudeMeters>
            <DistanceMeters>42399.586265156</DistanceMeters>
          </Trackpoint>
          <Trackpoint>
            <Time>2020-03-07T14:45:12.000Z</Time>
            <Position>
              <LatitudeDegrees>40.7918824441730976104736328125</LatitudeDegrees>
              <LongitudeDegrees>-3.7142759375274181365966796875</LongitudeDegrees>
            </Position>
            <AltitudeMeters>874.79998779296875</AltitudeMeters>
            <DistanceMeters>42409.115980723</DistanceMeters>
          </Trackpoint>
          <Trackpoint>
            <Time>2020-03-07T14:45:13.000Z</Time>
            <Position>
              <LatitudeDegrees>40.791896022856235504150390625</LatitudeDegrees>
              <LongitudeDegrees>-3.71438808739185333251953125</LongitudeDegrees>
            </Position>
            <AltitudeMeters>875</AltitudeMeters>
            <DistanceMeters>42418.685883298</DistanceMeters>
          </Trackpoint>
          <Trackpoint>
            <Time>2020-03-07T14:45:14.000Z</Time>
            <Position>
              <LatitudeDegrees>40.7919109426438808441162109375</LatitudeDegrees>
              <LongitudeDegrees>-3.7144999019801616668701171875</LongitudeDegrees>
            </Position>
            <AltitudeMeters>875.20001220703125</AltitudeMeters>
            <DistanceMeters>42428.253426604</DistanceMeters>
          </Trackpoint>
          <Trackpoint>
            <Time>2020-03-07T14:45:15.000Z</Time>
            <Position>
              <LatitudeDegrees>40.79193047247827053070068359375</LatitudeDegrees>
              <LongitudeDegrees>-3.71461029164493083953857421875</LongitudeDegrees>
            </Position>
            <AltitudeMeters>875.20001220703125</AltitudeMeters>
            <DistanceMeters>42437.806329437</DistanceMeters>
          </Trackpoint>
          <Trackpoint>
            <Time>2020-03-07T14:45:16.000Z</Time>
            <Position>
              <LatitudeDegrees>40.79195377416908740997314453125</LatitudeDegrees>
              <LongitudeDegrees>-3.7147188372910022735595703125</LongitudeDegrees>
            </Position>
            <AltitudeMeters>875.20001220703125</AltitudeMeters>
            <DistanceMeters>42447.313751023</DistanceMeters>
          </Trackpoint>
          <Trackpoint>
            <Time>2020-03-07T14:45:17.000Z</Time>
            <Position>
              <LatitudeDegrees>40.791979841887950897216796875</LatitudeDegrees>
              <LongitudeDegrees>-3.71482419781386852264404296875</LongitudeDegrees>
            </Position>
            <AltitudeMeters>875.4000244140625</AltitudeMeters>
            <DistanceMeters>42456.653480058</DistanceMeters>
          </Trackpoint>
          <Trackpoint>
            <Time>2020-03-07T14:45:18.000Z</Time>
            <Position>
              <LatitudeDegrees>40.79200901091098785400390625</LatitudeDegrees>
              <LongitudeDegrees>-3.7149270437657833099365234375</LongitudeDegrees>
            </Position>
            <AltitudeMeters>875.4000244140625</AltitudeMeters>
            <DistanceMeters>42465.907735565</DistanceMeters>
          </Trackpoint>
          <Trackpoint>
            <Time>2020-03-07T14:45:19.000Z</Time>
            <Position>
              <LatitudeDegrees>40.7920403592288494110107421875</LatitudeDegrees>
              <LongitudeDegrees>-3.71502620168030261993408203125</LongitudeDegrees>
            </Position>
            <AltitudeMeters>875.4000244140625</AltitudeMeters>
            <DistanceMeters>42474.962739381</DistanceMeters>
          </Trackpoint>
          <Trackpoint>
            <Time>2020-03-07T14:45:20.000Z</Time>
            <Position>
              <LatitudeDegrees>40.79207531176507472991943359375</LatitudeDegrees>
              <LongitudeDegrees>-3.7151210010051727294921875</LongitudeDegrees>
            </Position>
            <AltitudeMeters>875.4000244140625</AltitudeMeters>
            <DistanceMeters>42483.84811829</DistanceMeters>
          </Trackpoint>
          <Trackpoint>
            <Time>2020-03-07T14:45:21.000Z</Time>
            <Position>
              <LatitudeDegrees>40.79211085103452205657958984375</LatitudeDegrees>
              <LongitudeDegrees>-3.7152148783206939697265625</LongitudeDegrees>
            </Position>
            <AltitudeMeters>875.4000244140625</AltitudeMeters>
            <DistanceMeters>42492.692241885</DistanceMeters>
          </Trackpoint>
          <Trackpoint>
            <Time>2020-03-07T14:45:22.000Z</Time>
            <Position>
              <LatitudeDegrees>40.79214655794203281402587890625</LatitudeDegrees>
              <LongitudeDegrees>-3.71530598960816860198974609375</LongitudeDegrees>
            </Position>
            <AltitudeMeters>875.4000244140625</AltitudeMeters>
            <DistanceMeters>42501.337061874</DistanceMeters>
          </Trackpoint>
          <Trackpoint>
            <Time>2020-03-07T14:45:23.000Z</Time>
            <Position>
              <LatitudeDegrees>40.792183689773082733154296875</LatitudeDegrees>
              <LongitudeDegrees>-3.71539534069597721099853515625</LongitudeDegrees>
            </Position>
            <AltitudeMeters>875.5999755859375</AltitudeMeters>
            <DistanceMeters>42509.92529012</DistanceMeters>
          </Trackpoint>
          <Trackpoint>
            <Time>2020-03-07T14:45:24.000Z</Time>
            <Position>
              <LatitudeDegrees>40.79221981577575206756591796875</LatitudeDegrees>
              <LongitudeDegrees>-3.71548603288829326629638671875</LongitudeDegrees>
            </Position>
            <AltitudeMeters>875.5999755859375</AltitudeMeters>
            <DistanceMeters>42518.560703907</DistanceMeters>
          </Trackpoint>
          <Trackpoint>
            <Time>2020-03-07T14:45:25.000Z</Time>
            <Position>
              <LatitudeDegrees>40.79225577414035797119140625</LatitudeDegrees>
              <LongitudeDegrees>-3.71557555161416530609130859375</LongitudeDegrees>
            </Position>
            <AltitudeMeters>875.5999755859375</AltitudeMeters>
            <DistanceMeters>42527.099899846</DistanceMeters>
          </Trackpoint>
          <Trackpoint>
            <Time>2020-03-07T14:45:26.000Z</Time>
            <Position>
              <LatitudeDegrees>40.79229340888559818267822265625</LatitudeDegrees>
              <LongitudeDegrees>-3.7156633101403713226318359375</LongitudeDegrees>
            </Position>
            <AltitudeMeters>875.5999755859375</AltitudeMeters>
            <DistanceMeters>42535.598816334</DistanceMeters>
          </Trackpoint>
          <Trackpoint>
            <Time>2020-03-07T14:45:27.000Z</Time>
            <Position>
              <LatitudeDegrees>40.7923315465450286865234375</LatitudeDegrees>
              <LongitudeDegrees>-3.7157504819333553314208984375</LongitudeDegrees>
            </Position>
            <AltitudeMeters>875.79998779296875</AltitudeMeters>
            <DistanceMeters>42544.082312621</DistanceMeters>
          </Trackpoint>
          <Trackpoint>
            <Time>2020-03-07T14:45:28.000Z</Time>
            <Position>
              <LatitudeDegrees>40.79236800782382488250732421875</LatitudeDegrees>
              <LongitudeDegrees>-3.71583840809762477874755859375</LongitudeDegrees>
            </Position>
            <AltitudeMeters>876</AltitudeMeters>
            <DistanceMeters>42552.530075292</DistanceMeters>
          </Trackpoint>
          <Trackpoint>
            <Time>2020-03-07T14:45:29.000Z</Time>
            <Position>
              <LatitudeDegrees>40.79240103252232074737548828125</LatitudeDegrees>
              <LongitudeDegrees>-3.7159275077283382415771484375</LongitudeDegrees>
            </Position>
            <AltitudeMeters>876</AltitudeMeters>
            <DistanceMeters>42560.889726098</DistanceMeters>
          </Trackpoint>
          <Trackpoint>
            <Time>2020-03-07T14:45:30.000Z</Time>
            <Position>
              <LatitudeDegrees>40.792429782450199127197265625</LatitudeDegrees>
              <LongitudeDegrees>-3.71601878665387630462646484375</LongitudeDegrees>
            </Position>
            <AltitudeMeters>876.20001220703125</AltitudeMeters>
            <DistanceMeters>42569.220702484</DistanceMeters>
          </Trackpoint>
          <Trackpoint>
            <Time>2020-03-07T14:45:31.000Z</Time>
            <Position>
              <LatitudeDegrees>40.79245383851230144500732421875</LatitudeDegrees>
              <LongitudeDegrees>-3.71611132286489009857177734375</LongitudeDegrees>
            </Position>
            <AltitudeMeters>876.20001220703125</AltitudeMeters>
            <DistanceMeters>42577.464509573</DistanceMeters>
          </Trackpoint>
          <Trackpoint>
            <Time>2020-03-07T14:45:32.000Z</Time>
            <Position>
              <LatitudeDegrees>40.7924738712608814239501953125</LatitudeDegrees>
              <LongitudeDegrees>-3.71620452962815761566162109375</LongitudeDegrees>
            </Position>
            <AltitudeMeters>876.4000244140625</AltitudeMeters>
            <DistanceMeters>42585.629068612</DistanceMeters>
          </Trackpoint>
          <Trackpoint>
            <Time>2020-03-07T14:45:33.000Z</Time>
            <Position>
              <LatitudeDegrees>40.79249004833400249481201171875</LatitudeDegrees>
              <LongitudeDegrees>-3.71629974804818630218505859375</LongitudeDegrees>
            </Position>
            <AltitudeMeters>876.5999755859375</AltitudeMeters>
            <DistanceMeters>42593.852037201</DistanceMeters>
          </Trackpoint>
          <Trackpoint>
            <Time>2020-03-07T14:45:34.000Z</Time>
            <Position>
              <LatitudeDegrees>40.7925023697316646575927734375</LatitudeDegrees>
              <LongitudeDegrees>-3.71639630757272243499755859375</LongitudeDegrees>
            </Position>
            <AltitudeMeters>876.79998779296875</AltitudeMeters>
            <DistanceMeters>42602.103508366</DistanceMeters>
          </Trackpoint>
          <Trackpoint>
            <Time>2020-03-07T14:45:35.000Z</Time>
            <Position>
              <LatitudeDegrees>40.792513601481914520263671875</LatitudeDegrees>
              <LongitudeDegrees>-3.71649404056370258331298828125</LongitudeDegrees>
            </Position>
            <AltitudeMeters>877</AltitudeMeters>
            <DistanceMeters>42610.433400766</DistanceMeters>
          </Trackpoint>
          <Trackpoint>
            <Time>2020-03-07T14:45:36.000Z</Time>
            <Position>
              <LatitudeDegrees>40.79252357594668865203857421875</LatitudeDegrees>
              <LongitudeDegrees>-3.71659286320209503173828125</LongitudeDegrees>
            </Position>
            <AltitudeMeters>877</AltitudeMeters>
            <DistanceMeters>42618.834536254</DistanceMeters>
          </Trackpoint>
          <Trackpoint>
            <Time>2020-03-07T14:45:37.000Z</Time>
            <Position>
              <LatitudeDegrees>40.7925308682024478912353515625</LatitudeDegrees>
              <LongitudeDegrees>-3.7166922725737094879150390625</LongitudeDegrees>
            </Position>
            <AltitudeMeters>877.20001220703125</AltitudeMeters>
            <DistanceMeters>42627.250169893</DistanceMeters>
          </Trackpoint>
          <Trackpoint>
            <Time>2020-03-07T14:45:38.000Z</Time>
            <Position>
              <LatitudeDegrees>40.79253665171563625335693359375</LatitudeDegrees>
              <LongitudeDegrees>-3.7167925201356410980224609375</LongitudeDegrees>
            </Position>
            <AltitudeMeters>877.4000244140625</AltitudeMeters>
            <DistanceMeters>42635.721949375</DistanceMeters>
          </Trackpoint>
          <Trackpoint>
            <Time>2020-03-07T14:45:39.000Z</Time>
            <Position>
              <LatitudeDegrees>40.79254218377172946929931640625</LatitudeDegrees>
              <LongitudeDegrees>-3.716892935335636138916015625</LongitudeDegrees>
            </Position>
            <AltitudeMeters>877.4000244140625</AltitudeMeters>
            <DistanceMeters>42644.205445662</DistanceMeters>
          </Trackpoint>
          <Trackpoint>
            <Time>2020-03-07T14:45:40.000Z</Time>
            <Position>
              <LatitudeDegrees>40.79254679381847381591796875</LatitudeDegrees>
              <LongitudeDegrees>-3.71699527837336063385009765625</LongitudeDegrees>
            </Position>
            <AltitudeMeters>877.5999755859375</AltitudeMeters>
            <DistanceMeters>42652.845041248</DistanceMeters>
          </Trackpoint>
          <Trackpoint>
            <Time>2020-03-07T14:45:41.000Z</Time>
            <Position>
              <LatitudeDegrees>40.79255207441747188568115234375</LatitudeDegrees>
              <LongitudeDegrees>-3.71709653176367282867431640625</LongitudeDegrees>
            </Position>
            <AltitudeMeters>877.5999755859375</AltitudeMeters>
            <DistanceMeters>42661.397973451</DistanceMeters>
          </Trackpoint>
          <Trackpoint>
            <Time>2020-03-07T14:45:42.000Z</Time>
            <Position>
              <LatitudeDegrees>40.7925570197403430938720703125</LatitudeDegrees>
              <LongitudeDegrees>-3.7171978689730167388916015625</LongitudeDegrees>
            </Position>
            <AltitudeMeters>877.5999755859375</AltitudeMeters>
            <DistanceMeters>42669.955127761</DistanceMeters>
          </Trackpoint>
          <Trackpoint>
            <Time>2020-03-07T14:45:43.000Z</Time>
            <Position>
              <LatitudeDegrees>40.7925603725016117095947265625</LatitudeDegrees>
              <LongitudeDegrees>-3.7172997929155826568603515625</LongitudeDegrees>
            </Position>
            <AltitudeMeters>877.79998779296875</AltitudeMeters>
            <DistanceMeters>42678.55228867</DistanceMeters>
          </Trackpoint>
          <Trackpoint>
            <Time>2020-03-07T14:45:44.000Z</Time>
            <Position>
              <LatitudeDegrees>40.79256397671997547149658203125</LatitudeDegrees>
              <LongitudeDegrees>-3.7174023874104022979736328125</LongitudeDegrees>
            </Position>
            <AltitudeMeters>878</AltitudeMeters>
            <DistanceMeters>42687.207548006</DistanceMeters>
          </Trackpoint>
          <Trackpoint>
            <Time>2020-03-07T14:45:45.000Z</Time>
            <Position>
              <LatitudeDegrees>40.7925689220428466796875</LatitudeDegrees>
              <LongitudeDegrees>-3.71750615537166595458984375</LongitudeDegrees>
            </Position>
            <AltitudeMeters>878</AltitudeMeters>
            <DistanceMeters>42695.969093523</DistanceMeters>
          </Trackpoint>
          <Trackpoint>
            <Time>2020-03-07T14:45:46.000Z</Time>
            <Position>
              <LatitudeDegrees>40.7925737835466861724853515625</LatitudeDegrees>
              <LongitudeDegrees>-3.717609755694866180419921875</LongitudeDegrees>
            </Position>
            <AltitudeMeters>878.20001220703125</AltitudeMeters>
            <DistanceMeters>42704.715681866</DistanceMeters>
          </Trackpoint>
          <Trackpoint>
            <Time>2020-03-07T14:45:47.000Z</Time>
            <Position>
              <LatitudeDegrees>40.79257504083216190338134765625</LatitudeDegrees>
              <LongitudeDegrees>-3.71771335601806640625</LongitudeDegrees>
            </Position>
            <AltitudeMeters>878.20001220703125</AltitudeMeters>
            <DistanceMeters>42713.446770305</DistanceMeters>
          </Trackpoint>
          <Trackpoint>
            <Time>2020-03-07T14:45:48.000Z</Time>
            <Position>
              <LatitudeDegrees>40.792571268975734710693359375</LatitudeDegrees>
              <LongitudeDegrees>-3.717816956341266632080078125</LongitudeDegrees>
            </Position>
            <AltitudeMeters>878.20001220703125</AltitudeMeters>
            <DistanceMeters>42722.186645398</DistanceMeters>
          </Trackpoint>
          <Trackpoint>
            <Time>2020-03-07T14:45:49.000Z</Time>
            <Position>
              <LatitudeDegrees>40.79256280325353145599365234375</LatitudeDegrees>
              <LongitudeDegrees>-3.717918880283832550048828125</LongitudeDegrees>
            </Position>
            <AltitudeMeters>878.20001220703125</AltitudeMeters>
            <DistanceMeters>42730.827286117</DistanceMeters>
          </Trackpoint>
          <Trackpoint>
            <Time>2020-03-07T14:45:50.000Z</Time>
            <Position>
              <LatitudeDegrees>40.79255056567490100860595703125</LatitudeDegrees>
              <LongitudeDegrees>-3.71802239678800106048583984375</LongitudeDegrees>
            </Position>
            <AltitudeMeters>878.4000244140625</AltitudeMeters>
            <DistanceMeters>42739.656081045</DistanceMeters>
          </Trackpoint>
          <Trackpoint>
            <Time>2020-03-07T14:45:51.000Z</Time>
            <Position>
              <LatitudeDegrees>40.79253531061112880706787109375</LatitudeDegrees>
              <LongitudeDegrees>-3.71812641620635986328125</LongitudeDegrees>
            </Position>
            <AltitudeMeters>878.4000244140625</AltitudeMeters>
            <DistanceMeters>42748.58454759</DistanceMeters>
          </Trackpoint>
          <Trackpoint>
            <Time>2020-03-07T14:45:52.000Z</Time>
            <Position>
              <LatitudeDegrees>40.79252022318542003631591796875</LatitudeDegrees>
              <LongitudeDegrees>-3.71822993271052837371826171875</LongitudeDegrees>
            </Position>
            <AltitudeMeters>878.5999755859375</AltitudeMeters>
            <DistanceMeters>42757.467385423</DistanceMeters>
          </Trackpoint>
          <Trackpoint>
            <Time>2020-03-07T14:45:53.000Z</Time>
            <Position>
              <LatitudeDegrees>40.79250647686421871185302734375</LatitudeDegrees>
              <LongitudeDegrees>-3.71833269484341144561767578125</LongitudeDegrees>
            </Position>
            <AltitudeMeters>878.79998779296875</AltitudeMeters>
            <DistanceMeters>42766.260309539</DistanceMeters>
          </Trackpoint>
          <Trackpoint>
            <Time>2020-03-07T14:45:54.000Z</Time>
            <Position>
              <LatitudeDegrees>40.79249180853366851806640625</LatitudeDegrees>
              <LongitudeDegrees>-3.718435205519199371337890625</LongitudeDegrees>
            </Position>
            <AltitudeMeters>879</AltitudeMeters>
            <DistanceMeters>42775.051179473</DistanceMeters>
          </Trackpoint>
          <Trackpoint>
            <Time>2020-03-07T14:45:55.000Z</Time>
            <Position>
              <LatitudeDegrees>40.79247663728892803192138671875</LatitudeDegrees>
              <LongitudeDegrees>-3.71853654272854328155517578125</LongitudeDegrees>
            </Position>
            <AltitudeMeters>879.20001220703125</AltitudeMeters>
            <DistanceMeters>42783.75533603</DistanceMeters>
          </Trackpoint>
          <Trackpoint>
            <Time>2020-03-07T14:45:56.000Z</Time>
            <Position>
              <LatitudeDegrees>40.79246305860579013824462890625</LatitudeDegrees>
              <LongitudeDegrees>-3.71863645501434803009033203125</LongitudeDegrees>
            </Position>
            <AltitudeMeters>879.20001220703125</AltitudeMeters>
            <DistanceMeters>42792.309323955</DistanceMeters>
          </Trackpoint>
          <Trackpoint>
            <Time>2020-03-07T14:45:57.000Z</Time>
            <Position>
              <LatitudeDegrees>40.79245090484619140625</LatitudeDegrees>
              <LongitudeDegrees>-3.71873502619564533233642578125</LongitudeDegrees>
            </Position>
            <AltitudeMeters>879.4000244140625</AltitudeMeters>
            <DistanceMeters>42800.724957595</DistanceMeters>
          </Trackpoint>
          <Trackpoint>
            <Time>2020-03-07T14:45:58.000Z</Time>
            <Position>
              <LatitudeDegrees>40.7924376614391803741455078125</LatitudeDegrees>
              <LongitudeDegrees>-3.71883326210081577301025390625</LongitudeDegrees>
            </Position>
            <AltitudeMeters>879.4000244140625</AltitudeMeters>
            <DistanceMeters>42809.132539792</DistanceMeters>
          </Trackpoint>
          <Trackpoint>
            <Time>2020-03-07T14:45:59.000Z</Time>
            <Position>
              <LatitudeDegrees>40.7924235798418521881103515625</LatitudeDegrees>
              <LongitudeDegrees>-3.7189299054443836212158203125</LongitudeDegrees>
            </Position>
            <AltitudeMeters>879.4000244140625</AltitudeMeters>
            <DistanceMeters>42817.425492354</DistanceMeters>
          </Trackpoint>
          <Trackpoint>
            <Time>2020-03-07T14:46:00.000Z</Time>
            <Position>
              <LatitudeDegrees>40.79240874387323856353759765625</LatitudeDegrees>
              <LongitudeDegrees>-3.719024620950222015380859375</LongitudeDegrees>
            </Position>
            <AltitudeMeters>879.4000244140625</AltitudeMeters>
            <DistanceMeters>42825.575660593</DistanceMeters>
          </Trackpoint>
          <Trackpoint>
            <Time>2020-03-07T14:46:01.000Z</Time>
            <Position>
              <LatitudeDegrees>40.7923937402665615081787109375</LatitudeDegrees>
              <LongitudeDegrees>-3.7191183306276798248291015625</LongitudeDegrees>
            </Position>
            <AltitudeMeters>879.5999755859375</AltitudeMeters>
            <DistanceMeters>42833.647339572</DistanceMeters>
          </Trackpoint>
          <Trackpoint>
            <Time>2020-03-07T14:46:02.000Z</Time>
            <Position>
              <LatitudeDegrees>40.79237907193601131439208984375</LatitudeDegrees>
              <LongitudeDegrees>-3.7192095257341861724853515625</LongitudeDegrees>
            </Position>
            <AltitudeMeters>879.79998779296875</AltitudeMeters>
            <DistanceMeters>42841.503009016</DistanceMeters>
          </Trackpoint>
          <Trackpoint>
            <Time>2020-03-07T14:46:03.000Z</Time>
            <Position>
              <LatitudeDegrees>40.79236499033868312835693359375</LatitudeDegrees>
              <LongitudeDegrees>-3.71929845772683620452880859375</LongitudeDegrees>
            </Position>
            <AltitudeMeters>880</AltitudeMeters>
            <DistanceMeters>42849.159591562</DistanceMeters>
          </Trackpoint>
          <Trackpoint>
            <Time>2020-03-07T14:46:04.000Z</Time>
            <Position>
              <LatitudeDegrees>40.7923504896461963653564453125</LatitudeDegrees>
              <LongitudeDegrees>-3.71938562951982021331787109375</LongitudeDegrees>
            </Position>
            <AltitudeMeters>880.4000244140625</AltitudeMeters>
            <DistanceMeters>42856.679921925</DistanceMeters>
          </Trackpoint>
          <Trackpoint>
            <Time>2020-03-07T14:46:05.000Z</Time>
            <Position>
              <LatitudeDegrees>40.79233649186789989471435546875</LatitudeDegrees>
              <LongitudeDegrees>-3.7194723822176456451416015625</LongitudeDegrees>
            </Position>
            <AltitudeMeters>880.5999755859375</AltitudeMeters>
            <DistanceMeters>42864.154484317</DistanceMeters>
          </Trackpoint>
          <Trackpoint>
            <Time>2020-03-07T14:46:06.000Z</Time>
            <Position>
              <LatitudeDegrees>40.792323164641857147216796875</LatitudeDegrees>
              <LongitudeDegrees>-3.71955729089677333831787109375</LongitudeDegrees>
            </Position>
            <AltitudeMeters>881</AltitudeMeters>
            <DistanceMeters>42871.461043832</DistanceMeters>
          </Trackpoint>
          <Trackpoint>
            <Time>2020-03-07T14:46:07.000Z</Time>
            <Position>
              <LatitudeDegrees>40.7923105917870998382568359375</LatitudeDegrees>
              <LongitudeDegrees>-3.7196420319378376007080078125</LongitudeDegrees>
            </Position>
            <AltitudeMeters>881.20001220703125</AltitudeMeters>
            <DistanceMeters>42878.736640585</DistanceMeters>
          </Trackpoint>
          <Trackpoint>
            <Time>2020-03-07T14:46:08.000Z</Time>
            <Position>
              <LatitudeDegrees>40.79229734838008880615234375</LatitudeDegrees>
              <LongitudeDegrees>-3.71972375549376010894775390625</LongitudeDegrees>
            </Position>
            <AltitudeMeters>881.20001220703125</AltitudeMeters>
            <DistanceMeters>42885.778883113</DistanceMeters>
          </Trackpoint>
          <Trackpoint>
            <Time>2020-03-07T14:46:09.000Z</Time>
            <Position>
              <LatitudeDegrees>40.79228871501982212066650390625</LatitudeDegrees>
              <LongitudeDegrees>-3.71981008909642696380615234375</LongitudeDegrees>
            </Position>
            <AltitudeMeters>881.4000244140625</AltitudeMeters>
            <DistanceMeters>42893.117505321</DistanceMeters>
          </Trackpoint>
          <Trackpoint>
            <Time>2020-03-07T14:46:10.000Z</Time>
            <Position>
              <LatitudeDegrees>40.7922787405550479888916015625</LatitudeDegrees>
              <LongitudeDegrees>-3.71989189647138118743896484375</LongitudeDegrees>
            </Position>
            <AltitudeMeters>881.5999755859375</AltitudeMeters>
            <DistanceMeters>42900.099220916</DistanceMeters>
          </Trackpoint>
          <Trackpoint>
            <Time>2020-03-07T14:46:11.000Z</Time>
            <Position>
              <LatitudeDegrees>40.79226843081414699554443359375</LatitudeDegrees>
              <LongitudeDegrees>-3.719971440732479095458984375</LongitudeDegrees>
            </Position>
            <AltitudeMeters>881.79998779296875</AltitudeMeters>
            <DistanceMeters>42906.898779092</DistanceMeters>
          </Trackpoint>
          <Trackpoint>
            <Time>2020-03-07T14:46:12.000Z</Time>
            <Position>
              <LatitudeDegrees>40.792257785797119140625</LatitudeDegrees>
              <LongitudeDegrees>-3.7200503982603549957275390625</LongitudeDegrees>
            </Position>
            <AltitudeMeters>881.79998779296875</AltitudeMeters>
            <DistanceMeters>42913.657042675</DistanceMeters>
          </Trackpoint>
          <Trackpoint>
            <Time>2020-03-07T14:46:13.000Z</Time>
            <Position>
              <LatitudeDegrees>40.7922465540468692779541015625</LatitudeDegrees>
              <LongitudeDegrees>-3.7201286852359771728515625</LongitudeDegrees>
            </Position>
            <AltitudeMeters>882</AltitudeMeters>
            <DistanceMeters>42920.371068413</DistanceMeters>
          </Trackpoint>
          <Trackpoint>
            <Time>2020-03-07T14:46:14.000Z</Time>
            <Position>
              <LatitudeDegrees>40.79223540611565113067626953125</LatitudeDegrees>
              <LongitudeDegrees>-3.7202049605548381805419921875</LongitudeDegrees>
            </Position>
            <AltitudeMeters>882.20001220703125</AltitudeMeters>
            <DistanceMeters>42926.916884842</DistanceMeters>
          </Trackpoint>
          <Trackpoint>
            <Time>2020-03-07T14:46:15.000Z</Time>
            <Position>
              <LatitudeDegrees>40.79222450964152812957763671875</LatitudeDegrees>
              <LongitudeDegrees>-3.72028115205466747283935546875</LongitudeDegrees>
            </Position>
            <AltitudeMeters>882.4000244140625</AltitudeMeters>
            <DistanceMeters>42933.450964841</DistanceMeters>
          </Trackpoint>
          <Trackpoint>
            <Time>2020-03-07T14:46:16.000Z</Time>
            <Position>
              <LatitudeDegrees>40.792213864624500274658203125</LatitudeDegrees>
              <LongitudeDegrees>-3.720356337726116180419921875</LongitudeDegrees>
            </Position>
            <AltitudeMeters>882.5999755859375</AltitudeMeters>
            <DistanceMeters>42939.895990181</DistanceMeters>
          </Trackpoint>
          <Trackpoint>
            <Time>2020-03-07T14:46:17.000Z</Time>
            <Position>
              <LatitudeDegrees>40.7922036387026309967041015625</LatitudeDegrees>
              <LongitudeDegrees>-3.72043185867369174957275390625</LongitudeDegrees>
            </Position>
            <AltitudeMeters>882.79998779296875</AltitudeMeters>
            <DistanceMeters>42946.359902596</DistanceMeters>
          </Trackpoint>
          <Trackpoint>
            <Time>2020-03-07T14:46:18.000Z</Time>
            <Position>
              <LatitudeDegrees>40.79219198785722255706787109375</LatitudeDegrees>
              <LongitudeDegrees>-3.7205063737928867340087890625</LongitudeDegrees>
            </Position>
            <AltitudeMeters>883</AltitudeMeters>
            <DistanceMeters>42952.771917728</DistanceMeters>
          </Trackpoint>
          <Trackpoint>
            <Time>2020-03-07T14:46:19.000Z</Time>
            <Position>
              <LatitudeDegrees>40.79218058846890926361083984375</LatitudeDegrees>
              <LongitudeDegrees>-3.720580637454986572265625</LongitudeDegrees>
            </Position>
            <AltitudeMeters>883</AltitudeMeters>
            <DistanceMeters>42959.157118989</DistanceMeters>
          </Trackpoint>
          <Trackpoint>
            <Time>2020-03-07T14:46:20.000Z</Time>
            <Position>
              <LatitudeDegrees>40.7921701110899448394775390625</LatitudeDegrees>
              <LongitudeDegrees>-3.72065464965999126434326171875</LongitudeDegrees>
            </Position>
            <AltitudeMeters>883.20001220703125</AltitudeMeters>
            <DistanceMeters>42965.501886974</DistanceMeters>
          </Trackpoint>
          <Trackpoint>
            <Time>2020-03-07T14:46:21.000Z</Time>
            <Position>
              <LatitudeDegrees>40.79216097481548786163330078125</LatitudeDegrees>
              <LongitudeDegrees>-3.7207283265888690948486328125</LongitudeDegrees>
            </Position>
            <AltitudeMeters>883.20001220703125</AltitudeMeters>
            <DistanceMeters>42971.792339659</DistanceMeters>
          </Trackpoint>
          <Trackpoint>
            <Time>2020-03-07T14:46:22.000Z</Time>
            <Position>
              <LatitudeDegrees>40.79215141944587230682373046875</LatitudeDegrees>
              <LongitudeDegrees>-3.7208010815083980560302734375</LongitudeDegrees>
            </Position>
            <AltitudeMeters>884</AltitudeMeters>
            <DistanceMeters>42978.014957098</DistanceMeters>
          </Trackpoint>
          <Trackpoint>
            <Time>2020-03-07T14:46:23.000Z</Time>
            <Position>
              <LatitudeDegrees>40.7921402715146541595458984375</LatitudeDegrees>
              <LongitudeDegrees>-3.72087241150438785552978515625</LongitudeDegrees>
            </Position>
            <AltitudeMeters>884.20001220703125</AltitudeMeters>
            <DistanceMeters>42984.152829606</DistanceMeters>
          </Trackpoint>
          <Trackpoint>
            <Time>2020-03-07T14:46:24.000Z</Time>
            <Position>
              <LatitudeDegrees>40.79212962649762630462646484375</LatitudeDegrees>
              <LongitudeDegrees>-3.7209439091384410858154296875</LongitudeDegrees>
            </Position>
            <AltitudeMeters>884.4000244140625</AltitudeMeters>
            <DistanceMeters>42990.293643821</DistanceMeters>
          </Trackpoint>
          <Trackpoint>
            <Time>2020-03-07T14:46:25.000Z</Time>
            <Position>
              <LatitudeDegrees>40.79211956821382045745849609375</LatitudeDegrees>
              <LongitudeDegrees>-3.72101624496281147003173828125</LongitudeDegrees>
            </Position>
            <AltitudeMeters>884.5999755859375</AltitudeMeters>
            <DistanceMeters>42996.490085142</DistanceMeters>
          </Trackpoint>
          <Trackpoint>
            <Time>2020-03-07T14:46:26.000Z</Time>
            <Position>
              <LatitudeDegrees>40.7921087555587291717529296875</LatitudeDegrees>
              <LongitudeDegrees>-3.72108749113976955413818359375</LongitudeDegrees>
            </Position>
            <AltitudeMeters>884.5999755859375</AltitudeMeters>
            <DistanceMeters>43002.613965241</DistanceMeters>
          </Trackpoint>
          <Trackpoint>
            <Time>2020-03-07T14:46:27.000Z</Time>
            <Position>
              <LatitudeDegrees>40.7920983619987964630126953125</LatitudeDegrees>
              <LongitudeDegrees>-3.72115840204060077667236328125</LongitudeDegrees>
            </Position>
            <AltitudeMeters>885</AltitudeMeters>
            <DistanceMeters>43008.700127708</DistanceMeters>
          </Trackpoint>
          <Trackpoint>
            <Time>2020-03-07T14:46:28.000Z</Time>
            <Position>
              <LatitudeDegrees>40.79208654351532459259033203125</LatitudeDegrees>
              <LongitudeDegrees>-3.721228726208209991455078125</LongitudeDegrees>
            </Position>
            <AltitudeMeters>885.20001220703125</AltitudeMeters>
            <DistanceMeters>43014.770691271</DistanceMeters>
          </Trackpoint>
          <Trackpoint>
            <Time>2020-03-07T14:46:29.000Z</Time>
            <Position>
              <LatitudeDegrees>40.79207397066056728363037109375</LatitudeDegrees>
              <LongitudeDegrees>-3.72129745781421661376953125</LongitudeDegrees>
            </Position>
            <AltitudeMeters>885.4000244140625</AltitudeMeters>
            <DistanceMeters>43020.729404268</DistanceMeters>
          </Trackpoint>
          <Trackpoint>
            <Time>2020-03-07T14:46:30.000Z</Time>
            <Position>
              <LatitudeDegrees>40.792062319815158843994140625</LatitudeDegrees>
              <LongitudeDegrees>-3.72136493213474750518798828125</LongitudeDegrees>
            </Position>
            <AltitudeMeters>885.79998779296875</AltitudeMeters>
            <DistanceMeters>43026.560979345</DistanceMeters>
          </Trackpoint>
          <Trackpoint>
            <Time>2020-03-07T14:46:31.000Z</Time>
            <Position>
              <LatitudeDegrees>40.79205217771232128143310546875</LatitudeDegrees>
              <LongitudeDegrees>-3.721432574093341827392578125</LongitudeDegrees>
            </Position>
            <AltitudeMeters>886</AltitudeMeters>
            <DistanceMeters>43032.371612342</DistanceMeters>
          </Trackpoint>
          <Trackpoint>
            <Time>2020-03-07T14:46:32.000Z</Time>
            <Position>
              <LatitudeDegrees>40.7920417003333568572998046875</LatitudeDegrees>
              <LongitudeDegrees>-3.72149937786161899566650390625</LongitudeDegrees>
            </Position>
            <AltitudeMeters>886.20001220703125</AltitudeMeters>
            <DistanceMeters>43038.120532222</DistanceMeters>
          </Trackpoint>
          <Trackpoint>
            <Time>2020-03-07T14:46:33.000Z</Time>
            <Position>
              <LatitudeDegrees>40.79203021712601184844970703125</LatitudeDegrees>
              <LongitudeDegrees>-3.7215658463537693023681640625</LongitudeDegrees>
            </Position>
            <AltitudeMeters>886.4000244140625</AltitudeMeters>
            <DistanceMeters>43043.86473794</DistanceMeters>
          </Trackpoint>
          <Trackpoint>
            <Time>2020-03-07T14:46:34.000Z</Time>
            <Position>
              <LatitudeDegrees>40.79201839864253997802734375</LatitudeDegrees>
              <LongitudeDegrees>-3.72163097374141216278076171875</LongitudeDegrees>
            </Position>
            <AltitudeMeters>886.79998779296875</AltitudeMeters>
            <DistanceMeters>43049.507436721</DistanceMeters>
          </Trackpoint>
          <Trackpoint>
            <Time>2020-03-07T14:46:35.000Z</Time>
            <Position>
              <LatitudeDegrees>40.7920085079967975616455078125</LatitudeDegrees>
              <LongitudeDegrees>-3.72169584967195987701416015625</LongitudeDegrees>
            </Position>
            <AltitudeMeters>886.79998779296875</AltitudeMeters>
            <DistanceMeters>43055.084136756</DistanceMeters>
          </Trackpoint>
          <Trackpoint>
            <Time>2020-03-07T14:46:36.000Z</Time>
            <Position>
              <LatitudeDegrees>40.791999958455562591552734375</LatitudeDegrees>
              <LongitudeDegrees>-3.7217599712312221527099609375</LongitudeDegrees>
            </Position>
            <AltitudeMeters>887.20001220703125</AltitudeMeters>
            <DistanceMeters>43060.571055277</DistanceMeters>
          </Trackpoint>
          <Trackpoint>
            <Time>2020-03-07T14:46:37.000Z</Time>
            <Position>
              <LatitudeDegrees>40.79199199564754962921142578125</LatitudeDegrees>
              <LongitudeDegrees>-3.7218238413333892822265625</LongitudeDegrees>
            </Position>
            <AltitudeMeters>887.4000244140625</AltitudeMeters>
            <DistanceMeters>43066.025787341</DistanceMeters>
          </Trackpoint>
          <Trackpoint>
            <Time>2020-03-07T14:46:38.000Z</Time>
            <Position>
              <LatitudeDegrees>40.79198294319212436676025390625</LatitudeDegrees>
              <LongitudeDegrees>-3.72188645415008068084716796875</LongitudeDegrees>
            </Position>
            <AltitudeMeters>887.79998779296875</AltitudeMeters>
            <DistanceMeters>43071.397108802</DistanceMeters>
          </Trackpoint>
          <Trackpoint>
            <Time>2020-03-07T14:46:39.000Z</Time>
            <Position>
              <LatitudeDegrees>40.791973806917667388916015625</LatitudeDegrees>
              <LongitudeDegrees>-3.72194998897612094879150390625</LongitudeDegrees>
            </Position>
            <AltitudeMeters>888</AltitudeMeters>
            <DistanceMeters>43076.84687223</DistanceMeters>
          </Trackpoint>
          <Trackpoint>
            <Time>2020-03-07T14:46:40.000Z</Time>
            <Position>
              <LatitudeDegrees>40.791965089738368988037109375</LatitudeDegrees>
              <LongitudeDegrees>-3.7220120988786220550537109375</LongitudeDegrees>
            </Position>
            <AltitudeMeters>888.4000244140625</AltitudeMeters>
            <DistanceMeters>43082.17006487</DistanceMeters>
          </Trackpoint>
          <Trackpoint>
            <Time>2020-03-07T14:46:41.000Z</Time>
            <Position>
              <LatitudeDegrees>40.79195679165422916412353515625</LatitudeDegrees>
              <LongitudeDegrees>-3.72207395732402801513671875</LongitudeDegrees>
            </Position>
            <AltitudeMeters>888.79998779296875</AltitudeMeters>
            <DistanceMeters>43087.464340768</DistanceMeters>
          </Trackpoint>
          <Trackpoint>
            <Time>2020-03-07T14:46:42.000Z</Time>
            <Position>
              <LatitudeDegrees>40.791949331760406494140625</LatitudeDegrees>
              <LongitudeDegrees>-3.7221351452171802520751953125</LongitudeDegrees>
            </Position>
            <AltitudeMeters>889.20001220703125</AltitudeMeters>
            <DistanceMeters>43092.688217778</DistanceMeters>
          </Trackpoint>
          <Trackpoint>
            <Time>2020-03-07T14:46:43.000Z</Time>
            <Position>
              <LatitudeDegrees>40.79194128513336181640625</LatitudeDegrees>
              <LongitudeDegrees>-3.7221951596438884735107421875</LongitudeDegrees>
            </Position>
            <AltitudeMeters>889.4000244140625</AltitudeMeters>
            <DistanceMeters>43097.824936903</DistanceMeters>
          </Trackpoint>
          <Trackpoint>
            <Time>2020-03-07T14:46:44.000Z</Time>
            <Position>
              <LatitudeDegrees>40.79193265177309513092041015625</LatitudeDegrees>
              <LongitudeDegrees>-3.7222551740705966949462890625</LongitudeDegrees>
            </Position>
            <AltitudeMeters>889.79998779296875</AltitudeMeters>
            <DistanceMeters>43102.972192898</DistanceMeters>
          </Trackpoint>
          <Trackpoint>
            <Time>2020-03-07T14:46:45.000Z</Time>
            <Position>
              <LatitudeDegrees>40.791924186050891876220703125</LatitudeDegrees>
              <LongitudeDegrees>-3.722315020859241485595703125</LongitudeDegrees>
            </Position>
            <AltitudeMeters>890</AltitudeMeters>
            <DistanceMeters>43108.103635474</DistanceMeters>
          </Trackpoint>
          <Trackpoint>
            <Time>2020-03-07T14:46:46.000Z</Time>
            <Position>
              <LatitudeDegrees>40.79191588796675205230712890625</LatitudeDegrees>
              <LongitudeDegrees>-3.7223728559911251068115234375</LongitudeDegrees>
            </Position>
            <AltitudeMeters>890.4000244140625</AltitudeMeters>
            <DistanceMeters>43113.065085705</DistanceMeters>
          </Trackpoint>
          <Trackpoint>
            <Time>2020-03-07T14:46:47.000Z</Time>
            <Position>
              <LatitudeDegrees>40.7919082604348659515380859375</LatitudeDegrees>
              <LongitudeDegrees>-3.7224325351417064666748046875</LongitudeDegrees>
            </Position>
            <AltitudeMeters>890.5999755859375</AltitudeMeters>
            <DistanceMeters>43118.165639619</DistanceMeters>
          </Trackpoint>
          <Trackpoint>
            <Time>2020-03-07T14:46:48.000Z</Time>
            <Position>
              <LatitudeDegrees>40.79189962707459926605224609375</LatitudeDegrees>
              <LongitudeDegrees>-3.72249162755906581878662109375</LongitudeDegrees>
            </Position>
            <AltitudeMeters>891</AltitudeMeters>
            <DistanceMeters>43123.23689762</DistanceMeters>
          </Trackpoint>
          <Trackpoint>
            <Time>2020-03-07T14:46:49.000Z</Time>
            <Position>
              <LatitudeDegrees>40.791890323162078857421875</LatitudeDegrees>
              <LongitudeDegrees>-3.722550384700298309326171875</LongitudeDegrees>
            </Position>
            <AltitudeMeters>891.20001220703125</AltitudeMeters>
            <DistanceMeters>43128.294783203</DistanceMeters>
          </Trackpoint>
          <Trackpoint>
            <Time>2020-03-07T14:46:50.000Z</Time>
            <Position>
              <LatitudeDegrees>40.79188085161149501800537109375</LatitudeDegrees>
              <LongitudeDegrees>-3.72260897420346736907958984375</LongitudeDegrees>
            </Position>
            <AltitudeMeters>891.79998779296875</AltitudeMeters>
            <DistanceMeters>43133.341945341</DistanceMeters>
          </Trackpoint>
          <Trackpoint>
            <Time>2020-03-07T14:46:51.000Z</Time>
            <Position>
              <LatitudeDegrees>40.79187146387994289398193359375</LatitudeDegrees>
              <LongitudeDegrees>-3.722667731344699859619140625</LongitudeDegrees>
            </Position>
            <AltitudeMeters>892</AltitudeMeters>
            <DistanceMeters>43138.401615954</DistanceMeters>
          </Trackpoint>
          <Trackpoint>
            <Time>2020-03-07T14:46:52.000Z</Time>
            <Position>
              <LatitudeDegrees>40.7918626628816127777099609375</LatitudeDegrees>
              <LongitudeDegrees>-3.72272573411464691162109375</LongitudeDegrees>
            </Position>
            <AltitudeMeters>892.20001220703125</AltitudeMeters>
            <DistanceMeters>43143.386670656</DistanceMeters>
          </Trackpoint>
          <Trackpoint>
            <Time>2020-03-07T14:46:53.000Z</Time>
            <Position>
              <LatitudeDegrees>40.7918542809784412384033203125</LatitudeDegrees>
              <LongitudeDegrees>-3.72278315015137195587158203125</LongitudeDegrees>
            </Position>
            <AltitudeMeters>892.5999755859375</AltitudeMeters>
            <DistanceMeters>43148.315251144</DistanceMeters>
          </Trackpoint>
          <Trackpoint>
            <Time>2020-03-07T14:46:54.000Z</Time>
            <Position>
              <LatitudeDegrees>40.7918455637991428375244140625</LatitudeDegrees>
              <LongitudeDegrees>-3.72284106910228729248046875</LongitudeDegrees>
            </Position>
            <AltitudeMeters>892.79998779296875</AltitudeMeters>
            <DistanceMeters>43153.291240454</DistanceMeters>
          </Trackpoint>
          <Trackpoint>
            <Time>2020-03-07T14:46:55.000Z</Time>
            <Position>
              <LatitudeDegrees>40.7918378524482250213623046875</LatitudeDegrees>
              <LongitudeDegrees>-3.7228995747864246368408203125</LongitudeDegrees>
            </Position>
            <AltitudeMeters>893.20001220703125</AltitudeMeters>
            <DistanceMeters>43158.296181218</DistanceMeters>
          </Trackpoint>
          <Trackpoint>
            <Time>2020-03-07T14:46:56.000Z</Time>
            <Position>
              <LatitudeDegrees>40.7918304763734340667724609375</LatitudeDegrees>
              <LongitudeDegrees>-3.722958080470561981201171875</LongitudeDegrees>
            </Position>
            <AltitudeMeters>893.4000244140625</AltitudeMeters>
            <DistanceMeters>43163.293899842</DistanceMeters>
          </Trackpoint>
          <Trackpoint>
            <Time>2020-03-07T14:46:57.000Z</Time>
            <Position>
              <LatitudeDegrees>40.79182326793670654296875</LatitudeDegrees>
              <LongitudeDegrees>-3.7230162508785724639892578125</LongitudeDegrees>
            </Position>
            <AltitudeMeters>893.5999755859375</AltitudeMeters>
            <DistanceMeters>43168.260807215</DistanceMeters>
          </Trackpoint>
          <Trackpoint>
            <Time>2020-03-07T14:46:58.000Z</Time>
            <Position>
              <LatitudeDegrees>40.7918137125670909881591796875</LatitudeDegrees>
              <LongitudeDegrees>-3.723074086010456085205078125</LongitudeDegrees>
            </Position>
            <AltitudeMeters>893.5999755859375</AltitudeMeters>
            <DistanceMeters>43173.24857832</DistanceMeters>
          </Trackpoint>
          <Trackpoint>
            <Time>2020-03-07T14:46:59.000Z</Time>
            <Position>
              <LatitudeDegrees>40.7918023131787776947021484375</LatitudeDegrees>
              <LongitudeDegrees>-3.7231299094855785369873046875</LongitudeDegrees>
            </Position>
            <AltitudeMeters>893.79998779296875</AltitudeMeters>
            <DistanceMeters>43178.120956689</DistanceMeters>
          </Trackpoint>
          <Trackpoint>
            <Time>2020-03-07T14:47:00.000Z</Time>
            <Position>
              <LatitudeDegrees>40.79179175198078155517578125</LatitudeDegrees>
              <LongitudeDegrees>-3.72318481095135211944580078125</LongitudeDegrees>
            </Position>
            <AltitudeMeters>894</AltitudeMeters>
            <DistanceMeters>43182.895044345</DistanceMeters>
          </Trackpoint>
          <Trackpoint>
            <Time>2020-03-07T14:47:01.000Z</Time>
            <Position>
              <LatitudeDegrees>40.791780687868595123291015625</LatitudeDegrees>
              <LongitudeDegrees>-3.7232398800551891326904296875</LongitudeDegrees>
            </Position>
            <AltitudeMeters>894.20001220703125</AltitudeMeters>
            <DistanceMeters>43187.695539641</DistanceMeters>
          </Trackpoint>
          <Trackpoint>
            <Time>2020-03-07T14:47:02.000Z</Time>
            <Position>
              <LatitudeDegrees>40.7917709648609161376953125</LatitudeDegrees>
              <LongitudeDegrees>-3.72329377569258213043212890625</LongitudeDegrees>
            </Position>
            <AltitudeMeters>894.4000244140625</AltitudeMeters>
            <DistanceMeters>43192.364437213</DistanceMeters>
          </Trackpoint>
          <Trackpoint>
            <Time>2020-03-07T14:47:03.000Z</Time>
            <Position>
              <LatitudeDegrees>40.79176216386258602142333984375</LatitudeDegrees>
              <LongitudeDegrees>-3.72334876097738742828369140625</LongitudeDegrees>
            </Position>
            <AltitudeMeters>894.79998779296875</AltitudeMeters>
            <DistanceMeters>43197.100544252</DistanceMeters>
          </Trackpoint>
          <Trackpoint>
            <Time>2020-03-07T14:47:04.000Z</Time>
            <Position>
              <LatitudeDegrees>40.79175285995006561279296875</LatitudeDegrees>
              <LongitudeDegrees>-3.72340508736670017242431640625</LongitudeDegrees>
            </Position>
            <AltitudeMeters>895</AltitudeMeters>
            <DistanceMeters>43201.957143851</DistanceMeters>
          </Trackpoint>
          <Trackpoint>
            <Time>2020-03-07T14:47:05.000Z</Time>
            <Position>
              <LatitudeDegrees>40.791741795837879180908203125</LatitudeDegrees>
              <LongitudeDegrees>-3.72346208430826663970947265625</LongitudeDegrees>
            </Position>
            <AltitudeMeters>895.20001220703125</AltitudeMeters>
            <DistanceMeters>43206.915863258</DistanceMeters>
          </Trackpoint>
          <Trackpoint>
            <Time>2020-03-07T14:47:06.000Z</Time>
            <Position>
              <LatitudeDegrees>40.791729725897312164306640625</LatitudeDegrees>
              <LongitudeDegrees>-3.72351924888789653778076171875</LongitudeDegrees>
            </Position>
            <AltitudeMeters>895.4000244140625</AltitudeMeters>
            <DistanceMeters>43211.917194256</DistanceMeters>
          </Trackpoint>
          <Trackpoint>
            <Time>2020-03-07T14:47:07.000Z</Time>
            <Position>
              <LatitudeDegrees>40.79171773977577686309814453125</LatitudeDegrees>
              <LongitudeDegrees>-3.72357574291527271270751953125</LongitudeDegrees>
            </Position>
            <AltitudeMeters>895.5999755859375</AltitudeMeters>
            <DistanceMeters>43216.861323799</DistanceMeters>
          </Trackpoint>
          <Trackpoint>
            <Time>2020-03-07T14:47:08.000Z</Time>
            <Position>
              <LatitudeDegrees>40.79170600511133670806884765625</LatitudeDegrees>
              <LongitudeDegrees>-3.72363307513296604156494140625</LongitudeDegrees>
            </Position>
            <AltitudeMeters>895.79998779296875</AltitudeMeters>
            <DistanceMeters>43221.866264563</DistanceMeters>
          </Trackpoint>
          <Trackpoint>
            <Time>2020-03-07T14:47:09.000Z</Time>
            <Position>
              <LatitudeDegrees>40.7916933484375476837158203125</LatitudeDegrees>
              <LongitudeDegrees>-3.7236901558935642242431640625</LongitudeDegrees>
            </Position>
            <AltitudeMeters>896</AltitudeMeters>
            <DistanceMeters>43226.878417062</DistanceMeters>
          </Trackpoint>
          <Trackpoint>
            <Time>2020-03-07T14:47:10.000Z</Time>
            <Position>
              <LatitudeDegrees>40.791678763926029205322265625</LatitudeDegrees>
              <LongitudeDegrees>-3.72374522499740123748779296875</LongitudeDegrees>
            </Position>
            <AltitudeMeters>896.4000244140625</AltitudeMeters>
            <DistanceMeters>43231.794155517</DistanceMeters>
          </Trackpoint>
          <Trackpoint>
            <Time>2020-03-07T14:47:11.000Z</Time>
            <Position>
              <LatitudeDegrees>40.791663341224193572998046875</LatitudeDegrees>
              <LongitudeDegrees>-3.72379970736801624298095703125</LongitudeDegrees>
            </Position>
            <AltitudeMeters>896.79998779296875</AltitudeMeters>
            <DistanceMeters>43236.69517616</DistanceMeters>
          </Trackpoint>
          <Trackpoint>
            <Time>2020-03-07T14:47:12.000Z</Time>
            <Position>
              <LatitudeDegrees>40.791649259626865386962890625</LatitudeDegrees>
              <LongitudeDegrees>-3.72385486029088497161865234375</LongitudeDegrees>
            </Position>
            <AltitudeMeters>897.20001220703125</AltitudeMeters>
            <DistanceMeters>43241.599880396</DistanceMeters>
          </Trackpoint>
          <Trackpoint>
            <Time>2020-03-07T14:47:13.000Z</Time>
            <Position>
              <LatitudeDegrees>40.7916355133056640625</LatitudeDegrees>
              <LongitudeDegrees>-3.72390858829021453857421875</LongitudeDegrees>
            </Position>
            <AltitudeMeters>897.5999755859375</AltitudeMeters>
            <DistanceMeters>43246.379639115</DistanceMeters>
          </Trackpoint>
          <Trackpoint>
            <Time>2020-03-07T14:47:14.000Z</Time>
            <Position>
              <LatitudeDegrees>40.79162134788930416107177734375</LatitudeDegrees>
              <LongitudeDegrees>-3.72396298684179782867431640625</LongitudeDegrees>
            </Position>
            <AltitudeMeters>897.79998779296875</AltitudeMeters>
            <DistanceMeters>43251.226933092</DistanceMeters>
          </Trackpoint>
          <Trackpoint>
            <Time>2020-03-07T14:47:15.000Z</Time>
            <Position>
              <LatitudeDegrees>40.791606344282627105712890625</LatitudeDegrees>
              <LongitudeDegrees>-3.72401654720306396484375</LongitudeDegrees>
            </Position>
            <AltitudeMeters>898.4000244140625</AltitudeMeters>
            <DistanceMeters>43256.038701582</DistanceMeters>
          </Trackpoint>
          <Trackpoint>
            <Time>2020-03-07T14:47:16.000Z</Time>
            <Position>
              <LatitudeDegrees>40.7915900833904743194580078125</LatitudeDegrees>
              <LongitudeDegrees>-3.7240683473646640777587890625</LongitudeDegrees>
            </Position>
            <AltitudeMeters>898.5999755859375</AltitudeMeters>
            <DistanceMeters>43260.7633549</DistanceMeters>
          </Trackpoint>
          <Trackpoint>
            <Time>2020-03-07T14:47:17.000Z</Time>
            <Position>
              <LatitudeDegrees>40.791573487222194671630859375</LatitudeDegrees>
              <LongitudeDegrees>-3.72412274591624736785888671875</LongitudeDegrees>
            </Position>
            <AltitudeMeters>899</AltitudeMeters>
            <DistanceMeters>43265.704744047</DistanceMeters>
          </Trackpoint>
          <Trackpoint>
            <Time>2020-03-07T14:47:18.000Z</Time>
            <Position>
              <LatitudeDegrees>40.79155462794005870819091796875</LatitudeDegrees>
              <LongitudeDegrees>-3.72417370788753032684326171875</LongitudeDegrees>
            </Position>
            <AltitudeMeters>899.4000244140625</AltitudeMeters>
            <DistanceMeters>43270.483558055</DistanceMeters>
          </Trackpoint>
          <Trackpoint>
            <Time>2020-03-07T14:47:19.000Z</Time>
            <Position>
              <LatitudeDegrees>40.79153618775308132171630859375</LatitudeDegrees>
              <LongitudeDegrees>-3.7242269329726696014404296875</LongitudeDegrees>
            </Position>
            <AltitudeMeters>899.79998779296875</AltitudeMeters>
            <DistanceMeters>43275.414886057</DistanceMeters>
          </Trackpoint>
          <Trackpoint>
            <Time>2020-03-07T14:47:20.000Z</Time>
            <Position>
              <LatitudeDegrees>40.79151825048029422760009765625</LatitudeDegrees>
              <LongitudeDegrees>-3.72427764348685741424560546875</LongitudeDegrees>
            </Position>
            <AltitudeMeters>900</AltitudeMeters>
            <DistanceMeters>43280.131888109</DistanceMeters>
          </Trackpoint>
          <Trackpoint>
            <Time>2020-03-07T14:47:21.000Z</Time>
            <Position>
              <LatitudeDegrees>40.79150031320750713348388671875</LatitudeDegrees>
              <LongitudeDegrees>-3.72432927601039409637451171875</LongitudeDegrees>
            </Position>
            <AltitudeMeters>900.20001220703125</AltitudeMeters>
            <DistanceMeters>43284.918254575</DistanceMeters>
          </Trackpoint>
          <Trackpoint>
            <Time>2020-03-07T14:47:22.000Z</Time>
            <Position>
              <LatitudeDegrees>40.79148220829665660858154296875</LatitudeDegrees>
              <LongitudeDegrees>-3.7243788130581378936767578125</LongitudeDegrees>
            </Position>
            <AltitudeMeters>900.4000244140625</AltitudeMeters>
            <DistanceMeters>43289.552207723</DistanceMeters>
          </Trackpoint>
          <Trackpoint>
            <Time>2020-03-07T14:47:23.000Z</Time>
            <Position>
              <LatitudeDegrees>40.7914653606712818145751953125</LatitudeDegrees>
              <LongitudeDegrees>-3.72443027794361114501953125</LongitudeDegrees>
            </Position>
            <AltitudeMeters>900.5999755859375</AltitudeMeters>
            <DistanceMeters>43294.276861041</DistanceMeters>
          </Trackpoint>
          <Trackpoint>
            <Time>2020-03-07T14:47:24.000Z</Time>
            <Position>
              <LatitudeDegrees>40.7914492674171924591064453125</LatitudeDegrees>
              <LongitudeDegrees>-3.7244827486574649810791015625</LongitudeDegrees>
            </Position>
            <AltitudeMeters>900.79998779296875</AltitudeMeters>
            <DistanceMeters>43299.047164243</DistanceMeters>
          </Trackpoint>
          <Trackpoint>
            <Time>2020-03-07T14:47:25.000Z</Time>
            <Position>
              <LatitudeDegrees>40.79143241979181766510009765625</LatitudeDegrees>
              <LongitudeDegrees>-3.72453547082841396331787109375</LongitudeDegrees>
            </Position>
            <AltitudeMeters>901.20001220703125</AltitudeMeters>
            <DistanceMeters>43303.869243342</DistanceMeters>
          </Trackpoint>
          <Trackpoint>
            <Time>2020-03-07T14:47:26.000Z</Time>
            <Position>
              <LatitudeDegrees>40.79141347669064998626708984375</LatitudeDegrees>
              <LongitudeDegrees>-3.72458844445645809173583984375</LongitudeDegrees>
            </Position>
            <AltitudeMeters>901.4000244140625</AltitudeMeters>
            <DistanceMeters>43308.806976263</DistanceMeters>
          </Trackpoint>
          <Trackpoint>
            <Time>2020-03-07T14:47:27.000Z</Time>
            <Position>
              <LatitudeDegrees>40.791395120322704315185546875</LatitudeDegrees>
              <LongitudeDegrees>-3.7246423400938510894775390625</LongitudeDegrees>
            </Position>
            <AltitudeMeters>901.5999755859375</AltitudeMeters>
            <DistanceMeters>43313.78659371</DistanceMeters>
          </Trackpoint>
          <Trackpoint>
            <Time>2020-03-07T14:47:28.000Z</Time>
            <Position>
              <LatitudeDegrees>40.7913765124976634979248046875</LatitudeDegrees>
              <LongitudeDegrees>-3.72469539754092693328857421875</LongitudeDegrees>
            </Position>
            <AltitudeMeters>901.5999755859375</AltitudeMeters>
            <DistanceMeters>43318.713341672</DistanceMeters>
          </Trackpoint>
          <Trackpoint>
            <Time>2020-03-07T14:47:29.000Z</Time>
            <Position>
              <LatitudeDegrees>40.7913567312061786651611328125</LatitudeDegrees>
              <LongitudeDegrees>-3.72474803589284420013427734375</LongitudeDegrees>
            </Position>
            <AltitudeMeters>901.79998779296875</AltitudeMeters>
            <DistanceMeters>43323.665683302</DistanceMeters>
          </Trackpoint>
          <Trackpoint>
            <Time>2020-03-07T14:47:30.000Z</Time>
            <Position>
              <LatitudeDegrees>40.79133753664791584014892578125</LatitudeDegrees>
              <LongitudeDegrees>-3.724801428616046905517578125</LongitudeDegrees>
            </Position>
            <AltitudeMeters>902</AltitudeMeters>
            <DistanceMeters>43328.64620737</DistanceMeters>
          </Trackpoint>
          <Trackpoint>
            <Time>2020-03-07T14:47:31.000Z</Time>
            <Position>
              <LatitudeDegrees>40.791320018470287322998046875</LatitudeDegrees>
              <LongitudeDegrees>-3.724856413900852203369140625</LongitudeDegrees>
            </Position>
            <AltitudeMeters>902.20001220703125</AltitudeMeters>
            <DistanceMeters>43333.672752296</DistanceMeters>
          </Trackpoint>
          <Trackpoint>
            <Time>2020-03-07T14:47:32.000Z</Time>
            <Position>
              <LatitudeDegrees>40.79130434431135654449462890625</LatitudeDegrees>
              <LongitudeDegrees>-3.72491575777530670166015625</LongitudeDegrees>
            </Position>
            <AltitudeMeters>902.4000244140625</AltitudeMeters>
            <DistanceMeters>43338.969586021</DistanceMeters>
          </Trackpoint>
          <Trackpoint>
            <Time>2020-03-07T14:47:33.000Z</Time>
            <Position>
              <LatitudeDegrees>40.79128841869533061981201171875</LatitudeDegrees>
              <LongitudeDegrees>-3.72497585602104663848876953125</LongitudeDegrees>
            </Position>
            <AltitudeMeters>902.5999755859375</AltitudeMeters>
            <DistanceMeters>43344.335020179</DistanceMeters>
          </Trackpoint>
          <Trackpoint>
            <Time>2020-03-07T14:47:34.000Z</Time>
            <Position>
              <LatitudeDegrees>40.7912719063460826873779296875</LatitudeDegrees>
              <LongitudeDegrees>-3.72503788210451602935791015625</LongitudeDegrees>
            </Position>
            <AltitudeMeters>902.79998779296875</AltitudeMeters>
            <DistanceMeters>43349.875982181</DistanceMeters>
          </Trackpoint>
          <Trackpoint>
            <Time>2020-03-07T14:47:35.000Z</Time>
            <Position>
              <LatitudeDegrees>40.79125665128231048583984375</LatitudeDegrees>
              <LongitudeDegrees>-3.7251009978353977203369140625</LongitudeDegrees>
            </Position>
            <AltitudeMeters>903</AltitudeMeters>
            <DistanceMeters>43355.458346716</DistanceMeters>
          </Trackpoint>
          <Trackpoint>
            <Time>2020-03-07T14:47:36.000Z</Time>
            <Position>
              <LatitudeDegrees>40.79124298878014087677001953125</LatitudeDegrees>
              <LongitudeDegrees>-3.72516545467078685760498046875</LongitudeDegrees>
            </Position>
            <AltitudeMeters>903.20001220703125</AltitudeMeters>
            <DistanceMeters>43361.09864452</DistanceMeters>
          </Trackpoint>
          <Trackpoint>
            <Time>2020-03-07T14:47:37.000Z</Time>
            <Position>
              <LatitudeDegrees>40.79123041592538356781005859375</LatitudeDegrees>
              <LongitudeDegrees>-3.7252329289913177490234375</LongitudeDegrees>
            </Position>
            <AltitudeMeters>903.4000244140625</AltitudeMeters>
            <DistanceMeters>43366.954171845</DistanceMeters>
          </Trackpoint>
          <Trackpoint>
            <Time>2020-03-07T14:47:38.000Z</Time>
            <Position>
              <LatitudeDegrees>40.79121767543256282806396484375</LatitudeDegrees>
              <LongitudeDegrees>-3.72530375607311725616455078125</LongitudeDegrees>
            </Position>
            <AltitudeMeters>903.5999755859375</AltitudeMeters>
            <DistanceMeters>43373.089101235</DistanceMeters>
          </Trackpoint>
          <Trackpoint>
            <Time>2020-03-07T14:47:39.000Z</Time>
            <Position>
              <LatitudeDegrees>40.7912048511207103729248046875</LatitudeDegrees>
              <LongitudeDegrees>-3.72537684626877307891845703125</LongitudeDegrees>
            </Position>
            <AltitudeMeters>903.79998779296875</AltitudeMeters>
            <DistanceMeters>43379.412484704</DistanceMeters>
          </Trackpoint>
          <Trackpoint>
            <Time>2020-03-07T14:47:40.000Z</Time>
            <Position>
              <LatitudeDegrees>40.79119219444692134857177734375</LatitudeDegrees>
              <LongitudeDegrees>-3.72545245103538036346435546875</LongitudeDegrees>
            </Position>
            <AltitudeMeters>904</AltitudeMeters>
            <DistanceMeters>43385.938267455</DistanceMeters>
          </Trackpoint>
          <Trackpoint>
            <Time>2020-03-07T14:47:41.000Z</Time>
            <Position>
              <LatitudeDegrees>40.79117978923022747039794921875</LatitudeDegrees>
              <LongitudeDegrees>-3.72552772052586078643798828125</LongitudeDegrees>
            </Position>
            <AltitudeMeters>904</AltitudeMeters>
            <DistanceMeters>43392.429364179</DistanceMeters>
          </Trackpoint>
          <Trackpoint>
            <Time>2020-03-07T14:47:42.000Z</Time>
            <Position>
              <LatitudeDegrees>40.791167803108692169189453125</LatitudeDegrees>
              <LongitudeDegrees>-3.72560366056859493255615234375</LongitudeDegrees>
            </Position>
            <AltitudeMeters>904.20001220703125</AltitudeMeters>
            <DistanceMeters>43398.965516844</DistanceMeters>
          </Trackpoint>
          <Trackpoint>
            <Time>2020-03-07T14:47:43.000Z</Time>
            <Position>
              <LatitudeDegrees>40.7911569066345691680908203125</LatitudeDegrees>
              <LongitudeDegrees>-3.72568110935389995574951171875</LongitudeDegrees>
            </Position>
            <AltitudeMeters>904.20001220703125</AltitudeMeters>
            <DistanceMeters>43405.602437281</DistanceMeters>
          </Trackpoint>
          <Trackpoint>
            <Time>2020-03-07T14:47:44.000Z</Time>
            <Position>
              <LatitudeDegrees>40.79114424996078014373779296875</LatitudeDegrees>
              <LongitudeDegrees>-3.725764341652393341064453125</LongitudeDegrees>
            </Position>
            <AltitudeMeters>904.20001220703125</AltitudeMeters>
            <DistanceMeters>43412.755998856</DistanceMeters>
          </Trackpoint>
          <Trackpoint>
            <Time>2020-03-07T14:47:45.000Z</Time>
            <Position>
              <LatitudeDegrees>40.79112983308732509613037109375</LatitudeDegrees>
              <LongitudeDegrees>-3.72585117816925048828125</LongitudeDegrees>
            </Position>
            <AltitudeMeters>904.20001220703125</AltitudeMeters>
            <DistanceMeters>43420.248058331</DistanceMeters>
          </Trackpoint>
          <Trackpoint>
            <Time>2020-03-07T14:47:46.000Z</Time>
            <Position>
              <LatitudeDegrees>40.79111441038548946380615234375</LatitudeDegrees>
              <LongitudeDegrees>-3.72593843378126621246337890625</LongitudeDegrees>
            </Position>
            <AltitudeMeters>904.20001220703125</AltitudeMeters>
            <DistanceMeters>43427.798347901</DistanceMeters>
          </Trackpoint>
          <Trackpoint>
            <Time>2020-03-07T14:47:47.000Z</Time>
            <Position>
              <LatitudeDegrees>40.7910985685884952545166015625</LatitudeDegrees>
              <LongitudeDegrees>-3.72602610848844051361083984375</LongitudeDegrees>
            </Position>
            <AltitudeMeters>904.20001220703125</AltitudeMeters>
            <DistanceMeters>43435.393354703</DistanceMeters>
          </Trackpoint>
          <Trackpoint>
            <Time>2020-03-07T14:47:48.000Z</Time>
            <Position>
              <LatitudeDegrees>40.79108322970569133758544921875</LatitudeDegrees>
              <LongitudeDegrees>-3.72611545957624912261962890625</LongitudeDegrees>
            </Position>
            <AltitudeMeters>904.20001220703125</AltitudeMeters>
            <DistanceMeters>43443.114531083</DistanceMeters>
          </Trackpoint>
          <Trackpoint>
            <Time>2020-03-07T14:47:49.000Z</Time>
            <Position>
              <LatitudeDegrees>40.79106663353741168975830078125</LatitudeDegrees>
              <LongitudeDegrees>-3.72620598413050174713134765625</LongitudeDegrees>
            </Position>
            <AltitudeMeters>904.4000244140625</AltitudeMeters>
            <DistanceMeters>43450.963300509</DistanceMeters>
          </Trackpoint>
          <Trackpoint>
            <Time>2020-03-07T14:47:50.000Z</Time>
            <Position>
              <LatitudeDegrees>40.79105087555944919586181640625</LatitudeDegrees>
              <LongitudeDegrees>-3.7262972630560398101806640625</LongitudeDegrees>
            </Position>
            <AltitudeMeters>904.4000244140625</AltitudeMeters>
            <DistanceMeters>43458.852234965</DistanceMeters>
          </Trackpoint>
          <Trackpoint>
            <Time>2020-03-07T14:47:51.000Z</Time>
            <Position>
              <LatitudeDegrees>40.79103562049567699432373046875</LatitudeDegrees>
              <LongitudeDegrees>-3.72638954780995845794677734375</LongitudeDegrees>
            </Position>
            <AltitudeMeters>904.4000244140625</AltitudeMeters>
            <DistanceMeters>43466.811821407</DistanceMeters>
          </Trackpoint>
          <Trackpoint>
            <Time>2020-03-07T14:47:52.000Z</Time>
            <Position>
              <LatitudeDegrees>40.79102153889834880828857421875</LatitudeDegrees>
              <LongitudeDegrees>-3.72648191638290882110595703125</LongitudeDegrees>
            </Position>
            <AltitudeMeters>904.4000244140625</AltitudeMeters>
            <DistanceMeters>43474.750960755</DistanceMeters>
          </Trackpoint>
          <Trackpoint>
            <Time>2020-03-07T14:47:53.000Z</Time>
            <Position>
              <LatitudeDegrees>40.79100611619651317596435546875</LatitudeDegrees>
              <LongitudeDegrees>-3.7265738658607006072998046875</LongitudeDegrees>
            </Position>
            <AltitudeMeters>904.4000244140625</AltitudeMeters>
            <DistanceMeters>43482.686687131</DistanceMeters>
          </Trackpoint>
          <Trackpoint>
            <Time>2020-03-07T14:47:54.000Z</Time>
            <Position>
              <LatitudeDegrees>40.79098952002823352813720703125</LatitudeDegrees>
              <LongitudeDegrees>-3.7266664020717144012451171875</LongitudeDegrees>
            </Position>
            <AltitudeMeters>904.4000244140625</AltitudeMeters>
            <DistanceMeters>43490.699417222</DistanceMeters>
          </Trackpoint>
          <Trackpoint>
            <Time>2020-03-07T14:47:55.000Z</Time>
            <Position>
              <LatitudeDegrees>40.7909745164215564727783203125</LatitudeDegrees>
              <LongitudeDegrees>-3.726760111749172210693359375</LongitudeDegrees>
            </Position>
            <AltitudeMeters>904.4000244140625</AltitudeMeters>
            <DistanceMeters>43498.771096201</DistanceMeters>
          </Trackpoint>
          <Trackpoint>
            <Time>2020-03-07T14:47:56.000Z</Time>
            <Position>
              <LatitudeDegrees>40.7909604348242282867431640625</LatitudeDegrees>
              <LongitudeDegrees>-3.7268561683595180511474609375</LongitudeDegrees>
            </Position>
            <AltitudeMeters>904.5999755859375</AltitudeMeters>
            <DistanceMeters>43507.015998594</DistanceMeters>
          </Trackpoint>
          <Trackpoint>
            <Time>2020-03-07T14:47:57.000Z</Time>
            <Position>
              <LatitudeDegrees>40.7909463532269001007080078125</LatitudeDegrees>
              <LongitudeDegrees>-3.72695289552211761474609375</LongitudeDegrees>
            </Position>
            <AltitudeMeters>904.5999755859375</AltitudeMeters>
            <DistanceMeters>43515.316569856</DistanceMeters>
          </Trackpoint>
          <Trackpoint>
            <Time>2020-03-07T14:47:58.000Z</Time>
            <Position>
              <LatitudeDegrees>40.7909305952489376068115234375</LatitudeDegrees>
              <LongitudeDegrees>-3.72704987414181232452392578125</LongitudeDegrees>
            </Position>
            <AltitudeMeters>904.5999755859375</AltitudeMeters>
            <DistanceMeters>43523.674600208</DistanceMeters>
          </Trackpoint>
          <Trackpoint>
            <Time>2020-03-07T14:47:59.000Z</Time>
            <Position>
              <LatitudeDegrees>40.790913999080657958984375</LatitudeDegrees>
              <LongitudeDegrees>-3.72714559547603130340576171875</LongitudeDegrees>
            </Position>
            <AltitudeMeters>904.5999755859375</AltitudeMeters>
            <DistanceMeters>43531.950112262</DistanceMeters>
          </Trackpoint>
          <Trackpoint>
            <Time>2020-03-07T14:48:00.000Z</Time>
            <Position>
              <LatitudeDegrees>40.7908970676362514495849609375</LatitudeDegrees>
              <LongitudeDegrees>-3.727238886058330535888671875</LongitudeDegrees>
            </Position>
            <AltitudeMeters>904.5999755859375</AltitudeMeters>
            <DistanceMeters>43540.034646466</DistanceMeters>
          </Trackpoint>
          <Trackpoint>
            <Time>2020-03-07T14:48:01.000Z</Time>
            <Position>
              <LatitudeDegrees>40.79087988473474979400634765625</LatitudeDegrees>
              <LongitudeDegrees>-3.7273312546312808990478515625</LongitudeDegrees>
            </Position>
            <AltitudeMeters>904.79998779296875</AltitudeMeters>
            <DistanceMeters>43548.049630173</DistanceMeters>
          </Trackpoint>
          <Trackpoint>
            <Time>2020-03-07T14:48:02.000Z</Time>
            <Position>
              <LatitudeDegrees>40.7908635400235652923583984375</LatitudeDegrees>
              <LongitudeDegrees>-3.7274227850139141082763671875</LongitudeDegrees>
            </Position>
            <AltitudeMeters>904.79998779296875</AltitudeMeters>
            <DistanceMeters>43555.973969363</DistanceMeters>
          </Trackpoint>
          <Trackpoint>
            <Time>2020-03-07T14:48:03.000Z</Time>
            <Position>
              <LatitudeDegrees>40.7908482849597930908203125</LatitudeDegrees>
              <LongitudeDegrees>-3.7275126390159130096435546875</LongitudeDegrees>
            </Position>
            <AltitudeMeters>905</AltitudeMeters>
            <DistanceMeters>43563.734225789</DistanceMeters>
          </Trackpoint>
          <Trackpoint>
            <Time>2020-03-07T14:48:04.000Z</Time>
            <Position>
              <LatitudeDegrees>40.79083445481956005096435546875</LatitudeDegrees>
              <LongitudeDegrees>-3.72760006226599216461181640625</LongitudeDegrees>
            </Position>
            <AltitudeMeters>905</AltitudeMeters>
            <DistanceMeters>43571.259957611</DistanceMeters>
          </Trackpoint>
          <Trackpoint>
            <Time>2020-03-07T14:48:05.000Z</Time>
            <Position>
              <LatitudeDegrees>40.79082137905061244964599609375</LatitudeDegrees>
              <LongitudeDegrees>-3.7276863120496273040771484375</LongitudeDegrees>
            </Position>
            <AltitudeMeters>905.20001220703125</AltitudeMeters>
            <DistanceMeters>43578.672041332</DistanceMeters>
          </Trackpoint>
          <Trackpoint>
            <Time>2020-03-07T14:48:06.000Z</Time>
            <Position>
              <LatitudeDegrees>40.79080746509134769439697265625</LatitudeDegrees>
              <LongitudeDegrees>-3.7277694605290889739990234375</LongitudeDegrees>
            </Position>
            <AltitudeMeters>905.20001220703125</AltitudeMeters>
            <DistanceMeters>43585.848917814</DistanceMeters>
          </Trackpoint>
          <Trackpoint>
            <Time>2020-03-07T14:48:07.000Z</Time>
            <Position>
              <LatitudeDegrees>40.79079254530370235443115234375</LatitudeDegrees>
              <LongitudeDegrees>-3.727851100265979766845703125</LongitudeDegrees>
            </Position>
            <AltitudeMeters>905.4000244140625</AltitudeMeters>
            <DistanceMeters>43592.926335001</DistanceMeters>
          </Trackpoint>
          <Trackpoint>
            <Time>2020-03-07T14:48:08.000Z</Time>
            <Position>
              <LatitudeDegrees>40.7907785475254058837890625</LatitudeDegrees>
              <LongitudeDegrees>-3.727932907640933990478515625</LongitudeDegrees>
            </Position>
            <AltitudeMeters>905.5999755859375</AltitudeMeters>
            <DistanceMeters>43599.99417646</DistanceMeters>
          </Trackpoint>
          <Trackpoint>
            <Time>2020-03-07T14:48:09.000Z</Time>
            <Position>
              <LatitudeDegrees>40.79076488502323627471923828125</LatitudeDegrees>
              <LongitudeDegrees>-3.7280162237584590911865234375</LongitudeDegrees>
            </Position>
            <AltitudeMeters>905.5999755859375</AltitudeMeters>
            <DistanceMeters>43607.177969808</DistanceMeters>
          </Trackpoint>
          <Trackpoint>
            <Time>2020-03-07T14:48:10.000Z</Time>
            <Position>
              <LatitudeDegrees>40.79074912704527378082275390625</LatitudeDegrees>
              <LongitudeDegrees>-3.72809945605695247650146484375</LongitudeDegrees>
            </Position>
            <AltitudeMeters>905.79998779296875</AltitudeMeters>
            <DistanceMeters>43614.407498317</DistanceMeters>
          </Trackpoint>
          <Trackpoint>
            <Time>2020-03-07T14:48:11.000Z</Time>
            <Position>
              <LatitudeDegrees>40.7907324470579624176025390625</LatitudeDegrees>
              <LongitudeDegrees>-3.728182017803192138671875</LongitudeDegrees>
            </Position>
            <AltitudeMeters>906</AltitudeMeters>
            <DistanceMeters>43621.607614209</DistanceMeters>
          </Trackpoint>
          <Trackpoint>
            <Time>2020-03-07T14:48:12.000Z</Time>
            <Position>
              <LatitudeDegrees>40.790717191994190216064453125</LatitudeDegrees>
              <LongitudeDegrees>-3.72826474718749523162841796875</LongitudeDegrees>
            </Position>
            <AltitudeMeters>906.4000244140625</AltitudeMeters>
            <DistanceMeters>43628.783232363</DistanceMeters>
          </Trackpoint>
          <Trackpoint>
            <Time>2020-03-07T14:48:13.000Z</Time>
            <Position>
              <LatitudeDegrees>40.7907029427587985992431640625</LatitudeDegrees>
              <LongitudeDegrees>-3.72834764420986175537109375</LongitudeDegrees>
            </Position>
            <AltitudeMeters>906.79998779296875</AltitudeMeters>
            <DistanceMeters>43635.946255074</DistanceMeters>
          </Trackpoint>
          <Trackpoint>
            <Time>2020-03-07T14:48:14.000Z</Time>
            <Position>
              <LatitudeDegrees>40.7906881906092166900634765625</LatitudeDegrees>
              <LongitudeDegrees>-3.728429786860942840576171875</LongitudeDegrees>
            </Position>
            <AltitudeMeters>907.20001220703125</AltitudeMeters>
            <DistanceMeters>43643.059942471</DistanceMeters>
          </Trackpoint>
          <Trackpoint>
            <Time>2020-03-07T14:48:15.000Z</Time>
            <Position>
              <LatitudeDegrees>40.79067327082157135009765625</LatitudeDegrees>
              <LongitudeDegrees>-3.72851134277880191802978515625</LongitudeDegrees>
            </Position>
            <AltitudeMeters>907.5999755859375</AltitudeMeters>
            <DistanceMeters>43650.129700113</DistanceMeters>
          </Trackpoint>
          <Trackpoint>
            <Time>2020-03-07T14:48:16.000Z</Time>
            <Position>
              <LatitudeDegrees>40.79066061414778232574462890625</LatitudeDegrees>
              <LongitudeDegrees>-3.728592731058597564697265625</LongitudeDegrees>
            </Position>
            <AltitudeMeters>907.79998779296875</AltitudeMeters>
            <DistanceMeters>43657.130789667</DistanceMeters>
          </Trackpoint>
          <Trackpoint>
            <Time>2020-03-07T14:48:17.000Z</Time>
            <Position>
              <LatitudeDegrees>40.7906498014926910400390625</LatitudeDegrees>
              <LongitudeDegrees>-3.72867311351001262664794921875</LongitudeDegrees>
            </Position>
            <AltitudeMeters>908</AltitudeMeters>
            <DistanceMeters>43664.010881288</DistanceMeters>
          </Trackpoint>
          <Trackpoint>
            <Time>2020-03-07T14:48:18.000Z</Time>
            <Position>
              <LatitudeDegrees>40.790638737380504608154296875</LatitudeDegrees>
              <LongitudeDegrees>-3.7287531606853008270263671875</LongitudeDegrees>
            </Position>
            <AltitudeMeters>908</AltitudeMeters>
            <DistanceMeters>43670.867307323</DistanceMeters>
          </Trackpoint>
          <Trackpoint>
            <Time>2020-03-07T14:48:19.000Z</Time>
            <Position>
              <LatitudeDegrees>40.790627002716064453125</LatitudeDegrees>
              <LongitudeDegrees>-3.72883371077477931976318359375</LongitudeDegrees>
            </Position>
            <AltitudeMeters>908.20001220703125</AltitudeMeters>
            <DistanceMeters>43677.779480242</DistanceMeters>
          </Trackpoint>
          <Trackpoint>
            <Time>2020-03-07T14:48:20.000Z</Time>
            <Position>
              <LatitudeDegrees>40.79061334021389484405517578125</LatitudeDegrees>
              <LongitudeDegrees>-3.7289137579500675201416015625</LongitudeDegrees>
            </Position>
            <AltitudeMeters>908.4000244140625</AltitudeMeters>
            <DistanceMeters>43684.694265472</DistanceMeters>
          </Trackpoint>
          <Trackpoint>
            <Time>2020-03-07T14:48:21.000Z</Time>
            <Position>
              <LatitudeDegrees>40.790598504245281219482421875</LatitudeDegrees>
              <LongitudeDegrees>-3.7289928831160068511962890625</LongitudeDegrees>
            </Position>
            <AltitudeMeters>908.5999755859375</AltitudeMeters>
            <DistanceMeters>43691.563191837</DistanceMeters>
          </Trackpoint>
          <Trackpoint>
            <Time>2020-03-07T14:48:22.000Z</Time>
            <Position>
              <LatitudeDegrees>40.79058366827666759490966796875</LatitudeDegrees>
              <LongitudeDegrees>-3.729072511196136474609375</LongitudeDegrees>
            </Position>
            <AltitudeMeters>908.79998779296875</AltitudeMeters>
            <DistanceMeters>43698.473404876</DistanceMeters>
          </Trackpoint>
          <Trackpoint>
            <Time>2020-03-07T14:48:23.000Z</Time>
            <Position>
              <LatitudeDegrees>40.7905691675841808319091796875</LatitudeDegrees>
              <LongitudeDegrees>-3.72915289364755153656005859375</LongitudeDegrees>
            </Position>
            <AltitudeMeters>909</AltitudeMeters>
            <DistanceMeters>43705.436989477</DistanceMeters>
          </Trackpoint>
          <Trackpoint>
            <Time>2020-03-07T14:48:24.000Z</Time>
            <Position>
              <LatitudeDegrees>40.79055391252040863037109375</LatitudeDegrees>
              <LongitudeDegrees>-3.72923067770898342132568359375</LongitudeDegrees>
            </Position>
            <AltitudeMeters>909.4000244140625</AltitudeMeters>
            <DistanceMeters>43712.207934619</DistanceMeters>
          </Trackpoint>
          <Trackpoint>
            <Time>2020-03-07T14:48:25.000Z</Time>
            <Position>
              <LatitudeDegrees>40.7905386574566364288330078125</LatitudeDegrees>
              <LongitudeDegrees>-3.7293080426752567291259765625</LongitudeDegrees>
            </Position>
            <AltitudeMeters>909.79998779296875</AltitudeMeters>
            <DistanceMeters>43718.945455994</DistanceMeters>
          </Trackpoint>
          <Trackpoint>
            <Time>2020-03-07T14:48:26.000Z</Time>
            <Position>
              <LatitudeDegrees>40.79052214510738849639892578125</LatitudeDegrees>
              <LongitudeDegrees>-3.72938440181314945220947265625</LongitudeDegrees>
            </Position>
            <AltitudeMeters>910.20001220703125</AltitudeMeters>
            <DistanceMeters>43725.637927822</DistanceMeters>
          </Trackpoint>
          <Trackpoint>
            <Time>2020-03-07T14:48:27.000Z</Time>
            <Position>
              <LatitudeDegrees>40.7905058003962039947509765625</LatitudeDegrees>
              <LongitudeDegrees>-3.72945983894169330596923828125</LongitudeDegrees>
            </Position>
            <AltitudeMeters>910.5999755859375</AltitudeMeters>
            <DistanceMeters>43732.249629574</DistanceMeters>
          </Trackpoint>
          <Trackpoint>
            <Time>2020-03-07T14:48:28.000Z</Time>
            <Position>
              <LatitudeDegrees>40.79049222171306610107421875</LatitudeDegrees>
              <LongitudeDegrees>-3.72953661717474460601806640625</LongitudeDegrees>
            </Position>
            <AltitudeMeters>910.79998779296875</AltitudeMeters>
            <DistanceMeters>43738.894029</DistanceMeters>
          </Trackpoint>
          <Trackpoint>
            <Time>2020-03-07T14:48:29.000Z</Time>
            <Position>
              <LatitudeDegrees>40.79048006795346736907958984375</LatitudeDegrees>
              <LongitudeDegrees>-3.7296124733984470367431640625</LongitudeDegrees>
            </Position>
            <AltitudeMeters>911</AltitudeMeters>
            <DistanceMeters>43745.428108999</DistanceMeters>
          </Trackpoint>
          <Trackpoint>
            <Time>2020-03-07T14:48:30.000Z</Time>
            <Position>
              <LatitudeDegrees>40.7904692552983760833740234375</LatitudeDegrees>
              <LongitudeDegrees>-3.72968883253633975982666015625</LongitudeDegrees>
            </Position>
            <AltitudeMeters>911</AltitudeMeters>
            <DistanceMeters>43751.973235633</DistanceMeters>
          </Trackpoint>
          <Trackpoint>
            <Time>2020-03-07T14:48:31.000Z</Time>
            <Position>
              <LatitudeDegrees>40.79045961610972881317138671875</LatitudeDegrees>
              <LongitudeDegrees>-3.7297670356929302215576171875</LongitudeDegrees>
            </Position>
            <AltitudeMeters>911.20001220703125</AltitudeMeters>
            <DistanceMeters>43758.649496362</DistanceMeters>
          </Trackpoint>
          <Trackpoint>
            <Time>2020-03-07T14:48:32.000Z</Time>
            <Position>
              <LatitudeDegrees>40.79045156948268413543701171875</LatitudeDegrees>
              <LongitudeDegrees>-3.7298458255827426910400390625</LongitudeDegrees>
            </Position>
            <AltitudeMeters>911.4000244140625</AltitudeMeters>
            <DistanceMeters>43765.348711236</DistanceMeters>
          </Trackpoint>
          <Trackpoint>
            <Time>2020-03-07T14:48:33.000Z</Time>
            <Position>
              <LatitudeDegrees>40.7904424332082271575927734375</LatitudeDegrees>
              <LongitudeDegrees>-3.72992536984384059906005859375</LongitudeDegrees>
            </Position>
            <AltitudeMeters>911.79998779296875</AltitudeMeters>
            <DistanceMeters>43772.128319565</DistanceMeters>
          </Trackpoint>
          <Trackpoint>
            <Time>2020-03-07T14:48:34.000Z</Time>
            <Position>
              <LatitudeDegrees>40.79042960889637470245361328125</LatitudeDegrees>
              <LongitudeDegrees>-3.73000524938106536865234375</LongitudeDegrees>
            </Position>
            <AltitudeMeters>912</AltitudeMeters>
            <DistanceMeters>43779.009723555</DistanceMeters>
          </Trackpoint>
          <Trackpoint>
            <Time>2020-03-07T14:48:35.000Z</Time>
            <Position>
              <LatitudeDegrees>40.79041552729904651641845703125</LatitudeDegrees>
              <LongitudeDegrees>-3.73008429072797298431396484375</LongitudeDegrees>
            </Position>
            <AltitudeMeters>912.4000244140625</AltitudeMeters>
            <DistanceMeters>43785.85164699</DistanceMeters>
          </Trackpoint>
          <Trackpoint>
            <Time>2020-03-07T14:48:36.000Z</Time>
            <Position>
              <LatitudeDegrees>40.7904005236923694610595703125</LatitudeDegrees>
              <LongitudeDegrees>-3.73016752302646636962890625</LongitudeDegrees>
            </Position>
            <AltitudeMeters>912.5999755859375</AltitudeMeters>
            <DistanceMeters>43793.061162924</DistanceMeters>
          </Trackpoint>
          <Trackpoint>
            <Time>2020-03-07T14:48:37.000Z</Time>
            <Position>
              <LatitudeDegrees>40.79038451425731182098388671875</LatitudeDegrees>
              <LongitudeDegrees>-3.73025075532495975494384765625</LongitudeDegrees>
            </Position>
            <AltitudeMeters>912.79998779296875</AltitudeMeters>
            <DistanceMeters>43800.298181881</DistanceMeters>
          </Trackpoint>
          <Trackpoint>
            <Time>2020-03-07T14:48:38.000Z</Time>
            <Position>
              <LatitudeDegrees>40.790369175374507904052734375</LatitudeDegrees>
              <LongitudeDegrees>-3.73033381998538970947265625</LongitudeDegrees>
            </Position>
            <AltitudeMeters>913</AltitudeMeters>
            <DistanceMeters>43807.503312655</DistanceMeters>
          </Trackpoint>
          <Trackpoint>
            <Time>2020-03-07T14:48:39.000Z</Time>
            <Position>
              <LatitudeDegrees>40.7903539203107357025146484375</LatitudeDegrees>
              <LongitudeDegrees>-3.73041688464581966400146484375</LongitudeDegrees>
            </Position>
            <AltitudeMeters>913.20001220703125</AltitudeMeters>
            <DistanceMeters>43814.706563258</DistanceMeters>
          </Trackpoint>
          <Trackpoint>
            <Time>2020-03-07T14:48:40.000Z</Time>
            <Position>
              <LatitudeDegrees>40.790338329970836639404296875</LatitudeDegrees>
              <LongitudeDegrees>-3.73049986548721790313720703125</LongitudeDegrees>
            </Position>
            <AltitudeMeters>913.20001220703125</AltitudeMeters>
            <DistanceMeters>43821.911067363</DistanceMeters>
          </Trackpoint>
          <Trackpoint>
            <Time>2020-03-07T14:48:41.000Z</Time>
            <Position>
              <LatitudeDegrees>40.7903230749070644378662109375</LatitudeDegrees>
              <LongitudeDegrees>-3.73058368451893329620361328125</LongitudeDegrees>
            </Position>
            <AltitudeMeters>913.4000244140625</AltitudeMeters>
            <DistanceMeters>43829.175485216</DistanceMeters>
          </Trackpoint>
          <Trackpoint>
            <Time>2020-03-07T14:48:42.000Z</Time>
            <Position>
              <LatitudeDegrees>40.79030807130038738250732421875</LatitudeDegrees>
              <LongitudeDegrees>-3.73066641390323638916015625</LongitudeDegrees>
            </Position>
            <AltitudeMeters>913.5999755859375</AltitudeMeters>
            <DistanceMeters>43836.343548759</DistanceMeters>
          </Trackpoint>
          <Trackpoint>
            <Time>2020-03-07T14:48:43.000Z</Time>
            <Position>
              <LatitudeDegrees>40.790292732417583465576171875</LatitudeDegrees>
              <LongitudeDegrees>-3.7307493947446346282958984375</LongitudeDegrees>
            </Position>
            <AltitudeMeters>913.5999755859375</AltitudeMeters>
            <DistanceMeters>43843.54178317</DistanceMeters>
          </Trackpoint>
          <Trackpoint>
            <Time>2020-03-07T14:48:44.000Z</Time>
            <Position>
              <LatitudeDegrees>40.7902791537344455718994140625</LatitudeDegrees>
              <LongitudeDegrees>-3.730833716690540313720703125</LongitudeDegrees>
            </Position>
            <AltitudeMeters>913.5999755859375</AltitudeMeters>
            <DistanceMeters>43850.806201023</DistanceMeters>
          </Trackpoint>
          <Trackpoint>
            <Time>2020-03-07T14:48:45.000Z</Time>
            <Position>
              <LatitudeDegrees>40.79026750288903713226318359375</LatitudeDegrees>
              <LongitudeDegrees>-3.73091862536966800689697265625</LongitudeDegrees>
            </Position>
            <AltitudeMeters>913.5999755859375</AltitudeMeters>
            <DistanceMeters>43858.078073386</DistanceMeters>
          </Trackpoint>
          <Trackpoint>
            <Time>2020-03-07T14:48:46.000Z</Time>
            <Position>
              <LatitudeDegrees>40.79025543294847011566162109375</LatitudeDegrees>
              <LongitudeDegrees>-3.73100546188652515411376953125</LongitudeDegrees>
            </Position>
            <AltitudeMeters>913.5999755859375</AltitudeMeters>
            <DistanceMeters>43865.518125039</DistanceMeters>
          </Trackpoint>
          <Trackpoint>
            <Time>2020-03-07T14:48:47.000Z</Time>
            <Position>
              <LatitudeDegrees>40.7902429439127445220947265625</LatitudeDegrees>
              <LongitudeDegrees>-3.73109263367950916290283203125</LongitudeDegrees>
            </Position>
            <AltitudeMeters>913.79998779296875</AltitudeMeters>
            <DistanceMeters>43872.994499373</DistanceMeters>
          </Trackpoint>
          <Trackpoint>
            <Time>2020-03-07T14:48:48.000Z</Time>
            <Position>
              <LatitudeDegrees>40.79022936522960662841796875</LatitudeDegrees>
              <LongitudeDegrees>-3.73117963783442974090576171875</LongitudeDegrees>
            </Position>
            <AltitudeMeters>913.79998779296875</AltitudeMeters>
            <DistanceMeters>43880.480529991</DistanceMeters>
          </Trackpoint>
          <Trackpoint>
            <Time>2020-03-07T14:48:49.000Z</Time>
            <Position>
              <LatitudeDegrees>40.79021369107067584991455078125</LatitudeDegrees>
              <LongitudeDegrees>-3.7312663905322551727294921875</LongitudeDegrees>
            </Position>
            <AltitudeMeters>914</AltitudeMeters>
            <DistanceMeters>43887.996055798</DistanceMeters>
          </Trackpoint>
          <Trackpoint>
            <Time>2020-03-07T14:48:50.000Z</Time>
            <Position>
              <LatitudeDegrees>40.7901983521878719329833984375</LatitudeDegrees>
              <LongitudeDegrees>-3.7313532270491123199462890625</LongitudeDegrees>
            </Position>
            <AltitudeMeters>914</AltitudeMeters>
            <DistanceMeters>43895.509779105</DistanceMeters>
          </Trackpoint>
          <Trackpoint>
            <Time>2020-03-07T14:48:51.000Z</Time>
            <Position>
              <LatitudeDegrees>40.79018401913344860076904296875</LatitudeDegrees>
              <LongitudeDegrees>-3.73143914155662059783935546875</LongitudeDegrees>
            </Position>
            <AltitudeMeters>914</AltitudeMeters>
            <DistanceMeters>43902.922471946</DistanceMeters>
          </Trackpoint>
          <Trackpoint>
            <Time>2020-03-07T14:48:52.000Z</Time>
            <Position>
              <LatitudeDegrees>40.7901695184409618377685546875</LatitudeDegrees>
              <LongitudeDegrees>-3.73152430169284343719482421875</LongitudeDegrees>
            </Position>
            <AltitudeMeters>914.4000244140625</AltitudeMeters>
            <DistanceMeters>43910.278300795</DistanceMeters>
          </Trackpoint>
          <Trackpoint>
            <Time>2020-03-07T14:48:53.000Z</Time>
            <Position>
              <LatitudeDegrees>40.7901537604629993438720703125</LatitudeDegrees>
              <LongitudeDegrees>-3.73160879127681255340576171875</LongitudeDegrees>
            </Position>
            <AltitudeMeters>914.5999755859375</AltitudeMeters>
            <DistanceMeters>43917.610767988</DistanceMeters>
          </Trackpoint>
          <Trackpoint>
            <Time>2020-03-07T14:48:54.000Z</Time>
            <Position>
              <LatitudeDegrees>40.7901366613805294036865234375</LatitudeDegrees>
              <LongitudeDegrees>-3.7316930294036865234375</LongitudeDegrees>
            </Position>
            <AltitudeMeters>914.79998779296875</AltitudeMeters>
            <DistanceMeters>43924.95984189</DistanceMeters>
          </Trackpoint>
          <Trackpoint>
            <Time>2020-03-07T14:48:55.000Z</Time>
            <Position>
              <LatitudeDegrees>40.7901195622980594635009765625</LatitudeDegrees>
              <LongitudeDegrees>-3.7317775189876556396484375</LongitudeDegrees>
            </Position>
            <AltitudeMeters>914.79998779296875</AltitudeMeters>
            <DistanceMeters>43932.329162058</DistanceMeters>
          </Trackpoint>
          <Trackpoint>
            <Time>2020-03-07T14:48:56.000Z</Time>
            <Position>
              <LatitudeDegrees>40.790103636682033538818359375</LatitudeDegrees>
              <LongitudeDegrees>-3.73186259530484676361083984375</LongitudeDegrees>
            </Position>
            <AltitudeMeters>914.79998779296875</AltitudeMeters>
            <DistanceMeters>43939.714394737</DistanceMeters>
          </Trackpoint>
          <Trackpoint>
            <Time>2020-03-07T14:48:57.000Z</Time>
            <Position>
              <LatitudeDegrees>40.79008854925632476806640625</LatitudeDegrees>
              <LongitudeDegrees>-3.73194859363138675689697265625</LongitudeDegrees>
            </Position>
            <AltitudeMeters>915</AltitudeMeters>
            <DistanceMeters>43947.153839509</DistanceMeters>
          </Trackpoint>
          <Trackpoint>
            <Time>2020-03-07T14:48:58.000Z</Time>
            <Position>
              <LatitudeDegrees>40.7900746352970600128173828125</LatitudeDegrees>
              <LongitudeDegrees>-3.73203459195792675018310546875</LongitudeDegrees>
            </Position>
            <AltitudeMeters>915</AltitudeMeters>
            <DistanceMeters>43954.564704839</DistanceMeters>
          </Trackpoint>
          <Trackpoint>
            <Time>2020-03-07T14:48:59.000Z</Time>
            <Position>
              <LatitudeDegrees>40.79006147570908069610595703125</LatitudeDegrees>
              <LongitudeDegrees>-3.73212075792253017425537109375</LongitudeDegrees>
            </Position>
            <AltitudeMeters>915</AltitudeMeters>
            <DistanceMeters>43961.972523313</DistanceMeters>
          </Trackpoint>
          <Trackpoint>
            <Time>2020-03-07T14:49:00.000Z</Time>
            <Position>
              <LatitudeDegrees>40.79004756174981594085693359375</LatitudeDegrees>
              <LongitudeDegrees>-3.732207678258419036865234375</LongitudeDegrees>
            </Position>
            <AltitudeMeters>915.20001220703125</AltitudeMeters>
            <DistanceMeters>43969.459157035</DistanceMeters>
          </Trackpoint>
          <Trackpoint>
            <Time>2020-03-07T14:49:01.000Z</Time>
            <Position>
              <LatitudeDegrees>40.7900323905050754547119140625</LatitudeDegrees>
              <LongitudeDegrees>-3.73229409568011760711669921875</LongitudeDegrees>
            </Position>
            <AltitudeMeters>915.20001220703125</AltitudeMeters>
            <DistanceMeters>43976.934323457</DistanceMeters>
          </Trackpoint>
          <Trackpoint>
            <Time>2020-03-07T14:49:02.000Z</Time>
            <Position>
              <LatitudeDegrees>40.7900186441838741302490234375</LatitudeDegrees>
              <LongitudeDegrees>-3.7323798425495624542236328125</LongitudeDegrees>
            </Position>
            <AltitudeMeters>915.4000244140625</AltitudeMeters>
            <DistanceMeters>43984.320167471</DistanceMeters>
          </Trackpoint>
          <Trackpoint>
            <Time>2020-03-07T14:49:03.000Z</Time>
            <Position>
              <LatitudeDegrees>40.790005736052989959716796875</LatitudeDegrees>
              <LongitudeDegrees>-3.7324660085141658782958984375</LongitudeDegrees>
            </Position>
            <AltitudeMeters>915.5999755859375</AltitudeMeters>
            <DistanceMeters>43991.722498446</DistanceMeters>
          </Trackpoint>
          <Trackpoint>
            <Time>2020-03-07T14:49:04.000Z</Time>
            <Position>
              <LatitudeDegrees>40.789992995560169219970703125</LatitudeDegrees>
              <LongitudeDegrees>-3.7325531803071498870849609375</LongitudeDegrees>
            </Position>
            <AltitudeMeters>915.5999755859375</AltitudeMeters>
            <DistanceMeters>43999.204305973</DistanceMeters>
          </Trackpoint>
          <Trackpoint>
            <Time>2020-03-07T14:49:05.000Z</Time>
            <Position>
              <LatitudeDegrees>40.78998033888638019561767578125</LatitudeDegrees>
              <LongitudeDegrees>-3.73264077119529247283935546875</LongitudeDegrees>
            </Position>
            <AltitudeMeters>915.79998779296875</AltitudeMeters>
            <DistanceMeters>44006.718630161</DistanceMeters>
          </Trackpoint>
          <Trackpoint>
            <Time>2020-03-07T14:49:06.000Z</Time>
            <Position>
              <LatitudeDegrees>40.7899673469364643096923828125</LatitudeDegrees>
              <LongitudeDegrees>-3.73272878117859363555908203125</LongitudeDegrees>
            </Position>
            <AltitudeMeters>915.79998779296875</AltitudeMeters>
            <DistanceMeters>44014.274299773</DistanceMeters>
          </Trackpoint>
          <Trackpoint>
            <Time>2020-03-07T14:49:07.000Z</Time>
            <Position>
              <LatitudeDegrees>40.78995385207235813140869140625</LatitudeDegrees>
              <LongitudeDegrees>-3.73281695879995822906494140625</LongitudeDegrees>
            </Position>
            <AltitudeMeters>916</AltitudeMeters>
            <DistanceMeters>44021.85502576</DistanceMeters>
          </Trackpoint>
          <Trackpoint>
            <Time>2020-03-07T14:49:08.000Z</Time>
            <Position>
              <LatitudeDegrees>40.78994010575115680694580078125</LatitudeDegrees>
              <LongitudeDegrees>-3.732905723154544830322265625</LongitudeDegrees>
            </Position>
            <AltitudeMeters>916</AltitudeMeters>
            <DistanceMeters>44029.490349821</DistanceMeters>
          </Trackpoint>
          <Trackpoint>
            <Time>2020-03-07T14:49:09.000Z</Time>
            <Position>
              <LatitudeDegrees>40.78992786817252635955810546875</LatitudeDegrees>
              <LongitudeDegrees>-3.7329947389662265777587890625</LongitudeDegrees>
            </Position>
            <AltitudeMeters>916.4000244140625</AltitudeMeters>
            <DistanceMeters>44037.113837999</DistanceMeters>
          </Trackpoint>
          <Trackpoint>
            <Time>2020-03-07T14:49:10.000Z</Time>
            <Position>
              <LatitudeDegrees>40.789915882050991058349609375</LatitudeDegrees>
              <LongitudeDegrees>-3.733082748949527740478515625</LongitudeDegrees>
            </Position>
            <AltitudeMeters>916.5999755859375</AltitudeMeters>
            <DistanceMeters>44044.649162854</DistanceMeters>
          </Trackpoint>
          <Trackpoint>
            <Time>2020-03-07T14:49:11.000Z</Time>
            <Position>
              <LatitudeDegrees>40.78990356065332889556884765625</LatitudeDegrees>
              <LongitudeDegrees>-3.7331704236567020416259765625</LongitudeDegrees>
            </Position>
            <AltitudeMeters>916.5999755859375</AltitudeMeters>
            <DistanceMeters>44052.163487043</DistanceMeters>
          </Trackpoint>
          <Trackpoint>
            <Time>2020-03-07T14:49:12.000Z</Time>
            <Position>
              <LatitudeDegrees>40.789891742169857025146484375</LatitudeDegrees>
              <LongitudeDegrees>-3.733258433640003204345703125</LongitudeDegrees>
            </Position>
            <AltitudeMeters>916.5999755859375</AltitudeMeters>
            <DistanceMeters>44059.695215942</DistanceMeters>
          </Trackpoint>
          <Trackpoint>
            <Time>2020-03-07T14:49:13.000Z</Time>
            <Position>
              <LatitudeDegrees>40.789880342781543731689453125</LatitudeDegrees>
              <LongitudeDegrees>-3.73334887437522411346435546875</LongitudeDegrees>
            </Position>
            <AltitudeMeters>916.79998779296875</AltitudeMeters>
            <DistanceMeters>44067.421068989</DistanceMeters>
          </Trackpoint>
          <Trackpoint>
            <Time>2020-03-07T14:49:14.000Z</Time>
            <Position>
              <LatitudeDegrees>40.78986785374581813812255859375</LatitudeDegrees>
              <LongitudeDegrees>-3.73343822546303272247314453125</LongitudeDegrees>
            </Position>
            <AltitudeMeters>917</AltitudeMeters>
            <DistanceMeters>44075.077651534</DistanceMeters>
          </Trackpoint>
          <Trackpoint>
            <Time>2020-03-07T14:49:15.000Z</Time>
            <Position>
              <LatitudeDegrees>40.7898556999862194061279296875</LatitudeDegrees>
              <LongitudeDegrees>-3.7335274927318096160888671875</LongitudeDegrees>
            </Position>
            <AltitudeMeters>917.20001220703125</AltitudeMeters>
            <DistanceMeters>44082.720659091</DistanceMeters>
          </Trackpoint>
          <Trackpoint>
            <Time>2020-03-07T14:49:16.000Z</Time>
            <Position>
              <LatitudeDegrees>40.7898436300456523895263671875</LatitudeDegrees>
              <LongitudeDegrees>-3.73361592181026935577392578125</LongitudeDegrees>
            </Position>
            <AltitudeMeters>917.20001220703125</AltitudeMeters>
            <DistanceMeters>44090.292445891</DistanceMeters>
          </Trackpoint>
          <Trackpoint>
            <Time>2020-03-07T14:49:17.000Z</Time>
            <Position>
              <LatitudeDegrees>40.78983030281960964202880859375</LatitudeDegrees>
              <LongitudeDegrees>-3.73370468616485595703125</LongitudeDegrees>
            </Position>
            <AltitudeMeters>917.4000244140625</AltitudeMeters>
            <DistanceMeters>44097.918302715</DistanceMeters>
          </Trackpoint>
          <Trackpoint>
            <Time>2020-03-07T14:49:18.000Z</Time>
            <Position>
              <LatitudeDegrees>40.789816640317440032958984375</LatitudeDegrees>
              <LongitudeDegrees>-3.73379143886268138885498046875</LongitudeDegrees>
            </Position>
            <AltitudeMeters>917.5999755859375</AltitudeMeters>
            <DistanceMeters>44105.385008278</DistanceMeters>
          </Trackpoint>
          <Trackpoint>
            <Time>2020-03-07T14:49:19.000Z</Time>
            <Position>
              <LatitudeDegrees>40.78980289399623870849609375</LatitudeDegrees>
              <LongitudeDegrees>-3.73387861065566539764404296875</LongitudeDegrees>
            </Position>
            <AltitudeMeters>917.79998779296875</AltitudeMeters>
            <DistanceMeters>44112.888509236</DistanceMeters>
          </Trackpoint>
          <Trackpoint>
            <Time>2020-03-07T14:49:20.000Z</Time>
            <Position>
              <LatitudeDegrees>40.78979015350341796875</LatitudeDegrees>
              <LongitudeDegrees>-3.73396544717252254486083984375</LongitudeDegrees>
            </Position>
            <AltitudeMeters>918</AltitudeMeters>
            <DistanceMeters>44120.342505504</DistanceMeters>
          </Trackpoint>
          <Trackpoint>
            <Time>2020-03-07T14:49:21.000Z</Time>
            <Position>
              <LatitudeDegrees>40.789778418838977813720703125</LatitudeDegrees>
              <LongitudeDegrees>-3.7340532056987285614013671875</LongitudeDegrees>
            </Position>
            <AltitudeMeters>918.20001220703125</AltitudeMeters>
            <DistanceMeters>44127.852622512</DistanceMeters>
          </Trackpoint>
          <Trackpoint>
            <Time>2020-03-07T14:49:22.000Z</Time>
            <Position>
              <LatitudeDegrees>40.78976760618388652801513671875</LatitudeDegrees>
              <LongitudeDegrees>-3.7341417185962200164794921875</LongitudeDegrees>
            </Position>
            <AltitudeMeters>918.4000244140625</AltitudeMeters>
            <DistanceMeters>44135.408292123</DistanceMeters>
          </Trackpoint>
          <Trackpoint>
            <Time>2020-03-07T14:49:23.000Z</Time>
            <Position>
              <LatitudeDegrees>40.78975788317620754241943359375</LatitudeDegrees>
              <LongitudeDegrees>-3.73423081822693347930908203125</LongitudeDegrees>
            </Position>
            <AltitudeMeters>918.5999755859375</AltitudeMeters>
            <DistanceMeters>44142.993781369</DistanceMeters>
          </Trackpoint>
          <Trackpoint>
            <Time>2020-03-07T14:49:24.000Z</Time>
            <Position>
              <LatitudeDegrees>40.78974765725433826446533203125</LatitudeDegrees>
              <LongitudeDegrees>-3.73431966640055179595947265625</LongitudeDegrees>
            </Position>
            <AltitudeMeters>918.79998779296875</AltitudeMeters>
            <DistanceMeters>44150.56735685</DistanceMeters>
          </Trackpoint>
          <Trackpoint>
            <Time>2020-03-07T14:49:25.000Z</Time>
            <Position>
              <LatitudeDegrees>40.7897378504276275634765625</LatitudeDegrees>
              <LongitudeDegrees>-3.73440935276448726654052734375</LongitudeDegrees>
            </Position>
            <AltitudeMeters>919.20001220703125</AltitudeMeters>
            <DistanceMeters>44158.202680912</DistanceMeters>
          </Trackpoint>
          <Trackpoint>
            <Time>2020-03-07T14:49:26.000Z</Time>
            <Position>
              <LatitudeDegrees>40.78972779214382171630859375</LatitudeDegrees>
              <LongitudeDegrees>-3.73449836857616901397705078125</LongitudeDegrees>
            </Position>
            <AltitudeMeters>919.4000244140625</AltitudeMeters>
            <DistanceMeters>44165.786979623</DistanceMeters>
          </Trackpoint>
          <Trackpoint>
            <Time>2020-03-07T14:49:27.000Z</Time>
            <Position>
              <LatitudeDegrees>40.7897163927555084228515625</LatitudeDegrees>
              <LongitudeDegrees>-3.73458721674978733062744140625</LongitudeDegrees>
            </Position>
            <AltitudeMeters>919.5999755859375</AltitudeMeters>
            <DistanceMeters>44173.380797383</DistanceMeters>
          </Trackpoint>
          <Trackpoint>
            <Time>2020-03-07T14:49:28.000Z</Time>
            <Position>
              <LatitudeDegrees>40.789703987538814544677734375</LatitudeDegrees>
              <LongitudeDegrees>-3.734675310552120208740234375</LongitudeDegrees>
            </Position>
            <AltitudeMeters>919.79998779296875</AltitudeMeters>
            <DistanceMeters>44180.930488934</DistanceMeters>
          </Trackpoint>
          <Trackpoint>
            <Time>2020-03-07T14:49:29.000Z</Time>
            <Position>
              <LatitudeDegrees>40.78969133086502552032470703125</LatitudeDegrees>
              <LongitudeDegrees>-3.73476223088800907135009765625</LongitudeDegrees>
            </Position>
            <AltitudeMeters>920</AltitudeMeters>
            <DistanceMeters>44188.38872404</DistanceMeters>
          </Trackpoint>
          <Trackpoint>
            <Time>2020-03-07T14:49:30.000Z</Time>
            <Position>
              <LatitudeDegrees>40.78967959620058536529541015625</LatitudeDegrees>
              <LongitudeDegrees>-3.73484906740486621856689453125</LongitudeDegrees>
            </Position>
            <AltitudeMeters>920.20001220703125</AltitudeMeters>
            <DistanceMeters>44195.821489857</DistanceMeters>
          </Trackpoint>
          <Trackpoint>
            <Time>2020-03-07T14:49:31.000Z</Time>
            <Position>
              <LatitudeDegrees>40.7896696217358112335205078125</LatitudeDegrees>
              <LongitudeDegrees>-3.73493473045527935028076171875</LongitudeDegrees>
            </Position>
            <AltitudeMeters>920.20001220703125</AltitudeMeters>
            <DistanceMeters>44203.124340771</DistanceMeters>
          </Trackpoint>
          <Trackpoint>
            <Time>2020-03-07T14:49:32.000Z</Time>
            <Position>
              <LatitudeDegrees>40.78965939581394195556640625</LatitudeDegrees>
              <LongitudeDegrees>-3.73501938767731189727783203125</LongitudeDegrees>
            </Position>
            <AltitudeMeters>920.4000244140625</AltitudeMeters>
            <DistanceMeters>44210.348246347</DistanceMeters>
          </Trackpoint>
          <Trackpoint>
            <Time>2020-03-07T14:49:33.000Z</Time>
            <Position>
              <LatitudeDegrees>40.78964774496853351593017578125</LatitudeDegrees>
              <LongitudeDegrees>-3.735102452337741851806640625</LongitudeDegrees>
            </Position>
            <AltitudeMeters>920.79998779296875</AltitudeMeters>
            <DistanceMeters>44217.467009512</DistanceMeters>
          </Trackpoint>
          <Trackpoint>
            <Time>2020-03-07T14:49:34.000Z</Time>
            <Position>
              <LatitudeDegrees>40.78963668085634708404541015625</LatitudeDegrees>
              <LongitudeDegrees>-3.73518593609333038330078125</LongitudeDegrees>
            </Position>
            <AltitudeMeters>920.79998779296875</AltitudeMeters>
            <DistanceMeters>44224.609833317</DistanceMeters>
          </Trackpoint>
          <Trackpoint>
            <Time>2020-03-07T14:49:35.000Z</Time>
            <Position>
              <LatitudeDegrees>40.78962720930576324462890625</LatitudeDegrees>
              <LongitudeDegrees>-3.7352685816586017608642578125</LongitudeDegrees>
            </Position>
            <AltitudeMeters>921</AltitudeMeters>
            <DistanceMeters>44231.653358002</DistanceMeters>
          </Trackpoint>
          <Trackpoint>
            <Time>2020-03-07T14:49:36.000Z</Time>
            <Position>
              <LatitudeDegrees>40.7896206714212894439697265625</LatitudeDegrees>
              <LongitudeDegrees>-3.7353529036045074462890625</LongitudeDegrees>
            </Position>
            <AltitudeMeters>921.20001220703125</AltitudeMeters>
            <DistanceMeters>44238.796181807</DistanceMeters>
          </Trackpoint>
          <Trackpoint>
            <Time>2020-03-07T14:49:37.000Z</Time>
            <Position>
              <LatitudeDegrees>40.78961321152746677398681640625</LatitudeDegrees>
              <LongitudeDegrees>-3.735436387360095977783203125</LongitudeDegrees>
            </Position>
            <AltitudeMeters>921.79998779296875</AltitudeMeters>
            <DistanceMeters>44245.880612968</DistanceMeters>
          </Trackpoint>
          <Trackpoint>
            <Time>2020-03-07T14:49:38.000Z</Time>
            <Position>
              <LatitudeDegrees>40.78960248269140720367431640625</LatitudeDegrees>
              <LongitudeDegrees>-3.73551928438246250152587890625</LongitudeDegrees>
            </Position>
            <AltitudeMeters>922.20001220703125</AltitudeMeters>
            <DistanceMeters>44252.967592944</DistanceMeters>
          </Trackpoint>
          <Trackpoint>
            <Time>2020-03-07T14:49:39.000Z</Time>
            <Position>
              <LatitudeDegrees>40.789591334760189056396484375</LatitudeDegrees>
              <LongitudeDegrees>-3.73560310341417789459228515625</LongitudeDegrees>
            </Position>
            <AltitudeMeters>922.4000244140625</AltitudeMeters>
            <DistanceMeters>44260.139434787</DistanceMeters>
          </Trackpoint>
          <Trackpoint>
            <Time>2020-03-07T14:49:40.000Z</Time>
            <Position>
              <LatitudeDegrees>40.7895814441144466400146484375</LatitudeDegrees>
              <LongitudeDegrees>-3.73568641953170299530029296875</LongitudeDegrees>
            </Position>
            <AltitudeMeters>922.79998779296875</AltitudeMeters>
            <DistanceMeters>44267.246137085</DistanceMeters>
          </Trackpoint>
          <Trackpoint>
            <Time>2020-03-07T14:49:41.000Z</Time>
            <Position>
              <LatitudeDegrees>40.7895727269351482391357421875</LatitudeDegrees>
              <LongitudeDegrees>-3.73576956801116466522216796875</LongitudeDegrees>
            </Position>
            <AltitudeMeters>922.79998779296875</AltitudeMeters>
            <DistanceMeters>44274.320363803</DistanceMeters>
          </Trackpoint>
          <Trackpoint>
            <Time>2020-03-07T14:49:42.000Z</Time>
            <Position>
              <LatitudeDegrees>40.78956375829875469207763671875</LatitudeDegrees>
              <LongitudeDegrees>-3.73585246503353118896484375</LongitudeDegrees>
            </Position>
            <AltitudeMeters>923</AltitudeMeters>
            <DistanceMeters>44281.377337063</DistanceMeters>
          </Trackpoint>
          <Trackpoint>
            <Time>2020-03-07T14:49:43.000Z</Time>
            <Position>
              <LatitudeDegrees>40.78955353237688541412353515625</LatitudeDegrees>
              <LongitudeDegrees>-3.73593620024621486663818359375</LongitudeDegrees>
            </Position>
            <AltitudeMeters>923.20001220703125</AltitudeMeters>
            <DistanceMeters>44288.524584256</DistanceMeters>
          </Trackpoint>
          <Trackpoint>
            <Time>2020-03-07T14:49:44.000Z</Time>
            <Position>
              <LatitudeDegrees>40.7895415462553501129150390625</LatitudeDegrees>
              <LongitudeDegrees>-3.7360207736492156982421875</LongitudeDegrees>
            </Position>
            <AltitudeMeters>923.20001220703125</AltitudeMeters>
            <DistanceMeters>44295.775315602</DistanceMeters>
          </Trackpoint>
          <Trackpoint>
            <Time>2020-03-07T14:49:45.000Z</Time>
            <Position>
              <LatitudeDegrees>40.78952956013381481170654296875</LatitudeDegrees>
              <LongitudeDegrees>-3.73610727488994598388671875</LongitudeDegrees>
            </Position>
            <AltitudeMeters>923.4000244140625</AltitudeMeters>
            <DistanceMeters>44303.185571661</DistanceMeters>
          </Trackpoint>
          <Trackpoint>
            <Time>2020-03-07T14:49:46.000Z</Time>
            <Position>
              <LatitudeDegrees>40.7895170710980892181396484375</LatitudeDegrees>
              <LongitudeDegrees>-3.73619285412132740020751953125</LongitudeDegrees>
            </Position>
            <AltitudeMeters>923.4000244140625</AltitudeMeters>
            <DistanceMeters>44310.529728971</DistanceMeters>
          </Trackpoint>
          <Trackpoint>
            <Time>2020-03-07T14:49:47.000Z</Time>
            <Position>
              <LatitudeDegrees>40.78950424678623676300048828125</LatitudeDegrees>
              <LongitudeDegrees>-3.73628019355237483978271484375</LongitudeDegrees>
            </Position>
            <AltitudeMeters>923.4000244140625</AltitudeMeters>
            <DistanceMeters>44318.027210273</DistanceMeters>
          </Trackpoint>
          <Trackpoint>
            <Time>2020-03-07T14:49:48.000Z</Time>
            <Position>
              <LatitudeDegrees>40.78949335031211376190185546875</LatitudeDegrees>
              <LongitudeDegrees>-3.73636803589761257171630859375</LongitudeDegrees>
            </Position>
            <AltitudeMeters>923.4000244140625</AltitudeMeters>
            <DistanceMeters>44325.528905841</DistanceMeters>
          </Trackpoint>
          <Trackpoint>
            <Time>2020-03-07T14:49:49.000Z</Time>
            <Position>
              <LatitudeDegrees>40.78948429785668849945068359375</LatitudeDegrees>
              <LongitudeDegrees>-3.736457638442516326904296875</LongitudeDegrees>
            </Position>
            <AltitudeMeters>923.4000244140625</AltitudeMeters>
            <DistanceMeters>44333.14646918</DistanceMeters>
          </Trackpoint>
          <Trackpoint>
            <Time>2020-03-07T14:49:50.000Z</Time>
            <Position>
              <LatitudeDegrees>40.78947423957288265228271484375</LatitudeDegrees>
              <LongitudeDegrees>-3.73654849827289581298828125</LongitudeDegrees>
            </Position>
            <AltitudeMeters>923.5999755859375</AltitudeMeters>
            <DistanceMeters>44340.884001527</DistanceMeters>
          </Trackpoint>
          <Trackpoint>
            <Time>2020-03-07T14:49:51.000Z</Time>
            <Position>
              <LatitudeDegrees>40.7894630916416645050048828125</LatitudeDegrees>
              <LongitudeDegrees>-3.7366403639316558837890625</LongitudeDegrees>
            </Position>
            <AltitudeMeters>923.79998779296875</AltitudeMeters>
            <DistanceMeters>44348.724137391</DistanceMeters>
          </Trackpoint>
          <Trackpoint>
            <Time>2020-03-07T14:49:52.000Z</Time>
            <Position>
              <LatitudeDegrees>40.78945127315819263458251953125</LatitudeDegrees>
              <LongitudeDegrees>-3.73673331923782825469970703125</LongitudeDegrees>
            </Position>
            <AltitudeMeters>923.79998779296875</AltitudeMeters>
            <DistanceMeters>44356.666688243</DistanceMeters>
          </Trackpoint>
          <Trackpoint>
            <Time>2020-03-07T14:49:53.000Z</Time>
            <Position>
              <LatitudeDegrees>40.78943853266537189483642578125</LatitudeDegrees>
              <LongitudeDegrees>-3.7368252687156200408935546875</LongitudeDegrees>
            </Position>
            <AltitudeMeters>923.79998779296875</AltitudeMeters>
            <DistanceMeters>44364.543594694</DistanceMeters>
          </Trackpoint>
          <Trackpoint>
            <Time>2020-03-07T14:49:54.000Z</Time>
            <Position>
              <LatitudeDegrees>40.78942646272480487823486328125</LatitudeDegrees>
              <LongitudeDegrees>-3.73691939748823642730712890625</LongitudeDegrees>
            </Position>
            <AltitudeMeters>924</AltitudeMeters>
            <DistanceMeters>44372.588940426</DistanceMeters>
          </Trackpoint>
          <Trackpoint>
            <Time>2020-03-07T14:49:55.000Z</Time>
            <Position>
              <LatitudeDegrees>40.789415650069713592529296875</LatitudeDegrees>
              <LongitudeDegrees>-3.737013526260852813720703125</LongitudeDegrees>
            </Position>
            <AltitudeMeters>924</AltitudeMeters>
            <DistanceMeters>44380.611806803</DistanceMeters>
          </Trackpoint>
          <Trackpoint>
            <Time>2020-03-07T14:49:56.000Z</Time>
            <Position>
              <LatitudeDegrees>40.78940601088106632232666015625</LatitudeDegrees>
              <LongitudeDegrees>-3.737108409404754638671875</LongitudeDegrees>
            </Position>
            <AltitudeMeters>924.20001220703125</AltitudeMeters>
            <DistanceMeters>44388.679569256</DistanceMeters>
          </Trackpoint>
          <Trackpoint>
            <Time>2020-03-07T14:49:57.000Z</Time>
            <Position>
              <LatitudeDegrees>40.78939578495919704437255859375</LatitudeDegrees>
              <LongitudeDegrees>-3.7372024543583393096923828125</LongitudeDegrees>
            </Position>
            <AltitudeMeters>924.4000244140625</AltitudeMeters>
            <DistanceMeters>44396.685534695</DistanceMeters>
          </Trackpoint>
          <Trackpoint>
            <Time>2020-03-07T14:49:58.000Z</Time>
            <Position>
              <LatitudeDegrees>40.78938555903732776641845703125</LatitudeDegrees>
              <LongitudeDegrees>-3.73729608021676540374755859375</LongitudeDegrees>
            </Position>
            <AltitudeMeters>924.4000244140625</AltitudeMeters>
            <DistanceMeters>44404.657024388</DistanceMeters>
          </Trackpoint>
          <Trackpoint>
            <Time>2020-03-07T14:49:59.000Z</Time>
            <Position>
              <LatitudeDegrees>40.789374411106109619140625</LatitudeDegrees>
              <LongitudeDegrees>-3.7373905442655086517333984375</LongitudeDegrees>
            </Position>
            <AltitudeMeters>924.4000244140625</AltitudeMeters>
            <DistanceMeters>44412.713025841</DistanceMeters>
          </Trackpoint>
          <Trackpoint>
            <Time>2020-03-07T14:50:00.000Z</Time>
            <Position>
              <LatitudeDegrees>40.7893645204603672027587890625</LatitudeDegrees>
              <LongitudeDegrees>-3.73748551122844219207763671875</LongitudeDegrees>
            </Position>
            <AltitudeMeters>924.4000244140625</AltitudeMeters>
            <DistanceMeters>44420.790855524</DistanceMeters>
          </Trackpoint>
          <Trackpoint>
            <Time>2020-03-07T14:50:01.000Z</Time>
            <Position>
              <LatitudeDegrees>40.78935689292848110198974609375</LatitudeDegrees>
              <LongitudeDegrees>-3.737581484019756317138671875</LongitudeDegrees>
            </Position>
            <AltitudeMeters>924.4000244140625</AltitudeMeters>
            <DistanceMeters>44428.922166594</DistanceMeters>
          </Trackpoint>
          <Trackpoint>
            <Time>2020-03-07T14:50:02.000Z</Time>
            <Position>
              <LatitudeDegrees>40.7893521152436733245849609375</LatitudeDegrees>
              <LongitudeDegrees>-3.7376783788204193115234375</LongitudeDegrees>
            </Position>
            <AltitudeMeters>924.5999755859375</AltitudeMeters>
            <DistanceMeters>44437.104402643</DistanceMeters>
          </Trackpoint>
          <Trackpoint>
            <Time>2020-03-07T14:50:03.000Z</Time>
            <Position>
              <LatitudeDegrees>40.78935228288173675537109375</LatitudeDegrees>
              <LongitudeDegrees>-3.73777468688786029815673828125</LongitudeDegrees>
            </Position>
            <AltitudeMeters>924.5999755859375</AltitudeMeters>
            <DistanceMeters>44445.220151381</DistanceMeters>
          </Trackpoint>
          <Trackpoint>
            <Time>2020-03-07T14:50:04.000Z</Time>
            <Position>
              <LatitudeDegrees>40.78935764729976654052734375</LatitudeDegrees>
              <LongitudeDegrees>-3.737872503697872161865234375</LongitudeDegrees>
            </Position>
            <AltitudeMeters>924.79998779296875</AltitudeMeters>
            <DistanceMeters>44453.484744427</DistanceMeters>
          </Trackpoint>
          <Trackpoint>
            <Time>2020-03-07T14:50:05.000Z</Time>
            <Position>
              <LatitudeDegrees>40.78936971724033355712890625</LatitudeDegrees>
              <LongitudeDegrees>-3.73796948231756687164306640625</LongitudeDegrees>
            </Position>
            <AltitudeMeters>924.79998779296875</AltitudeMeters>
            <DistanceMeters>44461.766800975</DistanceMeters>
          </Trackpoint>
          <Trackpoint>
            <Time>2020-03-07T14:50:06.000Z</Time>
            <Position>
              <LatitudeDegrees>40.7893896661698818206787109375</LatitudeDegrees>
              <LongitudeDegrees>-3.73806721530854701995849609375</LongitudeDegrees>
            </Position>
            <AltitudeMeters>925</AltitudeMeters>
            <DistanceMeters>44470.297003551</DistanceMeters>
          </Trackpoint>
          <Trackpoint>
            <Time>2020-03-07T14:50:07.000Z</Time>
            <Position>
              <LatitudeDegrees>40.7894134707748889923095703125</LatitudeDegrees>
              <LongitudeDegrees>-3.73816494829952716827392578125</LongitudeDegrees>
            </Position>
            <AltitudeMeters>925</AltitudeMeters>
            <DistanceMeters>44478.949132406</DistanceMeters>
          </Trackpoint>
          <Trackpoint>
            <Time>2020-03-07T14:50:08.000Z</Time>
            <Position>
              <LatitudeDegrees>40.7894374430179595947265625</LatitudeDegrees>
              <LongitudeDegrees>-3.73825974762439727783203125</LongitudeDegrees>
            </Position>
            <AltitudeMeters>925</AltitudeMeters>
            <DistanceMeters>44487.371737736</DistanceMeters>
          </Trackpoint>
          <Trackpoint>
            <Time>2020-03-07T14:50:09.000Z</Time>
            <Position>
              <LatitudeDegrees>40.7894614152610301971435546875</LatitudeDegrees>
              <LongitudeDegrees>-3.73835588805377483367919921875</LongitudeDegrees>
            </Position>
            <AltitudeMeters>925.20001220703125</AltitudeMeters>
            <DistanceMeters>44495.901410995</DistanceMeters>
          </Trackpoint>
          <Trackpoint>
            <Time>2020-03-07T14:50:10.000Z</Time>
            <Position>
              <LatitudeDegrees>40.78948698006570339202880859375</LatitudeDegrees>
              <LongitudeDegrees>-3.738451860845088958740234375</LongitudeDegrees>
            </Position>
            <AltitudeMeters>925.4000244140625</AltitudeMeters>
            <DistanceMeters>44504.47490633</DistanceMeters>
          </Trackpoint>
          <Trackpoint>
            <Time>2020-03-07T14:50:11.000Z</Time>
            <Position>
              <LatitudeDegrees>40.78951329924166202545166015625</LatitudeDegrees>
              <LongitudeDegrees>-3.73854883946478366851806640625</LongitudeDegrees>
            </Position>
            <AltitudeMeters>925.4000244140625</AltitudeMeters>
            <DistanceMeters>44513.156729185</DistanceMeters>
          </Trackpoint>
          <Trackpoint>
            <Time>2020-03-07T14:50:12.000Z</Time>
            <Position>
              <LatitudeDegrees>40.78954012133181095123291015625</LatitudeDegrees>
              <LongitudeDegrees>-3.73864439316093921661376953125</LongitudeDegrees>
            </Position>
            <AltitudeMeters>925.4000244140625</AltitudeMeters>
            <DistanceMeters>44521.74443169</DistanceMeters>
          </Trackpoint>
          <Trackpoint>
            <Time>2020-03-07T14:50:13.000Z</Time>
            <Position>
              <LatitudeDegrees>40.789567865431308746337890625</LatitudeDegrees>
              <LongitudeDegrees>-3.7387403659522533416748046875</LongitudeDegrees>
            </Position>
            <AltitudeMeters>925.4000244140625</AltitudeMeters>
            <DistanceMeters>44530.400734268</DistanceMeters>
          </Trackpoint>
          <Trackpoint>
            <Time>2020-03-07T14:50:14.000Z</Time>
            <Position>
              <LatitudeDegrees>40.78959644772112369537353515625</LatitudeDegrees>
              <LongitudeDegrees>-3.73883868567645549774169921875</LongitudeDegrees>
            </Position>
            <AltitudeMeters>925.4000244140625</AltitudeMeters>
            <DistanceMeters>44539.27543577</DistanceMeters>
          </Trackpoint>
          <Trackpoint>
            <Time>2020-03-07T14:50:15.000Z</Time>
            <Position>
              <LatitudeDegrees>40.78962452709674835205078125</LatitudeDegrees>
              <LongitudeDegrees>-3.73893834650516510009765625</LongitudeDegrees>
            </Position>
            <AltitudeMeters>925.5999755859375</AltitudeMeters>
            <DistanceMeters>44548.237215721</DistanceMeters>
          </Trackpoint>
          <Trackpoint>
            <Time>2020-03-07T14:50:16.000Z</Time>
            <Position>
              <LatitudeDegrees>40.7896531932055950164794921875</LatitudeDegrees>
              <LongitudeDegrees>-3.7390370853245258331298828125</LongitudeDegrees>
            </Position>
            <AltitudeMeters>925.5999755859375</AltitudeMeters>
            <DistanceMeters>44557.148472212</DistanceMeters>
          </Trackpoint>
          <Trackpoint>
            <Time>2020-03-07T14:50:17.000Z</Time>
            <Position>
              <LatitudeDegrees>40.78968328423798084259033203125</LatitudeDegrees>
              <LongitudeDegrees>-3.7391380034387111663818359375</LongitudeDegrees>
            </Position>
            <AltitudeMeters>925.5999755859375</AltitudeMeters>
            <DistanceMeters>44566.288836935</DistanceMeters>
          </Trackpoint>
          <Trackpoint>
            <Time>2020-03-07T14:50:18.000Z</Time>
            <Position>
              <LatitudeDegrees>40.789712704718112945556640625</LatitudeDegrees>
              <LongitudeDegrees>-3.73923766426742076873779296875</LongitudeDegrees>
            </Position>
            <AltitudeMeters>925.5999755859375</AltitudeMeters>
            <DistanceMeters>44575.302860889</DistanceMeters>
          </Trackpoint>
          <Trackpoint>
            <Time>2020-03-07T14:50:19.000Z</Time>
            <Position>
              <LatitudeDegrees>40.789740197360515594482421875</LatitudeDegrees>
              <LongitudeDegrees>-3.73933799564838409423828125</LongitudeDegrees>
            </Position>
            <AltitudeMeters>925.5999755859375</AltitudeMeters>
            <DistanceMeters>44584.294818655</DistanceMeters>
          </Trackpoint>
          <Trackpoint>
            <Time>2020-03-07T14:50:20.000Z</Time>
            <Position>
              <LatitudeDegrees>40.789766013622283935546875</LatitudeDegrees>
              <LongitudeDegrees>-3.73943899758160114288330078125</LongitudeDegrees>
            </Position>
            <AltitudeMeters>925.5999755859375</AltitudeMeters>
            <DistanceMeters>44593.277733722</DistanceMeters>
          </Trackpoint>
          <Trackpoint>
            <Time>2020-03-07T14:50:21.000Z</Time>
            <Position>
              <LatitudeDegrees>40.78979040496051311492919921875</LatitudeDegrees>
              <LongitudeDegrees>-3.7395376525819301605224609375</LongitudeDegrees>
            </Position>
            <AltitudeMeters>925.5999755859375</AltitudeMeters>
            <DistanceMeters>44602.023289593</DistanceMeters>
          </Trackpoint>
          <Trackpoint>
            <Time>2020-03-07T14:50:22.000Z</Time>
            <Position>
              <LatitudeDegrees>40.78981496393680572509765625</LatitudeDegrees>
              <LongitudeDegrees>-3.73963798396289348602294921875</LongitudeDegrees>
            </Position>
            <AltitudeMeters>925.4000244140625</AltitudeMeters>
            <DistanceMeters>44610.908668501</DistanceMeters>
          </Trackpoint>
          <Trackpoint>
            <Time>2020-03-07T14:50:23.000Z</Time>
            <Position>
              <LatitudeDegrees>40.78984186984598636627197265625</LatitudeDegrees>
              <LongitudeDegrees>-3.7397364713251590728759765625</LongitudeDegrees>
            </Position>
            <AltitudeMeters>925.4000244140625</AltitudeMeters>
            <DistanceMeters>44619.731836244</DistanceMeters>
          </Trackpoint>
          <Trackpoint>
            <Time>2020-03-07T14:50:24.000Z</Time>
            <Position>
              <LatitudeDegrees>40.78987070359289646148681640625</LatitudeDegrees>
              <LongitudeDegrees>-3.73983445577323436737060546875</LongitudeDegrees>
            </Position>
            <AltitudeMeters>925.4000244140625</AltitudeMeters>
            <DistanceMeters>44628.590752339</DistanceMeters>
          </Trackpoint>
          <Trackpoint>
            <Time>2020-03-07T14:50:25.000Z</Time>
            <Position>
              <LatitudeDegrees>40.78990188427269458770751953125</LatitudeDegrees>
              <LongitudeDegrees>-3.7399312667548656463623046875</LongitudeDegrees>
            </Position>
            <AltitudeMeters>925.4000244140625</AltitudeMeters>
            <DistanceMeters>44637.456291543</DistanceMeters>
          </Trackpoint>
          <Trackpoint>
            <Time>2020-03-07T14:50:26.000Z</Time>
            <Position>
              <LatitudeDegrees>40.7899351604282855987548828125</LatitudeDegrees>
              <LongitudeDegrees>-3.7400279939174652099609375</LongitudeDegrees>
            </Position>
            <AltitudeMeters>925.4000244140625</AltitudeMeters>
            <DistanceMeters>44646.408998313</DistanceMeters>
          </Trackpoint>
          <Trackpoint>
            <Time>2020-03-07T14:50:27.000Z</Time>
            <Position>
              <LatitudeDegrees>40.7899712026119232177734375</LatitudeDegrees>
              <LongitudeDegrees>-3.7401210330426692962646484375</LongitudeDegrees>
            </Position>
            <AltitudeMeters>925.4000244140625</AltitudeMeters>
            <DistanceMeters>44655.216288285</DistanceMeters>
          </Trackpoint>
          <Trackpoint>
            <Time>2020-03-07T14:50:28.000Z</Time>
            <Position>
              <LatitudeDegrees>40.79001135192811489105224609375</LatitudeDegrees>
              <LongitudeDegrees>-3.74020761810243129730224609375</LongitudeDegrees>
            </Position>
            <AltitudeMeters>925.4000244140625</AltitudeMeters>
            <DistanceMeters>44663.772914946</DistanceMeters>
          </Trackpoint>
          <Trackpoint>
            <Time>2020-03-07T14:50:29.000Z</Time>
            <Position>
              <LatitudeDegrees>40.79005795530974864959716796875</LatitudeDegrees>
              <LongitudeDegrees>-3.7402873300015926361083984375</LongitudeDegrees>
            </Position>
            <AltitudeMeters>925.4000244140625</AltitudeMeters>
            <DistanceMeters>44672.259603918</DistanceMeters>
          </Trackpoint>
          <Trackpoint>
            <Time>2020-03-07T14:50:30.000Z</Time>
            <Position>
              <LatitudeDegrees>40.7901068218052387237548828125</LatitudeDegrees>
              <LongitudeDegrees>-3.74036259949207305908203125</LongitudeDegrees>
            </Position>
            <AltitudeMeters>925.4000244140625</AltitudeMeters>
            <DistanceMeters>44680.614932816</DistanceMeters>
          </Trackpoint>
          <Trackpoint>
            <Time>2020-03-07T14:50:31.000Z</Time>
            <Position>
              <LatitudeDegrees>40.7901530899107456207275390625</LatitudeDegrees>
              <LongitudeDegrees>-3.74043627642095088958740234375</LongitudeDegrees>
            </Position>
            <AltitudeMeters>925.4000244140625</AltitudeMeters>
            <DistanceMeters>44688.681575913</DistanceMeters>
          </Trackpoint>
          <Trackpoint>
            <Time>2020-03-07T14:50:32.000Z</Time>
            <Position>
              <LatitudeDegrees>40.7902020402252674102783203125</LatitudeDegrees>
              <LongitudeDegrees>-3.74051749706268310546875</LongitudeDegrees>
            </Position>
            <AltitudeMeters>925.4000244140625</AltitudeMeters>
            <DistanceMeters>44697.429712735</DistanceMeters>
          </Trackpoint>
          <Trackpoint>
            <Time>2020-03-07T14:50:33.000Z</Time>
            <Position>
              <LatitudeDegrees>40.79024520702660083770751953125</LatitudeDegrees>
              <LongitudeDegrees>-3.74059234745800495147705078125</LongitudeDegrees>
            </Position>
            <AltitudeMeters>925.4000244140625</AltitudeMeters>
            <DistanceMeters>44705.358608762</DistanceMeters>
          </Trackpoint>
          <Trackpoint>
            <Time>2020-03-07T14:50:34.000Z</Time>
            <Position>
              <LatitudeDegrees>40.7902845181524753570556640625</LatitudeDegrees>
              <LongitudeDegrees>-3.74066242016851902008056640625</LongitudeDegrees>
            </Position>
            <AltitudeMeters>925.4000244140625</AltitudeMeters>
            <DistanceMeters>44712.70706827</DistanceMeters>
          </Trackpoint>
          <Trackpoint>
            <Time>2020-03-07T14:50:35.000Z</Time>
            <Position>
              <LatitudeDegrees>40.79032324254512786865234375</LatitudeDegrees>
              <LongitudeDegrees>-3.74072813428938388824462890625</LongitudeDegrees>
            </Position>
            <AltitudeMeters>925.4000244140625</AltitudeMeters>
            <DistanceMeters>44719.724261929</DistanceMeters>
          </Trackpoint>
          <Trackpoint>
            <Time>2020-03-07T14:50:36.000Z</Time>
            <Position>
              <LatitudeDegrees>40.790362469851970672607421875</LatitudeDegrees>
              <LongitudeDegrees>-3.74079200439155101776123046875</LongitudeDegrees>
            </Position>
            <AltitudeMeters>925.5999755859375</AltitudeMeters>
            <DistanceMeters>44726.654048832</DistanceMeters>
          </Trackpoint>
          <Trackpoint>
            <Time>2020-03-07T14:50:37.000Z</Time>
            <Position>
              <LatitudeDegrees>40.790400020778179168701171875</LatitudeDegrees>
              <LongitudeDegrees>-3.74085520394146442413330078125</LongitudeDegrees>
            </Position>
            <AltitudeMeters>925.5999755859375</AltitudeMeters>
            <DistanceMeters>44733.422993202</DistanceMeters>
          </Trackpoint>
          <Trackpoint>
            <Time>2020-03-07T14:50:38.000Z</Time>
            <Position>
              <LatitudeDegrees>40.7904357276856899261474609375</LatitudeDegrees>
              <LongitudeDegrees>-3.74091857112944126129150390625</LongitudeDegrees>
            </Position>
            <AltitudeMeters>925.79998779296875</AltitudeMeters>
            <DistanceMeters>44740.078934535</DistanceMeters>
          </Trackpoint>
          <Trackpoint>
            <Time>2020-03-07T14:50:39.000Z</Time>
            <Position>
              <LatitudeDegrees>40.79047068022191524505615234375</LatitudeDegrees>
              <LongitudeDegrees>-3.74098084867000579833984375</LongitudeDegrees>
            </Position>
            <AltitudeMeters>925.79998779296875</AltitudeMeters>
            <DistanceMeters>44746.61094121</DistanceMeters>
          </Trackpoint>
          <Trackpoint>
            <Time>2020-03-07T14:50:40.000Z</Time>
            <Position>
              <LatitudeDegrees>40.79050554893910884857177734375</LatitudeDegrees>
              <LongitudeDegrees>-3.74104111455380916595458984375</LongitudeDegrees>
            </Position>
            <AltitudeMeters>926.20001220703125</AltitudeMeters>
            <DistanceMeters>44753.002503291</DistanceMeters>
          </Trackpoint>
          <Trackpoint>
            <Time>2020-03-07T14:50:41.000Z</Time>
            <Position>
              <LatitudeDegrees>40.790539495646953582763671875</LatitudeDegrees>
              <LongitudeDegrees>-3.741099871695041656494140625</LongitudeDegrees>
            </Position>
            <AltitudeMeters>927</AltitudeMeters>
            <DistanceMeters>44759.230922705</DistanceMeters>
          </Trackpoint>
          <Trackpoint>
            <Time>2020-03-07T14:50:42.000Z</Time>
            <Position>
              <LatitudeDegrees>40.79057327471673488616943359375</LatitudeDegrees>
              <LongitudeDegrees>-3.74115787446498870849609375</LongitudeDegrees>
            </Position>
            <AltitudeMeters>927.5999755859375</AltitudeMeters>
            <DistanceMeters>44765.396684769</DistanceMeters>
          </Trackpoint>
          <Trackpoint>
            <Time>2020-03-07T14:50:43.000Z</Time>
            <Position>
              <LatitudeDegrees>40.79060730524361133575439453125</LatitudeDegrees>
              <LongitudeDegrees>-3.74121529050171375274658203125</LongitudeDegrees>
            </Position>
            <AltitudeMeters>928</AltitudeMeters>
            <DistanceMeters>44771.541174139</DistanceMeters>
          </Trackpoint>
          <Trackpoint>
            <Time>2020-03-07T14:50:44.000Z</Time>
            <Position>
              <LatitudeDegrees>40.79064200632274150848388671875</LatitudeDegrees>
              <LongitudeDegrees>-3.7412743829190731048583984375</LongitudeDegrees>
            </Position>
            <AltitudeMeters>928.4000244140625</AltitudeMeters>
            <DistanceMeters>44777.843100527</DistanceMeters>
          </Trackpoint>
          <Trackpoint>
            <Time>2020-03-07T14:50:45.000Z</Time>
            <Position>
              <LatitudeDegrees>40.79067603684961795806884765625</LatitudeDegrees>
              <LongitudeDegrees>-3.74133364297449588775634765625</LongitudeDegrees>
            </Position>
            <AltitudeMeters>928.5999755859375</AltitudeMeters>
            <DistanceMeters>44784.110542791</DistanceMeters>
          </Trackpoint>
          <Trackpoint>
            <Time>2020-03-07T14:50:46.000Z</Time>
            <Position>
              <LatitudeDegrees>40.790709145367145538330078125</LatitudeDegrees>
              <LongitudeDegrees>-3.7413937412202358245849609375</LongitudeDegrees>
            </Position>
            <AltitudeMeters>929.4000244140625</AltitudeMeters>
            <DistanceMeters>44790.373661189</DistanceMeters>
          </Trackpoint>
          <Trackpoint>
            <Time>2020-03-07T14:50:47.000Z</Time>
            <Position>
              <LatitudeDegrees>40.79074208624660968780517578125</LatitudeDegrees>
              <LongitudeDegrees>-3.74145451001822948455810546875</LongitudeDegrees>
            </Position>
            <AltitudeMeters>929.79998779296875</AltitudeMeters>
            <DistanceMeters>44796.671287388</DistanceMeters>
          </Trackpoint>
          <Trackpoint>
            <Time>2020-03-07T14:50:48.000Z</Time>
            <Position>
              <LatitudeDegrees>40.7907756976783275604248046875</LatitudeDegrees>
              <LongitudeDegrees>-3.74151435680687427520751953125</LongitudeDegrees>
            </Position>
            <AltitudeMeters>930.20001220703125</AltitudeMeters>
            <DistanceMeters>44802.950964436</DistanceMeters>
          </Trackpoint>
          <Trackpoint>
            <Time>2020-03-07T14:50:49.000Z</Time>
            <Position>
              <LatitudeDegrees>40.790809728205204010009765625</LatitudeDegrees>
              <LongitudeDegrees>-3.74157386831939220428466796875</LongitudeDegrees>
            </Position>
            <AltitudeMeters>930.4000244140625</AltitudeMeters>
            <DistanceMeters>44809.235672414</DistanceMeters>
          </Trackpoint>
          <Trackpoint>
            <Time>2020-03-07T14:50:50.000Z</Time>
            <Position>
              <LatitudeDegrees>40.790844261646270751953125</LatitudeDegrees>
              <LongitudeDegrees>-3.74163388274610042572021484375</LongitudeDegrees>
            </Position>
            <AltitudeMeters>930.5999755859375</AltitudeMeters>
            <DistanceMeters>44815.587552573</DistanceMeters>
          </Trackpoint>
          <Trackpoint>
            <Time>2020-03-07T14:50:51.000Z</Time>
            <Position>
              <LatitudeDegrees>40.790878795087337493896484375</LatitudeDegrees>
              <LongitudeDegrees>-3.7416934780776500701904296875</LongitudeDegrees>
            </Position>
            <AltitudeMeters>931</AltitudeMeters>
            <DistanceMeters>44821.911650024</DistanceMeters>
          </Trackpoint>
          <Trackpoint>
            <Time>2020-03-07T14:50:52.000Z</Time>
            <Position>
              <LatitudeDegrees>40.7909141667187213897705078125</LatitudeDegrees>
              <LongitudeDegrees>-3.74175340868532657623291015625</LongitudeDegrees>
            </Position>
            <AltitudeMeters>931.20001220703125</AltitudeMeters>
            <DistanceMeters>44828.314504626</DistanceMeters>
          </Trackpoint>
          <Trackpoint>
            <Time>2020-03-07T14:50:53.000Z</Time>
            <Position>
              <LatitudeDegrees>40.79094945453107357025146484375</LatitudeDegrees>
              <LongitudeDegrees>-3.7418135069310665130615234375</LongitudeDegrees>
            </Position>
            <AltitudeMeters>931.4000244140625</AltitudeMeters>
            <DistanceMeters>44834.722293448</DistanceMeters>
          </Trackpoint>
          <Trackpoint>
            <Time>2020-03-07T14:50:54.000Z</Time>
            <Position>
              <LatitudeDegrees>40.7909849099814891815185546875</LatitudeDegrees>
              <LongitudeDegrees>-3.74187394045293331146240234375</LongitudeDegrees>
            </Position>
            <AltitudeMeters>931.5999755859375</AltitudeMeters>
            <DistanceMeters>44841.164515995</DistanceMeters>
          </Trackpoint>
          <Trackpoint>
            <Time>2020-03-07T14:50:55.000Z</Time>
            <Position>
              <LatitudeDegrees>40.791018940508365631103515625</LatitudeDegrees>
              <LongitudeDegrees>-3.741934709250926971435546875</LongitudeDegrees>
            </Position>
            <AltitudeMeters>932</AltitudeMeters>
            <DistanceMeters>44847.534141844</DistanceMeters>
          </Trackpoint>
          <Trackpoint>
            <Time>2020-03-07T14:50:56.000Z</Time>
            <Position>
              <LatitudeDegrees>40.791051797568798065185546875</LatitudeDegrees>
              <LongitudeDegrees>-3.741997070610523223876953125</LongitudeDegrees>
            </Position>
            <AltitudeMeters>932</AltitudeMeters>
            <DistanceMeters>44853.936291247</DistanceMeters>
          </Trackpoint>
          <Trackpoint>
            <Time>2020-03-07T14:50:57.000Z</Time>
            <Position>
              <LatitudeDegrees>40.79108498990535736083984375</LatitudeDegrees>
              <LongitudeDegrees>-3.7420585937798023223876953125</LongitudeDegrees>
            </Position>
            <AltitudeMeters>932.20001220703125</AltitudeMeters>
            <DistanceMeters>44860.30308111</DistanceMeters>
          </Trackpoint>
          <Trackpoint>
            <Time>2020-03-07T14:50:58.000Z</Time>
            <Position>
              <LatitudeDegrees>40.79111960716545581817626953125</LatitudeDegrees>
              <LongitudeDegrees>-3.7421189434826374053955078125</LongitudeDegrees>
            </Position>
            <AltitudeMeters>932.5999755859375</AltitudeMeters>
            <DistanceMeters>44866.684038302</DistanceMeters>
          </Trackpoint>
          <Trackpoint>
            <Time>2020-03-07T14:50:59.000Z</Time>
            <Position>
              <LatitudeDegrees>40.791154392063617706298828125</LatitudeDegrees>
              <LongitudeDegrees>-3.7421791255474090576171875</LongitudeDegrees>
            </Position>
            <AltitudeMeters>932.79998779296875</AltitudeMeters>
            <DistanceMeters>44873.064287875</DistanceMeters>
          </Trackpoint>
          <Trackpoint>
            <Time>2020-03-07T14:51:00.000Z</Time>
            <Position>
              <LatitudeDegrees>40.7911904342472553253173828125</LatitudeDegrees>
              <LongitudeDegrees>-3.742240481078624725341796875</LongitudeDegrees>
            </Position>
            <AltitudeMeters>933</AltitudeMeters>
            <DistanceMeters>44879.608034699</DistanceMeters>
          </Trackpoint>
          <Trackpoint>
            <Time>2020-03-07T14:51:01.000Z</Time>
            <Position>
              <LatitudeDegrees>40.79122806899249553680419921875</LatitudeDegrees>
              <LongitudeDegrees>-3.7423003278672695159912109375</LongitudeDegrees>
            </Position>
            <AltitudeMeters>933.20001220703125</AltitudeMeters>
            <DistanceMeters>44886.164189355</DistanceMeters>
          </Trackpoint>
          <Trackpoint>
            <Time>2020-03-07T14:51:02.000Z</Time>
            <Position>
              <LatitudeDegrees>40.7912658713757991790771484375</LatitudeDegrees>
              <LongitudeDegrees>-3.74236109666526317596435546875</LongitudeDegrees>
            </Position>
            <AltitudeMeters>933.4000244140625</AltitudeMeters>
            <DistanceMeters>44892.792260107</DistanceMeters>
          </Trackpoint>
          <Trackpoint>
            <Time>2020-03-07T14:51:03.000Z</Time>
            <Position>
              <LatitudeDegrees>40.79130115918815135955810546875</LatitudeDegrees>
              <LongitudeDegrees>-3.742423541843891143798828125</LongitudeDegrees>
            </Position>
            <AltitudeMeters>933.4000244140625</AltitudeMeters>
            <DistanceMeters>44899.358736713</DistanceMeters>
          </Trackpoint>
          <Trackpoint>
            <Time>2020-03-07T14:51:04.000Z</Time>
            <Position>
              <LatitudeDegrees>40.79133468680083751678466796875</LatitudeDegrees>
              <LongitudeDegrees>-3.742487914860248565673828125</LongitudeDegrees>
            </Position>
            <AltitudeMeters>933.5999755859375</AltitudeMeters>
            <DistanceMeters>44905.943752057</DistanceMeters>
          </Trackpoint>
          <Trackpoint>
            <Time>2020-03-07T14:51:05.000Z</Time>
            <Position>
              <LatitudeDegrees>40.79136871732771396636962890625</LatitudeDegrees>
              <LongitudeDegrees>-3.7425506114959716796875</LongitudeDegrees>
            </Position>
            <AltitudeMeters>933.5999755859375</AltitudeMeters>
            <DistanceMeters>44912.444579525</DistanceMeters>
          </Trackpoint>
          <Trackpoint>
            <Time>2020-03-07T14:51:06.000Z</Time>
            <Position>
              <LatitudeDegrees>40.79140459187328815460205078125</LatitudeDegrees>
              <LongitudeDegrees>-3.7426117993891239166259765625</LongitudeDegrees>
            </Position>
            <AltitudeMeters>933.79998779296875</AltitudeMeters>
            <DistanceMeters>44918.966209693</DistanceMeters>
          </Trackpoint>
          <Trackpoint>
            <Time>2020-03-07T14:51:07.000Z</Time>
            <Position>
              <LatitudeDegrees>40.79144172370433807373046875</LatitudeDegrees>
              <LongitudeDegrees>-3.742672316730022430419921875</LongitudeDegrees>
            </Position>
            <AltitudeMeters>934</AltitudeMeters>
            <DistanceMeters>44925.530623207</DistanceMeters>
          </Trackpoint>
          <Trackpoint>
            <Time>2020-03-07T14:51:08.000Z</Time>
            <Position>
              <LatitudeDegrees>40.7914786040782928466796875</LatitudeDegrees>
              <LongitudeDegrees>-3.74273325316607952117919921875</LongitudeDegrees>
            </Position>
            <AltitudeMeters>934.20001220703125</AltitudeMeters>
            <DistanceMeters>44932.104658944</DistanceMeters>
          </Trackpoint>
          <Trackpoint>
            <Time>2020-03-07T14:51:09.000Z</Time>
            <Position>
              <LatitudeDegrees>40.79151456244289875030517578125</LatitudeDegrees>
              <LongitudeDegrees>-3.74279645271599292755126953125</LongitudeDegrees>
            </Position>
            <AltitudeMeters>934.4000244140625</AltitudeMeters>
            <DistanceMeters>44938.766702603</DistanceMeters>
          </Trackpoint>
          <Trackpoint>
            <Time>2020-03-07T14:51:10.000Z</Time>
            <Position>
              <LatitudeDegrees>40.79154901206493377685546875</LatitudeDegrees>
              <LongitudeDegrees>-3.74286216683685779571533203125</LongitudeDegrees>
            </Position>
            <AltitudeMeters>934.5999755859375</AltitudeMeters>
            <DistanceMeters>44945.502213278</DistanceMeters>
          </Trackpoint>
          <Trackpoint>
            <Time>2020-03-07T14:51:11.000Z</Time>
            <Position>
              <LatitudeDegrees>40.79158279113471508026123046875</LatitudeDegrees>
              <LongitudeDegrees>-3.742929808795452117919921875</LongitudeDegrees>
            </Position>
            <AltitudeMeters>934.79998779296875</AltitudeMeters>
            <DistanceMeters>44952.330925804</DistanceMeters>
          </Trackpoint>
          <Trackpoint>
            <Time>2020-03-07T14:51:12.000Z</Time>
            <Position>
              <LatitudeDegrees>40.79161698929965496063232421875</LatitudeDegrees>
              <LongitudeDegrees>-3.74299828894436359405517578125</LongitudeDegrees>
            </Position>
            <AltitudeMeters>935.20001220703125</AltitudeMeters>
            <DistanceMeters>44959.243751893</DistanceMeters>
          </Trackpoint>
          <Trackpoint>
            <Time>2020-03-07T14:51:13.000Z</Time>
            <Position>
              <LatitudeDegrees>40.791653282940387725830078125</LatitudeDegrees>
              <LongitudeDegrees>-3.743066601455211639404296875</LongitudeDegrees>
            </Position>
            <AltitudeMeters>935.4000244140625</AltitudeMeters>
            <DistanceMeters>44966.277012784</DistanceMeters>
          </Trackpoint>
          <Trackpoint>
            <Time>2020-03-07T14:51:14.000Z</Time>
            <Position>
              <LatitudeDegrees>40.79169108532369136810302734375</LatitudeDegrees>
              <LongitudeDegrees>-3.74313374049961566925048828125</LongitudeDegrees>
            </Position>
            <AltitudeMeters>935.4000244140625</AltitudeMeters>
            <DistanceMeters>44973.32758516</DistanceMeters>
          </Trackpoint>
          <Trackpoint>
            <Time>2020-03-07T14:51:15.000Z</Time>
            <Position>
              <LatitudeDegrees>40.7917298935353755950927734375</LatitudeDegrees>
              <LongitudeDegrees>-3.7432010471820831298828125</LongitudeDegrees>
            </Position>
            <AltitudeMeters>935.5999755859375</AltitudeMeters>
            <DistanceMeters>44980.456489018</DistanceMeters>
          </Trackpoint>
          <Trackpoint>
            <Time>2020-03-07T14:51:16.000Z</Time>
            <Position>
              <LatitudeDegrees>40.791769288480281829833984375</LatitudeDegrees>
              <LongitudeDegrees>-3.7432682700455188751220703125</LongitudeDegrees>
            </Position>
            <AltitudeMeters>935.5999755859375</AltitudeMeters>
            <DistanceMeters>44987.618881376</DistanceMeters>
          </Trackpoint>
          <Trackpoint>
            <Time>2020-03-07T14:51:17.000Z</Time>
            <Position>
              <LatitudeDegrees>40.79180977307260036468505859375</LatitudeDegrees>
              <LongitudeDegrees>-3.74333423562347888946533203125</LongitudeDegrees>
            </Position>
            <AltitudeMeters>935.79998779296875</AltitudeMeters>
            <DistanceMeters>44994.774967143</DistanceMeters>
          </Trackpoint>
          <Trackpoint>
            <Time>2020-03-07T14:51:18.000Z</Time>
            <Position>
              <LatitudeDegrees>40.79185034148395061492919921875</LatitudeDegrees>
              <LongitudeDegrees>-3.74339894391596317291259765625</LongitudeDegrees>
            </Position>
            <AltitudeMeters>935.79998779296875</AltitudeMeters>
            <DistanceMeters>45001.854297921</DistanceMeters>
          </Trackpoint>
          <Trackpoint>
            <Time>2020-03-07T14:51:19.000Z</Time>
            <Position>
              <LatitudeDegrees>40.79189040698111057281494140625</LatitudeDegrees>
              <LongitudeDegrees>-3.74346449039876461029052734375</LongitudeDegrees>
            </Position>
            <AltitudeMeters>935.79998779296875</AltitudeMeters>
            <DistanceMeters>45008.952736239</DistanceMeters>
          </Trackpoint>
          <Trackpoint>
            <Time>2020-03-07T14:51:20.000Z</Time>
            <Position>
              <LatitudeDegrees>40.79192988574504852294921875</LatitudeDegrees>
              <LongitudeDegrees>-3.7435311265289783477783203125</LongitudeDegrees>
            </Position>
            <AltitudeMeters>935.79998779296875</AltitudeMeters>
            <DistanceMeters>45016.082906671</DistanceMeters>
          </Trackpoint>
          <Trackpoint>
            <Time>2020-03-07T14:51:21.000Z</Time>
            <Position>
              <LatitudeDegrees>40.7919681072235107421875</LatitudeDegrees>
              <LongitudeDegrees>-3.7435975112020969390869140625</LongitudeDegrees>
            </Position>
            <AltitudeMeters>935.79998779296875</AltitudeMeters>
            <DistanceMeters>45023.11038759</DistanceMeters>
          </Trackpoint>
          <Trackpoint>
            <Time>2020-03-07T14:51:22.000Z</Time>
            <Position>
              <LatitudeDegrees>40.792003981769084930419921875</LatitudeDegrees>
              <LongitudeDegrees>-3.74366465024650096893310546875</LongitudeDegrees>
            </Position>
            <AltitudeMeters>936</AltitudeMeters>
            <DistanceMeters>45030.034960206</DistanceMeters>
          </Trackpoint>
          <Trackpoint>
            <Time>2020-03-07T14:51:23.000Z</Time>
            <Position>
              <LatitudeDegrees>40.792038179934024810791015625</LatitudeDegrees>
              <LongitudeDegrees>-3.74372986145317554473876953125</LongitudeDegrees>
            </Position>
            <AltitudeMeters>936</AltitudeMeters>
            <DistanceMeters>45036.720006827</DistanceMeters>
          </Trackpoint>
          <Trackpoint>
            <Time>2020-03-07T14:51:24.000Z</Time>
            <Position>
              <LatitudeDegrees>40.792073048651218414306640625</LatitudeDegrees>
              <LongitudeDegrees>-3.74379121698439121246337890625</LongitudeDegrees>
            </Position>
            <AltitudeMeters>936</AltitudeMeters>
            <DistanceMeters>45043.184617703</DistanceMeters>
          </Trackpoint>
          <Trackpoint>
            <Time>2020-03-07T14:51:25.000Z</Time>
            <Position>
              <LatitudeDegrees>40.7921074144542217254638671875</LatitudeDegrees>
              <LongitudeDegrees>-3.74384888447821140289306640625</LongitudeDegrees>
            </Position>
            <AltitudeMeters>936.20001220703125</AltitudeMeters>
            <DistanceMeters>45049.369389633</DistanceMeters>
          </Trackpoint>
          <Trackpoint>
            <Time>2020-03-07T14:51:26.000Z</Time>
            <Position>
              <LatitudeDegrees>40.7921429537236690521240234375</LatitudeDegrees>
              <LongitudeDegrees>-3.7439049594104290008544921875</LongitudeDegrees>
            </Position>
            <AltitudeMeters>936.4000244140625</AltitudeMeters>
            <DistanceMeters>45055.532221897</DistanceMeters>
          </Trackpoint>
          <Trackpoint>
            <Time>2020-03-07T14:51:27.000Z</Time>
            <Position>
              <LatitudeDegrees>40.79217522405087947845458984375</LatitudeDegrees>
              <LongitudeDegrees>-3.74395868740975856781005859375</LongitudeDegrees>
            </Position>
            <AltitudeMeters>936.5999755859375</AltitudeMeters>
            <DistanceMeters>45061.310908832</DistanceMeters>
          </Trackpoint>
          <Trackpoint>
            <Time>2020-03-07T14:51:28.000Z</Time>
            <Position>
              <LatitudeDegrees>40.79220556654036045074462890625</LatitudeDegrees>
              <LongitudeDegrees>-3.7440137565135955810546875</LongitudeDegrees>
            </Position>
            <AltitudeMeters>936.5999755859375</AltitudeMeters>
            <DistanceMeters>45067.049609799</DistanceMeters>
          </Trackpoint>
          <Trackpoint>
            <Time>2020-03-07T14:51:29.000Z</Time>
            <Position>
              <LatitudeDegrees>40.79223699867725372314453125</LatitudeDegrees>
              <LongitudeDegrees>-3.74406865797936916351318359375</LongitudeDegrees>
            </Position>
            <AltitudeMeters>936.79998779296875</AltitudeMeters>
            <DistanceMeters>45072.848575628</DistanceMeters>
          </Trackpoint>
          <Trackpoint>
            <Time>2020-03-07T14:51:30.000Z</Time>
            <Position>
              <LatitudeDegrees>40.79226826317608356475830078125</LatitudeDegrees>
              <LongitudeDegrees>-3.7441212125122547149658203125</LongitudeDegrees>
            </Position>
            <AltitudeMeters>937.5999755859375</AltitudeMeters>
            <DistanceMeters>45078.480862778</DistanceMeters>
          </Trackpoint>
          <Trackpoint>
            <Time>2020-03-07T14:51:31.000Z</Time>
            <Position>
              <LatitudeDegrees>40.792299024760723114013671875</LatitudeDegrees>
              <LongitudeDegrees>-3.744172342121601104736328125</LongitudeDegrees>
            </Position>
            <AltitudeMeters>938</AltitudeMeters>
            <DistanceMeters>45083.984214157</DistanceMeters>
          </Trackpoint>
          <Trackpoint>
            <Time>2020-03-07T14:51:32.000Z</Time>
            <Position>
              <LatitudeDegrees>40.7923297025263309478759765625</LatitudeDegrees>
              <LongitudeDegrees>-3.74422389082610607147216796875</LongitudeDegrees>
            </Position>
            <AltitudeMeters>938.20001220703125</AltitudeMeters>
            <DistanceMeters>45089.508855175</DistanceMeters>
          </Trackpoint>
          <Trackpoint>
            <Time>2020-03-07T14:51:33.000Z</Time>
            <Position>
              <LatitudeDegrees>40.7923585362732410430908203125</LatitudeDegrees>
              <LongitudeDegrees>-3.7442767806351184844970703125</LongitudeDegrees>
            </Position>
            <AltitudeMeters>938.4000244140625</AltitudeMeters>
            <DistanceMeters>45095.000708716</DistanceMeters>
          </Trackpoint>
          <Trackpoint>
            <Time>2020-03-07T14:51:34.000Z</Time>
            <Position>
              <LatitudeDegrees>40.79238586127758026123046875</LatitudeDegrees>
              <LongitudeDegrees>-3.74432883225381374359130859375</LongitudeDegrees>
            </Position>
            <AltitudeMeters>938.5999755859375</AltitudeMeters>
            <DistanceMeters>45100.33745502</DistanceMeters>
          </Trackpoint>
          <Trackpoint>
            <Time>2020-03-07T14:51:35.000Z</Time>
            <Position>
              <LatitudeDegrees>40.792417041957378387451171875</LatitudeDegrees>
              <LongitudeDegrees>-3.74438297934830188751220703125</LongitudeDegrees>
            </Position>
            <AltitudeMeters>938.79998779296875</AltitudeMeters>
            <DistanceMeters>45106.069858371</DistanceMeters>
          </Trackpoint>
          <Trackpoint>
            <Time>2020-03-07T14:51:36.000Z</Time>
            <Position>
              <LatitudeDegrees>40.79244763590395450592041015625</LatitudeDegrees>
              <LongitudeDegrees>-3.7444348633289337158203125</LongitudeDegrees>
            </Position>
            <AltitudeMeters>939</AltitudeMeters>
            <DistanceMeters>45111.610820373</DistanceMeters>
          </Trackpoint>
          <Trackpoint>
            <Time>2020-03-07T14:51:37.000Z</Time>
            <Position>
              <LatitudeDegrees>40.79247898422181606292724609375</LatitudeDegrees>
              <LongitudeDegrees>-3.74448741786181926727294921875</LongitudeDegrees>
            </Position>
            <AltitudeMeters>939.20001220703125</AltitudeMeters>
            <DistanceMeters>45117.248716176</DistanceMeters>
          </Trackpoint>
          <Trackpoint>
            <Time>2020-03-07T14:51:38.000Z</Time>
            <Position>
              <LatitudeDegrees>40.79250966198742389678955078125</LatitudeDegrees>
              <LongitudeDegrees>-3.744540475308895111083984375</LongitudeDegrees>
            </Position>
            <AltitudeMeters>939.20001220703125</AltitudeMeters>
            <DistanceMeters>45122.875389083</DistanceMeters>
          </Trackpoint>
          <Trackpoint>
            <Time>2020-03-07T14:51:39.000Z</Time>
            <Position>
              <LatitudeDegrees>40.7925382442772388458251953125</LatitudeDegrees>
              <LongitudeDegrees>-3.7445936165750026702880859375</LongitudeDegrees>
            </Position>
            <AltitudeMeters>939.4000244140625</AltitudeMeters>
            <DistanceMeters>45128.367242625</DistanceMeters>
          </Trackpoint>
          <Trackpoint>
            <Time>2020-03-07T14:51:40.000Z</Time>
            <Position>
              <LatitudeDegrees>40.79256766475737094879150390625</LatitudeDegrees>
              <LongitudeDegrees>-3.744645081460475921630859375</LongitudeDegrees>
            </Position>
            <AltitudeMeters>939.5999755859375</AltitudeMeters>
            <DistanceMeters>45133.802072894</DistanceMeters>
          </Trackpoint>
          <Trackpoint>
            <Time>2020-03-07T14:51:41.000Z</Time>
            <Position>
              <LatitudeDegrees>40.79259750433266162872314453125</LatitudeDegrees>
              <LongitudeDegrees>-3.744694031774997711181640625</LongitudeDegrees>
            </Position>
            <AltitudeMeters>939.79998779296875</AltitudeMeters>
            <DistanceMeters>45139.098054147</DistanceMeters>
          </Trackpoint>
          <Trackpoint>
            <Time>2020-03-07T14:51:42.000Z</Time>
            <Position>
              <LatitudeDegrees>40.7926265895366668701171875</LatitudeDegrees>
              <LongitudeDegrees>-3.744743652641773223876953125</LongitudeDegrees>
            </Position>
            <AltitudeMeters>940</AltitudeMeters>
            <DistanceMeters>45144.385503123</DistanceMeters>
          </Trackpoint>
          <Trackpoint>
            <Time>2020-03-07T14:51:43.000Z</Time>
            <Position>
              <LatitudeDegrees>40.79265634529292583465576171875</LatitudeDegrees>
              <LongitudeDegrees>-3.7447941116988658905029296875</LongitudeDegrees>
            </Position>
            <AltitudeMeters>940.20001220703125</AltitudeMeters>
            <DistanceMeters>45149.775285671</DistanceMeters>
          </Trackpoint>
          <Trackpoint>
            <Time>2020-03-07T14:51:44.000Z</Time>
            <Position>
              <LatitudeDegrees>40.792685933411121368408203125</LatitudeDegrees>
              <LongitudeDegrees>-3.74484431929886341094970703125</LongitudeDegrees>
            </Position>
            <AltitudeMeters>940.4000244140625</AltitudeMeters>
            <DistanceMeters>45155.137352754</DistanceMeters>
          </Trackpoint>
          <Trackpoint>
            <Time>2020-03-07T14:51:45.000Z</Time>
            <Position>
              <LatitudeDegrees>40.79271401278674602508544921875</LatitudeDegrees>
              <LongitudeDegrees>-3.74489511363208293914794921875</LongitudeDegrees>
            </Position>
            <AltitudeMeters>940.5999755859375</AltitudeMeters>
            <DistanceMeters>45160.438446782</DistanceMeters>
          </Trackpoint>
          <Trackpoint>
            <Time>2020-03-07T14:51:46.000Z</Time>
            <Position>
              <LatitudeDegrees>40.7927420921623706817626953125</LatitudeDegrees>
              <LongitudeDegrees>-3.744947500526905059814453125</LongitudeDegrees>
            </Position>
            <AltitudeMeters>940.79998779296875</AltitudeMeters>
            <DistanceMeters>45165.847462189</DistanceMeters>
          </Trackpoint>
          <Trackpoint>
            <Time>2020-03-07T14:51:47.000Z</Time>
            <Position>
              <LatitudeDegrees>40.79277067445218563079833984375</LatitudeDegrees>
              <LongitudeDegrees>-3.7449996359646320343017578125</LongitudeDegrees>
            </Position>
            <AltitudeMeters>941</AltitudeMeters>
            <DistanceMeters>45171.27064935</DistanceMeters>
          </Trackpoint>
          <Trackpoint>
            <Time>2020-03-07T14:51:48.000Z</Time>
            <Position>
              <LatitudeDegrees>40.79279699362814426422119140625</LatitudeDegrees>
              <LongitudeDegrees>-3.74505302868783473968505859375</LongitudeDegrees>
            </Position>
            <AltitudeMeters>941</AltitudeMeters>
            <DistanceMeters>45176.640289383</DistanceMeters>
          </Trackpoint>
          <Trackpoint>
            <Time>2020-03-07T14:51:49.000Z</Time>
            <Position>
              <LatitudeDegrees>40.7928215526044368743896484375</LatitudeDegrees>
              <LongitudeDegrees>-3.74510742723941802978515625</LongitudeDegrees>
            </Position>
            <AltitudeMeters>941.20001220703125</AltitudeMeters>
            <DistanceMeters>45181.977881647</DistanceMeters>
          </Trackpoint>
          <Trackpoint>
            <Time>2020-03-07T14:51:50.000Z</Time>
            <Position>
              <LatitudeDegrees>40.79284594394266605377197265625</LatitudeDegrees>
              <LongitudeDegrees>-3.74516107141971588134765625</LongitudeDegrees>
            </Position>
            <AltitudeMeters>941.20001220703125</AltitudeMeters>
            <DistanceMeters>45187.250794065</DistanceMeters>
          </Trackpoint>
          <Trackpoint>
            <Time>2020-03-07T14:51:51.000Z</Time>
            <Position>
              <LatitudeDegrees>40.79287310130894184112548828125</LatitudeDegrees>
              <LongitudeDegrees>-3.7452113628387451171875</LongitudeDegrees>
            </Position>
            <AltitudeMeters>941.4000244140625</AltitudeMeters>
            <DistanceMeters>45192.456488967</DistanceMeters>
          </Trackpoint>
          <Trackpoint>
            <Time>2020-03-07T14:51:52.000Z</Time>
            <Position>
              <LatitudeDegrees>40.79290444962680339813232421875</LatitudeDegrees>
              <LongitudeDegrees>-3.74525872059166431427001953125</LongitudeDegrees>
            </Position>
            <AltitudeMeters>941.4000244140625</AltitudeMeters>
            <DistanceMeters>45197.757582995</DistanceMeters>
          </Trackpoint>
          <Trackpoint>
            <Time>2020-03-07T14:51:53.000Z</Time>
            <Position>
              <LatitudeDegrees>40.79293697141110897064208984375</LatitudeDegrees>
              <LongitudeDegrees>-3.74530591070652008056640625</LongitudeDegrees>
            </Position>
            <AltitudeMeters>941.5999755859375</AltitudeMeters>
            <DistanceMeters>45203.135624911</DistanceMeters>
          </Trackpoint>
          <Trackpoint>
            <Time>2020-03-07T14:51:54.000Z</Time>
            <Position>
              <LatitudeDegrees>40.792968235909938812255859375</LatitudeDegrees>
              <LongitudeDegrees>-3.7453540228307247161865234375</LongitudeDegrees>
            </Position>
            <AltitudeMeters>941.5999755859375</AltitudeMeters>
            <DistanceMeters>45208.477444972</DistanceMeters>
          </Trackpoint>
          <Trackpoint>
            <Time>2020-03-07T14:51:55.000Z</Time>
            <Position>
              <LatitudeDegrees>40.7929980754852294921875</LatitudeDegrees>
              <LongitudeDegrees>-3.7454023025929927825927734375</LongitudeDegrees>
            </Position>
            <AltitudeMeters>942</AltitudeMeters>
            <DistanceMeters>45213.728907003</DistanceMeters>
          </Trackpoint>
          <Trackpoint>
            <Time>2020-03-07T14:51:56.000Z</Time>
            <Position>
              <LatitudeDegrees>40.79302766360342502593994140625</LatitudeDegrees>
              <LongitudeDegrees>-3.7454505823552608489990234375</LongitudeDegrees>
            </Position>
            <AltitudeMeters>942.20001220703125</AltitudeMeters>
            <DistanceMeters>45218.963145432</DistanceMeters>
          </Trackpoint>
          <Trackpoint>
            <Time>2020-03-07T14:51:57.000Z</Time>
            <Position>
              <LatitudeDegrees>40.7930562458932399749755859375</LatitudeDegrees>
              <LongitudeDegrees>-3.74549777247011661529541015625</LongitudeDegrees>
            </Position>
            <AltitudeMeters>942.20001220703125</AltitudeMeters>
            <DistanceMeters>45224.054839597</DistanceMeters>
          </Trackpoint>
          <Trackpoint>
            <Time>2020-03-07T14:51:58.000Z</Time>
            <Position>
              <LatitudeDegrees>40.7930857501924037933349609375</LatitudeDegrees>
              <LongitudeDegrees>-3.745544962584972381591796875</LongitudeDegrees>
            </Position>
            <AltitudeMeters>942.5999755859375</AltitudeMeters>
            <DistanceMeters>45229.211735478</DistanceMeters>
          </Trackpoint>
          <Trackpoint>
            <Time>2020-03-07T14:51:59.000Z</Time>
            <Position>
              <LatitudeDegrees>40.7931152544915676116943359375</LatitudeDegrees>
              <LongitudeDegrees>-3.74559156596660614013671875</LongitudeDegrees>
            </Position>
            <AltitudeMeters>942.79998779296875</AltitudeMeters>
            <DistanceMeters>45234.330844955</DistanceMeters>
          </Trackpoint>
          <Trackpoint>
            <Time>2020-03-07T14:52:00.000Z</Time>
            <Position>
              <LatitudeDegrees>40.79314266331493854522705078125</LatitudeDegrees>
              <LongitudeDegrees>-3.745637834072113037109375</LongitudeDegrees>
            </Position>
            <AltitudeMeters>943</AltitudeMeters>
            <DistanceMeters>45239.281362854</DistanceMeters>
          </Trackpoint>
          <Trackpoint>
            <Time>2020-03-07T14:52:01.000Z</Time>
            <Position>
              <LatitudeDegrees>40.793170072138309478759765625</LatitudeDegrees>
              <LongitudeDegrees>-3.7456869520246982574462890625</LongitudeDegrees>
            </Position>
            <AltitudeMeters>943.20001220703125</AltitudeMeters>
            <DistanceMeters>45244.422474966</DistanceMeters>
          </Trackpoint>
          <Trackpoint>
            <Time>2020-03-07T14:52:02.000Z</Time>
            <Position>
              <LatitudeDegrees>40.79319580458104610443115234375</LatitudeDegrees>
              <LongitudeDegrees>-3.74573246575891971588134765625</LongitudeDegrees>
            </Position>
            <AltitudeMeters>943.4000244140625</AltitudeMeters>
            <DistanceMeters>45249.208841431</DistanceMeters>
          </Trackpoint>
          <Trackpoint>
            <Time>2020-03-07T14:52:03.000Z</Time>
            <Position>
              <LatitudeDegrees>40.79322346486151218414306640625</LatitudeDegrees>
              <LongitudeDegrees>-3.74578175134956836700439453125</LongitudeDegrees>
            </Position>
            <AltitudeMeters>943.79998779296875</AltitudeMeters>
            <DistanceMeters>45254.378853644</DistanceMeters>
          </Trackpoint>
          <Trackpoint>
            <Time>2020-03-07T14:52:04.000Z</Time>
            <Position>
              <LatitudeDegrees>40.7932520471513271331787109375</LatitudeDegrees>
              <LongitudeDegrees>-3.74583170749247074127197265625</LongitudeDegrees>
            </Position>
            <AltitudeMeters>944.20001220703125</AltitudeMeters>
            <DistanceMeters>45259.654334247</DistanceMeters>
          </Trackpoint>
          <Trackpoint>
            <Time>2020-03-07T14:52:05.000Z</Time>
            <Position>
              <LatitudeDegrees>40.79327928833663463592529296875</LatitudeDegrees>
              <LongitudeDegrees>-3.7458810769021511077880859375</LongitudeDegrees>
            </Position>
            <AltitudeMeters>944.4000244140625</AltitudeMeters>
            <DistanceMeters>45264.801590243</DistanceMeters>
          </Trackpoint>
          <Trackpoint>
            <Time>2020-03-07T14:52:06.000Z</Time>
            <Position>
              <LatitudeDegrees>40.79330644570291042327880859375</LatitudeDegrees>
              <LongitudeDegrees>-3.745931200683116912841796875</LongitudeDegrees>
            </Position>
            <AltitudeMeters>944.5999755859375</AltitudeMeters>
            <DistanceMeters>45269.99599766</DistanceMeters>
          </Trackpoint>
          <Trackpoint>
            <Time>2020-03-07T14:52:07.000Z</Time>
            <Position>
              <LatitudeDegrees>40.793339051306247711181640625</LatitudeDegrees>
              <LongitudeDegrees>-3.74598945491015911102294921875</LongitudeDegrees>
            </Position>
            <AltitudeMeters>944.79998779296875</AltitudeMeters>
            <DistanceMeters>45276.100678281</DistanceMeters>
          </Trackpoint>
          <Trackpoint>
            <Time>2020-03-07T14:52:08.000Z</Time>
            <Position>
              <LatitudeDegrees>40.79336746595799922943115234375</LatitudeDegrees>
              <LongitudeDegrees>-3.74603949487209320068359375</LongitudeDegrees>
            </Position>
            <AltitudeMeters>944.79998779296875</AltitudeMeters>
            <DistanceMeters>45281.371021263</DistanceMeters>
          </Trackpoint>
          <Trackpoint>
            <Time>2020-03-07T14:52:09.000Z</Time>
            <Position>
              <LatitudeDegrees>40.79339512623846530914306640625</LatitudeDegrees>
              <LongitudeDegrees>-3.74608919955790042877197265625</LongitudeDegrees>
            </Position>
            <AltitudeMeters>945</AltitudeMeters>
            <DistanceMeters>45286.568904362</DistanceMeters>
          </Trackpoint>
          <Trackpoint>
            <Time>2020-03-07T14:52:10.000Z</Time>
            <Position>
              <LatitudeDegrees>40.79342253506183624267578125</LatitudeDegrees>
              <LongitudeDegrees>-3.7461382336914539337158203125</LongitudeDegrees>
            </Position>
            <AltitudeMeters>945.20001220703125</AltitudeMeters>
            <DistanceMeters>45291.704744439</DistanceMeters>
          </Trackpoint>
          <Trackpoint>
            <Time>2020-03-07T14:52:11.000Z</Time>
            <Position>
              <LatitudeDegrees>40.793451033532619476318359375</LatitudeDegrees>
              <LongitudeDegrees>-3.74618567526340484619140625</LongitudeDegrees>
            </Position>
            <AltitudeMeters>945.4000244140625</AltitudeMeters>
            <DistanceMeters>45296.807953279</DistanceMeters>
          </Trackpoint>
          <Trackpoint>
            <Time>2020-03-07T14:52:12.000Z</Time>
            <Position>
              <LatitudeDegrees>40.79347911290824413299560546875</LatitudeDegrees>
              <LongitudeDegrees>-3.74623320065438747406005859375</LongitudeDegrees>
            </Position>
            <AltitudeMeters>945.5999755859375</AltitudeMeters>
            <DistanceMeters>45301.88810667</DistanceMeters>
          </Trackpoint>
          <Trackpoint>
            <Time>2020-03-07T14:52:13.000Z</Time>
            <Position>
              <LatitudeDegrees>40.793507359921932220458984375</LatitudeDegrees>
              <LongitudeDegrees>-3.74628064222633838653564453125</LongitudeDegrees>
            </Position>
            <AltitudeMeters>945.5999755859375</AltitudeMeters>
            <DistanceMeters>45306.973589827</DistanceMeters>
          </Trackpoint>
          <Trackpoint>
            <Time>2020-03-07T14:52:14.000Z</Time>
            <Position>
              <LatitudeDegrees>40.79353644512593746185302734375</LatitudeDegrees>
              <LongitudeDegrees>-3.7463286705315113067626953125</LongitudeDegrees>
            </Position>
            <AltitudeMeters>945.79998779296875</AltitudeMeters>
            <DistanceMeters>45312.155813996</DistanceMeters>
          </Trackpoint>
          <Trackpoint>
            <Time>2020-03-07T14:52:15.000Z</Time>
            <Position>
              <LatitudeDegrees>40.79356594942510128021240234375</LatitudeDegrees>
              <LongitudeDegrees>-3.7463772855699062347412109375</LongitudeDegrees>
            </Position>
            <AltitudeMeters>945.79998779296875</AltitudeMeters>
            <DistanceMeters>45317.40555621</DistanceMeters>
          </Trackpoint>
          <Trackpoint>
            <Time>2020-03-07T14:52:16.000Z</Time>
            <Position>
              <LatitudeDegrees>40.79359528608620166778564453125</LatitudeDegrees>
              <LongitudeDegrees>-3.74642782844603061676025390625</LongitudeDegrees>
            </Position>
            <AltitudeMeters>946</AltitudeMeters>
            <DistanceMeters>45322.772673113</DistanceMeters>
          </Trackpoint>
          <Trackpoint>
            <Time>2020-03-07T14:52:17.000Z</Time>
            <Position>
              <LatitudeDegrees>40.79362344928085803985595703125</LatitudeDegrees>
              <LongitudeDegrees>-3.7464782036840915679931640625</LongitudeDegrees>
            </Position>
            <AltitudeMeters>946</AltitudeMeters>
            <DistanceMeters>45328.049009501</DistanceMeters>
          </Trackpoint>
          <Trackpoint>
            <Time>2020-03-07T14:52:18.000Z</Time>
            <Position>
              <LatitudeDegrees>40.793652199208736419677734375</LatitudeDegrees>
              <LongitudeDegrees>-3.74652790836989879608154296875</LongitudeDegrees>
            </Position>
            <AltitudeMeters>946</AltitudeMeters>
            <DistanceMeters>45333.319352482</DistanceMeters>
          </Trackpoint>
          <Trackpoint>
            <Time>2020-03-07T14:52:19.000Z</Time>
            <Position>
              <LatitudeDegrees>40.79368128441274166107177734375</LatitudeDegrees>
              <LongitudeDegrees>-3.74657836742699146270751953125</LongitudeDegrees>
            </Position>
            <AltitudeMeters>946.20001220703125</AltitudeMeters>
            <DistanceMeters>45338.662862725</DistanceMeters>
          </Trackpoint>
          <Trackpoint>
            <Time>2020-03-07T14:52:20.000Z</Time>
            <Position>
              <LatitudeDegrees>40.793709866702556610107421875</LatitudeDegrees>
              <LongitudeDegrees>-3.74662899412214756011962890625</LongitudeDegrees>
            </Position>
            <AltitudeMeters>946.5999755859375</AltitudeMeters>
            <DistanceMeters>45343.98351021</DistanceMeters>
          </Trackpoint>
          <Trackpoint>
            <Time>2020-03-07T14:52:21.000Z</Time>
            <Position>
              <LatitudeDegrees>40.793738700449466705322265625</LatitudeDegrees>
              <LongitudeDegrees>-3.7466783635318279266357421875</LongitudeDegrees>
            </Position>
            <AltitudeMeters>946.79998779296875</AltitudeMeters>
            <DistanceMeters>45349.238410186</DistanceMeters>
          </Trackpoint>
          <Trackpoint>
            <Time>2020-03-07T14:52:22.000Z</Time>
            <Position>
              <LatitudeDegrees>40.793766863644123077392578125</LatitudeDegrees>
              <LongitudeDegrees>-3.74672924168407917022705078125</LongitudeDegrees>
            </Position>
            <AltitudeMeters>947</AltitudeMeters>
            <DistanceMeters>45354.549714999</DistanceMeters>
          </Trackpoint>
          <Trackpoint>
            <Time>2020-03-07T14:52:23.000Z</Time>
            <Position>
              <LatitudeDegrees>40.79379343427717685699462890625</LatitudeDegrees>
              <LongitudeDegrees>-3.74677978456020355224609375</LongitudeDegrees>
            </Position>
            <AltitudeMeters>947.4000244140625</AltitudeMeters>
            <DistanceMeters>45359.735423017</DistanceMeters>
          </Trackpoint>
          <Trackpoint>
            <Time>2020-03-07T14:52:24.000Z</Time>
            <Position>
              <LatitudeDegrees>40.79382059164345264434814453125</LatitudeDegrees>
              <LongitudeDegrees>-3.74682948924601078033447265625</LongitudeDegrees>
            </Position>
            <AltitudeMeters>947.4000244140625</AltitudeMeters>
            <DistanceMeters>45364.900192694</DistanceMeters>
          </Trackpoint>
          <Trackpoint>
            <Time>2020-03-07T14:52:25.000Z</Time>
            <Position>
              <LatitudeDegrees>40.7938485033810138702392578125</LatitudeDegrees>
              <LongitudeDegrees>-3.74687810428440570831298828125</LongitudeDegrees>
            </Position>
            <AltitudeMeters>947.5999755859375</AltitudeMeters>
            <DistanceMeters>45370.042182953</DistanceMeters>
          </Trackpoint>
          <Trackpoint>
            <Time>2020-03-07T14:52:26.000Z</Time>
            <Position>
              <LatitudeDegrees>40.79387658275663852691650390625</LatitudeDegrees>
              <LongitudeDegrees>-3.7469261325895786285400390625</LongitudeDegrees>
            </Position>
            <AltitudeMeters>947.79998779296875</AltitudeMeters>
            <DistanceMeters>45375.155997712</DistanceMeters>
          </Trackpoint>
          <Trackpoint>
            <Time>2020-03-07T14:52:27.000Z</Time>
            <Position>
              <LatitudeDegrees>40.7939048297703266143798828125</LatitudeDegrees>
              <LongitudeDegrees>-3.746974579989910125732421875</LongitudeDegrees>
            </Position>
            <AltitudeMeters>948</AltitudeMeters>
            <DistanceMeters>45380.308514062</DistanceMeters>
          </Trackpoint>
          <Trackpoint>
            <Time>2020-03-07T14:52:28.000Z</Time>
            <Position>
              <LatitudeDegrees>40.79393290914595127105712890625</LatitudeDegrees>
              <LongitudeDegrees>-3.74702244065701961517333984375</LongitudeDegrees>
            </Position>
            <AltitudeMeters>948.20001220703125</AltitudeMeters>
            <DistanceMeters>45385.410838081</DistanceMeters>
          </Trackpoint>
          <Trackpoint>
            <Time>2020-03-07T14:52:29.000Z</Time>
            <Position>
              <LatitudeDegrees>40.793960653245449066162109375</LatitudeDegrees>
              <LongitudeDegrees>-3.74707105569541454315185546875</LongitudeDegrees>
            </Position>
            <AltitudeMeters>948.20001220703125</AltitudeMeters>
            <DistanceMeters>45390.540520601</DistanceMeters>
          </Trackpoint>
          <Trackpoint>
            <Time>2020-03-07T14:52:30.000Z</Time>
            <Position>
              <LatitudeDegrees>40.79398722387850284576416015625</LatitudeDegrees>
              <LongitudeDegrees>-3.74711900018155574798583984375</LongitudeDegrees>
            </Position>
            <AltitudeMeters>948.4000244140625</AltitudeMeters>
            <DistanceMeters>45395.547265273</DistanceMeters>
          </Trackpoint>
          <Trackpoint>
            <Time>2020-03-07T14:52:31.000Z</Time>
            <Position>
              <LatitudeDegrees>40.79401396214962005615234375</LatitudeDegrees>
              <LongitudeDegrees>-3.7471685372292995452880859375</LongitudeDegrees>
            </Position>
            <AltitudeMeters>948.79998779296875</AltitudeMeters>
            <DistanceMeters>45400.673425868</DistanceMeters>
          </Trackpoint>
          <Trackpoint>
            <Time>2020-03-07T14:52:32.000Z</Time>
            <Position>
              <LatitudeDegrees>40.7940419577062129974365234375</LatitudeDegrees>
              <LongitudeDegrees>-3.74721824191510677337646484375</LongitudeDegrees>
            </Position>
            <AltitudeMeters>949</AltitudeMeters>
            <DistanceMeters>45405.892114454</DistanceMeters>
          </Trackpoint>
          <Trackpoint>
            <Time>2020-03-07T14:52:33.000Z</Time>
            <Position>
              <LatitudeDegrees>40.7940687797963619232177734375</LatitudeDegrees>
              <LongitudeDegrees>-3.7472672760486602783203125</LongitudeDegrees>
            </Position>
            <AltitudeMeters>949.20001220703125</AltitudeMeters>
            <DistanceMeters>45410.988240419</DistanceMeters>
          </Trackpoint>
          <Trackpoint>
            <Time>2020-03-07T14:52:34.000Z</Time>
            <Position>
              <LatitudeDegrees>40.7940959371626377105712890625</LatitudeDegrees>
              <LongitudeDegrees>-3.74731580726802349090576171875</LongitudeDegrees>
            </Position>
            <AltitudeMeters>949.4000244140625</AltitudeMeters>
            <DistanceMeters>45416.073723576</DistanceMeters>
          </Trackpoint>
          <Trackpoint>
            <Time>2020-03-07T14:52:35.000Z</Time>
            <Position>
              <LatitudeDegrees>40.79412234015762805938720703125</LatitudeDegrees>
              <LongitudeDegrees>-3.747364841401576995849609375</LongitudeDegrees>
            </Position>
            <AltitudeMeters>949.5999755859375</AltitudeMeters>
            <DistanceMeters>45421.143200626</DistanceMeters>
          </Trackpoint>
          <Trackpoint>
            <Time>2020-03-07T14:52:36.000Z</Time>
            <Position>
              <LatitudeDegrees>40.79414748586714267730712890625</LatitudeDegrees>
              <LongitudeDegrees>-3.74741270206868648529052734375</LongitudeDegrees>
            </Position>
            <AltitudeMeters>949.79998779296875</AltitudeMeters>
            <DistanceMeters>45426.051585691</DistanceMeters>
          </Trackpoint>
          <Trackpoint>
            <Time>2020-03-07T14:52:37.000Z</Time>
            <Position>
              <LatitudeDegrees>40.7941743917763233184814453125</LatitudeDegrees>
              <LongitudeDegrees>-3.747461736202239990234375</LongitudeDegrees>
            </Position>
            <AltitudeMeters>950</AltitudeMeters>
            <DistanceMeters>45431.153909709</DistanceMeters>
          </Trackpoint>
          <Trackpoint>
            <Time>2020-03-07T14:52:38.000Z</Time>
            <Position>
              <LatitudeDegrees>40.7942002080380916595458984375</LatitudeDegrees>
              <LongitudeDegrees>-3.74750926159322261810302734375</LongitudeDegrees>
            </Position>
            <AltitudeMeters>950</AltitudeMeters>
            <DistanceMeters>45436.083406206</DistanceMeters>
          </Trackpoint>
          <Trackpoint>
            <Time>2020-03-07T14:52:39.000Z</Time>
            <Position>
              <LatitudeDegrees>40.7942260242998600006103515625</LatitudeDegrees>
              <LongitudeDegrees>-3.74755896627902984619140625</LongitudeDegrees>
            </Position>
            <AltitudeMeters>950.20001220703125</AltitudeMeters>
            <DistanceMeters>45441.161781766</DistanceMeters>
          </Trackpoint>
          <Trackpoint>
            <Time>2020-03-07T14:52:40.000Z</Time>
            <Position>
              <LatitudeDegrees>40.7942515052855014801025390625</LatitudeDegrees>
              <LongitudeDegrees>-3.7476070784032344818115234375</LongitudeDegrees>
            </Position>
            <AltitudeMeters>950.4000244140625</AltitudeMeters>
            <DistanceMeters>45446.108650186</DistanceMeters>
          </Trackpoint>
          <Trackpoint>
            <Time>2020-03-07T14:52:41.000Z</Time>
            <Position>
              <LatitudeDegrees>40.7942788302898406982421875</LatitudeDegrees>
              <LongitudeDegrees>-3.7476536817848682403564453125</LongitudeDegrees>
            </Position>
            <AltitudeMeters>950.5999755859375</AltitudeMeters>
            <DistanceMeters>45451.076466499</DistanceMeters>
          </Trackpoint>
          <Trackpoint>
            <Time>2020-03-07T14:52:42.000Z</Time>
            <Position>
              <LatitudeDegrees>40.7943069934844970703125</LatitudeDegrees>
              <LongitudeDegrees>-3.74769902788102626800537109375</LongitudeDegrees>
            </Position>
            <AltitudeMeters>950.79998779296875</AltitudeMeters>
            <DistanceMeters>45456.019682745</DistanceMeters>
          </Trackpoint>
          <Trackpoint>
            <Time>2020-03-07T14:52:43.000Z</Time>
            <Position>
              <LatitudeDegrees>40.79433607868850231170654296875</LatitudeDegrees>
              <LongitudeDegrees>-3.74774479307234287261962890625</LongitudeDegrees>
            </Position>
            <AltitudeMeters>951</AltitudeMeters>
            <DistanceMeters>45461.055202048</DistanceMeters>
          </Trackpoint>
          <Trackpoint>
            <Time>2020-03-07T14:52:44.000Z</Time>
            <Position>
              <LatitudeDegrees>40.7943646609783172607421875</LatitudeDegrees>
              <LongitudeDegrees>-3.74779106117784976959228515625</LongitudeDegrees>
            </Position>
            <AltitudeMeters>951.20001220703125</AltitudeMeters>
            <DistanceMeters>45466.087133521</DistanceMeters>
          </Trackpoint>
          <Trackpoint>
            <Time>2020-03-07T14:52:45.000Z</Time>
            <Position>
              <LatitudeDegrees>40.79439341090619564056396484375</LatitudeDegrees>
              <LongitudeDegrees>-3.747837245464324951171875</LongitudeDegrees>
            </Position>
            <AltitudeMeters>951.4000244140625</AltitudeMeters>
            <DistanceMeters>45471.126238101</DistanceMeters>
          </Trackpoint>
          <Trackpoint>
            <Time>2020-03-07T14:52:46.000Z</Time>
            <Position>
              <LatitudeDegrees>40.79442308284342288970947265625</LatitudeDegrees>
              <LongitudeDegrees>-3.74788493849337100982666015625</LongitudeDegrees>
            </Position>
            <AltitudeMeters>951.4000244140625</AltitudeMeters>
            <DistanceMeters>45476.328462538</DistanceMeters>
          </Trackpoint>
          <Trackpoint>
            <Time>2020-03-07T14:52:47.000Z</Time>
            <Position>
              <LatitudeDegrees>40.7944526709616184234619140625</LatitudeDegrees>
              <LongitudeDegrees>-3.74793472699820995330810546875</LongitudeDegrees>
            </Position>
            <AltitudeMeters>951.5999755859375</AltitudeMeters>
            <DistanceMeters>45481.661823655</DistanceMeters>
          </Trackpoint>
          <Trackpoint>
            <Time>2020-03-07T14:52:48.000Z</Time>
            <Position>
              <LatitudeDegrees>40.7944821752607822418212890625</LatitudeDegrees>
              <LongitudeDegrees>-3.74798476696014404296875</LongitudeDegrees>
            </Position>
            <AltitudeMeters>951.79998779296875</AltitudeMeters>
            <DistanceMeters>45487.007023545</DistanceMeters>
          </Trackpoint>
          <Trackpoint>
            <Time>2020-03-07T14:52:49.000Z</Time>
            <Position>
              <LatitudeDegrees>40.79451058991253376007080078125</LatitudeDegrees>
              <LongitudeDegrees>-3.7480365671217441558837890625</LongitudeDegrees>
            </Position>
            <AltitudeMeters>952</AltitudeMeters>
            <DistanceMeters>45492.397643732</DistanceMeters>
          </Trackpoint>
          <Trackpoint>
            <Time>2020-03-07T14:52:50.000Z</Time>
            <Position>
              <LatitudeDegrees>40.79453724436461925506591796875</LatitudeDegrees>
              <LongitudeDegrees>-3.7480905465781688690185546875</LongitudeDegrees>
            </Position>
            <AltitudeMeters>952.20001220703125</AltitudeMeters>
            <DistanceMeters>45497.828318613</DistanceMeters>
          </Trackpoint>
          <Trackpoint>
            <Time>2020-03-07T14:52:51.000Z</Time>
            <Position>
              <LatitudeDegrees>40.79456473700702190399169921875</LatitudeDegrees>
              <LongitudeDegrees>-3.7481435202062129974365234375</LongitudeDegrees>
            </Position>
            <AltitudeMeters>952.4000244140625</AltitudeMeters>
            <DistanceMeters>45503.239837615</DistanceMeters>
          </Trackpoint>
          <Trackpoint>
            <Time>2020-03-07T14:52:52.000Z</Time>
            <Position>
              <LatitudeDegrees>40.79459273256361484527587890625</LatitudeDegrees>
              <LongitudeDegrees>-3.74819791875779628753662109375</LongitudeDegrees>
            </Position>
            <AltitudeMeters>952.4000244140625</AltitudeMeters>
            <DistanceMeters>45508.782429072</DistanceMeters>
          </Trackpoint>
          <Trackpoint>
            <Time>2020-03-07T14:52:53.000Z</Time>
            <Position>
              <LatitudeDegrees>40.7946189679205417633056640625</LatitudeDegrees>
              <LongitudeDegrees>-3.74825106002390384674072265625</LongitudeDegrees>
            </Position>
            <AltitudeMeters>952.79998779296875</AltitudeMeters>
            <DistanceMeters>45514.127628963</DistanceMeters>
          </Trackpoint>
          <Trackpoint>
            <Time>2020-03-07T14:52:54.000Z</Time>
            <Position>
              <LatitudeDegrees>40.79464553855359554290771484375</LatitudeDegrees>
              <LongitudeDegrees>-3.74830369837582111358642578125</LongitudeDegrees>
            </Position>
            <AltitudeMeters>953</AltitudeMeters>
            <DistanceMeters>45519.457602743</DistanceMeters>
          </Trackpoint>
          <Trackpoint>
            <Time>2020-03-07T14:52:55.000Z</Time>
            <Position>
              <LatitudeDegrees>40.79467420466244220733642578125</LatitudeDegrees>
              <LongitudeDegrees>-3.74835432507097721099853515625</LongitudeDegrees>
            </Position>
            <AltitudeMeters>953.20001220703125</AltitudeMeters>
            <DistanceMeters>45524.785034606</DistanceMeters>
          </Trackpoint>
          <Trackpoint>
            <Time>2020-03-07T14:52:56.000Z</Time>
            <Position>
              <LatitudeDegrees>40.7947047986090183258056640625</LatitudeDegrees>
              <LongitudeDegrees>-3.74840394593775272369384765625</LongitudeDegrees>
            </Position>
            <AltitudeMeters>953.4000244140625</AltitudeMeters>
            <DistanceMeters>45530.177329679</DistanceMeters>
          </Trackpoint>
          <Trackpoint>
            <Time>2020-03-07T14:52:57.000Z</Time>
            <Position>
              <LatitudeDegrees>40.79473706893622875213623046875</LatitudeDegrees>
              <LongitudeDegrees>-3.748453147709369659423828125</LongitudeDegrees>
            </Position>
            <AltitudeMeters>953.5999755859375</AltitudeMeters>
            <DistanceMeters>45535.662602207</DistanceMeters>
          </Trackpoint>
          <Trackpoint>
            <Time>2020-03-07T14:52:58.000Z</Time>
            <Position>
              <LatitudeDegrees>40.79477042891085147857666015625</LatitudeDegrees>
              <LongitudeDegrees>-3.74850310385227203369140625</LongitudeDegrees>
            </Position>
            <AltitudeMeters>953.5999755859375</AltitudeMeters>
            <DistanceMeters>45541.275617147</DistanceMeters>
          </Trackpoint>
          <Trackpoint>
            <Time>2020-03-07T14:52:59.000Z</Time>
            <Position>
              <LatitudeDegrees>40.79480362124741077423095703125</LatitudeDegrees>
              <LongitudeDegrees>-3.748553730547428131103515625</LongitudeDegrees>
            </Position>
            <AltitudeMeters>953.79998779296875</AltitudeMeters>
            <DistanceMeters>45546.918315929</DistanceMeters>
          </Trackpoint>
          <Trackpoint>
            <Time>2020-03-07T14:53:00.000Z</Time>
            <Position>
              <LatitudeDegrees>40.794836394488811492919921875</LatitudeDegrees>
              <LongitudeDegrees>-3.74860645271837711334228515625</LongitudeDegrees>
            </Position>
            <AltitudeMeters>954</AltitudeMeters>
            <DistanceMeters>45552.666450383</DistanceMeters>
          </Trackpoint>
          <Trackpoint>
            <Time>2020-03-07T14:53:01.000Z</Time>
            <Position>
              <LatitudeDegrees>40.79486883245408535003662109375</LatitudeDegrees>
              <LongitudeDegrees>-3.74865976162254810333251953125</LongitudeDegrees>
            </Position>
            <AltitudeMeters>954</AltitudeMeters>
            <DistanceMeters>45558.431056295</DistanceMeters>
          </Trackpoint>
          <Trackpoint>
            <Time>2020-03-07T14:53:02.000Z</Time>
            <Position>
              <LatitudeDegrees>40.7949012704193592071533203125</LatitudeDegrees>
              <LongitudeDegrees>-3.74871273525059223175048828125</LongitudeDegrees>
            </Position>
            <AltitudeMeters>954.20001220703125</AltitudeMeters>
            <DistanceMeters>45564.17290348</DistanceMeters>
          </Trackpoint>
          <Trackpoint>
            <Time>2020-03-07T14:53:03.000Z</Time>
            <Position>
              <LatitudeDegrees>40.7949327863752841949462890625</LatitudeDegrees>
              <LongitudeDegrees>-3.74876570887863636016845703125</LongitudeDegrees>
            </Position>
            <AltitudeMeters>954.4000244140625</AltitudeMeters>
            <DistanceMeters>45569.850699963</DistanceMeters>
          </Trackpoint>
          <Trackpoint>
            <Time>2020-03-07T14:53:04.000Z</Time>
            <Position>
              <LatitudeDegrees>40.794963799417018890380859375</LatitudeDegrees>
              <LongitudeDegrees>-3.74881885014474391937255859375</LongitudeDegrees>
            </Position>
            <AltitudeMeters>954.5999755859375</AltitudeMeters>
            <DistanceMeters>45575.502992459</DistanceMeters>
          </Trackpoint>
          <Trackpoint>
            <Time>2020-03-07T14:53:05.000Z</Time>
            <Position>
              <LatitudeDegrees>40.79499422572553157806396484375</LatitudeDegrees>
              <LongitudeDegrees>-3.748873583972454071044921875</LongitudeDegrees>
            </Position>
            <AltitudeMeters>954.79998779296875</AltitudeMeters>
            <DistanceMeters>45581.225147401</DistanceMeters>
          </Trackpoint>
          <Trackpoint>
            <Time>2020-03-07T14:53:06.000Z</Time>
            <Position>
              <LatitudeDegrees>40.79502339474856853485107421875</LatitudeDegrees>
              <LongitudeDegrees>-3.748927898705005645751953125</LongitudeDegrees>
            </Position>
            <AltitudeMeters>955</AltitudeMeters>
            <DistanceMeters>45586.83574866</DistanceMeters>
          </Trackpoint>
          <Trackpoint>
            <Time>2020-03-07T14:53:07.000Z</Time>
            <Position>
              <LatitudeDegrees>40.79505356959998607635498046875</LatitudeDegrees>
              <LongitudeDegrees>-3.74898179434239864349365234375</LongitudeDegrees>
            </Position>
            <AltitudeMeters>955</AltitudeMeters>
            <DistanceMeters>45592.484045755</DistanceMeters>
          </Trackpoint>
          <Trackpoint>
            <Time>2020-03-07T14:53:08.000Z</Time>
            <Position>
              <LatitudeDegrees>40.79508483409881591796875</LatitudeDegrees>
              <LongitudeDegrees>-3.74903208576142787933349609375</LongitudeDegrees>
            </Position>
            <AltitudeMeters>955.20001220703125</AltitudeMeters>
            <DistanceMeters>45597.967671796</DistanceMeters>
          </Trackpoint>
          <Trackpoint>
            <Time>2020-03-07T14:53:09.000Z</Time>
            <Position>
              <LatitudeDegrees>40.795115344226360321044921875</LatitudeDegrees>
              <LongitudeDegrees>-3.7490831315517425537109375</LongitudeDegrees>
            </Position>
            <AltitudeMeters>955.20001220703125</AltitudeMeters>
            <DistanceMeters>45603.448003379</DistanceMeters>
          </Trackpoint>
          <Trackpoint>
            <Time>2020-03-07T14:53:10.000Z</Time>
            <Position>
              <LatitudeDegrees>40.795143507421016693115234375</LatitudeDegrees>
              <LongitudeDegrees>-3.74913585372269153594970703125</LongitudeDegrees>
            </Position>
            <AltitudeMeters>955.4000244140625</AltitudeMeters>
            <DistanceMeters>45608.885325355</DistanceMeters>
          </Trackpoint>
          <Trackpoint>
            <Time>2020-03-07T14:53:11.000Z</Time>
            <Position>
              <LatitudeDegrees>40.795171000063419342041015625</LatitudeDegrees>
              <LongitudeDegrees>-3.74918849207460880279541015625</LongitudeDegrees>
            </Position>
            <AltitudeMeters>955.4000244140625</AltitudeMeters>
            <DistanceMeters>45614.273432237</DistanceMeters>
          </Trackpoint>
          <Trackpoint>
            <Time>2020-03-07T14:53:12.000Z</Time>
            <Position>
              <LatitudeDegrees>40.79519840888679027557373046875</LatitudeDegrees>
              <LongitudeDegrees>-3.74923878349363803863525390625</LongitudeDegrees>
            </Position>
            <AltitudeMeters>955.5999755859375</AltitudeMeters>
            <DistanceMeters>45619.495580345</DistanceMeters>
          </Trackpoint>
          <Trackpoint>
            <Time>2020-03-07T14:53:13.000Z</Time>
            <Position>
              <LatitudeDegrees>40.79522640444338321685791015625</LatitudeDegrees>
              <LongitudeDegrees>-3.749287985265254974365234375</LongitudeDegrees>
            </Position>
            <AltitudeMeters>955.5999755859375</AltitudeMeters>
            <DistanceMeters>45624.681288363</DistanceMeters>
          </Trackpoint>
          <Trackpoint>
            <Time>2020-03-07T14:53:14.000Z</Time>
            <Position>
              <LatitudeDegrees>40.7952563278377056121826171875</LatitudeDegrees>
              <LongitudeDegrees>-3.74933735467493534088134765625</LongitudeDegrees>
            </Position>
            <AltitudeMeters>955.79998779296875</AltitudeMeters>
            <DistanceMeters>45630.010414972</DistanceMeters>
          </Trackpoint>
          <Trackpoint>
            <Time>2020-03-07T14:53:15.000Z</Time>
            <Position>
              <LatitudeDegrees>40.79528507776558399200439453125</LatitudeDegrees>
              <LongitudeDegrees>-3.74938630498945713043212890625</LongitudeDegrees>
            </Position>
            <AltitudeMeters>956</AltitudeMeters>
            <DistanceMeters>45635.230833606</DistanceMeters>
          </Trackpoint>
          <Trackpoint>
            <Time>2020-03-07T14:53:16.000Z</Time>
            <Position>
              <LatitudeDegrees>40.7953143306076526641845703125</LatitudeDegrees>
              <LongitudeDegrees>-3.749435506761074066162109375</LongitudeDegrees>
            </Position>
            <AltitudeMeters>956</AltitudeMeters>
            <DistanceMeters>45640.502033205</DistanceMeters>
          </Trackpoint>
          <Trackpoint>
            <Time>2020-03-07T14:53:17.000Z</Time>
            <Position>
              <LatitudeDegrees>40.7953434996306896209716796875</LatitudeDegrees>
              <LongitudeDegrees>-3.749484121799468994140625</LongitudeDegrees>
            </Position>
            <AltitudeMeters>956.20001220703125</AltitudeMeters>
            <DistanceMeters>45645.729366303</DistanceMeters>
          </Trackpoint>
          <Trackpoint>
            <Time>2020-03-07T14:53:18.000Z</Time>
            <Position>
              <LatitudeDegrees>40.795374177396297454833984375</LatitudeDegrees>
              <LongitudeDegrees>-3.74953147955238819122314453125</LongitudeDegrees>
            </Position>
            <AltitudeMeters>956.20001220703125</AltitudeMeters>
            <DistanceMeters>45650.980828334</DistanceMeters>
          </Trackpoint>
          <Trackpoint>
            <Time>2020-03-07T14:53:19.000Z</Time>
            <Position>
              <LatitudeDegrees>40.79540343023836612701416015625</LatitudeDegrees>
              <LongitudeDegrees>-3.7495785020291805267333984375</LongitudeDegrees>
            </Position>
            <AltitudeMeters>956.4000244140625</AltitudeMeters>
            <DistanceMeters>45656.108750194</DistanceMeters>
          </Trackpoint>
          <Trackpoint>
            <Time>2020-03-07T14:53:20.000Z</Time>
            <Position>
              <LatitudeDegrees>40.79542706720530986785888671875</LatitudeDegrees>
              <LongitudeDegrees>-3.749625273048877716064453125</LongitudeDegrees>
            </Position>
            <AltitudeMeters>956.5999755859375</AltitudeMeters>
            <DistanceMeters>45660.846763495</DistanceMeters>
          </Trackpoint>
          <Trackpoint>
            <Time>2020-03-07T14:53:21.000Z</Time>
            <Position>
              <LatitudeDegrees>40.7954588346183300018310546875</LatitudeDegrees>
              <LongitudeDegrees>-3.74967799521982669830322265625</LongitudeDegrees>
            </Position>
            <AltitudeMeters>957</AltitudeMeters>
            <DistanceMeters>45666.524559978</DistanceMeters>
          </Trackpoint>
          <Trackpoint>
            <Time>2020-03-07T14:53:22.000Z</Time>
            <Position>
              <LatitudeDegrees>40.7954839803278446197509765625</LatitudeDegrees>
              <LongitudeDegrees>-3.7497233413159847259521484375</LongitudeDegrees>
            </Position>
            <AltitudeMeters>957</AltitudeMeters>
            <DistanceMeters>45671.261620244</DistanceMeters>
          </Trackpoint>
          <Trackpoint>
            <Time>2020-03-07T14:53:23.000Z</Time>
            <Position>
              <LatitudeDegrees>40.79550770111382007598876953125</LatitudeDegrees>
              <LongitudeDegrees>-3.7497679330408573150634765625</LongitudeDegrees>
            </Position>
            <AltitudeMeters>957.20001220703125</AltitudeMeters>
            <DistanceMeters>45675.853485715</DistanceMeters>
          </Trackpoint>
          <Trackpoint>
            <Time>2020-03-07T14:53:24.000Z</Time>
            <Position>
              <LatitudeDegrees>40.795529074966907501220703125</LatitudeDegrees>
              <LongitudeDegrees>-3.749810345470905303955078125</LongitudeDegrees>
            </Position>
            <AltitudeMeters>957.4000244140625</AltitudeMeters>
            <DistanceMeters>45680.145496426</DistanceMeters>
          </Trackpoint>
          <Trackpoint>
            <Time>2020-03-07T14:53:25.000Z</Time>
            <Position>
              <LatitudeDegrees>40.7955515384674072265625</LatitudeDegrees>
              <LongitudeDegrees>-3.74985083006322383880615234375</LongitudeDegrees>
            </Position>
            <AltitudeMeters>957.79998779296875</AltitudeMeters>
            <DistanceMeters>45684.374985926</DistanceMeters>
          </Trackpoint>
          <Trackpoint>
            <Time>2020-03-07T14:53:26.000Z</Time>
            <Position>
              <LatitudeDegrees>40.7955751754343509674072265625</LatitudeDegrees>
              <LongitudeDegrees>-3.7498877942562103271484375</LongitudeDegrees>
            </Position>
            <AltitudeMeters>958</AltitudeMeters>
            <DistanceMeters>45688.451177857</DistanceMeters>
          </Trackpoint>
          <Trackpoint>
            <Time>2020-03-07T14:53:27.000Z</Time>
            <Position>
              <LatitudeDegrees>40.79559889622032642364501953125</LatitudeDegrees>
              <LongitudeDegrees>-3.74992609955370426177978515625</LongitudeDegrees>
            </Position>
            <AltitudeMeters>958.20001220703125</AltitudeMeters>
            <DistanceMeters>45692.621540819</DistanceMeters>
          </Trackpoint>
          <Trackpoint>
            <Time>2020-03-07T14:53:28.000Z</Time>
            <Position>
              <LatitudeDegrees>40.7956199347972869873046875</LatitudeDegrees>
              <LongitudeDegrees>-3.7499640695750713348388671875</LongitudeDegrees>
            </Position>
            <AltitudeMeters>958.5999755859375</AltitudeMeters>
            <DistanceMeters>45696.586558232</DistanceMeters>
          </Trackpoint>
          <Trackpoint>
            <Time>2020-03-07T14:53:29.000Z</Time>
            <Position>
              <LatitudeDegrees>40.79564365558326244354248046875</LatitudeDegrees>
              <LongitudeDegrees>-3.75000153668224811553955078125</LongitudeDegrees>
            </Position>
            <AltitudeMeters>958.79998779296875</AltitudeMeters>
            <DistanceMeters>45700.702432794</DistanceMeters>
          </Trackpoint>
          <Trackpoint>
            <Time>2020-03-07T14:53:30.000Z</Time>
            <Position>
              <LatitudeDegrees>40.795667879283428192138671875</LatitudeDegrees>
              <LongitudeDegrees>-3.75003690831363201141357421875</LongitudeDegrees>
            </Position>
            <AltitudeMeters>959</AltitudeMeters>
            <DistanceMeters>45704.720613562</DistanceMeters>
          </Trackpoint>
          <Trackpoint>
            <Time>2020-03-07T14:53:31.000Z</Time>
            <Position>
              <LatitudeDegrees>40.79569243825972080230712890625</LatitudeDegrees>
              <LongitudeDegrees>-3.75007219612598419189453125</LongitudeDegrees>
            </Position>
            <AltitudeMeters>959.4000244140625</AltitudeMeters>
            <DistanceMeters>45708.758969423</DistanceMeters>
          </Trackpoint>
          <Trackpoint>
            <Time>2020-03-07T14:53:32.000Z</Time>
            <Position>
              <LatitudeDegrees>40.79571708105504512786865234375</LatitudeDegrees>
              <LongitudeDegrees>-3.75010781921446323394775390625</LongitudeDegrees>
            </Position>
            <AltitudeMeters>959.5999755859375</AltitudeMeters>
            <DistanceMeters>45712.825180186</DistanceMeters>
          </Trackpoint>
          <Trackpoint>
            <Time>2020-03-07T14:53:33.000Z</Time>
            <Position>
              <LatitudeDegrees>40.7957401312887668609619140625</LatitudeDegrees>
              <LongitudeDegrees>-3.75014503486454486846923828125</LongitudeDegrees>
            </Position>
            <AltitudeMeters>959.79998779296875</AltitudeMeters>
            <DistanceMeters>45716.876930298</DistanceMeters>
          </Trackpoint>
          <Trackpoint>
            <Time>2020-03-07T14:53:34.000Z</Time>
            <Position>
              <LatitudeDegrees>40.795761086046695709228515625</LatitudeDegrees>
              <LongitudeDegrees>-3.7501816637814044952392578125</LongitudeDegrees>
            </Position>
            <AltitudeMeters>960</AltitudeMeters>
            <DistanceMeters>45720.743945503</DistanceMeters>
          </Trackpoint>
          <Trackpoint>
            <Time>2020-03-07T14:53:35.000Z</Time>
            <Position>
              <LatitudeDegrees>40.79578162170946598052978515625</LatitudeDegrees>
              <LongitudeDegrees>-3.7502205558121204376220703125</LongitudeDegrees>
            </Position>
            <AltitudeMeters>960.4000244140625</AltitudeMeters>
            <DistanceMeters>45724.739590025</DistanceMeters>
          </Trackpoint>
          <Trackpoint>
            <Time>2020-03-07T14:53:36.000Z</Time>
            <Position>
              <LatitudeDegrees>40.795800648629665374755859375</LatitudeDegrees>
              <LongitudeDegrees>-3.75025902874767780303955078125</LongitudeDegrees>
            </Position>
            <AltitudeMeters>960.79998779296875</AltitudeMeters>
            <DistanceMeters>45728.611272721</DistanceMeters>
          </Trackpoint>
          <Trackpoint>
            <Time>2020-03-07T14:53:37.000Z</Time>
            <Position>
              <LatitudeDegrees>40.79582269303500652313232421875</LatitudeDegrees>
              <LongitudeDegrees>-3.7502966634929180145263671875</LongitudeDegrees>
            </Position>
            <AltitudeMeters>961.20001220703125</AltitudeMeters>
            <DistanceMeters>45732.620454193</DistanceMeters>
          </Trackpoint>
          <Trackpoint>
            <Time>2020-03-07T14:53:38.000Z</Time>
            <Position>
              <LatitudeDegrees>40.795844905078411102294921875</LatitudeDegrees>
              <LongitudeDegrees>-3.750334717333316802978515625</LongitudeDegrees>
            </Position>
            <AltitudeMeters>961.4000244140625</AltitudeMeters>
            <DistanceMeters>45736.669975006</DistanceMeters>
          </Trackpoint>
          <Trackpoint>
            <Time>2020-03-07T14:53:39.000Z</Time>
            <Position>
              <LatitudeDegrees>40.79586778767406940460205078125</LatitudeDegrees>
              <LongitudeDegrees>-3.75037671066820621490478515625</LongitudeDegrees>
            </Position>
            <AltitudeMeters>961.79998779296875</AltitudeMeters>
            <DistanceMeters>45741.028791456</DistanceMeters>
          </Trackpoint>
          <Trackpoint>
            <Time>2020-03-07T14:53:40.000Z</Time>
            <Position>
              <LatitudeDegrees>40.7958926819264888763427734375</LatitudeDegrees>
              <LongitudeDegrees>-3.75042247585952281951904296875</LongitudeDegrees>
            </Position>
            <AltitudeMeters>962</AltitudeMeters>
            <DistanceMeters>45745.777275517</DistanceMeters>
          </Trackpoint>
          <Trackpoint>
            <Time>2020-03-07T14:53:41.000Z</Time>
            <Position>
              <LatitudeDegrees>40.7959171570837497711181640625</LatitudeDegrees>
              <LongitudeDegrees>-3.75047125853598117828369140625</LongitudeDegrees>
            </Position>
            <AltitudeMeters>962.20001220703125</AltitudeMeters>
            <DistanceMeters>45750.707687851</DistanceMeters>
          </Trackpoint>
          <Trackpoint>
            <Time>2020-03-07T14:53:42.000Z</Time>
            <Position>
              <LatitudeDegrees>40.795938111841678619384765625</LatitudeDegrees>
              <LongitudeDegrees>-3.7505149282515048980712890625</LongitudeDegrees>
            </Position>
            <AltitudeMeters>962.5999755859375</AltitudeMeters>
            <DistanceMeters>45755.064432127</DistanceMeters>
          </Trackpoint>
          <Trackpoint>
            <Time>2020-03-07T14:53:43.000Z</Time>
            <Position>
              <LatitudeDegrees>40.7959573902189731597900390625</LatitudeDegrees>
              <LongitudeDegrees>-3.75056094489991664886474609375</LongitudeDegrees>
            </Position>
            <AltitudeMeters>962.5999755859375</AltitudeMeters>
            <DistanceMeters>45759.495164142</DistanceMeters>
          </Trackpoint>
          <Trackpoint>
            <Time>2020-03-07T14:53:44.000Z</Time>
            <Position>
              <LatitudeDegrees>40.79597591422498226165771484375</LatitudeDegrees>
              <LongitudeDegrees>-3.7506074644625186920166015625</LongitudeDegrees>
            </Position>
            <AltitudeMeters>962.79998779296875</AltitudeMeters>
            <DistanceMeters>45763.924877012</DistanceMeters>
          </Trackpoint>
          <Trackpoint>
            <Time>2020-03-07T14:53:45.000Z</Time>
            <Position>
              <LatitudeDegrees>40.7959949411451816558837890625</LatitudeDegrees>
              <LongitudeDegrees>-3.75065817497670650482177734375</LongitudeDegrees>
            </Position>
            <AltitudeMeters>963.20001220703125</AltitudeMeters>
            <DistanceMeters>45768.693286861</DistanceMeters>
          </Trackpoint>
          <Trackpoint>
            <Time>2020-03-07T14:53:46.000Z</Time>
            <Position>
              <LatitudeDegrees>40.79601489007472991943359375</LatitudeDegrees>
              <LongitudeDegrees>-3.75070829875767230987548828125</LongitudeDegrees>
            </Position>
            <AltitudeMeters>963.4000244140625</AltitudeMeters>
            <DistanceMeters>45773.464536458</DistanceMeters>
          </Trackpoint>
          <Trackpoint>
            <Time>2020-03-07T14:53:47.000Z</Time>
            <Position>
              <LatitudeDegrees>40.796032659709453582763671875</LatitudeDegrees>
              <LongitudeDegrees>-3.75075842253863811492919921875</LongitudeDegrees>
            </Position>
            <AltitudeMeters>963.79998779296875</AltitudeMeters>
            <DistanceMeters>45778.127628145</DistanceMeters>
          </Trackpoint>
          <Trackpoint>
            <Time>2020-03-07T14:53:48.000Z</Time>
            <Position>
              <LatitudeDegrees>40.79605017788708209991455078125</LatitudeDegrees>
              <LongitudeDegrees>-3.750807456672191619873046875</LongitudeDegrees>
            </Position>
            <AltitudeMeters>963.79998779296875</AltitudeMeters>
            <DistanceMeters>45782.694845742</DistanceMeters>
          </Trackpoint>
          <Trackpoint>
            <Time>2020-03-07T14:53:49.000Z</Time>
            <Position>
              <LatitudeDegrees>40.79606526531279087066650390625</LatitudeDegrees>
              <LongitudeDegrees>-3.750855065882205963134765625</LongitudeDegrees>
            </Position>
            <AltitudeMeters>964.20001220703125</AltitudeMeters>
            <DistanceMeters>45787.04329145</DistanceMeters>
          </Trackpoint>
          <Trackpoint>
            <Time>2020-03-07T14:53:50.000Z</Time>
            <Position>
              <LatitudeDegrees>40.79608085565268993377685546875</LatitudeDegrees>
              <LongitudeDegrees>-3.75090326182544231414794921875</LongitudeDegrees>
            </Position>
            <AltitudeMeters>964.4000244140625</AltitudeMeters>
            <DistanceMeters>45791.459734037</DistanceMeters>
          </Trackpoint>
          <Trackpoint>
            <Time>2020-03-07T14:53:51.000Z</Time>
            <Position>
              <LatitudeDegrees>40.79609594307839870452880859375</LatitudeDegrees>
              <LongitudeDegrees>-3.7509491108357906341552734375</LongitudeDegrees>
            </Position>
            <AltitudeMeters>964.5999755859375</AltitudeMeters>
            <DistanceMeters>45795.672108689</DistanceMeters>
          </Trackpoint>
          <Trackpoint>
            <Time>2020-03-07T14:53:52.000Z</Time>
            <Position>
              <LatitudeDegrees>40.79611002467572689056396484375</LatitudeDegrees>
              <LongitudeDegrees>-3.7509947083890438079833984375</LongitudeDegrees>
            </Position>
            <AltitudeMeters>964.79998779296875</AltitudeMeters>
            <DistanceMeters>45799.821850341</DistanceMeters>
          </Trackpoint>
          <Trackpoint>
            <Time>2020-03-07T14:53:53.000Z</Time>
            <Position>
              <LatitudeDegrees>40.7961233519017696380615234375</LatitudeDegrees>
              <LongitudeDegrees>-3.75104005448520183563232421875</LongitudeDegrees>
            </Position>
            <AltitudeMeters>964.79998779296875</AltitudeMeters>
            <DistanceMeters>45803.920135615</DistanceMeters>
          </Trackpoint>
          <Trackpoint>
            <Time>2020-03-07T14:53:54.000Z</Time>
            <Position>
              <LatitudeDegrees>40.796139948070049285888671875</LatitudeDegrees>
              <LongitudeDegrees>-3.75108447857201099395751953125</LongitudeDegrees>
            </Position>
            <AltitudeMeters>965</AltitudeMeters>
            <DistanceMeters>45808.094826925</DistanceMeters>
          </Trackpoint>
          <Trackpoint>
            <Time>2020-03-07T14:53:55.000Z</Time>
            <Position>
              <LatitudeDegrees>40.79615729860961437225341796875</LatitudeDegrees>
              <LongitudeDegrees>-3.75112789683043956756591796875</LongitudeDegrees>
            </Position>
            <AltitudeMeters>965.20001220703125</AltitudeMeters>
            <DistanceMeters>45812.232582952</DistanceMeters>
          </Trackpoint>
          <Trackpoint>
            <Time>2020-03-07T14:53:56.000Z</Time>
            <Position>
              <LatitudeDegrees>40.79617305658757686614990234375</LatitudeDegrees>
              <LongitudeDegrees>-3.7511693872511386871337890625</LongitudeDegrees>
            </Position>
            <AltitudeMeters>965.79998779296875</AltitudeMeters>
            <DistanceMeters>45816.144868674</DistanceMeters>
          </Trackpoint>
          <Trackpoint>
            <Time>2020-03-07T14:53:57.000Z</Time>
            <Position>
              <LatitudeDegrees>40.79619552008807659149169921875</LatitudeDegrees>
              <LongitudeDegrees>-3.75122412107884883880615234375</LongitudeDegrees>
            </Position>
            <AltitudeMeters>966.20001220703125</AltitudeMeters>
            <DistanceMeters>45821.390308878</DistanceMeters>
          </Trackpoint>
          <Trackpoint>
            <Time>2020-03-07T14:53:58.000Z</Time>
            <Position>
              <LatitudeDegrees>40.79620826058089733123779296875</LatitudeDegrees>
              <LongitudeDegrees>-3.7512689642608165740966796875</LongitudeDegrees>
            </Position>
            <AltitudeMeters>966.4000244140625</AltitudeMeters>
            <DistanceMeters>45825.425309228</DistanceMeters>
          </Trackpoint>
          <Trackpoint>
            <Time>2020-03-07T14:53:59.000Z</Time>
            <Position>
              <LatitudeDegrees>40.7962235994637012481689453125</LatitudeDegrees>
              <LongitudeDegrees>-3.751317076385021209716796875</LongitudeDegrees>
            </Position>
            <AltitudeMeters>967</AltitudeMeters>
            <DistanceMeters>45829.823311473</DistanceMeters>
          </Trackpoint>
          <Trackpoint>
            <Time>2020-03-07T14:54:00.000Z</Time>
            <Position>
              <LatitudeDegrees>40.7962380163371562957763671875</LatitudeDegrees>
              <LongitudeDegrees>-3.751366026699542999267578125</LongitudeDegrees>
            </Position>
            <AltitudeMeters>967.20001220703125</AltitudeMeters>
            <DistanceMeters>45834.247925098</DistanceMeters>
          </Trackpoint>
          <Trackpoint>
            <Time>2020-03-07T14:54:01.000Z</Time>
            <Position>
              <LatitudeDegrees>40.79625519923865795135498046875</LatitudeDegrees>
              <LongitudeDegrees>-3.7514124624431133270263671875</LongitudeDegrees>
            </Position>
            <AltitudeMeters>967.4000244140625</AltitudeMeters>
            <DistanceMeters>45838.602596214</DistanceMeters>
          </Trackpoint>
          <Trackpoint>
            <Time>2020-03-07T14:54:02.000Z</Time>
            <Position>
              <LatitudeDegrees>40.79627280123531818389892578125</LatitudeDegrees>
              <LongitudeDegrees>-3.751459904015064239501953125</LongitudeDegrees>
            </Position>
            <AltitudeMeters>967.5999755859375</AltitudeMeters>
            <DistanceMeters>45843.055690405</DistanceMeters>
          </Trackpoint>
          <Trackpoint>
            <Time>2020-03-07T14:54:03.000Z</Time>
            <Position>
              <LatitudeDegrees>40.796291492879390716552734375</LatitudeDegrees>
              <LongitudeDegrees>-3.75150759704411029815673828125</LongitudeDegrees>
            </Position>
            <AltitudeMeters>967.5999755859375</AltitudeMeters>
            <DistanceMeters>45847.581197379</DistanceMeters>
          </Trackpoint>
          <Trackpoint>
            <Time>2020-03-07T14:54:04.000Z</Time>
            <Position>
              <LatitudeDegrees>40.796310268342494964599609375</LatitudeDegrees>
              <LongitudeDegrees>-3.75155604444444179534912109375</LongitudeDegrees>
            </Position>
            <AltitudeMeters>968</AltitudeMeters>
            <DistanceMeters>45852.16814387</DistanceMeters>
          </Trackpoint>
          <Trackpoint>
            <Time>2020-03-07T14:54:05.000Z</Time>
            <Position>
              <LatitudeDegrees>40.79632728360593318939208984375</LatitudeDegrees>
              <LongitudeDegrees>-3.7516069225966930389404296875</LongitudeDegrees>
            </Position>
            <AltitudeMeters>968.4000244140625</AltitudeMeters>
            <DistanceMeters>45856.85441594</DistanceMeters>
          </Trackpoint>
          <Trackpoint>
            <Time>2020-03-07T14:54:06.000Z</Time>
            <Position>
              <LatitudeDegrees>40.79634522087872028350830078125</LatitudeDegrees>
              <LongitudeDegrees>-3.7516585551202297210693359375</LongitudeDegrees>
            </Position>
            <AltitudeMeters>968.5999755859375</AltitudeMeters>
            <DistanceMeters>45861.640782405</DistanceMeters>
          </Trackpoint>
          <Trackpoint>
            <Time>2020-03-07T14:54:07.000Z</Time>
            <Position>
              <LatitudeDegrees>40.7963627390563488006591796875</LatitudeDegrees>
              <LongitudeDegrees>-3.75170758925378322601318359375</LongitudeDegrees>
            </Position>
            <AltitudeMeters>968.79998779296875</AltitudeMeters>
            <DistanceMeters>45866.208988471</DistanceMeters>
          </Trackpoint>
          <Trackpoint>
            <Time>2020-03-07T14:54:08.000Z</Time>
            <Position>
              <LatitudeDegrees>40.796380005776882171630859375</LatitudeDegrees>
              <LongitudeDegrees>-3.751758970320224761962890625</LongitudeDegrees>
            </Position>
            <AltitudeMeters>969.20001220703125</AltitudeMeters>
            <DistanceMeters>45870.946048737</DistanceMeters>
          </Trackpoint>
          <Trackpoint>
            <Time>2020-03-07T14:54:09.000Z</Time>
            <Position>
              <LatitudeDegrees>40.7963972724974155426025390625</LatitudeDegrees>
              <LongitudeDegrees>-3.7518077529966831207275390625</LongitudeDegrees>
            </Position>
            <AltitudeMeters>969.4000244140625</AltitudeMeters>
            <DistanceMeters>45875.483512158</DistanceMeters>
          </Trackpoint>
          <Trackpoint>
            <Time>2020-03-07T14:54:10.000Z</Time>
            <Position>
              <LatitudeDegrees>40.79641361720860004425048828125</LatitudeDegrees>
              <LongitudeDegrees>-3.751856200397014617919921875</LongitudeDegrees>
            </Position>
            <AltitudeMeters>969.5999755859375</AltitudeMeters>
            <DistanceMeters>45879.951789121</DistanceMeters>
          </Trackpoint>
          <Trackpoint>
            <Time>2020-03-07T14:54:11.000Z</Time>
            <Position>
              <LatitudeDegrees>40.79643063247203826904296875</LatitudeDegrees>
              <LongitudeDegrees>-3.7519053183495998382568359375</LongitudeDegrees>
            </Position>
            <AltitudeMeters>969.5999755859375</AltitudeMeters>
            <DistanceMeters>45884.50316203</DistanceMeters>
          </Trackpoint>
          <Trackpoint>
            <Time>2020-03-07T14:54:12.000Z</Time>
            <Position>
              <LatitudeDegrees>40.79644697718322277069091796875</LatitudeDegrees>
              <LongitudeDegrees>-3.75195602886378765106201171875</LongitudeDegrees>
            </Position>
            <AltitudeMeters>969.79998779296875</AltitudeMeters>
            <DistanceMeters>45889.146848341</DistanceMeters>
          </Trackpoint>
          <Trackpoint>
            <Time>2020-03-07T14:54:13.000Z</Time>
            <Position>
              <LatitudeDegrees>40.7964599691331386566162109375</LatitudeDegrees>
              <LongitudeDegrees>-3.75200313515961170196533203125</LongitudeDegrees>
            </Position>
            <AltitudeMeters>970</AltitudeMeters>
            <DistanceMeters>45893.3709969</DistanceMeters>
          </Trackpoint>
          <Trackpoint>
            <Time>2020-03-07T14:54:14.000Z</Time>
            <Position>
              <LatitudeDegrees>40.7964717037975788116455078125</LatitudeDegrees>
              <LongitudeDegrees>-3.75204806216061115264892578125</LongitudeDegrees>
            </Position>
            <AltitudeMeters>970</AltitudeMeters>
            <DistanceMeters>45897.37567114</DistanceMeters>
          </Trackpoint>
          <Trackpoint>
            <Time>2020-03-07T14:54:15.000Z</Time>
            <Position>
              <LatitudeDegrees>40.796492658555507659912109375</LatitudeDegrees>
              <LongitudeDegrees>-3.75210170634090900421142578125</LongitudeDegrees>
            </Position>
            <AltitudeMeters>970.20001220703125</AltitudeMeters>
            <DistanceMeters>45902.462042047</DistanceMeters>
          </Trackpoint>
          <Trackpoint>
            <Time>2020-03-07T14:54:16.000Z</Time>
            <Position>
              <LatitudeDegrees>40.79651168547570705413818359375</LatitudeDegrees>
              <LongitudeDegrees>-3.75215233303606510162353515625</LongitudeDegrees>
            </Position>
            <AltitudeMeters>970.5999755859375</AltitudeMeters>
            <DistanceMeters>45907.224767321</DistanceMeters>
          </Trackpoint>
          <Trackpoint>
            <Time>2020-03-07T14:54:17.000Z</Time>
            <Position>
              <LatitudeDegrees>40.7965300418436527252197265625</LatitudeDegrees>
              <LongitudeDegrees>-3.75220363028347492218017578125</LongitudeDegrees>
            </Position>
            <AltitudeMeters>971</AltitudeMeters>
            <DistanceMeters>45912.006414898</DistanceMeters>
          </Trackpoint>
          <Trackpoint>
            <Time>2020-03-07T14:54:18.000Z</Time>
            <Position>
              <LatitudeDegrees>40.7965474762022495269775390625</LatitudeDegrees>
              <LongitudeDegrees>-3.75225241295993328094482421875</LongitudeDegrees>
            </Position>
            <AltitudeMeters>971</AltitudeMeters>
            <DistanceMeters>45916.55183181</DistanceMeters>
          </Trackpoint>
          <Trackpoint>
            <Time>2020-03-07T14:54:19.000Z</Time>
            <Position>
              <LatitudeDegrees>40.7965655811131000518798828125</LatitudeDegrees>
              <LongitudeDegrees>-3.7522979266941547393798828125</LongitudeDegrees>
            </Position>
            <AltitudeMeters>971.20001220703125</AltitudeMeters>
            <DistanceMeters>45920.884674864</DistanceMeters>
          </Trackpoint>
          <Trackpoint>
            <Time>2020-03-07T14:54:20.000Z</Time>
            <Position>
              <LatitudeDegrees>40.79658946953713893890380859375</LatitudeDegrees>
              <LongitudeDegrees>-3.7523445300757884979248046875</LongitudeDegrees>
            </Position>
            <AltitudeMeters>971.20001220703125</AltitudeMeters>
            <DistanceMeters>45925.627450467</DistanceMeters>
          </Trackpoint>
          <Trackpoint>
            <Time>2020-03-07T14:54:21.000Z</Time>
            <Position>
              <LatitudeDegrees>40.79661444760859012603759765625</LatitudeDegrees>
              <LongitudeDegrees>-3.75238887034356594085693359375</LongitudeDegrees>
            </Position>
            <AltitudeMeters>971.4000244140625</AltitudeMeters>
            <DistanceMeters>45930.283759471</DistanceMeters>
          </Trackpoint>
          <Trackpoint>
            <Time>2020-03-07T14:54:22.000Z</Time>
            <Position>
              <LatitudeDegrees>40.79663774929940700531005859375</LatitudeDegrees>
              <LongitudeDegrees>-3.75243497081100940704345703125</LongitudeDegrees>
            </Position>
            <AltitudeMeters>971.5999755859375</AltitudeMeters>
            <DistanceMeters>45934.954590734</DistanceMeters>
          </Trackpoint>
          <Trackpoint>
            <Time>2020-03-07T14:54:23.000Z</Time>
            <Position>
              <LatitudeDegrees>40.79665987752377986907958984375</LatitudeDegrees>
              <LongitudeDegrees>-3.752481155097484588623046875</LongitudeDegrees>
            </Position>
            <AltitudeMeters>971.79998779296875</AltitudeMeters>
            <DistanceMeters>45939.559220957</DistanceMeters>
          </Trackpoint>
          <Trackpoint>
            <Time>2020-03-07T14:54:24.000Z</Time>
            <Position>
              <LatitudeDegrees>40.79668301157653331756591796875</LatitudeDegrees>
              <LongitudeDegrees>-3.7525262497365474700927734375</LongitudeDegrees>
            </Position>
            <AltitudeMeters>972</AltitudeMeters>
            <DistanceMeters>45944.148135673</DistanceMeters>
          </Trackpoint>
          <Trackpoint>
            <Time>2020-03-07T14:54:25.000Z</Time>
            <Position>
              <LatitudeDegrees>40.79670899547636508941650390625</LatitudeDegrees>
              <LongitudeDegrees>-3.75257042236626148223876953125</LongitudeDegrees>
            </Position>
            <AltitudeMeters>972.20001220703125</AltitudeMeters>
            <DistanceMeters>45948.861307434</DistanceMeters>
          </Trackpoint>
          <Trackpoint>
            <Time>2020-03-07T14:54:26.000Z</Time>
            <Position>
              <LatitudeDegrees>40.79673732630908489227294921875</LatitudeDegrees>
              <LongitudeDegrees>-3.75261493027210235595703125</LongitudeDegrees>
            </Position>
            <AltitudeMeters>972.4000244140625</AltitudeMeters>
            <DistanceMeters>45953.762328077</DistanceMeters>
          </Trackpoint>
          <Trackpoint>
            <Time>2020-03-07T14:54:27.000Z</Time>
            <Position>
              <LatitudeDegrees>40.79676498658955097198486328125</LatitudeDegrees>
              <LongitudeDegrees>-3.7526583485305309295654296875</LongitudeDegrees>
            </Position>
            <AltitudeMeters>972.5999755859375</AltitudeMeters>
            <DistanceMeters>45958.543975654</DistanceMeters>
          </Trackpoint>
          <Trackpoint>
            <Time>2020-03-07T14:54:28.000Z</Time>
            <Position>
              <LatitudeDegrees>40.796793736517429351806640625</LatitudeDegrees>
              <LongitudeDegrees>-3.75270419754087924957275390625</LongitudeDegrees>
            </Position>
            <AltitudeMeters>973</AltitudeMeters>
            <DistanceMeters>45963.559730131</DistanceMeters>
          </Trackpoint>
          <Trackpoint>
            <Time>2020-03-07T14:54:29.000Z</Time>
            <Position>
              <LatitudeDegrees>40.79682198353111743927001953125</LatitudeDegrees>
              <LongitudeDegrees>-3.75274694524705410003662109375</LongitudeDegrees>
            </Position>
            <AltitudeMeters>973</AltitudeMeters>
            <DistanceMeters>45968.341377709</DistanceMeters>
          </Trackpoint>
          <Trackpoint>
            <Time>2020-03-07T14:54:30.000Z</Time>
            <Position>
              <LatitudeDegrees>40.79685215838253498077392578125</LatitudeDegrees>
              <LongitudeDegrees>-3.7527901120483875274658203125</LongitudeDegrees>
            </Position>
            <AltitudeMeters>973.20001220703125</AltitudeMeters>
            <DistanceMeters>45973.291895608</DistanceMeters>
          </Trackpoint>
          <Trackpoint>
            <Time>2020-03-07T14:54:31.000Z</Time>
            <Position>
              <LatitudeDegrees>40.7968827523291110992431640625</LatitudeDegrees>
              <LongitudeDegrees>-3.75283487141132354736328125</LongitudeDegrees>
            </Position>
            <AltitudeMeters>973.20001220703125</AltitudeMeters>
            <DistanceMeters>45978.372937682</DistanceMeters>
          </Trackpoint>
          <Trackpoint>
            <Time>2020-03-07T14:54:32.000Z</Time>
            <Position>
              <LatitudeDegrees>40.79691133461892604827880859375</LatitudeDegrees>
              <LongitudeDegrees>-3.7528803013265132904052734375</LongitudeDegrees>
            </Position>
            <AltitudeMeters>973.4000244140625</AltitudeMeters>
            <DistanceMeters>45983.348926991</DistanceMeters>
          </Trackpoint>
          <Trackpoint>
            <Time>2020-03-07T14:54:33.000Z</Time>
            <Position>
              <LatitudeDegrees>40.79694100655615329742431640625</LatitudeDegrees>
              <LongitudeDegrees>-3.75292615033686161041259765625</LongitudeDegrees>
            </Position>
            <AltitudeMeters>973.5999755859375</AltitudeMeters>
            <DistanceMeters>45988.43263418</DistanceMeters>
          </Trackpoint>
          <Trackpoint>
            <Time>2020-03-07T14:54:34.000Z</Time>
            <Position>
              <LatitudeDegrees>40.79696841537952423095703125</LatitudeDegrees>
              <LongitudeDegrees>-3.75297392718493938446044921875</LongitudeDegrees>
            </Position>
            <AltitudeMeters>973.79998779296875</AltitudeMeters>
            <DistanceMeters>45993.482479314</DistanceMeters>
          </Trackpoint>
          <Trackpoint>
            <Time>2020-03-07T14:54:35.000Z</Time>
            <Position>
              <LatitudeDegrees>40.79699347727000713348388671875</LatitudeDegrees>
              <LongitudeDegrees>-3.75302136875689029693603515625</LongitudeDegrees>
            </Position>
            <AltitudeMeters>974</AltitudeMeters>
            <DistanceMeters>45998.356710651</DistanceMeters>
          </Trackpoint>
          <Trackpoint>
            <Time>2020-03-07T14:54:36.000Z</Time>
            <Position>
              <LatitudeDegrees>40.79702147282660007476806640625</LatitudeDegrees>
              <LongitudeDegrees>-3.753067553043365478515625</LongitudeDegrees>
            </Position>
            <AltitudeMeters>974.20001220703125</AltitudeMeters>
            <DistanceMeters>46003.341765352</DistanceMeters>
          </Trackpoint>
          <Trackpoint>
            <Time>2020-03-07T14:54:37.000Z</Time>
            <Position>
              <LatitudeDegrees>40.797049887478351593017578125</LatitudeDegrees>
              <LongitudeDegrees>-3.75311457552015781402587890625</LongitudeDegrees>
            </Position>
            <AltitudeMeters>974.20001220703125</AltitudeMeters>
            <DistanceMeters>46008.411242402</DistanceMeters>
          </Trackpoint>
          <Trackpoint>
            <Time>2020-03-07T14:54:38.000Z</Time>
            <Position>
              <LatitudeDegrees>40.7970792241394519805908203125</LatitudeDegrees>
              <LongitudeDegrees>-3.7531632743775844573974609375</LongitudeDegrees>
            </Position>
            <AltitudeMeters>974.4000244140625</AltitudeMeters>
            <DistanceMeters>46013.65582178</DistanceMeters>
          </Trackpoint>
          <Trackpoint>
            <Time>2020-03-07T14:54:39.000Z</Time>
            <Position>
              <LatitudeDegrees>40.79711015336215496063232421875</LatitudeDegrees>
              <LongitudeDegrees>-3.75321113504469394683837890625</LongitudeDegrees>
            </Position>
            <AltitudeMeters>974.4000244140625</AltitudeMeters>
            <DistanceMeters>46018.95861897</DistanceMeters>
          </Trackpoint>
          <Trackpoint>
            <Time>2020-03-07T14:54:40.000Z</Time>
            <Position>
              <LatitudeDegrees>40.797144435346126556396484375</LatitudeDegrees>
              <LongitudeDegrees>-3.75326092354953289031982421875</LongitudeDegrees>
            </Position>
            <AltitudeMeters>974.4000244140625</AltitudeMeters>
            <DistanceMeters>46024.630050209</DistanceMeters>
          </Trackpoint>
          <Trackpoint>
            <Time>2020-03-07T14:54:41.000Z</Time>
            <Position>
              <LatitudeDegrees>40.79717787913978099822998046875</LatitudeDegrees>
              <LongitudeDegrees>-3.7533064372837543487548828125</LongitudeDegrees>
            </Position>
            <AltitudeMeters>974.5999755859375</AltitudeMeters>
            <DistanceMeters>46029.975250099</DistanceMeters>
          </Trackpoint>
          <Trackpoint>
            <Time>2020-03-07T14:54:42.000Z</Time>
            <Position>
              <LatitudeDegrees>40.79721140675246715545654296875</LatitudeDegrees>
              <LongitudeDegrees>-3.7533547170460224151611328125</LongitudeDegrees>
            </Position>
            <AltitudeMeters>974.5999755859375</AltitudeMeters>
            <DistanceMeters>46035.496621131</DistanceMeters>
          </Trackpoint>
          <Trackpoint>
            <Time>2020-03-07T14:54:43.000Z</Time>
            <Position>
              <LatitudeDegrees>40.79724191688001155853271484375</LatitudeDegrees>
              <LongitudeDegrees>-3.753403834998607635498046875</LongitudeDegrees>
            </Position>
            <AltitudeMeters>974.5999755859375</AltitudeMeters>
            <DistanceMeters>46040.850261261</DistanceMeters>
          </Trackpoint>
          <Trackpoint>
            <Time>2020-03-07T14:54:44.000Z</Time>
            <Position>
              <LatitudeDegrees>40.79727058298885822296142578125</LatitudeDegrees>
              <LongitudeDegrees>-3.7534524500370025634765625</LongitudeDegrees>
            </Position>
            <AltitudeMeters>975</AltitudeMeters>
            <DistanceMeters>46046.042060389</DistanceMeters>
          </Trackpoint>
          <Trackpoint>
            <Time>2020-03-07T14:54:45.000Z</Time>
            <Position>
              <LatitudeDegrees>40.797298662364482879638671875</LatitudeDegrees>
              <LongitudeDegrees>-3.75349829904735088348388671875</LongitudeDegrees>
            </Position>
            <AltitudeMeters>975</AltitudeMeters>
            <DistanceMeters>46051.010785476</DistanceMeters>
          </Trackpoint>
          <Trackpoint>
            <Time>2020-03-07T14:54:46.000Z</Time>
            <Position>
              <LatitudeDegrees>40.797327496111392974853515625</LatitudeDegrees>
              <LongitudeDegrees>-3.75354171730577945709228515625</LongitudeDegrees>
            </Position>
            <AltitudeMeters>975.20001220703125</AltitudeMeters>
            <DistanceMeters>46055.876672902</DistanceMeters>
          </Trackpoint>
          <Trackpoint>
            <Time>2020-03-07T14:54:47.000Z</Time>
            <Position>
              <LatitudeDegrees>40.797357000410556793212890625</LatitudeDegrees>
              <LongitudeDegrees>-3.7535847164690494537353515625</LongitudeDegrees>
            </Position>
            <AltitudeMeters>975.4000244140625</AltitudeMeters>
            <DistanceMeters>46060.766626115</DistanceMeters>
          </Trackpoint>
          <Trackpoint>
            <Time>2020-03-07T14:54:48.000Z</Time>
            <Position>
              <LatitudeDegrees>40.797386504709720611572265625</LatitudeDegrees>
              <LongitudeDegrees>-3.753627799451351165771484375</LongitudeDegrees>
            </Position>
            <AltitudeMeters>975.5999755859375</AltitudeMeters>
            <DistanceMeters>46065.661193798</DistanceMeters>
          </Trackpoint>
          <Trackpoint>
            <Time>2020-03-07T14:54:49.000Z</Time>
            <Position>
              <LatitudeDegrees>40.797416679561138153076171875</LatitudeDegrees>
              <LongitudeDegrees>-3.753670714795589447021484375</LongitudeDegrees>
            </Position>
            <AltitudeMeters>975.79998779296875</AltitudeMeters>
            <DistanceMeters>46070.596182771</DistanceMeters>
          </Trackpoint>
          <Trackpoint>
            <Time>2020-03-07T14:54:50.000Z</Time>
            <Position>
              <LatitudeDegrees>40.7974480278789997100830078125</LatitudeDegrees>
              <LongitudeDegrees>-3.75371195375919342041015625</LongitudeDegrees>
            </Position>
            <AltitudeMeters>976</AltitudeMeters>
            <DistanceMeters>46075.519263634</DistanceMeters>
          </Trackpoint>
          <Trackpoint>
            <Time>2020-03-07T14:54:51.000Z</Time>
            <Position>
              <LatitudeDegrees>40.79747845418751239776611328125</LatitudeDegrees>
              <LongitudeDegrees>-3.7537516839802265167236328125</LongitudeDegrees>
            </Position>
            <AltitudeMeters>976</AltitudeMeters>
            <DistanceMeters>46080.281040818</DistanceMeters>
          </Trackpoint>
          <Trackpoint>
            <Time>2020-03-07T14:54:52.000Z</Time>
            <Position>
              <LatitudeDegrees>40.79750829376280307769775390625</LatitudeDegrees>
              <LongitudeDegrees>-3.75379099510610103607177734375</LongitudeDegrees>
            </Position>
            <AltitudeMeters>976.20001220703125</AltitudeMeters>
            <DistanceMeters>46084.971165146</DistanceMeters>
          </Trackpoint>
          <Trackpoint>
            <Time>2020-03-07T14:54:53.000Z</Time>
            <Position>
              <LatitudeDegrees>40.7975378818809986114501953125</LatitudeDegrees>
              <LongitudeDegrees>-3.753830306231975555419921875</LongitudeDegrees>
            </Position>
            <AltitudeMeters>976.20001220703125</AltitudeMeters>
            <DistanceMeters>46089.641996409</DistanceMeters>
          </Trackpoint>
          <Trackpoint>
            <Time>2020-03-07T14:54:54.000Z</Time>
            <Position>
              <LatitudeDegrees>40.7975657097995281219482421875</LatitudeDegrees>
              <LongitudeDegrees>-3.75386928208172321319580078125</LongitudeDegrees>
            </Position>
            <AltitudeMeters>976.20001220703125</AltitudeMeters>
            <DistanceMeters>46094.155515265</DistanceMeters>
          </Trackpoint>
          <Trackpoint>
            <Time>2020-03-07T14:54:55.000Z</Time>
            <Position>
              <LatitudeDegrees>40.797595046460628509521484375</LatitudeDegrees>
              <LongitudeDegrees>-3.7539095990359783172607421875</LongitudeDegrees>
            </Position>
            <AltitudeMeters>976.4000244140625</AltitudeMeters>
            <DistanceMeters>46098.866770713</DistanceMeters>
          </Trackpoint>
          <Trackpoint>
            <Time>2020-03-07T14:54:56.000Z</Time>
            <Position>
              <LatitudeDegrees>40.7976267300546169281005859375</LatitudeDegrees>
              <LongitudeDegrees>-3.753950335085391998291015625</LongitudeDegrees>
            </Position>
            <AltitudeMeters>976.5999755859375</AltitudeMeters>
            <DistanceMeters>46103.787099457</DistanceMeters>
          </Trackpoint>
          <Trackpoint>
            <Time>2020-03-07T14:54:57.000Z</Time>
            <Position>
              <LatitudeDegrees>40.7976569049060344696044921875</LatitudeDegrees>
              <LongitudeDegrees>-3.753989227116107940673828125</LongitudeDegrees>
            </Position>
            <AltitudeMeters>976.79998779296875</AltitudeMeters>
            <DistanceMeters>46108.479148729</DistanceMeters>
          </Trackpoint>
          <Trackpoint>
            <Time>2020-03-07T14:54:58.000Z</Time>
            <Position>
              <LatitudeDegrees>40.79768666066229343414306640625</LatitudeDegrees>
              <LongitudeDegrees>-3.75402870588004589080810546875</LongitudeDegrees>
            </Position>
            <AltitudeMeters>977</AltitudeMeters>
            <DistanceMeters>46113.173122155</DistanceMeters>
          </Trackpoint>
          <Trackpoint>
            <Time>2020-03-07T14:54:59.000Z</Time>
            <Position>
              <LatitudeDegrees>40.79771800898015499114990234375</LatitudeDegrees>
              <LongitudeDegrees>-3.754067681729793548583984375</LongitudeDegrees>
            </Position>
            <AltitudeMeters>977</AltitudeMeters>
            <DistanceMeters>46117.964202859</DistanceMeters>
          </Trackpoint>
          <Trackpoint>
            <Time>2020-03-07T14:55:00.000Z</Time>
            <Position>
              <LatitudeDegrees>40.79774935729801654815673828125</LatitudeDegrees>
              <LongitudeDegrees>-3.754107244312763214111328125</LongitudeDegrees>
            </Position>
            <AltitudeMeters>977.20001220703125</AltitudeMeters>
            <DistanceMeters>46122.78909012</DistanceMeters>
          </Trackpoint>
          <Trackpoint>
            <Time>2020-03-07T14:55:01.000Z</Time>
            <Position>
              <LatitudeDegrees>40.7977796159684658050537109375</LatitudeDegrees>
              <LongitudeDegrees>-3.7541489861905574798583984375</LongitudeDegrees>
            </Position>
            <AltitudeMeters>977.4000244140625</AltitudeMeters>
            <DistanceMeters>46127.658687715</DistanceMeters>
          </Trackpoint>
          <Trackpoint>
            <Time>2020-03-07T14:55:02.000Z</Time>
            <Position>
              <LatitudeDegrees>40.797807611525058746337890625</LatitudeDegrees>
              <LongitudeDegrees>-3.75418938696384429931640625</LongitudeDegrees>
            </Position>
            <AltitudeMeters>977.79998779296875</AltitudeMeters>
            <DistanceMeters>46132.273112951</DistanceMeters>
          </Trackpoint>
          <Trackpoint>
            <Time>2020-03-07T14:55:03.000Z</Time>
            <Position>
              <LatitudeDegrees>40.79783367924392223358154296875</LatitudeDegrees>
              <LongitudeDegrees>-3.754230625927448272705078125</LongitudeDegrees>
            </Position>
            <AltitudeMeters>978</AltitudeMeters>
            <DistanceMeters>46136.799617502</DistanceMeters>
          </Trackpoint>
          <Trackpoint>
            <Time>2020-03-07T14:55:04.000Z</Time>
            <Position>
              <LatitudeDegrees>40.7978607527911663055419921875</LatitudeDegrees>
              <LongitudeDegrees>-3.75427345745265483856201171875</LongitudeDegrees>
            </Position>
            <AltitudeMeters>978.20001220703125</AltitudeMeters>
            <DistanceMeters>46141.499358663</DistanceMeters>
          </Trackpoint>
          <Trackpoint>
            <Time>2020-03-07T14:55:05.000Z</Time>
            <Position>
              <LatitudeDegrees>40.79788975417613983154296875</LatitudeDegrees>
              <LongitudeDegrees>-3.75431117601692676544189453125</LongitudeDegrees>
            </Position>
            <AltitudeMeters>978.4000244140625</AltitudeMeters>
            <DistanceMeters>46146.028854626</DistanceMeters>
          </Trackpoint>
          <Trackpoint>
            <Time>2020-03-07T14:55:06.000Z</Time>
            <Position>
              <LatitudeDegrees>40.79792101867496967315673828125</LatitudeDegrees>
              <LongitudeDegrees>-3.75434788875281810760498046875</LongitudeDegrees>
            </Position>
            <AltitudeMeters>978.79998779296875</AltitudeMeters>
            <DistanceMeters>46150.68516363</DistanceMeters>
          </Trackpoint>
          <Trackpoint>
            <Time>2020-03-07T14:55:07.000Z</Time>
            <Position>
              <LatitudeDegrees>40.79794884659349918365478515625</LatitudeDegrees>
              <LongitudeDegrees>-3.7543850205838680267333984375</LongitudeDegrees>
            </Position>
            <AltitudeMeters>979</AltitudeMeters>
            <DistanceMeters>46155.087270404</DistanceMeters>
          </Trackpoint>
          <Trackpoint>
            <Time>2020-03-07T14:55:08.000Z</Time>
            <Position>
              <LatitudeDegrees>40.7979750819504261016845703125</LatitudeDegrees>
              <LongitudeDegrees>-3.75442550517618656158447265625</LongitudeDegrees>
            </Position>
            <AltitudeMeters>979.20001220703125</AltitudeMeters>
            <DistanceMeters>46159.578727938</DistanceMeters>
          </Trackpoint>
          <Trackpoint>
            <Time>2020-03-07T14:55:09.000Z</Time>
            <Position>
              <LatitudeDegrees>40.79800081439316272735595703125</LatitudeDegrees>
              <LongitudeDegrees>-3.75446557067334651947021484375</LongitudeDegrees>
            </Position>
            <AltitudeMeters>979.4000244140625</AltitudeMeters>
            <DistanceMeters>46164.005381966</DistanceMeters>
          </Trackpoint>
          <Trackpoint>
            <Time>2020-03-07T14:55:10.000Z</Time>
            <Position>
              <LatitudeDegrees>40.7980277203023433685302734375</LatitudeDegrees>
              <LongitudeDegrees>-3.7545027025043964385986328125</LongitudeDegrees>
            </Position>
            <AltitudeMeters>979.4000244140625</AltitudeMeters>
            <DistanceMeters>46168.337182844</DistanceMeters>
          </Trackpoint>
          <Trackpoint>
            <Time>2020-03-07T14:55:11.000Z</Time>
            <Position>
              <LatitudeDegrees>40.7980558834969997406005859375</LatitudeDegrees>
              <LongitudeDegrees>-3.7545355595648288726806640625</LongitudeDegrees>
            </Position>
            <AltitudeMeters>979.5999755859375</AltitudeMeters>
            <DistanceMeters>46172.520517417</DistanceMeters>
          </Trackpoint>
          <Trackpoint>
            <Time>2020-03-07T14:55:12.000Z</Time>
            <Position>
              <LatitudeDegrees>40.79809016548097133636474609375</LatitudeDegrees>
              <LongitudeDegrees>-3.7545670755207538604736328125</LongitudeDegrees>
            </Position>
            <AltitudeMeters>980.4000244140625</AltitudeMeters>
            <DistanceMeters>46177.169062666</DistanceMeters>
          </Trackpoint>
          <Trackpoint>
            <Time>2020-03-07T14:55:13.000Z</Time>
            <Position>
              <LatitudeDegrees>40.79812134616076946258544921875</LatitudeDegrees>
              <LongitudeDegrees>-3.75459951348602771759033203125</LongitudeDegrees>
            </Position>
            <AltitudeMeters>980.5999755859375</AltitudeMeters>
            <DistanceMeters>46181.587549428</DistanceMeters>
          </Trackpoint>
          <Trackpoint>
            <Time>2020-03-07T14:55:14.000Z</Time>
            <Position>
              <LatitudeDegrees>40.79815126955509185791015625</LatitudeDegrees>
              <LongitudeDegrees>-3.7546326220035552978515625</LongitudeDegrees>
            </Position>
            <AltitudeMeters>980.79998779296875</AltitudeMeters>
            <DistanceMeters>46185.931839908</DistanceMeters>
          </Trackpoint>
          <Trackpoint>
            <Time>2020-03-07T14:55:15.000Z</Time>
            <Position>
              <LatitudeDegrees>40.79818102531135082244873046875</LatitudeDegrees>
              <LongitudeDegrees>-3.7546656467020511627197265625</LongitudeDegrees>
            </Position>
            <AltitudeMeters>980.79998779296875</AltitudeMeters>
            <DistanceMeters>46190.257382462</DistanceMeters>
          </Trackpoint>
          <Trackpoint>
            <Time>2020-03-07T14:55:16.000Z</Time>
            <Position>
              <LatitudeDegrees>40.79821103252470493316650390625</LatitudeDegrees>
              <LongitudeDegrees>-3.75469892285764217376708984375</LongitudeDegrees>
            </Position>
            <AltitudeMeters>981</AltitudeMeters>
            <DistanceMeters>46194.6182701</DistanceMeters>
          </Trackpoint>
          <Trackpoint>
            <Time>2020-03-07T14:55:17.000Z</Time>
            <Position>
              <LatitudeDegrees>40.79824036918580532073974609375</LatitudeDegrees>
              <LongitudeDegrees>-3.75473261810839176177978515625</LongitudeDegrees>
            </Position>
            <AltitudeMeters>981.20001220703125</AltitudeMeters>
            <DistanceMeters>46198.945899768</DistanceMeters>
          </Trackpoint>
          <Trackpoint>
            <Time>2020-03-07T14:55:18.000Z</Time>
            <Position>
              <LatitudeDegrees>40.798272974789142608642578125</LatitudeDegrees>
              <LongitudeDegrees>-3.754762373864650726318359375</LongitudeDegrees>
            </Position>
            <AltitudeMeters>981.4000244140625</AltitudeMeters>
            <DistanceMeters>46203.356204141</DistanceMeters>
          </Trackpoint>
          <Trackpoint>
            <Time>2020-03-07T14:55:19.000Z</Time>
            <Position>
              <LatitudeDegrees>40.7983073405921459197998046875</LatitudeDegrees>
              <LongitudeDegrees>-3.75478743575513362884521484375</LongitudeDegrees>
            </Position>
            <AltitudeMeters>981.5999755859375</AltitudeMeters>
            <DistanceMeters>46207.725366716</DistanceMeters>
          </Trackpoint>
          <Trackpoint>
            <Time>2020-03-07T14:55:20.000Z</Time>
            <Position>
              <LatitudeDegrees>40.7983438856899738311767578125</LatitudeDegrees>
              <LongitudeDegrees>-3.7548091448843479156494140625</LongitudeDegrees>
            </Position>
            <AltitudeMeters>981.79998779296875</AltitudeMeters>
            <DistanceMeters>46212.185552632</DistanceMeters>
          </Trackpoint>
          <Trackpoint>
            <Time>2020-03-07T14:55:21.000Z</Time>
            <Position>
              <LatitudeDegrees>40.7983834482729434967041015625</LatitudeDegrees>
              <LongitudeDegrees>-3.75482817180454730987548828125</LongitudeDegrees>
            </Position>
            <AltitudeMeters>982</AltitudeMeters>
            <DistanceMeters>46216.871824701</DistanceMeters>
          </Trackpoint>
          <Trackpoint>
            <Time>2020-03-07T14:55:22.000Z</Time>
            <Position>
              <LatitudeDegrees>40.79842426814138889312744140625</LatitudeDegrees>
              <LongitudeDegrees>-3.75484275631606578826904296875</LongitudeDegrees>
            </Position>
            <AltitudeMeters>982</AltitudeMeters>
            <DistanceMeters>46221.577326528</DistanceMeters>
          </Trackpoint>
          <Trackpoint>
            <Time>2020-03-07T14:55:23.000Z</Time>
            <Position>
              <LatitudeDegrees>40.79846466891467571258544921875</LatitudeDegrees>
              <LongitudeDegrees>-3.7548554129898548126220703125</LongitudeDegrees>
            </Position>
            <AltitudeMeters>982.20001220703125</AltitudeMeters>
            <DistanceMeters>46226.199572829</DistanceMeters>
          </Trackpoint>
          <Trackpoint>
            <Time>2020-03-07T14:55:24.000Z</Time>
            <Position>
              <LatitudeDegrees>40.7985054887831211090087890625</LatitudeDegrees>
              <LongitudeDegrees>-3.75486521981656551361083984375</LongitudeDegrees>
            </Position>
            <AltitudeMeters>982.4000244140625</AltitudeMeters>
            <DistanceMeters>46230.817910253</DistanceMeters>
          </Trackpoint>
          <Trackpoint>
            <Time>2020-03-07T14:55:25.000Z</Time>
            <Position>
              <LatitudeDegrees>40.79854488372802734375</LatitudeDegrees>
              <LongitudeDegrees>-3.75487066805362701416015625</LongitudeDegrees>
            </Position>
            <AltitudeMeters>982.5999755859375</AltitudeMeters>
            <DistanceMeters>46235.226166655</DistanceMeters>
          </Trackpoint>
          <Trackpoint>
            <Time>2020-03-07T14:55:26.000Z</Time>
            <Position>
              <LatitudeDegrees>40.798584111034870147705078125</LatitudeDegrees>
              <LongitudeDegrees>-3.754875361919403076171875</LongitudeDegrees>
            </Position>
            <AltitudeMeters>983.20001220703125</AltitudeMeters>
            <DistanceMeters>46239.609772782</DistanceMeters>
          </Trackpoint>
          <Trackpoint>
            <Time>2020-03-07T14:55:27.000Z</Time>
            <Position>
              <LatitudeDegrees>40.79862358979880809783935546875</LatitudeDegrees>
              <LongitudeDegrees>-3.75488148070871829986572265625</LongitudeDegrees>
            </Position>
            <AltitudeMeters>983.5999755859375</AltitudeMeters>
            <DistanceMeters>46244.034386407</DistanceMeters>
          </Trackpoint>
          <Trackpoint>
            <Time>2020-03-07T14:55:28.000Z</Time>
            <Position>
              <LatitudeDegrees>40.7986620627343654632568359375</LatitudeDegrees>
              <LongitudeDegrees>-3.7548886053264141082763671875</LongitudeDegrees>
            </Position>
            <AltitudeMeters>983.79998779296875</AltitudeMeters>
            <DistanceMeters>46248.35784084</DistanceMeters>
          </Trackpoint>
          <Trackpoint>
            <Time>2020-03-07T14:55:29.000Z</Time>
            <Position>
              <LatitudeDegrees>40.7987009547650814056396484375</LatitudeDegrees>
              <LongitudeDegrees>-3.75489455647766590118408203125</LongitudeDegrees>
            </Position>
            <AltitudeMeters>984</AltitudeMeters>
            <DistanceMeters>46252.715621326</DistanceMeters>
          </Trackpoint>
          <Trackpoint>
            <Time>2020-03-07T14:55:30.000Z</Time>
            <Position>
              <LatitudeDegrees>40.798740684986114501953125</LatitudeDegrees>
              <LongitudeDegrees>-3.75489707104861736297607421875</LongitudeDegrees>
            </Position>
            <AltitudeMeters>984</AltitudeMeters>
            <DistanceMeters>46257.144314817</DistanceMeters>
          </Trackpoint>
          <Trackpoint>
            <Time>2020-03-07T14:55:31.000Z</Time>
            <Position>
              <LatitudeDegrees>40.79878116957843303680419921875</LatitudeDegrees>
              <LongitudeDegrees>-3.754897825419902801513671875</LongitudeDegrees>
            </Position>
            <AltitudeMeters>984.20001220703125</AltitudeMeters>
            <DistanceMeters>46261.651827656</DistanceMeters>
          </Trackpoint>
          <Trackpoint>
            <Time>2020-03-07T14:55:32.000Z</Time>
            <Position>
              <LatitudeDegrees>40.79882190562784671783447265625</LatitudeDegrees>
              <LongitudeDegrees>-3.754897825419902801513671875</LongitudeDegrees>
            </Position>
            <AltitudeMeters>984.4000244140625</AltitudeMeters>
            <DistanceMeters>46266.185309099</DistanceMeters>
          </Trackpoint>
          <Trackpoint>
            <Time>2020-03-07T14:55:33.000Z</Time>
            <Position>
              <LatitudeDegrees>40.79886314459145069122314453125</LatitudeDegrees>
              <LongitudeDegrees>-3.7549010105431079864501953125</LongitudeDegrees>
            </Position>
            <AltitudeMeters>984.5999755859375</AltitudeMeters>
            <DistanceMeters>46270.7840523</DistanceMeters>
          </Trackpoint>
          <Trackpoint>
            <Time>2020-03-07T14:55:34.000Z</Time>
            <Position>
              <LatitudeDegrees>40.79890321008861064910888671875</LatitudeDegrees>
              <LongitudeDegrees>-3.75490645878016948699951171875</LongitudeDegrees>
            </Position>
            <AltitudeMeters>984.5999755859375</AltitudeMeters>
            <DistanceMeters>46275.26746062</DistanceMeters>
          </Trackpoint>
          <Trackpoint>
            <Time>2020-03-07T14:55:35.000Z</Time>
            <Position>
              <LatitudeDegrees>40.798942185938358306884765625</LatitudeDegrees>
              <LongitudeDegrees>-3.754913918673992156982421875</LongitudeDegrees>
            </Position>
            <AltitudeMeters>984.79998779296875</AltitudeMeters>
            <DistanceMeters>46279.651066746</DistanceMeters>
          </Trackpoint>
          <Trackpoint>
            <Time>2020-03-07T14:55:36.000Z</Time>
            <Position>
              <LatitudeDegrees>40.798981077969074249267578125</LatitudeDegrees>
              <LongitudeDegrees>-3.75492255203425884246826171875</LongitudeDegrees>
            </Position>
            <AltitudeMeters>985</AltitudeMeters>
            <DistanceMeters>46284.039819765</DistanceMeters>
          </Trackpoint>
          <Trackpoint>
            <Time>2020-03-07T14:55:37.000Z</Time>
            <Position>
              <LatitudeDegrees>40.79901896417140960693359375</LatitudeDegrees>
              <LongitudeDegrees>-3.75493294559419155120849609375</LongitudeDegrees>
            </Position>
            <AltitudeMeters>985.20001220703125</AltitudeMeters>
            <DistanceMeters>46288.346532782</DistanceMeters>
          </Trackpoint>
          <Trackpoint>
            <Time>2020-03-07T14:55:38.000Z</Time>
            <Position>
              <LatitudeDegrees>40.799056179821491241455078125</LatitudeDegrees>
              <LongitudeDegrees>-3.75494468025863170623779296875</LongitudeDegrees>
            </Position>
            <AltitudeMeters>985.4000244140625</AltitudeMeters>
            <DistanceMeters>46292.604747608</DistanceMeters>
          </Trackpoint>
          <Trackpoint>
            <Time>2020-03-07T14:55:39.000Z</Time>
            <Position>
              <LatitudeDegrees>40.7990922220051288604736328125</LatitudeDegrees>
              <LongitudeDegrees>-3.7549576722085475921630859375</LongitudeDegrees>
            </Position>
            <AltitudeMeters>985.5999755859375</AltitudeMeters>
            <DistanceMeters>46296.764269992</DistanceMeters>
          </Trackpoint>
          <Trackpoint>
            <Time>2020-03-07T14:55:40.000Z</Time>
            <Position>
              <LatitudeDegrees>40.79912868328392505645751953125</LatitudeDegrees>
              <LongitudeDegrees>-3.75496965833008289337158203125</LongitudeDegrees>
            </Position>
            <AltitudeMeters>986</AltitudeMeters>
            <DistanceMeters>46300.945445424</DistanceMeters>
          </Trackpoint>
          <Trackpoint>
            <Time>2020-03-07T14:55:41.000Z</Time>
            <Position>
              <LatitudeDegrees>40.79916321672499179840087890625</LatitudeDegrees>
              <LongitudeDegrees>-3.75497837550938129425048828125</LongitudeDegrees>
            </Position>
            <AltitudeMeters>986.20001220703125</AltitudeMeters>
            <DistanceMeters>46304.858885043</DistanceMeters>
          </Trackpoint>
          <Trackpoint>
            <Time>2020-03-07T14:55:42.000Z</Time>
            <Position>
              <LatitudeDegrees>40.79919724725186824798583984375</LatitudeDegrees>
              <LongitudeDegrees>-3.75498809851706027984619140625</LongitudeDegrees>
            </Position>
            <AltitudeMeters>986.4000244140625</AltitudeMeters>
            <DistanceMeters>46308.73522961</DistanceMeters>
          </Trackpoint>
          <Trackpoint>
            <Time>2020-03-07T14:55:43.000Z</Time>
            <Position>
              <LatitudeDegrees>40.79923161305487155914306640625</LatitudeDegrees>
              <LongitudeDegrees>-3.75500100664794445037841796875</LongitudeDegrees>
            </Position>
            <AltitudeMeters>986.5999755859375</AltitudeMeters>
            <DistanceMeters>46312.711617903</DistanceMeters>
          </Trackpoint>
          <Trackpoint>
            <Time>2020-03-07T14:55:44.000Z</Time>
            <Position>
              <LatitudeDegrees>40.79926463775336742401123046875</LatitudeDegrees>
              <LongitudeDegrees>-3.755015842616558074951171875</LongitudeDegrees>
            </Position>
            <AltitudeMeters>986.79998779296875</AltitudeMeters>
            <DistanceMeters>46316.593781936</DistanceMeters>
          </Trackpoint>
          <Trackpoint>
            <Time>2020-03-07T14:55:45.000Z</Time>
            <Position>
              <LatitudeDegrees>40.79929615370929241180419921875</LatitudeDegrees>
              <LongitudeDegrees>-3.75503134913742542266845703125</LongitudeDegrees>
            </Position>
            <AltitudeMeters>987</AltitudeMeters>
            <DistanceMeters>46320.336194068</DistanceMeters>
          </Trackpoint>
          <Trackpoint>
            <Time>2020-03-07T14:55:46.000Z</Time>
            <Position>
              <LatitudeDegrees>40.7993272505700588226318359375</LatitudeDegrees>
              <LongitudeDegrees>-3.7550483644008636474609375</LongitudeDegrees>
            </Position>
            <AltitudeMeters>987.4000244140625</AltitudeMeters>
            <DistanceMeters>46324.082223806</DistanceMeters>
          </Trackpoint>
          <Trackpoint>
            <Time>2020-03-07T14:55:47.000Z</Time>
            <Position>
              <LatitudeDegrees>40.79935717396438121795654296875</LatitudeDegrees>
              <LongitudeDegrees>-3.755066134035587310791015625</LongitudeDegrees>
            </Position>
            <AltitudeMeters>987.5999755859375</AltitudeMeters>
            <DistanceMeters>46327.733030954</DistanceMeters>
          </Trackpoint>
          <Trackpoint>
            <Time>2020-03-07T14:55:48.000Z</Time>
            <Position>
              <LatitudeDegrees>40.79938634298741817474365234375</LatitudeDegrees>
              <LongitudeDegrees>-3.75508381985127925872802734375</LongitudeDegrees>
            </Position>
            <AltitudeMeters>987.79998779296875</AltitudeMeters>
            <DistanceMeters>46331.306338678</DistanceMeters>
          </Trackpoint>
          <Trackpoint>
            <Time>2020-03-07T14:55:49.000Z</Time>
            <Position>
              <LatitudeDegrees>40.799416266381740570068359375</LatitudeDegrees>
              <LongitudeDegrees>-3.755099661648273468017578125</LongitudeDegrees>
            </Position>
            <AltitudeMeters>988</AltitudeMeters>
            <DistanceMeters>46334.8922596</DistanceMeters>
          </Trackpoint>
          <Trackpoint>
            <Time>2020-03-07T14:55:50.000Z</Time>
            <Position>
              <LatitudeDegrees>40.79944686032831668853759765625</LatitudeDegrees>
              <LongitudeDegrees>-3.75511466525495052337646484375</LongitudeDegrees>
            </Position>
            <AltitudeMeters>988.20001220703125</AltitudeMeters>
            <DistanceMeters>46338.524468526</DistanceMeters>
          </Trackpoint>
          <Trackpoint>
            <Time>2020-03-07T14:55:51.000Z</Time>
            <Position>
              <LatitudeDegrees>40.79947493970394134521484375</LatitudeDegrees>
              <LongitudeDegrees>-3.7551341950893402099609375</LongitudeDegrees>
            </Position>
            <AltitudeMeters>988.4000244140625</AltitudeMeters>
            <DistanceMeters>46342.057111396</DistanceMeters>
          </Trackpoint>
          <Trackpoint>
            <Time>2020-03-07T14:55:52.000Z</Time>
            <Position>
              <LatitudeDegrees>40.79950318671762943267822265625</LatitudeDegrees>
              <LongitudeDegrees>-3.75516034662723541259765625</LongitudeDegrees>
            </Position>
            <AltitudeMeters>988.5999755859375</AltitudeMeters>
            <DistanceMeters>46345.89600248</DistanceMeters>
          </Trackpoint>
          <Trackpoint>
            <Time>2020-03-07T14:55:53.000Z</Time>
            <Position>
              <LatitudeDegrees>40.799532271921634674072265625</LatitudeDegrees>
              <LongitudeDegrees>-3.7551786191761493682861328125</LongitudeDegrees>
            </Position>
            <AltitudeMeters>988.79998779296875</AltitudeMeters>
            <DistanceMeters>46349.481923402</DistanceMeters>
          </Trackpoint>
          <Trackpoint>
            <Time>2020-03-07T14:55:54.000Z</Time>
            <Position>
              <LatitudeDegrees>40.799563787877559661865234375</LatitudeDegrees>
              <LongitudeDegrees>-3.75519094057381153106689453125</LongitudeDegrees>
            </Position>
            <AltitudeMeters>989</AltitudeMeters>
            <DistanceMeters>46353.140143363</DistanceMeters>
          </Trackpoint>
          <Trackpoint>
            <Time>2020-03-07T14:55:55.000Z</Time>
            <Position>
              <LatitudeDegrees>40.799596644937992095947265625</LatitudeDegrees>
              <LongitudeDegrees>-3.75520468689501285552978515625</LongitudeDegrees>
            </Position>
            <AltitudeMeters>989.4000244140625</AltitudeMeters>
            <DistanceMeters>46356.976681465</DistanceMeters>
          </Trackpoint>
          <Trackpoint>
            <Time>2020-03-07T14:55:56.000Z</Time>
            <Position>
              <LatitudeDegrees>40.7996293343603610992431640625</LatitudeDegrees>
              <LongitudeDegrees>-3.75522203743457794189453125</LongitudeDegrees>
            </Position>
            <AltitudeMeters>989.5999755859375</AltitudeMeters>
            <DistanceMeters>46360.899340035</DistanceMeters>
          </Trackpoint>
          <Trackpoint>
            <Time>2020-03-07T14:55:57.000Z</Time>
            <Position>
              <LatitudeDegrees>40.7996615208685398101806640625</LatitudeDegrees>
              <LongitudeDegrees>-3.75524274073541164398193359375</LongitudeDegrees>
            </Position>
            <AltitudeMeters>989.79998779296875</AltitudeMeters>
            <DistanceMeters>46364.883668635</DistanceMeters>
          </Trackpoint>
          <Trackpoint>
            <Time>2020-03-07T14:55:58.000Z</Time>
            <Position>
              <LatitudeDegrees>40.79969446174800395965576171875</LatitudeDegrees>
              <LongitudeDegrees>-3.7552641145884990692138671875</LongitudeDegrees>
            </Position>
            <AltitudeMeters>990</AltitudeMeters>
            <DistanceMeters>46368.968712241</DistanceMeters>
          </Trackpoint>
          <Trackpoint>
            <Time>2020-03-07T14:55:59.000Z</Time>
            <Position>
              <LatitudeDegrees>40.79972681589424610137939453125</LatitudeDegrees>
              <LongitudeDegrees>-3.75528364442288875579833984375</LongitudeDegrees>
            </Position>
            <AltitudeMeters>990.20001220703125</AltitudeMeters>
            <DistanceMeters>46372.928031969</DistanceMeters>
          </Trackpoint>
          <Trackpoint>
            <Time>2020-03-07T14:56:00.000Z</Time>
            <Position>
              <LatitudeDegrees>40.79975900240242481231689453125</LatitudeDegrees>
              <LongitudeDegrees>-3.75530594028532505035400390625</LongitudeDegrees>
            </Position>
            <AltitudeMeters>990.4000244140625</AltitudeMeters>
            <DistanceMeters>46376.9730905</DistanceMeters>
          </Trackpoint>
          <Trackpoint>
            <Time>2020-03-07T14:56:01.000Z</Time>
            <Position>
              <LatitudeDegrees>40.79979085363447666168212890625</LatitudeDegrees>
              <LongitudeDegrees>-3.7553274817764759063720703125</LongitudeDegrees>
            </Position>
            <AltitudeMeters>990.5999755859375</AltitudeMeters>
            <DistanceMeters>46380.957419099</DistanceMeters>
          </Trackpoint>
          <Trackpoint>
            <Time>2020-03-07T14:56:02.000Z</Time>
            <Position>
              <LatitudeDegrees>40.79982354305684566497802734375</LatitudeDegrees>
              <LongitudeDegrees>-3.755347430706024169921875</LongitudeDegrees>
            </Position>
            <AltitudeMeters>990.79998779296875</AltitudeMeters>
            <DistanceMeters>46384.966600571</DistanceMeters>
          </Trackpoint>
          <Trackpoint>
            <Time>2020-03-07T14:56:03.000Z</Time>
            <Position>
              <LatitudeDegrees>40.799856483936309814453125</LatitudeDegrees>
              <LongitudeDegrees>-3.75536478124558925628662109375</LongitudeDegrees>
            </Position>
            <AltitudeMeters>991</AltitudeMeters>
            <DistanceMeters>46388.914500258</DistanceMeters>
          </Trackpoint>
          <Trackpoint>
            <Time>2020-03-07T14:56:04.000Z</Time>
            <Position>
              <LatitudeDegrees>40.79988934099674224853515625</LatitudeDegrees>
              <LongitudeDegrees>-3.75538288615643978118896484375</LongitudeDegrees>
            </Position>
            <AltitudeMeters>991.20001220703125</AltitudeMeters>
            <DistanceMeters>46392.876100044</DistanceMeters>
          </Trackpoint>
          <Trackpoint>
            <Time>2020-03-07T14:56:05.000Z</Time>
            <Position>
              <LatitudeDegrees>40.79991976730525493621826171875</LatitudeDegrees>
              <LongitudeDegrees>-3.7554042600095272064208984375</LongitudeDegrees>
            </Position>
            <AltitudeMeters>991.4000244140625</AltitudeMeters>
            <DistanceMeters>46396.711461112</DistanceMeters>
          </Trackpoint>
          <Trackpoint>
            <Time>2020-03-07T14:56:06.000Z</Time>
            <Position>
              <LatitudeDegrees>40.799950025975704193115234375</LatitudeDegrees>
              <LongitudeDegrees>-3.7554340995848178863525390625</LongitudeDegrees>
            </Position>
            <AltitudeMeters>991.5999755859375</AltitudeMeters>
            <DistanceMeters>46400.914178034</DistanceMeters>
          </Trackpoint>
          <Trackpoint>
            <Time>2020-03-07T14:56:07.000Z</Time>
            <Position>
              <LatitudeDegrees>40.79997575841844081878662109375</LatitudeDegrees>
              <LongitudeDegrees>-3.755462430417537689208984375</LongitudeDegrees>
            </Position>
            <AltitudeMeters>992</AltitudeMeters>
            <DistanceMeters>46404.643295587</DistanceMeters>
          </Trackpoint>
          <Trackpoint>
            <Time>2020-03-07T14:56:08.000Z</Time>
            <Position>
              <LatitudeDegrees>40.80000190995633602142333984375</LatitudeDegrees>
              <LongitudeDegrees>-3.755490593612194061279296875</LongitudeDegrees>
            </Position>
            <AltitudeMeters>992.4000244140625</AltitudeMeters>
            <DistanceMeters>46408.398955237</DistanceMeters>
          </Trackpoint>
          <Trackpoint>
            <Time>2020-03-07T14:56:09.000Z</Time>
            <Position>
              <LatitudeDegrees>40.80002881586551666259765625</LatitudeDegrees>
              <LongitudeDegrees>-3.75551615841686725616455078125</LongitudeDegrees>
            </Position>
            <AltitudeMeters>992.4000244140625</AltitudeMeters>
            <DistanceMeters>46412.087901591</DistanceMeters>
          </Trackpoint>
          <Trackpoint>
            <Time>2020-03-07T14:56:10.000Z</Time>
            <Position>
              <LatitudeDegrees>40.80005253665149211883544921875</LatitudeDegrees>
              <LongitudeDegrees>-3.7555403821170330047607421875</LongitudeDegrees>
            </Position>
            <AltitudeMeters>992.5999755859375</AltitudeMeters>
            <DistanceMeters>46415.423325728</DistanceMeters>
          </Trackpoint>
          <Trackpoint>
            <Time>2020-03-07T14:56:11.000Z</Time>
            <Position>
              <LatitudeDegrees>40.80007399432361125946044921875</LatitudeDegrees>
              <LongitudeDegrees>-3.7555695511400699615478515625</LongitudeDegrees>
            </Position>
            <AltitudeMeters>992.5999755859375</AltitudeMeters>
            <DistanceMeters>46418.84956264</DistanceMeters>
          </Trackpoint>
          <Trackpoint>
            <Time>2020-03-07T14:56:12.000Z</Time>
            <Position>
              <LatitudeDegrees>40.8000936917960643768310546875</LatitudeDegrees>
              <LongitudeDegrees>-3.7556017376482486724853515625</LongitudeDegrees>
            </Position>
            <AltitudeMeters>992.79998779296875</AltitudeMeters>
            <DistanceMeters>46422.335890636</DistanceMeters>
          </Trackpoint>
          <Trackpoint>
            <Time>2020-03-07T14:56:13.000Z</Time>
            <Position>
              <LatitudeDegrees>40.80011271871626377105712890625</LatitudeDegrees>
              <LongitudeDegrees>-3.75563451088964939117431640625</LongitudeDegrees>
            </Position>
            <AltitudeMeters>993</AltitudeMeters>
            <DistanceMeters>46425.817034498</DistanceMeters>
          </Trackpoint>
          <Trackpoint>
            <Time>2020-03-07T14:56:14.000Z</Time>
            <Position>
              <LatitudeDegrees>40.80013115890324115753173828125</LatitudeDegrees>
              <LongitudeDegrees>-3.75566820614039897918701171875</LongitudeDegrees>
            </Position>
            <AltitudeMeters>993.20001220703125</AltitudeMeters>
            <DistanceMeters>46429.321446569</DistanceMeters>
          </Trackpoint>
          <Trackpoint>
            <Time>2020-03-07T14:56:15.000Z</Time>
            <Position>
              <LatitudeDegrees>40.80014725215733051300048828125</LatitudeDegrees>
              <LongitudeDegrees>-3.75570408068597316741943359375</LongitudeDegrees>
            </Position>
            <AltitudeMeters>993.4000244140625</AltitudeMeters>
            <DistanceMeters>46432.836150621</DistanceMeters>
          </Trackpoint>
          <Trackpoint>
            <Time>2020-03-07T14:56:16.000Z</Time>
            <Position>
              <LatitudeDegrees>40.80016292631626129150390625</LatitudeDegrees>
              <LongitudeDegrees>-3.75574012286961078643798828125</LongitudeDegrees>
            </Position>
            <AltitudeMeters>993.5999755859375</AltitudeMeters>
            <DistanceMeters>46436.337984971</DistanceMeters>
          </Trackpoint>
          <Trackpoint>
            <Time>2020-03-07T14:56:17.000Z</Time>
            <Position>
              <LatitudeDegrees>40.8001788519322872161865234375</LatitudeDegrees>
              <LongitudeDegrees>-3.75577582977712154388427734375</LongitudeDegrees>
            </Position>
            <AltitudeMeters>994</AltitudeMeters>
            <DistanceMeters>46439.829489403</DistanceMeters>
          </Trackpoint>
          <Trackpoint>
            <Time>2020-03-07T14:56:18.000Z</Time>
            <Position>
              <LatitudeDegrees>40.8001936040818691253662109375</LatitudeDegrees>
              <LongitudeDegrees>-3.755812458693981170654296875</LongitudeDegrees>
            </Position>
            <AltitudeMeters>994.20001220703125</AltitudeMeters>
            <DistanceMeters>46443.326162608</DistanceMeters>
          </Trackpoint>
          <Trackpoint>
            <Time>2020-03-07T14:56:19.000Z</Time>
            <Position>
              <LatitudeDegrees>40.80020827241241931915283203125</LatitudeDegrees>
              <LongitudeDegrees>-3.7558515183627605438232421875</LongitudeDegrees>
            </Position>
            <AltitudeMeters>994.4000244140625</AltitudeMeters>
            <DistanceMeters>46446.999163317</DistanceMeters>
          </Trackpoint>
          <Trackpoint>
            <Time>2020-03-07T14:56:20.000Z</Time>
            <Position>
              <LatitudeDegrees>40.800222940742969512939453125</LatitudeDegrees>
              <LongitudeDegrees>-3.7558900751173496246337890625</LongitudeDegrees>
            </Position>
            <AltitudeMeters>994.5999755859375</AltitudeMeters>
            <DistanceMeters>46450.635099498</DistanceMeters>
          </Trackpoint>
          <Trackpoint>
            <Time>2020-03-07T14:56:21.000Z</Time>
            <Position>
              <LatitudeDegrees>40.80023811198770999908447265625</LatitudeDegrees>
              <LongitudeDegrees>-3.7559266202151775360107421875</LongitudeDegrees>
            </Position>
            <AltitudeMeters>994.79998779296875</AltitudeMeters>
            <DistanceMeters>46454.147233383</DistanceMeters>
          </Trackpoint>
          <Trackpoint>
            <Time>2020-03-07T14:56:22.000Z</Time>
            <Position>
              <LatitudeDegrees>40.8002521097660064697265625</LatitudeDegrees>
              <LongitudeDegrees>-3.75596509315073490142822265625</LongitudeDegrees>
            </Position>
            <AltitudeMeters>995.20001220703125</AltitudeMeters>
            <DistanceMeters>46457.743213008</DistanceMeters>
          </Trackpoint>
          <Trackpoint>
            <Time>2020-03-07T14:56:23.000Z</Time>
            <Position>
              <LatitudeDegrees>40.800262503325939178466796875</LatitudeDegrees>
              <LongitudeDegrees>-3.75600331462919712066650390625</LongitudeDegrees>
            </Position>
            <AltitudeMeters>995.4000244140625</AltitudeMeters>
            <DistanceMeters>46461.164174726</DistanceMeters>
          </Trackpoint>
          <Trackpoint>
            <Time>2020-03-07T14:56:24.000Z</Time>
            <Position>
              <LatitudeDegrees>40.8002757467329502105712890625</LatitudeDegrees>
              <LongitudeDegrees>-3.75604287721216678619384765625</LongitudeDegrees>
            </Position>
            <AltitudeMeters>995.5999755859375</AltitudeMeters>
            <DistanceMeters>46464.807553978</DistanceMeters>
          </Trackpoint>
          <Trackpoint>
            <Time>2020-03-07T14:56:25.000Z</Time>
            <Position>
              <LatitudeDegrees>40.800286643207073211669921875</LatitudeDegrees>
              <LongitudeDegrees>-3.75607958994805812835693359375</LongitudeDegrees>
            </Position>
            <AltitudeMeters>995.5999755859375</AltitudeMeters>
            <DistanceMeters>46468.129413911</DistanceMeters>
          </Trackpoint>
          <Trackpoint>
            <Time>2020-03-07T14:56:26.000Z</Time>
            <Position>
              <LatitudeDegrees>40.8002977073192596435546875</LatitudeDegrees>
              <LongitudeDegrees>-3.7561183981597423553466796875</LongitudeDegrees>
            </Position>
            <AltitudeMeters>995.79998779296875</AltitudeMeters>
            <DistanceMeters>46471.623503685</DistanceMeters>
          </Trackpoint>
          <Trackpoint>
            <Time>2020-03-07T14:56:27.000Z</Time>
            <Position>
              <LatitudeDegrees>40.800306089222431182861328125</LatitudeDegrees>
              <LongitudeDegrees>-3.75615837983787059783935546875</LongitudeDegrees>
            </Position>
            <AltitudeMeters>996</AltitudeMeters>
            <DistanceMeters>46475.12017689</DistanceMeters>
          </Trackpoint>
          <Trackpoint>
            <Time>2020-03-07T14:56:28.000Z</Time>
            <Position>
              <LatitudeDegrees>40.80031438730657100677490234375</LatitudeDegrees>
              <LongitudeDegrees>-3.7561981938779354095458984375</LongitudeDegrees>
            </Position>
            <AltitudeMeters>996.20001220703125</AltitudeMeters>
            <DistanceMeters>46478.598725788</DistanceMeters>
          </Trackpoint>
          <Trackpoint>
            <Time>2020-03-07T14:56:29.000Z</Time>
            <Position>
              <LatitudeDegrees>40.800323188304901123046875</LatitudeDegrees>
              <LongitudeDegrees>-3.75623834319412708282470703125</LongitudeDegrees>
            </Position>
            <AltitudeMeters>996.5999755859375</AltitudeMeters>
            <DistanceMeters>46482.119847053</DistanceMeters>
          </Trackpoint>
          <Trackpoint>
            <Time>2020-03-07T14:56:30.000Z</Time>
            <Position>
              <LatitudeDegrees>40.80033215694129467010498046875</LatitudeDegrees>
              <LongitudeDegrees>-3.75627941451966762542724609375</LongitudeDegrees>
            </Position>
            <AltitudeMeters>996.79998779296875</AltitudeMeters>
            <DistanceMeters>46485.720845494</DistanceMeters>
          </Trackpoint>
          <Trackpoint>
            <Time>2020-03-07T14:56:31.000Z</Time>
            <Position>
              <LatitudeDegrees>40.80034087412059307098388671875</LatitudeDegrees>
              <LongitudeDegrees>-3.75632098875939846038818359375</LongitudeDegrees>
            </Position>
            <AltitudeMeters>997</AltitudeMeters>
            <DistanceMeters>46489.354297263</DistanceMeters>
          </Trackpoint>
          <Trackpoint>
            <Time>2020-03-07T14:56:32.000Z</Time>
            <Position>
              <LatitudeDegrees>40.800348334014415740966796875</LatitudeDegrees>
              <LongitudeDegrees>-3.75636306591331958770751953125</LongitudeDegrees>
            </Position>
            <AltitudeMeters>997.4000244140625</AltitudeMeters>
            <DistanceMeters>46492.995197182</DistanceMeters>
          </Trackpoint>
          <Trackpoint>
            <Time>2020-03-07T14:56:33.000Z</Time>
            <Position>
              <LatitudeDegrees>40.80035579390823841094970703125</LatitudeDegrees>
              <LongitudeDegrees>-3.7564053945243358612060546875</LongitudeDegrees>
            </Position>
            <AltitudeMeters>997.5999755859375</AltitudeMeters>
            <DistanceMeters>46496.658350686</DistanceMeters>
          </Trackpoint>
          <Trackpoint>
            <Time>2020-03-07T14:56:34.000Z</Time>
            <Position>
              <LatitudeDegrees>40.80036233179271221160888671875</LatitudeDegrees>
              <LongitudeDegrees>-3.7564483098685741424560546875</LongitudeDegrees>
            </Position>
            <AltitudeMeters>997.79998779296875</AltitudeMeters>
            <DistanceMeters>46500.3460729</DistanceMeters>
          </Trackpoint>
          <Trackpoint>
            <Time>2020-03-07T14:56:35.000Z</Time>
            <Position>
              <LatitudeDegrees>40.80036635510623455047607421875</LatitudeDegrees>
              <LongitudeDegrees>-3.75649164430797100067138671875</LongitudeDegrees>
            </Position>
            <AltitudeMeters>998</AltitudeMeters>
            <DistanceMeters>46504.022759511</DistanceMeters>
          </Trackpoint>
          <Trackpoint>
            <Time>2020-03-07T14:56:36.000Z</Time>
            <Position>
              <LatitudeDegrees>40.80037155188620090484619140625</LatitudeDegrees>
              <LongitudeDegrees>-3.75653497874736785888671875</LongitudeDegrees>
            </Position>
            <AltitudeMeters>998.4000244140625</AltitudeMeters>
            <DistanceMeters>46507.717820483</DistanceMeters>
          </Trackpoint>
          <Trackpoint>
            <Time>2020-03-07T14:56:37.000Z</Time>
            <Position>
              <LatitudeDegrees>40.80037792213261127471923828125</LatitudeDegrees>
              <LongitudeDegrees>-3.7565777264535427093505859375</LongitudeDegrees>
            </Position>
            <AltitudeMeters>998.5999755859375</AltitudeMeters>
            <DistanceMeters>46511.389591735</DistanceMeters>
          </Trackpoint>
          <Trackpoint>
            <Time>2020-03-07T14:56:38.000Z</Time>
            <Position>
              <LatitudeDegrees>40.800383202731609344482421875</LatitudeDegrees>
              <LongitudeDegrees>-3.75661988742649555206298828125</LongitudeDegrees>
            </Position>
            <AltitudeMeters>998.79998779296875</AltitudeMeters>
            <DistanceMeters>46514.990590176</DistanceMeters>
          </Trackpoint>
          <Trackpoint>
            <Time>2020-03-07T14:56:39.000Z</Time>
            <Position>
              <LatitudeDegrees>40.8003883995115756988525390625</LatitudeDegrees>
              <LongitudeDegrees>-3.7566625513136386871337890625</LongitudeDegrees>
            </Position>
            <AltitudeMeters>999</AltitudeMeters>
            <DistanceMeters>46518.631490095</DistanceMeters>
          </Trackpoint>
          <Trackpoint>
            <Time>2020-03-07T14:56:40.000Z</Time>
            <Position>
              <LatitudeDegrees>40.80039435066282749176025390625</LatitudeDegrees>
              <LongitudeDegrees>-3.7567044608294963836669921875</LongitudeDegrees>
            </Position>
            <AltitudeMeters>999.4000244140625</AltitudeMeters>
            <DistanceMeters>46522.224957685</DistanceMeters>
          </Trackpoint>
          <Trackpoint>
            <Time>2020-03-07T14:56:41.000Z</Time>
            <Position>
              <LatitudeDegrees>40.80039803870022296905517578125</LatitudeDegrees>
              <LongitudeDegrees>-3.75674662180244922637939453125</LongitudeDegrees>
            </Position>
            <AltitudeMeters>999.5999755859375</AltitudeMeters>
            <DistanceMeters>46525.802054038</DistanceMeters>
          </Trackpoint>
          <Trackpoint>
            <Time>2020-03-07T14:56:42.000Z</Time>
            <Position>
              <LatitudeDegrees>40.80040055327117443084716796875</LatitudeDegrees>
              <LongitudeDegrees>-3.756788782775402069091796875</LongitudeDegrees>
            </Position>
            <AltitudeMeters>999.79998779296875</AltitudeMeters>
            <DistanceMeters>46529.365239057</DistanceMeters>
          </Trackpoint>
          <Trackpoint>
            <Time>2020-03-07T14:56:43.000Z</Time>
            <Position>
              <LatitudeDegrees>40.800404660403728485107421875</LatitudeDegrees>
              <LongitudeDegrees>-3.75683111138641834259033203125</LongitudeDegrees>
            </Position>
            <AltitudeMeters>1000</AltitudeMeters>
            <DistanceMeters>46532.961218683</DistanceMeters>
          </Trackpoint>
          <Trackpoint>
            <Time>2020-03-07T14:56:44.000Z</Time>
            <Position>
              <LatitudeDegrees>40.80040910281240940093994140625</LatitudeDegrees>
              <LongitudeDegrees>-3.75687251798808574676513671875</LongitudeDegrees>
            </Position>
            <AltitudeMeters>1000.20001220703125</AltitudeMeters>
            <DistanceMeters>46536.484903559</DistanceMeters>
          </Trackpoint>
          <Trackpoint>
            <Time>2020-03-07T14:56:45.000Z</Time>
            <Position>
              <LatitudeDegrees>40.80041497014462947845458984375</LatitudeDegrees>
              <LongitudeDegrees>-3.75691342167556285858154296875</LongitudeDegrees>
            </Position>
            <AltitudeMeters>1000.4000244140625</AltitudeMeters>
            <DistanceMeters>46539.991891457</DistanceMeters>
          </Trackpoint>
          <Trackpoint>
            <Time>2020-03-07T14:56:46.000Z</Time>
            <Position>
              <LatitudeDegrees>40.80042301677167415618896484375</LatitudeDegrees>
              <LongitudeDegrees>-3.75695407390594482421875</LongitudeDegrees>
            </Position>
            <AltitudeMeters>1000.79998779296875</AltitudeMeters>
            <DistanceMeters>46543.532194566</DistanceMeters>
          </Trackpoint>
          <Trackpoint>
            <Time>2020-03-07T14:56:47.000Z</Time>
            <Position>
              <LatitudeDegrees>40.8004316501319408416748046875</LatitudeDegrees>
              <LongitudeDegrees>-3.75699388794600963592529296875</LongitudeDegrees>
            </Position>
            <AltitudeMeters>1001</AltitudeMeters>
            <DistanceMeters>46547.02111174</DistanceMeters>
          </Trackpoint>
          <Trackpoint>
            <Time>2020-03-07T14:56:48.000Z</Time>
            <Position>
              <LatitudeDegrees>40.80043911002576351165771484375</LatitudeDegrees>
              <LongitudeDegrees>-3.7570330314338207244873046875</LongitudeDegrees>
            </Position>
            <AltitudeMeters>1001.20001220703125</AltitudeMeters>
            <DistanceMeters>46550.422218608</DistanceMeters>
          </Trackpoint>
          <Trackpoint>
            <Time>2020-03-07T14:56:49.000Z</Time>
            <Position>
              <LatitudeDegrees>40.8004457317292690277099609375</LatitudeDegrees>
              <LongitudeDegrees>-3.75707217492163181304931640625</LongitudeDegrees>
            </Position>
            <AltitudeMeters>1001.4000244140625</AltitudeMeters>
            <DistanceMeters>46553.80201841</DistanceMeters>
          </Trackpoint>
          <Trackpoint>
            <Time>2020-03-07T14:56:50.000Z</Time>
            <Position>
              <LatitudeDegrees>40.80045268870890140533447265625</LatitudeDegrees>
              <LongitudeDegrees>-3.75711140222847461700439453125</LongitudeDegrees>
            </Position>
            <AltitudeMeters>1001.5999755859375</AltitudeMeters>
            <DistanceMeters>46557.196481187</DistanceMeters>
          </Trackpoint>
          <Trackpoint>
            <Time>2020-03-07T14:56:51.000Z</Time>
            <Position>
              <LatitudeDegrees>40.80045989714562892913818359375</LatitudeDegrees>
              <LongitudeDegrees>-3.757150210440158843994140625</LongitudeDegrees>
            </Position>
            <AltitudeMeters>1002</AltitudeMeters>
            <DistanceMeters>46560.56289559</DistanceMeters>
          </Trackpoint>
          <Trackpoint>
            <Time>2020-03-07T14:56:52.000Z</Time>
            <Position>
              <LatitudeDegrees>40.8004661835730075836181640625</LatitudeDegrees>
              <LongitudeDegrees>-3.75718935392796993255615234375</LongitudeDegrees>
            </Position>
            <AltitudeMeters>1002.20001220703125</AltitudeMeters>
            <DistanceMeters>46563.93467053</DistanceMeters>
          </Trackpoint>
          <Trackpoint>
            <Time>2020-03-07T14:56:53.000Z</Time>
            <Position>
              <LatitudeDegrees>40.800471045076847076416015625</LatitudeDegrees>
              <LongitudeDegrees>-3.75722958706319332122802734375</LongitudeDegrees>
            </Position>
            <AltitudeMeters>1002.5999755859375</AltitudeMeters>
            <DistanceMeters>46567.36880504</DistanceMeters>
          </Trackpoint>
          <Trackpoint>
            <Time>2020-03-07T14:56:54.000Z</Time>
            <Position>
              <LatitudeDegrees>40.80047682859003543853759765625</LatitudeDegrees>
              <LongitudeDegrees>-3.75726998783648014068603515625</LongitudeDegrees>
            </Position>
            <AltitudeMeters>1002.5999755859375</AltitudeMeters>
            <DistanceMeters>46570.831743318</DistanceMeters>
          </Trackpoint>
          <Trackpoint>
            <Time>2020-03-07T14:56:55.000Z</Time>
            <Position>
              <LatitudeDegrees>40.8004832826554775238037109375</LatitudeDegrees>
              <LongitudeDegrees>-3.75731089152395725250244140625</LongitudeDegrees>
            </Position>
            <AltitudeMeters>1002.79998779296875</AltitudeMeters>
            <DistanceMeters>46574.351582076</DistanceMeters>
          </Trackpoint>
          <Trackpoint>
            <Time>2020-03-07T14:56:56.000Z</Time>
            <Position>
              <LatitudeDegrees>40.80048923380672931671142578125</LatitudeDegrees>
              <LongitudeDegrees>-3.75735213048756122589111328125</LongitudeDegrees>
            </Position>
            <AltitudeMeters>1003</AltitudeMeters>
            <DistanceMeters>46577.889333615</DistanceMeters>
          </Trackpoint>
          <Trackpoint>
            <Time>2020-03-07T14:56:57.000Z</Time>
            <Position>
              <LatitudeDegrees>40.80049526877701282501220703125</LatitudeDegrees>
              <LongitudeDegrees>-3.75739437527954578399658203125</LongitudeDegrees>
            </Position>
            <AltitudeMeters>1003.20001220703125</AltitudeMeters>
            <DistanceMeters>46581.510337757</DistanceMeters>
          </Trackpoint>
          <Trackpoint>
            <Time>2020-03-07T14:56:58.000Z</Time>
            <Position>
              <LatitudeDegrees>40.80050264485180377960205078125</LatitudeDegrees>
              <LongitudeDegrees>-3.7574367038905620574951171875</LongitudeDegrees>
            </Position>
            <AltitudeMeters>1003.5999755859375</AltitudeMeters>
            <DistanceMeters>46585.171025321</DistanceMeters>
          </Trackpoint>
          <Trackpoint>
            <Time>2020-03-07T14:56:59.000Z</Time>
            <Position>
              <LatitudeDegrees>40.80051069147884845733642578125</LatitudeDegrees>
              <LongitudeDegrees>-3.75747911632061004638671875</LongitudeDegrees>
            </Position>
            <AltitudeMeters>1004</AltitudeMeters>
            <DistanceMeters>46588.856298035</DistanceMeters>
          </Trackpoint>
          <Trackpoint>
            <Time>2020-03-07T14:57:00.000Z</Time>
            <Position>
              <LatitudeDegrees>40.8005184866487979888916015625</LatitudeDegrees>
              <LongitudeDegrees>-3.75752178020775318145751953125</LongitudeDegrees>
            </Position>
            <AltitudeMeters>1004.20001220703125</AltitudeMeters>
            <DistanceMeters>46592.556243425</DistanceMeters>
          </Trackpoint>
          <Trackpoint>
            <Time>2020-03-07T14:57:01.000Z</Time>
            <Position>
              <LatitudeDegrees>40.800527036190032958984375</LatitudeDegrees>
              <LongitudeDegrees>-3.75756436027586460113525390625</LongitudeDegrees>
            </Position>
            <AltitudeMeters>1004.4000244140625</AltitudeMeters>
            <DistanceMeters>46596.268371743</DistanceMeters>
          </Trackpoint>
          <Trackpoint>
            <Time>2020-03-07T14:57:02.000Z</Time>
            <Position>
              <LatitudeDegrees>40.80053508281707763671875</LatitudeDegrees>
              <LongitudeDegrees>-3.757606856524944305419921875</LongitudeDegrees>
            </Position>
            <AltitudeMeters>1004.79998779296875</AltitudeMeters>
            <DistanceMeters>46599.960988083</DistanceMeters>
          </Trackpoint>
          <Trackpoint>
            <Time>2020-03-07T14:57:03.000Z</Time>
            <Position>
              <LatitudeDegrees>40.80054203979671001434326171875</LatitudeDegrees>
              <LongitudeDegrees>-3.75764918513596057891845703125</LongitudeDegrees>
            </Position>
            <AltitudeMeters>1005</AltitudeMeters>
            <DistanceMeters>46603.611795231</DistanceMeters>
          </Trackpoint>
          <Trackpoint>
            <Time>2020-03-07T14:57:04.000Z</Time>
            <Position>
              <LatitudeDegrees>40.80054874531924724578857421875</LatitudeDegrees>
              <LongitudeDegrees>-3.75769193284213542938232421875</LongitudeDegrees>
            </Position>
            <AltitudeMeters>1005</AltitudeMeters>
            <DistanceMeters>46607.290937058</DistanceMeters>
          </Trackpoint>
          <Trackpoint>
            <Time>2020-03-07T14:57:05.000Z</Time>
            <Position>
              <LatitudeDegrees>40.8005551993846893310546875</LatitudeDegrees>
              <LongitudeDegrees>-3.75773367471992969512939453125</LongitudeDegrees>
            </Position>
            <AltitudeMeters>1005.20001220703125</AltitudeMeters>
            <DistanceMeters>46610.880633297</DistanceMeters>
          </Trackpoint>
          <Trackpoint>
            <Time>2020-03-07T14:57:06.000Z</Time>
            <Position>
              <LatitudeDegrees>40.800561569631099700927734375</LatitudeDegrees>
              <LongitudeDegrees>-3.75777558423578739166259765625</LongitudeDegrees>
            </Position>
            <AltitudeMeters>1005.4000244140625</AltitudeMeters>
            <DistanceMeters>46614.481631738</DistanceMeters>
          </Trackpoint>
          <Trackpoint>
            <Time>2020-03-07T14:57:07.000Z</Time>
            <Position>
              <LatitudeDegrees>40.8005674369633197784423828125</LatitudeDegrees>
              <LongitudeDegrees>-3.7578172422945499420166015625</LongitudeDegrees>
            </Position>
            <AltitudeMeters>1005.5999755859375</AltitudeMeters>
            <DistanceMeters>46618.052411476</DistanceMeters>
          </Trackpoint>
          <Trackpoint>
            <Time>2020-03-07T14:57:08.000Z</Time>
            <Position>
              <LatitudeDegrees>40.80057322047650814056396484375</LatitudeDegrees>
              <LongitudeDegrees>-3.757859654724597930908203125</LongitudeDegrees>
            </Position>
            <AltitudeMeters>1005.79998779296875</AltitudeMeters>
            <DistanceMeters>46621.684620403</DistanceMeters>
          </Trackpoint>
          <Trackpoint>
            <Time>2020-03-07T14:57:09.000Z</Time>
            <Position>
              <LatitudeDegrees>40.8005795069038867950439453125</LatitudeDegrees>
              <LongitudeDegrees>-3.75790282152593135833740234375</LongitudeDegrees>
            </Position>
            <AltitudeMeters>1006.20001220703125</AltitudeMeters>
            <DistanceMeters>46625.388224879</DistanceMeters>
          </Trackpoint>
          <Trackpoint>
            <Time>2020-03-07T14:57:10.000Z</Time>
            <Position>
              <LatitudeDegrees>40.80058495514094829559326171875</LatitudeDegrees>
              <LongitudeDegrees>-3.757945485413074493408203125</LongitudeDegrees>
            </Position>
            <AltitudeMeters>1006.4000244140625</AltitudeMeters>
            <DistanceMeters>46629.034081778</DistanceMeters>
          </Trackpoint>
          <Trackpoint>
            <Time>2020-03-07T14:57:11.000Z</Time>
            <Position>
              <LatitudeDegrees>40.80058948136866092681884765625</LatitudeDegrees>
              <LongitudeDegrees>-3.75798764638602733612060546875</LongitudeDegrees>
            </Position>
            <AltitudeMeters>1006.5999755859375</AltitudeMeters>
            <DistanceMeters>46632.622520019</DistanceMeters>
          </Trackpoint>
          <Trackpoint>
            <Time>2020-03-07T14:57:12.000Z</Time>
            <Position>
              <LatitudeDegrees>40.8005949296057224273681640625</LatitudeDegrees>
              <LongitudeDegrees>-3.7580267898738384246826171875</LongitudeDegrees>
            </Position>
            <AltitudeMeters>1006.79998779296875</AltitudeMeters>
            <DistanceMeters>46635.976841895</DistanceMeters>
          </Trackpoint>
          <Trackpoint>
            <Time>2020-03-07T14:57:13.000Z</Time>
            <Position>
              <LatitudeDegrees>40.8006023056805133819580078125</LatitudeDegrees>
              <LongitudeDegrees>-3.75806744210422039031982421875</LongitudeDegrees>
            </Position>
            <AltitudeMeters>1007.20001220703125</AltitudeMeters>
            <DistanceMeters>46639.497963159</DistanceMeters>
          </Trackpoint>
          <Trackpoint>
            <Time>2020-03-07T14:57:14.000Z</Time>
            <Position>
              <LatitudeDegrees>40.8006076700985431671142578125</LatitudeDegrees>
              <LongitudeDegrees>-3.75810868106782436370849609375</LongitudeDegrees>
            </Position>
            <AltitudeMeters>1007.5999755859375</AltitudeMeters>
            <DistanceMeters>46643.022929143</DistanceMeters>
          </Trackpoint>
          <Trackpoint>
            <Time>2020-03-07T14:57:15.000Z</Time>
            <Position>
              <LatitudeDegrees>40.8006088435649871826171875</LatitudeDegrees>
              <LongitudeDegrees>-3.75815075822174549102783203125</LongitudeDegrees>
            </Position>
            <AltitudeMeters>1008</AltitudeMeters>
            <DistanceMeters>46646.570875953</DistanceMeters>
          </Trackpoint>
          <Trackpoint>
            <Time>2020-03-07T14:57:16.000Z</Time>
            <Position>
              <LatitudeDegrees>40.8006080053746700286865234375</LatitudeDegrees>
              <LongitudeDegrees>-3.75819266773760318756103515625</LongitudeDegrees>
            </Position>
            <AltitudeMeters>1008.20001220703125</AltitudeMeters>
            <DistanceMeters>46650.103518822</DistanceMeters>
          </Trackpoint>
          <Trackpoint>
            <Time>2020-03-07T14:57:17.000Z</Time>
            <Position>
              <LatitudeDegrees>40.80060758627951145172119140625</LatitudeDegrees>
              <LongitudeDegrees>-3.7582339905202388763427734375</LongitudeDegrees>
            </Position>
            <AltitudeMeters>1008.4000244140625</AltitudeMeters>
            <DistanceMeters>46653.585959441</DistanceMeters>
          </Trackpoint>
          <Trackpoint>
            <Time>2020-03-07T14:57:18.000Z</Time>
            <Position>
              <LatitudeDegrees>40.80060808919370174407958984375</LatitudeDegrees>
              <LongitudeDegrees>-3.75827548094093799591064453125</LongitudeDegrees>
            </Position>
            <AltitudeMeters>1008.5999755859375</AltitudeMeters>
            <DistanceMeters>46657.08134117</DistanceMeters>
          </Trackpoint>
          <Trackpoint>
            <Time>2020-03-07T14:57:19.000Z</Time>
            <Position>
              <LatitudeDegrees>40.80060943029820919036865234375</LatitudeDegrees>
              <LongitudeDegrees>-3.75831739045679569244384765625</LongitudeDegrees>
            </Position>
            <AltitudeMeters>1008.79998779296875</AltitudeMeters>
            <DistanceMeters>46660.616539297</DistanceMeters>
          </Trackpoint>
          <Trackpoint>
            <Time>2020-03-07T14:57:20.000Z</Time>
            <Position>
              <LatitudeDegrees>40.800607502460479736328125</LatitudeDegrees>
              <LongitudeDegrees>-3.75835611484944820404052734375</LongitudeDegrees>
            </Position>
            <AltitudeMeters>1009.20001220703125</AltitudeMeters>
            <DistanceMeters>46663.886342121</DistanceMeters>
          </Trackpoint>
          <Trackpoint>
            <Time>2020-03-07T14:57:21.000Z</Time>
            <Position>
              <LatitudeDegrees>40.80060482025146484375</LatitudeDegrees>
              <LongitudeDegrees>-3.75839785672724246978759765625</LongitudeDegrees>
            </Position>
            <AltitudeMeters>1009.4000244140625</AltitudeMeters>
            <DistanceMeters>46667.416427884</DistanceMeters>
          </Trackpoint>
          <Trackpoint>
            <Time>2020-03-07T14:57:22.000Z</Time>
            <Position>
              <LatitudeDegrees>40.80060138367116451263427734375</LatitudeDegrees>
              <LongitudeDegrees>-3.75843976624310016632080078125</LongitudeDegrees>
            </Position>
            <AltitudeMeters>1009.5999755859375</AltitudeMeters>
            <DistanceMeters>46670.969461358</DistanceMeters>
          </Trackpoint>
          <Trackpoint>
            <Time>2020-03-07T14:57:23.000Z</Time>
            <Position>
              <LatitudeDegrees>40.80059970729053020477294921875</LatitudeDegrees>
              <LongitudeDegrees>-3.7584831006824970245361328125</LongitudeDegrees>
            </Position>
            <AltitudeMeters>1009.79998779296875</AltitudeMeters>
            <DistanceMeters>46674.625212052</DistanceMeters>
          </Trackpoint>
          <Trackpoint>
            <Time>2020-03-07T14:57:24.000Z</Time>
            <Position>
              <LatitudeDegrees>40.8005986176431179046630859375</LatitudeDegrees>
              <LongitudeDegrees>-3.758528195321559906005859375</LongitudeDegrees>
            </Position>
            <AltitudeMeters>1010</AltitudeMeters>
            <DistanceMeters>46678.427468276</DistanceMeters>
          </Trackpoint>
          <Trackpoint>
            <Time>2020-03-07T14:57:25.000Z</Time>
            <Position>
              <LatitudeDegrees>40.800597779452800750732421875</LatitudeDegrees>
              <LongitudeDegrees>-3.75857337377965450286865234375</LongitudeDegrees>
            </Position>
            <AltitudeMeters>1010.4000244140625</AltitudeMeters>
            <DistanceMeters>46682.234471387</DistanceMeters>
          </Trackpoint>
          <Trackpoint>
            <Time>2020-03-07T14:57:26.000Z</Time>
            <Position>
              <LatitudeDegrees>40.80059786327183246612548828125</LatitudeDegrees>
              <LongitudeDegrees>-3.758620731532573699951171875</LongitudeDegrees>
            </Position>
            <AltitudeMeters>1010.5999755859375</AltitudeMeters>
            <DistanceMeters>46686.225593391</DistanceMeters>
          </Trackpoint>
          <Trackpoint>
            <Time>2020-03-07T14:57:27.000Z</Time>
            <Position>
              <LatitudeDegrees>40.800596438348293304443359375</LatitudeDegrees>
              <LongitudeDegrees>-3.75866708345711231231689453125</LongitudeDegrees>
            </Position>
            <AltitudeMeters>1011</AltitudeMeters>
            <DistanceMeters>46690.13441538</DistanceMeters>
          </Trackpoint>
          <Trackpoint>
            <Time>2020-03-07T14:57:28.000Z</Time>
            <Position>
              <LatitudeDegrees>40.80059266649186611175537109375</LatitudeDegrees>
              <LongitudeDegrees>-3.75871301628649234771728515625</LongitudeDegrees>
            </Position>
            <AltitudeMeters>1011</AltitudeMeters>
            <DistanceMeters>46694.02703253</DistanceMeters>
          </Trackpoint>
          <Trackpoint>
            <Time>2020-03-07T14:57:29.000Z</Time>
            <Position>
              <LatitudeDegrees>40.8005875535309314727783203125</LatitudeDegrees>
              <LongitudeDegrees>-3.75875861383974552154541015625</LongitudeDegrees>
            </Position>
            <AltitudeMeters>1011.20001220703125</AltitudeMeters>
            <DistanceMeters>46697.91035941</DistanceMeters>
          </Trackpoint>
          <Trackpoint>
            <Time>2020-03-07T14:57:30.000Z</Time>
            <Position>
              <LatitudeDegrees>40.8005831949412822723388671875</LatitudeDegrees>
              <LongitudeDegrees>-3.7588039599359035491943359375</LongitudeDegrees>
            </Position>
            <AltitudeMeters>1011.79998779296875</AltitudeMeters>
            <DistanceMeters>46701.762166207</DistanceMeters>
          </Trackpoint>
          <Trackpoint>
            <Time>2020-03-07T14:57:31.000Z</Time>
            <Position>
              <LatitudeDegrees>40.80058160237967967987060546875</LatitudeDegrees>
              <LongitudeDegrees>-3.7588490545749664306640625</LongitudeDegrees>
            </Position>
            <AltitudeMeters>1012</AltitudeMeters>
            <DistanceMeters>46705.565609707</DistanceMeters>
          </Trackpoint>
          <Trackpoint>
            <Time>2020-03-07T14:57:32.000Z</Time>
            <Position>
              <LatitudeDegrees>40.80057959072291851043701171875</LatitudeDegrees>
              <LongitudeDegrees>-3.75889423303306102752685546875</LongitudeDegrees>
            </Position>
            <AltitudeMeters>1012.20001220703125</AltitudeMeters>
            <DistanceMeters>46709.378538119</DistanceMeters>
          </Trackpoint>
          <Trackpoint>
            <Time>2020-03-07T14:57:33.000Z</Time>
            <Position>
              <LatitudeDegrees>40.80057389102876186370849609375</LatitudeDegrees>
              <LongitudeDegrees>-3.7589387409389019012451171875</LongitudeDegrees>
            </Position>
            <AltitudeMeters>1012.4000244140625</AltitudeMeters>
            <DistanceMeters>46713.18198162</DistanceMeters>
          </Trackpoint>
          <Trackpoint>
            <Time>2020-03-07T14:57:34.000Z</Time>
            <Position>
              <LatitudeDegrees>40.8005667664110660552978515625</LatitudeDegrees>
              <LongitudeDegrees>-3.7589823268353939056396484375</LongitudeDegrees>
            </Position>
            <AltitudeMeters>1012.5999755859375</AltitudeMeters>
            <DistanceMeters>46716.93764127</DistanceMeters>
          </Trackpoint>
          <Trackpoint>
            <Time>2020-03-07T14:57:35.000Z</Time>
            <Position>
              <LatitudeDegrees>40.8005617372691631317138671875</LatitudeDegrees>
              <LongitudeDegrees>-3.7590255774557590484619140625</LongitudeDegrees>
            </Position>
            <AltitudeMeters>1012.79998779296875</AltitudeMeters>
            <DistanceMeters>46720.622913983</DistanceMeters>
          </Trackpoint>
          <Trackpoint>
            <Time>2020-03-07T14:57:36.000Z</Time>
            <Position>
              <LatitudeDegrees>40.800558216869831085205078125</LatitudeDegrees>
              <LongitudeDegrees>-3.7590731866657733917236328125</LongitudeDegrees>
            </Position>
            <AltitudeMeters>1013</AltitudeMeters>
            <DistanceMeters>46724.654556031</DistanceMeters>
          </Trackpoint>
          <Trackpoint>
            <Time>2020-03-07T14:57:37.000Z</Time>
            <Position>
              <LatitudeDegrees>40.80055561847984790802001953125</LatitudeDegrees>
              <LongitudeDegrees>-3.75911668874323368072509765625</LongitudeDegrees>
            </Position>
            <AltitudeMeters>1013.20001220703125</AltitudeMeters>
            <DistanceMeters>46728.331242642</DistanceMeters>
          </Trackpoint>
          <Trackpoint>
            <Time>2020-03-07T14:57:38.000Z</Time>
            <Position>
              <LatitudeDegrees>40.8005520142614841461181640625</LatitudeDegrees>
              <LongitudeDegrees>-3.759160526096820831298828125</LongitudeDegrees>
            </Position>
            <AltitudeMeters>1013.4000244140625</AltitudeMeters>
            <DistanceMeters>46732.045802751</DistanceMeters>
          </Trackpoint>
          <Trackpoint>
            <Time>2020-03-07T14:57:39.000Z</Time>
            <Position>
              <LatitudeDegrees>40.8005469851195812225341796875</LatitudeDegrees>
              <LongitudeDegrees>-3.75920302234590053558349609375</LongitudeDegrees>
            </Position>
            <AltitudeMeters>1013.5999755859375</AltitudeMeters>
            <DistanceMeters>46735.67054567</DistanceMeters>
          </Trackpoint>
          <Trackpoint>
            <Time>2020-03-07T14:57:40.000Z</Time>
            <Position>
              <LatitudeDegrees>40.80054086633026599884033203125</LatitudeDegrees>
              <LongitudeDegrees>-3.75924141146242618560791015625</LongitudeDegrees>
            </Position>
            <AltitudeMeters>1013.5999755859375</AltitudeMeters>
            <DistanceMeters>46738.976055086</DistanceMeters>
          </Trackpoint>
          <Trackpoint>
            <Time>2020-03-07T14:57:41.000Z</Time>
            <Position>
              <LatitudeDegrees>40.80053315497934818267822265625</LatitudeDegrees>
              <LongitudeDegrees>-3.75927795656025409698486328125</LongitudeDegrees>
            </Position>
            <AltitudeMeters>1013.79998779296875</AltitudeMeters>
            <DistanceMeters>46742.171836126</DistanceMeters>
          </Trackpoint>
          <Trackpoint>
            <Time>2020-03-07T14:57:42.000Z</Time>
            <Position>
              <LatitudeDegrees>40.80052427016198635101318359375</LatitudeDegrees>
              <LongitudeDegrees>-3.75931332819163799285888671875</LongitudeDegrees>
            </Position>
            <AltitudeMeters>1013.79998779296875</AltitudeMeters>
            <DistanceMeters>46745.310595977</DistanceMeters>
          </Trackpoint>
          <Trackpoint>
            <Time>2020-03-07T14:57:43.000Z</Time>
            <Position>
              <LatitudeDegrees>40.80051429569721221923828125</LatitudeDegrees>
              <LongitudeDegrees>-3.75935087911784648895263671875</LongitudeDegrees>
            </Position>
            <AltitudeMeters>1014.20001220703125</AltitudeMeters>
            <DistanceMeters>46748.6622247</DistanceMeters>
          </Trackpoint>
          <Trackpoint>
            <Time>2020-03-07T14:57:44.000Z</Time>
            <Position>
              <LatitudeDegrees>40.80050582997500896453857421875</LatitudeDegrees>
              <LongitudeDegrees>-3.759385831654071807861328125</LongitudeDegrees>
            </Position>
            <AltitudeMeters>1014.4000244140625</AltitudeMeters>
            <DistanceMeters>46751.753150269</DistanceMeters>
          </Trackpoint>
          <Trackpoint>
            <Time>2020-03-07T14:57:45.000Z</Time>
            <Position>
              <LatitudeDegrees>40.8004970289766788482666015625</LatitudeDegrees>
              <LongitudeDegrees>-3.75941843725740909576416015625</LongitudeDegrees>
            </Position>
            <AltitudeMeters>1014.5999755859375</AltitudeMeters>
            <DistanceMeters>46754.668163466</DistanceMeters>
          </Trackpoint>
          <Trackpoint>
            <Time>2020-03-07T14:57:46.000Z</Time>
            <Position>
              <LatitudeDegrees>40.80048638395965099334716796875</LatitudeDegrees>
              <LongitudeDegrees>-3.75945347361266613006591796875</LongitudeDegrees>
            </Position>
            <AltitudeMeters>1015</AltitudeMeters>
            <DistanceMeters>46757.8483656</DistanceMeters>
          </Trackpoint>
          <Trackpoint>
            <Time>2020-03-07T14:57:47.000Z</Time>
            <Position>
              <LatitudeDegrees>40.8004749007523059844970703125</LatitudeDegrees>
              <LongitudeDegrees>-3.759490437805652618408203125</LongitudeDegrees>
            </Position>
            <AltitudeMeters>1015.20001220703125</AltitudeMeters>
            <DistanceMeters>46761.216120938</DistanceMeters>
          </Trackpoint>
          <Trackpoint>
            <Time>2020-03-07T14:57:48.000Z</Time>
            <Position>
              <LatitudeDegrees>40.800462327897548675537109375</LatitudeDegrees>
              <LongitudeDegrees>-3.75952606089413166046142578125</LongitudeDegrees>
            </Position>
            <AltitudeMeters>1015.4000244140625</AltitudeMeters>
            <DistanceMeters>46764.529815697</DistanceMeters>
          </Trackpoint>
          <Trackpoint>
            <Time>2020-03-07T14:57:49.000Z</Time>
            <Position>
              <LatitudeDegrees>40.80044933594763278961181640625</LatitudeDegrees>
              <LongitudeDegrees>-3.7595640309154987335205078125</LongitudeDegrees>
            </Position>
            <AltitudeMeters>1015.5999755859375</AltitudeMeters>
            <DistanceMeters>46768.039377531</DistanceMeters>
          </Trackpoint>
          <Trackpoint>
            <Time>2020-03-07T14:57:50.000Z</Time>
            <Position>
              <LatitudeDegrees>40.80043760128319263458251953125</LatitudeDegrees>
              <LongitudeDegrees>-3.75960451550781726837158203125</LongitudeDegrees>
            </Position>
            <AltitudeMeters>1015.79998779296875</AltitudeMeters>
            <DistanceMeters>46771.692657288</DistanceMeters>
          </Trackpoint>
          <Trackpoint>
            <Time>2020-03-07T14:57:51.000Z</Time>
            <Position>
              <LatitudeDegrees>40.8004279620945453643798828125</LatitudeDegrees>
              <LongitudeDegrees>-3.759645335376262664794921875</LongitudeDegrees>
            </Position>
            <AltitudeMeters>1015.79998779296875</AltitudeMeters>
            <DistanceMeters>46775.296162516</DistanceMeters>
          </Trackpoint>
          <Trackpoint>
            <Time>2020-03-07T14:57:52.000Z</Time>
            <Position>
              <LatitudeDegrees>40.80041798762977123260498046875</LatitudeDegrees>
              <LongitudeDegrees>-3.7596870772540569305419921875</LongitudeDegrees>
            </Position>
            <AltitudeMeters>1016</AltitudeMeters>
            <DistanceMeters>46778.98388473</DistanceMeters>
          </Trackpoint>
          <Trackpoint>
            <Time>2020-03-07T14:57:53.000Z</Time>
            <Position>
              <LatitudeDegrees>40.80040642060339450836181640625</LatitudeDegrees>
              <LongitudeDegrees>-3.75972940586507320404052734375</LongitudeDegrees>
            </Position>
            <AltitudeMeters>1016.20001220703125</AltitudeMeters>
            <DistanceMeters>46782.775438725</DistanceMeters>
          </Trackpoint>
          <Trackpoint>
            <Time>2020-03-07T14:57:54.000Z</Time>
            <Position>
              <LatitudeDegrees>40.8003934286534786224365234375</LatitudeDegrees>
              <LongitudeDegrees>-3.75977299176156520843505859375</LongitudeDegrees>
            </Position>
            <AltitudeMeters>1016.4000244140625</AltitudeMeters>
            <DistanceMeters>46786.721050438</DistanceMeters>
          </Trackpoint>
          <Trackpoint>
            <Time>2020-03-07T14:57:55.000Z</Time>
            <Position>
              <LatitudeDegrees>40.8003810234367847442626953125</LatitudeDegrees>
              <LongitudeDegrees>-3.7598133087158203125</LongitudeDegrees>
            </Position>
            <AltitudeMeters>1016.5999755859375</AltitudeMeters>
            <DistanceMeters>46790.386668223</DistanceMeters>
          </Trackpoint>
          <Trackpoint>
            <Time>2020-03-07T14:57:56.000Z</Time>
            <Position>
              <LatitudeDegrees>40.80036736093461513519287109375</LatitudeDegrees>
              <LongitudeDegrees>-3.7598537094891071319580078125</LongitudeDegrees>
            </Position>
            <AltitudeMeters>1016.5999755859375</AltitudeMeters>
            <DistanceMeters>46794.115785776</DistanceMeters>
          </Trackpoint>
          <Trackpoint>
            <Time>2020-03-07T14:57:57.000Z</Time>
            <Position>
              <LatitudeDegrees>40.80035177059471607208251953125</LatitudeDegrees>
              <LongitudeDegrees>-3.75989939086139202117919921875</LongitudeDegrees>
            </Position>
            <AltitudeMeters>1017</AltitudeMeters>
            <DistanceMeters>46798.338865337</DistanceMeters>
          </Trackpoint>
          <Trackpoint>
            <Time>2020-03-07T14:57:58.000Z</Time>
            <Position>
              <LatitudeDegrees>40.800336934626102447509765625</LatitudeDegrees>
              <LongitudeDegrees>-3.7599407136440277099609375</LongitudeDegrees>
            </Position>
            <AltitudeMeters>1017.4000244140625</AltitudeMeters>
            <DistanceMeters>46802.191844142</DistanceMeters>
          </Trackpoint>
          <Trackpoint>
            <Time>2020-03-07T14:57:59.000Z</Time>
            <Position>
              <LatitudeDegrees>40.80032109282910823822021484375</LatitudeDegrees>
              <LongitudeDegrees>-3.7599801085889339447021484375</LongitudeDegrees>
            </Position>
            <AltitudeMeters>1017.5999755859375</AltitudeMeters>
            <DistanceMeters>46805.949907415</DistanceMeters>
          </Trackpoint>
          <Trackpoint>
            <Time>2020-03-07T14:58:00.000Z</Time>
            <Position>
              <LatitudeDegrees>40.80030768178403377532958984375</LatitudeDegrees>
              <LongitudeDegrees>-3.7600183300673961639404296875</LongitudeDegrees>
            </Position>
            <AltitudeMeters>1017.79998779296875</AltitudeMeters>
            <DistanceMeters>46809.500398467</DistanceMeters>
          </Trackpoint>
          <Trackpoint>
            <Time>2020-03-07T14:58:01.000Z</Time>
            <Position>
              <LatitudeDegrees>40.80029527656733989715576171875</LatitudeDegrees>
              <LongitudeDegrees>-3.76005730591714382171630859375</LongitudeDegrees>
            </Position>
            <AltitudeMeters>1018</AltitudeMeters>
            <DistanceMeters>46813.063583486</DistanceMeters>
          </Trackpoint>
          <Trackpoint>
            <Time>2020-03-07T14:58:02.000Z</Time>
            <Position>
              <LatitudeDegrees>40.8002844639122486114501953125</LatitudeDegrees>
              <LongitudeDegrees>-3.7601021490991115570068359375</LongitudeDegrees>
            </Position>
            <AltitudeMeters>1018.20001220703125</AltitudeMeters>
            <DistanceMeters>46817.029739455</DistanceMeters>
          </Trackpoint>
          <Trackpoint>
            <Time>2020-03-07T14:58:03.000Z</Time>
            <Position>
              <LatitudeDegrees>40.80027247779071331024169921875</LatitudeDegrees>
              <LongitudeDegrees>-3.76014967449009418487548828125</LongitudeDegrees>
            </Position>
            <AltitudeMeters>1018.4000244140625</AltitudeMeters>
            <DistanceMeters>46821.250680206</DistanceMeters>
          </Trackpoint>
          <Trackpoint>
            <Time>2020-03-07T14:58:04.000Z</Time>
            <Position>
              <LatitudeDegrees>40.8002609945833683013916015625</LatitudeDegrees>
              <LongitudeDegrees>-3.7601955235004425048828125</LongitudeDegrees>
            </Position>
            <AltitudeMeters>1018.5999755859375</AltitudeMeters>
            <DistanceMeters>46825.320220745</DistanceMeters>
          </Trackpoint>
          <Trackpoint>
            <Time>2020-03-07T14:58:05.000Z</Time>
            <Position>
              <LatitudeDegrees>40.8002485893666744232177734375</LatitudeDegrees>
              <LongitudeDegrees>-3.760236091911792755126953125</LongitudeDegrees>
            </Position>
            <AltitudeMeters>1018.79998779296875</AltitudeMeters>
            <DistanceMeters>46829.005493458</DistanceMeters>
          </Trackpoint>
          <Trackpoint>
            <Time>2020-03-07T14:58:06.000Z</Time>
            <Position>
              <LatitudeDegrees>40.8002355135977268218994140625</LatitudeDegrees>
              <LongitudeDegrees>-3.7602831982076168060302734375</LongitudeDegrees>
            </Position>
            <AltitudeMeters>1019</AltitudeMeters>
            <DistanceMeters>46833.231779204</DistanceMeters>
          </Trackpoint>
          <Trackpoint>
            <Time>2020-03-07T14:58:07.000Z</Time>
            <Position>
              <LatitudeDegrees>40.8002226054668426513671875</LatitudeDegrees>
              <LongitudeDegrees>-3.7603321485221385955810546875</LongitudeDegrees>
            </Position>
            <AltitudeMeters>1019.20001220703125</AltitudeMeters>
            <DistanceMeters>46837.600941779</DistanceMeters>
          </Trackpoint>
          <Trackpoint>
            <Time>2020-03-07T14:58:08.000Z</Time>
            <Position>
              <LatitudeDegrees>40.800209529697895050048828125</LatitudeDegrees>
              <LongitudeDegrees>-3.76037498004734516143798828125</LongitudeDegrees>
            </Position>
            <AltitudeMeters>1019.4000244140625</AltitudeMeters>
            <DistanceMeters>46841.492398857</DistanceMeters>
          </Trackpoint>
          <Trackpoint>
            <Time>2020-03-07T14:58:09.000Z</Time>
            <Position>
              <LatitudeDegrees>40.80019913613796234130859375</LatitudeDegrees>
              <LongitudeDegrees>-3.760419823229312896728515625</LongitudeDegrees>
            </Position>
            <AltitudeMeters>1019.4000244140625</AltitudeMeters>
            <DistanceMeters>46845.442585194</DistanceMeters>
          </Trackpoint>
          <Trackpoint>
            <Time>2020-03-07T14:58:10.000Z</Time>
            <Position>
              <LatitudeDegrees>40.800188742578029632568359375</LatitudeDegrees>
              <LongitudeDegrees>-3.76046148128807544708251953125</LongitudeDegrees>
            </Position>
            <AltitudeMeters>1019.5999755859375</AltitudeMeters>
            <DistanceMeters>46849.137646166</DistanceMeters>
          </Trackpoint>
          <Trackpoint>
            <Time>2020-03-07T14:58:11.000Z</Time>
            <Position>
              <LatitudeDegrees>40.80017792992293834686279296875</LatitudeDegrees>
              <LongitudeDegrees>-3.76050238497555255889892578125</LongitudeDegrees>
            </Position>
            <AltitudeMeters>1019.79998779296875</AltitudeMeters>
            <DistanceMeters>46852.788453314</DistanceMeters>
          </Trackpoint>
          <Trackpoint>
            <Time>2020-03-07T14:58:12.000Z</Time>
            <Position>
              <LatitudeDegrees>40.80016736872494220733642578125</LatitudeDegrees>
              <LongitudeDegrees>-3.76054312102496623992919921875</LongitudeDegrees>
            </Position>
            <AltitudeMeters>1019.79998779296875</AltitudeMeters>
            <DistanceMeters>46856.416931156</DistanceMeters>
          </Trackpoint>
          <Trackpoint>
            <Time>2020-03-07T14:58:13.000Z</Time>
            <Position>
              <LatitudeDegrees>40.80015630461275577545166015625</LatitudeDegrees>
              <LongitudeDegrees>-3.760583437979221343994140625</LongitudeDegrees>
            </Position>
            <AltitudeMeters>1020</AltitudeMeters>
            <DistanceMeters>46860.03044614</DistanceMeters>
          </Trackpoint>
          <Trackpoint>
            <Time>2020-03-07T14:58:14.000Z</Time>
            <Position>
              <LatitudeDegrees>40.8001439832150936126708984375</LatitudeDegrees>
              <LongitudeDegrees>-3.76062333583831787109375</LongitudeDegrees>
            </Position>
            <AltitudeMeters>1020.20001220703125</AltitudeMeters>
            <DistanceMeters>46863.661411798</DistanceMeters>
          </Trackpoint>
          <Trackpoint>
            <Time>2020-03-07T14:58:15.000Z</Time>
            <Position>
              <LatitudeDegrees>40.80013250000774860382080078125</LatitudeDegrees>
              <LongitudeDegrees>-3.76066516153514385223388671875</LongitudeDegrees>
            </Position>
            <AltitudeMeters>1020.4000244140625</AltitudeMeters>
            <DistanceMeters>46867.409851333</DistanceMeters>
          </Trackpoint>
          <Trackpoint>
            <Time>2020-03-07T14:58:16.000Z</Time>
            <Position>
              <LatitudeDegrees>40.800121687352657318115234375</LatitudeDegrees>
              <LongitudeDegrees>-3.76070908270776271820068359375</LongitudeDegrees>
            </Position>
            <AltitudeMeters>1020.5999755859375</AltitudeMeters>
            <DistanceMeters>46871.300147995</DistanceMeters>
          </Trackpoint>
          <Trackpoint>
            <Time>2020-03-07T14:58:17.000Z</Time>
            <Position>
              <LatitudeDegrees>40.800111293792724609375</LatitudeDegrees>
              <LongitudeDegrees>-3.7607525847852230072021484375</LongitudeDegrees>
            </Position>
            <AltitudeMeters>1021</AltitudeMeters>
            <DistanceMeters>46875.143740723</DistanceMeters>
          </Trackpoint>
          <Trackpoint>
            <Time>2020-03-07T14:58:18.000Z</Time>
            <Position>
              <LatitudeDegrees>40.80009964294731616973876953125</LatitudeDegrees>
              <LongitudeDegrees>-3.7607941590249538421630859375</LongitudeDegrees>
            </Position>
            <AltitudeMeters>1021.20001220703125</AltitudeMeters>
            <DistanceMeters>46878.878907133</DistanceMeters>
          </Trackpoint>
          <Trackpoint>
            <Time>2020-03-07T14:58:19.000Z</Time>
            <Position>
              <LatitudeDegrees>40.800088159739971160888671875</LatitudeDegrees>
              <LongitudeDegrees>-3.76083430834114551544189453125</LongitudeDegrees>
            </Position>
            <AltitudeMeters>1021.5999755859375</AltitudeMeters>
            <DistanceMeters>46882.494920226</DistanceMeters>
          </Trackpoint>
          <Trackpoint>
            <Time>2020-03-07T14:58:20.000Z</Time>
            <Position>
              <LatitudeDegrees>40.8000789396464824676513671875</LatitudeDegrees>
              <LongitudeDegrees>-3.76087320037186145782470703125</LongitudeDegrees>
            </Position>
            <AltitudeMeters>1021.79998779296875</AltitudeMeters>
            <DistanceMeters>46885.929054737</DistanceMeters>
          </Trackpoint>
          <Trackpoint>
            <Time>2020-03-07T14:58:21.000Z</Time>
            <Position>
              <LatitudeDegrees>40.80006980337202548980712890625</LatitudeDegrees>
              <LongitudeDegrees>-3.76091343350708484649658203125</LongitudeDegrees>
            </Position>
            <AltitudeMeters>1022</AltitudeMeters>
            <DistanceMeters>46889.469357846</DistanceMeters>
          </Trackpoint>
          <Trackpoint>
            <Time>2020-03-07T14:58:22.000Z</Time>
            <Position>
              <LatitudeDegrees>40.80006158910691738128662109375</LatitudeDegrees>
              <LongitudeDegrees>-3.76095400191843509674072265625</LongitudeDegrees>
            </Position>
            <AltitudeMeters>1022</AltitudeMeters>
            <DistanceMeters>46893.009660955</DistanceMeters>
          </Trackpoint>
          <Trackpoint>
            <Time>2020-03-07T14:58:23.000Z</Time>
            <Position>
              <LatitudeDegrees>40.8000514470040798187255859375</LatitudeDegrees>
              <LongitudeDegrees>-3.76099624671041965484619140625</LongitudeDegrees>
            </Position>
            <AltitudeMeters>1022.20001220703125</AltitudeMeters>
            <DistanceMeters>46896.743618377</DistanceMeters>
          </Trackpoint>
          <Trackpoint>
            <Time>2020-03-07T14:58:24.000Z</Time>
            <Position>
              <LatitudeDegrees>40.80004063434898853302001953125</LatitudeDegrees>
              <LongitudeDegrees>-3.76103715039789676666259765625</LongitudeDegrees>
            </Position>
            <AltitudeMeters>1022.4000244140625</AltitudeMeters>
            <DistanceMeters>46900.394425525</DistanceMeters>
          </Trackpoint>
          <Trackpoint>
            <Time>2020-03-07T14:58:25.000Z</Time>
            <Position>
              <LatitudeDegrees>40.8000286482274532318115234375</LatitudeDegrees>
              <LongitudeDegrees>-3.76107822172343730926513671875</LongitudeDegrees>
            </Position>
            <AltitudeMeters>1022.5999755859375</AltitudeMeters>
            <DistanceMeters>46904.102903167</DistanceMeters>
          </Trackpoint>
          <Trackpoint>
            <Time>2020-03-07T14:58:26.000Z</Time>
            <Position>
              <LatitudeDegrees>40.8000162430107593536376953125</LatitudeDegrees>
              <LongitudeDegrees>-3.761116527020931243896484375</LongitudeDegrees>
            </Position>
            <AltitudeMeters>1023.20001220703125</AltitudeMeters>
            <DistanceMeters>46907.613751262</DistanceMeters>
          </Trackpoint>
          <Trackpoint>
            <Time>2020-03-07T14:58:27.000Z</Time>
            <Position>
              <LatitudeDegrees>40.80000442452728748321533203125</LatitudeDegrees>
              <LongitudeDegrees>-3.761156089603900909423828125</LongitudeDegrees>
            </Position>
            <AltitudeMeters>1023.4000244140625</AltitudeMeters>
            <DistanceMeters>46911.197153096</DistanceMeters>
          </Trackpoint>
          <Trackpoint>
            <Time>2020-03-07T14:58:28.000Z</Time>
            <Position>
              <LatitudeDegrees>40.79999419860541820526123046875</LatitudeDegrees>
              <LongitudeDegrees>-3.76119389198720455169677734375</LongitudeDegrees>
            </Position>
            <AltitudeMeters>1023.4000244140625</AltitudeMeters>
            <DistanceMeters>46914.579623621</DistanceMeters>
          </Trackpoint>
          <Trackpoint>
            <Time>2020-03-07T14:58:29.000Z</Time>
            <Position>
              <LatitudeDegrees>40.79998430795967578887939453125</LatitudeDegrees>
              <LongitudeDegrees>-3.7612259946763515472412109375</LongitudeDegrees>
            </Position>
            <AltitudeMeters>1023.5999755859375</AltitudeMeters>
            <DistanceMeters>46917.499279793</DistanceMeters>
          </Trackpoint>
          <Trackpoint>
            <Time>2020-03-07T14:58:30.000Z</Time>
            <Position>
              <LatitudeDegrees>40.79997374676167964935302734375</LatitudeDegrees>
              <LongitudeDegrees>-3.761253990232944488525390625</LongitudeDegrees>
            </Position>
            <AltitudeMeters>1024</AltitudeMeters>
            <DistanceMeters>46920.132737351</DistanceMeters>
          </Trackpoint>
          <Trackpoint>
            <Time>2020-03-07T14:58:31.000Z</Time>
            <Position>
              <LatitudeDegrees>40.799962095916271209716796875</LatitudeDegrees>
              <LongitudeDegrees>-3.7612870149314403533935546875</LongitudeDegrees>
            </Position>
            <AltitudeMeters>1024.199951171875</AltitudeMeters>
            <DistanceMeters>46923.200202046</DistanceMeters>
          </Trackpoint>
          <Trackpoint>
            <Time>2020-03-07T14:58:32.000Z</Time>
            <Position>
              <LatitudeDegrees>40.79995178617537021636962890625</LatitudeDegrees>
              <LongitudeDegrees>-3.761320374906063079833984375</LongitudeDegrees>
            </Position>
            <AltitudeMeters>1024.5999755859375</AltitudeMeters>
            <DistanceMeters>46926.235111925</DistanceMeters>
          </Trackpoint>
          <Trackpoint>
            <Time>2020-03-07T14:58:33.000Z</Time>
            <Position>
              <LatitudeDegrees>40.799939632415771484375</LatitudeDegrees>
              <LongitudeDegrees>-3.761354573071002960205078125</LongitudeDegrees>
            </Position>
            <AltitudeMeters>1024.800048828125</AltitudeMeters>
            <DistanceMeters>46929.416733476</DistanceMeters>
          </Trackpoint>
          <Trackpoint>
            <Time>2020-03-07T14:58:34.000Z</Time>
            <Position>
              <LatitudeDegrees>40.79992664046585559844970703125</LatitudeDegrees>
              <LongitudeDegrees>-3.76139019615948200225830078125</LongitudeDegrees>
            </Position>
            <AltitudeMeters>1025</AltitudeMeters>
            <DistanceMeters>46932.749449189</DistanceMeters>
          </Trackpoint>
          <Trackpoint>
            <Time>2020-03-07T14:58:35.000Z</Time>
            <Position>
              <LatitudeDegrees>40.79991406761109828948974609375</LatitudeDegrees>
              <LongitudeDegrees>-3.76142741180956363677978515625</LongitudeDegrees>
            </Position>
            <AltitudeMeters>1025.199951171875</AltitudeMeters>
            <DistanceMeters>46936.1835837</DistanceMeters>
          </Trackpoint>
          <Trackpoint>
            <Time>2020-03-07T14:58:36.000Z</Time>
            <Position>
              <LatitudeDegrees>40.799902416765689849853515625</LatitudeDegrees>
              <LongitudeDegrees>-3.76146445982158184051513671875</LongitudeDegrees>
            </Position>
            <AltitudeMeters>1025.4000244140625</AltitudeMeters>
            <DistanceMeters>46939.563383502</DistanceMeters>
          </Trackpoint>
          <Trackpoint>
            <Time>2020-03-07T14:58:37.000Z</Time>
            <Position>
              <LatitudeDegrees>40.79988925717771053314208984375</LatitudeDegrees>
              <LongitudeDegrees>-3.76150268130004405975341796875</LongitudeDegrees>
            </Position>
            <AltitudeMeters>1025.5999755859375</AltitudeMeters>
            <DistanceMeters>46943.101135041</DistanceMeters>
          </Trackpoint>
          <Trackpoint>
            <Time>2020-03-07T14:58:38.000Z</Time>
            <Position>
              <LatitudeDegrees>40.7998752593994140625</LatitudeDegrees>
              <LongitudeDegrees>-3.7615438364446163177490234375</LongitudeDegrees>
            </Position>
            <AltitudeMeters>1026</AltitudeMeters>
            <DistanceMeters>46946.903391264</DistanceMeters>
          </Trackpoint>
          <Trackpoint>
            <Time>2020-03-07T14:58:39.000Z</Time>
            <Position>
              <LatitudeDegrees>40.79986126162111759185791015625</LatitudeDegrees>
              <LongitudeDegrees>-3.76158633269369602203369140625</LongitudeDegrees>
            </Position>
            <AltitudeMeters>1026.4000244140625</AltitudeMeters>
            <DistanceMeters>46950.808746448</DistanceMeters>
          </Trackpoint>
          <Trackpoint>
            <Time>2020-03-07T14:58:40.000Z</Time>
            <Position>
              <LatitudeDegrees>40.7998465932905673980712890625</LatitudeDegrees>
              <LongitudeDegrees>-3.76162757165729999542236328125</LongitudeDegrees>
            </Position>
            <AltitudeMeters>1026.5999755859375</AltitudeMeters>
            <DistanceMeters>46954.647637532</DistanceMeters>
          </Trackpoint>
          <Trackpoint>
            <Time>2020-03-07T14:58:41.000Z</Time>
            <Position>
              <LatitudeDegrees>40.799832008779048919677734375</LatitudeDegrees>
              <LongitudeDegrees>-3.76167350448668003082275390625</LongitudeDegrees>
            </Position>
            <AltitudeMeters>1026.5999755859375</AltitudeMeters>
            <DistanceMeters>46958.843903618</DistanceMeters>
          </Trackpoint>
          <Trackpoint>
            <Time>2020-03-07T14:58:42.000Z</Time>
            <Position>
              <LatitudeDegrees>40.79982102848589420318603515625</LatitudeDegrees>
              <LongitudeDegrees>-3.76171809621155261993408203125</LongitudeDegrees>
            </Position>
            <AltitudeMeters>1026.800048828125</AltitudeMeters>
            <DistanceMeters>46962.794089955</DistanceMeters>
          </Trackpoint>
          <Trackpoint>
            <Time>2020-03-07T14:58:43.000Z</Time>
            <Position>
              <LatitudeDegrees>40.79981029964983463287353515625</LatitudeDegrees>
              <LongitudeDegrees>-3.761760257184505462646484375</LongitudeDegrees>
            </Position>
            <AltitudeMeters>1026.800048828125</AltitudeMeters>
            <DistanceMeters>46966.54252949</DistanceMeters>
          </Trackpoint>
          <Trackpoint>
            <Time>2020-03-07T14:58:44.000Z</Time>
            <Position>
              <LatitudeDegrees>40.7998003251850605010986328125</LatitudeDegrees>
              <LongitudeDegrees>-3.76180292107164859771728515625</LongitudeDegrees>
            </Position>
            <AltitudeMeters>1027.199951171875</AltitudeMeters>
            <DistanceMeters>46970.305395401</DistanceMeters>
          </Trackpoint>
          <Trackpoint>
            <Time>2020-03-07T14:58:45.000Z</Time>
            <Position>
              <LatitudeDegrees>40.79978984780609607696533203125</LatitudeDegrees>
              <LongitudeDegrees>-3.76184835098683834075927734375</LongitudeDegrees>
            </Position>
            <AltitudeMeters>1027.4000244140625</AltitudeMeters>
            <DistanceMeters>46974.30555733</DistanceMeters>
          </Trackpoint>
          <Trackpoint>
            <Time>2020-03-07T14:58:46.000Z</Time>
            <Position>
              <LatitudeDegrees>40.79977744258940219879150390625</LatitudeDegrees>
              <LongitudeDegrees>-3.7618918530642986297607421875</LongitudeDegrees>
            </Position>
            <AltitudeMeters>1027.800048828125</AltitudeMeters>
            <DistanceMeters>46978.221303721</DistanceMeters>
          </Trackpoint>
          <Trackpoint>
            <Time>2020-03-07T14:58:47.000Z</Time>
            <Position>
              <LatitudeDegrees>40.799764953553676605224609375</LatitudeDegrees>
              <LongitudeDegrees>-3.76193535514175891876220703125</LongitudeDegrees>
            </Position>
            <AltitudeMeters>1028</AltitudeMeters>
            <DistanceMeters>46982.141659586</DistanceMeters>
          </Trackpoint>
          <Trackpoint>
            <Time>2020-03-07T14:58:48.000Z</Time>
            <Position>
              <LatitudeDegrees>40.799752883613109588623046875</LatitudeDegrees>
              <LongitudeDegrees>-3.761978857219219207763671875</LongitudeDegrees>
            </Position>
            <AltitudeMeters>1028.199951171875</AltitudeMeters>
            <DistanceMeters>46986.045858485</DistanceMeters>
          </Trackpoint>
          <Trackpoint>
            <Time>2020-03-07T14:58:49.000Z</Time>
            <Position>
              <LatitudeDegrees>40.799740813672542572021484375</LatitudeDegrees>
              <LongitudeDegrees>-3.7620252929627895355224609375</LongitudeDegrees>
            </Position>
            <AltitudeMeters>1028.199951171875</AltitudeMeters>
            <DistanceMeters>46990.181431575</DistanceMeters>
          </Trackpoint>
          <Trackpoint>
            <Time>2020-03-07T14:58:50.000Z</Time>
            <Position>
              <LatitudeDegrees>40.79972882755100727081298828125</LatitudeDegrees>
              <LongitudeDegrees>-3.76207164488732814788818359375</LongitudeDegrees>
            </Position>
            <AltitudeMeters>1028.4000244140625</AltitudeMeters>
            <DistanceMeters>46994.308261372</DistanceMeters>
          </Trackpoint>
          <Trackpoint>
            <Time>2020-03-07T14:58:51.000Z</Time>
            <Position>
              <LatitudeDegrees>40.7997161708772182464599609375</LatitudeDegrees>
              <LongitudeDegrees>-3.76211573369801044464111328125</LongitudeDegrees>
            </Position>
            <AltitudeMeters>1028.800048828125</AltitudeMeters>
            <DistanceMeters>46998.280105219</DistanceMeters>
          </Trackpoint>
          <Trackpoint>
            <Time>2020-03-07T14:58:52.000Z</Time>
            <Position>
              <LatitudeDegrees>40.79970368184149265289306640625</LatitudeDegrees>
              <LongitudeDegrees>-3.76216149888932704925537109375</LongitudeDegrees>
            </Position>
            <AltitudeMeters>1029</AltitudeMeters>
            <DistanceMeters>47002.377288655</DistanceMeters>
          </Trackpoint>
          <Trackpoint>
            <Time>2020-03-07T14:58:53.000Z</Time>
            <Position>
              <LatitudeDegrees>40.7996906898915767669677734375</LatitudeDegrees>
              <LongitudeDegrees>-3.76220659352838993072509765625</LongitudeDegrees>
            </Position>
            <AltitudeMeters>1029.5999755859375</AltitudeMeters>
            <DistanceMeters>47006.443499418</DistanceMeters>
          </Trackpoint>
          <Trackpoint>
            <Time>2020-03-07T14:58:54.000Z</Time>
            <Position>
              <LatitudeDegrees>40.799678452312946319580078125</LatitudeDegrees>
              <LongitudeDegrees>-3.762251436710357666015625</LongitudeDegrees>
            </Position>
            <AltitudeMeters>1029.800048828125</AltitudeMeters>
            <DistanceMeters>47010.459432253</DistanceMeters>
          </Trackpoint>
          <Trackpoint>
            <Time>2020-03-07T14:58:55.000Z</Time>
            <Position>
              <LatitudeDegrees>40.7996652089059352874755859375</LatitudeDegrees>
              <LongitudeDegrees>-3.7622951902449131011962890625</LongitudeDegrees>
            </Position>
            <AltitudeMeters>1029.800048828125</AltitudeMeters>
            <DistanceMeters>47014.430139176</DistanceMeters>
          </Trackpoint>
          <Trackpoint>
            <Time>2020-03-07T14:58:56.000Z</Time>
            <Position>
              <LatitudeDegrees>40.7996521331369876861572265625</LatitudeDegrees>
              <LongitudeDegrees>-3.7623404525220394134521484375</LongitudeDegrees>
            </Position>
            <AltitudeMeters>1030.199951171875</AltitudeMeters>
            <DistanceMeters>47018.512971663</DistanceMeters>
          </Trackpoint>
          <Trackpoint>
            <Time>2020-03-07T14:58:57.000Z</Time>
            <Position>
              <LatitudeDegrees>40.79963897354900836944580078125</LatitudeDegrees>
              <LongitudeDegrees>-3.762382529675960540771484375</LongitudeDegrees>
            </Position>
            <AltitudeMeters>1030.5999755859375</AltitudeMeters>
            <DistanceMeters>47022.349509764</DistanceMeters>
          </Trackpoint>
          <Trackpoint>
            <Time>2020-03-07T14:58:58.000Z</Time>
            <Position>
              <LatitudeDegrees>40.79962539486587047576904296875</LatitudeDegrees>
              <LongitudeDegrees>-3.762424774467945098876953125</LongitudeDegrees>
            </Position>
            <AltitudeMeters>1030.800048828125</AltitudeMeters>
            <DistanceMeters>47026.216524969</DistanceMeters>
          </Trackpoint>
          <Trackpoint>
            <Time>2020-03-07T14:58:59.000Z</Time>
            <Position>
              <LatitudeDegrees>40.79961148090660572052001953125</LatitudeDegrees>
              <LongitudeDegrees>-3.76247079111635684967041015625</LongitudeDegrees>
            </Position>
            <AltitudeMeters>1031.199951171875</AltitudeMeters>
            <DistanceMeters>47030.391216279</DistanceMeters>
          </Trackpoint>
          <Trackpoint>
            <Time>2020-03-07T14:59:00.000Z</Time>
            <Position>
              <LatitudeDegrees>40.79959739930927753448486328125</LatitudeDegrees>
              <LongitudeDegrees>-3.76251236535608768463134765625</LongitudeDegrees>
            </Position>
            <AltitudeMeters>1031.4000244140625</AltitudeMeters>
            <DistanceMeters>47034.22775438</DistanceMeters>
          </Trackpoint>
          <Trackpoint>
            <Time>2020-03-07T14:59:01.000Z</Time>
            <Position>
              <LatitudeDegrees>40.79958315007388591766357421875</LatitudeDegrees>
              <LongitudeDegrees>-3.762556202709674835205078125</LongitudeDegrees>
            </Position>
            <AltitudeMeters>1031.800048828125</AltitudeMeters>
            <DistanceMeters>47038.247058643</DistanceMeters>
          </Trackpoint>
          <Trackpoint>
            <Time>2020-03-07T14:59:02.000Z</Time>
            <Position>
              <LatitudeDegrees>40.7995663024485111236572265625</LatitudeDegrees>
              <LongitudeDegrees>-3.76259769313037395477294921875</LongitudeDegrees>
            </Position>
            <AltitudeMeters>1032</AltitudeMeters>
            <DistanceMeters>47042.215490742</DistanceMeters>
          </Trackpoint>
          <Trackpoint>
            <Time>2020-03-07T14:59:03.000Z</Time>
            <Position>
              <LatitudeDegrees>40.7995493710041046142578125</LatitudeDegrees>
              <LongitudeDegrees>-3.76263759098947048187255859375</LongitudeDegrees>
            </Position>
            <AltitudeMeters>1032.199951171875</AltitudeMeters>
            <DistanceMeters>47046.069641199</DistanceMeters>
          </Trackpoint>
          <Trackpoint>
            <Time>2020-03-07T14:59:04.000Z</Time>
            <Position>
              <LatitudeDegrees>40.7995317690074443817138671875</LatitudeDegrees>
              <LongitudeDegrees>-3.762676902115345001220703125</LongitudeDegrees>
            </Position>
            <AltitudeMeters>1032.4000244140625</AltitudeMeters>
            <DistanceMeters>47049.917929828</DistanceMeters>
          </Trackpoint>
          <Trackpoint>
            <Time>2020-03-07T14:59:05.000Z</Time>
            <Position>
              <LatitudeDegrees>40.799513161182403564453125</LatitudeDegrees>
              <LongitudeDegrees>-3.76271436922252178192138671875</LongitudeDegrees>
            </Position>
            <AltitudeMeters>1032.5999755859375</AltitudeMeters>
            <DistanceMeters>47053.695167017</DistanceMeters>
          </Trackpoint>
          <Trackpoint>
            <Time>2020-03-07T14:59:06.000Z</Time>
            <Position>
              <LatitudeDegrees>40.79949262551963329315185546875</LatitudeDegrees>
              <LongitudeDegrees>-3.762750662863254547119140625</LongitudeDegrees>
            </Position>
            <AltitudeMeters>1032.800048828125</AltitudeMeters>
            <DistanceMeters>47057.512829047</DistanceMeters>
          </Trackpoint>
          <Trackpoint>
            <Time>2020-03-07T14:59:07.000Z</Time>
            <Position>
              <LatitudeDegrees>40.799472592771053314208984375</LatitudeDegrees>
              <LongitudeDegrees>-3.76279450021684169769287109375</LongitudeDegrees>
            </Position>
            <AltitudeMeters>1033</AltitudeMeters>
            <DistanceMeters>47061.826874429</DistanceMeters>
          </Trackpoint>
          <Trackpoint>
            <Time>2020-03-07T14:59:08.000Z</Time>
            <Position>
              <LatitudeDegrees>40.7994496263563632965087890625</LatitudeDegrees>
              <LongitudeDegrees>-3.762830458581447601318359375</LongitudeDegrees>
            </Position>
            <AltitudeMeters>1033.199951171875</AltitudeMeters>
            <DistanceMeters>47065.79075296</DistanceMeters>
          </Trackpoint>
          <Trackpoint>
            <Time>2020-03-07T14:59:09.000Z</Time>
            <Position>
              <LatitudeDegrees>40.79942557029426097869873046875</LatitudeDegrees>
              <LongitudeDegrees>-3.76286189071834087371826171875</LongitudeDegrees>
            </Position>
            <AltitudeMeters>1033.4000244140625</AltitudeMeters>
            <DistanceMeters>47069.556017893</DistanceMeters>
          </Trackpoint>
          <Trackpoint>
            <Time>2020-03-07T14:59:10.000Z</Time>
            <Position>
              <LatitudeDegrees>40.79940008930861949920654296875</LatitudeDegrees>
              <LongitudeDegrees>-3.76289122737944126129150390625</LongitudeDegrees>
            </Position>
            <AltitudeMeters>1033.5999755859375</AltitudeMeters>
            <DistanceMeters>47073.318883804</DistanceMeters>
          </Trackpoint>
          <Trackpoint>
            <Time>2020-03-07T14:59:11.000Z</Time>
            <Position>
              <LatitudeDegrees>40.7993768714368343353271484375</LatitudeDegrees>
              <LongitudeDegrees>-3.7629241682589054107666015625</LongitudeDegrees>
            </Position>
            <AltitudeMeters>1034</AltitudeMeters>
            <DistanceMeters>47077.111628427</DistanceMeters>
          </Trackpoint>
          <Trackpoint>
            <Time>2020-03-07T14:59:12.000Z</Time>
            <Position>
              <LatitudeDegrees>40.7993520610034465789794921875</LatitudeDegrees>
              <LongitudeDegrees>-3.76295350492000579833984375</LongitudeDegrees>
            </Position>
            <AltitudeMeters>1034.199951171875</AltitudeMeters>
            <DistanceMeters>47080.818888379</DistanceMeters>
          </Trackpoint>
          <Trackpoint>
            <Time>2020-03-07T14:59:13.000Z</Time>
            <Position>
              <LatitudeDegrees>40.7993272505700588226318359375</LatitudeDegrees>
              <LongitudeDegrees>-3.762981332838535308837890625</LongitudeDegrees>
            </Position>
            <AltitudeMeters>1034.199951171875</AltitudeMeters>
            <DistanceMeters>47084.442385467</DistanceMeters>
          </Trackpoint>
          <Trackpoint>
            <Time>2020-03-07T14:59:14.000Z</Time>
            <Position>
              <LatitudeDegrees>40.79930269159376621246337890625</LatitudeDegrees>
              <LongitudeDegrees>-3.7630086578428745269775390625</LongitudeDegrees>
            </Position>
            <AltitudeMeters>1034.4000244140625</AltitudeMeters>
            <DistanceMeters>47088.015693191</DistanceMeters>
          </Trackpoint>
          <Trackpoint>
            <Time>2020-03-07T14:59:15.000Z</Time>
            <Position>
              <LatitudeDegrees>40.79927804879844188690185546875</LatitudeDegrees>
              <LongitudeDegrees>-3.763031624257564544677734375</LongitudeDegrees>
            </Position>
            <AltitudeMeters>1034.5999755859375</AltitudeMeters>
            <DistanceMeters>47091.37270606</DistanceMeters>
          </Trackpoint>
          <Trackpoint>
            <Time>2020-03-07T14:59:16.000Z</Time>
            <Position>
              <LatitudeDegrees>40.79925491474568843841552734375</LatitudeDegrees>
              <LongitudeDegrees>-3.76305635087192058563232421875</LongitudeDegrees>
            </Position>
            <AltitudeMeters>1034.800048828125</AltitudeMeters>
            <DistanceMeters>47094.685038</DistanceMeters>
          </Trackpoint>
          <Trackpoint>
            <Time>2020-03-07T14:59:17.000Z</Time>
            <Position>
              <LatitudeDegrees>40.799234211444854736328125</LatitudeDegrees>
              <LongitudeDegrees>-3.7630844302475452423095703125</LongitudeDegrees>
            </Position>
            <AltitudeMeters>1035</AltitudeMeters>
            <DistanceMeters>47097.98781446</DistanceMeters>
          </Trackpoint>
          <Trackpoint>
            <Time>2020-03-07T14:59:18.000Z</Time>
            <Position>
              <LatitudeDegrees>40.79921417869627475738525390625</LatitudeDegrees>
              <LongitudeDegrees>-3.7631132639944553375244140625</LongitudeDegrees>
            </Position>
            <AltitudeMeters>1035.199951171875</AltitudeMeters>
            <DistanceMeters>47101.286487241</DistanceMeters>
          </Trackpoint>
          <Trackpoint>
            <Time>2020-03-07T14:59:19.000Z</Time>
            <Position>
              <LatitudeDegrees>40.79919464886188507080078125</LatitudeDegrees>
              <LongitudeDegrees>-3.7631434388458728790283203125</LongitudeDegrees>
            </Position>
            <AltitudeMeters>1035.4000244140625</AltitudeMeters>
            <DistanceMeters>47104.631373594</DistanceMeters>
          </Trackpoint>
          <Trackpoint>
            <Time>2020-03-07T14:59:20.000Z</Time>
            <Position>
              <LatitudeDegrees>40.79917587339878082275390625</LatitudeDegrees>
              <LongitudeDegrees>-3.763173781335353851318359375</LongitudeDegrees>
            </Position>
            <AltitudeMeters>1035.5999755859375</AltitudeMeters>
            <DistanceMeters>47107.934150054</DistanceMeters>
          </Trackpoint>
          <Trackpoint>
            <Time>2020-03-07T14:59:21.000Z</Time>
            <Position>
              <LatitudeDegrees>40.7991604506969451904296875</LatitudeDegrees>
              <LongitudeDegrees>-3.7632074765861034393310546875</LongitudeDegrees>
            </Position>
            <AltitudeMeters>1035.800048828125</AltitudeMeters>
            <DistanceMeters>47111.253290494</DistanceMeters>
          </Trackpoint>
          <Trackpoint>
            <Time>2020-03-07T14:59:22.000Z</Time>
            <Position>
              <LatitudeDegrees>40.7991468720138072967529296875</LatitudeDegrees>
              <LongitudeDegrees>-3.76324259676039218902587890625</LongitudeDegrees>
            </Position>
            <AltitudeMeters>1036</AltitudeMeters>
            <DistanceMeters>47114.575150427</DistanceMeters>
          </Trackpoint>
          <Trackpoint>
            <Time>2020-03-07T14:59:23.000Z</Time>
            <Position>
              <LatitudeDegrees>40.7991351373493671417236328125</LatitudeDegrees>
              <LongitudeDegrees>-3.76328031532466411590576171875</LongitudeDegrees>
            </Position>
            <AltitudeMeters>1036.4000244140625</AltitudeMeters>
            <DistanceMeters>47118.011913437</DistanceMeters>
          </Trackpoint>
          <Trackpoint>
            <Time>2020-03-07T14:59:24.000Z</Time>
            <Position>
              <LatitudeDegrees>40.79912491142749786376953125</LatitudeDegrees>
              <LongitudeDegrees>-3.7633164413273334503173828125</LongitudeDegrees>
            </Position>
            <AltitudeMeters>1036.5999755859375</AltitudeMeters>
            <DistanceMeters>47121.262327171</DistanceMeters>
          </Trackpoint>
          <Trackpoint>
            <Time>2020-03-07T14:59:25.000Z</Time>
            <Position>
              <LatitudeDegrees>40.79911627806723117828369140625</LatitudeDegrees>
              <LongitudeDegrees>-3.763353489339351654052734375</LongitudeDegrees>
            </Position>
            <AltitudeMeters>1036.800048828125</AltitudeMeters>
            <DistanceMeters>47124.526602006</DistanceMeters>
          </Trackpoint>
          <Trackpoint>
            <Time>2020-03-07T14:59:26.000Z</Time>
            <Position>
              <LatitudeDegrees>40.79911007545888423919677734375</LatitudeDegrees>
              <LongitudeDegrees>-3.76339137554168701171875</LongitudeDegrees>
            </Position>
            <AltitudeMeters>1036.800048828125</AltitudeMeters>
            <DistanceMeters>47127.790876842</DistanceMeters>
          </Trackpoint>
          <Trackpoint>
            <Time>2020-03-07T14:59:27.000Z</Time>
            <Position>
              <LatitudeDegrees>40.7991073094308376312255859375</LatitudeDegrees>
              <LongitudeDegrees>-3.7634307704865932464599609375</LongitudeDegrees>
            </Position>
            <AltitudeMeters>1037</AltitudeMeters>
            <DistanceMeters>47131.124947043</DistanceMeters>
          </Trackpoint>
          <Trackpoint>
            <Time>2020-03-07T14:59:28.000Z</Time>
            <Position>
              <LatitudeDegrees>40.79910705797374248504638671875</LatitudeDegrees>
              <LongitudeDegrees>-3.7634705007076263427734375</LongitudeDegrees>
            </Position>
            <AltitudeMeters>1037.199951171875</AltitudeMeters>
            <DistanceMeters>47134.471182957</DistanceMeters>
          </Trackpoint>
          <Trackpoint>
            <Time>2020-03-07T14:59:29.000Z</Time>
            <Position>
              <LatitudeDegrees>40.79910940490663051605224609375</LatitudeDegrees>
              <LongitudeDegrees>-3.7635115720331668853759765625</LongitudeDegrees>
            </Position>
            <AltitudeMeters>1037.199951171875</AltitudeMeters>
            <DistanceMeters>47137.941935321</DistanceMeters>
          </Trackpoint>
          <Trackpoint>
            <Time>2020-03-07T14:59:30.000Z</Time>
            <Position>
              <LatitudeDegrees>40.79911292530596256256103515625</LatitudeDegrees>
              <LongitudeDegrees>-3.76355004496872425079345703125</LongitudeDegrees>
            </Position>
            <AltitudeMeters>1037.4000244140625</AltitudeMeters>
            <DistanceMeters>47141.207593031</DistanceMeters>
          </Trackpoint>
          <Trackpoint>
            <Time>2020-03-07T14:59:31.000Z</Time>
            <Position>
              <LatitudeDegrees>40.7991170324385166168212890625</LatitudeDegrees>
              <LongitudeDegrees>-3.7635893560945987701416015625</LongitudeDegrees>
            </Position>
            <AltitudeMeters>1037.5999755859375</AltitudeMeters>
            <DistanceMeters>47144.551129279</DistanceMeters>
          </Trackpoint>
          <Trackpoint>
            <Time>2020-03-07T14:59:32.000Z</Time>
            <Position>
              <LatitudeDegrees>40.79911979846656322479248046875</LatitudeDegrees>
              <LongitudeDegrees>-3.7636285834014415740966796875</LongitudeDegrees>
            </Position>
            <AltitudeMeters>1037.800048828125</AltitudeMeters>
            <DistanceMeters>47147.871629744</DistanceMeters>
          </Trackpoint>
          <Trackpoint>
            <Time>2020-03-07T14:59:33.000Z</Time>
            <Position>
              <LatitudeDegrees>40.79912449233233928680419921875</LatitudeDegrees>
              <LongitudeDegrees>-3.7636678107082843780517578125</LongitudeDegrees>
            </Position>
            <AltitudeMeters>1038</AltitudeMeters>
            <DistanceMeters>47151.220563148</DistanceMeters>
          </Trackpoint>
          <Trackpoint>
            <Time>2020-03-07T14:59:34.000Z</Time>
            <Position>
              <LatitudeDegrees>40.799129270017147064208984375</LatitudeDegrees>
              <LongitudeDegrees>-3.76370829530060291290283203125</LongitudeDegrees>
            </Position>
            <AltitudeMeters>1038.199951171875</AltitudeMeters>
            <DistanceMeters>47154.673055133</DistanceMeters>
          </Trackpoint>
          <Trackpoint>
            <Time>2020-03-07T14:59:35.000Z</Time>
            <Position>
              <LatitudeDegrees>40.79913253895938396453857421875</LatitudeDegrees>
              <LongitudeDegrees>-3.7637499533593654632568359375</LongitudeDegrees>
            </Position>
            <AltitudeMeters>1038.4000244140625</AltitudeMeters>
            <DistanceMeters>47158.200581935</DistanceMeters>
          </Trackpoint>
          <Trackpoint>
            <Time>2020-03-07T14:59:36.000Z</Time>
            <Position>
              <LatitudeDegrees>40.79913706518709659576416015625</LatitudeDegrees>
              <LongitudeDegrees>-3.763792030513286590576171875</LongitudeDegrees>
            </Position>
            <AltitudeMeters>1038.800048828125</AltitudeMeters>
            <DistanceMeters>47161.78272356</DistanceMeters>
          </Trackpoint>
          <Trackpoint>
            <Time>2020-03-07T14:59:37.000Z</Time>
            <Position>
              <LatitudeDegrees>40.79914242960512638092041015625</LatitudeDegrees>
              <LongitudeDegrees>-3.7638331018388271331787109375</LongitudeDegrees>
            </Position>
            <AltitudeMeters>1039</AltitudeMeters>
            <DistanceMeters>47165.294857445</DistanceMeters>
          </Trackpoint>
          <Trackpoint>
            <Time>2020-03-07T14:59:38.000Z</Time>
            <Position>
              <LatitudeDegrees>40.79914745874702930450439453125</LatitudeDegrees>
              <LongitudeDegrees>-3.7638740055263042449951171875</LongitudeDegrees>
            </Position>
            <AltitudeMeters>1039</AltitudeMeters>
            <DistanceMeters>47168.786361877</DistanceMeters>
          </Trackpoint>
          <Trackpoint>
            <Time>2020-03-07T14:59:39.000Z</Time>
            <Position>
              <LatitudeDegrees>40.79915198497474193572998046875</LatitudeDegrees>
              <LongitudeDegrees>-3.76391432248055934906005859375</LongitudeDegrees>
            </Position>
            <AltitudeMeters>1039.199951171875</AltitudeMeters>
            <DistanceMeters>47172.221810889</DistanceMeters>
          </Trackpoint>
          <Trackpoint>
            <Time>2020-03-07T14:59:40.000Z</Time>
            <Position>
              <LatitudeDegrees>40.79915584065020084381103515625</LatitudeDegrees>
              <LongitudeDegrees>-3.76395539380609989166259765625</LongitudeDegrees>
            </Position>
            <AltitudeMeters>1039.199951171875</AltitudeMeters>
            <DistanceMeters>47175.708138884</DistanceMeters>
          </Trackpoint>
          <Trackpoint>
            <Time>2020-03-07T14:59:41.000Z</Time>
            <Position>
              <LatitudeDegrees>40.79915986396372318267822265625</LatitudeDegrees>
              <LongitudeDegrees>-3.76399780623614788055419921875</LongitudeDegrees>
            </Position>
            <AltitudeMeters>1039.5999755859375</AltitudeMeters>
            <DistanceMeters>47179.309137326</DistanceMeters>
          </Trackpoint>
          <Trackpoint>
            <Time>2020-03-07T14:59:42.000Z</Time>
            <Position>
              <LatitudeDegrees>40.799166150391101837158203125</LatitudeDegrees>
              <LongitudeDegrees>-3.7640386261045932769775390625</LongitudeDegrees>
            </Position>
            <AltitudeMeters>1039.800048828125</AltitudeMeters>
            <DistanceMeters>47182.819985421</DistanceMeters>
          </Trackpoint>
          <Trackpoint>
            <Time>2020-03-07T14:59:43.000Z</Time>
            <Position>
              <LatitudeDegrees>40.79917394556105136871337890625</LatitudeDegrees>
              <LongitudeDegrees>-3.76407927833497524261474609375</LongitudeDegrees>
            </Position>
            <AltitudeMeters>1040</AltitudeMeters>
            <DistanceMeters>47186.35262829</DistanceMeters>
          </Trackpoint>
          <Trackpoint>
            <Time>2020-03-07T14:59:44.000Z</Time>
            <Position>
              <LatitudeDegrees>40.79918215982615947723388671875</LatitudeDegrees>
              <LongitudeDegrees>-3.76411951147019863128662109375</LongitudeDegrees>
            </Position>
            <AltitudeMeters>1040</AltitudeMeters>
            <DistanceMeters>47189.863476385</DistanceMeters>
          </Trackpoint>
          <Trackpoint>
            <Time>2020-03-07T14:59:45.000Z</Time>
            <Position>
              <LatitudeDegrees>40.799192301928997039794921875</LatitudeDegrees>
              <LongitudeDegrees>-3.76415873877704143524169921875</LongitudeDegrees>
            </Position>
            <AltitudeMeters>1040.199951171875</AltitudeMeters>
            <DistanceMeters>47193.356273728</DistanceMeters>
          </Trackpoint>
          <Trackpoint>
            <Time>2020-03-07T14:59:46.000Z</Time>
            <Position>
              <LatitudeDegrees>40.7992038689553737640380859375</LatitudeDegrees>
              <LongitudeDegrees>-3.7641972117125988006591796875</LongitudeDegrees>
            </Position>
            <AltitudeMeters>1040.199951171875</AltitudeMeters>
            <DistanceMeters>47196.845190902</DistanceMeters>
          </Trackpoint>
          <Trackpoint>
            <Time>2020-03-07T14:59:47.000Z</Time>
            <Position>
              <LatitudeDegrees>40.79921635799109935760498046875</LatitudeDegrees>
              <LongitudeDegrees>-3.76423769630491733551025390625</LongitudeDegrees>
            </Position>
            <AltitudeMeters>1040.4000244140625</AltitudeMeters>
            <DistanceMeters>47200.529238254</DistanceMeters>
          </Trackpoint>
          <Trackpoint>
            <Time>2020-03-07T14:59:48.000Z</Time>
            <Position>
              <LatitudeDegrees>40.79922951757907867431640625</LatitudeDegrees>
              <LongitudeDegrees>-3.76427717506885528564453125</LongitudeDegrees>
            </Position>
            <AltitudeMeters>1040.5999755859375</AltitudeMeters>
            <DistanceMeters>47204.162690024</DistanceMeters>
          </Trackpoint>
          <Trackpoint>
            <Time>2020-03-07T14:59:49.000Z</Time>
            <Position>
              <LatitudeDegrees>40.79924426972866058349609375</LatitudeDegrees>
              <LongitudeDegrees>-3.76431497745215892791748046875</LongitudeDegrees>
            </Position>
            <AltitudeMeters>1041</AltitudeMeters>
            <DistanceMeters>47207.746091858</DistanceMeters>
          </Trackpoint>
          <Trackpoint>
            <Time>2020-03-07T14:59:50.000Z</Time>
            <Position>
              <LatitudeDegrees>40.79926094971597194671630859375</LatitudeDegrees>
              <LongitudeDegrees>-3.76435101963579654693603515625</LongitudeDegrees>
            </Position>
            <AltitudeMeters>1041</AltitudeMeters>
            <DistanceMeters>47211.304204725</DistanceMeters>
          </Trackpoint>
          <Trackpoint>
            <Time>2020-03-07T14:59:51.000Z</Time>
            <Position>
              <LatitudeDegrees>40.79927779734134674072265625</LatitudeDegrees>
              <LongitudeDegrees>-3.76438714563846588134765625</LongitudeDegrees>
            </Position>
            <AltitudeMeters>1041.4000244140625</AltitudeMeters>
            <DistanceMeters>47214.880038648</DistanceMeters>
          </Trackpoint>
          <Trackpoint>
            <Time>2020-03-07T14:59:52.000Z</Time>
            <Position>
              <LatitudeDegrees>40.79929263330996036529541015625</LatitudeDegrees>
              <LongitudeDegrees>-3.76442310400307178497314453125</LongitudeDegrees>
            </Position>
            <AltitudeMeters>1041.5999755859375</AltitudeMeters>
            <DistanceMeters>47218.331222623</DistanceMeters>
          </Trackpoint>
          <Trackpoint>
            <Time>2020-03-07T14:59:53.000Z</Time>
            <Position>
              <LatitudeDegrees>40.7993074692785739898681640625</LatitudeDegrees>
              <LongitudeDegrees>-3.7644602358341217041015625</LongitudeDegrees>
            </Position>
            <AltitudeMeters>1041.800048828125</AltitudeMeters>
            <DistanceMeters>47221.868974162</DistanceMeters>
          </Trackpoint>
          <Trackpoint>
            <Time>2020-03-07T14:59:54.000Z</Time>
            <Position>
              <LatitudeDegrees>40.7993240654468536376953125</LatitudeDegrees>
              <LongitudeDegrees>-3.76449485309422016143798828125</LongitudeDegrees>
            </Position>
            <AltitudeMeters>1041.800048828125</AltitudeMeters>
            <DistanceMeters>47225.321466147</DistanceMeters>
          </Trackpoint>
          <Trackpoint>
            <Time>2020-03-07T14:59:55.000Z</Time>
            <Position>
              <LatitudeDegrees>40.79934175126254558563232421875</LatitudeDegrees>
              <LongitudeDegrees>-3.7645281292498111724853515625</LongitudeDegrees>
            </Position>
            <AltitudeMeters>1042</AltitudeMeters>
            <DistanceMeters>47228.745066477</DistanceMeters>
          </Trackpoint>
          <Trackpoint>
            <Time>2020-03-07T14:59:56.000Z</Time>
            <Position>
              <LatitudeDegrees>40.79935817979276180267333984375</LatitudeDegrees>
              <LongitudeDegrees>-3.76455822028219699859619140625</LongitudeDegrees>
            </Position>
            <AltitudeMeters>1042</AltitudeMeters>
            <DistanceMeters>47231.870853212</DistanceMeters>
          </Trackpoint>
          <Trackpoint>
            <Time>2020-03-07T14:59:57.000Z</Time>
            <Position>
              <LatitudeDegrees>40.799374692142009735107421875</LatitudeDegrees>
              <LongitudeDegrees>-3.7645901553332805633544921875</LongitudeDegrees>
            </Position>
            <AltitudeMeters>1042.4000244140625</AltitudeMeters>
            <DistanceMeters>47235.129590682</DistanceMeters>
          </Trackpoint>
          <Trackpoint>
            <Time>2020-03-07T14:59:58.000Z</Time>
            <Position>
              <LatitudeDegrees>40.7993938028812408447265625</LatitudeDegrees>
              <LongitudeDegrees>-3.76462309621274471282958984375</LongitudeDegrees>
            </Position>
            <AltitudeMeters>1042.5999755859375</AltitudeMeters>
            <DistanceMeters>47238.624972411</DistanceMeters>
          </Trackpoint>
          <Trackpoint>
            <Time>2020-03-07T14:59:59.000Z</Time>
            <Position>
              <LatitudeDegrees>40.79941232688724994659423828125</LatitudeDegrees>
              <LongitudeDegrees>-3.764659054577350616455078125</LongitudeDegrees>
            </Position>
            <AltitudeMeters>1042.800048828125</AltitudeMeters>
            <DistanceMeters>47242.290590196</DistanceMeters>
          </Trackpoint>
          <Trackpoint>
            <Time>2020-03-07T15:00:00.000Z</Time>
            <Position>
              <LatitudeDegrees>40.79943043179810047149658203125</LatitudeDegrees>
              <LongitudeDegrees>-3.76469518058001995086669921875</LongitudeDegrees>
            </Position>
            <AltitudeMeters>1043</AltitudeMeters>
            <DistanceMeters>47245.941397344</DistanceMeters>
          </Trackpoint>
          <Trackpoint>
            <Time>2020-03-07T15:00:01.000Z</Time>
            <Position>
              <LatitudeDegrees>40.7994486205279827117919921875</LatitudeDegrees>
              <LongitudeDegrees>-3.76473071984946727752685546875</LongitudeDegrees>
            </Position>
            <AltitudeMeters>1043.199951171875</AltitudeMeters>
            <DistanceMeters>47249.556161598</DistanceMeters>
          </Trackpoint>
          <Trackpoint>
            <Time>2020-03-07T15:00:02.000Z</Time>
            <Position>
              <LatitudeDegrees>40.7994657196104526519775390625</LatitudeDegrees>
              <LongitudeDegrees>-3.764767013490200042724609375</LongitudeDegrees>
            </Position>
            <AltitudeMeters>1043.5999755859375</AltitudeMeters>
            <DistanceMeters>47253.15716004</DistanceMeters>
          </Trackpoint>
          <Trackpoint>
            <Time>2020-03-07T15:00:03.000Z</Time>
            <Position>
              <LatitudeDegrees>40.79948189668357372283935546875</LatitudeDegrees>
              <LongitudeDegrees>-3.7648020498454570770263671875</LongitudeDegrees>
            </Position>
            <AltitudeMeters>1043.800048828125</AltitudeMeters>
            <DistanceMeters>47256.614879116</DistanceMeters>
          </Trackpoint>
          <Trackpoint>
            <Time>2020-03-07T15:00:04.000Z</Time>
            <Position>
              <LatitudeDegrees>40.799498073756694793701171875</LatitudeDegrees>
              <LongitudeDegrees>-3.764834739267826080322265625</LongitudeDegrees>
            </Position>
            <AltitudeMeters>1044</AltitudeMeters>
            <DistanceMeters>47259.906701063</DistanceMeters>
          </Trackpoint>
          <Trackpoint>
            <Time>2020-03-07T15:00:05.000Z</Time>
            <Position>
              <LatitudeDegrees>40.79951441846787929534912109375</LatitudeDegrees>
              <LongitudeDegrees>-3.76486181281507015228271484375</LongitudeDegrees>
            </Position>
            <AltitudeMeters>1044.199951171875</AltitudeMeters>
            <DistanceMeters>47262.824810398</DistanceMeters>
          </Trackpoint>
          <Trackpoint>
            <Time>2020-03-07T15:00:06.000Z</Time>
            <Position>
              <LatitudeDegrees>40.7995327748358249664306640625</LatitudeDegrees>
              <LongitudeDegrees>-3.76489014364778995513916015625</LongitudeDegrees>
            </Position>
            <AltitudeMeters>1044.199951171875</AltitudeMeters>
            <DistanceMeters>47265.967882721</DistanceMeters>
          </Trackpoint>
          <Trackpoint>
            <Time>2020-03-07T15:00:07.000Z</Time>
            <Position>
              <LatitudeDegrees>40.799549706280231475830078125</LatitudeDegrees>
              <LongitudeDegrees>-3.76491528935730457305908203125</LongitudeDegrees>
            </Position>
            <AltitudeMeters>1044.4000244140625</AltitudeMeters>
            <DistanceMeters>47268.804394331</DistanceMeters>
          </Trackpoint>
          <Trackpoint>
            <Time>2020-03-07T15:00:08.000Z</Time>
            <Position>
              <LatitudeDegrees>40.79956588335335254669189453125</LatitudeDegrees>
              <LongitudeDegrees>-3.76494504511356353759765625</LongitudeDegrees>
            </Position>
            <AltitudeMeters>1044.5999755859375</AltitudeMeters>
            <DistanceMeters>47271.89093457</DistanceMeters>
          </Trackpoint>
          <Trackpoint>
            <Time>2020-03-07T15:00:09.000Z</Time>
            <Position>
              <LatitudeDegrees>40.79958130605518817901611328125</LatitudeDegrees>
              <LongitudeDegrees>-3.76497429795563220977783203125</LongitudeDegrees>
            </Position>
            <AltitudeMeters>1044.800048828125</AltitudeMeters>
            <DistanceMeters>47274.89594313</DistanceMeters>
          </Trackpoint>
          <Trackpoint>
            <Time>2020-03-07T15:00:10.000Z</Time>
            <Position>
              <LatitudeDegrees>40.79959698021411895751953125</LatitudeDegrees>
              <LongitudeDegrees>-3.765007071197032928466796875</LongitudeDegrees>
            </Position>
            <AltitudeMeters>1045</AltitudeMeters>
            <DistanceMeters>47278.162983129</DistanceMeters>
          </Trackpoint>
          <Trackpoint>
            <Time>2020-03-07T15:00:11.000Z</Time>
            <Position>
              <LatitudeDegrees>40.7996296696364879608154296875</LatitudeDegrees>
              <LongitudeDegrees>-3.76506633125245571136474609375</LongitudeDegrees>
            </Position>
            <AltitudeMeters>1045.199951171875</AltitudeMeters>
            <DistanceMeters>47284.340450494</DistanceMeters>
          </Trackpoint>
          <Trackpoint>
            <Time>2020-03-07T15:00:12.000Z</Time>
            <Position>
              <LatitudeDegrees>40.799647606909275054931640625</LatitudeDegrees>
              <LongitudeDegrees>-3.76510103233158588409423828125</LongitudeDegrees>
            </Position>
            <AltitudeMeters>1045.4000244140625</AltitudeMeters>
            <DistanceMeters>47287.880753603</DistanceMeters>
          </Trackpoint>
          <Trackpoint>
            <Time>2020-03-07T15:00:13.000Z</Time>
            <Position>
              <LatitudeDegrees>40.79966579563915729522705078125</LatitudeDegrees>
              <LongitudeDegrees>-3.76513120718300342559814453125</LongitudeDegrees>
            </Position>
            <AltitudeMeters>1045.5999755859375</AltitudeMeters>
            <DistanceMeters>47291.131167337</DistanceMeters>
          </Trackpoint>
          <Trackpoint>
            <Time>2020-03-07T15:00:14.000Z</Time>
            <Position>
              <LatitudeDegrees>40.799684487283229827880859375</LatitudeDegrees>
              <LongitudeDegrees>-3.76516574062407016754150390625</LongitudeDegrees>
            </Position>
            <AltitudeMeters>1045.800048828125</AltitudeMeters>
            <DistanceMeters>47294.709525675</DistanceMeters>
          </Trackpoint>
          <Trackpoint>
            <Time>2020-03-07T15:00:15.000Z</Time>
            <Position>
              <LatitudeDegrees>40.79970116727054119110107421875</LatitudeDegrees>
              <LongitudeDegrees>-3.7652016989886760711669921875</LongitudeDegrees>
            </Position>
            <AltitudeMeters>1046</AltitudeMeters>
            <DistanceMeters>47298.265099753</DistanceMeters>
          </Trackpoint>
          <Trackpoint>
            <Time>2020-03-07T15:00:16.000Z</Time>
            <Position>
              <LatitudeDegrees>40.799719356000423431396484375</LatitudeDegrees>
              <LongitudeDegrees>-3.76523598097264766693115234375</LongitudeDegrees>
            </Position>
            <AltitudeMeters>1046.199951171875</AltitudeMeters>
            <DistanceMeters>47301.792626555</DistanceMeters>
          </Trackpoint>
          <Trackpoint>
            <Time>2020-03-07T15:00:17.000Z</Time>
            <Position>
              <LatitudeDegrees>40.79973779618740081787109375</LatitudeDegrees>
              <LongitudeDegrees>-3.76527051441371440887451171875</LongitudeDegrees>
            </Position>
            <AltitudeMeters>1046.4000244140625</AltitudeMeters>
            <DistanceMeters>47305.353276401</DistanceMeters>
          </Trackpoint>
          <Trackpoint>
            <Time>2020-03-07T15:00:18.000Z</Time>
            <Position>
              <LatitudeDegrees>40.79975791275501251220703125</LatitudeDegrees>
              <LongitudeDegrees>-3.7653036229312419891357421875</LongitudeDegrees>
            </Position>
            <AltitudeMeters>1046.5999755859375</AltitudeMeters>
            <DistanceMeters>47308.930372755</DistanceMeters>
          </Trackpoint>
          <Trackpoint>
            <Time>2020-03-07T15:00:19.000Z</Time>
            <Position>
              <LatitudeDegrees>40.79977895133197307586669921875</LatitudeDegrees>
              <LongitudeDegrees>-3.7653373181819915771484375</LongitudeDegrees>
            </Position>
            <AltitudeMeters>1046.5999755859375</AltitudeMeters>
            <DistanceMeters>47312.610741577</DistanceMeters>
          </Trackpoint>
          <Trackpoint>
            <Time>2020-03-07T15:00:20.000Z</Time>
            <Position>
              <LatitudeDegrees>40.7997999899089336395263671875</LatitudeDegrees>
              <LongitudeDegrees>-3.76537092961370944976806640625</LongitudeDegrees>
            </Position>
            <AltitudeMeters>1047</AltitudeMeters>
            <DistanceMeters>47316.283742285</DistanceMeters>
          </Trackpoint>
          <Trackpoint>
            <Time>2020-03-07T15:00:21.000Z</Time>
            <Position>
              <LatitudeDegrees>40.799818933010101318359375</LatitudeDegrees>
              <LongitudeDegrees>-3.76540445722639560699462890625</LongitudeDegrees>
            </Position>
            <AltitudeMeters>1047.199951171875</AltitudeMeters>
            <DistanceMeters>47319.809988911</DistanceMeters>
          </Trackpoint>
          <Trackpoint>
            <Time>2020-03-07T15:00:22.000Z</Time>
            <Position>
              <LatitudeDegrees>40.799838043749332427978515625</LatitudeDegrees>
              <LongitudeDegrees>-3.76543547026813030242919921875</LongitudeDegrees>
            </Position>
            <AltitudeMeters>1047.4000244140625</AltitudeMeters>
            <DistanceMeters>47323.180424516</DistanceMeters>
          </Trackpoint>
          <Trackpoint>
            <Time>2020-03-07T15:00:23.000Z</Time>
            <Position>
              <LatitudeDegrees>40.7998589985072612762451171875</LatitudeDegrees>
              <LongitudeDegrees>-3.76547084189951419830322265625</LongitudeDegrees>
            </Position>
            <AltitudeMeters>1047.5999755859375</AltitudeMeters>
            <DistanceMeters>47326.964826878</DistanceMeters>
          </Trackpoint>
          <Trackpoint>
            <Time>2020-03-07T15:00:24.000Z</Time>
            <Position>
              <LatitudeDegrees>40.79987869597971439361572265625</LatitudeDegrees>
              <LongitudeDegrees>-3.76550604589283466339111328125</LongitudeDegrees>
            </Position>
            <AltitudeMeters>1047.800048828125</AltitudeMeters>
            <DistanceMeters>47330.653773232</DistanceMeters>
          </Trackpoint>
          <Trackpoint>
            <Time>2020-03-07T15:00:25.000Z</Time>
            <Position>
              <LatitudeDegrees>40.799896717071533203125</LatitudeDegrees>
              <LongitudeDegrees>-3.76554242335259914398193359375</LongitudeDegrees>
            </Position>
            <AltitudeMeters>1048</AltitudeMeters>
            <DistanceMeters>47334.316926736</DistanceMeters>
          </Trackpoint>
          <Trackpoint>
            <Time>2020-03-07T15:00:26.000Z</Time>
            <Position>
              <LatitudeDegrees>40.79991507343947887420654296875</LatitudeDegrees>
              <LongitudeDegrees>-3.76557779498398303985595703125</LongitudeDegrees>
            </Position>
            <AltitudeMeters>1048</AltitudeMeters>
            <DistanceMeters>47337.929192017</DistanceMeters>
          </Trackpoint>
          <Trackpoint>
            <Time>2020-03-07T15:00:27.000Z</Time>
            <Position>
              <LatitudeDegrees>40.7999344356358051300048828125</LatitudeDegrees>
              <LongitudeDegrees>-3.76561383716762065887451171875</LongitudeDegrees>
            </Position>
            <AltitudeMeters>1048.4000244140625</AltitudeMeters>
            <DistanceMeters>47341.653463411</DistanceMeters>
          </Trackpoint>
          <Trackpoint>
            <Time>2020-03-07T15:00:28.000Z</Time>
            <Position>
              <LatitudeDegrees>40.7999522052705287933349609375</LatitudeDegrees>
              <LongitudeDegrees>-3.76564853824675083160400390625</LongitudeDegrees>
            </Position>
            <AltitudeMeters>1048.5999755859375</AltitudeMeters>
            <DistanceMeters>47345.183549174</DistanceMeters>
          </Trackpoint>
          <Trackpoint>
            <Time>2020-03-07T15:00:29.000Z</Time>
            <Position>
              <LatitudeDegrees>40.7999666221439838409423828125</LatitudeDegrees>
              <LongitudeDegrees>-3.7656848318874835968017578125</LongitudeDegrees>
            </Position>
            <AltitudeMeters>1048.5999755859375</AltitudeMeters>
            <DistanceMeters>47348.636041159</DistanceMeters>
          </Trackpoint>
          <Trackpoint>
            <Time>2020-03-07T15:00:30.000Z</Time>
            <Position>
              <LatitudeDegrees>40.79997978173196315765380859375</LatitudeDegrees>
              <LongitudeDegrees>-3.7657203711569309234619140625</LongitudeDegrees>
            </Position>
            <AltitudeMeters>1049</AltitudeMeters>
            <DistanceMeters>47351.968756873</DistanceMeters>
          </Trackpoint>
          <Trackpoint>
            <Time>2020-03-07T15:00:31.000Z</Time>
            <Position>
              <LatitudeDegrees>40.79999528825283050537109375</LatitudeDegrees>
              <LongitudeDegrees>-3.76575683243572711944580078125</LongitudeDegrees>
            </Position>
            <AltitudeMeters>1049.199951171875</AltitudeMeters>
            <DistanceMeters>47355.493722856</DistanceMeters>
          </Trackpoint>
          <Trackpoint>
            <Time>2020-03-07T15:00:32.000Z</Time>
            <Position>
              <LatitudeDegrees>40.80000995658338069915771484375</LatitudeDegrees>
              <LongitudeDegrees>-3.76579388044774532318115234375</LongitudeDegrees>
            </Position>
            <AltitudeMeters>1049.4000244140625</AltitudeMeters>
            <DistanceMeters>47359.01612616</DistanceMeters>
          </Trackpoint>
          <Trackpoint>
            <Time>2020-03-07T15:00:33.000Z</Time>
            <Position>
              <LatitudeDegrees>40.800025463104248046875</LatitudeDegrees>
              <LongitudeDegrees>-3.76583151519298553466796875</LongitudeDegrees>
            </Position>
            <AltitudeMeters>1049.5999755859375</AltitudeMeters>
            <DistanceMeters>47362.624639737</DistanceMeters>
          </Trackpoint>
          <Trackpoint>
            <Time>2020-03-07T15:00:34.000Z</Time>
            <Position>
              <LatitudeDegrees>40.80004281364381313323974609375</LatitudeDegrees>
              <LongitudeDegrees>-3.76587308943271636962890625</LongitudeDegrees>
            </Position>
            <AltitudeMeters>1049.800048828125</AltitudeMeters>
            <DistanceMeters>47366.624801666</DistanceMeters>
          </Trackpoint>
          <Trackpoint>
            <Time>2020-03-07T15:00:35.000Z</Time>
            <Position>
              <LatitudeDegrees>40.8000598289072513580322265625</LatitudeDegrees>
              <LongitudeDegrees>-3.76591273583471775054931640625</LongitudeDegrees>
            </Position>
            <AltitudeMeters>1050</AltitudeMeters>
            <DistanceMeters>47370.46369275</DistanceMeters>
          </Trackpoint>
          <Trackpoint>
            <Time>2020-03-07T15:00:36.000Z</Time>
            <Position>
              <LatitudeDegrees>40.8000752516090869903564453125</LatitudeDegrees>
              <LongitudeDegrees>-3.76595330424606800079345703125</LongitudeDegrees>
            </Position>
            <AltitudeMeters>1050.4000244140625</AltitudeMeters>
            <DistanceMeters>47374.288444224</DistanceMeters>
          </Trackpoint>
          <Trackpoint>
            <Time>2020-03-07T15:00:37.000Z</Time>
            <Position>
              <LatitudeDegrees>40.80009008757770061492919921875</LatitudeDegrees>
              <LongitudeDegrees>-3.76599202863872051239013671875</LongitudeDegrees>
            </Position>
            <AltitudeMeters>1050.5999755859375</AltitudeMeters>
            <DistanceMeters>47377.944194918</DistanceMeters>
          </Trackpoint>
          <Trackpoint>
            <Time>2020-03-07T15:00:38.000Z</Time>
            <Position>
              <LatitudeDegrees>40.800106264650821685791015625</LatitudeDegrees>
              <LongitudeDegrees>-3.7660318426787853240966796875</LongitudeDegrees>
            </Position>
            <AltitudeMeters>1051</AltitudeMeters>
            <DistanceMeters>47381.750011863</DistanceMeters>
          </Trackpoint>
          <Trackpoint>
            <Time>2020-03-07T15:00:39.000Z</Time>
            <Position>
              <LatitudeDegrees>40.8001220226287841796875</LatitudeDegrees>
              <LongitudeDegrees>-3.76606947742402553558349609375</LongitudeDegrees>
            </Position>
            <AltitudeMeters>1051.199951171875</AltitudeMeters>
            <DistanceMeters>47385.373508951</DistanceMeters>
          </Trackpoint>
          <Trackpoint>
            <Time>2020-03-07T15:00:40.000Z</Time>
            <Position>
              <LatitudeDegrees>40.80013669095933437347412109375</LatitudeDegrees>
              <LongitudeDegrees>-3.76611172221601009368896484375</LongitudeDegrees>
            </Position>
            <AltitudeMeters>1051.4000244140625</AltitudeMeters>
            <DistanceMeters>47389.289255343</DistanceMeters>
          </Trackpoint>
          <Trackpoint>
            <Time>2020-03-07T15:00:41.000Z</Time>
            <Position>
              <LatitudeDegrees>40.8001500181853771209716796875</LatitudeDegrees>
              <LongitudeDegrees>-3.76615480519831180572509765625</LongitudeDegrees>
            </Position>
            <AltitudeMeters>1051.5999755859375</AltitudeMeters>
            <DistanceMeters>47393.209611207</DistanceMeters>
          </Trackpoint>
          <Trackpoint>
            <Time>2020-03-07T15:00:42.000Z</Time>
            <Position>
              <LatitudeDegrees>40.80016426742076873779296875</LatitudeDegrees>
              <LongitudeDegrees>-3.76619839109480381011962890625</LongitudeDegrees>
            </Position>
            <AltitudeMeters>1051.5999755859375</AltitudeMeters>
            <DistanceMeters>47397.208644263</DistanceMeters>
          </Trackpoint>
          <Trackpoint>
            <Time>2020-03-07T15:00:43.000Z</Time>
            <Position>
              <LatitudeDegrees>40.80017591826617717742919921875</LatitudeDegrees>
              <LongitudeDegrees>-3.766239546239376068115234375</LongitudeDegrees>
            </Position>
            <AltitudeMeters>1052</AltitudeMeters>
            <DistanceMeters>47400.911029446</DistanceMeters>
          </Trackpoint>
          <Trackpoint>
            <Time>2020-03-07T15:00:44.000Z</Time>
            <Position>
              <LatitudeDegrees>40.80018681474030017852783203125</LatitudeDegrees>
              <LongitudeDegrees>-3.76628204248845577239990234375</LongitudeDegrees>
            </Position>
            <AltitudeMeters>1052.199951171875</AltitudeMeters>
            <DistanceMeters>47404.690656536</DistanceMeters>
          </Trackpoint>
          <Trackpoint>
            <Time>2020-03-07T15:00:45.000Z</Time>
            <Position>
              <LatitudeDegrees>40.8001952804625034332275390625</LatitudeDegrees>
              <LongitudeDegrees>-3.7663243710994720458984375</LongitudeDegrees>
            </Position>
            <AltitudeMeters>1052.800048828125</AltitudeMeters>
            <DistanceMeters>47408.380826623</DistanceMeters>
          </Trackpoint>
          <Trackpoint>
            <Time>2020-03-07T15:00:46.000Z</Time>
            <Position>
              <LatitudeDegrees>40.8002019859850406646728515625</LatitudeDegrees>
              <LongitudeDegrees>-3.76636703498661518096923828125</LongitudeDegrees>
            </Position>
            <AltitudeMeters>1053</AltitudeMeters>
            <DistanceMeters>47412.053827332</DistanceMeters>
          </Trackpoint>
          <Trackpoint>
            <Time>2020-03-07T15:00:47.000Z</Time>
            <Position>
              <LatitudeDegrees>40.80020609311759471893310546875</LatitudeDegrees>
              <LongitudeDegrees>-3.76640927977859973907470703125</LongitudeDegrees>
            </Position>
            <AltitudeMeters>1053.199951171875</AltitudeMeters>
            <DistanceMeters>47415.642265573</DistanceMeters>
          </Trackpoint>
          <Trackpoint>
            <Time>2020-03-07T15:00:48.000Z</Time>
            <Position>
              <LatitudeDegrees>40.8002110384404659271240234375</LatitudeDegrees>
              <LongitudeDegrees>-3.76645110547542572021484375</LongitudeDegrees>
            </Position>
            <AltitudeMeters>1053.4000244140625</AltitudeMeters>
            <DistanceMeters>47419.209249973</DistanceMeters>
          </Trackpoint>
          <Trackpoint>
            <Time>2020-03-07T15:00:49.000Z</Time>
            <Position>
              <LatitudeDegrees>40.8002177439630031585693359375</LatitudeDegrees>
              <LongitudeDegrees>-3.76649024896323680877685546875</LongitudeDegrees>
            </Position>
            <AltitudeMeters>1053.5999755859375</AltitudeMeters>
            <DistanceMeters>47422.59305507</DistanceMeters>
          </Trackpoint>
          <Trackpoint>
            <Time>2020-03-07T15:00:50.000Z</Time>
            <Position>
              <LatitudeDegrees>40.800225622951984405517578125</LatitudeDegrees>
              <LongitudeDegrees>-3.76652847044169902801513671875</LongitudeDegrees>
            </Position>
            <AltitudeMeters>1053.800048828125</AltitudeMeters>
            <DistanceMeters>47425.928479207</DistanceMeters>
          </Trackpoint>
          <Trackpoint>
            <Time>2020-03-07T15:00:51.000Z</Time>
            <Position>
              <LatitudeDegrees>40.80023157410323619842529296875</LatitudeDegrees>
              <LongitudeDegrees>-3.76656987704336643218994140625</LongitudeDegrees>
            </Position>
            <AltitudeMeters>1054.199951171875</AltitudeMeters>
            <DistanceMeters>47429.47897026</DistanceMeters>
          </Trackpoint>
          <Trackpoint>
            <Time>2020-03-07T15:00:52.000Z</Time>
            <Position>
              <LatitudeDegrees>40.8002375252544879913330078125</LatitudeDegrees>
              <LongitudeDegrees>-3.76660935580730438232421875</LongitudeDegrees>
            </Position>
            <AltitudeMeters>1054.4000244140625</AltitudeMeters>
            <DistanceMeters>47432.870771756</DistanceMeters>
          </Trackpoint>
          <Trackpoint>
            <Time>2020-03-07T15:00:53.000Z</Time>
            <Position>
              <LatitudeDegrees>40.80024364404380321502685546875</LatitudeDegrees>
              <LongitudeDegrees>-3.7666480801999568939208984375</LongitudeDegrees>
            </Position>
            <AltitudeMeters>1054.5999755859375</AltitudeMeters>
            <DistanceMeters>47436.20348747</DistanceMeters>
          </Trackpoint>
          <Trackpoint>
            <Time>2020-03-07T15:00:54.000Z</Time>
            <Position>
              <LatitudeDegrees>40.8002492599189281463623046875</LatitudeDegrees>
              <LongitudeDegrees>-3.76668571494519710540771484375</LongitudeDegrees>
            </Position>
            <AltitudeMeters>1054.800048828125</AltitudeMeters>
            <DistanceMeters>47439.434395758</DistanceMeters>
          </Trackpoint>
          <Trackpoint>
            <Time>2020-03-07T15:00:55.000Z</Time>
            <Position>
              <LatitudeDegrees>40.800255127251148223876953125</LatitudeDegrees>
              <LongitudeDegrees>-3.76672267913818359375</LongitudeDegrees>
            </Position>
            <AltitudeMeters>1055</AltitudeMeters>
            <DistanceMeters>47442.617436093</DistanceMeters>
          </Trackpoint>
          <Trackpoint>
            <Time>2020-03-07T15:00:56.000Z</Time>
            <Position>
              <LatitudeDegrees>40.80025940202176570892333984375</LatitudeDegrees>
              <LongitudeDegrees>-3.766759224236011505126953125</LongitudeDegrees>
            </Position>
            <AltitudeMeters>1055.4000244140625</AltitudeMeters>
            <DistanceMeters>47445.7316458</DistanceMeters>
          </Trackpoint>
          <Trackpoint>
            <Time>2020-03-07T15:00:57.000Z</Time>
            <Position>
              <LatitudeDegrees>40.80026241950690746307373046875</LatitudeDegrees>
              <LongitudeDegrees>-3.76679853536188602447509765625</LongitudeDegrees>
            </Position>
            <AltitudeMeters>1055.5999755859375</AltitudeMeters>
            <DistanceMeters>47449.061650886</DistanceMeters>
          </Trackpoint>
          <Trackpoint>
            <Time>2020-03-07T15:00:58.000Z</Time>
            <Position>
              <LatitudeDegrees>40.8002636767923831939697265625</LatitudeDegrees>
              <LongitudeDegrees>-3.7668361701071262359619140625</LongitudeDegrees>
            </Position>
            <AltitudeMeters>1055.800048828125</AltitudeMeters>
            <DistanceMeters>47452.236169009</DistanceMeters>
          </Trackpoint>
          <Trackpoint>
            <Time>2020-03-07T15:00:59.000Z</Time>
            <Position>
              <LatitudeDegrees>40.8002653531730175018310546875</LatitudeDegrees>
              <LongitudeDegrees>-3.766870200634002685546875</LongitudeDegrees>
            </Position>
            <AltitudeMeters>1056</AltitudeMeters>
            <DistanceMeters>47455.110628949</DistanceMeters>
          </Trackpoint>
          <Trackpoint>
            <Time>2020-03-07T15:01:00.000Z</Time>
            <Position>
              <LatitudeDegrees>40.80026619136333465576171875</LatitudeDegrees>
              <LongitudeDegrees>-3.7669049017131328582763671875</LongitudeDegrees>
            </Position>
            <AltitudeMeters>1056.199951171875</AltitudeMeters>
            <DistanceMeters>47458.036464294</DistanceMeters>
          </Trackpoint>
          <Trackpoint>
            <Time>2020-03-07T15:01:01.000Z</Time>
            <Position>
              <LatitudeDegrees>40.80027046613395214080810546875</LatitudeDegrees>
              <LongitudeDegrees>-3.7669390998780727386474609375</LongitudeDegrees>
            </Position>
            <AltitudeMeters>1056.4000244140625</AltitudeMeters>
            <DistanceMeters>47460.956120466</DistanceMeters>
          </Trackpoint>
          <Trackpoint>
            <Time>2020-03-07T15:01:02.000Z</Time>
            <Position>
              <LatitudeDegrees>40.8002754114568233489990234375</LatitudeDegrees>
              <LongitudeDegrees>-3.76697480678558349609375</LongitudeDegrees>
            </Position>
            <AltitudeMeters>1056.800048828125</AltitudeMeters>
            <DistanceMeters>47464.013264414</DistanceMeters>
          </Trackpoint>
          <Trackpoint>
            <Time>2020-03-07T15:01:03.000Z</Time>
            <Position>
              <LatitudeDegrees>40.8002797700464725494384765625</LatitudeDegrees>
              <LongitudeDegrees>-3.7670110166072845458984375</LongitudeDegrees>
            </Position>
            <AltitudeMeters>1057</AltitudeMeters>
            <DistanceMeters>47467.104189984</DistanceMeters>
          </Trackpoint>
          <Trackpoint>
            <Time>2020-03-07T15:01:04.000Z</Time>
            <Position>
              <LatitudeDegrees>40.80028404481709003448486328125</LatitudeDegrees>
              <LongitudeDegrees>-3.76704764552414417266845703125</LongitudeDegrees>
            </Position>
            <AltitudeMeters>1057.4000244140625</AltitudeMeters>
            <DistanceMeters>47470.228531937</DistanceMeters>
          </Trackpoint>
          <Trackpoint>
            <Time>2020-03-07T15:01:05.000Z</Time>
            <Position>
              <LatitudeDegrees>40.8002888225018978118896484375</LatitudeDegrees>
              <LongitudeDegrees>-3.76708435826003551483154296875</LongitudeDegrees>
            </Position>
            <AltitudeMeters>1057.4000244140625</AltitudeMeters>
            <DistanceMeters>47473.368729936</DistanceMeters>
          </Trackpoint>
          <Trackpoint>
            <Time>2020-03-07T15:01:06.000Z</Time>
            <Position>
              <LatitudeDegrees>40.80029301345348358154296875</LatitudeDegrees>
              <LongitudeDegrees>-3.7671194784343242645263671875</LongitudeDegrees>
            </Position>
            <AltitudeMeters>1057.5999755859375</AltitudeMeters>
            <DistanceMeters>47476.364709907</DistanceMeters>
          </Trackpoint>
          <Trackpoint>
            <Time>2020-03-07T15:01:07.000Z</Time>
            <Position>
              <LatitudeDegrees>40.80029812641441822052001953125</LatitudeDegrees>
              <LongitudeDegrees>-3.7671463005244731903076171875</LongitudeDegrees>
            </Position>
            <AltitudeMeters>1057.5999755859375</AltitudeMeters>
            <DistanceMeters>47478.69625575</DistanceMeters>
          </Trackpoint>
          <Trackpoint>
            <Time>2020-03-07T15:01:08.000Z</Time>
            <Position>
              <LatitudeDegrees>40.80030374228954315185546875</LatitudeDegrees>
              <LongitudeDegrees>-3.76717790029942989349365234375</LongitudeDegrees>
            </Position>
            <AltitudeMeters>1058</AltitudeMeters>
            <DistanceMeters>47481.430648424</DistanceMeters>
          </Trackpoint>
          <Trackpoint>
            <Time>2020-03-07T15:01:09.000Z</Time>
            <Position>
              <LatitudeDegrees>40.8003126271069049835205078125</LatitudeDegrees>
              <LongitudeDegrees>-3.7672068178653717041015625</LongitudeDegrees>
            </Position>
            <AltitudeMeters>1058.199951171875</AltitudeMeters>
            <DistanceMeters>47484.058957477</DistanceMeters>
          </Trackpoint>
          <Trackpoint>
            <Time>2020-03-07T15:01:10.000Z</Time>
            <Position>
              <LatitudeDegrees>40.800322182476520538330078125</LatitudeDegrees>
              <LongitudeDegrees>-3.767239339649677276611328125</LongitudeDegrees>
            </Position>
            <AltitudeMeters>1058.4000244140625</AltitudeMeters>
            <DistanceMeters>47486.998648474</DistanceMeters>
          </Trackpoint>
          <Trackpoint>
            <Time>2020-03-07T15:01:11.000Z</Time>
            <Position>
              <LatitudeDegrees>40.80032930709421634674072265625</LatitudeDegrees>
              <LongitudeDegrees>-3.76727261580526828765869140625</LongitudeDegrees>
            </Position>
            <AltitudeMeters>1058.5999755859375</AltitudeMeters>
            <DistanceMeters>47489.912112368</DistanceMeters>
          </Trackpoint>
          <Trackpoint>
            <Time>2020-03-07T15:01:12.000Z</Time>
            <Position>
              <LatitudeDegrees>40.8003350906074047088623046875</LatitudeDegrees>
              <LongitudeDegrees>-3.76730849035084247589111328125</LongitudeDegrees>
            </Position>
            <AltitudeMeters>1058.800048828125</AltitudeMeters>
            <DistanceMeters>47493.003037937</DistanceMeters>
          </Trackpoint>
          <Trackpoint>
            <Time>2020-03-07T15:01:13.000Z</Time>
            <Position>
              <LatitudeDegrees>40.80034053884446620941162109375</LatitudeDegrees>
              <LongitudeDegrees>-3.76734252087771892547607421875</LongitudeDegrees>
            </Position>
            <AltitudeMeters>1058.800048828125</AltitudeMeters>
            <DistanceMeters>47495.935039434</DistanceMeters>
          </Trackpoint>
          <Trackpoint>
            <Time>2020-03-07T15:01:14.000Z</Time>
            <Position>
              <LatitudeDegrees>40.80034774728119373321533203125</LatitudeDegrees>
              <LongitudeDegrees>-3.7673771381378173828125</LongitudeDegrees>
            </Position>
            <AltitudeMeters>1059.199951171875</AltitudeMeters>
            <DistanceMeters>47498.961009941</DistanceMeters>
          </Trackpoint>
          <Trackpoint>
            <Time>2020-03-07T15:01:15.000Z</Time>
            <Position>
              <LatitudeDegrees>40.800359062850475311279296875</LatitudeDegrees>
              <LongitudeDegrees>-3.7674074806272983551025390625</LongitudeDegrees>
            </Position>
            <AltitudeMeters>1059.4000244140625</AltitudeMeters>
            <DistanceMeters>47501.811811373</DistanceMeters>
          </Trackpoint>
          <Trackpoint>
            <Time>2020-03-07T15:01:16.000Z</Time>
            <Position>
              <LatitudeDegrees>40.80036736093461513519287109375</LatitudeDegrees>
              <LongitudeDegrees>-3.76744846813380718231201171875</LongitudeDegrees>
            </Position>
            <AltitudeMeters>1059.5999755859375</AltitudeMeters>
            <DistanceMeters>47505.387645296</DistanceMeters>
          </Trackpoint>
          <Trackpoint>
            <Time>2020-03-07T15:01:17.000Z</Time>
            <Position>
              <LatitudeDegrees>40.80037775449454784393310546875</LatitudeDegrees>
              <LongitudeDegrees>-3.76748132519423961639404296875</LongitudeDegrees>
            </Position>
            <AltitudeMeters>1059.800048828125</AltitudeMeters>
            <DistanceMeters>47508.389647343</DistanceMeters>
          </Trackpoint>
          <Trackpoint>
            <Time>2020-03-07T15:01:18.000Z</Time>
            <Position>
              <LatitudeDegrees>40.80039015971124172210693359375</LatitudeDegrees>
              <LongitudeDegrees>-3.767513595521450042724609375</LongitudeDegrees>
            </Position>
            <AltitudeMeters>1059.800048828125</AltitudeMeters>
            <DistanceMeters>47511.440878047</DistanceMeters>
          </Trackpoint>
          <Trackpoint>
            <Time>2020-03-07T15:01:19.000Z</Time>
            <Position>
              <LatitudeDegrees>40.800405330955982208251953125</LatitudeDegrees>
              <LongitudeDegrees>-3.76754410564899444580078125</LongitudeDegrees>
            </Position>
            <AltitudeMeters>1060.199951171875</AltitudeMeters>
            <DistanceMeters>47514.517161538</DistanceMeters>
          </Trackpoint>
          <Trackpoint>
            <Time>2020-03-07T15:01:20.000Z</Time>
            <Position>
              <LatitudeDegrees>40.80042268149554729461669921875</LatitudeDegrees>
              <LongitudeDegrees>-3.7675734423100948333740234375</LongitudeDegrees>
            </Position>
            <AltitudeMeters>1060.199951171875</AltitudeMeters>
            <DistanceMeters>47517.65448258</DistanceMeters>
          </Trackpoint>
          <Trackpoint>
            <Time>2020-03-07T15:01:21.000Z</Time>
            <Position>
              <LatitudeDegrees>40.8004413731396198272705078125</LatitudeDegrees>
              <LongitudeDegrees>-3.76760252751410007476806640625</LongitudeDegrees>
            </Position>
            <AltitudeMeters>1060.4000244140625</AltitudeMeters>
            <DistanceMeters>47520.868577702</DistanceMeters>
          </Trackpoint>
          <Trackpoint>
            <Time>2020-03-07T15:01:22.000Z</Time>
            <Position>
              <LatitudeDegrees>40.8004618249833583831787109375</LatitudeDegrees>
              <LongitudeDegrees>-3.76763085834681987762451171875</LongitudeDegrees>
            </Position>
            <AltitudeMeters>1060.5999755859375</AltitudeMeters>
            <DistanceMeters>47524.165881455</DistanceMeters>
          </Trackpoint>
          <Trackpoint>
            <Time>2020-03-07T15:01:23.000Z</Time>
            <Position>
              <LatitudeDegrees>40.800481773912906646728515625</LatitudeDegrees>
              <LongitudeDegrees>-3.7676602788269519805908203125</LongitudeDegrees>
            </Position>
            <AltitudeMeters>1060.800048828125</AltitudeMeters>
            <DistanceMeters>47527.4945304</DistanceMeters>
          </Trackpoint>
          <Trackpoint>
            <Time>2020-03-07T15:01:24.000Z</Time>
            <Position>
              <LatitudeDegrees>40.8005020581185817718505859375</LatitudeDegrees>
              <LongitudeDegrees>-3.76768802292644977569580078125</LongitudeDegrees>
            </Position>
            <AltitudeMeters>1061</AltitudeMeters>
            <DistanceMeters>47530.744944133</DistanceMeters>
          </Trackpoint>
          <Trackpoint>
            <Time>2020-03-07T15:01:25.000Z</Time>
            <Position>
              <LatitudeDegrees>40.80052309669554233551025390625</LatitudeDegrees>
              <LongitudeDegrees>-3.7677139230072498321533203125</LongitudeDegrees>
            </Position>
            <AltitudeMeters>1061.4000244140625</AltitudeMeters>
            <DistanceMeters>47533.944960803</DistanceMeters>
          </Trackpoint>
          <Trackpoint>
            <Time>2020-03-07T15:01:26.000Z</Time>
            <Position>
              <LatitudeDegrees>40.8005429618060588836669921875</LatitudeDegrees>
              <LongitudeDegrees>-3.7677400745451450347900390625</LongitudeDegrees>
            </Position>
            <AltitudeMeters>1061.4000244140625</AltitudeMeters>
            <DistanceMeters>47537.067857305</DistanceMeters>
          </Trackpoint>
          <Trackpoint>
            <Time>2020-03-07T15:01:27.000Z</Time>
            <Position>
              <LatitudeDegrees>40.8005624078214168548583984375</LatitudeDegrees>
              <LongitudeDegrees>-3.7677675671875476837158203125</LongitudeDegrees>
            </Position>
            <AltitudeMeters>1061.5999755859375</AltitudeMeters>
            <DistanceMeters>47540.23668122</DistanceMeters>
          </Trackpoint>
          <Trackpoint>
            <Time>2020-03-07T15:01:28.000Z</Time>
            <Position>
              <LatitudeDegrees>40.800583027303218841552734375</LatitudeDegrees>
              <LongitudeDegrees>-3.76779397018253803253173828125</LongitudeDegrees>
            </Position>
            <AltitudeMeters>1061.800048828125</AltitudeMeters>
            <DistanceMeters>47543.431049136</DistanceMeters>
          </Trackpoint>
          <Trackpoint>
            <Time>2020-03-07T15:01:29.000Z</Time>
            <Position>
              <LatitudeDegrees>40.800605826079845428466796875</LatitudeDegrees>
              <LongitudeDegrees>-3.76781928353011608123779296875</LongitudeDegrees>
            </Position>
            <AltitudeMeters>1062.199951171875</AltitudeMeters>
            <DistanceMeters>47546.746106154</DistanceMeters>
          </Trackpoint>
          <Trackpoint>
            <Time>2020-03-07T15:01:30.000Z</Time>
            <Position>
              <LatitudeDegrees>40.80063072033226490020751953125</LatitudeDegrees>
              <LongitudeDegrees>-3.767842166125774383544921875</LongitudeDegrees>
            </Position>
            <AltitudeMeters>1062.5999755859375</AltitudeMeters>
            <DistanceMeters>47550.121895909</DistanceMeters>
          </Trackpoint>
          <Trackpoint>
            <Time>2020-03-07T15:01:31.000Z</Time>
            <Position>
              <LatitudeDegrees>40.8006562851369380950927734375</LatitudeDegrees>
              <LongitudeDegrees>-3.76786488108336925506591796875</LongitudeDegrees>
            </Position>
            <AltitudeMeters>1062.800048828125</AltitudeMeters>
            <DistanceMeters>47553.550767375</DistanceMeters>
          </Trackpoint>
          <Trackpoint>
            <Time>2020-03-07T15:01:32.000Z</Time>
            <Position>
              <LatitudeDegrees>40.80068084411323070526123046875</LatitudeDegrees>
              <LongitudeDegrees>-3.76788801513612270355224609375</LongitudeDegrees>
            </Position>
            <AltitudeMeters>1062.800048828125</AltitudeMeters>
            <DistanceMeters>47556.907780244</DistanceMeters>
          </Trackpoint>
          <Trackpoint>
            <Time>2020-03-07T15:01:33.000Z</Time>
            <Position>
              <LatitudeDegrees>40.80070213414728641510009765625</LatitudeDegrees>
              <LongitudeDegrees>-3.76790947280824184417724609375</LongitudeDegrees>
            </Position>
            <AltitudeMeters>1063</AltitudeMeters>
            <DistanceMeters>47559.888651798</DistanceMeters>
          </Trackpoint>
          <Trackpoint>
            <Time>2020-03-07T15:01:34.000Z</Time>
            <Position>
              <LatitudeDegrees>40.80072694458067417144775390625</LatitudeDegrees>
              <LongitudeDegrees>-3.7679358758032321929931640625</LongitudeDegrees>
            </Position>
            <AltitudeMeters>1063.199951171875</AltitudeMeters>
            <DistanceMeters>47563.434052538</DistanceMeters>
          </Trackpoint>
          <Trackpoint>
            <Time>2020-03-07T15:01:35.000Z</Time>
            <Position>
              <LatitudeDegrees>40.80075058154761791229248046875</LatitudeDegrees>
              <LongitudeDegrees>-3.76796144060790538787841796875</LongitudeDegrees>
            </Position>
            <AltitudeMeters>1063.5999755859375</AltitudeMeters>
            <DistanceMeters>47566.833831626</DistanceMeters>
          </Trackpoint>
          <Trackpoint>
            <Time>2020-03-07T15:01:36.000Z</Time>
            <Position>
              <LatitudeDegrees>40.80077421851456165313720703125</LatitudeDegrees>
              <LongitudeDegrees>-3.76798809505999088287353515625</LongitudeDegrees>
            </Position>
            <AltitudeMeters>1063.800048828125</AltitudeMeters>
            <DistanceMeters>47570.292856241</DistanceMeters>
          </Trackpoint>
          <Trackpoint>
            <Time>2020-03-07T15:01:37.000Z</Time>
            <Position>
              <LatitudeDegrees>40.800799615681171417236328125</LatitudeDegrees>
              <LongitudeDegrees>-3.76801458187401294708251953125</LongitudeDegrees>
            </Position>
            <AltitudeMeters>1064</AltitudeMeters>
            <DistanceMeters>47573.892600635</DistanceMeters>
          </Trackpoint>
          <Trackpoint>
            <Time>2020-03-07T15:01:38.000Z</Time>
            <Position>
              <LatitudeDegrees>40.800825767219066619873046875</LatitudeDegrees>
              <LongitudeDegrees>-3.76804106868803501129150390625</LongitudeDegrees>
            </Position>
            <AltitudeMeters>1064.199951171875</AltitudeMeters>
            <DistanceMeters>47577.55944994</DistanceMeters>
          </Trackpoint>
          <Trackpoint>
            <Time>2020-03-07T15:01:39.000Z</Time>
            <Position>
              <LatitudeDegrees>40.80085133202373981475830078125</LatitudeDegrees>
              <LongitudeDegrees>-3.76806520856916904449462890625</LongitudeDegrees>
            </Position>
            <AltitudeMeters>1064.199951171875</AltitudeMeters>
            <DistanceMeters>47581.056123145</DistanceMeters>
          </Trackpoint>
          <Trackpoint>
            <Time>2020-03-07T15:01:40.000Z</Time>
            <Position>
              <LatitudeDegrees>40.80087681300938129425048828125</LatitudeDegrees>
              <LongitudeDegrees>-3.76808985136449337005615234375</LongitudeDegrees>
            </Position>
            <AltitudeMeters>1064.4000244140625</AltitudeMeters>
            <DistanceMeters>47584.56825703</DistanceMeters>
          </Trackpoint>
          <Trackpoint>
            <Time>2020-03-07T15:01:41.000Z</Time>
            <Position>
              <LatitudeDegrees>40.80090044997632503509521484375</LatitudeDegrees>
              <LongitudeDegrees>-3.76811332069337368011474609375</LongitudeDegrees>
            </Position>
            <AltitudeMeters>1064.800048828125</AltitudeMeters>
            <DistanceMeters>47587.858707099</DistanceMeters>
          </Trackpoint>
          <Trackpoint>
            <Time>2020-03-07T15:01:42.000Z</Time>
            <Position>
              <LatitudeDegrees>40.80092458985745906829833984375</LatitudeDegrees>
              <LongitudeDegrees>-3.76813930459320545196533203125</LongitudeDegrees>
            </Position>
            <AltitudeMeters>1064.800048828125</AltitudeMeters>
            <DistanceMeters>47591.32425203</DistanceMeters>
          </Trackpoint>
          <Trackpoint>
            <Time>2020-03-07T15:01:43.000Z</Time>
            <Position>
              <LatitudeDegrees>40.80094747245311737060546875</LatitudeDegrees>
              <LongitudeDegrees>-3.76816461794078350067138671875</LongitudeDegrees>
            </Position>
            <AltitudeMeters>1065</AltitudeMeters>
            <DistanceMeters>47594.646111963</DistanceMeters>
          </Trackpoint>
          <Trackpoint>
            <Time>2020-03-07T15:01:44.000Z</Time>
            <Position>
              <LatitudeDegrees>40.8009717799723148345947265625</LatitudeDegrees>
              <LongitudeDegrees>-3.76819076947867870330810546875</LongitudeDegrees>
            </Position>
            <AltitudeMeters>1065.199951171875</AltitudeMeters>
            <DistanceMeters>47598.135029137</DistanceMeters>
          </Trackpoint>
          <Trackpoint>
            <Time>2020-03-07T15:01:45.000Z</Time>
            <Position>
              <LatitudeDegrees>40.80099617131054401397705078125</LatitudeDegrees>
              <LongitudeDegrees>-3.7682161666452884674072265625</LongitudeDegrees>
            </Position>
            <AltitudeMeters>1065.199951171875</AltitudeMeters>
            <DistanceMeters>47601.592748213</DistanceMeters>
          </Trackpoint>
          <Trackpoint>
            <Time>2020-03-07T15:01:46.000Z</Time>
            <Position>
              <LatitudeDegrees>40.801023580133914947509765625</LatitudeDegrees>
              <LongitudeDegrees>-3.76824525184929370880126953125</LongitudeDegrees>
            </Position>
            <AltitudeMeters>1065.4000244140625</AltitudeMeters>
            <DistanceMeters>47605.506187832</DistanceMeters>
          </Trackpoint>
          <Trackpoint>
            <Time>2020-03-07T15:01:47.000Z</Time>
            <Position>
              <LatitudeDegrees>40.801048390567302703857421875</LatitudeDegrees>
              <LongitudeDegrees>-3.76827073283493518829345703125</LongitudeDegrees>
            </Position>
            <AltitudeMeters>1065.800048828125</AltitudeMeters>
            <DistanceMeters>47609.005442561</DistanceMeters>
          </Trackpoint>
          <Trackpoint>
            <Time>2020-03-07T15:01:48.000Z</Time>
            <Position>
              <LatitudeDegrees>40.801071859896183013916015625</LatitudeDegrees>
              <LongitudeDegrees>-3.76829671673476696014404296875</LongitudeDegrees>
            </Position>
            <AltitudeMeters>1066</AltitudeMeters>
            <DistanceMeters>47612.413180565</DistanceMeters>
          </Trackpoint>
          <Trackpoint>
            <Time>2020-03-07T15:01:49.000Z</Time>
            <Position>
              <LatitudeDegrees>40.80109658651053905487060546875</LatitudeDegrees>
              <LongitudeDegrees>-3.76831968314945697784423828125</LongitudeDegrees>
            </Position>
            <AltitudeMeters>1066</AltitudeMeters>
            <DistanceMeters>47615.776911497</DistanceMeters>
          </Trackpoint>
          <Trackpoint>
            <Time>2020-03-07T15:01:50.000Z</Time>
            <Position>
              <LatitudeDegrees>40.80111980438232421875</LatitudeDegrees>
              <LongitudeDegrees>-3.76834130845963954925537109375</LongitudeDegrees>
            </Position>
            <AltitudeMeters>1066.199951171875</AltitudeMeters>
            <DistanceMeters>47618.937174864</DistanceMeters>
          </Trackpoint>
          <Trackpoint>
            <Time>2020-03-07T15:01:51.000Z</Time>
            <Position>
              <LatitudeDegrees>40.80114595592021942138671875</LatitudeDegrees>
              <LongitudeDegrees>-3.7683700583875179290771484375</LongitudeDegrees>
            </Position>
            <AltitudeMeters>1066.199951171875</AltitudeMeters>
            <DistanceMeters>47622.723962605</DistanceMeters>
          </Trackpoint>
          <Trackpoint>
            <Time>2020-03-07T15:01:52.000Z</Time>
            <Position>
              <LatitudeDegrees>40.801169760525226593017578125</LatitudeDegrees>
              <LongitudeDegrees>-3.76839612610638141632080078125</LongitudeDegrees>
            </Position>
            <AltitudeMeters>1066.4000244140625</AltitudeMeters>
            <DistanceMeters>47626.165976593</DistanceMeters>
          </Trackpoint>
          <Trackpoint>
            <Time>2020-03-07T15:01:53.000Z</Time>
            <Position>
              <LatitudeDegrees>40.8011923916637897491455078125</LatitudeDegrees>
              <LongitudeDegrees>-3.768420852720737457275390625</LongitudeDegrees>
            </Position>
            <AltitudeMeters>1066.5999755859375</AltitudeMeters>
            <DistanceMeters>47629.435779417</DistanceMeters>
          </Trackpoint>
          <Trackpoint>
            <Time>2020-03-07T15:01:54.000Z</Time>
            <Position>
              <LatitudeDegrees>40.80121560953557491302490234375</LatitudeDegrees>
              <LongitudeDegrees>-3.7684459984302520751953125</LongitudeDegrees>
            </Position>
            <AltitudeMeters>1066.800048828125</AltitudeMeters>
            <DistanceMeters>47632.777965014</DistanceMeters>
          </Trackpoint>
          <Trackpoint>
            <Time>2020-03-07T15:01:55.000Z</Time>
            <Position>
              <LatitudeDegrees>40.801238827407360076904296875</LatitudeDegrees>
              <LongitudeDegrees>-3.7684703059494495391845703125</LongitudeDegrees>
            </Position>
            <AltitudeMeters>1067</AltitudeMeters>
            <DistanceMeters>47636.075268767</DistanceMeters>
          </Trackpoint>
          <Trackpoint>
            <Time>2020-03-07T15:01:56.000Z</Time>
            <Position>
              <LatitudeDegrees>40.8012621290981769561767578125</LatitudeDegrees>
              <LongitudeDegrees>-3.76849436201155185699462890625</LongitudeDegrees>
            </Position>
            <AltitudeMeters>1067.199951171875</AltitudeMeters>
            <DistanceMeters>47639.367090714</DistanceMeters>
          </Trackpoint>
          <Trackpoint>
            <Time>2020-03-07T15:01:57.000Z</Time>
            <Position>
              <LatitudeDegrees>40.80128618516027927398681640625</LatitudeDegrees>
              <LongitudeDegrees>-3.76851565204560756683349609375</LongitudeDegrees>
            </Position>
            <AltitudeMeters>1067.4000244140625</AltitudeMeters>
            <DistanceMeters>47642.589603384</DistanceMeters>
          </Trackpoint>
          <Trackpoint>
            <Time>2020-03-07T15:01:58.000Z</Time>
            <Position>
              <LatitudeDegrees>40.801309235394001007080078125</LatitudeDegrees>
              <LongitudeDegrees>-3.7685376964509487152099609375</LongitudeDegrees>
            </Position>
            <AltitudeMeters>1067.4000244140625</AltitudeMeters>
            <DistanceMeters>47645.757002148</DistanceMeters>
          </Trackpoint>
          <Trackpoint>
            <Time>2020-03-07T15:01:59.000Z</Time>
            <Position>
              <LatitudeDegrees>40.8013308607041835784912109375</LatitudeDegrees>
              <LongitudeDegrees>-3.76856091432273387908935546875</LongitudeDegrees>
            </Position>
            <AltitudeMeters>1067.5999755859375</AltitudeMeters>
            <DistanceMeters>47648.859591629</DistanceMeters>
          </Trackpoint>
          <Trackpoint>
            <Time>2020-03-07T15:02:00.000Z</Time>
            <Position>
              <LatitudeDegrees>40.80135290510952472686767578125</LatitudeDegrees>
              <LongitudeDegrees>-3.76858471892774105072021484375</LongitudeDegrees>
            </Position>
            <AltitudeMeters>1067.800048828125</AltitudeMeters>
            <DistanceMeters>47652.028415544</DistanceMeters>
          </Trackpoint>
          <Trackpoint>
            <Time>2020-03-07T15:02:01.000Z</Time>
            <Position>
              <LatitudeDegrees>40.8013744466006755828857421875</LatitudeDegrees>
              <LongitudeDegrees>-3.76860885880887508392333984375</LongitudeDegrees>
            </Position>
            <AltitudeMeters>1068</AltitudeMeters>
            <DistanceMeters>47655.172924044</DistanceMeters>
          </Trackpoint>
          <Trackpoint>
            <Time>2020-03-07T15:02:02.000Z</Time>
            <Position>
              <LatitudeDegrees>40.80139565281569957733154296875</LatitudeDegrees>
              <LongitudeDegrees>-3.76863048411905765533447265625</LongitudeDegrees>
            </Position>
            <AltitudeMeters>1068</AltitudeMeters>
            <DistanceMeters>47658.155309884</DistanceMeters>
          </Trackpoint>
          <Trackpoint>
            <Time>2020-03-07T15:02:03.000Z</Time>
            <Position>
              <LatitudeDegrees>40.80141996033489704132080078125</LatitudeDegrees>
              <LongitudeDegrees>-3.76865261234343051910400390625</LongitudeDegrees>
            </Position>
            <AltitudeMeters>1068.199951171875</AltitudeMeters>
            <DistanceMeters>47661.441640882</DistanceMeters>
          </Trackpoint>
          <Trackpoint>
            <Time>2020-03-07T15:02:04.000Z</Time>
            <Position>
              <LatitudeDegrees>40.80144510604441165924072265625</LatitudeDegrees>
              <LongitudeDegrees>-3.76867390237748622894287109375</LongitudeDegrees>
            </Position>
            <AltitudeMeters>1068.4000244140625</AltitudeMeters>
            <DistanceMeters>47664.764859727</DistanceMeters>
          </Trackpoint>
          <Trackpoint>
            <Time>2020-03-07T15:02:05.000Z</Time>
            <Position>
              <LatitudeDegrees>40.80147025175392627716064453125</LatitudeDegrees>
              <LongitudeDegrees>-3.76869418658316135406494140625</LongitudeDegrees>
            </Position>
            <AltitudeMeters>1068.4000244140625</AltitudeMeters>
            <DistanceMeters>47668.044314109</DistanceMeters>
          </Trackpoint>
          <Trackpoint>
            <Time>2020-03-07T15:02:06.000Z</Time>
            <Position>
              <LatitudeDegrees>40.80149405635893344879150390625</LatitudeDegrees>
              <LongitudeDegrees>-3.7687140516936779022216796875</LongitudeDegrees>
            </Position>
            <AltitudeMeters>1068.5999755859375</AltitudeMeters>
            <DistanceMeters>47671.178755554</DistanceMeters>
          </Trackpoint>
          <Trackpoint>
            <Time>2020-03-07T15:02:07.000Z</Time>
            <Position>
              <LatitudeDegrees>40.8015152625739574432373046875</LatitudeDegrees>
              <LongitudeDegrees>-3.7687358446419239044189453125</LongitudeDegrees>
            </Position>
            <AltitudeMeters>1068.800048828125</AltitudeMeters>
            <DistanceMeters>47674.168701319</DistanceMeters>
          </Trackpoint>
          <Trackpoint>
            <Time>2020-03-07T15:02:08.000Z</Time>
            <Position>
              <LatitudeDegrees>40.80153353512287139892578125</LatitudeDegrees>
              <LongitudeDegrees>-3.768758140504360198974609375</LongitudeDegrees>
            </Position>
            <AltitudeMeters>1069</AltitudeMeters>
            <DistanceMeters>47676.93918232</DistanceMeters>
          </Trackpoint>
          <Trackpoint>
            <Time>2020-03-07T15:02:09.000Z</Time>
            <Position>
              <LatitudeDegrees>40.80155256204307079315185546875</LatitudeDegrees>
              <LongitudeDegrees>-3.76878202892839908599853515625</LongitudeDegrees>
            </Position>
            <AltitudeMeters>1069.4000244140625</AltitudeMeters>
            <DistanceMeters>47679.861929712</DistanceMeters>
          </Trackpoint>
          <Trackpoint>
            <Time>2020-03-07T15:02:10.000Z</Time>
            <Position>
              <LatitudeDegrees>40.80157267861068248748779296875</LatitudeDegrees>
              <LongitudeDegrees>-3.76880516298115253448486328125</LongitudeDegrees>
            </Position>
            <AltitudeMeters>1069.5999755859375</AltitudeMeters>
            <DistanceMeters>47682.830659172</DistanceMeters>
          </Trackpoint>
          <Trackpoint>
            <Time>2020-03-07T15:02:11.000Z</Time>
            <Position>
              <LatitudeDegrees>40.80159497447311878204345703125</LatitudeDegrees>
              <LongitudeDegrees>-3.76882662065327167510986328125</LongitudeDegrees>
            </Position>
            <AltitudeMeters>1069.800048828125</AltitudeMeters>
            <DistanceMeters>47685.90106628</DistanceMeters>
          </Trackpoint>
          <Trackpoint>
            <Time>2020-03-07T15:02:12.000Z</Time>
            <Position>
              <LatitudeDegrees>40.8016205392777919769287109375</LatitudeDegrees>
              <LongitudeDegrees>-3.7688483297824859619140625</LongitudeDegrees>
            </Position>
            <AltitudeMeters>1070</AltitudeMeters>
            <DistanceMeters>47689.284871377</DistanceMeters>
          </Trackpoint>
          <Trackpoint>
            <Time>2020-03-07T15:02:13.000Z</Time>
            <Position>
              <LatitudeDegrees>40.801643840968608856201171875</LatitudeDegrees>
              <LongitudeDegrees>-3.7688699550926685333251953125</LongitudeDegrees>
            </Position>
            <AltitudeMeters>1070</AltitudeMeters>
            <DistanceMeters>47692.455119803</DistanceMeters>
          </Trackpoint>
          <Trackpoint>
            <Time>2020-03-07T15:02:14.000Z</Time>
            <Position>
              <LatitudeDegrees>40.80166655592620372772216796875</LatitudeDegrees>
              <LongitudeDegrees>-3.76889267005026340484619140625</LongitudeDegrees>
            </Position>
            <AltitudeMeters>1070.199951171875</AltitudeMeters>
            <DistanceMeters>47695.626792099</DistanceMeters>
          </Trackpoint>
          <Trackpoint>
            <Time>2020-03-07T15:02:15.000Z</Time>
            <Position>
              <LatitudeDegrees>40.8016892708837985992431640625</LatitudeDegrees>
              <LongitudeDegrees>-3.7689152173697948455810546875</LongitudeDegrees>
            </Position>
            <AltitudeMeters>1070.4000244140625</AltitudeMeters>
            <DistanceMeters>47698.787055466</DistanceMeters>
          </Trackpoint>
          <Trackpoint>
            <Time>2020-03-07T15:02:16.000Z</Time>
            <Position>
              <LatitudeDegrees>40.801710896193981170654296875</LatitudeDegrees>
              <LongitudeDegrees>-3.76893726177513599395751953125</LongitudeDegrees>
            </Position>
            <AltitudeMeters>1070.5999755859375</AltitudeMeters>
            <DistanceMeters>47701.826425171</DistanceMeters>
          </Trackpoint>
          <Trackpoint>
            <Time>2020-03-07T15:02:17.000Z</Time>
            <Position>
              <LatitudeDegrees>40.8017315156757831573486328125</LatitudeDegrees>
              <LongitudeDegrees>-3.768957294523715972900390625</LongitudeDegrees>
            </Position>
            <AltitudeMeters>1070.800048828125</AltitudeMeters>
            <DistanceMeters>47704.675642383</DistanceMeters>
          </Trackpoint>
          <Trackpoint>
            <Time>2020-03-07T15:02:18.000Z</Time>
            <Position>
              <LatitudeDegrees>40.801752470433712005615234375</LatitudeDegrees>
              <LongitudeDegrees>-3.7689832784235477447509765625</LongitudeDegrees>
            </Position>
            <AltitudeMeters>1071</AltitudeMeters>
            <DistanceMeters>47707.8742478</DistanceMeters>
          </Trackpoint>
          <Trackpoint>
            <Time>2020-03-07T15:02:19.000Z</Time>
            <Position>
              <LatitudeDegrees>40.8017761074006557464599609375</LatitudeDegrees>
              <LongitudeDegrees>-3.76901621930301189422607421875</LongitudeDegrees>
            </Position>
            <AltitudeMeters>1071.199951171875</AltitudeMeters>
            <DistanceMeters>47711.697818613</DistanceMeters>
          </Trackpoint>
          <Trackpoint>
            <Time>2020-03-07T15:02:20.000Z</Time>
            <Position>
              <LatitudeDegrees>40.8017975650727748870849609375</LatitudeDegrees>
              <LongitudeDegrees>-3.76904220320284366607666015625</LongitudeDegrees>
            </Position>
            <AltitudeMeters>1071.4000244140625</AltitudeMeters>
            <DistanceMeters>47714.93710076</DistanceMeters>
          </Trackpoint>
          <Trackpoint>
            <Time>2020-03-07T15:02:21.000Z</Time>
            <Position>
              <LatitudeDegrees>40.801821537315845489501953125</LatitudeDegrees>
              <LongitudeDegrees>-3.76906692981719970703125</LongitudeDegrees>
            </Position>
            <AltitudeMeters>1071.5999755859375</AltitudeMeters>
            <DistanceMeters>47718.323573421</DistanceMeters>
          </Trackpoint>
          <Trackpoint>
            <Time>2020-03-07T15:02:22.000Z</Time>
            <Position>
              <LatitudeDegrees>40.80184458754956722259521484375</LatitudeDegrees>
              <LongitudeDegrees>-3.76908998005092144012451171875</LongitudeDegrees>
            </Position>
            <AltitudeMeters>1071.800048828125</AltitudeMeters>
            <DistanceMeters>47721.541880069</DistanceMeters>
          </Trackpoint>
          <Trackpoint>
            <Time>2020-03-07T15:02:23.000Z</Time>
            <Position>
              <LatitudeDegrees>40.80186822451651096343994140625</LatitudeDegrees>
              <LongitudeDegrees>-3.76911185681819915771484375</LongitudeDegrees>
            </Position>
            <AltitudeMeters>1072.199951171875</AltitudeMeters>
            <DistanceMeters>47724.753164438</DistanceMeters>
          </Trackpoint>
          <Trackpoint>
            <Time>2020-03-07T15:02:24.000Z</Time>
            <Position>
              <LatitudeDegrees>40.80189161002635955810546875</LatitudeDegrees>
              <LongitudeDegrees>-3.769133985042572021484375</LongitudeDegrees>
            </Position>
            <AltitudeMeters>1072</AltitudeMeters>
            <DistanceMeters>47727.954591739</DistanceMeters>
          </Trackpoint>
          <Trackpoint>
            <Time>2020-03-07T15:02:25.000Z</Time>
            <Position>
              <LatitudeDegrees>40.80191298387944698333740234375</LatitudeDegrees>
              <LongitudeDegrees>-3.7691576220095157623291015625</LongitudeDegrees>
            </Position>
            <AltitudeMeters>1072.4000244140625</AltitudeMeters>
            <DistanceMeters>47731.05718122</DistanceMeters>
          </Trackpoint>
          <Trackpoint>
            <Time>2020-03-07T15:02:26.000Z</Time>
            <Position>
              <LatitudeDegrees>40.80193377099931240081787109375</LatitudeDegrees>
              <LongitudeDegrees>-3.76918025314807891845703125</LongitudeDegrees>
            </Position>
            <AltitudeMeters>1072.4000244140625</AltitudeMeters>
            <DistanceMeters>47734.056173741</DistanceMeters>
          </Trackpoint>
          <Trackpoint>
            <Time>2020-03-07T15:02:27.000Z</Time>
            <Position>
              <LatitudeDegrees>40.801956653594970703125</LatitudeDegrees>
              <LongitudeDegrees>-3.76920078881084918975830078125</LongitudeDegrees>
            </Position>
            <AltitudeMeters>1072.800048828125</AltitudeMeters>
            <DistanceMeters>47737.136857162</DistanceMeters>
          </Trackpoint>
          <Trackpoint>
            <Time>2020-03-07T15:02:28.000Z</Time>
            <Position>
              <LatitudeDegrees>40.801981799304485321044921875</LatitudeDegrees>
              <LongitudeDegrees>-3.7692189775407314300537109375</LongitudeDegrees>
            </Position>
            <AltitudeMeters>1073</AltitudeMeters>
            <DistanceMeters>47740.328396952</DistanceMeters>
          </Trackpoint>
          <Trackpoint>
            <Time>2020-03-07T15:02:29.000Z</Time>
            <Position>
              <LatitudeDegrees>40.80200652591884136199951171875</LatitudeDegrees>
              <LongitudeDegrees>-3.76923817209899425506591796875</LongitudeDegrees>
            </Position>
            <AltitudeMeters>1073</AltitudeMeters>
            <DistanceMeters>47743.519936742</DistanceMeters>
          </Trackpoint>
          <Trackpoint>
            <Time>2020-03-07T15:02:30.000Z</Time>
            <Position>
              <LatitudeDegrees>40.80203100107610225677490234375</LatitudeDegrees>
              <LongitudeDegrees>-3.76926071941852569580078125</LongitudeDegrees>
            </Position>
            <AltitudeMeters>1073.4000244140625</AltitudeMeters>
            <DistanceMeters>47746.840437207</DistanceMeters>
          </Trackpoint>
          <Trackpoint>
            <Time>2020-03-07T15:02:31.000Z</Time>
            <Position>
              <LatitudeDegrees>40.80205480568110942840576171875</LatitudeDegrees>
              <LongitudeDegrees>-3.76928485929965972900390625</LongitudeDegrees>
            </Position>
            <AltitudeMeters>1073.4000244140625</AltitudeMeters>
            <DistanceMeters>47750.181271606</DistanceMeters>
          </Trackpoint>
          <Trackpoint>
            <Time>2020-03-07T15:02:32.000Z</Time>
            <Position>
              <LatitudeDegrees>40.8020778559148311614990234375</LatitudeDegrees>
              <LongitudeDegrees>-3.76930807717144489288330078125</LongitudeDegrees>
            </Position>
            <AltitudeMeters>1073.5999755859375</AltitudeMeters>
            <DistanceMeters>47753.409383781</DistanceMeters>
          </Trackpoint>
          <Trackpoint>
            <Time>2020-03-07T15:02:33.000Z</Time>
            <Position>
              <LatitudeDegrees>40.80210174433887004852294921875</LatitudeDegrees>
              <LongitudeDegrees>-3.76933188177645206451416015625</LongitudeDegrees>
            </Position>
            <AltitudeMeters>1073.800048828125</AltitudeMeters>
            <DistanceMeters>47756.739388867</DistanceMeters>
          </Trackpoint>
          <Trackpoint>
            <Time>2020-03-07T15:02:34.000Z</Time>
            <Position>
              <LatitudeDegrees>40.80212722532451152801513671875</LatitudeDegrees>
              <LongitudeDegrees>-3.76935937441885471343994140625</LongitudeDegrees>
            </Position>
            <AltitudeMeters>1074</AltitudeMeters>
            <DistanceMeters>47760.402542372</DistanceMeters>
          </Trackpoint>
          <Trackpoint>
            <Time>2020-03-07T15:02:35.000Z</Time>
            <Position>
              <LatitudeDegrees>40.8021526224911212921142578125</LatitudeDegrees>
              <LongitudeDegrees>-3.76938586123287677764892578125</LongitudeDegrees>
            </Position>
            <AltitudeMeters>1074.199951171875</AltitudeMeters>
            <DistanceMeters>47764.003540813</DistanceMeters>
          </Trackpoint>
          <Trackpoint>
            <Time>2020-03-07T15:02:36.000Z</Time>
            <Position>
              <LatitudeDegrees>40.80217835493385791778564453125</LatitudeDegrees>
              <LongitudeDegrees>-3.76941167749464511871337890625</LongitudeDegrees>
            </Position>
            <AltitudeMeters>1074.4000244140625</AltitudeMeters>
            <DistanceMeters>47767.599520438</DistanceMeters>
          </Trackpoint>
          <Trackpoint>
            <Time>2020-03-07T15:02:37.000Z</Time>
            <Position>
              <LatitudeDegrees>40.802205093204975128173828125</LatitudeDegrees>
              <LongitudeDegrees>-3.76943598501384258270263671875</LongitudeDegrees>
            </Position>
            <AltitudeMeters>1075</AltitudeMeters>
            <DistanceMeters>47771.213035422</DistanceMeters>
          </Trackpoint>
          <Trackpoint>
            <Time>2020-03-07T15:02:38.000Z</Time>
            <Position>
              <LatitudeDegrees>40.8022304065525531768798828125</LatitudeDegrees>
              <LongitudeDegrees>-3.7694600410759449005126953125</LongitudeDegrees>
            </Position>
            <AltitudeMeters>1075</AltitudeMeters>
            <DistanceMeters>47774.683787787</DistanceMeters>
          </Trackpoint>
          <Trackpoint>
            <Time>2020-03-07T15:02:39.000Z</Time>
            <Position>
              <LatitudeDegrees>40.80225496552884578704833984375</LatitudeDegrees>
              <LongitudeDegrees>-3.769483678042888641357421875</LongitudeDegrees>
            </Position>
            <AltitudeMeters>1075.4000244140625</AltitudeMeters>
            <DistanceMeters>47778.066258312</DistanceMeters>
          </Trackpoint>
          <Trackpoint>
            <Time>2020-03-07T15:02:40.000Z</Time>
            <Position>
              <LatitudeDegrees>40.8022786863148212432861328125</LatitudeDegrees>
              <LongitudeDegrees>-3.769507817924022674560546875</LongitudeDegrees>
            </Position>
            <AltitudeMeters>1075.800048828125</AltitudeMeters>
            <DistanceMeters>47781.398974025</DistanceMeters>
          </Trackpoint>
          <Trackpoint>
            <Time>2020-03-07T15:02:41.000Z</Time>
            <Position>
              <LatitudeDegrees>40.80230089835822582244873046875</LatitudeDegrees>
              <LongitudeDegrees>-3.76952952705323696136474609375</LongitudeDegrees>
            </Position>
            <AltitudeMeters>1075.800048828125</AltitudeMeters>
            <DistanceMeters>47784.475257516</DistanceMeters>
          </Trackpoint>
          <Trackpoint>
            <Time>2020-03-07T15:02:42.000Z</Time>
            <Position>
              <LatitudeDegrees>40.80232487060129642486572265625</LatitudeDegrees>
              <LongitudeDegrees>-3.769552074372768402099609375</LongitudeDegrees>
            </Position>
            <AltitudeMeters>1076.199951171875</AltitudeMeters>
            <DistanceMeters>47787.750578999</DistanceMeters>
          </Trackpoint>
          <Trackpoint>
            <Time>2020-03-07T15:02:43.000Z</Time>
            <Position>
              <LatitudeDegrees>40.80234867520630359649658203125</LatitudeDegrees>
              <LongitudeDegrees>-3.76957579515874385833740234375</LongitudeDegrees>
            </Position>
            <AltitudeMeters>1076.5999755859375</AltitudeMeters>
            <DistanceMeters>47791.069719439</DistanceMeters>
          </Trackpoint>
          <Trackpoint>
            <Time>2020-03-07T15:02:44.000Z</Time>
            <Position>
              <LatitudeDegrees>40.8023759163916110992431640625</LatitudeDegrees>
              <LongitudeDegrees>-3.7696068920195102691650390625</LongitudeDegrees>
            </Position>
            <AltitudeMeters>1077</AltitudeMeters>
            <DistanceMeters>47795.076647928</DistanceMeters>
          </Trackpoint>
          <Trackpoint>
            <Time>2020-03-07T15:02:45.000Z</Time>
            <Position>
              <LatitudeDegrees>40.80239980481564998626708984375</LatitudeDegrees>
              <LongitudeDegrees>-3.76963354647159576416015625</LongitudeDegrees>
            </Position>
            <AltitudeMeters>1077.199951171875</AltitudeMeters>
            <DistanceMeters>47798.555196826</DistanceMeters>
          </Trackpoint>
          <Trackpoint>
            <Time>2020-03-07T15:02:46.000Z</Time>
            <Position>
              <LatitudeDegrees>40.8024231903254985809326171875</LatitudeDegrees>
              <LongitudeDegrees>-3.7696618773043155670166015625</LongitudeDegrees>
            </Position>
            <AltitudeMeters>1077.199951171875</AltitudeMeters>
            <DistanceMeters>47802.085282589</DistanceMeters>
          </Trackpoint>
          <Trackpoint>
            <Time>2020-03-07T15:02:47.000Z</Time>
            <Position>
              <LatitudeDegrees>40.80244950950145721435546875</LatitudeDegrees>
              <LongitudeDegrees>-3.76968727447092533111572265625</LongitudeDegrees>
            </Position>
            <AltitudeMeters>1077.4000244140625</AltitudeMeters>
            <DistanceMeters>47805.712515884</DistanceMeters>
          </Trackpoint>
          <Trackpoint>
            <Time>2020-03-07T15:02:48.000Z</Time>
            <Position>
              <LatitudeDegrees>40.80247633159160614013671875</LatitudeDegrees>
              <LongitudeDegrees>-3.769710995256900787353515625</LongitudeDegrees>
            </Position>
            <AltitudeMeters>1077.800048828125</AltitudeMeters>
            <DistanceMeters>47809.305983473</DistanceMeters>
          </Trackpoint>
          <Trackpoint>
            <Time>2020-03-07T15:02:49.000Z</Time>
            <Position>
              <LatitudeDegrees>40.80250156112015247344970703125</LatitudeDegrees>
              <LongitudeDegrees>-3.7697359733283519744873046875</LongitudeDegrees>
            </Position>
            <AltitudeMeters>1077.800048828125</AltitudeMeters>
            <DistanceMeters>47812.815545308</DistanceMeters>
          </Trackpoint>
          <Trackpoint>
            <Time>2020-03-07T15:02:50.000Z</Time>
            <Position>
              <LatitudeDegrees>40.80252603627741336822509765625</LatitudeDegrees>
              <LongitudeDegrees>-3.76976254396140575408935546875</LongitudeDegrees>
            </Position>
            <AltitudeMeters>1078</AltitudeMeters>
            <DistanceMeters>47816.340511291</DistanceMeters>
          </Trackpoint>
          <Trackpoint>
            <Time>2020-03-07T15:02:51.000Z</Time>
            <Position>
              <LatitudeDegrees>40.8025505952537059783935546875</LatitudeDegrees>
              <LongitudeDegrees>-3.7697892822325229644775390625</LongitudeDegrees>
            </Position>
            <AltitudeMeters>1078</AltitudeMeters>
            <DistanceMeters>47819.882089496</DistanceMeters>
          </Trackpoint>
          <Trackpoint>
            <Time>2020-03-07T15:02:52.000Z</Time>
            <Position>
              <LatitudeDegrees>40.8025754056870937347412109375</LatitudeDegrees>
              <LongitudeDegrees>-3.76981484703719615936279296875</LongitudeDegrees>
            </Position>
            <AltitudeMeters>1078.199951171875</AltitudeMeters>
            <DistanceMeters>47823.383923846</DistanceMeters>
          </Trackpoint>
          <Trackpoint>
            <Time>2020-03-07T15:02:53.000Z</Time>
            <Position>
              <LatitudeDegrees>40.802600383758544921875</LatitudeDegrees>
              <LongitudeDegrees>-3.76984016038477420806884765625</LongitudeDegrees>
            </Position>
            <AltitudeMeters>1078.4000244140625</AltitudeMeters>
            <DistanceMeters>47826.888335917</DistanceMeters>
          </Trackpoint>
          <Trackpoint>
            <Time>2020-03-07T15:02:54.000Z</Time>
            <Position>
              <LatitudeDegrees>40.8026267029345035552978515625</LatitudeDegrees>
              <LongitudeDegrees>-3.769863881170749664306640625</LongitudeDegrees>
            </Position>
            <AltitudeMeters>1078.5999755859375</AltitudeMeters>
            <DistanceMeters>47830.433736657</DistanceMeters>
          </Trackpoint>
          <Trackpoint>
            <Time>2020-03-07T15:02:55.000Z</Time>
            <Position>
              <LatitudeDegrees>40.8026540279388427734375</LatitudeDegrees>
              <LongitudeDegrees>-3.76988525502383708953857421875</LongitudeDegrees>
            </Position>
            <AltitudeMeters>1078.5999755859375</AltitudeMeters>
            <DistanceMeters>47833.967657387</DistanceMeters>
          </Trackpoint>
          <Trackpoint>
            <Time>2020-03-07T15:02:56.000Z</Time>
            <Position>
              <LatitudeDegrees>40.802681855857372283935546875</LatitudeDegrees>
              <LongitudeDegrees>-3.769904784858226776123046875</LongitudeDegrees>
            </Position>
            <AltitudeMeters>1078.800048828125</AltitudeMeters>
            <DistanceMeters>47837.474645285</DistanceMeters>
          </Trackpoint>
          <Trackpoint>
            <Time>2020-03-07T15:02:57.000Z</Time>
            <Position>
              <LatitudeDegrees>40.802710689604282379150390625</LatitudeDegrees>
              <LongitudeDegrees>-3.76992364414036273956298828125</LongitudeDegrees>
            </Position>
            <AltitudeMeters>1078.800048828125</AltitudeMeters>
            <DistanceMeters>47841.055526259</DistanceMeters>
          </Trackpoint>
          <Trackpoint>
            <Time>2020-03-07T15:02:58.000Z</Time>
            <Position>
              <LatitudeDegrees>40.80273943953216075897216796875</LatitudeDegrees>
              <LongitudeDegrees>-3.76994392834603786468505859375</LongitudeDegrees>
            </Position>
            <AltitudeMeters>1079</AltitudeMeters>
            <DistanceMeters>47844.684004101</DistanceMeters>
          </Trackpoint>
          <Trackpoint>
            <Time>2020-03-07T15:02:59.000Z</Time>
            <Position>
              <LatitudeDegrees>40.80276726745069026947021484375</LatitudeDegrees>
              <LongitudeDegrees>-3.769965805113315582275390625</LongitudeDegrees>
            </Position>
            <AltitudeMeters>1079.199951171875</AltitudeMeters>
            <DistanceMeters>47848.288762069</DistanceMeters>
          </Trackpoint>
          <Trackpoint>
            <Time>2020-03-07T15:03:00.000Z</Time>
            <Position>
              <LatitudeDegrees>40.80279417335987091064453125</LatitudeDegrees>
              <LongitudeDegrees>-3.7699882686138153076171875</LongitudeDegrees>
            </Position>
            <AltitudeMeters>1079.5999755859375</AltitudeMeters>
            <DistanceMeters>47851.83161491</DistanceMeters>
          </Trackpoint>
          <Trackpoint>
            <Time>2020-03-07T15:03:01.000Z</Time>
            <Position>
              <LatitudeDegrees>40.80282107926905155181884765625</LatitudeDegrees>
              <LongitudeDegrees>-3.7700092233717441558837890625</LongitudeDegrees>
            </Position>
            <AltitudeMeters>1080</AltitudeMeters>
            <DistanceMeters>47855.307566907</DistanceMeters>
          </Trackpoint>
          <Trackpoint>
            <Time>2020-03-07T15:03:02.000Z</Time>
            <Position>
              <LatitudeDegrees>40.8028493262827396392822265625</LatitudeDegrees>
              <LongitudeDegrees>-3.770027495920658111572265625</LongitudeDegrees>
            </Position>
            <AltitudeMeters>1080</AltitudeMeters>
            <DistanceMeters>47858.806821636</DistanceMeters>
          </Trackpoint>
          <Trackpoint>
            <Time>2020-03-07T15:03:03.000Z</Time>
            <Position>
              <LatitudeDegrees>40.8028779923915863037109375</LatitudeDegrees>
              <LongitudeDegrees>-3.7700454331934452056884765625</LongitudeDegrees>
            </Position>
            <AltitudeMeters>1080.199951171875</AltitudeMeters>
            <DistanceMeters>47862.336907398</DistanceMeters>
          </Trackpoint>
          <Trackpoint>
            <Time>2020-03-07T15:03:04.000Z</Time>
            <Position>
              <LatitudeDegrees>40.80290724523365497589111328125</LatitudeDegrees>
              <LongitudeDegrees>-3.7700638733804225921630859375</LongitudeDegrees>
            </Position>
            <AltitudeMeters>1080.4000244140625</AltitudeMeters>
            <DistanceMeters>47865.94291767</DistanceMeters>
          </Trackpoint>
          <Trackpoint>
            <Time>2020-03-07T15:03:05.000Z</Time>
            <Position>
              <LatitudeDegrees>40.80293674953281879425048828125</LatitudeDegrees>
              <LongitudeDegrees>-3.77008273266255855560302734375</LongitudeDegrees>
            </Position>
            <AltitudeMeters>1081</AltitudeMeters>
            <DistanceMeters>47869.590012761</DistanceMeters>
          </Trackpoint>
          <Trackpoint>
            <Time>2020-03-07T15:03:06.000Z</Time>
            <Position>
              <LatitudeDegrees>40.80296658910810947418212890625</LatitudeDegrees>
              <LongitudeDegrees>-3.7701009213924407958984375</LongitudeDegrees>
            </Position>
            <AltitudeMeters>1081.5999755859375</AltitudeMeters>
            <DistanceMeters>47873.245763455</DistanceMeters>
          </Trackpoint>
          <Trackpoint>
            <Time>2020-03-07T15:03:07.000Z</Time>
            <Position>
              <LatitudeDegrees>40.802997015416622161865234375</LatitudeDegrees>
              <LongitudeDegrees>-3.7701175175607204437255859375</LongitudeDegrees>
            </Position>
            <AltitudeMeters>1081.800048828125</AltitudeMeters>
            <DistanceMeters>47876.908916959</DistanceMeters>
          </Trackpoint>
          <Trackpoint>
            <Time>2020-03-07T15:03:08.000Z</Time>
            <Position>
              <LatitudeDegrees>40.80302744172513484954833984375</LatitudeDegrees>
              <LongitudeDegrees>-3.770131766796112060546875</LongitudeDegrees>
            </Position>
            <AltitudeMeters>1082</AltitudeMeters>
            <DistanceMeters>47880.502384549</DistanceMeters>
          </Trackpoint>
          <Trackpoint>
            <Time>2020-03-07T15:03:09.000Z</Time>
            <Position>
              <LatitudeDegrees>40.8030582033097743988037109375</LatitudeDegrees>
              <LongitudeDegrees>-3.77014626748859882354736328125</LongitudeDegrees>
            </Position>
            <AltitudeMeters>1082.199951171875</AltitudeMeters>
            <DistanceMeters>47884.137078736</DistanceMeters>
          </Trackpoint>
          <Trackpoint>
            <Time>2020-03-07T15:03:10.000Z</Time>
            <Position>
              <LatitudeDegrees>40.80308653414249420166015625</LatitudeDegrees>
              <LongitudeDegrees>-3.770162276923656463623046875</LongitudeDegrees>
            </Position>
            <AltitudeMeters>1082.4000244140625</AltitudeMeters>
            <DistanceMeters>47887.568582733</DistanceMeters>
          </Trackpoint>
          <Trackpoint>
            <Time>2020-03-07T15:03:11.000Z</Time>
            <Position>
              <LatitudeDegrees>40.80311427824199199676513671875</LatitudeDegrees>
              <LongitudeDegrees>-3.77017677761614322662353515625</LongitudeDegrees>
            </Position>
            <AltitudeMeters>1082.5999755859375</AltitudeMeters>
            <DistanceMeters>47890.887723174</DistanceMeters>
          </Trackpoint>
          <Trackpoint>
            <Time>2020-03-07T15:03:12.000Z</Time>
            <Position>
              <LatitudeDegrees>40.8031416870653629302978515625</LatitudeDegrees>
              <LongitudeDegrees>-3.77019152976572513580322265625</LongitudeDegrees>
            </Position>
            <AltitudeMeters>1082.800048828125</AltitudeMeters>
            <DistanceMeters>47894.182287164</DistanceMeters>
          </Trackpoint>
          <Trackpoint>
            <Time>2020-03-07T15:03:13.000Z</Time>
            <Position>
              <LatitudeDegrees>40.8031685091555118560791015625</LatitudeDegrees>
              <LongitudeDegrees>-3.770207203924655914306640625</LongitudeDegrees>
            </Position>
            <AltitudeMeters>1083</AltitudeMeters>
            <DistanceMeters>47897.446562</DistanceMeters>
          </Trackpoint>
          <Trackpoint>
            <Time>2020-03-07T15:03:14.000Z</Time>
            <Position>
              <LatitudeDegrees>40.803194828331470489501953125</LatitudeDegrees>
              <LongitudeDegrees>-3.77022036351263523101806640625</LongitudeDegrees>
            </Position>
            <AltitudeMeters>1083.199951171875</AltitudeMeters>
            <DistanceMeters>47900.578121199</DistanceMeters>
          </Trackpoint>
          <Trackpoint>
            <Time>2020-03-07T15:03:15.000Z</Time>
            <Position>
              <LatitudeDegrees>40.8032228238880634307861328125</LatitudeDegrees>
              <LongitudeDegrees>-3.77023410983383655548095703125</LongitudeDegrees>
            </Position>
            <AltitudeMeters>1083.4000244140625</AltitudeMeters>
            <DistanceMeters>47903.9026984</DistanceMeters>
          </Trackpoint>
          <Trackpoint>
            <Time>2020-03-07T15:03:16.000Z</Time>
            <Position>
              <LatitudeDegrees>40.8032509870827198028564453125</LatitudeDegrees>
              <LongitudeDegrees>-3.77024685032665729522705078125</LongitudeDegrees>
            </Position>
            <AltitudeMeters>1083.5999755859375</AltitudeMeters>
            <DistanceMeters>47907.216393159</DistanceMeters>
          </Trackpoint>
          <Trackpoint>
            <Time>2020-03-07T15:03:17.000Z</Time>
            <Position>
              <LatitudeDegrees>40.80328040756285190582275390625</LatitudeDegrees>
              <LongitudeDegrees>-3.77025925554335117340087890625</LongitudeDegrees>
            </Position>
            <AltitudeMeters>1084</AltitudeMeters>
            <DistanceMeters>47910.653156169</DistanceMeters>
          </Trackpoint>
          <Trackpoint>
            <Time>2020-03-07T15:03:18.000Z</Time>
            <Position>
              <LatitudeDegrees>40.80331024713814258575439453125</LatitudeDegrees>
              <LongitudeDegrees>-3.77027316950261592864990234375</LongitudeDegrees>
            </Position>
            <AltitudeMeters>1083.800048828125</AltitudeMeters>
            <DistanceMeters>47914.174277434</DistanceMeters>
          </Trackpoint>
          <Trackpoint>
            <Time>2020-03-07T15:03:19.000Z</Time>
            <Position>
              <LatitudeDegrees>40.80334025435149669647216796875</LatitudeDegrees>
              <LongitudeDegrees>-3.77028557471930980682373046875</LongitudeDegrees>
            </Position>
            <AltitudeMeters>1084.199951171875</AltitudeMeters>
            <DistanceMeters>47917.673532163</DistanceMeters>
          </Trackpoint>
          <Trackpoint>
            <Time>2020-03-07T15:03:20.000Z</Time>
            <Position>
              <LatitudeDegrees>40.803371854126453399658203125</LatitudeDegrees>
              <LongitudeDegrees>-3.7702967226505279541015625</LongitudeDegrees>
            </Position>
            <AltitudeMeters>1084.4000244140625</AltitudeMeters>
            <DistanceMeters>47921.311951059</DistanceMeters>
          </Trackpoint>
          <Trackpoint>
            <Time>2020-03-07T15:03:21.000Z</Time>
            <Position>
              <LatitudeDegrees>40.8034045435488224029541015625</LatitudeDegrees>
              <LongitudeDegrees>-3.770308792591094970703125</LongitudeDegrees>
            </Position>
            <AltitudeMeters>1084.4000244140625</AltitudeMeters>
            <DistanceMeters>47925.089188248</DistanceMeters>
          </Trackpoint>
          <Trackpoint>
            <Time>2020-03-07T15:03:22.000Z</Time>
            <Position>
              <LatitudeDegrees>40.803438238799571990966796875</LatitudeDegrees>
              <LongitudeDegrees>-3.7703223712742328643798828125</LongitudeDegrees>
            </Position>
            <AltitudeMeters>1084.5999755859375</AltitudeMeters>
            <DistanceMeters>47929.009544113</DistanceMeters>
          </Trackpoint>
          <Trackpoint>
            <Time>2020-03-07T15:03:23.000Z</Time>
            <Position>
              <LatitudeDegrees>40.80347235314548015594482421875</LatitudeDegrees>
              <LongitudeDegrees>-3.77033703960478305816650390625</LongitudeDegrees>
            </Position>
            <AltitudeMeters>1085</AltitudeMeters>
            <DistanceMeters>47933.002928016</DistanceMeters>
          </Trackpoint>
          <Trackpoint>
            <Time>2020-03-07T15:03:24.000Z</Time>
            <Position>
              <LatitudeDegrees>40.803507305681705474853515625</LatitudeDegrees>
              <LongitudeDegrees>-3.77035246230661869049072265625</LongitudeDegrees>
            </Position>
            <AltitudeMeters>1085</AltitudeMeters>
            <DistanceMeters>47937.103416077</DistanceMeters>
          </Trackpoint>
          <Trackpoint>
            <Time>2020-03-07T15:03:25.000Z</Time>
            <Position>
              <LatitudeDegrees>40.80354326404631137847900390625</LatitudeDegrees>
              <LongitudeDegrees>-3.77036704681813716888427734375</LongitudeDegrees>
            </Position>
            <AltitudeMeters>1085.199951171875</AltitudeMeters>
            <DistanceMeters>47941.288908677</DistanceMeters>
          </Trackpoint>
          <Trackpoint>
            <Time>2020-03-07T15:03:26.000Z</Time>
            <Position>
              <LatitudeDegrees>40.803579725325107574462890625</LatitudeDegrees>
              <LongitudeDegrees>-3.77037945203483104705810546875</LongitudeDegrees>
            </Position>
            <AltitudeMeters>1085.199951171875</AltitudeMeters>
            <DistanceMeters>47945.478713996</DistanceMeters>
          </Trackpoint>
          <Trackpoint>
            <Time>2020-03-07T15:03:27.000Z</Time>
            <Position>
              <LatitudeDegrees>40.80361367203295230865478515625</LatitudeDegrees>
              <LongitudeDegrees>-3.77038883976638317108154296875</LongitudeDegrees>
            </Position>
            <AltitudeMeters>1085.199951171875</AltitudeMeters>
            <DistanceMeters>47949.337547505</DistanceMeters>
          </Trackpoint>
          <Trackpoint>
            <Time>2020-03-07T15:03:28.000Z</Time>
            <Position>
              <LatitudeDegrees>40.8036504685878753662109375</LatitudeDegrees>
              <LongitudeDegrees>-3.770402334630489349365234375</LongitudeDegrees>
            </Position>
            <AltitudeMeters>1085.199951171875</AltitudeMeters>
            <DistanceMeters>47953.587271365</DistanceMeters>
          </Trackpoint>
          <Trackpoint>
            <Time>2020-03-07T15:03:29.000Z</Time>
            <Position>
              <LatitudeDegrees>40.80368793569505214691162109375</LatitudeDegrees>
              <LongitudeDegrees>-3.77041499130427837371826171875</LongitudeDegrees>
            </Position>
            <AltitudeMeters>1085.199951171875</AltitudeMeters>
            <DistanceMeters>47957.891887128</DistanceMeters>
          </Trackpoint>
          <Trackpoint>
            <Time>2020-03-07T15:03:30.000Z</Time>
            <Position>
              <LatitudeDegrees>40.80372833646833896636962890625</LatitudeDegrees>
              <LongitudeDegrees>-3.7704316712915897369384765625</LongitudeDegrees>
            </Position>
            <AltitudeMeters>1085.4000244140625</AltitudeMeters>
            <DistanceMeters>47962.603142576</DistanceMeters>
          </Trackpoint>
          <Trackpoint>
            <Time>2020-03-07T15:03:31.000Z</Time>
            <Position>
              <LatitudeDegrees>40.80376655794680118560791015625</LatitudeDegrees>
              <LongitudeDegrees>-3.770445920526981353759765625</LongitudeDegrees>
            </Position>
            <AltitudeMeters>1085.4000244140625</AltitudeMeters>
            <DistanceMeters>47967.02367257</DistanceMeters>
          </Trackpoint>
          <Trackpoint>
            <Time>2020-03-07T15:03:32.000Z</Time>
            <Position>
              <LatitudeDegrees>40.80380444414913654327392578125</LatitudeDegrees>
              <LongitudeDegrees>-3.77046025358140468597412109375</LongitudeDegrees>
            </Position>
            <AltitudeMeters>1085.4000244140625</AltitudeMeters>
            <DistanceMeters>47971.410367556</DistanceMeters>
          </Trackpoint>
          <Trackpoint>
            <Time>2020-03-07T15:03:33.000Z</Time>
            <Position>
              <LatitudeDegrees>40.80384149216115474700927734375</LatitudeDegrees>
              <LongitudeDegrees>-3.770476765930652618408203125</LongitudeDegrees>
            </Position>
            <AltitudeMeters>1085.5999755859375</AltitudeMeters>
            <DistanceMeters>47975.761927082</DistanceMeters>
          </Trackpoint>
          <Trackpoint>
            <Time>2020-03-07T15:03:34.000Z</Time>
            <Position>
              <LatitudeDegrees>40.8038784563541412353515625</LatitudeDegrees>
              <LongitudeDegrees>-3.77049327827990055084228515625</LongitudeDegrees>
            </Position>
            <AltitudeMeters>1085.5999755859375</AltitudeMeters>
            <DistanceMeters>47980.104138455</DistanceMeters>
          </Trackpoint>
          <Trackpoint>
            <Time>2020-03-07T15:03:35.000Z</Time>
            <Position>
              <LatitudeDegrees>40.80391642637550830841064453125</LatitudeDegrees>
              <LongitudeDegrees>-3.770507611334323883056640625</LongitudeDegrees>
            </Position>
            <AltitudeMeters>1085.800048828125</AltitudeMeters>
            <DistanceMeters>47984.500086998</DistanceMeters>
          </Trackpoint>
          <Trackpoint>
            <Time>2020-03-07T15:03:36.000Z</Time>
            <Position>
              <LatitudeDegrees>40.8039550669491291046142578125</LatitudeDegrees>
              <LongitudeDegrees>-3.7705211900174617767333984375</LongitudeDegrees>
            </Position>
            <AltitudeMeters>1085.800048828125</AltitudeMeters>
            <DistanceMeters>47988.950138418</DistanceMeters>
          </Trackpoint>
          <Trackpoint>
            <Time>2020-03-07T15:03:37.000Z</Time>
            <Position>
              <LatitudeDegrees>40.80399286933243274688720703125</LatitudeDegrees>
              <LongitudeDegrees>-3.77053418196737766265869140625</LongitudeDegrees>
            </Position>
            <AltitudeMeters>1085.800048828125</AltitudeMeters>
            <DistanceMeters>47993.298584126</DistanceMeters>
          </Trackpoint>
          <Trackpoint>
            <Time>2020-03-07T15:03:38.000Z</Time>
            <Position>
              <LatitudeDegrees>40.80403125844895839691162109375</LatitudeDegrees>
              <LongitudeDegrees>-3.770547173917293548583984375</LongitudeDegrees>
            </Position>
            <AltitudeMeters>1086</AltitudeMeters>
            <DistanceMeters>47997.709912127</DistanceMeters>
          </Trackpoint>
          <Trackpoint>
            <Time>2020-03-07T15:03:39.000Z</Time>
            <Position>
              <LatitudeDegrees>40.80406998284161090850830078125</LatitudeDegrees>
              <LongitudeDegrees>-3.770561255514621734619140625</LongitudeDegrees>
            </Position>
            <AltitudeMeters>1086</AltitudeMeters>
            <DistanceMeters>48002.181219458</DistanceMeters>
          </Trackpoint>
          <Trackpoint>
            <Time>2020-03-07T15:03:40.000Z</Time>
            <Position>
              <LatitudeDegrees>40.804107449948787689208984375</LatitudeDegrees>
              <LongitudeDegrees>-3.7705765105783939361572265625</LongitudeDegrees>
            </Position>
            <AltitudeMeters>1086.199951171875</AltitudeMeters>
            <DistanceMeters>48006.544177302</DistanceMeters>
          </Trackpoint>
          <Trackpoint>
            <Time>2020-03-07T15:03:41.000Z</Time>
            <Position>
              <LatitudeDegrees>40.804143659770488739013671875</LatitudeDegrees>
              <LongitudeDegrees>-3.7705922685563564300537109375</LongitudeDegrees>
            </Position>
            <AltitudeMeters>1086.4000244140625</AltitudeMeters>
            <DistanceMeters>48010.787521788</DistanceMeters>
          </Trackpoint>
          <Trackpoint>
            <Time>2020-03-07T15:03:42.000Z</Time>
            <Position>
              <LatitudeDegrees>40.80417928285896778106689453125</LatitudeDegrees>
              <LongitudeDegrees>-3.7706076912581920623779296875</LongitudeDegrees>
            </Position>
            <AltitudeMeters>1086.4000244140625</AltitudeMeters>
            <DistanceMeters>48014.960049485</DistanceMeters>
          </Trackpoint>
          <Trackpoint>
            <Time>2020-03-07T15:03:43.000Z</Time>
            <Position>
              <LatitudeDegrees>40.8042152412235736846923828125</LatitudeDegrees>
              <LongitudeDegrees>-3.77062219195067882537841796875</LongitudeDegrees>
            </Position>
            <AltitudeMeters>1086.4000244140625</AltitudeMeters>
            <DistanceMeters>48019.144463211</DistanceMeters>
          </Trackpoint>
          <Trackpoint>
            <Time>2020-03-07T15:03:44.000Z</Time>
            <Position>
              <LatitudeDegrees>40.80425329506397247314453125</LatitudeDegrees>
              <LongitudeDegrees>-3.77063744701445102691650390625</LongitudeDegrees>
            </Position>
            <AltitudeMeters>1086.5999755859375</AltitudeMeters>
            <DistanceMeters>48023.571117239</DistanceMeters>
          </Trackpoint>
          <Trackpoint>
            <Time>2020-03-07T15:03:45.000Z</Time>
            <Position>
              <LatitudeDegrees>40.8042910136282444000244140625</LatitudeDegrees>
              <LongitudeDegrees>-3.77064901404082775115966796875</LongitudeDegrees>
            </Position>
            <AltitudeMeters>1086.5999755859375</AltitudeMeters>
            <DistanceMeters>48027.880974225</DistanceMeters>
          </Trackpoint>
          <Trackpoint>
            <Time>2020-03-07T15:03:46.000Z</Time>
            <Position>
              <LatitudeDegrees>40.80432747490704059600830078125</LatitudeDegrees>
              <LongitudeDegrees>-3.7706596590578556060791015625</LongitudeDegrees>
            </Position>
            <AltitudeMeters>1086.800048828125</AltitudeMeters>
            <DistanceMeters>48032.037238923</DistanceMeters>
          </Trackpoint>
          <Trackpoint>
            <Time>2020-03-07T15:03:47.000Z</Time>
            <Position>
              <LatitudeDegrees>40.8043634332716464996337890625</LatitudeDegrees>
              <LongitudeDegrees>-3.770670555531978607177734375</LongitudeDegrees>
            </Position>
            <AltitudeMeters>1087</AltitudeMeters>
            <DistanceMeters>48036.143228782</DistanceMeters>
          </Trackpoint>
          <Trackpoint>
            <Time>2020-03-07T15:03:48.000Z</Time>
            <Position>
              <LatitudeDegrees>40.804400146007537841796875</LatitudeDegrees>
              <LongitudeDegrees>-3.7706814520061016082763671875</LongitudeDegrees>
            </Position>
            <AltitudeMeters>1087.199951171875</AltitudeMeters>
            <DistanceMeters>48040.330878296</DistanceMeters>
          </Trackpoint>
          <Trackpoint>
            <Time>2020-03-07T15:03:49.000Z</Time>
            <Position>
              <LatitudeDegrees>40.804437696933746337890625</LatitudeDegrees>
              <LongitudeDegrees>-3.77069310285151004791259765625</LongitudeDegrees>
            </Position>
            <AltitudeMeters>1087.4000244140625</AltitudeMeters>
            <DistanceMeters>48044.624992419</DistanceMeters>
          </Trackpoint>
          <Trackpoint>
            <Time>2020-03-07T15:03:50.000Z</Time>
            <Position>
              <LatitudeDegrees>40.8044740743935108184814453125</LatitudeDegrees>
              <LongitudeDegrees>-3.770705424249172210693359375</LongitudeDegrees>
            </Position>
            <AltitudeMeters>1087.4000244140625</AltitudeMeters>
            <DistanceMeters>48048.804007595</DistanceMeters>
          </Trackpoint>
          <Trackpoint>
            <Time>2020-03-07T15:03:51.000Z</Time>
            <Position>
              <LatitudeDegrees>40.80451053567230701446533203125</LatitudeDegrees>
              <LongitudeDegrees>-3.770717494189739227294921875</LongitudeDegrees>
            </Position>
            <AltitudeMeters>1087.5999755859375</AltitudeMeters>
            <DistanceMeters>48052.987342168</DistanceMeters>
          </Trackpoint>
          <Trackpoint>
            <Time>2020-03-07T15:03:52.000Z</Time>
            <Position>
              <LatitudeDegrees>40.80454691313207149505615234375</LatitudeDegrees>
              <LongitudeDegrees>-3.77073065377771854400634765625</LongitudeDegrees>
            </Position>
            <AltitudeMeters>1087.800048828125</AltitudeMeters>
            <DistanceMeters>48057.184684082</DistanceMeters>
          </Trackpoint>
          <Trackpoint>
            <Time>2020-03-07T15:03:53.000Z</Time>
            <Position>
              <LatitudeDegrees>40.80458262003958225250244140625</LatitudeDegrees>
              <LongitudeDegrees>-3.77074406482279300689697265625</LongitudeDegrees>
            </Position>
            <AltitudeMeters>1088</AltitudeMeters>
            <DistanceMeters>48061.318073082</DistanceMeters>
          </Trackpoint>
          <Trackpoint>
            <Time>2020-03-07T15:03:54.000Z</Time>
            <Position>
              <LatitudeDegrees>40.804618410766124725341796875</LatitudeDegrees>
              <LongitudeDegrees>-3.77075781114399433135986328125</LongitudeDegrees>
            </Position>
            <AltitudeMeters>1088.199951171875</AltitudeMeters>
            <DistanceMeters>48065.466726563</DistanceMeters>
          </Trackpoint>
          <Trackpoint>
            <Time>2020-03-07T15:03:55.000Z</Time>
            <Position>
              <LatitudeDegrees>40.80465252511203289031982421875</LatitudeDegrees>
              <LongitudeDegrees>-3.7707703001797199249267578125</LongitudeDegrees>
            </Position>
            <AltitudeMeters>1088.4000244140625</AltitudeMeters>
            <DistanceMeters>48069.407758342</DistanceMeters>
          </Trackpoint>
          <Trackpoint>
            <Time>2020-03-07T15:03:56.000Z</Time>
            <Position>
              <LatitudeDegrees>40.80468554981052875518798828125</LatitudeDegrees>
              <LongitudeDegrees>-3.77078027464449405670166015625</LongitudeDegrees>
            </Position>
            <AltitudeMeters>1088.5999755859375</AltitudeMeters>
            <DistanceMeters>48073.17781674</DistanceMeters>
          </Trackpoint>
          <Trackpoint>
            <Time>2020-03-07T15:03:57.000Z</Time>
            <Position>
              <LatitudeDegrees>40.8047179877758026123046875</LatitudeDegrees>
              <LongitudeDegrees>-3.7707850523293018341064453125</LongitudeDegrees>
            </Position>
            <AltitudeMeters>1088.5999755859375</AltitudeMeters>
            <DistanceMeters>48076.811268509</DistanceMeters>
          </Trackpoint>
          <Trackpoint>
            <Time>2020-03-07T15:03:58.000Z</Time>
            <Position>
              <LatitudeDegrees>40.8047500066459178924560546875</LatitudeDegrees>
              <LongitudeDegrees>-3.77078630961477756500244140625</LongitudeDegrees>
            </Position>
            <AltitudeMeters>1088.800048828125</AltitudeMeters>
            <DistanceMeters>48080.376986899</DistanceMeters>
          </Trackpoint>
          <Trackpoint>
            <Time>2020-03-07T15:03:59.000Z</Time>
            <Position>
              <LatitudeDegrees>40.8047796785831451416015625</LatitudeDegrees>
              <LongitudeDegrees>-3.77078823745250701904296875</LongitudeDegrees>
            </Position>
            <AltitudeMeters>1088.800048828125</AltitudeMeters>
            <DistanceMeters>48083.682496315</DistanceMeters>
          </Trackpoint>
          <Trackpoint>
            <Time>2020-03-07T15:04:00.000Z</Time>
            <Position>
              <LatitudeDegrees>40.80480893142521381378173828125</LatitudeDegrees>
              <LongitudeDegrees>-3.77079200930893421173095703125</LongitudeDegrees>
            </Position>
            <AltitudeMeters>1089</AltitudeMeters>
            <DistanceMeters>48086.952299139</DistanceMeters>
          </Trackpoint>
          <Trackpoint>
            <Time>2020-03-07T15:04:01.000Z</Time>
            <Position>
              <LatitudeDegrees>40.804841034114360809326171875</LatitudeDegrees>
              <LongitudeDegrees>-3.77079335041344165802001953125</LongitudeDegrees>
            </Position>
            <AltitudeMeters>1089.199951171875</AltitudeMeters>
            <DistanceMeters>48090.526870186</DistanceMeters>
          </Trackpoint>
          <Trackpoint>
            <Time>2020-03-07T15:04:02.000Z</Time>
            <Position>
              <LatitudeDegrees>40.8048735558986663818359375</LatitudeDegrees>
              <LongitudeDegrees>-3.77079167403280735015869140625</LongitudeDegrees>
            </Position>
            <AltitudeMeters>1089.4000244140625</AltitudeMeters>
            <DistanceMeters>48094.150367274</DistanceMeters>
          </Trackpoint>
          <Trackpoint>
            <Time>2020-03-07T15:04:03.000Z</Time>
            <Position>
              <LatitudeDegrees>40.8049057424068450927734375</LatitudeDegrees>
              <LongitudeDegrees>-3.770787902176380157470703125</LongitudeDegrees>
            </Position>
            <AltitudeMeters>1090</AltitudeMeters>
            <DistanceMeters>48097.74760226</DistanceMeters>
          </Trackpoint>
          <Trackpoint>
            <Time>2020-03-07T15:04:04.000Z</Time>
            <Position>
              <LatitudeDegrees>40.80493390560150146484375</LatitudeDegrees>
              <LongitudeDegrees>-3.770783208310604095458984375</LongitudeDegrees>
            </Position>
            <AltitudeMeters>1090.199951171875</AltitudeMeters>
            <DistanceMeters>48100.907865627</DistanceMeters>
          </Trackpoint>
          <Trackpoint>
            <Time>2020-03-07T15:04:05.000Z</Time>
            <Position>
              <LatitudeDegrees>40.80496131442487239837646484375</LatitudeDegrees>
              <LongitudeDegrees>-3.77077859826385974884033203125</LongitudeDegrees>
            </Position>
            <AltitudeMeters>1090.4000244140625</AltitudeMeters>
            <DistanceMeters>48103.984149117</DistanceMeters>
          </Trackpoint>
          <Trackpoint>
            <Time>2020-03-07T15:04:06.000Z</Time>
            <Position>
              <LatitudeDegrees>40.8049907349050045013427734375</LatitudeDegrees>
              <LongitudeDegrees>-3.77077281475067138671875</LongitudeDegrees>
            </Position>
            <AltitudeMeters>1090.5999755859375</AltitudeMeters>
            <DistanceMeters>48107.295117677</DistanceMeters>
          </Trackpoint>
          <Trackpoint>
            <Time>2020-03-07T15:04:07.000Z</Time>
            <Position>
              <LatitudeDegrees>40.80502283759415149688720703125</LatitudeDegrees>
              <LongitudeDegrees>-3.77076669596135616302490234375</LongitudeDegrees>
            </Position>
            <AltitudeMeters>1090.800048828125</AltitudeMeters>
            <DistanceMeters>48110.904882255</DistanceMeters>
          </Trackpoint>
          <Trackpoint>
            <Time>2020-03-07T15:04:08.000Z</Time>
            <Position>
              <LatitudeDegrees>40.80505661666393280029296875</LatitudeDegrees>
              <LongitudeDegrees>-3.77076141536235809326171875</LongitudeDegrees>
            </Position>
            <AltitudeMeters>1091</AltitudeMeters>
            <DistanceMeters>48114.690477494</DistanceMeters>
          </Trackpoint>
          <Trackpoint>
            <Time>2020-03-07T15:04:09.000Z</Time>
            <Position>
              <LatitudeDegrees>40.80509014427661895751953125</LatitudeDegrees>
              <LongitudeDegrees>-3.77075605094432830810546875</LongitudeDegrees>
            </Position>
            <AltitudeMeters>1091.4000244140625</AltitudeMeters>
            <DistanceMeters>48118.448540766</DistanceMeters>
          </Trackpoint>
          <Trackpoint>
            <Time>2020-03-07T15:04:10.000Z</Time>
            <Position>
              <LatitudeDegrees>40.8051194809377193450927734375</LatitudeDegrees>
              <LongitudeDegrees>-3.7707511894404888153076171875</LongitudeDegrees>
            </Position>
            <AltitudeMeters>1091.5999755859375</AltitudeMeters>
            <DistanceMeters>48121.740362714</DistanceMeters>
          </Trackpoint>
          <Trackpoint>
            <Time>2020-03-07T15:04:11.000Z</Time>
            <Position>
              <LatitudeDegrees>40.805152840912342071533203125</LatitudeDegrees>
              <LongitudeDegrees>-3.7707461602985858917236328125</LongitudeDegrees>
            </Position>
            <AltitudeMeters>1091.800048828125</AltitudeMeters>
            <DistanceMeters>48125.479153739</DistanceMeters>
          </Trackpoint>
          <Trackpoint>
            <Time>2020-03-07T15:04:12.000Z</Time>
            <Position>
              <LatitudeDegrees>40.80518661998212337493896484375</LatitudeDegrees>
              <LongitudeDegrees>-3.77073903568089008331298828125</LongitudeDegrees>
            </Position>
            <AltitudeMeters>1092</AltitudeMeters>
            <DistanceMeters>48129.287342649</DistanceMeters>
          </Trackpoint>
          <Trackpoint>
            <Time>2020-03-07T15:04:13.000Z</Time>
            <Position>
              <LatitudeDegrees>40.8052200637757778167724609375</LatitudeDegrees>
              <LongitudeDegrees>-3.77073434181511402130126953125</LongitudeDegrees>
            </Position>
            <AltitudeMeters>1092.4000244140625</AltitudeMeters>
            <DistanceMeters>48133.030961038</DistanceMeters>
          </Trackpoint>
          <Trackpoint>
            <Time>2020-03-07T15:04:14.000Z</Time>
            <Position>
              <LatitudeDegrees>40.8052535913884639739990234375</LatitudeDegrees>
              <LongitudeDegrees>-3.77073434181511402130126953125</LongitudeDegrees>
            </Position>
            <AltitudeMeters>1092.5999755859375</AltitudeMeters>
            <DistanceMeters>48136.761289147</DistanceMeters>
          </Trackpoint>
          <Trackpoint>
            <Time>2020-03-07T15:04:15.000Z</Time>
            <Position>
              <LatitudeDegrees>40.80528703518211841583251953125</LatitudeDegrees>
              <LongitudeDegrees>-3.77073593437671661376953125</LongitudeDegrees>
            </Position>
            <AltitudeMeters>1092.800048828125</AltitudeMeters>
            <DistanceMeters>48140.485560541</DistanceMeters>
          </Trackpoint>
          <Trackpoint>
            <Time>2020-03-07T15:04:16.000Z</Time>
            <Position>
              <LatitudeDegrees>40.80531955696642398834228515625</LatitudeDegrees>
              <LongitudeDegrees>-3.77073635347187519073486328125</LongitudeDegrees>
            </Position>
            <AltitudeMeters>1093</AltitudeMeters>
            <DistanceMeters>48144.104070019</DistanceMeters>
          </Trackpoint>
          <Trackpoint>
            <Time>2020-03-07T15:04:17.000Z</Time>
            <Position>
              <LatitudeDegrees>40.80535191111266613006591796875</LatitudeDegrees>
              <LongitudeDegrees>-3.770735263824462890625</LongitudeDegrees>
            </Position>
            <AltitudeMeters>1093.4000244140625</AltitudeMeters>
            <DistanceMeters>48147.707575247</DistanceMeters>
          </Trackpoint>
          <Trackpoint>
            <Time>2020-03-07T15:04:18.000Z</Time>
            <Position>
              <LatitudeDegrees>40.8053880371153354644775390625</LatitudeDegrees>
              <LongitudeDegrees>-3.7707350961863994598388671875</LongitudeDegrees>
            </Position>
            <AltitudeMeters>1093.5999755859375</AltitudeMeters>
            <DistanceMeters>48151.729125559</DistanceMeters>
          </Trackpoint>
          <Trackpoint>
            <Time>2020-03-07T15:04:19.000Z</Time>
            <Position>
              <LatitudeDegrees>40.80542215146124362945556640625</LatitudeDegrees>
              <LongitudeDegrees>-3.770737946033477783203125</LongitudeDegrees>
            </Position>
            <AltitudeMeters>1094</AltitudeMeters>
            <DistanceMeters>48155.532569059</DistanceMeters>
          </Trackpoint>
          <Trackpoint>
            <Time>2020-03-07T15:04:20.000Z</Time>
            <Position>
              <LatitudeDegrees>40.80545626580715179443359375</LatitudeDegrees>
              <LongitudeDegrees>-3.77074071206152439117431640625</LongitudeDegrees>
            </Position>
            <AltitudeMeters>1094.4000244140625</AltitudeMeters>
            <DistanceMeters>48159.33601256</DistanceMeters>
          </Trackpoint>
          <Trackpoint>
            <Time>2020-03-07T15:04:21.000Z</Time>
            <Position>
              <LatitudeDegrees>40.8054906316101551055908203125</LatitudeDegrees>
              <LongitudeDegrees>-3.77074456773698329925537109375</LongitudeDegrees>
            </Position>
            <AltitudeMeters>1094.5999755859375</AltitudeMeters>
            <DistanceMeters>48163.173727333</DistanceMeters>
          </Trackpoint>
          <Trackpoint>
            <Time>2020-03-07T15:04:22.000Z</Time>
            <Position>
              <LatitudeDegrees>40.80552457831799983978271484375</LatitudeDegrees>
              <LongitudeDegrees>-3.77075077034533023834228515625</LongitudeDegrees>
            </Position>
            <AltitudeMeters>1095</AltitudeMeters>
            <DistanceMeters>48166.989023289</DistanceMeters>
          </Trackpoint>
          <Trackpoint>
            <Time>2020-03-07T15:04:23.000Z</Time>
            <Position>
              <LatitudeDegrees>40.80555927939713001251220703125</LatitudeDegrees>
              <LongitudeDegrees>-3.77075915224850177764892578125</LongitudeDegrees>
            </Position>
            <AltitudeMeters>1095.199951171875</AltitudeMeters>
            <DistanceMeters>48170.913983214</DistanceMeters>
          </Trackpoint>
          <Trackpoint>
            <Time>2020-03-07T15:04:24.000Z</Time>
            <Position>
              <LatitudeDegrees>40.80559515394270420074462890625</LatitudeDegrees>
              <LongitudeDegrees>-3.77076971344649791717529296875</LongitudeDegrees>
            </Position>
            <AltitudeMeters>1095.5999755859375</AltitudeMeters>
            <DistanceMeters>48175.004549391</DistanceMeters>
          </Trackpoint>
          <Trackpoint>
            <Time>2020-03-07T15:04:25.000Z</Time>
            <Position>
              <LatitudeDegrees>40.80562935210764408111572265625</LatitudeDegrees>
              <LongitudeDegrees>-3.7707820348441600799560546875</LongitudeDegrees>
            </Position>
            <AltitudeMeters>1095.800048828125</AltitudeMeters>
            <DistanceMeters>48178.950161104</DistanceMeters>
          </Trackpoint>
          <Trackpoint>
            <Time>2020-03-07T15:04:26.000Z</Time>
            <Position>
              <LatitudeDegrees>40.805664472281932830810546875</LatitudeDegrees>
              <LongitudeDegrees>-3.77079586498439311981201171875</LongitudeDegrees>
            </Position>
            <AltitudeMeters>1096.199951171875</AltitudeMeters>
            <DistanceMeters>48183.028567755</DistanceMeters>
          </Trackpoint>
          <Trackpoint>
            <Time>2020-03-07T15:04:27.000Z</Time>
            <Position>
              <LatitudeDegrees>40.80569741316139698028564453125</LatitudeDegrees>
              <LongitudeDegrees>-3.77081011421978473663330078125</LongitudeDegrees>
            </Position>
            <AltitudeMeters>1096.4000244140625</AltitudeMeters>
            <DistanceMeters>48186.886231035</DistanceMeters>
          </Trackpoint>
          <Trackpoint>
            <Time>2020-03-07T15:04:28.000Z</Time>
            <Position>
              <LatitudeDegrees>40.805729515850543975830078125</LatitudeDegrees>
              <LongitudeDegrees>-3.77082436345517635345458984375</LongitudeDegrees>
            </Position>
            <AltitudeMeters>1096.4000244140625</AltitudeMeters>
            <DistanceMeters>48190.656289432</DistanceMeters>
          </Trackpoint>
          <Trackpoint>
            <Time>2020-03-07T15:04:29.000Z</Time>
            <Position>
              <LatitudeDegrees>40.80576044507324695587158203125</LatitudeDegrees>
              <LongitudeDegrees>-3.77083919942378997802734375</LongitudeDegrees>
            </Position>
            <AltitudeMeters>1096.5999755859375</AltitudeMeters>
            <DistanceMeters>48194.319442937</DistanceMeters>
          </Trackpoint>
          <Trackpoint>
            <Time>2020-03-07T15:04:30.000Z</Time>
            <Position>
              <LatitudeDegrees>40.80579212866723537445068359375</LatitudeDegrees>
              <LongitudeDegrees>-3.7708573043346405029296875</LongitudeDegrees>
            </Position>
            <AltitudeMeters>1096.800048828125</AltitudeMeters>
            <DistanceMeters>48198.161860793</DistanceMeters>
          </Trackpoint>
          <Trackpoint>
            <Time>2020-03-07T15:04:31.000Z</Time>
            <Position>
              <LatitudeDegrees>40.80582381226122379302978515625</LatitudeDegrees>
              <LongitudeDegrees>-3.7708749063313007354736328125</LongitudeDegrees>
            </Position>
            <AltitudeMeters>1097.199951171875</AltitudeMeters>
            <DistanceMeters>48201.987792564</DistanceMeters>
          </Trackpoint>
          <Trackpoint>
            <Time>2020-03-07T15:04:32.000Z</Time>
            <Position>
              <LatitudeDegrees>40.80585516057908535003662109375</LatitudeDegrees>
              <LongitudeDegrees>-3.77089326269924640655517578125</LongitudeDegrees>
            </Position>
            <AltitudeMeters>1097.199951171875</AltitudeMeters>
            <DistanceMeters>48205.804271741</DistanceMeters>
          </Trackpoint>
          <Trackpoint>
            <Time>2020-03-07T15:04:33.000Z</Time>
            <Position>
              <LatitudeDegrees>40.80588634125888347625732421875</LatitudeDegrees>
              <LongitudeDegrees>-3.77091220580041408538818359375</LongitudeDegrees>
            </Position>
            <AltitudeMeters>1097.4000244140625</AltitudeMeters>
            <DistanceMeters>48209.624298381</DistanceMeters>
          </Trackpoint>
          <Trackpoint>
            <Time>2020-03-07T15:04:34.000Z</Time>
            <Position>
              <LatitudeDegrees>40.80591685138642787933349609375</LatitudeDegrees>
              <LongitudeDegrees>-3.77092913724482059478759765625</LongitudeDegrees>
            </Position>
            <AltitudeMeters>1097.4000244140625</AltitudeMeters>
            <DistanceMeters>48213.307119965</DistanceMeters>
          </Trackpoint>
          <Trackpoint>
            <Time>2020-03-07T15:04:35.000Z</Time>
            <Position>
              <LatitudeDegrees>40.80594853498041629791259765625</LatitudeDegrees>
              <LongitudeDegrees>-3.7709439732134342193603515625</LongitudeDegrees>
            </Position>
            <AltitudeMeters>1097.5999755859375</AltitudeMeters>
            <DistanceMeters>48217.048325451</DistanceMeters>
          </Trackpoint>
          <Trackpoint>
            <Time>2020-03-07T15:04:36.000Z</Time>
            <Position>
              <LatitudeDegrees>40.8059814758598804473876953125</LatitudeDegrees>
              <LongitudeDegrees>-3.77095696516335010528564453125</LongitudeDegrees>
            </Position>
            <AltitudeMeters>1097.800048828125</AltitudeMeters>
            <DistanceMeters>48220.875437155</DistanceMeters>
          </Trackpoint>
          <Trackpoint>
            <Time>2020-03-07T15:04:37.000Z</Time>
            <Position>
              <LatitudeDegrees>40.80601424910128116607666015625</LatitudeDegrees>
              <LongitudeDegrees>-3.77097087912261486053466796875</LongitudeDegrees>
            </Position>
            <AltitudeMeters>1098</AltitudeMeters>
            <DistanceMeters>48224.707264956</DistanceMeters>
          </Trackpoint>
          <Trackpoint>
            <Time>2020-03-07T15:04:38.000Z</Time>
            <Position>
              <LatitudeDegrees>40.80604593269526958465576171875</LatitudeDegrees>
              <LongitudeDegrees>-3.770985044538974761962890625</LongitudeDegrees>
            </Position>
            <AltitudeMeters>1098.4000244140625</AltitudeMeters>
            <DistanceMeters>48228.43153635</DistanceMeters>
          </Trackpoint>
          <Trackpoint>
            <Time>2020-03-07T15:04:39.000Z</Time>
            <Position>
              <LatitudeDegrees>40.80607451498508453369140625</LatitudeDegrees>
              <LongitudeDegrees>-3.77099476754665374755859375</LongitudeDegrees>
            </Position>
            <AltitudeMeters>1098.4000244140625</AltitudeMeters>
            <DistanceMeters>48231.716493176</DistanceMeters>
          </Trackpoint>
          <Trackpoint>
            <Time>2020-03-07T15:19:39.000Z</Time>
            <Position>
              <LatitudeDegrees>40.81019212491810321807861328125</LatitudeDegrees>
              <LongitudeDegrees>-3.77179180271923542022705078125</LongitudeDegrees>
            </Position>
            <AltitudeMeters>1103.4000244140625</AltitudeMeters>
            <DistanceMeters>48694.907376094</DistanceMeters>
          </Trackpoint>
          <Trackpoint>
            <Time>2020-03-07T15:19:40.000Z</Time>
            <Position>
              <LatitudeDegrees>40.810182653367519378662109375</LatitudeDegrees>
              <LongitudeDegrees>-3.771743439137935638427734375</LongitudeDegrees>
            </Position>
            <AltitudeMeters>1103.5999755859375</AltitudeMeters>
            <DistanceMeters>48699.116533965</DistanceMeters>
          </Trackpoint>
          <Trackpoint>
            <Time>2020-03-07T15:19:41.000Z</Time>
            <Position>
              <LatitudeDegrees>40.810170583426952362060546875</LatitudeDegrees>
              <LongitudeDegrees>-3.77169574610888957977294921875</LongitudeDegrees>
            </Position>
            <AltitudeMeters>1103.800048828125</AltitudeMeters>
            <DistanceMeters>48703.353489472</DistanceMeters>
          </Trackpoint>
          <Trackpoint>
            <Time>2020-03-07T15:19:42.000Z</Time>
            <Position>
              <LatitudeDegrees>40.81015625037252902984619140625</LatitudeDegrees>
              <LongitudeDegrees>-3.77165014855563640594482421875</LongitudeDegrees>
            </Position>
            <AltitudeMeters>1104</AltitudeMeters>
            <DistanceMeters>48707.511926245</DistanceMeters>
          </Trackpoint>
          <Trackpoint>
            <Time>2020-03-07T15:19:46.000Z</Time>
            <Position>
              <LatitudeDegrees>40.81010562367737293243408203125</LatitudeDegrees>
              <LongitudeDegrees>-3.77147094346582889556884765625</LongitudeDegrees>
            </Position>
            <AltitudeMeters>1105.4000244140625</AltitudeMeters>
            <DistanceMeters>48723.625890628</DistanceMeters>
          </Trackpoint>
          <Trackpoint>
            <Time>2020-03-07T15:19:47.000Z</Time>
            <Position>
              <LatitudeDegrees>40.81009388901293277740478515625</LatitudeDegrees>
              <LongitudeDegrees>-3.77142467536032199859619140625</LongitudeDegrees>
            </Position>
            <AltitudeMeters>1106.199951171875</AltitudeMeters>
            <DistanceMeters>48727.737374922</DistanceMeters>
          </Trackpoint>
          <Trackpoint>
            <Time>2020-03-07T15:19:48.000Z</Time>
            <Position>
              <LatitudeDegrees>40.81008031032979488372802734375</LatitudeDegrees>
              <LongitudeDegrees>-3.77137874253094196319580078125</LongitudeDegrees>
            </Position>
            <AltitudeMeters>1106.4000244140625</AltitudeMeters>
            <DistanceMeters>48731.892553157</DistanceMeters>
          </Trackpoint>
          <Trackpoint>
            <Time>2020-03-07T15:19:49.000Z</Time>
            <Position>
              <LatitudeDegrees>40.8100651390850543975830078125</LatitudeDegrees>
              <LongitudeDegrees>-3.77133314497768878936767578125</LongitudeDegrees>
            </Position>
            <AltitudeMeters>1106.800048828125</AltitudeMeters>
            <DistanceMeters>48736.088819243</DistanceMeters>
          </Trackpoint>
          <Trackpoint>
            <Time>2020-03-07T15:19:50.000Z</Time>
            <Position>
              <LatitudeDegrees>40.81004954874515533447265625</LatitudeDegrees>
              <LongitudeDegrees>-3.7712872959673404693603515625</LongitudeDegrees>
            </Position>
            <AltitudeMeters>1107</AltitudeMeters>
            <DistanceMeters>48740.323642949</DistanceMeters>
          </Trackpoint>
          <Trackpoint>
            <Time>2020-03-07T15:19:51.000Z</Time>
            <Position>
              <LatitudeDegrees>40.8100363053381443023681640625</LatitudeDegrees>
              <LongitudeDegrees>-3.77124144695699214935302734375</LongitudeDegrees>
            </Position>
            <AltitudeMeters>1107.4000244140625</AltitudeMeters>
            <DistanceMeters>48744.457031949</DistanceMeters>
          </Trackpoint>
          <Trackpoint>
            <Time>2020-03-07T15:19:52.000Z</Time>
            <Position>
              <LatitudeDegrees>40.810025744140148162841796875</LatitudeDegrees>
              <LongitudeDegrees>-3.77119593322277069091796875</LongitudeDegrees>
            </Position>
            <AltitudeMeters>1107.5999755859375</AltitudeMeters>
            <DistanceMeters>48748.468465137</DistanceMeters>
          </Trackpoint>
          <Trackpoint>
            <Time>2020-03-07T15:19:53.000Z</Time>
            <Position>
              <LatitudeDegrees>40.8100153505802154541015625</LatitudeDegrees>
              <LongitudeDegrees>-3.7711468152701854705810546875</LongitudeDegrees>
            </Position>
            <AltitudeMeters>1107.800048828125</AltitudeMeters>
            <DistanceMeters>48752.764681642</DistanceMeters>
          </Trackpoint>
          <Trackpoint>
            <Time>2020-03-07T15:19:54.000Z</Time>
            <Position>
              <LatitudeDegrees>40.8100073039531707763671875</LatitudeDegrees>
              <LongitudeDegrees>-3.77109928987920284271240234375</LongitudeDegrees>
            </Position>
            <AltitudeMeters>1108</AltitudeMeters>
            <DistanceMeters>48756.867371307</DistanceMeters>
          </Trackpoint>
          <Trackpoint>
            <Time>2020-03-07T15:19:55.000Z</Time>
            <Position>
              <LatitudeDegrees>40.80999967642128467559814453125</LatitudeDegrees>
              <LongitudeDegrees>-3.7710531055927276611328125</LongitudeDegrees>
            </Position>
            <AltitudeMeters>1108.4000244140625</AltitudeMeters>
            <DistanceMeters>48760.847164528</DistanceMeters>
          </Trackpoint>
          <Trackpoint>
            <Time>2020-03-07T15:19:56.000Z</Time>
            <Position>
              <LatitudeDegrees>40.809992887079715728759765625</LatitudeDegrees>
              <LongitudeDegrees>-3.771007172763347625732421875</LongitudeDegrees>
            </Position>
            <AltitudeMeters>1108.5999755859375</AltitudeMeters>
            <DistanceMeters>48764.790486939</DistanceMeters>
          </Trackpoint>
          <Trackpoint>
            <Time>2020-03-07T15:19:57.000Z</Time>
            <Position>
              <LatitudeDegrees>40.80998743884265422821044921875</LatitudeDegrees>
              <LongitudeDegrees>-3.77096300013363361358642578125</LongitudeDegrees>
            </Position>
            <AltitudeMeters>1109.199951171875</AltitudeMeters>
            <DistanceMeters>48768.562939785</DistanceMeters>
          </Trackpoint>
          <Trackpoint>
            <Time>2020-03-07T15:19:58.000Z</Time>
            <Position>
              <LatitudeDegrees>40.80998140387237071990966796875</LatitudeDegrees>
              <LongitudeDegrees>-3.7709208391606807708740234375</LongitudeDegrees>
            </Position>
            <AltitudeMeters>1109.5999755859375</AltitudeMeters>
            <DistanceMeters>48772.176454769</DistanceMeters>
          </Trackpoint>
          <Trackpoint>
            <Time>2020-03-07T15:19:59.000Z</Time>
            <Position>
              <LatitudeDegrees>40.8099759556353092193603515625</LatitudeDegrees>
              <LongitudeDegrees>-3.77088010311126708984375</LongitudeDegrees>
            </Position>
            <AltitudeMeters>1109.800048828125</AltitudeMeters>
            <DistanceMeters>48775.661487454</DistanceMeters>
          </Trackpoint>
          <Trackpoint>
            <Time>2020-03-07T15:20:00.000Z</Time>
            <Position>
              <LatitudeDegrees>40.8099715970456600189208984375</LatitudeDegrees>
              <LongitudeDegrees>-3.7708383612334728240966796875</LongitudeDegrees>
            </Position>
            <AltitudeMeters>1110.4000244140625</AltitudeMeters>
            <DistanceMeters>48779.210706613</DistanceMeters>
          </Trackpoint>
          <Trackpoint>
            <Time>2020-03-07T15:20:01.000Z</Time>
            <Position>
              <LatitudeDegrees>40.8099675737321376800537109375</LatitudeDegrees>
              <LongitudeDegrees>-3.7707947753369808197021484375</LongitudeDegrees>
            </Position>
            <AltitudeMeters>1110.5999755859375</AltitudeMeters>
            <DistanceMeters>48782.909431504</DistanceMeters>
          </Trackpoint>
          <Trackpoint>
            <Time>2020-03-07T15:20:02.000Z</Time>
            <Position>
              <LatitudeDegrees>40.8099645562469959259033203125</LatitudeDegrees>
              <LongitudeDegrees>-3.77075060270726680755615234375</LongitudeDegrees>
            </Position>
            <AltitudeMeters>1110.800048828125</AltitudeMeters>
            <DistanceMeters>48786.645806509</DistanceMeters>
          </Trackpoint>
          <Trackpoint>
            <Time>2020-03-07T15:20:03.000Z</Time>
            <Position>
              <LatitudeDegrees>40.80996447242796421051025390625</LatitudeDegrees>
              <LongitudeDegrees>-3.7707059271633625030517578125</LongitudeDegrees>
            </Position>
            <AltitudeMeters>1111.199951171875</AltitudeMeters>
            <DistanceMeters>48790.40867242</DistanceMeters>
          </Trackpoint>
          <Trackpoint>
            <Time>2020-03-07T15:20:04.000Z</Time>
            <Position>
              <LatitudeDegrees>40.80996497534215450286865234375</LatitudeDegrees>
              <LongitudeDegrees>-3.77066192217171192169189453125</LongitudeDegrees>
            </Position>
            <AltitudeMeters>1111.4000244140625</AltitudeMeters>
            <DistanceMeters>48794.115932372</DistanceMeters>
          </Trackpoint>
          <Trackpoint>
            <Time>2020-03-07T15:20:05.000Z</Time>
            <Position>
              <LatitudeDegrees>40.8099658973515033721923828125</LatitudeDegrees>
              <LongitudeDegrees>-3.770619928836822509765625</LongitudeDegrees>
            </Position>
            <AltitudeMeters>1111.800048828125</AltitudeMeters>
            <DistanceMeters>48797.656235481</DistanceMeters>
          </Trackpoint>
          <Trackpoint>
            <Time>2020-03-07T15:20:06.000Z</Time>
            <Position>
              <LatitudeDegrees>40.8099652267992496490478515625</LatitudeDegrees>
              <LongitudeDegrees>-3.7705765105783939361572265625</LongitudeDegrees>
            </Position>
            <AltitudeMeters>1112</AltitudeMeters>
            <DistanceMeters>48801.314455443</DistanceMeters>
          </Trackpoint>
          <Trackpoint>
            <Time>2020-03-07T15:20:07.000Z</Time>
            <Position>
              <LatitudeDegrees>40.80996464006602764129638671875</LatitudeDegrees>
              <LongitudeDegrees>-3.77053208649158477783203125</LongitudeDegrees>
            </Position>
            <AltitudeMeters>1112.4000244140625</AltitudeMeters>
            <DistanceMeters>48805.058073831</DistanceMeters>
          </Trackpoint>
          <Trackpoint>
            <Time>2020-03-07T15:20:08.000Z</Time>
            <Position>
              <LatitudeDegrees>40.809966064989566802978515625</LatitudeDegrees>
              <LongitudeDegrees>-3.7704906798899173736572265625</LongitudeDegrees>
            </Position>
            <AltitudeMeters>1112.800048828125</AltitudeMeters>
            <DistanceMeters>48808.549578264</DistanceMeters>
          </Trackpoint>
          <Trackpoint>
            <Time>2020-03-07T15:20:09.000Z</Time>
            <Position>
              <LatitudeDegrees>40.80996908247470855712890625</LatitudeDegrees>
              <LongitudeDegrees>-3.77045069821178913116455078125</LongitudeDegrees>
            </Position>
            <AltitudeMeters>1113.199951171875</AltitudeMeters>
            <DistanceMeters>48811.93338336</DistanceMeters>
          </Trackpoint>
          <Trackpoint>
            <Time>2020-03-07T15:20:10.000Z</Time>
            <Position>
              <LatitudeDegrees>40.80997352488338947296142578125</LatitudeDegrees>
              <LongitudeDegrees>-3.77041247673332691192626953125</LongitudeDegrees>
            </Position>
            <AltitudeMeters>1113.4000244140625</AltitudeMeters>
            <DistanceMeters>48815.189348616</DistanceMeters>
          </Trackpoint>
          <Trackpoint>
            <Time>2020-03-07T15:20:11.000Z</Time>
            <Position>
              <LatitudeDegrees>40.8099779672920703887939453125</LatitudeDegrees>
              <LongitudeDegrees>-3.77037526108324527740478515625</LongitudeDegrees>
            </Position>
            <AltitudeMeters>1113.5999755859375</AltitudeMeters>
            <DistanceMeters>48818.361020912</DistanceMeters>
          </Trackpoint>
          <Trackpoint>
            <Time>2020-03-07T15:20:12.000Z</Time>
            <Position>
              <LatitudeDegrees>40.809984505176544189453125</LatitudeDegrees>
              <LongitudeDegrees>-3.77033871598541736602783203125</LongitudeDegrees>
            </Position>
            <AltitudeMeters>1113.800048828125</AltitudeMeters>
            <DistanceMeters>48821.522712647</DistanceMeters>
          </Trackpoint>
          <Trackpoint>
            <Time>2020-03-07T15:20:13.000Z</Time>
            <Position>
              <LatitudeDegrees>40.8099947310984134674072265625</LatitudeDegrees>
              <LongitudeDegrees>-3.77029697410762310028076171875</LongitudeDegrees>
            </Position>
            <AltitudeMeters>1114</AltitudeMeters>
            <DistanceMeters>48825.217773618</DistanceMeters>
          </Trackpoint>
          <Trackpoint>
            <Time>2020-03-07T15:20:14.000Z</Time>
            <Position>
              <LatitudeDegrees>40.81000437028706073760986328125</LatitudeDegrees>
              <LongitudeDegrees>-3.7702556513249874114990234375</LongitudeDegrees>
            </Position>
            <AltitudeMeters>1114.4000244140625</AltitudeMeters>
            <DistanceMeters>48828.86115287</DistanceMeters>
          </Trackpoint>
          <Trackpoint>
            <Time>2020-03-07T15:20:15.000Z</Time>
            <Position>
              <LatitudeDegrees>40.81001543439924716949462890625</LatitudeDegrees>
              <LongitudeDegrees>-3.77021365799009799957275390625</LongitudeDegrees>
            </Position>
            <AltitudeMeters>1114.4000244140625</AltitudeMeters>
            <DistanceMeters>48832.607182608</DistanceMeters>
          </Trackpoint>
          <Trackpoint>
            <Time>2020-03-07T15:20:16.000Z</Time>
            <Position>
              <LatitudeDegrees>40.81002943217754364013671875</LatitudeDegrees>
              <LongitudeDegrees>-3.77017376013100147247314453125</LongitudeDegrees>
            </Position>
            <AltitudeMeters>1114.800048828125</AltitudeMeters>
            <DistanceMeters>48836.312005976</DistanceMeters>
          </Trackpoint>
          <Trackpoint>
            <Time>2020-03-07T15:20:17.000Z</Time>
            <Position>
              <LatitudeDegrees>40.81004728563129901885986328125</LatitudeDegrees>
              <LongitudeDegrees>-3.77013620920479297637939453125</LongitudeDegrees>
            </Position>
            <AltitudeMeters>1115.199951171875</AltitudeMeters>
            <DistanceMeters>48840.047172386</DistanceMeters>
          </Trackpoint>
          <Trackpoint>
            <Time>2020-03-07T15:20:18.000Z</Time>
            <Position>
              <LatitudeDegrees>40.8100668154656887054443359375</LatitudeDegrees>
              <LongitudeDegrees>-3.7701027654111385345458984375</LongitudeDegrees>
            </Position>
            <AltitudeMeters>1115.4000244140625</AltitudeMeters>
            <DistanceMeters>48843.605285253</DistanceMeters>
          </Trackpoint>
          <Trackpoint>
            <Time>2020-03-07T15:20:19.000Z</Time>
            <Position>
              <LatitudeDegrees>40.810089111328125</LatitudeDegrees>
              <LongitudeDegrees>-3.770071752369403839111328125</LongitudeDegrees>
            </Position>
            <AltitudeMeters>1115.5999755859375</AltitudeMeters>
            <DistanceMeters>48847.207537305</DistanceMeters>
          </Trackpoint>
          <Trackpoint>
            <Time>2020-03-07T15:20:20.000Z</Time>
            <Position>
              <LatitudeDegrees>40.8101177774369716644287109375</LatitudeDegrees>
              <LongitudeDegrees>-3.770040236413478851318359375</LongitudeDegrees>
            </Position>
            <AltitudeMeters>1116</AltitudeMeters>
            <DistanceMeters>48851.358366844</DistanceMeters>
          </Trackpoint>
          <Trackpoint>
            <Time>2020-03-07T15:20:21.000Z</Time>
            <Position>
              <LatitudeDegrees>40.81013940274715423583984375</LatitudeDegrees>
              <LongitudeDegrees>-3.770006708800792694091796875</LongitudeDegrees>
            </Position>
            <AltitudeMeters>1116.199951171875</AltitudeMeters>
            <DistanceMeters>48855.069278669</DistanceMeters>
          </Trackpoint>
          <Trackpoint>
            <Time>2020-03-07T15:20:22.000Z</Time>
            <Position>
              <LatitudeDegrees>40.810168571770191192626953125</LatitudeDegrees>
              <LongitudeDegrees>-3.76997376792132854461669921875</LongitudeDegrees>
            </Position>
            <AltitudeMeters>1116.5999755859375</AltitudeMeters>
            <DistanceMeters>48859.341255319</DistanceMeters>
          </Trackpoint>
          <Trackpoint>
            <Time>2020-03-07T15:20:23.000Z</Time>
            <Position>
              <LatitudeDegrees>40.8101928792893886566162109375</LatitudeDegrees>
              <LongitudeDegrees>-3.76994191668927669525146484375</LongitudeDegrees>
            </Position>
            <AltitudeMeters>1116.800048828125</AltitudeMeters>
            <DistanceMeters>48863.151814716</DistanceMeters>
          </Trackpoint>
          <Trackpoint>
            <Time>2020-03-07T15:20:24.000Z</Time>
            <Position>
              <LatitudeDegrees>40.81021995283663272857666015625</LatitudeDegrees>
              <LongitudeDegrees>-3.769914172589778900146484375</LongitudeDegrees>
            </Position>
            <AltitudeMeters>1117.4000244140625</AltitudeMeters>
            <DistanceMeters>48866.964743128</DistanceMeters>
          </Trackpoint>
          <Trackpoint>
            <Time>2020-03-07T15:20:25.000Z</Time>
            <Position>
              <LatitudeDegrees>40.81024694256484508514404296875</LatitudeDegrees>
              <LongitudeDegrees>-3.76989128999412059783935546875</LongitudeDegrees>
            </Position>
            <AltitudeMeters>1117.5999755859375</AltitudeMeters>
            <DistanceMeters>48870.532993089</DistanceMeters>
          </Trackpoint>
          <Trackpoint>
            <Time>2020-03-07T15:20:26.000Z</Time>
            <Position>
              <LatitudeDegrees>40.81027577631175518035888671875</LatitudeDegrees>
              <LongitudeDegrees>-3.7698704190552234649658203125</LongitudeDegrees>
            </Position>
            <AltitudeMeters>1117.800048828125</AltitudeMeters>
            <DistanceMeters>48874.193680654</DistanceMeters>
          </Trackpoint>
          <Trackpoint>
            <Time>2020-03-07T15:20:27.000Z</Time>
            <Position>
              <LatitudeDegrees>40.81030343659222126007080078125</LatitudeDegrees>
              <LongitudeDegrees>-3.76984887756407260894775390625</LongitudeDegrees>
            </Position>
            <AltitudeMeters>1118</AltitudeMeters>
            <DistanceMeters>48877.766988378</DistanceMeters>
          </Trackpoint>
          <Trackpoint>
            <Time>2020-03-07T15:20:28.000Z</Time>
            <Position>
              <LatitudeDegrees>40.81033243797719478607177734375</LatitudeDegrees>
              <LongitudeDegrees>-3.7698273360729217529296875</LongitudeDegrees>
            </Position>
            <AltitudeMeters>1118.199951171875</AltitudeMeters>
            <DistanceMeters>48881.471811747</DistanceMeters>
          </Trackpoint>
          <Trackpoint>
            <Time>2020-03-07T15:20:29.000Z</Time>
            <Position>
              <LatitudeDegrees>40.81036311574280261993408203125</LatitudeDegrees>
              <LongitudeDegrees>-3.76980520784854888916015625</LongitudeDegrees>
            </Position>
            <AltitudeMeters>1118.4000244140625</AltitudeMeters>
            <DistanceMeters>48885.362108409</DistanceMeters>
          </Trackpoint>
          <Trackpoint>
            <Time>2020-03-07T15:20:30.000Z</Time>
            <Position>
              <LatitudeDegrees>40.8103927038609981536865234375</LatitudeDegrees>
              <LongitudeDegrees>-3.76978333108127117156982421875</LongitudeDegrees>
            </Position>
            <AltitudeMeters>1118.5999755859375</AltitudeMeters>
            <DistanceMeters>48889.136954184</DistanceMeters>
          </Trackpoint>
          <Trackpoint>
            <Time>2020-03-07T15:20:31.000Z</Time>
            <Position>
              <LatitudeDegrees>40.8104252256453037261962890625</LatitudeDegrees>
              <LongitudeDegrees>-3.769762627780437469482421875</LongitudeDegrees>
            </Position>
            <AltitudeMeters>1118.800048828125</AltitudeMeters>
            <DistanceMeters>48893.155134952</DistanceMeters>
          </Trackpoint>
          <Trackpoint>
            <Time>2020-03-07T15:20:32.000Z</Time>
            <Position>
              <LatitudeDegrees>40.81045850180089473724365234375</LatitudeDegrees>
              <LongitudeDegrees>-3.76974326558411121368408203125</LongitudeDegrees>
            </Position>
            <AltitudeMeters>1119</AltitudeMeters>
            <DistanceMeters>48897.202425239</DistanceMeters>
          </Trackpoint>
          <Trackpoint>
            <Time>2020-03-07T15:20:33.000Z</Time>
            <Position>
              <LatitudeDegrees>40.81048968248069286346435546875</LatitudeDegrees>
              <LongitudeDegrees>-3.7697232328355312347412109375</LongitudeDegrees>
            </Position>
            <AltitudeMeters>1119.199951171875</AltitudeMeters>
            <DistanceMeters>48901.062428624</DistanceMeters>
          </Trackpoint>
          <Trackpoint>
            <Time>2020-03-07T15:20:34.000Z</Time>
            <Position>
              <LatitudeDegrees>40.81052270717918872833251953125</LatitudeDegrees>
              <LongitudeDegrees>-3.76970286481082439422607421875</LongitudeDegrees>
            </Position>
            <AltitudeMeters>1119.4000244140625</AltitudeMeters>
            <DistanceMeters>48905.118633659</DistanceMeters>
          </Trackpoint>
          <Trackpoint>
            <Time>2020-03-07T15:20:35.000Z</Time>
            <Position>
              <LatitudeDegrees>40.810553468763828277587890625</LatitudeDegrees>
              <LongitudeDegrees>-3.76968375407159328460693359375</LongitudeDegrees>
            </Position>
            <AltitudeMeters>1119.5999755859375</AltitudeMeters>
            <DistanceMeters>48908.900649138</DistanceMeters>
          </Trackpoint>
          <Trackpoint>
            <Time>2020-03-07T15:20:36.000Z</Time>
            <Position>
              <LatitudeDegrees>40.81058464944362640380859375</LatitudeDegrees>
              <LongitudeDegrees>-3.7696655653417110443115234375</LongitudeDegrees>
            </Position>
            <AltitudeMeters>1119.800048828125</AltitudeMeters>
            <DistanceMeters>48912.694584015</DistanceMeters>
          </Trackpoint>
          <Trackpoint>
            <Time>2020-03-07T15:20:37.000Z</Time>
            <Position>
              <LatitudeDegrees>40.81061557866632938385009765625</LatitudeDegrees>
              <LongitudeDegrees>-3.76964888535439968109130859375</LongitudeDegrees>
            </Position>
            <AltitudeMeters>1120</AltitudeMeters>
            <DistanceMeters>48916.412788829</DistanceMeters>
          </Trackpoint>
          <Trackpoint>
            <Time>2020-03-07T15:20:38.000Z</Time>
            <Position>
              <LatitudeDegrees>40.81064390949904918670654296875</LatitudeDegrees>
              <LongitudeDegrees>-3.7696293555200099945068359375</LongitudeDegrees>
            </Position>
            <AltitudeMeters>1120.199951171875</AltitudeMeters>
            <DistanceMeters>48919.970901696</DistanceMeters>
          </Trackpoint>
          <Trackpoint>
            <Time>2020-03-07T15:20:39.000Z</Time>
            <Position>
              <LatitudeDegrees>40.81067341379821300506591796875</LatitudeDegrees>
              <LongitudeDegrees>-3.7696089036762714385986328125</LongitudeDegrees>
            </Position>
            <AltitudeMeters>1120.4000244140625</AltitudeMeters>
            <DistanceMeters>48923.680596629</DistanceMeters>
          </Trackpoint>
          <Trackpoint>
            <Time>2020-03-07T15:20:40.000Z</Time>
            <Position>
              <LatitudeDegrees>40.81070275045931339263916015625</LatitudeDegrees>
              <LongitudeDegrees>-3.76958937384188175201416015625</LongitudeDegrees>
            </Position>
            <AltitudeMeters>1120.5999755859375</AltitudeMeters>
            <DistanceMeters>48927.337582166</DistanceMeters>
          </Trackpoint>
          <Trackpoint>
            <Time>2020-03-07T15:20:41.000Z</Time>
            <Position>
              <LatitudeDegrees>40.81073191948235034942626953125</LatitudeDegrees>
              <LongitudeDegrees>-3.76957210712134838104248046875</LongitudeDegrees>
            </Position>
            <AltitudeMeters>1120.800048828125</AltitudeMeters>
            <DistanceMeters>48930.895695033</DistanceMeters>
          </Trackpoint>
          <Trackpoint>
            <Time>2020-03-07T15:20:42.000Z</Time>
            <Position>
              <LatitudeDegrees>40.81076159141957759857177734375</LatitudeDegrees>
              <LongitudeDegrees>-3.7695562653243541717529296875</LongitudeDegrees>
            </Position>
            <AltitudeMeters>1120.800048828125</AltitudeMeters>
            <DistanceMeters>48934.457612691</DistanceMeters>
          </Trackpoint>
          <Trackpoint>
            <Time>2020-03-07T15:20:43.000Z</Time>
            <Position>
              <LatitudeDegrees>40.8107903413474559783935546875</LatitudeDegrees>
              <LongitudeDegrees>-3.769538663327693939208984375</LongitudeDegrees>
            </Position>
            <AltitudeMeters>1121</AltitudeMeters>
            <DistanceMeters>48937.983859317</DistanceMeters>
          </Trackpoint>
          <Trackpoint>
            <Time>2020-03-07T15:20:44.000Z</Time>
            <Position>
              <LatitudeDegrees>40.81081875599920749664306640625</LatitudeDegrees>
              <LongitudeDegrees>-3.76952080987393856048583984375</LongitudeDegrees>
            </Position>
            <AltitudeMeters>1121.199951171875</AltitudeMeters>
            <DistanceMeters>48941.485693666</DistanceMeters>
          </Trackpoint>
          <Trackpoint>
            <Time>2020-03-07T15:20:45.000Z</Time>
            <Position>
              <LatitudeDegrees>40.8108480088412761688232421875</LatitudeDegrees>
              <LongitudeDegrees>-3.76950387842953205108642578125</LongitudeDegrees>
            </Position>
            <AltitudeMeters>1121.5999755859375</AltitudeMeters>
            <DistanceMeters>48945.03872714</DistanceMeters>
          </Trackpoint>
          <Trackpoint>
            <Time>2020-03-07T15:20:46.000Z</Time>
            <Position>
              <LatitudeDegrees>40.81087927334010601043701171875</LatitudeDegrees>
              <LongitudeDegrees>-3.76948862336575984954833984375</LongitudeDegrees>
            </Position>
            <AltitudeMeters>1121.800048828125</AltitudeMeters>
            <DistanceMeters>48948.747204783</DistanceMeters>
          </Trackpoint>
          <Trackpoint>
            <Time>2020-03-07T15:20:47.000Z</Time>
            <Position>
              <LatitudeDegrees>40.81090844236314296722412109375</LatitudeDegrees>
              <LongitudeDegrees>-3.76947403885424137115478515625</LongitudeDegrees>
            </Position>
            <AltitudeMeters>1122</AltitudeMeters>
            <DistanceMeters>48952.217957147</DistanceMeters>
          </Trackpoint>
          <Trackpoint>
            <Time>2020-03-07T15:20:48.000Z</Time>
            <Position>
              <LatitudeDegrees>40.8109380304813385009765625</LatitudeDegrees>
              <LongitudeDegrees>-3.76945844851434230804443359375</LongitudeDegrees>
            </Position>
            <AltitudeMeters>1122.199951171875</AltitudeMeters>
            <DistanceMeters>48955.763357888</DistanceMeters>
          </Trackpoint>
          <Trackpoint>
            <Time>2020-03-07T15:20:49.000Z</Time>
            <Position>
              <LatitudeDegrees>40.81096594221889972686767578125</LatitudeDegrees>
              <LongitudeDegrees>-3.7694395892322063446044921875</LongitudeDegrees>
            </Position>
            <AltitudeMeters>1122.4000244140625</AltitudeMeters>
            <DistanceMeters>48959.252275061</DistanceMeters>
          </Trackpoint>
          <Trackpoint>
            <Time>2020-03-07T15:20:50.000Z</Time>
            <Position>
              <LatitudeDegrees>40.8109948597848415374755859375</LatitudeDegrees>
              <LongitudeDegrees>-3.7694191373884677886962890625</LongitudeDegrees>
            </Position>
            <AltitudeMeters>1122.5999755859375</AltitudeMeters>
            <DistanceMeters>48962.903082209</DistanceMeters>
          </Trackpoint>
          <Trackpoint>
            <Time>2020-03-07T15:20:51.000Z</Time>
            <Position>
              <LatitudeDegrees>40.81102360971271991729736328125</LatitudeDegrees>
              <LongitudeDegrees>-3.769399859011173248291015625</LongitudeDegrees>
            </Position>
            <AltitudeMeters>1122.800048828125</AltitudeMeters>
            <DistanceMeters>48966.49152045</DistanceMeters>
          </Trackpoint>
          <Trackpoint>
            <Time>2020-03-07T15:20:52.000Z</Time>
            <Position>
              <LatitudeDegrees>40.81105294637382030487060546875</LatitudeDegrees>
              <LongitudeDegrees>-3.7693812511861324310302734375</LongitudeDegrees>
            </Position>
            <AltitudeMeters>1123.199951171875</AltitudeMeters>
            <DistanceMeters>48970.112524592</DistanceMeters>
          </Trackpoint>
          <Trackpoint>
            <Time>2020-03-07T15:20:53.000Z</Time>
            <Position>
              <LatitudeDegrees>40.81108110956847667694091796875</LatitudeDegrees>
              <LongitudeDegrees>-3.76936390064656734466552734375</LongitudeDegrees>
            </Position>
            <AltitudeMeters>1123.5999755859375</AltitudeMeters>
            <DistanceMeters>48973.570243669</DistanceMeters>
          </Trackpoint>
          <Trackpoint>
            <Time>2020-03-07T15:20:54.000Z</Time>
            <Position>
              <LatitudeDegrees>40.81110977567732334136962890625</LatitudeDegrees>
              <LongitudeDegrees>-3.76934646628797054290771484375</LongitudeDegrees>
            </Position>
            <AltitudeMeters>1123.800048828125</AltitudeMeters>
            <DistanceMeters>48977.082377553</DistanceMeters>
          </Trackpoint>
          <Trackpoint>
            <Time>2020-03-07T15:20:55.000Z</Time>
            <Position>
              <LatitudeDegrees>40.81113793887197971343994140625</LatitudeDegrees>
              <LongitudeDegrees>-3.7693284451961517333984375</LongitudeDegrees>
            </Position>
            <AltitudeMeters>1124</AltitudeMeters>
            <DistanceMeters>48980.566114446</DistanceMeters>
          </Trackpoint>
          <Trackpoint>
            <Time>2020-03-07T15:20:56.000Z</Time>
            <Position>
              <LatitudeDegrees>40.811165012419223785400390625</LatitudeDegrees>
              <LongitudeDegrees>-3.76931109465658664703369140625</LongitudeDegrees>
            </Position>
            <AltitudeMeters>1124.199951171875</AltitudeMeters>
            <DistanceMeters>48983.916395781</DistanceMeters>
          </Trackpoint>
          <Trackpoint>
            <Time>2020-03-07T15:20:57.000Z</Time>
            <Position>
              <LatitudeDegrees>40.81119216978549957275390625</LatitudeDegrees>
              <LongitudeDegrees>-3.7692934088408946990966796875</LongitudeDegrees>
            </Position>
            <AltitudeMeters>1124.5999755859375</AltitudeMeters>
            <DistanceMeters>48987.285491519</DistanceMeters>
          </Trackpoint>
          <Trackpoint>
            <Time>2020-03-07T15:20:58.000Z</Time>
            <Position>
              <LatitudeDegrees>40.8112196624279022216796875</LatitudeDegrees>
              <LongitudeDegrees>-3.76927505247294902801513671875</LongitudeDegrees>
            </Position>
            <AltitudeMeters>1124.5999755859375</AltitudeMeters>
            <DistanceMeters>48990.714362985</DistanceMeters>
          </Trackpoint>
          <Trackpoint>
            <Time>2020-03-07T15:20:59.000Z</Time>
            <Position>
              <LatitudeDegrees>40.8112483285367488861083984375</LatitudeDegrees>
              <LongitudeDegrees>-3.76925728283822536468505859375</LongitudeDegrees>
            </Position>
            <AltitudeMeters>1124.800048828125</AltitudeMeters>
            <DistanceMeters>48994.239328968</DistanceMeters>
          </Trackpoint>
          <Trackpoint>
            <Time>2020-03-07T15:21:00.000Z</Time>
            <Position>
              <LatitudeDegrees>40.81127774901688098907470703125</LatitudeDegrees>
              <LongitudeDegrees>-3.76924001611769199371337890625</LongitudeDegrees>
            </Position>
            <AltitudeMeters>1125</AltitudeMeters>
            <DistanceMeters>48997.822730802</DistanceMeters>
          </Trackpoint>
          <Trackpoint>
            <Time>2020-03-07T15:21:01.000Z</Time>
            <Position>
              <LatitudeDegrees>40.81130658276379108428955078125</LatitudeDegrees>
              <LongitudeDegrees>-3.7692223303020000457763671875</LongitudeDegrees>
            </Position>
            <AltitudeMeters>1125.199951171875</AltitudeMeters>
            <DistanceMeters>49001.360482341</DistanceMeters>
          </Trackpoint>
          <Trackpoint>
            <Time>2020-03-07T15:21:02.000Z</Time>
            <Position>
              <LatitudeDegrees>40.8113351650536060333251953125</LatitudeDegrees>
              <LongitudeDegrees>-3.7692035548388957977294921875</LongitudeDegrees>
            </Position>
            <AltitudeMeters>1125.4000244140625</AltitudeMeters>
            <DistanceMeters>49004.913515815</DistanceMeters>
          </Trackpoint>
          <Trackpoint>
            <Time>2020-03-07T15:21:03.000Z</Time>
            <Position>
              <LatitudeDegrees>40.81136425025761127471923828125</LatitudeDegrees>
              <LongitudeDegrees>-3.7691844440996646881103515625</LongitudeDegrees>
            </Position>
            <AltitudeMeters>1125.800048828125</AltitudeMeters>
            <DistanceMeters>49008.527030799</DistanceMeters>
          </Trackpoint>
          <Trackpoint>
            <Time>2020-03-07T15:21:04.000Z</Time>
            <Position>
              <LatitudeDegrees>40.81139467656612396240234375</LatitudeDegrees>
              <LongitudeDegrees>-3.7691675126552581787109375</LongitudeDegrees>
            </Position>
            <AltitudeMeters>1126</AltitudeMeters>
            <DistanceMeters>49012.202489187</DistanceMeters>
          </Trackpoint>
          <Trackpoint>
            <Time>2020-03-07T15:21:05.000Z</Time>
            <Position>
              <LatitudeDegrees>40.8114246837794780731201171875</LatitudeDegrees>
              <LongitudeDegrees>-3.769150413572788238525390625</LongitudeDegrees>
            </Position>
            <AltitudeMeters>1126.199951171875</AltitudeMeters>
            <DistanceMeters>49015.839666938</DistanceMeters>
          </Trackpoint>
          <Trackpoint>
            <Time>2020-03-07T15:21:06.000Z</Time>
            <Position>
              <LatitudeDegrees>40.81145460717380046844482421875</LatitudeDegrees>
              <LongitudeDegrees>-3.769132308661937713623046875</LongitudeDegrees>
            </Position>
            <AltitudeMeters>1126.4000244140625</AltitudeMeters>
            <DistanceMeters>49019.502820442</DistanceMeters>
          </Trackpoint>
          <Trackpoint>
            <Time>2020-03-07T15:21:07.000Z</Time>
            <Position>
              <LatitudeDegrees>40.8114846982061862945556640625</LatitudeDegrees>
              <LongitudeDegrees>-3.7691143713891506195068359375</LongitudeDegrees>
            </Position>
            <AltitudeMeters>1126.5999755859375</AltitudeMeters>
            <DistanceMeters>49023.17827883</DistanceMeters>
          </Trackpoint>
          <Trackpoint>
            <Time>2020-03-07T15:21:08.000Z</Time>
            <Position>
              <LatitudeDegrees>40.81151428632438182830810546875</LatitudeDegrees>
              <LongitudeDegrees>-3.76909576356410980224609375</LongitudeDegrees>
            </Position>
            <AltitudeMeters>1126.800048828125</AltitudeMeters>
            <DistanceMeters>49026.826611693</DistanceMeters>
          </Trackpoint>
          <Trackpoint>
            <Time>2020-03-07T15:21:09.000Z</Time>
            <Position>
              <LatitudeDegrees>40.8115433715283870697021484375</LatitudeDegrees>
              <LongitudeDegrees>-3.76907740719616413116455078125</LongitudeDegrees>
            </Position>
            <AltitudeMeters>1127</AltitudeMeters>
            <DistanceMeters>49030.415049934</DistanceMeters>
          </Trackpoint>
          <Trackpoint>
            <Time>2020-03-07T15:21:10.000Z</Time>
            <Position>
              <LatitudeDegrees>40.81157161854207515716552734375</LatitudeDegrees>
              <LongitudeDegrees>-3.76905846409499645233154296875</LongitudeDegrees>
            </Position>
            <AltitudeMeters>1127.4000244140625</AltitudeMeters>
            <DistanceMeters>49033.940015917</DistanceMeters>
          </Trackpoint>
          <Trackpoint>
            <Time>2020-03-07T15:21:11.000Z</Time>
            <Position>
              <LatitudeDegrees>40.81159986555576324462890625</LatitudeDegrees>
              <LongitudeDegrees>-3.769040443003177642822265625</LongitudeDegrees>
            </Position>
            <AltitudeMeters>1127.5999755859375</AltitudeMeters>
            <DistanceMeters>49037.431520349</DistanceMeters>
          </Trackpoint>
          <Trackpoint>
            <Time>2020-03-07T15:21:12.000Z</Time>
            <Position>
              <LatitudeDegrees>40.8116275258362293243408203125</LatitudeDegrees>
              <LongitudeDegrees>-3.76902401447296142578125</LongitudeDegrees>
            </Position>
            <AltitudeMeters>1127.800048828125</AltitudeMeters>
            <DistanceMeters>49040.807310105</DistanceMeters>
          </Trackpoint>
          <Trackpoint>
            <Time>2020-03-07T15:21:13.000Z</Time>
            <Position>
              <LatitudeDegrees>40.81165443174540996551513671875</LatitudeDegrees>
              <LongitudeDegrees>-3.76900817267596721649169921875</LongitudeDegrees>
            </Position>
            <AltitudeMeters>1128</AltitudeMeters>
            <DistanceMeters>49044.086764487</DistanceMeters>
          </Trackpoint>
          <Trackpoint>
            <Time>2020-03-07T15:21:14.000Z</Time>
            <Position>
              <LatitudeDegrees>40.81168091855943202972412109375</LatitudeDegrees>
              <LongitudeDegrees>-3.76899358816444873809814453125</LongitudeDegrees>
            </Position>
            <AltitudeMeters>1128.4000244140625</AltitudeMeters>
            <DistanceMeters>49047.281132403</DistanceMeters>
          </Trackpoint>
          <Trackpoint>
            <Time>2020-03-07T15:21:15.000Z</Time>
            <Position>
              <LatitudeDegrees>40.8117078244686126708984375</LatitudeDegrees>
              <LongitudeDegrees>-3.7689792551100254058837890625</LongitudeDegrees>
            </Position>
            <AltitudeMeters>1128.4000244140625</AltitudeMeters>
            <DistanceMeters>49050.512040691</DistanceMeters>
          </Trackpoint>
          <Trackpoint>
            <Time>2020-03-07T15:21:16.000Z</Time>
            <Position>
              <LatitudeDegrees>40.8117341436445713043212890625</LatitudeDegrees>
              <LongitudeDegrees>-3.76896408386528491973876953125</LongitudeDegrees>
            </Position>
            <AltitudeMeters>1128.5999755859375</AltitudeMeters>
            <DistanceMeters>49053.709234232</DistanceMeters>
          </Trackpoint>
          <Trackpoint>
            <Time>2020-03-07T15:21:17.000Z</Time>
            <Position>
              <LatitudeDegrees>40.81176088191568851470947265625</LatitudeDegrees>
              <LongitudeDegrees>-3.76894849352538585662841796875</LongitudeDegrees>
            </Position>
            <AltitudeMeters>1128.800048828125</AltitudeMeters>
            <DistanceMeters>49056.96242491</DistanceMeters>
          </Trackpoint>
          <Trackpoint>
            <Time>2020-03-07T15:21:18.000Z</Time>
            <Position>
              <LatitudeDegrees>40.81178770400583744049072265625</LatitudeDegrees>
              <LongitudeDegrees>-3.76893290318548679351806640625</LongitudeDegrees>
            </Position>
            <AltitudeMeters>1128.800048828125</AltitudeMeters>
            <DistanceMeters>49060.223932238</DistanceMeters>
          </Trackpoint>
          <Trackpoint>
            <Time>2020-03-07T15:21:19.000Z</Time>
            <Position>
              <LatitudeDegrees>40.81181486137211322784423828125</LatitudeDegrees>
              <LongitudeDegrees>-3.7689168937504291534423828125</LongitudeDegrees>
            </Position>
            <AltitudeMeters>1129.4000244140625</AltitudeMeters>
            <DistanceMeters>49063.534900798</DistanceMeters>
          </Trackpoint>
          <Trackpoint>
            <Time>2020-03-07T15:21:20.000Z</Time>
            <Position>
              <LatitudeDegrees>40.8118414320051670074462890625</LatitudeDegrees>
              <LongitudeDegrees>-3.76890071667730808258056640625</LongitudeDegrees>
            </Position>
            <AltitudeMeters>1129.5999755859375</AltitudeMeters>
            <DistanceMeters>49066.790866054</DistanceMeters>
          </Trackpoint>
          <Trackpoint>
            <Time>2020-03-07T15:21:21.000Z</Time>
            <Position>
              <LatitudeDegrees>40.81187034957110881805419921875</LatitudeDegrees>
              <LongitudeDegrees>-3.76888629980385303497314453125</LongitudeDegrees>
            </Position>
            <AltitudeMeters>1130</AltitudeMeters>
            <DistanceMeters>49070.230255555</DistanceMeters>
          </Trackpoint>
          <Trackpoint>
            <Time>2020-03-07T15:21:22.000Z</Time>
            <Position>
              <LatitudeDegrees>40.811899602413177490234375</LatitudeDegrees>
              <LongitudeDegrees>-3.76887171529233455657958984375</LongitudeDegrees>
            </Position>
            <AltitudeMeters>1130.199951171875</AltitudeMeters>
            <DistanceMeters>49073.708804453</DistanceMeters>
          </Trackpoint>
          <Trackpoint>
            <Time>2020-03-07T15:21:23.000Z</Time>
            <Position>
              <LatitudeDegrees>40.811930783092975616455078125</LatitudeDegrees>
              <LongitudeDegrees>-3.768856711685657501220703125</LongitudeDegrees>
            </Position>
            <AltitudeMeters>1130.5999755859375</AltitudeMeters>
            <DistanceMeters>49077.401420792</DistanceMeters>
          </Trackpoint>
          <Trackpoint>
            <Time>2020-03-07T15:21:24.000Z</Time>
            <Position>
              <LatitudeDegrees>40.81196405924856662750244140625</LatitudeDegrees>
              <LongitudeDegrees>-3.76884036697447299957275390625</LongitudeDegrees>
            </Position>
            <AltitudeMeters>1130.800048828125</AltitudeMeters>
            <DistanceMeters>49081.353892455</DistanceMeters>
          </Trackpoint>
          <Trackpoint>
            <Time>2020-03-07T15:21:25.000Z</Time>
            <Position>
              <LatitudeDegrees>40.8119943179190158843994140625</LatitudeDegrees>
              <LongitudeDegrees>-3.768822513520717620849609375</LongitudeDegrees>
            </Position>
            <AltitudeMeters>1131</AltitudeMeters>
            <DistanceMeters>49085.042838809</DistanceMeters>
          </Trackpoint>
          <Trackpoint>
            <Time>2020-03-07T15:21:26.000Z</Time>
            <Position>
              <LatitudeDegrees>40.81202306784689426422119140625</LatitudeDegrees>
              <LongitudeDegrees>-3.76880482770502567291259765625</LongitudeDegrees>
            </Position>
            <AltitudeMeters>1131.199951171875</AltitudeMeters>
            <DistanceMeters>49088.572924572</DistanceMeters>
          </Trackpoint>
          <Trackpoint>
            <Time>2020-03-07T15:21:27.000Z</Time>
            <Position>
              <LatitudeDegrees>40.81205039285123348236083984375</LatitudeDegrees>
              <LongitudeDegrees>-3.76878655515611171722412109375</LongitudeDegrees>
            </Position>
            <AltitudeMeters>1131.5999755859375</AltitudeMeters>
            <DistanceMeters>49091.980662576</DistanceMeters>
          </Trackpoint>
          <Trackpoint>
            <Time>2020-03-07T15:21:28.000Z</Time>
            <Position>
              <LatitudeDegrees>40.81207956187427043914794921875</LatitudeDegrees>
              <LongitudeDegrees>-3.76876861788332462310791015625</LongitudeDegrees>
            </Position>
            <AltitudeMeters>1131.800048828125</AltitudeMeters>
            <DistanceMeters>49095.56154355</DistanceMeters>
          </Trackpoint>
          <Trackpoint>
            <Time>2020-03-07T15:21:29.000Z</Time>
            <Position>
              <LatitudeDegrees>40.8121103234589099884033203125</LatitudeDegrees>
              <LongitudeDegrees>-3.7687529437243938446044921875</LongitudeDegrees>
            </Position>
            <AltitudeMeters>1132</AltitudeMeters>
            <DistanceMeters>49099.230854654</DistanceMeters>
          </Trackpoint>
          <Trackpoint>
            <Time>2020-03-07T15:21:30.000Z</Time>
            <Position>
              <LatitudeDegrees>40.8121396601200103759765625</LatitudeDegrees>
              <LongitudeDegrees>-3.76873525790870189666748046875</LongitudeDegrees>
            </Position>
            <AltitudeMeters>1132.199951171875</AltitudeMeters>
            <DistanceMeters>49102.819292895</DistanceMeters>
          </Trackpoint>
          <Trackpoint>
            <Time>2020-03-07T15:21:31.000Z</Time>
            <Position>
              <LatitudeDegrees>40.812167823314666748046875</LatitudeDegrees>
              <LongitudeDegrees>-3.76872067339718341827392578125</LongitudeDegrees>
            </Position>
            <AltitudeMeters>1132.4000244140625</AltitudeMeters>
            <DistanceMeters>49106.187048233</DistanceMeters>
          </Trackpoint>
          <Trackpoint>
            <Time>2020-03-07T15:21:32.000Z</Time>
            <Position>
              <LatitudeDegrees>40.812194645404815673828125</LatitudeDegrees>
              <LongitudeDegrees>-3.7687056697905063629150390625</LongitudeDegrees>
            </Position>
            <AltitudeMeters>1132.5999755859375</AltitudeMeters>
            <DistanceMeters>49109.42911686</DistanceMeters>
          </Trackpoint>
          <Trackpoint>
            <Time>2020-03-07T15:21:33.000Z</Time>
            <Position>
              <LatitudeDegrees>40.81222423352301120758056640625</LatitudeDegrees>
              <LongitudeDegrees>-3.76869267784059047698974609375</LongitudeDegrees>
            </Position>
            <AltitudeMeters>1132.5999755859375</AltitudeMeters>
            <DistanceMeters>49112.899869224</DistanceMeters>
          </Trackpoint>
          <Trackpoint>
            <Time>2020-03-07T15:21:34.000Z</Time>
            <Position>
              <LatitudeDegrees>40.8122549951076507568359375</LatitudeDegrees>
              <LongitudeDegrees>-3.76867733895778656005859375</LongitudeDegrees>
            </Position>
            <AltitudeMeters>1132.800048828125</AltitudeMeters>
            <DistanceMeters>49116.560556789</DistanceMeters>
          </Trackpoint>
          <Trackpoint>
            <Time>2020-03-07T15:21:35.000Z</Time>
            <Position>
              <LatitudeDegrees>40.8122843317687511444091796875</LatitudeDegrees>
              <LongitudeDegrees>-3.76865923404693603515625</LongitudeDegrees>
            </Position>
            <AltitudeMeters>1133</AltitudeMeters>
            <DistanceMeters>49120.165314756</DistanceMeters>
          </Trackpoint>
          <Trackpoint>
            <Time>2020-03-07T15:21:36.000Z</Time>
            <Position>
              <LatitudeDegrees>40.812311656773090362548828125</LatitudeDegrees>
              <LongitudeDegrees>-3.7686379440128803253173828125</LongitudeDegrees>
            </Position>
            <AltitudeMeters>1133.199951171875</AltitudeMeters>
            <DistanceMeters>49123.695400519</DistanceMeters>
          </Trackpoint>
          <Trackpoint>
            <Time>2020-03-07T15:21:37.000Z</Time>
            <Position>
              <LatitudeDegrees>40.81233973614871501922607421875</LatitudeDegrees>
              <LongitudeDegrees>-3.7686141394078731536865234375</LongitudeDegrees>
            </Position>
            <AltitudeMeters>1133.4000244140625</AltitudeMeters>
            <DistanceMeters>49127.408744932</DistanceMeters>
          </Trackpoint>
          <Trackpoint>
            <Time>2020-03-07T15:21:38.000Z</Time>
            <Position>
              <LatitudeDegrees>40.8123671449720859527587890625</LatitudeDegrees>
              <LongitudeDegrees>-3.76858790405094623565673828125</LongitudeDegrees>
            </Position>
            <AltitudeMeters>1133.800048828125</AltitudeMeters>
            <DistanceMeters>49131.17640736</DistanceMeters>
          </Trackpoint>
          <Trackpoint>
            <Time>2020-03-07T15:21:39.000Z</Time>
            <Position>
              <LatitudeDegrees>40.81239522434771060943603515625</LatitudeDegrees>
              <LongitudeDegrees>-3.76856124959886074066162109375</LongitudeDegrees>
            </Position>
            <AltitudeMeters>1134</AltitudeMeters>
            <DistanceMeters>49135.024695988</DistanceMeters>
          </Trackpoint>
          <Trackpoint>
            <Time>2020-03-07T15:21:40.000Z</Time>
            <Position>
              <LatitudeDegrees>40.8124238066375255584716796875</LatitudeDegrees>
              <LongitudeDegrees>-3.7685343436896800994873046875</LongitudeDegrees>
            </Position>
            <AltitudeMeters>1134.199951171875</AltitudeMeters>
            <DistanceMeters>49138.930051172</DistanceMeters>
          </Trackpoint>
          <Trackpoint>
            <Time>2020-03-07T15:21:41.000Z</Time>
            <Position>
              <LatitudeDegrees>40.8124534785747528076171875</LatitudeDegrees>
              <LongitudeDegrees>-3.7685061804950237274169921875</LongitudeDegrees>
            </Position>
            <AltitudeMeters>1134.4000244140625</AltitudeMeters>
            <DistanceMeters>49142.995151404</DistanceMeters>
          </Trackpoint>
          <Trackpoint>
            <Time>2020-03-07T15:21:42.000Z</Time>
            <Position>
              <LatitudeDegrees>40.81248206086456775665283203125</LatitudeDegrees>
              <LongitudeDegrees>-3.768477179110050201416015625</LongitudeDegrees>
            </Position>
            <AltitudeMeters>1134.4000244140625</AltitudeMeters>
            <DistanceMeters>49147.006584592</DistanceMeters>
          </Trackpoint>
          <Trackpoint>
            <Time>2020-03-07T15:21:43.000Z</Time>
            <Position>
              <LatitudeDegrees>40.812511146068572998046875</LatitudeDegrees>
              <LongitudeDegrees>-3.76844876445829868316650390625</LongitudeDegrees>
            </Position>
            <AltitudeMeters>1134.5999755859375</AltitudeMeters>
            <DistanceMeters>49151.033744546</DistanceMeters>
          </Trackpoint>
          <Trackpoint>
            <Time>2020-03-07T15:21:44.000Z</Time>
            <Position>
              <LatitudeDegrees>40.812537968158721923828125</LatitudeDegrees>
              <LongitudeDegrees>-3.7684193439781665802001953125</LongitudeDegrees>
            </Position>
            <AltitudeMeters>1134.5999755859375</AltitudeMeters>
            <DistanceMeters>49154.91358184</DistanceMeters>
          </Trackpoint>
          <Trackpoint>
            <Time>2020-03-07T15:21:45.000Z</Time>
            <Position>
              <LatitudeDegrees>40.8125629462301731109619140625</LatitudeDegrees>
              <LongitudeDegrees>-3.7683874927461147308349609375</LongitudeDegrees>
            </Position>
            <AltitudeMeters>1134.800048828125</AltitudeMeters>
            <DistanceMeters>49158.777092726</DistanceMeters>
          </Trackpoint>
          <Trackpoint>
            <Time>2020-03-07T15:21:46.000Z</Time>
            <Position>
              <LatitudeDegrees>40.812587924301624298095703125</LatitudeDegrees>
              <LongitudeDegrees>-3.7683549709618091583251953125</LongitudeDegrees>
            </Position>
            <AltitudeMeters>1134.800048828125</AltitudeMeters>
            <DistanceMeters>49162.681291624</DistanceMeters>
          </Trackpoint>
          <Trackpoint>
            <Time>2020-03-07T15:21:47.000Z</Time>
            <Position>
              <LatitudeDegrees>40.81260971724987030029296875</LatitudeDegrees>
              <LongitudeDegrees>-3.76832638867199420928955078125</LongitudeDegrees>
            </Position>
            <AltitudeMeters>1134.800048828125</AltitudeMeters>
            <DistanceMeters>49166.099612691</DistanceMeters>
          </Trackpoint>
          <Trackpoint>
            <Time>2020-03-07T15:21:48.000Z</Time>
            <Position>
              <LatitudeDegrees>40.81263251602649688720703125</LatitudeDegrees>
              <LongitudeDegrees>-3.7683043442666530609130859375</LongitudeDegrees>
            </Position>
            <AltitudeMeters>1134.800048828125</AltitudeMeters>
            <DistanceMeters>49169.242685014</DistanceMeters>
          </Trackpoint>
          <Trackpoint>
            <Time>2020-03-07T15:21:49.000Z</Time>
            <Position>
              <LatitudeDegrees>40.81266579218208789825439453125</LatitudeDegrees>
              <LongitudeDegrees>-3.7682889215648174285888671875</LongitudeDegrees>
            </Position>
            <AltitudeMeters>1135</AltitudeMeters>
            <DistanceMeters>49173.167644939</DistanceMeters>
          </Trackpoint>
          <Trackpoint>
            <Time>2020-03-07T15:21:50.000Z</Time>
            <Position>
              <LatitudeDegrees>40.812702588737010955810546875</LatitudeDegrees>
              <LongitudeDegrees>-3.7682738341391086578369140625</LongitudeDegrees>
            </Position>
            <AltitudeMeters>1135</AltitudeMeters>
            <DistanceMeters>49177.455445732</DistanceMeters>
          </Trackpoint>
          <Trackpoint>
            <Time>2020-03-07T15:21:51.000Z</Time>
            <Position>
              <LatitudeDegrees>40.81273536197841167449951171875</LatitudeDegrees>
              <LongitudeDegrees>-3.76825849525630474090576171875</LongitudeDegrees>
            </Position>
            <AltitudeMeters>1135.199951171875</AltitudeMeters>
            <DistanceMeters>49181.324795386</DistanceMeters>
          </Trackpoint>
          <Trackpoint>
            <Time>2020-03-07T15:21:52.000Z</Time>
            <Position>
              <LatitudeDegrees>40.812763273715972900390625</LatitudeDegrees>
              <LongitudeDegrees>-3.76824089325964450836181640625</LongitudeDegrees>
            </Position>
            <AltitudeMeters>1135.199951171875</AltitudeMeters>
            <DistanceMeters>49184.766809374</DistanceMeters>
          </Trackpoint>
          <Trackpoint>
            <Time>2020-03-07T15:21:53.000Z</Time>
            <Position>
              <LatitudeDegrees>40.81279235891997814178466796875</LatitudeDegrees>
              <LongitudeDegrees>-3.76822446472942829132080078125</LongitudeDegrees>
            </Position>
            <AltitudeMeters>1135.199951171875</AltitudeMeters>
            <DistanceMeters>49188.287930639</DistanceMeters>
          </Trackpoint>
          <Trackpoint>
            <Time>2020-03-07T15:21:54.000Z</Time>
            <Position>
              <LatitudeDegrees>40.812816917896270751953125</LatitudeDegrees>
              <LongitudeDegrees>-3.768210299313068389892578125</LongitudeDegrees>
            </Position>
            <AltitudeMeters>1135.199951171875</AltitudeMeters>
            <DistanceMeters>49191.271829996</DistanceMeters>
          </Trackpoint>
          <Trackpoint>
            <Time>2020-03-07T15:21:55.000Z</Time>
            <Position>
              <LatitudeDegrees>40.812848098576068878173828125</LatitudeDegrees>
              <LongitudeDegrees>-3.7682024203240871429443359375</LongitudeDegrees>
            </Position>
            <AltitudeMeters>1135.4000244140625</AltitudeMeters>
            <DistanceMeters>49194.805750725</DistanceMeters>
          </Trackpoint>
          <Trackpoint>
            <Time>2020-03-07T15:21:56.000Z</Time>
            <Position>
              <LatitudeDegrees>40.8128687180578708648681640625</LatitudeDegrees>
              <LongitudeDegrees>-3.76818574033677577972412109375</LongitudeDegrees>
            </Position>
            <AltitudeMeters>1135.5999755859375</AltitudeMeters>
            <DistanceMeters>49197.496869695</DistanceMeters>
          </Trackpoint>
          <Trackpoint>
            <Time>2020-03-07T15:21:57.000Z</Time>
            <Position>
              <LatitudeDegrees>40.81289126537740230560302734375</LatitudeDegrees>
              <LongitudeDegrees>-3.7681715749204158782958984375</LongitudeDegrees>
            </Position>
            <AltitudeMeters>1135.800048828125</AltitudeMeters>
            <DistanceMeters>49200.273861824</DistanceMeters>
          </Trackpoint>
          <Trackpoint>
            <Time>2020-03-07T15:21:58.000Z</Time>
            <Position>
              <LatitudeDegrees>40.8129102922976016998291015625</LatitudeDegrees>
              <LongitudeDegrees>-3.7681568227708339691162109375</LongitudeDegrees>
            </Position>
            <AltitudeMeters>1136</AltitudeMeters>
            <DistanceMeters>49202.729893392</DistanceMeters>
          </Trackpoint>
          <Trackpoint>
            <Time>2020-03-07T15:21:59.000Z</Time>
            <Position>
              <LatitudeDegrees>40.81292747519910335540771484375</LatitudeDegrees>
              <LongitudeDegrees>-3.76814215444028377532958984375</LongitudeDegrees>
            </Position>
            <AltitudeMeters>1136.199951171875</AltitudeMeters>
            <DistanceMeters>49205.006571647</DistanceMeters>
          </Trackpoint>
          <Trackpoint>
            <Time>2020-03-07T15:22:00.000Z</Time>
            <Position>
              <LatitudeDegrees>40.81295295618474483489990234375</LatitudeDegrees>
              <LongitudeDegrees>-3.76813461072742938995361328125</LongitudeDegrees>
            </Position>
            <AltitudeMeters>1136.4000244140625</AltitudeMeters>
            <DistanceMeters>49207.913830073</DistanceMeters>
          </Trackpoint>
          <Trackpoint>
            <Time>2020-03-07T15:22:01.000Z</Time>
            <Position>
              <LatitudeDegrees>40.81298849545419216156005859375</LatitudeDegrees>
              <LongitudeDegrees>-3.7681286595761775970458984375</LongitudeDegrees>
            </Position>
            <AltitudeMeters>1136.800048828125</AltitudeMeters>
            <DistanceMeters>49211.901556821</DistanceMeters>
          </Trackpoint>
          <Trackpoint>
            <Time>2020-03-07T15:22:02.000Z</Time>
            <Position>
              <LatitudeDegrees>40.8130180835723876953125</LatitudeDegrees>
              <LongitudeDegrees>-3.7681107223033905029296875</LongitudeDegrees>
            </Position>
            <AltitudeMeters>1137</AltitudeMeters>
            <DistanceMeters>49215.525053909</DistanceMeters>
          </Trackpoint>
          <Trackpoint>
            <Time>2020-03-07T15:22:03.000Z</Time>
            <Position>
              <LatitudeDegrees>40.81304633058607578277587890625</LatitudeDegrees>
              <LongitudeDegrees>-3.76809119246900081634521484375</LongitudeDegrees>
            </Position>
            <AltitudeMeters>1137.199951171875</AltitudeMeters>
            <DistanceMeters>49219.074273068</DistanceMeters>
          </Trackpoint>
          <Trackpoint>
            <Time>2020-03-07T15:22:04.000Z</Time>
            <Position>
              <LatitudeDegrees>40.81306862644851207733154296875</LatitudeDegrees>
              <LongitudeDegrees>-3.768071494996547698974609375</LongitudeDegrees>
            </Position>
            <AltitudeMeters>1137.4000244140625</AltitudeMeters>
            <DistanceMeters>49222.059685175</DistanceMeters>
          </Trackpoint>
          <Trackpoint>
            <Time>2020-03-07T15:22:05.000Z</Time>
            <Position>
              <LatitudeDegrees>40.81309025175869464874267578125</LatitudeDegrees>
              <LongitudeDegrees>-3.7680579163134098052978515625</LongitudeDegrees>
            </Position>
            <AltitudeMeters>1137.800048828125</AltitudeMeters>
            <DistanceMeters>49224.725519034</DistanceMeters>
          </Trackpoint>
          <Trackpoint>
            <Time>2020-03-07T15:22:06.000Z</Time>
            <Position>
              <LatitudeDegrees>40.81311053596436977386474609375</LatitudeDegrees>
              <LongitudeDegrees>-3.76805615611374378204345703125</LongitudeDegrees>
            </Position>
            <AltitudeMeters>1138</AltitudeMeters>
            <DistanceMeters>49226.988272521</DistanceMeters>
          </Trackpoint>
          <Trackpoint>
            <Time>2020-03-07T15:22:07.000Z</Time>
            <Position>
              <LatitudeDegrees>40.81312998197972774505615234375</LatitudeDegrees>
              <LongitudeDegrees>-3.76805699430406093597412109375</LongitudeDegrees>
            </Position>
            <AltitudeMeters>1138.199951171875</AltitudeMeters>
            <DistanceMeters>49229.15521501</DistanceMeters>
          </Trackpoint>
          <Trackpoint>
            <Time>2020-03-07T15:58:31.000Z</Time>
            <Position>
              <LatitudeDegrees>40.8131466619670391082763671875</LatitudeDegrees>
              <LongitudeDegrees>-3.7684860639274120330810546875</LongitudeDegrees>
            </Position>
            <AltitudeMeters>1141.800048828125</AltitudeMeters>
            <DistanceMeters>49265.346922326</DistanceMeters>
          </Trackpoint>
          <Trackpoint>
            <Time>2020-03-07T15:58:32.000Z</Time>
            <Position>
              <LatitudeDegrees>40.813121013343334197998046875</LatitudeDegrees>
              <LongitudeDegrees>-3.76849536783993244171142578125</LongitudeDegrees>
            </Position>
            <AltitudeMeters>1141.800048828125</AltitudeMeters>
            <DistanceMeters>49268.306512526</DistanceMeters>
          </Trackpoint>
          <Trackpoint>
            <Time>2020-03-07T15:58:33.000Z</Time>
            <Position>
              <LatitudeDegrees>40.81309787929058074951171875</LatitudeDegrees>
              <LongitudeDegrees>-3.7684763409197330474853515625</LongitudeDegrees>
            </Position>
            <AltitudeMeters>1141.800048828125</AltitudeMeters>
            <DistanceMeters>49271.341422405</DistanceMeters>
          </Trackpoint>
          <Trackpoint>
            <Time>2020-03-07T15:58:34.000Z</Time>
            <Position>
              <LatitudeDegrees>40.8130802772939205169677734375</LatitudeDegrees>
              <LongitudeDegrees>-3.768441639840602874755859375</LongitudeDegrees>
            </Position>
            <AltitudeMeters>1141.800048828125</AltitudeMeters>
            <DistanceMeters>49274.861261162</DistanceMeters>
          </Trackpoint>
          <Trackpoint>
            <Time>2020-03-07T15:58:35.000Z</Time>
            <Position>
              <LatitudeDegrees>40.813055299222469329833984375</LatitudeDegrees>
              <LongitudeDegrees>-3.76840509474277496337890625</LongitudeDegrees>
            </Position>
            <AltitudeMeters>1141.800048828125</AltitudeMeters>
            <DistanceMeters>49279.008826186</DistanceMeters>
          </Trackpoint>
          <Trackpoint>
            <Time>2020-03-07T15:58:36.000Z</Time>
            <Position>
              <LatitudeDegrees>40.81302721984684467315673828125</LatitudeDegrees>
              <LongitudeDegrees>-3.768365196883678436279296875</LongitudeDegrees>
            </Position>
            <AltitudeMeters>1141.800048828125</AltitudeMeters>
            <DistanceMeters>49283.597740902</DistanceMeters>
          </Trackpoint>
          <Trackpoint>
            <Time>2020-03-07T15:58:37.000Z</Time>
            <Position>
              <LatitudeDegrees>40.81299285404384136199951171875</LatitudeDegrees>
              <LongitudeDegrees>-3.76832705922424793243408203125</LongitudeDegrees>
            </Position>
            <AltitudeMeters>1141.5999755859375</AltitudeMeters>
            <DistanceMeters>49288.591844539</DistanceMeters>
          </Trackpoint>
          <Trackpoint>
            <Time>2020-03-07T15:58:38.000Z</Time>
            <Position>
              <LatitudeDegrees>40.812954716384410858154296875</LatitudeDegrees>
              <LongitudeDegrees>-3.76831783913075923919677734375</LongitudeDegrees>
            </Position>
            <AltitudeMeters>1141.5999755859375</AltitudeMeters>
            <DistanceMeters>49292.906936383</DistanceMeters>
          </Trackpoint>
          <Trackpoint>
            <Time>2020-03-07T15:58:39.000Z</Time>
            <Position>
              <LatitudeDegrees>40.812903083860874176025390625</LatitudeDegrees>
              <LongitudeDegrees>-3.768323957920074462890625</LongitudeDegrees>
            </Position>
            <AltitudeMeters>1141.4000244140625</AltitudeMeters>
            <DistanceMeters>49298.676239788</DistanceMeters>
          </Trackpoint>
          <Trackpoint>
            <Time>2020-03-07T15:58:40.000Z</Time>
            <Position>
              <LatitudeDegrees>40.8128418959677219390869140625</LatitudeDegrees>
              <LongitudeDegrees>-3.7683412246406078338623046875</LongitudeDegrees>
            </Position>
            <AltitudeMeters>1141.199951171875</AltitudeMeters>
            <DistanceMeters>49305.63982439</DistanceMeters>
          </Trackpoint>
          <Trackpoint>
            <Time>2020-03-07T15:58:41.000Z</Time>
            <Position>
              <LatitudeDegrees>40.81277224235236644744873046875</LatitudeDegrees>
              <LongitudeDegrees>-3.76837315969169139862060546875</LongitudeDegrees>
            </Position>
            <AltitudeMeters>1141</AltitudeMeters>
            <DistanceMeters>49313.845203721</DistanceMeters>
          </Trackpoint>
          <Trackpoint>
            <Time>2020-03-07T15:58:42.000Z</Time>
            <Position>
              <LatitudeDegrees>40.81270602531731128692626953125</LatitudeDegrees>
              <LongitudeDegrees>-3.76842211000621318817138671875</LongitudeDegrees>
            </Position>
            <AltitudeMeters>1140.800048828125</AltitudeMeters>
            <DistanceMeters>49322.290828258</DistanceMeters>
          </Trackpoint>
          <Trackpoint>
            <Time>2020-03-07T15:58:43.000Z</Time>
            <Position>
              <LatitudeDegrees>40.81264131702482700347900390625</LatitudeDegrees>
              <LongitudeDegrees>-3.76847927458584308624267578125</LongitudeDegrees>
            </Position>
            <AltitudeMeters>1140.4000244140625</AltitudeMeters>
            <DistanceMeters>49330.95495115</DistanceMeters>
          </Trackpoint>
          <Trackpoint>
            <Time>2020-03-07T15:58:44.000Z</Time>
            <Position>
              <LatitudeDegrees>40.812577866017818450927734375</LatitudeDegrees>
              <LongitudeDegrees>-3.76854247413575649261474609375</LongitudeDegrees>
            </Position>
            <AltitudeMeters>1140</AltitudeMeters>
            <DistanceMeters>49339.799074744</DistanceMeters>
          </Trackpoint>
          <Trackpoint>
            <Time>2020-03-07T15:58:45.000Z</Time>
            <Position>
              <LatitudeDegrees>40.81251793541014194488525390625</LatitudeDegrees>
              <LongitudeDegrees>-3.7686114571988582611083984375</LongitudeDegrees>
            </Position>
            <AltitudeMeters>1139.4000244140625</AltitudeMeters>
            <DistanceMeters>49348.645240154</DistanceMeters>
          </Trackpoint>
          <Trackpoint>
            <Time>2020-03-07T15:58:46.000Z</Time>
            <Position>
              <LatitudeDegrees>40.8124546520411968231201171875</LatitudeDegrees>
              <LongitudeDegrees>-3.76867675222456455230712890625</LongitudeDegrees>
            </Position>
            <AltitudeMeters>1138.800048828125</AltitudeMeters>
            <DistanceMeters>49357.58179408</DistanceMeters>
          </Trackpoint>
          <Trackpoint>
            <Time>2020-03-07T15:58:47.000Z</Time>
            <Position>
              <LatitudeDegrees>40.8123852498829364776611328125</LatitudeDegrees>
              <LongitudeDegrees>-3.76873374916613101959228515625</LongitudeDegrees>
            </Position>
            <AltitudeMeters>1138.199951171875</AltitudeMeters>
            <DistanceMeters>49366.677593132</DistanceMeters>
          </Trackpoint>
          <Trackpoint>
            <Time>2020-03-07T15:58:48.000Z</Time>
            <Position>
              <LatitudeDegrees>40.81231006421148777008056640625</LatitudeDegrees>
              <LongitudeDegrees>-3.7687827832996845245361328125</LongitudeDegrees>
            </Position>
            <AltitudeMeters>1136.4000244140625</AltitudeMeters>
            <DistanceMeters>49376.010068007</DistanceMeters>
          </Trackpoint>
          <Trackpoint>
            <Time>2020-03-07T15:58:49.000Z</Time>
            <Position>
              <LatitudeDegrees>40.81223647110164165496826171875</LatitudeDegrees>
              <LongitudeDegrees>-3.76882343553006649017333984375</LongitudeDegrees>
            </Position>
            <AltitudeMeters>1135.5999755859375</AltitudeMeters>
            <DistanceMeters>49384.888330071</DistanceMeters>
          </Trackpoint>
          <Trackpoint>
            <Time>2020-03-07T15:58:50.000Z</Time>
            <Position>
              <LatitudeDegrees>40.81216069869697093963623046875</LatitudeDegrees>
              <LongitudeDegrees>-3.76886048354208469390869140625</LongitudeDegrees>
            </Position>
            <AltitudeMeters>1135</AltitudeMeters>
            <DistanceMeters>49393.881292021</DistanceMeters>
          </Trackpoint>
          <Trackpoint>
            <Time>2020-03-07T15:58:51.000Z</Time>
            <Position>
              <LatitudeDegrees>40.8120828308165073394775390625</LatitudeDegrees>
              <LongitudeDegrees>-3.76889736391603946685791015625</LongitudeDegrees>
            </Position>
            <AltitudeMeters>1134.4000244140625</AltitudeMeters>
            <DistanceMeters>49403.088591172</DistanceMeters>
          </Trackpoint>
          <Trackpoint>
            <Time>2020-03-07T15:58:52.000Z</Time>
            <Position>
              <LatitudeDegrees>40.8120057173073291778564453125</LatitudeDegrees>
              <LongitudeDegrees>-3.76893776468932628631591796875</LongitudeDegrees>
            </Position>
            <AltitudeMeters>1134</AltitudeMeters>
            <DistanceMeters>49412.321843671</DistanceMeters>
          </Trackpoint>
          <Trackpoint>
            <Time>2020-03-07T15:58:53.000Z</Time>
            <Position>
              <LatitudeDegrees>40.81192986108362674713134765625</LatitudeDegrees>
              <LongitudeDegrees>-3.768980763852596282958984375</LongitudeDegrees>
            </Position>
            <AltitudeMeters>1133.5999755859375</AltitudeMeters>
            <DistanceMeters>49421.508523944</DistanceMeters>
          </Trackpoint>
          <Trackpoint>
            <Time>2020-03-07T15:58:54.000Z</Time>
            <Position>
              <LatitudeDegrees>40.81185224466025829315185546875</LatitudeDegrees>
              <LongitudeDegrees>-3.76902594231069087982177734375</LongitudeDegrees>
            </Position>
            <AltitudeMeters>1133.4000244140625</AltitudeMeters>
            <DistanceMeters>49430.948747693</DistanceMeters>
          </Trackpoint>
          <Trackpoint>
            <Time>2020-03-07T15:58:55.000Z</Time>
            <Position>
              <LatitudeDegrees>40.81176859326660633087158203125</LatitudeDegrees>
              <LongitudeDegrees>-3.76907355152070522308349609375</LongitudeDegrees>
            </Position>
            <AltitudeMeters>1133</AltitudeMeters>
            <DistanceMeters>49441.086811122</DistanceMeters>
          </Trackpoint>
          <Trackpoint>
            <Time>2020-03-07T15:58:56.000Z</Time>
            <Position>
              <LatitudeDegrees>40.8116836845874786376953125</LatitudeDegrees>
              <LongitudeDegrees>-3.769123256206512451171875</LongitudeDegrees>
            </Position>
            <AltitudeMeters>1132.5999755859375</AltitudeMeters>
            <DistanceMeters>49451.423341704</DistanceMeters>
          </Trackpoint>
          <Trackpoint>
            <Time>2020-03-07T15:58:57.000Z</Time>
            <Position>
              <LatitudeDegrees>40.81159559078514575958251953125</LatitudeDegrees>
              <LongitudeDegrees>-3.76917463727295398712158203125</LongitudeDegrees>
            </Position>
            <AltitudeMeters>1132.199951171875</AltitudeMeters>
            <DistanceMeters>49462.141580017</DistanceMeters>
          </Trackpoint>
          <Trackpoint>
            <Time>2020-03-07T15:58:58.000Z</Time>
            <Position>
              <LatitudeDegrees>40.8115038089454174041748046875</LatitudeDegrees>
              <LongitudeDegrees>-3.76922710798680782318115234375</LongitudeDegrees>
            </Position>
            <AltitudeMeters>1131.800048828125</AltitudeMeters>
            <DistanceMeters>49473.272287488</DistanceMeters>
          </Trackpoint>
          <Trackpoint>
            <Time>2020-03-07T15:58:59.000Z</Time>
            <Position>
              <LatitudeDegrees>40.81141018308699131011962890625</LatitudeDegrees>
              <LongitudeDegrees>-3.76928024925291538238525390625</LongitudeDegrees>
            </Position>
            <AltitudeMeters>1131.199951171875</AltitudeMeters>
            <DistanceMeters>49484.613557649</DistanceMeters>
          </Trackpoint>
          <Trackpoint>
            <Time>2020-03-07T15:59:00.000Z</Time>
            <Position>
              <LatitudeDegrees>40.811313875019550323486328125</LatitudeDegrees>
              <LongitudeDegrees>-3.769334815442562103271484375</LongitudeDegrees>
            </Position>
            <AltitudeMeters>1130.800048828125</AltitudeMeters>
            <DistanceMeters>49496.276707805</DistanceMeters>
          </Trackpoint>
          <Trackpoint>
            <Time>2020-03-07T15:59:01.000Z</Time>
            <Position>
              <LatitudeDegrees>40.8112164773046970367431640625</LatitudeDegrees>
              <LongitudeDegrees>-3.76939021982252597808837890625</LongitudeDegrees>
            </Position>
            <AltitudeMeters>1130.199951171875</AltitudeMeters>
            <DistanceMeters>49508.079163448</DistanceMeters>
          </Trackpoint>
          <Trackpoint>
            <Time>2020-03-07T15:59:02.000Z</Time>
            <Position>
              <LatitudeDegrees>40.8111182413995265960693359375</LatitudeDegrees>
              <LongitudeDegrees>-3.769447803497314453125</LongitudeDegrees>
            </Position>
            <AltitudeMeters>1129.5999755859375</AltitudeMeters>
            <DistanceMeters>49520.040833953</DistanceMeters>
          </Trackpoint>
          <Trackpoint>
            <Time>2020-03-07T15:59:03.000Z</Time>
            <Position>
              <LatitudeDegrees>40.81101782619953155517578125</LatitudeDegrees>
              <LongitudeDegrees>-3.76950572244822978973388671875</LongitudeDegrees>
            </Position>
            <AltitudeMeters>1128.5999755859375</AltitudeMeters>
            <DistanceMeters>49532.236134647</DistanceMeters>
          </Trackpoint>
          <Trackpoint>
            <Time>2020-03-07T15:59:04.000Z</Time>
            <Position>
              <LatitudeDegrees>40.8109167404472827911376953125</LatitudeDegrees>
              <LongitudeDegrees>-3.769567497074604034423828125</LongitudeDegrees>
            </Position>
            <AltitudeMeters>1127.800048828125</AltitudeMeters>
            <DistanceMeters>49544.632660004</DistanceMeters>
          </Trackpoint>
          <Trackpoint>
            <Time>2020-03-07T15:59:05.000Z</Time>
            <Position>
              <LatitudeDegrees>40.8108131401240825653076171875</LatitudeDegrees>
              <LongitudeDegrees>-3.76963178627192974090576171875</LongitudeDegrees>
            </Position>
            <AltitudeMeters>1127.199951171875</AltitudeMeters>
            <DistanceMeters>49557.371911703</DistanceMeters>
          </Trackpoint>
          <Trackpoint>
            <Time>2020-03-07T15:59:06.000Z</Time>
            <Position>
              <LatitudeDegrees>40.81070761196315288543701171875</LatitudeDegrees>
              <LongitudeDegrees>-3.7696957401931285858154296875</LongitudeDegrees>
            </Position>
            <AltitudeMeters>1126.5999755859375</AltitudeMeters>
            <DistanceMeters>49570.29414733</DistanceMeters>
          </Trackpoint>
          <Trackpoint>
            <Time>2020-03-07T15:59:07.000Z</Time>
            <Position>
              <LatitudeDegrees>40.810602419078350067138671875</LatitudeDegrees>
              <LongitudeDegrees>-3.7697594426572322845458984375</LongitudeDegrees>
            </Position>
            <AltitudeMeters>1125.800048828125</AltitudeMeters>
            <DistanceMeters>49583.173334968</DistanceMeters>
          </Trackpoint>
          <Trackpoint>
            <Time>2020-03-07T15:59:08.000Z</Time>
            <Position>
              <LatitudeDegrees>40.81049756146967411041259765625</LatitudeDegrees>
              <LongitudeDegrees>-3.76982289366424083709716796875</LongitudeDegrees>
            </Position>
            <AltitudeMeters>1125.199951171875</AltitudeMeters>
            <DistanceMeters>49596.010033724</DistanceMeters>
          </Trackpoint>
          <Trackpoint>
            <Time>2020-03-07T15:59:09.000Z</Time>
            <Position>
              <LatitudeDegrees>40.81039429642260074615478515625</LatitudeDegrees>
              <LongitudeDegrees>-3.76988642849028110504150390625</LongitudeDegrees>
            </Position>
            <AltitudeMeters>1124.5999755859375</AltitudeMeters>
            <DistanceMeters>49608.688890961</DistanceMeters>
          </Trackpoint>
          <Trackpoint>
            <Time>2020-03-07T15:59:10.000Z</Time>
            <Position>
              <LatitudeDegrees>40.8102924562990665435791015625</LatitudeDegrees>
              <LongitudeDegrees>-3.7699542380869388580322265625</LongitudeDegrees>
            </Position>
            <AltitudeMeters>1124</AltitudeMeters>
            <DistanceMeters>49621.381984513</DistanceMeters>
          </Trackpoint>
          <Trackpoint>
            <Time>2020-03-07T15:59:11.000Z</Time>
            <Position>
              <LatitudeDegrees>40.81019899807870388031005859375</LatitudeDegrees>
              <LongitudeDegrees>-3.77003856003284454345703125</LongitudeDegrees>
            </Position>
            <AltitudeMeters>1123.4000244140625</AltitudeMeters>
            <DistanceMeters>49633.978312279</DistanceMeters>
          </Trackpoint>
          <Trackpoint>
            <Time>2020-03-07T15:59:12.000Z</Time>
            <Position>
              <LatitudeDegrees>40.81011869944632053375244140625</LatitudeDegrees>
              <LongitudeDegrees>-3.77014475874602794647216796875</LongitudeDegrees>
            </Position>
            <AltitudeMeters>1122.5999755859375</AltitudeMeters>
            <DistanceMeters>49646.623651091</DistanceMeters>
          </Trackpoint>
          <Trackpoint>
            <Time>2020-03-07T15:59:13.000Z</Time>
            <Position>
              <LatitudeDegrees>40.81005499698221683502197265625</LatitudeDegrees>
              <LongitudeDegrees>-3.77026814036071300506591796875</LongitudeDegrees>
            </Position>
            <AltitudeMeters>1121.5999755859375</AltitudeMeters>
            <DistanceMeters>49659.205274201</DistanceMeters>
          </Trackpoint>
          <Trackpoint>
            <Time>2020-03-07T15:59:14.000Z</Time>
            <Position>
              <LatitudeDegrees>40.8100148476660251617431640625</LatitudeDegrees>
              <LongitudeDegrees>-3.7704108841717243194580078125</LongitudeDegrees>
            </Position>
            <AltitudeMeters>1120.5999755859375</AltitudeMeters>
            <DistanceMeters>49672.033880641</DistanceMeters>
          </Trackpoint>
          <Trackpoint>
            <Time>2020-03-07T15:59:15.000Z</Time>
            <Position>
              <LatitudeDegrees>40.80998651683330535888671875</LatitudeDegrees>
              <LongitudeDegrees>-3.770561926066875457763671875</LongitudeDegrees>
            </Position>
            <AltitudeMeters>1119.199951171875</AltitudeMeters>
            <DistanceMeters>49685.142746142</DistanceMeters>
          </Trackpoint>
          <Trackpoint>
            <Time>2020-03-07T15:59:16.000Z</Time>
            <Position>
              <LatitudeDegrees>40.8099675737321376800537109375</LatitudeDegrees>
              <LongitudeDegrees>-3.77071405760943889617919921875</LongitudeDegrees>
            </Position>
            <AltitudeMeters>1118.5999755859375</AltitudeMeters>
            <DistanceMeters>49698.130850624</DistanceMeters>
          </Trackpoint>
          <Trackpoint>
            <Time>2020-03-07T15:59:17.000Z</Time>
            <Position>
              <LatitudeDegrees>40.80996162258088588714599609375</LatitudeDegrees>
              <LongitudeDegrees>-3.7708638422191143035888671875</LongitudeDegrees>
            </Position>
            <AltitudeMeters>1118</AltitudeMeters>
            <DistanceMeters>49710.766188037</DistanceMeters>
          </Trackpoint>
          <Trackpoint>
            <Time>2020-03-07T15:59:18.000Z</Time>
            <Position>
              <LatitudeDegrees>40.80997184850275516510009765625</LatitudeDegrees>
              <LongitudeDegrees>-3.771009854972362518310546875</LongitudeDegrees>
            </Position>
            <AltitudeMeters>1117</AltitudeMeters>
            <DistanceMeters>49723.118929909</DistanceMeters>
          </Trackpoint>
          <Trackpoint>
            <Time>2020-03-07T15:59:19.000Z</Time>
            <Position>
              <LatitudeDegrees>40.8099967427551746368408203125</LatitudeDegrees>
              <LongitudeDegrees>-3.77115494571626186370849609375</LongitudeDegrees>
            </Position>
            <AltitudeMeters>1116.199951171875</AltitudeMeters>
            <DistanceMeters>49735.651653063</DistanceMeters>
          </Trackpoint>
          <Trackpoint>
            <Time>2020-03-07T15:59:20.000Z</Time>
            <Position>
              <LatitudeDegrees>40.8100326173007488250732421875</LatitudeDegrees>
              <LongitudeDegrees>-3.771298192441463470458984375</LongitudeDegrees>
            </Position>
            <AltitudeMeters>1115.199951171875</AltitudeMeters>
            <DistanceMeters>49748.362164369</DistanceMeters>
          </Trackpoint>
          <Trackpoint>
            <Time>2020-03-07T15:59:21.000Z</Time>
            <Position>
              <LatitudeDegrees>40.8100725151598453521728515625</LatitudeDegrees>
              <LongitudeDegrees>-3.77144135534763336181640625</LongitudeDegrees>
            </Position>
            <AltitudeMeters>1114.199951171875</AltitudeMeters>
            <DistanceMeters>49761.213627249</DistanceMeters>
          </Trackpoint>
          <Trackpoint>
            <Time>2020-03-07T15:59:22.000Z</Time>
            <Position>
              <LatitudeDegrees>40.81010880880057811737060546875</LatitudeDegrees>
              <LongitudeDegrees>-3.7715870328247547149658203125</LongitudeDegrees>
            </Position>
            <AltitudeMeters>1113.199951171875</AltitudeMeters>
            <DistanceMeters>49774.13341684</DistanceMeters>
          </Trackpoint>
          <Trackpoint>
            <Time>2020-03-07T15:59:23.000Z</Time>
            <Position>
              <LatitudeDegrees>40.81010880880057811737060546875</LatitudeDegrees>
              <LongitudeDegrees>-3.7715870328247547149658203125</LongitudeDegrees>
            </Position>
            <AltitudeMeters>1112.4000244140625</AltitudeMeters>
            <DistanceMeters>49774.13341684</DistanceMeters>
          </Trackpoint>
          <Trackpoint>
            <Time>2020-03-07T15:59:24.000Z</Time>
            <Position>
              <LatitudeDegrees>40.8101432584226131439208984375</LatitudeDegrees>
              <LongitudeDegrees>-3.77173430286347866058349609375</LongitudeDegrees>
            </Position>
            <AltitudeMeters>1111.4000244140625</AltitudeMeters>
            <DistanceMeters>49787.119087693</DistanceMeters>
          </Trackpoint>
          <Trackpoint>
            <Time>2020-03-07T15:59:25.000Z</Time>
            <Position>
              <LatitudeDegrees>40.8101781271398067474365234375</LatitudeDegrees>
              <LongitudeDegrees>-3.77188249491155147552490234375</LongitudeDegrees>
            </Position>
            <AltitudeMeters>1110.199951171875</AltitudeMeters>
            <DistanceMeters>49800.192083784</DistanceMeters>
          </Trackpoint>
          <Trackpoint>
            <Time>2020-03-07T15:59:26.000Z</Time>
            <Position>
              <LatitudeDegrees>40.81021307967603206634521484375</LatitudeDegrees>
              <LongitudeDegrees>-3.7720292620360851287841796875</LongitudeDegrees>
            </Position>
            <AltitudeMeters>1109.199951171875</AltitudeMeters>
            <DistanceMeters>49813.153393215</DistanceMeters>
          </Trackpoint>
          <Trackpoint>
            <Time>2020-03-07T15:59:27.000Z</Time>
            <Position>
              <LatitudeDegrees>40.810285247862339019775390625</LatitudeDegrees>
              <LongitudeDegrees>-3.77232187427580356597900390625</LongitudeDegrees>
            </Position>
            <AltitudeMeters>1108</AltitudeMeters>
            <DistanceMeters>49839.079495316</DistanceMeters>
          </Trackpoint>
          <Trackpoint>
            <Time>2020-03-07T15:59:28.000Z</Time>
            <Position>
              <LatitudeDegrees>40.8103155903518199920654296875</LatitudeDegrees>
              <LongitudeDegrees>-3.772470653057098388671875</LongitudeDegrees>
            </Position>
            <AltitudeMeters>1107</AltitudeMeters>
            <DistanceMeters>49852.060297543</DistanceMeters>
          </Trackpoint>
          <Trackpoint>
            <Time>2020-03-07T15:59:29.000Z</Time>
            <Position>
              <LatitudeDegrees>40.8103380538523197174072265625</LatitudeDegrees>
              <LongitudeDegrees>-3.7726203538477420806884765625</LongitudeDegrees>
            </Position>
            <AltitudeMeters>1106.4000244140625</AltitudeMeters>
            <DistanceMeters>49864.917029215</DistanceMeters>
          </Trackpoint>
          <Trackpoint>
            <Time>2020-03-07T15:59:30.000Z</Time>
            <Position>
              <LatitudeDegrees>40.81035456620156764984130859375</LatitudeDegrees>
              <LongitudeDegrees>-3.772770054638385772705078125</LongitudeDegrees>
            </Position>
            <AltitudeMeters>1105.5999755859375</AltitudeMeters>
            <DistanceMeters>49877.661596097</DistanceMeters>
          </Trackpoint>
          <Trackpoint>
            <Time>2020-03-07T15:59:31.000Z</Time>
            <Position>
              <LatitudeDegrees>40.81036311574280261993408203125</LatitudeDegrees>
              <LongitudeDegrees>-3.7729180790483951568603515625</LongitudeDegrees>
            </Position>
            <AltitudeMeters>1104.5999755859375</AltitudeMeters>
            <DistanceMeters>49890.1676316</DistanceMeters>
          </Trackpoint>
          <Trackpoint>
            <Time>2020-03-07T15:59:32.000Z</Time>
            <Position>
              <LatitudeDegrees>40.81036311574280261993408203125</LatitudeDegrees>
              <LongitudeDegrees>-3.7729180790483951568603515625</LongitudeDegrees>
            </Position>
            <AltitudeMeters>1103.5999755859375</AltitudeMeters>
            <DistanceMeters>49890.262658315</DistanceMeters>
          </Trackpoint>
          <Trackpoint>
            <Time>2020-03-07T15:59:33.000Z</Time>
            <Position>
              <LatitudeDegrees>40.81033394671976566314697265625</LatitudeDegrees>
              <LongitudeDegrees>-3.7731816060841083526611328125</LongitudeDegrees>
            </Position>
            <AltitudeMeters>1102.800048828125</AltitudeMeters>
            <DistanceMeters>49912.699027037</DistanceMeters>
          </Trackpoint>
          <Trackpoint>
            <Time>2020-03-07T15:59:34.000Z</Time>
            <Position>
              <LatitudeDegrees>40.81028164364397525787353515625</LatitudeDegrees>
              <LongitudeDegrees>-3.7732764892280101776123046875</LongitudeDegrees>
            </Position>
            <AltitudeMeters>1102</AltitudeMeters>
            <DistanceMeters>49922.587286122</DistanceMeters>
          </Trackpoint>
          <Trackpoint>
            <Time>2020-03-07T15:59:35.000Z</Time>
            <Position>
              <LatitudeDegrees>40.8102046139538288116455078125</LatitudeDegrees>
              <LongitudeDegrees>-3.77334178425371646881103515625</LongitudeDegrees>
            </Position>
            <AltitudeMeters>1101.4000244140625</AltitudeMeters>
            <DistanceMeters>49932.773334342</DistanceMeters>
          </Trackpoint>
          <Trackpoint>
            <Time>2020-03-07T15:59:36.000Z</Time>
            <Position>
              <LatitudeDegrees>40.8101154305040836334228515625</LatitudeDegrees>
              <LongitudeDegrees>-3.773376233875751495361328125</LongitudeDegrees>
            </Position>
            <AltitudeMeters>1100.800048828125</AltitudeMeters>
            <DistanceMeters>49943.115105245</DistanceMeters>
          </Trackpoint>
          <Trackpoint>
            <Time>2020-03-07T15:59:37.000Z</Time>
            <Position>
              <LatitudeDegrees>40.81002884544432163238525390625</LatitudeDegrees>
              <LongitudeDegrees>-3.77339056693017482757568359375</LongitudeDegrees>
            </Position>
            <AltitudeMeters>1100</AltitudeMeters>
            <DistanceMeters>49952.827839598</DistanceMeters>
          </Trackpoint>
          <Trackpoint>
            <Time>2020-03-07T15:59:38.000Z</Time>
            <Position>
              <LatitudeDegrees>40.809950642287731170654296875</LatitudeDegrees>
              <LongitudeDegrees>-3.77337179146707057952880859375</LongitudeDegrees>
            </Position>
            <AltitudeMeters>1099.5999755859375</AltitudeMeters>
            <DistanceMeters>49961.675025739</DistanceMeters>
          </Trackpoint>
          <Trackpoint>
            <Time>2020-03-07T15:59:39.000Z</Time>
            <Position>
              <LatitudeDegrees>40.80989356152713298797607421875</LatitudeDegrees>
              <LongitudeDegrees>-3.7733073346316814422607421875</LongitudeDegrees>
            </Position>
            <AltitudeMeters>1099.199951171875</AltitudeMeters>
            <DistanceMeters>49970.03251587</DistanceMeters>
          </Trackpoint>
          <Trackpoint>
            <Time>2020-03-07T15:59:40.000Z</Time>
            <Position>
              <LatitudeDegrees>40.80984477885067462921142578125</LatitudeDegrees>
              <LongitudeDegrees>-3.77321119420230388641357421875</LongitudeDegrees>
            </Position>
            <AltitudeMeters>1099</AltitudeMeters>
            <DistanceMeters>49979.782830983</DistanceMeters>
          </Trackpoint>
          <Trackpoint>
            <Time>2020-03-07T15:59:41.000Z</Time>
            <Position>
              <LatitudeDegrees>40.809820555150508880615234375</LatitudeDegrees>
              <LongitudeDegrees>-3.7731076776981353759765625</LongitudeDegrees>
            </Position>
            <AltitudeMeters>1098.5999755859375</AltitudeMeters>
            <DistanceMeters>49988.9113328</DistanceMeters>
          </Trackpoint>
          <Trackpoint>
            <Time>2020-03-07T15:59:42.000Z</Time>
            <Position>
              <LatitudeDegrees>40.80980052240192890167236328125</LatitudeDegrees>
              <LongitudeDegrees>-3.77300282008945941925048828125</LongitudeDegrees>
            </Position>
            <AltitudeMeters>1098.4000244140625</AltitudeMeters>
            <DistanceMeters>49998.022011297</DistanceMeters>
          </Trackpoint>
          <Trackpoint>
            <Time>2020-03-07T15:59:43.000Z</Time>
            <Position>
              <LatitudeDegrees>40.80977118574082851409912109375</LatitudeDegrees>
              <LongitudeDegrees>-3.77290072850883007049560546875</LongitudeDegrees>
            </Position>
            <AltitudeMeters>1097.5999755859375</AltitudeMeters>
            <DistanceMeters>50007.222442623</DistanceMeters>
          </Trackpoint>
          <Trackpoint>
            <Time>2020-03-07T15:59:44.000Z</Time>
            <Position>
              <LatitudeDegrees>40.80972927622497081756591796875</LatitudeDegrees>
              <LongitudeDegrees>-3.7728067673742771148681640625</LongitudeDegrees>
            </Position>
            <AltitudeMeters>1096.800048828125</AltitudeMeters>
            <DistanceMeters>50016.410105797</DistanceMeters>
          </Trackpoint>
          <Trackpoint>
            <Time>2020-03-07T15:59:45.000Z</Time>
            <Position>
              <LatitudeDegrees>40.80967429094016551971435546875</LatitudeDegrees>
              <LongitudeDegrees>-3.7727296538650989532470703125</LongitudeDegrees>
            </Position>
            <AltitudeMeters>1096.199951171875</AltitudeMeters>
            <DistanceMeters>50025.335031809</DistanceMeters>
          </Trackpoint>
          <Trackpoint>
            <Time>2020-03-07T15:59:46.000Z</Time>
            <Position>
              <LatitudeDegrees>40.8096061460673809051513671875</LatitudeDegrees>
              <LongitudeDegrees>-3.77266385592520236968994140625</LongitudeDegrees>
            </Position>
            <AltitudeMeters>1096</AltitudeMeters>
            <DistanceMeters>50034.72826751</DistanceMeters>
          </Trackpoint>
          <Trackpoint>
            <Time>2020-03-07T15:59:47.000Z</Time>
            <Position>
              <LatitudeDegrees>40.80953054130077362060546875</LatitudeDegrees>
              <LongitudeDegrees>-3.77260233275592327117919921875</LongitudeDegrees>
            </Position>
            <AltitudeMeters>1095.800048828125</AltitudeMeters>
            <DistanceMeters>50044.611045804</DistanceMeters>
          </Trackpoint>
          <Trackpoint>
            <Time>2020-03-07T15:59:48.000Z</Time>
            <Position>
              <LatitudeDegrees>40.80945149995386600494384765625</LatitudeDegrees>
              <LongitudeDegrees>-3.77254516817629337310791015625</LongitudeDegrees>
            </Position>
            <AltitudeMeters>1095.5999755859375</AltitudeMeters>
            <DistanceMeters>50054.63985388</DistanceMeters>
          </Trackpoint>
          <Trackpoint>
            <Time>2020-03-07T15:59:49.000Z</Time>
            <Position>
              <LatitudeDegrees>40.80936969257891178131103515625</LatitudeDegrees>
              <LongitudeDegrees>-3.77249135635793209075927734375</LongitudeDegrees>
            </Position>
            <AltitudeMeters>1095.199951171875</AltitudeMeters>
            <DistanceMeters>50064.811264098</DistanceMeters>
          </Trackpoint>
          <Trackpoint>
            <Time>2020-03-07T15:59:50.000Z</Time>
            <Position>
              <LatitudeDegrees>40.80928570590913295745849609375</LatitudeDegrees>
              <LongitudeDegrees>-3.7724371254444122314453125</LongitudeDegrees>
            </Position>
            <AltitudeMeters>1094.800048828125</AltitudeMeters>
            <DistanceMeters>50075.215712974</DistanceMeters>
          </Trackpoint>
          <Trackpoint>
            <Time>2020-03-07T15:59:51.000Z</Time>
            <Position>
              <LatitudeDegrees>40.80919920466840267181396484375</LatitudeDegrees>
              <LongitudeDegrees>-3.77238339744508266448974609375</LongitudeDegrees>
            </Position>
            <AltitudeMeters>1094.199951171875</AltitudeMeters>
            <DistanceMeters>50085.854461874</DistanceMeters>
          </Trackpoint>
          <Trackpoint>
            <Time>2020-03-07T15:59:52.000Z</Time>
            <Position>
              <LatitudeDegrees>40.809110440313816070556640625</LatitudeDegrees>
              <LongitudeDegrees>-3.77233327366411685943603515625</LongitudeDegrees>
            </Position>
            <AltitudeMeters>1093.5999755859375</AltitudeMeters>
            <DistanceMeters>50096.598785829</DistanceMeters>
          </Trackpoint>
          <Trackpoint>
            <Time>2020-03-07T15:59:53.000Z</Time>
            <Position>
              <LatitudeDegrees>40.80902083776891231536865234375</LatitudeDegrees>
              <LongitudeDegrees>-3.7722896039485931396484375</LongitudeDegrees>
            </Position>
            <AltitudeMeters>1093.199951171875</AltitudeMeters>
            <DistanceMeters>50107.228618685</DistanceMeters>
          </Trackpoint>
          <Trackpoint>
            <Time>2020-03-07T15:59:54.000Z</Time>
            <Position>
              <LatitudeDegrees>40.80893148668110370635986328125</LatitudeDegrees>
              <LongitudeDegrees>-3.77224794588983058929443359375</LongitudeDegrees>
            </Position>
            <AltitudeMeters>1092.800048828125</AltitudeMeters>
            <DistanceMeters>50117.774443522</DistanceMeters>
          </Trackpoint>
          <Trackpoint>
            <Time>2020-03-07T15:59:55.000Z</Time>
            <Position>
              <LatitudeDegrees>40.8088443987071514129638671875</LatitudeDegrees>
              <LongitudeDegrees>-3.77220469526946544647216796875</LongitudeDegrees>
            </Position>
            <AltitudeMeters>1092.5999755859375</AltitudeMeters>
            <DistanceMeters>50128.129303622</DistanceMeters>
          </Trackpoint>
          <Trackpoint>
            <Time>2020-03-07T15:59:56.000Z</Time>
            <Position>
              <LatitudeDegrees>40.80876233987510204315185546875</LatitudeDegrees>
              <LongitudeDegrees>-3.7721647135913372039794921875</LongitudeDegrees>
            </Position>
            <AltitudeMeters>1092.199951171875</AltitudeMeters>
            <DistanceMeters>50137.863397936</DistanceMeters>
          </Trackpoint>
          <Trackpoint>
            <Time>2020-03-07T15:59:57.000Z</Time>
            <Position>
              <LatitudeDegrees>40.80868254415690898895263671875</LatitudeDegrees>
              <LongitudeDegrees>-3.77213059924542903900146484375</LongitudeDegrees>
            </Position>
            <AltitudeMeters>1091.5999755859375</AltitudeMeters>
            <DistanceMeters>50147.198291491</DistanceMeters>
          </Trackpoint>
          <Trackpoint>
            <Time>2020-03-07T15:59:58.000Z</Time>
            <Position>
              <LatitudeDegrees>40.80860760994255542755126953125</LatitudeDegrees>
              <LongitudeDegrees>-3.7720978260040283203125</LongitudeDegrees>
            </Position>
            <AltitudeMeters>1091</AltitudeMeters>
            <DistanceMeters>50155.98350995</DistanceMeters>
          </Trackpoint>
          <Trackpoint>
            <Time>2020-03-07T15:59:59.000Z</Time>
            <Position>
              <LatitudeDegrees>40.80853921361267566680908203125</LatitudeDegrees>
              <LongitudeDegrees>-3.77206589095294475555419921875</LongitudeDegrees>
            </Position>
            <AltitudeMeters>1090.5999755859375</AltitudeMeters>
            <DistanceMeters>50164.056866859</DistanceMeters>
          </Trackpoint>
          <Trackpoint>
            <Time>2020-03-07T16:00:00.000Z</Time>
            <Position>
              <LatitudeDegrees>40.8084703981876373291015625</LatitudeDegrees>
              <LongitudeDegrees>-3.7720359675586223602294921875</LongitudeDegrees>
            </Position>
            <AltitudeMeters>1090.199951171875</AltitudeMeters>
            <DistanceMeters>50172.120150954</DistanceMeters>
          </Trackpoint>
          <Trackpoint>
            <Time>2020-03-07T16:00:01.000Z</Time>
            <Position>
              <LatitudeDegrees>40.80840141512453556060791015625</LatitudeDegrees>
              <LongitudeDegrees>-3.77200889401137828826904296875</LongitudeDegrees>
            </Position>
            <AltitudeMeters>1090</AltitudeMeters>
            <DistanceMeters>50180.129499433</DistanceMeters>
          </Trackpoint>
          <Trackpoint>
            <Time>2020-03-07T16:00:02.000Z</Time>
            <Position>
              <LatitudeDegrees>40.80833469517529010772705078125</LatitudeDegrees>
              <LongitudeDegrees>-3.77198274247348308563232421875</LongitudeDegrees>
            </Position>
            <AltitudeMeters>1090</AltitudeMeters>
            <DistanceMeters>50187.875196812</DistanceMeters>
          </Trackpoint>
          <Trackpoint>
            <Time>2020-03-07T16:00:03.000Z</Time>
            <Position>
              <LatitudeDegrees>40.80826856195926666259765625</LatitudeDegrees>
              <LongitudeDegrees>-3.77195323817431926727294921875</LongitudeDegrees>
            </Position>
            <AltitudeMeters>1090</AltitudeMeters>
            <DistanceMeters>50195.643594387</DistanceMeters>
          </Trackpoint>
          <Trackpoint>
            <Time>2020-03-07T16:00:04.000Z</Time>
            <Position>
              <LatitudeDegrees>40.80820242874324321746826171875</LatitudeDegrees>
              <LongitudeDegrees>-3.7719273380935192108154296875</LongitudeDegrees>
            </Position>
            <AltitudeMeters>1090</AltitudeMeters>
            <DistanceMeters>50203.320200334</DistanceMeters>
          </Trackpoint>
          <Trackpoint>
            <Time>2020-03-07T16:00:05.000Z</Time>
            <Position>
              <LatitudeDegrees>40.80813855864107608795166015625</LatitudeDegrees>
              <LongitudeDegrees>-3.77190344966948032379150390625</LongitudeDegrees>
            </Position>
            <AltitudeMeters>1090</AltitudeMeters>
            <DistanceMeters>50210.707878049</DistanceMeters>
          </Trackpoint>
          <Trackpoint>
            <Time>2020-03-07T16:00:06.000Z</Time>
            <Position>
              <LatitudeDegrees>40.80807602964341640472412109375</LatitudeDegrees>
              <LongitudeDegrees>-3.7718790583312511444091796875</LongitudeDegrees>
            </Position>
            <AltitudeMeters>1090</AltitudeMeters>
            <DistanceMeters>50217.964211541</DistanceMeters>
          </Trackpoint>
          <Trackpoint>
            <Time>2020-03-07T16:00:07.000Z</Time>
            <Position>
              <LatitudeDegrees>40.80801375210285186767578125</LatitudeDegrees>
              <LongitudeDegrees>-3.77185248769819736480712890625</LongitudeDegrees>
            </Position>
            <AltitudeMeters>1090</AltitudeMeters>
            <DistanceMeters>50225.248491134</DistanceMeters>
          </Trackpoint>
          <Trackpoint>
            <Time>2020-03-07T16:00:08.000Z</Time>
            <Position>
              <LatitudeDegrees>40.80795164220035076141357421875</LatitudeDegrees>
              <LongitudeDegrees>-3.77182130701839923858642578125</LongitudeDegrees>
            </Position>
            <AltitudeMeters>1090</AltitudeMeters>
            <DistanceMeters>50232.643499109</DistanceMeters>
          </Trackpoint>
          <Trackpoint>
            <Time>2020-03-07T16:00:09.000Z</Time>
            <Position>
              <LatitudeDegrees>40.80789514817297458648681640625</LatitudeDegrees>
              <LongitudeDegrees>-3.7717952392995357513427734375</LongitudeDegrees>
            </Position>
            <AltitudeMeters>1090.199951171875</AltitudeMeters>
            <DistanceMeters>50239.303509281</DistanceMeters>
          </Trackpoint>
          <Trackpoint>
            <Time>2020-03-07T16:00:10.000Z</Time>
            <Position>
              <LatitudeDegrees>40.80783898942172527313232421875</LatitudeDegrees>
              <LongitudeDegrees>-3.77176984213292598724365234375</LongitudeDegrees>
            </Position>
            <AltitudeMeters>1090.4000244140625</AltitudeMeters>
            <DistanceMeters>50245.910429102</DistanceMeters>
          </Trackpoint>
          <Trackpoint>
            <Time>2020-03-07T16:00:11.000Z</Time>
            <Position>
              <LatitudeDegrees>40.8077815733850002288818359375</LatitudeDegrees>
              <LongitudeDegrees>-3.7717426009476184844970703125</LongitudeDegrees>
            </Position>
            <AltitudeMeters>1090.800048828125</AltitudeMeters>
            <DistanceMeters>50252.700684644</DistanceMeters>
          </Trackpoint>
          <Trackpoint>
            <Time>2020-03-07T16:00:12.000Z</Time>
            <Position>
              <LatitudeDegrees>40.80772315151989459991455078125</LatitudeDegrees>
              <LongitudeDegrees>-3.771716617047786712646484375</LongitudeDegrees>
            </Position>
            <AltitudeMeters>1091</AltitudeMeters>
            <DistanceMeters>50259.561718714</DistanceMeters>
          </Trackpoint>
          <Trackpoint>
            <Time>2020-03-07T16:00:13.000Z</Time>
            <Position>
              <LatitudeDegrees>40.8076608739793300628662109375</LatitudeDegrees>
              <LongitudeDegrees>-3.77168702892959117889404296875</LongitudeDegrees>
            </Position>
            <AltitudeMeters>1091.199951171875</AltitudeMeters>
            <DistanceMeters>50266.928587752</DistanceMeters>
          </Trackpoint>
          <Trackpoint>
            <Time>2020-03-07T16:00:14.000Z</Time>
            <Position>
              <LatitudeDegrees>40.80759809352457523345947265625</LatitudeDegrees>
              <LongitudeDegrees>-3.7716544233262538909912109375</LongitudeDegrees>
            </Position>
            <AltitudeMeters>1091.199951171875</AltitudeMeters>
            <DistanceMeters>50274.436299598</DistanceMeters>
          </Trackpoint>
          <Trackpoint>
            <Time>2020-03-07T16:00:15.000Z</Time>
            <Position>
              <LatitudeDegrees>40.80753489397466182708740234375</LatitudeDegrees>
              <LongitudeDegrees>-3.77161762677133083343505859375</LongitudeDegrees>
            </Position>
            <AltitudeMeters>1091.199951171875</AltitudeMeters>
            <DistanceMeters>50282.123485055</DistanceMeters>
          </Trackpoint>
          <Trackpoint>
            <Time>2020-03-07T16:00:16.000Z</Time>
            <Position>
              <LatitudeDegrees>40.8074699342250823974609375</LatitudeDegrees>
              <LongitudeDegrees>-3.7715789861977100372314453125</LongitudeDegrees>
            </Position>
            <AltitudeMeters>1091.4000244140625</AltitudeMeters>
            <DistanceMeters>50290.052950502</DistanceMeters>
          </Trackpoint>
          <Trackpoint>
            <Time>2020-03-07T16:00:17.000Z</Time>
            <Position>
              <LatitudeDegrees>40.80740229226648807525634765625</LatitudeDegrees>
              <LongitudeDegrees>-3.771534226834774017333984375</LongitudeDegrees>
            </Position>
            <AltitudeMeters>1091.4000244140625</AltitudeMeters>
            <DistanceMeters>50298.472875096</DistanceMeters>
          </Trackpoint>
          <Trackpoint>
            <Time>2020-03-07T16:00:18.000Z</Time>
            <Position>
              <LatitudeDegrees>40.80733389593660831451416015625</LatitudeDegrees>
              <LongitudeDegrees>-3.7714857794344425201416015625</LongitudeDegrees>
            </Position>
            <AltitudeMeters>1091.4000244140625</AltitudeMeters>
            <DistanceMeters>50307.110380035</DistanceMeters>
          </Trackpoint>
          <Trackpoint>
            <Time>2020-03-07T16:00:19.000Z</Time>
            <Position>
              <LatitudeDegrees>40.80726273357868194580078125</LatitudeDegrees>
              <LongitudeDegrees>-3.77141327597200870513916015625</LongitudeDegrees>
            </Position>
            <AltitudeMeters>1091.4000244140625</AltitudeMeters>
            <DistanceMeters>50317.113042031</DistanceMeters>
          </Trackpoint>
          <Trackpoint>
            <Time>2020-03-07T16:00:20.000Z</Time>
            <Position>
              <LatitudeDegrees>40.8071928285062313079833984375</LatitudeDegrees>
              <LongitudeDegrees>-3.77136801369488239288330078125</LongitudeDegrees>
            </Position>
            <AltitudeMeters>1091.4000244140625</AltitudeMeters>
            <DistanceMeters>50325.777686026</DistanceMeters>
          </Trackpoint>
          <Trackpoint>
            <Time>2020-03-07T16:00:21.000Z</Time>
            <Position>
              <LatitudeDegrees>40.8071217499673366546630859375</LatitudeDegrees>
              <LongitudeDegrees>-3.77132375724613666534423828125</LongitudeDegrees>
            </Position>
            <AltitudeMeters>1091.4000244140625</AltitudeMeters>
            <DistanceMeters>50334.523758147</DistanceMeters>
          </Trackpoint>
          <Trackpoint>
            <Time>2020-03-07T16:00:22.000Z</Time>
            <Position>
              <LatitudeDegrees>40.80704815685749053955078125</LatitudeDegrees>
              <LongitudeDegrees>-3.77127908170223236083984375</LongitudeDegrees>
            </Position>
            <AltitudeMeters>1091.4000244140625</AltitudeMeters>
            <DistanceMeters>50343.538282978</DistanceMeters>
          </Trackpoint>
          <Trackpoint>
            <Time>2020-03-07T16:00:23.000Z</Time>
            <Position>
              <LatitudeDegrees>40.8069735579192638397216796875</LatitudeDegrees>
              <LongitudeDegrees>-3.7712383456528186798095703125</LongitudeDegrees>
            </Position>
            <AltitudeMeters>1091.199951171875</AltitudeMeters>
            <DistanceMeters>50352.522705794</DistanceMeters>
          </Trackpoint>
          <Trackpoint>
            <Time>2020-03-07T16:00:24.000Z</Time>
            <Position>
              <LatitudeDegrees>40.806896276772022247314453125</LatitudeDegrees>
              <LongitudeDegrees>-3.77119467593729496002197265625</LongitudeDegrees>
            </Position>
            <AltitudeMeters>1091</AltitudeMeters>
            <DistanceMeters>50361.877891569</DistanceMeters>
          </Trackpoint>
          <Trackpoint>
            <Time>2020-03-07T16:00:25.000Z</Time>
            <Position>
              <LatitudeDegrees>40.80681840889155864715576171875</LatitudeDegrees>
              <LongitudeDegrees>-3.77115595154464244842529296875</LongitudeDegrees>
            </Position>
            <AltitudeMeters>1090.5999755859375</AltitudeMeters>
            <DistanceMeters>50371.138487446</DistanceMeters>
          </Trackpoint>
          <Trackpoint>
            <Time>2020-03-07T16:00:26.000Z</Time>
            <Position>
              <LatitudeDegrees>40.80674045719206333160400390625</LatitudeDegrees>
              <LongitudeDegrees>-3.77112024463713169097900390625</LongitudeDegrees>
            </Position>
            <AltitudeMeters>1090.199951171875</AltitudeMeters>
            <DistanceMeters>50380.321235065</DistanceMeters>
          </Trackpoint>
          <Trackpoint>
            <Time>2020-03-07T16:00:27.000Z</Time>
            <Position>
              <LatitudeDegrees>40.806662924587726593017578125</LatitudeDegrees>
              <LongitudeDegrees>-3.7710987031459808349609375</LongitudeDegrees>
            </Position>
            <AltitudeMeters>1089.800048828125</AltitudeMeters>
            <DistanceMeters>50389.139796077</DistanceMeters>
          </Trackpoint>
          <Trackpoint>
            <Time>2020-03-07T16:00:28.000Z</Time>
            <Position>
              <LatitudeDegrees>40.80658614635467529296875</LatitudeDegrees>
              <LongitudeDegrees>-3.77108889631927013397216796875</LongitudeDegrees>
            </Position>
            <AltitudeMeters>1089.4000244140625</AltitudeMeters>
            <DistanceMeters>50397.7253953</DistanceMeters>
          </Trackpoint>
          <Trackpoint>
            <Time>2020-03-07T16:00:29.000Z</Time>
            <Position>
              <LatitudeDegrees>40.8065085299313068389892578125</LatitudeDegrees>
              <LongitudeDegrees>-3.7710827775299549102783203125</LongitudeDegrees>
            </Position>
            <AltitudeMeters>1088.800048828125</AltitudeMeters>
            <DistanceMeters>50406.379611268</DistanceMeters>
          </Trackpoint>
          <Trackpoint>
            <Time>2020-03-07T16:00:30.000Z</Time>
            <Position>
              <LatitudeDegrees>40.80643284134566783905029296875</LatitudeDegrees>
              <LongitudeDegrees>-3.77108571119606494903564453125</LongitudeDegrees>
            </Position>
            <AltitudeMeters>1088.4000244140625</AltitudeMeters>
            <DistanceMeters>50414.807575513</DistanceMeters>
          </Trackpoint>
          <Trackpoint>
            <Time>2020-03-07T16:00:31.000Z</Time>
            <Position>
              <LatitudeDegrees>40.806360505521297454833984375</LatitudeDegrees>
              <LongitudeDegrees>-3.77109375782310962677001953125</LongitudeDegrees>
            </Position>
            <AltitudeMeters>1088.199951171875</AltitudeMeters>
            <DistanceMeters>50422.887081848</DistanceMeters>
          </Trackpoint>
          <Trackpoint>
            <Time>2020-03-07T16:00:32.000Z</Time>
            <Position>
              <LatitudeDegrees>40.80628984607756137847900390625</LatitudeDegrees>
              <LongitudeDegrees>-3.77110649831593036651611328125</LongitudeDegrees>
            </Position>
            <AltitudeMeters>1088.199951171875</AltitudeMeters>
            <DistanceMeters>50430.825083701</DistanceMeters>
          </Trackpoint>
          <Trackpoint>
            <Time>2020-03-07T16:00:33.000Z</Time>
            <Position>
              <LatitudeDegrees>40.806219018995761871337890625</LatitudeDegrees>
              <LongitudeDegrees>-3.7711228430271148681640625</LongitudeDegrees>
            </Position>
            <AltitudeMeters>1088</AltitudeMeters>
            <DistanceMeters>50438.828228846</DistanceMeters>
          </Trackpoint>
          <Trackpoint>
            <Time>2020-03-07T16:00:34.000Z</Time>
            <Position>
              <LatitudeDegrees>40.80614961683750152587890625</LatitudeDegrees>
              <LongitudeDegrees>-3.771140612661838531494140625</LongitudeDegrees>
            </Position>
            <AltitudeMeters>1088</AltitudeMeters>
            <DistanceMeters>50446.697106414</DistanceMeters>
          </Trackpoint>
          <Trackpoint>
            <Time>2020-03-07T16:00:35.000Z</Time>
            <Position>
              <LatitudeDegrees>40.80607962794601917266845703125</LatitudeDegrees>
              <LongitudeDegrees>-3.77115930430591106414794921875</LongitudeDegrees>
            </Position>
            <AltitudeMeters>1088</AltitudeMeters>
            <DistanceMeters>50454.644203661</DistanceMeters>
          </Trackpoint>
          <Trackpoint>
            <Time>2020-03-07T16:00:36.000Z</Time>
            <Position>
              <LatitudeDegrees>40.80601257272064685821533203125</LatitudeDegrees>
              <LongitudeDegrees>-3.77118327654898166656494140625</LongitudeDegrees>
            </Position>
            <AltitudeMeters>1088</AltitudeMeters>
            <DistanceMeters>50462.375898563</DistanceMeters>
          </Trackpoint>
          <Trackpoint>
            <Time>2020-03-07T16:00:37.000Z</Time>
            <Position>
              <LatitudeDegrees>40.80594702623784542083740234375</LatitudeDegrees>
              <LongitudeDegrees>-3.77121194265782833099365234375</LongitudeDegrees>
            </Position>
            <AltitudeMeters>1088</AltitudeMeters>
            <DistanceMeters>50470.060734277</DistanceMeters>
          </Trackpoint>
          <Trackpoint>
            <Time>2020-03-07T16:00:38.000Z</Time>
            <Position>
              <LatitudeDegrees>40.80588139593601226806640625</LatitudeDegrees>
              <LongitudeDegrees>-3.7712440453469753265380859375</LongitudeDegrees>
            </Position>
            <AltitudeMeters>1088</AltitudeMeters>
            <DistanceMeters>50477.85002716</DistanceMeters>
          </Trackpoint>
          <Trackpoint>
            <Time>2020-03-07T16:00:39.000Z</Time>
            <Position>
              <LatitudeDegrees>40.80581777729094028472900390625</LatitudeDegrees>
              <LongitudeDegrees>-3.77127866260707378387451171875</LongitudeDegrees>
            </Position>
            <AltitudeMeters>1088</AltitudeMeters>
            <DistanceMeters>50485.507789002</DistanceMeters>
          </Trackpoint>
          <Trackpoint>
            <Time>2020-03-07T16:00:40.000Z</Time>
            <Position>
              <LatitudeDegrees>40.80575373955070972442626953125</LatitudeDegrees>
              <LongitudeDegrees>-3.77131520770490169525146484375</LongitudeDegrees>
            </Position>
            <AltitudeMeters>1088.199951171875</AltitudeMeters>
            <DistanceMeters>50493.27211707</DistanceMeters>
          </Trackpoint>
          <Trackpoint>
            <Time>2020-03-07T16:00:41.000Z</Time>
            <Position>
              <LatitudeDegrees>40.80569003708660602569580078125</LatitudeDegrees>
              <LongitudeDegrees>-3.771353177726268768310546875</LongitudeDegrees>
            </Position>
            <AltitudeMeters>1088.199951171875</AltitudeMeters>
            <DistanceMeters>50501.050388868</DistanceMeters>
          </Trackpoint>
          <Trackpoint>
            <Time>2020-03-07T16:00:42.000Z</Time>
            <Position>
              <LatitudeDegrees>40.8056245744228363037109375</LatitudeDegrees>
              <LongitudeDegrees>-3.77139114774763584136962890625</LongitudeDegrees>
            </Position>
            <AltitudeMeters>1088.4000244140625</AltitudeMeters>
            <DistanceMeters>50509.007706006</DistanceMeters>
          </Trackpoint>
          <Trackpoint>
            <Time>2020-03-07T16:00:43.000Z</Time>
            <Position>
              <LatitudeDegrees>40.8055603690445423126220703125</LatitudeDegrees>
              <LongitudeDegrees>-3.77142936922609806060791015625</LongitudeDegrees>
            </Position>
            <AltitudeMeters>1088.4000244140625</AltitudeMeters>
            <DistanceMeters>50516.846114015</DistanceMeters>
          </Trackpoint>
          <Trackpoint>
            <Time>2020-03-07T16:00:44.000Z</Time>
            <Position>
              <LatitudeDegrees>40.8054973371326923370361328125</LatitudeDegrees>
              <LongitudeDegrees>-3.771468512713909149169921875</LongitudeDegrees>
            </Position>
            <AltitudeMeters>1088.4000244140625</AltitudeMeters>
            <DistanceMeters>50524.597638295</DistanceMeters>
          </Trackpoint>
          <Trackpoint>
            <Time>2020-03-07T16:00:45.000Z</Time>
            <Position>
              <LatitudeDegrees>40.805434472858905792236328125</LatitudeDegrees>
              <LongitudeDegrees>-3.77150849439203739166259765625</LongitudeDegrees>
            </Position>
            <AltitudeMeters>1088.4000244140625</AltitudeMeters>
            <DistanceMeters>50532.362547851</DistanceMeters>
          </Trackpoint>
          <Trackpoint>
            <Time>2020-03-07T16:00:46.000Z</Time>
            <Position>
              <LatitudeDegrees>40.80537135712802410125732421875</LatitudeDegrees>
              <LongitudeDegrees>-3.77154990099370479583740234375</LongitudeDegrees>
            </Position>
            <AltitudeMeters>1088.4000244140625</AltitudeMeters>
            <DistanceMeters>50540.206713893</DistanceMeters>
          </Trackpoint>
          <Trackpoint>
            <Time>2020-03-07T16:00:47.000Z</Time>
            <Position>
              <LatitudeDegrees>40.80531117506325244903564453125</LatitudeDegrees>
              <LongitudeDegrees>-3.77158946357667446136474609375</LongitudeDegrees>
            </Position>
            <AltitudeMeters>1088.4000244140625</AltitudeMeters>
            <DistanceMeters>50547.68852142</DistanceMeters>
          </Trackpoint>
          <Trackpoint>
            <Time>2020-03-07T16:00:48.000Z</Time>
            <Position>
              <LatitudeDegrees>40.8052505739033222198486328125</LatitudeDegrees>
              <LongitudeDegrees>-3.7716289423406124114990234375</LongitudeDegrees>
            </Position>
            <AltitudeMeters>1088.4000244140625</AltitudeMeters>
            <DistanceMeters>50555.208851783</DistanceMeters>
          </Trackpoint>
          <Trackpoint>
            <Time>2020-03-07T16:00:49.000Z</Time>
            <Position>
              <LatitudeDegrees>40.80519047565758228302001953125</LatitudeDegrees>
              <LongitudeDegrees>-3.7716701813042163848876953125</LongitudeDegrees>
            </Position>
            <AltitudeMeters>1088.4000244140625</AltitudeMeters>
            <DistanceMeters>50562.746572989</DistanceMeters>
          </Trackpoint>
          <Trackpoint>
            <Time>2020-03-07T16:00:50.000Z</Time>
            <Position>
              <LatitudeDegrees>40.805129706859588623046875</LatitudeDegrees>
              <LongitudeDegrees>-3.77171359956264495849609375</LongitudeDegrees>
            </Position>
            <AltitudeMeters>1088.4000244140625</AltitudeMeters>
            <DistanceMeters>50570.436107472</DistanceMeters>
          </Trackpoint>
          <Trackpoint>
            <Time>2020-03-07T16:00:51.000Z</Time>
            <Position>
              <LatitudeDegrees>40.80506793223321437835693359375</LatitudeDegrees>
              <LongitudeDegrees>-3.77175693400204181671142578125</LongitudeDegrees>
            </Position>
            <AltitudeMeters>1088.199951171875</AltitudeMeters>
            <DistanceMeters>50578.2207618</DistanceMeters>
          </Trackpoint>
          <Trackpoint>
            <Time>2020-03-07T16:00:52.000Z</Time>
            <Position>
              <LatitudeDegrees>40.80500506795942783355712890625</LatitudeDegrees>
              <LongitudeDegrees>-3.77179884351789951324462890625</LongitudeDegrees>
            </Position>
            <AltitudeMeters>1088.199951171875</AltitudeMeters>
            <DistanceMeters>50586.058017696</DistanceMeters>
          </Trackpoint>
          <Trackpoint>
            <Time>2020-03-07T16:00:53.000Z</Time>
            <Position>
              <LatitudeDegrees>40.80494463443756103515625</LatitudeDegrees>
              <LongitudeDegrees>-3.7718371488153934478759765625</LongitudeDegrees>
            </Position>
            <AltitudeMeters>1087.800048828125</AltitudeMeters>
            <DistanceMeters>50593.518068709</DistanceMeters>
          </Trackpoint>
          <Trackpoint>
            <Time>2020-03-07T16:00:54.000Z</Time>
            <Position>
              <LatitudeDegrees>40.80488235689699649810791015625</LatitudeDegrees>
              <LongitudeDegrees>-3.77187847159802913665771484375</LongitudeDegrees>
            </Position>
            <AltitudeMeters>1087.800048828125</AltitudeMeters>
            <DistanceMeters>50601.274251357</DistanceMeters>
          </Trackpoint>
          <Trackpoint>
            <Time>2020-03-07T16:00:55.000Z</Time>
            <Position>
              <LatitudeDegrees>40.8048214204609394073486328125</LatitudeDegrees>
              <LongitudeDegrees>-3.7719219736754894256591796875</LongitudeDegrees>
            </Position>
            <AltitudeMeters>1087.5999755859375</AltitudeMeters>
            <DistanceMeters>50608.982552273</DistanceMeters>
          </Trackpoint>
          <Trackpoint>
            <Time>2020-03-07T16:00:56.000Z</Time>
            <Position>
              <LatitudeDegrees>40.80475981347262859344482421875</LatitudeDegrees>
              <LongitudeDegrees>-3.77196581102907657623291015625</LongitudeDegrees>
            </Position>
            <AltitudeMeters>1087.5999755859375</AltitudeMeters>
            <DistanceMeters>50616.770106022</DistanceMeters>
          </Trackpoint>
          <Trackpoint>
            <Time>2020-03-07T16:00:57.000Z</Time>
            <Position>
              <LatitudeDegrees>40.80469829030334949493408203125</LatitudeDegrees>
              <LongitudeDegrees>-3.77201090566813945770263671875</LongitudeDegrees>
            </Position>
            <AltitudeMeters>1087.5999755859375</AltitudeMeters>
            <DistanceMeters>50624.600445673</DistanceMeters>
          </Trackpoint>
          <Trackpoint>
            <Time>2020-03-07T16:00:58.000Z</Time>
            <Position>
              <LatitudeDegrees>40.80463794060051441192626953125</LatitudeDegrees>
              <LongitudeDegrees>-3.7720527313649654388427734375</LongitudeDegrees>
            </Position>
            <AltitudeMeters>1087.4000244140625</AltitudeMeters>
            <DistanceMeters>50632.185934919</DistanceMeters>
          </Trackpoint>
          <Trackpoint>
            <Time>2020-03-07T16:00:59.000Z</Time>
            <Position>
              <LatitudeDegrees>40.80457574687898159027099609375</LatitudeDegrees>
              <LongitudeDegrees>-3.77209757454693317413330078125</LongitudeDegrees>
            </Position>
            <AltitudeMeters>1087.4000244140625</AltitudeMeters>
            <DistanceMeters>50640.072579741</DistanceMeters>
          </Trackpoint>
          <Trackpoint>
            <Time>2020-03-07T16:01:00.000Z</Time>
            <Position>
              <LatitudeDegrees>40.80451774410903453826904296875</LatitudeDegrees>
              <LongitudeDegrees>-3.7721395678818225860595703125</LongitudeDegrees>
            </Position>
            <AltitudeMeters>1087.4000244140625</AltitudeMeters>
            <DistanceMeters>50647.434544073</DistanceMeters>
          </Trackpoint>
          <Trackpoint>
            <Time>2020-03-07T16:01:01.000Z</Time>
            <Position>
              <LatitudeDegrees>40.80445722676813602447509765625</LatitudeDegrees>
              <LongitudeDegrees>-3.7721838243305683135986328125</LongitudeDegrees>
            </Position>
            <AltitudeMeters>1087.199951171875</AltitudeMeters>
            <DistanceMeters>50655.133467489</DistanceMeters>
          </Trackpoint>
          <Trackpoint>
            <Time>2020-03-07T16:01:02.000Z</Time>
            <Position>
              <LatitudeDegrees>40.80439536832273006439208984375</LatitudeDegrees>
              <LongitudeDegrees>-3.77222933806478977203369140625</LongitudeDegrees>
            </Position>
            <AltitudeMeters>1087.199951171875</AltitudeMeters>
            <DistanceMeters>50663.013812387</DistanceMeters>
          </Trackpoint>
          <Trackpoint>
            <Time>2020-03-07T16:01:03.000Z</Time>
            <Position>
              <LatitudeDegrees>40.804334096610546112060546875</LatitudeDegrees>
              <LongitudeDegrees>-3.7722761929035186767578125</LongitudeDegrees>
            </Position>
            <AltitudeMeters>1087.199951171875</AltitudeMeters>
            <DistanceMeters>50670.893584314</DistanceMeters>
          </Trackpoint>
          <Trackpoint>
            <Time>2020-03-07T16:01:04.000Z</Time>
            <Position>
              <LatitudeDegrees>40.80427299253642559051513671875</LatitudeDegrees>
              <LongitudeDegrees>-3.77231952734291553497314453125</LongitudeDegrees>
            </Position>
            <AltitudeMeters>1087</AltitudeMeters>
            <DistanceMeters>50678.612421298</DistanceMeters>
          </Trackpoint>
          <Trackpoint>
            <Time>2020-03-07T16:01:05.000Z</Time>
            <Position>
              <LatitudeDegrees>40.80420912243425846099853515625</LatitudeDegrees>
              <LongitudeDegrees>-3.772363029420375823974609375</LongitudeDegrees>
            </Position>
            <AltitudeMeters>1087</AltitudeMeters>
            <DistanceMeters>50686.61048741</DistanceMeters>
          </Trackpoint>
          <Trackpoint>
            <Time>2020-03-07T16:01:06.000Z</Time>
            <Position>
              <LatitudeDegrees>40.80414609052240848541259765625</LatitudeDegrees>
              <LongitudeDegrees>-3.77240770496428012847900390625</LongitudeDegrees>
            </Position>
            <AltitudeMeters>1086.800048828125</AltitudeMeters>
            <DistanceMeters>50694.57234251</DistanceMeters>
          </Trackpoint>
          <Trackpoint>
            <Time>2020-03-07T16:01:07.000Z</Time>
            <Position>
              <LatitudeDegrees>40.80408297479152679443359375</LatitudeDegrees>
              <LongitudeDegrees>-3.77245514653623104095458984375</LongitudeDegrees>
            </Position>
            <AltitudeMeters>1086.5999755859375</AltitudeMeters>
            <DistanceMeters>50702.654642492</DistanceMeters>
          </Trackpoint>
          <Trackpoint>
            <Time>2020-03-07T16:01:08.000Z</Time>
            <Position>
              <LatitudeDegrees>40.804020948708057403564453125</LatitudeDegrees>
              <LongitudeDegrees>-3.77250409685075283050537109375</LongitudeDegrees>
            </Position>
            <AltitudeMeters>1086.5999755859375</AltitudeMeters>
            <DistanceMeters>50710.696058873</DistanceMeters>
          </Trackpoint>
          <Trackpoint>
            <Time>2020-03-07T16:01:09.000Z</Time>
            <Position>
              <LatitudeDegrees>40.80395867116749286651611328125</LatitudeDegrees>
              <LongitudeDegrees>-3.77255371771752834320068359375</LongitudeDegrees>
            </Position>
            <AltitudeMeters>1086.5999755859375</AltitudeMeters>
            <DistanceMeters>50718.791197213</DistanceMeters>
          </Trackpoint>
          <Trackpoint>
            <Time>2020-03-07T16:01:10.000Z</Time>
            <Position>
              <LatitudeDegrees>40.80395867116749286651611328125</LatitudeDegrees>
              <LongitudeDegrees>-3.77255371771752834320068359375</LongitudeDegrees>
            </Position>
            <AltitudeMeters>1086.4000244140625</AltitudeMeters>
            <DistanceMeters>50718.886223928</DistanceMeters>
          </Trackpoint>
          <Trackpoint>
            <Time>2020-03-07T16:01:11.000Z</Time>
            <Position>
              <LatitudeDegrees>40.80389580689370632171630859375</LatitudeDegrees>
              <LongitudeDegrees>-3.7726042605936527252197265625</LongitudeDegrees>
            </Position>
            <AltitudeMeters>1086.4000244140625</AltitudeMeters>
            <DistanceMeters>50727.077284175</DistanceMeters>
          </Trackpoint>
          <Trackpoint>
            <Time>2020-03-07T16:01:12.000Z</Time>
            <Position>
              <LatitudeDegrees>40.80383361317217350006103515625</LatitudeDegrees>
              <LongitudeDegrees>-3.77265212126076221466064453125</LongitudeDegrees>
            </Position>
            <AltitudeMeters>1086.199951171875</AltitudeMeters>
            <DistanceMeters>50735.088323639</DistanceMeters>
          </Trackpoint>
          <Trackpoint>
            <Time>2020-03-07T16:01:13.000Z</Time>
            <Position>
              <LatitudeDegrees>40.80377183854579925537109375</LatitudeDegrees>
              <LongitudeDegrees>-3.772695958614349365234375</LongitudeDegrees>
            </Position>
            <AltitudeMeters>1086</AltitudeMeters>
            <DistanceMeters>50742.893251293</DistanceMeters>
          </Trackpoint>
          <Trackpoint>
            <Time>2020-03-07T16:01:14.000Z</Time>
            <Position>
              <LatitudeDegrees>40.80370788462460041046142578125</LatitudeDegrees>
              <LongitudeDegrees>-3.77274180762469768524169921875</LongitudeDegrees>
            </Position>
            <AltitudeMeters>1085.800048828125</AltitudeMeters>
            <DistanceMeters>50750.991735424</DistanceMeters>
          </Trackpoint>
          <Trackpoint>
            <Time>2020-03-07T16:01:15.000Z</Time>
            <Position>
              <LatitudeDegrees>40.8035694994032382965087890625</LatitudeDegrees>
              <LongitudeDegrees>-3.77283585257828235626220703125</LongitudeDegrees>
            </Position>
            <AltitudeMeters>1085.5999755859375</AltitudeMeters>
            <DistanceMeters>50768.312684006</DistanceMeters>
          </Trackpoint>
          <Trackpoint>
            <Time>2020-03-07T16:01:16.000Z</Time>
            <Position>
              <LatitudeDegrees>40.8035000972449779510498046875</LatitudeDegrees>
              <LongitudeDegrees>-3.7728875689208507537841796875</LongitudeDegrees>
            </Position>
            <AltitudeMeters>1085.5999755859375</AltitudeMeters>
            <DistanceMeters>50777.18127836</DistanceMeters>
          </Trackpoint>
          <Trackpoint>
            <Time>2020-03-07T16:01:17.000Z</Time>
            <Position>
              <LatitudeDegrees>40.8034327067434787750244140625</LatitudeDegrees>
              <LongitudeDegrees>-3.7729469127953052520751953125</LongitudeDegrees>
            </Position>
            <AltitudeMeters>1085.4000244140625</AltitudeMeters>
            <DistanceMeters>50786.195302314</DistanceMeters>
          </Trackpoint>
          <Trackpoint>
            <Time>2020-03-07T16:01:18.000Z</Time>
            <Position>
              <LatitudeDegrees>40.8033666573464870452880859375</LatitudeDegrees>
              <LongitudeDegrees>-3.77301539294421672821044921875</LongitudeDegrees>
            </Position>
            <AltitudeMeters>1085.199951171875</AltitudeMeters>
            <DistanceMeters>50795.540347488</DistanceMeters>
          </Trackpoint>
          <Trackpoint>
            <Time>2020-03-07T16:01:19.000Z</Time>
            <Position>
              <LatitudeDegrees>40.8033042959868907928466796875</LatitudeDegrees>
              <LongitudeDegrees>-3.7730917520821094512939453125</LongitudeDegrees>
            </Position>
            <AltitudeMeters>1085</AltitudeMeters>
            <DistanceMeters>50805.003977773</DistanceMeters>
          </Trackpoint>
          <Trackpoint>
            <Time>2020-03-07T16:01:20.000Z</Time>
            <Position>
              <LatitudeDegrees>40.8033042959868907928466796875</LatitudeDegrees>
              <LongitudeDegrees>-3.7730917520821094512939453125</LongitudeDegrees>
            </Position>
            <AltitudeMeters>1085</AltitudeMeters>
            <DistanceMeters>NAN</DistanceMeters>
          </Trackpoint>
          <Trackpoint>
            <Time>2020-03-07T16:01:21.000Z</Time>
            <Position>
              <LatitudeDegrees>40.80319784581661224365234375</LatitudeDegrees>
              <LongitudeDegrees>-3.77327372319996356964111328125</LongitudeDegrees>
            </Position>
            <AltitudeMeters>1084.800048828125</AltitudeMeters>
            <DistanceMeters>NAN</DistanceMeters>
          </Trackpoint>
          <Trackpoint>
            <Time>2020-03-07T16:01:22.000Z</Time>
            <Position>
              <LatitudeDegrees>40.80315434373915195465087890625</LatitudeDegrees>
              <LongitudeDegrees>-3.7733767367899417877197265625</LongitudeDegrees>
            </Position>
            <AltitudeMeters>1084.199951171875</AltitudeMeters>
            <DistanceMeters>NAN</DistanceMeters>
          </Trackpoint>
          <Trackpoint>
            <Time>2020-03-07T16:01:23.000Z</Time>
            <Position>
              <LatitudeDegrees>40.80311729572713375091552734375</LatitudeDegrees>
              <LongitudeDegrees>-3.77348721027374267578125</LongitudeDegrees>
            </Position>
            <AltitudeMeters>1083.800048828125</AltitudeMeters>
            <DistanceMeters>NAN</DistanceMeters>
          </Trackpoint>
          <Trackpoint>
            <Time>2020-03-07T16:01:24.000Z</Time>
            <Position>
              <LatitudeDegrees>40.80308594740927219390869140625</LatitudeDegrees>
              <LongitudeDegrees>-3.77360455691814422607421875</LongitudeDegrees>
            </Position>
            <AltitudeMeters>1083.199951171875</AltitudeMeters>
            <DistanceMeters>NAN</DistanceMeters>
          </Trackpoint>
          <Trackpoint>
            <Time>2020-03-07T16:01:25.000Z</Time>
            <Position>
              <LatitudeDegrees>40.80306365154683589935302734375</LatitudeDegrees>
              <LongitudeDegrees>-3.77372668124735355377197265625</LongitudeDegrees>
            </Position>
            <AltitudeMeters>1082.800048828125</AltitudeMeters>
            <DistanceMeters>NAN</DistanceMeters>
          </Trackpoint>
          <Trackpoint>
            <Time>2020-03-07T16:01:26.000Z</Time>
            <Position>
              <LatitudeDegrees>40.80305644311010837554931640625</LatitudeDegrees>
              <LongitudeDegrees>-3.773852996528148651123046875</LongitudeDegrees>
            </Position>
            <AltitudeMeters>1082.199951171875</AltitudeMeters>
            <DistanceMeters>NAN</DistanceMeters>
          </Trackpoint>
          <Trackpoint>
            <Time>2020-03-07T16:01:27.000Z</Time>
            <Position>
              <LatitudeDegrees>40.80306775867938995361328125</LatitudeDegrees>
              <LongitudeDegrees>-3.77398165874183177947998046875</LongitudeDegrees>
            </Position>
            <AltitudeMeters>1081.800048828125</AltitudeMeters>
            <DistanceMeters>NAN</DistanceMeters>
          </Trackpoint>
          <Trackpoint>
            <Time>2020-03-07T16:01:28.000Z</Time>
            <Position>
              <LatitudeDegrees>40.80309215001761913299560546875</LatitudeDegrees>
              <LongitudeDegrees>-3.77410738728940486907958984375</LongitudeDegrees>
            </Position>
            <AltitudeMeters>1081.4000244140625</AltitudeMeters>
            <DistanceMeters>NAN</DistanceMeters>
          </Trackpoint>
          <Trackpoint>
            <Time>2020-03-07T16:01:29.000Z</Time>
            <Position>
              <LatitudeDegrees>40.8031208999454975128173828125</LatitudeDegrees>
              <LongitudeDegrees>-3.77423194237053394317626953125</LongitudeDegrees>
            </Position>
            <AltitudeMeters>1081</AltitudeMeters>
            <DistanceMeters>NAN</DistanceMeters>
          </Trackpoint>
          <Trackpoint>
            <Time>2020-03-07T16:01:30.000Z</Time>
            <Position>
              <LatitudeDegrees>40.80315467901527881622314453125</LatitudeDegrees>
              <LongitudeDegrees>-3.774356581270694732666015625</LongitudeDegrees>
            </Position>
            <AltitudeMeters>1080.5999755859375</AltitudeMeters>
            <DistanceMeters>NAN</DistanceMeters>
          </Trackpoint>
          <Trackpoint>
            <Time>2020-03-07T16:01:31.000Z</Time>
            <Position>
              <LatitudeDegrees>40.8031946606934070587158203125</LatitudeDegrees>
              <LongitudeDegrees>-3.77447627484798431396484375</LongitudeDegrees>
            </Position>
            <AltitudeMeters>1080.199951171875</AltitudeMeters>
            <DistanceMeters>NAN</DistanceMeters>
          </Trackpoint>
          <Trackpoint>
            <Time>2020-03-07T16:01:32.000Z</Time>
            <Position>
              <LatitudeDegrees>40.803231708705425262451171875</LatitudeDegrees>
              <LongitudeDegrees>-3.7746018357574939727783203125</LongitudeDegrees>
            </Position>
            <AltitudeMeters>1079.5999755859375</AltitudeMeters>
            <DistanceMeters>NAN</DistanceMeters>
          </Trackpoint>
          <Trackpoint>
            <Time>2020-03-07T16:01:33.000Z</Time>
            <Position>
              <LatitudeDegrees>40.80326833762228488922119140625</LatitudeDegrees>
              <LongitudeDegrees>-3.77472932450473308563232421875</LongitudeDegrees>
            </Position>
            <AltitudeMeters>1079</AltitudeMeters>
            <DistanceMeters>NAN</DistanceMeters>
          </Trackpoint>
          <Trackpoint>
            <Time>2020-03-07T16:01:34.000Z</Time>
            <Position>
              <LatitudeDegrees>40.80330387689173221588134765625</LatitudeDegrees>
              <LongitudeDegrees>-3.7748569808900356292724609375</LongitudeDegrees>
            </Position>
            <AltitudeMeters>1077.5999755859375</AltitudeMeters>
            <DistanceMeters>NAN</DistanceMeters>
          </Trackpoint>
          <Trackpoint>
            <Time>2020-03-07T16:01:35.000Z</Time>
            <Position>
              <LatitudeDegrees>40.80333421938121318817138671875</LatitudeDegrees>
              <LongitudeDegrees>-3.77498178742825984954833984375</LongitudeDegrees>
            </Position>
            <AltitudeMeters>1077.199951171875</AltitudeMeters>
            <DistanceMeters>NAN</DistanceMeters>
          </Trackpoint>
          <Trackpoint>
            <Time>2020-03-07T16:01:36.000Z</Time>
            <Position>
              <LatitudeDegrees>40.8033502288162708282470703125</LatitudeDegrees>
              <LongitudeDegrees>-3.7751084379851818084716796875</LongitudeDegrees>
            </Position>
            <AltitudeMeters>1076.5999755859375</AltitudeMeters>
            <DistanceMeters>NAN</DistanceMeters>
          </Trackpoint>
          <Trackpoint>
            <Time>2020-03-07T16:01:37.000Z</Time>
            <Position>
              <LatitudeDegrees>40.80334612168371677398681640625</LatitudeDegrees>
              <LongitudeDegrees>-3.77523693256080150604248046875</LongitudeDegrees>
            </Position>
            <AltitudeMeters>1076</AltitudeMeters>
            <DistanceMeters>NAN</DistanceMeters>
          </Trackpoint>
          <Trackpoint>
            <Time>2020-03-07T16:01:38.000Z</Time>
            <Position>
              <LatitudeDegrees>40.803316868841648101806640625</LatitudeDegrees>
              <LongitudeDegrees>-3.775361739099025726318359375</LongitudeDegrees>
            </Position>
            <AltitudeMeters>1075.4000244140625</AltitudeMeters>
            <DistanceMeters>NAN</DistanceMeters>
          </Trackpoint>
          <Trackpoint>
            <Time>2020-03-07T16:01:39.000Z</Time>
            <Position>
              <LatitudeDegrees>40.80326280556619167327880859375</LatitudeDegrees>
              <LongitudeDegrees>-3.77547078765928745269775390625</LongitudeDegrees>
            </Position>
            <AltitudeMeters>1074.800048828125</AltitudeMeters>
            <DistanceMeters>NAN</DistanceMeters>
          </Trackpoint>
          <Trackpoint>
            <Time>2020-03-07T16:01:40.000Z</Time>
            <Position>
              <LatitudeDegrees>40.8031891286373138427734375</LatitudeDegrees>
              <LongitudeDegrees>-3.77554857172071933746337890625</LongitudeDegrees>
            </Position>
            <AltitudeMeters>1074</AltitudeMeters>
            <DistanceMeters>NAN</DistanceMeters>
          </Trackpoint>
          <Trackpoint>
            <Time>2020-03-07T16:01:41.000Z</Time>
            <Position>
              <LatitudeDegrees>40.80310807563364505767822265625</LatitudeDegrees>
              <LongitudeDegrees>-3.77558327279984951019287109375</LongitudeDegrees>
            </Position>
            <AltitudeMeters>1073.4000244140625</AltitudeMeters>
            <DistanceMeters>NAN</DistanceMeters>
          </Trackpoint>
          <Trackpoint>
            <Time>2020-03-07T16:01:42.000Z</Time>
            <Position>
              <LatitudeDegrees>40.8030250109732151031494140625</LatitudeDegrees>
              <LongitudeDegrees>-3.77558679319918155670166015625</LongitudeDegrees>
            </Position>
            <AltitudeMeters>1073.199951171875</AltitudeMeters>
            <DistanceMeters>NAN</DistanceMeters>
          </Trackpoint>
          <Trackpoint>
            <Time>2020-03-07T16:01:43.000Z</Time>
            <Position>
              <LatitudeDegrees>40.80294965766370296478271484375</LatitudeDegrees>
              <LongitudeDegrees>-3.77557271160185337066650390625</LongitudeDegrees>
            </Position>
            <AltitudeMeters>1073</AltitudeMeters>
            <DistanceMeters>NAN</DistanceMeters>
          </Trackpoint>
          <Trackpoint>
            <Time>2020-03-07T16:01:44.000Z</Time>
            <Position>
              <LatitudeDegrees>40.80288126133382320404052734375</LatitudeDegrees>
              <LongitudeDegrees>-3.7755540199577808380126953125</LongitudeDegrees>
            </Position>
            <AltitudeMeters>1073</AltitudeMeters>
            <DistanceMeters>NAN</DistanceMeters>
          </Trackpoint>
          <Trackpoint>
            <Time>2020-03-07T16:01:45.000Z</Time>
            <Position>
              <LatitudeDegrees>40.802819319069385528564453125</LatitudeDegrees>
              <LongitudeDegrees>-3.775536753237247467041015625</LongitudeDegrees>
            </Position>
            <AltitudeMeters>1073</AltitudeMeters>
            <DistanceMeters>NAN</DistanceMeters>
          </Trackpoint>
          <Trackpoint>
            <Time>2020-03-07T16:01:46.000Z</Time>
            <Position>
              <LatitudeDegrees>40.80276173539459705352783203125</LatitudeDegrees>
              <LongitudeDegrees>-3.77551906742155551910400390625</LongitudeDegrees>
            </Position>
            <AltitudeMeters>1072.800048828125</AltitudeMeters>
            <DistanceMeters>NAN</DistanceMeters>
          </Trackpoint>
          <Trackpoint>
            <Time>2020-03-07T16:01:47.000Z</Time>
            <Position>
              <LatitudeDegrees>40.802705995738506317138671875</LatitudeDegrees>
              <LongitudeDegrees>-3.775499202311038970947265625</LongitudeDegrees>
            </Position>
            <AltitudeMeters>1072.800048828125</AltitudeMeters>
            <DistanceMeters>NAN</DistanceMeters>
          </Trackpoint>
          <Trackpoint>
            <Time>2020-03-07T16:01:48.000Z</Time>
            <Position>
              <LatitudeDegrees>40.8026500046253204345703125</LatitudeDegrees>
              <LongitudeDegrees>-3.77547900192439556121826171875</LongitudeDegrees>
            </Position>
            <AltitudeMeters>1072.800048828125</AltitudeMeters>
            <DistanceMeters>NAN</DistanceMeters>
          </Trackpoint>
          <Trackpoint>
            <Time>2020-03-07T16:01:49.000Z</Time>
            <Position>
              <LatitudeDegrees>40.8025958575308322906494140625</LatitudeDegrees>
              <LongitudeDegrees>-3.7754626572132110595703125</LongitudeDegrees>
            </Position>
            <AltitudeMeters>1072.800048828125</AltitudeMeters>
            <DistanceMeters>NAN</DistanceMeters>
          </Trackpoint>
          <Trackpoint>
            <Time>2020-03-07T16:01:50.000Z</Time>
            <Position>
              <LatitudeDegrees>40.80254481174051761627197265625</LatitudeDegrees>
              <LongitudeDegrees>-3.77544782124459743499755859375</LongitudeDegrees>
            </Position>
            <AltitudeMeters>1072.800048828125</AltitudeMeters>
            <DistanceMeters>NAN</DistanceMeters>
          </Trackpoint>
          <Trackpoint>
            <Time>2020-03-07T16:01:51.000Z</Time>
            <Position>
              <LatitudeDegrees>40.80249376595020294189453125</LatitudeDegrees>
              <LongitudeDegrees>-3.7754343263804912567138671875</LongitudeDegrees>
            </Position>
            <AltitudeMeters>1072.800048828125</AltitudeMeters>
            <DistanceMeters>NAN</DistanceMeters>
          </Trackpoint>
          <Trackpoint>
            <Time>2020-03-07T16:01:52.000Z</Time>
            <Position>
              <LatitudeDegrees>40.8024419657886028289794921875</LatitudeDegrees>
              <LongitudeDegrees>-3.77541429363191127777099609375</LongitudeDegrees>
            </Position>
            <AltitudeMeters>1072.800048828125</AltitudeMeters>
            <DistanceMeters>NAN</DistanceMeters>
          </Trackpoint>
          <Trackpoint>
            <Time>2020-03-07T16:01:53.000Z</Time>
            <Position>
              <LatitudeDegrees>40.80238974653184413909912109375</LatitudeDegrees>
              <LongitudeDegrees>-3.7753907404839992523193359375</LongitudeDegrees>
            </Position>
            <AltitudeMeters>1073</AltitudeMeters>
            <DistanceMeters>NAN</DistanceMeters>
          </Trackpoint>
          <Trackpoint>
            <Time>2020-03-07T16:01:54.000Z</Time>
            <Position>
              <LatitudeDegrees>40.802337862551212310791015625</LatitudeDegrees>
              <LongitudeDegrees>-3.77536802552640438079833984375</LongitudeDegrees>
            </Position>
            <AltitudeMeters>1073.5999755859375</AltitudeMeters>
            <DistanceMeters>NAN</DistanceMeters>
          </Trackpoint>
          <Trackpoint>
            <Time>2020-03-07T16:01:55.000Z</Time>
            <Position>
              <LatitudeDegrees>40.80228463746607303619384765625</LatitudeDegrees>
              <LongitudeDegrees>-3.7753473222255706787109375</LongitudeDegrees>
            </Position>
            <AltitudeMeters>1074.4000244140625</AltitudeMeters>
            <DistanceMeters>NAN</DistanceMeters>
          </Trackpoint>
          <Trackpoint>
            <Time>2020-03-07T16:01:56.000Z</Time>
            <Position>
              <LatitudeDegrees>40.80223216675221920013427734375</LatitudeDegrees>
              <LongitudeDegrees>-3.77532511018216609954833984375</LongitudeDegrees>
            </Position>
            <AltitudeMeters>1074.800048828125</AltitudeMeters>
            <DistanceMeters>NAN</DistanceMeters>
          </Trackpoint>
          <Trackpoint>
            <Time>2020-03-07T16:01:57.000Z</Time>
            <Position>
              <LatitudeDegrees>40.802178941667079925537109375</LatitudeDegrees>
              <LongitudeDegrees>-3.7753012217581272125244140625</LongitudeDegrees>
            </Position>
            <AltitudeMeters>1075.5999755859375</AltitudeMeters>
            <DistanceMeters>NAN</DistanceMeters>
          </Trackpoint>
          <Trackpoint>
            <Time>2020-03-07T16:01:58.000Z</Time>
            <Position>
              <LatitudeDegrees>40.80212236382067203521728515625</LatitudeDegrees>
              <LongitudeDegrees>-3.77527331002056598663330078125</LongitudeDegrees>
            </Position>
            <AltitudeMeters>1076.199951171875</AltitudeMeters>
            <DistanceMeters>NAN</DistanceMeters>
          </Trackpoint>
          <Trackpoint>
            <Time>2020-03-07T16:01:59.000Z</Time>
            <Position>
              <LatitudeDegrees>40.80206461250782012939453125</LatitudeDegrees>
              <LongitudeDegrees>-3.77524967305362224578857421875</LongitudeDegrees>
            </Position>
            <AltitudeMeters>1076.5999755859375</AltitudeMeters>
            <DistanceMeters>NAN</DistanceMeters>
          </Trackpoint>
          <Trackpoint>
            <Time>2020-03-07T16:02:00.000Z</Time>
            <Position>
              <LatitudeDegrees>40.8020027540624141693115234375</LatitudeDegrees>
              <LongitudeDegrees>-3.77522486262023448944091796875</LongitudeDegrees>
            </Position>
            <AltitudeMeters>1076.800048828125</AltitudeMeters>
            <DistanceMeters>NAN</DistanceMeters>
          </Trackpoint>
          <Trackpoint>
            <Time>2020-03-07T16:02:01.000Z</Time>
            <Position>
              <LatitudeDegrees>40.8019343577325344085693359375</LatitudeDegrees>
              <LongitudeDegrees>-3.7752013094723224639892578125</LongitudeDegrees>
            </Position>
            <AltitudeMeters>1077</AltitudeMeters>
            <DistanceMeters>NAN</DistanceMeters>
          </Trackpoint>
          <Trackpoint>
            <Time>2020-03-07T16:02:02.000Z</Time>
            <Position>
              <LatitudeDegrees>40.80186185427010059356689453125</LatitudeDegrees>
              <LongitudeDegrees>-3.775177001953125</LongitudeDegrees>
            </Position>
            <AltitudeMeters>1077</AltitudeMeters>
            <DistanceMeters>NAN</DistanceMeters>
          </Trackpoint>
          <Trackpoint>
            <Time>2020-03-07T16:02:03.000Z</Time>
            <Position>
              <LatitudeDegrees>40.80178457312285900115966796875</LatitudeDegrees>
              <LongitudeDegrees>-3.77515529282391071319580078125</LongitudeDegrees>
            </Position>
            <AltitudeMeters>1077</AltitudeMeters>
            <DistanceMeters>NAN</DistanceMeters>
          </Trackpoint>
          <Trackpoint>
            <Time>2020-03-07T16:02:04.000Z</Time>
            <Position>
              <LatitudeDegrees>40.80170410685241222381591796875</LatitudeDegrees>
              <LongitudeDegrees>-3.77514154650270938873291015625</LongitudeDegrees>
            </Position>
            <AltitudeMeters>1077</AltitudeMeters>
            <DistanceMeters>NAN</DistanceMeters>
          </Trackpoint>
          <Trackpoint>
            <Time>2020-03-07T16:02:05.000Z</Time>
            <Position>
              <LatitudeDegrees>40.80162196420133113861083984375</LatitudeDegrees>
              <LongitudeDegrees>-3.77513417042791843414306640625</LongitudeDegrees>
            </Position>
            <AltitudeMeters>1077</AltitudeMeters>
            <DistanceMeters>NAN</DistanceMeters>
          </Trackpoint>
          <Trackpoint>
            <Time>2020-03-07T16:02:06.000Z</Time>
            <Position>
              <LatitudeDegrees>40.801536552608013153076171875</LatitudeDegrees>
              <LongitudeDegrees>-3.77512947656214237213134765625</LongitudeDegrees>
            </Position>
            <AltitudeMeters>1077</AltitudeMeters>
            <DistanceMeters>NAN</DistanceMeters>
          </Trackpoint>
          <Trackpoint>
            <Time>2020-03-07T16:02:07.000Z</Time>
            <Position>
              <LatitudeDegrees>40.80145038664340972900390625</LatitudeDegrees>
              <LongitudeDegrees>-3.77512444742023944854736328125</LongitudeDegrees>
            </Position>
            <AltitudeMeters>1077</AltitudeMeters>
            <DistanceMeters>NAN</DistanceMeters>
          </Trackpoint>
          <Trackpoint>
            <Time>2020-03-07T16:02:08.000Z</Time>
            <Position>
              <LatitudeDegrees>40.80136229284107685089111328125</LatitudeDegrees>
              <LongitudeDegrees>-3.77512025646865367889404296875</LongitudeDegrees>
            </Position>
            <AltitudeMeters>1076.800048828125</AltitudeMeters>
            <DistanceMeters>NAN</DistanceMeters>
          </Trackpoint>
          <Trackpoint>
            <Time>2020-03-07T16:02:09.000Z</Time>
            <Position>
              <LatitudeDegrees>40.8012715168297290802001953125</LatitudeDegrees>
              <LongitudeDegrees>-3.775115311145782470703125</LongitudeDegrees>
            </Position>
            <AltitudeMeters>1076.199951171875</AltitudeMeters>
            <DistanceMeters>NAN</DistanceMeters>
          </Trackpoint>
          <Trackpoint>
            <Time>2020-03-07T16:02:10.000Z</Time>
            <Position>
              <LatitudeDegrees>40.80118090845644474029541015625</LatitudeDegrees>
              <LongitudeDegrees>-3.775110282003879547119140625</LongitudeDegrees>
            </Position>
            <AltitudeMeters>1075.5999755859375</AltitudeMeters>
            <DistanceMeters>NAN</DistanceMeters>
          </Trackpoint>
          <Trackpoint>
            <Time>2020-03-07T16:02:11.000Z</Time>
            <Position>
              <LatitudeDegrees>40.80109071917831897735595703125</LatitudeDegrees>
              <LongitudeDegrees>-3.77510718069970607757568359375</LongitudeDegrees>
            </Position>
            <AltitudeMeters>1075</AltitudeMeters>
            <DistanceMeters>NAN</DistanceMeters>
          </Trackpoint>
          <Trackpoint>
            <Time>2020-03-07T16:02:12.000Z</Time>
            <Position>
              <LatitudeDegrees>40.80099768005311489105224609375</LatitudeDegrees>
              <LongitudeDegrees>-3.77510449849069118499755859375</LongitudeDegrees>
            </Position>
            <AltitudeMeters>1074.4000244140625</AltitudeMeters>
            <DistanceMeters>NAN</DistanceMeters>
          </Trackpoint>
          <Trackpoint>
            <Time>2020-03-07T16:02:13.000Z</Time>
            <Position>
              <LatitudeDegrees>40.80090329982340335845947265625</LatitudeDegrees>
              <LongitudeDegrees>-3.77510257065296173095703125</LongitudeDegrees>
            </Position>
            <AltitudeMeters>1073.5999755859375</AltitudeMeters>
            <DistanceMeters>NAN</DistanceMeters>
          </Trackpoint>
          <Trackpoint>
            <Time>2020-03-07T16:02:14.000Z</Time>
            <Position>
              <LatitudeDegrees>40.80080665647983551025390625</LatitudeDegrees>
              <LongitudeDegrees>-3.77509846352040767669677734375</LongitudeDegrees>
            </Position>
            <AltitudeMeters>1072.800048828125</AltitudeMeters>
            <DistanceMeters>NAN</DistanceMeters>
          </Trackpoint>
          <Trackpoint>
            <Time>2020-03-07T16:02:15.000Z</Time>
            <Position>
              <LatitudeDegrees>40.80070783384144306182861328125</LatitudeDegrees>
              <LongitudeDegrees>-3.77509460784494876861572265625</LongitudeDegrees>
            </Position>
            <AltitudeMeters>1071.800048828125</AltitudeMeters>
            <DistanceMeters>NAN</DistanceMeters>
          </Trackpoint>
          <Trackpoint>
            <Time>2020-03-07T16:02:16.000Z</Time>
            <Position>
              <LatitudeDegrees>40.80060775391757488250732421875</LatitudeDegrees>
              <LongitudeDegrees>-3.7750911712646484375</LongitudeDegrees>
            </Position>
            <AltitudeMeters>1071.199951171875</AltitudeMeters>
            <DistanceMeters>NAN</DistanceMeters>
          </Trackpoint>
          <Trackpoint>
            <Time>2020-03-07T16:02:17.000Z</Time>
            <Position>
              <LatitudeDegrees>40.800506584346294403076171875</LatitudeDegrees>
              <LongitudeDegrees>-3.7750869803130626678466796875</LongitudeDegrees>
            </Position>
            <AltitudeMeters>1070.199951171875</AltitudeMeters>
            <DistanceMeters>NAN</DistanceMeters>
          </Trackpoint>
          <Trackpoint>
            <Time>2020-03-07T16:02:18.000Z</Time>
            <Position>
              <LatitudeDegrees>40.80040357075631618499755859375</LatitudeDegrees>
              <LongitudeDegrees>-3.77508237026631832122802734375</LongitudeDegrees>
            </Position>
            <AltitudeMeters>1069.4000244140625</AltitudeMeters>
            <DistanceMeters>NAN</DistanceMeters>
          </Trackpoint>
          <Trackpoint>
            <Time>2020-03-07T16:02:19.000Z</Time>
            <Position>
              <LatitudeDegrees>40.80030097626149654388427734375</LatitudeDegrees>
              <LongitudeDegrees>-3.77507985569536685943603515625</LongitudeDegrees>
            </Position>
            <AltitudeMeters>1068.5999755859375</AltitudeMeters>
            <DistanceMeters>NAN</DistanceMeters>
          </Trackpoint>
          <Trackpoint>
            <Time>2020-03-07T16:02:20.000Z</Time>
            <Position>
              <LatitudeDegrees>40.80019821412861347198486328125</LatitudeDegrees>
              <LongitudeDegrees>-3.775077760219573974609375</LongitudeDegrees>
            </Position>
            <AltitudeMeters>1067.800048828125</AltitudeMeters>
            <DistanceMeters>NAN</DistanceMeters>
          </Trackpoint>
          <Trackpoint>
            <Time>2020-03-07T16:02:21.000Z</Time>
            <Position>
              <LatitudeDegrees>40.80009679310023784637451171875</LatitudeDegrees>
              <LongitudeDegrees>-3.77507532946765422821044921875</LongitudeDegrees>
            </Position>
            <AltitudeMeters>1067.199951171875</AltitudeMeters>
            <DistanceMeters>NAN</DistanceMeters>
          </Trackpoint>
          <Trackpoint>
            <Time>2020-03-07T16:02:22.000Z</Time>
            <Position>
              <LatitudeDegrees>40.79999621026217937469482421875</LatitudeDegrees>
              <LongitudeDegrees>-3.77507197670638561248779296875</LongitudeDegrees>
            </Position>
            <AltitudeMeters>1066.5999755859375</AltitudeMeters>
            <DistanceMeters>NAN</DistanceMeters>
          </Trackpoint>
          <Trackpoint>
            <Time>2020-03-07T16:02:23.000Z</Time>
            <Position>
              <LatitudeDegrees>40.7998965494334697723388671875</LatitudeDegrees>
              <LongitudeDegrees>-3.7750688754022121429443359375</LongitudeDegrees>
            </Position>
            <AltitudeMeters>1066.199951171875</AltitudeMeters>
            <DistanceMeters>NAN</DistanceMeters>
          </Trackpoint>
          <Trackpoint>
            <Time>2020-03-07T16:02:24.000Z</Time>
            <Position>
              <LatitudeDegrees>40.799798481166362762451171875</LatitudeDegrees>
              <LongitudeDegrees>-3.77506510354578495025634765625</LongitudeDegrees>
            </Position>
            <AltitudeMeters>1065.800048828125</AltitudeMeters>
            <DistanceMeters>NAN</DistanceMeters>
          </Trackpoint>
          <Trackpoint>
            <Time>2020-03-07T16:02:25.000Z</Time>
            <Position>
              <LatitudeDegrees>40.7997020892798900604248046875</LatitudeDegrees>
              <LongitudeDegrees>-3.77505965530872344970703125</LongitudeDegrees>
            </Position>
            <AltitudeMeters>1065.199951171875</AltitudeMeters>
            <DistanceMeters>NAN</DistanceMeters>
          </Trackpoint>
          <Trackpoint>
            <Time>2020-03-07T16:02:26.000Z</Time>
            <Position>
              <LatitudeDegrees>40.79960645176470279693603515625</LatitudeDegrees>
              <LongitudeDegrees>-3.7750547938048839569091796875</LongitudeDegrees>
            </Position>
            <AltitudeMeters>1064.800048828125</AltitudeMeters>
            <DistanceMeters>NAN</DistanceMeters>
          </Trackpoint>
          <Trackpoint>
            <Time>2020-03-07T16:02:27.000Z</Time>
            <Position>
              <LatitudeDegrees>40.79951207153499126434326171875</LatitudeDegrees>
              <LongitudeDegrees>-3.7750511057674884796142578125</LongitudeDegrees>
            </Position>
            <AltitudeMeters>1064.199951171875</AltitudeMeters>
            <DistanceMeters>NAN</DistanceMeters>
          </Trackpoint>
          <Trackpoint>
            <Time>2020-03-07T16:02:28.000Z</Time>
            <Position>
              <LatitudeDegrees>40.799418948590755462646484375</LatitudeDegrees>
              <LongitudeDegrees>-3.7750490941107273101806640625</LongitudeDegrees>
            </Position>
            <AltitudeMeters>1063.800048828125</AltitudeMeters>
            <DistanceMeters>NAN</DistanceMeters>
          </Trackpoint>
          <Trackpoint>
            <Time>2020-03-07T16:02:29.000Z</Time>
            <Position>
              <LatitudeDegrees>40.79932632856070995330810546875</LatitudeDegrees>
              <LongitudeDegrees>-3.7750477530062198638916015625</LongitudeDegrees>
            </Position>
            <AltitudeMeters>1063.199951171875</AltitudeMeters>
            <DistanceMeters>NAN</DistanceMeters>
          </Trackpoint>
          <Trackpoint>
            <Time>2020-03-07T16:02:30.000Z</Time>
            <Position>
              <LatitudeDegrees>40.79923354089260101318359375</LatitudeDegrees>
              <LongitudeDegrees>-3.775045238435268402099609375</LongitudeDegrees>
            </Position>
            <AltitudeMeters>1063</AltitudeMeters>
            <DistanceMeters>NAN</DistanceMeters>
          </Trackpoint>
          <Trackpoint>
            <Time>2020-03-07T16:02:31.000Z</Time>
            <Position>
              <LatitudeDegrees>40.79914100468158721923828125</LatitudeDegrees>
              <LongitudeDegrees>-3.77504180185496807098388671875</LongitudeDegrees>
            </Position>
            <AltitudeMeters>1062.800048828125</AltitudeMeters>
            <DistanceMeters>NAN</DistanceMeters>
          </Trackpoint>
          <Trackpoint>
            <Time>2020-03-07T16:02:32.000Z</Time>
            <Position>
              <LatitudeDegrees>40.7990493066608905792236328125</LatitudeDegrees>
              <LongitudeDegrees>-3.7750375270843505859375</LongitudeDegrees>
            </Position>
            <AltitudeMeters>1062.4000244140625</AltitudeMeters>
            <DistanceMeters>NAN</DistanceMeters>
          </Trackpoint>
          <Trackpoint>
            <Time>2020-03-07T16:02:33.000Z</Time>
            <Position>
              <LatitudeDegrees>40.79895752482116222381591796875</LatitudeDegrees>
              <LongitudeDegrees>-3.77503375522792339324951171875</LongitudeDegrees>
            </Position>
            <AltitudeMeters>1062.199951171875</AltitudeMeters>
            <DistanceMeters>NAN</DistanceMeters>
          </Trackpoint>
          <Trackpoint>
            <Time>2020-03-07T16:02:34.000Z</Time>
            <Position>
              <LatitudeDegrees>40.79886649735271930694580078125</LatitudeDegrees>
              <LongitudeDegrees>-3.775030486285686492919921875</LongitudeDegrees>
            </Position>
            <AltitudeMeters>1062</AltitudeMeters>
            <DistanceMeters>NAN</DistanceMeters>
          </Trackpoint>
          <Trackpoint>
            <Time>2020-03-07T16:02:35.000Z</Time>
            <Position>
              <LatitudeDegrees>40.79877555370330810546875</LatitudeDegrees>
              <LongitudeDegrees>-3.77502755261957645416259765625</LongitudeDegrees>
            </Position>
            <AltitudeMeters>1061.800048828125</AltitudeMeters>
            <DistanceMeters>NAN</DistanceMeters>
          </Trackpoint>
          <Trackpoint>
            <Time>2020-03-07T16:02:36.000Z</Time>
            <Position>
              <LatitudeDegrees>40.79868477769196033477783203125</LatitudeDegrees>
              <LongitudeDegrees>-3.77502637915313243865966796875</LongitudeDegrees>
            </Position>
            <AltitudeMeters>1061.5999755859375</AltitudeMeters>
            <DistanceMeters>NAN</DistanceMeters>
          </Trackpoint>
          <Trackpoint>
            <Time>2020-03-07T16:02:37.000Z</Time>
            <Position>
              <LatitudeDegrees>40.79859316349029541015625</LatitudeDegrees>
              <LongitudeDegrees>-3.7750236131250858306884765625</LongitudeDegrees>
            </Position>
            <AltitudeMeters>1061.5999755859375</AltitudeMeters>
            <DistanceMeters>NAN</DistanceMeters>
          </Trackpoint>
          <Trackpoint>
            <Time>2020-03-07T16:02:38.000Z</Time>
            <Position>
              <LatitudeDegrees>40.798498280346393585205078125</LatitudeDegrees>
              <LongitudeDegrees>-3.77502235583961009979248046875</LongitudeDegrees>
            </Position>
            <AltitudeMeters>1061.4000244140625</AltitudeMeters>
            <DistanceMeters>NAN</DistanceMeters>
          </Trackpoint>
          <Trackpoint>
            <Time>2020-03-07T16:02:39.000Z</Time>
            <Position>
              <LatitudeDegrees>40.79840079881250858306884765625</LatitudeDegrees>
              <LongitudeDegrees>-3.7750222720205783843994140625</LongitudeDegrees>
            </Position>
            <AltitudeMeters>1061.199951171875</AltitudeMeters>
            <DistanceMeters>NAN</DistanceMeters>
          </Trackpoint>
          <Trackpoint>
            <Time>2020-03-07T16:02:40.000Z</Time>
            <Position>
              <LatitudeDegrees>40.79830155707895755767822265625</LatitudeDegrees>
              <LongitudeDegrees>-3.7750195898115634918212890625</LongitudeDegrees>
            </Position>
            <AltitudeMeters>1061</AltitudeMeters>
            <DistanceMeters>NAN</DistanceMeters>
          </Trackpoint>
          <Trackpoint>
            <Time>2020-03-07T16:02:41.000Z</Time>
            <Position>
              <LatitudeDegrees>40.7981990464031696319580078125</LatitudeDegrees>
              <LongitudeDegrees>-3.7750135548412799835205078125</LongitudeDegrees>
            </Position>
            <AltitudeMeters>1060.800048828125</AltitudeMeters>
            <DistanceMeters>NAN</DistanceMeters>
          </Trackpoint>
          <Trackpoint>
            <Time>2020-03-07T16:02:42.000Z</Time>
            <Position>
              <LatitudeDegrees>40.79809284768998622894287109375</LatitudeDegrees>
              <LongitudeDegrees>-3.7750075198709964752197265625</LongitudeDegrees>
            </Position>
            <AltitudeMeters>1060.800048828125</AltitudeMeters>
            <DistanceMeters>NAN</DistanceMeters>
          </Trackpoint>
          <Trackpoint>
            <Time>2020-03-07T16:02:43.000Z</Time>
            <Position>
              <LatitudeDegrees>40.797984637320041656494140625</LatitudeDegrees>
              <LongitudeDegrees>-3.77500324510037899017333984375</LongitudeDegrees>
            </Position>
            <AltitudeMeters>1060.5999755859375</AltitudeMeters>
            <DistanceMeters>NAN</DistanceMeters>
          </Trackpoint>
          <Trackpoint>
            <Time>2020-03-07T16:02:44.000Z</Time>
            <Position>
              <LatitudeDegrees>40.79787374474108219146728515625</LatitudeDegrees>
              <LongitudeDegrees>-3.77500064671039581298828125</LongitudeDegrees>
            </Position>
            <AltitudeMeters>1060.4000244140625</AltitudeMeters>
            <DistanceMeters>NAN</DistanceMeters>
          </Trackpoint>
          <Trackpoint>
            <Time>2020-03-07T16:02:45.000Z</Time>
            <Position>
              <LatitudeDegrees>40.7977601699531078338623046875</LatitudeDegrees>
              <LongitudeDegrees>-3.77499737776815891265869140625</LongitudeDegrees>
            </Position>
            <AltitudeMeters>1060.199951171875</AltitudeMeters>
            <DistanceMeters>NAN</DistanceMeters>
          </Trackpoint>
          <Trackpoint>
            <Time>2020-03-07T16:02:46.000Z</Time>
            <Position>
              <LatitudeDegrees>40.79764433205127716064453125</LatitudeDegrees>
              <LongitudeDegrees>-3.774991929531097412109375</LongitudeDegrees>
            </Position>
            <AltitudeMeters>1060</AltitudeMeters>
            <DistanceMeters>NAN</DistanceMeters>
          </Trackpoint>
          <Trackpoint>
            <Time>2020-03-07T16:02:47.000Z</Time>
            <Position>
              <LatitudeDegrees>40.7975261472165584564208984375</LatitudeDegrees>
              <LongitudeDegrees>-3.774985559284687042236328125</LongitudeDegrees>
            </Position>
            <AltitudeMeters>1059.4000244140625</AltitudeMeters>
            <DistanceMeters>NAN</DistanceMeters>
          </Trackpoint>
          <Trackpoint>
            <Time>2020-03-07T16:02:48.000Z</Time>
            <Position>
              <LatitudeDegrees>40.79740670509636402130126953125</LatitudeDegrees>
              <LongitudeDegrees>-3.77497960813343524932861328125</LongitudeDegrees>
            </Position>
            <AltitudeMeters>1058.5999755859375</AltitudeMeters>
            <DistanceMeters>NAN</DistanceMeters>
          </Trackpoint>
          <Trackpoint>
            <Time>2020-03-07T16:02:49.000Z</Time>
            <Position>
              <LatitudeDegrees>40.79728416167199611663818359375</LatitudeDegrees>
              <LongitudeDegrees>-3.77497407607734203338623046875</LongitudeDegrees>
            </Position>
            <AltitudeMeters>1057.800048828125</AltitudeMeters>
            <DistanceMeters>NAN</DistanceMeters>
          </Trackpoint>
          <Trackpoint>
            <Time>2020-03-07T16:02:50.000Z</Time>
            <Position>
              <LatitudeDegrees>40.7971606962382793426513671875</LatitudeDegrees>
              <LongitudeDegrees>-3.77497038803994655609130859375</LongitudeDegrees>
            </Position>
            <AltitudeMeters>1057</AltitudeMeters>
            <DistanceMeters>NAN</DistanceMeters>
          </Trackpoint>
          <Trackpoint>
            <Time>2020-03-07T16:02:51.000Z</Time>
            <Position>
              <LatitudeDegrees>40.797035135328769683837890625</LatitudeDegrees>
              <LongitudeDegrees>-3.77496804110705852508544921875</LongitudeDegrees>
            </Position>
            <AltitudeMeters>1056</AltitudeMeters>
            <DistanceMeters>NAN</DistanceMeters>
          </Trackpoint>
          <Trackpoint>
            <Time>2020-03-07T16:02:52.000Z</Time>
            <Position>
              <LatitudeDegrees>40.79690781421959400177001953125</LatitudeDegrees>
              <LongitudeDegrees>-3.7749642692506313323974609375</LongitudeDegrees>
            </Position>
            <AltitudeMeters>1055.199951171875</AltitudeMeters>
            <DistanceMeters>NAN</DistanceMeters>
          </Trackpoint>
          <Trackpoint>
            <Time>2020-03-07T16:02:53.000Z</Time>
            <Position>
              <LatitudeDegrees>40.7967804931104183197021484375</LatitudeDegrees>
              <LongitudeDegrees>-3.774957396090030670166015625</LongitudeDegrees>
            </Position>
            <AltitudeMeters>1054.4000244140625</AltitudeMeters>
            <DistanceMeters>NAN</DistanceMeters>
          </Trackpoint>
          <Trackpoint>
            <Time>2020-03-07T16:02:54.000Z</Time>
            <Position>
              <LatitudeDegrees>40.7967804931104183197021484375</LatitudeDegrees>
              <LongitudeDegrees>-3.774957396090030670166015625</LongitudeDegrees>
            </Position>
            <AltitudeMeters>1053.4000244140625</AltitudeMeters>
            <DistanceMeters>NAN</DistanceMeters>
          </Trackpoint>
          <Trackpoint>
            <Time>2020-03-07T16:02:55.000Z</Time>
            <Position>
              <LatitudeDegrees>40.79665753059089183807373046875</LatitudeDegrees>
              <LongitudeDegrees>-3.7749495171010494232177734375</LongitudeDegrees>
            </Position>
            <AltitudeMeters>1052.4000244140625</AltitudeMeters>
            <DistanceMeters>NAN</DistanceMeters>
          </Trackpoint>
          <Trackpoint>
            <Time>2020-03-07T16:02:56.000Z</Time>
            <Position>
              <LatitudeDegrees>40.79653984867036342620849609375</LatitudeDegrees>
              <LongitudeDegrees>-3.77494289539754390716552734375</LongitudeDegrees>
            </Position>
            <AltitudeMeters>1051.4000244140625</AltitudeMeters>
            <DistanceMeters>NAN</DistanceMeters>
          </Trackpoint>
          <Trackpoint>
            <Time>2020-03-07T16:02:57.000Z</Time>
            <Position>
              <LatitudeDegrees>40.7964271120727062225341796875</LatitudeDegrees>
              <LongitudeDegrees>-3.77493761479854583740234375</LongitudeDegrees>
            </Position>
            <AltitudeMeters>1050.5999755859375</AltitudeMeters>
            <DistanceMeters>NAN</DistanceMeters>
          </Trackpoint>
          <Trackpoint>
            <Time>2020-03-07T16:02:58.000Z</Time>
            <Position>
              <LatitudeDegrees>40.79621681012213230133056640625</LatitudeDegrees>
              <LongitudeDegrees>-3.77493090927600860595703125</LongitudeDegrees>
            </Position>
            <AltitudeMeters>1049.800048828125</AltitudeMeters>
            <DistanceMeters>NAN</DistanceMeters>
          </Trackpoint>
          <Trackpoint>
            <Time>2020-03-07T16:02:59.000Z</Time>
            <Position>
              <LatitudeDegrees>40.79611815512180328369140625</LatitudeDegrees>
              <LongitudeDegrees>-3.7749270536005496978759765625</LongitudeDegrees>
            </Position>
            <AltitudeMeters>1049</AltitudeMeters>
            <DistanceMeters>NAN</DistanceMeters>
          </Trackpoint>
          <Trackpoint>
            <Time>2020-03-07T16:03:00.000Z</Time>
            <Position>
              <LatitudeDegrees>40.79602067358791828155517578125</LatitudeDegrees>
              <LongitudeDegrees>-3.77492344938218593597412109375</LongitudeDegrees>
            </Position>
            <AltitudeMeters>1048.4000244140625</AltitudeMeters>
            <DistanceMeters>NAN</DistanceMeters>
          </Trackpoint>
          <Trackpoint>
            <Time>2020-03-07T16:03:01.000Z</Time>
            <Position>
              <LatitudeDegrees>40.79592327587306499481201171875</LatitudeDegrees>
              <LongitudeDegrees>-3.77491825260221958160400390625</LongitudeDegrees>
            </Position>
            <AltitudeMeters>1048.199951171875</AltitudeMeters>
            <DistanceMeters>NAN</DistanceMeters>
          </Trackpoint>
          <Trackpoint>
            <Time>2020-03-07T16:03:02.000Z</Time>
            <Position>
              <LatitudeDegrees>40.79592327587306499481201171875</LatitudeDegrees>
              <LongitudeDegrees>-3.77491825260221958160400390625</LongitudeDegrees>
            </Position>
            <AltitudeMeters>1048.199951171875</AltitudeMeters>
            <DistanceMeters>NAN</DistanceMeters>
          </Trackpoint>
          <Trackpoint>
            <Time>2020-03-07T16:03:03.000Z</Time>
            <Position>
              <LatitudeDegrees>40.79573418013751506805419921875</LatitudeDegrees>
              <LongitudeDegrees>-3.774909116327762603759765625</LongitudeDegrees>
            </Position>
            <AltitudeMeters>1048.199951171875</AltitudeMeters>
            <DistanceMeters>NAN</DistanceMeters>
          </Trackpoint>
          <Trackpoint>
            <Time>2020-03-07T16:03:04.000Z</Time>
            <Position>
              <LatitudeDegrees>40.79564181156456470489501953125</LatitudeDegrees>
              <LongitudeDegrees>-3.7749136425554752349853515625</LongitudeDegrees>
            </Position>
            <AltitudeMeters>1048.199951171875</AltitudeMeters>
            <DistanceMeters>NAN</DistanceMeters>
          </Trackpoint>
          <Trackpoint>
            <Time>2020-03-07T16:03:05.000Z</Time>
            <Position>
              <LatitudeDegrees>40.79555028118193149566650390625</LatitudeDegrees>
              <LongitudeDegrees>-3.77491456456482410430908203125</LongitudeDegrees>
            </Position>
            <AltitudeMeters>1048</AltitudeMeters>
            <DistanceMeters>NAN</DistanceMeters>
          </Trackpoint>
          <Trackpoint>
            <Time>2020-03-07T16:03:06.000Z</Time>
            <Position>
              <LatitudeDegrees>40.79546059481799602508544921875</LatitudeDegrees>
              <LongitudeDegrees>-3.77491489984095096588134765625</LongitudeDegrees>
            </Position>
            <AltitudeMeters>1047.800048828125</AltitudeMeters>
            <DistanceMeters>NAN</DistanceMeters>
          </Trackpoint>
          <Trackpoint>
            <Time>2020-03-07T16:03:07.000Z</Time>
            <Position>
              <LatitudeDegrees>40.7953726686537265777587890625</LatitudeDegrees>
              <LongitudeDegrees>-3.7749129720032215118408203125</LongitudeDegrees>
            </Position>
            <AltitudeMeters>1047.5999755859375</AltitudeMeters>
            <DistanceMeters>NAN</DistanceMeters>
          </Trackpoint>
          <Trackpoint>
            <Time>2020-03-07T16:03:08.000Z</Time>
            <Position>
              <LatitudeDegrees>40.7952895201742649078369140625</LatitudeDegrees>
              <LongitudeDegrees>-3.7749101221561431884765625</LongitudeDegrees>
            </Position>
            <AltitudeMeters>1047.5999755859375</AltitudeMeters>
            <DistanceMeters>NAN</DistanceMeters>
          </Trackpoint>
          <Trackpoint>
            <Time>2020-03-07T16:03:09.000Z</Time>
            <Position>
              <LatitudeDegrees>40.79520813189446926116943359375</LatitudeDegrees>
              <LongitudeDegrees>-3.77490819431841373443603515625</LongitudeDegrees>
            </Position>
            <AltitudeMeters>1047.800048828125</AltitudeMeters>
            <DistanceMeters>NAN</DistanceMeters>
          </Trackpoint>
          <Trackpoint>
            <Time>2020-03-07T16:03:10.000Z</Time>
            <Position>
              <LatitudeDegrees>40.7951265759766101837158203125</LatitudeDegrees>
              <LongitudeDegrees>-3.77490383572876453399658203125</LongitudeDegrees>
            </Position>
            <AltitudeMeters>1047.800048828125</AltitudeMeters>
            <DistanceMeters>NAN</DistanceMeters>
          </Trackpoint>
          <Trackpoint>
            <Time>2020-03-07T16:03:11.000Z</Time>
            <Position>
              <LatitudeDegrees>40.7950484566390514373779296875</LatitudeDegrees>
              <LongitudeDegrees>-3.77489964477717876434326171875</LongitudeDegrees>
            </Position>
            <AltitudeMeters>1048</AltitudeMeters>
            <DistanceMeters>NAN</DistanceMeters>
          </Trackpoint>
          <Trackpoint>
            <Time>2020-03-07T16:03:12.000Z</Time>
            <Position>
              <LatitudeDegrees>40.79497754573822021484375</LatitudeDegrees>
              <LongitudeDegrees>-3.774898387491703033447265625</LongitudeDegrees>
            </Position>
            <AltitudeMeters>1048.199951171875</AltitudeMeters>
            <DistanceMeters>NAN</DistanceMeters>
          </Trackpoint>
          <Trackpoint>
            <Time>2020-03-07T16:03:13.000Z</Time>
            <Position>
              <LatitudeDegrees>40.79490839503705501556396484375</LatitudeDegrees>
              <LongitudeDegrees>-3.77489629201591014862060546875</LongitudeDegrees>
            </Position>
            <AltitudeMeters>1048.199951171875</AltitudeMeters>
            <DistanceMeters>NAN</DistanceMeters>
          </Trackpoint>
          <Trackpoint>
            <Time>2020-03-07T16:03:14.000Z</Time>
            <Position>
              <LatitudeDegrees>40.79490839503705501556396484375</LatitudeDegrees>
              <LongitudeDegrees>-3.77489629201591014862060546875</LongitudeDegrees>
            </Position>
            <AltitudeMeters>1048.4000244140625</AltitudeMeters>
            <DistanceMeters>NAN</DistanceMeters>
          </Trackpoint>
          <Trackpoint>
            <Time>2020-03-07T16:03:15.000Z</Time>
            <Position>
              <LatitudeDegrees>40.7947812415659427642822265625</LatitudeDegrees>
              <LongitudeDegrees>-3.77489310689270496368408203125</LongitudeDegrees>
            </Position>
            <AltitudeMeters>1048.4000244140625</AltitudeMeters>
            <DistanceMeters>NAN</DistanceMeters>
          </Trackpoint>
          <Trackpoint>
            <Time>2020-03-07T16:03:16.000Z</Time>
            <Position>
              <LatitudeDegrees>40.79471913166344165802001953125</LatitudeDegrees>
              <LongitudeDegrees>-3.77489025704562664031982421875</LongitudeDegrees>
            </Position>
            <AltitudeMeters>1048.4000244140625</AltitudeMeters>
            <DistanceMeters>NAN</DistanceMeters>
          </Trackpoint>
          <Trackpoint>
            <Time>2020-03-07T16:03:17.000Z</Time>
            <Position>
              <LatitudeDegrees>40.79466146416962146759033203125</LatitudeDegrees>
              <LongitudeDegrees>-3.7748841382563114166259765625</LongitudeDegrees>
            </Position>
            <AltitudeMeters>1048.5999755859375</AltitudeMeters>
            <DistanceMeters>NAN</DistanceMeters>
          </Trackpoint>
          <Trackpoint>
            <Time>2020-03-07T16:03:18.000Z</Time>
            <Position>
              <LatitudeDegrees>40.7946038804948329925537109375</LatitudeDegrees>
              <LongitudeDegrees>-3.774876929819583892822265625</LongitudeDegrees>
            </Position>
            <AltitudeMeters>1049.4000244140625</AltitudeMeters>
            <DistanceMeters>NAN</DistanceMeters>
          </Trackpoint>
          <Trackpoint>
            <Time>2020-03-07T16:03:19.000Z</Time>
            <Position>
              <LatitudeDegrees>40.7945455424487590789794921875</LatitudeDegrees>
              <LongitudeDegrees>-3.77487181685864925384521484375</LongitudeDegrees>
            </Position>
            <AltitudeMeters>1050.4000244140625</AltitudeMeters>
            <DistanceMeters>NAN</DistanceMeters>
          </Trackpoint>
          <Trackpoint>
            <Time>2020-03-07T16:03:20.000Z</Time>
            <Position>
              <LatitudeDegrees>40.79448695294559001922607421875</LatitudeDegrees>
              <LongitudeDegrees>-3.7748690508306026458740234375</LongitudeDegrees>
            </Position>
            <AltitudeMeters>1050.800048828125</AltitudeMeters>
            <DistanceMeters>NAN</DistanceMeters>
          </Trackpoint>
          <Trackpoint>
            <Time>2020-03-07T16:03:21.000Z</Time>
            <Position>
              <LatitudeDegrees>40.79443029128015041351318359375</LatitudeDegrees>
              <LongitudeDegrees>-3.7748667038977146148681640625</LongitudeDegrees>
            </Position>
            <AltitudeMeters>1052</AltitudeMeters>
            <DistanceMeters>NAN</DistanceMeters>
          </Trackpoint>
          <Trackpoint>
            <Time>2020-03-07T16:03:22.000Z</Time>
            <Position>
              <LatitudeDegrees>40.7943698577582836151123046875</LatitudeDegrees>
              <LongitudeDegrees>-3.77485941164195537567138671875</LongitudeDegrees>
            </Position>
            <AltitudeMeters>1052.5999755859375</AltitudeMeters>
            <DistanceMeters>NAN</DistanceMeters>
          </Trackpoint>
          <Trackpoint>
            <Time>2020-03-07T16:03:23.000Z</Time>
            <Position>
              <LatitudeDegrees>40.7943110167980194091796875</LatitudeDegrees>
              <LongitudeDegrees>-3.77484968863427639007568359375</LongitudeDegrees>
            </Position>
            <AltitudeMeters>1053</AltitudeMeters>
            <DistanceMeters>NAN</DistanceMeters>
          </Trackpoint>
          <Trackpoint>
            <Time>2020-03-07T16:03:24.000Z</Time>
            <Position>
              <LatitudeDegrees>40.7942508347332477569580078125</LatitudeDegrees>
              <LongitudeDegrees>-3.77484499476850032806396484375</LongitudeDegrees>
            </Position>
            <AltitudeMeters>1053.199951171875</AltitudeMeters>
            <DistanceMeters>NAN</DistanceMeters>
          </Trackpoint>
          <Trackpoint>
            <Time>2020-03-07T16:03:25.000Z</Time>
            <Position>
              <LatitudeDegrees>40.79419140703976154327392578125</LatitudeDegrees>
              <LongitudeDegrees>-3.774840719997882843017578125</LongitudeDegrees>
            </Position>
            <AltitudeMeters>1053.4000244140625</AltitudeMeters>
            <DistanceMeters>NAN</DistanceMeters>
          </Trackpoint>
          <Trackpoint>
            <Time>2020-03-07T16:03:26.000Z</Time>
            <Position>
              <LatitudeDegrees>40.79419140703976154327392578125</LatitudeDegrees>
              <LongitudeDegrees>-3.774840719997882843017578125</LongitudeDegrees>
            </Position>
            <AltitudeMeters>1053.4000244140625</AltitudeMeters>
            <DistanceMeters>NAN</DistanceMeters>
          </Trackpoint>
          <Trackpoint>
            <Time>2020-03-07T16:03:27.000Z</Time>
            <Position>
              <LatitudeDegrees>40.79407087527215480804443359375</LatitudeDegrees>
              <LongitudeDegrees>-3.7748350203037261962890625</LongitudeDegrees>
            </Position>
            <AltitudeMeters>1053.5999755859375</AltitudeMeters>
            <DistanceMeters>NAN</DistanceMeters>
          </Trackpoint>
          <Trackpoint>
            <Time>2020-03-07T16:03:28.000Z</Time>
            <Position>
              <LatitudeDegrees>40.79401127994060516357421875</LatitudeDegrees>
              <LongitudeDegrees>-3.77483166754245758056640625</LongitudeDegrees>
            </Position>
            <AltitudeMeters>1053.800048828125</AltitudeMeters>
            <DistanceMeters>NAN</DistanceMeters>
          </Trackpoint>
          <Trackpoint>
            <Time>2020-03-07T16:03:29.000Z</Time>
            <Position>
              <LatitudeDegrees>40.7939500920474529266357421875</LatitudeDegrees>
              <LongitudeDegrees>-3.77483191899955272674560546875</LongitudeDegrees>
            </Position>
            <AltitudeMeters>1054</AltitudeMeters>
            <DistanceMeters>NAN</DistanceMeters>
          </Trackpoint>
          <Trackpoint>
            <Time>2020-03-07T16:03:30.000Z</Time>
            <Position>
              <LatitudeDegrees>40.79388664104044437408447265625</LatitudeDegrees>
              <LongitudeDegrees>-3.774835355579853057861328125</LongitudeDegrees>
            </Position>
            <AltitudeMeters>1054</AltitudeMeters>
            <DistanceMeters>NAN</DistanceMeters>
          </Trackpoint>
          <Trackpoint>
            <Time>2020-03-07T16:03:31.000Z</Time>
            <Position>
              <LatitudeDegrees>40.7938213460147380828857421875</LatitudeDegrees>
              <LongitudeDegrees>-3.7748439051210880279541015625</LongitudeDegrees>
            </Position>
            <AltitudeMeters>1054</AltitudeMeters>
            <DistanceMeters>NAN</DistanceMeters>
          </Trackpoint>
          <Trackpoint>
            <Time>2020-03-07T16:03:32.000Z</Time>
            <Position>
              <LatitudeDegrees>40.79375521279871463775634765625</LatitudeDegrees>
              <LongitudeDegrees>-3.7748626805841922760009765625</LongitudeDegrees>
            </Position>
            <AltitudeMeters>1054</AltitudeMeters>
            <DistanceMeters>NAN</DistanceMeters>
          </Trackpoint>
          <Trackpoint>
            <Time>2020-03-07T16:03:33.000Z</Time>
            <Position>
              <LatitudeDegrees>40.79368782229721546173095703125</LatitudeDegrees>
              <LongitudeDegrees>-3.77488874830305576324462890625</LongitudeDegrees>
            </Position>
            <AltitudeMeters>1054.199951171875</AltitudeMeters>
            <DistanceMeters>NAN</DistanceMeters>
          </Trackpoint>
          <Trackpoint>
            <Time>2020-03-07T16:03:34.000Z</Time>
            <Position>
              <LatitudeDegrees>40.79361808486282825469970703125</LatitudeDegrees>
              <LongitudeDegrees>-3.77492043189704418182373046875</LongitudeDegrees>
            </Position>
            <AltitudeMeters>1054</AltitudeMeters>
            <DistanceMeters>NAN</DistanceMeters>
          </Trackpoint>
          <Trackpoint>
            <Time>2020-03-07T16:03:35.000Z</Time>
            <Position>
              <LatitudeDegrees>40.7935480959713459014892578125</LatitudeDegrees>
              <LongitudeDegrees>-3.77495295368134975433349609375</LongitudeDegrees>
            </Position>
            <AltitudeMeters>1054</AltitudeMeters>
            <DistanceMeters>NAN</DistanceMeters>
          </Trackpoint>
          <Trackpoint>
            <Time>2020-03-07T16:03:36.000Z</Time>
            <Position>
              <LatitudeDegrees>40.79347743652760982513427734375</LatitudeDegrees>
              <LongitudeDegrees>-3.7749847210943698883056640625</LongitudeDegrees>
            </Position>
            <AltitudeMeters>1054</AltitudeMeters>
            <DistanceMeters>NAN</DistanceMeters>
          </Trackpoint>
          <Trackpoint>
            <Time>2020-03-07T16:03:37.000Z</Time>
            <Position>
              <LatitudeDegrees>40.79340769909322261810302734375</LatitudeDegrees>
              <LongitudeDegrees>-3.77502034418284893035888671875</LongitudeDegrees>
            </Position>
            <AltitudeMeters>1054</AltitudeMeters>
            <DistanceMeters>NAN</DistanceMeters>
          </Trackpoint>
          <Trackpoint>
            <Time>2020-03-07T16:03:38.000Z</Time>
            <Position>
              <LatitudeDegrees>40.7933373749256134033203125</LatitudeDegrees>
              <LongitudeDegrees>-3.77505873329937458038330078125</LongitudeDegrees>
            </Position>
            <AltitudeMeters>1054</AltitudeMeters>
            <DistanceMeters>NAN</DistanceMeters>
          </Trackpoint>
          <Trackpoint>
            <Time>2020-03-07T16:03:39.000Z</Time>
            <Position>
              <LatitudeDegrees>40.7932654581964015960693359375</LatitudeDegrees>
              <LongitudeDegrees>-3.7750970385968685150146484375</LongitudeDegrees>
            </Position>
            <AltitudeMeters>1053.800048828125</AltitudeMeters>
            <DistanceMeters>NAN</DistanceMeters>
          </Trackpoint>
          <Trackpoint>
            <Time>2020-03-07T16:03:40.000Z</Time>
            <Position>
              <LatitudeDegrees>40.79319228418171405792236328125</LatitudeDegrees>
              <LongitudeDegrees>-3.77513400278985500335693359375</LongitudeDegrees>
            </Position>
            <AltitudeMeters>1053.5999755859375</AltitudeMeters>
            <DistanceMeters>NAN</DistanceMeters>
          </Trackpoint>
          <Trackpoint>
            <Time>2020-03-07T16:03:41.000Z</Time>
            <Position>
              <LatitudeDegrees>40.793118439614772796630859375</LatitudeDegrees>
              <LongitudeDegrees>-3.77517121843993663787841796875</LongitudeDegrees>
            </Position>
            <AltitudeMeters>1053.4000244140625</AltitudeMeters>
            <DistanceMeters>NAN</DistanceMeters>
          </Trackpoint>
          <Trackpoint>
            <Time>2020-03-07T16:03:42.000Z</Time>
            <Position>
              <LatitudeDegrees>40.79304409213364124298095703125</LatitudeDegrees>
              <LongitudeDegrees>-3.77520927228033542633056640625</LongitudeDegrees>
            </Position>
            <AltitudeMeters>1053.199951171875</AltitudeMeters>
            <DistanceMeters>NAN</DistanceMeters>
          </Trackpoint>
          <Trackpoint>
            <Time>2020-03-07T16:03:43.000Z</Time>
            <Position>
              <LatitudeDegrees>40.79296949319541454315185546875</LatitudeDegrees>
              <LongitudeDegrees>-3.77524749375879764556884765625</LongitudeDegrees>
            </Position>
            <AltitudeMeters>1052.800048828125</AltitudeMeters>
            <DistanceMeters>NAN</DistanceMeters>
          </Trackpoint>
          <Trackpoint>
            <Time>2020-03-07T16:03:44.000Z</Time>
            <Position>
              <LatitudeDegrees>40.79289472661912441253662109375</LatitudeDegrees>
              <LongitudeDegrees>-3.77528655342757701873779296875</LongitudeDegrees>
            </Position>
            <AltitudeMeters>1052.4000244140625</AltitudeMeters>
            <DistanceMeters>NAN</DistanceMeters>
          </Trackpoint>
          <Trackpoint>
            <Time>2020-03-07T16:03:45.000Z</Time>
            <Position>
              <LatitudeDegrees>40.792820043861865997314453125</LatitudeDegrees>
              <LongitudeDegrees>-3.7753256969153881072998046875</LongitudeDegrees>
            </Position>
            <AltitudeMeters>1052.199951171875</AltitudeMeters>
            <DistanceMeters>NAN</DistanceMeters>
          </Trackpoint>
          <Trackpoint>
            <Time>2020-03-07T16:03:46.000Z</Time>
            <Position>
              <LatitudeDegrees>40.79274527728557586669921875</LatitudeDegrees>
              <LongitudeDegrees>-3.77536567859351634979248046875</LongitudeDegrees>
            </Position>
            <AltitudeMeters>1052</AltitudeMeters>
            <DistanceMeters>NAN</DistanceMeters>
          </Trackpoint>
          <Trackpoint>
            <Time>2020-03-07T16:03:47.000Z</Time>
            <Position>
              <LatitudeDegrees>40.79267042689025402069091796875</LatitudeDegrees>
              <LongitudeDegrees>-3.77540490590035915374755859375</LongitudeDegrees>
            </Position>
            <AltitudeMeters>1051.800048828125</AltitudeMeters>
            <DistanceMeters>NAN</DistanceMeters>
          </Trackpoint>
          <Trackpoint>
            <Time>2020-03-07T16:03:48.000Z</Time>
            <Position>
              <LatitudeDegrees>40.79259532503783702850341796875</LatitudeDegrees>
              <LongitudeDegrees>-3.7754437141120433807373046875</LongitudeDegrees>
            </Position>
            <AltitudeMeters>1051.5999755859375</AltitudeMeters>
            <DistanceMeters>NAN</DistanceMeters>
          </Trackpoint>
          <Trackpoint>
            <Time>2020-03-07T16:03:49.000Z</Time>
            <Position>
              <LatitudeDegrees>40.7925193011760711669921875</LatitudeDegrees>
              <LongitudeDegrees>-3.775483109056949615478515625</LongitudeDegrees>
            </Position>
            <AltitudeMeters>1051.5999755859375</AltitudeMeters>
            <DistanceMeters>NAN</DistanceMeters>
          </Trackpoint>
          <Trackpoint>
            <Time>2020-03-07T16:03:50.000Z</Time>
            <Position>
              <LatitudeDegrees>40.79244227148592472076416015625</LatitudeDegrees>
              <LongitudeDegrees>-3.775522001087665557861328125</LongitudeDegrees>
            </Position>
            <AltitudeMeters>1051.4000244140625</AltitudeMeters>
            <DistanceMeters>NAN</DistanceMeters>
          </Trackpoint>
          <Trackpoint>
            <Time>2020-03-07T16:03:51.000Z</Time>
            <Position>
              <LatitudeDegrees>40.7923637330532073974609375</LatitudeDegrees>
              <LongitudeDegrees>-3.77556198276579380035400390625</LongitudeDegrees>
            </Position>
            <AltitudeMeters>1051.199951171875</AltitudeMeters>
            <DistanceMeters>NAN</DistanceMeters>
          </Trackpoint>
          <Trackpoint>
            <Time>2020-03-07T16:03:52.000Z</Time>
            <Position>
              <LatitudeDegrees>40.792284272611141204833984375</LatitudeDegrees>
              <LongitudeDegrees>-3.77560322172939777374267578125</LongitudeDegrees>
            </Position>
            <AltitudeMeters>1051</AltitudeMeters>
            <DistanceMeters>NAN</DistanceMeters>
          </Trackpoint>
          <Trackpoint>
            <Time>2020-03-07T16:03:53.000Z</Time>
            <Position>
              <LatitudeDegrees>40.79220389015972614288330078125</LatitudeDegrees>
              <LongitudeDegrees>-3.77564462833106517791748046875</LongitudeDegrees>
            </Position>
            <AltitudeMeters>1050.5999755859375</AltitudeMeters>
            <DistanceMeters>NAN</DistanceMeters>
          </Trackpoint>
          <Trackpoint>
            <Time>2020-03-07T16:03:54.000Z</Time>
            <Position>
              <LatitudeDegrees>40.792122669517993927001953125</LatitudeDegrees>
              <LongitudeDegrees>-3.77568620257079601287841796875</LongitudeDegrees>
            </Position>
            <AltitudeMeters>1050.4000244140625</AltitudeMeters>
            <DistanceMeters>NAN</DistanceMeters>
          </Trackpoint>
          <Trackpoint>
            <Time>2020-03-07T16:03:55.000Z</Time>
            <Position>
              <LatitudeDegrees>40.79204010777175426483154296875</LatitudeDegrees>
              <LongitudeDegrees>-3.77572844736278057098388671875</LongitudeDegrees>
            </Position>
            <AltitudeMeters>1050.199951171875</AltitudeMeters>
            <DistanceMeters>NAN</DistanceMeters>
          </Trackpoint>
          <Trackpoint>
            <Time>2020-03-07T16:03:56.000Z</Time>
            <Position>
              <LatitudeDegrees>40.791957043111324310302734375</LatitudeDegrees>
              <LongitudeDegrees>-3.77577203325927257537841796875</LongitudeDegrees>
            </Position>
            <AltitudeMeters>1050</AltitudeMeters>
            <DistanceMeters>NAN</DistanceMeters>
          </Trackpoint>
          <Trackpoint>
            <Time>2020-03-07T16:03:57.000Z</Time>
            <Position>
              <LatitudeDegrees>40.79187213443219661712646484375</LatitudeDegrees>
              <LongitudeDegrees>-3.775815032422542572021484375</LongitudeDegrees>
            </Position>
            <AltitudeMeters>1049.800048828125</AltitudeMeters>
            <DistanceMeters>NAN</DistanceMeters>
          </Trackpoint>
          <Trackpoint>
            <Time>2020-03-07T16:03:58.000Z</Time>
            <Position>
              <LatitudeDegrees>40.7917855493724346160888671875</LatitudeDegrees>
              <LongitudeDegrees>-3.77585836686193943023681640625</LongitudeDegrees>
            </Position>
            <AltitudeMeters>1049.4000244140625</AltitudeMeters>
            <DistanceMeters>NAN</DistanceMeters>
          </Trackpoint>
          <Trackpoint>
            <Time>2020-03-07T16:03:59.000Z</Time>
            <Position>
              <LatitudeDegrees>40.7916990481317043304443359375</LatitudeDegrees>
              <LongitudeDegrees>-3.7759023718535900115966796875</LongitudeDegrees>
            </Position>
            <AltitudeMeters>1049</AltitudeMeters>
            <DistanceMeters>NAN</DistanceMeters>
          </Trackpoint>
          <Trackpoint>
            <Time>2020-03-07T16:04:00.000Z</Time>
            <Position>
              <LatitudeDegrees>40.79161447472870349884033203125</LatitudeDegrees>
              <LongitudeDegrees>-3.77594704739749431610107421875</LongitudeDegrees>
            </Position>
            <AltitudeMeters>1048.5999755859375</AltitudeMeters>
            <DistanceMeters>NAN</DistanceMeters>
          </Trackpoint>
          <Trackpoint>
            <Time>2020-03-07T16:04:01.000Z</Time>
            <Position>
              <LatitudeDegrees>40.7915283925831317901611328125</LatitudeDegrees>
              <LongitudeDegrees>-3.7759868614375591278076171875</LongitudeDegrees>
            </Position>
            <AltitudeMeters>1048</AltitudeMeters>
            <DistanceMeters>NAN</DistanceMeters>
          </Trackpoint>
          <Trackpoint>
            <Time>2020-03-07T16:04:02.000Z</Time>
            <Position>
              <LatitudeDegrees>40.791439376771450042724609375</LatitudeDegrees>
              <LongitudeDegrees>-3.77601326443254947662353515625</LongitudeDegrees>
            </Position>
            <AltitudeMeters>1047.5999755859375</AltitudeMeters>
            <DistanceMeters>NAN</DistanceMeters>
          </Trackpoint>
          <Trackpoint>
            <Time>2020-03-07T16:04:03.000Z</Time>
            <Position>
              <LatitudeDegrees>40.79134692437946796417236328125</LatitudeDegrees>
              <LongitudeDegrees>-3.77601049840450286865234375</LongitudeDegrees>
            </Position>
            <AltitudeMeters>1047</AltitudeMeters>
            <DistanceMeters>NAN</DistanceMeters>
          </Trackpoint>
          <Trackpoint>
            <Time>2020-03-07T16:04:04.000Z</Time>
            <Position>
              <LatitudeDegrees>40.791263021528720855712890625</LatitudeDegrees>
              <LongitudeDegrees>-3.77597772516310214996337890625</LongitudeDegrees>
            </Position>
            <AltitudeMeters>1046.4000244140625</AltitudeMeters>
            <DistanceMeters>NAN</DistanceMeters>
          </Trackpoint>
          <Trackpoint>
            <Time>2020-03-07T16:04:05.000Z</Time>
            <Position>
              <LatitudeDegrees>40.79119353555142879486083984375</LatitudeDegrees>
              <LongitudeDegrees>-3.7759084068238735198974609375</LongitudeDegrees>
            </Position>
            <AltitudeMeters>1046.199951171875</AltitudeMeters>
            <DistanceMeters>NAN</DistanceMeters>
          </Trackpoint>
          <Trackpoint>
            <Time>2020-03-07T16:04:06.000Z</Time>
            <Position>
              <LatitudeDegrees>40.791150033473968505859375</LatitudeDegrees>
              <LongitudeDegrees>-3.77581159584224224090576171875</LongitudeDegrees>
            </Position>
            <AltitudeMeters>1045.5999755859375</AltitudeMeters>
            <DistanceMeters>NAN</DistanceMeters>
          </Trackpoint>
          <Trackpoint>
            <Time>2020-03-07T16:04:07.000Z</Time>
            <Position>
              <LatitudeDegrees>40.7911153323948383331298828125</LatitudeDegrees>
              <LongitudeDegrees>-3.77569978125393390655517578125</LongitudeDegrees>
            </Position>
            <AltitudeMeters>1045.199951171875</AltitudeMeters>
            <DistanceMeters>NAN</DistanceMeters>
          </Trackpoint>
          <Trackpoint>
            <Time>2020-03-07T16:04:08.000Z</Time>
            <Position>
              <LatitudeDegrees>40.79109630547463893890380859375</LatitudeDegrees>
              <LongitudeDegrees>-3.77558310516178607940673828125</LongitudeDegrees>
            </Position>
            <AltitudeMeters>1044.4000244140625</AltitudeMeters>
            <DistanceMeters>NAN</DistanceMeters>
          </Trackpoint>
          <Trackpoint>
            <Time>2020-03-07T16:04:09.000Z</Time>
            <Position>
              <LatitudeDegrees>40.79109982587397098541259765625</LatitudeDegrees>
              <LongitudeDegrees>-3.7754651717841625213623046875</LongitudeDegrees>
            </Position>
            <AltitudeMeters>1043.800048828125</AltitudeMeters>
            <DistanceMeters>NAN</DistanceMeters>
          </Trackpoint>
          <Trackpoint>
            <Time>2020-03-07T16:04:10.000Z</Time>
            <Position>
              <LatitudeDegrees>40.7911059446632862091064453125</LatitudeDegrees>
              <LongitudeDegrees>-3.7753495015203952789306640625</LongitudeDegrees>
            </Position>
            <AltitudeMeters>1043.4000244140625</AltitudeMeters>
            <DistanceMeters>NAN</DistanceMeters>
          </Trackpoint>
          <Trackpoint>
            <Time>2020-03-07T16:04:11.000Z</Time>
            <Position>
              <LatitudeDegrees>40.79111088998615741729736328125</LatitudeDegrees>
              <LongitudeDegrees>-3.77523743547499179840087890625</LongitudeDegrees>
            </Position>
            <AltitudeMeters>1043.199951171875</AltitudeMeters>
            <DistanceMeters>NAN</DistanceMeters>
          </Trackpoint>
          <Trackpoint>
            <Time>2020-03-07T16:04:12.000Z</Time>
            <Position>
              <LatitudeDegrees>40.791117511689662933349609375</LatitudeDegrees>
              <LongitudeDegrees>-3.77512645907700061798095703125</LongitudeDegrees>
            </Position>
            <AltitudeMeters>1043.199951171875</AltitudeMeters>
            <DistanceMeters>NAN</DistanceMeters>
          </Trackpoint>
          <Trackpoint>
            <Time>2020-03-07T16:04:13.000Z</Time>
            <Position>
              <LatitudeDegrees>40.7911230437457561492919921875</LatitudeDegrees>
              <LongitudeDegrees>-3.7750179134309291839599609375</LongitudeDegrees>
            </Position>
            <AltitudeMeters>1042.800048828125</AltitudeMeters>
            <DistanceMeters>NAN</DistanceMeters>
          </Trackpoint>
          <Trackpoint>
            <Time>2020-03-07T16:04:14.000Z</Time>
            <Position>
              <LatitudeDegrees>40.79112983308732509613037109375</LatitudeDegrees>
              <LongitudeDegrees>-3.774915151298046112060546875</LongitudeDegrees>
            </Position>
            <AltitudeMeters>1042.5999755859375</AltitudeMeters>
            <DistanceMeters>NAN</DistanceMeters>
          </Trackpoint>
          <Trackpoint>
            <Time>2020-03-07T16:04:15.000Z</Time>
            <Position>
              <LatitudeDegrees>40.79113905318081378936767578125</LatitudeDegrees>
              <LongitudeDegrees>-3.7748150713741779327392578125</LongitudeDegrees>
            </Position>
            <AltitudeMeters>1042.5999755859375</AltitudeMeters>
            <DistanceMeters>NAN</DistanceMeters>
          </Trackpoint>
          <Trackpoint>
            <Time>2020-03-07T16:04:16.000Z</Time>
            <Position>
              <LatitudeDegrees>40.79115062020719051361083984375</LatitudeDegrees>
              <LongitudeDegrees>-3.77471658401191234588623046875</LongitudeDegrees>
            </Position>
            <AltitudeMeters>1042.5999755859375</AltitudeMeters>
            <DistanceMeters>NAN</DistanceMeters>
          </Trackpoint>
          <Trackpoint>
            <Time>2020-03-07T16:04:17.000Z</Time>
            <Position>
              <LatitudeDegrees>40.79115799628198146820068359375</LatitudeDegrees>
              <LongitudeDegrees>-3.77461398951709270477294921875</LongitudeDegrees>
            </Position>
            <AltitudeMeters>1042.5999755859375</AltitudeMeters>
            <DistanceMeters>NAN</DistanceMeters>
          </Trackpoint>
          <Trackpoint>
            <Time>2020-03-07T16:04:18.000Z</Time>
            <Position>
              <LatitudeDegrees>40.7911559008061885833740234375</LatitudeDegrees>
              <LongitudeDegrees>-3.774511814117431640625</LongitudeDegrees>
            </Position>
            <AltitudeMeters>1042.4000244140625</AltitudeMeters>
            <DistanceMeters>NAN</DistanceMeters>
          </Trackpoint>
          <Trackpoint>
            <Time>2020-03-07T16:04:19.000Z</Time>
            <Position>
              <LatitudeDegrees>40.791149698197841644287109375</LatitudeDegrees>
              <LongitudeDegrees>-3.77440921962261199951171875</LongitudeDegrees>
            </Position>
            <AltitudeMeters>1042.4000244140625</AltitudeMeters>
            <DistanceMeters>NAN</DistanceMeters>
          </Trackpoint>
          <Trackpoint>
            <Time>2020-03-07T16:04:20.000Z</Time>
            <Position>
              <LatitudeDegrees>40.791149698197841644287109375</LatitudeDegrees>
              <LongitudeDegrees>-3.77440921962261199951171875</LongitudeDegrees>
            </Position>
            <AltitudeMeters>1042.4000244140625</AltitudeMeters>
            <DistanceMeters>NAN</DistanceMeters>
          </Trackpoint>
          <Trackpoint>
            <Time>2020-03-07T16:04:21.000Z</Time>
            <Position>
              <LatitudeDegrees>40.79112899489700794219970703125</LatitudeDegrees>
              <LongitudeDegrees>-3.77419992350041866302490234375</LongitudeDegrees>
            </Position>
            <AltitudeMeters>1042.4000244140625</AltitudeMeters>
            <DistanceMeters>NAN</DistanceMeters>
          </Trackpoint>
          <Trackpoint>
            <Time>2020-03-07T16:04:22.000Z</Time>
            <Position>
              <LatitudeDegrees>40.7911092974245548248291015625</LatitudeDegrees>
              <LongitudeDegrees>-3.77409699372947216033935546875</LongitudeDegrees>
            </Position>
            <AltitudeMeters>1042.5999755859375</AltitudeMeters>
            <DistanceMeters>NAN</DistanceMeters>
          </Trackpoint>
          <Trackpoint>
            <Time>2020-03-07T16:04:23.000Z</Time>
            <Position>
              <LatitudeDegrees>40.79108792357146739959716796875</LatitudeDegrees>
              <LongitudeDegrees>-3.77399213612079620361328125</LongitudeDegrees>
            </Position>
            <AltitudeMeters>1043</AltitudeMeters>
            <DistanceMeters>NAN</DistanceMeters>
          </Trackpoint>
          <Trackpoint>
            <Time>2020-03-07T16:04:24.000Z</Time>
            <Position>
              <LatitudeDegrees>40.79106076620519161224365234375</LatitudeDegrees>
              <LongitudeDegrees>-3.773887865245342254638671875</LongitudeDegrees>
            </Position>
            <AltitudeMeters>1043.5999755859375</AltitudeMeters>
            <DistanceMeters>NAN</DistanceMeters>
          </Trackpoint>
          <Trackpoint>
            <Time>2020-03-07T16:04:25.000Z</Time>
            <Position>
              <LatitudeDegrees>40.79102925024926662445068359375</LatitudeDegrees>
              <LongitudeDegrees>-3.77378694713115692138671875</LongitudeDegrees>
            </Position>
            <AltitudeMeters>1044</AltitudeMeters>
            <DistanceMeters>NAN</DistanceMeters>
          </Trackpoint>
          <Trackpoint>
            <Time>2020-03-07T16:04:26.000Z</Time>
            <Position>
              <LatitudeDegrees>40.79099756665527820587158203125</LatitudeDegrees>
              <LongitudeDegrees>-3.77368695102632045745849609375</LongitudeDegrees>
            </Position>
            <AltitudeMeters>1044.199951171875</AltitudeMeters>
            <DistanceMeters>NAN</DistanceMeters>
          </Trackpoint>
          <Trackpoint>
            <Time>2020-03-07T16:04:27.000Z</Time>
            <Position>
              <LatitudeDegrees>40.790967978537082672119140625</LatitudeDegrees>
              <LongitudeDegrees>-3.7735846079885959625244140625</LongitudeDegrees>
            </Position>
            <AltitudeMeters>1044.4000244140625</AltitudeMeters>
            <DistanceMeters>NAN</DistanceMeters>
          </Trackpoint>
          <Trackpoint>
            <Time>2020-03-07T16:04:28.000Z</Time>
            <Position>
              <LatitudeDegrees>40.79093470238149166107177734375</LatitudeDegrees>
              <LongitudeDegrees>-3.77349265851080417633056640625</LongitudeDegrees>
            </Position>
            <AltitudeMeters>1044.4000244140625</AltitudeMeters>
            <DistanceMeters>NAN</DistanceMeters>
          </Trackpoint>
          <Trackpoint>
            <Time>2020-03-07T16:04:29.000Z</Time>
            <Position>
              <LatitudeDegrees>40.79089597798883914947509765625</LatitudeDegrees>
              <LongitudeDegrees>-3.7734107673168182373046875</LongitudeDegrees>
            </Position>
            <AltitudeMeters>1044.4000244140625</AltitudeMeters>
            <DistanceMeters>NAN</DistanceMeters>
          </Trackpoint>
          <Trackpoint>
            <Time>2020-03-07T16:04:30.000Z</Time>
            <Position>
              <LatitudeDegrees>40.7908497937023639678955078125</LatitudeDegrees>
              <LongitudeDegrees>-3.7733378447592258453369140625</LongitudeDegrees>
            </Position>
            <AltitudeMeters>1044.4000244140625</AltitudeMeters>
            <DistanceMeters>NAN</DistanceMeters>
          </Trackpoint>
          <Trackpoint>
            <Time>2020-03-07T16:04:31.000Z</Time>
            <Position>
              <LatitudeDegrees>40.790796987712383270263671875</LatitudeDegrees>
              <LongitudeDegrees>-3.77326928079128265380859375</LongitudeDegrees>
            </Position>
            <AltitudeMeters>1044.4000244140625</AltitudeMeters>
            <DistanceMeters>NAN</DistanceMeters>
          </Trackpoint>
          <Trackpoint>
            <Time>2020-03-07T16:04:32.000Z</Time>
            <Position>
              <LatitudeDegrees>40.79073739238083362579345703125</LatitudeDegrees>
              <LongitudeDegrees>-3.7732077576220035552978515625</LongitudeDegrees>
            </Position>
            <AltitudeMeters>1044.5999755859375</AltitudeMeters>
            <DistanceMeters>NAN</DistanceMeters>
          </Trackpoint>
          <Trackpoint>
            <Time>2020-03-07T16:04:33.000Z</Time>
            <Position>
              <LatitudeDegrees>40.79067327082157135009765625</LatitudeDegrees>
              <LongitudeDegrees>-3.77315117977559566497802734375</LongitudeDegrees>
            </Position>
            <AltitudeMeters>1044.5999755859375</AltitudeMeters>
            <DistanceMeters>NAN</DistanceMeters>
          </Trackpoint>
          <Trackpoint>
            <Time>2020-03-07T16:04:34.000Z</Time>
            <Position>
              <LatitudeDegrees>40.7906050421297550201416015625</LatitudeDegrees>
              <LongitudeDegrees>-3.7731028161942958831787109375</LongitudeDegrees>
            </Position>
            <AltitudeMeters>1044.4000244140625</AltitudeMeters>
            <DistanceMeters>NAN</DistanceMeters>
          </Trackpoint>
          <Trackpoint>
            <Time>2020-03-07T16:04:35.000Z</Time>
            <Position>
              <LatitudeDegrees>40.79053035937249660491943359375</LatitudeDegrees>
              <LongitudeDegrees>-3.7730674445629119873046875</LongitudeDegrees>
            </Position>
            <AltitudeMeters>1044.199951171875</AltitudeMeters>
            <DistanceMeters>NAN</DistanceMeters>
          </Trackpoint>
          <Trackpoint>
            <Time>2020-03-07T16:04:36.000Z</Time>
            <Position>
              <LatitudeDegrees>40.79045643098652362823486328125</LatitudeDegrees>
              <LongitudeDegrees>-3.77304757945239543914794921875</LongitudeDegrees>
            </Position>
            <AltitudeMeters>1044.199951171875</AltitudeMeters>
            <DistanceMeters>NAN</DistanceMeters>
          </Trackpoint>
          <Trackpoint>
            <Time>2020-03-07T16:04:37.000Z</Time>
            <Position>
              <LatitudeDegrees>40.7903817482292652130126953125</LatitudeDegrees>
              <LongitudeDegrees>-3.773038275539875030517578125</LongitudeDegrees>
            </Position>
            <AltitudeMeters>1044</AltitudeMeters>
            <DistanceMeters>NAN</DistanceMeters>
          </Trackpoint>
          <Trackpoint>
            <Time>2020-03-07T16:04:38.000Z</Time>
            <Position>
              <LatitudeDegrees>40.79030714929103851318359375</LatitudeDegrees>
              <LongitudeDegrees>-3.77304355613887310028076171875</LongitudeDegrees>
            </Position>
            <AltitudeMeters>1044</AltitudeMeters>
            <DistanceMeters>NAN</DistanceMeters>
          </Trackpoint>
          <Trackpoint>
            <Time>2020-03-07T16:04:39.000Z</Time>
            <Position>
              <LatitudeDegrees>40.79023313708603382110595703125</LatitudeDegrees>
              <LongitudeDegrees>-3.7730622477829456329345703125</LongitudeDegrees>
            </Position>
            <AltitudeMeters>1044</AltitudeMeters>
            <DistanceMeters>NAN</DistanceMeters>
          </Trackpoint>
          <Trackpoint>
            <Time>2020-03-07T16:04:40.000Z</Time>
            <Position>
              <LatitudeDegrees>40.7901624776422977447509765625</LatitudeDegrees>
              <LongitudeDegrees>-3.77309116534888744354248046875</LongitudeDegrees>
            </Position>
            <AltitudeMeters>1044</AltitudeMeters>
            <DistanceMeters>NAN</DistanceMeters>
          </Trackpoint>
          <Trackpoint>
            <Time>2020-03-07T16:04:41.000Z</Time>
            <Position>
              <LatitudeDegrees>40.79009416513144969940185546875</LatitudeDegrees>
              <LongitudeDegrees>-3.773130141198635101318359375</LongitudeDegrees>
            </Position>
            <AltitudeMeters>1043.800048828125</AltitudeMeters>
            <DistanceMeters>NAN</DistanceMeters>
          </Trackpoint>
          <Trackpoint>
            <Time>2020-03-07T16:04:42.000Z</Time>
            <Position>
              <LatitudeDegrees>40.7900287024676799774169921875</LatitudeDegrees>
              <LongitudeDegrees>-3.7731752358376979827880859375</LongitudeDegrees>
            </Position>
            <AltitudeMeters>1043.800048828125</AltitudeMeters>
            <DistanceMeters>NAN</DistanceMeters>
          </Trackpoint>
          <Trackpoint>
            <Time>2020-03-07T16:04:43.000Z</Time>
            <Position>
              <LatitudeDegrees>40.78996608965098857879638671875</LatitudeDegrees>
              <LongitudeDegrees>-3.7732282094657421112060546875</LongitudeDegrees>
            </Position>
            <AltitudeMeters>1043.5999755859375</AltitudeMeters>
            <DistanceMeters>NAN</DistanceMeters>
          </Trackpoint>
          <Trackpoint>
            <Time>2020-03-07T16:04:44.000Z</Time>
            <Position>
              <LatitudeDegrees>40.78996608965098857879638671875</LatitudeDegrees>
              <LongitudeDegrees>-3.7732282094657421112060546875</LongitudeDegrees>
            </Position>
            <AltitudeMeters>1043.4000244140625</AltitudeMeters>
            <DistanceMeters>NAN</DistanceMeters>
          </Trackpoint>
          <Trackpoint>
            <Time>2020-03-07T16:04:45.000Z</Time>
            <Position>
              <LatitudeDegrees>40.7899073325097560882568359375</LatitudeDegrees>
              <LongitudeDegrees>-3.7732858769595623016357421875</LongitudeDegrees>
            </Position>
            <AltitudeMeters>1043.199951171875</AltitudeMeters>
            <DistanceMeters>NAN</DistanceMeters>
          </Trackpoint>
          <Trackpoint>
            <Time>2020-03-07T16:04:46.000Z</Time>
            <Position>
              <LatitudeDegrees>40.78985678963363170623779296875</LatitudeDegrees>
              <LongitudeDegrees>-3.7733485735952854156494140625</LongitudeDegrees>
            </Position>
            <AltitudeMeters>1043.4000244140625</AltitudeMeters>
            <DistanceMeters>NAN</DistanceMeters>
          </Trackpoint>
          <Trackpoint>
            <Time>2020-03-07T16:04:47.000Z</Time>
            <Position>
              <LatitudeDegrees>40.78981320373713970184326171875</LatitudeDegrees>
              <LongitudeDegrees>-3.77341906540095806121826171875</LongitudeDegrees>
            </Position>
            <AltitudeMeters>1043.199951171875</AltitudeMeters>
            <DistanceMeters>NAN</DistanceMeters>
          </Trackpoint>
          <Trackpoint>
            <Time>2020-03-07T16:04:48.000Z</Time>
            <Position>
              <LatitudeDegrees>40.78973659314215183258056640625</LatitudeDegrees>
              <LongitudeDegrees>-3.77357781864702701568603515625</LongitudeDegrees>
            </Position>
            <AltitudeMeters>1043.199951171875</AltitudeMeters>
            <DistanceMeters>NAN</DistanceMeters>
          </Trackpoint>
          <Trackpoint>
            <Time>2020-03-07T16:04:49.000Z</Time>
            <Position>
              <LatitudeDegrees>40.78970071859657764434814453125</LatitudeDegrees>
              <LongitudeDegrees>-3.77365895546972751617431640625</LongitudeDegrees>
            </Position>
            <AltitudeMeters>1043.199951171875</AltitudeMeters>
            <DistanceMeters>NAN</DistanceMeters>
          </Trackpoint>
          <Trackpoint>
            <Time>2020-03-07T16:04:50.000Z</Time>
            <Position>
              <LatitudeDegrees>40.78970071859657764434814453125</LatitudeDegrees>
              <LongitudeDegrees>-3.77365895546972751617431640625</LongitudeDegrees>
            </Position>
            <AltitudeMeters>1043.199951171875</AltitudeMeters>
            <DistanceMeters>NAN</DistanceMeters>
          </Trackpoint>
          <Trackpoint>
            <Time>2020-03-07T16:04:51.000Z</Time>
            <Position>
              <LatitudeDegrees>40.78961891122162342071533203125</LatitudeDegrees>
              <LongitudeDegrees>-3.773823492228984832763671875</LongitudeDegrees>
            </Position>
            <AltitudeMeters>1043.199951171875</AltitudeMeters>
            <DistanceMeters>NAN</DistanceMeters>
          </Trackpoint>
          <Trackpoint>
            <Time>2020-03-07T16:04:52.000Z</Time>
            <Position>
              <LatitudeDegrees>40.78957834281027317047119140625</LatitudeDegrees>
              <LongitudeDegrees>-3.77390856854617595672607421875</LongitudeDegrees>
            </Position>
            <AltitudeMeters>1043</AltitudeMeters>
            <DistanceMeters>NAN</DistanceMeters>
          </Trackpoint>
          <Trackpoint>
            <Time>2020-03-07T16:04:53.000Z</Time>
            <Position>
              <LatitudeDegrees>40.78953760676085948944091796875</LatitudeDegrees>
              <LongitudeDegrees>-3.77399473451077938079833984375</LongitudeDegrees>
            </Position>
            <AltitudeMeters>1043</AltitudeMeters>
            <DistanceMeters>NAN</DistanceMeters>
          </Trackpoint>
          <Trackpoint>
            <Time>2020-03-07T16:04:54.000Z</Time>
            <Position>
              <LatitudeDegrees>40.78949712216854095458984375</LatitudeDegrees>
              <LongitudeDegrees>-3.77408358268439769744873046875</LongitudeDegrees>
            </Position>
            <AltitudeMeters>1043</AltitudeMeters>
            <DistanceMeters>NAN</DistanceMeters>
          </Trackpoint>
          <Trackpoint>
            <Time>2020-03-07T16:04:55.000Z</Time>
            <Position>
              <LatitudeDegrees>40.7894563861191272735595703125</LatitudeDegrees>
              <LongitudeDegrees>-3.77417159266769886016845703125</LongitudeDegrees>
            </Position>
            <AltitudeMeters>1043</AltitudeMeters>
            <DistanceMeters>NAN</DistanceMeters>
          </Trackpoint>
          <Trackpoint>
            <Time>2020-03-07T16:04:56.000Z</Time>
            <Position>
              <LatitudeDegrees>40.7894563861191272735595703125</LatitudeDegrees>
              <LongitudeDegrees>-3.77417159266769886016845703125</LongitudeDegrees>
            </Position>
            <AltitudeMeters>1042.800048828125</AltitudeMeters>
            <DistanceMeters>NAN</DistanceMeters>
          </Trackpoint>
          <Trackpoint>
            <Time>2020-03-07T16:04:57.000Z</Time>
            <Position>
              <LatitudeDegrees>40.78937851823866367340087890625</LatitudeDegrees>
              <LongitudeDegrees>-3.77434325404465198516845703125</LongitudeDegrees>
            </Position>
            <AltitudeMeters>1042.800048828125</AltitudeMeters>
            <DistanceMeters>NAN</DistanceMeters>
          </Trackpoint>
          <Trackpoint>
            <Time>2020-03-07T16:04:58.000Z</Time>
            <Position>
              <LatitudeDegrees>40.78933794982731342315673828125</LatitudeDegrees>
              <LongitudeDegrees>-3.7744331918656826019287109375</LongitudeDegrees>
            </Position>
            <AltitudeMeters>1042.5999755859375</AltitudeMeters>
            <DistanceMeters>NAN</DistanceMeters>
          </Trackpoint>
          <Trackpoint>
            <Time>2020-03-07T16:04:59.000Z</Time>
            <Position>
              <LatitudeDegrees>40.7892974652349948883056640625</LatitudeDegrees>
              <LongitudeDegrees>-3.774525225162506103515625</LongitudeDegrees>
            </Position>
            <AltitudeMeters>1042.4000244140625</AltitudeMeters>
            <DistanceMeters>NAN</DistanceMeters>
          </Trackpoint>
          <Trackpoint>
            <Time>2020-03-07T16:05:00.000Z</Time>
            <Position>
              <LatitudeDegrees>40.78925798647105693817138671875</LatitudeDegrees>
              <LongitudeDegrees>-3.77462069503962993621826171875</LongitudeDegrees>
            </Position>
            <AltitudeMeters>1042</AltitudeMeters>
            <DistanceMeters>NAN</DistanceMeters>
          </Trackpoint>
          <Trackpoint>
            <Time>2020-03-07T16:05:01.000Z</Time>
            <Position>
              <LatitudeDegrees>40.78922621905803680419921875</LatitudeDegrees>
              <LongitudeDegrees>-3.7747218646109104156494140625</LongitudeDegrees>
            </Position>
            <AltitudeMeters>1041.5999755859375</AltitudeMeters>
            <DistanceMeters>NAN</DistanceMeters>
          </Trackpoint>
          <Trackpoint>
            <Time>2020-03-07T16:05:02.000Z</Time>
            <Position>
              <LatitudeDegrees>40.7892032526433467864990234375</LatitudeDegrees>
              <LongitudeDegrees>-3.77483124844729900360107421875</LongitudeDegrees>
            </Position>
            <AltitudeMeters>1041.4000244140625</AltitudeMeters>
            <DistanceMeters>NAN</DistanceMeters>
          </Trackpoint>
          <Trackpoint>
            <Time>2020-03-07T16:05:03.000Z</Time>
            <Position>
              <LatitudeDegrees>40.789186321198940277099609375</LatitudeDegrees>
              <LongitudeDegrees>-3.77494507469236850738525390625</LongitudeDegrees>
            </Position>
            <AltitudeMeters>1041.199951171875</AltitudeMeters>
            <DistanceMeters>NAN</DistanceMeters>
          </Trackpoint>
          <Trackpoint>
            <Time>2020-03-07T16:05:04.000Z</Time>
            <Position>
              <LatitudeDegrees>40.7891707308590412139892578125</LatitudeDegrees>
              <LongitudeDegrees>-3.7750594876706600189208984375</LongitudeDegrees>
            </Position>
            <AltitudeMeters>1041</AltitudeMeters>
            <DistanceMeters>NAN</DistanceMeters>
          </Trackpoint>
          <Trackpoint>
            <Time>2020-03-07T16:05:05.000Z</Time>
            <Position>
              <LatitudeDegrees>40.7891546376049518585205078125</LatitudeDegrees>
              <LongitudeDegrees>-3.77517775632441043853759765625</LongitudeDegrees>
            </Position>
            <AltitudeMeters>1040.800048828125</AltitudeMeters>
            <DistanceMeters>NAN</DistanceMeters>
          </Trackpoint>
          <Trackpoint>
            <Time>2020-03-07T16:05:06.000Z</Time>
            <Position>
              <LatitudeDegrees>40.78913745470345020294189453125</LatitudeDegrees>
              <LongitudeDegrees>-3.77530013211071491241455078125</LongitudeDegrees>
            </Position>
            <AltitudeMeters>1040.5999755859375</AltitudeMeters>
            <DistanceMeters>NAN</DistanceMeters>
          </Trackpoint>
          <Trackpoint>
            <Time>2020-03-07T16:05:07.000Z</Time>
            <Position>
              <LatitudeDegrees>40.78911968506872653961181640625</LatitudeDegrees>
              <LongitudeDegrees>-3.77542569302022457122802734375</LongitudeDegrees>
            </Position>
            <AltitudeMeters>1040.4000244140625</AltitudeMeters>
            <DistanceMeters>NAN</DistanceMeters>
          </Trackpoint>
          <Trackpoint>
            <Time>2020-03-07T16:05:08.000Z</Time>
            <Position>
              <LatitudeDegrees>40.78910409472882747650146484375</LatitudeDegrees>
              <LongitudeDegrees>-3.77555460669100284576416015625</LongitudeDegrees>
            </Position>
            <AltitudeMeters>1040.199951171875</AltitudeMeters>
            <DistanceMeters>NAN</DistanceMeters>
          </Trackpoint>
          <Trackpoint>
            <Time>2020-03-07T16:05:09.000Z</Time>
            <Position>
              <LatitudeDegrees>40.7890905998647212982177734375</LatitudeDegrees>
              <LongitudeDegrees>-3.775686286389827728271484375</LongitudeDegrees>
            </Position>
            <AltitudeMeters>1039.800048828125</AltitudeMeters>
            <DistanceMeters>NAN</DistanceMeters>
          </Trackpoint>
          <Trackpoint>
            <Time>2020-03-07T16:05:10.000Z</Time>
            <Position>
              <LatitudeDegrees>40.789077021181583404541015625</LatitudeDegrees>
              <LongitudeDegrees>-3.7758208997547626495361328125</LongitudeDegrees>
            </Position>
            <AltitudeMeters>1039.4000244140625</AltitudeMeters>
            <DistanceMeters>NAN</DistanceMeters>
          </Trackpoint>
          <Trackpoint>
            <Time>2020-03-07T16:05:11.000Z</Time>
            <Position>
              <LatitudeDegrees>40.78906134702265262603759765625</LatitudeDegrees>
              <LongitudeDegrees>-3.77595811150968074798583984375</LongitudeDegrees>
            </Position>
            <AltitudeMeters>1038.800048828125</AltitudeMeters>
            <DistanceMeters>NAN</DistanceMeters>
          </Trackpoint>
          <Trackpoint>
            <Time>2020-03-07T16:05:12.000Z</Time>
            <Position>
              <LatitudeDegrees>40.7890426553785800933837890625</LatitudeDegrees>
              <LongitudeDegrees>-3.77609875984489917755126953125</LongitudeDegrees>
            </Position>
            <AltitudeMeters>1038</AltitudeMeters>
            <DistanceMeters>NAN</DistanceMeters>
          </Trackpoint>
          <Trackpoint>
            <Time>2020-03-07T16:05:13.000Z</Time>
            <Position>
              <LatitudeDegrees>40.78902698121964931488037109375</LatitudeDegrees>
              <LongitudeDegrees>-3.77624192275106906890869140625</LongitudeDegrees>
            </Position>
            <AltitudeMeters>1037.199951171875</AltitudeMeters>
            <DistanceMeters>NAN</DistanceMeters>
          </Trackpoint>
          <Trackpoint>
            <Time>2020-03-07T16:05:14.000Z</Time>
            <Position>
              <LatitudeDegrees>40.78901591710746288299560546875</LatitudeDegrees>
              <LongitudeDegrees>-3.77638793550431728363037109375</LongitudeDegrees>
            </Position>
            <AltitudeMeters>1036.5999755859375</AltitudeMeters>
            <DistanceMeters>NAN</DistanceMeters>
          </Trackpoint>
          <Trackpoint>
            <Time>2020-03-07T16:05:15.000Z</Time>
            <Position>
              <LatitudeDegrees>40.789002589881420135498046875</LatitudeDegrees>
              <LongitudeDegrees>-3.776536881923675537109375</LongitudeDegrees>
            </Position>
            <AltitudeMeters>1036</AltitudeMeters>
            <DistanceMeters>NAN</DistanceMeters>
          </Trackpoint>
          <Trackpoint>
            <Time>2020-03-07T16:05:16.000Z</Time>
            <Position>
              <LatitudeDegrees>40.788989178836345672607421875</LatitudeDegrees>
              <LongitudeDegrees>-3.7766862474381923675537109375</LongitudeDegrees>
            </Position>
            <AltitudeMeters>1035.4000244140625</AltitudeMeters>
            <DistanceMeters>NAN</DistanceMeters>
          </Trackpoint>
          <Trackpoint>
            <Time>2020-03-07T16:05:17.000Z</Time>
            <Position>
              <LatitudeDegrees>40.78897652216255664825439453125</LatitudeDegrees>
              <LongitudeDegrees>-3.77683150582015514373779296875</LongitudeDegrees>
            </Position>
            <AltitudeMeters>1035</AltitudeMeters>
            <DistanceMeters>NAN</DistanceMeters>
          </Trackpoint>
          <Trackpoint>
            <Time>2020-03-07T16:05:18.000Z</Time>
            <Position>
              <LatitudeDegrees>40.788959674537181854248046875</LatitudeDegrees>
              <LongitudeDegrees>-3.7769687175750732421875</LongitudeDegrees>
            </Position>
            <AltitudeMeters>1034.4000244140625</AltitudeMeters>
            <DistanceMeters>NAN</DistanceMeters>
          </Trackpoint>
          <Trackpoint>
            <Time>2020-03-07T16:05:19.000Z</Time>
            <Position>
              <LatitudeDegrees>40.78892874531447887420654296875</LatitudeDegrees>
              <LongitudeDegrees>-3.77708899788558483123779296875</LongitudeDegrees>
            </Position>
            <AltitudeMeters>1033.800048828125</AltitudeMeters>
            <DistanceMeters>NAN</DistanceMeters>
          </Trackpoint>
          <Trackpoint>
            <Time>2020-03-07T16:05:20.000Z</Time>
            <Position>
              <LatitudeDegrees>40.7888768613338470458984375</LatitudeDegrees>
              <LongitudeDegrees>-3.7771864794194698333740234375</LongitudeDegrees>
            </Position>
            <AltitudeMeters>1033.199951171875</AltitudeMeters>
            <DistanceMeters>NAN</DistanceMeters>
          </Trackpoint>
          <Trackpoint>
            <Time>2020-03-07T16:05:21.000Z</Time>
            <Position>
              <LatitudeDegrees>40.78879849053919315338134765625</LatitudeDegrees>
              <LongitudeDegrees>-3.77724959515035152435302734375</LongitudeDegrees>
            </Position>
            <AltitudeMeters>1032.5999755859375</AltitudeMeters>
            <DistanceMeters>NAN</DistanceMeters>
          </Trackpoint>
          <Trackpoint>
            <Time>2020-03-07T16:05:22.000Z</Time>
            <Position>
              <LatitudeDegrees>40.7887023501098155975341796875</LatitudeDegrees>
              <LongitudeDegrees>-3.7772696278989315032958984375</LongitudeDegrees>
            </Position>
            <AltitudeMeters>1031.800048828125</AltitudeMeters>
            <DistanceMeters>NAN</DistanceMeters>
          </Trackpoint>
          <Trackpoint>
            <Time>2020-03-07T16:05:23.000Z</Time>
            <Position>
              <LatitudeDegrees>40.78861425630748271942138671875</LatitudeDegrees>
              <LongitudeDegrees>-3.77725370228290557861328125</LongitudeDegrees>
            </Position>
            <AltitudeMeters>1031.199951171875</AltitudeMeters>
            <DistanceMeters>NAN</DistanceMeters>
          </Trackpoint>
          <Trackpoint>
            <Time>2020-03-07T16:05:24.000Z</Time>
            <Position>
              <LatitudeDegrees>40.78854468651115894317626953125</LatitudeDegrees>
              <LongitudeDegrees>-3.7772045843303203582763671875</LongitudeDegrees>
            </Position>
            <AltitudeMeters>1030.199951171875</AltitudeMeters>
            <DistanceMeters>NAN</DistanceMeters>
          </Trackpoint>
          <Trackpoint>
            <Time>2020-03-07T16:05:25.000Z</Time>
            <Position>
              <LatitudeDegrees>40.7884881086647510528564453125</LatitudeDegrees>
              <LongitudeDegrees>-3.7771301530301570892333984375</LongitudeDegrees>
            </Position>
            <AltitudeMeters>1029.4000244140625</AltitudeMeters>
            <DistanceMeters>NAN</DistanceMeters>
          </Trackpoint>
          <Trackpoint>
            <Time>2020-03-07T16:05:26.000Z</Time>
            <Position>
              <LatitudeDegrees>40.78844628296792507171630859375</LatitudeDegrees>
              <LongitudeDegrees>-3.77703803591430187225341796875</LongitudeDegrees>
            </Position>
            <AltitudeMeters>1029</AltitudeMeters>
            <DistanceMeters>NAN</DistanceMeters>
          </Trackpoint>
          <Trackpoint>
            <Time>2020-03-07T16:05:27.000Z</Time>
            <Position>
              <LatitudeDegrees>40.78840940259397029876708984375</LatitudeDegrees>
              <LongitudeDegrees>-3.77694122493267059326171875</LongitudeDegrees>
            </Position>
            <AltitudeMeters>1028.4000244140625</AltitudeMeters>
            <DistanceMeters>NAN</DistanceMeters>
          </Trackpoint>
          <Trackpoint>
            <Time>2020-03-07T16:05:28.000Z</Time>
            <Position>
              <LatitudeDegrees>40.7883868552744388580322265625</LatitudeDegrees>
              <LongitudeDegrees>-3.77682262100279331207275390625</LongitudeDegrees>
            </Position>
            <AltitudeMeters>1027.800048828125</AltitudeMeters>
            <DistanceMeters>NAN</DistanceMeters>
          </Trackpoint>
          <Trackpoint>
            <Time>2020-03-07T16:05:29.000Z</Time>
            <Position>
              <LatitudeDegrees>40.78836548142135143280029296875</LatitudeDegrees>
              <LongitudeDegrees>-3.77671231515705585479736328125</LongitudeDegrees>
            </Position>
            <AltitudeMeters>1027.5999755859375</AltitudeMeters>
            <DistanceMeters>NAN</DistanceMeters>
          </Trackpoint>
          <Trackpoint>
            <Time>2020-03-07T16:05:30.000Z</Time>
            <Position>
              <LatitudeDegrees>40.78834419138729572296142578125</LatitudeDegrees>
              <LongitudeDegrees>-3.776605613529682159423828125</LongitudeDegrees>
            </Position>
            <AltitudeMeters>1027.5999755859375</AltitudeMeters>
            <DistanceMeters>NAN</DistanceMeters>
          </Trackpoint>
          <Trackpoint>
            <Time>2020-03-07T16:05:31.000Z</Time>
            <Position>
              <LatitudeDegrees>40.7883194647729396820068359375</LatitudeDegrees>
              <LongitudeDegrees>-3.776504360139369964599609375</LongitudeDegrees>
            </Position>
            <AltitudeMeters>1027.5999755859375</AltitudeMeters>
            <DistanceMeters>NAN</DistanceMeters>
          </Trackpoint>
          <Trackpoint>
            <Time>2020-03-07T16:05:32.000Z</Time>
            <Position>
              <LatitudeDegrees>40.78829188831150531768798828125</LatitudeDegrees>
              <LongitudeDegrees>-3.7764123268425464630126953125</LongitudeDegrees>
            </Position>
            <AltitudeMeters>1027.5999755859375</AltitudeMeters>
            <DistanceMeters>NAN</DistanceMeters>
          </Trackpoint>
          <Trackpoint>
            <Time>2020-03-07T16:05:33.000Z</Time>
            <Position>
              <LatitudeDegrees>40.78826422803103923797607421875</LatitudeDegrees>
              <LongitudeDegrees>-3.7763214670121669769287109375</LongitudeDegrees>
            </Position>
            <AltitudeMeters>1027.5999755859375</AltitudeMeters>
            <DistanceMeters>NAN</DistanceMeters>
          </Trackpoint>
          <Trackpoint>
            <Time>2020-03-07T16:05:34.000Z</Time>
            <Position>
              <LatitudeDegrees>40.7882346399128437042236328125</LatitudeDegrees>
              <LongitudeDegrees>-3.7762324512004852294921875</LongitudeDegrees>
            </Position>
            <AltitudeMeters>1027.5999755859375</AltitudeMeters>
            <DistanceMeters>NAN</DistanceMeters>
          </Trackpoint>
          <Trackpoint>
            <Time>2020-03-07T16:05:35.000Z</Time>
            <Position>
              <LatitudeDegrees>40.7882061414420604705810546875</LatitudeDegrees>
              <LongitudeDegrees>-3.776146285235881805419921875</LongitudeDegrees>
            </Position>
            <AltitudeMeters>1027.5999755859375</AltitudeMeters>
            <DistanceMeters>NAN</DistanceMeters>
          </Trackpoint>
          <Trackpoint>
            <Time>2020-03-07T16:05:36.000Z</Time>
            <Position>
              <LatitudeDegrees>40.78817722387611865997314453125</LatitudeDegrees>
              <LongitudeDegrees>-3.7760592810809612274169921875</LongitudeDegrees>
            </Position>
            <AltitudeMeters>1027.5999755859375</AltitudeMeters>
            <DistanceMeters>NAN</DistanceMeters>
          </Trackpoint>
          <Trackpoint>
            <Time>2020-03-07T16:05:37.000Z</Time>
            <Position>
              <LatitudeDegrees>40.7881478033959865570068359375</LatitudeDegrees>
              <LongitudeDegrees>-3.7759724445641040802001953125</LongitudeDegrees>
            </Position>
            <AltitudeMeters>1027.800048828125</AltitudeMeters>
            <DistanceMeters>NAN</DistanceMeters>
          </Trackpoint>
          <Trackpoint>
            <Time>2020-03-07T16:05:38.000Z</Time>
            <Position>
              <LatitudeDegrees>40.788122825324535369873046875</LatitudeDegrees>
              <LongitudeDegrees>-3.7758869491517543792724609375</LongitudeDegrees>
            </Position>
            <AltitudeMeters>1028</AltitudeMeters>
            <DistanceMeters>NAN</DistanceMeters>
          </Trackpoint>
          <Trackpoint>
            <Time>2020-03-07T16:05:39.000Z</Time>
            <Position>
              <LatitudeDegrees>40.7881057262420654296875</LatitudeDegrees>
              <LongitudeDegrees>-3.77579852007329463958740234375</LongitudeDegrees>
            </Position>
            <AltitudeMeters>1028.199951171875</AltitudeMeters>
            <DistanceMeters>NAN</DistanceMeters>
          </Trackpoint>
          <Trackpoint>
            <Time>2020-03-07T16:05:40.000Z</Time>
            <Position>
              <LatitudeDegrees>40.788085944950580596923828125</LatitudeDegrees>
              <LongitudeDegrees>-3.77570766024291515350341796875</LongitudeDegrees>
            </Position>
            <AltitudeMeters>1028.5999755859375</AltitudeMeters>
            <DistanceMeters>NAN</DistanceMeters>
          </Trackpoint>
          <Trackpoint>
            <Time>2020-03-07T16:05:41.000Z</Time>
            <Position>
              <LatitudeDegrees>40.7880696840584278106689453125</LatitudeDegrees>
              <LongitudeDegrees>-3.77561680041253566741943359375</LongitudeDegrees>
            </Position>
            <AltitudeMeters>1029.199951171875</AltitudeMeters>
            <DistanceMeters>NAN</DistanceMeters>
          </Trackpoint>
          <Trackpoint>
            <Time>2020-03-07T16:05:42.000Z</Time>
            <Position>
              <LatitudeDegrees>40.78805007040500640869140625</LatitudeDegrees>
              <LongitudeDegrees>-3.77552409656345844268798828125</LongitudeDegrees>
            </Position>
            <AltitudeMeters>1029.4000244140625</AltitudeMeters>
            <DistanceMeters>NAN</DistanceMeters>
          </Trackpoint>
          <Trackpoint>
            <Time>2020-03-07T16:05:43.000Z</Time>
            <Position>
              <LatitudeDegrees>40.7880344800651073455810546875</LatitudeDegrees>
              <LongitudeDegrees>-3.77542854286730289459228515625</LongitudeDegrees>
            </Position>
            <AltitudeMeters>1029.800048828125</AltitudeMeters>
            <DistanceMeters>NAN</DistanceMeters>
          </Trackpoint>
          <Trackpoint>
            <Time>2020-03-07T16:05:44.000Z</Time>
            <Position>
              <LatitudeDegrees>40.78801696188747882843017578125</LatitudeDegrees>
              <LongitudeDegrees>-3.77532913349568843841552734375</LongitudeDegrees>
            </Position>
            <AltitudeMeters>1030</AltitudeMeters>
            <DistanceMeters>NAN</DistanceMeters>
          </Trackpoint>
          <Trackpoint>
            <Time>2020-03-07T16:05:45.000Z</Time>
            <Position>
              <LatitudeDegrees>40.78799198381602764129638671875</LatitudeDegrees>
              <LongitudeDegrees>-3.7752271257340908050537109375</LongitudeDegrees>
            </Position>
            <AltitudeMeters>1030</AltitudeMeters>
            <DistanceMeters>NAN</DistanceMeters>
          </Trackpoint>
          <Trackpoint>
            <Time>2020-03-07T16:05:46.000Z</Time>
            <Position>
              <LatitudeDegrees>40.78796985559165477752685546875</LatitudeDegrees>
              <LongitudeDegrees>-3.77512729726731777191162109375</LongitudeDegrees>
            </Position>
            <AltitudeMeters>1030</AltitudeMeters>
            <DistanceMeters>NAN</DistanceMeters>
          </Trackpoint>
          <Trackpoint>
            <Time>2020-03-07T16:05:47.000Z</Time>
            <Position>
              <LatitudeDegrees>40.78794755972921848297119140625</LatitudeDegrees>
              <LongitudeDegrees>-3.77502805553376674652099609375</LongitudeDegrees>
            </Position>
            <AltitudeMeters>1030</AltitudeMeters>
            <DistanceMeters>NAN</DistanceMeters>
          </Trackpoint>
          <Trackpoint>
            <Time>2020-03-07T16:05:48.000Z</Time>
            <Position>
              <LatitudeDegrees>40.7879278622567653656005859375</LatitudeDegrees>
              <LongitudeDegrees>-3.77492814324796199798583984375</LongitudeDegrees>
            </Position>
            <AltitudeMeters>1030</AltitudeMeters>
            <DistanceMeters>NAN</DistanceMeters>
          </Trackpoint>
          <Trackpoint>
            <Time>2020-03-07T16:05:49.000Z</Time>
            <Position>
              <LatitudeDegrees>40.7879104278981685638427734375</LatitudeDegrees>
              <LongitudeDegrees>-3.77482839860022068023681640625</LongitudeDegrees>
            </Position>
            <AltitudeMeters>1030</AltitudeMeters>
            <DistanceMeters>NAN</DistanceMeters>
          </Trackpoint>
          <Trackpoint>
            <Time>2020-03-07T16:05:50.000Z</Time>
            <Position>
              <LatitudeDegrees>40.7878903113305568695068359375</LatitudeDegrees>
              <LongitudeDegrees>-3.774730078876018524169921875</LongitudeDegrees>
            </Position>
            <AltitudeMeters>1030</AltitudeMeters>
            <DistanceMeters>NAN</DistanceMeters>
          </Trackpoint>
          <Trackpoint>
            <Time>2020-03-07T16:05:51.000Z</Time>
            <Position>
              <LatitudeDegrees>40.7878705300390720367431640625</LatitudeDegrees>
              <LongitudeDegrees>-3.77463276498019695281982421875</LongitudeDegrees>
            </Position>
            <AltitudeMeters>1030</AltitudeMeters>
            <DistanceMeters>NAN</DistanceMeters>
          </Trackpoint>
          <Trackpoint>
            <Time>2020-03-07T16:05:52.000Z</Time>
            <Position>
              <LatitudeDegrees>40.7878495752811431884765625</LatitudeDegrees>
              <LongitudeDegrees>-3.77453318797051906585693359375</LongitudeDegrees>
            </Position>
            <AltitudeMeters>1030</AltitudeMeters>
            <DistanceMeters>NAN</DistanceMeters>
          </Trackpoint>
          <Trackpoint>
            <Time>2020-03-07T16:05:53.000Z</Time>
            <Position>
              <LatitudeDegrees>40.7878282852470874786376953125</LatitudeDegrees>
              <LongitudeDegrees>-3.77443134784698486328125</LongitudeDegrees>
            </Position>
            <AltitudeMeters>1030</AltitudeMeters>
            <DistanceMeters>NAN</DistanceMeters>
          </Trackpoint>
          <Trackpoint>
            <Time>2020-03-07T16:05:54.000Z</Time>
            <Position>
              <LatitudeDegrees>40.7878053188323974609375</LatitudeDegrees>
              <LongitudeDegrees>-3.774329088628292083740234375</LongitudeDegrees>
            </Position>
            <AltitudeMeters>1030</AltitudeMeters>
            <DistanceMeters>NAN</DistanceMeters>
          </Trackpoint>
          <Trackpoint>
            <Time>2020-03-07T16:05:55.000Z</Time>
            <Position>
              <LatitudeDegrees>40.7877783291041851043701171875</LatitudeDegrees>
              <LongitudeDegrees>-3.77422791905701160430908203125</LongitudeDegrees>
            </Position>
            <AltitudeMeters>1029.800048828125</AltitudeMeters>
            <DistanceMeters>NAN</DistanceMeters>
          </Trackpoint>
          <Trackpoint>
            <Time>2020-03-07T16:05:56.000Z</Time>
            <Position>
              <LatitudeDegrees>40.78774823807179927825927734375</LatitudeDegrees>
              <LongitudeDegrees>-3.7741274200379848480224609375</LongitudeDegrees>
            </Position>
            <AltitudeMeters>1029.5999755859375</AltitudeMeters>
            <DistanceMeters>NAN</DistanceMeters>
          </Trackpoint>
          <Trackpoint>
            <Time>2020-03-07T16:05:57.000Z</Time>
            <Position>
              <LatitudeDegrees>40.78771186061203479766845703125</LatitudeDegrees>
              <LongitudeDegrees>-3.77403438091278076171875</LongitudeDegrees>
            </Position>
            <AltitudeMeters>1029.4000244140625</AltitudeMeters>
            <DistanceMeters>NAN</DistanceMeters>
          </Trackpoint>
          <Trackpoint>
            <Time>2020-03-07T16:05:58.000Z</Time>
            <Position>
              <LatitudeDegrees>40.78766726888716220855712890625</LatitudeDegrees>
              <LongitudeDegrees>-3.77395098097622394561767578125</LongitudeDegrees>
            </Position>
            <AltitudeMeters>1029.4000244140625</AltitudeMeters>
            <DistanceMeters>NAN</DistanceMeters>
          </Trackpoint>
          <Trackpoint>
            <Time>2020-03-07T16:05:59.000Z</Time>
            <Position>
              <LatitudeDegrees>40.78761882148683071136474609375</LatitudeDegrees>
              <LongitudeDegrees>-3.7738774716854095458984375</LongitudeDegrees>
            </Position>
            <AltitudeMeters>1029.4000244140625</AltitudeMeters>
            <DistanceMeters>NAN</DistanceMeters>
          </Trackpoint>
          <Trackpoint>
            <Time>2020-03-07T16:06:00.000Z</Time>
            <Position>
              <LatitudeDegrees>40.78756651841104030609130859375</LatitudeDegrees>
              <LongitudeDegrees>-3.7738130986690521240234375</LongitudeDegrees>
            </Position>
            <AltitudeMeters>1029.4000244140625</AltitudeMeters>
            <DistanceMeters>NAN</DistanceMeters>
          </Trackpoint>
          <Trackpoint>
            <Time>2020-03-07T16:06:01.000Z</Time>
            <Position>
              <LatitudeDegrees>40.787508599460124969482421875</LatitudeDegrees>
              <LongitudeDegrees>-3.7737609632313251495361328125</LongitudeDegrees>
            </Position>
            <AltitudeMeters>1029.4000244140625</AltitudeMeters>
            <DistanceMeters>NAN</DistanceMeters>
          </Trackpoint>
          <Trackpoint>
            <Time>2020-03-07T16:06:02.000Z</Time>
            <Position>
              <LatitudeDegrees>40.787448920309543609619140625</LatitudeDegrees>
              <LongitudeDegrees>-3.7737173773348331451416015625</LongitudeDegrees>
            </Position>
            <AltitudeMeters>1029.4000244140625</AltitudeMeters>
            <DistanceMeters>NAN</DistanceMeters>
          </Trackpoint>
          <Trackpoint>
            <Time>2020-03-07T16:06:03.000Z</Time>
            <Position>
              <LatitudeDegrees>40.78738915733993053436279296875</LatitudeDegrees>
              <LongitudeDegrees>-3.7736771441996097564697265625</LongitudeDegrees>
            </Position>
            <AltitudeMeters>1029.4000244140625</AltitudeMeters>
            <DistanceMeters>NAN</DistanceMeters>
          </Trackpoint>
          <Trackpoint>
            <Time>2020-03-07T16:06:04.000Z</Time>
            <Position>
              <LatitudeDegrees>40.78732855618000030517578125</LatitudeDegrees>
              <LongitudeDegrees>-3.77364252693951129913330078125</LongitudeDegrees>
            </Position>
            <AltitudeMeters>1029.4000244140625</AltitudeMeters>
            <DistanceMeters>NAN</DistanceMeters>
          </Trackpoint>
          <Trackpoint>
            <Time>2020-03-07T16:06:05.000Z</Time>
            <Position>
              <LatitudeDegrees>40.7872677035629749298095703125</LatitudeDegrees>
              <LongitudeDegrees>-3.77361126244068145751953125</LongitudeDegrees>
            </Position>
            <AltitudeMeters>1029.4000244140625</AltitudeMeters>
            <DistanceMeters>NAN</DistanceMeters>
          </Trackpoint>
          <Trackpoint>
            <Time>2020-03-07T16:06:06.000Z</Time>
            <Position>
              <LatitudeDegrees>40.787207186222076416015625</LatitudeDegrees>
              <LongitudeDegrees>-3.7735805846750736236572265625</LongitudeDegrees>
            </Position>
            <AltitudeMeters>1029.5999755859375</AltitudeMeters>
            <DistanceMeters>NAN</DistanceMeters>
          </Trackpoint>
          <Trackpoint>
            <Time>2020-03-07T16:06:07.000Z</Time>
            <Position>
              <LatitudeDegrees>40.7871483452618122100830078125</LatitudeDegrees>
              <LongitudeDegrees>-3.7735500745475292205810546875</LongitudeDegrees>
            </Position>
            <AltitudeMeters>1029.800048828125</AltitudeMeters>
            <DistanceMeters>NAN</DistanceMeters>
          </Trackpoint>
          <Trackpoint>
            <Time>2020-03-07T16:06:08.000Z</Time>
            <Position>
              <LatitudeDegrees>40.78708992339670658111572265625</LatitudeDegrees>
              <LongitudeDegrees>-3.7735222466289997100830078125</LongitudeDegrees>
            </Position>
            <AltitudeMeters>1029.800048828125</AltitudeMeters>
            <DistanceMeters>NAN</DistanceMeters>
          </Trackpoint>
          <Trackpoint>
            <Time>2020-03-07T16:06:09.000Z</Time>
            <Position>
              <LatitudeDegrees>40.78703074716031551361083984375</LatitudeDegrees>
              <LongitudeDegrees>-3.77349190413951873779296875</LongitudeDegrees>
            </Position>
            <AltitudeMeters>1030</AltitudeMeters>
            <DistanceMeters>NAN</DistanceMeters>
          </Trackpoint>
          <Trackpoint>
            <Time>2020-03-07T16:06:10.000Z</Time>
            <Position>
              <LatitudeDegrees>40.78697157092392444610595703125</LatitudeDegrees>
              <LongitudeDegrees>-3.7734612263739109039306640625</LongitudeDegrees>
            </Position>
            <AltitudeMeters>1030.199951171875</AltitudeMeters>
            <DistanceMeters>NAN</DistanceMeters>
          </Trackpoint>
          <Trackpoint>
            <Time>2020-03-07T16:06:11.000Z</Time>
            <Position>
              <LatitudeDegrees>40.78691138885915279388427734375</LatitudeDegrees>
              <LongitudeDegrees>-3.7734303809702396392822265625</LongitudeDegrees>
            </Position>
            <AltitudeMeters>1030.5999755859375</AltitudeMeters>
            <DistanceMeters>NAN</DistanceMeters>
          </Trackpoint>
          <Trackpoint>
            <Time>2020-03-07T16:06:12.000Z</Time>
            <Position>
              <LatitudeDegrees>40.78685070388019084930419921875</LatitudeDegrees>
              <LongitudeDegrees>-3.773397691547870635986328125</LongitudeDegrees>
            </Position>
            <AltitudeMeters>1030.5999755859375</AltitudeMeters>
            <DistanceMeters>NAN</DistanceMeters>
          </Trackpoint>
          <Trackpoint>
            <Time>2020-03-07T16:06:13.000Z</Time>
            <Position>
              <LatitudeDegrees>40.786787085235118865966796875</LatitudeDegrees>
              <LongitudeDegrees>-3.77336047589778900146484375</LongitudeDegrees>
            </Position>
            <AltitudeMeters>1030.800048828125</AltitudeMeters>
            <DistanceMeters>NAN</DistanceMeters>
          </Trackpoint>
          <Trackpoint>
            <Time>2020-03-07T16:06:14.000Z</Time>
            <Position>
              <LatitudeDegrees>40.78671969473361968994140625</LatitudeDegrees>
              <LongitudeDegrees>-3.77332158386707305908203125</LongitudeDegrees>
            </Position>
            <AltitudeMeters>1031</AltitudeMeters>
            <DistanceMeters>NAN</DistanceMeters>
          </Trackpoint>
          <Trackpoint>
            <Time>2020-03-07T16:06:15.000Z</Time>
            <Position>
              <LatitudeDegrees>40.7866504602134227752685546875</LatitudeDegrees>
              <LongitudeDegrees>-3.77328461967408657073974609375</LongitudeDegrees>
            </Position>
            <AltitudeMeters>1031.4000244140625</AltitudeMeters>
            <DistanceMeters>NAN</DistanceMeters>
          </Trackpoint>
          <Trackpoint>
            <Time>2020-03-07T16:06:16.000Z</Time>
            <Position>
              <LatitudeDegrees>40.78657946549355983734130859375</LatitudeDegrees>
              <LongitudeDegrees>-3.77324941568076610565185546875</LongitudeDegrees>
            </Position>
            <AltitudeMeters>1031.4000244140625</AltitudeMeters>
            <DistanceMeters>NAN</DistanceMeters>
          </Trackpoint>
          <Trackpoint>
            <Time>2020-03-07T16:06:17.000Z</Time>
            <Position>
              <LatitudeDegrees>40.786507129669189453125</LatitudeDegrees>
              <LongitudeDegrees>-3.77321387641131877899169921875</LongitudeDegrees>
            </Position>
            <AltitudeMeters>1031.4000244140625</AltitudeMeters>
            <DistanceMeters>NAN</DistanceMeters>
          </Trackpoint>
          <Trackpoint>
            <Time>2020-03-07T16:06:18.000Z</Time>
            <Position>
              <LatitudeDegrees>40.7864348776638507843017578125</LatitudeDegrees>
              <LongitudeDegrees>-3.7731774151325225830078125</LongitudeDegrees>
            </Position>
            <AltitudeMeters>1031.5999755859375</AltitudeMeters>
            <DistanceMeters>NAN</DistanceMeters>
          </Trackpoint>
          <Trackpoint>
            <Time>2020-03-07T16:06:19.000Z</Time>
            <Position>
              <LatitudeDegrees>40.7863651402294635772705078125</LatitudeDegrees>
              <LongitudeDegrees>-3.77314480952918529510498046875</LongitudeDegrees>
            </Position>
            <AltitudeMeters>1031.5999755859375</AltitudeMeters>
            <DistanceMeters>NAN</DistanceMeters>
          </Trackpoint>
          <Trackpoint>
            <Time>2020-03-07T16:06:20.000Z</Time>
            <Position>
              <LatitudeDegrees>40.78629934228956699371337890625</LatitudeDegrees>
              <LongitudeDegrees>-3.77311446703970432281494140625</LongitudeDegrees>
            </Position>
            <AltitudeMeters>1031.5999755859375</AltitudeMeters>
            <DistanceMeters>NAN</DistanceMeters>
          </Trackpoint>
          <Trackpoint>
            <Time>2020-03-07T16:06:21.000Z</Time>
            <Position>
              <LatitudeDegrees>40.7862350530922412872314453125</LatitudeDegrees>
              <LongitudeDegrees>-3.77308278344571590423583984375</LongitudeDegrees>
            </Position>
            <AltitudeMeters>1031.5999755859375</AltitudeMeters>
            <DistanceMeters>NAN</DistanceMeters>
          </Trackpoint>
          <Trackpoint>
            <Time>2020-03-07T16:06:22.000Z</Time>
            <Position>
              <LatitudeDegrees>40.786174871027469635009765625</LatitudeDegrees>
              <LongitudeDegrees>-3.773055039346218109130859375</LongitudeDegrees>
            </Position>
            <AltitudeMeters>1031.5999755859375</AltitudeMeters>
            <DistanceMeters>NAN</DistanceMeters>
          </Trackpoint>
          <Trackpoint>
            <Time>2020-03-07T16:06:23.000Z</Time>
            <Position>
              <LatitudeDegrees>40.78611561097204685211181640625</LatitudeDegrees>
              <LongitudeDegrees>-3.77302695997059345245361328125</LongitudeDegrees>
            </Position>
            <AltitudeMeters>1031.800048828125</AltitudeMeters>
            <DistanceMeters>NAN</DistanceMeters>
          </Trackpoint>
          <Trackpoint>
            <Time>2020-03-07T16:06:24.000Z</Time>
            <Position>
              <LatitudeDegrees>40.786058865487575531005859375</LatitudeDegrees>
              <LongitudeDegrees>-3.7729977071285247802734375</LongitudeDegrees>
            </Position>
            <AltitudeMeters>1032</AltitudeMeters>
            <DistanceMeters>NAN</DistanceMeters>
          </Trackpoint>
          <Trackpoint>
            <Time>2020-03-07T16:06:25.000Z</Time>
            <Position>
              <LatitudeDegrees>40.785999856889247894287109375</LatitudeDegrees>
              <LongitudeDegrees>-3.77296753227710723876953125</LongitudeDegrees>
            </Position>
            <AltitudeMeters>1032</AltitudeMeters>
            <DistanceMeters>NAN</DistanceMeters>
          </Trackpoint>
          <Trackpoint>
            <Time>2020-03-07T16:06:26.000Z</Time>
            <Position>
              <LatitudeDegrees>40.7859410159289836883544921875</LatitudeDegrees>
              <LongitudeDegrees>-3.772937357425689697265625</LongitudeDegrees>
            </Position>
            <AltitudeMeters>1032</AltitudeMeters>
            <DistanceMeters>NAN</DistanceMeters>
          </Trackpoint>
          <Trackpoint>
            <Time>2020-03-07T16:06:27.000Z</Time>
            <Position>
              <LatitudeDegrees>40.7858823426067829132080078125</LatitudeDegrees>
              <LongitudeDegrees>-3.77290408127009868621826171875</LongitudeDegrees>
            </Position>
            <AltitudeMeters>1032</AltitudeMeters>
            <DistanceMeters>NAN</DistanceMeters>
          </Trackpoint>
          <Trackpoint>
            <Time>2020-03-07T16:06:28.000Z</Time>
            <Position>
              <LatitudeDegrees>40.7858823426067829132080078125</LatitudeDegrees>
              <LongitudeDegrees>-3.77290408127009868621826171875</LongitudeDegrees>
            </Position>
            <AltitudeMeters>1032</AltitudeMeters>
            <DistanceMeters>NAN</DistanceMeters>
          </Trackpoint>
          <Trackpoint>
            <Time>2020-03-07T16:06:29.000Z</Time>
            <Position>
              <LatitudeDegrees>40.78582123853266239166259765625</LatitudeDegrees>
              <LongitudeDegrees>-3.7728728167712688446044921875</LongitudeDegrees>
            </Position>
            <AltitudeMeters>1032</AltitudeMeters>
            <DistanceMeters>NAN</DistanceMeters>
          </Trackpoint>
          <Trackpoint>
            <Time>2020-03-07T16:06:30.000Z</Time>
            <Position>
              <LatitudeDegrees>40.78575703315436840057373046875</LatitudeDegrees>
              <LongitudeDegrees>-3.77284306101500988006591796875</LongitudeDegrees>
            </Position>
            <AltitudeMeters>1032</AltitudeMeters>
            <DistanceMeters>NAN</DistanceMeters>
          </Trackpoint>
          <Trackpoint>
            <Time>2020-03-07T16:06:31.000Z</Time>
            <Position>
              <LatitudeDegrees>40.78569467179477214813232421875</LatitudeDegrees>
              <LongitudeDegrees>-3.77281674183905124664306640625</LongitudeDegrees>
            </Position>
            <AltitudeMeters>1032.199951171875</AltitudeMeters>
            <DistanceMeters>NAN</DistanceMeters>
          </Trackpoint>
          <Trackpoint>
            <Time>2020-03-07T16:06:32.000Z</Time>
            <Position>
              <LatitudeDegrees>40.78563147224485874176025390625</LatitudeDegrees>
              <LongitudeDegrees>-3.77278774045407772064208984375</LongitudeDegrees>
            </Position>
            <AltitudeMeters>1032.4000244140625</AltitudeMeters>
            <DistanceMeters>NAN</DistanceMeters>
          </Trackpoint>
          <Trackpoint>
            <Time>2020-03-07T16:06:33.000Z</Time>
            <Position>
              <LatitudeDegrees>40.7855014689266681671142578125</LatitudeDegrees>
              <LongitudeDegrees>-3.77272345125675201416015625</LongitudeDegrees>
            </Position>
            <AltitudeMeters>1032.4000244140625</AltitudeMeters>
            <DistanceMeters>NAN</DistanceMeters>
          </Trackpoint>
          <Trackpoint>
            <Time>2020-03-07T16:06:34.000Z</Time>
            <Position>
              <LatitudeDegrees>40.78543516807258129119873046875</LatitudeDegrees>
              <LongitudeDegrees>-3.772690594196319580078125</LongitudeDegrees>
            </Position>
            <AltitudeMeters>1032.4000244140625</AltitudeMeters>
            <DistanceMeters>NAN</DistanceMeters>
          </Trackpoint>
          <Trackpoint>
            <Time>2020-03-07T16:06:35.000Z</Time>
            <Position>
              <LatitudeDegrees>40.78536760993301868438720703125</LatitudeDegrees>
              <LongitudeDegrees>-3.77265379764139652252197265625</LongitudeDegrees>
            </Position>
            <AltitudeMeters>1032.4000244140625</AltitudeMeters>
            <DistanceMeters>NAN</DistanceMeters>
          </Trackpoint>
          <Trackpoint>
            <Time>2020-03-07T16:06:36.000Z</Time>
            <Position>
              <LatitudeDegrees>40.785301141440868377685546875</LatitudeDegrees>
              <LongitudeDegrees>-3.7726180069148540496826171875</LongitudeDegrees>
            </Position>
            <AltitudeMeters>1032.4000244140625</AltitudeMeters>
            <DistanceMeters>NAN</DistanceMeters>
          </Trackpoint>
          <Trackpoint>
            <Time>2020-03-07T16:06:37.000Z</Time>
            <Position>
              <LatitudeDegrees>40.78523450531065464019775390625</LatitudeDegrees>
              <LongitudeDegrees>-3.772582300007343292236328125</LongitudeDegrees>
            </Position>
            <AltitudeMeters>1032.4000244140625</AltitudeMeters>
            <DistanceMeters>NAN</DistanceMeters>
          </Trackpoint>
          <Trackpoint>
            <Time>2020-03-07T16:06:38.000Z</Time>
            <Position>
              <LatitudeDegrees>40.78523450531065464019775390625</LatitudeDegrees>
              <LongitudeDegrees>-3.772582300007343292236328125</LongitudeDegrees>
            </Position>
            <AltitudeMeters>1032.4000244140625</AltitudeMeters>
            <DistanceMeters>NAN</DistanceMeters>
          </Trackpoint>
          <Trackpoint>
            <Time>2020-03-07T16:06:39.000Z</Time>
            <Position>
              <LatitudeDegrees>40.78509888611733913421630859375</LatitudeDegrees>
              <LongitudeDegrees>-3.7725335173308849334716796875</LongitudeDegrees>
            </Position>
            <AltitudeMeters>1032.4000244140625</AltitudeMeters>
            <DistanceMeters>NAN</DistanceMeters>
          </Trackpoint>
          <Trackpoint>
            <Time>2020-03-07T16:06:40.000Z</Time>
            <Position>
              <LatitudeDegrees>40.7850267179310321807861328125</LatitudeDegrees>
              <LongitudeDegrees>-3.77251826226711273193359375</LongitudeDegrees>
            </Position>
            <AltitudeMeters>1032.4000244140625</AltitudeMeters>
            <DistanceMeters>NAN</DistanceMeters>
          </Trackpoint>
          <Trackpoint>
            <Time>2020-03-07T16:06:41.000Z</Time>
            <Position>
              <LatitudeDegrees>40.7849546335637569427490234375</LatitudeDegrees>
              <LongitudeDegrees>-3.77251968719065189361572265625</LongitudeDegrees>
            </Position>
            <AltitudeMeters>1032.4000244140625</AltitudeMeters>
            <DistanceMeters>NAN</DistanceMeters>
          </Trackpoint>
          <Trackpoint>
            <Time>2020-03-07T16:06:42.000Z</Time>
            <Position>
              <LatitudeDegrees>40.78488347120583057403564453125</LatitudeDegrees>
              <LongitudeDegrees>-3.77253745682537555694580078125</LongitudeDegrees>
            </Position>
            <AltitudeMeters>1032.199951171875</AltitudeMeters>
            <DistanceMeters>NAN</DistanceMeters>
          </Trackpoint>
          <Trackpoint>
            <Time>2020-03-07T16:06:43.000Z</Time>
            <Position>
              <LatitudeDegrees>40.7848151586949825286865234375</LatitudeDegrees>
              <LongitudeDegrees>-3.77256662584841251373291015625</LongitudeDegrees>
            </Position>
            <AltitudeMeters>1032.199951171875</AltitudeMeters>
            <DistanceMeters>NAN</DistanceMeters>
          </Trackpoint>
          <Trackpoint>
            <Time>2020-03-07T16:06:44.000Z</Time>
            <Position>
              <LatitudeDegrees>40.7847504504024982452392578125</LatitudeDegrees>
              <LongitudeDegrees>-3.772603087127208709716796875</LongitudeDegrees>
            </Position>
            <AltitudeMeters>1032.199951171875</AltitudeMeters>
            <DistanceMeters>NAN</DistanceMeters>
          </Trackpoint>
          <Trackpoint>
            <Time>2020-03-07T16:06:45.000Z</Time>
            <Position>
              <LatitudeDegrees>40.7846864126622676849365234375</LatitudeDegrees>
              <LongitudeDegrees>-3.77264323644340038299560546875</LongitudeDegrees>
            </Position>
            <AltitudeMeters>1032</AltitudeMeters>
            <DistanceMeters>NAN</DistanceMeters>
          </Trackpoint>
          <Trackpoint>
            <Time>2020-03-07T16:06:46.000Z</Time>
            <Position>
              <LatitudeDegrees>40.78462346456944942474365234375</LatitudeDegrees>
              <LongitudeDegrees>-3.77268430776894092559814453125</LongitudeDegrees>
            </Position>
            <AltitudeMeters>1031.800048828125</AltitudeMeters>
            <DistanceMeters>NAN</DistanceMeters>
          </Trackpoint>
          <Trackpoint>
            <Time>2020-03-07T16:06:47.000Z</Time>
            <Position>
              <LatitudeDegrees>40.78456127084791660308837890625</LatitudeDegrees>
              <LongitudeDegrees>-3.77272537909448146820068359375</LongitudeDegrees>
            </Position>
            <AltitudeMeters>1031.5999755859375</AltitudeMeters>
            <DistanceMeters>NAN</DistanceMeters>
          </Trackpoint>
          <Trackpoint>
            <Time>2020-03-07T16:06:48.000Z</Time>
            <Position>
              <LatitudeDegrees>40.78449882566928863525390625</LatitudeDegrees>
              <LongitudeDegrees>-3.7727675400674343109130859375</LongitudeDegrees>
            </Position>
            <AltitudeMeters>1031.5999755859375</AltitudeMeters>
            <DistanceMeters>NAN</DistanceMeters>
          </Trackpoint>
          <Trackpoint>
            <Time>2020-03-07T16:06:49.000Z</Time>
            <Position>
              <LatitudeDegrees>40.78443671576678752899169921875</LatitudeDegrees>
              <LongitudeDegrees>-3.77280936576426029205322265625</LongitudeDegrees>
            </Position>
            <AltitudeMeters>1031.5999755859375</AltitudeMeters>
            <DistanceMeters>NAN</DistanceMeters>
          </Trackpoint>
          <Trackpoint>
            <Time>2020-03-07T16:06:50.000Z</Time>
            <Position>
              <LatitudeDegrees>40.7843736000359058380126953125</LatitudeDegrees>
              <LongitudeDegrees>-3.77284959889948368072509765625</LongitudeDegrees>
            </Position>
            <AltitudeMeters>1031.5999755859375</AltitudeMeters>
            <DistanceMeters>NAN</DistanceMeters>
          </Trackpoint>
          <Trackpoint>
            <Time>2020-03-07T16:06:51.000Z</Time>
            <Position>
              <LatitudeDegrees>40.78430972993373870849609375</LatitudeDegrees>
              <LongitudeDegrees>-3.772889077663421630859375</LongitudeDegrees>
            </Position>
            <AltitudeMeters>1031.5999755859375</AltitudeMeters>
            <DistanceMeters>NAN</DistanceMeters>
          </Trackpoint>
          <Trackpoint>
            <Time>2020-03-07T16:06:52.000Z</Time>
            <Position>
              <LatitudeDegrees>40.7842485420405864715576171875</LatitudeDegrees>
              <LongitudeDegrees>-3.7729278020560741424560546875</LongitudeDegrees>
            </Position>
            <AltitudeMeters>1031.5999755859375</AltitudeMeters>
            <DistanceMeters>NAN</DistanceMeters>
          </Trackpoint>
          <Trackpoint>
            <Time>2020-03-07T16:06:53.000Z</Time>
            <Position>
              <LatitudeDegrees>40.784187018871307373046875</LatitudeDegrees>
              <LongitudeDegrees>-3.77296728082001209259033203125</LongitudeDegrees>
            </Position>
            <AltitudeMeters>1031.5999755859375</AltitudeMeters>
            <DistanceMeters>NAN</DistanceMeters>
          </Trackpoint>
          <Trackpoint>
            <Time>2020-03-07T16:06:54.000Z</Time>
            <Position>
              <LatitudeDegrees>40.78412557952105998992919921875</LatitudeDegrees>
              <LongitudeDegrees>-3.7730062566697597503662109375</LongitudeDegrees>
            </Position>
            <AltitudeMeters>1031.5999755859375</AltitudeMeters>
            <DistanceMeters>NAN</DistanceMeters>
          </Trackpoint>
          <Trackpoint>
            <Time>2020-03-07T16:06:55.000Z</Time>
            <Position>
              <LatitudeDegrees>40.78406422398984432220458984375</LatitudeDegrees>
              <LongitudeDegrees>-3.77304573543369770050048828125</LongitudeDegrees>
            </Position>
            <AltitudeMeters>1031.5999755859375</AltitudeMeters>
            <DistanceMeters>NAN</DistanceMeters>
          </Trackpoint>
          <Trackpoint>
            <Time>2020-03-07T16:06:56.000Z</Time>
            <Position>
              <LatitudeDegrees>40.78400270082056522369384765625</LatitudeDegrees>
              <LongitudeDegrees>-3.77308529801666736602783203125</LongitudeDegrees>
            </Position>
            <AltitudeMeters>1031.5999755859375</AltitudeMeters>
            <DistanceMeters>NAN</DistanceMeters>
          </Trackpoint>
          <Trackpoint>
            <Time>2020-03-07T16:06:57.000Z</Time>
            <Position>
              <LatitudeDegrees>40.783941932022571563720703125</LatitudeDegrees>
              <LongitudeDegrees>-3.7731242738664150238037109375</LongitudeDegrees>
            </Position>
            <AltitudeMeters>1031.5999755859375</AltitudeMeters>
            <DistanceMeters>NAN</DistanceMeters>
          </Trackpoint>
          <Trackpoint>
            <Time>2020-03-07T16:06:58.000Z</Time>
            <Position>
              <LatitudeDegrees>40.78388200141489505767822265625</LatitudeDegrees>
              <LongitudeDegrees>-3.773162998259067535400390625</LongitudeDegrees>
            </Position>
            <AltitudeMeters>1031.5999755859375</AltitudeMeters>
            <DistanceMeters>NAN</DistanceMeters>
          </Trackpoint>
          <Trackpoint>
            <Time>2020-03-07T16:06:59.000Z</Time>
            <Position>
              <LatitudeDegrees>40.7838220708072185516357421875</LatitudeDegrees>
              <LongitudeDegrees>-3.77320130355656147003173828125</LongitudeDegrees>
            </Position>
            <AltitudeMeters>1031.5999755859375</AltitudeMeters>
            <DistanceMeters>NAN</DistanceMeters>
          </Trackpoint>
          <Trackpoint>
            <Time>2020-03-07T16:07:00.000Z</Time>
            <Position>
              <LatitudeDegrees>40.78376247547566890716552734375</LatitudeDegrees>
              <LongitudeDegrees>-3.77324044704437255859375</LongitudeDegrees>
            </Position>
            <AltitudeMeters>1031.800048828125</AltitudeMeters>
            <DistanceMeters>NAN</DistanceMeters>
          </Trackpoint>
          <Trackpoint>
            <Time>2020-03-07T16:07:01.000Z</Time>
            <Position>
              <LatitudeDegrees>40.783703215420246124267578125</LatitudeDegrees>
              <LongitudeDegrees>-3.77327858470380306243896484375</LongitudeDegrees>
            </Position>
            <AltitudeMeters>1031.800048828125</AltitudeMeters>
            <DistanceMeters>NAN</DistanceMeters>
          </Trackpoint>
          <Trackpoint>
            <Time>2020-03-07T16:07:02.000Z</Time>
            <Position>
              <LatitudeDegrees>40.7836438715457916259765625</LatitudeDegrees>
              <LongitudeDegrees>-3.77331630326807498931884765625</LongitudeDegrees>
            </Position>
            <AltitudeMeters>1032</AltitudeMeters>
            <DistanceMeters>NAN</DistanceMeters>
          </Trackpoint>
          <Trackpoint>
            <Time>2020-03-07T16:07:03.000Z</Time>
            <Position>
              <LatitudeDegrees>40.78358553349971771240234375</LatitudeDegrees>
              <LongitudeDegrees>-3.7733532674610614776611328125</LongitudeDegrees>
            </Position>
            <AltitudeMeters>1032</AltitudeMeters>
            <DistanceMeters>NAN</DistanceMeters>
          </Trackpoint>
          <Trackpoint>
            <Time>2020-03-07T16:07:04.000Z</Time>
            <Position>
              <LatitudeDegrees>40.78352694399654865264892578125</LatitudeDegrees>
              <LongitudeDegrees>-3.7733898125588893890380859375</LongitudeDegrees>
            </Position>
            <AltitudeMeters>1032</AltitudeMeters>
            <DistanceMeters>NAN</DistanceMeters>
          </Trackpoint>
          <Trackpoint>
            <Time>2020-03-07T16:07:05.000Z</Time>
            <Position>
              <LatitudeDegrees>40.78346860595047473907470703125</LatitudeDegrees>
              <LongitudeDegrees>-3.77342761494219303131103515625</LongitudeDegrees>
            </Position>
            <AltitudeMeters>1032.199951171875</AltitudeMeters>
            <DistanceMeters>NAN</DistanceMeters>
          </Trackpoint>
          <Trackpoint>
            <Time>2020-03-07T16:07:06.000Z</Time>
            <Position>
              <LatitudeDegrees>40.7834086753427982330322265625</LatitudeDegrees>
              <LongitudeDegrees>-3.77346550114452838897705078125</LongitudeDegrees>
            </Position>
            <AltitudeMeters>1032.4000244140625</AltitudeMeters>
            <DistanceMeters>NAN</DistanceMeters>
          </Trackpoint>
          <Trackpoint>
            <Time>2020-03-07T16:07:07.000Z</Time>
            <Position>
              <LatitudeDegrees>40.78334723599255084991455078125</LatitudeDegrees>
              <LongitudeDegrees>-3.7735044769942760467529296875</LongitudeDegrees>
            </Position>
            <AltitudeMeters>1032.4000244140625</AltitudeMeters>
            <DistanceMeters>NAN</DistanceMeters>
          </Trackpoint>
          <Trackpoint>
            <Time>2020-03-07T16:07:08.000Z</Time>
            <Position>
              <LatitudeDegrees>40.78334723599255084991455078125</LatitudeDegrees>
              <LongitudeDegrees>-3.7735044769942760467529296875</LongitudeDegrees>
            </Position>
            <AltitudeMeters>1032.4000244140625</AltitudeMeters>
            <DistanceMeters>NAN</DistanceMeters>
          </Trackpoint>
          <Trackpoint>
            <Time>2020-03-07T16:07:09.000Z</Time>
            <Position>
              <LatitudeDegrees>40.78322268091142177581787109375</LatitudeDegrees>
              <LongitudeDegrees>-3.77358854748308658599853515625</LongitudeDegrees>
            </Position>
            <AltitudeMeters>1032.4000244140625</AltitudeMeters>
            <DistanceMeters>NAN</DistanceMeters>
          </Trackpoint>
          <Trackpoint>
            <Time>2020-03-07T16:07:10.000Z</Time>
            <Position>
              <LatitudeDegrees>40.7831585593521595001220703125</LatitudeDegrees>
              <LongitudeDegrees>-3.77363146282732486724853515625</LongitudeDegrees>
            </Position>
            <AltitudeMeters>1032.5999755859375</AltitudeMeters>
            <DistanceMeters>NAN</DistanceMeters>
          </Trackpoint>
          <Trackpoint>
            <Time>2020-03-07T16:07:11.000Z</Time>
            <Position>
              <LatitudeDegrees>40.783093012869358062744140625</LatitudeDegrees>
              <LongitudeDegrees>-3.7736741267144680023193359375</LongitudeDegrees>
            </Position>
            <AltitudeMeters>1032.5999755859375</AltitudeMeters>
            <DistanceMeters>NAN</DistanceMeters>
          </Trackpoint>
          <Trackpoint>
            <Time>2020-03-07T16:07:12.000Z</Time>
            <Position>
              <LatitudeDegrees>40.78302629292011260986328125</LatitudeDegrees>
              <LongitudeDegrees>-3.77371720969676971435546875</LongitudeDegrees>
            </Position>
            <AltitudeMeters>1032.5999755859375</AltitudeMeters>
            <DistanceMeters>NAN</DistanceMeters>
          </Trackpoint>
          <Trackpoint>
            <Time>2020-03-07T16:07:13.000Z</Time>
            <Position>
              <LatitudeDegrees>40.782958231866359710693359375</LatitudeDegrees>
              <LongitudeDegrees>-3.7737616337835788726806640625</LongitudeDegrees>
            </Position>
            <AltitudeMeters>1032.5999755859375</AltitudeMeters>
            <DistanceMeters>NAN</DistanceMeters>
          </Trackpoint>
          <Trackpoint>
            <Time>2020-03-07T16:07:14.000Z</Time>
            <Position>
              <LatitudeDegrees>40.78288924880325794219970703125</LatitudeDegrees>
              <LongitudeDegrees>-3.77380706369876861572265625</LongitudeDegrees>
            </Position>
            <AltitudeMeters>1032.5999755859375</AltitudeMeters>
            <DistanceMeters>NAN</DistanceMeters>
          </Trackpoint>
          <Trackpoint>
            <Time>2020-03-07T16:07:15.000Z</Time>
            <Position>
              <LatitudeDegrees>40.782819092273712158203125</LatitudeDegrees>
              <LongitudeDegrees>-3.77385274507105350494384765625</LongitudeDegrees>
            </Position>
            <AltitudeMeters>1032.5999755859375</AltitudeMeters>
            <DistanceMeters>NAN</DistanceMeters>
          </Trackpoint>
          <Trackpoint>
            <Time>2020-03-07T16:07:16.000Z</Time>
            <Position>
              <LatitudeDegrees>40.78274759463965892791748046875</LatitudeDegrees>
              <LongitudeDegrees>-3.77389783971011638641357421875</LongitudeDegrees>
            </Position>
            <AltitudeMeters>1032.4000244140625</AltitudeMeters>
            <DistanceMeters>NAN</DistanceMeters>
          </Trackpoint>
          <Trackpoint>
            <Time>2020-03-07T16:07:17.000Z</Time>
            <Position>
              <LatitudeDegrees>40.78267534263432025909423828125</LatitudeDegrees>
              <LongitudeDegrees>-3.77394041977822780609130859375</LongitudeDegrees>
            </Position>
            <AltitudeMeters>1031.800048828125</AltitudeMeters>
            <DistanceMeters>NAN</DistanceMeters>
          </Trackpoint>
          <Trackpoint>
            <Time>2020-03-07T16:07:18.000Z</Time>
            <Position>
              <LatitudeDegrees>40.78260208480060100555419921875</LatitudeDegrees>
              <LongitudeDegrees>-3.7739815749228000640869140625</LongitudeDegrees>
            </Position>
            <AltitudeMeters>1031.199951171875</AltitudeMeters>
            <DistanceMeters>NAN</DistanceMeters>
          </Trackpoint>
          <Trackpoint>
            <Time>2020-03-07T16:07:19.000Z</Time>
            <Position>
              <LatitudeDegrees>40.782527066767215728759765625</LatitudeDegrees>
              <LongitudeDegrees>-3.77401870675384998321533203125</LongitudeDegrees>
            </Position>
            <AltitudeMeters>1030.5999755859375</AltitudeMeters>
            <DistanceMeters>NAN</DistanceMeters>
          </Trackpoint>
          <Trackpoint>
            <Time>2020-03-07T16:07:20.000Z</Time>
            <Position>
              <LatitudeDegrees>40.7824521325528621673583984375</LatitudeDegrees>
              <LongitudeDegrees>-3.77405206672847270965576171875</LongitudeDegrees>
            </Position>
            <AltitudeMeters>1030.4000244140625</AltitudeMeters>
            <DistanceMeters>NAN</DistanceMeters>
          </Trackpoint>
          <Trackpoint>
            <Time>2020-03-07T16:07:21.000Z</Time>
            <Position>
              <LatitudeDegrees>40.78237661160528659820556640625</LatitudeDegrees>
              <LongitudeDegrees>-3.77408173866569995880126953125</LongitudeDegrees>
            </Position>
            <AltitudeMeters>1030.199951171875</AltitudeMeters>
            <DistanceMeters>NAN</DistanceMeters>
          </Trackpoint>
          <Trackpoint>
            <Time>2020-03-07T16:07:22.000Z</Time>
            <Position>
              <LatitudeDegrees>40.7823000848293304443359375</LatitudeDegrees>
              <LongitudeDegrees>-3.7741103209555149078369140625</LongitudeDegrees>
            </Position>
            <AltitudeMeters>1029.800048828125</AltitudeMeters>
            <DistanceMeters>NAN</DistanceMeters>
          </Trackpoint>
          <Trackpoint>
            <Time>2020-03-07T16:07:23.000Z</Time>
            <Position>
              <LatitudeDegrees>40.78222322277724742889404296875</LatitudeDegrees>
              <LongitudeDegrees>-3.77413739450275897979736328125</LongitudeDegrees>
            </Position>
            <AltitudeMeters>1029.4000244140625</AltitudeMeters>
            <DistanceMeters>NAN</DistanceMeters>
          </Trackpoint>
          <Trackpoint>
            <Time>2020-03-07T16:07:24.000Z</Time>
            <Position>
              <LatitudeDegrees>40.78214560635387897491455078125</LatitudeDegrees>
              <LongitudeDegrees>-3.77416312694549560546875</LongitudeDegrees>
            </Position>
            <AltitudeMeters>1028.800048828125</AltitudeMeters>
            <DistanceMeters>NAN</DistanceMeters>
          </Trackpoint>
          <Trackpoint>
            <Time>2020-03-07T16:07:25.000Z</Time>
            <Position>
              <LatitudeDegrees>40.78206740319728851318359375</LatitudeDegrees>
              <LongitudeDegrees>-3.7741887755692005157470703125</LongitudeDegrees>
            </Position>
            <AltitudeMeters>1028.4000244140625</AltitudeMeters>
            <DistanceMeters>NAN</DistanceMeters>
          </Trackpoint>
          <Trackpoint>
            <Time>2020-03-07T16:07:26.000Z</Time>
            <Position>
              <LatitudeDegrees>40.78198903240263462066650390625</LatitudeDegrees>
              <LongitudeDegrees>-3.77421434037387371063232421875</LongitudeDegrees>
            </Position>
            <AltitudeMeters>1028</AltitudeMeters>
            <DistanceMeters>NAN</DistanceMeters>
          </Trackpoint>
          <Trackpoint>
            <Time>2020-03-07T16:07:27.000Z</Time>
            <Position>
              <LatitudeDegrees>40.781910158693790435791015625</LatitudeDegrees>
              <LongitudeDegrees>-3.77423998899757862091064453125</LongitudeDegrees>
            </Position>
            <AltitudeMeters>1027.800048828125</AltitudeMeters>
            <DistanceMeters>NAN</DistanceMeters>
          </Trackpoint>
          <Trackpoint>
            <Time>2020-03-07T16:07:28.000Z</Time>
            <Position>
              <LatitudeDegrees>40.7818308658897876739501953125</LatitudeDegrees>
              <LongitudeDegrees>-3.774266056716442108154296875</LongitudeDegrees>
            </Position>
            <AltitudeMeters>1027.800048828125</AltitudeMeters>
            <DistanceMeters>NAN</DistanceMeters>
          </Trackpoint>
          <Trackpoint>
            <Time>2020-03-07T16:07:29.000Z</Time>
            <Position>
              <LatitudeDegrees>40.78175115399062633514404296875</LatitudeDegrees>
              <LongitudeDegrees>-3.77429195679724216461181640625</LongitudeDegrees>
            </Position>
            <AltitudeMeters>1027.5999755859375</AltitudeMeters>
            <DistanceMeters>NAN</DistanceMeters>
          </Trackpoint>
          <Trackpoint>
            <Time>2020-03-07T16:07:30.000Z</Time>
            <Position>
              <LatitudeDegrees>40.78167043626308441162109375</LatitudeDegrees>
              <LongitudeDegrees>-3.7743171863257884979248046875</LongitudeDegrees>
            </Position>
            <AltitudeMeters>1027.5999755859375</AltitudeMeters>
            <DistanceMeters>NAN</DistanceMeters>
          </Trackpoint>
          <Trackpoint>
            <Time>2020-03-07T16:07:31.000Z</Time>
            <Position>
              <LatitudeDegrees>40.78158988617360591888427734375</LatitudeDegrees>
              <LongitudeDegrees>-3.7743423320353031158447265625</LongitudeDegrees>
            </Position>
            <AltitudeMeters>1027.4000244140625</AltitudeMeters>
            <DistanceMeters>NAN</DistanceMeters>
          </Trackpoint>
          <Trackpoint>
            <Time>2020-03-07T16:07:32.000Z</Time>
            <Position>
              <LatitudeDegrees>40.78158988617360591888427734375</LatitudeDegrees>
              <LongitudeDegrees>-3.7743423320353031158447265625</LongitudeDegrees>
            </Position>
            <AltitudeMeters>1027.4000244140625</AltitudeMeters>
            <DistanceMeters>NAN</DistanceMeters>
          </Trackpoint>
          <Trackpoint>
            <Time>2020-03-07T16:07:33.000Z</Time>
            <Position>
              <LatitudeDegrees>40.7814275287091732025146484375</LatitudeDegrees>
              <LongitudeDegrees>-3.7743875943124294281005859375</LongitudeDegrees>
            </Position>
            <AltitudeMeters>1027.199951171875</AltitudeMeters>
            <DistanceMeters>NAN</DistanceMeters>
          </Trackpoint>
          <Trackpoint>
            <Time>2020-03-07T16:07:34.000Z</Time>
            <Position>
              <LatitudeDegrees>40.78134630806744098663330078125</LatitudeDegrees>
              <LongitudeDegrees>-3.77440947107970714569091796875</LongitudeDegrees>
            </Position>
            <AltitudeMeters>1027.199951171875</AltitudeMeters>
            <DistanceMeters>NAN</DistanceMeters>
          </Trackpoint>
          <Trackpoint>
            <Time>2020-03-07T16:07:35.000Z</Time>
            <Position>
              <LatitudeDegrees>40.78126466833055019378662109375</LatitudeDegrees>
              <LongitudeDegrees>-3.77443646080791950225830078125</LongitudeDegrees>
            </Position>
            <AltitudeMeters>1026.800048828125</AltitudeMeters>
            <DistanceMeters>NAN</DistanceMeters>
          </Trackpoint>
          <Trackpoint>
            <Time>2020-03-07T16:07:36.000Z</Time>
            <Position>
              <LatitudeDegrees>40.78118302859365940093994140625</LatitudeDegrees>
              <LongitudeDegrees>-3.7744657136499881744384765625</LongitudeDegrees>
            </Position>
            <AltitudeMeters>1026.800048828125</AltitudeMeters>
            <DistanceMeters>NAN</DistanceMeters>
          </Trackpoint>
          <Trackpoint>
            <Time>2020-03-07T16:07:37.000Z</Time>
            <Position>
              <LatitudeDegrees>40.78109954483807086944580078125</LatitudeDegrees>
              <LongitudeDegrees>-3.77449379302561283111572265625</LongitudeDegrees>
            </Position>
            <AltitudeMeters>1026.5999755859375</AltitudeMeters>
            <DistanceMeters>NAN</DistanceMeters>
          </Trackpoint>
          <Trackpoint>
            <Time>2020-03-07T16:07:38.000Z</Time>
            <Position>
              <LatitudeDegrees>40.78109954483807086944580078125</LatitudeDegrees>
              <LongitudeDegrees>-3.77449379302561283111572265625</LongitudeDegrees>
            </Position>
            <AltitudeMeters>1026.5999755859375</AltitudeMeters>
            <DistanceMeters>NAN</DistanceMeters>
          </Trackpoint>
          <Trackpoint>
            <Time>2020-03-07T16:07:39.000Z</Time>
            <Position>
              <LatitudeDegrees>40.7809286378324031829833984375</LatitudeDegrees>
              <LongitudeDegrees>-3.77454609610140323638916015625</LongitudeDegrees>
            </Position>
            <AltitudeMeters>1026.4000244140625</AltitudeMeters>
            <DistanceMeters>NAN</DistanceMeters>
          </Trackpoint>
          <Trackpoint>
            <Time>2020-03-07T16:07:40.000Z</Time>
            <Position>
              <LatitudeDegrees>40.780842304229736328125</LatitudeDegrees>
              <LongitudeDegrees>-3.77457425929605960845947265625</LongitudeDegrees>
            </Position>
            <AltitudeMeters>1026.4000244140625</AltitudeMeters>
            <DistanceMeters>NAN</DistanceMeters>
          </Trackpoint>
          <Trackpoint>
            <Time>2020-03-07T16:07:41.000Z</Time>
            <Position>
              <LatitudeDegrees>40.78075454570353031158447265625</LatitudeDegrees>
              <LongitudeDegrees>-3.774602003395557403564453125</LongitudeDegrees>
            </Position>
            <AltitudeMeters>1025.800048828125</AltitudeMeters>
            <DistanceMeters>NAN</DistanceMeters>
          </Trackpoint>
          <Trackpoint>
            <Time>2020-03-07T16:07:42.000Z</Time>
            <Position>
              <LatitudeDegrees>40.78066729009151458740234375</LatitudeDegrees>
              <LongitudeDegrees>-3.77462974749505519866943359375</LongitudeDegrees>
            </Position>
            <AltitudeMeters>1025.5999755859375</AltitudeMeters>
            <DistanceMeters>NAN</DistanceMeters>
          </Trackpoint>
          <Trackpoint>
            <Time>2020-03-07T16:07:43.000Z</Time>
            <Position>
              <LatitudeDegrees>40.7805806212127208709716796875</LatitudeDegrees>
              <LongitudeDegrees>-3.7746591679751873016357421875</LongitudeDegrees>
            </Position>
            <AltitudeMeters>1025.4000244140625</AltitudeMeters>
            <DistanceMeters>NAN</DistanceMeters>
          </Trackpoint>
          <Trackpoint>
            <Time>2020-03-07T16:07:44.000Z</Time>
            <Position>
              <LatitudeDegrees>40.78049571253359317779541015625</LatitudeDegrees>
              <LongitudeDegrees>-3.77469177357852458953857421875</LongitudeDegrees>
            </Position>
            <AltitudeMeters>1025.199951171875</AltitudeMeters>
            <DistanceMeters>NAN</DistanceMeters>
          </Trackpoint>
          <Trackpoint>
            <Time>2020-03-07T16:07:45.000Z</Time>
            <Position>
              <LatitudeDegrees>40.78041206113994121551513671875</LatitudeDegrees>
              <LongitudeDegrees>-3.7747258879244327545166015625</LongitudeDegrees>
            </Position>
            <AltitudeMeters>1025.199951171875</AltitudeMeters>
            <DistanceMeters>NAN</DistanceMeters>
          </Trackpoint>
          <Trackpoint>
            <Time>2020-03-07T16:07:46.000Z</Time>
            <Position>
              <LatitudeDegrees>40.780328996479511260986328125</LatitudeDegrees>
              <LongitudeDegrees>-3.7747572362422943115234375</LongitudeDegrees>
            </Position>
            <AltitudeMeters>1024.800048828125</AltitudeMeters>
            <DistanceMeters>NAN</DistanceMeters>
          </Trackpoint>
          <Trackpoint>
            <Time>2020-03-07T16:07:47.000Z</Time>
            <Position>
              <LatitudeDegrees>40.780245848000049591064453125</LatitudeDegrees>
              <LongitudeDegrees>-3.7747869081795215606689453125</LongitudeDegrees>
            </Position>
            <AltitudeMeters>1023.5999755859375</AltitudeMeters>
            <DistanceMeters>NAN</DistanceMeters>
          </Trackpoint>
          <Trackpoint>
            <Time>2020-03-07T16:07:48.000Z</Time>
            <Position>
              <LatitudeDegrees>40.7801632024347782135009765625</LatitudeDegrees>
              <LongitudeDegrees>-3.77481557428836822509765625</LongitudeDegrees>
            </Position>
            <AltitudeMeters>1023.20001220703125</AltitudeMeters>
            <DistanceMeters>NAN</DistanceMeters>
          </Trackpoint>
          <Trackpoint>
            <Time>2020-03-07T16:07:49.000Z</Time>
            <Position>
              <LatitudeDegrees>40.7800803892314434051513671875</LatitudeDegrees>
              <LongitudeDegrees>-3.77484331838786602020263671875</LongitudeDegrees>
            </Position>
            <AltitudeMeters>1022.79998779296875</AltitudeMeters>
            <DistanceMeters>NAN</DistanceMeters>
          </Trackpoint>
          <Trackpoint>
            <Time>2020-03-07T16:07:50.000Z</Time>
            <Position>
              <LatitudeDegrees>40.77999799512326717376708984375</LatitudeDegrees>
              <LongitudeDegrees>-3.77487131394445896148681640625</LongitudeDegrees>
            </Position>
            <AltitudeMeters>1022.4000244140625</AltitudeMeters>
            <DistanceMeters>NAN</DistanceMeters>
          </Trackpoint>
          <Trackpoint>
            <Time>2020-03-07T16:07:51.000Z</Time>
            <Position>
              <LatitudeDegrees>40.7799164392054080963134765625</LatitudeDegrees>
              <LongitudeDegrees>-3.77489964477717876434326171875</LongitudeDegrees>
            </Position>
            <AltitudeMeters>1022</AltitudeMeters>
            <DistanceMeters>NAN</DistanceMeters>
          </Trackpoint>
          <Trackpoint>
            <Time>2020-03-07T16:07:52.000Z</Time>
            <Position>
              <LatitudeDegrees>40.7798346318304538726806640625</LatitudeDegrees>
              <LongitudeDegrees>-3.774927891790866851806640625</LongitudeDegrees>
            </Position>
            <AltitudeMeters>1021.79998779296875</AltitudeMeters>
            <DistanceMeters>NAN</DistanceMeters>
          </Trackpoint>
          <Trackpoint>
            <Time>2020-03-07T16:07:53.000Z</Time>
            <Position>
              <LatitudeDegrees>40.77975290827453136444091796875</LatitudeDegrees>
              <LongitudeDegrees>-3.7749557197093963623046875</LongitudeDegrees>
            </Position>
            <AltitudeMeters>1021.79998779296875</AltitudeMeters>
            <DistanceMeters>NAN</DistanceMeters>
          </Trackpoint>
          <Trackpoint>
            <Time>2020-03-07T16:07:54.000Z</Time>
            <Position>
              <LatitudeDegrees>40.7796715199947357177734375</LatitudeDegrees>
              <LongitudeDegrees>-3.774984888732433319091796875</LongitudeDegrees>
            </Position>
            <AltitudeMeters>1021.5999755859375</AltitudeMeters>
            <DistanceMeters>NAN</DistanceMeters>
          </Trackpoint>
          <Trackpoint>
            <Time>2020-03-07T16:07:55.000Z</Time>
            <Position>
              <LatitudeDegrees>40.7795912213623523712158203125</LatitudeDegrees>
              <LongitudeDegrees>-3.7750160694122314453125</LongitudeDegrees>
            </Position>
            <AltitudeMeters>1021.5999755859375</AltitudeMeters>
            <DistanceMeters>NAN</DistanceMeters>
          </Trackpoint>
          <Trackpoint>
            <Time>2020-03-07T16:07:56.000Z</Time>
            <Position>
              <LatitudeDegrees>40.77951117418706417083740234375</LatitudeDegrees>
              <LongitudeDegrees>-3.77504892647266387939453125</LongitudeDegrees>
            </Position>
            <AltitudeMeters>1021.5999755859375</AltitudeMeters>
            <DistanceMeters>NAN</DistanceMeters>
          </Trackpoint>
          <Trackpoint>
            <Time>2020-03-07T16:07:57.000Z</Time>
            <Position>
              <LatitudeDegrees>40.7794309593737125396728515625</LatitudeDegrees>
              <LongitudeDegrees>-3.77508102916181087493896484375</LongitudeDegrees>
            </Position>
            <AltitudeMeters>1021.5999755859375</AltitudeMeters>
            <DistanceMeters>NAN</DistanceMeters>
          </Trackpoint>
          <Trackpoint>
            <Time>2020-03-07T16:07:58.000Z</Time>
            <Position>
              <LatitudeDegrees>40.7793508283793926239013671875</LatitudeDegrees>
              <LongitudeDegrees>-3.775112964212894439697265625</LongitudeDegrees>
            </Position>
            <AltitudeMeters>1021.5999755859375</AltitudeMeters>
            <DistanceMeters>NAN</DistanceMeters>
          </Trackpoint>
          <Trackpoint>
            <Time>2020-03-07T16:07:59.000Z</Time>
            <Position>
              <LatitudeDegrees>40.77927061356604099273681640625</LatitudeDegrees>
              <LongitudeDegrees>-3.77514406107366085052490234375</LongitudeDegrees>
            </Position>
            <AltitudeMeters>1021.5999755859375</AltitudeMeters>
            <DistanceMeters>NAN</DistanceMeters>
          </Trackpoint>
          <Trackpoint>
            <Time>2020-03-07T16:08:00.000Z</Time>
            <Position>
              <LatitudeDegrees>40.77919065020978450775146484375</LatitudeDegrees>
              <LongitudeDegrees>-3.7751748226583003997802734375</LongitudeDegrees>
            </Position>
            <AltitudeMeters>1021.4000244140625</AltitudeMeters>
            <DistanceMeters>NAN</DistanceMeters>
          </Trackpoint>
          <Trackpoint>
            <Time>2020-03-07T16:08:01.000Z</Time>
            <Position>
              <LatitudeDegrees>40.77911219559609889984130859375</LatitudeDegrees>
              <LongitudeDegrees>-3.77521161921322345733642578125</LongitudeDegrees>
            </Position>
            <AltitudeMeters>1021.4000244140625</AltitudeMeters>
            <DistanceMeters>NAN</DistanceMeters>
          </Trackpoint>
          <Trackpoint>
            <Time>2020-03-07T16:08:02.000Z</Time>
            <Position>
              <LatitudeDegrees>40.7790376804769039154052734375</LatitudeDegrees>
              <LongitudeDegrees>-3.77525989897549152374267578125</LongitudeDegrees>
            </Position>
            <AltitudeMeters>1021.4000244140625</AltitudeMeters>
            <DistanceMeters>NAN</DistanceMeters>
          </Trackpoint>
          <Trackpoint>
            <Time>2020-03-07T16:08:03.000Z</Time>
            <Position>
              <LatitudeDegrees>40.77897213399410247802734375</LatitudeDegrees>
              <LongitudeDegrees>-3.7753256969153881072998046875</LongitudeDegrees>
            </Position>
            <AltitudeMeters>1021.4000244140625</AltitudeMeters>
            <DistanceMeters>NAN</DistanceMeters>
          </Trackpoint>
          <Trackpoint>
            <Time>2020-03-07T16:08:04.000Z</Time>
            <Position>
              <LatitudeDegrees>40.7789178192615509033203125</LatitudeDegrees>
              <LongitudeDegrees>-3.77540691755712032318115234375</LongitudeDegrees>
            </Position>
            <AltitudeMeters>1021.4000244140625</AltitudeMeters>
            <DistanceMeters>NAN</DistanceMeters>
          </Trackpoint>
          <Trackpoint>
            <Time>2020-03-07T16:08:05.000Z</Time>
            <Position>
              <LatitudeDegrees>40.77886560000479221343994140625</LatitudeDegrees>
              <LongitudeDegrees>-3.7754886411130428314208984375</LongitudeDegrees>
            </Position>
            <AltitudeMeters>1021.4000244140625</AltitudeMeters>
            <DistanceMeters>NAN</DistanceMeters>
          </Trackpoint>
          <Trackpoint>
            <Time>2020-03-07T16:08:06.000Z</Time>
            <Position>
              <LatitudeDegrees>40.77880407683551311492919921875</LatitudeDegrees>
              <LongitudeDegrees>-3.7755553610622882843017578125</LongitudeDegrees>
            </Position>
            <AltitudeMeters>1021.4000244140625</AltitudeMeters>
            <DistanceMeters>NAN</DistanceMeters>
          </Trackpoint>
          <Trackpoint>
            <Time>2020-03-07T16:08:07.000Z</Time>
            <Position>
              <LatitudeDegrees>40.77873073518276214599609375</LatitudeDegrees>
              <LongitudeDegrees>-3.7755942530930042266845703125</LongitudeDegrees>
            </Position>
            <AltitudeMeters>1021.20001220703125</AltitudeMeters>
            <DistanceMeters>NAN</DistanceMeters>
          </Trackpoint>
          <Trackpoint>
            <Time>2020-03-07T16:08:08.000Z</Time>
            <Position>
              <LatitudeDegrees>40.778651945292949676513671875</LatitudeDegrees>
              <LongitudeDegrees>-3.77560171298682689666748046875</LongitudeDegrees>
            </Position>
            <AltitudeMeters>1021.20001220703125</AltitudeMeters>
            <DistanceMeters>NAN</DistanceMeters>
          </Trackpoint>
          <Trackpoint>
            <Time>2020-03-07T16:08:09.000Z</Time>
            <Position>
              <LatitudeDegrees>40.77857189811766147613525390625</LatitudeDegrees>
              <LongitudeDegrees>-3.7755888886749744415283203125</LongitudeDegrees>
            </Position>
            <AltitudeMeters>1021.20001220703125</AltitudeMeters>
            <DistanceMeters>NAN</DistanceMeters>
          </Trackpoint>
          <Trackpoint>
            <Time>2020-03-07T16:08:10.000Z</Time>
            <Position>
              <LatitudeDegrees>40.77848975546658039093017578125</LatitudeDegrees>
              <LongitudeDegrees>-3.7755734659731388092041015625</LongitudeDegrees>
            </Position>
            <AltitudeMeters>1021</AltitudeMeters>
            <DistanceMeters>NAN</DistanceMeters>
          </Trackpoint>
          <Trackpoint>
            <Time>2020-03-07T16:08:11.000Z</Time>
            <Position>
              <LatitudeDegrees>40.77840509824454784393310546875</LatitudeDegrees>
              <LongitudeDegrees>-3.77557271160185337066650390625</LongitudeDegrees>
            </Position>
            <AltitudeMeters>1021</AltitudeMeters>
            <DistanceMeters>NAN</DistanceMeters>
          </Trackpoint>
          <Trackpoint>
            <Time>2020-03-07T16:08:12.000Z</Time>
            <Position>
              <LatitudeDegrees>40.7783205248415470123291015625</LatitudeDegrees>
              <LongitudeDegrees>-3.77559668384492397308349609375</LongitudeDegrees>
            </Position>
            <AltitudeMeters>1020.79998779296875</AltitudeMeters>
            <DistanceMeters>NAN</DistanceMeters>
          </Trackpoint>
          <Trackpoint>
            <Time>2020-03-07T16:08:13.000Z</Time>
            <Position>
              <LatitudeDegrees>40.77823846600949764251708984375</LatitudeDegrees>
              <LongitudeDegrees>-3.77563540823757648468017578125</LongitudeDegrees>
            </Position>
            <AltitudeMeters>1020.5999755859375</AltitudeMeters>
            <DistanceMeters>NAN</DistanceMeters>
          </Trackpoint>
          <Trackpoint>
            <Time>2020-03-07T16:08:14.000Z</Time>
            <Position>
              <LatitudeDegrees>40.77815364114940166473388671875</LatitudeDegrees>
              <LongitudeDegrees>-3.77567882649600505828857421875</LongitudeDegrees>
            </Position>
            <AltitudeMeters>1020.5999755859375</AltitudeMeters>
            <DistanceMeters>NAN</DistanceMeters>
          </Trackpoint>
          <Trackpoint>
            <Time>2020-03-07T16:08:15.000Z</Time>
            <Position>
              <LatitudeDegrees>40.77815364114940166473388671875</LatitudeDegrees>
              <LongitudeDegrees>-3.77567882649600505828857421875</LongitudeDegrees>
            </Position>
            <AltitudeMeters>1020.4000244140625</AltitudeMeters>
            <DistanceMeters>NAN</DistanceMeters>
          </Trackpoint>
          <Trackpoint>
            <Time>2020-03-07T16:08:16.000Z</Time>
            <Position>
              <LatitudeDegrees>40.77806596644222736358642578125</LatitudeDegrees>
              <LongitudeDegrees>-3.77572559751570224761962890625</LongitudeDegrees>
            </Position>
            <AltitudeMeters>1020.4000244140625</AltitudeMeters>
            <DistanceMeters>NAN</DistanceMeters>
          </Trackpoint>
          <Trackpoint>
            <Time>2020-03-07T16:08:17.000Z</Time>
            <Position>
              <LatitudeDegrees>40.7779761962592601776123046875</LatitudeDegrees>
              <LongitudeDegrees>-3.775776140391826629638671875</LongitudeDegrees>
            </Position>
            <AltitudeMeters>1020.20001220703125</AltitudeMeters>
            <DistanceMeters>NAN</DistanceMeters>
          </Trackpoint>
          <Trackpoint>
            <Time>2020-03-07T16:08:18.000Z</Time>
            <Position>
              <LatitudeDegrees>40.777884833514690399169921875</LatitudeDegrees>
              <LongitudeDegrees>-3.775831796228885650634765625</LongitudeDegrees>
            </Position>
            <AltitudeMeters>1020.20001220703125</AltitudeMeters>
            <DistanceMeters>NAN</DistanceMeters>
          </Trackpoint>
          <Trackpoint>
            <Time>2020-03-07T16:08:19.000Z</Time>
            <Position>
              <LatitudeDegrees>40.77769766561686992645263671875</LatitudeDegrees>
              <LongitudeDegrees>-3.77595375292003154754638671875</LongitudeDegrees>
            </Position>
            <AltitudeMeters>1020.20001220703125</AltitudeMeters>
            <DistanceMeters>NAN</DistanceMeters>
          </Trackpoint>
          <Trackpoint>
            <Time>2020-03-07T16:08:20.000Z</Time>
            <Position>
              <LatitudeDegrees>40.77769766561686992645263671875</LatitudeDegrees>
              <LongitudeDegrees>-3.77595375292003154754638671875</LongitudeDegrees>
            </Position>
            <AltitudeMeters>1019.79998779296875</AltitudeMeters>
            <DistanceMeters>NAN</DistanceMeters>
          </Trackpoint>
          <Trackpoint>
            <Time>2020-03-07T16:08:21.000Z</Time>
            <Position>
              <LatitudeDegrees>40.77750706113874912261962890625</LatitudeDegrees>
              <LongitudeDegrees>-3.77608702518045902252197265625</LongitudeDegrees>
            </Position>
            <AltitudeMeters>1019.4000244140625</AltitudeMeters>
            <DistanceMeters>NAN</DistanceMeters>
          </Trackpoint>
          <Trackpoint>
            <Time>2020-03-07T16:08:22.000Z</Time>
            <Position>
              <LatitudeDegrees>40.777410082519054412841796875</LatitudeDegrees>
              <LongitudeDegrees>-3.7761565111577510833740234375</LongitudeDegrees>
            </Position>
            <AltitudeMeters>1018.79998779296875</AltitudeMeters>
            <DistanceMeters>NAN</DistanceMeters>
          </Trackpoint>
          <Trackpoint>
            <Time>2020-03-07T16:08:23.000Z</Time>
            <Position>
              <LatitudeDegrees>40.7773120142519474029541015625</LatitudeDegrees>
              <LongitudeDegrees>-3.77622851170599460601806640625</LongitudeDegrees>
            </Position>
            <AltitudeMeters>1018</AltitudeMeters>
            <DistanceMeters>NAN</DistanceMeters>
          </Trackpoint>
          <Trackpoint>
            <Time>2020-03-07T16:08:24.000Z</Time>
            <Position>
              <LatitudeDegrees>40.77721436507999897003173828125</LatitudeDegrees>
              <LongitudeDegrees>-3.77630596049129962921142578125</LongitudeDegrees>
            </Position>
            <AltitudeMeters>1017.4000244140625</AltitudeMeters>
            <DistanceMeters>NAN</DistanceMeters>
          </Trackpoint>
          <Trackpoint>
            <Time>2020-03-07T16:08:25.000Z</Time>
            <Position>
              <LatitudeDegrees>40.7771175540983676910400390625</LatitudeDegrees>
              <LongitudeDegrees>-3.77638894133269786834716796875</LongitudeDegrees>
            </Position>
            <AltitudeMeters>1016.79998779296875</AltitudeMeters>
            <DistanceMeters>NAN</DistanceMeters>
          </Trackpoint>
          <Trackpoint>
            <Time>2020-03-07T16:08:26.000Z</Time>
            <Position>
              <LatitudeDegrees>40.7771175540983676910400390625</LatitudeDegrees>
              <LongitudeDegrees>-3.77638894133269786834716796875</LongitudeDegrees>
            </Position>
            <AltitudeMeters>1016.20001220703125</AltitudeMeters>
            <DistanceMeters>NAN</DistanceMeters>
          </Trackpoint>
          <Trackpoint>
            <Time>2020-03-07T16:08:27.000Z</Time>
            <Position>
              <LatitudeDegrees>40.776923261582851409912109375</LatitudeDegrees>
              <LongitudeDegrees>-3.7765642069280147552490234375</LongitudeDegrees>
            </Position>
            <AltitudeMeters>1015.4000244140625</AltitudeMeters>
            <DistanceMeters>NAN</DistanceMeters>
          </Trackpoint>
          <Trackpoint>
            <Time>2020-03-07T16:08:28.000Z</Time>
            <Position>
              <LatitudeDegrees>40.77682460658252239227294921875</LatitudeDegrees>
              <LongitudeDegrees>-3.77665380947291851043701171875</LongitudeDegrees>
            </Position>
            <AltitudeMeters>1014.5999755859375</AltitudeMeters>
            <DistanceMeters>NAN</DistanceMeters>
          </Trackpoint>
          <Trackpoint>
            <Time>2020-03-07T16:08:29.000Z</Time>
            <Position>
              <LatitudeDegrees>40.77672536484897136688232421875</LatitudeDegrees>
              <LongitudeDegrees>-3.7767447531223297119140625</LongitudeDegrees>
            </Position>
            <AltitudeMeters>1013.79998779296875</AltitudeMeters>
            <DistanceMeters>NAN</DistanceMeters>
          </Trackpoint>
          <Trackpoint>
            <Time>2020-03-07T16:08:30.000Z</Time>
            <Position>
              <LatitudeDegrees>40.77662520110607147216796875</LatitudeDegrees>
              <LongitudeDegrees>-3.7768381275236606597900390625</LongitudeDegrees>
            </Position>
            <AltitudeMeters>1013</AltitudeMeters>
            <DistanceMeters>NAN</DistanceMeters>
          </Trackpoint>
          <Trackpoint>
            <Time>2020-03-07T16:08:31.000Z</Time>
            <Position>
              <LatitudeDegrees>40.77652453444898128509521484375</LatitudeDegrees>
              <LongitudeDegrees>-3.7769320048391819000244140625</LongitudeDegrees>
            </Position>
            <AltitudeMeters>1012</AltitudeMeters>
            <DistanceMeters>NAN</DistanceMeters>
          </Trackpoint>
          <Trackpoint>
            <Time>2020-03-07T16:08:32.000Z</Time>
            <Position>
              <LatitudeDegrees>40.77652453444898128509521484375</LatitudeDegrees>
              <LongitudeDegrees>-3.7769320048391819000244140625</LongitudeDegrees>
            </Position>
            <AltitudeMeters>1011.20001220703125</AltitudeMeters>
            <DistanceMeters>NAN</DistanceMeters>
          </Trackpoint>
          <Trackpoint>
            <Time>2020-03-07T16:08:33.000Z</Time>
            <Position>
              <LatitudeDegrees>40.77632118947803974151611328125</LatitudeDegrees>
              <LongitudeDegrees>-3.77711917273700237274169921875</LongitudeDegrees>
            </Position>
            <AltitudeMeters>1010.20001220703125</AltitudeMeters>
            <DistanceMeters>NAN</DistanceMeters>
          </Trackpoint>
          <Trackpoint>
            <Time>2020-03-07T16:08:34.000Z</Time>
            <Position>
              <LatitudeDegrees>40.77621893025934696197509765625</LatitudeDegrees>
              <LongitudeDegrees>-3.777211792767047882080078125</LongitudeDegrees>
            </Position>
            <AltitudeMeters>1009.20001220703125</AltitudeMeters>
            <DistanceMeters>NAN</DistanceMeters>
          </Trackpoint>
          <Trackpoint>
            <Time>2020-03-07T16:08:35.000Z</Time>
            <Position>
              <LatitudeDegrees>40.7761167548596858978271484375</LatitudeDegrees>
              <LongitudeDegrees>-3.7773061729967594146728515625</LongitudeDegrees>
            </Position>
            <AltitudeMeters>1008.4000244140625</AltitudeMeters>
            <DistanceMeters>NAN</DistanceMeters>
          </Trackpoint>
          <Trackpoint>
            <Time>2020-03-07T16:08:36.000Z</Time>
            <Position>
              <LatitudeDegrees>40.77601365745067596435546875</LatitudeDegrees>
              <LongitudeDegrees>-3.77740130759775638580322265625</LongitudeDegrees>
            </Position>
            <AltitudeMeters>1007.5999755859375</AltitudeMeters>
            <DistanceMeters>NAN</DistanceMeters>
          </Trackpoint>
          <Trackpoint>
            <Time>2020-03-07T16:08:37.000Z</Time>
            <Position>
              <LatitudeDegrees>40.7759105600416660308837890625</LatitudeDegrees>
              <LongitudeDegrees>-3.77749736420810222625732421875</LongitudeDegrees>
            </Position>
            <AltitudeMeters>1006.79998779296875</AltitudeMeters>
            <DistanceMeters>NAN</DistanceMeters>
          </Trackpoint>
          <Trackpoint>
            <Time>2020-03-07T16:08:38.000Z</Time>
            <Position>
              <LatitudeDegrees>40.775806792080402374267578125</LatitudeDegrees>
              <LongitudeDegrees>-3.7775938399136066436767578125</LongitudeDegrees>
            </Position>
            <AltitudeMeters>1006</AltitudeMeters>
            <DistanceMeters>NAN</DistanceMeters>
          </Trackpoint>
          <Trackpoint>
            <Time>2020-03-07T16:08:39.000Z</Time>
            <Position>
              <LatitudeDegrees>40.77570243738591670989990234375</LatitudeDegrees>
              <LongitudeDegrees>-3.7776897288858890533447265625</LongitudeDegrees>
            </Position>
            <AltitudeMeters>1005.20001220703125</AltitudeMeters>
            <DistanceMeters>NAN</DistanceMeters>
          </Trackpoint>
          <Trackpoint>
            <Time>2020-03-07T16:08:40.000Z</Time>
            <Position>
              <LatitudeDegrees>40.77559816651046276092529296875</LatitudeDegrees>
              <LongitudeDegrees>-3.777785785496234893798828125</LongitudeDegrees>
            </Position>
            <AltitudeMeters>1004.20001220703125</AltitudeMeters>
            <DistanceMeters>NAN</DistanceMeters>
          </Trackpoint>
          <Trackpoint>
            <Time>2020-03-07T16:08:41.000Z</Time>
            <Position>
              <LatitudeDegrees>40.77549456618726253509521484375</LatitudeDegrees>
              <LongitudeDegrees>-3.77788309939205646514892578125</LongitudeDegrees>
            </Position>
            <AltitudeMeters>1003.20001220703125</AltitudeMeters>
            <DistanceMeters>NAN</DistanceMeters>
          </Trackpoint>
          <Trackpoint>
            <Time>2020-03-07T16:08:42.000Z</Time>
            <Position>
              <LatitudeDegrees>40.77539113350212574005126953125</LatitudeDegrees>
              <LongitudeDegrees>-3.7779807485640048980712890625</LongitudeDegrees>
            </Position>
            <AltitudeMeters>1001</AltitudeMeters>
            <DistanceMeters>NAN</DistanceMeters>
          </Trackpoint>
          <Trackpoint>
            <Time>2020-03-07T16:08:43.000Z</Time>
            <Position>
              <LatitudeDegrees>40.7752862758934497833251953125</LatitudeDegrees>
              <LongitudeDegrees>-3.7780776433646678924560546875</LongitudeDegrees>
            </Position>
            <AltitudeMeters>1000.20001220703125</AltitudeMeters>
            <DistanceMeters>NAN</DistanceMeters>
          </Trackpoint>
          <Trackpoint>
            <Time>2020-03-07T16:08:44.000Z</Time>
            <Position>
              <LatitudeDegrees>40.77518158592283725738525390625</LatitudeDegrees>
              <LongitudeDegrees>-3.7781743705272674560546875</LongitudeDegrees>
            </Position>
            <AltitudeMeters>999</AltitudeMeters>
            <DistanceMeters>NAN</DistanceMeters>
          </Trackpoint>
          <Trackpoint>
            <Time>2020-03-07T16:08:45.000Z</Time>
            <Position>
              <LatitudeDegrees>40.77507622539997100830078125</LatitudeDegrees>
              <LongitudeDegrees>-3.77827151678502559661865234375</LongitudeDegrees>
            </Position>
            <AltitudeMeters>997.79998779296875</AltitudeMeters>
            <DistanceMeters>NAN</DistanceMeters>
          </Trackpoint>
          <Trackpoint>
            <Time>2020-03-07T16:08:46.000Z</Time>
            <Position>
              <LatitudeDegrees>40.77497036196291446685791015625</LatitudeDegrees>
              <LongitudeDegrees>-3.77836908213794231414794921875</LongitudeDegrees>
            </Position>
            <AltitudeMeters>996.5999755859375</AltitudeMeters>
            <DistanceMeters>NAN</DistanceMeters>
          </Trackpoint>
          <Trackpoint>
            <Time>2020-03-07T16:08:47.000Z</Time>
            <Position>
              <LatitudeDegrees>40.774863660335540771484375</LatitudeDegrees>
              <LongitudeDegrees>-3.77846882678568363189697265625</LongitudeDegrees>
            </Position>
            <AltitudeMeters>995.5999755859375</AltitudeMeters>
            <DistanceMeters>NAN</DistanceMeters>
          </Trackpoint>
          <Trackpoint>
            <Time>2020-03-07T16:08:48.000Z</Time>
            <Position>
              <LatitudeDegrees>40.77475595287978649139404296875</LatitudeDegrees>
              <LongitudeDegrees>-3.77857024781405925750732421875</LongitudeDegrees>
            </Position>
            <AltitudeMeters>994.20001220703125</AltitudeMeters>
            <DistanceMeters>NAN</DistanceMeters>
          </Trackpoint>
          <Trackpoint>
            <Time>2020-03-07T16:08:49.000Z</Time>
            <Position>
              <LatitudeDegrees>40.7746465690433979034423828125</LatitudeDegrees>
              <LongitudeDegrees>-3.7786730937659740447998046875</LongitudeDegrees>
            </Position>
            <AltitudeMeters>993.4000244140625</AltitudeMeters>
            <DistanceMeters>NAN</DistanceMeters>
          </Trackpoint>
          <Trackpoint>
            <Time>2020-03-07T16:08:50.000Z</Time>
            <Position>
              <LatitudeDegrees>40.7745352573692798614501953125</LatitudeDegrees>
              <LongitudeDegrees>-3.7787753529846668243408203125</LongitudeDegrees>
            </Position>
            <AltitudeMeters>992.4000244140625</AltitudeMeters>
            <DistanceMeters>NAN</DistanceMeters>
          </Trackpoint>
          <Trackpoint>
            <Time>2020-03-07T16:08:51.000Z</Time>
            <Position>
              <LatitudeDegrees>40.77442151494324207305908203125</LatitudeDegrees>
              <LongitudeDegrees>-3.77887501381337642669677734375</LongitudeDegrees>
            </Position>
            <AltitudeMeters>991.4000244140625</AltitudeMeters>
            <DistanceMeters>NAN</DistanceMeters>
          </Trackpoint>
          <Trackpoint>
            <Time>2020-03-07T16:08:52.000Z</Time>
            <Position>
              <LatitudeDegrees>40.77430400066077709197998046875</LatitudeDegrees>
              <LongitudeDegrees>-3.7789688073098659515380859375</LongitudeDegrees>
            </Position>
            <AltitudeMeters>990.4000244140625</AltitudeMeters>
            <DistanceMeters>NAN</DistanceMeters>
          </Trackpoint>
          <Trackpoint>
            <Time>2020-03-07T16:08:53.000Z</Time>
            <Position>
              <LatitudeDegrees>40.774179361760616302490234375</LatitudeDegrees>
              <LongitudeDegrees>-3.77904818393290042877197265625</LongitudeDegrees>
            </Position>
            <AltitudeMeters>989.4000244140625</AltitudeMeters>
            <DistanceMeters>NAN</DistanceMeters>
          </Trackpoint>
          <Trackpoint>
            <Time>2020-03-07T16:08:54.000Z</Time>
            <Position>
              <LatitudeDegrees>40.77404634095728397369384765625</LatitudeDegrees>
              <LongitudeDegrees>-3.77910048700869083404541015625</LongitudeDegrees>
            </Position>
            <AltitudeMeters>988.4000244140625</AltitudeMeters>
            <DistanceMeters>NAN</DistanceMeters>
          </Trackpoint>
          <Trackpoint>
            <Time>2020-03-07T16:08:55.000Z</Time>
            <Position>
              <LatitudeDegrees>40.77390938065946102142333984375</LatitudeDegrees>
              <LongitudeDegrees>-3.7791233696043491363525390625</LongitudeDegrees>
            </Position>
            <AltitudeMeters>987.4000244140625</AltitudeMeters>
            <DistanceMeters>NAN</DistanceMeters>
          </Trackpoint>
          <Trackpoint>
            <Time>2020-03-07T16:08:56.000Z</Time>
            <Position>
              <LatitudeDegrees>40.77390938065946102142333984375</LatitudeDegrees>
              <LongitudeDegrees>-3.7791233696043491363525390625</LongitudeDegrees>
            </Position>
            <AltitudeMeters>986.20001220703125</AltitudeMeters>
            <DistanceMeters>NAN</DistanceMeters>
          </Trackpoint>
          <Trackpoint>
            <Time>2020-03-07T16:08:57.000Z</Time>
            <Position>
              <LatitudeDegrees>40.7736353762447834014892578125</LatitudeDegrees>
              <LongitudeDegrees>-3.7791220284998416900634765625</LongitudeDegrees>
            </Position>
            <AltitudeMeters>985.20001220703125</AltitudeMeters>
            <DistanceMeters>NAN</DistanceMeters>
          </Trackpoint>
          <Trackpoint>
            <Time>2020-03-07T16:08:58.000Z</Time>
            <Position>
              <LatitudeDegrees>40.7734985835850238800048828125</LatitudeDegrees>
              <LongitudeDegrees>-3.77911004237830638885498046875</LongitudeDegrees>
            </Position>
            <AltitudeMeters>984</AltitudeMeters>
            <DistanceMeters>NAN</DistanceMeters>
          </Trackpoint>
          <Trackpoint>
            <Time>2020-03-07T16:08:59.000Z</Time>
            <Position>
              <LatitudeDegrees>40.7733621262013912200927734375</LatitudeDegrees>
              <LongitudeDegrees>-3.779096044600009918212890625</LongitudeDegrees>
            </Position>
            <AltitudeMeters>982.79998779296875</AltitudeMeters>
            <DistanceMeters>NAN</DistanceMeters>
          </Trackpoint>
          <Trackpoint>
            <Time>2020-03-07T16:09:00.000Z</Time>
            <Position>
              <LatitudeDegrees>40.773225165903568267822265625</LatitudeDegrees>
              <LongitudeDegrees>-3.77908472903072834014892578125</LongitudeDegrees>
            </Position>
            <AltitudeMeters>981.79998779296875</AltitudeMeters>
            <DistanceMeters>NAN</DistanceMeters>
          </Trackpoint>
          <Trackpoint>
            <Time>2020-03-07T16:09:01.000Z</Time>
            <Position>
              <LatitudeDegrees>40.7730878703296184539794921875</LatitudeDegrees>
              <LongitudeDegrees>-3.77907735295593738555908203125</LongitudeDegrees>
            </Position>
            <AltitudeMeters>980.4000244140625</AltitudeMeters>
            <DistanceMeters>NAN</DistanceMeters>
          </Trackpoint>
          <Trackpoint>
            <Time>2020-03-07T16:09:02.000Z</Time>
            <Position>
              <LatitudeDegrees>40.77295065857470035552978515625</LatitudeDegrees>
              <LongitudeDegrees>-3.779070563614368438720703125</LongitudeDegrees>
            </Position>
            <AltitudeMeters>979.20001220703125</AltitudeMeters>
            <DistanceMeters>NAN</DistanceMeters>
          </Trackpoint>
          <Trackpoint>
            <Time>2020-03-07T16:09:03.000Z</Time>
            <Position>
              <LatitudeDegrees>40.77281353063881397247314453125</LatitudeDegrees>
              <LongitudeDegrees>-3.779062516987323760986328125</LongitudeDegrees>
            </Position>
            <AltitudeMeters>978.4000244140625</AltitudeMeters>
            <DistanceMeters>NAN</DistanceMeters>
          </Trackpoint>
          <Trackpoint>
            <Time>2020-03-07T16:09:04.000Z</Time>
            <Position>
              <LatitudeDegrees>40.772675313055515289306640625</LatitudeDegrees>
              <LongitudeDegrees>-3.77905790694057941436767578125</LongitudeDegrees>
            </Position>
            <AltitudeMeters>978</AltitudeMeters>
            <DistanceMeters>NAN</DistanceMeters>
          </Trackpoint>
          <Trackpoint>
            <Time>2020-03-07T16:09:05.000Z</Time>
            <Position>
              <LatitudeDegrees>40.77253709547221660614013671875</LatitudeDegrees>
              <LongitudeDegrees>-3.77906695939600467681884765625</LongitudeDegrees>
            </Position>
            <AltitudeMeters>977.5999755859375</AltitudeMeters>
            <DistanceMeters>NAN</DistanceMeters>
          </Trackpoint>
          <Trackpoint>
            <Time>2020-03-07T16:09:06.000Z</Time>
            <Position>
              <LatitudeDegrees>40.77240114100277423858642578125</LatitudeDegrees>
              <LongitudeDegrees>-3.77909772098064422607421875</LongitudeDegrees>
            </Position>
            <AltitudeMeters>977.4000244140625</AltitudeMeters>
            <DistanceMeters>NAN</DistanceMeters>
          </Trackpoint>
          <Trackpoint>
            <Time>2020-03-07T16:09:07.000Z</Time>
            <Position>
              <LatitudeDegrees>40.77226803638041019439697265625</LatitudeDegrees>
              <LongitudeDegrees>-3.77914826385676860809326171875</LongitudeDegrees>
            </Position>
            <AltitudeMeters>976.5999755859375</AltitudeMeters>
            <DistanceMeters>NAN</DistanceMeters>
          </Trackpoint>
          <Trackpoint>
            <Time>2020-03-07T16:09:08.000Z</Time>
            <Position>
              <LatitudeDegrees>40.7721363566815853118896484375</LatitudeDegrees>
              <LongitudeDegrees>-3.77920341677963733673095703125</LongitudeDegrees>
            </Position>
            <AltitudeMeters>975.79998779296875</AltitudeMeters>
            <DistanceMeters>NAN</DistanceMeters>
          </Trackpoint>
          <Trackpoint>
            <Time>2020-03-07T16:09:09.000Z</Time>
            <Position>
              <LatitudeDegrees>40.7720045931637287139892578125</LatitudeDegrees>
              <LongitudeDegrees>-3.77925856970250606536865234375</LongitudeDegrees>
            </Position>
            <AltitudeMeters>974.5999755859375</AltitudeMeters>
            <DistanceMeters>NAN</DistanceMeters>
          </Trackpoint>
          <Trackpoint>
            <Time>2020-03-07T16:09:10.000Z</Time>
            <Position>
              <LatitudeDegrees>40.7718731649219989776611328125</LatitudeDegrees>
              <LongitudeDegrees>-3.7793144769966602325439453125</LongitudeDegrees>
            </Position>
            <AltitudeMeters>972.20001220703125</AltitudeMeters>
            <DistanceMeters>NAN</DistanceMeters>
          </Trackpoint>
          <Trackpoint>
            <Time>2020-03-07T16:09:11.000Z</Time>
            <Position>
              <LatitudeDegrees>40.77174165286123752593994140625</LatitudeDegrees>
              <LongitudeDegrees>-3.77936954610049724578857421875</LongitudeDegrees>
            </Position>
            <AltitudeMeters>971.20001220703125</AltitudeMeters>
            <DistanceMeters>NAN</DistanceMeters>
          </Trackpoint>
          <Trackpoint>
            <Time>2020-03-07T16:09:12.000Z</Time>
            <Position>
              <LatitudeDegrees>40.7716106437146663665771484375</LatitudeDegrees>
              <LongitudeDegrees>-3.77942495048046112060546875</LongitudeDegrees>
            </Position>
            <AltitudeMeters>970.20001220703125</AltitudeMeters>
            <DistanceMeters>NAN</DistanceMeters>
          </Trackpoint>
          <Trackpoint>
            <Time>2020-03-07T16:09:13.000Z</Time>
            <Position>
              <LatitudeDegrees>40.77148080803453922271728515625</LatitudeDegrees>
              <LongitudeDegrees>-3.77948102541267871856689453125</LongitudeDegrees>
            </Position>
            <AltitudeMeters>969.4000244140625</AltitudeMeters>
            <DistanceMeters>NAN</DistanceMeters>
          </Trackpoint>
          <Trackpoint>
            <Time>2020-03-07T16:09:14.000Z</Time>
            <Position>
              <LatitudeDegrees>40.7713531516492366790771484375</LatitudeDegrees>
              <LongitudeDegrees>-3.77953601069748401641845703125</LongitudeDegrees>
            </Position>
            <AltitudeMeters>968.20001220703125</AltitudeMeters>
            <DistanceMeters>NAN</DistanceMeters>
          </Trackpoint>
          <Trackpoint>
            <Time>2020-03-07T16:09:15.000Z</Time>
            <Position>
              <LatitudeDegrees>40.7712279260158538818359375</LatitudeDegrees>
              <LongitudeDegrees>-3.77958948723971843719482421875</LongitudeDegrees>
            </Position>
            <AltitudeMeters>967.4000244140625</AltitudeMeters>
            <DistanceMeters>NAN</DistanceMeters>
          </Trackpoint>
          <Trackpoint>
            <Time>2020-03-07T16:09:16.000Z</Time>
            <Position>
              <LatitudeDegrees>40.7711053825914859771728515625</LatitudeDegrees>
              <LongitudeDegrees>-3.77964229322969913482666015625</LongitudeDegrees>
            </Position>
            <AltitudeMeters>966.5999755859375</AltitudeMeters>
            <DistanceMeters>NAN</DistanceMeters>
          </Trackpoint>
          <Trackpoint>
            <Time>2020-03-07T16:09:17.000Z</Time>
            <Position>
              <LatitudeDegrees>40.77098526991903781890869140625</LatitudeDegrees>
              <LongitudeDegrees>-3.77969560213387012481689453125</LongitudeDegrees>
            </Position>
            <AltitudeMeters>965.79998779296875</AltitudeMeters>
            <DistanceMeters>NAN</DistanceMeters>
          </Trackpoint>
          <Trackpoint>
            <Time>2020-03-07T16:09:18.000Z</Time>
            <Position>
              <LatitudeDegrees>40.77086658217012882232666015625</LatitudeDegrees>
              <LongitudeDegrees>-3.779747150838375091552734375</LongitudeDegrees>
            </Position>
            <AltitudeMeters>965</AltitudeMeters>
            <DistanceMeters>NAN</DistanceMeters>
          </Trackpoint>
          <Trackpoint>
            <Time>2020-03-07T16:09:19.000Z</Time>
            <Position>
              <LatitudeDegrees>40.77074890024960041046142578125</LatitudeDegrees>
              <LongitudeDegrees>-3.779795430600643157958984375</LongitudeDegrees>
            </Position>
            <AltitudeMeters>964.5999755859375</AltitudeMeters>
            <DistanceMeters>NAN</DistanceMeters>
          </Trackpoint>
          <Trackpoint>
            <Time>2020-03-07T16:09:20.000Z</Time>
            <Position>
              <LatitudeDegrees>40.77063423581421375274658203125</LatitudeDegrees>
              <LongitudeDegrees>-3.77984195016324520111083984375</LongitudeDegrees>
            </Position>
            <AltitudeMeters>964.4000244140625</AltitudeMeters>
            <DistanceMeters>NAN</DistanceMeters>
          </Trackpoint>
          <Trackpoint>
            <Time>2020-03-07T16:09:21.000Z</Time>
            <Position>
              <LatitudeDegrees>40.7705236785113811492919921875</LatitudeDegrees>
              <LongitudeDegrees>-3.77988821826875209808349609375</LongitudeDegrees>
            </Position>
            <AltitudeMeters>964</AltitudeMeters>
            <DistanceMeters>NAN</DistanceMeters>
          </Trackpoint>
          <Trackpoint>
            <Time>2020-03-07T16:09:22.000Z</Time>
            <Position>
              <LatitudeDegrees>40.77041722834110260009765625</LatitudeDegrees>
              <LongitudeDegrees>-3.7799367494881153106689453125</LongitudeDegrees>
            </Position>
            <AltitudeMeters>963.4000244140625</AltitudeMeters>
            <DistanceMeters>NAN</DistanceMeters>
          </Trackpoint>
          <Trackpoint>
            <Time>2020-03-07T16:09:23.000Z</Time>
            <Position>
              <LatitudeDegrees>40.770317651331424713134765625</LatitudeDegrees>
              <LongitudeDegrees>-3.77999315969645977020263671875</LongitudeDegrees>
            </Position>
            <AltitudeMeters>962.5999755859375</AltitudeMeters>
            <DistanceMeters>NAN</DistanceMeters>
          </Trackpoint>
          <Trackpoint>
            <Time>2020-03-07T16:09:24.000Z</Time>
            <Position>
              <LatitudeDegrees>40.77022704295814037322998046875</LatitudeDegrees>
              <LongitudeDegrees>-3.7800705246627330780029296875</LongitudeDegrees>
            </Position>
            <AltitudeMeters>962</AltitudeMeters>
            <DistanceMeters>NAN</DistanceMeters>
          </Trackpoint>
          <Trackpoint>
            <Time>2020-03-07T16:09:25.000Z</Time>
            <Position>
              <LatitudeDegrees>40.77015143819153308868408203125</LatitudeDegrees>
              <LongitudeDegrees>-3.7801690958440303802490234375</LongitudeDegrees>
            </Position>
            <AltitudeMeters>961.20001220703125</AltitudeMeters>
            <DistanceMeters>NAN</DistanceMeters>
          </Trackpoint>
          <Trackpoint>
            <Time>2020-03-07T16:09:26.000Z</Time>
            <Position>
              <LatitudeDegrees>40.7700807787477970123291015625</LatitudeDegrees>
              <LongitudeDegrees>-3.7802646495401859283447265625</LongitudeDegrees>
            </Position>
            <AltitudeMeters>960.79998779296875</AltitudeMeters>
            <DistanceMeters>NAN</DistanceMeters>
          </Trackpoint>
          <Trackpoint>
            <Time>2020-03-07T16:09:27.000Z</Time>
            <Position>
              <LatitudeDegrees>40.7699912600219249725341796875</LatitudeDegrees>
              <LongitudeDegrees>-3.78033212386071681976318359375</LongitudeDegrees>
            </Position>
            <AltitudeMeters>960.4000244140625</AltitudeMeters>
            <DistanceMeters>NAN</DistanceMeters>
          </Trackpoint>
          <Trackpoint>
            <Time>2020-03-07T16:09:28.000Z</Time>
            <Position>
              <LatitudeDegrees>40.76988883316516876220703125</LatitudeDegrees>
              <LongitudeDegrees>-3.7803628854453563690185546875</LongitudeDegrees>
            </Position>
            <AltitudeMeters>960</AltitudeMeters>
            <DistanceMeters>NAN</DistanceMeters>
          </Trackpoint>
          <Trackpoint>
            <Time>2020-03-07T16:09:29.000Z</Time>
            <Position>
              <LatitudeDegrees>40.76978347264230251312255859375</LatitudeDegrees>
              <LongitudeDegrees>-3.7803561799228191375732421875</LongitudeDegrees>
            </Position>
            <AltitudeMeters>959.4000244140625</AltitudeMeters>
            <DistanceMeters>NAN</DistanceMeters>
          </Trackpoint>
          <Trackpoint>
            <Time>2020-03-07T16:09:30.000Z</Time>
            <Position>
              <LatitudeDegrees>40.769678615033626556396484375</LatitudeDegrees>
              <LongitudeDegrees>-3.780335895717144012451171875</LongitudeDegrees>
            </Position>
            <AltitudeMeters>959</AltitudeMeters>
            <DistanceMeters>NAN</DistanceMeters>
          </Trackpoint>
          <Trackpoint>
            <Time>2020-03-07T16:09:31.000Z</Time>
            <Position>
              <LatitudeDegrees>40.7695725001394748687744140625</LatitudeDegrees>
              <LongitudeDegrees>-3.78033262677490711212158203125</LongitudeDegrees>
            </Position>
            <AltitudeMeters>958.79998779296875</AltitudeMeters>
            <DistanceMeters>NAN</DistanceMeters>
          </Trackpoint>
          <Trackpoint>
            <Time>2020-03-07T16:09:32.000Z</Time>
            <Position>
              <LatitudeDegrees>40.7694662176072597503662109375</LatitudeDegrees>
              <LongitudeDegrees>-3.7803538329899311065673828125</LongitudeDegrees>
            </Position>
            <AltitudeMeters>958.5999755859375</AltitudeMeters>
            <DistanceMeters>NAN</DistanceMeters>
          </Trackpoint>
          <Trackpoint>
            <Time>2020-03-07T16:09:33.000Z</Time>
            <Position>
              <LatitudeDegrees>40.7693609409034252166748046875</LatitudeDegrees>
              <LongitudeDegrees>-3.78039188683032989501953125</LongitudeDegrees>
            </Position>
            <AltitudeMeters>958.20001220703125</AltitudeMeters>
            <DistanceMeters>NAN</DistanceMeters>
          </Trackpoint>
          <Trackpoint>
            <Time>2020-03-07T16:09:34.000Z</Time>
            <Position>
              <LatitudeDegrees>40.76925558038055896759033203125</LatitudeDegrees>
              <LongitudeDegrees>-3.7804363109171390533447265625</LongitudeDegrees>
            </Position>
            <AltitudeMeters>957.5999755859375</AltitudeMeters>
            <DistanceMeters>NAN</DistanceMeters>
          </Trackpoint>
          <Trackpoint>
            <Time>2020-03-07T16:09:35.000Z</Time>
            <Position>
              <LatitudeDegrees>40.76914988458156585693359375</LatitudeDegrees>
              <LongitudeDegrees>-3.7804819084703922271728515625</LongitudeDegrees>
            </Position>
            <AltitudeMeters>957</AltitudeMeters>
            <DistanceMeters>NAN</DistanceMeters>
          </Trackpoint>
          <Trackpoint>
            <Time>2020-03-07T16:09:36.000Z</Time>
            <Position>
              <LatitudeDegrees>40.7690441049635410308837890625</LatitudeDegrees>
              <LongitudeDegrees>-3.78052909858524799346923828125</LongitudeDegrees>
            </Position>
            <AltitudeMeters>956.5999755859375</AltitudeMeters>
            <DistanceMeters>NAN</DistanceMeters>
          </Trackpoint>
          <Trackpoint>
            <Time>2020-03-07T16:09:37.000Z</Time>
            <Position>
              <LatitudeDegrees>40.76893866062164306640625</LatitudeDegrees>
              <LongitudeDegrees>-3.78057704307138919830322265625</LongitudeDegrees>
            </Position>
            <AltitudeMeters>956</AltitudeMeters>
            <DistanceMeters>NAN</DistanceMeters>
          </Trackpoint>
          <Trackpoint>
            <Time>2020-03-07T16:09:38.000Z</Time>
            <Position>
              <LatitudeDegrees>40.76883262954652309417724609375</LatitudeDegrees>
              <LongitudeDegrees>-3.78062515519559383392333984375</LongitudeDegrees>
            </Position>
            <AltitudeMeters>955.5999755859375</AltitudeMeters>
            <DistanceMeters>NAN</DistanceMeters>
          </Trackpoint>
          <Trackpoint>
            <Time>2020-03-07T16:09:39.000Z</Time>
            <Position>
              <LatitudeDegrees>40.7687259279191493988037109375</LatitudeDegrees>
              <LongitudeDegrees>-3.7806720100343227386474609375</LongitudeDegrees>
            </Position>
            <AltitudeMeters>955</AltitudeMeters>
            <DistanceMeters>NAN</DistanceMeters>
          </Trackpoint>
          <Trackpoint>
            <Time>2020-03-07T16:09:40.000Z</Time>
            <Position>
              <LatitudeDegrees>40.76861889101564884185791015625</LatitudeDegrees>
              <LongitudeDegrees>-3.78071702085435390472412109375</LongitudeDegrees>
            </Position>
            <AltitudeMeters>954.4000244140625</AltitudeMeters>
            <DistanceMeters>NAN</DistanceMeters>
          </Trackpoint>
          <Trackpoint>
            <Time>2020-03-07T16:09:41.000Z</Time>
            <Position>
              <LatitudeDegrees>40.7685116864740848541259765625</LatitudeDegrees>
              <LongitudeDegrees>-3.78076161257922649383544921875</LongitudeDegrees>
            </Position>
            <AltitudeMeters>953.4000244140625</AltitudeMeters>
            <DistanceMeters>NAN</DistanceMeters>
          </Trackpoint>
          <Trackpoint>
            <Time>2020-03-07T16:09:42.000Z</Time>
            <Position>
              <LatitudeDegrees>40.768404565751552581787109375</LatitudeDegrees>
              <LongitudeDegrees>-3.78080653958022594451904296875</LongitudeDegrees>
            </Position>
            <AltitudeMeters>952.4000244140625</AltitudeMeters>
            <DistanceMeters>NAN</DistanceMeters>
          </Trackpoint>
          <Trackpoint>
            <Time>2020-03-07T16:09:43.000Z</Time>
            <Position>
              <LatitudeDegrees>40.768297947943210601806640625</LatitudeDegrees>
              <LongitudeDegrees>-3.78085398115217685699462890625</LongitudeDegrees>
            </Position>
            <AltitudeMeters>951.20001220703125</AltitudeMeters>
            <DistanceMeters>NAN</DistanceMeters>
          </Trackpoint>
          <Trackpoint>
            <Time>2020-03-07T16:09:44.000Z</Time>
            <Position>
              <LatitudeDegrees>40.768192671239376068115234375</LatitudeDegrees>
              <LongitudeDegrees>-3.780901841819286346435546875</LongitudeDegrees>
            </Position>
            <AltitudeMeters>950.20001220703125</AltitudeMeters>
            <DistanceMeters>NAN</DistanceMeters>
          </Trackpoint>
          <Trackpoint>
            <Time>2020-03-07T16:09:45.000Z</Time>
            <Position>
              <LatitudeDegrees>40.768088735640048980712890625</LatitudeDegrees>
              <LongitudeDegrees>-3.78094936721026897430419921875</LongitudeDegrees>
            </Position>
            <AltitudeMeters>949.5999755859375</AltitudeMeters>
            <DistanceMeters>NAN</DistanceMeters>
          </Trackpoint>
          <Trackpoint>
            <Time>2020-03-07T16:09:46.000Z</Time>
            <Position>
              <LatitudeDegrees>40.7679876498878002166748046875</LatitudeDegrees>
              <LongitudeDegrees>-3.78099680878221988677978515625</LongitudeDegrees>
            </Position>
            <AltitudeMeters>949</AltitudeMeters>
            <DistanceMeters>NAN</DistanceMeters>
          </Trackpoint>
          <Trackpoint>
            <Time>2020-03-07T16:09:47.000Z</Time>
            <Position>
              <LatitudeDegrees>40.76788790524005889892578125</LatitudeDegrees>
              <LongitudeDegrees>-3.781040646135807037353515625</LongitudeDegrees>
            </Position>
            <AltitudeMeters>948.5999755859375</AltitudeMeters>
            <DistanceMeters>NAN</DistanceMeters>
          </Trackpoint>
          <Trackpoint>
            <Time>2020-03-07T16:09:48.000Z</Time>
            <Position>
              <LatitudeDegrees>40.76779109425842761993408203125</LatitudeDegrees>
              <LongitudeDegrees>-3.78108146600425243377685546875</LongitudeDegrees>
            </Position>
            <AltitudeMeters>948</AltitudeMeters>
            <DistanceMeters>NAN</DistanceMeters>
          </Trackpoint>
          <Trackpoint>
            <Time>2020-03-07T16:09:49.000Z</Time>
            <Position>
              <LatitudeDegrees>40.76769771985709667205810546875</LatitudeDegrees>
              <LongitudeDegrees>-3.7811222858726978302001953125</LongitudeDegrees>
            </Position>
            <AltitudeMeters>947</AltitudeMeters>
            <DistanceMeters>NAN</DistanceMeters>
          </Trackpoint>
          <Trackpoint>
            <Time>2020-03-07T16:09:50.000Z</Time>
            <Position>
              <LatitudeDegrees>40.76760702766478061676025390625</LatitudeDegrees>
              <LongitudeDegrees>-3.7811618484556674957275390625</LongitudeDegrees>
            </Position>
            <AltitudeMeters>946.4000244140625</AltitudeMeters>
            <DistanceMeters>NAN</DistanceMeters>
          </Trackpoint>
          <Trackpoint>
            <Time>2020-03-07T16:09:51.000Z</Time>
            <Position>
              <LatitudeDegrees>40.76751834712922573089599609375</LatitudeDegrees>
              <LongitudeDegrees>-3.78119814209640026092529296875</LongitudeDegrees>
            </Position>
            <AltitudeMeters>946</AltitudeMeters>
            <DistanceMeters>NAN</DistanceMeters>
          </Trackpoint>
          <Trackpoint>
            <Time>2020-03-07T16:09:52.000Z</Time>
            <Position>
              <LatitudeDegrees>40.76743117533624172210693359375</LatitudeDegrees>
              <LongitudeDegrees>-3.7812339328229427337646484375</LongitudeDegrees>
            </Position>
            <AltitudeMeters>945.79998779296875</AltitudeMeters>
            <DistanceMeters>NAN</DistanceMeters>
          </Trackpoint>
          <Trackpoint>
            <Time>2020-03-07T16:09:53.000Z</Time>
            <Position>
              <LatitudeDegrees>40.7673455961048603057861328125</LatitudeDegrees>
              <LongitudeDegrees>-3.78126628696918487548828125</LongitudeDegrees>
            </Position>
            <AltitudeMeters>945.79998779296875</AltitudeMeters>
            <DistanceMeters>NAN</DistanceMeters>
          </Trackpoint>
          <Trackpoint>
            <Time>2020-03-07T16:09:54.000Z</Time>
            <Position>
              <LatitudeDegrees>40.76726026833057403564453125</LatitudeDegrees>
              <LongitudeDegrees>-3.78129352815449237823486328125</LongitudeDegrees>
            </Position>
            <AltitudeMeters>945.79998779296875</AltitudeMeters>
            <DistanceMeters>NAN</DistanceMeters>
          </Trackpoint>
          <Trackpoint>
            <Time>2020-03-07T16:09:55.000Z</Time>
            <Position>
              <LatitudeDegrees>40.767174772918224334716796875</LatitudeDegrees>
              <LongitudeDegrees>-3.7813164107501506805419921875</LongitudeDegrees>
            </Position>
            <AltitudeMeters>945.5999755859375</AltitudeMeters>
            <DistanceMeters>NAN</DistanceMeters>
          </Trackpoint>
          <Trackpoint>
            <Time>2020-03-07T16:09:56.000Z</Time>
            <Position>
              <LatitudeDegrees>40.7670881040394306182861328125</LatitudeDegrees>
              <LongitudeDegrees>-3.78133493475615978240966796875</LongitudeDegrees>
            </Position>
            <AltitudeMeters>945.5999755859375</AltitudeMeters>
            <DistanceMeters>NAN</DistanceMeters>
          </Trackpoint>
          <Trackpoint>
            <Time>2020-03-07T16:09:57.000Z</Time>
            <Position>
              <LatitudeDegrees>40.76699917204678058624267578125</LatitudeDegrees>
              <LongitudeDegrees>-3.78134901635348796844482421875</LongitudeDegrees>
            </Position>
            <AltitudeMeters>945.4000244140625</AltitudeMeters>
            <DistanceMeters>NAN</DistanceMeters>
          </Trackpoint>
          <Trackpoint>
            <Time>2020-03-07T16:09:58.000Z</Time>
            <Position>
              <LatitudeDegrees>40.766906552016735076904296875</LatitudeDegrees>
              <LongitudeDegrees>-3.7813568115234375</LongitudeDegrees>
            </Position>
            <AltitudeMeters>945.4000244140625</AltitudeMeters>
            <DistanceMeters>NAN</DistanceMeters>
          </Trackpoint>
          <Trackpoint>
            <Time>2020-03-07T16:09:59.000Z</Time>
            <Position>
              <LatitudeDegrees>40.766811668872833251953125</LatitudeDegrees>
              <LongitudeDegrees>-3.78136443905532360076904296875</LongitudeDegrees>
            </Position>
            <AltitudeMeters>945.20001220703125</AltitudeMeters>
            <DistanceMeters>NAN</DistanceMeters>
          </Trackpoint>
          <Trackpoint>
            <Time>2020-03-07T16:10:00.000Z</Time>
            <Position>
              <LatitudeDegrees>40.76671636663377285003662109375</LatitudeDegrees>
              <LongitudeDegrees>-3.78137701191008090972900390625</LongitudeDegrees>
            </Position>
            <AltitudeMeters>945.20001220703125</AltitudeMeters>
            <DistanceMeters>NAN</DistanceMeters>
          </Trackpoint>
          <Trackpoint>
            <Time>2020-03-07T16:10:01.000Z</Time>
            <Position>
              <LatitudeDegrees>40.7666198909282684326171875</LatitudeDegrees>
              <LongitudeDegrees>-3.78139260224997997283935546875</LongitudeDegrees>
            </Position>
            <AltitudeMeters>945</AltitudeMeters>
            <DistanceMeters>NAN</DistanceMeters>
          </Trackpoint>
          <Trackpoint>
            <Time>2020-03-07T16:10:02.000Z</Time>
            <Position>
              <LatitudeDegrees>40.76652341522276401519775390625</LatitudeDegrees>
              <LongitudeDegrees>-3.78140836022794246673583984375</LongitudeDegrees>
            </Position>
            <AltitudeMeters>945</AltitudeMeters>
            <DistanceMeters>NAN</DistanceMeters>
          </Trackpoint>
          <Trackpoint>
            <Time>2020-03-07T16:10:03.000Z</Time>
            <Position>
              <LatitudeDegrees>40.76652341522276401519775390625</LatitudeDegrees>
              <LongitudeDegrees>-3.78140836022794246673583984375</LongitudeDegrees>
            </Position>
            <AltitudeMeters>944.79998779296875</AltitudeMeters>
            <DistanceMeters>NAN</DistanceMeters>
          </Trackpoint>
          <Trackpoint>
            <Time>2020-03-07T16:10:04.000Z</Time>
            <Position>
              <LatitudeDegrees>40.76642702333629131317138671875</LatitudeDegrees>
              <LongitudeDegrees>-3.78142562694847583770751953125</LongitudeDegrees>
            </Position>
            <AltitudeMeters>944.79998779296875</AltitudeMeters>
            <DistanceMeters>NAN</DistanceMeters>
          </Trackpoint>
          <Trackpoint>
            <Time>2020-03-07T16:10:05.000Z</Time>
            <Position>
              <LatitudeDegrees>40.76633096672594547271728515625</LatitudeDegrees>
              <LongitudeDegrees>-3.78144406713545322418212890625</LongitudeDegrees>
            </Position>
            <AltitudeMeters>944.5999755859375</AltitudeMeters>
            <DistanceMeters>NAN</DistanceMeters>
          </Trackpoint>
          <Trackpoint>
            <Time>2020-03-07T16:10:06.000Z</Time>
            <Position>
              <LatitudeDegrees>40.7662354968488216400146484375</LatitudeDegrees>
              <LongitudeDegrees>-3.781461082398891448974609375</LongitudeDegrees>
            </Position>
            <AltitudeMeters>944.4000244140625</AltitudeMeters>
            <DistanceMeters>NAN</DistanceMeters>
          </Trackpoint>
          <Trackpoint>
            <Time>2020-03-07T16:10:07.000Z</Time>
            <Position>
              <LatitudeDegrees>40.76604899950325489044189453125</LatitudeDegrees>
              <LongitudeDegrees>-3.7814931012690067291259765625</LongitudeDegrees>
            </Position>
            <AltitudeMeters>944.20001220703125</AltitudeMeters>
            <DistanceMeters>NAN</DistanceMeters>
          </Trackpoint>
          <Trackpoint>
            <Time>2020-03-07T16:10:08.000Z</Time>
            <Position>
              <LatitudeDegrees>40.76604899950325489044189453125</LatitudeDegrees>
              <LongitudeDegrees>-3.7814931012690067291259765625</LongitudeDegrees>
            </Position>
            <AltitudeMeters>944</AltitudeMeters>
            <DistanceMeters>NAN</DistanceMeters>
          </Trackpoint>
          <Trackpoint>
            <Time>2020-03-07T16:10:09.000Z</Time>
            <Position>
              <LatitudeDegrees>40.76586878858506679534912109375</LatitudeDegrees>
              <LongitudeDegrees>-3.7815226055681705474853515625</LongitudeDegrees>
            </Position>
            <AltitudeMeters>943.20001220703125</AltitudeMeters>
            <DistanceMeters>NAN</DistanceMeters>
          </Trackpoint>
          <Trackpoint>
            <Time>2020-03-07T16:10:10.000Z</Time>
            <Position>
              <LatitudeDegrees>40.7657818682491779327392578125</LatitudeDegrees>
              <LongitudeDegrees>-3.78153475932776927947998046875</LongitudeDegrees>
            </Position>
            <AltitudeMeters>942.5999755859375</AltitudeMeters>
            <DistanceMeters>NAN</DistanceMeters>
          </Trackpoint>
          <Trackpoint>
            <Time>2020-03-07T16:10:11.000Z</Time>
            <Position>
              <LatitudeDegrees>40.765696205198764801025390625</LatitudeDegrees>
              <LongitudeDegrees>-3.7815497629344463348388671875</LongitudeDegrees>
            </Position>
            <AltitudeMeters>942.20001220703125</AltitudeMeters>
            <DistanceMeters>NAN</DistanceMeters>
          </Trackpoint>
          <Trackpoint>
            <Time>2020-03-07T16:10:12.000Z</Time>
            <Position>
              <LatitudeDegrees>40.76561246998608112335205078125</LatitudeDegrees>
              <LongitudeDegrees>-3.78156526945531368255615234375</LongitudeDegrees>
            </Position>
            <AltitudeMeters>942</AltitudeMeters>
            <DistanceMeters>NAN</DistanceMeters>
          </Trackpoint>
          <Trackpoint>
            <Time>2020-03-07T16:10:13.000Z</Time>
            <Position>
              <LatitudeDegrees>40.76553024351596832275390625</LatitudeDegrees>
              <LongitudeDegrees>-3.7815772555768489837646484375</LongitudeDegrees>
            </Position>
            <AltitudeMeters>941.5999755859375</AltitudeMeters>
            <DistanceMeters>NAN</DistanceMeters>
          </Trackpoint>
          <Trackpoint>
            <Time>2020-03-07T16:10:14.000Z</Time>
            <Position>
              <LatitudeDegrees>40.76553024351596832275390625</LatitudeDegrees>
              <LongitudeDegrees>-3.7815772555768489837646484375</LongitudeDegrees>
            </Position>
            <AltitudeMeters>941.5999755859375</AltitudeMeters>
            <DistanceMeters>NAN</DistanceMeters>
          </Trackpoint>
          <Trackpoint>
            <Time>2020-03-07T16:10:15.000Z</Time>
            <Position>
              <LatitudeDegrees>40.76537006534636020660400390625</LatitudeDegrees>
              <LongitudeDegrees>-3.78160852007567882537841796875</LongitudeDegrees>
            </Position>
            <AltitudeMeters>941.4000244140625</AltitudeMeters>
            <DistanceMeters>NAN</DistanceMeters>
          </Trackpoint>
          <Trackpoint>
            <Time>2020-03-07T16:10:16.000Z</Time>
            <Position>
              <LatitudeDegrees>40.765292532742023468017578125</LatitudeDegrees>
              <LongitudeDegrees>-3.78163240849971771240234375</LongitudeDegrees>
            </Position>
            <AltitudeMeters>941.20001220703125</AltitudeMeters>
            <DistanceMeters>NAN</DistanceMeters>
          </Trackpoint>
          <Trackpoint>
            <Time>2020-03-07T16:10:17.000Z</Time>
            <Position>
              <LatitudeDegrees>40.76521801762282848358154296875</LatitudeDegrees>
              <LongitudeDegrees>-3.78166819922626018524169921875</LongitudeDegrees>
            </Position>
            <AltitudeMeters>940.79998779296875</AltitudeMeters>
            <DistanceMeters>NAN</DistanceMeters>
          </Trackpoint>
          <Trackpoint>
            <Time>2020-03-07T16:10:18.000Z</Time>
            <Position>
              <LatitudeDegrees>40.76514794491231441497802734375</LatitudeDegrees>
              <LongitudeDegrees>-3.7817197479307651519775390625</LongitudeDegrees>
            </Position>
            <AltitudeMeters>940.5999755859375</AltitudeMeters>
            <DistanceMeters>NAN</DistanceMeters>
          </Trackpoint>
          <Trackpoint>
            <Time>2020-03-07T16:10:19.000Z</Time>
            <Position>
              <LatitudeDegrees>40.7650774531066417694091796875</LatitudeDegrees>
              <LongitudeDegrees>-3.78177196718752384185791015625</LongitudeDegrees>
            </Position>
            <AltitudeMeters>940.4000244140625</AltitudeMeters>
            <DistanceMeters>NAN</DistanceMeters>
          </Trackpoint>
          <Trackpoint>
            <Time>2020-03-07T16:10:20.000Z</Time>
            <Position>
              <LatitudeDegrees>40.76500092633068561553955078125</LatitudeDegrees>
              <LongitudeDegrees>-3.78179593943059444427490234375</LongitudeDegrees>
            </Position>
            <AltitudeMeters>940.20001220703125</AltitudeMeters>
            <DistanceMeters>NAN</DistanceMeters>
          </Trackpoint>
          <Trackpoint>
            <Time>2020-03-07T16:10:21.000Z</Time>
            <Position>
              <LatitudeDegrees>40.76492113061249256134033203125</LatitudeDegrees>
              <LongitudeDegrees>-3.78178303129971027374267578125</LongitudeDegrees>
            </Position>
            <AltitudeMeters>940.20001220703125</AltitudeMeters>
            <DistanceMeters>NAN</DistanceMeters>
          </Trackpoint>
          <Trackpoint>
            <Time>2020-03-07T16:10:22.000Z</Time>
            <Position>
              <LatitudeDegrees>40.76484091579914093017578125</LatitudeDegrees>
              <LongitudeDegrees>-3.781757466495037078857421875</LongitudeDegrees>
            </Position>
            <AltitudeMeters>940.20001220703125</AltitudeMeters>
            <DistanceMeters>NAN</DistanceMeters>
          </Trackpoint>
          <Trackpoint>
            <Time>2020-03-07T16:10:23.000Z</Time>
            <Position>
              <LatitudeDegrees>40.76475885696709156036376953125</LatitudeDegrees>
              <LongitudeDegrees>-3.78173860721290111541748046875</LongitudeDegrees>
            </Position>
            <AltitudeMeters>940.20001220703125</AltitudeMeters>
            <DistanceMeters>NAN</DistanceMeters>
          </Trackpoint>
          <Trackpoint>
            <Time>2020-03-07T16:10:24.000Z</Time>
            <Position>
              <LatitudeDegrees>40.7646757923066616058349609375</LatitudeDegrees>
              <LongitudeDegrees>-3.78173030912876129150390625</LongitudeDegrees>
            </Position>
            <AltitudeMeters>940</AltitudeMeters>
            <DistanceMeters>NAN</DistanceMeters>
          </Trackpoint>
          <Trackpoint>
            <Time>2020-03-07T16:10:25.000Z</Time>
            <Position>
              <LatitudeDegrees>40.764593817293643951416015625</LatitudeDegrees>
              <LongitudeDegrees>-3.78173374570906162261962890625</LongitudeDegrees>
            </Position>
            <AltitudeMeters>940</AltitudeMeters>
            <DistanceMeters>NAN</DistanceMeters>
          </Trackpoint>
          <Trackpoint>
            <Time>2020-03-07T16:10:26.000Z</Time>
            <Position>
              <LatitudeDegrees>40.76450723223388195037841796875</LatitudeDegrees>
              <LongitudeDegrees>-3.78174263052642345428466796875</LongitudeDegrees>
            </Position>
            <AltitudeMeters>940</AltitudeMeters>
            <DistanceMeters>NAN</DistanceMeters>
          </Trackpoint>
          <Trackpoint>
            <Time>2020-03-07T16:10:27.000Z</Time>
            <Position>
              <LatitudeDegrees>40.76442341320216655731201171875</LatitudeDegrees>
              <LongitudeDegrees>-3.78175486810505390167236328125</LongitudeDegrees>
            </Position>
            <AltitudeMeters>939.79998779296875</AltitudeMeters>
            <DistanceMeters>NAN</DistanceMeters>
          </Trackpoint>
          <Trackpoint>
            <Time>2020-03-07T16:10:28.000Z</Time>
            <Position>
              <LatitudeDegrees>40.7643398456275463104248046875</LatitudeDegrees>
              <LongitudeDegrees>-3.7817685306072235107421875</LongitudeDegrees>
            </Position>
            <AltitudeMeters>939.79998779296875</AltitudeMeters>
            <DistanceMeters>NAN</DistanceMeters>
          </Trackpoint>
          <Trackpoint>
            <Time>2020-03-07T16:10:29.000Z</Time>
            <Position>
              <LatitudeDegrees>40.76425611041486263275146484375</LatitudeDegrees>
              <LongitudeDegrees>-3.7817819416522979736328125</LongitudeDegrees>
            </Position>
            <AltitudeMeters>939.79998779296875</AltitudeMeters>
            <DistanceMeters>NAN</DistanceMeters>
          </Trackpoint>
          <Trackpoint>
            <Time>2020-03-07T16:10:30.000Z</Time>
            <Position>
              <LatitudeDegrees>40.76417212374508380889892578125</LatitudeDegrees>
              <LongitudeDegrees>-3.7817951850593090057373046875</LongitudeDegrees>
            </Position>
            <AltitudeMeters>939.79998779296875</AltitudeMeters>
            <DistanceMeters>NAN</DistanceMeters>
          </Trackpoint>
          <Trackpoint>
            <Time>2020-03-07T16:10:31.000Z</Time>
            <Position>
              <LatitudeDegrees>40.76408780179917812347412109375</LatitudeDegrees>
              <LongitudeDegrees>-3.78180985338985919952392578125</LongitudeDegrees>
            </Position>
            <AltitudeMeters>939.5999755859375</AltitudeMeters>
            <DistanceMeters>NAN</DistanceMeters>
          </Trackpoint>
          <Trackpoint>
            <Time>2020-03-07T16:10:32.000Z</Time>
            <Position>
              <LatitudeDegrees>40.76400331221520900726318359375</LatitudeDegrees>
              <LongitudeDegrees>-3.78182510845363140106201171875</LongitudeDegrees>
            </Position>
            <AltitudeMeters>938.5999755859375</AltitudeMeters>
            <DistanceMeters>NAN</DistanceMeters>
          </Trackpoint>
          <Trackpoint>
            <Time>2020-03-07T16:10:33.000Z</Time>
            <Position>
              <LatitudeDegrees>40.76391756534576416015625</LatitudeDegrees>
              <LongitudeDegrees>-3.781839273869991302490234375</LongitudeDegrees>
            </Position>
            <AltitudeMeters>938.20001220703125</AltitudeMeters>
            <DistanceMeters>NAN</DistanceMeters>
          </Trackpoint>
          <Trackpoint>
            <Time>2020-03-07T16:10:34.000Z</Time>
            <Position>
              <LatitudeDegrees>40.76383131556212902069091796875</LatitudeDegrees>
              <LongitudeDegrees>-3.78185276873409748077392578125</LongitudeDegrees>
            </Position>
            <AltitudeMeters>938</AltitudeMeters>
            <DistanceMeters>NAN</DistanceMeters>
          </Trackpoint>
          <Trackpoint>
            <Time>2020-03-07T16:10:35.000Z</Time>
            <Position>
              <LatitudeDegrees>40.7637443952262401580810546875</LatitudeDegrees>
              <LongitudeDegrees>-3.781865425407886505126953125</LongitudeDegrees>
            </Position>
            <AltitudeMeters>937.79998779296875</AltitudeMeters>
            <DistanceMeters>NAN</DistanceMeters>
          </Trackpoint>
          <Trackpoint>
            <Time>2020-03-07T16:10:36.000Z</Time>
            <Position>
              <LatitudeDegrees>40.76365697197616100311279296875</LatitudeDegrees>
              <LongitudeDegrees>-3.7818783335387706756591796875</LongitudeDegrees>
            </Position>
            <AltitudeMeters>937.5999755859375</AltitudeMeters>
            <DistanceMeters>NAN</DistanceMeters>
          </Trackpoint>
          <Trackpoint>
            <Time>2020-03-07T16:10:37.000Z</Time>
            <Position>
              <LatitudeDegrees>40.7635700516402721405029296875</LatitudeDegrees>
              <LongitudeDegrees>-3.781892918050289154052734375</LongitudeDegrees>
            </Position>
            <AltitudeMeters>937.4000244140625</AltitudeMeters>
            <DistanceMeters>NAN</DistanceMeters>
          </Trackpoint>
          <Trackpoint>
            <Time>2020-03-07T16:10:38.000Z</Time>
            <Position>
              <LatitudeDegrees>40.76348346658051013946533203125</LatitudeDegrees>
              <LongitudeDegrees>-3.781909011304378509521484375</LongitudeDegrees>
            </Position>
            <AltitudeMeters>937.4000244140625</AltitudeMeters>
            <DistanceMeters>NAN</DistanceMeters>
          </Trackpoint>
          <Trackpoint>
            <Time>2020-03-07T16:10:39.000Z</Time>
            <Position>
              <LatitudeDegrees>40.76339780353009700775146484375</LatitudeDegrees>
              <LongitudeDegrees>-3.78192384727299213409423828125</LongitudeDegrees>
            </Position>
            <AltitudeMeters>937.20001220703125</AltitudeMeters>
            <DistanceMeters>NAN</DistanceMeters>
          </Trackpoint>
          <Trackpoint>
            <Time>2020-03-07T16:10:40.000Z</Time>
            <Position>
              <LatitudeDegrees>40.76331314630806446075439453125</LatitudeDegrees>
              <LongitudeDegrees>-3.7819375097751617431640625</LongitudeDegrees>
            </Position>
            <AltitudeMeters>937</AltitudeMeters>
            <DistanceMeters>NAN</DistanceMeters>
          </Trackpoint>
          <Trackpoint>
            <Time>2020-03-07T16:10:41.000Z</Time>
            <Position>
              <LatitudeDegrees>40.763228572905063629150390625</LatitudeDegrees>
              <LongitudeDegrees>-3.78195159137248992919921875</LongitudeDegrees>
            </Position>
            <AltitudeMeters>936.79998779296875</AltitudeMeters>
            <DistanceMeters>NAN</DistanceMeters>
          </Trackpoint>
          <Trackpoint>
            <Time>2020-03-07T16:10:42.000Z</Time>
            <Position>
              <LatitudeDegrees>40.7631449215114116668701171875</LatitudeDegrees>
              <LongitudeDegrees>-3.78196625970304012298583984375</LongitudeDegrees>
            </Position>
            <AltitudeMeters>936.5999755859375</AltitudeMeters>
            <DistanceMeters>NAN</DistanceMeters>
          </Trackpoint>
          <Trackpoint>
            <Time>2020-03-07T16:10:43.000Z</Time>
            <Position>
              <LatitudeDegrees>40.7630605995655059814453125</LatitudeDegrees>
              <LongitudeDegrees>-3.78198017366230487823486328125</LongitudeDegrees>
            </Position>
            <AltitudeMeters>936.5999755859375</AltitudeMeters>
            <DistanceMeters>NAN</DistanceMeters>
          </Trackpoint>
          <Trackpoint>
            <Time>2020-03-07T16:10:44.000Z</Time>
            <Position>
              <LatitudeDegrees>40.76297703199088573455810546875</LatitudeDegrees>
              <LongitudeDegrees>-3.78199475817382335662841796875</LongitudeDegrees>
            </Position>
            <AltitudeMeters>936.4000244140625</AltitudeMeters>
            <DistanceMeters>NAN</DistanceMeters>
          </Trackpoint>
          <Trackpoint>
            <Time>2020-03-07T16:10:45.000Z</Time>
            <Position>
              <LatitudeDegrees>40.76289363205432891845703125</LatitudeDegrees>
              <LongitudeDegrees>-3.7820077501237392425537109375</LongitudeDegrees>
            </Position>
            <AltitudeMeters>936.20001220703125</AltitudeMeters>
            <DistanceMeters>NAN</DistanceMeters>
          </Trackpoint>
          <Trackpoint>
            <Time>2020-03-07T16:10:46.000Z</Time>
            <Position>
              <LatitudeDegrees>40.76281023211777210235595703125</LatitudeDegrees>
              <LongitudeDegrees>-3.7820204906165599822998046875</LongitudeDegrees>
            </Position>
            <AltitudeMeters>936</AltitudeMeters>
            <DistanceMeters>NAN</DistanceMeters>
          </Trackpoint>
          <Trackpoint>
            <Time>2020-03-07T16:10:47.000Z</Time>
            <Position>
              <LatitudeDegrees>40.76272859238088130950927734375</LatitudeDegrees>
              <LongitudeDegrees>-3.7820332311093807220458984375</LongitudeDegrees>
            </Position>
            <AltitudeMeters>935.79998779296875</AltitudeMeters>
            <DistanceMeters>NAN</DistanceMeters>
          </Trackpoint>
          <Trackpoint>
            <Time>2020-03-07T16:10:48.000Z</Time>
            <Position>
              <LatitudeDegrees>40.762647874653339385986328125</LatitudeDegrees>
              <LongitudeDegrees>-3.78204689361155033111572265625</LongitudeDegrees>
            </Position>
            <AltitudeMeters>935.5999755859375</AltitudeMeters>
            <DistanceMeters>NAN</DistanceMeters>
          </Trackpoint>
          <Trackpoint>
            <Time>2020-03-07T16:10:49.000Z</Time>
            <Position>
              <LatitudeDegrees>40.76256765983998775482177734375</LatitudeDegrees>
              <LongitudeDegrees>-3.78206080757081508636474609375</LongitudeDegrees>
            </Position>
            <AltitudeMeters>935.4000244140625</AltitudeMeters>
            <DistanceMeters>NAN</DistanceMeters>
          </Trackpoint>
          <Trackpoint>
            <Time>2020-03-07T16:10:50.000Z</Time>
            <Position>
              <LatitudeDegrees>40.76248819939792156219482421875</LatitudeDegrees>
              <LongitudeDegrees>-3.78207304514944553375244140625</LongitudeDegrees>
            </Position>
            <AltitudeMeters>935.20001220703125</AltitudeMeters>
            <DistanceMeters>NAN</DistanceMeters>
          </Trackpoint>
          <Trackpoint>
            <Time>2020-03-07T16:10:51.000Z</Time>
            <Position>
              <LatitudeDegrees>40.7624086551368236541748046875</LatitudeDegrees>
              <LongitudeDegrees>-3.782084025442600250244140625</LongitudeDegrees>
            </Position>
            <AltitudeMeters>935</AltitudeMeters>
            <DistanceMeters>NAN</DistanceMeters>
          </Trackpoint>
          <Trackpoint>
            <Time>2020-03-07T16:10:52.000Z</Time>
            <Position>
              <LatitudeDegrees>40.76233036816120147705078125</LatitudeDegrees>
              <LongitudeDegrees>-3.7820952571928501129150390625</LongitudeDegrees>
            </Position>
            <AltitudeMeters>934.79998779296875</AltitudeMeters>
            <DistanceMeters>NAN</DistanceMeters>
          </Trackpoint>
          <Trackpoint>
            <Time>2020-03-07T16:10:53.000Z</Time>
            <Position>
              <LatitudeDegrees>40.76225283555686473846435546875</LatitudeDegrees>
              <LongitudeDegrees>-3.782107830047607421875</LongitudeDegrees>
            </Position>
            <AltitudeMeters>934.79998779296875</AltitudeMeters>
            <DistanceMeters>NAN</DistanceMeters>
          </Trackpoint>
          <Trackpoint>
            <Time>2020-03-07T16:10:54.000Z</Time>
            <Position>
              <LatitudeDegrees>40.76217471621930599212646484375</LatitudeDegrees>
              <LongitudeDegrees>-3.78212367184460163116455078125</LongitudeDegrees>
            </Position>
            <AltitudeMeters>934.79998779296875</AltitudeMeters>
            <DistanceMeters>NAN</DistanceMeters>
          </Trackpoint>
          <Trackpoint>
            <Time>2020-03-07T16:10:55.000Z</Time>
            <Position>
              <LatitudeDegrees>40.76209559105336666107177734375</LatitudeDegrees>
              <LongitudeDegrees>-3.7821375019848346710205078125</LongitudeDegrees>
            </Position>
            <AltitudeMeters>934.5999755859375</AltitudeMeters>
            <DistanceMeters>NAN</DistanceMeters>
          </Trackpoint>
          <Trackpoint>
            <Time>2020-03-07T16:10:56.000Z</Time>
            <Position>
              <LatitudeDegrees>40.762014202773571014404296875</LatitudeDegrees>
              <LongitudeDegrees>-3.782149069011211395263671875</LongitudeDegrees>
            </Position>
            <AltitudeMeters>934.5999755859375</AltitudeMeters>
            <DistanceMeters>NAN</DistanceMeters>
          </Trackpoint>
          <Trackpoint>
            <Time>2020-03-07T16:10:57.000Z</Time>
            <Position>
              <LatitudeDegrees>40.7619332335889339447021484375</LatitudeDegrees>
              <LongitudeDegrees>-3.782161809504032135009765625</LongitudeDegrees>
            </Position>
            <AltitudeMeters>934.4000244140625</AltitudeMeters>
            <DistanceMeters>NAN</DistanceMeters>
          </Trackpoint>
          <Trackpoint>
            <Time>2020-03-07T16:10:58.000Z</Time>
            <Position>
              <LatitudeDegrees>40.76185134239494800567626953125</LatitudeDegrees>
              <LongitudeDegrees>-3.78217563964426517486572265625</LongitudeDegrees>
            </Position>
            <AltitudeMeters>934.4000244140625</AltitudeMeters>
            <DistanceMeters>NAN</DistanceMeters>
          </Trackpoint>
          <Trackpoint>
            <Time>2020-03-07T16:10:59.000Z</Time>
            <Position>
              <LatitudeDegrees>40.761770121753215789794921875</LatitudeDegrees>
              <LongitudeDegrees>-3.7821896374225616455078125</LongitudeDegrees>
            </Position>
            <AltitudeMeters>934.20001220703125</AltitudeMeters>
            <DistanceMeters>NAN</DistanceMeters>
          </Trackpoint>
          <Trackpoint>
            <Time>2020-03-07T16:11:00.000Z</Time>
            <Position>
              <LatitudeDegrees>40.76168873347342014312744140625</LatitudeDegrees>
              <LongitudeDegrees>-3.782201372087001800537109375</LongitudeDegrees>
            </Position>
            <AltitudeMeters>934.20001220703125</AltitudeMeters>
            <DistanceMeters>NAN</DistanceMeters>
          </Trackpoint>
          <Trackpoint>
            <Time>2020-03-07T16:11:01.000Z</Time>
            <Position>
              <LatitudeDegrees>40.76160726137459278106689453125</LatitudeDegrees>
              <LongitudeDegrees>-3.78221436403691768646240234375</LongitudeDegrees>
            </Position>
            <AltitudeMeters>934</AltitudeMeters>
            <DistanceMeters>NAN</DistanceMeters>
          </Trackpoint>
          <Trackpoint>
            <Time>2020-03-07T16:11:02.000Z</Time>
            <Position>
              <LatitudeDegrees>40.76152696274220943450927734375</LatitudeDegrees>
              <LongitudeDegrees>-3.7822280265390872955322265625</LongitudeDegrees>
            </Position>
            <AltitudeMeters>934</AltitudeMeters>
            <DistanceMeters>NAN</DistanceMeters>
          </Trackpoint>
          <Trackpoint>
            <Time>2020-03-07T16:11:03.000Z</Time>
            <Position>
              <LatitudeDegrees>40.76144817285239696502685546875</LatitudeDegrees>
              <LongitudeDegrees>-3.7822397612035274505615234375</LongitudeDegrees>
            </Position>
            <AltitudeMeters>933.79998779296875</AltitudeMeters>
            <DistanceMeters>NAN</DistanceMeters>
          </Trackpoint>
          <Trackpoint>
            <Time>2020-03-07T16:11:04.000Z</Time>
            <Position>
              <LatitudeDegrees>40.76137038879096508026123046875</LatitudeDegrees>
              <LongitudeDegrees>-3.78224923275411128997802734375</LongitudeDegrees>
            </Position>
            <AltitudeMeters>933.79998779296875</AltitudeMeters>
            <DistanceMeters>NAN</DistanceMeters>
          </Trackpoint>
          <Trackpoint>
            <Time>2020-03-07T16:11:05.000Z</Time>
            <Position>
              <LatitudeDegrees>40.7612952031195163726806640625</LatitudeDegrees>
              <LongitudeDegrees>-3.78225878812372684478759765625</LongitudeDegrees>
            </Position>
            <AltitudeMeters>933.79998779296875</AltitudeMeters>
            <DistanceMeters>NAN</DistanceMeters>
          </Trackpoint>
          <Trackpoint>
            <Time>2020-03-07T16:11:06.000Z</Time>
            <Position>
              <LatitudeDegrees>40.76122102327644824981689453125</LatitudeDegrees>
              <LongitudeDegrees>-3.78226943314075469970703125</LongitudeDegrees>
            </Position>
            <AltitudeMeters>933.79998779296875</AltitudeMeters>
            <DistanceMeters>NAN</DistanceMeters>
          </Trackpoint>
          <Trackpoint>
            <Time>2020-03-07T16:11:07.000Z</Time>
            <Position>
              <LatitudeDegrees>40.76115195639431476593017578125</LatitudeDegrees>
              <LongitudeDegrees>-3.78227747976779937744140625</LongitudeDegrees>
            </Position>
            <AltitudeMeters>933.5999755859375</AltitudeMeters>
            <DistanceMeters>NAN</DistanceMeters>
          </Trackpoint>
          <Trackpoint>
            <Time>2020-03-07T16:11:08.000Z</Time>
            <Position>
              <LatitudeDegrees>40.7610806263983249664306640625</LatitudeDegrees>
              <LongitudeDegrees>-3.78229089081287384033203125</LongitudeDegrees>
            </Position>
            <AltitudeMeters>933.4000244140625</AltitudeMeters>
            <DistanceMeters>NAN</DistanceMeters>
          </Trackpoint>
          <Trackpoint>
            <Time>2020-03-07T16:11:09.000Z</Time>
            <Position>
              <LatitudeDegrees>40.761010386049747467041015625</LatitudeDegrees>
              <LongitudeDegrees>-3.78230337984859943389892578125</LongitudeDegrees>
            </Position>
            <AltitudeMeters>933.4000244140625</AltitudeMeters>
            <DistanceMeters>NAN</DistanceMeters>
          </Trackpoint>
          <Trackpoint>
            <Time>2020-03-07T16:11:10.000Z</Time>
            <Position>
              <LatitudeDegrees>40.76093939132988452911376953125</LatitudeDegrees>
              <LongitudeDegrees>-3.7823182158172130584716796875</LongitudeDegrees>
            </Position>
            <AltitudeMeters>933.4000244140625</AltitudeMeters>
            <DistanceMeters>NAN</DistanceMeters>
          </Trackpoint>
          <Trackpoint>
            <Time>2020-03-07T16:11:11.000Z</Time>
            <Position>
              <LatitudeDegrees>40.7608719170093536376953125</LatitudeDegrees>
              <LongitudeDegrees>-3.78233288414776325225830078125</LongitudeDegrees>
            </Position>
            <AltitudeMeters>933.20001220703125</AltitudeMeters>
            <DistanceMeters>NAN</DistanceMeters>
          </Trackpoint>
          <Trackpoint>
            <Time>2020-03-07T16:11:12.000Z</Time>
            <Position>
              <LatitudeDegrees>40.760803855955600738525390625</LatitudeDegrees>
              <LongitudeDegrees>-3.78234696574509143829345703125</LongitudeDegrees>
            </Position>
            <AltitudeMeters>933.20001220703125</AltitudeMeters>
            <DistanceMeters>NAN</DistanceMeters>
          </Trackpoint>
          <Trackpoint>
            <Time>2020-03-07T16:11:13.000Z</Time>
            <Position>
              <LatitudeDegrees>40.76073621399700641632080078125</LatitudeDegrees>
              <LongitudeDegrees>-3.78235836513340473175048828125</LongitudeDegrees>
            </Position>
            <AltitudeMeters>933.20001220703125</AltitudeMeters>
            <DistanceMeters>NAN</DistanceMeters>
          </Trackpoint>
          <Trackpoint>
            <Time>2020-03-07T16:11:14.000Z</Time>
            <Position>
              <LatitudeDegrees>40.7606685720384120941162109375</LatitudeDegrees>
              <LongitudeDegrees>-3.78236909396946430206298828125</LongitudeDegrees>
            </Position>
            <AltitudeMeters>933.20001220703125</AltitudeMeters>
            <DistanceMeters>NAN</DistanceMeters>
          </Trackpoint>
          <Trackpoint>
            <Time>2020-03-07T16:11:15.000Z</Time>
            <Position>
              <LatitudeDegrees>40.760600008070468902587890625</LatitudeDegrees>
              <LongitudeDegrees>-3.78237965516746044158935546875</LongitudeDegrees>
            </Position>
            <AltitudeMeters>933</AltitudeMeters>
            <DistanceMeters>NAN</DistanceMeters>
          </Trackpoint>
          <Trackpoint>
            <Time>2020-03-07T16:11:16.000Z</Time>
            <Position>
              <LatitudeDegrees>40.76053169555962085723876953125</LatitudeDegrees>
              <LongitudeDegrees>-3.78239206038415431976318359375</LongitudeDegrees>
            </Position>
            <AltitudeMeters>933</AltitudeMeters>
            <DistanceMeters>NAN</DistanceMeters>
          </Trackpoint>
          <Trackpoint>
            <Time>2020-03-07T16:11:17.000Z</Time>
            <Position>
              <LatitudeDegrees>40.7604642212390899658203125</LatitudeDegrees>
              <LongitudeDegrees>-3.7824053876101970672607421875</LongitudeDegrees>
            </Position>
            <AltitudeMeters>933</AltitudeMeters>
            <DistanceMeters>NAN</DistanceMeters>
          </Trackpoint>
          <Trackpoint>
            <Time>2020-03-07T16:11:18.000Z</Time>
            <Position>
              <LatitudeDegrees>40.76039540581405162811279296875</LatitudeDegrees>
              <LongitudeDegrees>-3.782417289912700653076171875</LongitudeDegrees>
            </Position>
            <AltitudeMeters>932.79998779296875</AltitudeMeters>
            <DistanceMeters>NAN</DistanceMeters>
          </Trackpoint>
          <Trackpoint>
            <Time>2020-03-07T16:11:19.000Z</Time>
            <Position>
              <LatitudeDegrees>40.76032541692256927490234375</LatitudeDegrees>
              <LongitudeDegrees>-3.7824295274913311004638671875</LongitudeDegrees>
            </Position>
            <AltitudeMeters>932.5999755859375</AltitudeMeters>
            <DistanceMeters>NAN</DistanceMeters>
          </Trackpoint>
          <Trackpoint>
            <Time>2020-03-07T16:11:20.000Z</Time>
            <Position>
              <LatitudeDegrees>40.76025509275496006011962890625</LatitudeDegrees>
              <LongitudeDegrees>-3.78244168125092983245849609375</LongitudeDegrees>
            </Position>
            <AltitudeMeters>932.4000244140625</AltitudeMeters>
            <DistanceMeters>NAN</DistanceMeters>
          </Trackpoint>
          <Trackpoint>
            <Time>2020-03-07T16:11:21.000Z</Time>
            <Position>
              <LatitudeDegrees>40.7601847685873508453369140625</LatitudeDegrees>
              <LongitudeDegrees>-3.78245458938181400299072265625</LongitudeDegrees>
            </Position>
            <AltitudeMeters>932.20001220703125</AltitudeMeters>
            <DistanceMeters>NAN</DistanceMeters>
          </Trackpoint>
          <Trackpoint>
            <Time>2020-03-07T16:11:22.000Z</Time>
            <Position>
              <LatitudeDegrees>40.760114528238773345947265625</LatitudeDegrees>
              <LongitudeDegrees>-3.78246615640819072723388671875</LongitudeDegrees>
            </Position>
            <AltitudeMeters>931.79998779296875</AltitudeMeters>
            <DistanceMeters>NAN</DistanceMeters>
          </Trackpoint>
          <Trackpoint>
            <Time>2020-03-07T16:11:23.000Z</Time>
            <Position>
              <LatitudeDegrees>40.76004403643310070037841796875</LatitudeDegrees>
              <LongitudeDegrees>-3.78247596323490142822265625</LongitudeDegrees>
            </Position>
            <AltitudeMeters>931.79998779296875</AltitudeMeters>
            <DistanceMeters>NAN</DistanceMeters>
          </Trackpoint>
          <Trackpoint>
            <Time>2020-03-07T16:11:24.000Z</Time>
            <Position>
              <LatitudeDegrees>40.75997463427484035491943359375</LatitudeDegrees>
              <LongitudeDegrees>-3.78248644061386585235595703125</LongitudeDegrees>
            </Position>
            <AltitudeMeters>931.5999755859375</AltitudeMeters>
            <DistanceMeters>NAN</DistanceMeters>
          </Trackpoint>
          <Trackpoint>
            <Time>2020-03-07T16:11:25.000Z</Time>
            <Position>
              <LatitudeDegrees>40.7599063217639923095703125</LatitudeDegrees>
              <LongitudeDegrees>-3.782497085630893707275390625</LongitudeDegrees>
            </Position>
            <AltitudeMeters>931.5999755859375</AltitudeMeters>
            <DistanceMeters>NAN</DistanceMeters>
          </Trackpoint>
          <Trackpoint>
            <Time>2020-03-07T16:11:26.000Z</Time>
            <Position>
              <LatitudeDegrees>40.75983935035765171051025390625</LatitudeDegrees>
              <LongitudeDegrees>-3.78250555135309696197509765625</LongitudeDegrees>
            </Position>
            <AltitudeMeters>931.5999755859375</AltitudeMeters>
            <DistanceMeters>NAN</DistanceMeters>
          </Trackpoint>
          <Trackpoint>
            <Time>2020-03-07T16:11:27.000Z</Time>
            <Position>
              <LatitudeDegrees>40.75977078638970851898193359375</LatitudeDegrees>
              <LongitudeDegrees>-3.7825153581798076629638671875</LongitudeDegrees>
            </Position>
            <AltitudeMeters>931.4000244140625</AltitudeMeters>
            <DistanceMeters>NAN</DistanceMeters>
          </Trackpoint>
          <Trackpoint>
            <Time>2020-03-07T16:11:28.000Z</Time>
            <Position>
              <LatitudeDegrees>40.7597033120691776275634765625</LatitudeDegrees>
              <LongitudeDegrees>-3.78252583555877208709716796875</LongitudeDegrees>
            </Position>
            <AltitudeMeters>931.4000244140625</AltitudeMeters>
            <DistanceMeters>NAN</DistanceMeters>
          </Trackpoint>
          <Trackpoint>
            <Time>2020-03-07T16:11:29.000Z</Time>
            <Position>
              <LatitudeDegrees>40.7596362568438053131103515625</LatitudeDegrees>
              <LongitudeDegrees>-3.78253606148064136505126953125</LongitudeDegrees>
            </Position>
            <AltitudeMeters>931.4000244140625</AltitudeMeters>
            <DistanceMeters>NAN</DistanceMeters>
          </Trackpoint>
          <Trackpoint>
            <Time>2020-03-07T16:11:30.000Z</Time>
            <Position>
              <LatitudeDegrees>40.7595688663423061370849609375</LatitudeDegrees>
              <LongitudeDegrees>-3.78254611976444721221923828125</LongitudeDegrees>
            </Position>
            <AltitudeMeters>931.4000244140625</AltitudeMeters>
            <DistanceMeters>NAN</DistanceMeters>
          </Trackpoint>
          <Trackpoint>
            <Time>2020-03-07T16:11:31.000Z</Time>
            <Position>
              <LatitudeDegrees>40.75950005091726779937744140625</LatitudeDegrees>
              <LongitudeDegrees>-3.782560788094997406005859375</LongitudeDegrees>
            </Position>
            <AltitudeMeters>931.4000244140625</AltitudeMeters>
            <DistanceMeters>NAN</DistanceMeters>
          </Trackpoint>
          <Trackpoint>
            <Time>2020-03-07T16:11:32.000Z</Time>
            <Position>
              <LatitudeDegrees>40.75943316332995891571044921875</LatitudeDegrees>
              <LongitudeDegrees>-3.78257294185459613800048828125</LongitudeDegrees>
            </Position>
            <AltitudeMeters>931.4000244140625</AltitudeMeters>
            <DistanceMeters>NAN</DistanceMeters>
          </Trackpoint>
          <Trackpoint>
            <Time>2020-03-07T16:11:33.000Z</Time>
            <Position>
              <LatitudeDegrees>40.7593645155429840087890625</LatitudeDegrees>
              <LongitudeDegrees>-3.782583586871623992919921875</LongitudeDegrees>
            </Position>
            <AltitudeMeters>931.4000244140625</AltitudeMeters>
            <DistanceMeters>NAN</DistanceMeters>
          </Trackpoint>
          <Trackpoint>
            <Time>2020-03-07T16:11:34.000Z</Time>
            <Position>
              <LatitudeDegrees>40.759296119213104248046875</LatitudeDegrees>
              <LongitudeDegrees>-3.78259439952671527862548828125</LongitudeDegrees>
            </Position>
            <AltitudeMeters>931.20001220703125</AltitudeMeters>
            <DistanceMeters>NAN</DistanceMeters>
          </Trackpoint>
          <Trackpoint>
            <Time>2020-03-07T16:11:35.000Z</Time>
            <Position>
              <LatitudeDegrees>40.75922730378806591033935546875</LatitudeDegrees>
              <LongitudeDegrees>-3.78260663710534572601318359375</LongitudeDegrees>
            </Position>
            <AltitudeMeters>931.20001220703125</AltitudeMeters>
            <DistanceMeters>NAN</DistanceMeters>
          </Trackpoint>
          <Trackpoint>
            <Time>2020-03-07T16:11:36.000Z</Time>
            <Position>
              <LatitudeDegrees>40.75915773399174213409423828125</LatitudeDegrees>
              <LongitudeDegrees>-3.7826189585030078887939453125</LongitudeDegrees>
            </Position>
            <AltitudeMeters>931.20001220703125</AltitudeMeters>
            <DistanceMeters>NAN</DistanceMeters>
          </Trackpoint>
          <Trackpoint>
            <Time>2020-03-07T16:11:37.000Z</Time>
            <Position>
              <LatitudeDegrees>40.7590867392718791961669921875</LatitudeDegrees>
              <LongitudeDegrees>-3.7826303578913211822509765625</LongitudeDegrees>
            </Position>
            <AltitudeMeters>931.20001220703125</AltitudeMeters>
            <DistanceMeters>NAN</DistanceMeters>
          </Trackpoint>
          <Trackpoint>
            <Time>2020-03-07T16:11:38.000Z</Time>
            <Position>
              <LatitudeDegrees>40.75901356525719165802001953125</LatitudeDegrees>
              <LongitudeDegrees>-3.78264184109866619110107421875</LongitudeDegrees>
            </Position>
            <AltitudeMeters>931</AltitudeMeters>
            <DistanceMeters>NAN</DistanceMeters>
          </Trackpoint>
          <Trackpoint>
            <Time>2020-03-07T16:11:39.000Z</Time>
            <Position>
              <LatitudeDegrees>40.758939050137996673583984375</LatitudeDegrees>
              <LongitudeDegrees>-3.7826536595821380615234375</LongitudeDegrees>
            </Position>
            <AltitudeMeters>931</AltitudeMeters>
            <DistanceMeters>NAN</DistanceMeters>
          </Trackpoint>
          <Trackpoint>
            <Time>2020-03-07T16:11:40.000Z</Time>
            <Position>
              <LatitudeDegrees>40.75886302627623081207275390625</LatitudeDegrees>
              <LongitudeDegrees>-3.7826662324368953704833984375</LongitudeDegrees>
            </Position>
            <AltitudeMeters>930.79998779296875</AltitudeMeters>
            <DistanceMeters>NAN</DistanceMeters>
          </Trackpoint>
          <Trackpoint>
            <Time>2020-03-07T16:11:41.000Z</Time>
            <Position>
              <LatitudeDegrees>40.75878574512898921966552734375</LatitudeDegrees>
              <LongitudeDegrees>-3.78267939202487468719482421875</LongitudeDegrees>
            </Position>
            <AltitudeMeters>930.5999755859375</AltitudeMeters>
            <DistanceMeters>NAN</DistanceMeters>
          </Trackpoint>
          <Trackpoint>
            <Time>2020-03-07T16:11:42.000Z</Time>
            <Position>
              <LatitudeDegrees>40.75870796106755733489990234375</LatitudeDegrees>
              <LongitudeDegrees>-3.78269322216510772705078125</LongitudeDegrees>
            </Position>
            <AltitudeMeters>930</AltitudeMeters>
            <DistanceMeters>NAN</DistanceMeters>
          </Trackpoint>
          <Trackpoint>
            <Time>2020-03-07T16:11:43.000Z</Time>
            <Position>
              <LatitudeDegrees>40.75862984172999858856201171875</LatitudeDegrees>
              <LongitudeDegrees>-3.78270663321018218994140625</LongitudeDegrees>
            </Position>
            <AltitudeMeters>929.5999755859375</AltitudeMeters>
            <DistanceMeters>NAN</DistanceMeters>
          </Trackpoint>
          <Trackpoint>
            <Time>2020-03-07T16:11:44.000Z</Time>
            <Position>
              <LatitudeDegrees>40.75855088420212268829345703125</LatitudeDegrees>
              <LongitudeDegrees>-3.782719038426876068115234375</LongitudeDegrees>
            </Position>
            <AltitudeMeters>929.4000244140625</AltitudeMeters>
            <DistanceMeters>NAN</DistanceMeters>
          </Trackpoint>
          <Trackpoint>
            <Time>2020-03-07T16:11:45.000Z</Time>
            <Position>
              <LatitudeDegrees>40.7584715075790882110595703125</LatitudeDegrees>
              <LongitudeDegrees>-3.78273102454841136932373046875</LongitudeDegrees>
            </Position>
            <AltitudeMeters>929.20001220703125</AltitudeMeters>
            <DistanceMeters>NAN</DistanceMeters>
          </Trackpoint>
          <Trackpoint>
            <Time>2020-03-07T16:11:46.000Z</Time>
            <Position>
              <LatitudeDegrees>40.7583927176892757415771484375</LatitudeDegrees>
              <LongitudeDegrees>-3.782743513584136962890625</LongitudeDegrees>
            </Position>
            <AltitudeMeters>929.20001220703125</AltitudeMeters>
            <DistanceMeters>NAN</DistanceMeters>
          </Trackpoint>
          <Trackpoint>
            <Time>2020-03-07T16:11:47.000Z</Time>
            <Position>
              <LatitudeDegrees>40.75831350870430469512939453125</LatitudeDegrees>
              <LongitudeDegrees>-3.782755918800830841064453125</LongitudeDegrees>
            </Position>
            <AltitudeMeters>929</AltitudeMeters>
            <DistanceMeters>NAN</DistanceMeters>
          </Trackpoint>
          <Trackpoint>
            <Time>2020-03-07T16:11:48.000Z</Time>
            <Position>
              <LatitudeDegrees>40.75823471881449222564697265625</LatitudeDegrees>
              <LongitudeDegrees>-3.7827694974839687347412109375</LongitudeDegrees>
            </Position>
            <AltitudeMeters>928.79998779296875</AltitudeMeters>
            <DistanceMeters>NAN</DistanceMeters>
          </Trackpoint>
          <Trackpoint>
            <Time>2020-03-07T16:11:49.000Z</Time>
            <Position>
              <LatitudeDegrees>40.75823471881449222564697265625</LatitudeDegrees>
              <LongitudeDegrees>-3.7827694974839687347412109375</LongitudeDegrees>
            </Position>
            <AltitudeMeters>928.79998779296875</AltitudeMeters>
            <DistanceMeters>NAN</DistanceMeters>
          </Trackpoint>
          <Trackpoint>
            <Time>2020-03-07T16:11:50.000Z</Time>
            <Position>
              <LatitudeDegrees>40.758156515657901763916015625</LatitudeDegrees>
              <LongitudeDegrees>-3.782782740890979766845703125</LongitudeDegrees>
            </Position>
            <AltitudeMeters>928.4000244140625</AltitudeMeters>
            <DistanceMeters>NAN</DistanceMeters>
          </Trackpoint>
          <Trackpoint>
            <Time>2020-03-07T16:11:51.000Z</Time>
            <Position>
              <LatitudeDegrees>40.758079402148723602294921875</LatitudeDegrees>
              <LongitudeDegrees>-3.7827949784696102142333984375</LongitudeDegrees>
            </Position>
            <AltitudeMeters>928</AltitudeMeters>
            <DistanceMeters>NAN</DistanceMeters>
          </Trackpoint>
          <Trackpoint>
            <Time>2020-03-07T16:11:52.000Z</Time>
            <Position>
              <LatitudeDegrees>40.7580037973821163177490234375</LatitudeDegrees>
              <LongitudeDegrees>-3.7828083895146846771240234375</LongitudeDegrees>
            </Position>
            <AltitudeMeters>927.5999755859375</AltitudeMeters>
            <DistanceMeters>NAN</DistanceMeters>
          </Trackpoint>
          <Trackpoint>
            <Time>2020-03-07T16:11:53.000Z</Time>
            <Position>
              <LatitudeDegrees>40.75785644352436065673828125</LatitudeDegrees>
              <LongitudeDegrees>-3.78283135592937469482421875</LongitudeDegrees>
            </Position>
            <AltitudeMeters>927.20001220703125</AltitudeMeters>
            <DistanceMeters>NAN</DistanceMeters>
          </Trackpoint>
          <Trackpoint>
            <Time>2020-03-07T16:11:54.000Z</Time>
            <Position>
              <LatitudeDegrees>40.75778410769999027252197265625</LatitudeDegrees>
              <LongitudeDegrees>-3.78284401260316371917724609375</LongitudeDegrees>
            </Position>
            <AltitudeMeters>927</AltitudeMeters>
            <DistanceMeters>NAN</DistanceMeters>
          </Trackpoint>
          <Trackpoint>
            <Time>2020-03-07T16:11:55.000Z</Time>
            <Position>
              <LatitudeDegrees>40.75771252624690532684326171875</LatitudeDegrees>
              <LongitudeDegrees>-3.78285826183855533599853515625</LongitudeDegrees>
            </Position>
            <AltitudeMeters>926.5999755859375</AltitudeMeters>
            <DistanceMeters>NAN</DistanceMeters>
          </Trackpoint>
          <Trackpoint>
            <Time>2020-03-07T16:11:56.000Z</Time>
            <Position>
              <LatitudeDegrees>40.75771252624690532684326171875</LatitudeDegrees>
              <LongitudeDegrees>-3.78285826183855533599853515625</LongitudeDegrees>
            </Position>
            <AltitudeMeters>926.5999755859375</AltitudeMeters>
            <DistanceMeters>NAN</DistanceMeters>
          </Trackpoint>
          <Trackpoint>
            <Time>2020-03-07T16:11:57.000Z</Time>
            <Position>
              <LatitudeDegrees>40.757567100226879119873046875</LatitudeDegrees>
              <LongitudeDegrees>-3.78288391046226024627685546875</LongitudeDegrees>
            </Position>
            <AltitudeMeters>926.4000244140625</AltitudeMeters>
            <DistanceMeters>NAN</DistanceMeters>
          </Trackpoint>
          <Trackpoint>
            <Time>2020-03-07T16:11:58.000Z</Time>
            <Position>
              <LatitudeDegrees>40.7574918307363986968994140625</LatitudeDegrees>
              <LongitudeDegrees>-3.78289765678346157073974609375</LongitudeDegrees>
            </Position>
            <AltitudeMeters>926.4000244140625</AltitudeMeters>
            <DistanceMeters>NAN</DistanceMeters>
          </Trackpoint>
          <Trackpoint>
            <Time>2020-03-07T16:11:59.000Z</Time>
            <Position>
              <LatitudeDegrees>40.75741614215075969696044921875</LatitudeDegrees>
              <LongitudeDegrees>-3.7829113192856311798095703125</LongitudeDegrees>
            </Position>
            <AltitudeMeters>926.20001220703125</AltitudeMeters>
            <DistanceMeters>NAN</DistanceMeters>
          </Trackpoint>
          <Trackpoint>
            <Time>2020-03-07T16:12:00.000Z</Time>
            <Position>
              <LatitudeDegrees>40.7573394477367401123046875</LatitudeDegrees>
              <LongitudeDegrees>-3.7829247303307056427001953125</LongitudeDegrees>
            </Position>
            <AltitudeMeters>926.20001220703125</AltitudeMeters>
            <DistanceMeters>NAN</DistanceMeters>
          </Trackpoint>
          <Trackpoint>
            <Time>2020-03-07T16:12:01.000Z</Time>
            <Position>
              <LatitudeDegrees>40.75726233422756195068359375</LatitudeDegrees>
              <LongitudeDegrees>-3.782937638461589813232421875</LongitudeDegrees>
            </Position>
            <AltitudeMeters>926.20001220703125</AltitudeMeters>
            <DistanceMeters>NAN</DistanceMeters>
          </Trackpoint>
          <Trackpoint>
            <Time>2020-03-07T16:12:02.000Z</Time>
            <Position>
              <LatitudeDegrees>40.75726233422756195068359375</LatitudeDegrees>
              <LongitudeDegrees>-3.782937638461589813232421875</LongitudeDegrees>
            </Position>
            <AltitudeMeters>926.20001220703125</AltitudeMeters>
            <DistanceMeters>NAN</DistanceMeters>
          </Trackpoint>
          <Trackpoint>
            <Time>2020-03-07T16:12:03.000Z</Time>
            <Position>
              <LatitudeDegrees>40.75710902921855449676513671875</LatitudeDegrees>
              <LongitudeDegrees>-3.7829701602458953857421875</LongitudeDegrees>
            </Position>
            <AltitudeMeters>926</AltitudeMeters>
            <DistanceMeters>NAN</DistanceMeters>
          </Trackpoint>
          <Trackpoint>
            <Time>2020-03-07T16:12:04.000Z</Time>
            <Position>
              <LatitudeDegrees>40.75703275389969348907470703125</LatitudeDegrees>
              <LongitudeDegrees>-3.782987929880619049072265625</LongitudeDegrees>
            </Position>
            <AltitudeMeters>926</AltitudeMeters>
            <DistanceMeters>NAN</DistanceMeters>
          </Trackpoint>
          <Trackpoint>
            <Time>2020-03-07T16:12:05.000Z</Time>
            <Position>
              <LatitudeDegrees>40.756957232952117919921875</LatitudeDegrees>
              <LongitudeDegrees>-3.78300863318145275115966796875</LongitudeDegrees>
            </Position>
            <AltitudeMeters>926</AltitudeMeters>
            <DistanceMeters>NAN</DistanceMeters>
          </Trackpoint>
          <Trackpoint>
            <Time>2020-03-07T16:12:06.000Z</Time>
            <Position>
              <LatitudeDegrees>40.75688338838517665863037109375</LatitudeDegrees>
              <LongitudeDegrees>-3.78303327597677707672119140625</LongitudeDegrees>
            </Position>
            <AltitudeMeters>925.79998779296875</AltitudeMeters>
            <DistanceMeters>NAN</DistanceMeters>
          </Trackpoint>
          <Trackpoint>
            <Time>2020-03-07T16:12:07.000Z</Time>
            <Position>
              <LatitudeDegrees>40.7568122260272502899169921875</LatitudeDegrees>
              <LongitudeDegrees>-3.78306965343654155731201171875</LongitudeDegrees>
            </Position>
            <AltitudeMeters>925.79998779296875</AltitudeMeters>
            <DistanceMeters>NAN</DistanceMeters>
          </Trackpoint>
          <Trackpoint>
            <Time>2020-03-07T16:12:08.000Z</Time>
            <Position>
              <LatitudeDegrees>40.7568122260272502899169921875</LatitudeDegrees>
              <LongitudeDegrees>-3.78306965343654155731201171875</LongitudeDegrees>
            </Position>
            <AltitudeMeters>925.5999755859375</AltitudeMeters>
            <DistanceMeters>NAN</DistanceMeters>
          </Trackpoint>
          <Trackpoint>
            <Time>2020-03-07T16:12:09.000Z</Time>
            <Position>
              <LatitudeDegrees>40.75668121688067913055419921875</LatitudeDegrees>
              <LongitudeDegrees>-3.78316386602818965911865234375</LongitudeDegrees>
            </Position>
            <AltitudeMeters>925.4000244140625</AltitudeMeters>
            <DistanceMeters>NAN</DistanceMeters>
          </Trackpoint>
          <Trackpoint>
            <Time>2020-03-07T16:12:10.000Z</Time>
            <Position>
              <LatitudeDegrees>40.75661466456949710845947265625</LatitudeDegrees>
              <LongitudeDegrees>-3.78319320268929004669189453125</LongitudeDegrees>
            </Position>
            <AltitudeMeters>925</AltitudeMeters>
            <DistanceMeters>NAN</DistanceMeters>
          </Trackpoint>
          <Trackpoint>
            <Time>2020-03-07T16:12:11.000Z</Time>
            <Position>
              <LatitudeDegrees>40.756545178592205047607421875</LatitudeDegrees>
              <LongitudeDegrees>-3.7831989862024784088134765625</LongitudeDegrees>
            </Position>
            <AltitudeMeters>924.79998779296875</AltitudeMeters>
            <DistanceMeters>NAN</DistanceMeters>
          </Trackpoint>
          <Trackpoint>
            <Time>2020-03-07T16:12:12.000Z</Time>
            <Position>
              <LatitudeDegrees>40.7564766146242618560791015625</LatitudeDegrees>
              <LongitudeDegrees>-3.78317995928227901458740234375</LongitudeDegrees>
            </Position>
            <AltitudeMeters>924.5999755859375</AltitudeMeters>
            <DistanceMeters>NAN</DistanceMeters>
          </Trackpoint>
          <Trackpoint>
            <Time>2020-03-07T16:12:13.000Z</Time>
            <Position>
              <LatitudeDegrees>40.756407044827938079833984375</LatitudeDegrees>
              <LongitudeDegrees>-3.78315053880214691162109375</LongitudeDegrees>
            </Position>
            <AltitudeMeters>924.4000244140625</AltitudeMeters>
            <DistanceMeters>NAN</DistanceMeters>
          </Trackpoint>
          <Trackpoint>
            <Time>2020-03-07T16:12:14.000Z</Time>
            <Position>
              <LatitudeDegrees>40.756407044827938079833984375</LatitudeDegrees>
              <LongitudeDegrees>-3.78315053880214691162109375</LongitudeDegrees>
            </Position>
            <AltitudeMeters>924.20001220703125</AltitudeMeters>
            <DistanceMeters>NAN</DistanceMeters>
          </Trackpoint>
          <Trackpoint>
            <Time>2020-03-07T16:12:15.000Z</Time>
            <Position>
              <LatitudeDegrees>40.75625960715115070343017578125</LatitudeDegrees>
              <LongitudeDegrees>-3.78312564454972743988037109375</LongitudeDegrees>
            </Position>
            <AltitudeMeters>923.79998779296875</AltitudeMeters>
            <DistanceMeters>NAN</DistanceMeters>
          </Trackpoint>
          <Trackpoint>
            <Time>2020-03-07T16:12:16.000Z</Time>
            <Position>
              <LatitudeDegrees>40.75618400238454341888427734375</LatitudeDegrees>
              <LongitudeDegrees>-3.783128075301647186279296875</LongitudeDegrees>
            </Position>
            <AltitudeMeters>923.79998779296875</AltitudeMeters>
            <DistanceMeters>NAN</DistanceMeters>
          </Trackpoint>
          <Trackpoint>
            <Time>2020-03-07T16:12:17.000Z</Time>
            <Position>
              <LatitudeDegrees>40.7561094872653484344482421875</LatitudeDegrees>
              <LongitudeDegrees>-3.7831356190145015716552734375</LongitudeDegrees>
            </Position>
            <AltitudeMeters>923.4000244140625</AltitudeMeters>
            <DistanceMeters>NAN</DistanceMeters>
          </Trackpoint>
          <Trackpoint>
            <Time>2020-03-07T16:12:18.000Z</Time>
            <Position>
              <LatitudeDegrees>40.756036229431629180908203125</LatitudeDegrees>
              <LongitudeDegrees>-3.78314710222184658050537109375</LongitudeDegrees>
            </Position>
            <AltitudeMeters>923.4000244140625</AltitudeMeters>
            <DistanceMeters>NAN</DistanceMeters>
          </Trackpoint>
          <Trackpoint>
            <Time>2020-03-07T16:12:19.000Z</Time>
            <Position>
              <LatitudeDegrees>40.755965150892734527587890625</LatitudeDegrees>
              <LongitudeDegrees>-3.783156573772430419921875</LongitudeDegrees>
            </Position>
            <AltitudeMeters>923.20001220703125</AltitudeMeters>
            <DistanceMeters>NAN</DistanceMeters>
          </Trackpoint>
          <Trackpoint>
            <Time>2020-03-07T16:12:20.000Z</Time>
            <Position>
              <LatitudeDegrees>40.755965150892734527587890625</LatitudeDegrees>
              <LongitudeDegrees>-3.783156573772430419921875</LongitudeDegrees>
            </Position>
            <AltitudeMeters>923.20001220703125</AltitudeMeters>
            <DistanceMeters>NAN</DistanceMeters>
          </Trackpoint>
          <Trackpoint>
            <Time>2020-03-07T16:12:21.000Z</Time>
            <Position>
              <LatitudeDegrees>40.75582056306302547454833984375</LatitudeDegrees>
              <LongitudeDegrees>-3.78317560069262981414794921875</LongitudeDegrees>
            </Position>
            <AltitudeMeters>923</AltitudeMeters>
            <DistanceMeters>NAN</DistanceMeters>
          </Trackpoint>
          <Trackpoint>
            <Time>2020-03-07T16:12:22.000Z</Time>
            <Position>
              <LatitudeDegrees>40.75574764050543308258056640625</LatitudeDegrees>
              <LongitudeDegrees>-3.783188760280609130859375</LongitudeDegrees>
            </Position>
            <AltitudeMeters>923</AltitudeMeters>
            <DistanceMeters>NAN</DistanceMeters>
          </Trackpoint>
          <Trackpoint>
            <Time>2020-03-07T16:12:23.000Z</Time>
            <Position>
              <LatitudeDegrees>40.75567170046269893646240234375</LatitudeDegrees>
              <LongitudeDegrees>-3.7832023389637470245361328125</LongitudeDegrees>
            </Position>
            <AltitudeMeters>922.5999755859375</AltitudeMeters>
            <DistanceMeters>NAN</DistanceMeters>
          </Trackpoint>
          <Trackpoint>
            <Time>2020-03-07T16:12:24.000Z</Time>
            <Position>
              <LatitudeDegrees>40.75559978373348712921142578125</LatitudeDegrees>
              <LongitudeDegrees>-3.78321499563753604888916015625</LongitudeDegrees>
            </Position>
            <AltitudeMeters>922.5999755859375</AltitudeMeters>
            <DistanceMeters>NAN</DistanceMeters>
          </Trackpoint>
          <Trackpoint>
            <Time>2020-03-07T16:12:25.000Z</Time>
            <Position>
              <LatitudeDegrees>40.75552853755652904510498046875</LatitudeDegrees>
              <LongitudeDegrees>-3.7832274846732616424560546875</LongitudeDegrees>
            </Position>
            <AltitudeMeters>922.5999755859375</AltitudeMeters>
            <DistanceMeters>NAN</DistanceMeters>
          </Trackpoint>
          <Trackpoint>
            <Time>2020-03-07T16:12:26.000Z</Time>
            <Position>
              <LatitudeDegrees>40.7554580457508563995361328125</LatitudeDegrees>
              <LongitudeDegrees>-3.7832385487854480743408203125</LongitudeDegrees>
            </Position>
            <AltitudeMeters>922.4000244140625</AltitudeMeters>
            <DistanceMeters>NAN</DistanceMeters>
          </Trackpoint>
          <Trackpoint>
            <Time>2020-03-07T16:12:27.000Z</Time>
            <Position>
              <LatitudeDegrees>40.75538889504969120025634765625</LatitudeDegrees>
              <LongitudeDegrees>-3.78324952907860279083251953125</LongitudeDegrees>
            </Position>
            <AltitudeMeters>922.4000244140625</AltitudeMeters>
            <DistanceMeters>NAN</DistanceMeters>
          </Trackpoint>
          <Trackpoint>
            <Time>2020-03-07T16:12:28.000Z</Time>
            <Position>
              <LatitudeDegrees>40.75531966052949428558349609375</LatitudeDegrees>
              <LongitudeDegrees>-3.78326092846691608428955078125</LongitudeDegrees>
            </Position>
            <AltitudeMeters>922.4000244140625</AltitudeMeters>
            <DistanceMeters>NAN</DistanceMeters>
          </Trackpoint>
          <Trackpoint>
            <Time>2020-03-07T16:12:29.000Z</Time>
            <Position>
              <LatitudeDegrees>40.75525092892348766326904296875</LatitudeDegrees>
              <LongitudeDegrees>-3.78327182494103908538818359375</LongitudeDegrees>
            </Position>
            <AltitudeMeters>922.4000244140625</AltitudeMeters>
            <DistanceMeters>NAN</DistanceMeters>
          </Trackpoint>
          <Trackpoint>
            <Time>2020-03-07T16:12:30.000Z</Time>
            <Position>
              <LatitudeDegrees>40.75518228113651275634765625</LatitudeDegrees>
              <LongitudeDegrees>-3.78328464925289154052734375</LongitudeDegrees>
            </Position>
            <AltitudeMeters>922.4000244140625</AltitudeMeters>
            <DistanceMeters>NAN</DistanceMeters>
          </Trackpoint>
          <Trackpoint>
            <Time>2020-03-07T16:12:31.000Z</Time>
            <Position>
              <LatitudeDegrees>40.75511396862566471099853515625</LatitudeDegrees>
              <LongitudeDegrees>-3.78329613246023654937744140625</LongitudeDegrees>
            </Position>
            <AltitudeMeters>922.4000244140625</AltitudeMeters>
            <DistanceMeters>NAN</DistanceMeters>
          </Trackpoint>
          <Trackpoint>
            <Time>2020-03-07T16:12:32.000Z</Time>
            <Position>
              <LatitudeDegrees>40.75511396862566471099853515625</LatitudeDegrees>
              <LongitudeDegrees>-3.78329613246023654937744140625</LongitudeDegrees>
            </Position>
            <AltitudeMeters>922.4000244140625</AltitudeMeters>
            <DistanceMeters>NAN</DistanceMeters>
          </Trackpoint>
          <Trackpoint>
            <Time>2020-03-07T16:12:33.000Z</Time>
            <Position>
              <LatitudeDegrees>40.75497197918593883514404296875</LatitudeDegrees>
              <LongitudeDegrees>-3.78331272862851619720458984375</LongitudeDegrees>
            </Position>
            <AltitudeMeters>922.4000244140625</AltitudeMeters>
            <DistanceMeters>NAN</DistanceMeters>
          </Trackpoint>
          <Trackpoint>
            <Time>2020-03-07T16:12:34.000Z</Time>
            <Position>
              <LatitudeDegrees>40.754902660846710205078125</LatitudeDegrees>
              <LongitudeDegrees>-3.7833196856081485748291015625</LongitudeDegrees>
            </Position>
            <AltitudeMeters>922.4000244140625</AltitudeMeters>
            <DistanceMeters>NAN</DistanceMeters>
          </Trackpoint>
          <Trackpoint>
            <Time>2020-03-07T16:12:35.000Z</Time>
            <Position>
              <LatitudeDegrees>40.75483225286006927490234375</LatitudeDegrees>
              <LongitudeDegrees>-3.7833280675113201141357421875</LongitudeDegrees>
            </Position>
            <AltitudeMeters>922.4000244140625</AltitudeMeters>
            <DistanceMeters>NAN</DistanceMeters>
          </Trackpoint>
          <Trackpoint>
            <Time>2020-03-07T16:12:36.000Z</Time>
            <Position>
              <LatitudeDegrees>40.7547630183398723602294921875</LatitudeDegrees>
              <LongitudeDegrees>-3.78333695232868194580078125</LongitudeDegrees>
            </Position>
            <AltitudeMeters>922.5999755859375</AltitudeMeters>
            <DistanceMeters>NAN</DistanceMeters>
          </Trackpoint>
          <Trackpoint>
            <Time>2020-03-07T16:12:37.000Z</Time>
            <Position>
              <LatitudeDegrees>40.75469370000064373016357421875</LatitudeDegrees>
              <LongitudeDegrees>-3.783346004784107208251953125</LongitudeDegrees>
            </Position>
            <AltitudeMeters>922.79998779296875</AltitudeMeters>
            <DistanceMeters>NAN</DistanceMeters>
          </Trackpoint>
          <Trackpoint>
            <Time>2020-03-07T16:12:38.000Z</Time>
            <Position>
              <LatitudeDegrees>40.75462396256625652313232421875</LatitudeDegrees>
              <LongitudeDegrees>-3.78335329703986644744873046875</LongitudeDegrees>
            </Position>
            <AltitudeMeters>922.79998779296875</AltitudeMeters>
            <DistanceMeters>NAN</DistanceMeters>
          </Trackpoint>
          <Trackpoint>
            <Time>2020-03-07T16:12:39.000Z</Time>
            <Position>
              <LatitudeDegrees>40.75455673970282077789306640625</LatitudeDegrees>
              <LongitudeDegrees>-3.78335765562951564788818359375</LongitudeDegrees>
            </Position>
            <AltitudeMeters>923</AltitudeMeters>
            <DistanceMeters>NAN</DistanceMeters>
          </Trackpoint>
          <Trackpoint>
            <Time>2020-03-07T16:12:40.000Z</Time>
            <Position>
              <LatitudeDegrees>40.75448867864906787872314453125</LatitudeDegrees>
              <LongitudeDegrees>-3.78336033783853054046630859375</LongitudeDegrees>
            </Position>
            <AltitudeMeters>923</AltitudeMeters>
            <DistanceMeters>NAN</DistanceMeters>
          </Trackpoint>
          <Trackpoint>
            <Time>2020-03-07T16:12:41.000Z</Time>
            <Position>
              <LatitudeDegrees>40.75442053377628326416015625</LatitudeDegrees>
              <LongitudeDegrees>-3.78336402587592601776123046875</LongitudeDegrees>
            </Position>
            <AltitudeMeters>923</AltitudeMeters>
            <DistanceMeters>NAN</DistanceMeters>
          </Trackpoint>
          <Trackpoint>
            <Time>2020-03-07T16:12:42.000Z</Time>
            <Position>
              <LatitudeDegrees>40.7543529756367206573486328125</LatitudeDegrees>
              <LongitudeDegrees>-3.78337207250297069549560546875</LongitudeDegrees>
            </Position>
            <AltitudeMeters>923</AltitudeMeters>
            <DistanceMeters>NAN</DistanceMeters>
          </Trackpoint>
          <Trackpoint>
            <Time>2020-03-07T16:12:43.000Z</Time>
            <Position>
              <LatitudeDegrees>40.75428583659231662750244140625</LatitudeDegrees>
              <LongitudeDegrees>-3.78339202143251895904541015625</LongitudeDegrees>
            </Position>
            <AltitudeMeters>923</AltitudeMeters>
            <DistanceMeters>NAN</DistanceMeters>
          </Trackpoint>
          <Trackpoint>
            <Time>2020-03-07T16:12:44.000Z</Time>
            <Position>
              <LatitudeDegrees>40.75428583659231662750244140625</LatitudeDegrees>
              <LongitudeDegrees>-3.78339202143251895904541015625</LongitudeDegrees>
            </Position>
            <AltitudeMeters>923</AltitudeMeters>
            <DistanceMeters>NAN</DistanceMeters>
          </Trackpoint>
          <Trackpoint>
            <Time>2020-03-07T16:12:45.000Z</Time>
            <Position>
              <LatitudeDegrees>40.75416304171085357666015625</LatitudeDegrees>
              <LongitudeDegrees>-3.7834849767386913299560546875</LongitudeDegrees>
            </Position>
            <AltitudeMeters>923</AltitudeMeters>
            <DistanceMeters>NAN</DistanceMeters>
          </Trackpoint>
          <Trackpoint>
            <Time>2020-03-07T16:12:46.000Z</Time>
            <Position>
              <LatitudeDegrees>40.75411182828247547149658203125</LatitudeDegrees>
              <LongitudeDegrees>-3.78355446271598339080810546875</LongitudeDegrees>
            </Position>
            <AltitudeMeters>923</AltitudeMeters>
            <DistanceMeters>NAN</DistanceMeters>
          </Trackpoint>
          <Trackpoint>
            <Time>2020-03-07T16:12:47.000Z</Time>
            <Position>
              <LatitudeDegrees>40.75406656600534915924072265625</LatitudeDegrees>
              <LongitudeDegrees>-3.78363191150128841400146484375</LongitudeDegrees>
            </Position>
            <AltitudeMeters>923</AltitudeMeters>
            <DistanceMeters>NAN</DistanceMeters>
          </Trackpoint>
          <Trackpoint>
            <Time>2020-03-07T16:12:48.000Z</Time>
            <Position>
              <LatitudeDegrees>40.75402356684207916259765625</LatitudeDegrees>
              <LongitudeDegrees>-3.78371489234268665313720703125</LongitudeDegrees>
            </Position>
            <AltitudeMeters>923</AltitudeMeters>
            <DistanceMeters>NAN</DistanceMeters>
          </Trackpoint>
          <Trackpoint>
            <Time>2020-03-07T16:12:49.000Z</Time>
            <Position>
              <LatitudeDegrees>40.75398006476461887359619140625</LatitudeDegrees>
              <LongitudeDegrees>-3.78379669971764087677001953125</LongitudeDegrees>
            </Position>
            <AltitudeMeters>922.79998779296875</AltitudeMeters>
            <DistanceMeters>NAN</DistanceMeters>
          </Trackpoint>
          <Trackpoint>
            <Time>2020-03-07T16:12:50.000Z</Time>
            <Position>
              <LatitudeDegrees>40.753934383392333984375</LatitudeDegrees>
              <LongitudeDegrees>-3.78387750126421451568603515625</LongitudeDegrees>
            </Position>
            <AltitudeMeters>922.5999755859375</AltitudeMeters>
            <DistanceMeters>NAN</DistanceMeters>
          </Trackpoint>
          <Trackpoint>
            <Time>2020-03-07T16:12:51.000Z</Time>
            <Position>
              <LatitudeDegrees>40.7538872770965099334716796875</LatitudeDegrees>
              <LongitudeDegrees>-3.783960230648517608642578125</LongitudeDegrees>
            </Position>
            <AltitudeMeters>922.4000244140625</AltitudeMeters>
            <DistanceMeters>NAN</DistanceMeters>
          </Trackpoint>
          <Trackpoint>
            <Time>2020-03-07T16:12:52.000Z</Time>
            <Position>
              <LatitudeDegrees>40.75384075753390789031982421875</LatitudeDegrees>
              <LongitudeDegrees>-3.7840425409376621246337890625</LongitudeDegrees>
            </Position>
            <AltitudeMeters>922.20001220703125</AltitudeMeters>
            <DistanceMeters>NAN</DistanceMeters>
          </Trackpoint>
          <Trackpoint>
            <Time>2020-03-07T16:12:53.000Z</Time>
            <Position>
              <LatitudeDegrees>40.75379482470452785491943359375</LatitudeDegrees>
              <LongitudeDegrees>-3.78412292338907718658447265625</LongitudeDegrees>
            </Position>
            <AltitudeMeters>922</AltitudeMeters>
            <DistanceMeters>NAN</DistanceMeters>
          </Trackpoint>
          <Trackpoint>
            <Time>2020-03-07T16:12:54.000Z</Time>
            <Position>
              <LatitudeDegrees>40.75374721549451351165771484375</LatitudeDegrees>
              <LongitudeDegrees>-3.784204982221126556396484375</LongitudeDegrees>
            </Position>
            <AltitudeMeters>922</AltitudeMeters>
            <DistanceMeters>NAN</DistanceMeters>
          </Trackpoint>
          <Trackpoint>
            <Time>2020-03-07T16:12:55.000Z</Time>
            <Position>
              <LatitudeDegrees>40.7536988519132137298583984375</LatitudeDegrees>
              <LongitudeDegrees>-3.78428670577704906463623046875</LongitudeDegrees>
            </Position>
            <AltitudeMeters>921.5999755859375</AltitudeMeters>
            <DistanceMeters>NAN</DistanceMeters>
          </Trackpoint>
          <Trackpoint>
            <Time>2020-03-07T16:12:56.000Z</Time>
            <Position>
              <LatitudeDegrees>40.75365216471254825592041015625</LatitudeDegrees>
              <LongitudeDegrees>-3.78436557948589324951171875</LongitudeDegrees>
            </Position>
            <AltitudeMeters>921.20001220703125</AltitudeMeters>
            <DistanceMeters>NAN</DistanceMeters>
          </Trackpoint>
          <Trackpoint>
            <Time>2020-03-07T16:12:57.000Z</Time>
            <Position>
              <LatitudeDegrees>40.7536043040454387664794921875</LatitudeDegrees>
              <LongitudeDegrees>-3.78444671630859375</LongitudeDegrees>
            </Position>
            <AltitudeMeters>920.79998779296875</AltitudeMeters>
            <DistanceMeters>NAN</DistanceMeters>
          </Trackpoint>
          <Trackpoint>
            <Time>2020-03-07T16:12:58.000Z</Time>
            <Position>
              <LatitudeDegrees>40.753555856645107269287109375</LatitudeDegrees>
              <LongitudeDegrees>-3.784528188407421112060546875</LongitudeDegrees>
            </Position>
            <AltitudeMeters>920.5999755859375</AltitudeMeters>
            <DistanceMeters>NAN</DistanceMeters>
          </Trackpoint>
          <Trackpoint>
            <Time>2020-03-07T16:12:59.000Z</Time>
            <Position>
              <LatitudeDegrees>40.75350615195930004119873046875</LatitudeDegrees>
              <LongitudeDegrees>-3.7846088223159313201904296875</LongitudeDegrees>
            </Position>
            <AltitudeMeters>920.4000244140625</AltitudeMeters>
            <DistanceMeters>NAN</DistanceMeters>
          </Trackpoint>
          <Trackpoint>
            <Time>2020-03-07T16:13:00.000Z</Time>
            <Position>
              <LatitudeDegrees>40.75345896184444427490234375</LatitudeDegrees>
              <LongitudeDegrees>-3.7846859358251094818115234375</LongitudeDegrees>
            </Position>
            <AltitudeMeters>920.20001220703125</AltitudeMeters>
            <DistanceMeters>NAN</DistanceMeters>
          </Trackpoint>
          <Trackpoint>
            <Time>2020-03-07T16:13:01.000Z</Time>
            <Position>
              <LatitudeDegrees>40.7534111849963665008544921875</LatitudeDegrees>
              <LongitudeDegrees>-3.78476732410490512847900390625</LongitudeDegrees>
            </Position>
            <AltitudeMeters>920.20001220703125</AltitudeMeters>
            <DistanceMeters>NAN</DistanceMeters>
          </Trackpoint>
          <Trackpoint>
            <Time>2020-03-07T16:13:02.000Z</Time>
            <Position>
              <LatitudeDegrees>40.75336533598601818084716796875</LatitudeDegrees>
              <LongitudeDegrees>-3.784852735698223114013671875</LongitudeDegrees>
            </Position>
            <AltitudeMeters>920.20001220703125</AltitudeMeters>
            <DistanceMeters>NAN</DistanceMeters>
          </Trackpoint>
          <Trackpoint>
            <Time>2020-03-07T16:13:03.000Z</Time>
            <Position>
              <LatitudeDegrees>40.7533173076808452606201171875</LatitudeDegrees>
              <LongitudeDegrees>-3.78493932075798511505126953125</LongitudeDegrees>
            </Position>
            <AltitudeMeters>920</AltitudeMeters>
            <DistanceMeters>NAN</DistanceMeters>
          </Trackpoint>
          <Trackpoint>
            <Time>2020-03-07T16:13:04.000Z</Time>
            <Position>
              <LatitudeDegrees>40.75326793827116489410400390625</LatitudeDegrees>
              <LongitudeDegrees>-3.78502540290355682373046875</LongitudeDegrees>
            </Position>
            <AltitudeMeters>920</AltitudeMeters>
            <DistanceMeters>NAN</DistanceMeters>
          </Trackpoint>
          <Trackpoint>
            <Time>2020-03-07T16:13:05.000Z</Time>
            <Position>
              <LatitudeDegrees>40.75321898795664310455322265625</LatitudeDegrees>
              <LongitudeDegrees>-3.78511198796331882476806640625</LongitudeDegrees>
            </Position>
            <AltitudeMeters>920</AltitudeMeters>
            <DistanceMeters>NAN</DistanceMeters>
          </Trackpoint>
          <Trackpoint>
            <Time>2020-03-07T16:13:06.000Z</Time>
            <Position>
              <LatitudeDegrees>40.753168947994709014892578125</LatitudeDegrees>
              <LongitudeDegrees>-3.78519496880471706390380859375</LongitudeDegrees>
            </Position>
            <AltitudeMeters>920</AltitudeMeters>
            <DistanceMeters>NAN</DistanceMeters>
          </Trackpoint>
          <Trackpoint>
            <Time>2020-03-07T16:13:07.000Z</Time>
            <Position>
              <LatitudeDegrees>40.7531154714524745941162109375</LatitudeDegrees>
              <LongitudeDegrees>-3.78527711145579814910888671875</LongitudeDegrees>
            </Position>
            <AltitudeMeters>920</AltitudeMeters>
            <DistanceMeters>NAN</DistanceMeters>
          </Trackpoint>
          <Trackpoint>
            <Time>2020-03-07T16:13:08.000Z</Time>
            <Position>
              <LatitudeDegrees>40.75306341983377933502197265625</LatitudeDegrees>
              <LongitudeDegrees>-3.7853605113923549652099609375</LongitudeDegrees>
            </Position>
            <AltitudeMeters>920</AltitudeMeters>
            <DistanceMeters>NAN</DistanceMeters>
          </Trackpoint>
          <Trackpoint>
            <Time>2020-03-07T16:13:09.000Z</Time>
            <Position>
              <LatitudeDegrees>40.75301329605281352996826171875</LatitudeDegrees>
              <LongitudeDegrees>-3.785444833338260650634765625</LongitudeDegrees>
            </Position>
            <AltitudeMeters>919.79998779296875</AltitudeMeters>
            <DistanceMeters>NAN</DistanceMeters>
          </Trackpoint>
          <Trackpoint>
            <Time>2020-03-07T16:13:10.000Z</Time>
            <Position>
              <LatitudeDegrees>40.7529635913670063018798828125</LatitudeDegrees>
              <LongitudeDegrees>-3.78553108312189579010009765625</LongitudeDegrees>
            </Position>
            <AltitudeMeters>919.79998779296875</AltitudeMeters>
            <DistanceMeters>NAN</DistanceMeters>
          </Trackpoint>
          <Trackpoint>
            <Time>2020-03-07T16:13:11.000Z</Time>
            <Position>
              <LatitudeDegrees>40.75291271321475505828857421875</LatitudeDegrees>
              <LongitudeDegrees>-3.7856175005435943603515625</LongitudeDegrees>
            </Position>
            <AltitudeMeters>919.4000244140625</AltitudeMeters>
            <DistanceMeters>NAN</DistanceMeters>
          </Trackpoint>
          <Trackpoint>
            <Time>2020-03-07T16:13:12.000Z</Time>
            <Position>
              <LatitudeDegrees>40.75286124832928180694580078125</LatitudeDegrees>
              <LongitudeDegrees>-3.785700984299182891845703125</LongitudeDegrees>
            </Position>
            <AltitudeMeters>919.4000244140625</AltitudeMeters>
            <DistanceMeters>NAN</DistanceMeters>
          </Trackpoint>
          <Trackpoint>
            <Time>2020-03-07T16:13:13.000Z</Time>
            <Position>
              <LatitudeDegrees>40.75280852615833282470703125</LatitudeDegrees>
              <LongitudeDegrees>-3.78578186966478824615478515625</LongitudeDegrees>
            </Position>
            <AltitudeMeters>919.20001220703125</AltitudeMeters>
            <DistanceMeters>NAN</DistanceMeters>
          </Trackpoint>
          <Trackpoint>
            <Time>2020-03-07T16:13:14.000Z</Time>
            <Position>
              <LatitudeDegrees>40.7527580671012401580810546875</LatitudeDegrees>
              <LongitudeDegrees>-3.78586250357329845428466796875</LongitudeDegrees>
            </Position>
            <AltitudeMeters>919</AltitudeMeters>
            <DistanceMeters>NAN</DistanceMeters>
          </Trackpoint>
          <Trackpoint>
            <Time>2020-03-07T16:13:15.000Z</Time>
            <Position>
              <LatitudeDegrees>40.75270836241543292999267578125</LatitudeDegrees>
              <LongitudeDegrees>-3.7859455682337284088134765625</LongitudeDegrees>
            </Position>
            <AltitudeMeters>919</AltitudeMeters>
            <DistanceMeters>NAN</DistanceMeters>
          </Trackpoint>
          <Trackpoint>
            <Time>2020-03-07T16:13:16.000Z</Time>
            <Position>
              <LatitudeDegrees>40.75266008265316486358642578125</LatitudeDegrees>
              <LongitudeDegrees>-3.78602930344641208648681640625</LongitudeDegrees>
            </Position>
            <AltitudeMeters>919</AltitudeMeters>
            <DistanceMeters>NAN</DistanceMeters>
          </Trackpoint>
          <Trackpoint>
            <Time>2020-03-07T16:13:17.000Z</Time>
            <Position>
              <LatitudeDegrees>40.75261364690959453582763671875</LatitudeDegrees>
              <LongitudeDegrees>-3.78611437976360321044921875</LongitudeDegrees>
            </Position>
            <AltitudeMeters>918.79998779296875</AltitudeMeters>
            <DistanceMeters>NAN</DistanceMeters>
          </Trackpoint>
          <Trackpoint>
            <Time>2020-03-07T16:13:18.000Z</Time>
            <Position>
              <LatitudeDegrees>40.75256989337503910064697265625</LatitudeDegrees>
              <LongitudeDegrees>-3.7862030602991580963134765625</LongitudeDegrees>
            </Position>
            <AltitudeMeters>918.79998779296875</AltitudeMeters>
            <DistanceMeters>NAN</DistanceMeters>
          </Trackpoint>
          <Trackpoint>
            <Time>2020-03-07T16:13:19.000Z</Time>
            <Position>
              <LatitudeDegrees>40.75252287089824676513671875</LatitudeDegrees>
              <LongitudeDegrees>-3.78629132173955440521240234375</LongitudeDegrees>
            </Position>
            <AltitudeMeters>918.79998779296875</AltitudeMeters>
            <DistanceMeters>NAN</DistanceMeters>
          </Trackpoint>
          <Trackpoint>
            <Time>2020-03-07T16:13:20.000Z</Time>
            <Position>
              <LatitudeDegrees>40.75247417204082012176513671875</LatitudeDegrees>
              <LongitudeDegrees>-3.78637916408479213714599609375</LongitudeDegrees>
            </Position>
            <AltitudeMeters>918.5999755859375</AltitudeMeters>
            <DistanceMeters>NAN</DistanceMeters>
          </Trackpoint>
          <Trackpoint>
            <Time>2020-03-07T16:13:21.000Z</Time>
            <Position>
              <LatitudeDegrees>40.75242371298372745513916015625</LatitudeDegrees>
              <LongitudeDegrees>-3.786466754972934722900390625</LongitudeDegrees>
            </Position>
            <AltitudeMeters>918.20001220703125</AltitudeMeters>
            <DistanceMeters>NAN</DistanceMeters>
          </Trackpoint>
          <Trackpoint>
            <Time>2020-03-07T16:13:22.000Z</Time>
            <Position>
              <LatitudeDegrees>40.752371661365032196044921875</LatitudeDegrees>
              <LongitudeDegrees>-3.7865530885756015777587890625</LongitudeDegrees>
            </Position>
            <AltitudeMeters>918</AltitudeMeters>
            <DistanceMeters>NAN</DistanceMeters>
          </Trackpoint>
          <Trackpoint>
            <Time>2020-03-07T16:13:23.000Z</Time>
            <Position>
              <LatitudeDegrees>40.75231994502246379852294921875</LatitudeDegrees>
              <LongitudeDegrees>-3.78664009273052215576171875</LongitudeDegrees>
            </Position>
            <AltitudeMeters>917.79998779296875</AltitudeMeters>
            <DistanceMeters>NAN</DistanceMeters>
          </Trackpoint>
          <Trackpoint>
            <Time>2020-03-07T16:13:24.000Z</Time>
            <Position>
              <LatitudeDegrees>40.75226948596537113189697265625</LatitudeDegrees>
              <LongitudeDegrees>-3.78672835417091846466064453125</LongitudeDegrees>
            </Position>
            <AltitudeMeters>917.79998779296875</AltitudeMeters>
            <DistanceMeters>NAN</DistanceMeters>
          </Trackpoint>
          <Trackpoint>
            <Time>2020-03-07T16:13:25.000Z</Time>
            <Position>
              <LatitudeDegrees>40.752220451831817626953125</LatitudeDegrees>
              <LongitudeDegrees>-3.78681787289679050445556640625</LongitudeDegrees>
            </Position>
            <AltitudeMeters>917.4000244140625</AltitudeMeters>
            <DistanceMeters>NAN</DistanceMeters>
          </Trackpoint>
          <Trackpoint>
            <Time>2020-03-07T16:13:26.000Z</Time>
            <Position>
              <LatitudeDegrees>40.75217150151729583740234375</LatitudeDegrees>
              <LongitudeDegrees>-3.78690563142299652099609375</LongitudeDegrees>
            </Position>
            <AltitudeMeters>917.4000244140625</AltitudeMeters>
            <DistanceMeters>NAN</DistanceMeters>
          </Trackpoint>
          <Trackpoint>
            <Time>2020-03-07T16:13:27.000Z</Time>
            <Position>
              <LatitudeDegrees>40.75212196446955204010009765625</LatitudeDegrees>
              <LongitudeDegrees>-3.78699288703501224517822265625</LongitudeDegrees>
            </Position>
            <AltitudeMeters>917</AltitudeMeters>
            <DistanceMeters>NAN</DistanceMeters>
          </Trackpoint>
          <Trackpoint>
            <Time>2020-03-07T16:13:28.000Z</Time>
            <Position>
              <LatitudeDegrees>40.7520724274218082427978515625</LatitudeDegrees>
              <LongitudeDegrees>-3.78707804717123508453369140625</LongitudeDegrees>
            </Position>
            <AltitudeMeters>916.79998779296875</AltitudeMeters>
            <DistanceMeters>NAN</DistanceMeters>
          </Trackpoint>
          <Trackpoint>
            <Time>2020-03-07T16:13:29.000Z</Time>
            <Position>
              <LatitudeDegrees>40.7520221360027790069580078125</LatitudeDegrees>
              <LongitudeDegrees>-3.787159435451030731201171875</LongitudeDegrees>
            </Position>
            <AltitudeMeters>916.5999755859375</AltitudeMeters>
            <DistanceMeters>NAN</DistanceMeters>
          </Trackpoint>
          <Trackpoint>
            <Time>2020-03-07T16:13:30.000Z</Time>
            <Position>
              <LatitudeDegrees>40.751972682774066925048828125</LatitudeDegrees>
              <LongitudeDegrees>-3.787241242825984954833984375</LongitudeDegrees>
            </Position>
            <AltitudeMeters>916.5999755859375</AltitudeMeters>
            <DistanceMeters>NAN</DistanceMeters>
          </Trackpoint>
          <Trackpoint>
            <Time>2020-03-07T16:13:31.000Z</Time>
            <Position>
              <LatitudeDegrees>40.75192348100244998931884765625</LatitudeDegrees>
              <LongitudeDegrees>-3.78732263110578060150146484375</LongitudeDegrees>
            </Position>
            <AltitudeMeters>916.4000244140625</AltitudeMeters>
            <DistanceMeters>NAN</DistanceMeters>
          </Trackpoint>
          <Trackpoint>
            <Time>2020-03-07T16:13:32.000Z</Time>
            <Position>
              <LatitudeDegrees>40.75192348100244998931884765625</LatitudeDegrees>
              <LongitudeDegrees>-3.78732263110578060150146484375</LongitudeDegrees>
            </Position>
            <AltitudeMeters>916.20001220703125</AltitudeMeters>
            <DistanceMeters>NAN</DistanceMeters>
          </Trackpoint>
          <Trackpoint>
            <Time>2020-03-07T16:13:33.000Z</Time>
            <Position>
              <LatitudeDegrees>40.7518732734024524688720703125</LatitudeDegrees>
              <LongitudeDegrees>-3.78740661777555942535400390625</LongitudeDegrees>
            </Position>
            <AltitudeMeters>916.20001220703125</AltitudeMeters>
            <DistanceMeters>NAN</DistanceMeters>
          </Trackpoint>
          <Trackpoint>
            <Time>2020-03-07T16:13:34.000Z</Time>
            <Position>
              <LatitudeDegrees>40.75182189233601093292236328125</LatitudeDegrees>
              <LongitudeDegrees>-3.7874915264546871185302734375</LongitudeDegrees>
            </Position>
            <AltitudeMeters>916.20001220703125</AltitudeMeters>
            <DistanceMeters>NAN</DistanceMeters>
          </Trackpoint>
          <Trackpoint>
            <Time>2020-03-07T16:13:35.000Z</Time>
            <Position>
              <LatitudeDegrees>40.75177294202148914337158203125</LatitudeDegrees>
              <LongitudeDegrees>-3.787575848400592803955078125</LongitudeDegrees>
            </Position>
            <AltitudeMeters>916.20001220703125</AltitudeMeters>
            <DistanceMeters>NAN</DistanceMeters>
          </Trackpoint>
          <Trackpoint>
            <Time>2020-03-07T16:13:36.000Z</Time>
            <Position>
              <LatitudeDegrees>40.75167126953601837158203125</LatitudeDegrees>
              <LongitudeDegrees>-3.78774424083530902862548828125</LongitudeDegrees>
            </Position>
            <AltitudeMeters>916.20001220703125</AltitudeMeters>
            <DistanceMeters>NAN</DistanceMeters>
          </Trackpoint>
          <Trackpoint>
            <Time>2020-03-07T16:13:37.000Z</Time>
            <Position>
              <LatitudeDegrees>40.7516198046505451202392578125</LatitudeDegrees>
              <LongitudeDegrees>-3.787829317152500152587890625</LongitudeDegrees>
            </Position>
            <AltitudeMeters>916.20001220703125</AltitudeMeters>
            <DistanceMeters>NAN</DistanceMeters>
          </Trackpoint>
          <Trackpoint>
            <Time>2020-03-07T16:13:38.000Z</Time>
            <Position>
              <LatitudeDegrees>40.7516198046505451202392578125</LatitudeDegrees>
              <LongitudeDegrees>-3.787829317152500152587890625</LongitudeDegrees>
            </Position>
            <AltitudeMeters>916</AltitudeMeters>
            <DistanceMeters>NAN</DistanceMeters>
          </Trackpoint>
          <Trackpoint>
            <Time>2020-03-07T16:13:39.000Z</Time>
            <Position>
              <LatitudeDegrees>40.751515366137027740478515625</LatitudeDegrees>
              <LongitudeDegrees>-3.78800072707235813140869140625</LongitudeDegrees>
            </Position>
            <AltitudeMeters>916</AltitudeMeters>
            <DistanceMeters>NAN</DistanceMeters>
          </Trackpoint>
          <Trackpoint>
            <Time>2020-03-07T16:13:40.000Z</Time>
            <Position>
              <LatitudeDegrees>40.751515366137027740478515625</LatitudeDegrees>
              <LongitudeDegrees>-3.78800072707235813140869140625</LongitudeDegrees>
            </Position>
            <AltitudeMeters>916</AltitudeMeters>
            <DistanceMeters>NAN</DistanceMeters>
          </Trackpoint>
          <Trackpoint>
            <Time>2020-03-07T16:13:41.000Z</Time>
            <Position>
              <LatitudeDegrees>40.75141704641282558441162109375</LatitudeDegrees>
              <LongitudeDegrees>-3.78816970624029636383056640625</LongitudeDegrees>
            </Position>
            <AltitudeMeters>916</AltitudeMeters>
            <DistanceMeters>NAN</DistanceMeters>
          </Trackpoint>
          <Trackpoint>
            <Time>2020-03-07T16:13:42.000Z</Time>
            <Position>
              <LatitudeDegrees>40.751365832984447479248046875</LatitudeDegrees>
              <LongitudeDegrees>-3.7882515974342823028564453125</LongitudeDegrees>
            </Position>
            <AltitudeMeters>916</AltitudeMeters>
            <DistanceMeters>NAN</DistanceMeters>
          </Trackpoint>
          <Trackpoint>
            <Time>2020-03-07T16:13:43.000Z</Time>
            <Position>
              <LatitudeDegrees>40.751314200460910797119140625</LatitudeDegrees>
              <LongitudeDegrees>-3.7883330695331096649169921875</LongitudeDegrees>
            </Position>
            <AltitudeMeters>916</AltitudeMeters>
            <DistanceMeters>NAN</DistanceMeters>
          </Trackpoint>
          <Trackpoint>
            <Time>2020-03-07T16:13:44.000Z</Time>
            <Position>
              <LatitudeDegrees>40.751314200460910797119140625</LatitudeDegrees>
              <LongitudeDegrees>-3.7883330695331096649169921875</LongitudeDegrees>
            </Position>
            <AltitudeMeters>915.79998779296875</AltitudeMeters>
            <DistanceMeters>NAN</DistanceMeters>
          </Trackpoint>
          <Trackpoint>
            <Time>2020-03-07T16:13:45.000Z</Time>
            <Position>
              <LatitudeDegrees>40.75121931731700897216796875</LatitudeDegrees>
              <LongitudeDegrees>-3.788494504988193511962890625</LongitudeDegrees>
            </Position>
            <AltitudeMeters>915.5999755859375</AltitudeMeters>
            <DistanceMeters>NAN</DistanceMeters>
          </Trackpoint>
          <Trackpoint>
            <Time>2020-03-07T16:13:46.000Z</Time>
            <Position>
              <LatitudeDegrees>40.7511725462973117828369140625</LatitudeDegrees>
              <LongitudeDegrees>-3.78857471980154514312744140625</LongitudeDegrees>
            </Position>
            <AltitudeMeters>915.5999755859375</AltitudeMeters>
            <DistanceMeters>NAN</DistanceMeters>
          </Trackpoint>
          <Trackpoint>
            <Time>2020-03-07T16:13:47.000Z</Time>
            <Position>
              <LatitudeDegrees>40.7511274516582489013671875</LatitudeDegrees>
              <LongitudeDegrees>-3.78865686245262622833251953125</LongitudeDegrees>
            </Position>
            <AltitudeMeters>915.5999755859375</AltitudeMeters>
            <DistanceMeters>NAN</DistanceMeters>
          </Trackpoint>
          <Trackpoint>
            <Time>2020-03-07T16:13:48.000Z</Time>
            <Position>
              <LatitudeDegrees>40.7510880567133426666259765625</LatitudeDegrees>
              <LongitudeDegrees>-3.78873917274177074432373046875</LongitudeDegrees>
            </Position>
            <AltitudeMeters>915.5999755859375</AltitudeMeters>
            <DistanceMeters>NAN</DistanceMeters>
          </Trackpoint>
          <Trackpoint>
            <Time>2020-03-07T16:13:49.000Z</Time>
            <Position>
              <LatitudeDegrees>40.7510582171380519866943359375</LatitudeDegrees>
              <LongitudeDegrees>-3.78882684744894504547119140625</LongitudeDegrees>
            </Position>
            <AltitudeMeters>915.5999755859375</AltitudeMeters>
            <DistanceMeters>NAN</DistanceMeters>
          </Trackpoint>
          <Trackpoint>
            <Time>2020-03-07T16:13:50.000Z</Time>
            <Position>
              <LatitudeDegrees>40.7510582171380519866943359375</LatitudeDegrees>
              <LongitudeDegrees>-3.78882684744894504547119140625</LongitudeDegrees>
            </Position>
            <AltitudeMeters>915.5999755859375</AltitudeMeters>
            <DistanceMeters>NAN</DistanceMeters>
          </Trackpoint>
          <Trackpoint>
            <Time>2020-03-07T16:13:51.000Z</Time>
            <Position>
              <LatitudeDegrees>40.75102041475474834442138671875</LatitudeDegrees>
              <LongitudeDegrees>-3.78901259042322635650634765625</LongitudeDegrees>
            </Position>
            <AltitudeMeters>915.5999755859375</AltitudeMeters>
            <DistanceMeters>NAN</DistanceMeters>
          </Trackpoint>
          <Trackpoint>
            <Time>2020-03-07T16:13:52.000Z</Time>
            <Position>
              <LatitudeDegrees>40.7510079257190227508544921875</LatitudeDegrees>
              <LongitudeDegrees>-3.78910479135811328887939453125</LongitudeDegrees>
            </Position>
            <AltitudeMeters>915.5999755859375</AltitudeMeters>
            <DistanceMeters>NAN</DistanceMeters>
          </Trackpoint>
          <Trackpoint>
            <Time>2020-03-07T16:13:53.000Z</Time>
            <Position>
              <LatitudeDegrees>40.7509971968829631805419921875</LatitudeDegrees>
              <LongitudeDegrees>-3.789195232093334197998046875</LongitudeDegrees>
            </Position>
            <AltitudeMeters>915.5999755859375</AltitudeMeters>
            <DistanceMeters>NAN</DistanceMeters>
          </Trackpoint>
          <Trackpoint>
            <Time>2020-03-07T16:13:54.000Z</Time>
            <Position>
              <LatitudeDegrees>40.7509884797036647796630859375</LatitudeDegrees>
              <LongitudeDegrees>-3.78928609192371368408203125</LongitudeDegrees>
            </Position>
            <AltitudeMeters>915.5999755859375</AltitudeMeters>
            <DistanceMeters>NAN</DistanceMeters>
          </Trackpoint>
          <Trackpoint>
            <Time>2020-03-07T16:13:55.000Z</Time>
            <Position>
              <LatitudeDegrees>40.7509807683527469635009765625</LatitudeDegrees>
              <LongitudeDegrees>-3.78937586210668087005615234375</LongitudeDegrees>
            </Position>
            <AltitudeMeters>915.5999755859375</AltitudeMeters>
            <DistanceMeters>NAN</DistanceMeters>
          </Trackpoint>
          <Trackpoint>
            <Time>2020-03-07T16:13:56.000Z</Time>
            <Position>
              <LatitudeDegrees>40.7509807683527469635009765625</LatitudeDegrees>
              <LongitudeDegrees>-3.78937586210668087005615234375</LongitudeDegrees>
            </Position>
            <AltitudeMeters>915.79998779296875</AltitudeMeters>
            <DistanceMeters>NAN</DistanceMeters>
          </Trackpoint>
          <Trackpoint>
            <Time>2020-03-07T16:13:57.000Z</Time>
            <Position>
              <LatitudeDegrees>40.75096475891768932342529296875</LatitudeDegrees>
              <LongitudeDegrees>-3.78955255262553691864013671875</LongitudeDegrees>
            </Position>
            <AltitudeMeters>915.79998779296875</AltitudeMeters>
            <DistanceMeters>NAN</DistanceMeters>
          </Trackpoint>
          <Trackpoint>
            <Time>2020-03-07T16:13:58.000Z</Time>
            <Position>
              <LatitudeDegrees>40.75095570646226406097412109375</LatitudeDegrees>
              <LongitudeDegrees>-3.78964140079915523529052734375</LongitudeDegrees>
            </Position>
            <AltitudeMeters>916</AltitudeMeters>
            <DistanceMeters>NAN</DistanceMeters>
          </Trackpoint>
          <Trackpoint>
            <Time>2020-03-07T16:13:59.000Z</Time>
            <Position>
              <LatitudeDegrees>40.7509472407400608062744140625</LatitudeDegrees>
              <LongitudeDegrees>-3.789728321135044097900390625</LongitudeDegrees>
            </Position>
            <AltitudeMeters>916</AltitudeMeters>
            <DistanceMeters>NAN</DistanceMeters>
          </Trackpoint>
          <Trackpoint>
            <Time>2020-03-07T16:14:00.000Z</Time>
            <Position>
              <LatitudeDegrees>40.750938355922698974609375</LatitudeDegrees>
              <LongitudeDegrees>-3.78981440328061580657958984375</LongitudeDegrees>
            </Position>
            <AltitudeMeters>916.4000244140625</AltitudeMeters>
            <DistanceMeters>NAN</DistanceMeters>
          </Trackpoint>
          <Trackpoint>
            <Time>2020-03-07T16:14:01.000Z</Time>
            <Position>
              <LatitudeDegrees>40.7509262859821319580078125</LatitudeDegrees>
              <LongitudeDegrees>-3.78989897668361663818359375</LongitudeDegrees>
            </Position>
            <AltitudeMeters>916.79998779296875</AltitudeMeters>
            <DistanceMeters>NAN</DistanceMeters>
          </Trackpoint>
          <Trackpoint>
            <Time>2020-03-07T16:14:02.000Z</Time>
            <Position>
              <LatitudeDegrees>40.7509262859821319580078125</LatitudeDegrees>
              <LongitudeDegrees>-3.78989897668361663818359375</LongitudeDegrees>
            </Position>
            <AltitudeMeters>917</AltitudeMeters>
            <DistanceMeters>NAN</DistanceMeters>
          </Trackpoint>
          <Trackpoint>
            <Time>2020-03-07T16:14:03.000Z</Time>
            <Position>
              <LatitudeDegrees>40.7509060017764568328857421875</LatitudeDegrees>
              <LongitudeDegrees>-3.79007524810731410980224609375</LongitudeDegrees>
            </Position>
            <AltitudeMeters>917</AltitudeMeters>
            <DistanceMeters>NAN</DistanceMeters>
          </Trackpoint>
          <Trackpoint>
            <Time>2020-03-07T16:14:04.000Z</Time>
            <Position>
              <LatitudeDegrees>40.75089879333972930908203125</LatitudeDegrees>
              <LongitudeDegrees>-3.790163509547710418701171875</LongitudeDegrees>
            </Position>
            <AltitudeMeters>917.4000244140625</AltitudeMeters>
            <DistanceMeters>NAN</DistanceMeters>
          </Trackpoint>
          <Trackpoint>
            <Time>2020-03-07T16:14:05.000Z</Time>
            <Position>
              <LatitudeDegrees>40.750891081988811492919921875</LatitudeDegrees>
              <LongitudeDegrees>-3.790252692997455596923828125</LongitudeDegrees>
            </Position>
            <AltitudeMeters>917.5999755859375</AltitudeMeters>
            <DistanceMeters>NAN</DistanceMeters>
          </Trackpoint>
          <Trackpoint>
            <Time>2020-03-07T16:14:06.000Z</Time>
            <Position>
              <LatitudeDegrees>40.75088295154273509979248046875</LatitudeDegrees>
              <LongitudeDegrees>-3.79034279845654964447021484375</LongitudeDegrees>
            </Position>
            <AltitudeMeters>917.79998779296875</AltitudeMeters>
            <DistanceMeters>NAN</DistanceMeters>
          </Trackpoint>
          <Trackpoint>
            <Time>2020-03-07T16:14:07.000Z</Time>
            <Position>
              <LatitudeDegrees>40.75087373144924640655517578125</LatitudeDegrees>
              <LongitudeDegrees>-3.79043466411530971527099609375</LongitudeDegrees>
            </Position>
            <AltitudeMeters>918</AltitudeMeters>
            <DistanceMeters>NAN</DistanceMeters>
          </Trackpoint>
          <Trackpoint>
            <Time>2020-03-07T16:14:08.000Z</Time>
            <Position>
              <LatitudeDegrees>40.75086392462253570556640625</LatitudeDegrees>
              <LongitudeDegrees>-3.790527284145355224609375</LongitudeDegrees>
            </Position>
            <AltitudeMeters>918</AltitudeMeters>
            <DistanceMeters>NAN</DistanceMeters>
          </Trackpoint>
          <Trackpoint>
            <Time>2020-03-07T16:14:09.000Z</Time>
            <Position>
              <LatitudeDegrees>40.75085244141519069671630859375</LatitudeDegrees>
              <LongitudeDegrees>-3.7906225025653839111328125</LongitudeDegrees>
            </Position>
            <AltitudeMeters>918.20001220703125</AltitudeMeters>
            <DistanceMeters>NAN</DistanceMeters>
          </Trackpoint>
          <Trackpoint>
            <Time>2020-03-07T16:14:10.000Z</Time>
            <Position>
              <LatitudeDegrees>40.75084221549332141876220703125</LatitudeDegrees>
              <LongitudeDegrees>-3.79071529023349285125732421875</LongitudeDegrees>
            </Position>
            <AltitudeMeters>918.4000244140625</AltitudeMeters>
            <DistanceMeters>NAN</DistanceMeters>
          </Trackpoint>
          <Trackpoint>
            <Time>2020-03-07T16:14:11.000Z</Time>
            <Position>
              <LatitudeDegrees>40.750832073390483856201171875</LatitudeDegrees>
              <LongitudeDegrees>-3.7908090837299823760986328125</LongitudeDegrees>
            </Position>
            <AltitudeMeters>918.4000244140625</AltitudeMeters>
            <DistanceMeters>NAN</DistanceMeters>
          </Trackpoint>
          <Trackpoint>
            <Time>2020-03-07T16:14:12.000Z</Time>
            <Position>
              <LatitudeDegrees>40.75082276947796344757080078125</LatitudeDegrees>
              <LongitudeDegrees>-3.79090212285518646240234375</LongitudeDegrees>
            </Position>
            <AltitudeMeters>918.20001220703125</AltitudeMeters>
            <DistanceMeters>NAN</DistanceMeters>
          </Trackpoint>
          <Trackpoint>
            <Time>2020-03-07T16:14:13.000Z</Time>
            <Position>
              <LatitudeDegrees>40.75081271119415760040283203125</LatitudeDegrees>
              <LongitudeDegrees>-3.790996335446834564208984375</LongitudeDegrees>
            </Position>
            <AltitudeMeters>918.20001220703125</AltitudeMeters>
            <DistanceMeters>NAN</DistanceMeters>
          </Trackpoint>
          <Trackpoint>
            <Time>2020-03-07T16:14:14.000Z</Time>
            <Position>
              <LatitudeDegrees>40.7508029043674468994140625</LatitudeDegrees>
              <LongitudeDegrees>-3.79109029658138751983642578125</LongitudeDegrees>
            </Position>
            <AltitudeMeters>918.4000244140625</AltitudeMeters>
            <DistanceMeters>NAN</DistanceMeters>
          </Trackpoint>
          <Trackpoint>
            <Time>2020-03-07T16:14:15.000Z</Time>
            <Position>
              <LatitudeDegrees>40.7507946901023387908935546875</LatitudeDegrees>
              <LongitudeDegrees>-3.79118300043046474456787109375</LongitudeDegrees>
            </Position>
            <AltitudeMeters>918.4000244140625</AltitudeMeters>
            <DistanceMeters>NAN</DistanceMeters>
          </Trackpoint>
          <Trackpoint>
            <Time>2020-03-07T16:14:16.000Z</Time>
            <Position>
              <LatitudeDegrees>40.750783793628215789794921875</LatitudeDegrees>
              <LongitudeDegrees>-3.79127671010792255401611328125</LongitudeDegrees>
            </Position>
            <AltitudeMeters>918.4000244140625</AltitudeMeters>
            <DistanceMeters>NAN</DistanceMeters>
          </Trackpoint>
          <Trackpoint>
            <Time>2020-03-07T16:14:17.000Z</Time>
            <Position>
              <LatitudeDegrees>40.75077231042087078094482421875</LatitudeDegrees>
              <LongitudeDegrees>-3.791371174156665802001953125</LongitudeDegrees>
            </Position>
            <AltitudeMeters>918.4000244140625</AltitudeMeters>
            <DistanceMeters>NAN</DistanceMeters>
          </Trackpoint>
          <Trackpoint>
            <Time>2020-03-07T16:14:18.000Z</Time>
            <Position>
              <LatitudeDegrees>40.7507611624896526336669921875</LatitudeDegrees>
              <LongitudeDegrees>-3.79146429710090160369873046875</LongitudeDegrees>
            </Position>
            <AltitudeMeters>918.20001220703125</AltitudeMeters>
            <DistanceMeters>NAN</DistanceMeters>
          </Trackpoint>
          <Trackpoint>
            <Time>2020-03-07T16:14:19.000Z</Time>
            <Position>
              <LatitudeDegrees>40.75074917636811733245849609375</LatitudeDegrees>
              <LongitudeDegrees>-3.791556246578693389892578125</LongitudeDegrees>
            </Position>
            <AltitudeMeters>918.20001220703125</AltitudeMeters>
            <DistanceMeters>NAN</DistanceMeters>
          </Trackpoint>
          <Trackpoint>
            <Time>2020-03-07T16:14:20.000Z</Time>
            <Position>
              <LatitudeDegrees>40.7507370226085186004638671875</LatitudeDegrees>
              <LongitudeDegrees>-3.7916476093232631683349609375</LongitudeDegrees>
            </Position>
            <AltitudeMeters>918.20001220703125</AltitudeMeters>
            <DistanceMeters>NAN</DistanceMeters>
          </Trackpoint>
          <Trackpoint>
            <Time>2020-03-07T16:14:21.000Z</Time>
            <Position>
              <LatitudeDegrees>40.75072369538247585296630859375</LatitudeDegrees>
              <LongitudeDegrees>-3.7917388044297695159912109375</LongitudeDegrees>
            </Position>
            <AltitudeMeters>918</AltitudeMeters>
            <DistanceMeters>NAN</DistanceMeters>
          </Trackpoint>
          <Trackpoint>
            <Time>2020-03-07T16:14:22.000Z</Time>
            <Position>
              <LatitudeDegrees>40.75070659630000591278076171875</LatitudeDegrees>
              <LongitudeDegrees>-3.7918306700885295867919921875</LongitudeDegrees>
            </Position>
            <AltitudeMeters>918</AltitudeMeters>
            <DistanceMeters>NAN</DistanceMeters>
          </Trackpoint>
          <Trackpoint>
            <Time>2020-03-07T16:14:23.000Z</Time>
            <Position>
              <LatitudeDegrees>40.7506870664656162261962890625</LatitudeDegrees>
              <LongitudeDegrees>-3.791921697556972503662109375</LongitudeDegrees>
            </Position>
            <AltitudeMeters>918</AltitudeMeters>
            <DistanceMeters>NAN</DistanceMeters>
          </Trackpoint>
          <Trackpoint>
            <Time>2020-03-07T16:14:24.000Z</Time>
            <Position>
              <LatitudeDegrees>40.750664770603179931640625</LatitudeDegrees>
              <LongitudeDegrees>-3.79201180301606655120849609375</LongitudeDegrees>
            </Position>
            <AltitudeMeters>918</AltitudeMeters>
            <DistanceMeters>NAN</DistanceMeters>
          </Trackpoint>
          <Trackpoint>
            <Time>2020-03-07T16:14:25.000Z</Time>
            <Position>
              <LatitudeDegrees>40.7506411336362361907958984375</LatitudeDegrees>
              <LongitudeDegrees>-3.7921003997325897216796875</LongitudeDegrees>
            </Position>
            <AltitudeMeters>918</AltitudeMeters>
            <DistanceMeters>NAN</DistanceMeters>
          </Trackpoint>
          <Trackpoint>
            <Time>2020-03-07T16:14:26.000Z</Time>
            <Position>
              <LatitudeDegrees>40.7506163232028484344482421875</LatitudeDegrees>
              <LongitudeDegrees>-3.792188577353954315185546875</LongitudeDegrees>
            </Position>
            <AltitudeMeters>918</AltitudeMeters>
            <DistanceMeters>NAN</DistanceMeters>
          </Trackpoint>
          <Trackpoint>
            <Time>2020-03-07T16:14:27.000Z</Time>
            <Position>
              <LatitudeDegrees>40.75059142895042896270751953125</LatitudeDegrees>
              <LongitudeDegrees>-3.792275749146938323974609375</LongitudeDegrees>
            </Position>
            <AltitudeMeters>918</AltitudeMeters>
            <DistanceMeters>NAN</DistanceMeters>
          </Trackpoint>
          <Trackpoint>
            <Time>2020-03-07T16:14:28.000Z</Time>
            <Position>
              <LatitudeDegrees>40.75056594796478748321533203125</LatitudeDegrees>
              <LongitudeDegrees>-3.79236250184476375579833984375</LongitudeDegrees>
            </Position>
            <AltitudeMeters>917.79998779296875</AltitudeMeters>
            <DistanceMeters>NAN</DistanceMeters>
          </Trackpoint>
          <Trackpoint>
            <Time>2020-03-07T16:14:29.000Z</Time>
            <Position>
              <LatitudeDegrees>40.7505373656749725341796875</LatitudeDegrees>
              <LongitudeDegrees>-3.792448081076145172119140625</LongitudeDegrees>
            </Position>
            <AltitudeMeters>917.79998779296875</AltitudeMeters>
            <DistanceMeters>NAN</DistanceMeters>
          </Trackpoint>
          <Trackpoint>
            <Time>2020-03-07T16:14:30.000Z</Time>
            <Position>
              <LatitudeDegrees>40.75050626881420612335205078125</LatitudeDegrees>
              <LongitudeDegrees>-3.7925330735743045806884765625</LongitudeDegrees>
            </Position>
            <AltitudeMeters>917.79998779296875</AltitudeMeters>
            <DistanceMeters>NAN</DistanceMeters>
          </Trackpoint>
          <Trackpoint>
            <Time>2020-03-07T16:14:31.000Z</Time>
            <Position>
              <LatitudeDegrees>40.7504738308489322662353515625</LatitudeDegrees>
              <LongitudeDegrees>-3.7926162220537662506103515625</LongitudeDegrees>
            </Position>
            <AltitudeMeters>917.79998779296875</AltitudeMeters>
            <DistanceMeters>NAN</DistanceMeters>
          </Trackpoint>
          <Trackpoint>
            <Time>2020-03-07T16:14:32.000Z</Time>
            <Position>
              <LatitudeDegrees>40.7504738308489322662353515625</LatitudeDegrees>
              <LongitudeDegrees>-3.7926162220537662506103515625</LongitudeDegrees>
            </Position>
            <AltitudeMeters>917.5999755859375</AltitudeMeters>
            <DistanceMeters>NAN</DistanceMeters>
          </Trackpoint>
          <Trackpoint>
            <Time>2020-03-07T16:14:33.000Z</Time>
            <Position>
              <LatitudeDegrees>40.7504107989370822906494140625</LatitudeDegrees>
              <LongitudeDegrees>-3.79278377629816532135009765625</LongitudeDegrees>
            </Position>
            <AltitudeMeters>917.5999755859375</AltitudeMeters>
            <DistanceMeters>NAN</DistanceMeters>
          </Trackpoint>
          <Trackpoint>
            <Time>2020-03-07T16:14:34.000Z</Time>
            <Position>
              <LatitudeDegrees>40.75038087554275989532470703125</LatitudeDegrees>
              <LongitudeDegrees>-3.792866505682468414306640625</LongitudeDegrees>
            </Position>
            <AltitudeMeters>917.5999755859375</AltitudeMeters>
            <DistanceMeters>NAN</DistanceMeters>
          </Trackpoint>
          <Trackpoint>
            <Time>2020-03-07T16:14:35.000Z</Time>
            <Position>
              <LatitudeDegrees>40.7503491081297397613525390625</LatitudeDegrees>
              <LongitudeDegrees>-3.79294864833354949951171875</LongitudeDegrees>
            </Position>
            <AltitudeMeters>917.5999755859375</AltitudeMeters>
            <DistanceMeters>NAN</DistanceMeters>
          </Trackpoint>
          <Trackpoint>
            <Time>2020-03-07T16:14:36.000Z</Time>
            <Position>
              <LatitudeDegrees>40.7503162510693073272705078125</LatitudeDegrees>
              <LongitudeDegrees>-3.79302970133721828460693359375</LongitudeDegrees>
            </Position>
            <AltitudeMeters>917.5999755859375</AltitudeMeters>
            <DistanceMeters>NAN</DistanceMeters>
          </Trackpoint>
          <Trackpoint>
            <Time>2020-03-07T16:14:37.000Z</Time>
            <Position>
              <LatitudeDegrees>40.750280879437923431396484375</LatitudeDegrees>
              <LongitudeDegrees>-3.79311117343604564666748046875</LongitudeDegrees>
            </Position>
            <AltitudeMeters>917.5999755859375</AltitudeMeters>
            <DistanceMeters>NAN</DistanceMeters>
          </Trackpoint>
          <Trackpoint>
            <Time>2020-03-07T16:14:38.000Z</Time>
            <Position>
              <LatitudeDegrees>40.750280879437923431396484375</LatitudeDegrees>
              <LongitudeDegrees>-3.79311117343604564666748046875</LongitudeDegrees>
            </Position>
            <AltitudeMeters>917.5999755859375</AltitudeMeters>
            <DistanceMeters>NAN</DistanceMeters>
          </Trackpoint>
          <Trackpoint>
            <Time>2020-03-07T16:14:39.000Z</Time>
            <Position>
              <LatitudeDegrees>40.7502082921564579010009765625</LatitudeDegrees>
              <LongitudeDegrees>-3.79327462054789066314697265625</LongitudeDegrees>
            </Position>
            <AltitudeMeters>917.5999755859375</AltitudeMeters>
            <DistanceMeters>NAN</DistanceMeters>
          </Trackpoint>
          <Trackpoint>
            <Time>2020-03-07T16:14:40.000Z</Time>
            <Position>
              <LatitudeDegrees>40.7501752674579620361328125</LatitudeDegrees>
              <LongitudeDegrees>-3.79335626028478145599365234375</LongitudeDegrees>
            </Position>
            <AltitudeMeters>917.4000244140625</AltitudeMeters>
            <DistanceMeters>NAN</DistanceMeters>
          </Trackpoint>
          <Trackpoint>
            <Time>2020-03-07T16:14:41.000Z</Time>
            <Position>
              <LatitudeDegrees>40.7501419074833393096923828125</LatitudeDegrees>
              <LongitudeDegrees>-3.7934379838407039642333984375</LongitudeDegrees>
            </Position>
            <AltitudeMeters>917.4000244140625</AltitudeMeters>
            <DistanceMeters>NAN</DistanceMeters>
          </Trackpoint>
          <Trackpoint>
            <Time>2020-03-07T16:14:42.000Z</Time>
            <Position>
              <LatitudeDegrees>40.75010955333709716796875</LatitudeDegrees>
              <LongitudeDegrees>-3.7935192883014678955078125</LongitudeDegrees>
            </Position>
            <AltitudeMeters>917.4000244140625</AltitudeMeters>
            <DistanceMeters>NAN</DistanceMeters>
          </Trackpoint>
          <Trackpoint>
            <Time>2020-03-07T16:14:43.000Z</Time>
            <Position>
              <LatitudeDegrees>40.75007610954344272613525390625</LatitudeDegrees>
              <LongitudeDegrees>-3.793600760400295257568359375</LongitudeDegrees>
            </Position>
            <AltitudeMeters>917.4000244140625</AltitudeMeters>
            <DistanceMeters>NAN</DistanceMeters>
          </Trackpoint>
          <Trackpoint>
            <Time>2020-03-07T16:14:44.000Z</Time>
            <Position>
              <LatitudeDegrees>40.75007610954344272613525390625</LatitudeDegrees>
              <LongitudeDegrees>-3.793600760400295257568359375</LongitudeDegrees>
            </Position>
            <AltitudeMeters>917.4000244140625</AltitudeMeters>
            <DistanceMeters>NAN</DistanceMeters>
          </Trackpoint>
          <Trackpoint>
            <Time>2020-03-07T16:14:45.000Z</Time>
            <Position>
              <LatitudeDegrees>40.75001073069870471954345703125</LatitudeDegrees>
              <LongitudeDegrees>-3.7937633693218231201171875</LongitudeDegrees>
            </Position>
            <AltitudeMeters>917.4000244140625</AltitudeMeters>
            <DistanceMeters>NAN</DistanceMeters>
          </Trackpoint>
          <Trackpoint>
            <Time>2020-03-07T16:14:46.000Z</Time>
            <Position>
              <LatitudeDegrees>40.74997921474277973175048828125</LatitudeDegrees>
              <LongitudeDegrees>-3.793842159211635589599609375</LongitudeDegrees>
            </Position>
            <AltitudeMeters>917.4000244140625</AltitudeMeters>
            <DistanceMeters>NAN</DistanceMeters>
          </Trackpoint>
          <Trackpoint>
            <Time>2020-03-07T16:14:47.000Z</Time>
            <Position>
              <LatitudeDegrees>40.74994719587266445159912109375</LatitudeDegrees>
              <LongitudeDegrees>-3.79392220638692378997802734375</LongitudeDegrees>
            </Position>
            <AltitudeMeters>917.4000244140625</AltitudeMeters>
            <DistanceMeters>NAN</DistanceMeters>
          </Trackpoint>
          <Trackpoint>
            <Time>2020-03-07T16:14:48.000Z</Time>
            <Position>
              <LatitudeDegrees>40.74991383589804172515869140625</LatitudeDegrees>
              <LongitudeDegrees>-3.79400468431413173675537109375</LongitudeDegrees>
            </Position>
            <AltitudeMeters>917.4000244140625</AltitudeMeters>
            <DistanceMeters>NAN</DistanceMeters>
          </Trackpoint>
          <Trackpoint>
            <Time>2020-03-07T16:14:49.000Z</Time>
            <Position>
              <LatitudeDegrees>40.74987846426665782928466796875</LatitudeDegrees>
              <LongitudeDegrees>-3.79408867098391056060791015625</LongitudeDegrees>
            </Position>
            <AltitudeMeters>917.4000244140625</AltitudeMeters>
            <DistanceMeters>NAN</DistanceMeters>
          </Trackpoint>
          <Trackpoint>
            <Time>2020-03-07T16:14:50.000Z</Time>
            <Position>
              <LatitudeDegrees>40.74987846426665782928466796875</LatitudeDegrees>
              <LongitudeDegrees>-3.79408867098391056060791015625</LongitudeDegrees>
            </Position>
            <AltitudeMeters>917.4000244140625</AltitudeMeters>
            <DistanceMeters>NAN</DistanceMeters>
          </Trackpoint>
          <Trackpoint>
            <Time>2020-03-07T16:14:51.000Z</Time>
            <Position>
              <LatitudeDegrees>40.74980788864195346832275390625</LatitudeDegrees>
              <LongitudeDegrees>-3.79425765015184879302978515625</LongitudeDegrees>
            </Position>
            <AltitudeMeters>917.4000244140625</AltitudeMeters>
            <DistanceMeters>NAN</DistanceMeters>
          </Trackpoint>
          <Trackpoint>
            <Time>2020-03-07T16:14:52.000Z</Time>
            <Position>
              <LatitudeDegrees>40.7497724331915378570556640625</LatitudeDegrees>
              <LongitudeDegrees>-3.7943418882787227630615234375</LongitudeDegrees>
            </Position>
            <AltitudeMeters>917.4000244140625</AltitudeMeters>
            <DistanceMeters>NAN</DistanceMeters>
          </Trackpoint>
          <Trackpoint>
            <Time>2020-03-07T16:14:53.000Z</Time>
            <Position>
              <LatitudeDegrees>40.74973496608436107635498046875</LatitudeDegrees>
              <LongitudeDegrees>-3.79442495293915271759033203125</LongitudeDegrees>
            </Position>
            <AltitudeMeters>917.4000244140625</AltitudeMeters>
            <DistanceMeters>NAN</DistanceMeters>
          </Trackpoint>
          <Trackpoint>
            <Time>2020-03-07T16:14:54.000Z</Time>
            <Position>
              <LatitudeDegrees>40.7496990077197551727294921875</LatitudeDegrees>
              <LongitudeDegrees>-3.79450835287570953369140625</LongitudeDegrees>
            </Position>
            <AltitudeMeters>917.4000244140625</AltitudeMeters>
            <DistanceMeters>NAN</DistanceMeters>
          </Trackpoint>
          <Trackpoint>
            <Time>2020-03-07T16:14:55.000Z</Time>
            <Position>
              <LatitudeDegrees>40.749663971364498138427734375</LatitudeDegrees>
              <LongitudeDegrees>-3.79459150135517120361328125</LongitudeDegrees>
            </Position>
            <AltitudeMeters>917.4000244140625</AltitudeMeters>
            <DistanceMeters>NAN</DistanceMeters>
          </Trackpoint>
          <Trackpoint>
            <Time>2020-03-07T16:14:56.000Z</Time>
            <Position>
              <LatitudeDegrees>40.749663971364498138427734375</LatitudeDegrees>
              <LongitudeDegrees>-3.79459150135517120361328125</LongitudeDegrees>
            </Position>
            <AltitudeMeters>917.4000244140625</AltitudeMeters>
            <DistanceMeters>NAN</DistanceMeters>
          </Trackpoint>
          <Trackpoint>
            <Time>2020-03-07T16:14:57.000Z</Time>
            <Position>
              <LatitudeDegrees>40.74958962388336658477783203125</LatitudeDegrees>
              <LongitudeDegrees>-3.79475419409573078155517578125</LongitudeDegrees>
            </Position>
            <AltitudeMeters>917.4000244140625</AltitudeMeters>
            <DistanceMeters>NAN</DistanceMeters>
          </Trackpoint>
          <Trackpoint>
            <Time>2020-03-07T16:14:58.000Z</Time>
            <Position>
              <LatitudeDegrees>40.7495503127574920654296875</LatitudeDegrees>
              <LongitudeDegrees>-3.7948344089090824127197265625</LongitudeDegrees>
            </Position>
            <AltitudeMeters>917.4000244140625</AltitudeMeters>
            <DistanceMeters>NAN</DistanceMeters>
          </Trackpoint>
          <Trackpoint>
            <Time>2020-03-07T16:14:59.000Z</Time>
            <Position>
              <LatitudeDegrees>40.7495100796222686767578125</LatitudeDegrees>
              <LongitudeDegrees>-3.79491445608437061309814453125</LongitudeDegrees>
            </Position>
            <AltitudeMeters>917.4000244140625</AltitudeMeters>
            <DistanceMeters>NAN</DistanceMeters>
          </Trackpoint>
          <Trackpoint>
            <Time>2020-03-07T16:15:00.000Z</Time>
            <Position>
              <LatitudeDegrees>40.74946925975382328033447265625</LatitudeDegrees>
              <LongitudeDegrees>-3.794994167983531951904296875</LongitudeDegrees>
            </Position>
            <AltitudeMeters>917.4000244140625</AltitudeMeters>
            <DistanceMeters>NAN</DistanceMeters>
          </Trackpoint>
          <Trackpoint>
            <Time>2020-03-07T16:15:01.000Z</Time>
            <Position>
              <LatitudeDegrees>40.74942802079021930694580078125</LatitudeDegrees>
              <LongitudeDegrees>-3.795073293149471282958984375</LongitudeDegrees>
            </Position>
            <AltitudeMeters>917.20001220703125</AltitudeMeters>
            <DistanceMeters>NAN</DistanceMeters>
          </Trackpoint>
          <Trackpoint>
            <Time>2020-03-07T16:15:02.000Z</Time>
            <Position>
              <LatitudeDegrees>40.7493858598172664642333984375</LatitudeDegrees>
              <LongitudeDegrees>-3.7951527535915374755859375</LongitudeDegrees>
            </Position>
            <AltitudeMeters>917.20001220703125</AltitudeMeters>
            <DistanceMeters>NAN</DistanceMeters>
          </Trackpoint>
          <Trackpoint>
            <Time>2020-03-07T16:15:03.000Z</Time>
            <Position>
              <LatitudeDegrees>40.7493437826633453369140625</LatitudeDegrees>
              <LongitudeDegrees>-3.795232214033603668212890625</LongitudeDegrees>
            </Position>
            <AltitudeMeters>917.20001220703125</AltitudeMeters>
            <DistanceMeters>NAN</DistanceMeters>
          </Trackpoint>
          <Trackpoint>
            <Time>2020-03-07T16:15:04.000Z</Time>
            <Position>
              <LatitudeDegrees>40.74930145405232906341552734375</LatitudeDegrees>
              <LongitudeDegrees>-3.79531125538051128387451171875</LongitudeDegrees>
            </Position>
            <AltitudeMeters>917.20001220703125</AltitudeMeters>
            <DistanceMeters>NAN</DistanceMeters>
          </Trackpoint>
          <Trackpoint>
            <Time>2020-03-07T16:15:05.000Z</Time>
            <Position>
              <LatitudeDegrees>40.74926130473613739013671875</LatitudeDegrees>
              <LongitudeDegrees>-3.7953913025557994842529296875</LongitudeDegrees>
            </Position>
            <AltitudeMeters>917.20001220703125</AltitudeMeters>
            <DistanceMeters>NAN</DistanceMeters>
          </Trackpoint>
          <Trackpoint>
            <Time>2020-03-07T16:15:06.000Z</Time>
            <Position>
              <LatitudeDegrees>40.74922249652445316314697265625</LatitudeDegrees>
              <LongitudeDegrees>-3.7954727746546268463134765625</LongitudeDegrees>
            </Position>
            <AltitudeMeters>917.20001220703125</AltitudeMeters>
            <DistanceMeters>NAN</DistanceMeters>
          </Trackpoint>
          <Trackpoint>
            <Time>2020-03-07T16:15:07.000Z</Time>
            <Position>
              <LatitudeDegrees>40.74918226338922977447509765625</LatitudeDegrees>
              <LongitudeDegrees>-3.7955512292683124542236328125</LongitudeDegrees>
            </Position>
            <AltitudeMeters>917</AltitudeMeters>
            <DistanceMeters>NAN</DistanceMeters>
          </Trackpoint>
          <Trackpoint>
            <Time>2020-03-07T16:15:08.000Z</Time>
            <Position>
              <LatitudeDegrees>40.7491397671401500701904296875</LatitudeDegrees>
              <LongitudeDegrees>-3.795628510415554046630859375</LongitudeDegrees>
            </Position>
            <AltitudeMeters>917</AltitudeMeters>
            <DistanceMeters>NAN</DistanceMeters>
          </Trackpoint>
          <Trackpoint>
            <Time>2020-03-07T16:15:09.000Z</Time>
            <Position>
              <LatitudeDegrees>40.749098025262355804443359375</LatitudeDegrees>
              <LongitudeDegrees>-3.7957071326673030853271484375</LongitudeDegrees>
            </Position>
            <AltitudeMeters>916.79998779296875</AltitudeMeters>
            <DistanceMeters>NAN</DistanceMeters>
          </Trackpoint>
          <Trackpoint>
            <Time>2020-03-07T16:15:10.000Z</Time>
            <Position>
              <LatitudeDegrees>40.74905603192746639251708984375</LatitudeDegrees>
              <LongitudeDegrees>-3.79578684456646442413330078125</LongitudeDegrees>
            </Position>
            <AltitudeMeters>916.79998779296875</AltitudeMeters>
            <DistanceMeters>NAN</DistanceMeters>
          </Trackpoint>
          <Trackpoint>
            <Time>2020-03-07T16:15:11.000Z</Time>
            <Position>
              <LatitudeDegrees>40.7490140385925769805908203125</LatitudeDegrees>
              <LongitudeDegrees>-3.79586680792272090911865234375</LongitudeDegrees>
            </Position>
            <AltitudeMeters>916.5999755859375</AltitudeMeters>
            <DistanceMeters>NAN</DistanceMeters>
          </Trackpoint>
          <Trackpoint>
            <Time>2020-03-07T16:15:12.000Z</Time>
            <Position>
              <LatitudeDegrees>40.74897162616252899169921875</LatitudeDegrees>
              <LongitudeDegrees>-3.7959466874599456787109375</LongitudeDegrees>
            </Position>
            <AltitudeMeters>916.5999755859375</AltitudeMeters>
            <DistanceMeters>NAN</DistanceMeters>
          </Trackpoint>
          <Trackpoint>
            <Time>2020-03-07T16:15:13.000Z</Time>
            <Position>
              <LatitudeDegrees>40.7489285431802272796630859375</LatitudeDegrees>
              <LongitudeDegrees>-3.79602589644491672515869140625</LongitudeDegrees>
            </Position>
            <AltitudeMeters>916.4000244140625</AltitudeMeters>
            <DistanceMeters>NAN</DistanceMeters>
          </Trackpoint>
          <Trackpoint>
            <Time>2020-03-07T16:15:14.000Z</Time>
            <Position>
              <LatitudeDegrees>40.74888554401695728302001953125</LatitudeDegrees>
              <LongitudeDegrees>-3.79610560834407806396484375</LongitudeDegrees>
            </Position>
            <AltitudeMeters>916.4000244140625</AltitudeMeters>
            <DistanceMeters>NAN</DistanceMeters>
          </Trackpoint>
          <Trackpoint>
            <Time>2020-03-07T16:15:15.000Z</Time>
            <Position>
              <LatitudeDegrees>40.7488440535962581634521484375</LatitudeDegrees>
              <LongitudeDegrees>-3.79618649370968341827392578125</LongitudeDegrees>
            </Position>
            <AltitudeMeters>916.4000244140625</AltitudeMeters>
            <DistanceMeters>NAN</DistanceMeters>
          </Trackpoint>
          <Trackpoint>
            <Time>2020-03-07T16:15:16.000Z</Time>
            <Position>
              <LatitudeDegrees>40.74880206026136875152587890625</LatitudeDegrees>
              <LongitudeDegrees>-3.79626695998013019561767578125</LongitudeDegrees>
            </Position>
            <AltitudeMeters>916.4000244140625</AltitudeMeters>
            <DistanceMeters>NAN</DistanceMeters>
          </Trackpoint>
          <Trackpoint>
            <Time>2020-03-07T16:15:17.000Z</Time>
            <Position>
              <LatitudeDegrees>40.7487590610980987548828125</LatitudeDegrees>
              <LongitudeDegrees>-3.7963478453457355499267578125</LongitudeDegrees>
            </Position>
            <AltitudeMeters>916.20001220703125</AltitudeMeters>
            <DistanceMeters>NAN</DistanceMeters>
          </Trackpoint>
          <Trackpoint>
            <Time>2020-03-07T16:15:18.000Z</Time>
            <Position>
              <LatitudeDegrees>40.74871639721095561981201171875</LatitudeDegrees>
              <LongitudeDegrees>-3.79643040709197521209716796875</LongitudeDegrees>
            </Position>
            <AltitudeMeters>916.20001220703125</AltitudeMeters>
            <DistanceMeters>NAN</DistanceMeters>
          </Trackpoint>
          <Trackpoint>
            <Time>2020-03-07T16:15:19.000Z</Time>
            <Position>
              <LatitudeDegrees>40.74871639721095561981201171875</LatitudeDegrees>
              <LongitudeDegrees>-3.79643040709197521209716796875</LongitudeDegrees>
            </Position>
            <AltitudeMeters>916.20001220703125</AltitudeMeters>
            <DistanceMeters>NAN</DistanceMeters>
          </Trackpoint>
          <Trackpoint>
            <Time>2020-03-07T16:15:20.000Z</Time>
            <Position>
              <LatitudeDegrees>40.7486744038760662078857421875</LatitudeDegrees>
              <LongitudeDegrees>-3.7965141423046588897705078125</LongitudeDegrees>
            </Position>
            <AltitudeMeters>916</AltitudeMeters>
            <DistanceMeters>NAN</DistanceMeters>
          </Trackpoint>
          <Trackpoint>
            <Time>2020-03-07T16:15:21.000Z</Time>
            <Position>
              <LatitudeDegrees>40.74863123707473278045654296875</LatitudeDegrees>
              <LongitudeDegrees>-3.79659779369831085205078125</LongitudeDegrees>
            </Position>
            <AltitudeMeters>916</AltitudeMeters>
            <DistanceMeters>NAN</DistanceMeters>
          </Trackpoint>
          <Trackpoint>
            <Time>2020-03-07T16:15:22.000Z</Time>
            <Position>
              <LatitudeDegrees>40.7485879026353359222412109375</LatitudeDegrees>
              <LongitudeDegrees>-3.79668018780648708343505859375</LongitudeDegrees>
            </Position>
            <AltitudeMeters>916</AltitudeMeters>
            <DistanceMeters>NAN</DistanceMeters>
          </Trackpoint>
          <Trackpoint>
            <Time>2020-03-07T16:15:23.000Z</Time>
            <Position>
              <LatitudeDegrees>40.748502574861049652099609375</LatitudeDegrees>
              <LongitudeDegrees>-3.79684598185122013092041015625</LongitudeDegrees>
            </Position>
            <AltitudeMeters>916</AltitudeMeters>
            <DistanceMeters>NAN</DistanceMeters>
          </Trackpoint>
          <Trackpoint>
            <Time>2020-03-07T16:15:24.000Z</Time>
            <Position>
              <LatitudeDegrees>40.74845957569777965545654296875</LatitudeDegrees>
              <LongitudeDegrees>-3.7969282083213329315185546875</LongitudeDegrees>
            </Position>
            <AltitudeMeters>915.79998779296875</AltitudeMeters>
            <DistanceMeters>NAN</DistanceMeters>
          </Trackpoint>
          <Trackpoint>
            <Time>2020-03-07T16:15:25.000Z</Time>
            <Position>
              <LatitudeDegrees>40.74841431342065334320068359375</LatitudeDegrees>
              <LongitudeDegrees>-3.797009177505970001220703125</LongitudeDegrees>
            </Position>
            <AltitudeMeters>915.79998779296875</AltitudeMeters>
            <DistanceMeters>NAN</DistanceMeters>
          </Trackpoint>
          <Trackpoint>
            <Time>2020-03-07T16:15:26.000Z</Time>
            <Position>
              <LatitudeDegrees>40.74841431342065334320068359375</LatitudeDegrees>
              <LongitudeDegrees>-3.797009177505970001220703125</LongitudeDegrees>
            </Position>
            <AltitudeMeters>915.5999755859375</AltitudeMeters>
            <DistanceMeters>NAN</DistanceMeters>
          </Trackpoint>
          <Trackpoint>
            <Time>2020-03-07T16:15:27.000Z</Time>
            <Position>
              <LatitudeDegrees>40.74832680635154247283935546875</LatitudeDegrees>
              <LongitudeDegrees>-3.79717472009360790252685546875</LongitudeDegrees>
            </Position>
            <AltitudeMeters>915.5999755859375</AltitudeMeters>
            <DistanceMeters>NAN</DistanceMeters>
          </Trackpoint>
          <Trackpoint>
            <Time>2020-03-07T16:15:28.000Z</Time>
            <Position>
              <LatitudeDegrees>40.74828565120697021484375</LatitudeDegrees>
              <LongitudeDegrees>-3.79725954495370388031005859375</LongitudeDegrees>
            </Position>
            <AltitudeMeters>915.5999755859375</AltitudeMeters>
            <DistanceMeters>NAN</DistanceMeters>
          </Trackpoint>
          <Trackpoint>
            <Time>2020-03-07T16:15:29.000Z</Time>
            <Position>
              <LatitudeDegrees>40.74824365787208080291748046875</LatitudeDegrees>
              <LongitudeDegrees>-3.79734436981379985809326171875</LongitudeDegrees>
            </Position>
            <AltitudeMeters>915.4000244140625</AltitudeMeters>
            <DistanceMeters>NAN</DistanceMeters>
          </Trackpoint>
          <Trackpoint>
            <Time>2020-03-07T16:15:30.000Z</Time>
            <Position>
              <LatitudeDegrees>40.748200155794620513916015625</LatitudeDegrees>
              <LongitudeDegrees>-3.79742869175970554351806640625</LongitudeDegrees>
            </Position>
            <AltitudeMeters>915.20001220703125</AltitudeMeters>
            <DistanceMeters>NAN</DistanceMeters>
          </Trackpoint>
          <Trackpoint>
            <Time>2020-03-07T16:15:31.000Z</Time>
            <Position>
              <LatitudeDegrees>40.748154222965240478515625</LatitudeDegrees>
              <LongitudeDegrees>-3.79751167260110378265380859375</LongitudeDegrees>
            </Position>
            <AltitudeMeters>915</AltitudeMeters>
            <DistanceMeters>NAN</DistanceMeters>
          </Trackpoint>
          <Trackpoint>
            <Time>2020-03-07T16:15:32.000Z</Time>
            <Position>
              <LatitudeDegrees>40.748154222965240478515625</LatitudeDegrees>
              <LongitudeDegrees>-3.79751167260110378265380859375</LongitudeDegrees>
            </Position>
            <AltitudeMeters>915</AltitudeMeters>
            <DistanceMeters>NAN</DistanceMeters>
          </Trackpoint>
          <Trackpoint>
            <Time>2020-03-07T16:15:33.000Z</Time>
            <Position>
              <LatitudeDegrees>40.7480643689632415771484375</LatitudeDegrees>
              <LongitudeDegrees>-3.7976792268455028533935546875</LongitudeDegrees>
            </Position>
            <AltitudeMeters>914.79998779296875</AltitudeMeters>
            <DistanceMeters>NAN</DistanceMeters>
          </Trackpoint>
          <Trackpoint>
            <Time>2020-03-07T16:15:34.000Z</Time>
            <Position>
              <LatitudeDegrees>40.74801902286708354949951171875</LatitudeDegrees>
              <LongitudeDegrees>-3.79776363261044025421142578125</LongitudeDegrees>
            </Position>
            <AltitudeMeters>914.5999755859375</AltitudeMeters>
            <DistanceMeters>NAN</DistanceMeters>
          </Trackpoint>
          <Trackpoint>
            <Time>2020-03-07T16:15:35.000Z</Time>
            <Position>
              <LatitudeDegrees>40.74797476641833782196044921875</LatitudeDegrees>
              <LongitudeDegrees>-3.79784879274666309356689453125</LongitudeDegrees>
            </Position>
            <AltitudeMeters>914.4000244140625</AltitudeMeters>
            <DistanceMeters>NAN</DistanceMeters>
          </Trackpoint>
          <Trackpoint>
            <Time>2020-03-07T16:15:36.000Z</Time>
            <Position>
              <LatitudeDegrees>40.74793201871216297149658203125</LatitudeDegrees>
              <LongitudeDegrees>-3.79793487489223480224609375</LongitudeDegrees>
            </Position>
            <AltitudeMeters>914.20001220703125</AltitudeMeters>
            <DistanceMeters>NAN</DistanceMeters>
          </Trackpoint>
          <Trackpoint>
            <Time>2020-03-07T16:15:37.000Z</Time>
            <Position>
              <LatitudeDegrees>40.74788943864405155181884765625</LatitudeDegrees>
              <LongitudeDegrees>-3.798021040856838226318359375</LongitudeDegrees>
            </Position>
            <AltitudeMeters>914</AltitudeMeters>
            <DistanceMeters>NAN</DistanceMeters>
          </Trackpoint>
          <Trackpoint>
            <Time>2020-03-07T16:15:38.000Z</Time>
            <Position>
              <LatitudeDegrees>40.74784551747143268585205078125</LatitudeDegrees>
              <LongitudeDegrees>-3.798106871545314788818359375</LongitudeDegrees>
            </Position>
            <AltitudeMeters>913.79998779296875</AltitudeMeters>
            <DistanceMeters>NAN</DistanceMeters>
          </Trackpoint>
          <Trackpoint>
            <Time>2020-03-07T16:15:39.000Z</Time>
            <Position>
              <LatitudeDegrees>40.74779991991817951202392578125</LatitudeDegrees>
              <LongitudeDegrees>-3.7981916964054107666015625</LongitudeDegrees>
            </Position>
            <AltitudeMeters>913.5999755859375</AltitudeMeters>
            <DistanceMeters>NAN</DistanceMeters>
          </Trackpoint>
          <Trackpoint>
            <Time>2020-03-07T16:15:40.000Z</Time>
            <Position>
              <LatitudeDegrees>40.74775390326976776123046875</LatitudeDegrees>
              <LongitudeDegrees>-3.79827610217034816741943359375</LongitudeDegrees>
            </Position>
            <AltitudeMeters>913.5999755859375</AltitudeMeters>
            <DistanceMeters>NAN</DistanceMeters>
          </Trackpoint>
          <Trackpoint>
            <Time>2020-03-07T16:15:41.000Z</Time>
            <Position>
              <LatitudeDegrees>40.74770788662135601043701171875</LatitudeDegrees>
              <LongitudeDegrees>-3.7983611784875392913818359375</LongitudeDegrees>
            </Position>
            <AltitudeMeters>913.4000244140625</AltitudeMeters>
            <DistanceMeters>NAN</DistanceMeters>
          </Trackpoint>
          <Trackpoint>
            <Time>2020-03-07T16:15:42.000Z</Time>
            <Position>
              <LatitudeDegrees>40.74766212143003940582275390625</LatitudeDegrees>
              <LongitudeDegrees>-3.79844692535698413848876953125</LongitudeDegrees>
            </Position>
            <AltitudeMeters>913.4000244140625</AltitudeMeters>
            <DistanceMeters>NAN</DistanceMeters>
          </Trackpoint>
          <Trackpoint>
            <Time>2020-03-07T16:15:43.000Z</Time>
            <Position>
              <LatitudeDegrees>40.747616775333881378173828125</LatitudeDegrees>
              <LongitudeDegrees>-3.798533342778682708740234375</LongitudeDegrees>
            </Position>
            <AltitudeMeters>913.4000244140625</AltitudeMeters>
            <DistanceMeters>NAN</DistanceMeters>
          </Trackpoint>
          <Trackpoint>
            <Time>2020-03-07T16:15:44.000Z</Time>
            <Position>
              <LatitudeDegrees>40.74757142923772335052490234375</LatitudeDegrees>
              <LongitudeDegrees>-3.79862110130488872528076171875</LongitudeDegrees>
            </Position>
            <AltitudeMeters>913.4000244140625</AltitudeMeters>
            <DistanceMeters>NAN</DistanceMeters>
          </Trackpoint>
          <Trackpoint>
            <Time>2020-03-07T16:15:45.000Z</Time>
            <Position>
              <LatitudeDegrees>40.74752566404640674591064453125</LatitudeDegrees>
              <LongitudeDegrees>-3.79870860837399959564208984375</LongitudeDegrees>
            </Position>
            <AltitudeMeters>913.4000244140625</AltitudeMeters>
            <DistanceMeters>NAN</DistanceMeters>
          </Trackpoint>
          <Trackpoint>
            <Time>2020-03-07T16:15:46.000Z</Time>
            <Position>
              <LatitudeDegrees>40.74747889302670955657958984375</LatitudeDegrees>
              <LongitudeDegrees>-3.79879611544311046600341796875</LongitudeDegrees>
            </Position>
            <AltitudeMeters>913.4000244140625</AltitudeMeters>
            <DistanceMeters>NAN</DistanceMeters>
          </Trackpoint>
          <Trackpoint>
            <Time>2020-03-07T16:15:47.000Z</Time>
            <Position>
              <LatitudeDegrees>40.74743145145475864410400390625</LatitudeDegrees>
              <LongitudeDegrees>-3.79888446070253849029541015625</LongitudeDegrees>
            </Position>
            <AltitudeMeters>913.20001220703125</AltitudeMeters>
            <DistanceMeters>NAN</DistanceMeters>
          </Trackpoint>
          <Trackpoint>
            <Time>2020-03-07T16:15:48.000Z</Time>
            <Position>
              <LatitudeDegrees>40.7473842613399028778076171875</LatitudeDegrees>
              <LongitudeDegrees>-3.79897431470453739166259765625</LongitudeDegrees>
            </Position>
            <AltitudeMeters>913.20001220703125</AltitudeMeters>
            <DistanceMeters>NAN</DistanceMeters>
          </Trackpoint>
          <Trackpoint>
            <Time>2020-03-07T16:15:49.000Z</Time>
            <Position>
              <LatitudeDegrees>40.7473374903202056884765625</LatitudeDegrees>
              <LongitudeDegrees>-3.79906550981104373931884765625</LongitudeDegrees>
            </Position>
            <AltitudeMeters>913.20001220703125</AltitudeMeters>
            <DistanceMeters>NAN</DistanceMeters>
          </Trackpoint>
          <Trackpoint>
            <Time>2020-03-07T16:15:50.000Z</Time>
            <Position>
              <LatitudeDegrees>40.74729122221469879150390625</LatitudeDegrees>
              <LongitudeDegrees>-3.799156956374645233154296875</LongitudeDegrees>
            </Position>
            <AltitudeMeters>913.20001220703125</AltitudeMeters>
            <DistanceMeters>NAN</DistanceMeters>
          </Trackpoint>
          <Trackpoint>
            <Time>2020-03-07T16:15:51.000Z</Time>
            <Position>
              <LatitudeDegrees>40.74724554084241390228271484375</LatitudeDegrees>
              <LongitudeDegrees>-3.7992483191192150115966796875</LongitudeDegrees>
            </Position>
            <AltitudeMeters>913.20001220703125</AltitudeMeters>
            <DistanceMeters>NAN</DistanceMeters>
          </Trackpoint>
          <Trackpoint>
            <Time>2020-03-07T16:15:52.000Z</Time>
            <Position>
              <LatitudeDegrees>40.74719960801303386688232421875</LatitudeDegrees>
              <LongitudeDegrees>-3.7993395142257213592529296875</LongitudeDegrees>
            </Position>
            <AltitudeMeters>913</AltitudeMeters>
            <DistanceMeters>NAN</DistanceMeters>
          </Trackpoint>
          <Trackpoint>
            <Time>2020-03-07T16:15:53.000Z</Time>
            <Position>
              <LatitudeDegrees>40.747151412069797515869140625</LatitudeDegrees>
              <LongitudeDegrees>-3.79943062551319599151611328125</LongitudeDegrees>
            </Position>
            <AltitudeMeters>913</AltitudeMeters>
            <DistanceMeters>NAN</DistanceMeters>
          </Trackpoint>
          <Trackpoint>
            <Time>2020-03-07T16:15:54.000Z</Time>
            <Position>
              <LatitudeDegrees>40.7471026293933391571044921875</LatitudeDegrees>
              <LongitudeDegrees>-3.7995212338864803314208984375</LongitudeDegrees>
            </Position>
            <AltitudeMeters>913</AltitudeMeters>
            <DistanceMeters>NAN</DistanceMeters>
          </Trackpoint>
          <Trackpoint>
            <Time>2020-03-07T16:15:55.000Z</Time>
            <Position>
              <LatitudeDegrees>40.74705510400235652923583984375</LatitudeDegrees>
              <LongitudeDegrees>-3.7996117584407329559326171875</LongitudeDegrees>
            </Position>
            <AltitudeMeters>913</AltitudeMeters>
            <DistanceMeters>NAN</DistanceMeters>
          </Trackpoint>
          <Trackpoint>
            <Time>2020-03-07T16:15:56.000Z</Time>
            <Position>
              <LatitudeDegrees>40.74705510400235652923583984375</LatitudeDegrees>
              <LongitudeDegrees>-3.7996117584407329559326171875</LongitudeDegrees>
            </Position>
            <AltitudeMeters>913</AltitudeMeters>
            <DistanceMeters>NAN</DistanceMeters>
          </Trackpoint>
          <Trackpoint>
            <Time>2020-03-07T16:15:57.000Z</Time>
            <Position>
              <LatitudeDegrees>40.74696105904877185821533203125</LatitudeDegrees>
              <LongitudeDegrees>-3.799790628254413604736328125</LongitudeDegrees>
            </Position>
            <AltitudeMeters>912.79998779296875</AltitudeMeters>
            <DistanceMeters>NAN</DistanceMeters>
          </Trackpoint>
          <Trackpoint>
            <Time>2020-03-07T16:15:58.000Z</Time>
            <Position>
              <LatitudeDegrees>40.7469155453145503997802734375</LatitudeDegrees>
              <LongitudeDegrees>-3.79987754859030246734619140625</LongitudeDegrees>
            </Position>
            <AltitudeMeters>912.79998779296875</AltitudeMeters>
            <DistanceMeters>NAN</DistanceMeters>
          </Trackpoint>
          <Trackpoint>
            <Time>2020-03-07T16:15:59.000Z</Time>
            <Position>
              <LatitudeDegrees>40.74686986394226551055908203125</LatitudeDegrees>
              <LongitudeDegrees>-3.799964301288127899169921875</LongitudeDegrees>
            </Position>
            <AltitudeMeters>912.5999755859375</AltitudeMeters>
            <DistanceMeters>NAN</DistanceMeters>
          </Trackpoint>
          <Trackpoint>
            <Time>2020-03-07T16:16:00.000Z</Time>
            <Position>
              <LatitudeDegrees>40.7468251883983612060546875</LatitudeDegrees>
              <LongitudeDegrees>-3.800051473081111907958984375</LongitudeDegrees>
            </Position>
            <AltitudeMeters>912.5999755859375</AltitudeMeters>
            <DistanceMeters>NAN</DistanceMeters>
          </Trackpoint>
          <Trackpoint>
            <Time>2020-03-07T16:16:01.000Z</Time>
            <Position>
              <LatitudeDegrees>40.74678034521639347076416015625</LatitudeDegrees>
              <LongitudeDegrees>-3.80013763904571533203125</LongitudeDegrees>
            </Position>
            <AltitudeMeters>912.4000244140625</AltitudeMeters>
            <DistanceMeters>NAN</DistanceMeters>
          </Trackpoint>
          <Trackpoint>
            <Time>2020-03-07T16:16:02.000Z</Time>
            <Position>
              <LatitudeDegrees>40.7467348314821720123291015625</LatitudeDegrees>
              <LongitudeDegrees>-3.80022288300096988677978515625</LongitudeDegrees>
            </Position>
            <AltitudeMeters>911.79998779296875</AltitudeMeters>
            <DistanceMeters>NAN</DistanceMeters>
          </Trackpoint>
          <Trackpoint>
            <Time>2020-03-07T16:16:03.000Z</Time>
            <Position>
              <LatitudeDegrees>40.74668915010988712310791015625</LatitudeDegrees>
              <LongitudeDegrees>-3.8003074564039707183837890625</LongitudeDegrees>
            </Position>
            <AltitudeMeters>911.79998779296875</AltitudeMeters>
            <DistanceMeters>NAN</DistanceMeters>
          </Trackpoint>
          <Trackpoint>
            <Time>2020-03-07T16:16:04.000Z</Time>
            <Position>
              <LatitudeDegrees>40.74664372019469738006591796875</LatitudeDegrees>
              <LongitudeDegrees>-3.800392784178256988525390625</LongitudeDegrees>
            </Position>
            <AltitudeMeters>911.79998779296875</AltitudeMeters>
            <DistanceMeters>NAN</DistanceMeters>
          </Trackpoint>
          <Trackpoint>
            <Time>2020-03-07T16:16:05.000Z</Time>
            <Position>
              <LatitudeDegrees>40.7465997152030467987060546875</LatitudeDegrees>
              <LongitudeDegrees>-3.80047903396189212799072265625</LongitudeDegrees>
            </Position>
            <AltitudeMeters>911.79998779296875</AltitudeMeters>
            <DistanceMeters>NAN</DistanceMeters>
          </Trackpoint>
          <Trackpoint>
            <Time>2020-03-07T16:16:06.000Z</Time>
            <Position>
              <LatitudeDegrees>40.74655554257333278656005859375</LatitudeDegrees>
              <LongitudeDegrees>-3.80056570284068584442138671875</LongitudeDegrees>
            </Position>
            <AltitudeMeters>911.79998779296875</AltitudeMeters>
            <DistanceMeters>NAN</DistanceMeters>
          </Trackpoint>
          <Trackpoint>
            <Time>2020-03-07T16:16:07.000Z</Time>
            <Position>
              <LatitudeDegrees>40.7465112023055553436279296875</LatitudeDegrees>
              <LongitudeDegrees>-3.8006517849862575531005859375</LongitudeDegrees>
            </Position>
            <AltitudeMeters>911.79998779296875</AltitudeMeters>
            <DistanceMeters>NAN</DistanceMeters>
          </Trackpoint>
          <Trackpoint>
            <Time>2020-03-07T16:16:08.000Z</Time>
            <Position>
              <LatitudeDegrees>40.7464672811329364776611328125</LatitudeDegrees>
              <LongitudeDegrees>-3.80073778331279754638671875</LongitudeDegrees>
            </Position>
            <AltitudeMeters>911.5999755859375</AltitudeMeters>
            <DistanceMeters>NAN</DistanceMeters>
          </Trackpoint>
          <Trackpoint>
            <Time>2020-03-07T16:16:09.000Z</Time>
            <Position>
              <LatitudeDegrees>40.7464233599603176116943359375</LatitudeDegrees>
              <LongitudeDegrees>-3.8008229434490203857421875</LongitudeDegrees>
            </Position>
            <AltitudeMeters>911.5999755859375</AltitudeMeters>
            <DistanceMeters>NAN</DistanceMeters>
          </Trackpoint>
          <Trackpoint>
            <Time>2020-03-07T16:16:10.000Z</Time>
            <Position>
              <LatitudeDegrees>40.74637868441641330718994140625</LatitudeDegrees>
              <LongitudeDegrees>-3.8009079359471797943115234375</LongitudeDegrees>
            </Position>
            <AltitudeMeters>911.5999755859375</AltitudeMeters>
            <DistanceMeters>NAN</DistanceMeters>
          </Trackpoint>
          <Trackpoint>
            <Time>2020-03-07T16:16:11.000Z</Time>
            <Position>
              <LatitudeDegrees>40.7463341765105724334716796875</LatitudeDegrees>
              <LongitudeDegrees>-3.80099250935018062591552734375</LongitudeDegrees>
            </Position>
            <AltitudeMeters>911.5999755859375</AltitudeMeters>
            <DistanceMeters>NAN</DistanceMeters>
          </Trackpoint>
          <Trackpoint>
            <Time>2020-03-07T16:16:12.000Z</Time>
            <Position>
              <LatitudeDegrees>40.7462912611663341522216796875</LatitudeDegrees>
              <LongitudeDegrees>-3.801077418029308319091796875</LongitudeDegrees>
            </Position>
            <AltitudeMeters>911.5999755859375</AltitudeMeters>
            <DistanceMeters>NAN</DistanceMeters>
          </Trackpoint>
          <Trackpoint>
            <Time>2020-03-07T16:16:13.000Z</Time>
            <Position>
              <LatitudeDegrees>40.74624859727919101715087890625</LatitudeDegrees>
              <LongitudeDegrees>-3.80116282962262630462646484375</LongitudeDegrees>
            </Position>
            <AltitudeMeters>911.5999755859375</AltitudeMeters>
            <DistanceMeters>NAN</DistanceMeters>
          </Trackpoint>
          <Trackpoint>
            <Time>2020-03-07T16:16:14.000Z</Time>
            <Position>
              <LatitudeDegrees>40.74620568193495273590087890625</LatitudeDegrees>
              <LongitudeDegrees>-3.80124765448272228240966796875</LongitudeDegrees>
            </Position>
            <AltitudeMeters>911.5999755859375</AltitudeMeters>
            <DistanceMeters>NAN</DistanceMeters>
          </Trackpoint>
          <Trackpoint>
            <Time>2020-03-07T16:16:15.000Z</Time>
            <Position>
              <LatitudeDegrees>40.74616192840039730072021484375</LatitudeDegrees>
              <LongitudeDegrees>-3.8013334013521671295166015625</LongitudeDegrees>
            </Position>
            <AltitudeMeters>911.79998779296875</AltitudeMeters>
            <DistanceMeters>NAN</DistanceMeters>
          </Trackpoint>
          <Trackpoint>
            <Time>2020-03-07T16:16:16.000Z</Time>
            <Position>
              <LatitudeDegrees>40.74611783958971500396728515625</LatitudeDegrees>
              <LongitudeDegrees>-3.80141914822161197662353515625</LongitudeDegrees>
            </Position>
            <AltitudeMeters>911.79998779296875</AltitudeMeters>
            <DistanceMeters>NAN</DistanceMeters>
          </Trackpoint>
          <Trackpoint>
            <Time>2020-03-07T16:16:17.000Z</Time>
            <Position>
              <LatitudeDegrees>40.74607375077903270721435546875</LatitudeDegrees>
              <LongitudeDegrees>-3.8015047274529933929443359375</LongitudeDegrees>
            </Position>
            <AltitudeMeters>911.79998779296875</AltitudeMeters>
            <DistanceMeters>NAN</DistanceMeters>
          </Trackpoint>
          <Trackpoint>
            <Time>2020-03-07T16:16:18.000Z</Time>
            <Position>
              <LatitudeDegrees>40.7460294105112552642822265625</LatitudeDegrees>
              <LongitudeDegrees>-3.80158980377018451690673828125</LongitudeDegrees>
            </Position>
            <AltitudeMeters>911.79998779296875</AltitudeMeters>
            <DistanceMeters>NAN</DistanceMeters>
          </Trackpoint>
          <Trackpoint>
            <Time>2020-03-07T16:16:19.000Z</Time>
            <Position>
              <LatitudeDegrees>40.74598523788154125213623046875</LatitudeDegrees>
              <LongitudeDegrees>-3.80167513154447078704833984375</LongitudeDegrees>
            </Position>
            <AltitudeMeters>911.79998779296875</AltitudeMeters>
            <DistanceMeters>NAN</DistanceMeters>
          </Trackpoint>
          <Trackpoint>
            <Time>2020-03-07T16:16:20.000Z</Time>
            <Position>
              <LatitudeDegrees>40.745941065251827239990234375</LatitudeDegrees>
              <LongitudeDegrees>-3.80175945349037647247314453125</LongitudeDegrees>
            </Position>
            <AltitudeMeters>912</AltitudeMeters>
            <DistanceMeters>NAN</DistanceMeters>
          </Trackpoint>
          <Trackpoint>
            <Time>2020-03-07T16:16:21.000Z</Time>
            <Position>
              <LatitudeDegrees>40.7458963058888912200927734375</LatitudeDegrees>
              <LongitudeDegrees>-3.80184377543628215789794921875</LongitudeDegrees>
            </Position>
            <AltitudeMeters>912</AltitudeMeters>
            <DistanceMeters>NAN</DistanceMeters>
          </Trackpoint>
          <Trackpoint>
            <Time>2020-03-07T16:16:22.000Z</Time>
            <Position>
              <LatitudeDegrees>40.74585163034498691558837890625</LatitudeDegrees>
              <LongitudeDegrees>-3.801929019391536712646484375</LongitudeDegrees>
            </Position>
            <AltitudeMeters>912</AltitudeMeters>
            <DistanceMeters>NAN</DistanceMeters>
          </Trackpoint>
          <Trackpoint>
            <Time>2020-03-07T16:16:23.000Z</Time>
            <Position>
              <LatitudeDegrees>40.74580703862011432647705078125</LatitudeDegrees>
              <LongitudeDegrees>-3.80201476626098155975341796875</LongitudeDegrees>
            </Position>
            <AltitudeMeters>912</AltitudeMeters>
            <DistanceMeters>NAN</DistanceMeters>
          </Trackpoint>
          <Trackpoint>
            <Time>2020-03-07T16:16:24.000Z</Time>
            <Position>
              <LatitudeDegrees>40.745762027800083160400390625</LatitudeDegrees>
              <LongitudeDegrees>-3.8020996749401092529296875</LongitudeDegrees>
            </Position>
            <AltitudeMeters>912</AltitudeMeters>
            <DistanceMeters>NAN</DistanceMeters>
          </Trackpoint>
          <Trackpoint>
            <Time>2020-03-07T16:16:25.000Z</Time>
            <Position>
              <LatitudeDegrees>40.7457169331610202789306640625</LatitudeDegrees>
              <LongitudeDegrees>-3.802186511456966400146484375</LongitudeDegrees>
            </Position>
            <AltitudeMeters>912</AltitudeMeters>
            <DistanceMeters>NAN</DistanceMeters>
          </Trackpoint>
          <Trackpoint>
            <Time>2020-03-07T16:16:26.000Z</Time>
            <Position>
              <LatitudeDegrees>40.74567259289324283599853515625</LatitudeDegrees>
              <LongitudeDegrees>-3.80227468907833099365234375</LongitudeDegrees>
            </Position>
            <AltitudeMeters>912</AltitudeMeters>
            <DistanceMeters>NAN</DistanceMeters>
          </Trackpoint>
          <Trackpoint>
            <Time>2020-03-07T16:16:27.000Z</Time>
            <Position>
              <LatitudeDegrees>40.74562733061611652374267578125</LatitudeDegrees>
              <LongitudeDegrees>-3.8023625314235687255859375</LongitudeDegrees>
            </Position>
            <AltitudeMeters>912</AltitudeMeters>
            <DistanceMeters>NAN</DistanceMeters>
          </Trackpoint>
          <Trackpoint>
            <Time>2020-03-07T16:16:28.000Z</Time>
            <Position>
              <LatitudeDegrees>40.74558072723448276519775390625</LatitudeDegrees>
              <LongitudeDegrees>-3.8024505414068698883056640625</LongitudeDegrees>
            </Position>
            <AltitudeMeters>912</AltitudeMeters>
            <DistanceMeters>NAN</DistanceMeters>
          </Trackpoint>
          <Trackpoint>
            <Time>2020-03-07T16:16:29.000Z</Time>
            <Position>
              <LatitudeDegrees>40.74553395621478557586669921875</LatitudeDegrees>
              <LongitudeDegrees>-3.80254047922790050506591796875</LongitudeDegrees>
            </Position>
            <AltitudeMeters>912</AltitudeMeters>
            <DistanceMeters>NAN</DistanceMeters>
          </Trackpoint>
          <Trackpoint>
            <Time>2020-03-07T16:16:30.000Z</Time>
            <Position>
              <LatitudeDegrees>40.74548651464283466339111328125</LatitudeDegrees>
              <LongitudeDegrees>-3.80263150669634342193603515625</LongitudeDegrees>
            </Position>
            <AltitudeMeters>912</AltitudeMeters>
            <DistanceMeters>NAN</DistanceMeters>
          </Trackpoint>
          <Trackpoint>
            <Time>2020-03-07T16:16:31.000Z</Time>
            <Position>
              <LatitudeDegrees>40.74543840251863002777099609375</LatitudeDegrees>
              <LongitudeDegrees>-3.80272395908832550048828125</LongitudeDegrees>
            </Position>
            <AltitudeMeters>912</AltitudeMeters>
            <DistanceMeters>NAN</DistanceMeters>
          </Trackpoint>
          <Trackpoint>
            <Time>2020-03-07T16:16:32.000Z</Time>
            <Position>
              <LatitudeDegrees>40.74538961984217166900634765625</LatitudeDegrees>
              <LongitudeDegrees>-3.8028185069561004638671875</LongitudeDegrees>
            </Position>
            <AltitudeMeters>912</AltitudeMeters>
            <DistanceMeters>NAN</DistanceMeters>
          </Trackpoint>
          <Trackpoint>
            <Time>2020-03-07T16:16:33.000Z</Time>
            <Position>
              <LatitudeDegrees>40.7453400827944278717041015625</LatitudeDegrees>
              <LongitudeDegrees>-3.802913725376129150390625</LongitudeDegrees>
            </Position>
            <AltitudeMeters>911.79998779296875</AltitudeMeters>
            <DistanceMeters>NAN</DistanceMeters>
          </Trackpoint>
          <Trackpoint>
            <Time>2020-03-07T16:16:34.000Z</Time>
            <Position>
              <LatitudeDegrees>40.745289959013462066650390625</LatitudeDegrees>
              <LongitudeDegrees>-3.803009949624538421630859375</LongitudeDegrees>
            </Position>
            <AltitudeMeters>911.79998779296875</AltitudeMeters>
            <DistanceMeters>NAN</DistanceMeters>
          </Trackpoint>
          <Trackpoint>
            <Time>2020-03-07T16:16:35.000Z</Time>
            <Position>
              <LatitudeDegrees>40.74523991905152797698974609375</LatitudeDegrees>
              <LongitudeDegrees>-3.80310676060616970062255859375</LongitudeDegrees>
            </Position>
            <AltitudeMeters>911.5999755859375</AltitudeMeters>
            <DistanceMeters>NAN</DistanceMeters>
          </Trackpoint>
          <Trackpoint>
            <Time>2020-03-07T16:16:36.000Z</Time>
            <Position>
              <LatitudeDegrees>40.74519046582281589508056640625</LatitudeDegrees>
              <LongitudeDegrees>-3.803204409778118133544921875</LongitudeDegrees>
            </Position>
            <AltitudeMeters>911.4000244140625</AltitudeMeters>
            <DistanceMeters>NAN</DistanceMeters>
          </Trackpoint>
          <Trackpoint>
            <Time>2020-03-07T16:16:37.000Z</Time>
            <Position>
              <LatitudeDegrees>40.745140425860881805419921875</LatitudeDegrees>
              <LongitudeDegrees>-3.803302980959415435791015625</LongitudeDegrees>
            </Position>
            <AltitudeMeters>911.20001220703125</AltitudeMeters>
            <DistanceMeters>NAN</DistanceMeters>
          </Trackpoint>
          <Trackpoint>
            <Time>2020-03-07T16:16:38.000Z</Time>
            <Position>
              <LatitudeDegrees>40.74508954770863056182861328125</LatitudeDegrees>
              <LongitudeDegrees>-3.8034010492265224456787109375</LongitudeDegrees>
            </Position>
            <AltitudeMeters>911.20001220703125</AltitudeMeters>
            <DistanceMeters>NAN</DistanceMeters>
          </Trackpoint>
          <Trackpoint>
            <Time>2020-03-07T16:16:39.000Z</Time>
            <Position>
              <LatitudeDegrees>40.7450373284518718719482421875</LatitudeDegrees>
              <LongitudeDegrees>-3.8034996204078197479248046875</LongitudeDegrees>
            </Position>
            <AltitudeMeters>911</AltitudeMeters>
            <DistanceMeters>NAN</DistanceMeters>
          </Trackpoint>
          <Trackpoint>
            <Time>2020-03-07T16:16:40.000Z</Time>
            <Position>
              <LatitudeDegrees>40.744984857738018035888671875</LatitudeDegrees>
              <LongitudeDegrees>-3.8035990297794342041015625</LongitudeDegrees>
            </Position>
            <AltitudeMeters>911</AltitudeMeters>
            <DistanceMeters>NAN</DistanceMeters>
          </Trackpoint>
          <Trackpoint>
            <Time>2020-03-07T16:16:41.000Z</Time>
            <Position>
              <LatitudeDegrees>40.744932554662227630615234375</LatitudeDegrees>
              <LongitudeDegrees>-3.80369919352233409881591796875</LongitudeDegrees>
            </Position>
            <AltitudeMeters>910.79998779296875</AltitudeMeters>
            <DistanceMeters>NAN</DistanceMeters>
          </Trackpoint>
          <Trackpoint>
            <Time>2020-03-07T16:16:42.000Z</Time>
            <Position>
              <LatitudeDegrees>40.7448800839483737945556640625</LatitudeDegrees>
              <LongitudeDegrees>-3.80380011163651943206787109375</LongitudeDegrees>
            </Position>
            <AltitudeMeters>910.5999755859375</AltitudeMeters>
            <DistanceMeters>NAN</DistanceMeters>
          </Trackpoint>
          <Trackpoint>
            <Time>2020-03-07T16:16:43.000Z</Time>
            <Position>
              <LatitudeDegrees>40.7448277808725833892822265625</LatitudeDegrees>
              <LongitudeDegrees>-3.80390220321714878082275390625</LongitudeDegrees>
            </Position>
            <AltitudeMeters>910.4000244140625</AltitudeMeters>
            <DistanceMeters>NAN</DistanceMeters>
          </Trackpoint>
          <Trackpoint>
            <Time>2020-03-07T16:16:44.000Z</Time>
            <Position>
              <LatitudeDegrees>40.74477438814938068389892578125</LatitudeDegrees>
              <LongitudeDegrees>-3.80400479771196842193603515625</LongitudeDegrees>
            </Position>
            <AltitudeMeters>910.4000244140625</AltitudeMeters>
            <DistanceMeters>NAN</DistanceMeters>
          </Trackpoint>
          <Trackpoint>
            <Time>2020-03-07T16:16:45.000Z</Time>
            <Position>
              <LatitudeDegrees>40.74471889995038509368896484375</LatitudeDegrees>
              <LongitudeDegrees>-3.804107643663883209228515625</LongitudeDegrees>
            </Position>
            <AltitudeMeters>910.4000244140625</AltitudeMeters>
            <DistanceMeters>NAN</DistanceMeters>
          </Trackpoint>
          <Trackpoint>
            <Time>2020-03-07T16:16:46.000Z</Time>
            <Position>
              <LatitudeDegrees>40.74466290883719921112060546875</LatitudeDegrees>
              <LongitudeDegrees>-3.8042120821774005889892578125</LongitudeDegrees>
            </Position>
            <AltitudeMeters>910.20001220703125</AltitudeMeters>
            <DistanceMeters>NAN</DistanceMeters>
          </Trackpoint>
          <Trackpoint>
            <Time>2020-03-07T16:16:47.000Z</Time>
            <Position>
              <LatitudeDegrees>40.7446078397333621978759765625</LatitudeDegrees>
              <LongitudeDegrees>-3.80431794561445713043212890625</LongitudeDegrees>
            </Position>
            <AltitudeMeters>910.20001220703125</AltitudeMeters>
            <DistanceMeters>NAN</DistanceMeters>
          </Trackpoint>
          <Trackpoint>
            <Time>2020-03-07T16:16:48.000Z</Time>
            <Position>
              <LatitudeDegrees>40.74455210007727146148681640625</LatitudeDegrees>
              <LongitudeDegrees>-3.8044246472418308258056640625</LongitudeDegrees>
            </Position>
            <AltitudeMeters>909.79998779296875</AltitudeMeters>
            <DistanceMeters>NAN</DistanceMeters>
          </Trackpoint>
          <Trackpoint>
            <Time>2020-03-07T16:16:49.000Z</Time>
            <Position>
              <LatitudeDegrees>40.74449845589697360992431640625</LatitudeDegrees>
              <LongitudeDegrees>-3.80453151650726795196533203125</LongitudeDegrees>
            </Position>
            <AltitudeMeters>909.4000244140625</AltitudeMeters>
            <DistanceMeters>NAN</DistanceMeters>
          </Trackpoint>
          <Trackpoint>
            <Time>2020-03-07T16:16:50.000Z</Time>
            <Position>
              <LatitudeDegrees>40.74444447644054889678955078125</LatitudeDegrees>
              <LongitudeDegrees>-3.8046388886868953704833984375</LongitudeDegrees>
            </Position>
            <AltitudeMeters>909.20001220703125</AltitudeMeters>
            <DistanceMeters>NAN</DistanceMeters>
          </Trackpoint>
          <Trackpoint>
            <Time>2020-03-07T16:16:51.000Z</Time>
            <Position>
              <LatitudeDegrees>40.7443902455270290374755859375</LatitudeDegrees>
              <LongitudeDegrees>-3.8047441653907299041748046875</LongitudeDegrees>
            </Position>
            <AltitudeMeters>908.79998779296875</AltitudeMeters>
            <DistanceMeters>NAN</DistanceMeters>
          </Trackpoint>
          <Trackpoint>
            <Time>2020-03-07T16:16:52.000Z</Time>
            <Position>
              <LatitudeDegrees>40.74433743953704833984375</LatitudeDegrees>
              <LongitudeDegrees>-3.80484868772327899932861328125</LongitudeDegrees>
            </Position>
            <AltitudeMeters>908.4000244140625</AltitudeMeters>
            <DistanceMeters>NAN</DistanceMeters>
          </Trackpoint>
          <Trackpoint>
            <Time>2020-03-07T16:16:53.000Z</Time>
            <Position>
              <LatitudeDegrees>40.74428589083254337310791015625</LatitudeDegrees>
              <LongitudeDegrees>-3.80495161749422550201416015625</LongitudeDegrees>
            </Position>
            <AltitudeMeters>907.79998779296875</AltitudeMeters>
            <DistanceMeters>NAN</DistanceMeters>
          </Trackpoint>
          <Trackpoint>
            <Time>2020-03-07T16:16:54.000Z</Time>
            <Position>
              <LatitudeDegrees>40.744234509766101837158203125</LatitudeDegrees>
              <LongitudeDegrees>-3.80505370907485485076904296875</LongitudeDegrees>
            </Position>
            <AltitudeMeters>907.4000244140625</AltitudeMeters>
            <DistanceMeters>NAN</DistanceMeters>
          </Trackpoint>
          <Trackpoint>
            <Time>2020-03-07T16:16:55.000Z</Time>
            <Position>
              <LatitudeDegrees>40.74418279342353343963623046875</LatitudeDegrees>
              <LongitudeDegrees>-3.80515563301742076873779296875</LongitudeDegrees>
            </Position>
            <AltitudeMeters>907</AltitudeMeters>
            <DistanceMeters>NAN</DistanceMeters>
          </Trackpoint>
          <Trackpoint>
            <Time>2020-03-07T16:16:56.000Z</Time>
            <Position>
              <LatitudeDegrees>40.7441304065287113189697265625</LatitudeDegrees>
              <LongitudeDegrees>-3.80525655113160610198974609375</LongitudeDegrees>
            </Position>
            <AltitudeMeters>906.79998779296875</AltitudeMeters>
            <DistanceMeters>NAN</DistanceMeters>
          </Trackpoint>
          <Trackpoint>
            <Time>2020-03-07T16:16:57.000Z</Time>
            <Position>
              <LatitudeDegrees>40.74407801963388919830322265625</LatitudeDegrees>
              <LongitudeDegrees>-3.805357553064823150634765625</LongitudeDegrees>
            </Position>
            <AltitudeMeters>906.4000244140625</AltitudeMeters>
            <DistanceMeters>NAN</DistanceMeters>
          </Trackpoint>
          <Trackpoint>
            <Time>2020-03-07T16:16:58.000Z</Time>
            <Position>
              <LatitudeDegrees>40.7440247945487499237060546875</LatitudeDegrees>
              <LongitudeDegrees>-3.8054603151977062225341796875</LongitudeDegrees>
            </Position>
            <AltitudeMeters>906</AltitudeMeters>
            <DistanceMeters>NAN</DistanceMeters>
          </Trackpoint>
          <Trackpoint>
            <Time>2020-03-07T16:16:59.000Z</Time>
            <Position>
              <LatitudeDegrees>40.74397257529199123382568359375</LatitudeDegrees>
              <LongitudeDegrees>-3.80556098185479640960693359375</LongitudeDegrees>
            </Position>
            <AltitudeMeters>905.5999755859375</AltitudeMeters>
            <DistanceMeters>NAN</DistanceMeters>
          </Trackpoint>
          <Trackpoint>
            <Time>2020-03-07T16:17:00.000Z</Time>
            <Position>
              <LatitudeDegrees>40.74392127804458141326904296875</LatitudeDegrees>
              <LongitudeDegrees>-3.805659972131252288818359375</LongitudeDegrees>
            </Position>
            <AltitudeMeters>905.4000244140625</AltitudeMeters>
            <DistanceMeters>NAN</DistanceMeters>
          </Trackpoint>
          <Trackpoint>
            <Time>2020-03-07T16:17:01.000Z</Time>
            <Position>
              <LatitudeDegrees>40.74387081898748874664306640625</LatitudeDegrees>
              <LongitudeDegrees>-3.80575778894126415252685546875</LongitudeDegrees>
            </Position>
            <AltitudeMeters>905</AltitudeMeters>
            <DistanceMeters>NAN</DistanceMeters>
          </Trackpoint>
          <Trackpoint>
            <Time>2020-03-07T16:17:02.000Z</Time>
            <Position>
              <LatitudeDegrees>40.74382069520652294158935546875</LatitudeDegrees>
              <LongitudeDegrees>-3.80585552193224430084228515625</LongitudeDegrees>
            </Position>
            <AltitudeMeters>904.79998779296875</AltitudeMeters>
            <DistanceMeters>NAN</DistanceMeters>
          </Trackpoint>
          <Trackpoint>
            <Time>2020-03-07T16:17:03.000Z</Time>
            <Position>
              <LatitudeDegrees>40.7437716610729694366455078125</LatitudeDegrees>
              <LongitudeDegrees>-3.80595157854259014129638671875</LongitudeDegrees>
            </Position>
            <AltitudeMeters>904.79998779296875</AltitudeMeters>
            <DistanceMeters>NAN</DistanceMeters>
          </Trackpoint>
          <Trackpoint>
            <Time>2020-03-07T16:17:04.000Z</Time>
            <Position>
              <LatitudeDegrees>40.74372254312038421630859375</LatitudeDegrees>
              <LongitudeDegrees>-3.80604797042906284332275390625</LongitudeDegrees>
            </Position>
            <AltitudeMeters>904.79998779296875</AltitudeMeters>
            <DistanceMeters>NAN</DistanceMeters>
          </Trackpoint>
          <Trackpoint>
            <Time>2020-03-07T16:17:05.000Z</Time>
            <Position>
              <LatitudeDegrees>40.74372254312038421630859375</LatitudeDegrees>
              <LongitudeDegrees>-3.80604797042906284332275390625</LongitudeDegrees>
            </Position>
            <AltitudeMeters>904.79998779296875</AltitudeMeters>
            <DistanceMeters>NAN</DistanceMeters>
          </Trackpoint>
          <Trackpoint>
            <Time>2020-03-07T16:17:06.000Z</Time>
            <Position>
              <LatitudeDegrees>40.7436727546155452728271484375</LatitudeDegrees>
              <LongitudeDegrees>-3.80614419467747211456298828125</LongitudeDegrees>
            </Position>
            <AltitudeMeters>904.79998779296875</AltitudeMeters>
            <DistanceMeters>NAN</DistanceMeters>
          </Trackpoint>
          <Trackpoint>
            <Time>2020-03-07T16:17:07.000Z</Time>
            <Position>
              <LatitudeDegrees>40.74362196028232574462890625</LatitudeDegrees>
              <LongitudeDegrees>-3.806239999830722808837890625</LongitudeDegrees>
            </Position>
            <AltitudeMeters>904.79998779296875</AltitudeMeters>
            <DistanceMeters>NAN</DistanceMeters>
          </Trackpoint>
          <Trackpoint>
            <Time>2020-03-07T16:17:08.000Z</Time>
            <Position>
              <LatitudeDegrees>40.74357175268232822418212890625</LatitudeDegrees>
              <LongitudeDegrees>-3.806336559355258941650390625</LongitudeDegrees>
            </Position>
            <AltitudeMeters>904.79998779296875</AltitudeMeters>
            <DistanceMeters>NAN</DistanceMeters>
          </Trackpoint>
          <Trackpoint>
            <Time>2020-03-07T16:17:09.000Z</Time>
            <Position>
              <LatitudeDegrees>40.7434709183871746063232421875</LatitudeDegrees>
              <LongitudeDegrees>-3.8065281696617603302001953125</LongitudeDegrees>
            </Position>
            <AltitudeMeters>904.79998779296875</AltitudeMeters>
            <DistanceMeters>NAN</DistanceMeters>
          </Trackpoint>
          <Trackpoint>
            <Time>2020-03-07T16:17:10.000Z</Time>
            <Position>
              <LatitudeDegrees>40.743421800434589385986328125</LatitudeDegrees>
              <LongitudeDegrees>-3.80662313662469387054443359375</LongitudeDegrees>
            </Position>
            <AltitudeMeters>904.79998779296875</AltitudeMeters>
            <DistanceMeters>NAN</DistanceMeters>
          </Trackpoint>
          <Trackpoint>
            <Time>2020-03-07T16:17:11.000Z</Time>
            <Position>
              <LatitudeDegrees>40.7433733530342578887939453125</LatitudeDegrees>
              <LongitudeDegrees>-3.80671701394021511077880859375</LongitudeDegrees>
            </Position>
            <AltitudeMeters>904.79998779296875</AltitudeMeters>
            <DistanceMeters>NAN</DistanceMeters>
          </Trackpoint>
          <Trackpoint>
            <Time>2020-03-07T16:17:12.000Z</Time>
            <Position>
              <LatitudeDegrees>40.7433247379958629608154296875</LatitudeDegrees>
              <LongitudeDegrees>-3.8068101368844509124755859375</LongitudeDegrees>
            </Position>
            <AltitudeMeters>904.79998779296875</AltitudeMeters>
            <DistanceMeters>NAN</DistanceMeters>
          </Trackpoint>
          <Trackpoint>
            <Time>2020-03-07T16:17:13.000Z</Time>
            <Position>
              <LatitudeDegrees>40.74327654205262660980224609375</LatitudeDegrees>
              <LongitudeDegrees>-3.80690292455255985260009765625</LongitudeDegrees>
            </Position>
            <AltitudeMeters>904.79998779296875</AltitudeMeters>
            <DistanceMeters>NAN</DistanceMeters>
          </Trackpoint>
          <Trackpoint>
            <Time>2020-03-07T16:17:14.000Z</Time>
            <Position>
              <LatitudeDegrees>40.74327654205262660980224609375</LatitudeDegrees>
              <LongitudeDegrees>-3.80690292455255985260009765625</LongitudeDegrees>
            </Position>
            <AltitudeMeters>904.79998779296875</AltitudeMeters>
            <DistanceMeters>NAN</DistanceMeters>
          </Trackpoint>
          <Trackpoint>
            <Time>2020-03-07T16:17:15.000Z</Time>
            <Position>
              <LatitudeDegrees>40.74317914433777332305908203125</LatitudeDegrees>
              <LongitudeDegrees>-3.80708715878427028656005859375</LongitudeDegrees>
            </Position>
            <AltitudeMeters>904.79998779296875</AltitudeMeters>
            <DistanceMeters>NAN</DistanceMeters>
          </Trackpoint>
          <Trackpoint>
            <Time>2020-03-07T16:17:16.000Z</Time>
            <Position>
              <LatitudeDegrees>40.7431296072900295257568359375</LatitudeDegrees>
              <LongitudeDegrees>-3.8071782700717449188232421875</LongitudeDegrees>
            </Position>
            <AltitudeMeters>904.79998779296875</AltitudeMeters>
            <DistanceMeters>NAN</DistanceMeters>
          </Trackpoint>
          <Trackpoint>
            <Time>2020-03-07T16:17:17.000Z</Time>
            <Position>
              <LatitudeDegrees>40.74308141134679317474365234375</LatitudeDegrees>
              <LongitudeDegrees>-3.80726988427340984344482421875</LongitudeDegrees>
            </Position>
            <AltitudeMeters>904.79998779296875</AltitudeMeters>
            <DistanceMeters>NAN</DistanceMeters>
          </Trackpoint>
          <Trackpoint>
            <Time>2020-03-07T16:17:18.000Z</Time>
            <Position>
              <LatitudeDegrees>40.743033550679683685302734375</LatitudeDegrees>
              <LongitudeDegrees>-3.807362504303455352783203125</LongitudeDegrees>
            </Position>
            <AltitudeMeters>905</AltitudeMeters>
            <DistanceMeters>NAN</DistanceMeters>
          </Trackpoint>
          <Trackpoint>
            <Time>2020-03-07T16:17:19.000Z</Time>
            <Position>
              <LatitudeDegrees>40.74298518709838390350341796875</LatitudeDegrees>
              <LongitudeDegrees>-3.807454369962215423583984375</LongitudeDegrees>
            </Position>
            <AltitudeMeters>905</AltitudeMeters>
            <DistanceMeters>NAN</DistanceMeters>
          </Trackpoint>
          <Trackpoint>
            <Time>2020-03-07T16:17:20.000Z</Time>
            <Position>
              <LatitudeDegrees>40.74293665587902069091796875</LatitudeDegrees>
              <LongitudeDegrees>-3.8075464032590389251708984375</LongitudeDegrees>
            </Position>
            <AltitudeMeters>905</AltitudeMeters>
            <DistanceMeters>NAN</DistanceMeters>
          </Trackpoint>
          <Trackpoint>
            <Time>2020-03-07T16:17:21.000Z</Time>
            <Position>
              <LatitudeDegrees>40.742888711392879486083984375</LatitudeDegrees>
              <LongitudeDegrees>-3.80763868801295757293701171875</LongitudeDegrees>
            </Position>
            <AltitudeMeters>905</AltitudeMeters>
            <DistanceMeters>NAN</DistanceMeters>
          </Trackpoint>
          <Trackpoint>
            <Time>2020-03-07T16:17:22.000Z</Time>
            <Position>
              <LatitudeDegrees>40.74284068308770656585693359375</LatitudeDegrees>
              <LongitudeDegrees>-3.80773030221462249755859375</LongitudeDegrees>
            </Position>
            <AltitudeMeters>905</AltitudeMeters>
            <DistanceMeters>NAN</DistanceMeters>
          </Trackpoint>
          <Trackpoint>
            <Time>2020-03-07T16:17:23.000Z</Time>
            <Position>
              <LatitudeDegrees>40.74279248714447021484375</LatitudeDegrees>
              <LongitudeDegrees>-3.80782091058790683746337890625</LongitudeDegrees>
            </Position>
            <AltitudeMeters>905</AltitudeMeters>
            <DistanceMeters>NAN</DistanceMeters>
          </Trackpoint>
          <Trackpoint>
            <Time>2020-03-07T16:17:24.000Z</Time>
            <Position>
              <LatitudeDegrees>40.742744542658329010009765625</LatitudeDegrees>
              <LongitudeDegrees>-3.807911686599254608154296875</LongitudeDegrees>
            </Position>
            <AltitudeMeters>904.79998779296875</AltitudeMeters>
            <DistanceMeters>NAN</DistanceMeters>
          </Trackpoint>
          <Trackpoint>
            <Time>2020-03-07T16:17:25.000Z</Time>
            <Position>
              <LatitudeDegrees>40.7426964305341243743896484375</LatitudeDegrees>
              <LongitudeDegrees>-3.80800229497253894805908203125</LongitudeDegrees>
            </Position>
            <AltitudeMeters>904.79998779296875</AltitudeMeters>
            <DistanceMeters>NAN</DistanceMeters>
          </Trackpoint>
          <Trackpoint>
            <Time>2020-03-07T16:17:26.000Z</Time>
            <Position>
              <LatitudeDegrees>40.74264890514314174652099609375</LatitudeDegrees>
              <LongitudeDegrees>-3.80809214897453784942626953125</LongitudeDegrees>
            </Position>
            <AltitudeMeters>904.79998779296875</AltitudeMeters>
            <DistanceMeters>NAN</DistanceMeters>
          </Trackpoint>
          <Trackpoint>
            <Time>2020-03-07T16:17:27.000Z</Time>
            <Position>
              <LatitudeDegrees>40.7426022179424762725830078125</LatitudeDegrees>
              <LongitudeDegrees>-3.8081827573478221893310546875</LongitudeDegrees>
            </Position>
            <AltitudeMeters>904.79998779296875</AltitudeMeters>
            <DistanceMeters>NAN</DistanceMeters>
          </Trackpoint>
          <Trackpoint>
            <Time>2020-03-07T16:17:28.000Z</Time>
            <Position>
              <LatitudeDegrees>40.74255653657019138336181640625</LatitudeDegrees>
              <LongitudeDegrees>-3.8082739524543285369873046875</LongitudeDegrees>
            </Position>
            <AltitudeMeters>904.79998779296875</AltitudeMeters>
            <DistanceMeters>NAN</DistanceMeters>
          </Trackpoint>
          <Trackpoint>
            <Time>2020-03-07T16:17:29.000Z</Time>
            <Position>
              <LatitudeDegrees>40.74251093901693820953369140625</LatitudeDegrees>
              <LongitudeDegrees>-3.8083654828369617462158203125</LongitudeDegrees>
            </Position>
            <AltitudeMeters>904.5999755859375</AltitudeMeters>
            <DistanceMeters>NAN</DistanceMeters>
          </Trackpoint>
          <Trackpoint>
            <Time>2020-03-07T16:17:30.000Z</Time>
            <Position>
              <LatitudeDegrees>40.74246458709239959716796875</LatitudeDegrees>
              <LongitudeDegrees>-3.808455169200897216796875</LongitudeDegrees>
            </Position>
            <AltitudeMeters>904.5999755859375</AltitudeMeters>
            <DistanceMeters>NAN</DistanceMeters>
          </Trackpoint>
          <Trackpoint>
            <Time>2020-03-07T16:17:31.000Z</Time>
            <Position>
              <LatitudeDegrees>40.742418654263019561767578125</LatitudeDegrees>
              <LongitudeDegrees>-3.80854326300323009490966796875</LongitudeDegrees>
            </Position>
            <AltitudeMeters>904.4000244140625</AltitudeMeters>
            <DistanceMeters>NAN</DistanceMeters>
          </Trackpoint>
          <Trackpoint>
            <Time>2020-03-07T16:17:32.000Z</Time>
            <Position>
              <LatitudeDegrees>40.74237314052879810333251953125</LatitudeDegrees>
              <LongitudeDegrees>-3.8086310215294361114501953125</LongitudeDegrees>
            </Position>
            <AltitudeMeters>904.4000244140625</AltitudeMeters>
            <DistanceMeters>NAN</DistanceMeters>
          </Trackpoint>
          <Trackpoint>
            <Time>2020-03-07T16:17:33.000Z</Time>
            <Position>
              <LatitudeDegrees>40.74232754297554492950439453125</LatitudeDegrees>
              <LongitudeDegrees>-3.80871777422726154327392578125</LongitudeDegrees>
            </Position>
            <AltitudeMeters>904.4000244140625</AltitudeMeters>
            <DistanceMeters>NAN</DistanceMeters>
          </Trackpoint>
          <Trackpoint>
            <Time>2020-03-07T16:17:34.000Z</Time>
            <Position>
              <LatitudeDegrees>40.74228194542229175567626953125</LatitudeDegrees>
              <LongitudeDegrees>-3.80880410782992839813232421875</LongitudeDegrees>
            </Position>
            <AltitudeMeters>904.4000244140625</AltitudeMeters>
            <DistanceMeters>NAN</DistanceMeters>
          </Trackpoint>
          <Trackpoint>
            <Time>2020-03-07T16:17:35.000Z</Time>
            <Position>
              <LatitudeDegrees>40.7422371022403240203857421875</LatitudeDegrees>
              <LongitudeDegrees>-3.80889027379453182220458984375</LongitudeDegrees>
            </Position>
            <AltitudeMeters>904.4000244140625</AltitudeMeters>
            <DistanceMeters>NAN</DistanceMeters>
          </Trackpoint>
          <Trackpoint>
            <Time>2020-03-07T16:17:36.000Z</Time>
            <Position>
              <LatitudeDegrees>40.74219175614416599273681640625</LatitudeDegrees>
              <LongitudeDegrees>-3.808974511921405792236328125</LongitudeDegrees>
            </Position>
            <AltitudeMeters>904.4000244140625</AltitudeMeters>
            <DistanceMeters>NAN</DistanceMeters>
          </Trackpoint>
          <Trackpoint>
            <Time>2020-03-07T16:17:37.000Z</Time>
            <Position>
              <LatitudeDegrees>40.742145739495754241943359375</LatitudeDegrees>
              <LongitudeDegrees>-3.8090573251247406005859375</LongitudeDegrees>
            </Position>
            <AltitudeMeters>904.4000244140625</AltitudeMeters>
            <DistanceMeters>NAN</DistanceMeters>
          </Trackpoint>
          <Trackpoint>
            <Time>2020-03-07T16:17:38.000Z</Time>
            <Position>
              <LatitudeDegrees>40.74210106395184993743896484375</LatitudeDegrees>
              <LongitudeDegrees>-3.8091399706900119781494140625</LongitudeDegrees>
            </Position>
            <AltitudeMeters>904.4000244140625</AltitudeMeters>
            <DistanceMeters>NAN</DistanceMeters>
          </Trackpoint>
          <Trackpoint>
            <Time>2020-03-07T16:17:39.000Z</Time>
            <Position>
              <LatitudeDegrees>40.7420587353408336639404296875</LatitudeDegrees>
              <LongitudeDegrees>-3.8092237897217273712158203125</LongitudeDegrees>
            </Position>
            <AltitudeMeters>904.20001220703125</AltitudeMeters>
            <DistanceMeters>NAN</DistanceMeters>
          </Trackpoint>
          <Trackpoint>
            <Time>2020-03-07T16:17:40.000Z</Time>
            <Position>
              <LatitudeDegrees>40.742016993463039398193359375</LatitudeDegrees>
              <LongitudeDegrees>-3.80930702202022075653076171875</LongitudeDegrees>
            </Position>
            <AltitudeMeters>904.20001220703125</AltitudeMeters>
            <DistanceMeters>NAN</DistanceMeters>
          </Trackpoint>
          <Trackpoint>
            <Time>2020-03-07T16:17:41.000Z</Time>
            <Position>
              <LatitudeDegrees>40.74197466485202312469482421875</LatitudeDegrees>
              <LongitudeDegrees>-3.80938882939517498016357421875</LongitudeDegrees>
            </Position>
            <AltitudeMeters>904.20001220703125</AltitudeMeters>
            <DistanceMeters>NAN</DistanceMeters>
          </Trackpoint>
          <Trackpoint>
            <Time>2020-03-07T16:17:42.000Z</Time>
            <Position>
              <LatitudeDegrees>40.74193174950778484344482421875</LatitudeDegrees>
              <LongitudeDegrees>-3.8094692118465900421142578125</LongitudeDegrees>
            </Position>
            <AltitudeMeters>904.20001220703125</AltitudeMeters>
            <DistanceMeters>NAN</DistanceMeters>
          </Trackpoint>
          <Trackpoint>
            <Time>2020-03-07T16:17:43.000Z</Time>
            <Position>
              <LatitudeDegrees>40.74188883416354656219482421875</LatitudeDegrees>
              <LongitudeDegrees>-3.80954925902187824249267578125</LongitudeDegrees>
            </Position>
            <AltitudeMeters>904.20001220703125</AltitudeMeters>
            <DistanceMeters>NAN</DistanceMeters>
          </Trackpoint>
          <Trackpoint>
            <Time>2020-03-07T16:17:44.000Z</Time>
            <Position>
              <LatitudeDegrees>40.74184692464768886566162109375</LatitudeDegrees>
              <LongitudeDegrees>-3.809629976749420166015625</LongitudeDegrees>
            </Position>
            <AltitudeMeters>904.20001220703125</AltitudeMeters>
            <DistanceMeters>NAN</DistanceMeters>
          </Trackpoint>
          <Trackpoint>
            <Time>2020-03-07T16:17:45.000Z</Time>
            <Position>
              <LatitudeDegrees>40.74180476367473602294921875</LatitudeDegrees>
              <LongitudeDegrees>-3.80971119739115238189697265625</LongitudeDegrees>
            </Position>
            <AltitudeMeters>904.20001220703125</AltitudeMeters>
            <DistanceMeters>NAN</DistanceMeters>
          </Trackpoint>
          <Trackpoint>
            <Time>2020-03-07T16:17:46.000Z</Time>
            <Position>
              <LatitudeDegrees>40.741761513054370880126953125</LatitudeDegrees>
              <LongitudeDegrees>-3.80979233421385288238525390625</LongitudeDegrees>
            </Position>
            <AltitudeMeters>904.20001220703125</AltitudeMeters>
            <DistanceMeters>NAN</DistanceMeters>
          </Trackpoint>
          <Trackpoint>
            <Time>2020-03-07T16:17:47.000Z</Time>
            <Position>
              <LatitudeDegrees>40.7417184300720691680908203125</LatitudeDegrees>
              <LongitudeDegrees>-3.80987397395074367523193359375</LongitudeDegrees>
            </Position>
            <AltitudeMeters>904.20001220703125</AltitudeMeters>
            <DistanceMeters>NAN</DistanceMeters>
          </Trackpoint>
          <Trackpoint>
            <Time>2020-03-07T16:17:48.000Z</Time>
            <Position>
              <LatitudeDegrees>40.7416753470897674560546875</LatitudeDegrees>
              <LongitudeDegrees>-3.80995628423988819122314453125</LongitudeDegrees>
            </Position>
            <AltitudeMeters>904.4000244140625</AltitudeMeters>
            <DistanceMeters>NAN</DistanceMeters>
          </Trackpoint>
          <Trackpoint>
            <Time>2020-03-07T16:17:49.000Z</Time>
            <Position>
              <LatitudeDegrees>40.74163234792649745941162109375</LatitudeDegrees>
              <LongitudeDegrees>-3.81003892980515956878662109375</LongitudeDegrees>
            </Position>
            <AltitudeMeters>904.4000244140625</AltitudeMeters>
            <DistanceMeters>NAN</DistanceMeters>
          </Trackpoint>
          <Trackpoint>
            <Time>2020-03-07T16:17:50.000Z</Time>
            <Position>
              <LatitudeDegrees>40.74158892966806888580322265625</LatitudeDegrees>
              <LongitudeDegrees>-3.8101226650178432464599609375</LongitudeDegrees>
            </Position>
            <AltitudeMeters>904.4000244140625</AltitudeMeters>
            <DistanceMeters>NAN</DistanceMeters>
          </Trackpoint>
          <Trackpoint>
            <Time>2020-03-07T16:17:51.000Z</Time>
            <Position>
              <LatitudeDegrees>40.74154458940029144287109375</LatitudeDegrees>
              <LongitudeDegrees>-3.81020589731633663177490234375</LongitudeDegrees>
            </Position>
            <AltitudeMeters>904.4000244140625</AltitudeMeters>
            <DistanceMeters>NAN</DistanceMeters>
          </Trackpoint>
          <Trackpoint>
            <Time>2020-03-07T16:17:52.000Z</Time>
            <Position>
              <LatitudeDegrees>40.74150024913251399993896484375</LatitudeDegrees>
              <LongitudeDegrees>-3.8102886267006397247314453125</LongitudeDegrees>
            </Position>
            <AltitudeMeters>904.4000244140625</AltitudeMeters>
            <DistanceMeters>NAN</DistanceMeters>
          </Trackpoint>
          <Trackpoint>
            <Time>2020-03-07T16:17:53.000Z</Time>
            <Position>
              <LatitudeDegrees>40.741457082331180572509765625</LatitudeDegrees>
              <LongitudeDegrees>-3.8103716075420379638671875</LongitudeDegrees>
            </Position>
            <AltitudeMeters>904.20001220703125</AltitudeMeters>
            <DistanceMeters>NAN</DistanceMeters>
          </Trackpoint>
          <Trackpoint>
            <Time>2020-03-07T16:17:54.000Z</Time>
            <Position>
              <LatitudeDegrees>40.74141492135822772979736328125</LatitudeDegrees>
              <LongitudeDegrees>-3.81045551039278507232666015625</LongitudeDegrees>
            </Position>
            <AltitudeMeters>904.20001220703125</AltitudeMeters>
            <DistanceMeters>NAN</DistanceMeters>
          </Trackpoint>
          <Trackpoint>
            <Time>2020-03-07T16:17:55.000Z</Time>
            <Position>
              <LatitudeDegrees>40.7413720898330211639404296875</LatitudeDegrees>
              <LongitudeDegrees>-3.810538910329341888427734375</LongitudeDegrees>
            </Position>
            <AltitudeMeters>904.4000244140625</AltitudeMeters>
            <DistanceMeters>NAN</DistanceMeters>
          </Trackpoint>
          <Trackpoint>
            <Time>2020-03-07T16:17:56.000Z</Time>
            <Position>
              <LatitudeDegrees>40.7413280010223388671875</LatitudeDegrees>
              <LongitudeDegrees>-3.810620717704296112060546875</LongitudeDegrees>
            </Position>
            <AltitudeMeters>904.4000244140625</AltitudeMeters>
            <DistanceMeters>NAN</DistanceMeters>
          </Trackpoint>
          <Trackpoint>
            <Time>2020-03-07T16:17:57.000Z</Time>
            <Position>
              <LatitudeDegrees>40.7412832416594028472900390625</LatitudeDegrees>
              <LongitudeDegrees>-3.810702525079250335693359375</LongitudeDegrees>
            </Position>
            <AltitudeMeters>904.4000244140625</AltitudeMeters>
            <DistanceMeters>NAN</DistanceMeters>
          </Trackpoint>
          <Trackpoint>
            <Time>2020-03-07T16:17:58.000Z</Time>
            <Position>
              <LatitudeDegrees>40.74123973958194255828857421875</LatitudeDegrees>
              <LongitudeDegrees>-3.81078575737774372100830078125</LongitudeDegrees>
            </Position>
            <AltitudeMeters>904.4000244140625</AltitudeMeters>
            <DistanceMeters>NAN</DistanceMeters>
          </Trackpoint>
          <Trackpoint>
            <Time>2020-03-07T16:17:59.000Z</Time>
            <Position>
              <LatitudeDegrees>40.741197578608989715576171875</LatitudeDegrees>
              <LongitudeDegrees>-3.8108718395233154296875</LongitudeDegrees>
            </Position>
            <AltitudeMeters>904.4000244140625</AltitudeMeters>
            <DistanceMeters>NAN</DistanceMeters>
          </Trackpoint>
          <Trackpoint>
            <Time>2020-03-07T16:18:00.000Z</Time>
            <Position>
              <LatitudeDegrees>40.7411549985408782958984375</LatitudeDegrees>
              <LongitudeDegrees>-3.810958676040172576904296875</LongitudeDegrees>
            </Position>
            <AltitudeMeters>904.4000244140625</AltitudeMeters>
            <DistanceMeters>NAN</DistanceMeters>
          </Trackpoint>
          <Trackpoint>
            <Time>2020-03-07T16:18:01.000Z</Time>
            <Position>
              <LatitudeDegrees>40.7411112450063228607177734375</LatitudeDegrees>
              <LongitudeDegrees>-3.8110460154712200164794921875</LongitudeDegrees>
            </Position>
            <AltitudeMeters>904.4000244140625</AltitudeMeters>
            <DistanceMeters>NAN</DistanceMeters>
          </Trackpoint>
          <Trackpoint>
            <Time>2020-03-07T16:18:02.000Z</Time>
            <Position>
              <LatitudeDegrees>40.7410669885575771331787109375</LatitudeDegrees>
              <LongitudeDegrees>-3.8111338578164577484130859375</LongitudeDegrees>
            </Position>
            <AltitudeMeters>904.4000244140625</AltitudeMeters>
            <DistanceMeters>NAN</DistanceMeters>
          </Trackpoint>
          <Trackpoint>
            <Time>2020-03-07T16:18:03.000Z</Time>
            <Position>
              <LatitudeDegrees>40.7410220615565776824951171875</LatitudeDegrees>
              <LongitudeDegrees>-3.811222203075885772705078125</LongitudeDegrees>
            </Position>
            <AltitudeMeters>904.4000244140625</AltitudeMeters>
            <DistanceMeters>NAN</DistanceMeters>
          </Trackpoint>
          <Trackpoint>
            <Time>2020-03-07T16:18:04.000Z</Time>
            <Position>
              <LatitudeDegrees>40.74097596108913421630859375</LatitudeDegrees>
              <LongitudeDegrees>-3.81131096743047237396240234375</LongitudeDegrees>
            </Position>
            <AltitudeMeters>904.4000244140625</AltitudeMeters>
            <DistanceMeters>NAN</DistanceMeters>
          </Trackpoint>
          <Trackpoint>
            <Time>2020-03-07T16:18:05.000Z</Time>
            <Position>
              <LatitudeDegrees>40.7409288547933101654052734375</LatitudeDegrees>
              <LongitudeDegrees>-3.81140065379440784454345703125</LongitudeDegrees>
            </Position>
            <AltitudeMeters>904.4000244140625</AltitudeMeters>
            <DistanceMeters>NAN</DistanceMeters>
          </Trackpoint>
          <Trackpoint>
            <Time>2020-03-07T16:18:06.000Z</Time>
            <Position>
              <LatitudeDegrees>40.7408814132213592529296875</LatitudeDegrees>
              <LongitudeDegrees>-3.81149084307253360748291015625</LongitudeDegrees>
            </Position>
            <AltitudeMeters>904.20001220703125</AltitudeMeters>
            <DistanceMeters>NAN</DistanceMeters>
          </Trackpoint>
          <Trackpoint>
            <Time>2020-03-07T16:18:07.000Z</Time>
            <Position>
              <LatitudeDegrees>40.740834139287471771240234375</LatitudeDegrees>
              <LongitudeDegrees>-3.8115821219980716705322265625</LongitudeDegrees>
            </Position>
            <AltitudeMeters>904.20001220703125</AltitudeMeters>
            <DistanceMeters>NAN</DistanceMeters>
          </Trackpoint>
          <Trackpoint>
            <Time>2020-03-07T16:18:08.000Z</Time>
            <Position>
              <LatitudeDegrees>40.740786530077457427978515625</LatitudeDegrees>
              <LongitudeDegrees>-3.8116746582090854644775390625</LongitudeDegrees>
            </Position>
            <AltitudeMeters>904.20001220703125</AltitudeMeters>
            <DistanceMeters>NAN</DistanceMeters>
          </Trackpoint>
          <Trackpoint>
            <Time>2020-03-07T16:18:09.000Z</Time>
            <Position>
              <LatitudeDegrees>40.7407379150390625</LatitudeDegrees>
              <LongitudeDegrees>-3.81176778115332126617431640625</LongitudeDegrees>
            </Position>
            <AltitudeMeters>904</AltitudeMeters>
            <DistanceMeters>NAN</DistanceMeters>
          </Trackpoint>
          <Trackpoint>
            <Time>2020-03-07T16:18:10.000Z</Time>
            <Position>
              <LatitudeDegrees>40.740687958896160125732421875</LatitudeDegrees>
              <LongitudeDegrees>-3.8118607364594936370849609375</LongitudeDegrees>
            </Position>
            <AltitudeMeters>904</AltitudeMeters>
            <DistanceMeters>NAN</DistanceMeters>
          </Trackpoint>
          <Trackpoint>
            <Time>2020-03-07T16:18:11.000Z</Time>
            <Position>
              <LatitudeDegrees>40.74063875712454319000244140625</LatitudeDegrees>
              <LongitudeDegrees>-3.81195318885147571563720703125</LongitudeDegrees>
            </Position>
            <AltitudeMeters>904</AltitudeMeters>
            <DistanceMeters>NAN</DistanceMeters>
          </Trackpoint>
          <Trackpoint>
            <Time>2020-03-07T16:18:12.000Z</Time>
            <Position>
              <LatitudeDegrees>40.74059064500033855438232421875</LatitudeDegrees>
              <LongitudeDegrees>-3.8120478205382823944091796875</LongitudeDegrees>
            </Position>
            <AltitudeMeters>903.79998779296875</AltitudeMeters>
            <DistanceMeters>NAN</DistanceMeters>
          </Trackpoint>
          <Trackpoint>
            <Time>2020-03-07T16:18:13.000Z</Time>
            <Position>
              <LatitudeDegrees>40.7405416108667850494384765625</LatitudeDegrees>
              <LongitudeDegrees>-3.8121427036821842193603515625</LongitudeDegrees>
            </Position>
            <AltitudeMeters>903.5999755859375</AltitudeMeters>
            <DistanceMeters>NAN</DistanceMeters>
          </Trackpoint>
          <Trackpoint>
            <Time>2020-03-07T16:18:14.000Z</Time>
            <Position>
              <LatitudeDegrees>40.74049257673323154449462890625</LatitudeDegrees>
              <LongitudeDegrees>-3.81223800592124462127685546875</LongitudeDegrees>
            </Position>
            <AltitudeMeters>903.4000244140625</AltitudeMeters>
            <DistanceMeters>NAN</DistanceMeters>
          </Trackpoint>
          <Trackpoint>
            <Time>2020-03-07T16:18:15.000Z</Time>
            <Position>
              <LatitudeDegrees>40.7404416985809803009033203125</LatitudeDegrees>
              <LongitudeDegrees>-3.812333308160305023193359375</LongitudeDegrees>
            </Position>
            <AltitudeMeters>903</AltitudeMeters>
            <DistanceMeters>NAN</DistanceMeters>
          </Trackpoint>
          <Trackpoint>
            <Time>2020-03-07T16:18:16.000Z</Time>
            <Position>
              <LatitudeDegrees>40.74039266444742679595947265625</LatitudeDegrees>
              <LongitudeDegrees>-3.8124288618564605712890625</LongitudeDegrees>
            </Position>
            <AltitudeMeters>902.79998779296875</AltitudeMeters>
            <DistanceMeters>NAN</DistanceMeters>
          </Trackpoint>
          <Trackpoint>
            <Time>2020-03-07T16:18:17.000Z</Time>
            <Position>
              <LatitudeDegrees>40.74034589342772960662841796875</LatitudeDegrees>
              <LongitudeDegrees>-3.81252718158066272735595703125</LongitudeDegrees>
            </Position>
            <AltitudeMeters>902.5999755859375</AltitudeMeters>
            <DistanceMeters>NAN</DistanceMeters>
          </Trackpoint>
          <Trackpoint>
            <Time>2020-03-07T16:18:18.000Z</Time>
            <Position>
              <LatitudeDegrees>40.7402988709509372711181640625</LatitudeDegrees>
              <LongitudeDegrees>-3.8126255013048648834228515625</LongitudeDegrees>
            </Position>
            <AltitudeMeters>902.4000244140625</AltitudeMeters>
            <DistanceMeters>NAN</DistanceMeters>
          </Trackpoint>
          <Trackpoint>
            <Time>2020-03-07T16:18:19.000Z</Time>
            <Position>
              <LatitudeDegrees>40.74025176465511322021484375</LatitudeDegrees>
              <LongitudeDegrees>-3.81272365339100360870361328125</LongitudeDegrees>
            </Position>
            <AltitudeMeters>902.20001220703125</AltitudeMeters>
            <DistanceMeters>NAN</DistanceMeters>
          </Trackpoint>
          <Trackpoint>
            <Time>2020-03-07T16:18:20.000Z</Time>
            <Position>
              <LatitudeDegrees>40.740205831825733184814453125</LatitudeDegrees>
              <LongitudeDegrees>-3.812822140753269195556640625</LongitudeDegrees>
            </Position>
            <AltitudeMeters>902</AltitudeMeters>
            <DistanceMeters>NAN</DistanceMeters>
          </Trackpoint>
          <Trackpoint>
            <Time>2020-03-07T16:18:21.000Z</Time>
            <Position>
              <LatitudeDegrees>40.74016232974827289581298828125</LatitudeDegrees>
              <LongitudeDegrees>-3.8129218854010105133056640625</LongitudeDegrees>
            </Position>
            <AltitudeMeters>901.79998779296875</AltitudeMeters>
            <DistanceMeters>NAN</DistanceMeters>
          </Trackpoint>
          <Trackpoint>
            <Time>2020-03-07T16:18:22.000Z</Time>
            <Position>
              <LatitudeDegrees>40.74012033641338348388671875</LatitudeDegrees>
              <LongitudeDegrees>-3.81302204914391040802001953125</LongitudeDegrees>
            </Position>
            <AltitudeMeters>901.79998779296875</AltitudeMeters>
            <DistanceMeters>NAN</DistanceMeters>
          </Trackpoint>
          <Trackpoint>
            <Time>2020-03-07T16:18:23.000Z</Time>
            <Position>
              <LatitudeDegrees>40.74007951654493808746337890625</LatitudeDegrees>
              <LongitudeDegrees>-3.81312112323939800262451171875</LongitudeDegrees>
            </Position>
            <AltitudeMeters>901.5999755859375</AltitudeMeters>
            <DistanceMeters>NAN</DistanceMeters>
          </Trackpoint>
          <Trackpoint>
            <Time>2020-03-07T16:18:24.000Z</Time>
            <Position>
              <LatitudeDegrees>40.7400400377810001373291015625</LatitudeDegrees>
              <LongitudeDegrees>-3.81321902386844158172607421875</LongitudeDegrees>
            </Position>
            <AltitudeMeters>901.4000244140625</AltitudeMeters>
            <DistanceMeters>NAN</DistanceMeters>
          </Trackpoint>
          <Trackpoint>
            <Time>2020-03-07T16:18:25.000Z</Time>
            <Position>
              <LatitudeDegrees>40.740001983940601348876953125</LatitudeDegrees>
              <LongitudeDegrees>-3.81331658922135829925537109375</LongitudeDegrees>
            </Position>
            <AltitudeMeters>901.20001220703125</AltitudeMeters>
            <DistanceMeters>NAN</DistanceMeters>
          </Trackpoint>
          <Trackpoint>
            <Time>2020-03-07T16:18:26.000Z</Time>
            <Position>
              <LatitudeDegrees>40.7399652712047100067138671875</LatitudeDegrees>
              <LongitudeDegrees>-3.8134130649268627166748046875</LongitudeDegrees>
            </Position>
            <AltitudeMeters>901</AltitudeMeters>
            <DistanceMeters>NAN</DistanceMeters>
          </Trackpoint>
          <Trackpoint>
            <Time>2020-03-07T16:18:27.000Z</Time>
            <Position>
              <LatitudeDegrees>40.73992981575429439544677734375</LatitudeDegrees>
              <LongitudeDegrees>-3.81350819952785968780517578125</LongitudeDegrees>
            </Position>
            <AltitudeMeters>900.79998779296875</AltitudeMeters>
            <DistanceMeters>NAN</DistanceMeters>
          </Trackpoint>
          <Trackpoint>
            <Time>2020-03-07T16:18:28.000Z</Time>
            <Position>
              <LatitudeDegrees>40.73989461176097393035888671875</LatitudeDegrees>
              <LongitudeDegrees>-3.813601993024349212646484375</LongitudeDegrees>
            </Position>
            <AltitudeMeters>900.5999755859375</AltitudeMeters>
            <DistanceMeters>NAN</DistanceMeters>
          </Trackpoint>
          <Trackpoint>
            <Time>2020-03-07T16:18:29.000Z</Time>
            <Position>
              <LatitudeDegrees>40.73986125178635120391845703125</LatitudeDegrees>
              <LongitudeDegrees>-3.81369528360664844512939453125</LongitudeDegrees>
            </Position>
            <AltitudeMeters>900</AltitudeMeters>
            <DistanceMeters>NAN</DistanceMeters>
          </Trackpoint>
          <Trackpoint>
            <Time>2020-03-07T16:18:30.000Z</Time>
            <Position>
              <LatitudeDegrees>40.739828646183013916015625</LatitudeDegrees>
              <LongitudeDegrees>-3.813787400722503662109375</LongitudeDegrees>
            </Position>
            <AltitudeMeters>899.79998779296875</AltitudeMeters>
            <DistanceMeters>NAN</DistanceMeters>
          </Trackpoint>
          <Trackpoint>
            <Time>2020-03-07T16:18:31.000Z</Time>
            <Position>
              <LatitudeDegrees>40.7397962920367717742919921875</LatitudeDegrees>
              <LongitudeDegrees>-3.813878595829010009765625</LongitudeDegrees>
            </Position>
            <AltitudeMeters>899.4000244140625</AltitudeMeters>
            <DistanceMeters>NAN</DistanceMeters>
          </Trackpoint>
          <Trackpoint>
            <Time>2020-03-07T16:18:32.000Z</Time>
            <Position>
              <LatitudeDegrees>40.73976620100438594818115234375</LatitudeDegrees>
              <LongitudeDegrees>-3.81396987475454807281494140625</LongitudeDegrees>
            </Position>
            <AltitudeMeters>899.20001220703125</AltitudeMeters>
            <DistanceMeters>NAN</DistanceMeters>
          </Trackpoint>
          <Trackpoint>
            <Time>2020-03-07T16:18:33.000Z</Time>
            <Position>
              <LatitudeDegrees>40.73974038474261760711669921875</LatitudeDegrees>
              <LongitudeDegrees>-3.81406459026038646697998046875</LongitudeDegrees>
            </Position>
            <AltitudeMeters>899</AltitudeMeters>
            <DistanceMeters>NAN</DistanceMeters>
          </Trackpoint>
          <Trackpoint>
            <Time>2020-03-07T16:18:34.000Z</Time>
            <Position>
              <LatitudeDegrees>40.739722363650798797607421875</LatitudeDegrees>
              <LongitudeDegrees>-3.81416483782231807708740234375</LongitudeDegrees>
            </Position>
            <AltitudeMeters>898.79998779296875</AltitudeMeters>
            <DistanceMeters>NAN</DistanceMeters>
          </Trackpoint>
          <Trackpoint>
            <Time>2020-03-07T16:18:35.000Z</Time>
            <Position>
              <LatitudeDegrees>40.7397118024528026580810546875</LatitudeDegrees>
              <LongitudeDegrees>-3.8142715394496917724609375</LongitudeDegrees>
            </Position>
            <AltitudeMeters>898.79998779296875</AltitudeMeters>
            <DistanceMeters>NAN</DistanceMeters>
          </Trackpoint>
          <Trackpoint>
            <Time>2020-03-07T16:18:36.000Z</Time>
            <Position>
              <LatitudeDegrees>40.73971373029053211212158203125</LatitudeDegrees>
              <LongitudeDegrees>-3.814381845295429229736328125</LongitudeDegrees>
            </Position>
            <AltitudeMeters>898.79998779296875</AltitudeMeters>
            <DistanceMeters>NAN</DistanceMeters>
          </Trackpoint>
          <Trackpoint>
            <Time>2020-03-07T16:18:37.000Z</Time>
            <Position>
              <LatitudeDegrees>40.73972462676465511322021484375</LatitudeDegrees>
              <LongitudeDegrees>-3.81449349224567413330078125</LongitudeDegrees>
            </Position>
            <AltitudeMeters>898.5999755859375</AltitudeMeters>
            <DistanceMeters>NAN</DistanceMeters>
          </Trackpoint>
          <Trackpoint>
            <Time>2020-03-07T16:18:38.000Z</Time>
            <Position>
              <LatitudeDegrees>40.7397280633449554443359375</LatitudeDegrees>
              <LongitudeDegrees>-3.8146054744720458984375</LongitudeDegrees>
            </Position>
            <AltitudeMeters>898.5999755859375</AltitudeMeters>
            <DistanceMeters>NAN</DistanceMeters>
          </Trackpoint>
          <Trackpoint>
            <Time>2020-03-07T16:18:39.000Z</Time>
            <Position>
              <LatitudeDegrees>40.73971088044345378875732421875</LatitudeDegrees>
              <LongitudeDegrees>-3.81471469067037105560302734375</LongitudeDegrees>
            </Position>
            <AltitudeMeters>898.4000244140625</AltitudeMeters>
            <DistanceMeters>NAN</DistanceMeters>
          </Trackpoint>
          <Trackpoint>
            <Time>2020-03-07T16:18:40.000Z</Time>
            <Position>
              <LatitudeDegrees>40.73967039585113525390625</LatitudeDegrees>
              <LongitudeDegrees>-3.81481141783297061920166015625</LongitudeDegrees>
            </Position>
            <AltitudeMeters>898.4000244140625</AltitudeMeters>
            <DistanceMeters>NAN</DistanceMeters>
          </Trackpoint>
          <Trackpoint>
            <Time>2020-03-07T16:18:41.000Z</Time>
            <Position>
              <LatitudeDegrees>40.73961147107183933258056640625</LatitudeDegrees>
              <LongitudeDegrees>-3.81489138118922710418701171875</LongitudeDegrees>
            </Position>
            <AltitudeMeters>898.20001220703125</AltitudeMeters>
            <DistanceMeters>NAN</DistanceMeters>
          </Trackpoint>
          <Trackpoint>
            <Time>2020-03-07T16:18:42.000Z</Time>
            <Position>
              <LatitudeDegrees>40.73954156599938869476318359375</LatitudeDegrees>
              <LongitudeDegrees>-3.814957849681377410888671875</LongitudeDegrees>
            </Position>
            <AltitudeMeters>898.20001220703125</AltitudeMeters>
            <DistanceMeters>NAN</DistanceMeters>
          </Trackpoint>
          <Trackpoint>
            <Time>2020-03-07T16:18:43.000Z</Time>
            <Position>
              <LatitudeDegrees>40.73947015218436717987060546875</LatitudeDegrees>
              <LongitudeDegrees>-3.815022222697734832763671875</LongitudeDegrees>
            </Position>
            <AltitudeMeters>898.20001220703125</AltitudeMeters>
            <DistanceMeters>NAN</DistanceMeters>
          </Trackpoint>
          <Trackpoint>
            <Time>2020-03-07T16:18:44.000Z</Time>
            <Position>
              <LatitudeDegrees>40.73940309695899486541748046875</LatitudeDegrees>
              <LongitudeDegrees>-3.81509455852210521697998046875</LongitudeDegrees>
            </Position>
            <AltitudeMeters>898</AltitudeMeters>
            <DistanceMeters>NAN</DistanceMeters>
          </Trackpoint>
          <Trackpoint>
            <Time>2020-03-07T16:18:45.000Z</Time>
            <Position>
              <LatitudeDegrees>40.739345848560333251953125</LatitudeDegrees>
              <LongitudeDegrees>-3.815179131925106048583984375</LongitudeDegrees>
            </Position>
            <AltitudeMeters>898</AltitudeMeters>
            <DistanceMeters>NAN</DistanceMeters>
          </Trackpoint>
          <Trackpoint>
            <Time>2020-03-07T16:18:46.000Z</Time>
            <Position>
              <LatitudeDegrees>40.73929815553128719329833984375</LatitudeDegrees>
              <LongitudeDegrees>-3.81527267396450042724609375</LongitudeDegrees>
            </Position>
            <AltitudeMeters>898</AltitudeMeters>
            <DistanceMeters>NAN</DistanceMeters>
          </Trackpoint>
          <Trackpoint>
            <Time>2020-03-07T16:18:47.000Z</Time>
            <Position>
              <LatitudeDegrees>40.739256329834461212158203125</LatitudeDegrees>
              <LongitudeDegrees>-3.81537116132676601409912109375</LongitudeDegrees>
            </Position>
            <AltitudeMeters>897.79998779296875</AltitudeMeters>
            <DistanceMeters>NAN</DistanceMeters>
          </Trackpoint>
          <Trackpoint>
            <Time>2020-03-07T16:18:48.000Z</Time>
            <Position>
              <LatitudeDegrees>40.7392169348895549774169921875</LatitudeDegrees>
              <LongitudeDegrees>-3.815470822155475616455078125</LongitudeDegrees>
            </Position>
            <AltitudeMeters>897.79998779296875</AltitudeMeters>
            <DistanceMeters>NAN</DistanceMeters>
          </Trackpoint>
          <Trackpoint>
            <Time>2020-03-07T16:18:49.000Z</Time>
            <Position>
              <LatitudeDegrees>40.73917888104915618896484375</LatitudeDegrees>
              <LongitudeDegrees>-3.81557098589837551116943359375</LongitudeDegrees>
            </Position>
            <AltitudeMeters>897.5999755859375</AltitudeMeters>
            <DistanceMeters>NAN</DistanceMeters>
          </Trackpoint>
          <Trackpoint>
            <Time>2020-03-07T16:18:50.000Z</Time>
            <Position>
              <LatitudeDegrees>40.7391406595706939697265625</LatitudeDegrees>
              <LongitudeDegrees>-3.8156711496412754058837890625</LongitudeDegrees>
            </Position>
            <AltitudeMeters>897.4000244140625</AltitudeMeters>
            <DistanceMeters>NAN</DistanceMeters>
          </Trackpoint>
          <Trackpoint>
            <Time>2020-03-07T16:18:51.000Z</Time>
            <Position>
              <LatitudeDegrees>40.7391406595706939697265625</LatitudeDegrees>
              <LongitudeDegrees>-3.8156711496412754058837890625</LongitudeDegrees>
            </Position>
            <AltitudeMeters>897</AltitudeMeters>
            <DistanceMeters>NAN</DistanceMeters>
          </Trackpoint>
          <Trackpoint>
            <Time>2020-03-07T16:18:52.000Z</Time>
            <Position>
              <LatitudeDegrees>40.739101432263851165771484375</LatitudeDegrees>
              <LongitudeDegrees>-3.81577097810804843902587890625</LongitudeDegrees>
            </Position>
            <AltitudeMeters>897</AltitudeMeters>
            <DistanceMeters>NAN</DistanceMeters>
          </Trackpoint>
          <Trackpoint>
            <Time>2020-03-07T16:18:53.000Z</Time>
            <Position>
              <LatitudeDegrees>40.7390620373189449310302734375</LatitudeDegrees>
              <LongitudeDegrees>-3.815870471298694610595703125</LongitudeDegrees>
            </Position>
            <AltitudeMeters>896.79998779296875</AltitudeMeters>
            <DistanceMeters>NAN</DistanceMeters>
          </Trackpoint>
          <Trackpoint>
            <Time>2020-03-07T16:18:54.000Z</Time>
            <Position>
              <LatitudeDegrees>40.7390228100121021270751953125</LatitudeDegrees>
              <LongitudeDegrees>-3.815969713032245635986328125</LongitudeDegrees>
            </Position>
            <AltitudeMeters>896.5999755859375</AltitudeMeters>
            <DistanceMeters>NAN</DistanceMeters>
          </Trackpoint>
          <Trackpoint>
            <Time>2020-03-07T16:18:55.000Z</Time>
            <Position>
              <LatitudeDegrees>40.73894712142646312713623046875</LatitudeDegrees>
              <LongitudeDegrees>-3.8161703757941722869873046875</LongitudeDegrees>
            </Position>
            <AltitudeMeters>896.79998779296875</AltitudeMeters>
            <DistanceMeters>NAN</DistanceMeters>
          </Trackpoint>
          <Trackpoint>
            <Time>2020-03-07T16:18:56.000Z</Time>
            <Position>
              <LatitudeDegrees>40.73894712142646312713623046875</LatitudeDegrees>
              <LongitudeDegrees>-3.8161703757941722869873046875</LongitudeDegrees>
            </Position>
            <AltitudeMeters>896.4000244140625</AltitudeMeters>
            <DistanceMeters>NAN</DistanceMeters>
          </Trackpoint>
          <Trackpoint>
            <Time>2020-03-07T16:18:57.000Z</Time>
            <Position>
              <LatitudeDegrees>40.7388724386692047119140625</LatitudeDegrees>
              <LongitudeDegrees>-3.81637279875576496124267578125</LongitudeDegrees>
            </Position>
            <AltitudeMeters>896.4000244140625</AltitudeMeters>
            <DistanceMeters>NAN</DistanceMeters>
          </Trackpoint>
          <Trackpoint>
            <Time>2020-03-07T16:18:58.000Z</Time>
            <Position>
              <LatitudeDegrees>40.738834552466869354248046875</LatitudeDegrees>
              <LongitudeDegrees>-3.81647388450801372528076171875</LongitudeDegrees>
            </Position>
            <AltitudeMeters>896.4000244140625</AltitudeMeters>
            <DistanceMeters>NAN</DistanceMeters>
          </Trackpoint>
          <Trackpoint>
            <Time>2020-03-07T16:18:59.000Z</Time>
            <Position>
              <LatitudeDegrees>40.738797672092914581298828125</LatitudeDegrees>
              <LongitudeDegrees>-3.81657497026026248931884765625</LongitudeDegrees>
            </Position>
            <AltitudeMeters>896.20001220703125</AltitudeMeters>
            <DistanceMeters>NAN</DistanceMeters>
          </Trackpoint>
          <Trackpoint>
            <Time>2020-03-07T16:19:00.000Z</Time>
            <Position>
              <LatitudeDegrees>40.73876121081411838531494140625</LatitudeDegrees>
              <LongitudeDegrees>-3.81667605601251125335693359375</LongitudeDegrees>
            </Position>
            <AltitudeMeters>896.20001220703125</AltitudeMeters>
            <DistanceMeters>NAN</DistanceMeters>
          </Trackpoint>
          <Trackpoint>
            <Time>2020-03-07T16:19:01.000Z</Time>
            <Position>
              <LatitudeDegrees>40.7387247495353221893310546875</LatitudeDegrees>
              <LongitudeDegrees>-3.81677663885056972503662109375</LongitudeDegrees>
            </Position>
            <AltitudeMeters>896.20001220703125</AltitudeMeters>
            <DistanceMeters>NAN</DistanceMeters>
          </Trackpoint>
          <Trackpoint>
            <Time>2020-03-07T16:19:02.000Z</Time>
            <Position>
              <LatitudeDegrees>40.7387247495353221893310546875</LatitudeDegrees>
              <LongitudeDegrees>-3.81677663885056972503662109375</LongitudeDegrees>
            </Position>
            <AltitudeMeters>896.20001220703125</AltitudeMeters>
            <DistanceMeters>NAN</DistanceMeters>
          </Trackpoint>
          <Trackpoint>
            <Time>2020-03-07T16:19:03.000Z</Time>
            <Position>
              <LatitudeDegrees>40.738650150597095489501953125</LatitudeDegrees>
              <LongitudeDegrees>-3.81697713397443294525146484375</LongitudeDegrees>
            </Position>
            <AltitudeMeters>896</AltitudeMeters>
            <DistanceMeters>NAN</DistanceMeters>
          </Trackpoint>
          <Trackpoint>
            <Time>2020-03-07T16:19:04.000Z</Time>
            <Position>
              <LatitudeDegrees>40.738650150597095489501953125</LatitudeDegrees>
              <LongitudeDegrees>-3.81697713397443294525146484375</LongitudeDegrees>
            </Position>
            <AltitudeMeters>896</AltitudeMeters>
            <DistanceMeters>NAN</DistanceMeters>
          </Trackpoint>
          <Trackpoint>
            <Time>2020-03-07T16:19:05.000Z</Time>
            <Position>
              <LatitudeDegrees>40.73857412673532962799072265625</LatitudeDegrees>
              <LongitudeDegrees>-3.81717829965054988861083984375</LongitudeDegrees>
            </Position>
            <AltitudeMeters>896</AltitudeMeters>
            <DistanceMeters>NAN</DistanceMeters>
          </Trackpoint>
          <Trackpoint>
            <Time>2020-03-07T16:19:06.000Z</Time>
            <Position>
              <LatitudeDegrees>40.73853624053299427032470703125</LatitudeDegrees>
              <LongitudeDegrees>-3.8172782957553863525390625</LongitudeDegrees>
            </Position>
            <AltitudeMeters>896</AltitudeMeters>
            <DistanceMeters>NAN</DistanceMeters>
          </Trackpoint>
          <Trackpoint>
            <Time>2020-03-07T16:19:07.000Z</Time>
            <Position>
              <LatitudeDegrees>40.73849986307322978973388671875</LatitudeDegrees>
              <LongitudeDegrees>-3.81737829186022281646728515625</LongitudeDegrees>
            </Position>
            <AltitudeMeters>896</AltitudeMeters>
            <DistanceMeters>NAN</DistanceMeters>
          </Trackpoint>
          <Trackpoint>
            <Time>2020-03-07T16:19:08.000Z</Time>
            <Position>
              <LatitudeDegrees>40.73849986307322978973388671875</LatitudeDegrees>
              <LongitudeDegrees>-3.81737829186022281646728515625</LongitudeDegrees>
            </Position>
            <AltitudeMeters>896</AltitudeMeters>
            <DistanceMeters>NAN</DistanceMeters>
          </Trackpoint>
          <Trackpoint>
            <Time>2020-03-07T16:19:09.000Z</Time>
            <Position>
              <LatitudeDegrees>40.7384271919727325439453125</LatitudeDegrees>
              <LongitudeDegrees>-3.817576356232166290283203125</LongitudeDegrees>
            </Position>
            <AltitudeMeters>896</AltitudeMeters>
            <DistanceMeters>NAN</DistanceMeters>
          </Trackpoint>
          <Trackpoint>
            <Time>2020-03-07T16:19:10.000Z</Time>
            <Position>
              <LatitudeDegrees>40.7383901439607143402099609375</LatitudeDegrees>
              <LongitudeDegrees>-3.8176744244992733001708984375</LongitudeDegrees>
            </Position>
            <AltitudeMeters>896</AltitudeMeters>
            <DistanceMeters>NAN</DistanceMeters>
          </Trackpoint>
          <Trackpoint>
            <Time>2020-03-07T16:19:11.000Z</Time>
            <Position>
              <LatitudeDegrees>40.7383532635867595672607421875</LatitudeDegrees>
              <LongitudeDegrees>-3.817772157490253448486328125</LongitudeDegrees>
            </Position>
            <AltitudeMeters>896</AltitudeMeters>
            <DistanceMeters>NAN</DistanceMeters>
          </Trackpoint>
          <Trackpoint>
            <Time>2020-03-07T16:19:12.000Z</Time>
            <Position>
              <LatitudeDegrees>40.738317556679248809814453125</LatitudeDegrees>
              <LongitudeDegrees>-3.817869722843170166015625</LongitudeDegrees>
            </Position>
            <AltitudeMeters>896.20001220703125</AltitudeMeters>
            <DistanceMeters>NAN</DistanceMeters>
          </Trackpoint>
          <Trackpoint>
            <Time>2020-03-07T16:19:13.000Z</Time>
            <Position>
              <LatitudeDegrees>40.738283358514308929443359375</LatitudeDegrees>
              <LongitudeDegrees>-3.8179676234722137451171875</LongitudeDegrees>
            </Position>
            <AltitudeMeters>896.20001220703125</AltitudeMeters>
            <DistanceMeters>NAN</DistanceMeters>
          </Trackpoint>
          <Trackpoint>
            <Time>2020-03-07T16:19:14.000Z</Time>
            <Position>
              <LatitudeDegrees>40.738283358514308929443359375</LatitudeDegrees>
              <LongitudeDegrees>-3.8179676234722137451171875</LongitudeDegrees>
            </Position>
            <AltitudeMeters>896.20001220703125</AltitudeMeters>
            <DistanceMeters>NAN</DistanceMeters>
          </Trackpoint>
          <Trackpoint>
            <Time>2020-03-07T16:19:15.000Z</Time>
            <Position>
              <LatitudeDegrees>40.7382174767553806304931640625</LatitudeDegrees>
              <LongitudeDegrees>-3.8181642629206180572509765625</LongitudeDegrees>
            </Position>
            <AltitudeMeters>896.20001220703125</AltitudeMeters>
            <DistanceMeters>NAN</DistanceMeters>
          </Trackpoint>
          <Trackpoint>
            <Time>2020-03-07T16:19:16.000Z</Time>
            <Position>
              <LatitudeDegrees>40.738184452056884765625</LatitudeDegrees>
              <LongitudeDegrees>-3.81826140917837619781494140625</LongitudeDegrees>
            </Position>
            <AltitudeMeters>896.20001220703125</AltitudeMeters>
            <DistanceMeters>NAN</DistanceMeters>
          </Trackpoint>
          <Trackpoint>
            <Time>2020-03-07T16:19:17.000Z</Time>
            <Position>
              <LatitudeDegrees>40.7381531037390232086181640625</LatitudeDegrees>
              <LongitudeDegrees>-3.818358890712261199951171875</LongitudeDegrees>
            </Position>
            <AltitudeMeters>896.4000244140625</AltitudeMeters>
            <DistanceMeters>NAN</DistanceMeters>
          </Trackpoint>
          <Trackpoint>
            <Time>2020-03-07T16:19:18.000Z</Time>
            <Position>
              <LatitudeDegrees>40.73812250979244709014892578125</LatitudeDegrees>
              <LongitudeDegrees>-3.8184559531509876251220703125</LongitudeDegrees>
            </Position>
            <AltitudeMeters>896.4000244140625</AltitudeMeters>
            <DistanceMeters>NAN</DistanceMeters>
          </Trackpoint>
          <Trackpoint>
            <Time>2020-03-07T16:19:19.000Z</Time>
            <Position>
              <LatitudeDegrees>40.73809367604553699493408203125</LatitudeDegrees>
              <LongitudeDegrees>-3.8185531832277774810791015625</LongitudeDegrees>
            </Position>
            <AltitudeMeters>896.4000244140625</AltitudeMeters>
            <DistanceMeters>NAN</DistanceMeters>
          </Trackpoint>
          <Trackpoint>
            <Time>2020-03-07T16:19:20.000Z</Time>
            <Position>
              <LatitudeDegrees>40.738066770136356353759765625</LatitudeDegrees>
              <LongitudeDegrees>-3.8186517544090747833251953125</LongitudeDegrees>
            </Position>
            <AltitudeMeters>896.4000244140625</AltitudeMeters>
            <DistanceMeters>NAN</DistanceMeters>
          </Trackpoint>
          <Trackpoint>
            <Time>2020-03-07T16:19:21.000Z</Time>
            <Position>
              <LatitudeDegrees>40.73804103769361972808837890625</LatitudeDegrees>
              <LongitudeDegrees>-3.81874973885715007781982421875</LongitudeDegrees>
            </Position>
            <AltitudeMeters>896.5999755859375</AltitudeMeters>
            <DistanceMeters>NAN</DistanceMeters>
          </Trackpoint>
          <Trackpoint>
            <Time>2020-03-07T16:19:22.000Z</Time>
            <Position>
              <LatitudeDegrees>40.7380156405270099639892578125</LatitudeDegrees>
              <LongitudeDegrees>-3.81884780712425708770751953125</LongitudeDegrees>
            </Position>
            <AltitudeMeters>896.5999755859375</AltitudeMeters>
            <DistanceMeters>NAN</DistanceMeters>
          </Trackpoint>
          <Trackpoint>
            <Time>2020-03-07T16:19:23.000Z</Time>
            <Position>
              <LatitudeDegrees>40.73799242265522480010986328125</LatitudeDegrees>
              <LongitudeDegrees>-3.8189466297626495361328125</LongitudeDegrees>
            </Position>
            <AltitudeMeters>896.5999755859375</AltitudeMeters>
            <DistanceMeters>NAN</DistanceMeters>
          </Trackpoint>
          <Trackpoint>
            <Time>2020-03-07T16:19:24.000Z</Time>
            <Position>
              <LatitudeDegrees>40.73797297663986682891845703125</LatitudeDegrees>
              <LongitudeDegrees>-3.819046877324581146240234375</LongitudeDegrees>
            </Position>
            <AltitudeMeters>896.5999755859375</AltitudeMeters>
            <DistanceMeters>NAN</DistanceMeters>
          </Trackpoint>
          <Trackpoint>
            <Time>2020-03-07T16:19:25.000Z</Time>
            <Position>
              <LatitudeDegrees>40.737954787909984588623046875</LatitudeDegrees>
              <LongitudeDegrees>-3.81914787925779819488525390625</LongitudeDegrees>
            </Position>
            <AltitudeMeters>896.5999755859375</AltitudeMeters>
            <DistanceMeters>NAN</DistanceMeters>
          </Trackpoint>
          <Trackpoint>
            <Time>2020-03-07T16:19:26.000Z</Time>
            <Position>
              <LatitudeDegrees>40.737954787909984588623046875</LatitudeDegrees>
              <LongitudeDegrees>-3.81914787925779819488525390625</LongitudeDegrees>
            </Position>
            <AltitudeMeters>896.5999755859375</AltitudeMeters>
            <DistanceMeters>NAN</DistanceMeters>
          </Trackpoint>
          <Trackpoint>
            <Time>2020-03-07T16:19:27.000Z</Time>
            <Position>
              <LatitudeDegrees>40.73792017064988613128662109375</LatitudeDegrees>
              <LongitudeDegrees>-3.81935105659067630767822265625</LongitudeDegrees>
            </Position>
            <AltitudeMeters>896.5999755859375</AltitudeMeters>
            <DistanceMeters>NAN</DistanceMeters>
          </Trackpoint>
          <Trackpoint>
            <Time>2020-03-07T16:19:28.000Z</Time>
            <Position>
              <LatitudeDegrees>40.73790541850030422210693359375</LatitudeDegrees>
              <LongitudeDegrees>-3.8194537349045276641845703125</LongitudeDegrees>
            </Position>
            <AltitudeMeters>896.5999755859375</AltitudeMeters>
            <DistanceMeters>NAN</DistanceMeters>
          </Trackpoint>
          <Trackpoint>
            <Time>2020-03-07T16:19:29.000Z</Time>
            <Position>
              <LatitudeDegrees>40.73789234273135662078857421875</LatitudeDegrees>
              <LongitudeDegrees>-3.8195566646754741668701171875</LongitudeDegrees>
            </Position>
            <AltitudeMeters>896.5999755859375</AltitudeMeters>
            <DistanceMeters>NAN</DistanceMeters>
          </Trackpoint>
          <Trackpoint>
            <Time>2020-03-07T16:19:30.000Z</Time>
            <Position>
              <LatitudeDegrees>40.73788194917142391204833984375</LatitudeDegrees>
              <LongitudeDegrees>-3.81966068409383296966552734375</LongitudeDegrees>
            </Position>
            <AltitudeMeters>896.5999755859375</AltitudeMeters>
            <DistanceMeters>NAN</DistanceMeters>
          </Trackpoint>
          <Trackpoint>
            <Time>2020-03-07T16:19:31.000Z</Time>
            <Position>
              <LatitudeDegrees>40.7378746569156646728515625</LatitudeDegrees>
              <LongitudeDegrees>-3.81976478733122348785400390625</LongitudeDegrees>
            </Position>
            <AltitudeMeters>896.5999755859375</AltitudeMeters>
            <DistanceMeters>NAN</DistanceMeters>
          </Trackpoint>
          <Trackpoint>
            <Time>2020-03-07T16:19:32.000Z</Time>
            <Position>
              <LatitudeDegrees>40.7378746569156646728515625</LatitudeDegrees>
              <LongitudeDegrees>-3.81976478733122348785400390625</LongitudeDegrees>
            </Position>
            <AltitudeMeters>896.79998779296875</AltitudeMeters>
            <DistanceMeters>NAN</DistanceMeters>
          </Trackpoint>
          <Trackpoint>
            <Time>2020-03-07T16:19:33.000Z</Time>
            <Position>
              <LatitudeDegrees>40.7378640957176685333251953125</LatitudeDegrees>
              <LongitudeDegrees>-3.81997525691986083984375</LongitudeDegrees>
            </Position>
            <AltitudeMeters>896.79998779296875</AltitudeMeters>
            <DistanceMeters>NAN</DistanceMeters>
          </Trackpoint>
          <Trackpoint>
            <Time>2020-03-07T16:19:34.000Z</Time>
            <Position>
              <LatitudeDegrees>40.73785982094705104827880859375</LatitudeDegrees>
              <LongitudeDegrees>-3.8200810365378856658935546875</LongitudeDegrees>
            </Position>
            <AltitudeMeters>896.79998779296875</AltitudeMeters>
            <DistanceMeters>NAN</DistanceMeters>
          </Trackpoint>
          <Trackpoint>
            <Time>2020-03-07T16:19:35.000Z</Time>
            <Position>
              <LatitudeDegrees>40.73785646818578243255615234375</LatitudeDegrees>
              <LongitudeDegrees>-3.82018689997494220733642578125</LongitudeDegrees>
            </Position>
            <AltitudeMeters>896.79998779296875</AltitudeMeters>
            <DistanceMeters>NAN</DistanceMeters>
          </Trackpoint>
          <Trackpoint>
            <Time>2020-03-07T16:19:36.000Z</Time>
            <Position>
              <LatitudeDegrees>40.73785596527159214019775390625</LatitudeDegrees>
              <LongitudeDegrees>-3.82029376924037933349609375</LongitudeDegrees>
            </Position>
            <AltitudeMeters>896.79998779296875</AltitudeMeters>
            <DistanceMeters>NAN</DistanceMeters>
          </Trackpoint>
          <Trackpoint>
            <Time>2020-03-07T16:19:37.000Z</Time>
            <Position>
              <LatitudeDegrees>40.7378587312996387481689453125</LatitudeDegrees>
              <LongitudeDegrees>-3.820401392877101898193359375</LongitudeDegrees>
            </Position>
            <AltitudeMeters>896.79998779296875</AltitudeMeters>
            <DistanceMeters>NAN</DistanceMeters>
          </Trackpoint>
          <Trackpoint>
            <Time>2020-03-07T16:19:38.000Z</Time>
            <Position>
              <LatitudeDegrees>40.7378587312996387481689453125</LatitudeDegrees>
              <LongitudeDegrees>-3.820401392877101898193359375</LongitudeDegrees>
            </Position>
            <AltitudeMeters>896.79998779296875</AltitudeMeters>
            <DistanceMeters>NAN</DistanceMeters>
          </Trackpoint>
          <Trackpoint>
            <Time>2020-03-07T16:19:39.000Z</Time>
            <Position>
              <LatitudeDegrees>40.7378694601356983184814453125</LatitudeDegrees>
              <LongitudeDegrees>-3.8206194899976253509521484375</LongitudeDegrees>
            </Position>
            <AltitudeMeters>896.79998779296875</AltitudeMeters>
            <DistanceMeters>NAN</DistanceMeters>
          </Trackpoint>
          <Trackpoint>
            <Time>2020-03-07T16:19:40.000Z</Time>
            <Position>
              <LatitudeDegrees>40.73787624947726726531982421875</LatitudeDegrees>
              <LongitudeDegrees>-3.82072770036756992340087890625</LongitudeDegrees>
            </Position>
            <AltitudeMeters>897</AltitudeMeters>
            <DistanceMeters>NAN</DistanceMeters>
          </Trackpoint>
          <Trackpoint>
            <Time>2020-03-07T16:19:41.000Z</Time>
            <Position>
              <LatitudeDegrees>40.7378832064568996429443359375</LatitudeDegrees>
              <LongitudeDegrees>-3.82083515636622905731201171875</LongitudeDegrees>
            </Position>
            <AltitudeMeters>897</AltitudeMeters>
            <DistanceMeters>NAN</DistanceMeters>
          </Trackpoint>
          <Trackpoint>
            <Time>2020-03-07T16:19:42.000Z</Time>
            <Position>
              <LatitudeDegrees>40.73789401911199092864990234375</LatitudeDegrees>
              <LongitudeDegrees>-3.8209420256316661834716796875</LongitudeDegrees>
            </Position>
            <AltitudeMeters>897</AltitudeMeters>
            <DistanceMeters>NAN</DistanceMeters>
          </Trackpoint>
          <Trackpoint>
            <Time>2020-03-07T16:19:43.000Z</Time>
            <Position>
              <LatitudeDegrees>40.7379076816141605377197265625</LatitudeDegrees>
              <LongitudeDegrees>-3.82104738615453243255615234375</LongitudeDegrees>
            </Position>
            <AltitudeMeters>897.20001220703125</AltitudeMeters>
            <DistanceMeters>NAN</DistanceMeters>
          </Trackpoint>
          <Trackpoint>
            <Time>2020-03-07T16:19:44.000Z</Time>
            <Position>
              <LatitudeDegrees>40.7379076816141605377197265625</LatitudeDegrees>
              <LongitudeDegrees>-3.82104738615453243255615234375</LongitudeDegrees>
            </Position>
            <AltitudeMeters>897.20001220703125</AltitudeMeters>
            <DistanceMeters>NAN</DistanceMeters>
          </Trackpoint>
          <Trackpoint>
            <Time>2020-03-07T16:19:45.000Z</Time>
            <Position>
              <LatitudeDegrees>40.73793810792267322540283203125</LatitudeDegrees>
              <LongitudeDegrees>-3.8212558440864086151123046875</LongitudeDegrees>
            </Position>
            <AltitudeMeters>897.4000244140625</AltitudeMeters>
            <DistanceMeters>NAN</DistanceMeters>
          </Trackpoint>
          <Trackpoint>
            <Time>2020-03-07T16:19:46.000Z</Time>
            <Position>
              <LatitudeDegrees>40.7379552908241748809814453125</LatitudeDegrees>
              <LongitudeDegrees>-3.82135860621929168701171875</LongitudeDegrees>
            </Position>
            <AltitudeMeters>897.4000244140625</AltitudeMeters>
            <DistanceMeters>NAN</DistanceMeters>
          </Trackpoint>
          <Trackpoint>
            <Time>2020-03-07T16:19:47.000Z</Time>
            <Position>
              <LatitudeDegrees>40.737974233925342559814453125</LatitudeDegrees>
              <LongitudeDegrees>-3.8214603625237941741943359375</LongitudeDegrees>
            </Position>
            <AltitudeMeters>897.5999755859375</AltitudeMeters>
            <DistanceMeters>NAN</DistanceMeters>
          </Trackpoint>
          <Trackpoint>
            <Time>2020-03-07T16:19:48.000Z</Time>
            <Position>
              <LatitudeDegrees>40.73799527250230312347412109375</LatitudeDegrees>
              <LongitudeDegrees>-3.82156102918088436126708984375</LongitudeDegrees>
            </Position>
            <AltitudeMeters>897.5999755859375</AltitudeMeters>
            <DistanceMeters>NAN</DistanceMeters>
          </Trackpoint>
          <Trackpoint>
            <Time>2020-03-07T16:19:49.000Z</Time>
            <Position>
              <LatitudeDegrees>40.73801605962216854095458984375</LatitudeDegrees>
              <LongitudeDegrees>-3.82166278548538684844970703125</LongitudeDegrees>
            </Position>
            <AltitudeMeters>897.5999755859375</AltitudeMeters>
            <DistanceMeters>NAN</DistanceMeters>
          </Trackpoint>
          <Trackpoint>
            <Time>2020-03-07T16:19:50.000Z</Time>
            <Position>
              <LatitudeDegrees>40.73801605962216854095458984375</LatitudeDegrees>
              <LongitudeDegrees>-3.82166278548538684844970703125</LongitudeDegrees>
            </Position>
            <AltitudeMeters>897.5999755859375</AltitudeMeters>
            <DistanceMeters>NAN</DistanceMeters>
          </Trackpoint>
          <Trackpoint>
            <Time>2020-03-07T16:19:51.000Z</Time>
            <Position>
              <LatitudeDegrees>40.73806551285088062286376953125</LatitudeDegrees>
              <LongitudeDegrees>-3.821863867342472076416015625</LongitudeDegrees>
            </Position>
            <AltitudeMeters>897.5999755859375</AltitudeMeters>
            <DistanceMeters>NAN</DistanceMeters>
          </Trackpoint>
          <Trackpoint>
            <Time>2020-03-07T16:19:52.000Z</Time>
            <Position>
              <LatitudeDegrees>40.738093592226505279541015625</LatitudeDegrees>
              <LongitudeDegrees>-3.8219636119902133941650390625</LongitudeDegrees>
            </Position>
            <AltitudeMeters>897.5999755859375</AltitudeMeters>
            <DistanceMeters>NAN</DistanceMeters>
          </Trackpoint>
          <Trackpoint>
            <Time>2020-03-07T16:19:53.000Z</Time>
            <Position>
              <LatitudeDegrees>40.73812200687825679779052734375</LatitudeDegrees>
              <LongitudeDegrees>-3.82206344045698642730712890625</LongitudeDegrees>
            </Position>
            <AltitudeMeters>897.5999755859375</AltitudeMeters>
            <DistanceMeters>NAN</DistanceMeters>
          </Trackpoint>
          <Trackpoint>
            <Time>2020-03-07T16:19:54.000Z</Time>
            <Position>
              <LatitudeDegrees>40.73815117590129375457763671875</LatitudeDegrees>
              <LongitudeDegrees>-3.8221627660095691680908203125</LongitudeDegrees>
            </Position>
            <AltitudeMeters>897.5999755859375</AltitudeMeters>
            <DistanceMeters>NAN</DistanceMeters>
          </Trackpoint>
          <Trackpoint>
            <Time>2020-03-07T16:19:55.000Z</Time>
            <Position>
              <LatitudeDegrees>40.738182775676250457763671875</LatitudeDegrees>
              <LongitudeDegrees>-3.8222599960863590240478515625</LongitudeDegrees>
            </Position>
            <AltitudeMeters>897.5999755859375</AltitudeMeters>
            <DistanceMeters>NAN</DistanceMeters>
          </Trackpoint>
          <Trackpoint>
            <Time>2020-03-07T16:19:56.000Z</Time>
            <Position>
              <LatitudeDegrees>40.738182775676250457763671875</LatitudeDegrees>
              <LongitudeDegrees>-3.8222599960863590240478515625</LongitudeDegrees>
            </Position>
            <AltitudeMeters>897.5999755859375</AltitudeMeters>
            <DistanceMeters>NAN</DistanceMeters>
          </Trackpoint>
          <Trackpoint>
            <Time>2020-03-07T16:19:57.000Z</Time>
            <Position>
              <LatitudeDegrees>40.73825175873935222625732421875</LatitudeDegrees>
              <LongitudeDegrees>-3.822448253631591796875</LongitudeDegrees>
            </Position>
            <AltitudeMeters>897.5999755859375</AltitudeMeters>
            <DistanceMeters>NAN</DistanceMeters>
          </Trackpoint>
          <Trackpoint>
            <Time>2020-03-07T16:19:58.000Z</Time>
            <Position>
              <LatitudeDegrees>40.73828763328492641448974609375</LatitudeDegrees>
              <LongitudeDegrees>-3.82254104129970073699951171875</LongitudeDegrees>
            </Position>
            <AltitudeMeters>897.5999755859375</AltitudeMeters>
            <DistanceMeters>NAN</DistanceMeters>
          </Trackpoint>
          <Trackpoint>
            <Time>2020-03-07T16:19:59.000Z</Time>
            <Position>
              <LatitudeDegrees>40.73832434602081775665283203125</LatitudeDegrees>
              <LongitudeDegrees>-3.82263240404427051544189453125</LongitudeDegrees>
            </Position>
            <AltitudeMeters>897.5999755859375</AltitudeMeters>
            <DistanceMeters>NAN</DistanceMeters>
          </Trackpoint>
          <Trackpoint>
            <Time>2020-03-07T16:20:00.000Z</Time>
            <Position>
              <LatitudeDegrees>40.73836273513734340667724609375</LatitudeDegrees>
              <LongitudeDegrees>-3.82272259332239627838134765625</LongitudeDegrees>
            </Position>
            <AltitudeMeters>897.5999755859375</AltitudeMeters>
            <DistanceMeters>NAN</DistanceMeters>
          </Trackpoint>
          <Trackpoint>
            <Time>2020-03-07T16:20:01.000Z</Time>
            <Position>
              <LatitudeDegrees>40.73840296827256679534912109375</LatitudeDegrees>
              <LongitudeDegrees>-3.82281144149601459503173828125</LongitudeDegrees>
            </Position>
            <AltitudeMeters>897.5999755859375</AltitudeMeters>
            <DistanceMeters>NAN</DistanceMeters>
          </Trackpoint>
          <Trackpoint>
            <Time>2020-03-07T16:20:02.000Z</Time>
            <Position>
              <LatitudeDegrees>40.73840296827256679534912109375</LatitudeDegrees>
              <LongitudeDegrees>-3.82281144149601459503173828125</LongitudeDegrees>
            </Position>
            <AltitudeMeters>897.5999755859375</AltitudeMeters>
            <DistanceMeters>NAN</DistanceMeters>
          </Trackpoint>
          <Trackpoint>
            <Time>2020-03-07T16:20:03.000Z</Time>
            <Position>
              <LatitudeDegrees>40.73848661966621875762939453125</LatitudeDegrees>
              <LongitudeDegrees>-3.82298829965293407440185546875</LongitudeDegrees>
            </Position>
            <AltitudeMeters>897.5999755859375</AltitudeMeters>
            <DistanceMeters>NAN</DistanceMeters>
          </Trackpoint>
          <Trackpoint>
            <Time>2020-03-07T16:20:04.000Z</Time>
            <Position>
              <LatitudeDegrees>40.73853104375302791595458984375</LatitudeDegrees>
              <LongitudeDegrees>-3.82307480089366436004638671875</LongitudeDegrees>
            </Position>
            <AltitudeMeters>897.5999755859375</AltitudeMeters>
            <DistanceMeters>NAN</DistanceMeters>
          </Trackpoint>
          <Trackpoint>
            <Time>2020-03-07T16:20:05.000Z</Time>
            <Position>
              <LatitudeDegrees>40.7385773956775665283203125</LatitudeDegrees>
              <LongitudeDegrees>-3.823159374296665191650390625</LongitudeDegrees>
            </Position>
            <AltitudeMeters>897.5999755859375</AltitudeMeters>
            <DistanceMeters>NAN</DistanceMeters>
          </Trackpoint>
          <Trackpoint>
            <Time>2020-03-07T16:20:06.000Z</Time>
            <Position>
              <LatitudeDegrees>40.738626010715961456298828125</LatitudeDegrees>
              <LongitudeDegrees>-3.82324310950934886932373046875</LongitudeDegrees>
            </Position>
            <AltitudeMeters>897.5999755859375</AltitudeMeters>
            <DistanceMeters>NAN</DistanceMeters>
          </Trackpoint>
          <Trackpoint>
            <Time>2020-03-07T16:20:07.000Z</Time>
            <Position>
              <LatitudeDegrees>40.73867521248757839202880859375</LatitudeDegrees>
              <LongitudeDegrees>-3.82332609035074710845947265625</LongitudeDegrees>
            </Position>
            <AltitudeMeters>897.5999755859375</AltitudeMeters>
            <DistanceMeters>NAN</DistanceMeters>
          </Trackpoint>
          <Trackpoint>
            <Time>2020-03-07T16:20:08.000Z</Time>
            <Position>
              <LatitudeDegrees>40.73867521248757839202880859375</LatitudeDegrees>
              <LongitudeDegrees>-3.82332609035074710845947265625</LongitudeDegrees>
            </Position>
            <AltitudeMeters>897.5999755859375</AltitudeMeters>
            <DistanceMeters>NAN</DistanceMeters>
          </Trackpoint>
          <Trackpoint>
            <Time>2020-03-07T16:20:09.000Z</Time>
            <Position>
              <LatitudeDegrees>40.738778226077556610107421875</LatitudeDegrees>
              <LongitudeDegrees>-3.82348920218646526336669921875</LongitudeDegrees>
            </Position>
            <AltitudeMeters>897.5999755859375</AltitudeMeters>
            <DistanceMeters>NAN</DistanceMeters>
          </Trackpoint>
          <Trackpoint>
            <Time>2020-03-07T16:20:10.000Z</Time>
            <Position>
              <LatitudeDegrees>40.7388323731720447540283203125</LatitudeDegrees>
              <LongitudeDegrees>-3.8235682435333728790283203125</LongitudeDegrees>
            </Position>
            <AltitudeMeters>897.5999755859375</AltitudeMeters>
            <DistanceMeters>NAN</DistanceMeters>
          </Trackpoint>
          <Trackpoint>
            <Time>2020-03-07T16:20:11.000Z</Time>
            <Position>
              <LatitudeDegrees>40.73888811282813549041748046875</LatitudeDegrees>
              <LongitudeDegrees>-3.82364510558545589447021484375</LongitudeDegrees>
            </Position>
            <AltitudeMeters>897.5999755859375</AltitudeMeters>
            <DistanceMeters>NAN</DistanceMeters>
          </Trackpoint>
          <Trackpoint>
            <Time>2020-03-07T16:20:12.000Z</Time>
            <Position>
              <LatitudeDegrees>40.7389446906745433807373046875</LatitudeDegrees>
              <LongitudeDegrees>-3.82372087799012660980224609375</LongitudeDegrees>
            </Position>
            <AltitudeMeters>897.5999755859375</AltitudeMeters>
            <DistanceMeters>NAN</DistanceMeters>
          </Trackpoint>
          <Trackpoint>
            <Time>2020-03-07T16:20:13.000Z</Time>
            <Position>
              <LatitudeDegrees>40.73900210671126842498779296875</LatitudeDegrees>
              <LongitudeDegrees>-3.82379547692835330963134765625</LongitudeDegrees>
            </Position>
            <AltitudeMeters>897.5999755859375</AltitudeMeters>
            <DistanceMeters>NAN</DistanceMeters>
          </Trackpoint>
          <Trackpoint>
            <Time>2020-03-07T16:20:14.000Z</Time>
            <Position>
              <LatitudeDegrees>40.73900210671126842498779296875</LatitudeDegrees>
              <LongitudeDegrees>-3.82379547692835330963134765625</LongitudeDegrees>
            </Position>
            <AltitudeMeters>897.5999755859375</AltitudeMeters>
            <DistanceMeters>NAN</DistanceMeters>
          </Trackpoint>
          <Trackpoint>
            <Time>2020-03-07T16:20:15.000Z</Time>
            <Position>
              <LatitudeDegrees>40.7391207106411457061767578125</LatitudeDegrees>
              <LongitudeDegrees>-3.82394115440547466278076171875</LongitudeDegrees>
            </Position>
            <AltitudeMeters>897.5999755859375</AltitudeMeters>
            <DistanceMeters>NAN</DistanceMeters>
          </Trackpoint>
          <Trackpoint>
            <Time>2020-03-07T16:20:16.000Z</Time>
            <Position>
              <LatitudeDegrees>40.7391807250678539276123046875</LatitudeDegrees>
              <LongitudeDegrees>-3.82401265203952789306640625</LongitudeDegrees>
            </Position>
            <AltitudeMeters>897.5999755859375</AltitudeMeters>
            <DistanceMeters>NAN</DistanceMeters>
          </Trackpoint>
          <Trackpoint>
            <Time>2020-03-07T16:20:17.000Z</Time>
            <Position>
              <LatitudeDegrees>40.73924132622778415679931640625</LatitudeDegrees>
              <LongitudeDegrees>-3.8240830600261688232421875</LongitudeDegrees>
            </Position>
            <AltitudeMeters>897.5999755859375</AltitudeMeters>
            <DistanceMeters>NAN</DistanceMeters>
          </Trackpoint>
          <Trackpoint>
            <Time>2020-03-07T16:20:18.000Z</Time>
            <Position>
              <LatitudeDegrees>40.73930217884480953216552734375</LatitudeDegrees>
              <LongitudeDegrees>-3.82415237836539745330810546875</LongitudeDegrees>
            </Position>
            <AltitudeMeters>897.5999755859375</AltitudeMeters>
            <DistanceMeters>NAN</DistanceMeters>
          </Trackpoint>
          <Trackpoint>
            <Time>2020-03-07T16:20:19.000Z</Time>
            <Position>
              <LatitudeDegrees>40.73936286382377147674560546875</LatitudeDegrees>
              <LongitudeDegrees>-3.82422144524753093719482421875</LongitudeDegrees>
            </Position>
            <AltitudeMeters>897.5999755859375</AltitudeMeters>
            <DistanceMeters>NAN</DistanceMeters>
          </Trackpoint>
          <Trackpoint>
            <Time>2020-03-07T16:20:20.000Z</Time>
            <Position>
              <LatitudeDegrees>40.73936286382377147674560546875</LatitudeDegrees>
              <LongitudeDegrees>-3.82422144524753093719482421875</LongitudeDegrees>
            </Position>
            <AltitudeMeters>897.5999755859375</AltitudeMeters>
            <DistanceMeters>NAN</DistanceMeters>
          </Trackpoint>
          <Trackpoint>
            <Time>2020-03-07T16:20:21.000Z</Time>
            <Position>
              <LatitudeDegrees>40.7394848205149173736572265625</LatitudeDegrees>
              <LongitudeDegrees>-3.82435773499310016632080078125</LongitudeDegrees>
            </Position>
            <AltitudeMeters>897.5999755859375</AltitudeMeters>
            <DistanceMeters>NAN</DistanceMeters>
          </Trackpoint>
          <Trackpoint>
            <Time>2020-03-07T16:20:22.000Z</Time>
            <Position>
              <LatitudeDegrees>40.739546008408069610595703125</LatitudeDegrees>
              <LongitudeDegrees>-3.8244252093136310577392578125</LongitudeDegrees>
            </Position>
            <AltitudeMeters>897.5999755859375</AltitudeMeters>
            <DistanceMeters>NAN</DistanceMeters>
          </Trackpoint>
          <Trackpoint>
            <Time>2020-03-07T16:20:23.000Z</Time>
            <Position>
              <LatitudeDegrees>40.7396071963012218475341796875</LatitudeDegrees>
              <LongitudeDegrees>-3.82449234835803508758544921875</LongitudeDegrees>
            </Position>
            <AltitudeMeters>897.5999755859375</AltitudeMeters>
            <DistanceMeters>NAN</DistanceMeters>
          </Trackpoint>
          <Trackpoint>
            <Time>2020-03-07T16:20:24.000Z</Time>
            <Position>
              <LatitudeDegrees>40.7396685518324375152587890625</LatitudeDegrees>
              <LongitudeDegrees>-3.82455906830728054046630859375</LongitudeDegrees>
            </Position>
            <AltitudeMeters>897.79998779296875</AltitudeMeters>
            <DistanceMeters>NAN</DistanceMeters>
          </Trackpoint>
          <Trackpoint>
            <Time>2020-03-07T16:20:25.000Z</Time>
            <Position>
              <LatitudeDegrees>40.73972982354462146759033203125</LatitudeDegrees>
              <LongitudeDegrees>-3.82462562061846256256103515625</LongitudeDegrees>
            </Position>
            <AltitudeMeters>897.79998779296875</AltitudeMeters>
            <DistanceMeters>NAN</DistanceMeters>
          </Trackpoint>
          <Trackpoint>
            <Time>2020-03-07T16:20:26.000Z</Time>
            <Position>
              <LatitudeDegrees>40.73972982354462146759033203125</LatitudeDegrees>
              <LongitudeDegrees>-3.82462562061846256256103515625</LongitudeDegrees>
            </Position>
            <AltitudeMeters>897.79998779296875</AltitudeMeters>
            <DistanceMeters>NAN</DistanceMeters>
          </Trackpoint>
          <Trackpoint>
            <Time>2020-03-07T16:20:27.000Z</Time>
            <Position>
              <LatitudeDegrees>40.73985211551189422607421875</LatitudeDegrees>
              <LongitudeDegrees>-3.82475654594600200653076171875</LongitudeDegrees>
            </Position>
            <AltitudeMeters>897.79998779296875</AltitudeMeters>
            <DistanceMeters>NAN</DistanceMeters>
          </Trackpoint>
          <Trackpoint>
            <Time>2020-03-07T16:20:28.000Z</Time>
            <Position>
              <LatitudeDegrees>40.739913471043109893798828125</LatitudeDegrees>
              <LongitudeDegrees>-3.82482175715267658233642578125</LongitudeDegrees>
            </Position>
            <AltitudeMeters>897.79998779296875</AltitudeMeters>
            <DistanceMeters>NAN</DistanceMeters>
          </Trackpoint>
          <Trackpoint>
            <Time>2020-03-07T16:20:29.000Z</Time>
            <Position>
              <LatitudeDegrees>40.73997474275529384613037109375</LatitudeDegrees>
              <LongitudeDegrees>-3.8248862139880657196044921875</LongitudeDegrees>
            </Position>
            <AltitudeMeters>897.5999755859375</AltitudeMeters>
            <DistanceMeters>NAN</DistanceMeters>
          </Trackpoint>
          <Trackpoint>
            <Time>2020-03-07T16:20:30.000Z</Time>
            <Position>
              <LatitudeDegrees>40.74003626592457294464111328125</LatitudeDegrees>
              <LongitudeDegrees>-3.824951089918613433837890625</LongitudeDegrees>
            </Position>
            <AltitudeMeters>897.79998779296875</AltitudeMeters>
            <DistanceMeters>NAN</DistanceMeters>
          </Trackpoint>
          <Trackpoint>
            <Time>2020-03-07T16:20:31.000Z</Time>
            <Position>
              <LatitudeDegrees>40.74009745381772518157958984375</LatitudeDegrees>
              <LongitudeDegrees>-3.8250164687633514404296875</LongitudeDegrees>
            </Position>
            <AltitudeMeters>897.79998779296875</AltitudeMeters>
            <DistanceMeters>NAN</DistanceMeters>
          </Trackpoint>
          <Trackpoint>
            <Time>2020-03-07T16:20:32.000Z</Time>
            <Position>
              <LatitudeDegrees>40.74009745381772518157958984375</LatitudeDegrees>
              <LongitudeDegrees>-3.8250164687633514404296875</LongitudeDegrees>
            </Position>
            <AltitudeMeters>897.79998779296875</AltitudeMeters>
            <DistanceMeters>NAN</DistanceMeters>
          </Trackpoint>
          <Trackpoint>
            <Time>2020-03-07T16:20:33.000Z</Time>
            <Position>
              <LatitudeDegrees>40.74021798558533191680908203125</LatitudeDegrees>
              <LongitudeDegrees>-3.825146220624446868896484375</LongitudeDegrees>
            </Position>
            <AltitudeMeters>897.79998779296875</AltitudeMeters>
            <DistanceMeters>NAN</DistanceMeters>
          </Trackpoint>
          <Trackpoint>
            <Time>2020-03-07T16:20:34.000Z</Time>
            <Position>
              <LatitudeDegrees>40.7402784191071987152099609375</LatitudeDegrees>
              <LongitudeDegrees>-3.82521101273596286773681640625</LongitudeDegrees>
            </Position>
            <AltitudeMeters>898</AltitudeMeters>
            <DistanceMeters>NAN</DistanceMeters>
          </Trackpoint>
          <Trackpoint>
            <Time>2020-03-07T16:20:35.000Z</Time>
            <Position>
              <LatitudeDegrees>40.740338601171970367431640625</LatitudeDegrees>
              <LongitudeDegrees>-3.82527605630457401275634765625</LongitudeDegrees>
            </Position>
            <AltitudeMeters>898</AltitudeMeters>
            <DistanceMeters>NAN</DistanceMeters>
          </Trackpoint>
          <Trackpoint>
            <Time>2020-03-07T16:20:36.000Z</Time>
            <Position>
              <LatitudeDegrees>40.740399621427059173583984375</LatitudeDegrees>
              <LongitudeDegrees>-3.8253410160541534423828125</LongitudeDegrees>
            </Position>
            <AltitudeMeters>898</AltitudeMeters>
            <DistanceMeters>NAN</DistanceMeters>
          </Trackpoint>
          <Trackpoint>
            <Time>2020-03-07T16:20:37.000Z</Time>
            <Position>
              <LatitudeDegrees>40.7404608093202114105224609375</LatitudeDegrees>
              <LongitudeDegrees>-3.82540513761341571807861328125</LongitudeDegrees>
            </Position>
            <AltitudeMeters>898</AltitudeMeters>
            <DistanceMeters>NAN</DistanceMeters>
          </Trackpoint>
          <Trackpoint>
            <Time>2020-03-07T16:20:38.000Z</Time>
            <Position>
              <LatitudeDegrees>40.7404608093202114105224609375</LatitudeDegrees>
              <LongitudeDegrees>-3.82540513761341571807861328125</LongitudeDegrees>
            </Position>
            <AltitudeMeters>898</AltitudeMeters>
            <DistanceMeters>NAN</DistanceMeters>
          </Trackpoint>
          <Trackpoint>
            <Time>2020-03-07T16:20:39.000Z</Time>
            <Position>
              <LatitudeDegrees>40.740582011640071868896484375</LatitudeDegrees>
              <LongitudeDegrees>-3.82553455419838428497314453125</LongitudeDegrees>
            </Position>
            <AltitudeMeters>898</AltitudeMeters>
            <DistanceMeters>NAN</DistanceMeters>
          </Trackpoint>
          <Trackpoint>
            <Time>2020-03-07T16:20:40.000Z</Time>
            <Position>
              <LatitudeDegrees>40.74064076878130435943603515625</LatitudeDegrees>
              <LongitudeDegrees>-3.825602196156978607177734375</LongitudeDegrees>
            </Position>
            <AltitudeMeters>898</AltitudeMeters>
            <DistanceMeters>NAN</DistanceMeters>
          </Trackpoint>
          <Trackpoint>
            <Time>2020-03-07T16:20:41.000Z</Time>
            <Position>
              <LatitudeDegrees>40.7406990230083465576171875</LatitudeDegrees>
              <LongitudeDegrees>-3.8256704248487949371337890625</LongitudeDegrees>
            </Position>
            <AltitudeMeters>898</AltitudeMeters>
            <DistanceMeters>NAN</DistanceMeters>
          </Trackpoint>
          <Trackpoint>
            <Time>2020-03-07T16:20:42.000Z</Time>
            <Position>
              <LatitudeDegrees>40.7407568581402301788330078125</LatitudeDegrees>
              <LongitudeDegrees>-3.825738988816738128662109375</LongitudeDegrees>
            </Position>
            <AltitudeMeters>898</AltitudeMeters>
            <DistanceMeters>NAN</DistanceMeters>
          </Trackpoint>
          <Trackpoint>
            <Time>2020-03-07T16:20:43.000Z</Time>
            <Position>
              <LatitudeDegrees>40.74081393890082836151123046875</LatitudeDegrees>
              <LongitudeDegrees>-3.82580813951790332794189453125</LongitudeDegrees>
            </Position>
            <AltitudeMeters>898.20001220703125</AltitudeMeters>
            <DistanceMeters>NAN</DistanceMeters>
          </Trackpoint>
          <Trackpoint>
            <Time>2020-03-07T16:20:44.000Z</Time>
            <Position>
              <LatitudeDegrees>40.74081393890082836151123046875</LatitudeDegrees>
              <LongitudeDegrees>-3.82580813951790332794189453125</LongitudeDegrees>
            </Position>
            <AltitudeMeters>898.20001220703125</AltitudeMeters>
            <DistanceMeters>NAN</DistanceMeters>
          </Trackpoint>
          <Trackpoint>
            <Time>2020-03-07T16:20:45.000Z</Time>
            <Position>
              <LatitudeDegrees>40.74092592112720012664794921875</LatitudeDegrees>
              <LongitudeDegrees>-3.8259480334818363189697265625</LongitudeDegrees>
            </Position>
            <AltitudeMeters>898.20001220703125</AltitudeMeters>
            <DistanceMeters>NAN</DistanceMeters>
          </Trackpoint>
          <Trackpoint>
            <Time>2020-03-07T16:20:46.000Z</Time>
            <Position>
              <LatitudeDegrees>40.74098040349781513214111328125</LatitudeDegrees>
              <LongitudeDegrees>-3.82601835764944553375244140625</LongitudeDegrees>
            </Position>
            <AltitudeMeters>898.4000244140625</AltitudeMeters>
            <DistanceMeters>NAN</DistanceMeters>
          </Trackpoint>
          <Trackpoint>
            <Time>2020-03-07T16:20:47.000Z</Time>
            <Position>
              <LatitudeDegrees>40.7410341314971446990966796875</LatitudeDegrees>
              <LongitudeDegrees>-3.82608826272189617156982421875</LongitudeDegrees>
            </Position>
            <AltitudeMeters>898.4000244140625</AltitudeMeters>
            <DistanceMeters>NAN</DistanceMeters>
          </Trackpoint>
          <Trackpoint>
            <Time>2020-03-07T16:20:48.000Z</Time>
            <Position>
              <LatitudeDegrees>40.74108702130615711212158203125</LatitudeDegrees>
              <LongitudeDegrees>-3.82615984417498111724853515625</LongitudeDegrees>
            </Position>
            <AltitudeMeters>898.4000244140625</AltitudeMeters>
            <DistanceMeters>NAN</DistanceMeters>
          </Trackpoint>
          <Trackpoint>
            <Time>2020-03-07T16:20:49.000Z</Time>
            <Position>
              <LatitudeDegrees>40.74113915674388408660888671875</LatitudeDegrees>
              <LongitudeDegrees>-3.8262340240180492401123046875</LongitudeDegrees>
            </Position>
            <AltitudeMeters>898.4000244140625</AltitudeMeters>
            <DistanceMeters>NAN</DistanceMeters>
          </Trackpoint>
          <Trackpoint>
            <Time>2020-03-07T16:20:50.000Z</Time>
            <Position>
              <LatitudeDegrees>40.74113915674388408660888671875</LatitudeDegrees>
              <LongitudeDegrees>-3.8262340240180492401123046875</LongitudeDegrees>
            </Position>
            <AltitudeMeters>898.5999755859375</AltitudeMeters>
            <DistanceMeters>NAN</DistanceMeters>
          </Trackpoint>
          <Trackpoint>
            <Time>2020-03-07T16:20:51.000Z</Time>
            <Position>
              <LatitudeDegrees>40.74123747646808624267578125</LatitudeDegrees>
              <LongitudeDegrees>-3.8263875804841518402099609375</LongitudeDegrees>
            </Position>
            <AltitudeMeters>898.5999755859375</AltitudeMeters>
            <DistanceMeters>NAN</DistanceMeters>
          </Trackpoint>
          <Trackpoint>
            <Time>2020-03-07T16:20:52.000Z</Time>
            <Position>
              <LatitudeDegrees>40.7412845827639102935791015625</LatitudeDegrees>
              <LongitudeDegrees>-3.82646620273590087890625</LongitudeDegrees>
            </Position>
            <AltitudeMeters>898.5999755859375</AltitudeMeters>
            <DistanceMeters>NAN</DistanceMeters>
          </Trackpoint>
          <Trackpoint>
            <Time>2020-03-07T16:20:53.000Z</Time>
            <Position>
              <LatitudeDegrees>40.741329677402973175048828125</LatitudeDegrees>
              <LongitudeDegrees>-3.82654574699699878692626953125</LongitudeDegrees>
            </Position>
            <AltitudeMeters>898.5999755859375</AltitudeMeters>
            <DistanceMeters>NAN</DistanceMeters>
          </Trackpoint>
          <Trackpoint>
            <Time>2020-03-07T16:20:54.000Z</Time>
            <Position>
              <LatitudeDegrees>40.741373933851718902587890625</LatitudeDegrees>
              <LongitudeDegrees>-3.82662512362003326416015625</LongitudeDegrees>
            </Position>
            <AltitudeMeters>898.5999755859375</AltitudeMeters>
            <DistanceMeters>NAN</DistanceMeters>
          </Trackpoint>
          <Trackpoint>
            <Time>2020-03-07T16:20:55.000Z</Time>
            <Position>
              <LatitudeDegrees>40.74141710065305233001708984375</LatitudeDegrees>
              <LongitudeDegrees>-3.82670550607144832611083984375</LongitudeDegrees>
            </Position>
            <AltitudeMeters>898.5999755859375</AltitudeMeters>
            <DistanceMeters>NAN</DistanceMeters>
          </Trackpoint>
          <Trackpoint>
            <Time>2020-03-07T16:20:56.000Z</Time>
            <Position>
              <LatitudeDegrees>40.74141710065305233001708984375</LatitudeDegrees>
              <LongitudeDegrees>-3.82670550607144832611083984375</LongitudeDegrees>
            </Position>
            <AltitudeMeters>898.5999755859375</AltitudeMeters>
            <DistanceMeters>NAN</DistanceMeters>
          </Trackpoint>
          <Trackpoint>
            <Time>2020-03-07T16:20:57.000Z</Time>
            <Position>
              <LatitudeDegrees>40.74149723164737224578857421875</LatitudeDegrees>
              <LongitudeDegrees>-3.82687197066843509674072265625</LongitudeDegrees>
            </Position>
            <AltitudeMeters>898.5999755859375</AltitudeMeters>
            <DistanceMeters>NAN</DistanceMeters>
          </Trackpoint>
          <Trackpoint>
            <Time>2020-03-07T16:20:58.000Z</Time>
            <Position>
              <LatitudeDegrees>40.74149723164737224578857421875</LatitudeDegrees>
              <LongitudeDegrees>-3.82687197066843509674072265625</LongitudeDegrees>
            </Position>
            <AltitudeMeters>898.5999755859375</AltitudeMeters>
            <DistanceMeters>NAN</DistanceMeters>
          </Trackpoint>
          <Trackpoint>
            <Time>2020-03-07T16:20:59.000Z</Time>
            <Position>
              <LatitudeDegrees>40.7415353693068027496337890625</LatitudeDegrees>
              <LongitudeDegrees>-3.82695713080465793609619140625</LongitudeDegrees>
            </Position>
            <AltitudeMeters>898.5999755859375</AltitudeMeters>
            <DistanceMeters>NAN</DistanceMeters>
          </Trackpoint>
          <Trackpoint>
            <Time>2020-03-07T16:21:00.000Z</Time>
            <Position>
              <LatitudeDegrees>40.741572417318820953369140625</LatitudeDegrees>
              <LongitudeDegrees>-3.82704363204538822174072265625</LongitudeDegrees>
            </Position>
            <AltitudeMeters>898.5999755859375</AltitudeMeters>
            <DistanceMeters>NAN</DistanceMeters>
          </Trackpoint>
          <Trackpoint>
            <Time>2020-03-07T16:21:01.000Z</Time>
            <Position>
              <LatitudeDegrees>40.74160770513117313385009765625</LatitudeDegrees>
              <LongitudeDegrees>-3.82713180966675281524658203125</LongitudeDegrees>
            </Position>
            <AltitudeMeters>898.5999755859375</AltitudeMeters>
            <DistanceMeters>NAN</DistanceMeters>
          </Trackpoint>
          <Trackpoint>
            <Time>2020-03-07T16:21:02.000Z</Time>
            <Position>
              <LatitudeDegrees>40.7416413165628910064697265625</LatitudeDegrees>
              <LongitudeDegrees>-3.8272207416594028472900390625</LongitudeDegrees>
            </Position>
            <AltitudeMeters>898.5999755859375</AltitudeMeters>
            <DistanceMeters>NAN</DistanceMeters>
          </Trackpoint>
          <Trackpoint>
            <Time>2020-03-07T16:21:03.000Z</Time>
            <Position>
              <LatitudeDegrees>40.74167408980429172515869140625</LatitudeDegrees>
              <LongitudeDegrees>-3.82731017656624317169189453125</LongitudeDegrees>
            </Position>
            <AltitudeMeters>898.5999755859375</AltitudeMeters>
            <DistanceMeters>NAN</DistanceMeters>
          </Trackpoint>
          <Trackpoint>
            <Time>2020-03-07T16:21:04.000Z</Time>
            <Position>
              <LatitudeDegrees>40.741705857217311859130859375</LatitudeDegrees>
              <LongitudeDegrees>-3.8273997791111469268798828125</LongitudeDegrees>
            </Position>
            <AltitudeMeters>898.5999755859375</AltitudeMeters>
            <DistanceMeters>NAN</DistanceMeters>
          </Trackpoint>
          <Trackpoint>
            <Time>2020-03-07T16:21:05.000Z</Time>
            <Position>
              <LatitudeDegrees>40.74173511005938053131103515625</LatitudeDegrees>
              <LongitudeDegrees>-3.82749172858893871307373046875</LongitudeDegrees>
            </Position>
            <AltitudeMeters>898.5999755859375</AltitudeMeters>
            <DistanceMeters>NAN</DistanceMeters>
          </Trackpoint>
          <Trackpoint>
            <Time>2020-03-07T16:21:06.000Z</Time>
            <Position>
              <LatitudeDegrees>40.7417626865208148956298828125</LatitudeDegrees>
              <LongitudeDegrees>-3.82758560590445995330810546875</LongitudeDegrees>
            </Position>
            <AltitudeMeters>898.79998779296875</AltitudeMeters>
            <DistanceMeters>NAN</DistanceMeters>
          </Trackpoint>
          <Trackpoint>
            <Time>2020-03-07T16:21:07.000Z</Time>
            <Position>
              <LatitudeDegrees>40.74178976006805896759033203125</LatitudeDegrees>
              <LongitudeDegrees>-3.82768032141029834747314453125</LongitudeDegrees>
            </Position>
            <AltitudeMeters>898.79998779296875</AltitudeMeters>
            <DistanceMeters>NAN</DistanceMeters>
          </Trackpoint>
          <Trackpoint>
            <Time>2020-03-07T16:21:08.000Z</Time>
            <Position>
              <LatitudeDegrees>40.7418143190443515777587890625</LatitudeDegrees>
              <LongitudeDegrees>-3.82777512073516845703125</LongitudeDegrees>
            </Position>
            <AltitudeMeters>898.79998779296875</AltitudeMeters>
            <DistanceMeters>NAN</DistanceMeters>
          </Trackpoint>
          <Trackpoint>
            <Time>2020-03-07T16:21:09.000Z</Time>
            <Position>
              <LatitudeDegrees>40.74183753691613674163818359375</LatitudeDegrees>
              <LongitudeDegrees>-3.82787126116454601287841796875</LongitudeDegrees>
            </Position>
            <AltitudeMeters>899</AltitudeMeters>
            <DistanceMeters>NAN</DistanceMeters>
          </Trackpoint>
          <Trackpoint>
            <Time>2020-03-07T16:21:10.000Z</Time>
            <Position>
              <LatitudeDegrees>40.74185974895954132080078125</LatitudeDegrees>
              <LongitudeDegrees>-3.82796731777489185333251953125</LongitudeDegrees>
            </Position>
            <AltitudeMeters>899</AltitudeMeters>
            <DistanceMeters>NAN</DistanceMeters>
          </Trackpoint>
          <Trackpoint>
            <Time>2020-03-07T16:21:11.000Z</Time>
            <Position>
              <LatitudeDegrees>40.74188053607940673828125</LatitudeDegrees>
              <LongitudeDegrees>-3.828063793480396270751953125</LongitudeDegrees>
            </Position>
            <AltitudeMeters>899</AltitudeMeters>
            <DistanceMeters>NAN</DistanceMeters>
          </Trackpoint>
          <Trackpoint>
            <Time>2020-03-07T16:21:12.000Z</Time>
            <Position>
              <LatitudeDegrees>40.7418994791805744171142578125</LatitudeDegrees>
              <LongitudeDegrees>-3.8281618617475032806396484375</LongitudeDegrees>
            </Position>
            <AltitudeMeters>899</AltitudeMeters>
            <DistanceMeters>NAN</DistanceMeters>
          </Trackpoint>
          <Trackpoint>
            <Time>2020-03-07T16:21:13.000Z</Time>
            <Position>
              <LatitudeDegrees>40.7419313304126262664794921875</LatitudeDegrees>
              <LongitudeDegrees>-3.828358836472034454345703125</LongitudeDegrees>
            </Position>
            <AltitudeMeters>899</AltitudeMeters>
            <DistanceMeters>NAN</DistanceMeters>
          </Trackpoint>
          <Trackpoint>
            <Time>2020-03-07T16:21:14.000Z</Time>
            <Position>
              <LatitudeDegrees>40.7419313304126262664794921875</LatitudeDegrees>
              <LongitudeDegrees>-3.828358836472034454345703125</LongitudeDegrees>
            </Position>
            <AltitudeMeters>899</AltitudeMeters>
            <DistanceMeters>NAN</DistanceMeters>
          </Trackpoint>
          <Trackpoint>
            <Time>2020-03-07T16:21:15.000Z</Time>
            <Position>
              <LatitudeDegrees>40.74195773340761661529541015625</LatitudeDegrees>
              <LongitudeDegrees>-3.8285561464726924896240234375</LongitudeDegrees>
            </Position>
            <AltitudeMeters>899</AltitudeMeters>
            <DistanceMeters>NAN</DistanceMeters>
          </Trackpoint>
          <Trackpoint>
            <Time>2020-03-07T16:21:16.000Z</Time>
            <Position>
              <LatitudeDegrees>40.74196779169142246246337890625</LatitudeDegrees>
              <LongitudeDegrees>-3.8286562263965606689453125</LongitudeDegrees>
            </Position>
            <AltitudeMeters>899</AltitudeMeters>
            <DistanceMeters>NAN</DistanceMeters>
          </Trackpoint>
          <Trackpoint>
            <Time>2020-03-07T16:21:17.000Z</Time>
            <Position>
              <LatitudeDegrees>40.74197567068040370941162109375</LatitudeDegrees>
              <LongitudeDegrees>-3.8287576474249362945556640625</LongitudeDegrees>
            </Position>
            <AltitudeMeters>899</AltitudeMeters>
            <DistanceMeters>NAN</DistanceMeters>
          </Trackpoint>
          <Trackpoint>
            <Time>2020-03-07T16:21:18.000Z</Time>
            <Position>
              <LatitudeDegrees>40.74198246002197265625</LatitudeDegrees>
              <LongitudeDegrees>-3.82885814644396305084228515625</LongitudeDegrees>
            </Position>
            <AltitudeMeters>899</AltitudeMeters>
            <DistanceMeters>NAN</DistanceMeters>
          </Trackpoint>
          <Trackpoint>
            <Time>2020-03-07T16:21:19.000Z</Time>
            <Position>
              <LatitudeDegrees>40.7419876568019390106201171875</LatitudeDegrees>
              <LongitudeDegrees>-3.82895956747233867645263671875</LongitudeDegrees>
            </Position>
            <AltitudeMeters>899</AltitudeMeters>
            <DistanceMeters>NAN</DistanceMeters>
          </Trackpoint>
          <Trackpoint>
            <Time>2020-03-07T16:21:20.000Z</Time>
            <Position>
              <LatitudeDegrees>40.7419876568019390106201171875</LatitudeDegrees>
              <LongitudeDegrees>-3.82895956747233867645263671875</LongitudeDegrees>
            </Position>
            <AltitudeMeters>899</AltitudeMeters>
            <DistanceMeters>NAN</DistanceMeters>
          </Trackpoint>
          <Trackpoint>
            <Time>2020-03-07T16:21:21.000Z</Time>
            <Position>
              <LatitudeDegrees>40.74199385941028594970703125</LatitudeDegrees>
              <LongitudeDegrees>-3.82915981113910675048828125</LongitudeDegrees>
            </Position>
            <AltitudeMeters>899</AltitudeMeters>
            <DistanceMeters>NAN</DistanceMeters>
          </Trackpoint>
          <Trackpoint>
            <Time>2020-03-07T16:21:22.000Z</Time>
            <Position>
              <LatitudeDegrees>40.7419950328767299652099609375</LatitudeDegrees>
              <LongitudeDegrees>-3.82925746031105518341064453125</LongitudeDegrees>
            </Position>
            <AltitudeMeters>899</AltitudeMeters>
            <DistanceMeters>NAN</DistanceMeters>
          </Trackpoint>
          <Trackpoint>
            <Time>2020-03-07T16:21:23.000Z</Time>
            <Position>
              <LatitudeDegrees>40.7419931888580322265625</LatitudeDegrees>
              <LongitudeDegrees>-3.829357624053955078125</LongitudeDegrees>
            </Position>
            <AltitudeMeters>899</AltitudeMeters>
            <DistanceMeters>NAN</DistanceMeters>
          </Trackpoint>
          <Trackpoint>
            <Time>2020-03-07T16:21:24.000Z</Time>
            <Position>
              <LatitudeDegrees>40.74198991991579532623291015625</LatitudeDegrees>
              <LongitudeDegrees>-3.82945661433041095733642578125</LongitudeDegrees>
            </Position>
            <AltitudeMeters>899</AltitudeMeters>
            <DistanceMeters>NAN</DistanceMeters>
          </Trackpoint>
          <Trackpoint>
            <Time>2020-03-07T16:21:25.000Z</Time>
            <Position>
              <LatitudeDegrees>40.74198405258357524871826171875</LatitudeDegrees>
              <LongitudeDegrees>-3.82955702953040599822998046875</LongitudeDegrees>
            </Position>
            <AltitudeMeters>899</AltitudeMeters>
            <DistanceMeters>NAN</DistanceMeters>
          </Trackpoint>
          <Trackpoint>
            <Time>2020-03-07T16:21:26.000Z</Time>
            <Position>
              <LatitudeDegrees>40.74198405258357524871826171875</LatitudeDegrees>
              <LongitudeDegrees>-3.82955702953040599822998046875</LongitudeDegrees>
            </Position>
            <AltitudeMeters>899</AltitudeMeters>
            <DistanceMeters>NAN</DistanceMeters>
          </Trackpoint>
          <Trackpoint>
            <Time>2020-03-07T16:21:27.000Z</Time>
            <Position>
              <LatitudeDegrees>40.7419685460627079010009765625</LatitudeDegrees>
              <LongitudeDegrees>-3.82975853048264980316162109375</LongitudeDegrees>
            </Position>
            <AltitudeMeters>899.20001220703125</AltitudeMeters>
            <DistanceMeters>NAN</DistanceMeters>
          </Trackpoint>
          <Trackpoint>
            <Time>2020-03-07T16:21:28.000Z</Time>
            <Position>
              <LatitudeDegrees>40.74195790104568004608154296875</LatitudeDegrees>
              <LongitudeDegrees>-3.8298593647778034210205078125</LongitudeDegrees>
            </Position>
            <AltitudeMeters>899.20001220703125</AltitudeMeters>
            <DistanceMeters>NAN</DistanceMeters>
          </Trackpoint>
          <Trackpoint>
            <Time>2020-03-07T16:21:29.000Z</Time>
            <Position>
              <LatitudeDegrees>40.74194549582898616790771484375</LatitudeDegrees>
              <LongitudeDegrees>-3.82995910942554473876953125</LongitudeDegrees>
            </Position>
            <AltitudeMeters>899.20001220703125</AltitudeMeters>
            <DistanceMeters>NAN</DistanceMeters>
          </Trackpoint>
          <Trackpoint>
            <Time>2020-03-07T16:21:30.000Z</Time>
            <Position>
              <LatitudeDegrees>40.74193082749843597412109375</LatitudeDegrees>
              <LongitudeDegrees>-3.8300591893494129180908203125</LongitudeDegrees>
            </Position>
            <AltitudeMeters>899.20001220703125</AltitudeMeters>
            <DistanceMeters>NAN</DistanceMeters>
          </Trackpoint>
          <Trackpoint>
            <Time>2020-03-07T16:21:31.000Z</Time>
            <Position>
              <LatitudeDegrees>40.741915069520473480224609375</LatitudeDegrees>
              <LongitudeDegrees>-3.83015952073037624359130859375</LongitudeDegrees>
            </Position>
            <AltitudeMeters>899.20001220703125</AltitudeMeters>
            <DistanceMeters>NAN</DistanceMeters>
          </Trackpoint>
          <Trackpoint>
            <Time>2020-03-07T16:21:32.000Z</Time>
            <Position>
              <LatitudeDegrees>40.741915069520473480224609375</LatitudeDegrees>
              <LongitudeDegrees>-3.83015952073037624359130859375</LongitudeDegrees>
            </Position>
            <AltitudeMeters>899.4000244140625</AltitudeMeters>
            <DistanceMeters>NAN</DistanceMeters>
          </Trackpoint>
          <Trackpoint>
            <Time>2020-03-07T16:21:33.000Z</Time>
            <Position>
              <LatitudeDegrees>40.74188212864100933074951171875</LatitudeDegrees>
              <LongitudeDegrees>-3.8303602673113346099853515625</LongitudeDegrees>
            </Position>
            <AltitudeMeters>899.4000244140625</AltitudeMeters>
            <DistanceMeters>NAN</DistanceMeters>
          </Trackpoint>
          <Trackpoint>
            <Time>2020-03-07T16:21:34.000Z</Time>
            <Position>
              <LatitudeDegrees>40.7418649457395076751708984375</LatitudeDegrees>
              <LongitudeDegrees>-3.83046068251132965087890625</LongitudeDegrees>
            </Position>
            <AltitudeMeters>899.4000244140625</AltitudeMeters>
            <DistanceMeters>NAN</DistanceMeters>
          </Trackpoint>
          <Trackpoint>
            <Time>2020-03-07T16:21:35.000Z</Time>
            <Position>
              <LatitudeDegrees>40.74184608645737171173095703125</LatitudeDegrees>
              <LongitudeDegrees>-3.8305610977113246917724609375</LongitudeDegrees>
            </Position>
            <AltitudeMeters>899.5999755859375</AltitudeMeters>
            <DistanceMeters>NAN</DistanceMeters>
          </Trackpoint>
          <Trackpoint>
            <Time>2020-03-07T16:21:36.000Z</Time>
            <Position>
              <LatitudeDegrees>40.741825886070728302001953125</LatitudeDegrees>
              <LongitudeDegrees>-3.83066126145422458648681640625</LongitudeDegrees>
            </Position>
            <AltitudeMeters>899.5999755859375</AltitudeMeters>
            <DistanceMeters>NAN</DistanceMeters>
          </Trackpoint>
          <Trackpoint>
            <Time>2020-03-07T16:21:37.000Z</Time>
            <Position>
              <LatitudeDegrees>40.74180484749376773834228515625</LatitudeDegrees>
              <LongitudeDegrees>-3.8307612575590610504150390625</LongitudeDegrees>
            </Position>
            <AltitudeMeters>899.5999755859375</AltitudeMeters>
            <DistanceMeters>NAN</DistanceMeters>
          </Trackpoint>
          <Trackpoint>
            <Time>2020-03-07T16:21:38.000Z</Time>
            <Position>
              <LatitudeDegrees>40.74180484749376773834228515625</LatitudeDegrees>
              <LongitudeDegrees>-3.8307612575590610504150390625</LongitudeDegrees>
            </Position>
            <AltitudeMeters>899.5999755859375</AltitudeMeters>
            <DistanceMeters>NAN</DistanceMeters>
          </Trackpoint>
          <Trackpoint>
            <Time>2020-03-07T16:21:39.000Z</Time>
            <Position>
              <LatitudeDegrees>40.74176226742565631866455078125</LatitudeDegrees>
              <LongitudeDegrees>-3.8309627585113048553466796875</LongitudeDegrees>
            </Position>
            <AltitudeMeters>899.79998779296875</AltitudeMeters>
            <DistanceMeters>NAN</DistanceMeters>
          </Trackpoint>
          <Trackpoint>
            <Time>2020-03-07T16:21:40.000Z</Time>
            <Position>
              <LatitudeDegrees>40.74174114502966403961181640625</LatitudeDegrees>
              <LongitudeDegrees>-3.83106342516839504241943359375</LongitudeDegrees>
            </Position>
            <AltitudeMeters>899.79998779296875</AltitudeMeters>
            <DistanceMeters>NAN</DistanceMeters>
          </Trackpoint>
          <Trackpoint>
            <Time>2020-03-07T16:21:41.000Z</Time>
            <Position>
              <LatitudeDegrees>40.74172019027173519134521484375</LatitudeDegrees>
              <LongitudeDegrees>-3.83116384036839008331298828125</LongitudeDegrees>
            </Position>
            <AltitudeMeters>899.79998779296875</AltitudeMeters>
            <DistanceMeters>NAN</DistanceMeters>
          </Trackpoint>
          <Trackpoint>
            <Time>2020-03-07T16:21:42.000Z</Time>
            <Position>
              <LatitudeDegrees>40.74169990606606006622314453125</LatitudeDegrees>
              <LongitudeDegrees>-3.83126534521579742431640625</LongitudeDegrees>
            </Position>
            <AltitudeMeters>899.5999755859375</AltitudeMeters>
            <DistanceMeters>NAN</DistanceMeters>
          </Trackpoint>
          <Trackpoint>
            <Time>2020-03-07T16:21:43.000Z</Time>
            <Position>
              <LatitudeDegrees>40.741679370403289794921875</LatitudeDegrees>
              <LongitudeDegrees>-3.83136726915836334228515625</LongitudeDegrees>
            </Position>
            <AltitudeMeters>899.5999755859375</AltitudeMeters>
            <DistanceMeters>NAN</DistanceMeters>
          </Trackpoint>
          <Trackpoint>
            <Time>2020-03-07T16:21:44.000Z</Time>
            <Position>
              <LatitudeDegrees>40.741679370403289794921875</LatitudeDegrees>
              <LongitudeDegrees>-3.83136726915836334228515625</LongitudeDegrees>
            </Position>
            <AltitudeMeters>899.5999755859375</AltitudeMeters>
            <DistanceMeters>NAN</DistanceMeters>
          </Trackpoint>
          <Trackpoint>
            <Time>2020-03-07T16:21:45.000Z</Time>
            <Position>
              <LatitudeDegrees>40.741636119782924652099609375</LatitudeDegrees>
              <LongitudeDegrees>-3.831570446491241455078125</LongitudeDegrees>
            </Position>
            <AltitudeMeters>899.5999755859375</AltitudeMeters>
            <DistanceMeters>NAN</DistanceMeters>
          </Trackpoint>
          <Trackpoint>
            <Time>2020-03-07T16:21:46.000Z</Time>
            <Position>
              <LatitudeDegrees>40.7416131533682346343994140625</LatitudeDegrees>
              <LongitudeDegrees>-3.83167169988155364990234375</LongitudeDegrees>
            </Position>
            <AltitudeMeters>899.5999755859375</AltitudeMeters>
            <DistanceMeters>NAN</DistanceMeters>
          </Trackpoint>
          <Trackpoint>
            <Time>2020-03-07T16:21:47.000Z</Time>
            <Position>
              <LatitudeDegrees>40.741590522229671478271484375</LatitudeDegrees>
              <LongitudeDegrees>-3.83177286945283412933349609375</LongitudeDegrees>
            </Position>
            <AltitudeMeters>899.5999755859375</AltitudeMeters>
            <DistanceMeters>NAN</DistanceMeters>
          </Trackpoint>
          <Trackpoint>
            <Time>2020-03-07T16:21:48.000Z</Time>
            <Position>
              <LatitudeDegrees>40.741569735109806060791015625</LatitudeDegrees>
              <LongitudeDegrees>-3.8318747095763683319091796875</LongitudeDegrees>
            </Position>
            <AltitudeMeters>899.5999755859375</AltitudeMeters>
            <DistanceMeters>NAN</DistanceMeters>
          </Trackpoint>
          <Trackpoint>
            <Time>2020-03-07T16:21:49.000Z</Time>
            <Position>
              <LatitudeDegrees>40.74154919944703578948974609375</LatitudeDegrees>
              <LongitudeDegrees>-3.83197671733796596527099609375</LongitudeDegrees>
            </Position>
            <AltitudeMeters>899.5999755859375</AltitudeMeters>
            <DistanceMeters>NAN</DistanceMeters>
          </Trackpoint>
          <Trackpoint>
            <Time>2020-03-07T16:21:50.000Z</Time>
            <Position>
              <LatitudeDegrees>40.74154919944703578948974609375</LatitudeDegrees>
              <LongitudeDegrees>-3.83197671733796596527099609375</LongitudeDegrees>
            </Position>
            <AltitudeMeters>899.5999755859375</AltitudeMeters>
            <DistanceMeters>NAN</DistanceMeters>
          </Trackpoint>
          <Trackpoint>
            <Time>2020-03-07T16:21:51.000Z</Time>
            <Position>
              <LatitudeDegrees>40.741506703197956085205078125</LatitudeDegrees>
              <LongitudeDegrees>-3.8321793079376220703125</LongitudeDegrees>
            </Position>
            <AltitudeMeters>899.4000244140625</AltitudeMeters>
            <DistanceMeters>NAN</DistanceMeters>
          </Trackpoint>
          <Trackpoint>
            <Time>2020-03-07T16:21:52.000Z</Time>
            <Position>
              <LatitudeDegrees>40.74148599989712238311767578125</LatitudeDegrees>
              <LongitudeDegrees>-3.83228098042309284210205078125</LongitudeDegrees>
            </Position>
            <AltitudeMeters>899.4000244140625</AltitudeMeters>
            <DistanceMeters>NAN</DistanceMeters>
          </Trackpoint>
          <Trackpoint>
            <Time>2020-03-07T16:21:53.000Z</Time>
            <Position>
              <LatitudeDegrees>40.74146487750113010406494140625</LatitudeDegrees>
              <LongitudeDegrees>-3.8323813118040561676025390625</LongitudeDegrees>
            </Position>
            <AltitudeMeters>899.4000244140625</AltitudeMeters>
            <DistanceMeters>NAN</DistanceMeters>
          </Trackpoint>
          <Trackpoint>
            <Time>2020-03-07T16:21:54.000Z</Time>
            <Position>
              <LatitudeDegrees>40.74144476093351840972900390625</LatitudeDegrees>
              <LongitudeDegrees>-3.83248114027082920074462890625</LongitudeDegrees>
            </Position>
            <AltitudeMeters>899.4000244140625</AltitudeMeters>
            <DistanceMeters>NAN</DistanceMeters>
          </Trackpoint>
          <Trackpoint>
            <Time>2020-03-07T16:21:55.000Z</Time>
            <Position>
              <LatitudeDegrees>40.7414264045655727386474609375</LatitudeDegrees>
              <LongitudeDegrees>-3.832581304013729095458984375</LongitudeDegrees>
            </Position>
            <AltitudeMeters>899.4000244140625</AltitudeMeters>
            <DistanceMeters>NAN</DistanceMeters>
          </Trackpoint>
          <Trackpoint>
            <Time>2020-03-07T16:21:56.000Z</Time>
            <Position>
              <LatitudeDegrees>40.7414264045655727386474609375</LatitudeDegrees>
              <LongitudeDegrees>-3.832581304013729095458984375</LongitudeDegrees>
            </Position>
            <AltitudeMeters>899.4000244140625</AltitudeMeters>
            <DistanceMeters>NAN</DistanceMeters>
          </Trackpoint>
          <Trackpoint>
            <Time>2020-03-07T16:21:57.000Z</Time>
            <Position>
              <LatitudeDegrees>40.74139363132417201995849609375</LatitudeDegrees>
              <LongitudeDegrees>-3.8327836431562900543212890625</LongitudeDegrees>
            </Position>
            <AltitudeMeters>899.4000244140625</AltitudeMeters>
            <DistanceMeters>NAN</DistanceMeters>
          </Trackpoint>
          <Trackpoint>
            <Time>2020-03-07T16:21:58.000Z</Time>
            <Position>
              <LatitudeDegrees>40.741379298269748687744140625</LatitudeDegrees>
              <LongitudeDegrees>-3.8328845612704753875732421875</LongitudeDegrees>
            </Position>
            <AltitudeMeters>899.4000244140625</AltitudeMeters>
            <DistanceMeters>NAN</DistanceMeters>
          </Trackpoint>
          <Trackpoint>
            <Time>2020-03-07T16:21:59.000Z</Time>
            <Position>
              <LatitudeDegrees>40.74136697687208652496337890625</LatitudeDegrees>
              <LongitudeDegrees>-3.83298506028950214385986328125</LongitudeDegrees>
            </Position>
            <AltitudeMeters>899.4000244140625</AltitudeMeters>
            <DistanceMeters>NAN</DistanceMeters>
          </Trackpoint>
          <Trackpoint>
            <Time>2020-03-07T16:22:00.000Z</Time>
            <Position>
              <LatitudeDegrees>40.74135683476924896240234375</LatitudeDegrees>
              <LongitudeDegrees>-3.833086229860782623291015625</LongitudeDegrees>
            </Position>
            <AltitudeMeters>899.4000244140625</AltitudeMeters>
            <DistanceMeters>NAN</DistanceMeters>
          </Trackpoint>
          <Trackpoint>
            <Time>2020-03-07T16:22:01.000Z</Time>
            <Position>
              <LatitudeDegrees>40.74134878814220428466796875</LatitudeDegrees>
              <LongitudeDegrees>-3.8331876508891582489013671875</LongitudeDegrees>
            </Position>
            <AltitudeMeters>899.4000244140625</AltitudeMeters>
            <DistanceMeters>NAN</DistanceMeters>
          </Trackpoint>
          <Trackpoint>
            <Time>2020-03-07T16:22:02.000Z</Time>
            <Position>
              <LatitudeDegrees>40.74134878814220428466796875</LatitudeDegrees>
              <LongitudeDegrees>-3.8331876508891582489013671875</LongitudeDegrees>
            </Position>
            <AltitudeMeters>899.4000244140625</AltitudeMeters>
            <DistanceMeters>NAN</DistanceMeters>
          </Trackpoint>
          <Trackpoint>
            <Time>2020-03-07T16:22:03.000Z</Time>
            <Position>
              <LatitudeDegrees>40.74133914895355701446533203125</LatitudeDegrees>
              <LongitudeDegrees>-3.8333914987742900848388671875</LongitudeDegrees>
            </Position>
            <AltitudeMeters>899.4000244140625</AltitudeMeters>
            <DistanceMeters>NAN</DistanceMeters>
          </Trackpoint>
          <Trackpoint>
            <Time>2020-03-07T16:22:04.000Z</Time>
            <Position>
              <LatitudeDegrees>40.7413372211158275604248046875</LatitudeDegrees>
              <LongitudeDegrees>-3.8334934227168560028076171875</LongitudeDegrees>
            </Position>
            <AltitudeMeters>899.4000244140625</AltitudeMeters>
            <DistanceMeters>NAN</DistanceMeters>
          </Trackpoint>
          <Trackpoint>
            <Time>2020-03-07T16:22:05.000Z</Time>
            <Position>
              <LatitudeDegrees>40.74133663438260555267333984375</LatitudeDegrees>
              <LongitudeDegrees>-3.83359526284039020538330078125</LongitudeDegrees>
            </Position>
            <AltitudeMeters>899.4000244140625</AltitudeMeters>
            <DistanceMeters>NAN</DistanceMeters>
          </Trackpoint>
          <Trackpoint>
            <Time>2020-03-07T16:22:06.000Z</Time>
            <Position>
              <LatitudeDegrees>40.741336382925510406494140625</LatitudeDegrees>
              <LongitudeDegrees>-3.8336966000497341156005859375</LongitudeDegrees>
            </Position>
            <AltitudeMeters>899.20001220703125</AltitudeMeters>
            <DistanceMeters>NAN</DistanceMeters>
          </Trackpoint>
          <Trackpoint>
            <Time>2020-03-07T16:22:07.000Z</Time>
            <Position>
              <LatitudeDegrees>40.74133864603936672210693359375</LatitudeDegrees>
              <LongitudeDegrees>-3.83379709906876087188720703125</LongitudeDegrees>
            </Position>
            <AltitudeMeters>899.20001220703125</AltitudeMeters>
            <DistanceMeters>NAN</DistanceMeters>
          </Trackpoint>
          <Trackpoint>
            <Time>2020-03-07T16:22:08.000Z</Time>
            <Position>
              <LatitudeDegrees>40.74133864603936672210693359375</LatitudeDegrees>
              <LongitudeDegrees>-3.83379709906876087188720703125</LongitudeDegrees>
            </Position>
            <AltitudeMeters>899.20001220703125</AltitudeMeters>
            <DistanceMeters>NAN</DistanceMeters>
          </Trackpoint>
          <Trackpoint>
            <Time>2020-03-07T16:22:09.000Z</Time>
            <Position>
              <LatitudeDegrees>40.7413566671311855316162109375</LatitudeDegrees>
              <LongitudeDegrees>-3.83399658836424350738525390625</LongitudeDegrees>
            </Position>
            <AltitudeMeters>899.20001220703125</AltitudeMeters>
            <DistanceMeters>NAN</DistanceMeters>
          </Trackpoint>
          <Trackpoint>
            <Time>2020-03-07T16:22:10.000Z</Time>
            <Position>
              <LatitudeDegrees>40.74136848561465740203857421875</LatitudeDegrees>
              <LongitudeDegrees>-3.83409650065004825592041015625</LongitudeDegrees>
            </Position>
            <AltitudeMeters>899.20001220703125</AltitudeMeters>
            <DistanceMeters>NAN</DistanceMeters>
          </Trackpoint>
          <Trackpoint>
            <Time>2020-03-07T16:22:11.000Z</Time>
            <Position>
              <LatitudeDegrees>40.741381309926509857177734375</LatitudeDegrees>
              <LongitudeDegrees>-3.834195993840694427490234375</LongitudeDegrees>
            </Position>
            <AltitudeMeters>899.20001220703125</AltitudeMeters>
            <DistanceMeters>NAN</DistanceMeters>
          </Trackpoint>
          <Trackpoint>
            <Time>2020-03-07T16:22:12.000Z</Time>
            <Position>
              <LatitudeDegrees>40.741395056247711181640625</LatitudeDegrees>
              <LongitudeDegrees>-3.83429548703134059906005859375</LongitudeDegrees>
            </Position>
            <AltitudeMeters>899.4000244140625</AltitudeMeters>
            <DistanceMeters>NAN</DistanceMeters>
          </Trackpoint>
          <Trackpoint>
            <Time>2020-03-07T16:22:13.000Z</Time>
            <Position>
              <LatitudeDegrees>40.7414096407592296600341796875</LatitudeDegrees>
              <LongitudeDegrees>-3.834394477307796478271484375</LongitudeDegrees>
            </Position>
            <AltitudeMeters>899.4000244140625</AltitudeMeters>
            <DistanceMeters>NAN</DistanceMeters>
          </Trackpoint>
          <Trackpoint>
            <Time>2020-03-07T16:22:14.000Z</Time>
            <Position>
              <LatitudeDegrees>40.7414096407592296600341796875</LatitudeDegrees>
              <LongitudeDegrees>-3.834394477307796478271484375</LongitudeDegrees>
            </Position>
            <AltitudeMeters>899.4000244140625</AltitudeMeters>
            <DistanceMeters>NAN</DistanceMeters>
          </Trackpoint>
          <Trackpoint>
            <Time>2020-03-07T16:22:15.000Z</Time>
            <Position>
              <LatitudeDegrees>40.74144140817224979400634765625</LatitudeDegrees>
              <LongitudeDegrees>-3.83459220640361309051513671875</LongitudeDegrees>
            </Position>
            <AltitudeMeters>899.4000244140625</AltitudeMeters>
            <DistanceMeters>NAN</DistanceMeters>
          </Trackpoint>
          <Trackpoint>
            <Time>2020-03-07T16:22:16.000Z</Time>
            <Position>
              <LatitudeDegrees>40.7414585910737514495849609375</LatitudeDegrees>
              <LongitudeDegrees>-3.8346906937658786773681640625</LongitudeDegrees>
            </Position>
            <AltitudeMeters>899.4000244140625</AltitudeMeters>
            <DistanceMeters>NAN</DistanceMeters>
          </Trackpoint>
          <Trackpoint>
            <Time>2020-03-07T16:22:17.000Z</Time>
            <Position>
              <LatitudeDegrees>40.7414783723652362823486328125</LatitudeDegrees>
              <LongitudeDegrees>-3.83478834293782711029052734375</LongitudeDegrees>
            </Position>
            <AltitudeMeters>899.4000244140625</AltitudeMeters>
            <DistanceMeters>NAN</DistanceMeters>
          </Trackpoint>
          <Trackpoint>
            <Time>2020-03-07T16:22:18.000Z</Time>
            <Position>
              <LatitudeDegrees>40.7414981536567211151123046875</LatitudeDegrees>
              <LongitudeDegrees>-3.8348868303000926971435546875</LongitudeDegrees>
            </Position>
            <AltitudeMeters>899.5999755859375</AltitudeMeters>
            <DistanceMeters>NAN</DistanceMeters>
          </Trackpoint>
          <Trackpoint>
            <Time>2020-03-07T16:22:19.000Z</Time>
            <Position>
              <LatitudeDegrees>40.7415170967578887939453125</LatitudeDegrees>
              <LongitudeDegrees>-3.8349857367575168609619140625</LongitudeDegrees>
            </Position>
            <AltitudeMeters>899.5999755859375</AltitudeMeters>
            <DistanceMeters>NAN</DistanceMeters>
          </Trackpoint>
          <Trackpoint>
            <Time>2020-03-07T16:22:20.000Z</Time>
            <Position>
              <LatitudeDegrees>40.7415170967578887939453125</LatitudeDegrees>
              <LongitudeDegrees>-3.8349857367575168609619140625</LongitudeDegrees>
            </Position>
            <AltitudeMeters>899.79998779296875</AltitudeMeters>
            <DistanceMeters>NAN</DistanceMeters>
          </Trackpoint>
          <Trackpoint>
            <Time>2020-03-07T16:22:21.000Z</Time>
            <Position>
              <LatitudeDegrees>40.7415546476840972900390625</LatitudeDegrees>
              <LongitudeDegrees>-3.8351845555007457733154296875</LongitudeDegrees>
            </Position>
            <AltitudeMeters>899.79998779296875</AltitudeMeters>
            <DistanceMeters>NAN</DistanceMeters>
          </Trackpoint>
          <Trackpoint>
            <Time>2020-03-07T16:22:22.000Z</Time>
            <Position>
              <LatitudeDegrees>40.74157300405204296112060546875</LatitudeDegrees>
              <LongitudeDegrees>-3.83528471924364566802978515625</LongitudeDegrees>
            </Position>
            <AltitudeMeters>899.79998779296875</AltitudeMeters>
            <DistanceMeters>NAN</DistanceMeters>
          </Trackpoint>
          <Trackpoint>
            <Time>2020-03-07T16:22:23.000Z</Time>
            <Position>
              <LatitudeDegrees>40.741591863334178924560546875</LatitudeDegrees>
              <LongitudeDegrees>-3.8353857211768627166748046875</LongitudeDegrees>
            </Position>
            <AltitudeMeters>899.79998779296875</AltitudeMeters>
            <DistanceMeters>NAN</DistanceMeters>
          </Trackpoint>
          <Trackpoint>
            <Time>2020-03-07T16:22:24.000Z</Time>
            <Position>
              <LatitudeDegrees>40.7416111417114734649658203125</LatitudeDegrees>
              <LongitudeDegrees>-3.8354869745671749114990234375</LongitudeDegrees>
            </Position>
            <AltitudeMeters>900</AltitudeMeters>
            <DistanceMeters>NAN</DistanceMeters>
          </Trackpoint>
          <Trackpoint>
            <Time>2020-03-07T16:22:25.000Z</Time>
            <Position>
              <LatitudeDegrees>40.74163067154586315155029296875</LatitudeDegrees>
              <LongitudeDegrees>-3.83558797650039196014404296875</LongitudeDegrees>
            </Position>
            <AltitudeMeters>900</AltitudeMeters>
            <DistanceMeters>NAN</DistanceMeters>
          </Trackpoint>
          <Trackpoint>
            <Time>2020-03-07T16:22:26.000Z</Time>
            <Position>
              <LatitudeDegrees>40.74163067154586315155029296875</LatitudeDegrees>
              <LongitudeDegrees>-3.83558797650039196014404296875</LongitudeDegrees>
            </Position>
            <AltitudeMeters>900</AltitudeMeters>
            <DistanceMeters>NAN</DistanceMeters>
          </Trackpoint>
          <Trackpoint>
            <Time>2020-03-07T16:22:27.000Z</Time>
            <Position>
              <LatitudeDegrees>40.74166822247207164764404296875</LatitudeDegrees>
              <LongitudeDegrees>-3.8357934169471263885498046875</LongitudeDegrees>
            </Position>
            <AltitudeMeters>900</AltitudeMeters>
            <DistanceMeters>NAN</DistanceMeters>
          </Trackpoint>
          <Trackpoint>
            <Time>2020-03-07T16:22:28.000Z</Time>
            <Position>
              <LatitudeDegrees>40.7416879199445247650146484375</LatitudeDegrees>
              <LongitudeDegrees>-3.83589676581323146820068359375</LongitudeDegrees>
            </Position>
            <AltitudeMeters>900</AltitudeMeters>
            <DistanceMeters>NAN</DistanceMeters>
          </Trackpoint>
          <Trackpoint>
            <Time>2020-03-07T16:22:29.000Z</Time>
            <Position>
              <LatitudeDegrees>40.7416879199445247650146484375</LatitudeDegrees>
              <LongitudeDegrees>-3.83589676581323146820068359375</LongitudeDegrees>
            </Position>
            <AltitudeMeters>900</AltitudeMeters>
            <DistanceMeters>NAN</DistanceMeters>
          </Trackpoint>
          <Trackpoint>
            <Time>2020-03-07T16:22:30.000Z</Time>
            <Position>
              <LatitudeDegrees>40.74170812033116817474365234375</LatitudeDegrees>
              <LongitudeDegrees>-3.83599986322224140167236328125</LongitudeDegrees>
            </Position>
            <AltitudeMeters>900</AltitudeMeters>
            <DistanceMeters>NAN</DistanceMeters>
          </Trackpoint>
          <Trackpoint>
            <Time>2020-03-07T16:22:31.000Z</Time>
            <Position>
              <LatitudeDegrees>40.7417281530797481536865234375</LatitudeDegrees>
              <LongitudeDegrees>-3.83610346354544162750244140625</LongitudeDegrees>
            </Position>
            <AltitudeMeters>900</AltitudeMeters>
            <DistanceMeters>NAN</DistanceMeters>
          </Trackpoint>
          <Trackpoint>
            <Time>2020-03-07T16:22:32.000Z</Time>
            <Position>
              <LatitudeDegrees>40.74174734763801097869873046875</LatitudeDegrees>
              <LongitudeDegrees>-3.8362078182399272918701171875</LongitudeDegrees>
            </Position>
            <AltitudeMeters>900.20001220703125</AltitudeMeters>
            <DistanceMeters>NAN</DistanceMeters>
          </Trackpoint>
          <Trackpoint>
            <Time>2020-03-07T16:22:33.000Z</Time>
            <Position>
              <LatitudeDegrees>40.74176461435854434967041015625</LatitudeDegrees>
              <LongitudeDegrees>-3.83631267584860324859619140625</LongitudeDegrees>
            </Position>
            <AltitudeMeters>900.4000244140625</AltitudeMeters>
            <DistanceMeters>NAN</DistanceMeters>
          </Trackpoint>
          <Trackpoint>
            <Time>2020-03-07T16:22:34.000Z</Time>
            <Position>
              <LatitudeDegrees>40.74178037233650684356689453125</LatitudeDegrees>
              <LongitudeDegrees>-3.8364180363714694976806640625</LongitudeDegrees>
            </Position>
            <AltitudeMeters>900.5999755859375</AltitudeMeters>
            <DistanceMeters>NAN</DistanceMeters>
          </Trackpoint>
          <Trackpoint>
            <Time>2020-03-07T16:22:35.000Z</Time>
            <Position>
              <LatitudeDegrees>40.74179470539093017578125</LatitudeDegrees>
              <LongitudeDegrees>-3.83652406744658946990966796875</LongitudeDegrees>
            </Position>
            <AltitudeMeters>900.79998779296875</AltitudeMeters>
            <DistanceMeters>NAN</DistanceMeters>
          </Trackpoint>
          <Trackpoint>
            <Time>2020-03-07T16:22:36.000Z</Time>
            <Position>
              <LatitudeDegrees>40.74180920608341693878173828125</LatitudeDegrees>
              <LongitudeDegrees>-3.836629092693328857421875</LongitudeDegrees>
            </Position>
            <AltitudeMeters>900.79998779296875</AltitudeMeters>
            <DistanceMeters>NAN</DistanceMeters>
          </Trackpoint>
          <Trackpoint>
            <Time>2020-03-07T16:22:37.000Z</Time>
            <Position>
              <LatitudeDegrees>40.741822533309459686279296875</LatitudeDegrees>
              <LongitudeDegrees>-3.8367325253784656524658203125</LongitudeDegrees>
            </Position>
            <AltitudeMeters>901</AltitudeMeters>
            <DistanceMeters>NAN</DistanceMeters>
          </Trackpoint>
          <Trackpoint>
            <Time>2020-03-07T16:22:38.000Z</Time>
            <Position>
              <LatitudeDegrees>40.741831250488758087158203125</LatitudeDegrees>
              <LongitudeDegrees>-3.83683788590133190155029296875</LongitudeDegrees>
            </Position>
            <AltitudeMeters>901</AltitudeMeters>
            <DistanceMeters>NAN</DistanceMeters>
          </Trackpoint>
          <Trackpoint>
            <Time>2020-03-07T16:22:39.000Z</Time>
            <Position>
              <LatitudeDegrees>40.74183720164000988006591796875</LatitudeDegrees>
              <LongitudeDegrees>-3.83694215677678585052490234375</LongitudeDegrees>
            </Position>
            <AltitudeMeters>901</AltitudeMeters>
            <DistanceMeters>NAN</DistanceMeters>
          </Trackpoint>
          <Trackpoint>
            <Time>2020-03-07T16:22:40.000Z</Time>
            <Position>
              <LatitudeDegrees>40.74184223078191280364990234375</LatitudeDegrees>
              <LongitudeDegrees>-3.83704475127160549163818359375</LongitudeDegrees>
            </Position>
            <AltitudeMeters>901</AltitudeMeters>
            <DistanceMeters>NAN</DistanceMeters>
          </Trackpoint>
          <Trackpoint>
            <Time>2020-03-07T16:22:41.000Z</Time>
            <Position>
              <LatitudeDegrees>40.74184390716254711151123046875</LatitudeDegrees>
              <LongitudeDegrees>-3.83714784868061542510986328125</LongitudeDegrees>
            </Position>
            <AltitudeMeters>901</AltitudeMeters>
            <DistanceMeters>NAN</DistanceMeters>
          </Trackpoint>
          <Trackpoint>
            <Time>2020-03-07T16:22:42.000Z</Time>
            <Position>
              <LatitudeDegrees>40.7418431527912616729736328125</LatitudeDegrees>
              <LongitudeDegrees>-3.8372501917183399200439453125</LongitudeDegrees>
            </Position>
            <AltitudeMeters>901</AltitudeMeters>
            <DistanceMeters>NAN</DistanceMeters>
          </Trackpoint>
          <Trackpoint>
            <Time>2020-03-07T16:22:43.000Z</Time>
            <Position>
              <LatitudeDegrees>40.741838626563549041748046875</LatitudeDegrees>
              <LongitudeDegrees>-3.8373537920415401458740234375</LongitudeDegrees>
            </Position>
            <AltitudeMeters>901</AltitudeMeters>
            <DistanceMeters>NAN</DistanceMeters>
          </Trackpoint>
          <Trackpoint>
            <Time>2020-03-07T16:22:44.000Z</Time>
            <Position>
              <LatitudeDegrees>40.74183066375553607940673828125</LatitudeDegrees>
              <LongitudeDegrees>-3.83745730854570865631103515625</LongitudeDegrees>
            </Position>
            <AltitudeMeters>901</AltitudeMeters>
            <DistanceMeters>NAN</DistanceMeters>
          </Trackpoint>
          <Trackpoint>
            <Time>2020-03-07T16:22:45.000Z</Time>
            <Position>
              <LatitudeDegrees>40.7418052665889263153076171875</LatitudeDegrees>
              <LongitudeDegrees>-3.8376604020595550537109375</LongitudeDegrees>
            </Position>
            <AltitudeMeters>901</AltitudeMeters>
            <DistanceMeters>NAN</DistanceMeters>
          </Trackpoint>
          <Trackpoint>
            <Time>2020-03-07T16:22:46.000Z</Time>
            <Position>
              <LatitudeDegrees>40.74178808368742465972900390625</LatitudeDegrees>
              <LongitudeDegrees>-3.83776190690696239471435546875</LongitudeDegrees>
            </Position>
            <AltitudeMeters>901</AltitudeMeters>
            <DistanceMeters>NAN</DistanceMeters>
          </Trackpoint>
          <Trackpoint>
            <Time>2020-03-07T16:22:47.000Z</Time>
            <Position>
              <LatitudeDegrees>40.74177031405270099639892578125</LatitudeDegrees>
              <LongitudeDegrees>-3.83786265738308429718017578125</LongitudeDegrees>
            </Position>
            <AltitudeMeters>901</AltitudeMeters>
            <DistanceMeters>NAN</DistanceMeters>
          </Trackpoint>
          <Trackpoint>
            <Time>2020-03-07T16:22:48.000Z</Time>
            <Position>
              <LatitudeDegrees>40.741750113666057586669921875</LatitudeDegrees>
              <LongitudeDegrees>-3.83796240203082561492919921875</LongitudeDegrees>
            </Position>
            <AltitudeMeters>901</AltitudeMeters>
            <DistanceMeters>NAN</DistanceMeters>
          </Trackpoint>
          <Trackpoint>
            <Time>2020-03-07T16:22:49.000Z</Time>
            <Position>
              <LatitudeDegrees>40.74172605760395526885986328125</LatitudeDegrees>
              <LongitudeDegrees>-3.83806147612631320953369140625</LongitudeDegrees>
            </Position>
            <AltitudeMeters>901</AltitudeMeters>
            <DistanceMeters>NAN</DistanceMeters>
          </Trackpoint>
          <Trackpoint>
            <Time>2020-03-07T16:22:50.000Z</Time>
            <Position>
              <LatitudeDegrees>40.74172605760395526885986328125</LatitudeDegrees>
              <LongitudeDegrees>-3.83806147612631320953369140625</LongitudeDegrees>
            </Position>
            <AltitudeMeters>901</AltitudeMeters>
            <DistanceMeters>NAN</DistanceMeters>
          </Trackpoint>
          <Trackpoint>
            <Time>2020-03-07T16:22:51.000Z</Time>
            <Position>
              <LatitudeDegrees>40.7416688092052936553955078125</LatitudeDegrees>
              <LongitudeDegrees>-3.8382563553750514984130859375</LongitudeDegrees>
            </Position>
            <AltitudeMeters>900.79998779296875</AltitudeMeters>
            <DistanceMeters>NAN</DistanceMeters>
          </Trackpoint>
          <Trackpoint>
            <Time>2020-03-07T16:22:52.000Z</Time>
            <Position>
              <LatitudeDegrees>40.74163804762065410614013671875</LatitudeDegrees>
              <LongitudeDegrees>-3.83835115469992160797119140625</LongitudeDegrees>
            </Position>
            <AltitudeMeters>900.79998779296875</AltitudeMeters>
            <DistanceMeters>NAN</DistanceMeters>
          </Trackpoint>
          <Trackpoint>
            <Time>2020-03-07T16:22:53.000Z</Time>
            <Position>
              <LatitudeDegrees>40.74160519056022167205810546875</LatitudeDegrees>
              <LongitudeDegrees>-3.83844503201544284820556640625</LongitudeDegrees>
            </Position>
            <AltitudeMeters>900.79998779296875</AltitudeMeters>
            <DistanceMeters>NAN</DistanceMeters>
          </Trackpoint>
          <Trackpoint>
            <Time>2020-03-07T16:22:54.000Z</Time>
            <Position>
              <LatitudeDegrees>40.741570405662059783935546875</LatitudeDegrees>
              <LongitudeDegrees>-3.83853840641677379608154296875</LongitudeDegrees>
            </Position>
            <AltitudeMeters>900.79998779296875</AltitudeMeters>
            <DistanceMeters>NAN</DistanceMeters>
          </Trackpoint>
          <Trackpoint>
            <Time>2020-03-07T16:22:55.000Z</Time>
            <Position>
              <LatitudeDegrees>40.74153444729745388031005859375</LatitudeDegrees>
              <LongitudeDegrees>-3.8386315293610095977783203125</LongitudeDegrees>
            </Position>
            <AltitudeMeters>900.79998779296875</AltitudeMeters>
            <DistanceMeters>NAN</DistanceMeters>
          </Trackpoint>
          <Trackpoint>
            <Time>2020-03-07T16:22:56.000Z</Time>
            <Position>
              <LatitudeDegrees>40.74153444729745388031005859375</LatitudeDegrees>
              <LongitudeDegrees>-3.8386315293610095977783203125</LongitudeDegrees>
            </Position>
            <AltitudeMeters>900.79998779296875</AltitudeMeters>
            <DistanceMeters>NAN</DistanceMeters>
          </Trackpoint>
          <Trackpoint>
            <Time>2020-03-07T16:22:57.000Z</Time>
            <Position>
              <LatitudeDegrees>40.74145565740764141082763671875</LatitudeDegrees>
              <LongitudeDegrees>-3.8388164341449737548828125</LongitudeDegrees>
            </Position>
            <AltitudeMeters>901</AltitudeMeters>
            <DistanceMeters>NAN</DistanceMeters>
          </Trackpoint>
          <Trackpoint>
            <Time>2020-03-07T16:22:58.000Z</Time>
            <Position>
              <LatitudeDegrees>40.74141559191048145294189453125</LatitudeDegrees>
              <LongitudeDegrees>-3.838908635079860687255859375</LongitudeDegrees>
            </Position>
            <AltitudeMeters>901</AltitudeMeters>
            <DistanceMeters>NAN</DistanceMeters>
          </Trackpoint>
          <Trackpoint>
            <Time>2020-03-07T16:22:59.000Z</Time>
            <Position>
              <LatitudeDegrees>40.74137686751782894134521484375</LatitudeDegrees>
              <LongitudeDegrees>-3.83900192566215991973876953125</LongitudeDegrees>
            </Position>
            <AltitudeMeters>901</AltitudeMeters>
            <DistanceMeters>NAN</DistanceMeters>
          </Trackpoint>
          <Trackpoint>
            <Time>2020-03-07T16:23:00.000Z</Time>
            <Position>
              <LatitudeDegrees>40.741337724030017852783203125</LatitudeDegrees>
              <LongitudeDegrees>-3.83909496478736400604248046875</LongitudeDegrees>
            </Position>
            <AltitudeMeters>901</AltitudeMeters>
            <DistanceMeters>NAN</DistanceMeters>
          </Trackpoint>
          <Trackpoint>
            <Time>2020-03-07T16:23:01.000Z</Time>
            <Position>
              <LatitudeDegrees>40.74129874818027019500732421875</LatitudeDegrees>
              <LongitudeDegrees>-3.83918766863644123077392578125</LongitudeDegrees>
            </Position>
            <AltitudeMeters>900.79998779296875</AltitudeMeters>
            <DistanceMeters>NAN</DistanceMeters>
          </Trackpoint>
          <Trackpoint>
            <Time>2020-03-07T16:23:02.000Z</Time>
            <Position>
              <LatitudeDegrees>40.74129874818027019500732421875</LatitudeDegrees>
              <LongitudeDegrees>-3.83918766863644123077392578125</LongitudeDegrees>
            </Position>
            <AltitudeMeters>900.79998779296875</AltitudeMeters>
            <DistanceMeters>NAN</DistanceMeters>
          </Trackpoint>
          <Trackpoint>
            <Time>2020-03-07T16:23:03.000Z</Time>
            <Position>
              <LatitudeDegrees>40.74122146703302860260009765625</LatitudeDegrees>
              <LongitudeDegrees>-3.83937408216297626495361328125</LongitudeDegrees>
            </Position>
            <AltitudeMeters>900.5999755859375</AltitudeMeters>
            <DistanceMeters>NAN</DistanceMeters>
          </Trackpoint>
          <Trackpoint>
            <Time>2020-03-07T16:23:04.000Z</Time>
            <Position>
              <LatitudeDegrees>40.74118257500231266021728515625</LatitudeDegrees>
              <LongitudeDegrees>-3.8394673727452754974365234375</LongitudeDegrees>
            </Position>
            <AltitudeMeters>900.5999755859375</AltitudeMeters>
            <DistanceMeters>NAN</DistanceMeters>
          </Trackpoint>
          <Trackpoint>
            <Time>2020-03-07T16:23:05.000Z</Time>
            <Position>
              <LatitudeDegrees>40.74114334769546985626220703125</LatitudeDegrees>
              <LongitudeDegrees>-3.8395607471466064453125</LongitudeDegrees>
            </Position>
            <AltitudeMeters>900.79998779296875</AltitudeMeters>
            <DistanceMeters>NAN</DistanceMeters>
          </Trackpoint>
          <Trackpoint>
            <Time>2020-03-07T16:23:06.000Z</Time>
            <Position>
              <LatitudeDegrees>40.74110428802669048309326171875</LatitudeDegrees>
              <LongitudeDegrees>-3.83965420536696910858154296875</LongitudeDegrees>
            </Position>
            <AltitudeMeters>900.79998779296875</AltitudeMeters>
            <DistanceMeters>NAN</DistanceMeters>
          </Trackpoint>
          <Trackpoint>
            <Time>2020-03-07T16:23:07.000Z</Time>
            <Position>
              <LatitudeDegrees>40.7410646416246891021728515625</LatitudeDegrees>
              <LongitudeDegrees>-3.839746825397014617919921875</LongitudeDegrees>
            </Position>
            <AltitudeMeters>900.5999755859375</AltitudeMeters>
            <DistanceMeters>NAN</DistanceMeters>
          </Trackpoint>
          <Trackpoint>
            <Time>2020-03-07T16:23:08.000Z</Time>
            <Position>
              <LatitudeDegrees>40.7410646416246891021728515625</LatitudeDegrees>
              <LongitudeDegrees>-3.839746825397014617919921875</LongitudeDegrees>
            </Position>
            <AltitudeMeters>900.79998779296875</AltitudeMeters>
            <DistanceMeters>NAN</DistanceMeters>
          </Trackpoint>
          <Trackpoint>
            <Time>2020-03-07T16:23:09.000Z</Time>
            <Position>
              <LatitudeDegrees>40.7409855164587497711181640625</LatitudeDegrees>
              <LongitudeDegrees>-3.8399320654571056365966796875</LongitudeDegrees>
            </Position>
            <AltitudeMeters>900.79998779296875</AltitudeMeters>
            <DistanceMeters>NAN</DistanceMeters>
          </Trackpoint>
          <Trackpoint>
            <Time>2020-03-07T16:23:10.000Z</Time>
            <Position>
              <LatitudeDegrees>40.74094637297093868255615234375</LatitudeDegrees>
              <LongitudeDegrees>-3.8400239311158657073974609375</LongitudeDegrees>
            </Position>
            <AltitudeMeters>900.79998779296875</AltitudeMeters>
            <DistanceMeters>NAN</DistanceMeters>
          </Trackpoint>
          <Trackpoint>
            <Time>2020-03-07T16:23:11.000Z</Time>
            <Position>
              <LatitudeDegrees>40.7409070618450641632080078125</LatitudeDegrees>
              <LongitudeDegrees>-3.840115964412689208984375</LongitudeDegrees>
            </Position>
            <AltitudeMeters>900.79998779296875</AltitudeMeters>
            <DistanceMeters>NAN</DistanceMeters>
          </Trackpoint>
          <Trackpoint>
            <Time>2020-03-07T16:23:12.000Z</Time>
            <Position>
              <LatitudeDegrees>40.740868337452411651611328125</LatitudeDegrees>
              <LongitudeDegrees>-3.84020783007144927978515625</LongitudeDegrees>
            </Position>
            <AltitudeMeters>900.79998779296875</AltitudeMeters>
            <DistanceMeters>NAN</DistanceMeters>
          </Trackpoint>
          <Trackpoint>
            <Time>2020-03-07T16:23:13.000Z</Time>
            <Position>
              <LatitudeDegrees>40.74083036743104457855224609375</LatitudeDegrees>
              <LongitudeDegrees>-3.84029994718730449676513671875</LongitudeDegrees>
            </Position>
            <AltitudeMeters>900.79998779296875</AltitudeMeters>
            <DistanceMeters>NAN</DistanceMeters>
          </Trackpoint>
          <Trackpoint>
            <Time>2020-03-07T16:23:14.000Z</Time>
            <Position>
              <LatitudeDegrees>40.74083036743104457855224609375</LatitudeDegrees>
              <LongitudeDegrees>-3.84029994718730449676513671875</LongitudeDegrees>
            </Position>
            <AltitudeMeters>900.79998779296875</AltitudeMeters>
            <DistanceMeters>NAN</DistanceMeters>
          </Trackpoint>
          <Trackpoint>
            <Time>2020-03-07T16:23:15.000Z</Time>
            <Position>
              <LatitudeDegrees>40.74075191281735897064208984375</LatitudeDegrees>
              <LongitudeDegrees>-3.840481080114841461181640625</LongitudeDegrees>
            </Position>
            <AltitudeMeters>900.79998779296875</AltitudeMeters>
            <DistanceMeters>NAN</DistanceMeters>
          </Trackpoint>
          <Trackpoint>
            <Time>2020-03-07T16:23:16.000Z</Time>
            <Position>
              <LatitudeDegrees>40.74071251787245273590087890625</LatitudeDegrees>
              <LongitudeDegrees>-3.8405711017549037933349609375</LongitudeDegrees>
            </Position>
            <AltitudeMeters>900.5999755859375</AltitudeMeters>
            <DistanceMeters>NAN</DistanceMeters>
          </Trackpoint>
          <Trackpoint>
            <Time>2020-03-07T16:23:17.000Z</Time>
            <Position>
              <LatitudeDegrees>40.7406737096607685089111328125</LatitudeDegrees>
              <LongitudeDegrees>-3.84066070429980754852294921875</LongitudeDegrees>
            </Position>
            <AltitudeMeters>900.5999755859375</AltitudeMeters>
            <DistanceMeters>NAN</DistanceMeters>
          </Trackpoint>
          <Trackpoint>
            <Time>2020-03-07T16:23:18.000Z</Time>
            <Position>
              <LatitudeDegrees>40.74063557200133800506591796875</LatitudeDegrees>
              <LongitudeDegrees>-3.8407508097589015960693359375</LongitudeDegrees>
            </Position>
            <AltitudeMeters>900.5999755859375</AltitudeMeters>
            <DistanceMeters>NAN</DistanceMeters>
          </Trackpoint>
          <Trackpoint>
            <Time>2020-03-07T16:23:19.000Z</Time>
            <Position>
              <LatitudeDegrees>40.7405984401702880859375</LatitudeDegrees>
              <LongitudeDegrees>-3.840841166675090789794921875</LongitudeDegrees>
            </Position>
            <AltitudeMeters>900.5999755859375</AltitudeMeters>
            <DistanceMeters>NAN</DistanceMeters>
          </Trackpoint>
          <Trackpoint>
            <Time>2020-03-07T16:23:20.000Z</Time>
            <Position>
              <LatitudeDegrees>40.7405984401702880859375</LatitudeDegrees>
              <LongitudeDegrees>-3.840841166675090789794921875</LongitudeDegrees>
            </Position>
            <AltitudeMeters>900.5999755859375</AltitudeMeters>
            <DistanceMeters>NAN</DistanceMeters>
          </Trackpoint>
          <Trackpoint>
            <Time>2020-03-07T16:23:21.000Z</Time>
            <Position>
              <LatitudeDegrees>40.7405248470604419708251953125</LatitudeDegrees>
              <LongitudeDegrees>-3.841024897992610931396484375</LongitudeDegrees>
            </Position>
            <AltitudeMeters>900.5999755859375</AltitudeMeters>
            <DistanceMeters>NAN</DistanceMeters>
          </Trackpoint>
          <Trackpoint>
            <Time>2020-03-07T16:23:22.000Z</Time>
            <Position>
              <LatitudeDegrees>40.7404869608581066131591796875</LatitudeDegrees>
              <LongitudeDegrees>-3.84111567400395870208740234375</LongitudeDegrees>
            </Position>
            <AltitudeMeters>900.5999755859375</AltitudeMeters>
            <DistanceMeters>NAN</DistanceMeters>
          </Trackpoint>
          <Trackpoint>
            <Time>2020-03-07T16:23:23.000Z</Time>
            <Position>
              <LatitudeDegrees>40.74044815264642238616943359375</LatitudeDegrees>
              <LongitudeDegrees>-3.84120686911046504974365234375</LongitudeDegrees>
            </Position>
            <AltitudeMeters>900.5999755859375</AltitudeMeters>
            <DistanceMeters>NAN</DistanceMeters>
          </Trackpoint>
          <Trackpoint>
            <Time>2020-03-07T16:23:24.000Z</Time>
            <Position>
              <LatitudeDegrees>40.7404081709682941436767578125</LatitudeDegrees>
              <LongitudeDegrees>-3.84129756130278110504150390625</LongitudeDegrees>
            </Position>
            <AltitudeMeters>900.5999755859375</AltitudeMeters>
            <DistanceMeters>NAN</DistanceMeters>
          </Trackpoint>
          <Trackpoint>
            <Time>2020-03-07T16:23:25.000Z</Time>
            <Position>
              <LatitudeDegrees>40.74036885984241962432861328125</LatitudeDegrees>
              <LongitudeDegrees>-3.84138775058090686798095703125</LongitudeDegrees>
            </Position>
            <AltitudeMeters>900.5999755859375</AltitudeMeters>
            <DistanceMeters>NAN</DistanceMeters>
          </Trackpoint>
          <Trackpoint>
            <Time>2020-03-07T16:23:26.000Z</Time>
            <Position>
              <LatitudeDegrees>40.74036885984241962432861328125</LatitudeDegrees>
              <LongitudeDegrees>-3.84138775058090686798095703125</LongitudeDegrees>
            </Position>
            <AltitudeMeters>900.5999755859375</AltitudeMeters>
            <DistanceMeters>NAN</DistanceMeters>
          </Trackpoint>
          <Trackpoint>
            <Time>2020-03-07T16:23:27.000Z</Time>
            <Position>
              <LatitudeDegrees>40.74029359035193920135498046875</LatitudeDegrees>
              <LongitudeDegrees>-3.841571398079395294189453125</LongitudeDegrees>
            </Position>
            <AltitudeMeters>900.5999755859375</AltitudeMeters>
            <DistanceMeters>NAN</DistanceMeters>
          </Trackpoint>
          <Trackpoint>
            <Time>2020-03-07T16:23:28.000Z</Time>
            <Position>
              <LatitudeDegrees>40.74025469832122325897216796875</LatitudeDegrees>
              <LongitudeDegrees>-3.84166250936686992645263671875</LongitudeDegrees>
            </Position>
            <AltitudeMeters>900.5999755859375</AltitudeMeters>
            <DistanceMeters>NAN</DistanceMeters>
          </Trackpoint>
          <Trackpoint>
            <Time>2020-03-07T16:23:29.000Z</Time>
            <Position>
              <LatitudeDegrees>40.74021563865244388580322265625</LatitudeDegrees>
              <LongitudeDegrees>-3.84175336919724941253662109375</LongitudeDegrees>
            </Position>
            <AltitudeMeters>900.5999755859375</AltitudeMeters>
            <DistanceMeters>NAN</DistanceMeters>
          </Trackpoint>
          <Trackpoint>
            <Time>2020-03-07T16:23:30.000Z</Time>
            <Position>
              <LatitudeDegrees>40.74017657898366451263427734375</LatitudeDegrees>
              <LongitudeDegrees>-3.8418434746563434600830078125</LongitudeDegrees>
            </Position>
            <AltitudeMeters>900.5999755859375</AltitudeMeters>
            <DistanceMeters>NAN</DistanceMeters>
          </Trackpoint>
          <Trackpoint>
            <Time>2020-03-07T16:23:31.000Z</Time>
            <Position>
              <LatitudeDegrees>40.7401379384100437164306640625</LatitudeDegrees>
              <LongitudeDegrees>-3.84193391539156436920166015625</LongitudeDegrees>
            </Position>
            <AltitudeMeters>900.5999755859375</AltitudeMeters>
            <DistanceMeters>NAN</DistanceMeters>
          </Trackpoint>
          <Trackpoint>
            <Time>2020-03-07T16:23:32.000Z</Time>
            <Position>
              <LatitudeDegrees>40.740099214017391204833984375</LatitudeDegrees>
              <LongitudeDegrees>-3.8420238532125949859619140625</LongitudeDegrees>
            </Position>
            <AltitudeMeters>900.5999755859375</AltitudeMeters>
            <DistanceMeters>NAN</DistanceMeters>
          </Trackpoint>
          <Trackpoint>
            <Time>2020-03-07T16:23:33.000Z</Time>
            <Position>
              <LatitudeDegrees>40.74005939997732639312744140625</LatitudeDegrees>
              <LongitudeDegrees>-3.84211345575749874114990234375</LongitudeDegrees>
            </Position>
            <AltitudeMeters>900.5999755859375</AltitudeMeters>
            <DistanceMeters>NAN</DistanceMeters>
          </Trackpoint>
          <Trackpoint>
            <Time>2020-03-07T16:23:34.000Z</Time>
            <Position>
              <LatitudeDegrees>40.74001816101372241973876953125</LatitudeDegrees>
              <LongitudeDegrees>-3.84220230393111705780029296875</LongitudeDegrees>
            </Position>
            <AltitudeMeters>900.5999755859375</AltitudeMeters>
            <DistanceMeters>NAN</DistanceMeters>
          </Trackpoint>
          <Trackpoint>
            <Time>2020-03-07T16:23:35.000Z</Time>
            <Position>
              <LatitudeDegrees>40.7399749942123889923095703125</LatitudeDegrees>
              <LongitudeDegrees>-3.84228964336216449737548828125</LongitudeDegrees>
            </Position>
            <AltitudeMeters>900.79998779296875</AltitudeMeters>
            <DistanceMeters>NAN</DistanceMeters>
          </Trackpoint>
          <Trackpoint>
            <Time>2020-03-07T16:23:36.000Z</Time>
            <Position>
              <LatitudeDegrees>40.73993098922073841094970703125</LatitudeDegrees>
              <LongitudeDegrees>-3.84237681515514850616455078125</LongitudeDegrees>
            </Position>
            <AltitudeMeters>900.79998779296875</AltitudeMeters>
            <DistanceMeters>NAN</DistanceMeters>
          </Trackpoint>
          <Trackpoint>
            <Time>2020-03-07T16:23:37.000Z</Time>
            <Position>
              <LatitudeDegrees>40.73988589458167552947998046875</LatitudeDegrees>
              <LongitudeDegrees>-3.84246331639587879180908203125</LongitudeDegrees>
            </Position>
            <AltitudeMeters>900.79998779296875</AltitudeMeters>
            <DistanceMeters>NAN</DistanceMeters>
          </Trackpoint>
          <Trackpoint>
            <Time>2020-03-07T16:23:38.000Z</Time>
            <Position>
              <LatitudeDegrees>40.7398392073810100555419921875</LatitudeDegrees>
              <LongitudeDegrees>-3.84254830889403820037841796875</LongitudeDegrees>
            </Position>
            <AltitudeMeters>900.79998779296875</AltitudeMeters>
            <DistanceMeters>NAN</DistanceMeters>
          </Trackpoint>
          <Trackpoint>
            <Time>2020-03-07T16:23:39.000Z</Time>
            <Position>
              <LatitudeDegrees>40.73979034088551998138427734375</LatitudeDegrees>
              <LongitudeDegrees>-3.84263061918318271636962890625</LongitudeDegrees>
            </Position>
            <AltitudeMeters>901</AltitudeMeters>
            <DistanceMeters>NAN</DistanceMeters>
          </Trackpoint>
          <Trackpoint>
            <Time>2020-03-07T16:23:40.000Z</Time>
            <Position>
              <LatitudeDegrees>40.73973837308585643768310546875</LatitudeDegrees>
              <LongitudeDegrees>-3.842709325253963470458984375</LongitudeDegrees>
            </Position>
            <AltitudeMeters>901</AltitudeMeters>
            <DistanceMeters>NAN</DistanceMeters>
          </Trackpoint>
          <Trackpoint>
            <Time>2020-03-07T16:23:41.000Z</Time>
            <Position>
              <LatitudeDegrees>40.7396833039820194244384765625</LatitudeDegrees>
              <LongitudeDegrees>-3.84278467856347560882568359375</LongitudeDegrees>
            </Position>
            <AltitudeMeters>901</AltitudeMeters>
            <DistanceMeters>NAN</DistanceMeters>
          </Trackpoint>
          <Trackpoint>
            <Time>2020-03-07T16:23:42.000Z</Time>
            <Position>
              <LatitudeDegrees>40.73962572030723094940185546875</LatitudeDegrees>
              <LongitudeDegrees>-3.84285693056881427764892578125</LongitudeDegrees>
            </Position>
            <AltitudeMeters>901</AltitudeMeters>
            <DistanceMeters>NAN</DistanceMeters>
          </Trackpoint>
          <Trackpoint>
            <Time>2020-03-07T16:23:43.000Z</Time>
            <Position>
              <LatitudeDegrees>40.7395659573376178741455078125</LatitudeDegrees>
              <LongitudeDegrees>-3.84292759001255035400390625</LongitudeDegrees>
            </Position>
            <AltitudeMeters>901</AltitudeMeters>
            <DistanceMeters>NAN</DistanceMeters>
          </Trackpoint>
          <Trackpoint>
            <Time>2020-03-07T16:23:44.000Z</Time>
            <Position>
              <LatitudeDegrees>40.7395046018064022064208984375</LatitudeDegrees>
              <LongitudeDegrees>-3.84299623779952526092529296875</LongitudeDegrees>
            </Position>
            <AltitudeMeters>901</AltitudeMeters>
            <DistanceMeters>NAN</DistanceMeters>
          </Trackpoint>
          <Trackpoint>
            <Time>2020-03-07T16:23:45.000Z</Time>
            <Position>
              <LatitudeDegrees>40.739442072808742523193359375</LatitudeDegrees>
              <LongitudeDegrees>-3.84306371212005615234375</LongitudeDegrees>
            </Position>
            <AltitudeMeters>901.20001220703125</AltitudeMeters>
            <DistanceMeters>NAN</DistanceMeters>
          </Trackpoint>
          <Trackpoint>
            <Time>2020-03-07T16:23:46.000Z</Time>
            <Position>
              <LatitudeDegrees>40.73937811888754367828369140625</LatitudeDegrees>
              <LongitudeDegrees>-3.84312875568866729736328125</LongitudeDegrees>
            </Position>
            <AltitudeMeters>901.20001220703125</AltitudeMeters>
            <DistanceMeters>NAN</DistanceMeters>
          </Trackpoint>
          <Trackpoint>
            <Time>2020-03-07T16:23:47.000Z</Time>
            <Position>
              <LatitudeDegrees>40.7393131591379642486572265625</LatitudeDegrees>
              <LongitudeDegrees>-3.84319103322923183441162109375</LongitudeDegrees>
            </Position>
            <AltitudeMeters>901.20001220703125</AltitudeMeters>
            <DistanceMeters>NAN</DistanceMeters>
          </Trackpoint>
          <Trackpoint>
            <Time>2020-03-07T16:23:48.000Z</Time>
            <Position>
              <LatitudeDegrees>40.73924685828387737274169921875</LatitudeDegrees>
              <LongitudeDegrees>-3.84325088001787662506103515625</LongitudeDegrees>
            </Position>
            <AltitudeMeters>901.20001220703125</AltitudeMeters>
            <DistanceMeters>NAN</DistanceMeters>
          </Trackpoint>
          <Trackpoint>
            <Time>2020-03-07T16:23:49.000Z</Time>
            <Position>
              <LatitudeDegrees>40.7391793839633464813232421875</LatitudeDegrees>
              <LongitudeDegrees>-3.843308128416538238525390625</LongitudeDegrees>
            </Position>
            <AltitudeMeters>901.20001220703125</AltitudeMeters>
            <DistanceMeters>NAN</DistanceMeters>
          </Trackpoint>
          <Trackpoint>
            <Time>2020-03-07T16:23:50.000Z</Time>
            <Position>
              <LatitudeDegrees>40.73911140672862529754638671875</LatitudeDegrees>
              <LongitudeDegrees>-3.8433642871677875518798828125</LongitudeDegrees>
            </Position>
            <AltitudeMeters>901.20001220703125</AltitudeMeters>
            <DistanceMeters>NAN</DistanceMeters>
          </Trackpoint>
          <Trackpoint>
            <Time>2020-03-07T16:23:51.000Z</Time>
            <Position>
              <LatitudeDegrees>40.73904284276068210601806640625</LatitudeDegrees>
              <LongitudeDegrees>-3.84341868571937084197998046875</LongitudeDegrees>
            </Position>
            <AltitudeMeters>901.20001220703125</AltitudeMeters>
            <DistanceMeters>NAN</DistanceMeters>
          </Trackpoint>
          <Trackpoint>
            <Time>2020-03-07T16:23:52.000Z</Time>
            <Position>
              <LatitudeDegrees>40.73897360824048519134521484375</LatitudeDegrees>
              <LongitudeDegrees>-3.84347165934741497039794921875</LongitudeDegrees>
            </Position>
            <AltitudeMeters>901.20001220703125</AltitudeMeters>
            <DistanceMeters>NAN</DistanceMeters>
          </Trackpoint>
          <Trackpoint>
            <Time>2020-03-07T16:23:53.000Z</Time>
            <Position>
              <LatitudeDegrees>40.738904289901256561279296875</LatitudeDegrees>
              <LongitudeDegrees>-3.84352438151836395263671875</LongitudeDegrees>
            </Position>
            <AltitudeMeters>901.20001220703125</AltitudeMeters>
            <DistanceMeters>NAN</DistanceMeters>
          </Trackpoint>
          <Trackpoint>
            <Time>2020-03-07T16:23:54.000Z</Time>
            <Position>
              <LatitudeDegrees>40.7388348877429962158203125</LatitudeDegrees>
              <LongitudeDegrees>-3.84357593022286891937255859375</LongitudeDegrees>
            </Position>
            <AltitudeMeters>901.20001220703125</AltitudeMeters>
            <DistanceMeters>NAN</DistanceMeters>
          </Trackpoint>
          <Trackpoint>
            <Time>2020-03-07T16:23:55.000Z</Time>
            <Position>
              <LatitudeDegrees>40.738765485584735870361328125</LatitudeDegrees>
              <LongitudeDegrees>-3.8436271436512470245361328125</LongitudeDegrees>
            </Position>
            <AltitudeMeters>901.20001220703125</AltitudeMeters>
            <DistanceMeters>NAN</DistanceMeters>
          </Trackpoint>
          <Trackpoint>
            <Time>2020-03-07T16:23:56.000Z</Time>
            <Position>
              <LatitudeDegrees>40.7386962510645389556884765625</LatitudeDegrees>
              <LongitudeDegrees>-3.843678943812847137451171875</LongitudeDegrees>
            </Position>
            <AltitudeMeters>901.20001220703125</AltitudeMeters>
            <DistanceMeters>NAN</DistanceMeters>
          </Trackpoint>
          <Trackpoint>
            <Time>2020-03-07T16:23:57.000Z</Time>
            <Position>
              <LatitudeDegrees>40.7386278547346591949462890625</LatitudeDegrees>
              <LongitudeDegrees>-3.84373116306960582733154296875</LongitudeDegrees>
            </Position>
            <AltitudeMeters>901</AltitudeMeters>
            <DistanceMeters>NAN</DistanceMeters>
          </Trackpoint>
          <Trackpoint>
            <Time>2020-03-07T16:23:58.000Z</Time>
            <Position>
              <LatitudeDegrees>40.7385594584047794342041015625</LatitudeDegrees>
              <LongitudeDegrees>-3.84378346614539623260498046875</LongitudeDegrees>
            </Position>
            <AltitudeMeters>901</AltitudeMeters>
            <DistanceMeters>NAN</DistanceMeters>
          </Trackpoint>
          <Trackpoint>
            <Time>2020-03-07T16:23:59.000Z</Time>
            <Position>
              <LatitudeDegrees>40.73849089443683624267578125</LatitudeDegrees>
              <LongitudeDegrees>-3.843835853040218353271484375</LongitudeDegrees>
            </Position>
            <AltitudeMeters>901</AltitudeMeters>
            <DistanceMeters>NAN</DistanceMeters>
          </Trackpoint>
          <Trackpoint>
            <Time>2020-03-07T16:24:00.000Z</Time>
            <Position>
              <LatitudeDegrees>40.7384223304688930511474609375</LatitudeDegrees>
              <LongitudeDegrees>-3.8438883237540721893310546875</LongitudeDegrees>
            </Position>
            <AltitudeMeters>901</AltitudeMeters>
            <DistanceMeters>NAN</DistanceMeters>
          </Trackpoint>
          <Trackpoint>
            <Time>2020-03-07T16:24:01.000Z</Time>
            <Position>
              <LatitudeDegrees>40.73835351504385471343994140625</LatitudeDegrees>
              <LongitudeDegrees>-3.8439382798969745635986328125</LongitudeDegrees>
            </Position>
            <AltitudeMeters>900.79998779296875</AltitudeMeters>
            <DistanceMeters>NAN</DistanceMeters>
          </Trackpoint>
          <Trackpoint>
            <Time>2020-03-07T16:24:02.000Z</Time>
            <Position>
              <LatitudeDegrees>40.73835351504385471343994140625</LatitudeDegrees>
              <LongitudeDegrees>-3.8439382798969745635986328125</LongitudeDegrees>
            </Position>
            <AltitudeMeters>900.79998779296875</AltitudeMeters>
            <DistanceMeters>NAN</DistanceMeters>
          </Trackpoint>
          <Trackpoint>
            <Time>2020-03-07T16:24:03.000Z</Time>
            <Position>
              <LatitudeDegrees>40.7382178120315074920654296875</LatitudeDegrees>
              <LongitudeDegrees>-3.84403827600181102752685546875</LongitudeDegrees>
            </Position>
            <AltitudeMeters>900.79998779296875</AltitudeMeters>
            <DistanceMeters>NAN</DistanceMeters>
          </Trackpoint>
          <Trackpoint>
            <Time>2020-03-07T16:24:04.000Z</Time>
            <Position>
              <LatitudeDegrees>40.7381520979106426239013671875</LatitudeDegrees>
              <LongitudeDegrees>-3.84409057907760143280029296875</LongitudeDegrees>
            </Position>
            <AltitudeMeters>900.79998779296875</AltitudeMeters>
            <DistanceMeters>NAN</DistanceMeters>
          </Trackpoint>
          <Trackpoint>
            <Time>2020-03-07T16:24:05.000Z</Time>
            <Position>
              <LatitudeDegrees>40.7380865514278411865234375</LatitudeDegrees>
              <LongitudeDegrees>-3.84414196014404296875</LongitudeDegrees>
            </Position>
            <AltitudeMeters>900.79998779296875</AltitudeMeters>
            <DistanceMeters>NAN</DistanceMeters>
          </Trackpoint>
          <Trackpoint>
            <Time>2020-03-07T16:24:06.000Z</Time>
            <Position>
              <LatitudeDegrees>40.7380213402211666107177734375</LatitudeDegrees>
              <LongitudeDegrees>-3.84419267065823078155517578125</LongitudeDegrees>
            </Position>
            <AltitudeMeters>900.79998779296875</AltitudeMeters>
            <DistanceMeters>NAN</DistanceMeters>
          </Trackpoint>
          <Trackpoint>
            <Time>2020-03-07T16:24:07.000Z</Time>
            <Position>
              <LatitudeDegrees>40.7379569672048091888427734375</LatitudeDegrees>
              <LongitudeDegrees>-3.8442450575530529022216796875</LongitudeDegrees>
            </Position>
            <AltitudeMeters>900.79998779296875</AltitudeMeters>
            <DistanceMeters>NAN</DistanceMeters>
          </Trackpoint>
          <Trackpoint>
            <Time>2020-03-07T16:24:08.000Z</Time>
            <Position>
              <LatitudeDegrees>40.7379569672048091888427734375</LatitudeDegrees>
              <LongitudeDegrees>-3.8442450575530529022216796875</LongitudeDegrees>
            </Position>
            <AltitudeMeters>900.5999755859375</AltitudeMeters>
            <DistanceMeters>NAN</DistanceMeters>
          </Trackpoint>
          <Trackpoint>
            <Time>2020-03-07T16:24:09.000Z</Time>
            <Position>
              <LatitudeDegrees>40.737832747399806976318359375</LatitudeDegrees>
              <LongitudeDegrees>-3.84435745887458324432373046875</LongitudeDegrees>
            </Position>
            <AltitudeMeters>900.5999755859375</AltitudeMeters>
            <DistanceMeters>NAN</DistanceMeters>
          </Trackpoint>
          <Trackpoint>
            <Time>2020-03-07T16:24:10.000Z</Time>
            <Position>
              <LatitudeDegrees>40.73777114041149616241455078125</LatitudeDegrees>
              <LongitudeDegrees>-3.84441495873034000396728515625</LongitudeDegrees>
            </Position>
            <AltitudeMeters>900.5999755859375</AltitudeMeters>
            <DistanceMeters>NAN</DistanceMeters>
          </Trackpoint>
          <Trackpoint>
            <Time>2020-03-07T16:24:11.000Z</Time>
            <Position>
              <LatitudeDegrees>40.73771079070866107940673828125</LatitudeDegrees>
              <LongitudeDegrees>-3.84447463788092136383056640625</LongitudeDegrees>
            </Position>
            <AltitudeMeters>900.5999755859375</AltitudeMeters>
            <DistanceMeters>NAN</DistanceMeters>
          </Trackpoint>
          <Trackpoint>
            <Time>2020-03-07T16:24:12.000Z</Time>
            <Position>
              <LatitudeDegrees>40.73771079070866107940673828125</LatitudeDegrees>
              <LongitudeDegrees>-3.84447463788092136383056640625</LongitudeDegrees>
            </Position>
            <AltitudeMeters>900.5999755859375</AltitudeMeters>
            <DistanceMeters>NAN</DistanceMeters>
          </Trackpoint>
          <Trackpoint>
            <Time>2020-03-07T16:24:13.000Z</Time>
            <Position>
              <LatitudeDegrees>40.7376515306532382965087890625</LatitudeDegrees>
              <LongitudeDegrees>-3.844537250697612762451171875</LongitudeDegrees>
            </Position>
            <AltitudeMeters>900.5999755859375</AltitudeMeters>
            <DistanceMeters>NAN</DistanceMeters>
          </Trackpoint>
          <Trackpoint>
            <Time>2020-03-07T16:24:14.000Z</Time>
            <Position>
              <LatitudeDegrees>40.73759361170232295989990234375</LatitudeDegrees>
              <LongitudeDegrees>-3.8446017913520336151123046875</LongitudeDegrees>
            </Position>
            <AltitudeMeters>900.5999755859375</AltitudeMeters>
            <DistanceMeters>NAN</DistanceMeters>
          </Trackpoint>
          <Trackpoint>
            <Time>2020-03-07T16:24:15.000Z</Time>
            <Position>
              <LatitudeDegrees>40.73753695003688335418701171875</LatitudeDegrees>
              <LongitudeDegrees>-3.8446685113012790679931640625</LongitudeDegrees>
            </Position>
            <AltitudeMeters>900.5999755859375</AltitudeMeters>
            <DistanceMeters>NAN</DistanceMeters>
          </Trackpoint>
          <Trackpoint>
            <Time>2020-03-07T16:24:16.000Z</Time>
            <Position>
              <LatitudeDegrees>40.73748196475207805633544921875</LatitudeDegrees>
              <LongitudeDegrees>-3.84473673999309539794921875</LongitudeDegrees>
            </Position>
            <AltitudeMeters>900.5999755859375</AltitudeMeters>
            <DistanceMeters>NAN</DistanceMeters>
          </Trackpoint>
          <Trackpoint>
            <Time>2020-03-07T16:24:17.000Z</Time>
            <Position>
              <LatitudeDegrees>40.7374268956482410430908203125</LatitudeDegrees>
              <LongitudeDegrees>-3.844805471599102020263671875</LongitudeDegrees>
            </Position>
            <AltitudeMeters>900.79998779296875</AltitudeMeters>
            <DistanceMeters>NAN</DistanceMeters>
          </Trackpoint>
          <Trackpoint>
            <Time>2020-03-07T16:24:18.000Z</Time>
            <Position>
              <LatitudeDegrees>40.73737350292503833770751953125</LatitudeDegrees>
              <LongitudeDegrees>-3.84487512521445751190185546875</LongitudeDegrees>
            </Position>
            <AltitudeMeters>900.79998779296875</AltitudeMeters>
            <DistanceMeters>NAN</DistanceMeters>
          </Trackpoint>
          <Trackpoint>
            <Time>2020-03-07T16:24:19.000Z</Time>
            <Position>
              <LatitudeDegrees>40.7373232953250408172607421875</LatitudeDegrees>
              <LongitudeDegrees>-3.8449484668672084808349609375</LongitudeDegrees>
            </Position>
            <AltitudeMeters>900.79998779296875</AltitudeMeters>
            <DistanceMeters>NAN</DistanceMeters>
          </Trackpoint>
          <Trackpoint>
            <Time>2020-03-07T16:24:20.000Z</Time>
            <Position>
              <LatitudeDegrees>40.73727526701986789703369140625</LatitudeDegrees>
              <LongitudeDegrees>-3.84502348490059375762939453125</LongitudeDegrees>
            </Position>
            <AltitudeMeters>900.79998779296875</AltitudeMeters>
            <DistanceMeters>NAN</DistanceMeters>
          </Trackpoint>
          <Trackpoint>
            <Time>2020-03-07T16:24:21.000Z</Time>
            <Position>
              <LatitudeDegrees>40.7372284121811389923095703125</LatitudeDegrees>
              <LongitudeDegrees>-3.8451003469526767730712890625</LongitudeDegrees>
            </Position>
            <AltitudeMeters>900.79998779296875</AltitudeMeters>
            <DistanceMeters>NAN</DistanceMeters>
          </Trackpoint>
          <Trackpoint>
            <Time>2020-03-07T16:24:22.000Z</Time>
            <Position>
              <LatitudeDegrees>40.73718172498047351837158203125</LatitudeDegrees>
              <LongitudeDegrees>-3.845177628099918365478515625</LongitudeDegrees>
            </Position>
            <AltitudeMeters>900.79998779296875</AltitudeMeters>
            <DistanceMeters>NAN</DistanceMeters>
          </Trackpoint>
          <Trackpoint>
            <Time>2020-03-07T16:24:23.000Z</Time>
            <Position>
              <LatitudeDegrees>40.73713445104658603668212890625</LatitudeDegrees>
              <LongitudeDegrees>-3.8452552445232868194580078125</LongitudeDegrees>
            </Position>
            <AltitudeMeters>900.79998779296875</AltitudeMeters>
            <DistanceMeters>NAN</DistanceMeters>
          </Trackpoint>
          <Trackpoint>
            <Time>2020-03-07T16:24:24.000Z</Time>
            <Position>
              <LatitudeDegrees>40.737087763845920562744140625</LatitudeDegrees>
              <LongitudeDegrees>-3.8453342020511627197265625</LongitudeDegrees>
            </Position>
            <AltitudeMeters>900.79998779296875</AltitudeMeters>
            <DistanceMeters>NAN</DistanceMeters>
          </Trackpoint>
          <Trackpoint>
            <Time>2020-03-07T16:24:25.000Z</Time>
            <Position>
              <LatitudeDegrees>40.73704116046428680419921875</LatitudeDegrees>
              <LongitudeDegrees>-3.84541408158838748931884765625</LongitudeDegrees>
            </Position>
            <AltitudeMeters>900.79998779296875</AltitudeMeters>
            <DistanceMeters>NAN</DistanceMeters>
          </Trackpoint>
          <Trackpoint>
            <Time>2020-03-07T16:24:26.000Z</Time>
            <Position>
              <LatitudeDegrees>40.73699556291103363037109375</LatitudeDegrees>
              <LongitudeDegrees>-3.8454949669539928436279296875</LongitudeDegrees>
            </Position>
            <AltitudeMeters>901</AltitudeMeters>
            <DistanceMeters>NAN</DistanceMeters>
          </Trackpoint>
          <Trackpoint>
            <Time>2020-03-07T16:24:27.000Z</Time>
            <Position>
              <LatitudeDegrees>40.73690730147063732147216796875</LatitudeDegrees>
              <LongitudeDegrees>-3.84566235356032848358154296875</LongitudeDegrees>
            </Position>
            <AltitudeMeters>901</AltitudeMeters>
            <DistanceMeters>NAN</DistanceMeters>
          </Trackpoint>
          <Trackpoint>
            <Time>2020-03-07T16:24:28.000Z</Time>
            <Position>
              <LatitudeDegrees>40.73686321265995502471923828125</LatitudeDegrees>
              <LongitudeDegrees>-3.84574667550623416900634765625</LongitudeDegrees>
            </Position>
            <AltitudeMeters>901</AltitudeMeters>
            <DistanceMeters>NAN</DistanceMeters>
          </Trackpoint>
          <Trackpoint>
            <Time>2020-03-07T16:24:29.000Z</Time>
            <Position>
              <LatitudeDegrees>40.7368180342018604278564453125</LatitudeDegrees>
              <LongitudeDegrees>-3.84583015926182270050048828125</LongitudeDegrees>
            </Position>
            <AltitudeMeters>901</AltitudeMeters>
            <DistanceMeters>NAN</DistanceMeters>
          </Trackpoint>
          <Trackpoint>
            <Time>2020-03-07T16:24:30.000Z</Time>
            <Position>
              <LatitudeDegrees>40.73677159845829010009765625</LatitudeDegrees>
              <LongitudeDegrees>-3.84591230191290378570556640625</LongitudeDegrees>
            </Position>
            <AltitudeMeters>901</AltitudeMeters>
            <DistanceMeters>NAN</DistanceMeters>
          </Trackpoint>
          <Trackpoint>
            <Time>2020-03-07T16:24:31.000Z</Time>
            <Position>
              <LatitudeDegrees>40.73672600090503692626953125</LatitudeDegrees>
              <LongitudeDegrees>-3.84599444456398487091064453125</LongitudeDegrees>
            </Position>
            <AltitudeMeters>901</AltitudeMeters>
            <DistanceMeters>NAN</DistanceMeters>
          </Trackpoint>
          <Trackpoint>
            <Time>2020-03-07T16:24:32.000Z</Time>
            <Position>
              <LatitudeDegrees>40.73672600090503692626953125</LatitudeDegrees>
              <LongitudeDegrees>-3.84599444456398487091064453125</LongitudeDegrees>
            </Position>
            <AltitudeMeters>901.20001220703125</AltitudeMeters>
            <DistanceMeters>NAN</DistanceMeters>
          </Trackpoint>
          <Trackpoint>
            <Time>2020-03-07T16:24:33.000Z</Time>
            <Position>
              <LatitudeDegrees>40.73663237504661083221435546875</LatitudeDegrees>
              <LongitudeDegrees>-3.8461557962000370025634765625</LongitudeDegrees>
            </Position>
            <AltitudeMeters>901.20001220703125</AltitudeMeters>
            <DistanceMeters>NAN</DistanceMeters>
          </Trackpoint>
          <Trackpoint>
            <Time>2020-03-07T16:24:34.000Z</Time>
            <Position>
              <LatitudeDegrees>40.73658945970237255096435546875</LatitudeDegrees>
              <LongitudeDegrees>-3.8462392799556255340576171875</LongitudeDegrees>
            </Position>
            <AltitudeMeters>901.20001220703125</AltitudeMeters>
            <DistanceMeters>NAN</DistanceMeters>
          </Trackpoint>
          <Trackpoint>
            <Time>2020-03-07T16:24:35.000Z</Time>
            <Position>
              <LatitudeDegrees>40.73654721491038799285888671875</LatitudeDegrees>
              <LongitudeDegrees>-3.84632267989218235015869140625</LongitudeDegrees>
            </Position>
            <AltitudeMeters>901.20001220703125</AltitudeMeters>
            <DistanceMeters>NAN</DistanceMeters>
          </Trackpoint>
          <Trackpoint>
            <Time>2020-03-07T16:24:36.000Z</Time>
            <Position>
              <LatitudeDegrees>40.7365042157471179962158203125</LatitudeDegrees>
              <LongitudeDegrees>-3.84640582837164402008056640625</LongitudeDegrees>
            </Position>
            <AltitudeMeters>901.20001220703125</AltitudeMeters>
            <DistanceMeters>NAN</DistanceMeters>
          </Trackpoint>
          <Trackpoint>
            <Time>2020-03-07T16:24:37.000Z</Time>
            <Position>
              <LatitudeDegrees>40.7364596240222454071044921875</LatitudeDegrees>
              <LongitudeDegrees>-3.84648822247982025146484375</LongitudeDegrees>
            </Position>
            <AltitudeMeters>901.20001220703125</AltitudeMeters>
            <DistanceMeters>NAN</DistanceMeters>
          </Trackpoint>
          <Trackpoint>
            <Time>2020-03-07T16:24:38.000Z</Time>
            <Position>
              <LatitudeDegrees>40.7364596240222454071044921875</LatitudeDegrees>
              <LongitudeDegrees>-3.84648822247982025146484375</LongitudeDegrees>
            </Position>
            <AltitudeMeters>901.20001220703125</AltitudeMeters>
            <DistanceMeters>NAN</DistanceMeters>
          </Trackpoint>
          <Trackpoint>
            <Time>2020-03-07T16:24:39.000Z</Time>
            <Position>
              <LatitudeDegrees>40.73636968620121479034423828125</LatitudeDegrees>
              <LongitudeDegrees>-3.84665175341069698333740234375</LongitudeDegrees>
            </Position>
            <AltitudeMeters>901.20001220703125</AltitudeMeters>
            <DistanceMeters>NAN</DistanceMeters>
          </Trackpoint>
          <Trackpoint>
            <Time>2020-03-07T16:24:40.000Z</Time>
            <Position>
              <LatitudeDegrees>40.7363258488476276397705078125</LatitudeDegrees>
              <LongitudeDegrees>-3.84673439897596836090087890625</LongitudeDegrees>
            </Position>
            <AltitudeMeters>901.20001220703125</AltitudeMeters>
            <DistanceMeters>NAN</DistanceMeters>
          </Trackpoint>
          <Trackpoint>
            <Time>2020-03-07T16:24:41.000Z</Time>
            <Position>
              <LatitudeDegrees>40.73628217913210391998291015625</LatitudeDegrees>
              <LongitudeDegrees>-3.8468162901699542999267578125</LongitudeDegrees>
            </Position>
            <AltitudeMeters>901.20001220703125</AltitudeMeters>
            <DistanceMeters>NAN</DistanceMeters>
          </Trackpoint>
          <Trackpoint>
            <Time>2020-03-07T16:24:42.000Z</Time>
            <Position>
              <LatitudeDegrees>40.73623783886432647705078125</LatitudeDegrees>
              <LongitudeDegrees>-3.84689818136394023895263671875</LongitudeDegrees>
            </Position>
            <AltitudeMeters>901.20001220703125</AltitudeMeters>
            <DistanceMeters>NAN</DistanceMeters>
          </Trackpoint>
          <Trackpoint>
            <Time>2020-03-07T16:24:43.000Z</Time>
            <Position>
              <LatitudeDegrees>40.73619316332042217254638671875</LatitudeDegrees>
              <LongitudeDegrees>-3.8469802401959896087646484375</LongitudeDegrees>
            </Position>
            <AltitudeMeters>901.20001220703125</AltitudeMeters>
            <DistanceMeters>NAN</DistanceMeters>
          </Trackpoint>
          <Trackpoint>
            <Time>2020-03-07T16:24:44.000Z</Time>
            <Position>
              <LatitudeDegrees>40.73619316332042217254638671875</LatitudeDegrees>
              <LongitudeDegrees>-3.8469802401959896087646484375</LongitudeDegrees>
            </Position>
            <AltitudeMeters>901.20001220703125</AltitudeMeters>
            <DistanceMeters>NAN</DistanceMeters>
          </Trackpoint>
          <Trackpoint>
            <Time>2020-03-07T16:24:45.000Z</Time>
            <Position>
              <LatitudeDegrees>40.736102722585201263427734375</LatitudeDegrees>
              <LongitudeDegrees>-3.84714511223137378692626953125</LongitudeDegrees>
            </Position>
            <AltitudeMeters>901.20001220703125</AltitudeMeters>
            <DistanceMeters>NAN</DistanceMeters>
          </Trackpoint>
          <Trackpoint>
            <Time>2020-03-07T16:24:46.000Z</Time>
            <Position>
              <LatitudeDegrees>40.7360566221177577972412109375</LatitudeDegrees>
              <LongitudeDegrees>-3.84722717106342315673828125</LongitudeDegrees>
            </Position>
            <AltitudeMeters>901.20001220703125</AltitudeMeters>
            <DistanceMeters>NAN</DistanceMeters>
          </Trackpoint>
          <Trackpoint>
            <Time>2020-03-07T16:24:47.000Z</Time>
            <Position>
              <LatitudeDegrees>40.73601060546934604644775390625</LatitudeDegrees>
              <LongitudeDegrees>-3.84731031954288482666015625</LongitudeDegrees>
            </Position>
            <AltitudeMeters>901.20001220703125</AltitudeMeters>
            <DistanceMeters>NAN</DistanceMeters>
          </Trackpoint>
          <Trackpoint>
            <Time>2020-03-07T16:24:48.000Z</Time>
            <Position>
              <LatitudeDegrees>40.73596500791609287261962890625</LatitudeDegrees>
              <LongitudeDegrees>-3.84739405475556850433349609375</LongitudeDegrees>
            </Position>
            <AltitudeMeters>901.20001220703125</AltitudeMeters>
            <DistanceMeters>NAN</DistanceMeters>
          </Trackpoint>
          <Trackpoint>
            <Time>2020-03-07T16:24:49.000Z</Time>
            <Position>
              <LatitudeDegrees>40.7359193265438079833984375</LatitudeDegrees>
              <LongitudeDegrees>-3.847478292882442474365234375</LongitudeDegrees>
            </Position>
            <AltitudeMeters>901.20001220703125</AltitudeMeters>
            <DistanceMeters>NAN</DistanceMeters>
          </Trackpoint>
          <Trackpoint>
            <Time>2020-03-07T16:24:50.000Z</Time>
            <Position>
              <LatitudeDegrees>40.735874064266681671142578125</LatitudeDegrees>
              <LongitudeDegrees>-3.8475631177425384521484375</LongitudeDegrees>
            </Position>
            <AltitudeMeters>901.20001220703125</AltitudeMeters>
            <DistanceMeters>NAN</DistanceMeters>
          </Trackpoint>
          <Trackpoint>
            <Time>2020-03-07T16:24:51.000Z</Time>
            <Position>
              <LatitudeDegrees>40.73582821525633335113525390625</LatitudeDegrees>
              <LongitudeDegrees>-3.84764752350747585296630859375</LongitudeDegrees>
            </Position>
            <AltitudeMeters>901.20001220703125</AltitudeMeters>
            <DistanceMeters>NAN</DistanceMeters>
          </Trackpoint>
          <Trackpoint>
            <Time>2020-03-07T16:24:52.000Z</Time>
            <Position>
              <LatitudeDegrees>40.73578177951276302337646484375</LatitudeDegrees>
              <LongitudeDegrees>-3.84773117490112781524658203125</LongitudeDegrees>
            </Position>
            <AltitudeMeters>901.20001220703125</AltitudeMeters>
            <DistanceMeters>NAN</DistanceMeters>
          </Trackpoint>
          <Trackpoint>
            <Time>2020-03-07T16:24:53.000Z</Time>
            <Position>
              <LatitudeDegrees>40.735736601054668426513671875</LatitudeDegrees>
              <LongitudeDegrees>-3.84781398810446262359619140625</LongitudeDegrees>
            </Position>
            <AltitudeMeters>901.20001220703125</AltitudeMeters>
            <DistanceMeters>NAN</DistanceMeters>
          </Trackpoint>
          <Trackpoint>
            <Time>2020-03-07T16:24:54.000Z</Time>
            <Position>
              <LatitudeDegrees>40.7356908358633518218994140625</LatitudeDegrees>
              <LongitudeDegrees>-3.847896046936511993408203125</LongitudeDegrees>
            </Position>
            <AltitudeMeters>901.20001220703125</AltitudeMeters>
            <DistanceMeters>NAN</DistanceMeters>
          </Trackpoint>
          <Trackpoint>
            <Time>2020-03-07T16:24:55.000Z</Time>
            <Position>
              <LatitudeDegrees>40.73564481921494007110595703125</LatitudeDegrees>
              <LongitudeDegrees>-3.8479770161211490631103515625</LongitudeDegrees>
            </Position>
            <AltitudeMeters>901.20001220703125</AltitudeMeters>
            <DistanceMeters>NAN</DistanceMeters>
          </Trackpoint>
          <Trackpoint>
            <Time>2020-03-07T16:24:56.000Z</Time>
            <Position>
              <LatitudeDegrees>40.7355979643762111663818359375</LatitudeDegrees>
              <LongitudeDegrees>-3.84805706329643726348876953125</LongitudeDegrees>
            </Position>
            <AltitudeMeters>901.20001220703125</AltitudeMeters>
            <DistanceMeters>NAN</DistanceMeters>
          </Trackpoint>
          <Trackpoint>
            <Time>2020-03-07T16:24:57.000Z</Time>
            <Position>
              <LatitudeDegrees>40.73554893024265766143798828125</LatitudeDegrees>
              <LongitudeDegrees>-3.8481342606246471405029296875</LongitudeDegrees>
            </Position>
            <AltitudeMeters>901.20001220703125</AltitudeMeters>
            <DistanceMeters>NAN</DistanceMeters>
          </Trackpoint>
          <Trackpoint>
            <Time>2020-03-07T16:24:58.000Z</Time>
            <Position>
              <LatitudeDegrees>40.73549696244299411773681640625</LatitudeDegrees>
              <LongitudeDegrees>-3.84820860810577869415283203125</LongitudeDegrees>
            </Position>
            <AltitudeMeters>901.20001220703125</AltitudeMeters>
            <DistanceMeters>NAN</DistanceMeters>
          </Trackpoint>
          <Trackpoint>
            <Time>2020-03-07T16:24:59.000Z</Time>
            <Position>
              <LatitudeDegrees>40.735442228615283966064453125</LatitudeDegrees>
              <LongitudeDegrees>-3.8482792675495147705078125</LongitudeDegrees>
            </Position>
            <AltitudeMeters>901.20001220703125</AltitudeMeters>
            <DistanceMeters>NAN</DistanceMeters>
          </Trackpoint>
          <Trackpoint>
            <Time>2020-03-07T16:25:00.000Z</Time>
            <Position>
              <LatitudeDegrees>40.7353853993117809295654296875</LatitudeDegrees>
              <LongitudeDegrees>-3.8483478315174579620361328125</LongitudeDegrees>
            </Position>
            <AltitudeMeters>901.20001220703125</AltitudeMeters>
            <DistanceMeters>NAN</DistanceMeters>
          </Trackpoint>
          <Trackpoint>
            <Time>2020-03-07T16:25:01.000Z</Time>
            <Position>
              <LatitudeDegrees>40.735326893627643585205078125</LatitudeDegrees>
              <LongitudeDegrees>-3.848413713276386260986328125</LongitudeDegrees>
            </Position>
            <AltitudeMeters>901.20001220703125</AltitudeMeters>
            <DistanceMeters>NAN</DistanceMeters>
          </Trackpoint>
          <Trackpoint>
            <Time>2020-03-07T16:25:02.000Z</Time>
            <Position>
              <LatitudeDegrees>40.73526662774384021759033203125</LatitudeDegrees>
              <LongitudeDegrees>-3.84847783483564853668212890625</LongitudeDegrees>
            </Position>
            <AltitudeMeters>901.20001220703125</AltitudeMeters>
            <DistanceMeters>NAN</DistanceMeters>
          </Trackpoint>
          <Trackpoint>
            <Time>2020-03-07T16:25:03.000Z</Time>
            <Position>
              <LatitudeDegrees>40.73520476929843425750732421875</LatitudeDegrees>
              <LongitudeDegrees>-3.8485396094620227813720703125</LongitudeDegrees>
            </Position>
            <AltitudeMeters>901.20001220703125</AltitudeMeters>
            <DistanceMeters>NAN</DistanceMeters>
          </Trackpoint>
          <Trackpoint>
            <Time>2020-03-07T16:25:04.000Z</Time>
            <Position>
              <LatitudeDegrees>40.73514140211045742034912109375</LatitudeDegrees>
              <LongitudeDegrees>-3.84859769605100154876708984375</LongitudeDegrees>
            </Position>
            <AltitudeMeters>901.20001220703125</AltitudeMeters>
            <DistanceMeters>NAN</DistanceMeters>
          </Trackpoint>
          <Trackpoint>
            <Time>2020-03-07T16:25:05.000Z</Time>
            <Position>
              <LatitudeDegrees>40.73507719673216342926025390625</LatitudeDegrees>
              <LongitudeDegrees>-3.84865385480225086212158203125</LongitudeDegrees>
            </Position>
            <AltitudeMeters>901.20001220703125</AltitudeMeters>
            <DistanceMeters>NAN</DistanceMeters>
          </Trackpoint>
          <Trackpoint>
            <Time>2020-03-07T16:25:06.000Z</Time>
            <Position>
              <LatitudeDegrees>40.7350125722587108612060546875</LatitudeDegrees>
              <LongitudeDegrees>-3.8487079180777072906494140625</LongitudeDegrees>
            </Position>
            <AltitudeMeters>901.20001220703125</AltitudeMeters>
            <DistanceMeters>NAN</DistanceMeters>
          </Trackpoint>
          <Trackpoint>
            <Time>2020-03-07T16:25:07.000Z</Time>
            <Position>
              <LatitudeDegrees>40.73494627140462398529052734375</LatitudeDegrees>
              <LongitudeDegrees>-3.8487588800489902496337890625</LongitudeDegrees>
            </Position>
            <AltitudeMeters>901.20001220703125</AltitudeMeters>
            <DistanceMeters>NAN</DistanceMeters>
          </Trackpoint>
          <Trackpoint>
            <Time>2020-03-07T16:25:08.000Z</Time>
            <Position>
              <LatitudeDegrees>40.73494627140462398529052734375</LatitudeDegrees>
              <LongitudeDegrees>-3.8487588800489902496337890625</LongitudeDegrees>
            </Position>
            <AltitudeMeters>901.4000244140625</AltitudeMeters>
            <DistanceMeters>NAN</DistanceMeters>
          </Trackpoint>
          <Trackpoint>
            <Time>2020-03-07T16:25:09.000Z</Time>
            <Position>
              <LatitudeDegrees>40.73481014929711818695068359375</LatitudeDegrees>
              <LongitudeDegrees>-3.84884764440357685089111328125</LongitudeDegrees>
            </Position>
            <AltitudeMeters>901.4000244140625</AltitudeMeters>
            <DistanceMeters>NAN</DistanceMeters>
          </Trackpoint>
          <Trackpoint>
            <Time>2020-03-07T16:25:10.000Z</Time>
            <Position>
              <LatitudeDegrees>40.73474024422466754913330078125</LatitudeDegrees>
              <LongitudeDegrees>-3.84888586588203907012939453125</LongitudeDegrees>
            </Position>
            <AltitudeMeters>901.4000244140625</AltitudeMeters>
            <DistanceMeters>NAN</DistanceMeters>
          </Trackpoint>
          <Trackpoint>
            <Time>2020-03-07T16:25:11.000Z</Time>
            <Position>
              <LatitudeDegrees>40.73467075824737548828125</LatitudeDegrees>
              <LongitudeDegrees>-3.84892676956951618194580078125</LongitudeDegrees>
            </Position>
            <AltitudeMeters>901.4000244140625</AltitudeMeters>
            <DistanceMeters>NAN</DistanceMeters>
          </Trackpoint>
          <Trackpoint>
            <Time>2020-03-07T16:25:12.000Z</Time>
            <Position>
              <LatitudeDegrees>40.73460613377392292022705078125</LatitudeDegrees>
              <LongitudeDegrees>-3.84897890500724315643310546875</LongitudeDegrees>
            </Position>
            <AltitudeMeters>901.4000244140625</AltitudeMeters>
            <DistanceMeters>NAN</DistanceMeters>
          </Trackpoint>
          <Trackpoint>
            <Time>2020-03-07T16:25:13.000Z</Time>
            <Position>
              <LatitudeDegrees>40.73454930447041988372802734375</LatitudeDegrees>
              <LongitudeDegrees>-3.849044702947139739990234375</LongitudeDegrees>
            </Position>
            <AltitudeMeters>901.4000244140625</AltitudeMeters>
            <DistanceMeters>NAN</DistanceMeters>
          </Trackpoint>
          <Trackpoint>
            <Time>2020-03-07T16:25:14.000Z</Time>
            <Position>
              <LatitudeDegrees>40.73454930447041988372802734375</LatitudeDegrees>
              <LongitudeDegrees>-3.849044702947139739990234375</LongitudeDegrees>
            </Position>
            <AltitudeMeters>901.4000244140625</AltitudeMeters>
            <DistanceMeters>NAN</DistanceMeters>
          </Trackpoint>
          <Trackpoint>
            <Time>2020-03-07T16:25:15.000Z</Time>
            <Position>
              <LatitudeDegrees>40.73443137109279632568359375</LatitudeDegrees>
              <LongitudeDegrees>-3.84916632436215877532958984375</LongitudeDegrees>
            </Position>
            <AltitudeMeters>901.4000244140625</AltitudeMeters>
            <DistanceMeters>NAN</DistanceMeters>
          </Trackpoint>
          <Trackpoint>
            <Time>2020-03-07T16:25:16.000Z</Time>
            <Position>
              <LatitudeDegrees>40.73435953818261623382568359375</LatitudeDegrees>
              <LongitudeDegrees>-3.84919951669871807098388671875</LongitudeDegrees>
            </Position>
            <AltitudeMeters>901.4000244140625</AltitudeMeters>
            <DistanceMeters>NAN</DistanceMeters>
          </Trackpoint>
          <Trackpoint>
            <Time>2020-03-07T16:25:17.000Z</Time>
            <Position>
              <LatitudeDegrees>40.734282173216342926025390625</LatitudeDegrees>
              <LongitudeDegrees>-3.84921845979988574981689453125</LongitudeDegrees>
            </Position>
            <AltitudeMeters>901.4000244140625</AltitudeMeters>
            <DistanceMeters>NAN</DistanceMeters>
          </Trackpoint>
          <Trackpoint>
            <Time>2020-03-07T16:25:18.000Z</Time>
            <Position>
              <LatitudeDegrees>40.7342038862407207489013671875</LatitudeDegrees>
              <LongitudeDegrees>-3.8492450304329395294189453125</LongitudeDegrees>
            </Position>
            <AltitudeMeters>901.4000244140625</AltitudeMeters>
            <DistanceMeters>NAN</DistanceMeters>
          </Trackpoint>
          <Trackpoint>
            <Time>2020-03-07T16:25:19.000Z</Time>
            <Position>
              <LatitudeDegrees>40.73413071222603321075439453125</LatitudeDegrees>
              <LongitudeDegrees>-3.84929188527166843414306640625</LongitudeDegrees>
            </Position>
            <AltitudeMeters>901.4000244140625</AltitudeMeters>
            <DistanceMeters>NAN</DistanceMeters>
          </Trackpoint>
          <Trackpoint>
            <Time>2020-03-07T16:25:20.000Z</Time>
            <Position>
              <LatitudeDegrees>40.73413071222603321075439453125</LatitudeDegrees>
              <LongitudeDegrees>-3.84929188527166843414306640625</LongitudeDegrees>
            </Position>
            <AltitudeMeters>901.4000244140625</AltitudeMeters>
            <DistanceMeters>NAN</DistanceMeters>
          </Trackpoint>
          <Trackpoint>
            <Time>2020-03-07T16:25:21.000Z</Time>
            <Position>
              <LatitudeDegrees>40.7340013794600963592529296875</LatitudeDegrees>
              <LongitudeDegrees>-3.849416859447956085205078125</LongitudeDegrees>
            </Position>
            <AltitudeMeters>901.4000244140625</AltitudeMeters>
            <DistanceMeters>NAN</DistanceMeters>
          </Trackpoint>
          <Trackpoint>
            <Time>2020-03-07T16:25:22.000Z</Time>
            <Position>
              <LatitudeDegrees>40.73393843136727809906005859375</LatitudeDegrees>
              <LongitudeDegrees>-3.849479891359806060791015625</LongitudeDegrees>
            </Position>
            <AltitudeMeters>901.4000244140625</AltitudeMeters>
            <DistanceMeters>NAN</DistanceMeters>
          </Trackpoint>
          <Trackpoint>
            <Time>2020-03-07T16:25:23.000Z</Time>
            <Position>
              <LatitudeDegrees>40.733873806893825531005859375</LatitudeDegrees>
              <LongitudeDegrees>-3.8495390675961971282958984375</LongitudeDegrees>
            </Position>
            <AltitudeMeters>901.4000244140625</AltitudeMeters>
            <DistanceMeters>NAN</DistanceMeters>
          </Trackpoint>
          <Trackpoint>
            <Time>2020-03-07T16:25:24.000Z</Time>
            <Position>
              <LatitudeDegrees>40.73380750603973865509033203125</LatitudeDegrees>
              <LongitudeDegrees>-3.849594555795192718505859375</LongitudeDegrees>
            </Position>
            <AltitudeMeters>901.4000244140625</AltitudeMeters>
            <DistanceMeters>NAN</DistanceMeters>
          </Trackpoint>
          <Trackpoint>
            <Time>2020-03-07T16:25:25.000Z</Time>
            <Position>
              <LatitudeDegrees>40.733740031719207763671875</LatitudeDegrees>
              <LongitudeDegrees>-3.849648535251617431640625</LongitudeDegrees>
            </Position>
            <AltitudeMeters>901.4000244140625</AltitudeMeters>
            <DistanceMeters>NAN</DistanceMeters>
          </Trackpoint>
          <Trackpoint>
            <Time>2020-03-07T16:25:26.000Z</Time>
            <Position>
              <LatitudeDegrees>40.73367071337997913360595703125</LatitudeDegrees>
              <LongitudeDegrees>-3.84970058687031269073486328125</LongitudeDegrees>
            </Position>
            <AltitudeMeters>901.4000244140625</AltitudeMeters>
            <DistanceMeters>NAN</DistanceMeters>
          </Trackpoint>
          <Trackpoint>
            <Time>2020-03-07T16:25:27.000Z</Time>
            <Position>
              <LatitudeDegrees>40.73360013775527477264404296875</LatitudeDegrees>
              <LongitudeDegrees>-3.84975037537515163421630859375</LongitudeDegrees>
            </Position>
            <AltitudeMeters>901.4000244140625</AltitudeMeters>
            <DistanceMeters>NAN</DistanceMeters>
          </Trackpoint>
          <Trackpoint>
            <Time>2020-03-07T16:25:28.000Z</Time>
            <Position>
              <LatitudeDegrees>40.73352956213057041168212890625</LatitudeDegrees>
              <LongitudeDegrees>-3.84980033151805400848388671875</LongitudeDegrees>
            </Position>
            <AltitudeMeters>901.4000244140625</AltitudeMeters>
            <DistanceMeters>NAN</DistanceMeters>
          </Trackpoint>
          <Trackpoint>
            <Time>2020-03-07T16:25:29.000Z</Time>
            <Position>
              <LatitudeDegrees>40.73345848359167575836181640625</LatitudeDegrees>
              <LongitudeDegrees>-3.849850036203861236572265625</LongitudeDegrees>
            </Position>
            <AltitudeMeters>901.4000244140625</AltitudeMeters>
            <DistanceMeters>NAN</DistanceMeters>
          </Trackpoint>
          <Trackpoint>
            <Time>2020-03-07T16:25:30.000Z</Time>
            <Position>
              <LatitudeDegrees>40.7333868183195590972900390625</LatitudeDegrees>
              <LongitudeDegrees>-3.849898986518383026123046875</LongitudeDegrees>
            </Position>
            <AltitudeMeters>901.20001220703125</AltitudeMeters>
            <DistanceMeters>NAN</DistanceMeters>
          </Trackpoint>
          <Trackpoint>
            <Time>2020-03-07T16:25:31.000Z</Time>
            <Position>
              <LatitudeDegrees>40.7333147339522838592529296875</LatitudeDegrees>
              <LongitudeDegrees>-3.84994785301387310028076171875</LongitudeDegrees>
            </Position>
            <AltitudeMeters>901.20001220703125</AltitudeMeters>
            <DistanceMeters>NAN</DistanceMeters>
          </Trackpoint>
          <Trackpoint>
            <Time>2020-03-07T16:25:32.000Z</Time>
            <Position>
              <LatitudeDegrees>40.73324206285178661346435546875</LatitudeDegrees>
              <LongitudeDegrees>-3.84999579750001430511474609375</LongitudeDegrees>
            </Position>
            <AltitudeMeters>901.20001220703125</AltitudeMeters>
            <DistanceMeters>NAN</DistanceMeters>
          </Trackpoint>
          <Trackpoint>
            <Time>2020-03-07T16:25:33.000Z</Time>
            <Position>
              <LatitudeDegrees>40.73316947557032108306884765625</LatitudeDegrees>
              <LongitudeDegrees>-3.85004558600485324859619140625</LongitudeDegrees>
            </Position>
            <AltitudeMeters>901</AltitudeMeters>
            <DistanceMeters>NAN</DistanceMeters>
          </Trackpoint>
          <Trackpoint>
            <Time>2020-03-07T16:25:34.000Z</Time>
            <Position>
              <LatitudeDegrees>40.7330984808504581451416015625</LatitudeDegrees>
              <LongitudeDegrees>-3.85009855963289737701416015625</LongitudeDegrees>
            </Position>
            <AltitudeMeters>901</AltitudeMeters>
            <DistanceMeters>NAN</DistanceMeters>
          </Trackpoint>
          <Trackpoint>
            <Time>2020-03-07T16:25:35.000Z</Time>
            <Position>
              <LatitudeDegrees>40.73302849195897579193115234375</LatitudeDegrees>
              <LongitudeDegrees>-3.85015505366027355194091796875</LongitudeDegrees>
            </Position>
            <AltitudeMeters>901</AltitudeMeters>
            <DistanceMeters>NAN</DistanceMeters>
          </Trackpoint>
          <Trackpoint>
            <Time>2020-03-07T16:25:36.000Z</Time>
            <Position>
              <LatitudeDegrees>40.732960514724254608154296875</LatitudeDegrees>
              <LongitudeDegrees>-3.85021624155342578887939453125</LongitudeDegrees>
            </Position>
            <AltitudeMeters>901</AltitudeMeters>
            <DistanceMeters>NAN</DistanceMeters>
          </Trackpoint>
          <Trackpoint>
            <Time>2020-03-07T16:25:37.000Z</Time>
            <Position>
              <LatitudeDegrees>40.732893459498882293701171875</LatitudeDegrees>
              <LongitudeDegrees>-3.85028094984591007232666015625</LongitudeDegrees>
            </Position>
            <AltitudeMeters>901</AltitudeMeters>
            <DistanceMeters>NAN</DistanceMeters>
          </Trackpoint>
          <Trackpoint>
            <Time>2020-03-07T16:25:38.000Z</Time>
            <Position>
              <LatitudeDegrees>40.7328282482922077178955078125</LatitudeDegrees>
              <LongitudeDegrees>-3.85034800507128238677978515625</LongitudeDegrees>
            </Position>
            <AltitudeMeters>901</AltitudeMeters>
            <DistanceMeters>NAN</DistanceMeters>
          </Trackpoint>
          <Trackpoint>
            <Time>2020-03-07T16:25:39.000Z</Time>
            <Position>
              <LatitudeDegrees>40.73276479728519916534423828125</LatitudeDegrees>
              <LongitudeDegrees>-3.8504171557724475860595703125</LongitudeDegrees>
            </Position>
            <AltitudeMeters>901</AltitudeMeters>
            <DistanceMeters>NAN</DistanceMeters>
          </Trackpoint>
          <Trackpoint>
            <Time>2020-03-07T16:25:40.000Z</Time>
            <Position>
              <LatitudeDegrees>40.7327028550207614898681640625</LatitudeDegrees>
              <LongitudeDegrees>-3.85048898868262767791748046875</LongitudeDegrees>
            </Position>
            <AltitudeMeters>901</AltitudeMeters>
            <DistanceMeters>NAN</DistanceMeters>
          </Trackpoint>
          <Trackpoint>
            <Time>2020-03-07T16:25:41.000Z</Time>
            <Position>
              <LatitudeDegrees>40.73264275677502155303955078125</LatitudeDegrees>
              <LongitudeDegrees>-3.850564174354076385498046875</LongitudeDegrees>
            </Position>
            <AltitudeMeters>901</AltitudeMeters>
            <DistanceMeters>NAN</DistanceMeters>
          </Trackpoint>
          <Trackpoint>
            <Time>2020-03-07T16:25:42.000Z</Time>
            <Position>
              <LatitudeDegrees>40.7325841672718524932861328125</LatitudeDegrees>
              <LongitudeDegrees>-3.85064086876809597015380859375</LongitudeDegrees>
            </Position>
            <AltitudeMeters>901</AltitudeMeters>
            <DistanceMeters>NAN</DistanceMeters>
          </Trackpoint>
          <Trackpoint>
            <Time>2020-03-07T16:25:43.000Z</Time>
            <Position>
              <LatitudeDegrees>40.73252658359706401824951171875</LatitudeDegrees>
              <LongitudeDegrees>-3.85071940720081329345703125</LongitudeDegrees>
            </Position>
            <AltitudeMeters>901</AltitudeMeters>
            <DistanceMeters>NAN</DistanceMeters>
          </Trackpoint>
          <Trackpoint>
            <Time>2020-03-07T16:25:44.000Z</Time>
            <Position>
              <LatitudeDegrees>40.73246958665549755096435546875</LatitudeDegrees>
              <LongitudeDegrees>-3.85079828090965747833251953125</LongitudeDegrees>
            </Position>
            <AltitudeMeters>901</AltitudeMeters>
            <DistanceMeters>NAN</DistanceMeters>
          </Trackpoint>
          <Trackpoint>
            <Time>2020-03-07T16:25:45.000Z</Time>
            <Position>
              <LatitudeDegrees>40.732412673532962799072265625</LatitudeDegrees>
              <LongitudeDegrees>-3.8508768193423748016357421875</LongitudeDegrees>
            </Position>
            <AltitudeMeters>901</AltitudeMeters>
            <DistanceMeters>NAN</DistanceMeters>
          </Trackpoint>
          <Trackpoint>
            <Time>2020-03-07T16:25:46.000Z</Time>
            <Position>
              <LatitudeDegrees>40.7323561795055866241455078125</LatitudeDegrees>
              <LongitudeDegrees>-3.850955776870250701904296875</LongitudeDegrees>
            </Position>
            <AltitudeMeters>901</AltitudeMeters>
            <DistanceMeters>NAN</DistanceMeters>
          </Trackpoint>
          <Trackpoint>
            <Time>2020-03-07T16:25:47.000Z</Time>
            <Position>
              <LatitudeDegrees>40.73229859583079814910888671875</LatitudeDegrees>
              <LongitudeDegrees>-3.8510347343981266021728515625</LongitudeDegrees>
            </Position>
            <AltitudeMeters>901</AltitudeMeters>
            <DistanceMeters>NAN</DistanceMeters>
          </Trackpoint>
          <Trackpoint>
            <Time>2020-03-07T16:25:48.000Z</Time>
            <Position>
              <LatitudeDegrees>40.7322408445179462432861328125</LatitudeDegrees>
              <LongitudeDegrees>-3.85111369192600250244140625</LongitudeDegrees>
            </Position>
            <AltitudeMeters>901</AltitudeMeters>
            <DistanceMeters>NAN</DistanceMeters>
          </Trackpoint>
          <Trackpoint>
            <Time>2020-03-07T16:25:49.000Z</Time>
            <Position>
              <LatitudeDegrees>40.73218275792896747589111328125</LatitudeDegrees>
              <LongitudeDegrees>-3.85119172744452953338623046875</LongitudeDegrees>
            </Position>
            <AltitudeMeters>901.20001220703125</AltitudeMeters>
            <DistanceMeters>NAN</DistanceMeters>
          </Trackpoint>
          <Trackpoint>
            <Time>2020-03-07T16:25:50.000Z</Time>
            <Position>
              <LatitudeDegrees>40.73212492279708385467529296875</LatitudeDegrees>
              <LongitudeDegrees>-3.85126926004886627197265625</LongitudeDegrees>
            </Position>
            <AltitudeMeters>901.20001220703125</AltitudeMeters>
            <DistanceMeters>NAN</DistanceMeters>
          </Trackpoint>
          <Trackpoint>
            <Time>2020-03-07T16:25:51.000Z</Time>
            <Position>
              <LatitudeDegrees>40.7320675067603588104248046875</LatitudeDegrees>
              <LongitudeDegrees>-3.8513478823006153106689453125</LongitudeDegrees>
            </Position>
            <AltitudeMeters>901.20001220703125</AltitudeMeters>
            <DistanceMeters>NAN</DistanceMeters>
          </Trackpoint>
          <Trackpoint>
            <Time>2020-03-07T16:25:52.000Z</Time>
            <Position>
              <LatitudeDegrees>40.73201067745685577392578125</LatitudeDegrees>
              <LongitudeDegrees>-3.8514273427426815032958984375</LongitudeDegrees>
            </Position>
            <AltitudeMeters>901.20001220703125</AltitudeMeters>
            <DistanceMeters>NAN</DistanceMeters>
          </Trackpoint>
          <Trackpoint>
            <Time>2020-03-07T16:25:53.000Z</Time>
            <Position>
              <LatitudeDegrees>40.73195326142013072967529296875</LatitudeDegrees>
              <LongitudeDegrees>-3.85150705464184284210205078125</LongitudeDegrees>
            </Position>
            <AltitudeMeters>901.20001220703125</AltitudeMeters>
            <DistanceMeters>NAN</DistanceMeters>
          </Trackpoint>
          <Trackpoint>
            <Time>2020-03-07T16:25:54.000Z</Time>
            <Position>
              <LatitudeDegrees>40.7318961806595325469970703125</LatitudeDegrees>
              <LongitudeDegrees>-3.85158710181713104248046875</LongitudeDegrees>
            </Position>
            <AltitudeMeters>901.4000244140625</AltitudeMeters>
            <DistanceMeters>NAN</DistanceMeters>
          </Trackpoint>
          <Trackpoint>
            <Time>2020-03-07T16:25:55.000Z</Time>
            <Position>
              <LatitudeDegrees>40.73183834552764892578125</LatitudeDegrees>
              <LongitudeDegrees>-3.851666562259197235107421875</LongitudeDegrees>
            </Position>
            <AltitudeMeters>901.4000244140625</AltitudeMeters>
            <DistanceMeters>NAN</DistanceMeters>
          </Trackpoint>
          <Trackpoint>
            <Time>2020-03-07T16:25:56.000Z</Time>
            <Position>
              <LatitudeDegrees>40.7317806780338287353515625</LatitudeDegrees>
              <LongitudeDegrees>-3.85174510069191455841064453125</LongitudeDegrees>
            </Position>
            <AltitudeMeters>901.4000244140625</AltitudeMeters>
            <DistanceMeters>NAN</DistanceMeters>
          </Trackpoint>
          <Trackpoint>
            <Time>2020-03-07T16:25:57.000Z</Time>
            <Position>
              <LatitudeDegrees>40.73172359727323055267333984375</LatitudeDegrees>
              <LongitudeDegrees>-3.85182447731494903564453125</LongitudeDegrees>
            </Position>
            <AltitudeMeters>901.4000244140625</AltitudeMeters>
            <DistanceMeters>NAN</DistanceMeters>
          </Trackpoint>
          <Trackpoint>
            <Time>2020-03-07T16:25:58.000Z</Time>
            <Position>
              <LatitudeDegrees>40.73166668415069580078125</LatitudeDegrees>
              <LongitudeDegrees>-3.85190427303314208984375</LongitudeDegrees>
            </Position>
            <AltitudeMeters>901.4000244140625</AltitudeMeters>
            <DistanceMeters>NAN</DistanceMeters>
          </Trackpoint>
          <Trackpoint>
            <Time>2020-03-07T16:25:59.000Z</Time>
            <Position>
              <LatitudeDegrees>40.73160926811397075653076171875</LatitudeDegrees>
              <LongitudeDegrees>-3.85198415257036685943603515625</LongitudeDegrees>
            </Position>
            <AltitudeMeters>901.4000244140625</AltitudeMeters>
            <DistanceMeters>NAN</DistanceMeters>
          </Trackpoint>
          <Trackpoint>
            <Time>2020-03-07T16:26:00.000Z</Time>
            <Position>
              <LatitudeDegrees>40.73160926811397075653076171875</LatitudeDegrees>
              <LongitudeDegrees>-3.85198415257036685943603515625</LongitudeDegrees>
            </Position>
            <AltitudeMeters>901.5999755859375</AltitudeMeters>
            <DistanceMeters>NAN</DistanceMeters>
          </Trackpoint>
          <Trackpoint>
            <Time>2020-03-07T16:26:01.000Z</Time>
            <Position>
              <LatitudeDegrees>40.7315515168011188507080078125</LatitudeDegrees>
              <LongitudeDegrees>-3.8520636968314647674560546875</LongitudeDegrees>
            </Position>
            <AltitudeMeters>901.5999755859375</AltitudeMeters>
            <DistanceMeters>NAN</DistanceMeters>
          </Trackpoint>
          <Trackpoint>
            <Time>2020-03-07T16:26:02.000Z</Time>
            <Position>
              <LatitudeDegrees>40.7314936816692352294921875</LatitudeDegrees>
              <LongitudeDegrees>-3.8521428219974040985107421875</LongitudeDegrees>
            </Position>
            <AltitudeMeters>901.5999755859375</AltitudeMeters>
            <DistanceMeters>NAN</DistanceMeters>
          </Trackpoint>
          <Trackpoint>
            <Time>2020-03-07T16:26:03.000Z</Time>
            <Position>
              <LatitudeDegrees>40.73143626563251018524169921875</LatitudeDegrees>
              <LongitudeDegrees>-3.85222219862043857574462890625</LongitudeDegrees>
            </Position>
            <AltitudeMeters>901.5999755859375</AltitudeMeters>
            <DistanceMeters>NAN</DistanceMeters>
          </Trackpoint>
          <Trackpoint>
            <Time>2020-03-07T16:26:04.000Z</Time>
            <Position>
              <LatitudeDegrees>40.73137742467224597930908203125</LatitudeDegrees>
              <LongitudeDegrees>-3.85230191051959991455078125</LongitudeDegrees>
            </Position>
            <AltitudeMeters>901.5999755859375</AltitudeMeters>
            <DistanceMeters>NAN</DistanceMeters>
          </Trackpoint>
          <Trackpoint>
            <Time>2020-03-07T16:26:05.000Z</Time>
            <Position>
              <LatitudeDegrees>40.7313188351690769195556640625</LatitudeDegrees>
              <LongitudeDegrees>-3.85238179005682468414306640625</LongitudeDegrees>
            </Position>
            <AltitudeMeters>901.5999755859375</AltitudeMeters>
            <DistanceMeters>NAN</DistanceMeters>
          </Trackpoint>
          <Trackpoint>
            <Time>2020-03-07T16:26:06.000Z</Time>
            <Position>
              <LatitudeDegrees>40.7312601618468761444091796875</LatitudeDegrees>
              <LongitudeDegrees>-3.8524616695940494537353515625</LongitudeDegrees>
            </Position>
            <AltitudeMeters>901.5999755859375</AltitudeMeters>
            <DistanceMeters>NAN</DistanceMeters>
          </Trackpoint>
          <Trackpoint>
            <Time>2020-03-07T16:26:07.000Z</Time>
            <Position>
              <LatitudeDegrees>40.731201656162738800048828125</LatitudeDegrees>
              <LongitudeDegrees>-3.85254255495965480804443359375</LongitudeDegrees>
            </Position>
            <AltitudeMeters>901.5999755859375</AltitudeMeters>
            <DistanceMeters>NAN</DistanceMeters>
          </Trackpoint>
          <Trackpoint>
            <Time>2020-03-07T16:26:08.000Z</Time>
            <Position>
              <LatitudeDegrees>40.73114373721182346343994140625</LatitudeDegrees>
              <LongitudeDegrees>-3.852624781429767608642578125</LongitudeDegrees>
            </Position>
            <AltitudeMeters>901.5999755859375</AltitudeMeters>
            <DistanceMeters>NAN</DistanceMeters>
          </Trackpoint>
          <Trackpoint>
            <Time>2020-03-07T16:26:09.000Z</Time>
            <Position>
              <LatitudeDegrees>40.7310848124325275421142578125</LatitudeDegrees>
              <LongitudeDegrees>-3.8527074269950389862060546875</LongitudeDegrees>
            </Position>
            <AltitudeMeters>901.5999755859375</AltitudeMeters>
            <DistanceMeters>NAN</DistanceMeters>
          </Trackpoint>
          <Trackpoint>
            <Time>2020-03-07T16:26:10.000Z</Time>
            <Position>
              <LatitudeDegrees>40.73102538473904132843017578125</LatitudeDegrees>
              <LongitudeDegrees>-3.8527895696461200714111328125</LongitudeDegrees>
            </Position>
            <AltitudeMeters>901.5999755859375</AltitudeMeters>
            <DistanceMeters>NAN</DistanceMeters>
          </Trackpoint>
          <Trackpoint>
            <Time>2020-03-07T16:26:11.000Z</Time>
            <Position>
              <LatitudeDegrees>40.73096570558845996856689453125</LatitudeDegrees>
              <LongitudeDegrees>-3.85287129320204257965087890625</LongitudeDegrees>
            </Position>
            <AltitudeMeters>901.5999755859375</AltitudeMeters>
            <DistanceMeters>NAN</DistanceMeters>
          </Trackpoint>
          <Trackpoint>
            <Time>2020-03-07T16:26:12.000Z</Time>
            <Position>
              <LatitudeDegrees>40.73090636171400547027587890625</LatitudeDegrees>
              <LongitudeDegrees>-3.852952681481838226318359375</LongitudeDegrees>
            </Position>
            <AltitudeMeters>901.5999755859375</AltitudeMeters>
            <DistanceMeters>NAN</DistanceMeters>
          </Trackpoint>
          <Trackpoint>
            <Time>2020-03-07T16:26:13.000Z</Time>
            <Position>
              <LatitudeDegrees>40.7308472692966461181640625</LatitudeDegrees>
              <LongitudeDegrees>-3.85303406976163387298583984375</LongitudeDegrees>
            </Position>
            <AltitudeMeters>901.5999755859375</AltitudeMeters>
            <DistanceMeters>NAN</DistanceMeters>
          </Trackpoint>
          <Trackpoint>
            <Time>2020-03-07T16:26:14.000Z</Time>
            <Position>
              <LatitudeDegrees>40.73078784160315990447998046875</LatitudeDegrees>
              <LongitudeDegrees>-3.85311487130820751190185546875</LongitudeDegrees>
            </Position>
            <AltitudeMeters>901.5999755859375</AltitudeMeters>
            <DistanceMeters>NAN</DistanceMeters>
          </Trackpoint>
          <Trackpoint>
            <Time>2020-03-07T16:26:15.000Z</Time>
            <Position>
              <LatitudeDegrees>40.73066865094006061553955078125</LatitudeDegrees>
              <LongitudeDegrees>-3.85327697731554508209228515625</LongitudeDegrees>
            </Position>
            <AltitudeMeters>901.5999755859375</AltitudeMeters>
            <DistanceMeters>NAN</DistanceMeters>
          </Trackpoint>
          <Trackpoint>
            <Time>2020-03-07T16:26:16.000Z</Time>
            <Position>
              <LatitudeDegrees>40.730610229074954986572265625</LatitudeDegrees>
              <LongitudeDegrees>-3.8533595390617847442626953125</LongitudeDegrees>
            </Position>
            <AltitudeMeters>901.5999755859375</AltitudeMeters>
            <DistanceMeters>NAN</DistanceMeters>
          </Trackpoint>
          <Trackpoint>
            <Time>2020-03-07T16:26:17.000Z</Time>
            <Position>
              <LatitudeDegrees>40.73055155575275421142578125</LatitudeDegrees>
              <LongitudeDegrees>-3.85344184935092926025390625</LongitudeDegrees>
            </Position>
            <AltitudeMeters>901.5999755859375</AltitudeMeters>
            <DistanceMeters>NAN</DistanceMeters>
          </Trackpoint>
          <Trackpoint>
            <Time>2020-03-07T16:26:18.000Z</Time>
            <Position>
              <LatitudeDegrees>40.7304927147924900054931640625</LatitudeDegrees>
              <LongitudeDegrees>-3.8535238243639469146728515625</LongitudeDegrees>
            </Position>
            <AltitudeMeters>901.4000244140625</AltitudeMeters>
            <DistanceMeters>NAN</DistanceMeters>
          </Trackpoint>
          <Trackpoint>
            <Time>2020-03-07T16:26:19.000Z</Time>
            <Position>
              <LatitudeDegrees>40.73043278418481349945068359375</LatitudeDegrees>
              <LongitudeDegrees>-3.8536042906343936920166015625</LongitudeDegrees>
            </Position>
            <AltitudeMeters>901.4000244140625</AltitudeMeters>
            <DistanceMeters>NAN</DistanceMeters>
          </Trackpoint>
          <Trackpoint>
            <Time>2020-03-07T16:26:20.000Z</Time>
            <Position>
              <LatitudeDegrees>40.73043278418481349945068359375</LatitudeDegrees>
              <LongitudeDegrees>-3.8536042906343936920166015625</LongitudeDegrees>
            </Position>
            <AltitudeMeters>901.4000244140625</AltitudeMeters>
            <DistanceMeters>NAN</DistanceMeters>
          </Trackpoint>
          <Trackpoint>
            <Time>2020-03-07T16:26:21.000Z</Time>
            <Position>
              <LatitudeDegrees>40.730313174426555633544921875</LatitudeDegrees>
              <LongitudeDegrees>-3.85376597754657268524169921875</LongitudeDegrees>
            </Position>
            <AltitudeMeters>901.4000244140625</AltitudeMeters>
            <DistanceMeters>NAN</DistanceMeters>
          </Trackpoint>
          <Trackpoint>
            <Time>2020-03-07T16:26:22.000Z</Time>
            <Position>
              <LatitudeDegrees>40.7302539981901645660400390625</LatitudeDegrees>
              <LongitudeDegrees>-3.85384744964540004730224609375</LongitudeDegrees>
            </Position>
            <AltitudeMeters>901.4000244140625</AltitudeMeters>
            <DistanceMeters>NAN</DistanceMeters>
          </Trackpoint>
          <Trackpoint>
            <Time>2020-03-07T16:26:23.000Z</Time>
            <Position>
              <LatitudeDegrees>40.73019482195377349853515625</LatitudeDegrees>
              <LongitudeDegrees>-3.85392908938229084014892578125</LongitudeDegrees>
            </Position>
            <AltitudeMeters>901.4000244140625</AltitudeMeters>
            <DistanceMeters>NAN</DistanceMeters>
          </Trackpoint>
          <Trackpoint>
            <Time>2020-03-07T16:26:24.000Z</Time>
            <Position>
              <LatitudeDegrees>40.730135142803192138671875</LatitudeDegrees>
              <LongitudeDegrees>-3.854010142385959625244140625</LongitudeDegrees>
            </Position>
            <AltitudeMeters>901.4000244140625</AltitudeMeters>
            <DistanceMeters>NAN</DistanceMeters>
          </Trackpoint>
          <Trackpoint>
            <Time>2020-03-07T16:26:25.000Z</Time>
            <Position>
              <LatitudeDegrees>40.7300756312906742095947265625</LatitudeDegrees>
              <LongitudeDegrees>-3.8540911115705966949462890625</LongitudeDegrees>
            </Position>
            <AltitudeMeters>901.20001220703125</AltitudeMeters>
            <DistanceMeters>NAN</DistanceMeters>
          </Trackpoint>
          <Trackpoint>
            <Time>2020-03-07T16:26:26.000Z</Time>
            <Position>
              <LatitudeDegrees>40.7300756312906742095947265625</LatitudeDegrees>
              <LongitudeDegrees>-3.8540911115705966949462890625</LongitudeDegrees>
            </Position>
            <AltitudeMeters>901.20001220703125</AltitudeMeters>
            <DistanceMeters>NAN</DistanceMeters>
          </Trackpoint>
          <Trackpoint>
            <Time>2020-03-07T16:26:27.000Z</Time>
            <Position>
              <LatitudeDegrees>40.72995568625628948211669921875</LatitudeDegrees>
              <LongitudeDegrees>-3.85425296612083911895751953125</LongitudeDegrees>
            </Position>
            <AltitudeMeters>901.20001220703125</AltitudeMeters>
            <DistanceMeters>NAN</DistanceMeters>
          </Trackpoint>
          <Trackpoint>
            <Time>2020-03-07T16:26:28.000Z</Time>
            <Position>
              <LatitudeDegrees>40.72989651001989841461181640625</LatitudeDegrees>
              <LongitudeDegrees>-3.85433544404804706573486328125</LongitudeDegrees>
            </Position>
            <AltitudeMeters>901.20001220703125</AltitudeMeters>
            <DistanceMeters>NAN</DistanceMeters>
          </Trackpoint>
          <Trackpoint>
            <Time>2020-03-07T16:26:29.000Z</Time>
            <Position>
              <LatitudeDegrees>40.7298375852406024932861328125</LatitudeDegrees>
              <LongitudeDegrees>-3.8544188439846038818359375</LongitudeDegrees>
            </Position>
            <AltitudeMeters>901.20001220703125</AltitudeMeters>
            <DistanceMeters>NAN</DistanceMeters>
          </Trackpoint>
          <Trackpoint>
            <Time>2020-03-07T16:26:30.000Z</Time>
            <Position>
              <LatitudeDegrees>40.72977882809937000274658203125</LatitudeDegrees>
              <LongitudeDegrees>-3.8545024953782558441162109375</LongitudeDegrees>
            </Position>
            <AltitudeMeters>901.20001220703125</AltitudeMeters>
            <DistanceMeters>NAN</DistanceMeters>
          </Trackpoint>
          <Trackpoint>
            <Time>2020-03-07T16:26:31.000Z</Time>
            <Position>
              <LatitudeDegrees>40.72971998713910579681396484375</LatitudeDegrees>
              <LongitudeDegrees>-3.8545849733054637908935546875</LongitudeDegrees>
            </Position>
            <AltitudeMeters>901.20001220703125</AltitudeMeters>
            <DistanceMeters>NAN</DistanceMeters>
          </Trackpoint>
          <Trackpoint>
            <Time>2020-03-07T16:26:32.000Z</Time>
            <Position>
              <LatitudeDegrees>40.72971998713910579681396484375</LatitudeDegrees>
              <LongitudeDegrees>-3.8545849733054637908935546875</LongitudeDegrees>
            </Position>
            <AltitudeMeters>901.20001220703125</AltitudeMeters>
            <DistanceMeters>NAN</DistanceMeters>
          </Trackpoint>
          <Trackpoint>
            <Time>2020-03-07T16:26:33.000Z</Time>
            <Position>
              <LatitudeDegrees>40.72960297577083110809326171875</LatitudeDegrees>
              <LongitudeDegrees>-3.85475135408341884613037109375</LongitudeDegrees>
            </Position>
            <AltitudeMeters>901</AltitudeMeters>
            <DistanceMeters>NAN</DistanceMeters>
          </Trackpoint>
          <Trackpoint>
            <Time>2020-03-07T16:26:34.000Z</Time>
            <Position>
              <LatitudeDegrees>40.7295442186295986175537109375</LatitudeDegrees>
              <LongitudeDegrees>-3.85483383201062679290771484375</LongitudeDegrees>
            </Position>
            <AltitudeMeters>901</AltitudeMeters>
            <DistanceMeters>NAN</DistanceMeters>
          </Trackpoint>
          <Trackpoint>
            <Time>2020-03-07T16:26:35.000Z</Time>
            <Position>
              <LatitudeDegrees>40.72948596440255641937255859375</LatitudeDegrees>
              <LongitudeDegrees>-3.8549168966710567474365234375</LongitudeDegrees>
            </Position>
            <AltitudeMeters>901</AltitudeMeters>
            <DistanceMeters>NAN</DistanceMeters>
          </Trackpoint>
          <Trackpoint>
            <Time>2020-03-07T16:26:36.000Z</Time>
            <Position>
              <LatitudeDegrees>40.72942779399454593658447265625</LatitudeDegrees>
              <LongitudeDegrees>-3.85500155389308929443359375</LongitudeDegrees>
            </Position>
            <AltitudeMeters>901</AltitudeMeters>
            <DistanceMeters>NAN</DistanceMeters>
          </Trackpoint>
          <Trackpoint>
            <Time>2020-03-07T16:26:37.000Z</Time>
            <Position>
              <LatitudeDegrees>40.72937247343361377716064453125</LatitudeDegrees>
              <LongitudeDegrees>-3.85508847422897815704345703125</LongitudeDegrees>
            </Position>
            <AltitudeMeters>901</AltitudeMeters>
            <DistanceMeters>NAN</DistanceMeters>
          </Trackpoint>
          <Trackpoint>
            <Time>2020-03-07T16:26:38.000Z</Time>
            <Position>
              <LatitudeDegrees>40.72931832633912563323974609375</LatitudeDegrees>
              <LongitudeDegrees>-3.85517715476453304290771484375</LongitudeDegrees>
            </Position>
            <AltitudeMeters>901</AltitudeMeters>
            <DistanceMeters>NAN</DistanceMeters>
          </Trackpoint>
          <Trackpoint>
            <Time>2020-03-07T16:26:39.000Z</Time>
            <Position>
              <LatitudeDegrees>40.7292666099965572357177734375</LatitudeDegrees>
              <LongitudeDegrees>-3.8552675954997539520263671875</LongitudeDegrees>
            </Position>
            <AltitudeMeters>901</AltitudeMeters>
            <DistanceMeters>NAN</DistanceMeters>
          </Trackpoint>
          <Trackpoint>
            <Time>2020-03-07T16:26:40.000Z</Time>
            <Position>
              <LatitudeDegrees>40.729216821491718292236328125</LatitudeDegrees>
              <LongitudeDegrees>-3.8553597964346408843994140625</LongitudeDegrees>
            </Position>
            <AltitudeMeters>901</AltitudeMeters>
            <DistanceMeters>NAN</DistanceMeters>
          </Trackpoint>
          <Trackpoint>
            <Time>2020-03-07T16:26:41.000Z</Time>
            <Position>
              <LatitudeDegrees>40.7291708886623382568359375</LatitudeDegrees>
              <LongitudeDegrees>-3.85545543394982814788818359375</LongitudeDegrees>
            </Position>
            <AltitudeMeters>901</AltitudeMeters>
            <DistanceMeters>NAN</DistanceMeters>
          </Trackpoint>
          <Trackpoint>
            <Time>2020-03-07T16:26:42.000Z</Time>
            <Position>
              <LatitudeDegrees>40.72912721894681453704833984375</LatitudeDegrees>
              <LongitudeDegrees>-3.855553083121776580810546875</LongitudeDegrees>
            </Position>
            <AltitudeMeters>901</AltitudeMeters>
            <DistanceMeters>NAN</DistanceMeters>
          </Trackpoint>
          <Trackpoint>
            <Time>2020-03-07T16:26:43.000Z</Time>
            <Position>
              <LatitudeDegrees>40.7290865667164325714111328125</LatitudeDegrees>
              <LongitudeDegrees>-3.8556538335978984832763671875</LongitudeDegrees>
            </Position>
            <AltitudeMeters>901</AltitudeMeters>
            <DistanceMeters>NAN</DistanceMeters>
          </Trackpoint>
          <Trackpoint>
            <Time>2020-03-07T16:26:44.000Z</Time>
            <Position>
              <LatitudeDegrees>40.7290865667164325714111328125</LatitudeDegrees>
              <LongitudeDegrees>-3.8556538335978984832763671875</LongitudeDegrees>
            </Position>
            <AltitudeMeters>901</AltitudeMeters>
            <DistanceMeters>NAN</DistanceMeters>
          </Trackpoint>
          <Trackpoint>
            <Time>2020-03-07T16:26:45.000Z</Time>
            <Position>
              <LatitudeDegrees>40.729013979434967041015625</LatitudeDegrees>
              <LongitudeDegrees>-3.85586229152977466583251953125</LongitudeDegrees>
            </Position>
            <AltitudeMeters>901</AltitudeMeters>
            <DistanceMeters>NAN</DistanceMeters>
          </Trackpoint>
          <Trackpoint>
            <Time>2020-03-07T16:26:46.000Z</Time>
            <Position>
              <LatitudeDegrees>40.72898103855550289154052734375</LatitudeDegrees>
              <LongitudeDegrees>-3.85596823878586292266845703125</LongitudeDegrees>
            </Position>
            <AltitudeMeters>901</AltitudeMeters>
            <DistanceMeters>NAN</DistanceMeters>
          </Trackpoint>
          <Trackpoint>
            <Time>2020-03-07T16:26:47.000Z</Time>
            <Position>
              <LatitudeDegrees>40.7289504446089267730712890625</LatitudeDegrees>
              <LongitudeDegrees>-3.85607519187033176422119140625</LongitudeDegrees>
            </Position>
            <AltitudeMeters>901</AltitudeMeters>
            <DistanceMeters>NAN</DistanceMeters>
          </Trackpoint>
          <Trackpoint>
            <Time>2020-03-07T16:26:48.000Z</Time>
            <Position>
              <LatitudeDegrees>40.72892236523330211639404296875</LatitudeDegrees>
              <LongitudeDegrees>-3.85618298314511775970458984375</LongitudeDegrees>
            </Position>
            <AltitudeMeters>901</AltitudeMeters>
            <DistanceMeters>NAN</DistanceMeters>
          </Trackpoint>
          <Trackpoint>
            <Time>2020-03-07T16:26:49.000Z</Time>
            <Position>
              <LatitudeDegrees>40.7288961298763751983642578125</LatitudeDegrees>
              <LongitudeDegrees>-3.8562911935150623321533203125</LongitudeDegrees>
            </Position>
            <AltitudeMeters>901</AltitudeMeters>
            <DistanceMeters>NAN</DistanceMeters>
          </Trackpoint>
          <Trackpoint>
            <Time>2020-03-07T16:26:50.000Z</Time>
            <Position>
              <LatitudeDegrees>40.7288961298763751983642578125</LatitudeDegrees>
              <LongitudeDegrees>-3.8562911935150623321533203125</LongitudeDegrees>
            </Position>
            <AltitudeMeters>901</AltitudeMeters>
            <DistanceMeters>NAN</DistanceMeters>
          </Trackpoint>
          <Trackpoint>
            <Time>2020-03-07T16:26:51.000Z</Time>
            <Position>
              <LatitudeDegrees>40.72884592227637767791748046875</LatitudeDegrees>
              <LongitudeDegrees>-3.85650694370269775390625</LongitudeDegrees>
            </Position>
            <AltitudeMeters>901</AltitudeMeters>
            <DistanceMeters>NAN</DistanceMeters>
          </Trackpoint>
          <Trackpoint>
            <Time>2020-03-07T16:26:52.000Z</Time>
            <Position>
              <LatitudeDegrees>40.72882153093814849853515625</LatitudeDegrees>
              <LongitudeDegrees>-3.8566137291491031646728515625</LongitudeDegrees>
            </Position>
            <AltitudeMeters>901</AltitudeMeters>
            <DistanceMeters>NAN</DistanceMeters>
          </Trackpoint>
          <Trackpoint>
            <Time>2020-03-07T16:26:53.000Z</Time>
            <Position>
              <LatitudeDegrees>40.72879680432379245758056640625</LatitudeDegrees>
              <LongitudeDegrees>-3.85671942494809627532958984375</LongitudeDegrees>
            </Position>
            <AltitudeMeters>900.79998779296875</AltitudeMeters>
            <DistanceMeters>NAN</DistanceMeters>
          </Trackpoint>
          <Trackpoint>
            <Time>2020-03-07T16:26:54.000Z</Time>
            <Position>
              <LatitudeDegrees>40.7287727482616901397705078125</LatitudeDegrees>
              <LongitudeDegrees>-3.85682419873774051666259765625</LongitudeDegrees>
            </Position>
            <AltitudeMeters>900.79998779296875</AltitudeMeters>
            <DistanceMeters>NAN</DistanceMeters>
          </Trackpoint>
          <Trackpoint>
            <Time>2020-03-07T16:26:55.000Z</Time>
            <Position>
              <LatitudeDegrees>40.7287492789328098297119140625</LatitudeDegrees>
              <LongitudeDegrees>-3.85692763142287731170654296875</LongitudeDegrees>
            </Position>
            <AltitudeMeters>900.79998779296875</AltitudeMeters>
            <DistanceMeters>NAN</DistanceMeters>
          </Trackpoint>
          <Trackpoint>
            <Time>2020-03-07T16:26:56.000Z</Time>
            <Position>
              <LatitudeDegrees>40.7287261448800563812255859375</LatitudeDegrees>
              <LongitudeDegrees>-3.85703139938414096832275390625</LongitudeDegrees>
            </Position>
            <AltitudeMeters>901</AltitudeMeters>
            <DistanceMeters>NAN</DistanceMeters>
          </Trackpoint>
          <Trackpoint>
            <Time>2020-03-07T16:26:57.000Z</Time>
            <Position>
              <LatitudeDegrees>40.72870309464633464813232421875</LatitudeDegrees>
              <LongitudeDegrees>-3.85713432915508747100830078125</LongitudeDegrees>
            </Position>
            <AltitudeMeters>901</AltitudeMeters>
            <DistanceMeters>NAN</DistanceMeters>
          </Trackpoint>
          <Trackpoint>
            <Time>2020-03-07T16:26:58.000Z</Time>
            <Position>
              <LatitudeDegrees>40.728680379688739776611328125</LatitudeDegrees>
              <LongitudeDegrees>-3.85723650455474853515625</LongitudeDegrees>
            </Position>
            <AltitudeMeters>901</AltitudeMeters>
            <DistanceMeters>NAN</DistanceMeters>
          </Trackpoint>
          <Trackpoint>
            <Time>2020-03-07T16:26:59.000Z</Time>
            <Position>
              <LatitudeDegrees>40.72865800000727176666259765625</LatitudeDegrees>
              <LongitudeDegrees>-3.85733884759247303009033203125</LongitudeDegrees>
            </Position>
            <AltitudeMeters>901</AltitudeMeters>
            <DistanceMeters>NAN</DistanceMeters>
          </Trackpoint>
          <Trackpoint>
            <Time>2020-03-07T16:27:00.000Z</Time>
            <Position>
              <LatitudeDegrees>40.72863536886870861053466796875</LatitudeDegrees>
              <LongitudeDegrees>-3.8574408553540706634521484375</LongitudeDegrees>
            </Position>
            <AltitudeMeters>901</AltitudeMeters>
            <DistanceMeters>NAN</DistanceMeters>
          </Trackpoint>
          <Trackpoint>
            <Time>2020-03-07T16:27:01.000Z</Time>
            <Position>
              <LatitudeDegrees>40.728612653911113739013671875</LatitudeDegrees>
              <LongitudeDegrees>-3.85754219256341457366943359375</LongitudeDegrees>
            </Position>
            <AltitudeMeters>901</AltitudeMeters>
            <DistanceMeters>NAN</DistanceMeters>
          </Trackpoint>
          <Trackpoint>
            <Time>2020-03-07T16:27:02.000Z</Time>
            <Position>
              <LatitudeDegrees>40.728589184582233428955078125</LatitudeDegrees>
              <LongitudeDegrees>-3.85764218866825103759765625</LongitudeDegrees>
            </Position>
            <AltitudeMeters>901.20001220703125</AltitudeMeters>
            <DistanceMeters>NAN</DistanceMeters>
          </Trackpoint>
          <Trackpoint>
            <Time>2020-03-07T16:27:03.000Z</Time>
            <Position>
              <LatitudeDegrees>40.72856613434851169586181640625</LatitudeDegrees>
              <LongitudeDegrees>-3.85774218477308750152587890625</LongitudeDegrees>
            </Position>
            <AltitudeMeters>901.20001220703125</AltitudeMeters>
            <DistanceMeters>NAN</DistanceMeters>
          </Trackpoint>
          <Trackpoint>
            <Time>2020-03-07T16:27:04.000Z</Time>
            <Position>
              <LatitudeDegrees>40.72854392230510711669921875</LatitudeDegrees>
              <LongitudeDegrees>-3.85784243233501911163330078125</LongitudeDegrees>
            </Position>
            <AltitudeMeters>901.4000244140625</AltitudeMeters>
            <DistanceMeters>NAN</DistanceMeters>
          </Trackpoint>
          <Trackpoint>
            <Time>2020-03-07T16:27:05.000Z</Time>
            <Position>
              <LatitudeDegrees>40.728523470461368560791015625</LatitudeDegrees>
              <LongitudeDegrees>-3.8579434342682361602783203125</LongitudeDegrees>
            </Position>
            <AltitudeMeters>901.4000244140625</AltitudeMeters>
            <DistanceMeters>NAN</DistanceMeters>
          </Trackpoint>
          <Trackpoint>
            <Time>2020-03-07T16:27:06.000Z</Time>
            <Position>
              <LatitudeDegrees>40.7285025157034397125244140625</LatitudeDegrees>
              <LongitudeDegrees>-3.85804460383951663970947265625</LongitudeDegrees>
            </Position>
            <AltitudeMeters>901.79998779296875</AltitudeMeters>
            <DistanceMeters>NAN</DistanceMeters>
          </Trackpoint>
          <Trackpoint>
            <Time>2020-03-07T16:27:07.000Z</Time>
            <Position>
              <LatitudeDegrees>40.72847963310778141021728515625</LatitudeDegrees>
              <LongitudeDegrees>-3.858144097030162811279296875</LongitudeDegrees>
            </Position>
            <AltitudeMeters>901.79998779296875</AltitudeMeters>
            <DistanceMeters>NAN</DistanceMeters>
          </Trackpoint>
          <Trackpoint>
            <Time>2020-03-07T16:27:08.000Z</Time>
            <Position>
              <LatitudeDegrees>40.72845549322664737701416015625</LatitudeDegrees>
              <LongitudeDegrees>-3.85824224911630153656005859375</LongitudeDegrees>
            </Position>
            <AltitudeMeters>902</AltitudeMeters>
            <DistanceMeters>NAN</DistanceMeters>
          </Trackpoint>
          <Trackpoint>
            <Time>2020-03-07T16:27:09.000Z</Time>
            <Position>
              <LatitudeDegrees>40.7284304313361644744873046875</LatitudeDegrees>
              <LongitudeDegrees>-3.8583390600979328155517578125</LongitudeDegrees>
            </Position>
            <AltitudeMeters>902.20001220703125</AltitudeMeters>
            <DistanceMeters>NAN</DistanceMeters>
          </Trackpoint>
          <Trackpoint>
            <Time>2020-03-07T16:27:10.000Z</Time>
            <Position>
              <LatitudeDegrees>40.7284036092460155487060546875</LatitudeDegrees>
              <LongitudeDegrees>-3.85843419469892978668212890625</LongitudeDegrees>
            </Position>
            <AltitudeMeters>902.4000244140625</AltitudeMeters>
            <DistanceMeters>NAN</DistanceMeters>
          </Trackpoint>
          <Trackpoint>
            <Time>2020-03-07T16:27:11.000Z</Time>
            <Position>
              <LatitudeDegrees>40.72837603278458118438720703125</LatitudeDegrees>
              <LongitudeDegrees>-3.85852689854800701141357421875</LongitudeDegrees>
            </Position>
            <AltitudeMeters>902.4000244140625</AltitudeMeters>
            <DistanceMeters>NAN</DistanceMeters>
          </Trackpoint>
          <Trackpoint>
            <Time>2020-03-07T16:27:12.000Z</Time>
            <Position>
              <LatitudeDegrees>40.728348791599273681640625</LatitudeDegrees>
              <LongitudeDegrees>-3.858615495264530181884765625</LongitudeDegrees>
            </Position>
            <AltitudeMeters>902.5999755859375</AltitudeMeters>
            <DistanceMeters>NAN</DistanceMeters>
          </Trackpoint>
          <Trackpoint>
            <Time>2020-03-07T16:27:13.000Z</Time>
            <Position>
              <LatitudeDegrees>40.72831987403333187103271484375</LatitudeDegrees>
              <LongitudeDegrees>-3.858699984848499298095703125</LongitudeDegrees>
            </Position>
            <AltitudeMeters>902.5999755859375</AltitudeMeters>
            <DistanceMeters>NAN</DistanceMeters>
          </Trackpoint>
          <Trackpoint>
            <Time>2020-03-07T16:27:14.000Z</Time>
            <Position>
              <LatitudeDegrees>40.72828835807740688323974609375</LatitudeDegrees>
              <LongitudeDegrees>-3.85878154076635837554931640625</LongitudeDegrees>
            </Position>
            <AltitudeMeters>902.79998779296875</AltitudeMeters>
            <DistanceMeters>NAN</DistanceMeters>
          </Trackpoint>
          <Trackpoint>
            <Time>2020-03-07T16:27:15.000Z</Time>
            <Position>
              <LatitudeDegrees>40.72825415991246700286865234375</LatitudeDegrees>
              <LongitudeDegrees>-3.85885831899940967559814453125</LongitudeDegrees>
            </Position>
            <AltitudeMeters>902.79998779296875</AltitudeMeters>
            <DistanceMeters>NAN</DistanceMeters>
          </Trackpoint>
          <Trackpoint>
            <Time>2020-03-07T16:27:16.000Z</Time>
            <Position>
              <LatitudeDegrees>40.728217698633670806884765625</LatitudeDegrees>
              <LongitudeDegrees>-3.85893023572862148284912109375</LongitudeDegrees>
            </Position>
            <AltitudeMeters>903</AltitudeMeters>
            <DistanceMeters>NAN</DistanceMeters>
          </Trackpoint>
          <Trackpoint>
            <Time>2020-03-07T16:27:17.000Z</Time>
            <Position>
              <LatitudeDegrees>40.72817872278392314910888671875</LatitudeDegrees>
              <LongitudeDegrees>-3.85900047607719898223876953125</LongitudeDegrees>
            </Position>
            <AltitudeMeters>903</AltitudeMeters>
            <DistanceMeters>NAN</DistanceMeters>
          </Trackpoint>
          <Trackpoint>
            <Time>2020-03-07T16:27:18.000Z</Time>
            <Position>
              <LatitudeDegrees>40.72814050130546092987060546875</LatitudeDegrees>
              <LongitudeDegrees>-3.859069459140300750732421875</LongitudeDegrees>
            </Position>
            <AltitudeMeters>903.20001220703125</AltitudeMeters>
            <DistanceMeters>NAN</DistanceMeters>
          </Trackpoint>
          <Trackpoint>
            <Time>2020-03-07T16:27:19.000Z</Time>
            <Position>
              <LatitudeDegrees>40.72810010053217411041259765625</LatitudeDegrees>
              <LongitudeDegrees>-3.85913726873695850372314453125</LongitudeDegrees>
            </Position>
            <AltitudeMeters>903.4000244140625</AltitudeMeters>
            <DistanceMeters>NAN</DistanceMeters>
          </Trackpoint>
          <Trackpoint>
            <Time>2020-03-07T16:27:20.000Z</Time>
            <Position>
              <LatitudeDegrees>40.7280579395592212677001953125</LatitudeDegrees>
              <LongitudeDegrees>-3.85920365341007709503173828125</LongitudeDegrees>
            </Position>
            <AltitudeMeters>903.5999755859375</AltitudeMeters>
            <DistanceMeters>NAN</DistanceMeters>
          </Trackpoint>
          <Trackpoint>
            <Time>2020-03-07T16:27:21.000Z</Time>
            <Position>
              <LatitudeDegrees>40.728016532957553863525390625</LatitudeDegrees>
              <LongitudeDegrees>-3.85927028954029083251953125</LongitudeDegrees>
            </Position>
            <AltitudeMeters>903.79998779296875</AltitudeMeters>
            <DistanceMeters>NAN</DistanceMeters>
          </Trackpoint>
          <Trackpoint>
            <Time>2020-03-07T16:27:22.000Z</Time>
            <Position>
              <LatitudeDegrees>40.7279768027365207672119140625</LatitudeDegrees>
              <LongitudeDegrees>-3.8593365065753459930419921875</LongitudeDegrees>
            </Position>
            <AltitudeMeters>904</AltitudeMeters>
            <DistanceMeters>NAN</DistanceMeters>
          </Trackpoint>
          <Trackpoint>
            <Time>2020-03-07T16:27:23.000Z</Time>
            <Position>
              <LatitudeDegrees>40.72793631814420223236083984375</LatitudeDegrees>
              <LongitudeDegrees>-3.85940062813460826873779296875</LongitudeDegrees>
            </Position>
            <AltitudeMeters>904</AltitudeMeters>
            <DistanceMeters>NAN</DistanceMeters>
          </Trackpoint>
          <Trackpoint>
            <Time>2020-03-07T16:27:24.000Z</Time>
            <Position>
              <LatitudeDegrees>40.7278968393802642822265625</LatitudeDegrees>
              <LongitudeDegrees>-3.85946114547550678253173828125</LongitudeDegrees>
            </Position>
            <AltitudeMeters>904.20001220703125</AltitudeMeters>
            <DistanceMeters>NAN</DistanceMeters>
          </Trackpoint>
          <Trackpoint>
            <Time>2020-03-07T16:27:25.000Z</Time>
            <Position>
              <LatitudeDegrees>40.72785794734954833984375</LatitudeDegrees>
              <LongitudeDegrees>-3.85951948352158069610595703125</LongitudeDegrees>
            </Position>
            <AltitudeMeters>904.4000244140625</AltitudeMeters>
            <DistanceMeters>NAN</DistanceMeters>
          </Trackpoint>
          <Trackpoint>
            <Time>2020-03-07T16:27:26.000Z</Time>
            <Position>
              <LatitudeDegrees>40.7278215698897838592529296875</LatitudeDegrees>
              <LongitudeDegrees>-3.85957681573927402496337890625</LongitudeDegrees>
            </Position>
            <AltitudeMeters>904.4000244140625</AltitudeMeters>
            <DistanceMeters>NAN</DistanceMeters>
          </Trackpoint>
          <Trackpoint>
            <Time>2020-03-07T16:27:27.000Z</Time>
            <Position>
              <LatitudeDegrees>40.72778611443936824798583984375</LatitudeDegrees>
              <LongitudeDegrees>-3.85963314212858676910400390625</LongitudeDegrees>
            </Position>
            <AltitudeMeters>904.5999755859375</AltitudeMeters>
            <DistanceMeters>NAN</DistanceMeters>
          </Trackpoint>
          <Trackpoint>
            <Time>2020-03-07T16:27:28.000Z</Time>
            <Position>
              <LatitudeDegrees>40.72775107808411121368408203125</LatitudeDegrees>
              <LongitudeDegrees>-3.859689049422740936279296875</LongitudeDegrees>
            </Position>
            <AltitudeMeters>904.5999755859375</AltitudeMeters>
            <DistanceMeters>NAN</DistanceMeters>
          </Trackpoint>
          <Trackpoint>
            <Time>2020-03-07T16:27:29.000Z</Time>
            <Position>
              <LatitudeDegrees>40.7277169637382030487060546875</LatitudeDegrees>
              <LongitudeDegrees>-3.85974311269819736480712890625</LongitudeDegrees>
            </Position>
            <AltitudeMeters>904.5999755859375</AltitudeMeters>
            <DistanceMeters>NAN</DistanceMeters>
          </Trackpoint>
          <Trackpoint>
            <Time>2020-03-07T16:27:30.000Z</Time>
            <Position>
              <LatitudeDegrees>40.7276800833642482757568359375</LatitudeDegrees>
              <LongitudeDegrees>-3.859799019992351531982421875</LongitudeDegrees>
            </Position>
            <AltitudeMeters>904.5999755859375</AltitudeMeters>
            <DistanceMeters>NAN</DistanceMeters>
          </Trackpoint>
          <Trackpoint>
            <Time>2020-03-07T16:27:31.000Z</Time>
            <Position>
              <LatitudeDegrees>40.72764278389513492584228515625</LatitudeDegrees>
              <LongitudeDegrees>-3.85985341854393482208251953125</LongitudeDegrees>
            </Position>
            <AltitudeMeters>904.5999755859375</AltitudeMeters>
            <DistanceMeters>NAN</DistanceMeters>
          </Trackpoint>
          <Trackpoint>
            <Time>2020-03-07T16:27:32.000Z</Time>
            <Position>
              <LatitudeDegrees>40.72760456241667270660400390625</LatitudeDegrees>
              <LongitudeDegrees>-3.85990873910486698150634765625</LongitudeDegrees>
            </Position>
            <AltitudeMeters>904.79998779296875</AltitudeMeters>
            <DistanceMeters>NAN</DistanceMeters>
          </Trackpoint>
          <Trackpoint>
            <Time>2020-03-07T16:27:33.000Z</Time>
            <Position>
              <LatitudeDegrees>40.72756550274789333343505859375</LatitudeDegrees>
              <LongitudeDegrees>-3.85996556840837001800537109375</LongitudeDegrees>
            </Position>
            <AltitudeMeters>904.79998779296875</AltitudeMeters>
            <DistanceMeters>NAN</DistanceMeters>
          </Trackpoint>
          <Trackpoint>
            <Time>2020-03-07T16:27:34.000Z</Time>
            <Position>
              <LatitudeDegrees>40.72752661071717739105224609375</LatitudeDegrees>
              <LongitudeDegrees>-3.8600228168070316314697265625</LongitudeDegrees>
            </Position>
            <AltitudeMeters>904.79998779296875</AltitudeMeters>
            <DistanceMeters>NAN</DistanceMeters>
          </Trackpoint>
          <Trackpoint>
            <Time>2020-03-07T16:27:35.000Z</Time>
            <Position>
              <LatitudeDegrees>40.7274869643151760101318359375</LatitudeDegrees>
              <LongitudeDegrees>-3.86008291505277156829833984375</LongitudeDegrees>
            </Position>
            <AltitudeMeters>904.79998779296875</AltitudeMeters>
            <DistanceMeters>NAN</DistanceMeters>
          </Trackpoint>
          <Trackpoint>
            <Time>2020-03-07T16:27:36.000Z</Time>
            <Position>
              <LatitudeDegrees>40.727445892989635467529296875</LatitudeDegrees>
              <LongitudeDegrees>-3.860141672194004058837890625</LongitudeDegrees>
            </Position>
            <AltitudeMeters>905</AltitudeMeters>
            <DistanceMeters>NAN</DistanceMeters>
          </Trackpoint>
          <Trackpoint>
            <Time>2020-03-07T16:27:37.000Z</Time>
            <Position>
              <LatitudeDegrees>40.72740398347377777099609375</LatitudeDegrees>
              <LongitudeDegrees>-3.86020093224942684173583984375</LongitudeDegrees>
            </Position>
            <AltitudeMeters>905</AltitudeMeters>
            <DistanceMeters>NAN</DistanceMeters>
          </Trackpoint>
          <Trackpoint>
            <Time>2020-03-07T16:27:38.000Z</Time>
            <Position>
              <LatitudeDegrees>40.727360732853412628173828125</LatitudeDegrees>
              <LongitudeDegrees>-3.8602598570287227630615234375</LongitudeDegrees>
            </Position>
            <AltitudeMeters>905</AltitudeMeters>
            <DistanceMeters>NAN</DistanceMeters>
          </Trackpoint>
          <Trackpoint>
            <Time>2020-03-07T16:27:39.000Z</Time>
            <Position>
              <LatitudeDegrees>40.7273169793188571929931640625</LatitudeDegrees>
              <LongitudeDegrees>-3.86031693778932094573974609375</LongitudeDegrees>
            </Position>
            <AltitudeMeters>905.20001220703125</AltitudeMeters>
            <DistanceMeters>NAN</DistanceMeters>
          </Trackpoint>
          <Trackpoint>
            <Time>2020-03-07T16:27:40.000Z</Time>
            <Position>
              <LatitudeDegrees>40.72727255523204803466796875</LatitudeDegrees>
              <LongitudeDegrees>-3.860375024378299713134765625</LongitudeDegrees>
            </Position>
            <AltitudeMeters>905.4000244140625</AltitudeMeters>
            <DistanceMeters>NAN</DistanceMeters>
          </Trackpoint>
          <Trackpoint>
            <Time>2020-03-07T16:27:41.000Z</Time>
            <Position>
              <LatitudeDegrees>40.7272288016974925994873046875</LatitudeDegrees>
              <LongitudeDegrees>-3.86043570935726165771484375</LongitudeDegrees>
            </Position>
            <AltitudeMeters>905.5999755859375</AltitudeMeters>
            <DistanceMeters>NAN</DistanceMeters>
          </Trackpoint>
          <Trackpoint>
            <Time>2020-03-07T16:27:42.000Z</Time>
            <Position>
              <LatitudeDegrees>40.727183707058429718017578125</LatitudeDegrees>
              <LongitudeDegrees>-3.8604965619742870330810546875</LongitudeDegrees>
            </Position>
            <AltitudeMeters>905.5999755859375</AltitudeMeters>
            <DistanceMeters>NAN</DistanceMeters>
          </Trackpoint>
          <Trackpoint>
            <Time>2020-03-07T16:27:43.000Z</Time>
            <Position>
              <LatitudeDegrees>40.727136097848415374755859375</LatitudeDegrees>
              <LongitudeDegrees>-3.860554397106170654296875</LongitudeDegrees>
            </Position>
            <AltitudeMeters>905.5999755859375</AltitudeMeters>
            <DistanceMeters>NAN</DistanceMeters>
          </Trackpoint>
          <Trackpoint>
            <Time>2020-03-07T16:27:44.000Z</Time>
            <Position>
              <LatitudeDegrees>40.727086476981639862060546875</LatitudeDegrees>
              <LongitudeDegrees>-3.86060929857194423675537109375</LongitudeDegrees>
            </Position>
            <AltitudeMeters>905.5999755859375</AltitudeMeters>
            <DistanceMeters>NAN</DistanceMeters>
          </Trackpoint>
          <Trackpoint>
            <Time>2020-03-07T16:27:45.000Z</Time>
            <Position>
              <LatitudeDegrees>40.727036856114864349365234375</LatitudeDegrees>
              <LongitudeDegrees>-3.86066378094255924224853515625</LongitudeDegrees>
            </Position>
            <AltitudeMeters>905.5999755859375</AltitudeMeters>
            <DistanceMeters>NAN</DistanceMeters>
          </Trackpoint>
          <Trackpoint>
            <Time>2020-03-07T16:27:46.000Z</Time>
            <Position>
              <LatitudeDegrees>40.72698664851486682891845703125</LatitudeDegrees>
              <LongitudeDegrees>-3.8607171736657619476318359375</LongitudeDegrees>
            </Position>
            <AltitudeMeters>905.79998779296875</AltitudeMeters>
            <DistanceMeters>NAN</DistanceMeters>
          </Trackpoint>
          <Trackpoint>
            <Time>2020-03-07T16:27:47.000Z</Time>
            <Position>
              <LatitudeDegrees>40.72698664851486682891845703125</LatitudeDegrees>
              <LongitudeDegrees>-3.8607171736657619476318359375</LongitudeDegrees>
            </Position>
            <AltitudeMeters>905.79998779296875</AltitudeMeters>
            <DistanceMeters>NAN</DistanceMeters>
          </Trackpoint>
          <Trackpoint>
            <Time>2020-03-07T16:27:48.000Z</Time>
            <Position>
              <LatitudeDegrees>40.72693417780101299285888671875</LatitudeDegrees>
              <LongitudeDegrees>-3.86076696217060089111328125</LongitudeDegrees>
            </Position>
            <AltitudeMeters>905.79998779296875</AltitudeMeters>
            <DistanceMeters>NAN</DistanceMeters>
          </Trackpoint>
          <Trackpoint>
            <Time>2020-03-07T16:27:49.000Z</Time>
            <Position>
              <LatitudeDegrees>40.7268802821636199951171875</LatitudeDegrees>
              <LongitudeDegrees>-3.8608140684664249420166015625</LongitudeDegrees>
            </Position>
            <AltitudeMeters>906</AltitudeMeters>
            <DistanceMeters>NAN</DistanceMeters>
          </Trackpoint>
          <Trackpoint>
            <Time>2020-03-07T16:27:50.000Z</Time>
            <Position>
              <LatitudeDegrees>40.726824961602687835693359375</LatitudeDegrees>
              <LongitudeDegrees>-3.860860168933868408203125</LongitudeDegrees>
            </Position>
            <AltitudeMeters>906.4000244140625</AltitudeMeters>
            <DistanceMeters>NAN</DistanceMeters>
          </Trackpoint>
          <Trackpoint>
            <Time>2020-03-07T16:27:51.000Z</Time>
            <Position>
              <LatitudeDegrees>40.72676871903240680694580078125</LatitudeDegrees>
              <LongitudeDegrees>-3.86090467683970928192138671875</LongitudeDegrees>
            </Position>
            <AltitudeMeters>906.4000244140625</AltitudeMeters>
            <DistanceMeters>NAN</DistanceMeters>
          </Trackpoint>
          <Trackpoint>
            <Time>2020-03-07T16:27:52.000Z</Time>
            <Position>
              <LatitudeDegrees>40.72665028274059295654296875</LatitudeDegrees>
              <LongitudeDegrees>-3.86098690330982208251953125</LongitudeDegrees>
            </Position>
            <AltitudeMeters>906.5999755859375</AltitudeMeters>
            <DistanceMeters>NAN</DistanceMeters>
          </Trackpoint>
          <Trackpoint>
            <Time>2020-03-07T16:27:53.000Z</Time>
            <Position>
              <LatitudeDegrees>40.72658859193325042724609375</LatitudeDegrees>
              <LongitudeDegrees>-3.8610242865979671478271484375</LongitudeDegrees>
            </Position>
            <AltitudeMeters>906.5999755859375</AltitudeMeters>
            <DistanceMeters>NAN</DistanceMeters>
          </Trackpoint>
          <Trackpoint>
            <Time>2020-03-07T16:27:54.000Z</Time>
            <Position>
              <LatitudeDegrees>40.72652547620236873626708984375</LatitudeDegrees>
              <LongitudeDegrees>-3.86106376536190509796142578125</LongitudeDegrees>
            </Position>
            <AltitudeMeters>906.79998779296875</AltitudeMeters>
            <DistanceMeters>NAN</DistanceMeters>
          </Trackpoint>
          <Trackpoint>
            <Time>2020-03-07T16:27:55.000Z</Time>
            <Position>
              <LatitudeDegrees>40.7264616899192333221435546875</LatitudeDegrees>
              <LongitudeDegrees>-3.86110500432550907135009765625</LongitudeDegrees>
            </Position>
            <AltitudeMeters>907</AltitudeMeters>
            <DistanceMeters>NAN</DistanceMeters>
          </Trackpoint>
          <Trackpoint>
            <Time>2020-03-07T16:27:56.000Z</Time>
            <Position>
              <LatitudeDegrees>40.7264616899192333221435546875</LatitudeDegrees>
              <LongitudeDegrees>-3.86110500432550907135009765625</LongitudeDegrees>
            </Position>
            <AltitudeMeters>907</AltitudeMeters>
            <DistanceMeters>NAN</DistanceMeters>
          </Trackpoint>
          <Trackpoint>
            <Time>2020-03-07T16:27:57.000Z</Time>
            <Position>
              <LatitudeDegrees>40.72633436881005764007568359375</LatitudeDegrees>
              <LongitudeDegrees>-3.861198462545871734619140625</LongitudeDegrees>
            </Position>
            <AltitudeMeters>907</AltitudeMeters>
            <DistanceMeters>NAN</DistanceMeters>
          </Trackpoint>
          <Trackpoint>
            <Time>2020-03-07T16:27:58.000Z</Time>
            <Position>
              <LatitudeDegrees>40.72627200745046138763427734375</LatitudeDegrees>
              <LongitudeDegrees>-3.86125336401164531707763671875</LongitudeDegrees>
            </Position>
            <AltitudeMeters>907</AltitudeMeters>
            <DistanceMeters>NAN</DistanceMeters>
          </Trackpoint>
          <Trackpoint>
            <Time>2020-03-07T16:27:59.000Z</Time>
            <Position>
              <LatitudeDegrees>40.72620998136699199676513671875</LatitudeDegrees>
              <LongitudeDegrees>-3.86131203733384609222412109375</LongitudeDegrees>
            </Position>
            <AltitudeMeters>907</AltitudeMeters>
            <DistanceMeters>NAN</DistanceMeters>
          </Trackpoint>
          <Trackpoint>
            <Time>2020-03-07T16:28:00.000Z</Time>
            <Position>
              <LatitudeDegrees>40.72614812292158603668212890625</LatitudeDegrees>
              <LongitudeDegrees>-3.86137389577925205230712890625</LongitudeDegrees>
            </Position>
            <AltitudeMeters>907</AltitudeMeters>
            <DistanceMeters>NAN</DistanceMeters>
          </Trackpoint>
          <Trackpoint>
            <Time>2020-03-07T16:28:01.000Z</Time>
            <Position>
              <LatitudeDegrees>40.72608659975230693817138671875</LatitudeDegrees>
              <LongitudeDegrees>-3.86143977753818035125732421875</LongitudeDegrees>
            </Position>
            <AltitudeMeters>907</AltitudeMeters>
            <DistanceMeters>NAN</DistanceMeters>
          </Trackpoint>
          <Trackpoint>
            <Time>2020-03-07T16:28:02.000Z</Time>
            <Position>
              <LatitudeDegrees>40.7260261662304401397705078125</LatitudeDegrees>
              <LongitudeDegrees>-3.86150917969644069671630859375</LongitudeDegrees>
            </Position>
            <AltitudeMeters>907</AltitudeMeters>
            <DistanceMeters>NAN</DistanceMeters>
          </Trackpoint>
          <Trackpoint>
            <Time>2020-03-07T16:28:03.000Z</Time>
            <Position>
              <LatitudeDegrees>40.72596590034663677215576171875</LatitudeDegrees>
              <LongitudeDegrees>-3.861582018435001373291015625</LongitudeDegrees>
            </Position>
            <AltitudeMeters>907</AltitudeMeters>
            <DistanceMeters>NAN</DistanceMeters>
          </Trackpoint>
          <Trackpoint>
            <Time>2020-03-07T16:28:04.000Z</Time>
            <Position>
              <LatitudeDegrees>40.7259061373770236968994140625</LatitudeDegrees>
              <LongitudeDegrees>-3.86165888048708438873291015625</LongitudeDegrees>
            </Position>
            <AltitudeMeters>907</AltitudeMeters>
            <DistanceMeters>NAN</DistanceMeters>
          </Trackpoint>
          <Trackpoint>
            <Time>2020-03-07T16:28:05.000Z</Time>
            <Position>
              <LatitudeDegrees>40.72584704495966434478759765625</LatitudeDegrees>
              <LongitudeDegrees>-3.8617407716810703277587890625</LongitudeDegrees>
            </Position>
            <AltitudeMeters>907</AltitudeMeters>
            <DistanceMeters>NAN</DistanceMeters>
          </Trackpoint>
          <Trackpoint>
            <Time>2020-03-07T16:28:06.000Z</Time>
            <Position>
              <LatitudeDegrees>40.72578820399940013885498046875</LatitudeDegrees>
              <LongitudeDegrees>-3.86182643473148345947265625</LongitudeDegrees>
            </Position>
            <AltitudeMeters>906.79998779296875</AltitudeMeters>
            <DistanceMeters>NAN</DistanceMeters>
          </Trackpoint>
          <Trackpoint>
            <Time>2020-03-07T16:28:07.000Z</Time>
            <Position>
              <LatitudeDegrees>40.72573028504848480224609375</LatitudeDegrees>
              <LongitudeDegrees>-3.86191637255251407623291015625</LongitudeDegrees>
            </Position>
            <AltitudeMeters>906.5999755859375</AltitudeMeters>
            <DistanceMeters>NAN</DistanceMeters>
          </Trackpoint>
          <Trackpoint>
            <Time>2020-03-07T16:28:08.000Z</Time>
            <Position>
              <LatitudeDegrees>40.72567395865917205810546875</LatitudeDegrees>
              <LongitudeDegrees>-3.8620096631348133087158203125</LongitudeDegrees>
            </Position>
            <AltitudeMeters>906.4000244140625</AltitudeMeters>
            <DistanceMeters>NAN</DistanceMeters>
          </Trackpoint>
          <Trackpoint>
            <Time>2020-03-07T16:28:09.000Z</Time>
            <Position>
              <LatitudeDegrees>40.725620649755001068115234375</LatitudeDegrees>
              <LongitudeDegrees>-3.86210781522095203399658203125</LongitudeDegrees>
            </Position>
            <AltitudeMeters>906.4000244140625</AltitudeMeters>
            <DistanceMeters>NAN</DistanceMeters>
          </Trackpoint>
          <Trackpoint>
            <Time>2020-03-07T16:28:10.000Z</Time>
            <Position>
              <LatitudeDegrees>40.72556843049824237823486328125</LatitudeDegrees>
              <LongitudeDegrees>-3.86220999062061309814453125</LongitudeDegrees>
            </Position>
            <AltitudeMeters>906</AltitudeMeters>
            <DistanceMeters>NAN</DistanceMeters>
          </Trackpoint>
          <Trackpoint>
            <Time>2020-03-07T16:28:11.000Z</Time>
            <Position>
              <LatitudeDegrees>40.72551797144114971160888671875</LatitudeDegrees>
              <LongitudeDegrees>-3.8623137585818767547607421875</LongitudeDegrees>
            </Position>
            <AltitudeMeters>905.5999755859375</AltitudeMeters>
            <DistanceMeters>NAN</DistanceMeters>
          </Trackpoint>
          <Trackpoint>
            <Time>2020-03-07T16:28:12.000Z</Time>
            <Position>
              <LatitudeDegrees>40.725469104945659637451171875</LatitudeDegrees>
              <LongitudeDegrees>-3.8624210469424724578857421875</LongitudeDegrees>
            </Position>
            <AltitudeMeters>905.20001220703125</AltitudeMeters>
            <DistanceMeters>NAN</DistanceMeters>
          </Trackpoint>
          <Trackpoint>
            <Time>2020-03-07T16:28:13.000Z</Time>
            <Position>
              <LatitudeDegrees>40.72542442940175533294677734375</LatitudeDegrees>
              <LongitudeDegrees>-3.862531185150146484375</LongitudeDegrees>
            </Position>
            <AltitudeMeters>904.79998779296875</AltitudeMeters>
            <DistanceMeters>NAN</DistanceMeters>
          </Trackpoint>
          <Trackpoint>
            <Time>2020-03-07T16:28:14.000Z</Time>
            <Position>
              <LatitudeDegrees>40.72538453154265880584716796875</LatitudeDegrees>
              <LongitudeDegrees>-3.86264442466199398040771484375</LongitudeDegrees>
            </Position>
            <AltitudeMeters>904.5999755859375</AltitudeMeters>
            <DistanceMeters>NAN</DistanceMeters>
          </Trackpoint>
          <Trackpoint>
            <Time>2020-03-07T16:28:15.000Z</Time>
            <Position>
              <LatitudeDegrees>40.72534647770226001739501953125</LatitudeDegrees>
              <LongitudeDegrees>-3.862758837640285491943359375</LongitudeDegrees>
            </Position>
            <AltitudeMeters>904.20001220703125</AltitudeMeters>
            <DistanceMeters>NAN</DistanceMeters>
          </Trackpoint>
          <Trackpoint>
            <Time>2020-03-07T16:28:16.000Z</Time>
            <Position>
              <LatitudeDegrees>40.7253100164234638214111328125</LatitudeDegrees>
              <LongitudeDegrees>-3.86287442408502101898193359375</LongitudeDegrees>
            </Position>
            <AltitudeMeters>903.79998779296875</AltitudeMeters>
            <DistanceMeters>NAN</DistanceMeters>
          </Trackpoint>
          <Trackpoint>
            <Time>2020-03-07T16:28:17.000Z</Time>
            <Position>
              <LatitudeDegrees>40.72527808137238025665283203125</LatitudeDegrees>
              <LongitudeDegrees>-3.8629910163581371307373046875</LongitudeDegrees>
            </Position>
            <AltitudeMeters>903.4000244140625</AltitudeMeters>
            <DistanceMeters>NAN</DistanceMeters>
          </Trackpoint>
          <Trackpoint>
            <Time>2020-03-07T16:28:18.000Z</Time>
            <Position>
              <LatitudeDegrees>40.72525075636804103851318359375</LatitudeDegrees>
              <LongitudeDegrees>-3.8631093688309192657470703125</LongitudeDegrees>
            </Position>
            <AltitudeMeters>903.20001220703125</AltitudeMeters>
            <DistanceMeters>NAN</DistanceMeters>
          </Trackpoint>
          <Trackpoint>
            <Time>2020-03-07T16:28:19.000Z</Time>
            <Position>
              <LatitudeDegrees>40.72522577829658985137939453125</LatitudeDegrees>
              <LongitudeDegrees>-3.8632283918559551239013671875</LongitudeDegrees>
            </Position>
            <AltitudeMeters>902.79998779296875</AltitudeMeters>
            <DistanceMeters>NAN</DistanceMeters>
          </Trackpoint>
          <Trackpoint>
            <Time>2020-03-07T16:28:20.000Z</Time>
            <Position>
              <LatitudeDegrees>40.72520348243415355682373046875</LatitudeDegrees>
              <LongitudeDegrees>-3.86334749870002269744873046875</LongitudeDegrees>
            </Position>
            <AltitudeMeters>902.4000244140625</AltitudeMeters>
            <DistanceMeters>NAN</DistanceMeters>
          </Trackpoint>
          <Trackpoint>
            <Time>2020-03-07T16:28:21.000Z</Time>
            <Position>
              <LatitudeDegrees>40.72518453933298587799072265625</LatitudeDegrees>
              <LongitudeDegrees>-3.86346618644893169403076171875</LongitudeDegrees>
            </Position>
            <AltitudeMeters>902.20001220703125</AltitudeMeters>
            <DistanceMeters>NAN</DistanceMeters>
          </Trackpoint>
          <Trackpoint>
            <Time>2020-03-07T16:28:22.000Z</Time>
            <Position>
              <LatitudeDegrees>40.72516928426921367645263671875</LatitudeDegrees>
              <LongitudeDegrees>-3.8635847903788089752197265625</LongitudeDegrees>
            </Position>
            <AltitudeMeters>902.20001220703125</AltitudeMeters>
            <DistanceMeters>NAN</DistanceMeters>
          </Trackpoint>
          <Trackpoint>
            <Time>2020-03-07T16:28:23.000Z</Time>
            <Position>
              <LatitudeDegrees>40.72515604086220264434814453125</LatitudeDegrees>
              <LongitudeDegrees>-3.86370255611836910247802734375</LongitudeDegrees>
            </Position>
            <AltitudeMeters>902.20001220703125</AltitudeMeters>
            <DistanceMeters>NAN</DistanceMeters>
          </Trackpoint>
          <Trackpoint>
            <Time>2020-03-07T16:28:24.000Z</Time>
            <Position>
              <LatitudeDegrees>40.725145898759365081787109375</LatitudeDegrees>
              <LongitudeDegrees>-3.86381956748664379119873046875</LongitudeDegrees>
            </Position>
            <AltitudeMeters>902</AltitudeMeters>
            <DistanceMeters>NAN</DistanceMeters>
          </Trackpoint>
          <Trackpoint>
            <Time>2020-03-07T16:28:25.000Z</Time>
            <Position>
              <LatitudeDegrees>40.72514061816036701202392578125</LatitudeDegrees>
              <LongitudeDegrees>-3.86393657885491847991943359375</LongitudeDegrees>
            </Position>
            <AltitudeMeters>902</AltitudeMeters>
            <DistanceMeters>NAN</DistanceMeters>
          </Trackpoint>
          <Trackpoint>
            <Time>2020-03-07T16:28:26.000Z</Time>
            <Position>
              <LatitudeDegrees>40.7251390255987644195556640625</LatitudeDegrees>
              <LongitudeDegrees>-3.86405409313738346099853515625</LongitudeDegrees>
            </Position>
            <AltitudeMeters>902</AltitudeMeters>
            <DistanceMeters>NAN</DistanceMeters>
          </Trackpoint>
          <Trackpoint>
            <Time>2020-03-07T16:28:27.000Z</Time>
            <Position>
              <LatitudeDegrees>40.7251395285129547119140625</LatitudeDegrees>
              <LongitudeDegrees>-3.86417194269597530364990234375</LongitudeDegrees>
            </Position>
            <AltitudeMeters>902</AltitudeMeters>
            <DistanceMeters>NAN</DistanceMeters>
          </Trackpoint>
          <Trackpoint>
            <Time>2020-03-07T16:28:28.000Z</Time>
            <Position>
              <LatitudeDegrees>40.72513994760811328887939453125</LatitudeDegrees>
              <LongitudeDegrees>-3.864287696778774261474609375</LongitudeDegrees>
            </Position>
            <AltitudeMeters>902</AltitudeMeters>
            <DistanceMeters>NAN</DistanceMeters>
          </Trackpoint>
          <Trackpoint>
            <Time>2020-03-07T16:28:29.000Z</Time>
            <Position>
              <LatitudeDegrees>40.72514019906520843505859375</LatitudeDegrees>
              <LongitudeDegrees>-3.864402361214160919189453125</LongitudeDegrees>
            </Position>
            <AltitudeMeters>902</AltitudeMeters>
            <DistanceMeters>NAN</DistanceMeters>
          </Trackpoint>
          <Trackpoint>
            <Time>2020-03-07T16:28:30.000Z</Time>
            <Position>
              <LatitudeDegrees>40.725139863789081573486328125</LatitudeDegrees>
              <LongitudeDegrees>-3.8645168580114841461181640625</LongitudeDegrees>
            </Position>
            <AltitudeMeters>902</AltitudeMeters>
            <DistanceMeters>NAN</DistanceMeters>
          </Trackpoint>
          <Trackpoint>
            <Time>2020-03-07T16:28:31.000Z</Time>
            <Position>
              <LatitudeDegrees>40.72514019906520843505859375</LatitudeDegrees>
              <LongitudeDegrees>-3.8646308518946170806884765625</LongitudeDegrees>
            </Position>
            <AltitudeMeters>902</AltitudeMeters>
            <DistanceMeters>NAN</DistanceMeters>
          </Trackpoint>
          <Trackpoint>
            <Time>2020-03-07T16:28:32.000Z</Time>
            <Position>
              <LatitudeDegrees>40.7251396961510181427001953125</LatitudeDegrees>
              <LongitudeDegrees>-3.8647451810538768768310546875</LongitudeDegrees>
            </Position>
            <AltitudeMeters>902</AltitudeMeters>
            <DistanceMeters>NAN</DistanceMeters>
          </Trackpoint>
          <Trackpoint>
            <Time>2020-03-07T16:28:33.000Z</Time>
            <Position>
              <LatitudeDegrees>40.72513927705585956573486328125</LatitudeDegrees>
              <LongitudeDegrees>-3.8648578338325023651123046875</LongitudeDegrees>
            </Position>
            <AltitudeMeters>902</AltitudeMeters>
            <DistanceMeters>NAN</DistanceMeters>
          </Trackpoint>
          <Trackpoint>
            <Time>2020-03-07T16:28:34.000Z</Time>
            <Position>
              <LatitudeDegrees>40.725137852132320404052734375</LatitudeDegrees>
              <LongitudeDegrees>-3.86497023515403270721435546875</LongitudeDegrees>
            </Position>
            <AltitudeMeters>902</AltitudeMeters>
            <DistanceMeters>NAN</DistanceMeters>
          </Trackpoint>
          <Trackpoint>
            <Time>2020-03-07T16:28:35.000Z</Time>
            <Position>
              <LatitudeDegrees>40.72513776831328868865966796875</LatitudeDegrees>
              <LongitudeDegrees>-3.8650814630091190338134765625</LongitudeDegrees>
            </Position>
            <AltitudeMeters>902</AltitudeMeters>
            <DistanceMeters>NAN</DistanceMeters>
          </Trackpoint>
          <Trackpoint>
            <Time>2020-03-07T16:28:36.000Z</Time>
            <Position>
              <LatitudeDegrees>40.72513709776103496551513671875</LatitudeDegrees>
              <LongitudeDegrees>-3.8651917688548564910888671875</LongitudeDegrees>
            </Position>
            <AltitudeMeters>902.20001220703125</AltitudeMeters>
            <DistanceMeters>NAN</DistanceMeters>
          </Trackpoint>
          <Trackpoint>
            <Time>2020-03-07T16:28:37.000Z</Time>
            <Position>
              <LatitudeDegrees>40.725135505199432373046875</LatitudeDegrees>
              <LongitudeDegrees>-3.86530081741511821746826171875</LongitudeDegrees>
            </Position>
            <AltitudeMeters>902.20001220703125</AltitudeMeters>
            <DistanceMeters>NAN</DistanceMeters>
          </Trackpoint>
          <Trackpoint>
            <Time>2020-03-07T16:28:38.000Z</Time>
            <Position>
              <LatitudeDegrees>40.72513475082814693450927734375</LatitudeDegrees>
              <LongitudeDegrees>-3.8654080219566822052001953125</LongitudeDegrees>
            </Position>
            <AltitudeMeters>902.20001220703125</AltitudeMeters>
            <DistanceMeters>NAN</DistanceMeters>
          </Trackpoint>
          <Trackpoint>
            <Time>2020-03-07T16:28:39.000Z</Time>
            <Position>
              <LatitudeDegrees>40.7251341640949249267578125</LatitudeDegrees>
              <LongitudeDegrees>-3.865513466298580169677734375</LongitudeDegrees>
            </Position>
            <AltitudeMeters>902.20001220703125</AltitudeMeters>
            <DistanceMeters>NAN</DistanceMeters>
          </Trackpoint>
          <Trackpoint>
            <Time>2020-03-07T16:28:40.000Z</Time>
            <Position>
              <LatitudeDegrees>40.72513307444751262664794921875</LatitudeDegrees>
              <LongitudeDegrees>-3.8656170666217803955078125</LongitudeDegrees>
            </Position>
            <AltitudeMeters>902.20001220703125</AltitudeMeters>
            <DistanceMeters>NAN</DistanceMeters>
          </Trackpoint>
          <Trackpoint>
            <Time>2020-03-07T16:28:41.000Z</Time>
            <Position>
              <LatitudeDegrees>40.72513173334300518035888671875</LatitudeDegrees>
              <LongitudeDegrees>-3.865719325840473175048828125</LongitudeDegrees>
            </Position>
            <AltitudeMeters>902.20001220703125</AltitudeMeters>
            <DistanceMeters>NAN</DistanceMeters>
          </Trackpoint>
          <Trackpoint>
            <Time>2020-03-07T16:28:42.000Z</Time>
            <Position>
              <LatitudeDegrees>40.72513156570494174957275390625</LatitudeDegrees>
              <LongitudeDegrees>-3.86581957340240478515625</LongitudeDegrees>
            </Position>
            <AltitudeMeters>902.20001220703125</AltitudeMeters>
            <DistanceMeters>NAN</DistanceMeters>
          </Trackpoint>
          <Trackpoint>
            <Time>2020-03-07T16:28:43.000Z</Time>
            <Position>
              <LatitudeDegrees>40.72513173334300518035888671875</LatitudeDegrees>
              <LongitudeDegrees>-3.8659203238785266876220703125</LongitudeDegrees>
            </Position>
            <AltitudeMeters>902.4000244140625</AltitudeMeters>
            <DistanceMeters>NAN</DistanceMeters>
          </Trackpoint>
          <Trackpoint>
            <Time>2020-03-07T16:28:44.000Z</Time>
            <Position>
              <LatitudeDegrees>40.7251316495239734649658203125</LatitudeDegrees>
              <LongitudeDegrees>-3.8660199008882045745849609375</LongitudeDegrees>
            </Position>
            <AltitudeMeters>902.4000244140625</AltitudeMeters>
            <DistanceMeters>NAN</DistanceMeters>
          </Trackpoint>
          <Trackpoint>
            <Time>2020-03-07T16:28:45.000Z</Time>
            <Position>
              <LatitudeDegrees>40.7251313142478466033935546875</LatitudeDegrees>
              <LongitudeDegrees>-3.866117633879184722900390625</LongitudeDegrees>
            </Position>
            <AltitudeMeters>902.4000244140625</AltitudeMeters>
            <DistanceMeters>NAN</DistanceMeters>
          </Trackpoint>
          <Trackpoint>
            <Time>2020-03-07T16:28:46.000Z</Time>
            <Position>
              <LatitudeDegrees>40.72513173334300518035888671875</LatitudeDegrees>
              <LongitudeDegrees>-3.86621452867984771728515625</LongitudeDegrees>
            </Position>
            <AltitudeMeters>902.5999755859375</AltitudeMeters>
            <DistanceMeters>NAN</DistanceMeters>
          </Trackpoint>
          <Trackpoint>
            <Time>2020-03-07T16:28:47.000Z</Time>
            <Position>
              <LatitudeDegrees>40.7251316495239734649658203125</LatitudeDegrees>
              <LongitudeDegrees>-3.86631268076598644256591796875</LongitudeDegrees>
            </Position>
            <AltitudeMeters>902.5999755859375</AltitudeMeters>
            <DistanceMeters>NAN</DistanceMeters>
          </Trackpoint>
          <Trackpoint>
            <Time>2020-03-07T16:28:48.000Z</Time>
            <Position>
              <LatitudeDegrees>40.7251314818859100341796875</LatitudeDegrees>
              <LongitudeDegrees>-3.86640991084277629852294921875</LongitudeDegrees>
            </Position>
            <AltitudeMeters>902.79998779296875</AltitudeMeters>
            <DistanceMeters>NAN</DistanceMeters>
          </Trackpoint>
          <Trackpoint>
            <Time>2020-03-07T16:28:49.000Z</Time>
            <Position>
              <LatitudeDegrees>40.72513156570494174957275390625</LatitudeDegrees>
              <LongitudeDegrees>-3.8665047101676464080810546875</LongitudeDegrees>
            </Position>
            <AltitudeMeters>902.79998779296875</AltitudeMeters>
            <DistanceMeters>NAN</DistanceMeters>
          </Trackpoint>
          <Trackpoint>
            <Time>2020-03-07T16:28:50.000Z</Time>
            <Position>
              <LatitudeDegrees>40.7251303084194660186767578125</LatitudeDegrees>
              <LongitudeDegrees>-3.86659967713057994842529296875</LongitudeDegrees>
            </Position>
            <AltitudeMeters>903</AltitudeMeters>
            <DistanceMeters>NAN</DistanceMeters>
          </Trackpoint>
          <Trackpoint>
            <Time>2020-03-07T16:28:51.000Z</Time>
            <Position>
              <LatitudeDegrees>40.725129134953022003173828125</LatitudeDegrees>
              <LongitudeDegrees>-3.866692297160625457763671875</LongitudeDegrees>
            </Position>
            <AltitudeMeters>903</AltitudeMeters>
            <DistanceMeters>NAN</DistanceMeters>
          </Trackpoint>
          <Trackpoint>
            <Time>2020-03-07T16:28:52.000Z</Time>
            <Position>
              <LatitudeDegrees>40.72512771002948284149169921875</LatitudeDegrees>
              <LongitudeDegrees>-3.866784833371639251708984375</LongitudeDegrees>
            </Position>
            <AltitudeMeters>903.20001220703125</AltitudeMeters>
            <DistanceMeters>NAN</DistanceMeters>
          </Trackpoint>
          <Trackpoint>
            <Time>2020-03-07T16:28:53.000Z</Time>
            <Position>
              <LatitudeDegrees>40.72512519545853137969970703125</LatitudeDegrees>
              <LongitudeDegrees>-3.86687980033457279205322265625</LongitudeDegrees>
            </Position>
            <AltitudeMeters>903.4000244140625</AltitudeMeters>
            <DistanceMeters>NAN</DistanceMeters>
          </Trackpoint>
          <Trackpoint>
            <Time>2020-03-07T16:28:54.000Z</Time>
            <Position>
              <LatitudeDegrees>40.72512301616370677947998046875</LatitudeDegrees>
              <LongitudeDegrees>-3.8669747672975063323974609375</LongitudeDegrees>
            </Position>
            <AltitudeMeters>903.79998779296875</AltitudeMeters>
            <DistanceMeters>NAN</DistanceMeters>
          </Trackpoint>
          <Trackpoint>
            <Time>2020-03-07T16:28:55.000Z</Time>
            <Position>
              <LatitudeDegrees>40.72512100450694561004638671875</LatitudeDegrees>
              <LongitudeDegrees>-3.8670693151652812957763671875</LongitudeDegrees>
            </Position>
            <AltitudeMeters>903.79998779296875</AltitudeMeters>
            <DistanceMeters>NAN</DistanceMeters>
          </Trackpoint>
          <Trackpoint>
            <Time>2020-03-07T16:28:56.000Z</Time>
            <Position>
              <LatitudeDegrees>40.725119076669216156005859375</LatitudeDegrees>
              <LongitudeDegrees>-3.867162354290485382080078125</LongitudeDegrees>
            </Position>
            <AltitudeMeters>904</AltitudeMeters>
            <DistanceMeters>NAN</DistanceMeters>
          </Trackpoint>
          <Trackpoint>
            <Time>2020-03-07T16:28:57.000Z</Time>
            <Position>
              <LatitudeDegrees>40.7251172326505184173583984375</LatitudeDegrees>
              <LongitudeDegrees>-3.86725413613021373748779296875</LongitudeDegrees>
            </Position>
            <AltitudeMeters>904.20001220703125</AltitudeMeters>
            <DistanceMeters>NAN</DistanceMeters>
          </Trackpoint>
          <Trackpoint>
            <Time>2020-03-07T16:28:58.000Z</Time>
            <Position>
              <LatitudeDegrees>40.725115723907947540283203125</LatitudeDegrees>
              <LongitudeDegrees>-3.86734432540833950042724609375</LongitudeDegrees>
            </Position>
            <AltitudeMeters>904.5999755859375</AltitudeMeters>
            <DistanceMeters>NAN</DistanceMeters>
          </Trackpoint>
          <Trackpoint>
            <Time>2020-03-07T16:28:59.000Z</Time>
            <Position>
              <LatitudeDegrees>40.7251155562698841094970703125</LatitudeDegrees>
              <LongitudeDegrees>-3.86743099428713321685791015625</LongitudeDegrees>
            </Position>
            <AltitudeMeters>905</AltitudeMeters>
            <DistanceMeters>NAN</DistanceMeters>
          </Trackpoint>
          <Trackpoint>
            <Time>2020-03-07T16:29:00.000Z</Time>
            <Position>
              <LatitudeDegrees>40.72511631064116954803466796875</LatitudeDegrees>
              <LongitudeDegrees>-3.86751565150916576385498046875</LongitudeDegrees>
            </Position>
            <AltitudeMeters>905.4000244140625</AltitudeMeters>
            <DistanceMeters>NAN</DistanceMeters>
          </Trackpoint>
          <Trackpoint>
            <Time>2020-03-07T16:29:01.000Z</Time>
            <Position>
              <LatitudeDegrees>40.7251215912401676177978515625</LatitudeDegrees>
              <LongitudeDegrees>-3.8675943575799465179443359375</LongitudeDegrees>
            </Position>
            <AltitudeMeters>905.5999755859375</AltitudeMeters>
            <DistanceMeters>NAN</DistanceMeters>
          </Trackpoint>
          <Trackpoint>
            <Time>2020-03-07T16:29:02.000Z</Time>
            <Position>
              <LatitudeDegrees>40.72512854821979999542236328125</LatitudeDegrees>
              <LongitudeDegrees>-3.8676716387271881103515625</LongitudeDegrees>
            </Position>
            <AltitudeMeters>905.79998779296875</AltitudeMeters>
            <DistanceMeters>NAN</DistanceMeters>
          </Trackpoint>
          <Trackpoint>
            <Time>2020-03-07T16:29:03.000Z</Time>
            <Position>
              <LatitudeDegrees>40.72513709776103496551513671875</LatitudeDegrees>
              <LongitudeDegrees>-3.867747075855731964111328125</LongitudeDegrees>
            </Position>
            <AltitudeMeters>906</AltitudeMeters>
            <DistanceMeters>NAN</DistanceMeters>
          </Trackpoint>
          <Trackpoint>
            <Time>2020-03-07T16:29:04.000Z</Time>
            <Position>
              <LatitudeDegrees>40.72514598257839679718017578125</LatitudeDegrees>
              <LongitudeDegrees>-3.867823183536529541015625</LongitudeDegrees>
            </Position>
            <AltitudeMeters>906.20001220703125</AltitudeMeters>
            <DistanceMeters>NAN</DistanceMeters>
          </Trackpoint>
          <Trackpoint>
            <Time>2020-03-07T16:29:05.000Z</Time>
            <Position>
              <LatitudeDegrees>40.725159980356693267822265625</LatitudeDegrees>
              <LongitudeDegrees>-3.86789225041866302490234375</LongitudeDegrees>
            </Position>
            <AltitudeMeters>906.4000244140625</AltitudeMeters>
            <DistanceMeters>NAN</DistanceMeters>
          </Trackpoint>
          <Trackpoint>
            <Time>2020-03-07T16:29:06.000Z</Time>
            <Position>
              <LatitudeDegrees>40.7251822762191295623779296875</LatitudeDegrees>
              <LongitudeDegrees>-3.86795930564403533935546875</LongitudeDegrees>
            </Position>
            <AltitudeMeters>906.5999755859375</AltitudeMeters>
            <DistanceMeters>NAN</DistanceMeters>
          </Trackpoint>
          <Trackpoint>
            <Time>2020-03-07T16:29:07.000Z</Time>
            <Position>
              <LatitudeDegrees>40.7252158038318157196044921875</LatitudeDegrees>
              <LongitudeDegrees>-3.868016302585601806640625</LongitudeDegrees>
            </Position>
            <AltitudeMeters>907</AltitudeMeters>
            <DistanceMeters>NAN</DistanceMeters>
          </Trackpoint>
          <Trackpoint>
            <Time>2020-03-07T16:29:08.000Z</Time>
            <Position>
              <LatitudeDegrees>40.7252506725490093231201171875</LatitudeDegrees>
              <LongitudeDegrees>-3.86807438917458057403564453125</LongitudeDegrees>
            </Position>
            <AltitudeMeters>907.20001220703125</AltitudeMeters>
            <DistanceMeters>NAN</DistanceMeters>
          </Trackpoint>
          <Trackpoint>
            <Time>2020-03-07T16:29:09.000Z</Time>
            <Position>
              <LatitudeDegrees>40.725283361971378326416015625</LatitudeDegrees>
              <LongitudeDegrees>-3.8681329786777496337890625</LongitudeDegrees>
            </Position>
            <AltitudeMeters>907.5999755859375</AltitudeMeters>
            <DistanceMeters>NAN</DistanceMeters>
          </Trackpoint>
          <Trackpoint>
            <Time>2020-03-07T16:29:10.000Z</Time>
            <Position>
              <LatitudeDegrees>40.72530842386186122894287109375</LatitudeDegrees>
              <LongitudeDegrees>-3.868194334208965301513671875</LongitudeDegrees>
            </Position>
            <AltitudeMeters>908</AltitudeMeters>
            <DistanceMeters>NAN</DistanceMeters>
          </Trackpoint>
          <Trackpoint>
            <Time>2020-03-07T16:29:11.000Z</Time>
            <Position>
              <LatitudeDegrees>40.7253214158117771148681640625</LatitudeDegrees>
              <LongitudeDegrees>-3.86825845576822757720947265625</LongitudeDegrees>
            </Position>
            <AltitudeMeters>908.4000244140625</AltitudeMeters>
            <DistanceMeters>NAN</DistanceMeters>
          </Trackpoint>
          <Trackpoint>
            <Time>2020-03-07T16:29:12.000Z</Time>
            <Position>
              <LatitudeDegrees>40.72532233782112598419189453125</LatitudeDegrees>
              <LongitudeDegrees>-3.86832400225102901458740234375</LongitudeDegrees>
            </Position>
            <AltitudeMeters>908.5999755859375</AltitudeMeters>
            <DistanceMeters>NAN</DistanceMeters>
          </Trackpoint>
          <Trackpoint>
            <Time>2020-03-07T16:29:13.000Z</Time>
            <Position>
              <LatitudeDegrees>40.7253137044608592987060546875</LatitudeDegrees>
              <LongitudeDegrees>-3.868389129638671875</LongitudeDegrees>
            </Position>
            <AltitudeMeters>909</AltitudeMeters>
            <DistanceMeters>NAN</DistanceMeters>
          </Trackpoint>
          <Trackpoint>
            <Time>2020-03-07T16:29:14.000Z</Time>
            <Position>
              <LatitudeDegrees>40.72529786266386508941650390625</LatitudeDegrees>
              <LongitudeDegrees>-3.86844822205603122711181640625</LongitudeDegrees>
            </Position>
            <AltitudeMeters>909.4000244140625</AltitudeMeters>
            <DistanceMeters>NAN</DistanceMeters>
          </Trackpoint>
          <Trackpoint>
            <Time>2020-03-07T16:29:15.000Z</Time>
            <Position>
              <LatitudeDegrees>40.72527221404016017913818359375</LatitudeDegrees>
              <LongitudeDegrees>-3.86850454844534397125244140625</LongitudeDegrees>
            </Position>
            <AltitudeMeters>909.5999755859375</AltitudeMeters>
            <DistanceMeters>NAN</DistanceMeters>
          </Trackpoint>
          <Trackpoint>
            <Time>2020-03-07T16:29:16.000Z</Time>
            <Position>
              <LatitudeDegrees>40.72524069808423519134521484375</LatitudeDegrees>
              <LongitudeDegrees>-3.8685566000640392303466796875</LongitudeDegrees>
            </Position>
            <AltitudeMeters>909.79998779296875</AltitudeMeters>
            <DistanceMeters>NAN</DistanceMeters>
          </Trackpoint>
          <Trackpoint>
            <Time>2020-03-07T16:29:17.000Z</Time>
            <Position>
              <LatitudeDegrees>40.72520951740443706512451171875</LatitudeDegrees>
              <LongitudeDegrees>-3.86860781349241733551025390625</LongitudeDegrees>
            </Position>
            <AltitudeMeters>910</AltitudeMeters>
            <DistanceMeters>NAN</DistanceMeters>
          </Trackpoint>
          <Trackpoint>
            <Time>2020-03-07T16:29:18.000Z</Time>
            <Position>
              <LatitudeDegrees>40.72518269531428813934326171875</LatitudeDegrees>
              <LongitudeDegrees>-3.8686628825962543487548828125</LongitudeDegrees>
            </Position>
            <AltitudeMeters>910.4000244140625</AltitudeMeters>
            <DistanceMeters>NAN</DistanceMeters>
          </Trackpoint>
          <Trackpoint>
            <Time>2020-03-07T16:29:19.000Z</Time>
            <Position>
              <LatitudeDegrees>40.72516157291829586029052734375</LatitudeDegrees>
              <LongitudeDegrees>-3.86872331611812114715576171875</LongitudeDegrees>
            </Position>
            <AltitudeMeters>910.5999755859375</AltitudeMeters>
            <DistanceMeters>NAN</DistanceMeters>
          </Trackpoint>
          <Trackpoint>
            <Time>2020-03-07T16:29:20.000Z</Time>
            <Position>
              <LatitudeDegrees>40.72514497675001621246337890625</LatitudeDegrees>
              <LongitudeDegrees>-3.8687862642109394073486328125</LongitudeDegrees>
            </Position>
            <AltitudeMeters>911</AltitudeMeters>
            <DistanceMeters>NAN</DistanceMeters>
          </Trackpoint>
          <Trackpoint>
            <Time>2020-03-07T16:29:21.000Z</Time>
            <Position>
              <LatitudeDegrees>40.72513106279075145721435546875</LatitudeDegrees>
              <LongitudeDegrees>-3.86885172687470912933349609375</LongitudeDegrees>
            </Position>
            <AltitudeMeters>911.20001220703125</AltitudeMeters>
            <DistanceMeters>NAN</DistanceMeters>
          </Trackpoint>
          <Trackpoint>
            <Time>2020-03-07T16:29:22.000Z</Time>
            <Position>
              <LatitudeDegrees>40.72511874139308929443359375</LatitudeDegrees>
              <LongitudeDegrees>-3.86891962029039859771728515625</LongitudeDegrees>
            </Position>
            <AltitudeMeters>911.5999755859375</AltitudeMeters>
            <DistanceMeters>NAN</DistanceMeters>
          </Trackpoint>
          <Trackpoint>
            <Time>2020-03-07T16:29:23.000Z</Time>
            <Position>
              <LatitudeDegrees>40.72510658763349056243896484375</LatitudeDegrees>
              <LongitudeDegrees>-3.86898835189640522003173828125</LongitudeDegrees>
            </Position>
            <AltitudeMeters>911.79998779296875</AltitudeMeters>
            <DistanceMeters>NAN</DistanceMeters>
          </Trackpoint>
          <Trackpoint>
            <Time>2020-03-07T16:29:24.000Z</Time>
            <Position>
              <LatitudeDegrees>40.72509418241679668426513671875</LatitudeDegrees>
              <LongitudeDegrees>-3.86905775405466556549072265625</LongitudeDegrees>
            </Position>
            <AltitudeMeters>912</AltitudeMeters>
            <DistanceMeters>NAN</DistanceMeters>
          </Trackpoint>
          <Trackpoint>
            <Time>2020-03-07T16:29:25.000Z</Time>
            <Position>
              <LatitudeDegrees>40.72508261539041996002197265625</LatitudeDegrees>
              <LongitudeDegrees>-3.86912816204130649566650390625</LongitudeDegrees>
            </Position>
            <AltitudeMeters>912.4000244140625</AltitudeMeters>
            <DistanceMeters>NAN</DistanceMeters>
          </Trackpoint>
          <Trackpoint>
            <Time>2020-03-07T16:29:26.000Z</Time>
            <Position>
              <LatitudeDegrees>40.72506920434534549713134765625</LatitudeDegrees>
              <LongitudeDegrees>-3.8691978156566619873046875</LongitudeDegrees>
            </Position>
            <AltitudeMeters>912.5999755859375</AltitudeMeters>
            <DistanceMeters>NAN</DistanceMeters>
          </Trackpoint>
          <Trackpoint>
            <Time>2020-03-07T16:29:27.000Z</Time>
            <Position>
              <LatitudeDegrees>40.72505428455770015716552734375</LatitudeDegrees>
              <LongitudeDegrees>-3.86926780454814434051513671875</LongitudeDegrees>
            </Position>
            <AltitudeMeters>913</AltitudeMeters>
            <DistanceMeters>NAN</DistanceMeters>
          </Trackpoint>
          <Trackpoint>
            <Time>2020-03-07T16:29:28.000Z</Time>
            <Position>
              <LatitudeDegrees>40.72504204697906970977783203125</LatitudeDegrees>
              <LongitudeDegrees>-3.869338966906070709228515625</LongitudeDegrees>
            </Position>
            <AltitudeMeters>913.20001220703125</AltitudeMeters>
            <DistanceMeters>NAN</DistanceMeters>
          </Trackpoint>
          <Trackpoint>
            <Time>2020-03-07T16:29:29.000Z</Time>
            <Position>
              <LatitudeDegrees>40.7250295579433441162109375</LatitudeDegrees>
              <LongitudeDegrees>-3.86940895579755306243896484375</LongitudeDegrees>
            </Position>
            <AltitudeMeters>913.4000244140625</AltitudeMeters>
            <DistanceMeters>NAN</DistanceMeters>
          </Trackpoint>
          <Trackpoint>
            <Time>2020-03-07T16:29:30.000Z</Time>
            <Position>
              <LatitudeDegrees>40.72501388378441333770751953125</LatitudeDegrees>
              <LongitudeDegrees>-3.86947701685130596160888671875</LongitudeDegrees>
            </Position>
            <AltitudeMeters>913.79998779296875</AltitudeMeters>
            <DistanceMeters>NAN</DistanceMeters>
          </Trackpoint>
          <Trackpoint>
            <Time>2020-03-07T16:29:31.000Z</Time>
            <Position>
              <LatitudeDegrees>40.72501388378441333770751953125</LatitudeDegrees>
              <LongitudeDegrees>-3.86947701685130596160888671875</LongitudeDegrees>
            </Position>
            <AltitudeMeters>914</AltitudeMeters>
            <DistanceMeters>NAN</DistanceMeters>
          </Trackpoint>
          <Trackpoint>
            <Time>2020-03-07T16:29:32.000Z</Time>
            <Position>
              <LatitudeDegrees>40.72499678470194339752197265625</LatitudeDegrees>
              <LongitudeDegrees>-3.86954440735280513763427734375</LongitudeDegrees>
            </Position>
            <AltitudeMeters>914.20001220703125</AltitudeMeters>
            <DistanceMeters>NAN</DistanceMeters>
          </Trackpoint>
          <Trackpoint>
            <Time>2020-03-07T16:29:33.000Z</Time>
            <Position>
              <LatitudeDegrees>40.72497767396271228790283203125</LatitudeDegrees>
              <LongitudeDegrees>-3.86961012147367000579833984375</LongitudeDegrees>
            </Position>
            <AltitudeMeters>914.20001220703125</AltitudeMeters>
            <DistanceMeters>NAN</DistanceMeters>
          </Trackpoint>
          <Trackpoint>
            <Time>2020-03-07T16:29:34.000Z</Time>
            <Position>
              <LatitudeDegrees>40.724957473576068878173828125</LatitudeDegrees>
              <LongitudeDegrees>-3.86967415921390056610107421875</LongitudeDegrees>
            </Position>
            <AltitudeMeters>914.4000244140625</AltitudeMeters>
            <DistanceMeters>NAN</DistanceMeters>
          </Trackpoint>
          <Trackpoint>
            <Time>2020-03-07T16:29:35.000Z</Time>
            <Position>
              <LatitudeDegrees>40.72493760846555233001708984375</LatitudeDegrees>
              <LongitudeDegrees>-3.869737274944782257080078125</LongitudeDegrees>
            </Position>
            <AltitudeMeters>914.5999755859375</AltitudeMeters>
            <DistanceMeters>NAN</DistanceMeters>
          </Trackpoint>
          <Trackpoint>
            <Time>2020-03-07T16:29:36.000Z</Time>
            <Position>
              <LatitudeDegrees>40.72489921934902667999267578125</LatitudeDegrees>
              <LongitudeDegrees>-3.8698656857013702392578125</LongitudeDegrees>
            </Position>
            <AltitudeMeters>914.79998779296875</AltitudeMeters>
            <DistanceMeters>NAN</DistanceMeters>
          </Trackpoint>
          <Trackpoint>
            <Time>2020-03-07T16:29:37.000Z</Time>
            <Position>
              <LatitudeDegrees>40.7248801924288272857666015625</LatitudeDegrees>
              <LongitudeDegrees>-3.86993248946964740753173828125</LongitudeDegrees>
            </Position>
            <AltitudeMeters>915</AltitudeMeters>
            <DistanceMeters>NAN</DistanceMeters>
          </Trackpoint>
          <Trackpoint>
            <Time>2020-03-07T16:29:38.000Z</Time>
            <Position>
              <LatitudeDegrees>40.7248801924288272857666015625</LatitudeDegrees>
              <LongitudeDegrees>-3.86993248946964740753173828125</LongitudeDegrees>
            </Position>
            <AltitudeMeters>915.4000244140625</AltitudeMeters>
            <DistanceMeters>NAN</DistanceMeters>
          </Trackpoint>
          <Trackpoint>
            <Time>2020-03-07T16:29:39.000Z</Time>
            <Position>
              <LatitudeDegrees>40.72483669035136699676513671875</LatitudeDegrees>
              <LongitudeDegrees>-3.87006542645394802093505859375</LongitudeDegrees>
            </Position>
            <AltitudeMeters>915.5999755859375</AltitudeMeters>
            <DistanceMeters>NAN</DistanceMeters>
          </Trackpoint>
          <Trackpoint>
            <Time>2020-03-07T16:29:40.000Z</Time>
            <Position>
              <LatitudeDegrees>40.72483669035136699676513671875</LatitudeDegrees>
              <LongitudeDegrees>-3.87006542645394802093505859375</LongitudeDegrees>
            </Position>
            <AltitudeMeters>915.79998779296875</AltitudeMeters>
            <DistanceMeters>NAN</DistanceMeters>
          </Trackpoint>
          <Trackpoint>
            <Time>2020-03-07T16:29:41.000Z</Time>
            <Position>
              <LatitudeDegrees>40.72479126043617725372314453125</LatitudeDegrees>
              <LongitudeDegrees>-3.87020029127597808837890625</LongitudeDegrees>
            </Position>
            <AltitudeMeters>916</AltitudeMeters>
            <DistanceMeters>NAN</DistanceMeters>
          </Trackpoint>
          <Trackpoint>
            <Time>2020-03-07T16:29:42.000Z</Time>
            <Position>
              <LatitudeDegrees>40.72476812638342380523681640625</LatitudeDegrees>
              <LongitudeDegrees>-3.87026793323457241058349609375</LongitudeDegrees>
            </Position>
            <AltitudeMeters>916.20001220703125</AltitudeMeters>
            <DistanceMeters>NAN</DistanceMeters>
          </Trackpoint>
          <Trackpoint>
            <Time>2020-03-07T16:29:43.000Z</Time>
            <Position>
              <LatitudeDegrees>40.7247440703213214874267578125</LatitudeDegrees>
              <LongitudeDegrees>-3.87033632956445217132568359375</LongitudeDegrees>
            </Position>
            <AltitudeMeters>916.5999755859375</AltitudeMeters>
            <DistanceMeters>NAN</DistanceMeters>
          </Trackpoint>
          <Trackpoint>
            <Time>2020-03-07T16:29:44.000Z</Time>
            <Position>
              <LatitudeDegrees>40.7247440703213214874267578125</LatitudeDegrees>
              <LongitudeDegrees>-3.87033632956445217132568359375</LongitudeDegrees>
            </Position>
            <AltitudeMeters>916.5999755859375</AltitudeMeters>
            <DistanceMeters>NAN</DistanceMeters>
          </Trackpoint>
          <Trackpoint>
            <Time>2020-03-07T16:29:45.000Z</Time>
            <Position>
              <LatitudeDegrees>40.7246947847306728363037109375</LatitudeDegrees>
              <LongitudeDegrees>-3.8704745471477508544921875</LongitudeDegrees>
            </Position>
            <AltitudeMeters>916.79998779296875</AltitudeMeters>
            <DistanceMeters>NAN</DistanceMeters>
          </Trackpoint>
          <Trackpoint>
            <Time>2020-03-07T16:29:46.000Z</Time>
            <Position>
              <LatitudeDegrees>40.72466888464987277984619140625</LatitudeDegrees>
              <LongitudeDegrees>-3.870545290410518646240234375</LongitudeDegrees>
            </Position>
            <AltitudeMeters>916.79998779296875</AltitudeMeters>
            <DistanceMeters>NAN</DistanceMeters>
          </Trackpoint>
          <Trackpoint>
            <Time>2020-03-07T16:29:47.000Z</Time>
            <Position>
              <LatitudeDegrees>40.72464189492166042327880859375</LatitudeDegrees>
              <LongitudeDegrees>-3.87061662040650844573974609375</LongitudeDegrees>
            </Position>
            <AltitudeMeters>916.79998779296875</AltitudeMeters>
            <DistanceMeters>NAN</DistanceMeters>
          </Trackpoint>
          <Trackpoint>
            <Time>2020-03-07T16:29:48.000Z</Time>
            <Position>
              <LatitudeDegrees>40.72461524046957492828369140625</LatitudeDegrees>
              <LongitudeDegrees>-3.8706889562308788299560546875</LongitudeDegrees>
            </Position>
            <AltitudeMeters>916.79998779296875</AltitudeMeters>
            <DistanceMeters>NAN</DistanceMeters>
          </Trackpoint>
          <Trackpoint>
            <Time>2020-03-07T16:29:49.000Z</Time>
            <Position>
              <LatitudeDegrees>40.72458841837942600250244140625</LatitudeDegrees>
              <LongitudeDegrees>-3.87076355516910552978515625</LongitudeDegrees>
            </Position>
            <AltitudeMeters>917</AltitudeMeters>
            <DistanceMeters>NAN</DistanceMeters>
          </Trackpoint>
          <Trackpoint>
            <Time>2020-03-07T16:29:50.000Z</Time>
            <Position>
              <LatitudeDegrees>40.72455950081348419189453125</LatitudeDegrees>
              <LongitudeDegrees>-3.87083739973604679107666015625</LongitudeDegrees>
            </Position>
            <AltitudeMeters>917</AltitudeMeters>
            <DistanceMeters>NAN</DistanceMeters>
          </Trackpoint>
          <Trackpoint>
            <Time>2020-03-07T16:29:51.000Z</Time>
            <Position>
              <LatitudeDegrees>40.72453075088560581207275390625</LatitudeDegrees>
              <LongitudeDegrees>-3.8709122501313686370849609375</LongitudeDegrees>
            </Position>
            <AltitudeMeters>917</AltitudeMeters>
            <DistanceMeters>NAN</DistanceMeters>
          </Trackpoint>
          <Trackpoint>
            <Time>2020-03-07T16:29:52.000Z</Time>
            <Position>
              <LatitudeDegrees>40.72450225241482257843017578125</LatitudeDegrees>
              <LongitudeDegrees>-3.87098844163119792938232421875</LongitudeDegrees>
            </Position>
            <AltitudeMeters>917</AltitudeMeters>
            <DistanceMeters>NAN</DistanceMeters>
          </Trackpoint>
          <Trackpoint>
            <Time>2020-03-07T16:29:53.000Z</Time>
            <Position>
              <LatitudeDegrees>40.72447367012500762939453125</LatitudeDegrees>
              <LongitudeDegrees>-3.871065638959407806396484375</LongitudeDegrees>
            </Position>
            <AltitudeMeters>917</AltitudeMeters>
            <DistanceMeters>NAN</DistanceMeters>
          </Trackpoint>
          <Trackpoint>
            <Time>2020-03-07T16:29:54.000Z</Time>
            <Position>
              <LatitudeDegrees>40.72444458492100238800048828125</LatitudeDegrees>
              <LongitudeDegrees>-3.8711432553827762603759765625</LongitudeDegrees>
            </Position>
            <AltitudeMeters>917</AltitudeMeters>
            <DistanceMeters>NAN</DistanceMeters>
          </Trackpoint>
          <Trackpoint>
            <Time>2020-03-07T16:29:55.000Z</Time>
            <Position>
              <LatitudeDegrees>40.7244141586124897003173828125</LatitudeDegrees>
              <LongitudeDegrees>-3.87122045271098613739013671875</LongitudeDegrees>
            </Position>
            <AltitudeMeters>917</AltitudeMeters>
            <DistanceMeters>NAN</DistanceMeters>
          </Trackpoint>
          <Trackpoint>
            <Time>2020-03-07T16:29:56.000Z</Time>
            <Position>
              <LatitudeDegrees>40.72438356466591358184814453125</LatitudeDegrees>
              <LongitudeDegrees>-3.87129924260079860687255859375</LongitudeDegrees>
            </Position>
            <AltitudeMeters>917</AltitudeMeters>
            <DistanceMeters>NAN</DistanceMeters>
          </Trackpoint>
          <Trackpoint>
            <Time>2020-03-07T16:29:57.000Z</Time>
            <Position>
              <LatitudeDegrees>40.72435355745255947113037109375</LatitudeDegrees>
              <LongitudeDegrees>-3.87137870304286479949951171875</LongitudeDegrees>
            </Position>
            <AltitudeMeters>916.79998779296875</AltitudeMeters>
            <DistanceMeters>NAN</DistanceMeters>
          </Trackpoint>
          <Trackpoint>
            <Time>2020-03-07T16:29:58.000Z</Time>
            <Position>
              <LatitudeDegrees>40.72432438842952251434326171875</LatitudeDegrees>
              <LongitudeDegrees>-3.87145950458943843841552734375</LongitudeDegrees>
            </Position>
            <AltitudeMeters>916.79998779296875</AltitudeMeters>
            <DistanceMeters>NAN</DistanceMeters>
          </Trackpoint>
          <Trackpoint>
            <Time>2020-03-07T16:29:59.000Z</Time>
            <Position>
              <LatitudeDegrees>40.72429521940648555755615234375</LatitudeDegrees>
              <LongitudeDegrees>-3.87154097668826580047607421875</LongitudeDegrees>
            </Position>
            <AltitudeMeters>916.5999755859375</AltitudeMeters>
            <DistanceMeters>NAN</DistanceMeters>
          </Trackpoint>
          <Trackpoint>
            <Time>2020-03-07T16:30:00.000Z</Time>
            <Position>
              <LatitudeDegrees>40.724265463650226593017578125</LatitudeDegrees>
              <LongitudeDegrees>-3.87162278406322002410888671875</LongitudeDegrees>
            </Position>
            <AltitudeMeters>916.5999755859375</AltitudeMeters>
            <DistanceMeters>NAN</DistanceMeters>
          </Trackpoint>
          <Trackpoint>
            <Time>2020-03-07T16:30:01.000Z</Time>
            <Position>
              <LatitudeDegrees>40.72423755191266536712646484375</LatitudeDegrees>
              <LongitudeDegrees>-3.871706016361713409423828125</LongitudeDegrees>
            </Position>
            <AltitudeMeters>916.4000244140625</AltitudeMeters>
            <DistanceMeters>NAN</DistanceMeters>
          </Trackpoint>
          <Trackpoint>
            <Time>2020-03-07T16:30:02.000Z</Time>
            <Position>
              <LatitudeDegrees>40.72421156801283359527587890625</LatitudeDegrees>
              <LongitudeDegrees>-3.8717901706695556640625</LongitudeDegrees>
            </Position>
            <AltitudeMeters>916.4000244140625</AltitudeMeters>
            <DistanceMeters>NAN</DistanceMeters>
          </Trackpoint>
          <Trackpoint>
            <Time>2020-03-07T16:30:03.000Z</Time>
            <Position>
              <LatitudeDegrees>40.724187009036540985107421875</LatitudeDegrees>
              <LongitudeDegrees>-3.87187591753900051116943359375</LongitudeDegrees>
            </Position>
            <AltitudeMeters>916.4000244140625</AltitudeMeters>
            <DistanceMeters>NAN</DistanceMeters>
          </Trackpoint>
          <Trackpoint>
            <Time>2020-03-07T16:30:04.000Z</Time>
            <Position>
              <LatitudeDegrees>40.72416295297443866729736328125</LatitudeDegrees>
              <LongitudeDegrees>-3.8719630055129528045654296875</LongitudeDegrees>
            </Position>
            <AltitudeMeters>916.4000244140625</AltitudeMeters>
            <DistanceMeters>NAN</DistanceMeters>
          </Trackpoint>
          <Trackpoint>
            <Time>2020-03-07T16:30:05.000Z</Time>
            <Position>
              <LatitudeDegrees>40.72413914836943149566650390625</LatitudeDegrees>
              <LongitudeDegrees>-3.87205076403915882110595703125</LongitudeDegrees>
            </Position>
            <AltitudeMeters>916.4000244140625</AltitudeMeters>
            <DistanceMeters>NAN</DistanceMeters>
          </Trackpoint>
          <Trackpoint>
            <Time>2020-03-07T16:30:06.000Z</Time>
            <Position>
              <LatitudeDegrees>40.72411769069731235504150390625</LatitudeDegrees>
              <LongitudeDegrees>-3.87213977985084056854248046875</LongitudeDegrees>
            </Position>
            <AltitudeMeters>916.4000244140625</AltitudeMeters>
            <DistanceMeters>NAN</DistanceMeters>
          </Trackpoint>
          <Trackpoint>
            <Time>2020-03-07T16:30:07.000Z</Time>
            <Position>
              <LatitudeDegrees>40.72409958578646183013916015625</LatitudeDegrees>
              <LongitudeDegrees>-3.87222996912896633148193359375</LongitudeDegrees>
            </Position>
            <AltitudeMeters>916.5999755859375</AltitudeMeters>
            <DistanceMeters>NAN</DistanceMeters>
          </Trackpoint>
          <Trackpoint>
            <Time>2020-03-07T16:30:08.000Z</Time>
            <Position>
              <LatitudeDegrees>40.7240849174559116363525390625</LatitudeDegrees>
              <LongitudeDegrees>-3.87232166714966297149658203125</LongitudeDegrees>
            </Position>
            <AltitudeMeters>916.4000244140625</AltitudeMeters>
            <DistanceMeters>NAN</DistanceMeters>
          </Trackpoint>
          <Trackpoint>
            <Time>2020-03-07T16:30:09.000Z</Time>
            <Position>
              <LatitudeDegrees>40.72407192550599575042724609375</LatitudeDegrees>
              <LongitudeDegrees>-3.87241420336067676544189453125</LongitudeDegrees>
            </Position>
            <AltitudeMeters>916.4000244140625</AltitudeMeters>
            <DistanceMeters>NAN</DistanceMeters>
          </Trackpoint>
          <Trackpoint>
            <Time>2020-03-07T16:30:10.000Z</Time>
            <Position>
              <LatitudeDegrees>40.7240607775747776031494140625</LatitudeDegrees>
              <LongitudeDegrees>-3.87250690720975399017333984375</LongitudeDegrees>
            </Position>
            <AltitudeMeters>916.4000244140625</AltitudeMeters>
            <DistanceMeters>NAN</DistanceMeters>
          </Trackpoint>
          <Trackpoint>
            <Time>2020-03-07T16:30:11.000Z</Time>
            <Position>
              <LatitudeDegrees>40.724051892757415771484375</LatitudeDegrees>
              <LongitudeDegrees>-3.87260086834430694580078125</LongitudeDegrees>
            </Position>
            <AltitudeMeters>916.4000244140625</AltitudeMeters>
            <DistanceMeters>NAN</DistanceMeters>
          </Trackpoint>
          <Trackpoint>
            <Time>2020-03-07T16:30:12.000Z</Time>
            <Position>
              <LatitudeDegrees>40.72404460050165653228759765625</LatitudeDegrees>
              <LongitudeDegrees>-3.872695751488208770751953125</LongitudeDegrees>
            </Position>
            <AltitudeMeters>916.5999755859375</AltitudeMeters>
            <DistanceMeters>NAN</DistanceMeters>
          </Trackpoint>
          <Trackpoint>
            <Time>2020-03-07T16:30:13.000Z</Time>
            <Position>
              <LatitudeDegrees>40.72403973899781703948974609375</LatitudeDegrees>
              <LongitudeDegrees>-3.8727904669940471649169921875</LongitudeDegrees>
            </Position>
            <AltitudeMeters>916.5999755859375</AltitudeMeters>
            <DistanceMeters>NAN</DistanceMeters>
          </Trackpoint>
          <Trackpoint>
            <Time>2020-03-07T16:30:14.000Z</Time>
            <Position>
              <LatitudeDegrees>40.72403705678880214691162109375</LatitudeDegrees>
              <LongitudeDegrees>-3.87288426049053668975830078125</LongitudeDegrees>
            </Position>
            <AltitudeMeters>916.5999755859375</AltitudeMeters>
            <DistanceMeters>NAN</DistanceMeters>
          </Trackpoint>
          <Trackpoint>
            <Time>2020-03-07T16:30:15.000Z</Time>
            <Position>
              <LatitudeDegrees>40.72403605096042156219482421875</LatitudeDegrees>
              <LongitudeDegrees>-3.87297981418669223785400390625</LongitudeDegrees>
            </Position>
            <AltitudeMeters>916.5999755859375</AltitudeMeters>
            <DistanceMeters>NAN</DistanceMeters>
          </Trackpoint>
          <Trackpoint>
            <Time>2020-03-07T16:30:16.000Z</Time>
            <Position>
              <LatitudeDegrees>40.7240349613130092620849609375</LatitudeDegrees>
              <LongitudeDegrees>-3.873076625168323516845703125</LongitudeDegrees>
            </Position>
            <AltitudeMeters>916.5999755859375</AltitudeMeters>
            <DistanceMeters>NAN</DistanceMeters>
          </Trackpoint>
          <Trackpoint>
            <Time>2020-03-07T16:30:17.000Z</Time>
            <Position>
              <LatitudeDegrees>40.724034123122692108154296875</LatitudeDegrees>
              <LongitudeDegrees>-3.87317444197833538055419921875</LongitudeDegrees>
            </Position>
            <AltitudeMeters>916.5999755859375</AltitudeMeters>
            <DistanceMeters>NAN</DistanceMeters>
          </Trackpoint>
          <Trackpoint>
            <Time>2020-03-07T16:30:18.000Z</Time>
            <Position>
              <LatitudeDegrees>40.724033452570438385009765625</LatitudeDegrees>
              <LongitudeDegrees>-3.87327435426414012908935546875</LongitudeDegrees>
            </Position>
            <AltitudeMeters>916.5999755859375</AltitudeMeters>
            <DistanceMeters>NAN</DistanceMeters>
          </Trackpoint>
          <Trackpoint>
            <Time>2020-03-07T16:30:19.000Z</Time>
            <Position>
              <LatitudeDegrees>40.7240329496562480926513671875</LatitudeDegrees>
              <LongitudeDegrees>-3.8733758591115474700927734375</LongitudeDegrees>
            </Position>
            <AltitudeMeters>916.5999755859375</AltitudeMeters>
            <DistanceMeters>NAN</DistanceMeters>
          </Trackpoint>
          <Trackpoint>
            <Time>2020-03-07T16:30:20.000Z</Time>
            <Position>
              <LatitudeDegrees>40.72403336875140666961669921875</LatitudeDegrees>
              <LongitudeDegrees>-3.8734797947108745574951171875</LongitudeDegrees>
            </Position>
            <AltitudeMeters>916.5999755859375</AltitudeMeters>
            <DistanceMeters>NAN</DistanceMeters>
          </Trackpoint>
          <Trackpoint>
            <Time>2020-03-07T16:30:21.000Z</Time>
            <Position>
              <LatitudeDegrees>40.7240356318652629852294921875</LatitudeDegrees>
              <LongitudeDegrees>-3.87358582578599452972412109375</LongitudeDegrees>
            </Position>
            <AltitudeMeters>916.5999755859375</AltitudeMeters>
            <DistanceMeters>NAN</DistanceMeters>
          </Trackpoint>
          <Trackpoint>
            <Time>2020-03-07T16:30:22.000Z</Time>
            <Position>
              <LatitudeDegrees>40.7240393199026584625244140625</LatitudeDegrees>
              <LongitudeDegrees>-3.87369361706078052520751953125</LongitudeDegrees>
            </Position>
            <AltitudeMeters>916.5999755859375</AltitudeMeters>
            <DistanceMeters>NAN</DistanceMeters>
          </Trackpoint>
          <Trackpoint>
            <Time>2020-03-07T16:30:23.000Z</Time>
            <Position>
              <LatitudeDegrees>40.724041163921356201171875</LatitudeDegrees>
              <LongitudeDegrees>-3.87380341999232769012451171875</LongitudeDegrees>
            </Position>
            <AltitudeMeters>916.5999755859375</AltitudeMeters>
            <DistanceMeters>NAN</DistanceMeters>
          </Trackpoint>
          <Trackpoint>
            <Time>2020-03-07T16:30:24.000Z</Time>
            <Position>
              <LatitudeDegrees>40.72404175065457820892333984375</LatitudeDegrees>
              <LongitudeDegrees>-3.87391506694257259368896484375</LongitudeDegrees>
            </Position>
            <AltitudeMeters>916.5999755859375</AltitudeMeters>
            <DistanceMeters>NAN</DistanceMeters>
          </Trackpoint>
          <Trackpoint>
            <Time>2020-03-07T16:30:25.000Z</Time>
            <Position>
              <LatitudeDegrees>40.7240420021116733551025390625</LatitudeDegrees>
              <LongitudeDegrees>-3.87402872554957866668701171875</LongitudeDegrees>
            </Position>
            <AltitudeMeters>916.5999755859375</AltitudeMeters>
            <DistanceMeters>NAN</DistanceMeters>
          </Trackpoint>
          <Trackpoint>
            <Time>2020-03-07T16:30:26.000Z</Time>
            <Position>
              <LatitudeDegrees>40.72404141537845134735107421875</LatitudeDegrees>
              <LongitudeDegrees>-3.87414389289915561676025390625</LongitudeDegrees>
            </Position>
            <AltitudeMeters>916.5999755859375</AltitudeMeters>
            <DistanceMeters>NAN</DistanceMeters>
          </Trackpoint>
          <Trackpoint>
            <Time>2020-03-07T16:30:27.000Z</Time>
            <Position>
              <LatitudeDegrees>40.72404191829264163970947265625</LatitudeDegrees>
              <LongitudeDegrees>-3.87426040135324001312255859375</LongitudeDegrees>
            </Position>
            <AltitudeMeters>916.5999755859375</AltitudeMeters>
            <DistanceMeters>NAN</DistanceMeters>
          </Trackpoint>
          <Trackpoint>
            <Time>2020-03-07T16:30:28.000Z</Time>
            <Position>
              <LatitudeDegrees>40.72404275648295879364013671875</LatitudeDegrees>
              <LongitudeDegrees>-3.87437808327376842498779296875</LongitudeDegrees>
            </Position>
            <AltitudeMeters>916.4000244140625</AltitudeMeters>
            <DistanceMeters>NAN</DistanceMeters>
          </Trackpoint>
          <Trackpoint>
            <Time>2020-03-07T16:30:29.000Z</Time>
            <Position>
              <LatitudeDegrees>40.72404384613037109375</LatitudeDegrees>
              <LongitudeDegrees>-3.874496519565582275390625</LongitudeDegrees>
            </Position>
            <AltitudeMeters>916.4000244140625</AltitudeMeters>
            <DistanceMeters>NAN</DistanceMeters>
          </Trackpoint>
          <Trackpoint>
            <Time>2020-03-07T16:30:30.000Z</Time>
            <Position>
              <LatitudeDegrees>40.72404610924422740936279296875</LatitudeDegrees>
              <LongitudeDegrees>-3.87461545877158641815185546875</LongitudeDegrees>
            </Position>
            <AltitudeMeters>916.20001220703125</AltitudeMeters>
            <DistanceMeters>NAN</DistanceMeters>
          </Trackpoint>
          <Trackpoint>
            <Time>2020-03-07T16:30:31.000Z</Time>
            <Position>
              <LatitudeDegrees>40.724047534167766571044921875</LatitudeDegrees>
              <LongitudeDegrees>-3.8747343979775905609130859375</LongitudeDegrees>
            </Position>
            <AltitudeMeters>916</AltitudeMeters>
            <DistanceMeters>NAN</DistanceMeters>
          </Trackpoint>
          <Trackpoint>
            <Time>2020-03-07T16:30:32.000Z</Time>
            <Position>
              <LatitudeDegrees>40.7240483723580837249755859375</LatitudeDegrees>
              <LongitudeDegrees>-3.874854259192943572998046875</LongitudeDegrees>
            </Position>
            <AltitudeMeters>915.5999755859375</AltitudeMeters>
            <DistanceMeters>NAN</DistanceMeters>
          </Trackpoint>
          <Trackpoint>
            <Time>2020-03-07T16:30:33.000Z</Time>
            <Position>
              <LatitudeDegrees>40.7240503840148448944091796875</LatitudeDegrees>
              <LongitudeDegrees>-3.8749751262366771697998046875</LongitudeDegrees>
            </Position>
            <AltitudeMeters>915.20001220703125</AltitudeMeters>
            <DistanceMeters>NAN</DistanceMeters>
          </Trackpoint>
          <Trackpoint>
            <Time>2020-03-07T16:30:34.000Z</Time>
            <Position>
              <LatitudeDegrees>40.7240530662238597869873046875</LatitudeDegrees>
              <LongitudeDegrees>-3.87509574182331562042236328125</LongitudeDegrees>
            </Position>
            <AltitudeMeters>914.5999755859375</AltitudeMeters>
            <DistanceMeters>NAN</DistanceMeters>
          </Trackpoint>
          <Trackpoint>
            <Time>2020-03-07T16:30:35.000Z</Time>
            <Position>
              <LatitudeDegrees>40.7240554131567478179931640625</LatitudeDegrees>
              <LongitudeDegrees>-3.87521727941930294036865234375</LongitudeDegrees>
            </Position>
            <AltitudeMeters>914.20001220703125</AltitudeMeters>
            <DistanceMeters>NAN</DistanceMeters>
          </Trackpoint>
          <Trackpoint>
            <Time>2020-03-07T16:30:36.000Z</Time>
            <Position>
              <LatitudeDegrees>40.72405700571835041046142578125</LatitudeDegrees>
              <LongitudeDegrees>-3.87533940374851226806640625</LongitudeDegrees>
            </Position>
            <AltitudeMeters>913.79998779296875</AltitudeMeters>
            <DistanceMeters>NAN</DistanceMeters>
          </Trackpoint>
          <Trackpoint>
            <Time>2020-03-07T16:30:37.000Z</Time>
            <Position>
              <LatitudeDegrees>40.724057257175445556640625</LatitudeDegrees>
              <LongitudeDegrees>-3.87546152807772159576416015625</LongitudeDegrees>
            </Position>
            <AltitudeMeters>913.4000244140625</AltitudeMeters>
            <DistanceMeters>NAN</DistanceMeters>
          </Trackpoint>
          <Trackpoint>
            <Time>2020-03-07T16:30:38.000Z</Time>
            <Position>
              <LatitudeDegrees>40.7240554131567478179931640625</LatitudeDegrees>
              <LongitudeDegrees>-3.8755836524069309234619140625</LongitudeDegrees>
            </Position>
            <AltitudeMeters>912.79998779296875</AltitudeMeters>
            <DistanceMeters>NAN</DistanceMeters>
          </Trackpoint>
          <Trackpoint>
            <Time>2020-03-07T16:30:39.000Z</Time>
            <Position>
              <LatitudeDegrees>40.7240510545670986175537109375</LatitudeDegrees>
              <LongitudeDegrees>-3.8757056929171085357666015625</LongitudeDegrees>
            </Position>
            <AltitudeMeters>912.4000244140625</AltitudeMeters>
            <DistanceMeters>NAN</DistanceMeters>
          </Trackpoint>
          <Trackpoint>
            <Time>2020-03-07T16:30:40.000Z</Time>
            <Position>
              <LatitudeDegrees>40.7240460254251956939697265625</LatitudeDegrees>
              <LongitudeDegrees>-3.87582781724631786346435546875</LongitudeDegrees>
            </Position>
            <AltitudeMeters>912</AltitudeMeters>
            <DistanceMeters>NAN</DistanceMeters>
          </Trackpoint>
          <Trackpoint>
            <Time>2020-03-07T16:30:41.000Z</Time>
            <Position>
              <LatitudeDegrees>40.72404124774038791656494140625</LatitudeDegrees>
              <LongitudeDegrees>-3.87594969011843204498291015625</LongitudeDegrees>
            </Position>
            <AltitudeMeters>911.79998779296875</AltitudeMeters>
            <DistanceMeters>NAN</DistanceMeters>
          </Trackpoint>
          <Trackpoint>
            <Time>2020-03-07T16:30:42.000Z</Time>
            <Position>
              <LatitudeDegrees>40.72403512895107269287109375</LatitudeDegrees>
              <LongitudeDegrees>-3.87607164680957794189453125</LongitudeDegrees>
            </Position>
            <AltitudeMeters>911.5999755859375</AltitudeMeters>
            <DistanceMeters>NAN</DistanceMeters>
          </Trackpoint>
          <Trackpoint>
            <Time>2020-03-07T16:30:43.000Z</Time>
            <Position>
              <LatitudeDegrees>40.72402574121952056884765625</LatitudeDegrees>
              <LongitudeDegrees>-3.87619326822459697723388671875</LongitudeDegrees>
            </Position>
            <AltitudeMeters>911.4000244140625</AltitudeMeters>
            <DistanceMeters>NAN</DistanceMeters>
          </Trackpoint>
          <Trackpoint>
            <Time>2020-03-07T16:30:44.000Z</Time>
            <Position>
              <LatitudeDegrees>40.7240130007266998291015625</LatitudeDegrees>
              <LongitudeDegrees>-3.8763145543634891510009765625</LongitudeDegrees>
            </Position>
            <AltitudeMeters>911.20001220703125</AltitudeMeters>
            <DistanceMeters>NAN</DistanceMeters>
          </Trackpoint>
          <Trackpoint>
            <Time>2020-03-07T16:30:45.000Z</Time>
            <Position>
              <LatitudeDegrees>40.7239964045584201812744140625</LatitudeDegrees>
              <LongitudeDegrees>-3.8764355890452861785888671875</LongitudeDegrees>
            </Position>
            <AltitudeMeters>910.79998779296875</AltitudeMeters>
            <DistanceMeters>NAN</DistanceMeters>
          </Trackpoint>
          <Trackpoint>
            <Time>2020-03-07T16:30:46.000Z</Time>
            <Position>
              <LatitudeDegrees>40.7239759527146816253662109375</LatitudeDegrees>
              <LongitudeDegrees>-3.8765556178987026214599609375</LongitudeDegrees>
            </Position>
            <AltitudeMeters>910.4000244140625</AltitudeMeters>
            <DistanceMeters>NAN</DistanceMeters>
          </Trackpoint>
          <Trackpoint>
            <Time>2020-03-07T16:30:47.000Z</Time>
            <Position>
              <LatitudeDegrees>40.72395189665257930755615234375</LatitudeDegrees>
              <LongitudeDegrees>-3.87667556293308734893798828125</LongitudeDegrees>
            </Position>
            <AltitudeMeters>910</AltitudeMeters>
            <DistanceMeters>NAN</DistanceMeters>
          </Trackpoint>
          <Trackpoint>
            <Time>2020-03-07T16:30:48.000Z</Time>
            <Position>
              <LatitudeDegrees>40.72392373345792293548583984375</LatitudeDegrees>
              <LongitudeDegrees>-3.87679458595812320709228515625</LongitudeDegrees>
            </Position>
            <AltitudeMeters>909.5999755859375</AltitudeMeters>
            <DistanceMeters>NAN</DistanceMeters>
          </Trackpoint>
          <Trackpoint>
            <Time>2020-03-07T16:30:49.000Z</Time>
            <Position>
              <LatitudeDegrees>40.7238907925784587860107421875</LatitudeDegrees>
              <LongitudeDegrees>-3.87691210024058818817138671875</LongitudeDegrees>
            </Position>
            <AltitudeMeters>909.4000244140625</AltitudeMeters>
            <DistanceMeters>NAN</DistanceMeters>
          </Trackpoint>
          <Trackpoint>
            <Time>2020-03-07T16:30:50.000Z</Time>
            <Position>
              <LatitudeDegrees>40.72385299019515514373779296875</LatitudeDegrees>
              <LongitudeDegrees>-3.877028524875640869140625</LongitudeDegrees>
            </Position>
            <AltitudeMeters>909</AltitudeMeters>
            <DistanceMeters>NAN</DistanceMeters>
          </Trackpoint>
          <Trackpoint>
            <Time>2020-03-07T16:30:51.000Z</Time>
            <Position>
              <LatitudeDegrees>40.7238099910318851470947265625</LatitudeDegrees>
              <LongitudeDegrees>-3.87714318931102752685546875</LongitudeDegrees>
            </Position>
            <AltitudeMeters>908.79998779296875</AltitudeMeters>
            <DistanceMeters>NAN</DistanceMeters>
          </Trackpoint>
          <Trackpoint>
            <Time>2020-03-07T16:30:52.000Z</Time>
            <Position>
              <LatitudeDegrees>40.72376414202153682708740234375</LatitudeDegrees>
              <LongitudeDegrees>-3.87725584208965301513671875</LongitudeDegrees>
            </Position>
            <AltitudeMeters>908.4000244140625</AltitudeMeters>
            <DistanceMeters>NAN</DistanceMeters>
          </Trackpoint>
          <Trackpoint>
            <Time>2020-03-07T16:30:53.000Z</Time>
            <Position>
              <LatitudeDegrees>40.723716281354427337646484375</LatitudeDegrees>
              <LongitudeDegrees>-3.8773678243160247802734375</LongitudeDegrees>
            </Position>
            <AltitudeMeters>908.20001220703125</AltitudeMeters>
            <DistanceMeters>NAN</DistanceMeters>
          </Trackpoint>
          <Trackpoint>
            <Time>2020-03-07T16:30:54.000Z</Time>
            <Position>
              <LatitudeDegrees>40.72366590611636638641357421875</LatitudeDegrees>
              <LongitudeDegrees>-3.877476789057254791259765625</LongitudeDegrees>
            </Position>
            <AltitudeMeters>908</AltitudeMeters>
            <DistanceMeters>NAN</DistanceMeters>
          </Trackpoint>
          <Trackpoint>
            <Time>2020-03-07T16:30:55.000Z</Time>
            <Position>
              <LatitudeDegrees>40.7236108370125293731689453125</LatitudeDegrees>
              <LongitudeDegrees>-3.8775815628468990325927734375</LongitudeDegrees>
            </Position>
            <AltitudeMeters>907.4000244140625</AltitudeMeters>
            <DistanceMeters>NAN</DistanceMeters>
          </Trackpoint>
          <Trackpoint>
            <Time>2020-03-07T16:30:56.000Z</Time>
            <Position>
              <LatitudeDegrees>40.72355275042355060577392578125</LatitudeDegrees>
              <LongitudeDegrees>-3.87768155895173549652099609375</LongitudeDegrees>
            </Position>
            <AltitudeMeters>907.20001220703125</AltitudeMeters>
            <DistanceMeters>NAN</DistanceMeters>
          </Trackpoint>
          <Trackpoint>
            <Time>2020-03-07T16:30:57.000Z</Time>
            <Position>
              <LatitudeDegrees>40.723492316901683807373046875</LatitudeDegrees>
              <LongitudeDegrees>-3.87777828611433506011962890625</LongitudeDegrees>
            </Position>
            <AltitudeMeters>906.79998779296875</AltitudeMeters>
            <DistanceMeters>NAN</DistanceMeters>
          </Trackpoint>
          <Trackpoint>
            <Time>2020-03-07T16:30:58.000Z</Time>
            <Position>
              <LatitudeDegrees>40.72342953644692897796630859375</LatitudeDegrees>
              <LongitudeDegrees>-3.87787098996341228485107421875</LongitudeDegrees>
            </Position>
            <AltitudeMeters>906.20001220703125</AltitudeMeters>
            <DistanceMeters>NAN</DistanceMeters>
          </Trackpoint>
          <Trackpoint>
            <Time>2020-03-07T16:30:59.000Z</Time>
            <Position>
              <LatitudeDegrees>40.7233644090592861175537109375</LatitudeDegrees>
              <LongitudeDegrees>-3.8779584132134914398193359375</LongitudeDegrees>
            </Position>
            <AltitudeMeters>905.79998779296875</AltitudeMeters>
            <DistanceMeters>NAN</DistanceMeters>
          </Trackpoint>
          <Trackpoint>
            <Time>2020-03-07T16:31:00.000Z</Time>
            <Position>
              <LatitudeDegrees>40.7232960127294063568115234375</LatitudeDegrees>
              <LongitudeDegrees>-3.8780402205884456634521484375</LongitudeDegrees>
            </Position>
            <AltitudeMeters>905.4000244140625</AltitudeMeters>
            <DistanceMeters>NAN</DistanceMeters>
          </Trackpoint>
          <Trackpoint>
            <Time>2020-03-07T16:31:01.000Z</Time>
            <Position>
              <LatitudeDegrees>40.723225772380828857421875</LatitudeDegrees>
              <LongitudeDegrees>-3.878117166459560394287109375</LongitudeDegrees>
            </Position>
            <AltitudeMeters>905.4000244140625</AltitudeMeters>
            <DistanceMeters>NAN</DistanceMeters>
          </Trackpoint>
          <Trackpoint>
            <Time>2020-03-07T16:31:02.000Z</Time>
            <Position>
              <LatitudeDegrees>40.72315402328968048095703125</LatitudeDegrees>
              <LongitudeDegrees>-3.8781912624835968017578125</LongitudeDegrees>
            </Position>
            <AltitudeMeters>905.4000244140625</AltitudeMeters>
            <DistanceMeters>NAN</DistanceMeters>
          </Trackpoint>
          <Trackpoint>
            <Time>2020-03-07T16:31:03.000Z</Time>
            <Position>
              <LatitudeDegrees>40.72308151982724666595458984375</LatitudeDegrees>
              <LongitudeDegrees>-3.8782645203173160552978515625</LongitudeDegrees>
            </Position>
            <AltitudeMeters>905.20001220703125</AltitudeMeters>
            <DistanceMeters>NAN</DistanceMeters>
          </Trackpoint>
          <Trackpoint>
            <Time>2020-03-07T16:31:04.000Z</Time>
            <Position>
              <LatitudeDegrees>40.72300893254578113555908203125</LatitudeDegrees>
              <LongitudeDegrees>-3.8783372752368450164794921875</LongitudeDegrees>
            </Position>
            <AltitudeMeters>905.20001220703125</AltitudeMeters>
            <DistanceMeters>NAN</DistanceMeters>
          </Trackpoint>
          <Trackpoint>
            <Time>2020-03-07T16:31:05.000Z</Time>
            <Position>
              <LatitudeDegrees>40.7229355908930301666259765625</LatitudeDegrees>
              <LongitudeDegrees>-3.87840810231864452362060546875</LongitudeDegrees>
            </Position>
            <AltitudeMeters>905.20001220703125</AltitudeMeters>
            <DistanceMeters>NAN</DistanceMeters>
          </Trackpoint>
          <Trackpoint>
            <Time>2020-03-07T16:31:06.000Z</Time>
            <Position>
              <LatitudeDegrees>40.72286166250705718994140625</LatitudeDegrees>
              <LongitudeDegrees>-3.87847624719142913818359375</LongitudeDegrees>
            </Position>
            <AltitudeMeters>905.20001220703125</AltitudeMeters>
            <DistanceMeters>NAN</DistanceMeters>
          </Trackpoint>
          <Trackpoint>
            <Time>2020-03-07T16:31:07.000Z</Time>
            <Position>
              <LatitudeDegrees>40.72278714738786220550537109375</LatitudeDegrees>
              <LongitudeDegrees>-3.8785426318645477294921875</LongitudeDegrees>
            </Position>
            <AltitudeMeters>905.20001220703125</AltitudeMeters>
            <DistanceMeters>NAN</DistanceMeters>
          </Trackpoint>
          <Trackpoint>
            <Time>2020-03-07T16:31:08.000Z</Time>
            <Position>
              <LatitudeDegrees>40.7227116264402866363525390625</LatitudeDegrees>
              <LongitudeDegrees>-3.87860675342381000518798828125</LongitudeDegrees>
            </Position>
            <AltitudeMeters>905.20001220703125</AltitudeMeters>
            <DistanceMeters>NAN</DistanceMeters>
          </Trackpoint>
          <Trackpoint>
            <Time>2020-03-07T16:31:09.000Z</Time>
            <Position>
              <LatitudeDegrees>40.7226361893117427825927734375</LatitudeDegrees>
              <LongitudeDegrees>-3.878670036792755126953125</LongitudeDegrees>
            </Position>
            <AltitudeMeters>905</AltitudeMeters>
            <DistanceMeters>NAN</DistanceMeters>
          </Trackpoint>
          <Trackpoint>
            <Time>2020-03-07T16:31:10.000Z</Time>
            <Position>
              <LatitudeDegrees>40.72256133891642093658447265625</LatitudeDegrees>
              <LongitudeDegrees>-3.8787332363426685333251953125</LongitudeDegrees>
            </Position>
            <AltitudeMeters>905</AltitudeMeters>
            <DistanceMeters>NAN</DistanceMeters>
          </Trackpoint>
          <Trackpoint>
            <Time>2020-03-07T16:31:11.000Z</Time>
            <Position>
              <LatitudeDegrees>40.72248640470206737518310546875</LatitudeDegrees>
              <LongitudeDegrees>-3.878796100616455078125</LongitudeDegrees>
            </Position>
            <AltitudeMeters>905</AltitudeMeters>
            <DistanceMeters>NAN</DistanceMeters>
          </Trackpoint>
          <Trackpoint>
            <Time>2020-03-07T16:31:12.000Z</Time>
            <Position>
              <LatitudeDegrees>40.7224118895828723907470703125</LatitudeDegrees>
              <LongitudeDegrees>-3.878858126699924468994140625</LongitudeDegrees>
            </Position>
            <AltitudeMeters>905</AltitudeMeters>
            <DistanceMeters>NAN</DistanceMeters>
          </Trackpoint>
          <Trackpoint>
            <Time>2020-03-07T16:31:13.000Z</Time>
            <Position>
              <LatitudeDegrees>40.7223379611968994140625</LatitudeDegrees>
              <LongitudeDegrees>-3.878920488059520721435546875</LongitudeDegrees>
            </Position>
            <AltitudeMeters>905</AltitudeMeters>
            <DistanceMeters>NAN</DistanceMeters>
          </Trackpoint>
          <Trackpoint>
            <Time>2020-03-07T16:31:14.000Z</Time>
            <Position>
              <LatitudeDegrees>40.72226478718221187591552734375</LatitudeDegrees>
              <LongitudeDegrees>-3.8789826817810535430908203125</LongitudeDegrees>
            </Position>
            <AltitudeMeters>905</AltitudeMeters>
            <DistanceMeters>NAN</DistanceMeters>
          </Trackpoint>
          <Trackpoint>
            <Time>2020-03-07T16:31:15.000Z</Time>
            <Position>
              <LatitudeDegrees>40.72226478718221187591552734375</LatitudeDegrees>
              <LongitudeDegrees>-3.8789826817810535430908203125</LongitudeDegrees>
            </Position>
            <AltitudeMeters>905</AltitudeMeters>
            <DistanceMeters>NAN</DistanceMeters>
          </Trackpoint>
          <Trackpoint>
            <Time>2020-03-07T16:31:16.000Z</Time>
            <Position>
              <LatitudeDegrees>40.7221919484436511993408203125</LatitudeDegrees>
              <LongitudeDegrees>-3.87904378585517406463623046875</LongitudeDegrees>
            </Position>
            <AltitudeMeters>905.20001220703125</AltitudeMeters>
            <DistanceMeters>NAN</DistanceMeters>
          </Trackpoint>
          <Trackpoint>
            <Time>2020-03-07T16:31:17.000Z</Time>
            <Position>
              <LatitudeDegrees>40.72211927734315395355224609375</LatitudeDegrees>
              <LongitudeDegrees>-3.87910413555800914764404296875</LongitudeDegrees>
            </Position>
            <AltitudeMeters>905.20001220703125</AltitudeMeters>
            <DistanceMeters>NAN</DistanceMeters>
          </Trackpoint>
          <Trackpoint>
            <Time>2020-03-07T16:31:18.000Z</Time>
            <Position>
              <LatitudeDegrees>40.72204752825200557708740234375</LatitudeDegrees>
              <LongitudeDegrees>-3.87916423380374908447265625</LongitudeDegrees>
            </Position>
            <AltitudeMeters>905.20001220703125</AltitudeMeters>
            <DistanceMeters>NAN</DistanceMeters>
          </Trackpoint>
          <Trackpoint>
            <Time>2020-03-07T16:31:19.000Z</Time>
            <Position>
              <LatitudeDegrees>40.721906460821628570556640625</LatitudeDegrees>
              <LongitudeDegrees>-3.87928199954330921173095703125</LongitudeDegrees>
            </Position>
            <AltitudeMeters>905</AltitudeMeters>
            <DistanceMeters>NAN</DistanceMeters>
          </Trackpoint>
          <Trackpoint>
            <Time>2020-03-07T16:31:20.000Z</Time>
            <Position>
              <LatitudeDegrees>40.721906460821628570556640625</LatitudeDegrees>
              <LongitudeDegrees>-3.87928199954330921173095703125</LongitudeDegrees>
            </Position>
            <AltitudeMeters>905</AltitudeMeters>
            <DistanceMeters>NAN</DistanceMeters>
          </Trackpoint>
          <Trackpoint>
            <Time>2020-03-07T16:31:21.000Z</Time>
            <Position>
              <LatitudeDegrees>40.7217701710760593414306640625</LatitudeDegrees>
              <LongitudeDegrees>-3.87939490377902984619140625</LongitudeDegrees>
            </Position>
            <AltitudeMeters>905</AltitudeMeters>
            <DistanceMeters>NAN</DistanceMeters>
          </Trackpoint>
          <Trackpoint>
            <Time>2020-03-07T16:31:22.000Z</Time>
            <Position>
              <LatitudeDegrees>40.72170403786003589630126953125</LatitudeDegrees>
              <LongitudeDegrees>-3.879450224339962005615234375</LongitudeDegrees>
            </Position>
            <AltitudeMeters>905</AltitudeMeters>
            <DistanceMeters>NAN</DistanceMeters>
          </Trackpoint>
          <Trackpoint>
            <Time>2020-03-07T16:31:23.000Z</Time>
            <Position>
              <LatitudeDegrees>40.721639581024646759033203125</LatitudeDegrees>
              <LongitudeDegrees>-3.8795055449008941650390625</LongitudeDegrees>
            </Position>
            <AltitudeMeters>905</AltitudeMeters>
            <DistanceMeters>NAN</DistanceMeters>
          </Trackpoint>
          <Trackpoint>
            <Time>2020-03-07T16:31:24.000Z</Time>
            <Position>
              <LatitudeDegrees>40.72157629765570163726806640625</LatitudeDegrees>
              <LongitudeDegrees>-3.879559524357318878173828125</LongitudeDegrees>
            </Position>
            <AltitudeMeters>905</AltitudeMeters>
            <DistanceMeters>NAN</DistanceMeters>
          </Trackpoint>
          <Trackpoint>
            <Time>2020-03-07T16:31:25.000Z</Time>
            <Position>
              <LatitudeDegrees>40.72151427157223224639892578125</LatitudeDegrees>
              <LongitudeDegrees>-3.87961258180439472198486328125</LongitudeDegrees>
            </Position>
            <AltitudeMeters>905</AltitudeMeters>
            <DistanceMeters>NAN</DistanceMeters>
          </Trackpoint>
          <Trackpoint>
            <Time>2020-03-07T16:31:26.000Z</Time>
            <Position>
              <LatitudeDegrees>40.72151427157223224639892578125</LatitudeDegrees>
              <LongitudeDegrees>-3.87961258180439472198486328125</LongitudeDegrees>
            </Position>
            <AltitudeMeters>905.20001220703125</AltitudeMeters>
            <DistanceMeters>NAN</DistanceMeters>
          </Trackpoint>
          <Trackpoint>
            <Time>2020-03-07T16:31:27.000Z</Time>
            <Position>
              <LatitudeDegrees>40.72139625437557697296142578125</LatitudeDegrees>
              <LongitudeDegrees>-3.87972238473594188690185546875</LongitudeDegrees>
            </Position>
            <AltitudeMeters>905.20001220703125</AltitudeMeters>
            <DistanceMeters>NAN</DistanceMeters>
          </Trackpoint>
          <Trackpoint>
            <Time>2020-03-07T16:31:28.000Z</Time>
            <Position>
              <LatitudeDegrees>40.72133992798626422882080078125</LatitudeDegrees>
              <LongitudeDegrees>-3.87977921403944492340087890625</LongitudeDegrees>
            </Position>
            <AltitudeMeters>905.4000244140625</AltitudeMeters>
            <DistanceMeters>NAN</DistanceMeters>
          </Trackpoint>
          <Trackpoint>
            <Time>2020-03-07T16:31:29.000Z</Time>
            <Position>
              <LatitudeDegrees>40.72128460742533206939697265625</LatitudeDegrees>
              <LongitudeDegrees>-3.87983771972358226776123046875</LongitudeDegrees>
            </Position>
            <AltitudeMeters>905.4000244140625</AltitudeMeters>
            <DistanceMeters>NAN</DistanceMeters>
          </Trackpoint>
          <Trackpoint>
            <Time>2020-03-07T16:31:30.000Z</Time>
            <Position>
              <LatitudeDegrees>40.7212300412356853485107421875</LatitudeDegrees>
              <LongitudeDegrees>-3.87989739887416362762451171875</LongitudeDegrees>
            </Position>
            <AltitudeMeters>905.4000244140625</AltitudeMeters>
            <DistanceMeters>NAN</DistanceMeters>
          </Trackpoint>
          <Trackpoint>
            <Time>2020-03-07T16:31:31.000Z</Time>
            <Position>
              <LatitudeDegrees>40.72117715142667293548583984375</LatitudeDegrees>
              <LongitudeDegrees>-3.8799580000340938568115234375</LongitudeDegrees>
            </Position>
            <AltitudeMeters>905.5999755859375</AltitudeMeters>
            <DistanceMeters>NAN</DistanceMeters>
          </Trackpoint>
          <Trackpoint>
            <Time>2020-03-07T16:31:32.000Z</Time>
            <Position>
              <LatitudeDegrees>40.72112602181732654571533203125</LatitudeDegrees>
              <LongitudeDegrees>-3.880019523203372955322265625</LongitudeDegrees>
            </Position>
            <AltitudeMeters>905.79998779296875</AltitudeMeters>
            <DistanceMeters>NAN</DistanceMeters>
          </Trackpoint>
          <Trackpoint>
            <Time>2020-03-07T16:31:33.000Z</Time>
            <Position>
              <LatitudeDegrees>40.72107723914086818695068359375</LatitudeDegrees>
              <LongitudeDegrees>-3.88008196838200092315673828125</LongitudeDegrees>
            </Position>
            <AltitudeMeters>906</AltitudeMeters>
            <DistanceMeters>NAN</DistanceMeters>
          </Trackpoint>
          <Trackpoint>
            <Time>2020-03-07T16:31:34.000Z</Time>
            <Position>
              <LatitudeDegrees>40.7210303843021392822265625</LatitudeDegrees>
              <LongitudeDegrees>-3.88014500029385089874267578125</LongitudeDegrees>
            </Position>
            <AltitudeMeters>906.4000244140625</AltitudeMeters>
            <DistanceMeters>NAN</DistanceMeters>
          </Trackpoint>
          <Trackpoint>
            <Time>2020-03-07T16:31:35.000Z</Time>
            <Position>
              <LatitudeDegrees>40.72098671458661556243896484375</LatitudeDegrees>
              <LongitudeDegrees>-3.88020954094827175140380859375</LongitudeDegrees>
            </Position>
            <AltitudeMeters>906.5999755859375</AltitudeMeters>
            <DistanceMeters>NAN</DistanceMeters>
          </Trackpoint>
          <Trackpoint>
            <Time>2020-03-07T16:31:36.000Z</Time>
            <Position>
              <LatitudeDegrees>40.72094530798494815826416015625</LatitudeDegrees>
              <LongitudeDegrees>-3.880275674164295196533203125</LongitudeDegrees>
            </Position>
            <AltitudeMeters>907.20001220703125</AltitudeMeters>
            <DistanceMeters>NAN</DistanceMeters>
          </Trackpoint>
          <Trackpoint>
            <Time>2020-03-07T16:31:37.000Z</Time>
            <Position>
              <LatitudeDegrees>40.72090591304004192352294921875</LatitudeDegrees>
              <LongitudeDegrees>-3.88034214265644550323486328125</LongitudeDegrees>
            </Position>
            <AltitudeMeters>907.5999755859375</AltitudeMeters>
            <DistanceMeters>NAN</DistanceMeters>
          </Trackpoint>
          <Trackpoint>
            <Time>2020-03-07T16:31:38.000Z</Time>
            <Position>
              <LatitudeDegrees>40.7208679430186748504638671875</LatitudeDegrees>
              <LongitudeDegrees>-3.8804092817008495330810546875</LongitudeDegrees>
            </Position>
            <AltitudeMeters>907.79998779296875</AltitudeMeters>
            <DistanceMeters>NAN</DistanceMeters>
          </Trackpoint>
          <Trackpoint>
            <Time>2020-03-07T16:31:39.000Z</Time>
            <Position>
              <LatitudeDegrees>40.72083014063537120819091796875</LatitudeDegrees>
              <LongitudeDegrees>-3.8804765045642852783203125</LongitudeDegrees>
            </Position>
            <AltitudeMeters>907.79998779296875</AltitudeMeters>
            <DistanceMeters>NAN</DistanceMeters>
          </Trackpoint>
          <Trackpoint>
            <Time>2020-03-07T16:31:40.000Z</Time>
            <Position>
              <LatitudeDegrees>40.72079175151884555816650390625</LatitudeDegrees>
              <LongitudeDegrees>-3.8805427215993404388427734375</LongitudeDegrees>
            </Position>
            <AltitudeMeters>908</AltitudeMeters>
            <DistanceMeters>NAN</DistanceMeters>
          </Trackpoint>
          <Trackpoint>
            <Time>2020-03-07T16:31:41.000Z</Time>
            <Position>
              <LatitudeDegrees>40.7207532785832881927490234375</LatitudeDegrees>
              <LongitudeDegrees>-3.88060860335826873779296875</LongitudeDegrees>
            </Position>
            <AltitudeMeters>908</AltitudeMeters>
            <DistanceMeters>NAN</DistanceMeters>
          </Trackpoint>
          <Trackpoint>
            <Time>2020-03-07T16:31:42.000Z</Time>
            <Position>
              <LatitudeDegrees>40.720716230571269989013671875</LatitudeDegrees>
              <LongitudeDegrees>-3.880675993859767913818359375</LongitudeDegrees>
            </Position>
            <AltitudeMeters>908.20001220703125</AltitudeMeters>
            <DistanceMeters>NAN</DistanceMeters>
          </Trackpoint>
          <Trackpoint>
            <Time>2020-03-07T16:31:43.000Z</Time>
            <Position>
              <LatitudeDegrees>40.7206808589398860931396484375</LatitudeDegrees>
              <LongitudeDegrees>-3.8807448931038379669189453125</LongitudeDegrees>
            </Position>
            <AltitudeMeters>908.5999755859375</AltitudeMeters>
            <DistanceMeters>NAN</DistanceMeters>
          </Trackpoint>
          <Trackpoint>
            <Time>2020-03-07T16:31:44.000Z</Time>
            <Position>
              <LatitudeDegrees>40.7206468284130096435546875</LatitudeDegrees>
              <LongitudeDegrees>-3.880814798176288604736328125</LongitudeDegrees>
            </Position>
            <AltitudeMeters>908.79998779296875</AltitudeMeters>
            <DistanceMeters>NAN</DistanceMeters>
          </Trackpoint>
          <Trackpoint>
            <Time>2020-03-07T16:31:45.000Z</Time>
            <Position>
              <LatitudeDegrees>40.72061288170516490936279296875</LatitudeDegrees>
              <LongitudeDegrees>-3.88088512234389781951904296875</LongitudeDegrees>
            </Position>
            <AltitudeMeters>909.20001220703125</AltitudeMeters>
            <DistanceMeters>NAN</DistanceMeters>
          </Trackpoint>
          <Trackpoint>
            <Time>2020-03-07T16:31:46.000Z</Time>
            <Position>
              <LatitudeDegrees>40.7205792702734470367431640625</LatitudeDegrees>
              <LongitudeDegrees>-3.88095603324472904205322265625</LongitudeDegrees>
            </Position>
            <AltitudeMeters>909.4000244140625</AltitudeMeters>
            <DistanceMeters>NAN</DistanceMeters>
          </Trackpoint>
          <Trackpoint>
            <Time>2020-03-07T16:31:47.000Z</Time>
            <Position>
              <LatitudeDegrees>40.7205450721085071563720703125</LatitudeDegrees>
              <LongitudeDegrees>-3.881027363240718841552734375</LongitudeDegrees>
            </Position>
            <AltitudeMeters>909.5999755859375</AltitudeMeters>
            <DistanceMeters>NAN</DistanceMeters>
          </Trackpoint>
          <Trackpoint>
            <Time>2020-03-07T16:31:48.000Z</Time>
            <Position>
              <LatitudeDegrees>40.7205100357532501220703125</LatitudeDegrees>
              <LongitudeDegrees>-3.88109944760799407958984375</LongitudeDegrees>
            </Position>
            <AltitudeMeters>910</AltitudeMeters>
            <DistanceMeters>NAN</DistanceMeters>
          </Trackpoint>
          <Trackpoint>
            <Time>2020-03-07T16:31:49.000Z</Time>
            <Position>
              <LatitudeDegrees>40.72047458030283451080322265625</LatitudeDegrees>
              <LongitudeDegrees>-3.88117211870849132537841796875</LongitudeDegrees>
            </Position>
            <AltitudeMeters>910.20001220703125</AltitudeMeters>
            <DistanceMeters>NAN</DistanceMeters>
          </Trackpoint>
          <Trackpoint>
            <Time>2020-03-07T16:31:50.000Z</Time>
            <Position>
              <LatitudeDegrees>40.72043904103338718414306640625</LatitudeDegrees>
              <LongitudeDegrees>-3.88124504126608371734619140625</LongitudeDegrees>
            </Position>
            <AltitudeMeters>910.4000244140625</AltitudeMeters>
            <DistanceMeters>NAN</DistanceMeters>
          </Trackpoint>
          <Trackpoint>
            <Time>2020-03-07T16:31:51.000Z</Time>
            <Position>
              <LatitudeDegrees>40.72040316648781299591064453125</LatitudeDegrees>
              <LongitudeDegrees>-3.881318382918834686279296875</LongitudeDegrees>
            </Position>
            <AltitudeMeters>910.4000244140625</AltitudeMeters>
            <DistanceMeters>NAN</DistanceMeters>
          </Trackpoint>
          <Trackpoint>
            <Time>2020-03-07T16:31:52.000Z</Time>
            <Position>
              <LatitudeDegrees>40.72036662138998508453369140625</LatitudeDegrees>
              <LongitudeDegrees>-3.88139247894287109375</LongitudeDegrees>
            </Position>
            <AltitudeMeters>910.4000244140625</AltitudeMeters>
            <DistanceMeters>NAN</DistanceMeters>
          </Trackpoint>
          <Trackpoint>
            <Time>2020-03-07T16:31:53.000Z</Time>
            <Position>
              <LatitudeDegrees>40.72032974101603031158447265625</LatitudeDegrees>
              <LongitudeDegrees>-3.8814674131572246551513671875</LongitudeDegrees>
            </Position>
            <AltitudeMeters>910.4000244140625</AltitudeMeters>
            <DistanceMeters>NAN</DistanceMeters>
          </Trackpoint>
          <Trackpoint>
            <Time>2020-03-07T16:31:54.000Z</Time>
            <Position>
              <LatitudeDegrees>40.72029252536594867706298828125</LatitudeDegrees>
              <LongitudeDegrees>-3.88154310174286365509033203125</LongitudeDegrees>
            </Position>
            <AltitudeMeters>910.4000244140625</AltitudeMeters>
            <DistanceMeters>NAN</DistanceMeters>
          </Trackpoint>
          <Trackpoint>
            <Time>2020-03-07T16:31:55.000Z</Time>
            <Position>
              <LatitudeDegrees>40.7202560640871524810791015625</LatitudeDegrees>
              <LongitudeDegrees>-3.8816192932426929473876953125</LongitudeDegrees>
            </Position>
            <AltitudeMeters>910.5999755859375</AltitudeMeters>
            <DistanceMeters>NAN</DistanceMeters>
          </Trackpoint>
          <Trackpoint>
            <Time>2020-03-07T16:31:56.000Z</Time>
            <Position>
              <LatitudeDegrees>40.72021901607513427734375</LatitudeDegrees>
              <LongitudeDegrees>-3.88169514946639537811279296875</LongitudeDegrees>
            </Position>
            <AltitudeMeters>910.5999755859375</AltitudeMeters>
            <DistanceMeters>NAN</DistanceMeters>
          </Trackpoint>
          <Trackpoint>
            <Time>2020-03-07T16:31:57.000Z</Time>
            <Position>
              <LatitudeDegrees>40.7201819680631160736083984375</LatitudeDegrees>
              <LongitudeDegrees>-3.88177108950912952423095703125</LongitudeDegrees>
            </Position>
            <AltitudeMeters>910.5999755859375</AltitudeMeters>
            <DistanceMeters>NAN</DistanceMeters>
          </Trackpoint>
          <Trackpoint>
            <Time>2020-03-07T16:31:58.000Z</Time>
            <Position>
              <LatitudeDegrees>40.72014458477497100830078125</LatitudeDegrees>
              <LongitudeDegrees>-3.88184753246605396270751953125</LongitudeDegrees>
            </Position>
            <AltitudeMeters>910.5999755859375</AltitudeMeters>
            <DistanceMeters>NAN</DistanceMeters>
          </Trackpoint>
          <Trackpoint>
            <Time>2020-03-07T16:31:59.000Z</Time>
            <Position>
              <LatitudeDegrees>40.72010762058198451995849609375</LatitudeDegrees>
              <LongitudeDegrees>-3.88192380778491497039794921875</LongitudeDegrees>
            </Position>
            <AltitudeMeters>910.5999755859375</AltitudeMeters>
            <DistanceMeters>NAN</DistanceMeters>
          </Trackpoint>
          <Trackpoint>
            <Time>2020-03-07T16:32:00.000Z</Time>
            <Position>
              <LatitudeDegrees>40.720070488750934600830078125</LatitudeDegrees>
              <LongitudeDegrees>-3.88199958018958568572998046875</LongitudeDegrees>
            </Position>
            <AltitudeMeters>910.4000244140625</AltitudeMeters>
            <DistanceMeters>NAN</DistanceMeters>
          </Trackpoint>
          <Trackpoint>
            <Time>2020-03-07T16:32:01.000Z</Time>
            <Position>
              <LatitudeDegrees>40.72003268636763095855712890625</LatitudeDegrees>
              <LongitudeDegrees>-3.8820751011371612548828125</LongitudeDegrees>
            </Position>
            <AltitudeMeters>910.4000244140625</AltitudeMeters>
            <DistanceMeters>NAN</DistanceMeters>
          </Trackpoint>
          <Trackpoint>
            <Time>2020-03-07T16:32:02.000Z</Time>
            <Position>
              <LatitudeDegrees>40.7199952192604541778564453125</LatitudeDegrees>
              <LongitudeDegrees>-3.882150538265705108642578125</LongitudeDegrees>
            </Position>
            <AltitudeMeters>910.4000244140625</AltitudeMeters>
            <DistanceMeters>NAN</DistanceMeters>
          </Trackpoint>
          <Trackpoint>
            <Time>2020-03-07T16:32:03.000Z</Time>
            <Position>
              <LatitudeDegrees>40.7199580036103725433349609375</LatitudeDegrees>
              <LongitudeDegrees>-3.88222589157521724700927734375</LongitudeDegrees>
            </Position>
            <AltitudeMeters>910.4000244140625</AltitudeMeters>
            <DistanceMeters>NAN</DistanceMeters>
          </Trackpoint>
          <Trackpoint>
            <Time>2020-03-07T16:32:04.000Z</Time>
            <Position>
              <LatitudeDegrees>40.71992103941738605499267578125</LatitudeDegrees>
              <LongitudeDegrees>-3.882301747798919677734375</LongitudeDegrees>
            </Position>
            <AltitudeMeters>910.4000244140625</AltitudeMeters>
            <DistanceMeters>NAN</DistanceMeters>
          </Trackpoint>
          <Trackpoint>
            <Time>2020-03-07T16:32:05.000Z</Time>
            <Position>
              <LatitudeDegrees>40.7198839075863361358642578125</LatitudeDegrees>
              <LongitudeDegrees>-3.88237760402262210845947265625</LongitudeDegrees>
            </Position>
            <AltitudeMeters>910.4000244140625</AltitudeMeters>
            <DistanceMeters>NAN</DistanceMeters>
          </Trackpoint>
          <Trackpoint>
            <Time>2020-03-07T16:32:06.000Z</Time>
            <Position>
              <LatitudeDegrees>40.71984644047915935516357421875</LatitudeDegrees>
              <LongitudeDegrees>-3.88245371170341968536376953125</LongitudeDegrees>
            </Position>
            <AltitudeMeters>910.4000244140625</AltitudeMeters>
            <DistanceMeters>NAN</DistanceMeters>
          </Trackpoint>
          <Trackpoint>
            <Time>2020-03-07T16:32:07.000Z</Time>
            <Position>
              <LatitudeDegrees>40.7198091410100460052490234375</LatitudeDegrees>
              <LongitudeDegrees>-3.88252998702228069305419921875</LongitudeDegrees>
            </Position>
            <AltitudeMeters>910.4000244140625</AltitudeMeters>
            <DistanceMeters>NAN</DistanceMeters>
          </Trackpoint>
          <Trackpoint>
            <Time>2020-03-07T16:32:08.000Z</Time>
            <Position>
              <LatitudeDegrees>40.719772092998027801513671875</LatitudeDegrees>
              <LongitudeDegrees>-3.8826070167124271392822265625</LongitudeDegrees>
            </Position>
            <AltitudeMeters>910.20001220703125</AltitudeMeters>
            <DistanceMeters>NAN</DistanceMeters>
          </Trackpoint>
          <Trackpoint>
            <Time>2020-03-07T16:32:09.000Z</Time>
            <Position>
              <LatitudeDegrees>40.71973445825278759002685546875</LatitudeDegrees>
              <LongitudeDegrees>-3.8826848007738590240478515625</LongitudeDegrees>
            </Position>
            <AltitudeMeters>910</AltitudeMeters>
            <DistanceMeters>NAN</DistanceMeters>
          </Trackpoint>
          <Trackpoint>
            <Time>2020-03-07T16:32:10.000Z</Time>
            <Position>
              <LatitudeDegrees>40.71969523094594478607177734375</LatitudeDegrees>
              <LongitudeDegrees>-3.88276283629238605499267578125</LongitudeDegrees>
            </Position>
            <AltitudeMeters>910</AltitudeMeters>
            <DistanceMeters>NAN</DistanceMeters>
          </Trackpoint>
          <Trackpoint>
            <Time>2020-03-07T16:32:11.000Z</Time>
            <Position>
              <LatitudeDegrees>40.71965516544878482818603515625</LatitudeDegrees>
              <LongitudeDegrees>-3.88284154236316680908203125</LongitudeDegrees>
            </Position>
            <AltitudeMeters>910</AltitudeMeters>
            <DistanceMeters>NAN</DistanceMeters>
          </Trackpoint>
          <Trackpoint>
            <Time>2020-03-07T16:32:12.000Z</Time>
            <Position>
              <LatitudeDegrees>40.71961509995162487030029296875</LatitudeDegrees>
              <LongitudeDegrees>-3.88292200863361358642578125</LongitudeDegrees>
            </Position>
            <AltitudeMeters>909.79998779296875</AltitudeMeters>
            <DistanceMeters>NAN</DistanceMeters>
          </Trackpoint>
          <Trackpoint>
            <Time>2020-03-07T16:32:13.000Z</Time>
            <Position>
              <LatitudeDegrees>40.7195744477212429046630859375</LatitudeDegrees>
              <LongitudeDegrees>-3.88300381600856781005859375</LongitudeDegrees>
            </Position>
            <AltitudeMeters>909.79998779296875</AltitudeMeters>
            <DistanceMeters>NAN</DistanceMeters>
          </Trackpoint>
          <Trackpoint>
            <Time>2020-03-07T16:32:14.000Z</Time>
            <Position>
              <LatitudeDegrees>40.71953329257667064666748046875</LatitudeDegrees>
              <LongitudeDegrees>-3.8830867968499660491943359375</LongitudeDegrees>
            </Position>
            <AltitudeMeters>909.79998779296875</AltitudeMeters>
            <DistanceMeters>NAN</DistanceMeters>
          </Trackpoint>
          <Trackpoint>
            <Time>2020-03-07T16:32:15.000Z</Time>
            <Position>
              <LatitudeDegrees>40.71949054487049579620361328125</LatitudeDegrees>
              <LongitudeDegrees>-3.883170448243618011474609375</LongitudeDegrees>
            </Position>
            <AltitudeMeters>909.79998779296875</AltitudeMeters>
            <DistanceMeters>NAN</DistanceMeters>
          </Trackpoint>
          <Trackpoint>
            <Time>2020-03-07T16:32:16.000Z</Time>
            <Position>
              <LatitudeDegrees>40.71944796480238437652587890625</LatitudeDegrees>
              <LongitudeDegrees>-3.88325585983693599700927734375</LongitudeDegrees>
            </Position>
            <AltitudeMeters>909.79998779296875</AltitudeMeters>
            <DistanceMeters>NAN</DistanceMeters>
          </Trackpoint>
          <Trackpoint>
            <Time>2020-03-07T16:32:17.000Z</Time>
            <Position>
              <LatitudeDegrees>40.71940563619136810302734375</LatitudeDegrees>
              <LongitudeDegrees>-3.8833436183631420135498046875</LongitudeDegrees>
            </Position>
            <AltitudeMeters>909.5999755859375</AltitudeMeters>
            <DistanceMeters>NAN</DistanceMeters>
          </Trackpoint>
          <Trackpoint>
            <Time>2020-03-07T16:32:18.000Z</Time>
            <Position>
              <LatitudeDegrees>40.71936230175197124481201171875</LatitudeDegrees>
              <LongitudeDegrees>-3.88343221507966518402099609375</LongitudeDegrees>
            </Position>
            <AltitudeMeters>909.4000244140625</AltitudeMeters>
            <DistanceMeters>NAN</DistanceMeters>
          </Trackpoint>
          <Trackpoint>
            <Time>2020-03-07T16:32:19.000Z</Time>
            <Position>
              <LatitudeDegrees>40.7193179614841938018798828125</LatitudeDegrees>
              <LongitudeDegrees>-3.88352139852941036224365234375</LongitudeDegrees>
            </Position>
            <AltitudeMeters>909.20001220703125</AltitudeMeters>
            <DistanceMeters>NAN</DistanceMeters>
          </Trackpoint>
          <Trackpoint>
            <Time>2020-03-07T16:32:20.000Z</Time>
            <Position>
              <LatitudeDegrees>40.71927278302609920501708984375</LatitudeDegrees>
              <LongitudeDegrees>-3.883611671626567840576171875</LongitudeDegrees>
            </Position>
            <AltitudeMeters>909</AltitudeMeters>
            <DistanceMeters>NAN</DistanceMeters>
          </Trackpoint>
          <Trackpoint>
            <Time>2020-03-07T16:32:21.000Z</Time>
            <Position>
              <LatitudeDegrees>40.71922819130122661590576171875</LatitudeDegrees>
              <LongitudeDegrees>-3.88370387256145477294921875</LongitudeDegrees>
            </Position>
            <AltitudeMeters>908.79998779296875</AltitudeMeters>
            <DistanceMeters>NAN</DistanceMeters>
          </Trackpoint>
          <Trackpoint>
            <Time>2020-03-07T16:32:22.000Z</Time>
            <Position>
              <LatitudeDegrees>40.71918343193829059600830078125</LatitudeDegrees>
              <LongitudeDegrees>-3.8837972469627857208251953125</LongitudeDegrees>
            </Position>
            <AltitudeMeters>908.5999755859375</AltitudeMeters>
            <DistanceMeters>NAN</DistanceMeters>
          </Trackpoint>
          <Trackpoint>
            <Time>2020-03-07T16:32:23.000Z</Time>
            <Position>
              <LatitudeDegrees>40.71913733147084712982177734375</LatitudeDegrees>
              <LongitudeDegrees>-3.88389028608798980712890625</LongitudeDegrees>
            </Position>
            <AltitudeMeters>908.5999755859375</AltitudeMeters>
            <DistanceMeters>NAN</DistanceMeters>
          </Trackpoint>
          <Trackpoint>
            <Time>2020-03-07T16:32:24.000Z</Time>
            <Position>
              <LatitudeDegrees>40.71908955462276935577392578125</LatitudeDegrees>
              <LongitudeDegrees>-3.8839826546609401702880859375</LongitudeDegrees>
            </Position>
            <AltitudeMeters>908.4000244140625</AltitudeMeters>
            <DistanceMeters>NAN</DistanceMeters>
          </Trackpoint>
          <Trackpoint>
            <Time>2020-03-07T16:32:25.000Z</Time>
            <Position>
              <LatitudeDegrees>40.719041191041469573974609375</LatitudeDegrees>
              <LongitudeDegrees>-3.88407527469098567962646484375</LongitudeDegrees>
            </Position>
            <AltitudeMeters>908</AltitudeMeters>
            <DistanceMeters>NAN</DistanceMeters>
          </Trackpoint>
          <Trackpoint>
            <Time>2020-03-07T16:32:26.000Z</Time>
            <Position>
              <LatitudeDegrees>40.71899265982210636138916015625</LatitudeDegrees>
              <LongitudeDegrees>-3.88416881673038005828857421875</LongitudeDegrees>
            </Position>
            <AltitudeMeters>907.79998779296875</AltitudeMeters>
            <DistanceMeters>NAN</DistanceMeters>
          </Trackpoint>
          <Trackpoint>
            <Time>2020-03-07T16:32:27.000Z</Time>
            <Position>
              <LatitudeDegrees>40.71894505061209201812744140625</LatitudeDegrees>
              <LongitudeDegrees>-3.8842637836933135986328125</LongitudeDegrees>
            </Position>
            <AltitudeMeters>907.5999755859375</AltitudeMeters>
            <DistanceMeters>NAN</DistanceMeters>
          </Trackpoint>
          <Trackpoint>
            <Time>2020-03-07T16:32:28.000Z</Time>
            <Position>
              <LatitudeDegrees>40.71889844723045825958251953125</LatitudeDegrees>
              <LongitudeDegrees>-3.8843598403036594390869140625</LongitudeDegrees>
            </Position>
            <AltitudeMeters>907.20001220703125</AltitudeMeters>
            <DistanceMeters>NAN</DistanceMeters>
          </Trackpoint>
          <Trackpoint>
            <Time>2020-03-07T16:32:29.000Z</Time>
            <Position>
              <LatitudeDegrees>40.718852765858173370361328125</LatitudeDegrees>
              <LongitudeDegrees>-3.884456567466259002685546875</LongitudeDegrees>
            </Position>
            <AltitudeMeters>907</AltitudeMeters>
            <DistanceMeters>NAN</DistanceMeters>
          </Trackpoint>
          <Trackpoint>
            <Time>2020-03-07T16:32:30.000Z</Time>
            <Position>
              <LatitudeDegrees>40.7188070006668567657470703125</LatitudeDegrees>
              <LongitudeDegrees>-3.884553126990795135498046875</LongitudeDegrees>
            </Position>
            <AltitudeMeters>906.79998779296875</AltitudeMeters>
            <DistanceMeters>NAN</DistanceMeters>
          </Trackpoint>
          <Trackpoint>
            <Time>2020-03-07T16:32:31.000Z</Time>
            <Position>
              <LatitudeDegrees>40.71875981055200099945068359375</LatitudeDegrees>
              <LongitudeDegrees>-3.88464859686791896820068359375</LongitudeDegrees>
            </Position>
            <AltitudeMeters>906.5999755859375</AltitudeMeters>
            <DistanceMeters>NAN</DistanceMeters>
          </Trackpoint>
          <Trackpoint>
            <Time>2020-03-07T16:32:32.000Z</Time>
            <Position>
              <LatitudeDegrees>40.7187124527990818023681640625</LatitudeDegrees>
              <LongitudeDegrees>-3.88474398292601108551025390625</LongitudeDegrees>
            </Position>
            <AltitudeMeters>906.4000244140625</AltitudeMeters>
            <DistanceMeters>NAN</DistanceMeters>
          </Trackpoint>
          <Trackpoint>
            <Time>2020-03-07T16:32:33.000Z</Time>
            <Position>
              <LatitudeDegrees>40.71866559796035289764404296875</LatitudeDegrees>
              <LongitudeDegrees>-3.8848396204411983489990234375</LongitudeDegrees>
            </Position>
            <AltitudeMeters>906.20001220703125</AltitudeMeters>
            <DistanceMeters>NAN</DistanceMeters>
          </Trackpoint>
          <Trackpoint>
            <Time>2020-03-07T16:32:34.000Z</Time>
            <Position>
              <LatitudeDegrees>40.7186190783977508544921875</LatitudeDegrees>
              <LongitudeDegrees>-3.8849338330328464508056640625</LongitudeDegrees>
            </Position>
            <AltitudeMeters>906</AltitudeMeters>
            <DistanceMeters>NAN</DistanceMeters>
          </Trackpoint>
          <Trackpoint>
            <Time>2020-03-07T16:32:35.000Z</Time>
            <Position>
              <LatitudeDegrees>40.718573145568370819091796875</LatitudeDegrees>
              <LongitudeDegrees>-3.88502595014870166778564453125</LongitudeDegrees>
            </Position>
            <AltitudeMeters>905.79998779296875</AltitudeMeters>
            <DistanceMeters>NAN</DistanceMeters>
          </Trackpoint>
          <Trackpoint>
            <Time>2020-03-07T16:32:36.000Z</Time>
            <Position>
              <LatitudeDegrees>40.7185287214815616607666015625</LatitudeDegrees>
              <LongitudeDegrees>-3.88511664234101772308349609375</LongitudeDegrees>
            </Position>
            <AltitudeMeters>905.5999755859375</AltitudeMeters>
            <DistanceMeters>NAN</DistanceMeters>
          </Trackpoint>
          <Trackpoint>
            <Time>2020-03-07T16:32:37.000Z</Time>
            <Position>
              <LatitudeDegrees>40.71848538704216480255126953125</LatitudeDegrees>
              <LongitudeDegrees>-3.88520549051463603973388671875</LongitudeDegrees>
            </Position>
            <AltitudeMeters>905.4000244140625</AltitudeMeters>
            <DistanceMeters>NAN</DistanceMeters>
          </Trackpoint>
          <Trackpoint>
            <Time>2020-03-07T16:32:38.000Z</Time>
            <Position>
              <LatitudeDegrees>40.71844297461211681365966796875</LatitudeDegrees>
              <LongitudeDegrees>-3.88529333285987377166748046875</LongitudeDegrees>
            </Position>
            <AltitudeMeters>905.4000244140625</AltitudeMeters>
            <DistanceMeters>NAN</DistanceMeters>
          </Trackpoint>
          <Trackpoint>
            <Time>2020-03-07T16:32:39.000Z</Time>
            <Position>
              <LatitudeDegrees>40.71840089745819568634033203125</LatitudeDegrees>
              <LongitudeDegrees>-3.88537949882447719573974609375</LongitudeDegrees>
            </Position>
            <AltitudeMeters>905.4000244140625</AltitudeMeters>
            <DistanceMeters>NAN</DistanceMeters>
          </Trackpoint>
          <Trackpoint>
            <Time>2020-03-07T16:32:40.000Z</Time>
            <Position>
              <LatitudeDegrees>40.718359239399433135986328125</LatitudeDegrees>
              <LongitudeDegrees>-3.88546449132263660430908203125</LongitudeDegrees>
            </Position>
            <AltitudeMeters>905.4000244140625</AltitudeMeters>
            <DistanceMeters>NAN</DistanceMeters>
          </Trackpoint>
          <Trackpoint>
            <Time>2020-03-07T16:32:41.000Z</Time>
            <Position>
              <LatitudeDegrees>40.71831841953098773956298828125</LatitudeDegrees>
              <LongitudeDegrees>-3.88554831035435199737548828125</LongitudeDegrees>
            </Position>
            <AltitudeMeters>905.4000244140625</AltitudeMeters>
            <DistanceMeters>NAN</DistanceMeters>
          </Trackpoint>
          <Trackpoint>
            <Time>2020-03-07T16:32:42.000Z</Time>
            <Position>
              <LatitudeDegrees>40.7182779349386692047119140625</LatitudeDegrees>
              <LongitudeDegrees>-3.8856322132050991058349609375</LongitudeDegrees>
            </Position>
            <AltitudeMeters>905.4000244140625</AltitudeMeters>
            <DistanceMeters>NAN</DistanceMeters>
          </Trackpoint>
          <Trackpoint>
            <Time>2020-03-07T16:32:43.000Z</Time>
            <Position>
              <LatitudeDegrees>40.71823753416538238525390625</LatitudeDegrees>
              <LongitudeDegrees>-3.88571578077971935272216796875</LongitudeDegrees>
            </Position>
            <AltitudeMeters>905.4000244140625</AltitudeMeters>
            <DistanceMeters>NAN</DistanceMeters>
          </Trackpoint>
          <Trackpoint>
            <Time>2020-03-07T16:32:44.000Z</Time>
            <Position>
              <LatitudeDegrees>40.7181981392204761505126953125</LatitudeDegrees>
              <LongitudeDegrees>-3.88579909689724445343017578125</LongitudeDegrees>
            </Position>
            <AltitudeMeters>905.4000244140625</AltitudeMeters>
            <DistanceMeters>NAN</DistanceMeters>
          </Trackpoint>
          <Trackpoint>
            <Time>2020-03-07T16:32:45.000Z</Time>
            <Position>
              <LatitudeDegrees>40.71815832518041133880615234375</LatitudeDegrees>
              <LongitudeDegrees>-3.8858813233673572540283203125</LongitudeDegrees>
            </Position>
            <AltitudeMeters>905.4000244140625</AltitudeMeters>
            <DistanceMeters>NAN</DistanceMeters>
          </Trackpoint>
          <Trackpoint>
            <Time>2020-03-07T16:32:46.000Z</Time>
            <Position>
              <LatitudeDegrees>40.71811817586421966552734375</LatitudeDegrees>
              <LongitudeDegrees>-3.88596287928521633148193359375</LongitudeDegrees>
            </Position>
            <AltitudeMeters>905.4000244140625</AltitudeMeters>
            <DistanceMeters>NAN</DistanceMeters>
          </Trackpoint>
          <Trackpoint>
            <Time>2020-03-07T16:32:47.000Z</Time>
            <Position>
              <LatitudeDegrees>40.71807886473834514617919921875</LatitudeDegrees>
              <LongitudeDegrees>-3.88604468666017055511474609375</LongitudeDegrees>
            </Position>
            <AltitudeMeters>905.4000244140625</AltitudeMeters>
            <DistanceMeters>NAN</DistanceMeters>
          </Trackpoint>
          <Trackpoint>
            <Time>2020-03-07T16:32:48.000Z</Time>
            <Position>
              <LatitudeDegrees>40.71804047562181949615478515625</LatitudeDegrees>
              <LongitudeDegrees>-3.8861267454922199249267578125</LongitudeDegrees>
            </Position>
            <AltitudeMeters>905.4000244140625</AltitudeMeters>
            <DistanceMeters>NAN</DistanceMeters>
          </Trackpoint>
          <Trackpoint>
            <Time>2020-03-07T16:32:49.000Z</Time>
            <Position>
              <LatitudeDegrees>40.71800141595304012298583984375</LatitudeDegrees>
              <LongitudeDegrees>-3.88620796613395214080810546875</LongitudeDegrees>
            </Position>
            <AltitudeMeters>905.5999755859375</AltitudeMeters>
            <DistanceMeters>NAN</DistanceMeters>
          </Trackpoint>
          <Trackpoint>
            <Time>2020-03-07T16:32:50.000Z</Time>
            <Position>
              <LatitudeDegrees>40.717961601912975311279296875</LatitudeDegrees>
              <LongitudeDegrees>-3.88628826476633548736572265625</LongitudeDegrees>
            </Position>
            <AltitudeMeters>905.79998779296875</AltitudeMeters>
            <DistanceMeters>NAN</DistanceMeters>
          </Trackpoint>
          <Trackpoint>
            <Time>2020-03-07T16:32:51.000Z</Time>
            <Position>
              <LatitudeDegrees>40.717922039330005645751953125</LatitudeDegrees>
              <LongitudeDegrees>-3.88636839576065540313720703125</LongitudeDegrees>
            </Position>
            <AltitudeMeters>905.79998779296875</AltitudeMeters>
            <DistanceMeters>NAN</DistanceMeters>
          </Trackpoint>
          <Trackpoint>
            <Time>2020-03-07T16:32:52.000Z</Time>
            <Position>
              <LatitudeDegrees>40.71788205765187740325927734375</LatitudeDegrees>
              <LongitudeDegrees>-3.886448778212070465087890625</LongitudeDegrees>
            </Position>
            <AltitudeMeters>906</AltitudeMeters>
            <DistanceMeters>NAN</DistanceMeters>
          </Trackpoint>
          <Trackpoint>
            <Time>2020-03-07T16:32:53.000Z</Time>
            <Position>
              <LatitudeDegrees>40.71784132160246372222900390625</LatitudeDegrees>
              <LongitudeDegrees>-3.88652916066348552703857421875</LongitudeDegrees>
            </Position>
            <AltitudeMeters>906.20001220703125</AltitudeMeters>
            <DistanceMeters>NAN</DistanceMeters>
          </Trackpoint>
          <Trackpoint>
            <Time>2020-03-07T16:32:54.000Z</Time>
            <Position>
              <LatitudeDegrees>40.71780008263885974884033203125</LatitudeDegrees>
              <LongitudeDegrees>-3.88661012984812259674072265625</LongitudeDegrees>
            </Position>
            <AltitudeMeters>906.4000244140625</AltitudeMeters>
            <DistanceMeters>NAN</DistanceMeters>
          </Trackpoint>
          <Trackpoint>
            <Time>2020-03-07T16:32:55.000Z</Time>
            <Position>
              <LatitudeDegrees>40.717759430408477783203125</LatitudeDegrees>
              <LongitudeDegrees>-3.88669277541339397430419921875</LongitudeDegrees>
            </Position>
            <AltitudeMeters>906.5999755859375</AltitudeMeters>
            <DistanceMeters>NAN</DistanceMeters>
          </Trackpoint>
          <Trackpoint>
            <Time>2020-03-07T16:32:56.000Z</Time>
            <Position>
              <LatitudeDegrees>40.71771852672100067138671875</LatitudeDegrees>
              <LongitudeDegrees>-3.8867761753499507904052734375</LongitudeDegrees>
            </Position>
            <AltitudeMeters>906.79998779296875</AltitudeMeters>
            <DistanceMeters>NAN</DistanceMeters>
          </Trackpoint>
          <Trackpoint>
            <Time>2020-03-07T16:32:57.000Z</Time>
            <Position>
              <LatitudeDegrees>40.7176771201193332672119140625</LatitudeDegrees>
              <LongitudeDegrees>-3.8868599943816661834716796875</LongitudeDegrees>
            </Position>
            <AltitudeMeters>907.20001220703125</AltitudeMeters>
            <DistanceMeters>NAN</DistanceMeters>
          </Trackpoint>
          <Trackpoint>
            <Time>2020-03-07T16:32:58.000Z</Time>
            <Position>
              <LatitudeDegrees>40.71763479150831699371337890625</LatitudeDegrees>
              <LongitudeDegrees>-3.88694507069885730743408203125</LongitudeDegrees>
            </Position>
            <AltitudeMeters>907.20001220703125</AltitudeMeters>
            <DistanceMeters>NAN</DistanceMeters>
          </Trackpoint>
          <Trackpoint>
            <Time>2020-03-07T16:32:59.000Z</Time>
            <Position>
              <LatitudeDegrees>40.717593133449554443359375</LatitudeDegrees>
              <LongitudeDegrees>-3.88703123666346073150634765625</LongitudeDegrees>
            </Position>
            <AltitudeMeters>907.4000244140625</AltitudeMeters>
            <DistanceMeters>NAN</DistanceMeters>
          </Trackpoint>
          <Trackpoint>
            <Time>2020-03-07T16:33:00.000Z</Time>
            <Position>
              <LatitudeDegrees>40.7175510562956333160400390625</LatitudeDegrees>
              <LongitudeDegrees>-3.88711857609450817108154296875</LongitudeDegrees>
            </Position>
            <AltitudeMeters>907.4000244140625</AltitudeMeters>
            <DistanceMeters>NAN</DistanceMeters>
          </Trackpoint>
          <Trackpoint>
            <Time>2020-03-07T16:33:01.000Z</Time>
            <Position>
              <LatitudeDegrees>40.717508308589458465576171875</LatitudeDegrees>
              <LongitudeDegrees>-3.88720641843974590301513671875</LongitudeDegrees>
            </Position>
            <AltitudeMeters>907.4000244140625</AltitudeMeters>
            <DistanceMeters>NAN</DistanceMeters>
          </Trackpoint>
          <Trackpoint>
            <Time>2020-03-07T16:33:02.000Z</Time>
            <Position>
              <LatitudeDegrees>40.717508308589458465576171875</LatitudeDegrees>
              <LongitudeDegrees>-3.88720641843974590301513671875</LongitudeDegrees>
            </Position>
            <AltitudeMeters>907.4000244140625</AltitudeMeters>
            <DistanceMeters>NAN</DistanceMeters>
          </Trackpoint>
          <Trackpoint>
            <Time>2020-03-07T16:33:03.000Z</Time>
            <Position>
              <LatitudeDegrees>40.7174652256071567535400390625</LatitudeDegrees>
              <LongitudeDegrees>-3.8872951827943325042724609375</LongitudeDegrees>
            </Position>
            <AltitudeMeters>907.4000244140625</AltitudeMeters>
            <DistanceMeters>NAN</DistanceMeters>
          </Trackpoint>
          <Trackpoint>
            <Time>2020-03-07T16:33:04.000Z</Time>
            <Position>
              <LatitudeDegrees>40.717421807348728179931640625</LatitudeDegrees>
              <LongitudeDegrees>-3.88738461770117282867431640625</LongitudeDegrees>
            </Position>
            <AltitudeMeters>907.4000244140625</AltitudeMeters>
            <DistanceMeters>NAN</DistanceMeters>
          </Trackpoint>
          <Trackpoint>
            <Time>2020-03-07T16:33:05.000Z</Time>
            <Position>
              <LatitudeDegrees>40.71737788617610931396484375</LatitudeDegrees>
              <LongitudeDegrees>-3.88747346587479114532470703125</LongitudeDegrees>
            </Position>
            <AltitudeMeters>907.4000244140625</AltitudeMeters>
            <DistanceMeters>NAN</DistanceMeters>
          </Trackpoint>
          <Trackpoint>
            <Time>2020-03-07T16:33:06.000Z</Time>
            <Position>
              <LatitudeDegrees>40.71729063056409358978271484375</LatitudeDegrees>
              <LongitudeDegrees>-3.88765342533588409423828125</LongitudeDegrees>
            </Position>
            <AltitudeMeters>907.4000244140625</AltitudeMeters>
            <DistanceMeters>NAN</DistanceMeters>
          </Trackpoint>
          <Trackpoint>
            <Time>2020-03-07T16:33:07.000Z</Time>
            <Position>
              <LatitudeDegrees>40.7172466255724430084228515625</LatitudeDegrees>
              <LongitudeDegrees>-3.88774386607110500335693359375</LongitudeDegrees>
            </Position>
            <AltitudeMeters>907.20001220703125</AltitudeMeters>
            <DistanceMeters>NAN</DistanceMeters>
          </Trackpoint>
          <Trackpoint>
            <Time>2020-03-07T16:33:08.000Z</Time>
            <Position>
              <LatitudeDegrees>40.7172466255724430084228515625</LatitudeDegrees>
              <LongitudeDegrees>-3.88774386607110500335693359375</LongitudeDegrees>
            </Position>
            <AltitudeMeters>907.20001220703125</AltitudeMeters>
            <DistanceMeters>NAN</DistanceMeters>
          </Trackpoint>
          <Trackpoint>
            <Time>2020-03-07T16:33:09.000Z</Time>
            <Position>
              <LatitudeDegrees>40.71715987287461757659912109375</LatitudeDegrees>
              <LongitudeDegrees>-3.88792566955089569091796875</LongitudeDegrees>
            </Position>
            <AltitudeMeters>907.20001220703125</AltitudeMeters>
            <DistanceMeters>NAN</DistanceMeters>
          </Trackpoint>
          <Trackpoint>
            <Time>2020-03-07T16:33:10.000Z</Time>
            <Position>
              <LatitudeDegrees>40.71711729280650615692138671875</LatitudeDegrees>
              <LongitudeDegrees>-3.8880173675715923309326171875</LongitudeDegrees>
            </Position>
            <AltitudeMeters>907.20001220703125</AltitudeMeters>
            <DistanceMeters>NAN</DistanceMeters>
          </Trackpoint>
          <Trackpoint>
            <Time>2020-03-07T16:33:11.000Z</Time>
            <Position>
              <LatitudeDegrees>40.71707471273839473724365234375</LatitudeDegrees>
              <LongitudeDegrees>-3.88810931704938411712646484375</LongitudeDegrees>
            </Position>
            <AltitudeMeters>907.20001220703125</AltitudeMeters>
            <DistanceMeters>NAN</DistanceMeters>
          </Trackpoint>
          <Trackpoint>
            <Time>2020-03-07T16:33:12.000Z</Time>
            <Position>
              <LatitudeDegrees>40.71703188121318817138671875</LatitudeDegrees>
              <LongitudeDegrees>-3.88820168562233448028564453125</LongitudeDegrees>
            </Position>
            <AltitudeMeters>907.20001220703125</AltitudeMeters>
            <DistanceMeters>NAN</DistanceMeters>
          </Trackpoint>
          <Trackpoint>
            <Time>2020-03-07T16:33:13.000Z</Time>
            <Position>
              <LatitudeDegrees>40.71698963642120361328125</LatitudeDegrees>
              <LongitudeDegrees>-3.88829371891915798187255859375</LongitudeDegrees>
            </Position>
            <AltitudeMeters>907</AltitudeMeters>
            <DistanceMeters>NAN</DistanceMeters>
          </Trackpoint>
          <Trackpoint>
            <Time>2020-03-07T16:33:14.000Z</Time>
            <Position>
              <LatitudeDegrees>40.71698963642120361328125</LatitudeDegrees>
              <LongitudeDegrees>-3.88829371891915798187255859375</LongitudeDegrees>
            </Position>
            <AltitudeMeters>907</AltitudeMeters>
            <DistanceMeters>NAN</DistanceMeters>
          </Trackpoint>
          <Trackpoint>
            <Time>2020-03-07T16:33:15.000Z</Time>
            <Position>
              <LatitudeDegrees>40.71691025979816913604736328125</LatitudeDegrees>
              <LongitudeDegrees>-3.88847845606505870819091796875</LongitudeDegrees>
            </Position>
            <AltitudeMeters>906.79998779296875</AltitudeMeters>
            <DistanceMeters>NAN</DistanceMeters>
          </Trackpoint>
          <Trackpoint>
            <Time>2020-03-07T16:33:16.000Z</Time>
            <Position>
              <LatitudeDegrees>40.71686935611069202423095703125</LatitudeDegrees>
              <LongitudeDegrees>-3.88857099227607250213623046875</LongitudeDegrees>
            </Position>
            <AltitudeMeters>906.79998779296875</AltitudeMeters>
            <DistanceMeters>NAN</DistanceMeters>
          </Trackpoint>
          <Trackpoint>
            <Time>2020-03-07T16:33:17.000Z</Time>
            <Position>
              <LatitudeDegrees>40.71682862006127834320068359375</LatitudeDegrees>
              <LongitudeDegrees>-3.88866486959159374237060546875</LongitudeDegrees>
            </Position>
            <AltitudeMeters>906.79998779296875</AltitudeMeters>
            <DistanceMeters>NAN</DistanceMeters>
          </Trackpoint>
          <Trackpoint>
            <Time>2020-03-07T16:33:18.000Z</Time>
            <Position>
              <LatitudeDegrees>40.7167899794876575469970703125</LatitudeDegrees>
              <LongitudeDegrees>-3.88875941745936870574951171875</LongitudeDegrees>
            </Position>
            <AltitudeMeters>906.79998779296875</AltitudeMeters>
            <DistanceMeters>NAN</DistanceMeters>
          </Trackpoint>
          <Trackpoint>
            <Time>2020-03-07T16:33:19.000Z</Time>
            <Position>
              <LatitudeDegrees>40.71675200946629047393798828125</LatitudeDegrees>
              <LongitudeDegrees>-3.88885446824133396148681640625</LongitudeDegrees>
            </Position>
            <AltitudeMeters>906.79998779296875</AltitudeMeters>
            <DistanceMeters>NAN</DistanceMeters>
          </Trackpoint>
          <Trackpoint>
            <Time>2020-03-07T16:33:20.000Z</Time>
            <Position>
              <LatitudeDegrees>40.7167142070829868316650390625</LatitudeDegrees>
              <LongitudeDegrees>-3.8889494352042675018310546875</LongitudeDegrees>
            </Position>
            <AltitudeMeters>906.79998779296875</AltitudeMeters>
            <DistanceMeters>NAN</DistanceMeters>
          </Trackpoint>
          <Trackpoint>
            <Time>2020-03-07T16:33:21.000Z</Time>
            <Position>
              <LatitudeDegrees>40.7166759856045246124267578125</LatitudeDegrees>
              <LongitudeDegrees>-3.88904406689107418060302734375</LongitudeDegrees>
            </Position>
            <AltitudeMeters>906.79998779296875</AltitudeMeters>
            <DistanceMeters>NAN</DistanceMeters>
          </Trackpoint>
          <Trackpoint>
            <Time>2020-03-07T16:33:22.000Z</Time>
            <Position>
              <LatitudeDegrees>40.71663835085928440093994140625</LatitudeDegrees>
              <LongitudeDegrees>-3.88913895003497600555419921875</LongitudeDegrees>
            </Position>
            <AltitudeMeters>906.79998779296875</AltitudeMeters>
            <DistanceMeters>NAN</DistanceMeters>
          </Trackpoint>
          <Trackpoint>
            <Time>2020-03-07T16:33:23.000Z</Time>
            <Position>
              <LatitudeDegrees>40.7166005484759807586669921875</LatitudeDegrees>
              <LongitudeDegrees>-3.8892339169979095458984375</LongitudeDegrees>
            </Position>
            <AltitudeMeters>906.79998779296875</AltitudeMeters>
            <DistanceMeters>NAN</DistanceMeters>
          </Trackpoint>
          <Trackpoint>
            <Time>2020-03-07T16:33:24.000Z</Time>
            <Position>
              <LatitudeDegrees>40.71656207554042339324951171875</LatitudeDegrees>
              <LongitudeDegrees>-3.88932854868471622467041015625</LongitudeDegrees>
            </Position>
            <AltitudeMeters>906.79998779296875</AltitudeMeters>
            <DistanceMeters>NAN</DistanceMeters>
          </Trackpoint>
          <Trackpoint>
            <Time>2020-03-07T16:33:25.000Z</Time>
            <Position>
              <LatitudeDegrees>40.71652360260486602783203125</LatitudeDegrees>
              <LongitudeDegrees>-3.88942368328571319580078125</LongitudeDegrees>
            </Position>
            <AltitudeMeters>906.79998779296875</AltitudeMeters>
            <DistanceMeters>NAN</DistanceMeters>
          </Trackpoint>
          <Trackpoint>
            <Time>2020-03-07T16:33:26.000Z</Time>
            <Position>
              <LatitudeDegrees>40.71648546494543552398681640625</LatitudeDegrees>
              <LongitudeDegrees>-3.889519907534122467041015625</LongitudeDegrees>
            </Position>
            <AltitudeMeters>906.79998779296875</AltitudeMeters>
            <DistanceMeters>NAN</DistanceMeters>
          </Trackpoint>
          <Trackpoint>
            <Time>2020-03-07T16:33:27.000Z</Time>
            <Position>
              <LatitudeDegrees>40.71644741110503673553466796875</LatitudeDegrees>
              <LongitudeDegrees>-3.88961537741124629974365234375</LongitudeDegrees>
            </Position>
            <AltitudeMeters>906.5999755859375</AltitudeMeters>
            <DistanceMeters>NAN</DistanceMeters>
          </Trackpoint>
          <Trackpoint>
            <Time>2020-03-07T16:33:28.000Z</Time>
            <Position>
              <LatitudeDegrees>40.7164101116359233856201171875</LatitudeDegrees>
              <LongitudeDegrees>-3.88971126638352870941162109375</LongitudeDegrees>
            </Position>
            <AltitudeMeters>906.5999755859375</AltitudeMeters>
            <DistanceMeters>NAN</DistanceMeters>
          </Trackpoint>
          <Trackpoint>
            <Time>2020-03-07T16:33:29.000Z</Time>
            <Position>
              <LatitudeDegrees>40.716373063623905181884765625</LatitudeDegrees>
              <LongitudeDegrees>-3.88980715535581111907958984375</LongitudeDegrees>
            </Position>
            <AltitudeMeters>906.5999755859375</AltitudeMeters>
            <DistanceMeters>NAN</DistanceMeters>
          </Trackpoint>
          <Trackpoint>
            <Time>2020-03-07T16:33:30.000Z</Time>
            <Position>
              <LatitudeDegrees>40.71633811108767986297607421875</LatitudeDegrees>
              <LongitudeDegrees>-3.8899026252329349517822265625</LongitudeDegrees>
            </Position>
            <AltitudeMeters>906.5999755859375</AltitudeMeters>
            <DistanceMeters>NAN</DistanceMeters>
          </Trackpoint>
          <Trackpoint>
            <Time>2020-03-07T16:33:31.000Z</Time>
            <Position>
              <LatitudeDegrees>40.7163028232753276824951171875</LatitudeDegrees>
              <LongitudeDegrees>-3.88999759219586849212646484375</LongitudeDegrees>
            </Position>
            <AltitudeMeters>906.5999755859375</AltitudeMeters>
            <DistanceMeters>NAN</DistanceMeters>
          </Trackpoint>
          <Trackpoint>
            <Time>2020-03-07T16:33:32.000Z</Time>
            <Position>
              <LatitudeDegrees>40.71626485325396060943603515625</LatitudeDegrees>
              <LongitudeDegrees>-3.8900923915207386016845703125</LongitudeDegrees>
            </Position>
            <AltitudeMeters>906.5999755859375</AltitudeMeters>
            <DistanceMeters>NAN</DistanceMeters>
          </Trackpoint>
          <Trackpoint>
            <Time>2020-03-07T16:33:33.000Z</Time>
            <Position>
              <LatitudeDegrees>40.716225206851959228515625</LatitudeDegrees>
              <LongitudeDegrees>-3.89018635265529155731201171875</LongitudeDegrees>
            </Position>
            <AltitudeMeters>906.4000244140625</AltitudeMeters>
            <DistanceMeters>NAN</DistanceMeters>
          </Trackpoint>
          <Trackpoint>
            <Time>2020-03-07T16:33:34.000Z</Time>
            <Position>
              <LatitudeDegrees>40.7161868177354335784912109375</LatitudeDegrees>
              <LongitudeDegrees>-3.8902777992188930511474609375</LongitudeDegrees>
            </Position>
            <AltitudeMeters>906.4000244140625</AltitudeMeters>
            <DistanceMeters>NAN</DistanceMeters>
          </Trackpoint>
          <Trackpoint>
            <Time>2020-03-07T16:33:35.000Z</Time>
            <Position>
              <LatitudeDegrees>40.71614884771406650543212890625</LatitudeDegrees>
              <LongitudeDegrees>-3.8903710059821605682373046875</LongitudeDegrees>
            </Position>
            <AltitudeMeters>906.4000244140625</AltitudeMeters>
            <DistanceMeters>NAN</DistanceMeters>
          </Trackpoint>
          <Trackpoint>
            <Time>2020-03-07T16:33:36.000Z</Time>
            <Position>
              <LatitudeDegrees>40.7161097042262554168701171875</LatitudeDegrees>
              <LongitudeDegrees>-3.89046580530703067779541015625</LongitudeDegrees>
            </Position>
            <AltitudeMeters>906.4000244140625</AltitudeMeters>
            <DistanceMeters>NAN</DistanceMeters>
          </Trackpoint>
          <Trackpoint>
            <Time>2020-03-07T16:33:37.000Z</Time>
            <Position>
              <LatitudeDegrees>40.7160711474716663360595703125</LatitudeDegrees>
              <LongitudeDegrees>-3.89056119136512279510498046875</LongitudeDegrees>
            </Position>
            <AltitudeMeters>906.20001220703125</AltitudeMeters>
            <DistanceMeters>NAN</DistanceMeters>
          </Trackpoint>
          <Trackpoint>
            <Time>2020-03-07T16:33:38.000Z</Time>
            <Position>
              <LatitudeDegrees>40.7160329259932041168212890625</LatitudeDegrees>
              <LongitudeDegrees>-3.8906549848616123199462890625</LongitudeDegrees>
            </Position>
            <AltitudeMeters>906.20001220703125</AltitudeMeters>
            <DistanceMeters>NAN</DistanceMeters>
          </Trackpoint>
          <Trackpoint>
            <Time>2020-03-07T16:33:39.000Z</Time>
            <Position>
              <LatitudeDegrees>40.71599545888602733612060546875</LatitudeDegrees>
              <LongitudeDegrees>-3.8907488621771335601806640625</LongitudeDegrees>
            </Position>
            <AltitudeMeters>906.20001220703125</AltitudeMeters>
            <DistanceMeters>NAN</DistanceMeters>
          </Trackpoint>
          <Trackpoint>
            <Time>2020-03-07T16:33:40.000Z</Time>
            <Position>
              <LatitudeDegrees>40.7159584946930408477783203125</LatitudeDegrees>
              <LongitudeDegrees>-3.89084164984524250030517578125</LongitudeDegrees>
            </Position>
            <AltitudeMeters>906.20001220703125</AltitudeMeters>
            <DistanceMeters>NAN</DistanceMeters>
          </Trackpoint>
          <Trackpoint>
            <Time>2020-03-07T16:33:41.000Z</Time>
            <Position>
              <LatitudeDegrees>40.7159219495952129364013671875</LatitudeDegrees>
              <LongitudeDegrees>-3.89093234203755855560302734375</LongitudeDegrees>
            </Position>
            <AltitudeMeters>906.20001220703125</AltitudeMeters>
            <DistanceMeters>NAN</DistanceMeters>
          </Trackpoint>
          <Trackpoint>
            <Time>2020-03-07T16:33:42.000Z</Time>
            <Position>
              <LatitudeDegrees>40.71588548831641674041748046875</LatitudeDegrees>
              <LongitudeDegrees>-3.89102269895374774932861328125</LongitudeDegrees>
            </Position>
            <AltitudeMeters>906.20001220703125</AltitudeMeters>
            <DistanceMeters>NAN</DistanceMeters>
          </Trackpoint>
          <Trackpoint>
            <Time>2020-03-07T16:33:43.000Z</Time>
            <Position>
              <LatitudeDegrees>40.7158508710563182830810546875</LatitudeDegrees>
              <LongitudeDegrees>-3.89111205004155635833740234375</LongitudeDegrees>
            </Position>
            <AltitudeMeters>906.20001220703125</AltitudeMeters>
            <DistanceMeters>NAN</DistanceMeters>
          </Trackpoint>
          <Trackpoint>
            <Time>2020-03-07T16:33:44.000Z</Time>
            <Position>
              <LatitudeDegrees>40.7158160023391246795654296875</LatitudeDegrees>
              <LongitudeDegrees>-3.8912008143961429595947265625</LongitudeDegrees>
            </Position>
            <AltitudeMeters>906.20001220703125</AltitudeMeters>
            <DistanceMeters>NAN</DistanceMeters>
          </Trackpoint>
          <Trackpoint>
            <Time>2020-03-07T16:33:45.000Z</Time>
            <Position>
              <LatitudeDegrees>40.71578088216483592987060546875</LatitudeDegrees>
              <LongitudeDegrees>-3.89128991402685642242431640625</LongitudeDegrees>
            </Position>
            <AltitudeMeters>906.4000244140625</AltitudeMeters>
            <DistanceMeters>NAN</DistanceMeters>
          </Trackpoint>
          <Trackpoint>
            <Time>2020-03-07T16:33:46.000Z</Time>
            <Position>
              <LatitudeDegrees>40.7157462649047374725341796875</LatitudeDegrees>
              <LongitudeDegrees>-3.89137976802885532379150390625</LongitudeDegrees>
            </Position>
            <AltitudeMeters>906.4000244140625</AltitudeMeters>
            <DistanceMeters>NAN</DistanceMeters>
          </Trackpoint>
          <Trackpoint>
            <Time>2020-03-07T16:33:47.000Z</Time>
            <Position>
              <LatitudeDegrees>40.7157117314636707305908203125</LatitudeDegrees>
              <LongitudeDegrees>-3.891470544040203094482421875</LongitudeDegrees>
            </Position>
            <AltitudeMeters>906.5999755859375</AltitudeMeters>
            <DistanceMeters>NAN</DistanceMeters>
          </Trackpoint>
          <Trackpoint>
            <Time>2020-03-07T16:33:48.000Z</Time>
            <Position>
              <LatitudeDegrees>40.71567644365131855010986328125</LatitudeDegrees>
              <LongitudeDegrees>-3.891562409698963165283203125</LongitudeDegrees>
            </Position>
            <AltitudeMeters>906.5999755859375</AltitudeMeters>
            <DistanceMeters>NAN</DistanceMeters>
          </Trackpoint>
          <Trackpoint>
            <Time>2020-03-07T16:33:49.000Z</Time>
            <Position>
              <LatitudeDegrees>40.71564358659088611602783203125</LatitudeDegrees>
              <LongitudeDegrees>-3.891654275357723236083984375</LongitudeDegrees>
            </Position>
            <AltitudeMeters>906.5999755859375</AltitudeMeters>
            <DistanceMeters>NAN</DistanceMeters>
          </Trackpoint>
          <Trackpoint>
            <Time>2020-03-07T16:33:50.000Z</Time>
            <Position>
              <LatitudeDegrees>40.71561072953045368194580078125</LatitudeDegrees>
              <LongitudeDegrees>-3.89174739830195903778076171875</LongitudeDegrees>
            </Position>
            <AltitudeMeters>906.79998779296875</AltitudeMeters>
            <DistanceMeters>NAN</DistanceMeters>
          </Trackpoint>
          <Trackpoint>
            <Time>2020-03-07T16:33:51.000Z</Time>
            <Position>
              <LatitudeDegrees>40.71557954885065555572509765625</LatitudeDegrees>
              <LongitudeDegrees>-3.8918415270745754241943359375</LongitudeDegrees>
            </Position>
            <AltitudeMeters>906.79998779296875</AltitudeMeters>
            <DistanceMeters>NAN</DistanceMeters>
          </Trackpoint>
          <Trackpoint>
            <Time>2020-03-07T16:33:52.000Z</Time>
            <Position>
              <LatitudeDegrees>40.715548954904079437255859375</LatitudeDegrees>
              <LongitudeDegrees>-3.89193666167557239532470703125</LongitudeDegrees>
            </Position>
            <AltitudeMeters>906.79998779296875</AltitudeMeters>
            <DistanceMeters>NAN</DistanceMeters>
          </Trackpoint>
          <Trackpoint>
            <Time>2020-03-07T16:33:53.000Z</Time>
            <Position>
              <LatitudeDegrees>40.71551978588104248046875</LatitudeDegrees>
              <LongitudeDegrees>-3.892032802104949951171875</LongitudeDegrees>
            </Position>
            <AltitudeMeters>907</AltitudeMeters>
            <DistanceMeters>NAN</DistanceMeters>
          </Trackpoint>
          <Trackpoint>
            <Time>2020-03-07T16:33:54.000Z</Time>
            <Position>
              <LatitudeDegrees>40.71549321524798870086669921875</LatitudeDegrees>
              <LongitudeDegrees>-3.89213078655302524566650390625</LongitudeDegrees>
            </Position>
            <AltitudeMeters>907</AltitudeMeters>
            <DistanceMeters>NAN</DistanceMeters>
          </Trackpoint>
          <Trackpoint>
            <Time>2020-03-07T16:33:55.000Z</Time>
            <Position>
              <LatitudeDegrees>40.715469829738140106201171875</LatitudeDegrees>
              <LongitudeDegrees>-3.89223002828657627105712890625</LongitudeDegrees>
            </Position>
            <AltitudeMeters>907</AltitudeMeters>
            <DistanceMeters>NAN</DistanceMeters>
          </Trackpoint>
          <Trackpoint>
            <Time>2020-03-07T16:33:56.000Z</Time>
            <Position>
              <LatitudeDegrees>40.7154500484466552734375</LatitudeDegrees>
              <LongitudeDegrees>-3.8923286832869052886962890625</LongitudeDegrees>
            </Position>
            <AltitudeMeters>907</AltitudeMeters>
            <DistanceMeters>NAN</DistanceMeters>
          </Trackpoint>
          <Trackpoint>
            <Time>2020-03-07T16:33:57.000Z</Time>
            <Position>
              <LatitudeDegrees>40.71543353609740734100341796875</LatitudeDegrees>
              <LongitudeDegrees>-3.89242834411561489105224609375</LongitudeDegrees>
            </Position>
            <AltitudeMeters>907</AltitudeMeters>
            <DistanceMeters>NAN</DistanceMeters>
          </Trackpoint>
          <Trackpoint>
            <Time>2020-03-07T16:33:58.000Z</Time>
            <Position>
              <LatitudeDegrees>40.71542079560458660125732421875</LatitudeDegrees>
              <LongitudeDegrees>-3.8925261609256267547607421875</LongitudeDegrees>
            </Position>
            <AltitudeMeters>907</AltitudeMeters>
            <DistanceMeters>NAN</DistanceMeters>
          </Trackpoint>
          <Trackpoint>
            <Time>2020-03-07T16:33:59.000Z</Time>
            <Position>
              <LatitudeDegrees>40.7154089771211147308349609375</LatitudeDegrees>
              <LongitudeDegrees>-3.8926227204501628875732421875</LongitudeDegrees>
            </Position>
            <AltitudeMeters>907.20001220703125</AltitudeMeters>
            <DistanceMeters>NAN</DistanceMeters>
          </Trackpoint>
          <Trackpoint>
            <Time>2020-03-07T16:34:00.000Z</Time>
            <Position>
              <LatitudeDegrees>40.71539917029440402984619140625</LatitudeDegrees>
              <LongitudeDegrees>-3.8927209563553333282470703125</LongitudeDegrees>
            </Position>
            <AltitudeMeters>907.20001220703125</AltitudeMeters>
            <DistanceMeters>NAN</DistanceMeters>
          </Trackpoint>
          <Trackpoint>
            <Time>2020-03-07T16:34:01.000Z</Time>
            <Position>
              <LatitudeDegrees>40.7153925485908985137939453125</LatitudeDegrees>
              <LongitudeDegrees>-3.89281910844147205352783203125</LongitudeDegrees>
            </Position>
            <AltitudeMeters>907.20001220703125</AltitudeMeters>
            <DistanceMeters>NAN</DistanceMeters>
          </Trackpoint>
          <Trackpoint>
            <Time>2020-03-07T16:34:02.000Z</Time>
            <Position>
              <LatitudeDegrees>40.71538760326802730560302734375</LatitudeDegrees>
              <LongitudeDegrees>-3.8929164223372936248779296875</LongitudeDegrees>
            </Position>
            <AltitudeMeters>907.20001220703125</AltitudeMeters>
            <DistanceMeters>NAN</DistanceMeters>
          </Trackpoint>
          <Trackpoint>
            <Time>2020-03-07T16:34:03.000Z</Time>
            <Position>
              <LatitudeDegrees>40.7153811492025852203369140625</LatitudeDegrees>
              <LongitudeDegrees>-3.89301256276667118072509765625</LongitudeDegrees>
            </Position>
            <AltitudeMeters>907.4000244140625</AltitudeMeters>
            <DistanceMeters>NAN</DistanceMeters>
          </Trackpoint>
          <Trackpoint>
            <Time>2020-03-07T16:34:04.000Z</Time>
            <Position>
              <LatitudeDegrees>40.7153761200606822967529296875</LatitudeDegrees>
              <LongitudeDegrees>-3.893108367919921875</LongitudeDegrees>
            </Position>
            <AltitudeMeters>907.5999755859375</AltitudeMeters>
            <DistanceMeters>NAN</DistanceMeters>
          </Trackpoint>
          <Trackpoint>
            <Time>2020-03-07T16:34:05.000Z</Time>
            <Position>
              <LatitudeDegrees>40.715371929109096527099609375</LatitudeDegrees>
              <LongitudeDegrees>-3.89320425689220428466796875</LongitudeDegrees>
            </Position>
            <AltitudeMeters>907.79998779296875</AltitudeMeters>
            <DistanceMeters>NAN</DistanceMeters>
          </Trackpoint>
          <Trackpoint>
            <Time>2020-03-07T16:34:06.000Z</Time>
            <Position>
              <LatitudeDegrees>40.7153670676052570343017578125</LatitudeDegrees>
              <LongitudeDegrees>-3.893301151692867279052734375</LongitudeDegrees>
            </Position>
            <AltitudeMeters>907.79998779296875</AltitudeMeters>
            <DistanceMeters>NAN</DistanceMeters>
          </Trackpoint>
          <Trackpoint>
            <Time>2020-03-07T16:34:07.000Z</Time>
            <Position>
              <LatitudeDegrees>40.71536178700625896453857421875</LatitudeDegrees>
              <LongitudeDegrees>-3.89339796267449855804443359375</LongitudeDegrees>
            </Position>
            <AltitudeMeters>908</AltitudeMeters>
            <DistanceMeters>NAN</DistanceMeters>
          </Trackpoint>
          <Trackpoint>
            <Time>2020-03-07T16:34:08.000Z</Time>
            <Position>
              <LatitudeDegrees>40.7153580151498317718505859375</LatitudeDegrees>
              <LongitudeDegrees>-3.8934947736561298370361328125</LongitudeDegrees>
            </Position>
            <AltitudeMeters>908</AltitudeMeters>
            <DistanceMeters>NAN</DistanceMeters>
          </Trackpoint>
          <Trackpoint>
            <Time>2020-03-07T16:34:09.000Z</Time>
            <Position>
              <LatitudeDegrees>40.71535474620759487152099609375</LatitudeDegrees>
              <LongitudeDegrees>-3.8935911655426025390625</LongitudeDegrees>
            </Position>
            <AltitudeMeters>908</AltitudeMeters>
            <DistanceMeters>NAN</DistanceMeters>
          </Trackpoint>
          <Trackpoint>
            <Time>2020-03-07T16:34:10.000Z</Time>
            <Position>
              <LatitudeDegrees>40.7153509743511676788330078125</LatitudeDegrees>
              <LongitudeDegrees>-3.89368797652423381805419921875</LongitudeDegrees>
            </Position>
            <AltitudeMeters>908</AltitudeMeters>
            <DistanceMeters>NAN</DistanceMeters>
          </Trackpoint>
          <Trackpoint>
            <Time>2020-03-07T16:34:11.000Z</Time>
            <Position>
              <LatitudeDegrees>40.7153466157615184783935546875</LatitudeDegrees>
              <LongitudeDegrees>-3.8937844522297382354736328125</LongitudeDegrees>
            </Position>
            <AltitudeMeters>908</AltitudeMeters>
            <DistanceMeters>NAN</DistanceMeters>
          </Trackpoint>
          <Trackpoint>
            <Time>2020-03-07T16:34:12.000Z</Time>
            <Position>
              <LatitudeDegrees>40.71534016169607639312744140625</LatitudeDegrees>
              <LongitudeDegrees>-3.8938821852207183837890625</LongitudeDegrees>
            </Position>
            <AltitudeMeters>908</AltitudeMeters>
            <DistanceMeters>NAN</DistanceMeters>
          </Trackpoint>
          <Trackpoint>
            <Time>2020-03-07T16:34:13.000Z</Time>
            <Position>
              <LatitudeDegrees>40.7153338752686977386474609375</LatitudeDegrees>
              <LongitudeDegrees>-3.89397966675460338592529296875</LongitudeDegrees>
            </Position>
            <AltitudeMeters>908.20001220703125</AltitudeMeters>
            <DistanceMeters>NAN</DistanceMeters>
          </Trackpoint>
          <Trackpoint>
            <Time>2020-03-07T16:34:14.000Z</Time>
            <Position>
              <LatitudeDegrees>40.7153305225074291229248046875</LatitudeDegrees>
              <LongitudeDegrees>-3.89407723210752010345458984375</LongitudeDegrees>
            </Position>
            <AltitudeMeters>908.20001220703125</AltitudeMeters>
            <DistanceMeters>NAN</DistanceMeters>
          </Trackpoint>
          <Trackpoint>
            <Time>2020-03-07T16:34:15.000Z</Time>
            <Position>
              <LatitudeDegrees>40.715327672660350799560546875</LatitudeDegrees>
              <LongitudeDegrees>-3.89417630620300769805908203125</LongitudeDegrees>
            </Position>
            <AltitudeMeters>908.20001220703125</AltitudeMeters>
            <DistanceMeters>NAN</DistanceMeters>
          </Trackpoint>
          <Trackpoint>
            <Time>2020-03-07T16:34:16.000Z</Time>
            <Position>
              <LatitudeDegrees>40.71532390080392360687255859375</LatitudeDegrees>
              <LongitudeDegrees>-3.89427454210817813873291015625</LongitudeDegrees>
            </Position>
            <AltitudeMeters>908.20001220703125</AltitudeMeters>
            <DistanceMeters>NAN</DistanceMeters>
          </Trackpoint>
          <Trackpoint>
            <Time>2020-03-07T16:34:17.000Z</Time>
            <Position>
              <LatitudeDegrees>40.71531753055751323699951171875</LatitudeDegrees>
              <LongitudeDegrees>-3.89437328092753887176513671875</LongitudeDegrees>
            </Position>
            <AltitudeMeters>908.20001220703125</AltitudeMeters>
            <DistanceMeters>NAN</DistanceMeters>
          </Trackpoint>
          <Trackpoint>
            <Time>2020-03-07T16:34:18.000Z</Time>
            <Position>
              <LatitudeDegrees>40.71530998684465885162353515625</LatitudeDegrees>
              <LongitudeDegrees>-3.89447252266108989715576171875</LongitudeDegrees>
            </Position>
            <AltitudeMeters>908.20001220703125</AltitudeMeters>
            <DistanceMeters>NAN</DistanceMeters>
          </Trackpoint>
          <Trackpoint>
            <Time>2020-03-07T16:34:19.000Z</Time>
            <Position>
              <LatitudeDegrees>40.7153038680553436279296875</LatitudeDegrees>
              <LongitudeDegrees>-3.89457360841333866119384765625</LongitudeDegrees>
            </Position>
            <AltitudeMeters>908.20001220703125</AltitudeMeters>
            <DistanceMeters>NAN</DistanceMeters>
          </Trackpoint>
          <Trackpoint>
            <Time>2020-03-07T16:34:20.000Z</Time>
            <Position>
              <LatitudeDegrees>40.71530026383697986602783203125</LatitudeDegrees>
              <LongitudeDegrees>-3.89467452652752399444580078125</LongitudeDegrees>
            </Position>
            <AltitudeMeters>908.20001220703125</AltitudeMeters>
            <DistanceMeters>NAN</DistanceMeters>
          </Trackpoint>
          <Trackpoint>
            <Time>2020-03-07T16:34:21.000Z</Time>
            <Position>
              <LatitudeDegrees>40.71529691107571125030517578125</LatitudeDegrees>
              <LongitudeDegrees>-3.8947758637368679046630859375</LongitudeDegrees>
            </Position>
            <AltitudeMeters>908.20001220703125</AltitudeMeters>
            <DistanceMeters>NAN</DistanceMeters>
          </Trackpoint>
          <Trackpoint>
            <Time>2020-03-07T16:34:22.000Z</Time>
            <Position>
              <LatitudeDegrees>40.71529288776218891143798828125</LatitudeDegrees>
              <LongitudeDegrees>-3.89487736858427524566650390625</LongitudeDegrees>
            </Position>
            <AltitudeMeters>908.4000244140625</AltitudeMeters>
            <DistanceMeters>NAN</DistanceMeters>
          </Trackpoint>
          <Trackpoint>
            <Time>2020-03-07T16:34:23.000Z</Time>
            <Position>
              <LatitudeDegrees>40.71528668515384197235107421875</LatitudeDegrees>
              <LongitudeDegrees>-3.8949792087078094482421875</LongitudeDegrees>
            </Position>
            <AltitudeMeters>908.4000244140625</AltitudeMeters>
            <DistanceMeters>NAN</DistanceMeters>
          </Trackpoint>
          <Trackpoint>
            <Time>2020-03-07T16:34:24.000Z</Time>
            <Position>
              <LatitudeDegrees>40.71527981199324131011962890625</LatitudeDegrees>
              <LongitudeDegrees>-3.8950813002884387969970703125</LongitudeDegrees>
            </Position>
            <AltitudeMeters>908.5999755859375</AltitudeMeters>
            <DistanceMeters>NAN</DistanceMeters>
          </Trackpoint>
          <Trackpoint>
            <Time>2020-03-07T16:34:25.000Z</Time>
            <Position>
              <LatitudeDegrees>40.71527461521327495574951171875</LatitudeDegrees>
              <LongitudeDegrees>-3.89518280513584613800048828125</LongitudeDegrees>
            </Position>
            <AltitudeMeters>908.79998779296875</AltitudeMeters>
            <DistanceMeters>NAN</DistanceMeters>
          </Trackpoint>
          <Trackpoint>
            <Time>2020-03-07T16:34:26.000Z</Time>
            <Position>
              <LatitudeDegrees>40.71526966989040374755859375</LatitudeDegrees>
              <LongitudeDegrees>-3.89528456144034862518310546875</LongitudeDegrees>
            </Position>
            <AltitudeMeters>909</AltitudeMeters>
            <DistanceMeters>NAN</DistanceMeters>
          </Trackpoint>
          <Trackpoint>
            <Time>2020-03-07T16:34:27.000Z</Time>
            <Position>
              <LatitudeDegrees>40.71526455692946910858154296875</LatitudeDegrees>
              <LongitudeDegrees>-3.8953867368400096893310546875</LongitudeDegrees>
            </Position>
            <AltitudeMeters>909</AltitudeMeters>
            <DistanceMeters>NAN</DistanceMeters>
          </Trackpoint>
          <Trackpoint>
            <Time>2020-03-07T16:34:28.000Z</Time>
            <Position>
              <LatitudeDegrees>40.7152597792446613311767578125</LatitudeDegrees>
              <LongitudeDegrees>-3.8954889960587024688720703125</LongitudeDegrees>
            </Position>
            <AltitudeMeters>909.20001220703125</AltitudeMeters>
            <DistanceMeters>NAN</DistanceMeters>
          </Trackpoint>
          <Trackpoint>
            <Time>2020-03-07T16:34:29.000Z</Time>
            <Position>
              <LatitudeDegrees>40.7152550853788852691650390625</LatitudeDegrees>
              <LongitudeDegrees>-3.89559142291545867919921875</LongitudeDegrees>
            </Position>
            <AltitudeMeters>909.20001220703125</AltitudeMeters>
            <DistanceMeters>NAN</DistanceMeters>
          </Trackpoint>
          <Trackpoint>
            <Time>2020-03-07T16:34:30.000Z</Time>
            <Position>
              <LatitudeDegrees>40.71524946950376033782958984375</LatitudeDegrees>
              <LongitudeDegrees>-3.8956941850483417510986328125</LongitudeDegrees>
            </Position>
            <AltitudeMeters>909.20001220703125</AltitudeMeters>
            <DistanceMeters>NAN</DistanceMeters>
          </Trackpoint>
          <Trackpoint>
            <Time>2020-03-07T16:34:31.000Z</Time>
            <Position>
              <LatitudeDegrees>40.71524226106703281402587890625</LatitudeDegrees>
              <LongitudeDegrees>-3.89579887501895427703857421875</LongitudeDegrees>
            </Position>
            <AltitudeMeters>909.20001220703125</AltitudeMeters>
            <DistanceMeters>NAN</DistanceMeters>
          </Trackpoint>
          <Trackpoint>
            <Time>2020-03-07T16:34:32.000Z</Time>
            <Position>
              <LatitudeDegrees>40.71523572318255901336669921875</LatitudeDegrees>
              <LongitudeDegrees>-3.89590465463697910308837890625</LongitudeDegrees>
            </Position>
            <AltitudeMeters>909.4000244140625</AltitudeMeters>
            <DistanceMeters>NAN</DistanceMeters>
          </Trackpoint>
          <Trackpoint>
            <Time>2020-03-07T16:34:33.000Z</Time>
            <Position>
              <LatitudeDegrees>40.7152312807738780975341796875</LatitudeDegrees>
              <LongitudeDegrees>-3.89601060189306735992431640625</LongitudeDegrees>
            </Position>
            <AltitudeMeters>909.4000244140625</AltitudeMeters>
            <DistanceMeters>NAN</DistanceMeters>
          </Trackpoint>
          <Trackpoint>
            <Time>2020-03-07T16:34:34.000Z</Time>
            <Position>
              <LatitudeDegrees>40.71522717364132404327392578125</LatitudeDegrees>
              <LongitudeDegrees>-3.8961159624159336090087890625</LongitudeDegrees>
            </Position>
            <AltitudeMeters>909.5999755859375</AltitudeMeters>
            <DistanceMeters>NAN</DistanceMeters>
          </Trackpoint>
          <Trackpoint>
            <Time>2020-03-07T16:34:35.000Z</Time>
            <Position>
              <LatitudeDegrees>40.7152225635945796966552734375</LatitudeDegrees>
              <LongitudeDegrees>-3.89622115530073642730712890625</LongitudeDegrees>
            </Position>
            <AltitudeMeters>909.5999755859375</AltitudeMeters>
            <DistanceMeters>NAN</DistanceMeters>
          </Trackpoint>
          <Trackpoint>
            <Time>2020-03-07T16:34:36.000Z</Time>
            <Position>
              <LatitudeDegrees>40.715219713747501373291015625</LatitudeDegrees>
              <LongitudeDegrees>-3.8963248394429683685302734375</LongitudeDegrees>
            </Position>
            <AltitudeMeters>909.5999755859375</AltitudeMeters>
            <DistanceMeters>NAN</DistanceMeters>
          </Trackpoint>
          <Trackpoint>
            <Time>2020-03-07T16:34:37.000Z</Time>
            <Position>
              <LatitudeDegrees>40.7152158580720424652099609375</LatitudeDegrees>
              <LongitudeDegrees>-3.89642667956650257110595703125</LongitudeDegrees>
            </Position>
            <AltitudeMeters>909.5999755859375</AltitudeMeters>
            <DistanceMeters>NAN</DistanceMeters>
          </Trackpoint>
          <Trackpoint>
            <Time>2020-03-07T16:34:38.000Z</Time>
            <Position>
              <LatitudeDegrees>40.71520990692079067230224609375</LatitudeDegrees>
              <LongitudeDegrees>-3.89652843587100505828857421875</LongitudeDegrees>
            </Position>
            <AltitudeMeters>909.5999755859375</AltitudeMeters>
            <DistanceMeters>NAN</DistanceMeters>
          </Trackpoint>
          <Trackpoint>
            <Time>2020-03-07T16:34:39.000Z</Time>
            <Position>
              <LatitudeDegrees>40.71520152501761913299560546875</LatitudeDegrees>
              <LongitudeDegrees>-3.89663480222225189208984375</LongitudeDegrees>
            </Position>
            <AltitudeMeters>909.5999755859375</AltitudeMeters>
            <DistanceMeters>NAN</DistanceMeters>
          </Trackpoint>
          <Trackpoint>
            <Time>2020-03-07T16:34:40.000Z</Time>
            <Position>
              <LatitudeDegrees>40.7151957415044307708740234375</LatitudeDegrees>
              <LongitudeDegrees>-3.8967387378215789794921875</LongitudeDegrees>
            </Position>
            <AltitudeMeters>909.79998779296875</AltitudeMeters>
            <DistanceMeters>NAN</DistanceMeters>
          </Trackpoint>
          <Trackpoint>
            <Time>2020-03-07T16:34:41.000Z</Time>
            <Position>
              <LatitudeDegrees>40.7151917181909084320068359375</LatitudeDegrees>
              <LongitudeDegrees>-3.8968421705067157745361328125</LongitudeDegrees>
            </Position>
            <AltitudeMeters>909.79998779296875</AltitudeMeters>
            <DistanceMeters>NAN</DistanceMeters>
          </Trackpoint>
          <Trackpoint>
            <Time>2020-03-07T16:34:42.000Z</Time>
            <Position>
              <LatitudeDegrees>40.71518828161060810089111328125</LatitudeDegrees>
              <LongitudeDegrees>-3.89694401063024997711181640625</LongitudeDegrees>
            </Position>
            <AltitudeMeters>909.79998779296875</AltitudeMeters>
            <DistanceMeters>NAN</DistanceMeters>
          </Trackpoint>
          <Trackpoint>
            <Time>2020-03-07T16:34:43.000Z</Time>
            <Position>
              <LatitudeDegrees>40.71518291719257831573486328125</LatitudeDegrees>
              <LongitudeDegrees>-3.89704492874443531036376953125</LongitudeDegrees>
            </Position>
            <AltitudeMeters>909.79998779296875</AltitudeMeters>
            <DistanceMeters>NAN</DistanceMeters>
          </Trackpoint>
          <Trackpoint>
            <Time>2020-03-07T16:34:44.000Z</Time>
            <Position>
              <LatitudeDegrees>40.71517755277454853057861328125</LatitudeDegrees>
              <LongitudeDegrees>-3.89714517630636692047119140625</LongitudeDegrees>
            </Position>
            <AltitudeMeters>909.79998779296875</AltitudeMeters>
            <DistanceMeters>NAN</DistanceMeters>
          </Trackpoint>
          <Trackpoint>
            <Time>2020-03-07T16:34:45.000Z</Time>
            <Position>
              <LatitudeDegrees>40.71517755277454853057861328125</LatitudeDegrees>
              <LongitudeDegrees>-3.89714517630636692047119140625</LongitudeDegrees>
            </Position>
            <AltitudeMeters>910</AltitudeMeters>
            <DistanceMeters>NAN</DistanceMeters>
          </Trackpoint>
          <Trackpoint>
            <Time>2020-03-07T16:34:46.000Z</Time>
            <Position>
              <LatitudeDegrees>40.71517336182296276092529296875</LatitudeDegrees>
              <LongitudeDegrees>-3.8972455076873302459716796875</LongitudeDegrees>
            </Position>
            <AltitudeMeters>910</AltitudeMeters>
            <DistanceMeters>NAN</DistanceMeters>
          </Trackpoint>
          <Trackpoint>
            <Time>2020-03-07T16:34:47.000Z</Time>
            <Position>
              <LatitudeDegrees>40.71516900323331356048583984375</LatitudeDegrees>
              <LongitudeDegrees>-3.89734500087797641754150390625</LongitudeDegrees>
            </Position>
            <AltitudeMeters>910</AltitudeMeters>
            <DistanceMeters>NAN</DistanceMeters>
          </Trackpoint>
          <Trackpoint>
            <Time>2020-03-07T16:34:48.000Z</Time>
            <Position>
              <LatitudeDegrees>40.71516363881528377532958984375</LatitudeDegrees>
              <LongitudeDegrees>-3.89744608663022518157958984375</LongitudeDegrees>
            </Position>
            <AltitudeMeters>909.79998779296875</AltitudeMeters>
            <DistanceMeters>NAN</DistanceMeters>
          </Trackpoint>
          <Trackpoint>
            <Time>2020-03-07T16:34:49.000Z</Time>
            <Position>
              <LatitudeDegrees>40.71515844203531742095947265625</LatitudeDegrees>
              <LongitudeDegrees>-3.8975462503731250762939453125</LongitudeDegrees>
            </Position>
            <AltitudeMeters>909.79998779296875</AltitudeMeters>
            <DistanceMeters>NAN</DistanceMeters>
          </Trackpoint>
          <Trackpoint>
            <Time>2020-03-07T16:34:50.000Z</Time>
            <Position>
              <LatitudeDegrees>40.71515274234116077423095703125</LatitudeDegrees>
              <LongitudeDegrees>-3.89764741994440555572509765625</LongitudeDegrees>
            </Position>
            <AltitudeMeters>909.79998779296875</AltitudeMeters>
            <DistanceMeters>NAN</DistanceMeters>
          </Trackpoint>
          <Trackpoint>
            <Time>2020-03-07T16:34:51.000Z</Time>
            <Position>
              <LatitudeDegrees>40.7151402533054351806640625</LatitudeDegrees>
              <LongitudeDegrees>-3.89784908853471279144287109375</LongitudeDegrees>
            </Position>
            <AltitudeMeters>910</AltitudeMeters>
            <DistanceMeters>NAN</DistanceMeters>
          </Trackpoint>
          <Trackpoint>
            <Time>2020-03-07T16:34:52.000Z</Time>
            <Position>
              <LatitudeDegrees>40.71513329632580280303955078125</LatitudeDegrees>
              <LongitudeDegrees>-3.8979472406208515167236328125</LongitudeDegrees>
            </Position>
            <AltitudeMeters>909.79998779296875</AltitudeMeters>
            <DistanceMeters>NAN</DistanceMeters>
          </Trackpoint>
          <Trackpoint>
            <Time>2020-03-07T16:34:53.000Z</Time>
            <Position>
              <LatitudeDegrees>40.71512759663164615631103515625</LatitudeDegrees>
              <LongitudeDegrees>-3.89804187230765819549560546875</LongitudeDegrees>
            </Position>
            <AltitudeMeters>910</AltitudeMeters>
            <DistanceMeters>NAN</DistanceMeters>
          </Trackpoint>
          <Trackpoint>
            <Time>2020-03-07T16:34:54.000Z</Time>
            <Position>
              <LatitudeDegrees>40.7151216454803943634033203125</LatitudeDegrees>
              <LongitudeDegrees>-3.8981346599757671356201171875</LongitudeDegrees>
            </Position>
            <AltitudeMeters>910</AltitudeMeters>
            <DistanceMeters>NAN</DistanceMeters>
          </Trackpoint>
          <Trackpoint>
            <Time>2020-03-07T16:34:55.000Z</Time>
            <Position>
              <LatitudeDegrees>40.71511301212012767791748046875</LatitudeDegrees>
              <LongitudeDegrees>-3.89822878874838352203369140625</LongitudeDegrees>
            </Position>
            <AltitudeMeters>910.20001220703125</AltitudeMeters>
            <DistanceMeters>NAN</DistanceMeters>
          </Trackpoint>
          <Trackpoint>
            <Time>2020-03-07T16:34:56.000Z</Time>
            <Position>
              <LatitudeDegrees>40.71511301212012767791748046875</LatitudeDegrees>
              <LongitudeDegrees>-3.89822878874838352203369140625</LongitudeDegrees>
            </Position>
            <AltitudeMeters>910.20001220703125</AltitudeMeters>
            <DistanceMeters>NAN</DistanceMeters>
          </Trackpoint>
          <Trackpoint>
            <Time>2020-03-07T16:34:57.000Z</Time>
            <Position>
              <LatitudeDegrees>40.71508937515318393707275390625</LatitudeDegrees>
              <LongitudeDegrees>-3.89841578900814056396484375</LongitudeDegrees>
            </Position>
            <AltitudeMeters>910.20001220703125</AltitudeMeters>
            <DistanceMeters>NAN</DistanceMeters>
          </Trackpoint>
          <Trackpoint>
            <Time>2020-03-07T16:34:58.000Z</Time>
            <Position>
              <LatitudeDegrees>40.715074203908443450927734375</LatitudeDegrees>
              <LongitudeDegrees>-3.89851461164653301239013671875</LongitudeDegrees>
            </Position>
            <AltitudeMeters>910.20001220703125</AltitudeMeters>
            <DistanceMeters>NAN</DistanceMeters>
          </Trackpoint>
          <Trackpoint>
            <Time>2020-03-07T16:34:59.000Z</Time>
            <Position>
              <LatitudeDegrees>40.7150571048259735107421875</LatitudeDegrees>
              <LongitudeDegrees>-3.8986157812178134918212890625</LongitudeDegrees>
            </Position>
            <AltitudeMeters>910.20001220703125</AltitudeMeters>
            <DistanceMeters>NAN</DistanceMeters>
          </Trackpoint>
          <Trackpoint>
            <Time>2020-03-07T16:35:00.000Z</Time>
            <Position>
              <LatitudeDegrees>40.71503858081996440887451171875</LatitudeDegrees>
              <LongitudeDegrees>-3.89871711842715740203857421875</LongitudeDegrees>
            </Position>
            <AltitudeMeters>910.20001220703125</AltitudeMeters>
            <DistanceMeters>NAN</DistanceMeters>
          </Trackpoint>
          <Trackpoint>
            <Time>2020-03-07T16:35:01.000Z</Time>
            <Position>
              <LatitudeDegrees>40.7150187157094478607177734375</LatitudeDegrees>
              <LongitudeDegrees>-3.8988172821700572967529296875</LongitudeDegrees>
            </Position>
            <AltitudeMeters>910.20001220703125</AltitudeMeters>
            <DistanceMeters>NAN</DistanceMeters>
          </Trackpoint>
          <Trackpoint>
            <Time>2020-03-07T16:35:02.000Z</Time>
            <Position>
              <LatitudeDegrees>40.71499851532280445098876953125</LatitudeDegrees>
              <LongitudeDegrees>-3.89891761355102062225341796875</LongitudeDegrees>
            </Position>
            <AltitudeMeters>910.4000244140625</AltitudeMeters>
            <DistanceMeters>NAN</DistanceMeters>
          </Trackpoint>
          <Trackpoint>
            <Time>2020-03-07T16:35:03.000Z</Time>
            <Position>
              <LatitudeDegrees>40.71498041041195392608642578125</LatitudeDegrees>
              <LongitudeDegrees>-3.8990171067416667938232421875</LongitudeDegrees>
            </Position>
            <AltitudeMeters>910.4000244140625</AltitudeMeters>
            <DistanceMeters>NAN</DistanceMeters>
          </Trackpoint>
          <Trackpoint>
            <Time>2020-03-07T16:35:04.000Z</Time>
            <Position>
              <LatitudeDegrees>40.71496347896754741668701171875</LatitudeDegrees>
              <LongitudeDegrees>-3.899115510284900665283203125</LongitudeDegrees>
            </Position>
            <AltitudeMeters>910.4000244140625</AltitudeMeters>
            <DistanceMeters>NAN</DistanceMeters>
          </Trackpoint>
          <Trackpoint>
            <Time>2020-03-07T16:35:05.000Z</Time>
            <Position>
              <LatitudeDegrees>40.71494570933282375335693359375</LatitudeDegrees>
              <LongitudeDegrees>-3.8992162607610225677490234375</LongitudeDegrees>
            </Position>
            <AltitudeMeters>910.5999755859375</AltitudeMeters>
            <DistanceMeters>NAN</DistanceMeters>
          </Trackpoint>
          <Trackpoint>
            <Time>2020-03-07T16:35:06.000Z</Time>
            <Position>
              <LatitudeDegrees>40.7149261794984340667724609375</LatitudeDegrees>
              <LongitudeDegrees>-3.89932044781744480133056640625</LongitudeDegrees>
            </Position>
            <AltitudeMeters>910.5999755859375</AltitudeMeters>
            <DistanceMeters>NAN</DistanceMeters>
          </Trackpoint>
          <Trackpoint>
            <Time>2020-03-07T16:35:07.000Z</Time>
            <Position>
              <LatitudeDegrees>40.7149067334830760955810546875</LatitudeDegrees>
              <LongitudeDegrees>-3.89942371286451816558837890625</LongitudeDegrees>
            </Position>
            <AltitudeMeters>910.5999755859375</AltitudeMeters>
            <DistanceMeters>NAN</DistanceMeters>
          </Trackpoint>
          <Trackpoint>
            <Time>2020-03-07T16:35:08.000Z</Time>
            <Position>
              <LatitudeDegrees>40.7148903049528598785400390625</LatitudeDegrees>
              <LongitudeDegrees>-3.89952211640775203704833984375</LongitudeDegrees>
            </Position>
            <AltitudeMeters>910.5999755859375</AltitudeMeters>
            <DistanceMeters>NAN</DistanceMeters>
          </Trackpoint>
          <Trackpoint>
            <Time>2020-03-07T16:35:09.000Z</Time>
            <Position>
              <LatitudeDegrees>40.71487404406070709228515625</LatitudeDegrees>
              <LongitudeDegrees>-3.8996239565312862396240234375</LongitudeDegrees>
            </Position>
            <AltitudeMeters>910.5999755859375</AltitudeMeters>
            <DistanceMeters>NAN</DistanceMeters>
          </Trackpoint>
          <Trackpoint>
            <Time>2020-03-07T16:35:10.000Z</Time>
            <Position>
              <LatitudeDegrees>40.71485887281596660614013671875</LatitudeDegrees>
              <LongitudeDegrees>-3.8997262157499790191650390625</LongitudeDegrees>
            </Position>
            <AltitudeMeters>910.5999755859375</AltitudeMeters>
            <DistanceMeters>NAN</DistanceMeters>
          </Trackpoint>
          <Trackpoint>
            <Time>2020-03-07T16:35:11.000Z</Time>
            <Position>
              <LatitudeDegrees>40.71484194137156009674072265625</LatitudeDegrees>
              <LongitudeDegrees>-3.8998291455209255218505859375</LongitudeDegrees>
            </Position>
            <AltitudeMeters>910.5999755859375</AltitudeMeters>
            <DistanceMeters>NAN</DistanceMeters>
          </Trackpoint>
          <Trackpoint>
            <Time>2020-03-07T16:35:12.000Z</Time>
            <Position>
              <LatitudeDegrees>40.71482517756521701812744140625</LatitudeDegrees>
              <LongitudeDegrees>-3.899929225444793701171875</LongitudeDegrees>
            </Position>
            <AltitudeMeters>910.5999755859375</AltitudeMeters>
            <DistanceMeters>NAN</DistanceMeters>
          </Trackpoint>
          <Trackpoint>
            <Time>2020-03-07T16:35:13.000Z</Time>
            <Position>
              <LatitudeDegrees>40.7148076593875885009765625</LatitudeDegrees>
              <LongitudeDegrees>-3.9000296406447887420654296875</LongitudeDegrees>
            </Position>
            <AltitudeMeters>910.5999755859375</AltitudeMeters>
            <DistanceMeters>NAN</DistanceMeters>
          </Trackpoint>
          <Trackpoint>
            <Time>2020-03-07T16:35:14.000Z</Time>
            <Position>
              <LatitudeDegrees>40.71478896774351596832275390625</LatitudeDegrees>
              <LongitudeDegrees>-3.9001318998634815216064453125</LongitudeDegrees>
            </Position>
            <AltitudeMeters>910.79998779296875</AltitudeMeters>
            <DistanceMeters>NAN</DistanceMeters>
          </Trackpoint>
          <Trackpoint>
            <Time>2020-03-07T16:35:15.000Z</Time>
            <Position>
              <LatitudeDegrees>40.71477077901363372802734375</LatitudeDegrees>
              <LongitudeDegrees>-3.90023407526314258575439453125</LongitudeDegrees>
            </Position>
            <AltitudeMeters>910.79998779296875</AltitudeMeters>
            <DistanceMeters>NAN</DistanceMeters>
          </Trackpoint>
          <Trackpoint>
            <Time>2020-03-07T16:35:16.000Z</Time>
            <Position>
              <LatitudeDegrees>40.714750327169895172119140625</LatitudeDegrees>
              <LongitudeDegrees>-3.9003370888531208038330078125</LongitudeDegrees>
            </Position>
            <AltitudeMeters>910.79998779296875</AltitudeMeters>
            <DistanceMeters>NAN</DistanceMeters>
          </Trackpoint>
          <Trackpoint>
            <Time>2020-03-07T16:35:17.000Z</Time>
            <Position>
              <LatitudeDegrees>40.71472945623099803924560546875</LatitudeDegrees>
              <LongitudeDegrees>-3.90043976716697216033935546875</LongitudeDegrees>
            </Position>
            <AltitudeMeters>910.79998779296875</AltitudeMeters>
            <DistanceMeters>NAN</DistanceMeters>
          </Trackpoint>
          <Trackpoint>
            <Time>2020-03-07T16:35:18.000Z</Time>
            <Position>
              <LatitudeDegrees>40.71470908820629119873046875</LatitudeDegrees>
              <LongitudeDegrees>-3.900542445480823516845703125</LongitudeDegrees>
            </Position>
            <AltitudeMeters>910.79998779296875</AltitudeMeters>
            <DistanceMeters>NAN</DistanceMeters>
          </Trackpoint>
          <Trackpoint>
            <Time>2020-03-07T16:35:19.000Z</Time>
            <Position>
              <LatitudeDegrees>40.71469123475253582000732421875</LatitudeDegrees>
              <LongitudeDegrees>-3.9006442017853260040283203125</LongitudeDegrees>
            </Position>
            <AltitudeMeters>910.79998779296875</AltitudeMeters>
            <DistanceMeters>NAN</DistanceMeters>
          </Trackpoint>
          <Trackpoint>
            <Time>2020-03-07T16:35:20.000Z</Time>
            <Position>
              <LatitudeDegrees>40.714673213660717010498046875</LatitudeDegrees>
              <LongitudeDegrees>-3.90074704773724079132080078125</LongitudeDegrees>
            </Position>
            <AltitudeMeters>911</AltitudeMeters>
            <DistanceMeters>NAN</DistanceMeters>
          </Trackpoint>
          <Trackpoint>
            <Time>2020-03-07T16:35:21.000Z</Time>
            <Position>
              <LatitudeDegrees>40.71465351618826389312744140625</LatitudeDegrees>
              <LongitudeDegrees>-3.9008510671555995941162109375</LongitudeDegrees>
            </Position>
            <AltitudeMeters>911</AltitudeMeters>
            <DistanceMeters>NAN</DistanceMeters>
          </Trackpoint>
          <Trackpoint>
            <Time>2020-03-07T16:35:22.000Z</Time>
            <Position>
              <LatitudeDegrees>40.71463172324001789093017578125</LatitudeDegrees>
              <LongitudeDegrees>-3.900957517325878143310546875</LongitudeDegrees>
            </Position>
            <AltitudeMeters>911</AltitudeMeters>
            <DistanceMeters>NAN</DistanceMeters>
          </Trackpoint>
          <Trackpoint>
            <Time>2020-03-07T16:35:23.000Z</Time>
            <Position>
              <LatitudeDegrees>40.7146116904914379119873046875</LatitudeDegrees>
              <LongitudeDegrees>-3.90106287784874439239501953125</LongitudeDegrees>
            </Position>
            <AltitudeMeters>911</AltitudeMeters>
            <DistanceMeters>NAN</DistanceMeters>
          </Trackpoint>
          <Trackpoint>
            <Time>2020-03-07T16:35:24.000Z</Time>
            <Position>
              <LatitudeDegrees>40.71459115482866764068603515625</LatitudeDegrees>
              <LongitudeDegrees>-3.901170752942562103271484375</LongitudeDegrees>
            </Position>
            <AltitudeMeters>911</AltitudeMeters>
            <DistanceMeters>NAN</DistanceMeters>
          </Trackpoint>
          <Trackpoint>
            <Time>2020-03-07T16:35:25.000Z</Time>
            <Position>
              <LatitudeDegrees>40.714572630822658538818359375</LatitudeDegrees>
              <LongitudeDegrees>-3.90127695165574550628662109375</LongitudeDegrees>
            </Position>
            <AltitudeMeters>911</AltitudeMeters>
            <DistanceMeters>NAN</DistanceMeters>
          </Trackpoint>
          <Trackpoint>
            <Time>2020-03-07T16:35:26.000Z</Time>
            <Position>
              <LatitudeDegrees>40.71455217897891998291015625</LatitudeDegrees>
              <LongitudeDegrees>-3.90138499438762664794921875</LongitudeDegrees>
            </Position>
            <AltitudeMeters>911</AltitudeMeters>
            <DistanceMeters>NAN</DistanceMeters>
          </Trackpoint>
          <Trackpoint>
            <Time>2020-03-07T16:35:27.000Z</Time>
            <Position>
              <LatitudeDegrees>40.714531056582927703857421875</LatitudeDegrees>
              <LongitudeDegrees>-3.90149169601500034332275390625</LongitudeDegrees>
            </Position>
            <AltitudeMeters>911</AltitudeMeters>
            <DistanceMeters>NAN</DistanceMeters>
          </Trackpoint>
          <Trackpoint>
            <Time>2020-03-07T16:35:28.000Z</Time>
            <Position>
              <LatitudeDegrees>40.7145107723772525787353515625</LatitudeDegrees>
              <LongitudeDegrees>-3.901595883071422576904296875</LongitudeDegrees>
            </Position>
            <AltitudeMeters>911</AltitudeMeters>
            <DistanceMeters>NAN</DistanceMeters>
          </Trackpoint>
          <Trackpoint>
            <Time>2020-03-07T16:35:29.000Z</Time>
            <Position>
              <LatitudeDegrees>40.714491493999958038330078125</LatitudeDegrees>
              <LongitudeDegrees>-3.901699148118495941162109375</LongitudeDegrees>
            </Position>
            <AltitudeMeters>911</AltitudeMeters>
            <DistanceMeters>NAN</DistanceMeters>
          </Trackpoint>
          <Trackpoint>
            <Time>2020-03-07T16:35:30.000Z</Time>
            <Position>
              <LatitudeDegrees>40.71447481401264667510986328125</LatitudeDegrees>
              <LongitudeDegrees>-3.90180065296590328216552734375</LongitudeDegrees>
            </Position>
            <AltitudeMeters>911</AltitudeMeters>
            <DistanceMeters>NAN</DistanceMeters>
          </Trackpoint>
          <Trackpoint>
            <Time>2020-03-07T16:35:31.000Z</Time>
            <Position>
              <LatitudeDegrees>40.71445721201598644256591796875</LatitudeDegrees>
              <LongitudeDegrees>-3.9019034989178180694580078125</LongitudeDegrees>
            </Position>
            <AltitudeMeters>911</AltitudeMeters>
            <DistanceMeters>NAN</DistanceMeters>
          </Trackpoint>
          <Trackpoint>
            <Time>2020-03-07T16:35:32.000Z</Time>
            <Position>
              <LatitudeDegrees>40.7144380174577236175537109375</LatitudeDegrees>
              <LongitudeDegrees>-3.902004249393939971923828125</LongitudeDegrees>
            </Position>
            <AltitudeMeters>911.20001220703125</AltitudeMeters>
            <DistanceMeters>NAN</DistanceMeters>
          </Trackpoint>
          <Trackpoint>
            <Time>2020-03-07T16:35:33.000Z</Time>
            <Position>
              <LatitudeDegrees>40.71442016400396823883056640625</LatitudeDegrees>
              <LongitudeDegrees>-3.9021046645939350128173828125</LongitudeDegrees>
            </Position>
            <AltitudeMeters>911.20001220703125</AltitudeMeters>
            <DistanceMeters>NAN</DistanceMeters>
          </Trackpoint>
          <Trackpoint>
            <Time>2020-03-07T16:35:34.000Z</Time>
            <Position>
              <LatitudeDegrees>40.71440239436924457550048828125</LatitudeDegrees>
              <LongitudeDegrees>-3.902206085622310638427734375</LongitudeDegrees>
            </Position>
            <AltitudeMeters>911.20001220703125</AltitudeMeters>
            <DistanceMeters>NAN</DistanceMeters>
          </Trackpoint>
          <Trackpoint>
            <Time>2020-03-07T16:35:35.000Z</Time>
            <Position>
              <LatitudeDegrees>40.7143840380012989044189453125</LatitudeDegrees>
              <LongitudeDegrees>-3.90230759046971797943115234375</LongitudeDegrees>
            </Position>
            <AltitudeMeters>911.20001220703125</AltitudeMeters>
            <DistanceMeters>NAN</DistanceMeters>
          </Trackpoint>
          <Trackpoint>
            <Time>2020-03-07T16:35:36.000Z</Time>
            <Position>
              <LatitudeDegrees>40.71436534635722637176513671875</LatitudeDegrees>
              <LongitudeDegrees>-3.9024090953171253204345703125</LongitudeDegrees>
            </Position>
            <AltitudeMeters>911.20001220703125</AltitudeMeters>
            <DistanceMeters>NAN</DistanceMeters>
          </Trackpoint>
          <Trackpoint>
            <Time>2020-03-07T16:35:37.000Z</Time>
            <Position>
              <LatitudeDegrees>40.71434640325605869293212890625</LatitudeDegrees>
              <LongitudeDegrees>-3.90251286327838897705078125</LongitudeDegrees>
            </Position>
            <AltitudeMeters>911.20001220703125</AltitudeMeters>
            <DistanceMeters>NAN</DistanceMeters>
          </Trackpoint>
          <Trackpoint>
            <Time>2020-03-07T16:35:38.000Z</Time>
            <Position>
              <LatitudeDegrees>40.71432762779295444488525390625</LatitudeDegrees>
              <LongitudeDegrees>-3.902615122497081756591796875</LongitudeDegrees>
            </Position>
            <AltitudeMeters>911.20001220703125</AltitudeMeters>
            <DistanceMeters>NAN</DistanceMeters>
          </Trackpoint>
          <Trackpoint>
            <Time>2020-03-07T16:35:39.000Z</Time>
            <Position>
              <LatitudeDegrees>40.71431052871048450469970703125</LatitudeDegrees>
              <LongitudeDegrees>-3.902715705335140228271484375</LongitudeDegrees>
            </Position>
            <AltitudeMeters>911.20001220703125</AltitudeMeters>
            <DistanceMeters>NAN</DistanceMeters>
          </Trackpoint>
          <Trackpoint>
            <Time>2020-03-07T16:35:40.000Z</Time>
            <Position>
              <LatitudeDegrees>40.71429192088544368743896484375</LatitudeDegrees>
              <LongitudeDegrees>-3.9028177969157695770263671875</LongitudeDegrees>
            </Position>
            <AltitudeMeters>911.20001220703125</AltitudeMeters>
            <DistanceMeters>NAN</DistanceMeters>
          </Trackpoint>
          <Trackpoint>
            <Time>2020-03-07T16:35:41.000Z</Time>
            <Position>
              <LatitudeDegrees>40.71427230723202228546142578125</LatitudeDegrees>
              <LongitudeDegrees>-3.90292097814381122589111328125</LongitudeDegrees>
            </Position>
            <AltitudeMeters>911.4000244140625</AltitudeMeters>
            <DistanceMeters>NAN</DistanceMeters>
          </Trackpoint>
          <Trackpoint>
            <Time>2020-03-07T16:35:42.000Z</Time>
            <Position>
              <LatitudeDegrees>40.71425378322601318359375</LatitudeDegrees>
              <LongitudeDegrees>-3.9030233211815357208251953125</LongitudeDegrees>
            </Position>
            <AltitudeMeters>911.4000244140625</AltitudeMeters>
            <DistanceMeters>NAN</DistanceMeters>
          </Trackpoint>
          <Trackpoint>
            <Time>2020-03-07T16:35:43.000Z</Time>
            <Position>
              <LatitudeDegrees>40.71423693560063838958740234375</LatitudeDegrees>
              <LongitudeDegrees>-3.90312516130506992340087890625</LongitudeDegrees>
            </Position>
            <AltitudeMeters>911.4000244140625</AltitudeMeters>
            <DistanceMeters>NAN</DistanceMeters>
          </Trackpoint>
          <Trackpoint>
            <Time>2020-03-07T16:35:44.000Z</Time>
            <Position>
              <LatitudeDegrees>40.714219920337200164794921875</LatitudeDegrees>
              <LongitudeDegrees>-3.903228007256984710693359375</LongitudeDegrees>
            </Position>
            <AltitudeMeters>911.4000244140625</AltitudeMeters>
            <DistanceMeters>NAN</DistanceMeters>
          </Trackpoint>
          <Trackpoint>
            <Time>2020-03-07T16:35:45.000Z</Time>
            <Position>
              <LatitudeDegrees>40.7142029888927936553955078125</LatitudeDegrees>
              <LongitudeDegrees>-3.90332967974245548248291015625</LongitudeDegrees>
            </Position>
            <AltitudeMeters>911.5999755859375</AltitudeMeters>
            <DistanceMeters>NAN</DistanceMeters>
          </Trackpoint>
          <Trackpoint>
            <Time>2020-03-07T16:35:46.000Z</Time>
            <Position>
              <LatitudeDegrees>40.7141858898103237152099609375</LatitudeDegrees>
              <LongitudeDegrees>-3.90343210659921169281005859375</LongitudeDegrees>
            </Position>
            <AltitudeMeters>911.5999755859375</AltitudeMeters>
            <DistanceMeters>NAN</DistanceMeters>
          </Trackpoint>
          <Trackpoint>
            <Time>2020-03-07T16:35:47.000Z</Time>
            <Position>
              <LatitudeDegrees>40.714168287813663482666015625</LatitudeDegrees>
              <LongitudeDegrees>-3.90353436581790447235107421875</LongitudeDegrees>
            </Position>
            <AltitudeMeters>911.5999755859375</AltitudeMeters>
            <DistanceMeters>NAN</DistanceMeters>
          </Trackpoint>
          <Trackpoint>
            <Time>2020-03-07T16:35:48.000Z</Time>
            <Position>
              <LatitudeDegrees>40.71414959616959095001220703125</LatitudeDegrees>
              <LongitudeDegrees>-3.90363930724561214447021484375</LongitudeDegrees>
            </Position>
            <AltitudeMeters>911.5999755859375</AltitudeMeters>
            <DistanceMeters>NAN</DistanceMeters>
          </Trackpoint>
          <Trackpoint>
            <Time>2020-03-07T16:35:49.000Z</Time>
            <Position>
              <LatitudeDegrees>40.714130401611328125</LatitudeDegrees>
              <LongitudeDegrees>-3.90374391339719295501708984375</LongitudeDegrees>
            </Position>
            <AltitudeMeters>911.79998779296875</AltitudeMeters>
            <DistanceMeters>NAN</DistanceMeters>
          </Trackpoint>
          <Trackpoint>
            <Time>2020-03-07T16:35:50.000Z</Time>
            <Position>
              <LatitudeDegrees>40.71410969831049442291259765625</LatitudeDegrees>
              <LongitudeDegrees>-3.903848938643932342529296875</LongitudeDegrees>
            </Position>
            <AltitudeMeters>911.79998779296875</AltitudeMeters>
            <DistanceMeters>NAN</DistanceMeters>
          </Trackpoint>
          <Trackpoint>
            <Time>2020-03-07T16:35:51.000Z</Time>
            <Position>
              <LatitudeDegrees>40.71408974938094615936279296875</LatitudeDegrees>
              <LongitudeDegrees>-3.90395547263324260711669921875</LongitudeDegrees>
            </Position>
            <AltitudeMeters>911.79998779296875</AltitudeMeters>
            <DistanceMeters>NAN</DistanceMeters>
          </Trackpoint>
          <Trackpoint>
            <Time>2020-03-07T16:35:52.000Z</Time>
            <Position>
              <LatitudeDegrees>40.714069716632366180419921875</LatitudeDegrees>
              <LongitudeDegrees>-3.9040630124509334564208984375</LongitudeDegrees>
            </Position>
            <AltitudeMeters>911.79998779296875</AltitudeMeters>
            <DistanceMeters>NAN</DistanceMeters>
          </Trackpoint>
          <Trackpoint>
            <Time>2020-03-07T16:35:53.000Z</Time>
            <Position>
              <LatitudeDegrees>40.7140490971505641937255859375</LatitudeDegrees>
              <LongitudeDegrees>-3.90416837297379970550537109375</LongitudeDegrees>
            </Position>
            <AltitudeMeters>911.79998779296875</AltitudeMeters>
            <DistanceMeters>NAN</DistanceMeters>
          </Trackpoint>
          <Trackpoint>
            <Time>2020-03-07T16:35:54.000Z</Time>
            <Position>
              <LatitudeDegrees>40.7140271365642547607421875</LatitudeDegrees>
              <LongitudeDegrees>-3.90427348203957080841064453125</LongitudeDegrees>
            </Position>
            <AltitudeMeters>911.79998779296875</AltitudeMeters>
            <DistanceMeters>NAN</DistanceMeters>
          </Trackpoint>
          <Trackpoint>
            <Time>2020-03-07T16:35:55.000Z</Time>
            <Position>
              <LatitudeDegrees>40.7140055112540721893310546875</LatitudeDegrees>
              <LongitudeDegrees>-3.90437741763889789581298828125</LongitudeDegrees>
            </Position>
            <AltitudeMeters>911.79998779296875</AltitudeMeters>
            <DistanceMeters>NAN</DistanceMeters>
          </Trackpoint>
          <Trackpoint>
            <Time>2020-03-07T16:35:56.000Z</Time>
            <Position>
              <LatitudeDegrees>40.71398497559130191802978515625</LatitudeDegrees>
              <LongitudeDegrees>-3.90448160469532012939453125</LongitudeDegrees>
            </Position>
            <AltitudeMeters>911.79998779296875</AltitudeMeters>
            <DistanceMeters>NAN</DistanceMeters>
          </Trackpoint>
          <Trackpoint>
            <Time>2020-03-07T16:35:57.000Z</Time>
            <Position>
              <LatitudeDegrees>40.713967122137546539306640625</LatitudeDegrees>
              <LongitudeDegrees>-3.90458428300917148590087890625</LongitudeDegrees>
            </Position>
            <AltitudeMeters>911.79998779296875</AltitudeMeters>
            <DistanceMeters>NAN</DistanceMeters>
          </Trackpoint>
          <Trackpoint>
            <Time>2020-03-07T16:35:58.000Z</Time>
            <Position>
              <LatitudeDegrees>40.713948346674442291259765625</LatitudeDegrees>
              <LongitudeDegrees>-3.904686458408832550048828125</LongitudeDegrees>
            </Position>
            <AltitudeMeters>911.79998779296875</AltitudeMeters>
            <DistanceMeters>NAN</DistanceMeters>
          </Trackpoint>
          <Trackpoint>
            <Time>2020-03-07T16:35:59.000Z</Time>
            <Position>
              <LatitudeDegrees>40.71393099613487720489501953125</LatitudeDegrees>
              <LongitudeDegrees>-3.9047872088849544525146484375</LongitudeDegrees>
            </Position>
            <AltitudeMeters>911.79998779296875</AltitudeMeters>
            <DistanceMeters>NAN</DistanceMeters>
          </Trackpoint>
          <Trackpoint>
            <Time>2020-03-07T16:36:00.000Z</Time>
            <Position>
              <LatitudeDegrees>40.713913477957248687744140625</LatitudeDegrees>
              <LongitudeDegrees>-3.90488661825656890869140625</LongitudeDegrees>
            </Position>
            <AltitudeMeters>911.79998779296875</AltitudeMeters>
            <DistanceMeters>NAN</DistanceMeters>
          </Trackpoint>
          <Trackpoint>
            <Time>2020-03-07T16:36:01.000Z</Time>
            <Position>
              <LatitudeDegrees>40.7138935290277004241943359375</LatitudeDegrees>
              <LongitudeDegrees>-3.90498477034270763397216796875</LongitudeDegrees>
            </Position>
            <AltitudeMeters>911.79998779296875</AltitudeMeters>
            <DistanceMeters>NAN</DistanceMeters>
          </Trackpoint>
          <Trackpoint>
            <Time>2020-03-07T16:36:02.000Z</Time>
            <Position>
              <LatitudeDegrees>40.713870562613010406494140625</LatitudeDegrees>
              <LongitudeDegrees>-3.90508099459111690521240234375</LongitudeDegrees>
            </Position>
            <AltitudeMeters>911.79998779296875</AltitudeMeters>
            <DistanceMeters>NAN</DistanceMeters>
          </Trackpoint>
          <Trackpoint>
            <Time>2020-03-07T16:36:03.000Z</Time>
            <Position>
              <LatitudeDegrees>40.71384734474122524261474609375</LatitudeDegrees>
              <LongitudeDegrees>-3.9051754586398601531982421875</LongitudeDegrees>
            </Position>
            <AltitudeMeters>911.79998779296875</AltitudeMeters>
            <DistanceMeters>NAN</DistanceMeters>
          </Trackpoint>
          <Trackpoint>
            <Time>2020-03-07T16:36:04.000Z</Time>
            <Position>
              <LatitudeDegrees>40.71382236666977405548095703125</LatitudeDegrees>
              <LongitudeDegrees>-3.905269838869571685791015625</LongitudeDegrees>
            </Position>
            <AltitudeMeters>911.79998779296875</AltitudeMeters>
            <DistanceMeters>NAN</DistanceMeters>
          </Trackpoint>
          <Trackpoint>
            <Time>2020-03-07T16:36:05.000Z</Time>
            <Position>
              <LatitudeDegrees>40.713795125484466552734375</LatitudeDegrees>
              <LongitudeDegrees>-3.90536497347056865692138671875</LongitudeDegrees>
            </Position>
            <AltitudeMeters>911.79998779296875</AltitudeMeters>
            <DistanceMeters>NAN</DistanceMeters>
          </Trackpoint>
          <Trackpoint>
            <Time>2020-03-07T16:36:06.000Z</Time>
            <Position>
              <LatitudeDegrees>40.7137651182711124420166015625</LatitudeDegrees>
              <LongitudeDegrees>-3.9054591022431850433349609375</LongitudeDegrees>
            </Position>
            <AltitudeMeters>911.79998779296875</AltitudeMeters>
            <DistanceMeters>NAN</DistanceMeters>
          </Trackpoint>
          <Trackpoint>
            <Time>2020-03-07T16:36:07.000Z</Time>
            <Position>
              <LatitudeDegrees>40.7137319259345531463623046875</LatitudeDegrees>
              <LongitudeDegrees>-3.9055524766445159912109375</LongitudeDegrees>
            </Position>
            <AltitudeMeters>912</AltitudeMeters>
            <DistanceMeters>NAN</DistanceMeters>
          </Trackpoint>
          <Trackpoint>
            <Time>2020-03-07T16:36:08.000Z</Time>
            <Position>
              <LatitudeDegrees>40.7136980630457401275634765625</LatitudeDegrees>
              <LongitudeDegrees>-3.9056448452174663543701171875</LongitudeDegrees>
            </Position>
            <AltitudeMeters>912</AltitudeMeters>
            <DistanceMeters>NAN</DistanceMeters>
          </Trackpoint>
          <Trackpoint>
            <Time>2020-03-07T16:36:09.000Z</Time>
            <Position>
              <LatitudeDegrees>40.71366369724273681640625</LatitudeDegrees>
              <LongitudeDegrees>-3.9057350344955921173095703125</LongitudeDegrees>
            </Position>
            <AltitudeMeters>912</AltitudeMeters>
            <DistanceMeters>NAN</DistanceMeters>
          </Trackpoint>
          <Trackpoint>
            <Time>2020-03-07T16:36:10.000Z</Time>
            <Position>
              <LatitudeDegrees>40.71362421847879886627197265625</LatitudeDegrees>
              <LongitudeDegrees>-3.905828408896923065185546875</LongitudeDegrees>
            </Position>
            <AltitudeMeters>912.4000244140625</AltitudeMeters>
            <DistanceMeters>NAN</DistanceMeters>
          </Trackpoint>
          <Trackpoint>
            <Time>2020-03-07T16:36:11.000Z</Time>
            <Position>
              <LatitudeDegrees>40.71358130313456058502197265625</LatitudeDegrees>
              <LongitudeDegrees>-3.90591968782246112823486328125</LongitudeDegrees>
            </Position>
            <AltitudeMeters>912.4000244140625</AltitudeMeters>
            <DistanceMeters>NAN</DistanceMeters>
          </Trackpoint>
          <Trackpoint>
            <Time>2020-03-07T16:36:12.000Z</Time>
            <Position>
              <LatitudeDegrees>40.71353620849549770355224609375</LatitudeDegrees>
              <LongitudeDegrees>-3.9060086198151111602783203125</LongitudeDegrees>
            </Position>
            <AltitudeMeters>912.5999755859375</AltitudeMeters>
            <DistanceMeters>NAN</DistanceMeters>
          </Trackpoint>
          <Trackpoint>
            <Time>2020-03-07T16:36:13.000Z</Time>
            <Position>
              <LatitudeDegrees>40.71349010802805423736572265625</LatitudeDegrees>
              <LongitudeDegrees>-3.906095959246158599853515625</LongitudeDegrees>
            </Position>
            <AltitudeMeters>912.5999755859375</AltitudeMeters>
            <DistanceMeters>NAN</DistanceMeters>
          </Trackpoint>
          <Trackpoint>
            <Time>2020-03-07T16:36:14.000Z</Time>
            <Position>
              <LatitudeDegrees>40.7134402357041835784912109375</LatitudeDegrees>
              <LongitudeDegrees>-3.90618690289556980133056640625</LongitudeDegrees>
            </Position>
            <AltitudeMeters>912.5999755859375</AltitudeMeters>
            <DistanceMeters>NAN</DistanceMeters>
          </Trackpoint>
          <Trackpoint>
            <Time>2020-03-07T16:36:15.000Z</Time>
            <Position>
              <LatitudeDegrees>40.71339153684675693511962890625</LatitudeDegrees>
              <LongitudeDegrees>-3.9062765054404735565185546875</LongitudeDegrees>
            </Position>
            <AltitudeMeters>912.79998779296875</AltitudeMeters>
            <DistanceMeters>NAN</DistanceMeters>
          </Trackpoint>
          <Trackpoint>
            <Time>2020-03-07T16:36:16.000Z</Time>
            <Position>
              <LatitudeDegrees>40.7133433409035205841064453125</LatitudeDegrees>
              <LongitudeDegrees>-3.906366191804409027099609375</LongitudeDegrees>
            </Position>
            <AltitudeMeters>912.79998779296875</AltitudeMeters>
            <DistanceMeters>NAN</DistanceMeters>
          </Trackpoint>
          <Trackpoint>
            <Time>2020-03-07T16:36:17.000Z</Time>
            <Position>
              <LatitudeDegrees>40.71329330094158649444580078125</LatitudeDegrees>
              <LongitudeDegrees>-3.90645478852093219757080078125</LongitudeDegrees>
            </Position>
            <AltitudeMeters>912.79998779296875</AltitudeMeters>
            <DistanceMeters>NAN</DistanceMeters>
          </Trackpoint>
          <Trackpoint>
            <Time>2020-03-07T16:36:18.000Z</Time>
            <Position>
              <LatitudeDegrees>40.71324250660836696624755859375</LatitudeDegrees>
              <LongitudeDegrees>-3.90654212795197963714599609375</LongitudeDegrees>
            </Position>
            <AltitudeMeters>913</AltitudeMeters>
            <DistanceMeters>NAN</DistanceMeters>
          </Trackpoint>
          <Trackpoint>
            <Time>2020-03-07T16:36:19.000Z</Time>
            <Position>
              <LatitudeDegrees>40.7131914608180522918701171875</LatitudeDegrees>
              <LongitudeDegrees>-3.90662762336432933807373046875</LongitudeDegrees>
            </Position>
            <AltitudeMeters>913</AltitudeMeters>
            <DistanceMeters>NAN</DistanceMeters>
          </Trackpoint>
          <Trackpoint>
            <Time>2020-03-07T16:36:20.000Z</Time>
            <Position>
              <LatitudeDegrees>40.7131418399512767791748046875</LatitudeDegrees>
              <LongitudeDegrees>-3.9067113585770130157470703125</LongitudeDegrees>
            </Position>
            <AltitudeMeters>913</AltitudeMeters>
            <DistanceMeters>NAN</DistanceMeters>
          </Trackpoint>
          <Trackpoint>
            <Time>2020-03-07T16:36:21.000Z</Time>
            <Position>
              <LatitudeDegrees>40.713092386722564697265625</LatitudeDegrees>
              <LongitudeDegrees>-3.9067938365042209625244140625</LongitudeDegrees>
            </Position>
            <AltitudeMeters>913</AltitudeMeters>
            <DistanceMeters>NAN</DistanceMeters>
          </Trackpoint>
          <Trackpoint>
            <Time>2020-03-07T16:36:22.000Z</Time>
            <Position>
              <LatitudeDegrees>40.71304184384644031524658203125</LatitudeDegrees>
              <LongitudeDegrees>-3.90687606297433376312255859375</LongitudeDegrees>
            </Position>
            <AltitudeMeters>913</AltitudeMeters>
            <DistanceMeters>NAN</DistanceMeters>
          </Trackpoint>
          <Trackpoint>
            <Time>2020-03-07T16:36:23.000Z</Time>
            <Position>
              <LatitudeDegrees>40.71299155242741107940673828125</LatitudeDegrees>
              <LongitudeDegrees>-3.9069587923586368560791015625</LongitudeDegrees>
            </Position>
            <AltitudeMeters>913</AltitudeMeters>
            <DistanceMeters>NAN</DistanceMeters>
          </Trackpoint>
          <Trackpoint>
            <Time>2020-03-07T16:36:24.000Z</Time>
            <Position>
              <LatitudeDegrees>40.71294310502707958221435546875</LatitudeDegrees>
              <LongitudeDegrees>-3.90704168938100337982177734375</LongitudeDegrees>
            </Position>
            <AltitudeMeters>913</AltitudeMeters>
            <DistanceMeters>NAN</DistanceMeters>
          </Trackpoint>
          <Trackpoint>
            <Time>2020-03-07T16:36:25.000Z</Time>
            <Position>
              <LatitudeDegrees>40.71289465762674808502197265625</LatitudeDegrees>
              <LongitudeDegrees>-3.90712366439402103424072265625</LongitudeDegrees>
            </Position>
            <AltitudeMeters>913.20001220703125</AltitudeMeters>
            <DistanceMeters>NAN</DistanceMeters>
          </Trackpoint>
          <Trackpoint>
            <Time>2020-03-07T16:36:26.000Z</Time>
            <Position>
              <LatitudeDegrees>40.71284470148384571075439453125</LatitudeDegrees>
              <LongitudeDegrees>-3.9072047173976898193359375</LongitudeDegrees>
            </Position>
            <AltitudeMeters>913.4000244140625</AltitudeMeters>
            <DistanceMeters>NAN</DistanceMeters>
          </Trackpoint>
          <Trackpoint>
            <Time>2020-03-07T16:36:27.000Z</Time>
            <Position>
              <LatitudeDegrees>40.7127944938838481903076171875</LatitudeDegrees>
              <LongitudeDegrees>-3.9072850160300731658935546875</LongitudeDegrees>
            </Position>
            <AltitudeMeters>913.5999755859375</AltitudeMeters>
            <DistanceMeters>NAN</DistanceMeters>
          </Trackpoint>
          <Trackpoint>
            <Time>2020-03-07T16:36:28.000Z</Time>
            <Position>
              <LatitudeDegrees>40.71274445392191410064697265625</LatitudeDegrees>
              <LongitudeDegrees>-3.90736523084342479705810546875</LongitudeDegrees>
            </Position>
            <AltitudeMeters>913.79998779296875</AltitudeMeters>
            <DistanceMeters>NAN</DistanceMeters>
          </Trackpoint>
          <Trackpoint>
            <Time>2020-03-07T16:36:29.000Z</Time>
            <Position>
              <LatitudeDegrees>40.71269483305513858795166015625</LatitudeDegrees>
              <LongitudeDegrees>-3.9074452780187129974365234375</LongitudeDegrees>
            </Position>
            <AltitudeMeters>913.79998779296875</AltitudeMeters>
            <DistanceMeters>NAN</DistanceMeters>
          </Trackpoint>
          <Trackpoint>
            <Time>2020-03-07T16:36:30.000Z</Time>
            <Position>
              <LatitudeDegrees>40.71264537982642650604248046875</LatitudeDegrees>
              <LongitudeDegrees>-3.90752599574625492095947265625</LongitudeDegrees>
            </Position>
            <AltitudeMeters>913.79998779296875</AltitudeMeters>
            <DistanceMeters>NAN</DistanceMeters>
          </Trackpoint>
          <Trackpoint>
            <Time>2020-03-07T16:36:31.000Z</Time>
            <Position>
              <LatitudeDegrees>40.71264537982642650604248046875</LatitudeDegrees>
              <LongitudeDegrees>-3.90752599574625492095947265625</LongitudeDegrees>
            </Position>
            <AltitudeMeters>914</AltitudeMeters>
            <DistanceMeters>NAN</DistanceMeters>
          </Trackpoint>
          <Trackpoint>
            <Time>2020-03-07T16:36:32.000Z</Time>
            <Position>
              <LatitudeDegrees>40.71259659714996814727783203125</LatitudeDegrees>
              <LongitudeDegrees>-3.9076072163879871368408203125</LongitudeDegrees>
            </Position>
            <AltitudeMeters>914</AltitudeMeters>
            <DistanceMeters>NAN</DistanceMeters>
          </Trackpoint>
          <Trackpoint>
            <Time>2020-03-07T16:36:33.000Z</Time>
            <Position>
              <LatitudeDegrees>40.71254697628319263458251953125</LatitudeDegrees>
              <LongitudeDegrees>-3.90768843702971935272216796875</LongitudeDegrees>
            </Position>
            <AltitudeMeters>914.20001220703125</AltitudeMeters>
            <DistanceMeters>NAN</DistanceMeters>
          </Trackpoint>
          <Trackpoint>
            <Time>2020-03-07T16:36:34.000Z</Time>
            <Position>
              <LatitudeDegrees>40.712498612701892852783203125</LatitudeDegrees>
              <LongitudeDegrees>-3.90777091495692729949951171875</LongitudeDegrees>
            </Position>
            <AltitudeMeters>914.20001220703125</AltitudeMeters>
            <DistanceMeters>NAN</DistanceMeters>
          </Trackpoint>
          <Trackpoint>
            <Time>2020-03-07T16:36:35.000Z</Time>
            <Position>
              <LatitudeDegrees>40.71240347810089588165283203125</LatitudeDegrees>
              <LongitudeDegrees>-3.90793737955391407012939453125</LongitudeDegrees>
            </Position>
            <AltitudeMeters>914.4000244140625</AltitudeMeters>
            <DistanceMeters>NAN</DistanceMeters>
          </Trackpoint>
          <Trackpoint>
            <Time>2020-03-07T16:36:36.000Z</Time>
            <Position>
              <LatitudeDegrees>40.7123546116054058074951171875</LatitudeDegrees>
              <LongitudeDegrees>-3.90801818110048770904541015625</LongitudeDegrees>
            </Position>
            <AltitudeMeters>914.4000244140625</AltitudeMeters>
            <DistanceMeters>NAN</DistanceMeters>
          </Trackpoint>
          <Trackpoint>
            <Time>2020-03-07T16:36:37.000Z</Time>
            <Position>
              <LatitudeDegrees>40.71230624802410602569580078125</LatitudeDegrees>
              <LongitudeDegrees>-3.90809856355190277099609375</LongitudeDegrees>
            </Position>
            <AltitudeMeters>914.4000244140625</AltitudeMeters>
            <DistanceMeters>NAN</DistanceMeters>
          </Trackpoint>
          <Trackpoint>
            <Time>2020-03-07T16:36:38.000Z</Time>
            <Position>
              <LatitudeDegrees>40.71230624802410602569580078125</LatitudeDegrees>
              <LongitudeDegrees>-3.90809856355190277099609375</LongitudeDegrees>
            </Position>
            <AltitudeMeters>914.4000244140625</AltitudeMeters>
            <DistanceMeters>NAN</DistanceMeters>
          </Trackpoint>
          <Trackpoint>
            <Time>2020-03-07T16:36:39.000Z</Time>
            <Position>
              <LatitudeDegrees>40.7122111134231090545654296875</LatitudeDegrees>
              <LongitudeDegrees>-3.90826058574020862579345703125</LongitudeDegrees>
            </Position>
            <AltitudeMeters>914.4000244140625</AltitudeMeters>
            <DistanceMeters>NAN</DistanceMeters>
          </Trackpoint>
          <Trackpoint>
            <Time>2020-03-07T16:36:40.000Z</Time>
            <Position>
              <LatitudeDegrees>40.71216308511793613433837890625</LatitudeDegrees>
              <LongitudeDegrees>-3.90834222547709941864013671875</LongitudeDegrees>
            </Position>
            <AltitudeMeters>914.5999755859375</AltitudeMeters>
            <DistanceMeters>NAN</DistanceMeters>
          </Trackpoint>
          <Trackpoint>
            <Time>2020-03-07T16:36:41.000Z</Time>
            <Position>
              <LatitudeDegrees>40.71211363188922405242919921875</LatitudeDegrees>
              <LongitudeDegrees>-3.90842319466173648834228515625</LongitudeDegrees>
            </Position>
            <AltitudeMeters>914.5999755859375</AltitudeMeters>
            <DistanceMeters>NAN</DistanceMeters>
          </Trackpoint>
          <Trackpoint>
            <Time>2020-03-07T16:36:42.000Z</Time>
            <Position>
              <LatitudeDegrees>40.71206384338438510894775390625</LatitudeDegrees>
              <LongitudeDegrees>-3.90850315801799297332763671875</LongitudeDegrees>
            </Position>
            <AltitudeMeters>914.5999755859375</AltitudeMeters>
            <DistanceMeters>NAN</DistanceMeters>
          </Trackpoint>
          <Trackpoint>
            <Time>2020-03-07T16:36:43.000Z</Time>
            <Position>
              <LatitudeDegrees>40.712013132870197296142578125</LatitudeDegrees>
              <LongitudeDegrees>-3.90858270227909088134765625</LongitudeDegrees>
            </Position>
            <AltitudeMeters>914.5999755859375</AltitudeMeters>
            <DistanceMeters>NAN</DistanceMeters>
          </Trackpoint>
          <Trackpoint>
            <Time>2020-03-07T16:36:44.000Z</Time>
            <Position>
              <LatitudeDegrees>40.712013132870197296142578125</LatitudeDegrees>
              <LongitudeDegrees>-3.90858270227909088134765625</LongitudeDegrees>
            </Position>
            <AltitudeMeters>914.5999755859375</AltitudeMeters>
            <DistanceMeters>NAN</DistanceMeters>
          </Trackpoint>
          <Trackpoint>
            <Time>2020-03-07T16:36:45.000Z</Time>
            <Position>
              <LatitudeDegrees>40.711907185614109039306640625</LatitudeDegrees>
              <LongitudeDegrees>-3.90873399563133716583251953125</LongitudeDegrees>
            </Position>
            <AltitudeMeters>914.5999755859375</AltitudeMeters>
            <DistanceMeters>NAN</DistanceMeters>
          </Trackpoint>
          <Trackpoint>
            <Time>2020-03-07T16:36:46.000Z</Time>
            <Position>
              <LatitudeDegrees>40.7118513621389865875244140625</LatitudeDegrees>
              <LongitudeDegrees>-3.90880691818892955780029296875</LongitudeDegrees>
            </Position>
            <AltitudeMeters>914.5999755859375</AltitudeMeters>
            <DistanceMeters>NAN</DistanceMeters>
          </Trackpoint>
          <Trackpoint>
            <Time>2020-03-07T16:36:47.000Z</Time>
            <Position>
              <LatitudeDegrees>40.7117957063019275665283203125</LatitudeDegrees>
              <LongitudeDegrees>-3.908877409994602203369140625</LongitudeDegrees>
            </Position>
            <AltitudeMeters>914.5999755859375</AltitudeMeters>
            <DistanceMeters>NAN</DistanceMeters>
          </Trackpoint>
          <Trackpoint>
            <Time>2020-03-07T16:36:48.000Z</Time>
            <Position>
              <LatitudeDegrees>40.71173854172229766845703125</LatitudeDegrees>
              <LongitudeDegrees>-3.90894521959125995635986328125</LongitudeDegrees>
            </Position>
            <AltitudeMeters>914.79998779296875</AltitudeMeters>
            <DistanceMeters>NAN</DistanceMeters>
          </Trackpoint>
          <Trackpoint>
            <Time>2020-03-07T16:36:49.000Z</Time>
            <Position>
              <LatitudeDegrees>40.711681209504604339599609375</LatitudeDegrees>
              <LongitudeDegrees>-3.909012190997600555419921875</LongitudeDegrees>
            </Position>
            <AltitudeMeters>914.79998779296875</AltitudeMeters>
            <DistanceMeters>NAN</DistanceMeters>
          </Trackpoint>
          <Trackpoint>
            <Time>2020-03-07T16:36:50.000Z</Time>
            <Position>
              <LatitudeDegrees>40.71162329055368900299072265625</LatitudeDegrees>
              <LongitudeDegrees>-3.9090774022042751312255859375</LongitudeDegrees>
            </Position>
            <AltitudeMeters>914.79998779296875</AltitudeMeters>
            <DistanceMeters>NAN</DistanceMeters>
          </Trackpoint>
          <Trackpoint>
            <Time>2020-03-07T16:36:51.000Z</Time>
            <Position>
              <LatitudeDegrees>40.71156327612698078155517578125</LatitudeDegrees>
              <LongitudeDegrees>-3.90914018265902996063232421875</LongitudeDegrees>
            </Position>
            <AltitudeMeters>914.79998779296875</AltitudeMeters>
            <DistanceMeters>NAN</DistanceMeters>
          </Trackpoint>
          <Trackpoint>
            <Time>2020-03-07T16:36:52.000Z</Time>
            <Position>
              <LatitudeDegrees>40.71150242350995540618896484375</LatitudeDegrees>
              <LongitudeDegrees>-3.9092027954757213592529296875</LongitudeDegrees>
            </Position>
            <AltitudeMeters>914.79998779296875</AltitudeMeters>
            <DistanceMeters>NAN</DistanceMeters>
          </Trackpoint>
          <Trackpoint>
            <Time>2020-03-07T16:36:53.000Z</Time>
            <Position>
              <LatitudeDegrees>40.7114399783313274383544921875</LatitudeDegrees>
              <LongitudeDegrees>-3.90926473774015903472900390625</LongitudeDegrees>
            </Position>
            <AltitudeMeters>914.79998779296875</AltitudeMeters>
            <DistanceMeters>NAN</DistanceMeters>
          </Trackpoint>
          <Trackpoint>
            <Time>2020-03-07T16:36:54.000Z</Time>
            <Position>
              <LatitudeDegrees>40.7113776169717311859130859375</LatitudeDegrees>
              <LongitudeDegrees>-3.90932860784232616424560546875</LongitudeDegrees>
            </Position>
            <AltitudeMeters>914.79998779296875</AltitudeMeters>
            <DistanceMeters>NAN</DistanceMeters>
          </Trackpoint>
          <Trackpoint>
            <Time>2020-03-07T16:36:55.000Z</Time>
            <Position>
              <LatitudeDegrees>40.71131802164018154144287109375</LatitudeDegrees>
              <LongitudeDegrees>-3.909389041364192962646484375</LongitudeDegrees>
            </Position>
            <AltitudeMeters>915</AltitudeMeters>
            <DistanceMeters>NAN</DistanceMeters>
          </Trackpoint>
          <Trackpoint>
            <Time>2020-03-07T16:36:56.000Z</Time>
            <Position>
              <LatitudeDegrees>40.71125842630863189697265625</LatitudeDegrees>
              <LongitudeDegrees>-3.9094505645334720611572265625</LongitudeDegrees>
            </Position>
            <AltitudeMeters>915</AltitudeMeters>
            <DistanceMeters>NAN</DistanceMeters>
          </Trackpoint>
          <Trackpoint>
            <Time>2020-03-07T16:36:57.000Z</Time>
            <Position>
              <LatitudeDegrees>40.71119807660579681396484375</LatitudeDegrees>
              <LongitudeDegrees>-3.9095125906169414520263671875</LongitudeDegrees>
            </Position>
            <AltitudeMeters>915</AltitudeMeters>
            <DistanceMeters>NAN</DistanceMeters>
          </Trackpoint>
          <Trackpoint>
            <Time>2020-03-07T16:36:58.000Z</Time>
            <Position>
              <LatitudeDegrees>40.711138062179088592529296875</LatitudeDegrees>
              <LongitudeDegrees>-3.90957386232912540435791015625</LongitudeDegrees>
            </Position>
            <AltitudeMeters>915</AltitudeMeters>
            <DistanceMeters>NAN</DistanceMeters>
          </Trackpoint>
          <Trackpoint>
            <Time>2020-03-07T16:36:59.000Z</Time>
            <Position>
              <LatitudeDegrees>40.71108114905655384063720703125</LatitudeDegrees>
              <LongitudeDegrees>-3.909635134041309356689453125</LongitudeDegrees>
            </Position>
            <AltitudeMeters>915.20001220703125</AltitudeMeters>
            <DistanceMeters>NAN</DistanceMeters>
          </Trackpoint>
          <Trackpoint>
            <Time>2020-03-07T16:37:00.000Z</Time>
            <Position>
              <LatitudeDegrees>40.71102465502917766571044921875</LatitudeDegrees>
              <LongitudeDegrees>-3.90969523228704929351806640625</LongitudeDegrees>
            </Position>
            <AltitudeMeters>915.20001220703125</AltitudeMeters>
            <DistanceMeters>NAN</DistanceMeters>
          </Trackpoint>
          <Trackpoint>
            <Time>2020-03-07T16:37:01.000Z</Time>
            <Position>
              <LatitudeDegrees>40.7109682448208332061767578125</LatitudeDegrees>
              <LongitudeDegrees>-3.90975306741893291473388671875</LongitudeDegrees>
            </Position>
            <AltitudeMeters>915.20001220703125</AltitudeMeters>
            <DistanceMeters>NAN</DistanceMeters>
          </Trackpoint>
          <Trackpoint>
            <Time>2020-03-07T16:37:02.000Z</Time>
            <Position>
              <LatitudeDegrees>40.71091149933636188507080078125</LatitudeDegrees>
              <LongitudeDegrees>-3.9098123274743556976318359375</LongitudeDegrees>
            </Position>
            <AltitudeMeters>915.20001220703125</AltitudeMeters>
            <DistanceMeters>NAN</DistanceMeters>
          </Trackpoint>
          <Trackpoint>
            <Time>2020-03-07T16:37:03.000Z</Time>
            <Position>
              <LatitudeDegrees>40.710854418575763702392578125</LatitudeDegrees>
              <LongitudeDegrees>-3.9098743535578250885009765625</LongitudeDegrees>
            </Position>
            <AltitudeMeters>915.20001220703125</AltitudeMeters>
            <DistanceMeters>NAN</DistanceMeters>
          </Trackpoint>
          <Trackpoint>
            <Time>2020-03-07T16:37:04.000Z</Time>
            <Position>
              <LatitudeDegrees>40.7107992656528949737548828125</LatitudeDegrees>
              <LongitudeDegrees>-3.90993596054613590240478515625</LongitudeDegrees>
            </Position>
            <AltitudeMeters>915.20001220703125</AltitudeMeters>
            <DistanceMeters>NAN</DistanceMeters>
          </Trackpoint>
          <Trackpoint>
            <Time>2020-03-07T16:37:05.000Z</Time>
            <Position>
              <LatitudeDegrees>40.71074285544455051422119140625</LatitudeDegrees>
              <LongitudeDegrees>-3.909995220601558685302734375</LongitudeDegrees>
            </Position>
            <AltitudeMeters>915.20001220703125</AltitudeMeters>
            <DistanceMeters>NAN</DistanceMeters>
          </Trackpoint>
          <Trackpoint>
            <Time>2020-03-07T16:37:06.000Z</Time>
            <Position>
              <LatitudeDegrees>40.71068736724555492401123046875</LatitudeDegrees>
              <LongitudeDegrees>-3.91005280427634716033935546875</LongitudeDegrees>
            </Position>
            <AltitudeMeters>915.20001220703125</AltitudeMeters>
            <DistanceMeters>NAN</DistanceMeters>
          </Trackpoint>
          <Trackpoint>
            <Time>2020-03-07T16:37:07.000Z</Time>
            <Position>
              <LatitudeDegrees>40.7106316275894641876220703125</LatitudeDegrees>
              <LongitudeDegrees>-3.91010996885597705841064453125</LongitudeDegrees>
            </Position>
            <AltitudeMeters>915.20001220703125</AltitudeMeters>
            <DistanceMeters>NAN</DistanceMeters>
          </Trackpoint>
          <Trackpoint>
            <Time>2020-03-07T16:37:08.000Z</Time>
            <Position>
              <LatitudeDegrees>40.71057689376175403594970703125</LatitudeDegrees>
              <LongitudeDegrees>-3.910167217254638671875</LongitudeDegrees>
            </Position>
            <AltitudeMeters>915.4000244140625</AltitudeMeters>
            <DistanceMeters>NAN</DistanceMeters>
          </Trackpoint>
          <Trackpoint>
            <Time>2020-03-07T16:37:09.000Z</Time>
            <Position>
              <LatitudeDegrees>40.710523836314678192138671875</LatitudeDegrees>
              <LongitudeDegrees>-3.91022362746298313140869140625</LongitudeDegrees>
            </Position>
            <AltitudeMeters>915.20001220703125</AltitudeMeters>
            <DistanceMeters>NAN</DistanceMeters>
          </Trackpoint>
          <Trackpoint>
            <Time>2020-03-07T16:37:10.000Z</Time>
            <Position>
              <LatitudeDegrees>40.7104706950485706329345703125</LatitudeDegrees>
              <LongitudeDegrees>-3.9102827198803424835205078125</LongitudeDegrees>
            </Position>
            <AltitudeMeters>915.20001220703125</AltitudeMeters>
            <DistanceMeters>NAN</DistanceMeters>
          </Trackpoint>
          <Trackpoint>
            <Time>2020-03-07T16:37:11.000Z</Time>
            <Position>
              <LatitudeDegrees>40.71041713468730449676513671875</LatitudeDegrees>
              <LongitudeDegrees>-3.9103454165160655975341796875</LongitudeDegrees>
            </Position>
            <AltitudeMeters>915.20001220703125</AltitudeMeters>
            <DistanceMeters>NAN</DistanceMeters>
          </Trackpoint>
          <Trackpoint>
            <Time>2020-03-07T16:37:12.000Z</Time>
            <Position>
              <LatitudeDegrees>40.7103637419641017913818359375</LatitudeDegrees>
              <LongitudeDegrees>-3.9104097895324230194091796875</LongitudeDegrees>
            </Position>
            <AltitudeMeters>915.4000244140625</AltitudeMeters>
            <DistanceMeters>NAN</DistanceMeters>
          </Trackpoint>
          <Trackpoint>
            <Time>2020-03-07T16:37:13.000Z</Time>
            <Position>
              <LatitudeDegrees>40.7103107683360576629638671875</LatitudeDegrees>
              <LongitudeDegrees>-3.91047558747231960296630859375</LongitudeDegrees>
            </Position>
            <AltitudeMeters>915.4000244140625</AltitudeMeters>
            <DistanceMeters>NAN</DistanceMeters>
          </Trackpoint>
          <Trackpoint>
            <Time>2020-03-07T16:37:14.000Z</Time>
            <Position>
              <LatitudeDegrees>40.71025888435542583465576171875</LatitudeDegrees>
              <LongitudeDegrees>-3.9105435647070407867431640625</LongitudeDegrees>
            </Position>
            <AltitudeMeters>915.4000244140625</AltitudeMeters>
            <DistanceMeters>NAN</DistanceMeters>
          </Trackpoint>
          <Trackpoint>
            <Time>2020-03-07T16:37:15.000Z</Time>
            <Position>
              <LatitudeDegrees>40.71020834147930145263671875</LatitudeDegrees>
              <LongitudeDegrees>-3.91061338596045970916748046875</LongitudeDegrees>
            </Position>
            <AltitudeMeters>915.4000244140625</AltitudeMeters>
            <DistanceMeters>NAN</DistanceMeters>
          </Trackpoint>
          <Trackpoint>
            <Time>2020-03-07T16:37:16.000Z</Time>
            <Position>
              <LatitudeDegrees>40.710159055888652801513671875</LatitudeDegrees>
              <LongitudeDegrees>-3.91068580560386180877685546875</LongitudeDegrees>
            </Position>
            <AltitudeMeters>915.5999755859375</AltitudeMeters>
            <DistanceMeters>NAN</DistanceMeters>
          </Trackpoint>
          <Trackpoint>
            <Time>2020-03-07T16:37:17.000Z</Time>
            <Position>
              <LatitudeDegrees>40.71010968647897243499755859375</LatitudeDegrees>
              <LongitudeDegrees>-3.91075931489467620849609375</LongitudeDegrees>
            </Position>
            <AltitudeMeters>915.5999755859375</AltitudeMeters>
            <DistanceMeters>NAN</DistanceMeters>
          </Trackpoint>
          <Trackpoint>
            <Time>2020-03-07T16:37:18.000Z</Time>
            <Position>
              <LatitudeDegrees>40.71006291545927524566650390625</LatitudeDegrees>
              <LongitudeDegrees>-3.91083181835711002349853515625</LongitudeDegrees>
            </Position>
            <AltitudeMeters>915.5999755859375</AltitudeMeters>
            <DistanceMeters>NAN</DistanceMeters>
          </Trackpoint>
          <Trackpoint>
            <Time>2020-03-07T16:37:19.000Z</Time>
            <Position>
              <LatitudeDegrees>40.7100147195160388946533203125</LatitudeDegrees>
              <LongitudeDegrees>-3.9109034836292266845703125</LongitudeDegrees>
            </Position>
            <AltitudeMeters>915.5999755859375</AltitudeMeters>
            <DistanceMeters>NAN</DistanceMeters>
          </Trackpoint>
          <Trackpoint>
            <Time>2020-03-07T16:37:20.000Z</Time>
            <Position>
              <LatitudeDegrees>40.709964595735073089599609375</LatitudeDegrees>
              <LongitudeDegrees>-3.9109759032726287841796875</LongitudeDegrees>
            </Position>
            <AltitudeMeters>915.79998779296875</AltitudeMeters>
            <DistanceMeters>NAN</DistanceMeters>
          </Trackpoint>
          <Trackpoint>
            <Time>2020-03-07T16:37:21.000Z</Time>
            <Position>
              <LatitudeDegrees>40.70991438813507556915283203125</LatitudeDegrees>
              <LongitudeDegrees>-3.9110498316586017608642578125</LongitudeDegrees>
            </Position>
            <AltitudeMeters>915.79998779296875</AltitudeMeters>
            <DistanceMeters>NAN</DistanceMeters>
          </Trackpoint>
          <Trackpoint>
            <Time>2020-03-07T16:37:22.000Z</Time>
            <Position>
              <LatitudeDegrees>40.709864012897014617919921875</LatitudeDegrees>
              <LongitudeDegrees>-3.91112275421619415283203125</LongitudeDegrees>
            </Position>
            <AltitudeMeters>915.79998779296875</AltitudeMeters>
            <DistanceMeters>NAN</DistanceMeters>
          </Trackpoint>
          <Trackpoint>
            <Time>2020-03-07T16:37:23.000Z</Time>
            <Position>
              <LatitudeDegrees>40.70981296710669994354248046875</LatitudeDegrees>
              <LongitudeDegrees>-3.911196850240230560302734375</LongitudeDegrees>
            </Position>
            <AltitudeMeters>916</AltitudeMeters>
            <DistanceMeters>NAN</DistanceMeters>
          </Trackpoint>
          <Trackpoint>
            <Time>2020-03-07T16:37:24.000Z</Time>
            <Position>
              <LatitudeDegrees>40.70976166985929012298583984375</LatitudeDegrees>
              <LongitudeDegrees>-3.91126985661685466766357421875</LongitudeDegrees>
            </Position>
            <AltitudeMeters>916</AltitudeMeters>
            <DistanceMeters>NAN</DistanceMeters>
          </Trackpoint>
          <Trackpoint>
            <Time>2020-03-07T16:37:25.000Z</Time>
            <Position>
              <LatitudeDegrees>40.70970903150737285614013671875</LatitudeDegrees>
              <LongitudeDegrees>-3.91134344972670078277587890625</LongitudeDegrees>
            </Position>
            <AltitudeMeters>916</AltitudeMeters>
            <DistanceMeters>NAN</DistanceMeters>
          </Trackpoint>
          <Trackpoint>
            <Time>2020-03-07T16:37:26.000Z</Time>
            <Position>
              <LatitudeDegrees>40.70965622551739215850830078125</LatitudeDegrees>
              <LongitudeDegrees>-3.91141779720783233642578125</LongitudeDegrees>
            </Position>
            <AltitudeMeters>916</AltitudeMeters>
            <DistanceMeters>NAN</DistanceMeters>
          </Trackpoint>
          <Trackpoint>
            <Time>2020-03-07T16:37:27.000Z</Time>
            <Position>
              <LatitudeDegrees>40.7096050120890140533447265625</LatitudeDegrees>
              <LongitudeDegrees>-3.91149365343153476715087890625</LongitudeDegrees>
            </Position>
            <AltitudeMeters>916.20001220703125</AltitudeMeters>
            <DistanceMeters>NAN</DistanceMeters>
          </Trackpoint>
          <Trackpoint>
            <Time>2020-03-07T16:37:28.000Z</Time>
            <Position>
              <LatitudeDegrees>40.7095550559461116790771484375</LatitudeDegrees>
              <LongitudeDegrees>-3.91157043166458606719970703125</LongitudeDegrees>
            </Position>
            <AltitudeMeters>916.4000244140625</AltitudeMeters>
            <DistanceMeters>NAN</DistanceMeters>
          </Trackpoint>
          <Trackpoint>
            <Time>2020-03-07T16:37:29.000Z</Time>
            <Position>
              <LatitudeDegrees>40.70950384251773357391357421875</LatitudeDegrees>
              <LongitudeDegrees>-3.9116469584405422210693359375</LongitudeDegrees>
            </Position>
            <AltitudeMeters>916.4000244140625</AltitudeMeters>
            <DistanceMeters>NAN</DistanceMeters>
          </Trackpoint>
          <Trackpoint>
            <Time>2020-03-07T16:37:30.000Z</Time>
            <Position>
              <LatitudeDegrees>40.70945220999419689178466796875</LatitudeDegrees>
              <LongitudeDegrees>-3.9117230661213397979736328125</LongitudeDegrees>
            </Position>
            <AltitudeMeters>916.4000244140625</AltitudeMeters>
            <DistanceMeters>NAN</DistanceMeters>
          </Trackpoint>
          <Trackpoint>
            <Time>2020-03-07T16:37:31.000Z</Time>
            <Position>
              <LatitudeDegrees>40.7094011642038822174072265625</LatitudeDegrees>
              <LongitudeDegrees>-3.9117991738021373748779296875</LongitudeDegrees>
            </Position>
            <AltitudeMeters>916.4000244140625</AltitudeMeters>
            <DistanceMeters>NAN</DistanceMeters>
          </Trackpoint>
          <Trackpoint>
            <Time>2020-03-07T16:37:32.000Z</Time>
            <Position>
              <LatitudeDegrees>40.70934978313744068145751953125</LatitudeDegrees>
              <LongitudeDegrees>-3.91187435947358608245849609375</LongitudeDegrees>
            </Position>
            <AltitudeMeters>916.5999755859375</AltitudeMeters>
            <DistanceMeters>NAN</DistanceMeters>
          </Trackpoint>
          <Trackpoint>
            <Time>2020-03-07T16:37:33.000Z</Time>
            <Position>
              <LatitudeDegrees>40.70929815061390399932861328125</LatitudeDegrees>
              <LongitudeDegrees>-3.9119490422308444976806640625</LongitudeDegrees>
            </Position>
            <AltitudeMeters>916.5999755859375</AltitudeMeters>
            <DistanceMeters>NAN</DistanceMeters>
          </Trackpoint>
          <Trackpoint>
            <Time>2020-03-07T16:37:34.000Z</Time>
            <Position>
              <LatitudeDegrees>40.70924735628068447113037109375</LatitudeDegrees>
              <LongitudeDegrees>-3.9120241440832614898681640625</LongitudeDegrees>
            </Position>
            <AltitudeMeters>916.5999755859375</AltitudeMeters>
            <DistanceMeters>NAN</DistanceMeters>
          </Trackpoint>
          <Trackpoint>
            <Time>2020-03-07T16:37:35.000Z</Time>
            <Position>
              <LatitudeDegrees>40.70919723249971866607666015625</LatitudeDegrees>
              <LongitudeDegrees>-3.91209932975471019744873046875</LongitudeDegrees>
            </Position>
            <AltitudeMeters>916.5999755859375</AltitudeMeters>
            <DistanceMeters>NAN</DistanceMeters>
          </Trackpoint>
          <Trackpoint>
            <Time>2020-03-07T16:37:36.000Z</Time>
            <Position>
              <LatitudeDegrees>40.709146521985530853271484375</LatitudeDegrees>
              <LongitudeDegrees>-3.9121735095977783203125</LongitudeDegrees>
            </Position>
            <AltitudeMeters>916.5999755859375</AltitudeMeters>
            <DistanceMeters>NAN</DistanceMeters>
          </Trackpoint>
          <Trackpoint>
            <Time>2020-03-07T16:37:37.000Z</Time>
            <Position>
              <LatitudeDegrees>40.70909463800489902496337890625</LatitudeDegrees>
              <LongitudeDegrees>-3.912246264517307281494140625</LongitudeDegrees>
            </Position>
            <AltitudeMeters>916.5999755859375</AltitudeMeters>
            <DistanceMeters>NAN</DistanceMeters>
          </Trackpoint>
          <Trackpoint>
            <Time>2020-03-07T16:37:38.000Z</Time>
            <Position>
              <LatitudeDegrees>40.70904317311942577362060546875</LatitudeDegrees>
              <LongitudeDegrees>-3.9123196899890899658203125</LongitudeDegrees>
            </Position>
            <AltitudeMeters>916.5999755859375</AltitudeMeters>
            <DistanceMeters>NAN</DistanceMeters>
          </Trackpoint>
          <Trackpoint>
            <Time>2020-03-07T16:37:39.000Z</Time>
            <Position>
              <LatitudeDegrees>40.7089904509484767913818359375</LatitudeDegrees>
              <LongitudeDegrees>-3.912393115460872650146484375</LongitudeDegrees>
            </Position>
            <AltitudeMeters>916.5999755859375</AltitudeMeters>
            <DistanceMeters>NAN</DistanceMeters>
          </Trackpoint>
          <Trackpoint>
            <Time>2020-03-07T16:37:40.000Z</Time>
            <Position>
              <LatitudeDegrees>40.70893965661525726318359375</LatitudeDegrees>
              <LongitudeDegrees>-3.91246788203716278076171875</LongitudeDegrees>
            </Position>
            <AltitudeMeters>916.79998779296875</AltitudeMeters>
            <DistanceMeters>NAN</DistanceMeters>
          </Trackpoint>
          <Trackpoint>
            <Time>2020-03-07T16:37:41.000Z</Time>
            <Position>
              <LatitudeDegrees>40.7088898681104183197021484375</LatitudeDegrees>
              <LongitudeDegrees>-3.9125438220798969268798828125</LongitudeDegrees>
            </Position>
            <AltitudeMeters>916.79998779296875</AltitudeMeters>
            <DistanceMeters>NAN</DistanceMeters>
          </Trackpoint>
          <Trackpoint>
            <Time>2020-03-07T16:37:42.000Z</Time>
            <Position>
              <LatitudeDegrees>40.70883982814848423004150390625</LatitudeDegrees>
              <LongitudeDegrees>-3.91261875629425048828125</LongitudeDegrees>
            </Position>
            <AltitudeMeters>916.79998779296875</AltitudeMeters>
            <DistanceMeters>NAN</DistanceMeters>
          </Trackpoint>
          <Trackpoint>
            <Time>2020-03-07T16:37:43.000Z</Time>
            <Position>
              <LatitudeDegrees>40.70878836326301097869873046875</LatitudeDegrees>
              <LongitudeDegrees>-3.91269184648990631103515625</LongitudeDegrees>
            </Position>
            <AltitudeMeters>917</AltitudeMeters>
            <DistanceMeters>NAN</DistanceMeters>
          </Trackpoint>
          <Trackpoint>
            <Time>2020-03-07T16:37:44.000Z</Time>
            <Position>
              <LatitudeDegrees>40.708737485110759735107421875</LatitudeDegrees>
              <LongitudeDegrees>-3.91276468522846698760986328125</LongitudeDegrees>
            </Position>
            <AltitudeMeters>917</AltitudeMeters>
            <DistanceMeters>NAN</DistanceMeters>
          </Trackpoint>
          <Trackpoint>
            <Time>2020-03-07T16:37:45.000Z</Time>
            <Position>
              <LatitudeDegrees>40.7086873613297939300537109375</LatitudeDegrees>
              <LongitudeDegrees>-3.91283811070024967193603515625</LongitudeDegrees>
            </Position>
            <AltitudeMeters>917</AltitudeMeters>
            <DistanceMeters>NAN</DistanceMeters>
          </Trackpoint>
          <Trackpoint>
            <Time>2020-03-07T16:37:46.000Z</Time>
            <Position>
              <LatitudeDegrees>40.7086370699107646942138671875</LatitudeDegrees>
              <LongitudeDegrees>-3.91291220672428607940673828125</LongitudeDegrees>
            </Position>
            <AltitudeMeters>917</AltitudeMeters>
            <DistanceMeters>NAN</DistanceMeters>
          </Trackpoint>
          <Trackpoint>
            <Time>2020-03-07T16:37:47.000Z</Time>
            <Position>
              <LatitudeDegrees>40.70858686231076717376708984375</LatitudeDegrees>
              <LongitudeDegrees>-3.91298647038638591766357421875</LongitudeDegrees>
            </Position>
            <AltitudeMeters>917.20001220703125</AltitudeMeters>
            <DistanceMeters>NAN</DistanceMeters>
          </Trackpoint>
          <Trackpoint>
            <Time>2020-03-07T16:37:48.000Z</Time>
            <Position>
              <LatitudeDegrees>40.7085371576249599456787109375</LatitudeDegrees>
              <LongitudeDegrees>-3.91306090168654918670654296875</LongitudeDegrees>
            </Position>
            <AltitudeMeters>917.20001220703125</AltitudeMeters>
            <DistanceMeters>NAN</DistanceMeters>
          </Trackpoint>
          <Trackpoint>
            <Time>2020-03-07T16:37:49.000Z</Time>
            <Position>
              <LatitudeDegrees>40.70848711766302585601806640625</LatitudeDegrees>
              <LongitudeDegrees>-3.91313441097736358642578125</LongitudeDegrees>
            </Position>
            <AltitudeMeters>917.20001220703125</AltitudeMeters>
            <DistanceMeters>NAN</DistanceMeters>
          </Trackpoint>
          <Trackpoint>
            <Time>2020-03-07T16:37:50.000Z</Time>
            <Position>
              <LatitudeDegrees>40.7084365747869014739990234375</LatitudeDegrees>
              <LongitudeDegrees>-3.91320548951625823974609375</LongitudeDegrees>
            </Position>
            <AltitudeMeters>917.20001220703125</AltitudeMeters>
            <DistanceMeters>NAN</DistanceMeters>
          </Trackpoint>
          <Trackpoint>
            <Time>2020-03-07T16:37:51.000Z</Time>
            <Position>
              <LatitudeDegrees>40.7083862833678722381591796875</LatitudeDegrees>
              <LongitudeDegrees>-3.9132757298648357391357421875</LongitudeDegrees>
            </Position>
            <AltitudeMeters>917.20001220703125</AltitudeMeters>
            <DistanceMeters>NAN</DistanceMeters>
          </Trackpoint>
          <Trackpoint>
            <Time>2020-03-07T16:37:52.000Z</Time>
            <Position>
              <LatitudeDegrees>40.70833791978657245635986328125</LatitudeDegrees>
              <LongitudeDegrees>-3.91334605403244495391845703125</LongitudeDegrees>
            </Position>
            <AltitudeMeters>917.20001220703125</AltitudeMeters>
            <DistanceMeters>NAN</DistanceMeters>
          </Trackpoint>
          <Trackpoint>
            <Time>2020-03-07T16:37:53.000Z</Time>
            <Position>
              <LatitudeDegrees>40.70829047821462154388427734375</LatitudeDegrees>
              <LongitudeDegrees>-3.913417048752307891845703125</LongitudeDegrees>
            </Position>
            <AltitudeMeters>917.20001220703125</AltitudeMeters>
            <DistanceMeters>NAN</DistanceMeters>
          </Trackpoint>
          <Trackpoint>
            <Time>2020-03-07T16:37:54.000Z</Time>
            <Position>
              <LatitudeDegrees>40.70824094116687774658203125</LatitudeDegrees>
              <LongitudeDegrees>-3.9134882949292659759521484375</LongitudeDegrees>
            </Position>
            <AltitudeMeters>917.20001220703125</AltitudeMeters>
            <DistanceMeters>NAN</DistanceMeters>
          </Trackpoint>
          <Trackpoint>
            <Time>2020-03-07T16:37:55.000Z</Time>
            <Position>
              <LatitudeDegrees>40.7081911526620388031005859375</LatitudeDegrees>
              <LongitudeDegrees>-3.9135593734681606292724609375</LongitudeDegrees>
            </Position>
            <AltitudeMeters>917.4000244140625</AltitudeMeters>
            <DistanceMeters>NAN</DistanceMeters>
          </Trackpoint>
          <Trackpoint>
            <Time>2020-03-07T16:37:56.000Z</Time>
            <Position>
              <LatitudeDegrees>40.70814312435686588287353515625</LatitudeDegrees>
              <LongitudeDegrees>-3.9136286079883575439453125</LongitudeDegrees>
            </Position>
            <AltitudeMeters>917.4000244140625</AltitudeMeters>
            <DistanceMeters>NAN</DistanceMeters>
          </Trackpoint>
          <Trackpoint>
            <Time>2020-03-07T16:37:57.000Z</Time>
            <Position>
              <LatitudeDegrees>40.7080967724323272705078125</LatitudeDegrees>
              <LongitudeDegrees>-3.9136954955756664276123046875</LongitudeDegrees>
            </Position>
            <AltitudeMeters>917.4000244140625</AltitudeMeters>
            <DistanceMeters>NAN</DistanceMeters>
          </Trackpoint>
          <Trackpoint>
            <Time>2020-03-07T16:37:58.000Z</Time>
            <Position>
              <LatitudeDegrees>40.708050839602947235107421875</LatitudeDegrees>
              <LongitudeDegrees>-3.91376204788684844970703125</LongitudeDegrees>
            </Position>
            <AltitudeMeters>917.5999755859375</AltitudeMeters>
            <DistanceMeters>NAN</DistanceMeters>
          </Trackpoint>
          <Trackpoint>
            <Time>2020-03-07T16:37:59.000Z</Time>
            <Position>
              <LatitudeDegrees>40.70800700224936008453369140625</LatitudeDegrees>
              <LongitudeDegrees>-3.91382834874093532562255859375</LongitudeDegrees>
            </Position>
            <AltitudeMeters>917.5999755859375</AltitudeMeters>
            <DistanceMeters>NAN</DistanceMeters>
          </Trackpoint>
          <Trackpoint>
            <Time>2020-03-07T16:38:00.000Z</Time>
            <Position>
              <LatitudeDegrees>40.707962997257709503173828125</LatitudeDegrees>
              <LongitudeDegrees>-3.91389456577599048614501953125</LongitudeDegrees>
            </Position>
            <AltitudeMeters>917.5999755859375</AltitudeMeters>
            <DistanceMeters>NAN</DistanceMeters>
          </Trackpoint>
          <Trackpoint>
            <Time>2020-03-07T16:38:01.000Z</Time>
            <Position>
              <LatitudeDegrees>40.707916729152202606201171875</LatitudeDegrees>
              <LongitudeDegrees>-3.9139606989920139312744140625</LongitudeDegrees>
            </Position>
            <AltitudeMeters>917.5999755859375</AltitudeMeters>
            <DistanceMeters>NAN</DistanceMeters>
          </Trackpoint>
          <Trackpoint>
            <Time>2020-03-07T16:38:02.000Z</Time>
            <Position>
              <LatitudeDegrees>40.707871131598949432373046875</LatitudeDegrees>
              <LongitudeDegrees>-3.9140267483890056610107421875</LongitudeDegrees>
            </Position>
            <AltitudeMeters>917.5999755859375</AltitudeMeters>
            <DistanceMeters>NAN</DistanceMeters>
          </Trackpoint>
          <Trackpoint>
            <Time>2020-03-07T16:38:03.000Z</Time>
            <Position>
              <LatitudeDegrees>40.7078283838927745819091796875</LatitudeDegrees>
              <LongitudeDegrees>-3.91409187577664852142333984375</LongitudeDegrees>
            </Position>
            <AltitudeMeters>917.5999755859375</AltitudeMeters>
            <DistanceMeters>NAN</DistanceMeters>
          </Trackpoint>
          <Trackpoint>
            <Time>2020-03-07T16:38:04.000Z</Time>
            <Position>
              <LatitudeDegrees>40.70778756402432918548583984375</LatitudeDegrees>
              <LongitudeDegrees>-3.91415742225944995880126953125</LongitudeDegrees>
            </Position>
            <AltitudeMeters>917.79998779296875</AltitudeMeters>
            <DistanceMeters>NAN</DistanceMeters>
          </Trackpoint>
          <Trackpoint>
            <Time>2020-03-07T16:38:05.000Z</Time>
            <Position>
              <LatitudeDegrees>40.70774607360363006591796875</LatitudeDegrees>
              <LongitudeDegrees>-3.91422514803707599639892578125</LongitudeDegrees>
            </Position>
            <AltitudeMeters>917.79998779296875</AltitudeMeters>
            <DistanceMeters>NAN</DistanceMeters>
          </Trackpoint>
          <Trackpoint>
            <Time>2020-03-07T16:38:06.000Z</Time>
            <Position>
              <LatitudeDegrees>40.70770441554486751556396484375</LatitudeDegrees>
              <LongitudeDegrees>-3.91429220326244831085205078125</LongitudeDegrees>
            </Position>
            <AltitudeMeters>917.79998779296875</AltitudeMeters>
            <DistanceMeters>NAN</DistanceMeters>
          </Trackpoint>
          <Trackpoint>
            <Time>2020-03-07T16:38:07.000Z</Time>
            <Position>
              <LatitudeDegrees>40.7076634280383586883544921875</LatitudeDegrees>
              <LongitudeDegrees>-3.91435942612588405609130859375</LongitudeDegrees>
            </Position>
            <AltitudeMeters>917.79998779296875</AltitudeMeters>
            <DistanceMeters>NAN</DistanceMeters>
          </Trackpoint>
          <Trackpoint>
            <Time>2020-03-07T16:38:08.000Z</Time>
            <Position>
              <LatitudeDegrees>40.7076231949031352996826171875</LatitudeDegrees>
              <LongitudeDegrees>-3.9144267328083515167236328125</LongitudeDegrees>
            </Position>
            <AltitudeMeters>917.79998779296875</AltitudeMeters>
            <DistanceMeters>NAN</DistanceMeters>
          </Trackpoint>
          <Trackpoint>
            <Time>2020-03-07T16:38:09.000Z</Time>
            <Position>
              <LatitudeDegrees>40.707582794129848480224609375</LatitudeDegrees>
              <LongitudeDegrees>-3.91449554823338985443115234375</LongitudeDegrees>
            </Position>
            <AltitudeMeters>917.79998779296875</AltitudeMeters>
            <DistanceMeters>NAN</DistanceMeters>
          </Trackpoint>
          <Trackpoint>
            <Time>2020-03-07T16:38:10.000Z</Time>
            <Position>
              <LatitudeDegrees>40.70754499174654483795166015625</LatitudeDegrees>
              <LongitudeDegrees>-3.9145645312964916229248046875</LongitudeDegrees>
            </Position>
            <AltitudeMeters>918</AltitudeMeters>
            <DistanceMeters>NAN</DistanceMeters>
          </Trackpoint>
          <Trackpoint>
            <Time>2020-03-07T16:38:11.000Z</Time>
            <Position>
              <LatitudeDegrees>40.707508362829685211181640625</LatitudeDegrees>
              <LongitudeDegrees>-3.91463368199765682220458984375</LongitudeDegrees>
            </Position>
            <AltitudeMeters>918</AltitudeMeters>
            <DistanceMeters>NAN</DistanceMeters>
          </Trackpoint>
          <Trackpoint>
            <Time>2020-03-07T16:38:12.000Z</Time>
            <Position>
              <LatitudeDegrees>40.70747357793152332305908203125</LatitudeDegrees>
              <LongitudeDegrees>-3.9147030003368854522705078125</LongitudeDegrees>
            </Position>
            <AltitudeMeters>918</AltitudeMeters>
            <DistanceMeters>NAN</DistanceMeters>
          </Trackpoint>
          <Trackpoint>
            <Time>2020-03-07T16:38:13.000Z</Time>
            <Position>
              <LatitudeDegrees>40.707435943186283111572265625</LatitudeDegrees>
              <LongitudeDegrees>-3.9147754199802875518798828125</LongitudeDegrees>
            </Position>
            <AltitudeMeters>918</AltitudeMeters>
            <DistanceMeters>NAN</DistanceMeters>
          </Trackpoint>
          <Trackpoint>
            <Time>2020-03-07T16:38:14.000Z</Time>
            <Position>
              <LatitudeDegrees>40.70740140974521636962890625</LatitudeDegrees>
              <LongitudeDegrees>-3.9148488454520702362060546875</LongitudeDegrees>
            </Position>
            <AltitudeMeters>918.20001220703125</AltitudeMeters>
            <DistanceMeters>NAN</DistanceMeters>
          </Trackpoint>
          <Trackpoint>
            <Time>2020-03-07T16:38:15.000Z</Time>
            <Position>
              <LatitudeDegrees>40.70737056434154510498046875</LatitudeDegrees>
              <LongitudeDegrees>-3.91492034308612346649169921875</LongitudeDegrees>
            </Position>
            <AltitudeMeters>918.20001220703125</AltitudeMeters>
            <DistanceMeters>NAN</DistanceMeters>
          </Trackpoint>
          <Trackpoint>
            <Time>2020-03-07T16:38:16.000Z</Time>
            <Position>
              <LatitudeDegrees>40.70734164677560329437255859375</LatitudeDegrees>
              <LongitudeDegrees>-3.91498940996825695037841796875</LongitudeDegrees>
            </Position>
            <AltitudeMeters>918.4000244140625</AltitudeMeters>
            <DistanceMeters>NAN</DistanceMeters>
          </Trackpoint>
          <Trackpoint>
            <Time>2020-03-07T16:38:17.000Z</Time>
            <Position>
              <LatitudeDegrees>40.70734164677560329437255859375</LatitudeDegrees>
              <LongitudeDegrees>-3.91498940996825695037841796875</LongitudeDegrees>
            </Position>
            <AltitudeMeters>918.4000244140625</AltitudeMeters>
            <DistanceMeters>NAN</DistanceMeters>
          </Trackpoint>
          <Trackpoint>
            <Time>2020-03-07T16:38:18.000Z</Time>
            <Position>
              <LatitudeDegrees>40.70731063373386859893798828125</LatitudeDegrees>
              <LongitudeDegrees>-3.91506048850715160369873046875</LongitudeDegrees>
            </Position>
            <AltitudeMeters>918.4000244140625</AltitudeMeters>
            <DistanceMeters>NAN</DistanceMeters>
          </Trackpoint>
          <Trackpoint>
            <Time>2020-03-07T16:38:19.000Z</Time>
            <Position>
              <LatitudeDegrees>40.707279033958911895751953125</LatitudeDegrees>
              <LongitudeDegrees>-3.91513089649379253387451171875</LongitudeDegrees>
            </Position>
            <AltitudeMeters>918.4000244140625</AltitudeMeters>
            <DistanceMeters>NAN</DistanceMeters>
          </Trackpoint>
          <Trackpoint>
            <Time>2020-03-07T16:38:20.000Z</Time>
            <Position>
              <LatitudeDegrees>40.707246847450733184814453125</LatitudeDegrees>
              <LongitudeDegrees>-3.91520013101398944854736328125</LongitudeDegrees>
            </Position>
            <AltitudeMeters>918.5999755859375</AltitudeMeters>
            <DistanceMeters>NAN</DistanceMeters>
          </Trackpoint>
          <Trackpoint>
            <Time>2020-03-07T16:38:21.000Z</Time>
            <Position>
              <LatitudeDegrees>40.7071794569492340087890625</LatitudeDegrees>
              <LongitudeDegrees>-3.91533860005438327789306640625</LongitudeDegrees>
            </Position>
            <AltitudeMeters>918.5999755859375</AltitudeMeters>
            <DistanceMeters>NAN</DistanceMeters>
          </Trackpoint>
          <Trackpoint>
            <Time>2020-03-07T16:38:22.000Z</Time>
            <Position>
              <LatitudeDegrees>40.70714668370783329010009765625</LatitudeDegrees>
              <LongitudeDegrees>-3.9154080860316753387451171875</LongitudeDegrees>
            </Position>
            <AltitudeMeters>918.5999755859375</AltitudeMeters>
            <DistanceMeters>NAN</DistanceMeters>
          </Trackpoint>
          <Trackpoint>
            <Time>2020-03-07T16:38:23.000Z</Time>
            <Position>
              <LatitudeDegrees>40.70711441338062286376953125</LatitudeDegrees>
              <LongitudeDegrees>-3.915477655827999114990234375</LongitudeDegrees>
            </Position>
            <AltitudeMeters>918.5999755859375</AltitudeMeters>
            <DistanceMeters>NAN</DistanceMeters>
          </Trackpoint>
          <Trackpoint>
            <Time>2020-03-07T16:38:24.000Z</Time>
            <Position>
              <LatitudeDegrees>40.70708180777728557586669921875</LatitudeDegrees>
              <LongitudeDegrees>-3.915546722710132598876953125</LongitudeDegrees>
            </Position>
            <AltitudeMeters>918.5999755859375</AltitudeMeters>
            <DistanceMeters>NAN</DistanceMeters>
          </Trackpoint>
          <Trackpoint>
            <Time>2020-03-07T16:38:25.000Z</Time>
            <Position>
              <LatitudeDegrees>40.707049705088138580322265625</LatitudeDegrees>
              <LongitudeDegrees>-3.9156169630587100982666015625</LongitudeDegrees>
            </Position>
            <AltitudeMeters>918.5999755859375</AltitudeMeters>
            <DistanceMeters>NAN</DistanceMeters>
          </Trackpoint>
          <Trackpoint>
            <Time>2020-03-07T16:38:26.000Z</Time>
            <Position>
              <LatitudeDegrees>40.707049705088138580322265625</LatitudeDegrees>
              <LongitudeDegrees>-3.9156169630587100982666015625</LongitudeDegrees>
            </Position>
            <AltitudeMeters>918.5999755859375</AltitudeMeters>
            <DistanceMeters>NAN</DistanceMeters>
          </Trackpoint>
          <Trackpoint>
            <Time>2020-03-07T16:38:27.000Z</Time>
            <Position>
              <LatitudeDegrees>40.7069861702620983123779296875</LatitudeDegrees>
              <LongitudeDegrees>-3.91575761139392852783203125</LongitudeDegrees>
            </Position>
            <AltitudeMeters>918.5999755859375</AltitudeMeters>
            <DistanceMeters>NAN</DistanceMeters>
          </Trackpoint>
          <Trackpoint>
            <Time>2020-03-07T16:38:28.000Z</Time>
            <Position>
              <LatitudeDegrees>40.7069541513919830322265625</LatitudeDegrees>
              <LongitudeDegrees>-3.91582743264734745025634765625</LongitudeDegrees>
            </Position>
            <AltitudeMeters>918.79998779296875</AltitudeMeters>
            <DistanceMeters>NAN</DistanceMeters>
          </Trackpoint>
          <Trackpoint>
            <Time>2020-03-07T16:38:29.000Z</Time>
            <Position>
              <LatitudeDegrees>40.70692087523639202117919921875</LatitudeDegrees>
              <LongitudeDegrees>-3.91589750535786151885986328125</LongitudeDegrees>
            </Position>
            <AltitudeMeters>918.79998779296875</AltitudeMeters>
            <DistanceMeters>NAN</DistanceMeters>
          </Trackpoint>
          <Trackpoint>
            <Time>2020-03-07T16:38:30.000Z</Time>
            <Position>
              <LatitudeDegrees>40.70688667707145214080810546875</LatitudeDegrees>
              <LongitudeDegrees>-3.91596808098256587982177734375</LongitudeDegrees>
            </Position>
            <AltitudeMeters>918.79998779296875</AltitudeMeters>
            <DistanceMeters>NAN</DistanceMeters>
          </Trackpoint>
          <Trackpoint>
            <Time>2020-03-07T16:38:31.000Z</Time>
            <Position>
              <LatitudeDegrees>40.7068534009158611297607421875</LatitudeDegrees>
              <LongitudeDegrees>-3.91603932715952396392822265625</LongitudeDegrees>
            </Position>
            <AltitudeMeters>919</AltitudeMeters>
            <DistanceMeters>NAN</DistanceMeters>
          </Trackpoint>
          <Trackpoint>
            <Time>2020-03-07T16:38:32.000Z</Time>
            <Position>
              <LatitudeDegrees>40.7068198733031749725341796875</LatitudeDegrees>
              <LongitudeDegrees>-3.9161128364503383636474609375</LongitudeDegrees>
            </Position>
            <AltitudeMeters>919</AltitudeMeters>
            <DistanceMeters>NAN</DistanceMeters>
          </Trackpoint>
          <Trackpoint>
            <Time>2020-03-07T16:38:33.000Z</Time>
            <Position>
              <LatitudeDegrees>40.7067851722240447998046875</LatitudeDegrees>
              <LongitudeDegrees>-3.9161862619221210479736328125</LongitudeDegrees>
            </Position>
            <AltitudeMeters>919.20001220703125</AltitudeMeters>
            <DistanceMeters>NAN</DistanceMeters>
          </Trackpoint>
          <Trackpoint>
            <Time>2020-03-07T16:38:34.000Z</Time>
            <Position>
              <LatitudeDegrees>40.70674904622137546539306640625</LatitudeDegrees>
              <LongitudeDegrees>-3.9162593521177768707275390625</LongitudeDegrees>
            </Position>
            <AltitudeMeters>919.4000244140625</AltitudeMeters>
            <DistanceMeters>NAN</DistanceMeters>
          </Trackpoint>
          <Trackpoint>
            <Time>2020-03-07T16:38:35.000Z</Time>
            <Position>
              <LatitudeDegrees>40.7067142613232135772705078125</LatitudeDegrees>
              <LongitudeDegrees>-3.9163334481418132781982421875</LongitudeDegrees>
            </Position>
            <AltitudeMeters>919.5999755859375</AltitudeMeters>
            <DistanceMeters>NAN</DistanceMeters>
          </Trackpoint>
          <Trackpoint>
            <Time>2020-03-07T16:38:36.000Z</Time>
            <Position>
              <LatitudeDegrees>40.70667914114892482757568359375</LatitudeDegrees>
              <LongitudeDegrees>-3.91640863381326198577880859375</LongitudeDegrees>
            </Position>
            <AltitudeMeters>919.5999755859375</AltitudeMeters>
            <DistanceMeters>NAN</DistanceMeters>
          </Trackpoint>
          <Trackpoint>
            <Time>2020-03-07T16:38:37.000Z</Time>
            <Position>
              <LatitudeDegrees>40.706644691526889801025390625</LatitudeDegrees>
              <LongitudeDegrees>-3.91648314893245697021484375</LongitudeDegrees>
            </Position>
            <AltitudeMeters>919.5999755859375</AltitudeMeters>
            <DistanceMeters>NAN</DistanceMeters>
          </Trackpoint>
          <Trackpoint>
            <Time>2020-03-07T16:38:38.000Z</Time>
            <Position>
              <LatitudeDegrees>40.7066113315522670745849609375</LatitudeDegrees>
              <LongitudeDegrees>-3.91655816696584224700927734375</LongitudeDegrees>
            </Position>
            <AltitudeMeters>919.5999755859375</AltitudeMeters>
            <DistanceMeters>NAN</DistanceMeters>
          </Trackpoint>
          <Trackpoint>
            <Time>2020-03-07T16:38:39.000Z</Time>
            <Position>
              <LatitudeDegrees>40.70657654665410518646240234375</LatitudeDegrees>
              <LongitudeDegrees>-3.91663326881825923919677734375</LongitudeDegrees>
            </Position>
            <AltitudeMeters>919.5999755859375</AltitudeMeters>
            <DistanceMeters>NAN</DistanceMeters>
          </Trackpoint>
          <Trackpoint>
            <Time>2020-03-07T16:38:40.000Z</Time>
            <Position>
              <LatitudeDegrees>40.70654000155627727508544921875</LatitudeDegrees>
              <LongitudeDegrees>-3.91670602373778820037841796875</LongitudeDegrees>
            </Position>
            <AltitudeMeters>919.79998779296875</AltitudeMeters>
            <DistanceMeters>NAN</DistanceMeters>
          </Trackpoint>
          <Trackpoint>
            <Time>2020-03-07T16:38:41.000Z</Time>
            <Position>
              <LatitudeDegrees>40.7065023668110370635986328125</LatitudeDegrees>
              <LongitudeDegrees>-3.91677685081958770751953125</LongitudeDegrees>
            </Position>
            <AltitudeMeters>919.79998779296875</AltitudeMeters>
            <DistanceMeters>NAN</DistanceMeters>
          </Trackpoint>
          <Trackpoint>
            <Time>2020-03-07T16:38:42.000Z</Time>
            <Position>
              <LatitudeDegrees>40.7064661569893360137939453125</LatitudeDegrees>
              <LongitudeDegrees>-3.9168484322726726531982421875</LongitudeDegrees>
            </Position>
            <AltitudeMeters>919.79998779296875</AltitudeMeters>
            <DistanceMeters>NAN</DistanceMeters>
          </Trackpoint>
          <Trackpoint>
            <Time>2020-03-07T16:38:43.000Z</Time>
            <Position>
              <LatitudeDegrees>40.70643179118633270263671875</LatitudeDegrees>
              <LongitudeDegrees>-3.91692143864929676055908203125</LongitudeDegrees>
            </Position>
            <AltitudeMeters>919.79998779296875</AltitudeMeters>
            <DistanceMeters>NAN</DistanceMeters>
          </Trackpoint>
          <Trackpoint>
            <Time>2020-03-07T16:38:44.000Z</Time>
            <Position>
              <LatitudeDegrees>40.70639784447848796844482421875</LatitudeDegrees>
              <LongitudeDegrees>-3.91699469648301601409912109375</LongitudeDegrees>
            </Position>
            <AltitudeMeters>919.79998779296875</AltitudeMeters>
            <DistanceMeters>NAN</DistanceMeters>
          </Trackpoint>
          <Trackpoint>
            <Time>2020-03-07T16:38:45.000Z</Time>
            <Position>
              <LatitudeDegrees>40.70636465214192867279052734375</LatitudeDegrees>
              <LongitudeDegrees>-3.91706912778317928314208984375</LongitudeDegrees>
            </Position>
            <AltitudeMeters>919.79998779296875</AltitudeMeters>
            <DistanceMeters>NAN</DistanceMeters>
          </Trackpoint>
          <Trackpoint>
            <Time>2020-03-07T16:38:46.000Z</Time>
            <Position>
              <LatitudeDegrees>40.70632986724376678466796875</LatitudeDegrees>
              <LongitudeDegrees>-3.91714255325496196746826171875</LongitudeDegrees>
            </Position>
            <AltitudeMeters>919.79998779296875</AltitudeMeters>
            <DistanceMeters>NAN</DistanceMeters>
          </Trackpoint>
          <Trackpoint>
            <Time>2020-03-07T16:38:47.000Z</Time>
            <Position>
              <LatitudeDegrees>40.7062944956123828887939453125</LatitudeDegrees>
              <LongitudeDegrees>-3.91721648164093494415283203125</LongitudeDegrees>
            </Position>
            <AltitudeMeters>920</AltitudeMeters>
            <DistanceMeters>NAN</DistanceMeters>
          </Trackpoint>
          <Trackpoint>
            <Time>2020-03-07T16:38:48.000Z</Time>
            <Position>
              <LatitudeDegrees>40.706259123980998992919921875</LatitudeDegrees>
              <LongitudeDegrees>-3.9172909967601299285888671875</LongitudeDegrees>
            </Position>
            <AltitudeMeters>920</AltitudeMeters>
            <DistanceMeters>NAN</DistanceMeters>
          </Trackpoint>
          <Trackpoint>
            <Time>2020-03-07T16:38:49.000Z</Time>
            <Position>
              <LatitudeDegrees>40.7062232494354248046875</LatitudeDegrees>
              <LongitudeDegrees>-3.9173654280602931976318359375</LongitudeDegrees>
            </Position>
            <AltitudeMeters>920</AltitudeMeters>
            <DistanceMeters>NAN</DistanceMeters>
          </Trackpoint>
          <Trackpoint>
            <Time>2020-03-07T16:38:50.000Z</Time>
            <Position>
              <LatitudeDegrees>40.70618745870888233184814453125</LatitudeDegrees>
              <LongitudeDegrees>-3.9174400269985198974609375</LongitudeDegrees>
            </Position>
            <AltitudeMeters>920.20001220703125</AltitudeMeters>
            <DistanceMeters>NAN</DistanceMeters>
          </Trackpoint>
          <Trackpoint>
            <Time>2020-03-07T16:38:51.000Z</Time>
            <Position>
              <LatitudeDegrees>40.70615326054394245147705078125</LatitudeDegrees>
              <LongitudeDegrees>-3.9175146259367465972900390625</LongitudeDegrees>
            </Position>
            <AltitudeMeters>920.20001220703125</AltitudeMeters>
            <DistanceMeters>NAN</DistanceMeters>
          </Trackpoint>
          <Trackpoint>
            <Time>2020-03-07T16:38:52.000Z</Time>
            <Position>
              <LatitudeDegrees>40.70611839182674884796142578125</LatitudeDegrees>
              <LongitudeDegrees>-3.917587883770465850830078125</LongitudeDegrees>
            </Position>
            <AltitudeMeters>920.20001220703125</AltitudeMeters>
            <DistanceMeters>NAN</DistanceMeters>
          </Trackpoint>
          <Trackpoint>
            <Time>2020-03-07T16:38:53.000Z</Time>
            <Position>
              <LatitudeDegrees>40.70608369074761867523193359375</LatitudeDegrees>
              <LongitudeDegrees>-3.91766089014708995819091796875</LongitudeDegrees>
            </Position>
            <AltitudeMeters>920.20001220703125</AltitudeMeters>
            <DistanceMeters>NAN</DistanceMeters>
          </Trackpoint>
          <Trackpoint>
            <Time>2020-03-07T16:38:54.000Z</Time>
            <Position>
              <LatitudeDegrees>40.70605016313493251800537109375</LatitudeDegrees>
              <LongitudeDegrees>-3.91773439943790435791015625</LongitudeDegrees>
            </Position>
            <AltitudeMeters>920.20001220703125</AltitudeMeters>
            <DistanceMeters>NAN</DistanceMeters>
          </Trackpoint>
          <Trackpoint>
            <Time>2020-03-07T16:38:55.000Z</Time>
            <Position>
              <LatitudeDegrees>40.7060162164270877838134765625</LatitudeDegrees>
              <LongitudeDegrees>-3.9178069867193698883056640625</LongitudeDegrees>
            </Position>
            <AltitudeMeters>920.20001220703125</AltitudeMeters>
            <DistanceMeters>NAN</DistanceMeters>
          </Trackpoint>
          <Trackpoint>
            <Time>2020-03-07T16:38:56.000Z</Time>
            <Position>
              <LatitudeDegrees>40.7059826888144016265869140625</LatitudeDegrees>
              <LongitudeDegrees>-3.91787781380116939544677734375</LongitudeDegrees>
            </Position>
            <AltitudeMeters>920.20001220703125</AltitudeMeters>
            <DistanceMeters>NAN</DistanceMeters>
          </Trackpoint>
          <Trackpoint>
            <Time>2020-03-07T16:38:57.000Z</Time>
            <Position>
              <LatitudeDegrees>40.70595041848719120025634765625</LatitudeDegrees>
              <LongitudeDegrees>-3.91794905997812747955322265625</LongitudeDegrees>
            </Position>
            <AltitudeMeters>920.20001220703125</AltitudeMeters>
            <DistanceMeters>NAN</DistanceMeters>
          </Trackpoint>
          <Trackpoint>
            <Time>2020-03-07T16:38:58.000Z</Time>
            <Position>
              <LatitudeDegrees>40.70591806434094905853271484375</LatitudeDegrees>
              <LongitudeDegrees>-3.918019048869609832763671875</LongitudeDegrees>
            </Position>
            <AltitudeMeters>920.20001220703125</AltitudeMeters>
            <DistanceMeters>NAN</DistanceMeters>
          </Trackpoint>
          <Trackpoint>
            <Time>2020-03-07T16:38:59.000Z</Time>
            <Position>
              <LatitudeDegrees>40.70588604547083377838134765625</LatitudeDegrees>
              <LongitudeDegrees>-3.91808853484690189361572265625</LongitudeDegrees>
            </Position>
            <AltitudeMeters>920.20001220703125</AltitudeMeters>
            <DistanceMeters>NAN</DistanceMeters>
          </Trackpoint>
          <Trackpoint>
            <Time>2020-03-07T16:39:00.000Z</Time>
            <Position>
              <LatitudeDegrees>40.70585436187684535980224609375</LatitudeDegrees>
              <LongitudeDegrees>-3.918157517910003662109375</LongitudeDegrees>
            </Position>
            <AltitudeMeters>920.20001220703125</AltitudeMeters>
            <DistanceMeters>NAN</DistanceMeters>
          </Trackpoint>
          <Trackpoint>
            <Time>2020-03-07T16:39:01.000Z</Time>
            <Position>
              <LatitudeDegrees>40.70582251064479351043701171875</LatitudeDegrees>
              <LongitudeDegrees>-3.918225578963756561279296875</LongitudeDegrees>
            </Position>
            <AltitudeMeters>920.4000244140625</AltitudeMeters>
            <DistanceMeters>NAN</DistanceMeters>
          </Trackpoint>
          <Trackpoint>
            <Time>2020-03-07T16:39:02.000Z</Time>
            <Position>
              <LatitudeDegrees>40.7057902403175830841064453125</LatitudeDegrees>
              <LongitudeDegrees>-3.91829322092235088348388671875</LongitudeDegrees>
            </Position>
            <AltitudeMeters>920.4000244140625</AltitudeMeters>
            <DistanceMeters>NAN</DistanceMeters>
          </Trackpoint>
          <Trackpoint>
            <Time>2020-03-07T16:39:03.000Z</Time>
            <Position>
              <LatitudeDegrees>40.70575864054262638092041015625</LatitudeDegrees>
              <LongitudeDegrees>-3.91836069524288177490234375</LongitudeDegrees>
            </Position>
            <AltitudeMeters>920.4000244140625</AltitudeMeters>
            <DistanceMeters>NAN</DistanceMeters>
          </Trackpoint>
          <Trackpoint>
            <Time>2020-03-07T16:39:04.000Z</Time>
            <Position>
              <LatitudeDegrees>40.70572771131992340087890625</LatitudeDegrees>
              <LongitudeDegrees>-3.9184282533824443817138671875</LongitudeDegrees>
            </Position>
            <AltitudeMeters>920.4000244140625</AltitudeMeters>
            <DistanceMeters>NAN</DistanceMeters>
          </Trackpoint>
          <Trackpoint>
            <Time>2020-03-07T16:39:05.000Z</Time>
            <Position>
              <LatitudeDegrees>40.70569686591625213623046875</LatitudeDegrees>
              <LongitudeDegrees>-3.918495476245880126953125</LongitudeDegrees>
            </Position>
            <AltitudeMeters>920.4000244140625</AltitudeMeters>
            <DistanceMeters>NAN</DistanceMeters>
          </Trackpoint>
          <Trackpoint>
            <Time>2020-03-07T16:39:06.000Z</Time>
            <Position>
              <LatitudeDegrees>40.70566576905548572540283203125</LatitudeDegrees>
              <LongitudeDegrees>-3.9185623638331890106201171875</LongitudeDegrees>
            </Position>
            <AltitudeMeters>920.4000244140625</AltitudeMeters>
            <DistanceMeters>NAN</DistanceMeters>
          </Trackpoint>
          <Trackpoint>
            <Time>2020-03-07T16:39:07.000Z</Time>
            <Position>
              <LatitudeDegrees>40.7056345045566558837890625</LatitudeDegrees>
              <LongitudeDegrees>-3.9186290837824344635009765625</LongitudeDegrees>
            </Position>
            <AltitudeMeters>920.5999755859375</AltitudeMeters>
            <DistanceMeters>NAN</DistanceMeters>
          </Trackpoint>
          <Trackpoint>
            <Time>2020-03-07T16:39:08.000Z</Time>
            <Position>
              <LatitudeDegrees>40.70560324005782604217529296875</LatitudeDegrees>
              <LongitudeDegrees>-3.9186964742839336395263671875</LongitudeDegrees>
            </Position>
            <AltitudeMeters>920.79998779296875</AltitudeMeters>
            <DistanceMeters>NAN</DistanceMeters>
          </Trackpoint>
          <Trackpoint>
            <Time>2020-03-07T16:39:09.000Z</Time>
            <Position>
              <LatitudeDegrees>40.705572478473186492919921875</LatitudeDegrees>
              <LongitudeDegrees>-3.91876461915671825408935546875</LongitudeDegrees>
            </Position>
            <AltitudeMeters>920.79998779296875</AltitudeMeters>
            <DistanceMeters>NAN</DistanceMeters>
          </Trackpoint>
          <Trackpoint>
            <Time>2020-03-07T16:39:10.000Z</Time>
            <Position>
              <LatitudeDegrees>40.705542303621768951416015625</LatitudeDegrees>
              <LongitudeDegrees>-3.91883318312466144561767578125</LongitudeDegrees>
            </Position>
            <AltitudeMeters>921</AltitudeMeters>
            <DistanceMeters>NAN</DistanceMeters>
          </Trackpoint>
          <Trackpoint>
            <Time>2020-03-07T16:39:11.000Z</Time>
            <Position>
              <LatitudeDegrees>40.7055116258561611175537109375</LatitudeDegrees>
              <LongitudeDegrees>-3.91890107654035091400146484375</LongitudeDegrees>
            </Position>
            <AltitudeMeters>921.20001220703125</AltitudeMeters>
            <DistanceMeters>NAN</DistanceMeters>
          </Trackpoint>
          <Trackpoint>
            <Time>2020-03-07T16:39:12.000Z</Time>
            <Position>
              <LatitudeDegrees>40.70547918789088726043701171875</LatitudeDegrees>
              <LongitudeDegrees>-3.918967545032501220703125</LongitudeDegrees>
            </Position>
            <AltitudeMeters>921.20001220703125</AltitudeMeters>
            <DistanceMeters>NAN</DistanceMeters>
          </Trackpoint>
          <Trackpoint>
            <Time>2020-03-07T16:39:13.000Z</Time>
            <Position>
              <LatitudeDegrees>40.70544700138270854949951171875</LatitudeDegrees>
              <LongitudeDegrees>-3.91903501935303211212158203125</LongitudeDegrees>
            </Position>
            <AltitudeMeters>921.20001220703125</AltitudeMeters>
            <DistanceMeters>NAN</DistanceMeters>
          </Trackpoint>
          <Trackpoint>
            <Time>2020-03-07T16:39:14.000Z</Time>
            <Position>
              <LatitudeDegrees>40.705415569245815277099609375</LatitudeDegrees>
              <LongitudeDegrees>-3.91910324804484844207763671875</LongitudeDegrees>
            </Position>
            <AltitudeMeters>921.4000244140625</AltitudeMeters>
            <DistanceMeters>NAN</DistanceMeters>
          </Trackpoint>
          <Trackpoint>
            <Time>2020-03-07T16:39:15.000Z</Time>
            <Position>
              <LatitudeDegrees>40.70538430474698543548583984375</LatitudeDegrees>
              <LongitudeDegrees>-3.919171392917633056640625</LongitudeDegrees>
            </Position>
            <AltitudeMeters>921.4000244140625</AltitudeMeters>
            <DistanceMeters>NAN</DistanceMeters>
          </Trackpoint>
          <Trackpoint>
            <Time>2020-03-07T16:39:16.000Z</Time>
            <Position>
              <LatitudeDegrees>40.70535220205783843994140625</LatitudeDegrees>
              <LongitudeDegrees>-3.91923869960010051727294921875</LongitudeDegrees>
            </Position>
            <AltitudeMeters>921.4000244140625</AltitudeMeters>
            <DistanceMeters>NAN</DistanceMeters>
          </Trackpoint>
          <Trackpoint>
            <Time>2020-03-07T16:39:17.000Z</Time>
            <Position>
              <LatitudeDegrees>40.70532009936869144439697265625</LatitudeDegrees>
              <LongitudeDegrees>-3.91930541954934597015380859375</LongitudeDegrees>
            </Position>
            <AltitudeMeters>921.4000244140625</AltitudeMeters>
            <DistanceMeters>NAN</DistanceMeters>
          </Trackpoint>
          <Trackpoint>
            <Time>2020-03-07T16:39:18.000Z</Time>
            <Position>
              <LatitudeDegrees>40.70528657175600528717041015625</LatitudeDegrees>
              <LongitudeDegrees>-3.91936996020376682281494140625</LongitudeDegrees>
            </Position>
            <AltitudeMeters>921.4000244140625</AltitudeMeters>
            <DistanceMeters>NAN</DistanceMeters>
          </Trackpoint>
          <Trackpoint>
            <Time>2020-03-07T16:39:19.000Z</Time>
            <Position>
              <LatitudeDegrees>40.7052527926862239837646484375</LatitudeDegrees>
              <LongitudeDegrees>-3.91943357884883880615234375</LongitudeDegrees>
            </Position>
            <AltitudeMeters>921.4000244140625</AltitudeMeters>
            <DistanceMeters>NAN</DistanceMeters>
          </Trackpoint>
          <Trackpoint>
            <Time>2020-03-07T16:39:20.000Z</Time>
            <Position>
              <LatitudeDegrees>40.70521985180675983428955078125</LatitudeDegrees>
              <LongitudeDegrees>-3.91949786804616451263427734375</LongitudeDegrees>
            </Position>
            <AltitudeMeters>921.4000244140625</AltitudeMeters>
            <DistanceMeters>NAN</DistanceMeters>
          </Trackpoint>
          <Trackpoint>
            <Time>2020-03-07T16:39:21.000Z</Time>
            <Position>
              <LatitudeDegrees>40.70518548600375652313232421875</LatitudeDegrees>
              <LongitudeDegrees>-3.91956140287220478057861328125</LongitudeDegrees>
            </Position>
            <AltitudeMeters>921.4000244140625</AltitudeMeters>
            <DistanceMeters>NAN</DistanceMeters>
          </Trackpoint>
          <Trackpoint>
            <Time>2020-03-07T16:39:22.000Z</Time>
            <Position>
              <LatitudeDegrees>40.70514969527721405029296875</LatitudeDegrees>
              <LongitudeDegrees>-3.91962359659373760223388671875</LongitudeDegrees>
            </Position>
            <AltitudeMeters>921.4000244140625</AltitudeMeters>
            <DistanceMeters>NAN</DistanceMeters>
          </Trackpoint>
          <Trackpoint>
            <Time>2020-03-07T16:39:23.000Z</Time>
            <Position>
              <LatitudeDegrees>40.7051129825413227081298828125</LatitudeDegrees>
              <LongitudeDegrees>-3.9196858741343021392822265625</LongitudeDegrees>
            </Position>
            <AltitudeMeters>921.4000244140625</AltitudeMeters>
            <DistanceMeters>NAN</DistanceMeters>
          </Trackpoint>
          <Trackpoint>
            <Time>2020-03-07T16:39:24.000Z</Time>
            <Position>
              <LatitudeDegrees>40.70507652126252651214599609375</LatitudeDegrees>
              <LongitudeDegrees>-3.9197495765984058380126953125</LongitudeDegrees>
            </Position>
            <AltitudeMeters>921.4000244140625</AltitudeMeters>
            <DistanceMeters>NAN</DistanceMeters>
          </Trackpoint>
          <Trackpoint>
            <Time>2020-03-07T16:39:25.000Z</Time>
            <Position>
              <LatitudeDegrees>40.705038048326969146728515625</LatitudeDegrees>
              <LongitudeDegrees>-3.9198110997676849365234375</LongitudeDegrees>
            </Position>
            <AltitudeMeters>921.5999755859375</AltitudeMeters>
            <DistanceMeters>NAN</DistanceMeters>
          </Trackpoint>
          <Trackpoint>
            <Time>2020-03-07T16:39:26.000Z</Time>
            <Position>
              <LatitudeDegrees>40.70499680936336517333984375</LatitudeDegrees>
              <LongitudeDegrees>-3.91986885108053684234619140625</LongitudeDegrees>
            </Position>
            <AltitudeMeters>921.5999755859375</AltitudeMeters>
            <DistanceMeters>NAN</DistanceMeters>
          </Trackpoint>
          <Trackpoint>
            <Time>2020-03-07T16:39:27.000Z</Time>
            <Position>
              <LatitudeDegrees>40.70495431311428546905517578125</LatitudeDegrees>
              <LongitudeDegrees>-3.91992417164146900177001953125</LongitudeDegrees>
            </Position>
            <AltitudeMeters>921.5999755859375</AltitudeMeters>
            <DistanceMeters>NAN</DistanceMeters>
          </Trackpoint>
          <Trackpoint>
            <Time>2020-03-07T16:39:28.000Z</Time>
            <Position>
              <LatitudeDegrees>40.70491055957973003387451171875</LatitudeDegrees>
              <LongitudeDegrees>-3.91997798345983028411865234375</LongitudeDegrees>
            </Position>
            <AltitudeMeters>921.79998779296875</AltitudeMeters>
            <DistanceMeters>NAN</DistanceMeters>
          </Trackpoint>
          <Trackpoint>
            <Time>2020-03-07T16:39:29.000Z</Time>
            <Position>
              <LatitudeDegrees>40.70486580021679401397705078125</LatitudeDegrees>
              <LongitudeDegrees>-3.92003112472593784332275390625</LongitudeDegrees>
            </Position>
            <AltitudeMeters>921.79998779296875</AltitudeMeters>
            <DistanceMeters>NAN</DistanceMeters>
          </Trackpoint>
          <Trackpoint>
            <Time>2020-03-07T16:39:30.000Z</Time>
            <Position>
              <LatitudeDegrees>40.70482037030160427093505859375</LatitudeDegrees>
              <LongitudeDegrees>-3.920083008706569671630859375</LongitudeDegrees>
            </Position>
            <AltitudeMeters>922</AltitudeMeters>
            <DistanceMeters>NAN</DistanceMeters>
          </Trackpoint>
          <Trackpoint>
            <Time>2020-03-07T16:39:31.000Z</Time>
            <Position>
              <LatitudeDegrees>40.7047740183770656585693359375</LatitudeDegrees>
              <LongitudeDegrees>-3.92013472504913806915283203125</LongitudeDegrees>
            </Position>
            <AltitudeMeters>922</AltitudeMeters>
            <DistanceMeters>NAN</DistanceMeters>
          </Trackpoint>
          <Trackpoint>
            <Time>2020-03-07T16:39:32.000Z</Time>
            <Position>
              <LatitudeDegrees>40.704727582633495330810546875</LatitudeDegrees>
              <LongitudeDegrees>-3.920186273753643035888671875</LongitudeDegrees>
            </Position>
            <AltitudeMeters>922</AltitudeMeters>
            <DistanceMeters>NAN</DistanceMeters>
          </Trackpoint>
          <Trackpoint>
            <Time>2020-03-07T16:39:33.000Z</Time>
            <Position>
              <LatitudeDegrees>40.7046804763376712799072265625</LatitudeDegrees>
              <LongitudeDegrees>-3.92023664899170398712158203125</LongitudeDegrees>
            </Position>
            <AltitudeMeters>922.20001220703125</AltitudeMeters>
            <DistanceMeters>NAN</DistanceMeters>
          </Trackpoint>
          <Trackpoint>
            <Time>2020-03-07T16:39:34.000Z</Time>
            <Position>
              <LatitudeDegrees>40.70463311858475208282470703125</LatitudeDegrees>
              <LongitudeDegrees>-3.92028643749654293060302734375</LongitudeDegrees>
            </Position>
            <AltitudeMeters>922.20001220703125</AltitudeMeters>
            <DistanceMeters>NAN</DistanceMeters>
          </Trackpoint>
          <Trackpoint>
            <Time>2020-03-07T16:39:35.000Z</Time>
            <Position>
              <LatitudeDegrees>40.70458500646054744720458984375</LatitudeDegrees>
              <LongitudeDegrees>-3.92033505253493785858154296875</LongitudeDegrees>
            </Position>
            <AltitudeMeters>922.4000244140625</AltitudeMeters>
            <DistanceMeters>NAN</DistanceMeters>
          </Trackpoint>
          <Trackpoint>
            <Time>2020-03-07T16:39:36.000Z</Time>
            <Position>
              <LatitudeDegrees>40.70453722961246967315673828125</LatitudeDegrees>
              <LongitudeDegrees>-3.9203832484781742095947265625</LongitudeDegrees>
            </Position>
            <AltitudeMeters>922.4000244140625</AltitudeMeters>
            <DistanceMeters>NAN</DistanceMeters>
          </Trackpoint>
          <Trackpoint>
            <Time>2020-03-07T16:39:37.000Z</Time>
            <Position>
              <LatitudeDegrees>40.704489536583423614501953125</LatitudeDegrees>
              <LongitudeDegrees>-3.92043177969753742218017578125</LongitudeDegrees>
            </Position>
            <AltitudeMeters>922.4000244140625</AltitudeMeters>
            <DistanceMeters>NAN</DistanceMeters>
          </Trackpoint>
          <Trackpoint>
            <Time>2020-03-07T16:39:38.000Z</Time>
            <Position>
              <LatitudeDegrees>40.70444234646856784820556640625</LatitudeDegrees>
              <LongitudeDegrees>-3.9204798080027103424072265625</LongitudeDegrees>
            </Position>
            <AltitudeMeters>922.5999755859375</AltitudeMeters>
            <DistanceMeters>NAN</DistanceMeters>
          </Trackpoint>
          <Trackpoint>
            <Time>2020-03-07T16:39:39.000Z</Time>
            <Position>
              <LatitudeDegrees>40.70439540781080722808837890625</LatitudeDegrees>
              <LongitudeDegrees>-3.9205277524888515472412109375</LongitudeDegrees>
            </Position>
            <AltitudeMeters>922.79998779296875</AltitudeMeters>
            <DistanceMeters>NAN</DistanceMeters>
          </Trackpoint>
          <Trackpoint>
            <Time>2020-03-07T16:39:40.000Z</Time>
            <Position>
              <LatitudeDegrees>40.7043492235243320465087890625</LatitudeDegrees>
              <LongitudeDegrees>-3.920576870441436767578125</LongitudeDegrees>
            </Position>
            <AltitudeMeters>922.79998779296875</AltitudeMeters>
            <DistanceMeters>NAN</DistanceMeters>
          </Trackpoint>
          <Trackpoint>
            <Time>2020-03-07T16:39:41.000Z</Time>
            <Position>
              <LatitudeDegrees>40.70430337451398372650146484375</LatitudeDegrees>
              <LongitudeDegrees>-3.9206263236701488494873046875</LongitudeDegrees>
            </Position>
            <AltitudeMeters>923</AltitudeMeters>
            <DistanceMeters>NAN</DistanceMeters>
          </Trackpoint>
          <Trackpoint>
            <Time>2020-03-07T16:39:42.000Z</Time>
            <Position>
              <LatitudeDegrees>40.70425727404654026031494140625</LatitudeDegrees>
              <LongitudeDegrees>-3.9206747710704803466796875</LongitudeDegrees>
            </Position>
            <AltitudeMeters>923</AltitudeMeters>
            <DistanceMeters>NAN</DistanceMeters>
          </Trackpoint>
          <Trackpoint>
            <Time>2020-03-07T16:39:43.000Z</Time>
            <Position>
              <LatitudeDegrees>40.7042110897600650787353515625</LatitudeDegrees>
              <LongitudeDegrees>-3.920722045004367828369140625</LongitudeDegrees>
            </Position>
            <AltitudeMeters>923.20001220703125</AltitudeMeters>
            <DistanceMeters>NAN</DistanceMeters>
          </Trackpoint>
          <Trackpoint>
            <Time>2020-03-07T16:39:44.000Z</Time>
            <Position>
              <LatitudeDegrees>40.7041646540164947509765625</LatitudeDegrees>
              <LongitudeDegrees>-3.92076772637665271759033203125</LongitudeDegrees>
            </Position>
            <AltitudeMeters>923.5999755859375</AltitudeMeters>
            <DistanceMeters>NAN</DistanceMeters>
          </Trackpoint>
          <Trackpoint>
            <Time>2020-03-07T16:39:45.000Z</Time>
            <Position>
              <LatitudeDegrees>40.704118721187114715576171875</LatitudeDegrees>
              <LongitudeDegrees>-3.92081349156796932220458984375</LongitudeDegrees>
            </Position>
            <AltitudeMeters>923.79998779296875</AltitudeMeters>
            <DistanceMeters>NAN</DistanceMeters>
          </Trackpoint>
          <Trackpoint>
            <Time>2020-03-07T16:39:46.000Z</Time>
            <Position>
              <LatitudeDegrees>40.70407320745289325714111328125</LatitudeDegrees>
              <LongitudeDegrees>-3.92085942439734935760498046875</LongitudeDegrees>
            </Position>
            <AltitudeMeters>924</AltitudeMeters>
            <DistanceMeters>NAN</DistanceMeters>
          </Trackpoint>
          <Trackpoint>
            <Time>2020-03-07T16:39:47.000Z</Time>
            <Position>
              <LatitudeDegrees>40.70402861572802066802978515625</LatitudeDegrees>
              <LongitudeDegrees>-3.9209059439599514007568359375</LongitudeDegrees>
            </Position>
            <AltitudeMeters>924</AltitudeMeters>
            <DistanceMeters>NAN</DistanceMeters>
          </Trackpoint>
          <Trackpoint>
            <Time>2020-03-07T16:39:48.000Z</Time>
            <Position>
              <LatitudeDegrees>40.70398402400314807891845703125</LatitudeDegrees>
              <LongitudeDegrees>-3.92095129005610942840576171875</LongitudeDegrees>
            </Position>
            <AltitudeMeters>924.4000244140625</AltitudeMeters>
            <DistanceMeters>NAN</DistanceMeters>
          </Trackpoint>
          <Trackpoint>
            <Time>2020-03-07T16:39:49.000Z</Time>
            <Position>
              <LatitudeDegrees>40.7039393484592437744140625</LatitudeDegrees>
              <LongitudeDegrees>-3.92099588178098201751708984375</LongitudeDegrees>
            </Position>
            <AltitudeMeters>924.4000244140625</AltitudeMeters>
            <DistanceMeters>NAN</DistanceMeters>
          </Trackpoint>
          <Trackpoint>
            <Time>2020-03-07T16:39:50.000Z</Time>
            <Position>
              <LatitudeDegrees>40.70389500819146633148193359375</LatitudeDegrees>
              <LongitudeDegrees>-3.92104064114391803741455078125</LongitudeDegrees>
            </Position>
            <AltitudeMeters>924.5999755859375</AltitudeMeters>
            <DistanceMeters>NAN</DistanceMeters>
          </Trackpoint>
          <Trackpoint>
            <Time>2020-03-07T16:39:51.000Z</Time>
            <Position>
              <LatitudeDegrees>40.7038516737520694732666015625</LatitudeDegrees>
              <LongitudeDegrees>-3.9210856519639492034912109375</LongitudeDegrees>
            </Position>
            <AltitudeMeters>924.79998779296875</AltitudeMeters>
            <DistanceMeters>NAN</DistanceMeters>
          </Trackpoint>
          <Trackpoint>
            <Time>2020-03-07T16:39:52.000Z</Time>
            <Position>
              <LatitudeDegrees>40.70380783639848232269287109375</LatitudeDegrees>
              <LongitudeDegrees>-3.92112982459366321563720703125</LongitudeDegrees>
            </Position>
            <AltitudeMeters>924.79998779296875</AltitudeMeters>
            <DistanceMeters>NAN</DistanceMeters>
          </Trackpoint>
          <Trackpoint>
            <Time>2020-03-07T16:39:53.000Z</Time>
            <Position>
              <LatitudeDegrees>40.70376391522586345672607421875</LatitudeDegrees>
              <LongitudeDegrees>-3.92117357812821865081787109375</LongitudeDegrees>
            </Position>
            <AltitudeMeters>925</AltitudeMeters>
            <DistanceMeters>NAN</DistanceMeters>
          </Trackpoint>
          <Trackpoint>
            <Time>2020-03-07T16:39:54.000Z</Time>
            <Position>
              <LatitudeDegrees>40.70371982641518115997314453125</LatitudeDegrees>
              <LongitudeDegrees>-3.92121599055826663970947265625</LongitudeDegrees>
            </Position>
            <AltitudeMeters>925</AltitudeMeters>
            <DistanceMeters>NAN</DistanceMeters>
          </Trackpoint>
          <Trackpoint>
            <Time>2020-03-07T16:39:55.000Z</Time>
            <Position>
              <LatitudeDegrees>40.7036769948899745941162109375</LatitudeDegrees>
              <LongitudeDegrees>-3.92125924117863178253173828125</LongitudeDegrees>
            </Position>
            <AltitudeMeters>925</AltitudeMeters>
            <DistanceMeters>NAN</DistanceMeters>
          </Trackpoint>
          <Trackpoint>
            <Time>2020-03-07T16:39:56.000Z</Time>
            <Position>
              <LatitudeDegrees>40.70363533683121204376220703125</LatitudeDegrees>
              <LongitudeDegrees>-3.92130416817963123321533203125</LongitudeDegrees>
            </Position>
            <AltitudeMeters>925.4000244140625</AltitudeMeters>
            <DistanceMeters>NAN</DistanceMeters>
          </Trackpoint>
          <Trackpoint>
            <Time>2020-03-07T16:39:57.000Z</Time>
            <Position>
              <LatitudeDegrees>40.70359325967729091644287109375</LatitudeDegrees>
              <LongitudeDegrees>-3.92134842462837696075439453125</LongitudeDegrees>
            </Position>
            <AltitudeMeters>925.4000244140625</AltitudeMeters>
            <DistanceMeters>NAN</DistanceMeters>
          </Trackpoint>
          <Trackpoint>
            <Time>2020-03-07T16:39:58.000Z</Time>
            <Position>
              <LatitudeDegrees>40.7035509310662746429443359375</LatitudeDegrees>
              <LongitudeDegrees>-3.92139293253421783447265625</LongitudeDegrees>
            </Position>
            <AltitudeMeters>925.5999755859375</AltitudeMeters>
            <DistanceMeters>NAN</DistanceMeters>
          </Trackpoint>
          <Trackpoint>
            <Time>2020-03-07T16:39:59.000Z</Time>
            <Position>
              <LatitudeDegrees>40.70350927300751209259033203125</LatitudeDegrees>
              <LongitudeDegrees>-3.9214397035539150238037109375</LongitudeDegrees>
            </Position>
            <AltitudeMeters>925.5999755859375</AltitudeMeters>
            <DistanceMeters>NAN</DistanceMeters>
          </Trackpoint>
          <Trackpoint>
            <Time>2020-03-07T16:40:00.000Z</Time>
            <Position>
              <LatitudeDegrees>40.703468285501003265380859375</LatitudeDegrees>
              <LongitudeDegrees>-3.9214869774878025054931640625</LongitudeDegrees>
            </Position>
            <AltitudeMeters>925.5999755859375</AltitudeMeters>
            <DistanceMeters>NAN</DistanceMeters>
          </Trackpoint>
          <Trackpoint>
            <Time>2020-03-07T16:40:01.000Z</Time>
            <Position>
              <LatitudeDegrees>40.7034270465373992919921875</LatitudeDegrees>
              <LongitudeDegrees>-3.92153399996459484100341796875</LongitudeDegrees>
            </Position>
            <AltitudeMeters>925.5999755859375</AltitudeMeters>
            <DistanceMeters>NAN</DistanceMeters>
          </Trackpoint>
          <Trackpoint>
            <Time>2020-03-07T16:40:02.000Z</Time>
            <Position>
              <LatitudeDegrees>40.70338547229766845703125</LatitudeDegrees>
              <LongitudeDegrees>-3.92158110626041889190673828125</LongitudeDegrees>
            </Position>
            <AltitudeMeters>925.5999755859375</AltitudeMeters>
            <DistanceMeters>NAN</DistanceMeters>
          </Trackpoint>
          <Trackpoint>
            <Time>2020-03-07T16:40:03.000Z</Time>
            <Position>
              <LatitudeDegrees>40.7033447362482547760009765625</LatitudeDegrees>
              <LongitudeDegrees>-3.9216298051178455352783203125</LongitudeDegrees>
            </Position>
            <AltitudeMeters>925.79998779296875</AltitudeMeters>
            <DistanceMeters>NAN</DistanceMeters>
          </Trackpoint>
          <Trackpoint>
            <Time>2020-03-07T16:40:04.000Z</Time>
            <Position>
              <LatitudeDegrees>40.7033447362482547760009765625</LatitudeDegrees>
              <LongitudeDegrees>-3.9216298051178455352783203125</LongitudeDegrees>
            </Position>
            <AltitudeMeters>926</AltitudeMeters>
            <DistanceMeters>NAN</DistanceMeters>
          </Trackpoint>
          <Trackpoint>
            <Time>2020-03-07T16:40:05.000Z</Time>
            <Position>
              <LatitudeDegrees>40.70330475457012653350830078125</LatitudeDegrees>
              <LongitudeDegrees>-3.9216807670891284942626953125</LongitudeDegrees>
            </Position>
            <AltitudeMeters>926.20001220703125</AltitudeMeters>
            <DistanceMeters>NAN</DistanceMeters>
          </Trackpoint>
          <Trackpoint>
            <Time>2020-03-07T16:40:06.000Z</Time>
            <Position>
              <LatitudeDegrees>40.70326502434909343719482421875</LatitudeDegrees>
              <LongitudeDegrees>-3.92173030413687229156494140625</LongitudeDegrees>
            </Position>
            <AltitudeMeters>926.4000244140625</AltitudeMeters>
            <DistanceMeters>NAN</DistanceMeters>
          </Trackpoint>
          <Trackpoint>
            <Time>2020-03-07T16:40:07.000Z</Time>
            <Position>
              <LatitudeDegrees>40.70322462357580661773681640625</LatitudeDegrees>
              <LongitudeDegrees>-3.92177858389914035797119140625</LongitudeDegrees>
            </Position>
            <AltitudeMeters>926.5999755859375</AltitudeMeters>
            <DistanceMeters>NAN</DistanceMeters>
          </Trackpoint>
          <Trackpoint>
            <Time>2020-03-07T16:40:08.000Z</Time>
            <Position>
              <LatitudeDegrees>40.70318589918315410614013671875</LatitudeDegrees>
              <LongitudeDegrees>-3.92183013260364532470703125</LongitudeDegrees>
            </Position>
            <AltitudeMeters>927</AltitudeMeters>
            <DistanceMeters>NAN</DistanceMeters>
          </Trackpoint>
          <Trackpoint>
            <Time>2020-03-07T16:40:09.000Z</Time>
            <Position>
              <LatitudeDegrees>40.70311381481587886810302734375</LatitudeDegrees>
              <LongitudeDegrees>-3.921943791210651397705078125</LongitudeDegrees>
            </Position>
            <AltitudeMeters>927.20001220703125</AltitudeMeters>
            <DistanceMeters>NAN</DistanceMeters>
          </Trackpoint>
          <Trackpoint>
            <Time>2020-03-07T16:40:10.000Z</Time>
            <Position>
              <LatitudeDegrees>40.7030798681080341339111328125</LatitudeDegrees>
              <LongitudeDegrees>-3.922003805637359619140625</LongitudeDegrees>
            </Position>
            <AltitudeMeters>927.4000244140625</AltitudeMeters>
            <DistanceMeters>NAN</DistanceMeters>
          </Trackpoint>
          <Trackpoint>
            <Time>2020-03-07T16:40:11.000Z</Time>
            <Position>
              <LatitudeDegrees>40.7030473463237285614013671875</LatitudeDegrees>
              <LongitudeDegrees>-3.92206482589244842529296875</LongitudeDegrees>
            </Position>
            <AltitudeMeters>927.4000244140625</AltitudeMeters>
            <DistanceMeters>NAN</DistanceMeters>
          </Trackpoint>
          <Trackpoint>
            <Time>2020-03-07T16:40:12.000Z</Time>
            <Position>
              <LatitudeDegrees>40.7030161656439304351806640625</LatitudeDegrees>
              <LongitudeDegrees>-3.922126181423664093017578125</LongitudeDegrees>
            </Position>
            <AltitudeMeters>927.5999755859375</AltitudeMeters>
            <DistanceMeters>NAN</DistanceMeters>
          </Trackpoint>
          <Trackpoint>
            <Time>2020-03-07T16:40:13.000Z</Time>
            <Position>
              <LatitudeDegrees>40.7029859907925128936767578125</LatitudeDegrees>
              <LongitudeDegrees>-3.9221883751451969146728515625</LongitudeDegrees>
            </Position>
            <AltitudeMeters>927.5999755859375</AltitudeMeters>
            <DistanceMeters>NAN</DistanceMeters>
          </Trackpoint>
          <Trackpoint>
            <Time>2020-03-07T16:40:14.000Z</Time>
            <Position>
              <LatitudeDegrees>40.7029859907925128936767578125</LatitudeDegrees>
              <LongitudeDegrees>-3.9221883751451969146728515625</LongitudeDegrees>
            </Position>
            <AltitudeMeters>927.5999755859375</AltitudeMeters>
            <DistanceMeters>NAN</DistanceMeters>
          </Trackpoint>
          <Trackpoint>
            <Time>2020-03-07T16:40:15.000Z</Time>
            <Position>
              <LatitudeDegrees>40.70292857475578784942626953125</LatitudeDegrees>
              <LongitudeDegrees>-3.922314606606960296630859375</LongitudeDegrees>
            </Position>
            <AltitudeMeters>927.79998779296875</AltitudeMeters>
            <DistanceMeters>NAN</DistanceMeters>
          </Trackpoint>
          <Trackpoint>
            <Time>2020-03-07T16:40:16.000Z</Time>
            <Position>
              <LatitudeDegrees>40.7029011659324169158935546875</LatitudeDegrees>
              <LongitudeDegrees>-3.92237864434719085693359375</LongitudeDegrees>
            </Position>
            <AltitudeMeters>927.79998779296875</AltitudeMeters>
            <DistanceMeters>NAN</DistanceMeters>
          </Trackpoint>
          <Trackpoint>
            <Time>2020-03-07T16:40:17.000Z</Time>
            <Position>
              <LatitudeDegrees>40.70287409238517284393310546875</LatitudeDegrees>
              <LongitudeDegrees>-3.92244310118257999420166015625</LongitudeDegrees>
            </Position>
            <AltitudeMeters>928</AltitudeMeters>
            <DistanceMeters>NAN</DistanceMeters>
          </Trackpoint>
          <Trackpoint>
            <Time>2020-03-07T16:40:18.000Z</Time>
            <Position>
              <LatitudeDegrees>40.70284777320921421051025390625</LatitudeDegrees>
              <LongitudeDegrees>-3.92250747419893741607666015625</LongitudeDegrees>
            </Position>
            <AltitudeMeters>928.20001220703125</AltitudeMeters>
            <DistanceMeters>NAN</DistanceMeters>
          </Trackpoint>
          <Trackpoint>
            <Time>2020-03-07T16:40:19.000Z</Time>
            <Position>
              <LatitudeDegrees>40.7028227113187313079833984375</LatitudeDegrees>
              <LongitudeDegrees>-3.9225726015865802764892578125</LongitudeDegrees>
            </Position>
            <AltitudeMeters>928.20001220703125</AltitudeMeters>
            <DistanceMeters>NAN</DistanceMeters>
          </Trackpoint>
          <Trackpoint>
            <Time>2020-03-07T16:40:20.000Z</Time>
            <Position>
              <LatitudeDegrees>40.70279882289469242095947265625</LatitudeDegrees>
              <LongitudeDegrees>-3.92263856716454029083251953125</LongitudeDegrees>
            </Position>
            <AltitudeMeters>928.4000244140625</AltitudeMeters>
            <DistanceMeters>NAN</DistanceMeters>
          </Trackpoint>
          <Trackpoint>
            <Time>2020-03-07T16:40:21.000Z</Time>
            <Position>
              <LatitudeDegrees>40.7027751021087169647216796875</LatitudeDegrees>
              <LongitudeDegrees>-3.92270453274250030517578125</LongitudeDegrees>
            </Position>
            <AltitudeMeters>928.4000244140625</AltitudeMeters>
            <DistanceMeters>NAN</DistanceMeters>
          </Trackpoint>
          <Trackpoint>
            <Time>2020-03-07T16:40:22.000Z</Time>
            <Position>
              <LatitudeDegrees>40.70275121368467807769775390625</LatitudeDegrees>
              <LongitudeDegrees>-3.92276932485401630401611328125</LongitudeDegrees>
            </Position>
            <AltitudeMeters>928.5999755859375</AltitudeMeters>
            <DistanceMeters>NAN</DistanceMeters>
          </Trackpoint>
          <Trackpoint>
            <Time>2020-03-07T16:40:23.000Z</Time>
            <Position>
              <LatitudeDegrees>40.7027258165180683135986328125</LatitudeDegrees>
              <LongitudeDegrees>-3.9228331111371517181396484375</LongitudeDegrees>
            </Position>
            <AltitudeMeters>928.79998779296875</AltitudeMeters>
            <DistanceMeters>NAN</DistanceMeters>
          </Trackpoint>
          <Trackpoint>
            <Time>2020-03-07T16:40:24.000Z</Time>
            <Position>
              <LatitudeDegrees>40.70269974879920482635498046875</LatitudeDegrees>
              <LongitudeDegrees>-3.9228964783251285552978515625</LongitudeDegrees>
            </Position>
            <AltitudeMeters>929</AltitudeMeters>
            <DistanceMeters>NAN</DistanceMeters>
          </Trackpoint>
          <Trackpoint>
            <Time>2020-03-07T16:40:25.000Z</Time>
            <Position>
              <LatitudeDegrees>40.70267560891807079315185546875</LatitudeDegrees>
              <LongitudeDegrees>-3.92296202480792999267578125</LongitudeDegrees>
            </Position>
            <AltitudeMeters>929.20001220703125</AltitudeMeters>
            <DistanceMeters>NAN</DistanceMeters>
          </Trackpoint>
          <Trackpoint>
            <Time>2020-03-07T16:40:26.000Z</Time>
            <Position>
              <LatitudeDegrees>40.7026530615985393524169921875</LatitudeDegrees>
              <LongitudeDegrees>-3.923028074204921722412109375</LongitudeDegrees>
            </Position>
            <AltitudeMeters>929.20001220703125</AltitudeMeters>
            <DistanceMeters>NAN</DistanceMeters>
          </Trackpoint>
          <Trackpoint>
            <Time>2020-03-07T16:40:27.000Z</Time>
            <Position>
              <LatitudeDegrees>40.70263068191707134246826171875</LatitudeDegrees>
              <LongitudeDegrees>-3.9230939559638500213623046875</LongitudeDegrees>
            </Position>
            <AltitudeMeters>929.4000244140625</AltitudeMeters>
            <DistanceMeters>NAN</DistanceMeters>
          </Trackpoint>
          <Trackpoint>
            <Time>2020-03-07T16:40:28.000Z</Time>
            <Position>
              <LatitudeDegrees>40.70260905660688877105712890625</LatitudeDegrees>
              <LongitudeDegrees>-3.92316025681793689727783203125</LongitudeDegrees>
            </Position>
            <AltitudeMeters>929.5999755859375</AltitudeMeters>
            <DistanceMeters>NAN</DistanceMeters>
          </Trackpoint>
          <Trackpoint>
            <Time>2020-03-07T16:40:29.000Z</Time>
            <Position>
              <LatitudeDegrees>40.702587179839611053466796875</LatitudeDegrees>
              <LongitudeDegrees>-3.92322680912911891937255859375</LongitudeDegrees>
            </Position>
            <AltitudeMeters>929.79998779296875</AltitudeMeters>
            <DistanceMeters>NAN</DistanceMeters>
          </Trackpoint>
          <Trackpoint>
            <Time>2020-03-07T16:40:30.000Z</Time>
            <Position>
              <LatitudeDegrees>40.70256513543426990509033203125</LatitudeDegrees>
              <LongitudeDegrees>-3.923292271792888641357421875</LongitudeDegrees>
            </Position>
            <AltitudeMeters>930</AltitudeMeters>
            <DistanceMeters>NAN</DistanceMeters>
          </Trackpoint>
          <Trackpoint>
            <Time>2020-03-07T16:40:31.000Z</Time>
            <Position>
              <LatitudeDegrees>40.70254317484796047210693359375</LatitudeDegrees>
              <LongitudeDegrees>-3.923357985913753509521484375</LongitudeDegrees>
            </Position>
            <AltitudeMeters>930.20001220703125</AltitudeMeters>
            <DistanceMeters>NAN</DistanceMeters>
          </Trackpoint>
          <Trackpoint>
            <Time>2020-03-07T16:40:32.000Z</Time>
            <Position>
              <LatitudeDegrees>40.70252205245196819305419921875</LatitudeDegrees>
              <LongitudeDegrees>-3.92342462204396724700927734375</LongitudeDegrees>
            </Position>
            <AltitudeMeters>930.20001220703125</AltitudeMeters>
            <DistanceMeters>NAN</DistanceMeters>
          </Trackpoint>
          <Trackpoint>
            <Time>2020-03-07T16:40:33.000Z</Time>
            <Position>
              <LatitudeDegrees>40.7025011815130710601806640625</LatitudeDegrees>
              <LongitudeDegrees>-3.9234910905361175537109375</LongitudeDegrees>
            </Position>
            <AltitudeMeters>930.4000244140625</AltitudeMeters>
            <DistanceMeters>NAN</DistanceMeters>
          </Trackpoint>
          <Trackpoint>
            <Time>2020-03-07T16:40:34.000Z</Time>
            <Position>
              <LatitudeDegrees>40.70247955620288848876953125</LatitudeDegrees>
              <LongitudeDegrees>-3.92355705611407756805419921875</LongitudeDegrees>
            </Position>
            <AltitudeMeters>930.5999755859375</AltitudeMeters>
            <DistanceMeters>NAN</DistanceMeters>
          </Trackpoint>
          <Trackpoint>
            <Time>2020-03-07T16:40:35.000Z</Time>
            <Position>
              <LatitudeDegrees>40.70245734415948390960693359375</LatitudeDegrees>
              <LongitudeDegrees>-3.92362260259687900543212890625</LongitudeDegrees>
            </Position>
            <AltitudeMeters>930.5999755859375</AltitudeMeters>
            <DistanceMeters>NAN</DistanceMeters>
          </Trackpoint>
          <Trackpoint>
            <Time>2020-03-07T16:40:36.000Z</Time>
            <Position>
              <LatitudeDegrees>40.7024354673922061920166015625</LatitudeDegrees>
              <LongitudeDegrees>-3.92368714325129985809326171875</LongitudeDegrees>
            </Position>
            <AltitudeMeters>930.79998779296875</AltitudeMeters>
            <DistanceMeters>NAN</DistanceMeters>
          </Trackpoint>
          <Trackpoint>
            <Time>2020-03-07T16:40:37.000Z</Time>
            <Position>
              <LatitudeDegrees>40.70241442881524562835693359375</LatitudeDegrees>
              <LongitudeDegrees>-3.92375193536281585693359375</LongitudeDegrees>
            </Position>
            <AltitudeMeters>930.5999755859375</AltitudeMeters>
            <DistanceMeters>NAN</DistanceMeters>
          </Trackpoint>
          <Trackpoint>
            <Time>2020-03-07T16:40:38.000Z</Time>
            <Position>
              <LatitudeDegrees>40.7023925520479679107666015625</LatitudeDegrees>
              <LongitudeDegrees>-3.9238168112933635711669921875</LongitudeDegrees>
            </Position>
            <AltitudeMeters>931</AltitudeMeters>
            <DistanceMeters>NAN</DistanceMeters>
          </Trackpoint>
          <Trackpoint>
            <Time>2020-03-07T16:40:39.000Z</Time>
            <Position>
              <LatitudeDegrees>40.7023700885474681854248046875</LatitudeDegrees>
              <LongitudeDegrees>-3.9238800108432769775390625</LongitudeDegrees>
            </Position>
            <AltitudeMeters>931.20001220703125</AltitudeMeters>
            <DistanceMeters>NAN</DistanceMeters>
          </Trackpoint>
          <Trackpoint>
            <Time>2020-03-07T16:40:40.000Z</Time>
            <Position>
              <LatitudeDegrees>40.70234787650406360626220703125</LatitudeDegrees>
              <LongitudeDegrees>-3.9239432103931903839111328125</LongitudeDegrees>
            </Position>
            <AltitudeMeters>931.20001220703125</AltitudeMeters>
            <DistanceMeters>NAN</DistanceMeters>
          </Trackpoint>
          <Trackpoint>
            <Time>2020-03-07T16:40:41.000Z</Time>
            <Position>
              <LatitudeDegrees>40.7023273408412933349609375</LatitudeDegrees>
              <LongitudeDegrees>-3.924007415771484375</LongitudeDegrees>
            </Position>
            <AltitudeMeters>931.4000244140625</AltitudeMeters>
            <DistanceMeters>NAN</DistanceMeters>
          </Trackpoint>
          <Trackpoint>
            <Time>2020-03-07T16:40:42.000Z</Time>
            <Position>
              <LatitudeDegrees>40.70230714045464992523193359375</LatitudeDegrees>
              <LongitudeDegrees>-3.92407170496881008148193359375</LongitudeDegrees>
            </Position>
            <AltitudeMeters>931.4000244140625</AltitudeMeters>
            <DistanceMeters>NAN</DistanceMeters>
          </Trackpoint>
          <Trackpoint>
            <Time>2020-03-07T16:40:43.000Z</Time>
            <Position>
              <LatitudeDegrees>40.70228685624897480010986328125</LatitudeDegrees>
              <LongitudeDegrees>-3.9241359941661357879638671875</LongitudeDegrees>
            </Position>
            <AltitudeMeters>931.5999755859375</AltitudeMeters>
            <DistanceMeters>NAN</DistanceMeters>
          </Trackpoint>
          <Trackpoint>
            <Time>2020-03-07T16:40:44.000Z</Time>
            <Position>
              <LatitudeDegrees>40.702268667519092559814453125</LatitudeDegrees>
              <LongitudeDegrees>-3.92420120537281036376953125</LongitudeDegrees>
            </Position>
            <AltitudeMeters>931.5999755859375</AltitudeMeters>
            <DistanceMeters>NAN</DistanceMeters>
          </Trackpoint>
          <Trackpoint>
            <Time>2020-03-07T16:40:45.000Z</Time>
            <Position>
              <LatitudeDegrees>40.70225265808403491973876953125</LatitudeDegrees>
              <LongitudeDegrees>-3.924267254769802093505859375</LongitudeDegrees>
            </Position>
            <AltitudeMeters>931.79998779296875</AltitudeMeters>
            <DistanceMeters>NAN</DistanceMeters>
          </Trackpoint>
          <Trackpoint>
            <Time>2020-03-07T16:40:46.000Z</Time>
            <Position>
              <LatitudeDegrees>40.7022356428205966949462890625</LatitudeDegrees>
              <LongitudeDegrees>-3.92433305270969867706298828125</LongitudeDegrees>
            </Position>
            <AltitudeMeters>932</AltitudeMeters>
            <DistanceMeters>NAN</DistanceMeters>
          </Trackpoint>
          <Trackpoint>
            <Time>2020-03-07T16:40:47.000Z</Time>
            <Position>
              <LatitudeDegrees>40.7022155262529850006103515625</LatitudeDegrees>
              <LongitudeDegrees>-3.924397341907024383544921875</LongitudeDegrees>
            </Position>
            <AltitudeMeters>932</AltitudeMeters>
            <DistanceMeters>NAN</DistanceMeters>
          </Trackpoint>
          <Trackpoint>
            <Time>2020-03-07T16:40:48.000Z</Time>
            <Position>
              <LatitudeDegrees>40.70219524204730987548828125</LatitudeDegrees>
              <LongitudeDegrees>-3.92446213401854038238525390625</LongitudeDegrees>
            </Position>
            <AltitudeMeters>932.4000244140625</AltitudeMeters>
            <DistanceMeters>NAN</DistanceMeters>
          </Trackpoint>
          <Trackpoint>
            <Time>2020-03-07T16:40:49.000Z</Time>
            <Position>
              <LatitudeDegrees>40.70217554457485675811767578125</LatitudeDegrees>
              <LongitudeDegrees>-3.924527429044246673583984375</LongitudeDegrees>
            </Position>
            <AltitudeMeters>932.5999755859375</AltitudeMeters>
            <DistanceMeters>NAN</DistanceMeters>
          </Trackpoint>
          <Trackpoint>
            <Time>2020-03-07T16:40:50.000Z</Time>
            <Position>
              <LatitudeDegrees>40.7021555118262767791748046875</LatitudeDegrees>
              <LongitudeDegrees>-3.92459238879382610321044921875</LongitudeDegrees>
            </Position>
            <AltitudeMeters>932.79998779296875</AltitudeMeters>
            <DistanceMeters>NAN</DistanceMeters>
          </Trackpoint>
          <Trackpoint>
            <Time>2020-03-07T16:40:51.000Z</Time>
            <Position>
              <LatitudeDegrees>40.70213514380156993865966796875</LatitudeDegrees>
              <LongitudeDegrees>-3.92465718090534210205078125</LongitudeDegrees>
            </Position>
            <AltitudeMeters>933</AltitudeMeters>
            <DistanceMeters>NAN</DistanceMeters>
          </Trackpoint>
          <Trackpoint>
            <Time>2020-03-07T16:40:52.000Z</Time>
            <Position>
              <LatitudeDegrees>40.702113769948482513427734375</LatitudeDegrees>
              <LongitudeDegrees>-3.924721889197826385498046875</LongitudeDegrees>
            </Position>
            <AltitudeMeters>933</AltitudeMeters>
            <DistanceMeters>NAN</DistanceMeters>
          </Trackpoint>
          <Trackpoint>
            <Time>2020-03-07T16:40:53.000Z</Time>
            <Position>
              <LatitudeDegrees>40.70209206081926822662353515625</LatitudeDegrees>
              <LongitudeDegrees>-3.9247864298522472381591796875</LongitudeDegrees>
            </Position>
            <AltitudeMeters>933.20001220703125</AltitudeMeters>
            <DistanceMeters>NAN</DistanceMeters>
          </Trackpoint>
          <Trackpoint>
            <Time>2020-03-07T16:40:54.000Z</Time>
            <Position>
              <LatitudeDegrees>40.70207144133746623992919921875</LatitudeDegrees>
              <LongitudeDegrees>-3.92485164105892181396484375</LongitudeDegrees>
            </Position>
            <AltitudeMeters>933.4000244140625</AltitudeMeters>
            <DistanceMeters>NAN</DistanceMeters>
          </Trackpoint>
          <Trackpoint>
            <Time>2020-03-07T16:40:55.000Z</Time>
            <Position>
              <LatitudeDegrees>40.70205082185566425323486328125</LatitudeDegrees>
              <LongitudeDegrees>-3.92491693608462810516357421875</LongitudeDegrees>
            </Position>
            <AltitudeMeters>933.4000244140625</AltitudeMeters>
            <DistanceMeters>NAN</DistanceMeters>
          </Trackpoint>
          <Trackpoint>
            <Time>2020-03-07T16:40:56.000Z</Time>
            <Position>
              <LatitudeDegrees>40.70202886126935482025146484375</LatitudeDegrees>
              <LongitudeDegrees>-3.92498181201517581939697265625</LongitudeDegrees>
            </Position>
            <AltitudeMeters>933.5999755859375</AltitudeMeters>
            <DistanceMeters>NAN</DistanceMeters>
          </Trackpoint>
          <Trackpoint>
            <Time>2020-03-07T16:40:57.000Z</Time>
            <Position>
              <LatitudeDegrees>40.70200623013079166412353515625</LatitudeDegrees>
              <LongitudeDegrees>-3.925046436488628387451171875</LongitudeDegrees>
            </Position>
            <AltitudeMeters>933.5999755859375</AltitudeMeters>
            <DistanceMeters>NAN</DistanceMeters>
          </Trackpoint>
          <Trackpoint>
            <Time>2020-03-07T16:40:58.000Z</Time>
            <Position>
              <LatitudeDegrees>40.7019845210015773773193359375</LatitudeDegrees>
              <LongitudeDegrees>-3.92511156387627124786376953125</LongitudeDegrees>
            </Position>
            <AltitudeMeters>933.79998779296875</AltitudeMeters>
            <DistanceMeters>NAN</DistanceMeters>
          </Trackpoint>
          <Trackpoint>
            <Time>2020-03-07T16:40:59.000Z</Time>
            <Position>
              <LatitudeDegrees>40.70196348242461681365966796875</LatitudeDegrees>
              <LongitudeDegrees>-3.9251776970922946929931640625</LongitudeDegrees>
            </Position>
            <AltitudeMeters>934</AltitudeMeters>
            <DistanceMeters>NAN</DistanceMeters>
          </Trackpoint>
          <Trackpoint>
            <Time>2020-03-07T16:41:00.000Z</Time>
            <Position>
              <LatitudeDegrees>40.70194219239056110382080078125</LatitudeDegrees>
              <LongitudeDegrees>-3.925244249403476715087890625</LongitudeDegrees>
            </Position>
            <AltitudeMeters>934</AltitudeMeters>
            <DistanceMeters>NAN</DistanceMeters>
          </Trackpoint>
          <Trackpoint>
            <Time>2020-03-07T16:41:01.000Z</Time>
            <Position>
              <LatitudeDegrees>40.70191989652812480926513671875</LatitudeDegrees>
              <LongitudeDegrees>-3.9253101311624050140380859375</LongitudeDegrees>
            </Position>
            <AltitudeMeters>934.20001220703125</AltitudeMeters>
            <DistanceMeters>NAN</DistanceMeters>
          </Trackpoint>
          <Trackpoint>
            <Time>2020-03-07T16:41:02.000Z</Time>
            <Position>
              <LatitudeDegrees>40.7018981873989105224609375</LatitudeDegrees>
              <LongitudeDegrees>-3.925376348197460174560546875</LongitudeDegrees>
            </Position>
            <AltitudeMeters>934.20001220703125</AltitudeMeters>
            <DistanceMeters>NAN</DistanceMeters>
          </Trackpoint>
          <Trackpoint>
            <Time>2020-03-07T16:41:03.000Z</Time>
            <Position>
              <LatitudeDegrees>40.701877065002918243408203125</LatitudeDegrees>
              <LongitudeDegrees>-3.92544281668961048126220703125</LongitudeDegrees>
            </Position>
            <AltitudeMeters>934.4000244140625</AltitudeMeters>
            <DistanceMeters>NAN</DistanceMeters>
          </Trackpoint>
          <Trackpoint>
            <Time>2020-03-07T16:41:04.000Z</Time>
            <Position>
              <LatitudeDegrees>40.70185585878789424896240234375</LatitudeDegrees>
              <LongitudeDegrees>-3.92550903372466564178466796875</LongitudeDegrees>
            </Position>
            <AltitudeMeters>934.4000244140625</AltitudeMeters>
            <DistanceMeters>NAN</DistanceMeters>
          </Trackpoint>
          <Trackpoint>
            <Time>2020-03-07T16:41:05.000Z</Time>
            <Position>
              <LatitudeDegrees>40.70183473639190196990966796875</LatitudeDegrees>
              <LongitudeDegrees>-3.9255760051310062408447265625</LongitudeDegrees>
            </Position>
            <AltitudeMeters>934.5999755859375</AltitudeMeters>
            <DistanceMeters>NAN</DistanceMeters>
          </Trackpoint>
          <Trackpoint>
            <Time>2020-03-07T16:41:06.000Z</Time>
            <Position>
              <LatitudeDegrees>40.7018131949007511138916015625</LatitudeDegrees>
              <LongitudeDegrees>-3.9256433956325054168701171875</LongitudeDegrees>
            </Position>
            <AltitudeMeters>934.5999755859375</AltitudeMeters>
            <DistanceMeters>NAN</DistanceMeters>
          </Trackpoint>
          <Trackpoint>
            <Time>2020-03-07T16:41:07.000Z</Time>
            <Position>
              <LatitudeDegrees>40.70179098285734653472900390625</LatitudeDegrees>
              <LongitudeDegrees>-3.92571070231497287750244140625</LongitudeDegrees>
            </Position>
            <AltitudeMeters>934.79998779296875</AltitudeMeters>
            <DistanceMeters>NAN</DistanceMeters>
          </Trackpoint>
          <Trackpoint>
            <Time>2020-03-07T16:41:08.000Z</Time>
            <Position>
              <LatitudeDegrees>40.70176885463297367095947265625</LatitudeDegrees>
              <LongitudeDegrees>-3.925778679549694061279296875</LongitudeDegrees>
            </Position>
            <AltitudeMeters>934.79998779296875</AltitudeMeters>
            <DistanceMeters>NAN</DistanceMeters>
          </Trackpoint>
          <Trackpoint>
            <Time>2020-03-07T16:41:09.000Z</Time>
            <Position>
              <LatitudeDegrees>40.7017479836940765380859375</LatitudeDegrees>
              <LongitudeDegrees>-3.92584783025085926055908203125</LongitudeDegrees>
            </Position>
            <AltitudeMeters>935</AltitudeMeters>
            <DistanceMeters>NAN</DistanceMeters>
          </Trackpoint>
          <Trackpoint>
            <Time>2020-03-07T16:41:10.000Z</Time>
            <Position>
              <LatitudeDegrees>40.70172828622162342071533203125</LatitudeDegrees>
              <LongitudeDegrees>-3.92591857351362705230712890625</LongitudeDegrees>
            </Position>
            <AltitudeMeters>935</AltitudeMeters>
            <DistanceMeters>NAN</DistanceMeters>
          </Trackpoint>
          <Trackpoint>
            <Time>2020-03-07T16:41:11.000Z</Time>
            <Position>
              <LatitudeDegrees>40.7017095945775508880615234375</LatitudeDegrees>
              <LongitudeDegrees>-3.92599015496671199798583984375</LongitudeDegrees>
            </Position>
            <AltitudeMeters>935.20001220703125</AltitudeMeters>
            <DistanceMeters>NAN</DistanceMeters>
          </Trackpoint>
          <Trackpoint>
            <Time>2020-03-07T16:41:12.000Z</Time>
            <Position>
              <LatitudeDegrees>40.70169123820960521697998046875</LatitudeDegrees>
              <LongitudeDegrees>-3.92606190405786037445068359375</LongitudeDegrees>
            </Position>
            <AltitudeMeters>935.20001220703125</AltitudeMeters>
            <DistanceMeters>NAN</DistanceMeters>
          </Trackpoint>
          <Trackpoint>
            <Time>2020-03-07T16:41:13.000Z</Time>
            <Position>
              <LatitudeDegrees>40.70167313329875469207763671875</LatitudeDegrees>
              <LongitudeDegrees>-3.92613382078707218170166015625</LongitudeDegrees>
            </Position>
            <AltitudeMeters>935.20001220703125</AltitudeMeters>
            <DistanceMeters>NAN</DistanceMeters>
          </Trackpoint>
          <Trackpoint>
            <Time>2020-03-07T16:41:14.000Z</Time>
            <Position>
              <LatitudeDegrees>40.7016556151211261749267578125</LatitudeDegrees>
              <LongitudeDegrees>-3.92620640806853771209716796875</LongitudeDegrees>
            </Position>
            <AltitudeMeters>935.4000244140625</AltitudeMeters>
            <DistanceMeters>NAN</DistanceMeters>
          </Trackpoint>
          <Trackpoint>
            <Time>2020-03-07T16:41:15.000Z</Time>
            <Position>
              <LatitudeDegrees>40.7016388513147830963134765625</LatitudeDegrees>
              <LongitudeDegrees>-3.9262794144451618194580078125</LongitudeDegrees>
            </Position>
            <AltitudeMeters>935.4000244140625</AltitudeMeters>
            <DistanceMeters>NAN</DistanceMeters>
          </Trackpoint>
          <Trackpoint>
            <Time>2020-03-07T16:41:16.000Z</Time>
            <Position>
              <LatitudeDegrees>40.70162451826035976409912109375</LatitudeDegrees>
              <LongitudeDegrees>-3.92635342665016651153564453125</LongitudeDegrees>
            </Position>
            <AltitudeMeters>935.5999755859375</AltitudeMeters>
            <DistanceMeters>NAN</DistanceMeters>
          </Trackpoint>
          <Trackpoint>
            <Time>2020-03-07T16:41:17.000Z</Time>
            <Position>
              <LatitudeDegrees>40.701612867414951324462890625</LatitudeDegrees>
              <LongitudeDegrees>-3.926427774131298065185546875</LongitudeDegrees>
            </Position>
            <AltitudeMeters>935.5999755859375</AltitudeMeters>
            <DistanceMeters>NAN</DistanceMeters>
          </Trackpoint>
          <Trackpoint>
            <Time>2020-03-07T16:41:18.000Z</Time>
            <Position>
              <LatitudeDegrees>40.701602809131145477294921875</LatitudeDegrees>
              <LongitudeDegrees>-3.92650262452661991119384765625</LongitudeDegrees>
            </Position>
            <AltitudeMeters>935.79998779296875</AltitudeMeters>
            <DistanceMeters>NAN</DistanceMeters>
          </Trackpoint>
          <Trackpoint>
            <Time>2020-03-07T16:41:19.000Z</Time>
            <Position>
              <LatitudeDegrees>40.70159308612346649169921875</LatitudeDegrees>
              <LongitudeDegrees>-3.926577307283878326416015625</LongitudeDegrees>
            </Position>
            <AltitudeMeters>935.79998779296875</AltitudeMeters>
            <DistanceMeters>NAN</DistanceMeters>
          </Trackpoint>
          <Trackpoint>
            <Time>2020-03-07T16:41:20.000Z</Time>
            <Position>
              <LatitudeDegrees>40.7015843689441680908203125</LatitudeDegrees>
              <LongitudeDegrees>-3.9266525767743587493896484375</LongitudeDegrees>
            </Position>
            <AltitudeMeters>936</AltitudeMeters>
            <DistanceMeters>NAN</DistanceMeters>
          </Trackpoint>
          <Trackpoint>
            <Time>2020-03-07T16:41:21.000Z</Time>
            <Position>
              <LatitudeDegrees>40.7015778310596942901611328125</LatitudeDegrees>
              <LongitudeDegrees>-3.9267285168170928955078125</LongitudeDegrees>
            </Position>
            <AltitudeMeters>936</AltitudeMeters>
            <DistanceMeters>NAN</DistanceMeters>
          </Trackpoint>
          <Trackpoint>
            <Time>2020-03-07T16:41:22.000Z</Time>
            <Position>
              <LatitudeDegrees>40.70157255046069622039794921875</LatitudeDegrees>
              <LongitudeDegrees>-3.92680428922176361083984375</LongitudeDegrees>
            </Position>
            <AltitudeMeters>936</AltitudeMeters>
            <DistanceMeters>NAN</DistanceMeters>
          </Trackpoint>
          <Trackpoint>
            <Time>2020-03-07T16:41:23.000Z</Time>
            <Position>
              <LatitudeDegrees>40.7015674374997615814208984375</LatitudeDegrees>
              <LongitudeDegrees>-3.926880396902561187744140625</LongitudeDegrees>
            </Position>
            <AltitudeMeters>936</AltitudeMeters>
            <DistanceMeters>NAN</DistanceMeters>
          </Trackpoint>
          <Trackpoint>
            <Time>2020-03-07T16:41:24.000Z</Time>
            <Position>
              <LatitudeDegrees>40.70156249217689037322998046875</LatitudeDegrees>
              <LongitudeDegrees>-3.92695692367851734161376953125</LongitudeDegrees>
            </Position>
            <AltitudeMeters>936.20001220703125</AltitudeMeters>
            <DistanceMeters>NAN</DistanceMeters>
          </Trackpoint>
          <Trackpoint>
            <Time>2020-03-07T16:41:25.000Z</Time>
            <Position>
              <LatitudeDegrees>40.7015570439398288726806640625</LatitudeDegrees>
              <LongitudeDegrees>-3.92703336663544178009033203125</LongitudeDegrees>
            </Position>
            <AltitudeMeters>936.20001220703125</AltitudeMeters>
            <DistanceMeters>NAN</DistanceMeters>
          </Trackpoint>
          <Trackpoint>
            <Time>2020-03-07T16:41:26.000Z</Time>
            <Position>
              <LatitudeDegrees>40.70155025459825992584228515625</LatitudeDegrees>
              <LongitudeDegrees>-3.9271093904972076416015625</LongitudeDegrees>
            </Position>
            <AltitudeMeters>936.4000244140625</AltitudeMeters>
            <DistanceMeters>NAN</DistanceMeters>
          </Trackpoint>
          <Trackpoint>
            <Time>2020-03-07T16:41:27.000Z</Time>
            <Position>
              <LatitudeDegrees>40.70154204033315181732177734375</LatitudeDegrees>
              <LongitudeDegrees>-3.9271860010921955108642578125</LongitudeDegrees>
            </Position>
            <AltitudeMeters>936.4000244140625</AltitudeMeters>
            <DistanceMeters>NAN</DistanceMeters>
          </Trackpoint>
          <Trackpoint>
            <Time>2020-03-07T16:41:28.000Z</Time>
            <Position>
              <LatitudeDegrees>40.70153248496353626251220703125</LatitudeDegrees>
              <LongitudeDegrees>-3.9272624440491199493408203125</LongitudeDegrees>
            </Position>
            <AltitudeMeters>936.4000244140625</AltitudeMeters>
            <DistanceMeters>NAN</DistanceMeters>
          </Trackpoint>
          <Trackpoint>
            <Time>2020-03-07T16:41:29.000Z</Time>
            <Position>
              <LatitudeDegrees>40.7015218399465084075927734375</LatitudeDegrees>
              <LongitudeDegrees>-3.92733863554894924163818359375</LongitudeDegrees>
            </Position>
            <AltitudeMeters>936.4000244140625</AltitudeMeters>
            <DistanceMeters>NAN</DistanceMeters>
          </Trackpoint>
          <Trackpoint>
            <Time>2020-03-07T16:41:30.000Z</Time>
            <Position>
              <LatitudeDegrees>40.70151052437722682952880859375</LatitudeDegrees>
              <LongitudeDegrees>-3.92741474322974681854248046875</LongitudeDegrees>
            </Position>
            <AltitudeMeters>936.5999755859375</AltitudeMeters>
            <DistanceMeters>NAN</DistanceMeters>
          </Trackpoint>
          <Trackpoint>
            <Time>2020-03-07T16:41:31.000Z</Time>
            <Position>
              <LatitudeDegrees>40.701498202979564666748046875</LatitudeDegrees>
              <LongitudeDegrees>-3.92749085091054439544677734375</LongitudeDegrees>
            </Position>
            <AltitudeMeters>936.5999755859375</AltitudeMeters>
            <DistanceMeters>NAN</DistanceMeters>
          </Trackpoint>
          <Trackpoint>
            <Time>2020-03-07T16:41:32.000Z</Time>
            <Position>
              <LatitudeDegrees>40.7014849595725536346435546875</LatitudeDegrees>
              <LongitudeDegrees>-3.92756712622940540313720703125</LongitudeDegrees>
            </Position>
            <AltitudeMeters>936.5999755859375</AltitudeMeters>
            <DistanceMeters>NAN</DistanceMeters>
          </Trackpoint>
          <Trackpoint>
            <Time>2020-03-07T16:41:33.000Z</Time>
            <Position>
              <LatitudeDegrees>40.701471380889415740966796875</LatitudeDegrees>
              <LongitudeDegrees>-3.92764382064342498779296875</LongitudeDegrees>
            </Position>
            <AltitudeMeters>936.5999755859375</AltitudeMeters>
            <DistanceMeters>NAN</DistanceMeters>
          </Trackpoint>
          <Trackpoint>
            <Time>2020-03-07T16:41:34.000Z</Time>
            <Position>
              <LatitudeDegrees>40.70145629346370697021484375</LatitudeDegrees>
              <LongitudeDegrees>-3.927720598876476287841796875</LongitudeDegrees>
            </Position>
            <AltitudeMeters>936.5999755859375</AltitudeMeters>
            <DistanceMeters>NAN</DistanceMeters>
          </Trackpoint>
          <Trackpoint>
            <Time>2020-03-07T16:41:35.000Z</Time>
            <Position>
              <LatitudeDegrees>40.70143743418157100677490234375</LatitudeDegrees>
              <LongitudeDegrees>-3.92779645510017871856689453125</LongitudeDegrees>
            </Position>
            <AltitudeMeters>936.79998779296875</AltitudeMeters>
            <DistanceMeters>NAN</DistanceMeters>
          </Trackpoint>
          <Trackpoint>
            <Time>2020-03-07T16:41:36.000Z</Time>
            <Position>
              <LatitudeDegrees>40.7014152221381664276123046875</LatitudeDegrees>
              <LongitudeDegrees>-3.92787172459065914154052734375</LongitudeDegrees>
            </Position>
            <AltitudeMeters>936.79998779296875</AltitudeMeters>
            <DistanceMeters>NAN</DistanceMeters>
          </Trackpoint>
          <Trackpoint>
            <Time>2020-03-07T16:41:37.000Z</Time>
            <Position>
              <LatitudeDegrees>40.70139016024768352508544921875</LatitudeDegrees>
              <LongitudeDegrees>-3.92794632352888584136962890625</LongitudeDegrees>
            </Position>
            <AltitudeMeters>936.79998779296875</AltitudeMeters>
            <DistanceMeters>NAN</DistanceMeters>
          </Trackpoint>
          <Trackpoint>
            <Time>2020-03-07T16:41:38.000Z</Time>
            <Position>
              <LatitudeDegrees>40.7013632543385028839111328125</LatitudeDegrees>
              <LongitudeDegrees>-3.92802092246711254119873046875</LongitudeDegrees>
            </Position>
            <AltitudeMeters>936.79998779296875</AltitudeMeters>
            <DistanceMeters>NAN</DistanceMeters>
          </Trackpoint>
          <Trackpoint>
            <Time>2020-03-07T16:41:39.000Z</Time>
            <Position>
              <LatitudeDegrees>40.7013344205915927886962890625</LatitudeDegrees>
              <LongitudeDegrees>-3.92809468321502208709716796875</LongitudeDegrees>
            </Position>
            <AltitudeMeters>936.79998779296875</AltitudeMeters>
            <DistanceMeters>NAN</DistanceMeters>
          </Trackpoint>
          <Trackpoint>
            <Time>2020-03-07T16:41:40.000Z</Time>
            <Position>
              <LatitudeDegrees>40.70130282081663608551025390625</LatitudeDegrees>
              <LongitudeDegrees>-3.928167186677455902099609375</LongitudeDegrees>
            </Position>
            <AltitudeMeters>936.79998779296875</AltitudeMeters>
            <DistanceMeters>NAN</DistanceMeters>
          </Trackpoint>
          <Trackpoint>
            <Time>2020-03-07T16:41:41.000Z</Time>
            <Position>
              <LatitudeDegrees>40.70126853883266448974609375</LatitudeDegrees>
              <LongitudeDegrees>-3.92823734320700168609619140625</LongitudeDegrees>
            </Position>
            <AltitudeMeters>937</AltitudeMeters>
            <DistanceMeters>NAN</DistanceMeters>
          </Trackpoint>
          <Trackpoint>
            <Time>2020-03-07T16:41:42.000Z</Time>
            <Position>
              <LatitudeDegrees>40.70123157463967800140380859375</LatitudeDegrees>
              <LongitudeDegrees>-3.9283058233559131622314453125</LongitudeDegrees>
            </Position>
            <AltitudeMeters>937.20001220703125</AltitudeMeters>
            <DistanceMeters>NAN</DistanceMeters>
          </Trackpoint>
          <Trackpoint>
            <Time>2020-03-07T16:41:43.000Z</Time>
            <Position>
              <LatitudeDegrees>40.701193772256374359130859375</LatitudeDegrees>
              <LongitudeDegrees>-3.92837380059063434600830078125</LongitudeDegrees>
            </Position>
            <AltitudeMeters>937.20001220703125</AltitudeMeters>
            <DistanceMeters>NAN</DistanceMeters>
          </Trackpoint>
          <Trackpoint>
            <Time>2020-03-07T16:41:44.000Z</Time>
            <Position>
              <LatitudeDegrees>40.701154880225658416748046875</LatitudeDegrees>
              <LongitudeDegrees>-3.928441442549228668212890625</LongitudeDegrees>
            </Position>
            <AltitudeMeters>937.4000244140625</AltitudeMeters>
            <DistanceMeters>NAN</DistanceMeters>
          </Trackpoint>
          <Trackpoint>
            <Time>2020-03-07T16:41:45.000Z</Time>
            <Position>
              <LatitudeDegrees>40.70111590437591075897216796875</LatitudeDegrees>
              <LongitudeDegrees>-3.9285100065171718597412109375</LongitudeDegrees>
            </Position>
            <AltitudeMeters>937.4000244140625</AltitudeMeters>
            <DistanceMeters>NAN</DistanceMeters>
          </Trackpoint>
          <Trackpoint>
            <Time>2020-03-07T16:41:46.000Z</Time>
            <Position>
              <LatitudeDegrees>40.7010779343545436859130859375</LatitudeDegrees>
              <LongitudeDegrees>-3.92857966013252735137939453125</LongitudeDegrees>
            </Position>
            <AltitudeMeters>937.5999755859375</AltitudeMeters>
            <DistanceMeters>NAN</DistanceMeters>
          </Trackpoint>
          <Trackpoint>
            <Time>2020-03-07T16:41:47.000Z</Time>
            <Position>
              <LatitudeDegrees>40.70104013197124004364013671875</LatitudeDegrees>
              <LongitudeDegrees>-3.928649313747882843017578125</LongitudeDegrees>
            </Position>
            <AltitudeMeters>937.5999755859375</AltitudeMeters>
            <DistanceMeters>NAN</DistanceMeters>
          </Trackpoint>
          <Trackpoint>
            <Time>2020-03-07T16:41:48.000Z</Time>
            <Position>
              <LatitudeDegrees>40.70100241340696811676025390625</LatitudeDegrees>
              <LongitudeDegrees>-3.9287188835442066192626953125</LongitudeDegrees>
            </Position>
            <AltitudeMeters>937.5999755859375</AltitudeMeters>
            <DistanceMeters>NAN</DistanceMeters>
          </Trackpoint>
          <Trackpoint>
            <Time>2020-03-07T16:41:49.000Z</Time>
            <Position>
              <LatitudeDegrees>40.70096419192850589752197265625</LatitudeDegrees>
              <LongitudeDegrees>-3.92878711223602294921875</LongitudeDegrees>
            </Position>
            <AltitudeMeters>937.5999755859375</AltitudeMeters>
            <DistanceMeters>NAN</DistanceMeters>
          </Trackpoint>
          <Trackpoint>
            <Time>2020-03-07T16:41:50.000Z</Time>
            <Position>
              <LatitudeDegrees>40.70096419192850589752197265625</LatitudeDegrees>
              <LongitudeDegrees>-3.92878711223602294921875</LongitudeDegrees>
            </Position>
            <AltitudeMeters>937.5999755859375</AltitudeMeters>
            <DistanceMeters>NAN</DistanceMeters>
          </Trackpoint>
          <Trackpoint>
            <Time>2020-03-07T16:41:51.000Z</Time>
            <Position>
              <LatitudeDegrees>40.70092764683067798614501953125</LatitudeDegrees>
              <LongitudeDegrees>-3.9288546703755855560302734375</LongitudeDegrees>
            </Position>
            <AltitudeMeters>937.5999755859375</AltitudeMeters>
            <DistanceMeters>NAN</DistanceMeters>
          </Trackpoint>
          <Trackpoint>
            <Time>2020-03-07T16:41:52.000Z</Time>
            <Position>
              <LatitudeDegrees>40.70089277811348438262939453125</LatitudeDegrees>
              <LongitudeDegrees>-3.9289203844964504241943359375</LongitudeDegrees>
            </Position>
            <AltitudeMeters>937.5999755859375</AltitudeMeters>
            <DistanceMeters>NAN</DistanceMeters>
          </Trackpoint>
          <Trackpoint>
            <Time>2020-03-07T16:41:53.000Z</Time>
            <Position>
              <LatitudeDegrees>40.7008586637675762176513671875</LatitudeDegrees>
              <LongitudeDegrees>-3.9289837516844272613525390625</LongitudeDegrees>
            </Position>
            <AltitudeMeters>937.5999755859375</AltitudeMeters>
            <DistanceMeters>NAN</DistanceMeters>
          </Trackpoint>
          <Trackpoint>
            <Time>2020-03-07T16:41:54.000Z</Time>
            <Position>
              <LatitudeDegrees>40.7007931172847747802734375</LatitudeDegrees>
              <LongitudeDegrees>-3.9291078038513660430908203125</LongitudeDegrees>
            </Position>
            <AltitudeMeters>937.79998779296875</AltitudeMeters>
            <DistanceMeters>NAN</DistanceMeters>
          </Trackpoint>
          <Trackpoint>
            <Time>2020-03-07T16:41:55.000Z</Time>
            <Position>
              <LatitudeDegrees>40.70076000876724720001220703125</LatitudeDegrees>
              <LongitudeDegrees>-3.92916756682097911834716796875</LongitudeDegrees>
            </Position>
            <AltitudeMeters>937.79998779296875</AltitudeMeters>
            <DistanceMeters>NAN</DistanceMeters>
          </Trackpoint>
          <Trackpoint>
            <Time>2020-03-07T16:41:56.000Z</Time>
            <Position>
              <LatitudeDegrees>40.70076000876724720001220703125</LatitudeDegrees>
              <LongitudeDegrees>-3.92916756682097911834716796875</LongitudeDegrees>
            </Position>
            <AltitudeMeters>937.79998779296875</AltitudeMeters>
            <DistanceMeters>NAN</DistanceMeters>
          </Trackpoint>
          <Trackpoint>
            <Time>2020-03-07T16:41:57.000Z</Time>
            <Position>
              <LatitudeDegrees>40.700694881379604339599609375</LatitudeDegrees>
              <LongitudeDegrees>-3.92928189598023891448974609375</LongitudeDegrees>
            </Position>
            <AltitudeMeters>937.79998779296875</AltitudeMeters>
            <DistanceMeters>NAN</DistanceMeters>
          </Trackpoint>
          <Trackpoint>
            <Time>2020-03-07T16:41:58.000Z</Time>
            <Position>
              <LatitudeDegrees>40.700663030147552490234375</LatitudeDegrees>
              <LongitudeDegrees>-3.9293381385505199432373046875</LongitudeDegrees>
            </Position>
            <AltitudeMeters>937.79998779296875</AltitudeMeters>
            <DistanceMeters>NAN</DistanceMeters>
          </Trackpoint>
          <Trackpoint>
            <Time>2020-03-07T16:41:59.000Z</Time>
            <Position>
              <LatitudeDegrees>40.7006320171058177947998046875</LatitudeDegrees>
              <LongitudeDegrees>-3.92939337529242038726806640625</LongitudeDegrees>
            </Position>
            <AltitudeMeters>937.79998779296875</AltitudeMeters>
            <DistanceMeters>NAN</DistanceMeters>
          </Trackpoint>
          <Trackpoint>
            <Time>2020-03-07T16:42:00.000Z</Time>
            <Position>
              <LatitudeDegrees>40.7006011717021465301513671875</LatitudeDegrees>
              <LongitudeDegrees>-3.929448612034320831298828125</LongitudeDegrees>
            </Position>
            <AltitudeMeters>937.79998779296875</AltitudeMeters>
            <DistanceMeters>NAN</DistanceMeters>
          </Trackpoint>
          <Trackpoint>
            <Time>2020-03-07T16:42:01.000Z</Time>
            <Position>
              <LatitudeDegrees>40.70057041011750698089599609375</LatitudeDegrees>
              <LongitudeDegrees>-3.92950435169041156768798828125</LongitudeDegrees>
            </Position>
            <AltitudeMeters>937.79998779296875</AltitudeMeters>
            <DistanceMeters>NAN</DistanceMeters>
          </Trackpoint>
          <Trackpoint>
            <Time>2020-03-07T16:42:02.000Z</Time>
            <Position>
              <LatitudeDegrees>40.70057041011750698089599609375</LatitudeDegrees>
              <LongitudeDegrees>-3.92950435169041156768798828125</LongitudeDegrees>
            </Position>
            <AltitudeMeters>938</AltitudeMeters>
            <DistanceMeters>NAN</DistanceMeters>
          </Trackpoint>
          <Trackpoint>
            <Time>2020-03-07T16:42:03.000Z</Time>
            <Position>
              <LatitudeDegrees>40.700509808957576751708984375</LatitudeDegrees>
              <LongitudeDegrees>-3.9296154119074344635009765625</LongitudeDegrees>
            </Position>
            <AltitudeMeters>938.20001220703125</AltitudeMeters>
            <DistanceMeters>NAN</DistanceMeters>
          </Trackpoint>
          <Trackpoint>
            <Time>2020-03-07T16:42:04.000Z</Time>
            <Position>
              <LatitudeDegrees>40.7004792988300323486328125</LatitudeDegrees>
              <LongitudeDegrees>-3.929669894278049468994140625</LongitudeDegrees>
            </Position>
            <AltitudeMeters>938.4000244140625</AltitudeMeters>
            <DistanceMeters>NAN</DistanceMeters>
          </Trackpoint>
          <Trackpoint>
            <Time>2020-03-07T16:42:05.000Z</Time>
            <Position>
              <LatitudeDegrees>40.7004489563405513763427734375</LatitudeDegrees>
              <LongitudeDegrees>-3.92972311936318874359130859375</LongitudeDegrees>
            </Position>
            <AltitudeMeters>938.5999755859375</AltitudeMeters>
            <DistanceMeters>NAN</DistanceMeters>
          </Trackpoint>
          <Trackpoint>
            <Time>2020-03-07T16:42:06.000Z</Time>
            <Position>
              <LatitudeDegrees>40.70041853003203868865966796875</LatitudeDegrees>
              <LongitudeDegrees>-3.9297753386199474334716796875</LongitudeDegrees>
            </Position>
            <AltitudeMeters>938.79998779296875</AltitudeMeters>
            <DistanceMeters>NAN</DistanceMeters>
          </Trackpoint>
          <Trackpoint>
            <Time>2020-03-07T16:42:07.000Z</Time>
            <Position>
              <LatitudeDegrees>40.70038869045674800872802734375</LatitudeDegrees>
              <LongitudeDegrees>-3.92982755787670612335205078125</LongitudeDegrees>
            </Position>
            <AltitudeMeters>939</AltitudeMeters>
            <DistanceMeters>NAN</DistanceMeters>
          </Trackpoint>
          <Trackpoint>
            <Time>2020-03-07T16:42:08.000Z</Time>
            <Position>
              <LatitudeDegrees>40.70035985670983791351318359375</LatitudeDegrees>
              <LongitudeDegrees>-3.92987935803830623626708984375</LongitudeDegrees>
            </Position>
            <AltitudeMeters>939</AltitudeMeters>
            <DistanceMeters>NAN</DistanceMeters>
          </Trackpoint>
          <Trackpoint>
            <Time>2020-03-07T16:42:09.000Z</Time>
            <Position>
              <LatitudeDegrees>40.7003329508006572723388671875</LatitudeDegrees>
              <LongitudeDegrees>-3.929932080209255218505859375</LongitudeDegrees>
            </Position>
            <AltitudeMeters>939.20001220703125</AltitudeMeters>
            <DistanceMeters>NAN</DistanceMeters>
          </Trackpoint>
          <Trackpoint>
            <Time>2020-03-07T16:42:10.000Z</Time>
            <Position>
              <LatitudeDegrees>40.70030671544373035430908203125</LatitudeDegrees>
              <LongitudeDegrees>-3.92998597584664821624755859375</LongitudeDegrees>
            </Position>
            <AltitudeMeters>939.4000244140625</AltitudeMeters>
            <DistanceMeters>NAN</DistanceMeters>
          </Trackpoint>
          <Trackpoint>
            <Time>2020-03-07T16:42:11.000Z</Time>
            <Position>
              <LatitudeDegrees>40.7002803124487400054931640625</LatitudeDegrees>
              <LongitudeDegrees>-3.93003878183662891387939453125</LongitudeDegrees>
            </Position>
            <AltitudeMeters>939.5999755859375</AltitudeMeters>
            <DistanceMeters>NAN</DistanceMeters>
          </Trackpoint>
          <Trackpoint>
            <Time>2020-03-07T16:42:12.000Z</Time>
            <Position>
              <LatitudeDegrees>40.70025072433054447174072265625</LatitudeDegrees>
              <LongitudeDegrees>-3.930090330541133880615234375</LongitudeDegrees>
            </Position>
            <AltitudeMeters>939.79998779296875</AltitudeMeters>
            <DistanceMeters>NAN</DistanceMeters>
          </Trackpoint>
          <Trackpoint>
            <Time>2020-03-07T16:42:13.000Z</Time>
            <Position>
              <LatitudeDegrees>40.70022122003138065338134765625</LatitudeDegrees>
              <LongitudeDegrees>-3.93014171160757541656494140625</LongitudeDegrees>
            </Position>
            <AltitudeMeters>940</AltitudeMeters>
            <DistanceMeters>NAN</DistanceMeters>
          </Trackpoint>
          <Trackpoint>
            <Time>2020-03-07T16:42:14.000Z</Time>
            <Position>
              <LatitudeDegrees>40.70019255392253398895263671875</LatitudeDegrees>
              <LongitudeDegrees>-3.9301951043307781219482421875</LongitudeDegrees>
            </Position>
            <AltitudeMeters>940.4000244140625</AltitudeMeters>
            <DistanceMeters>NAN</DistanceMeters>
          </Trackpoint>
          <Trackpoint>
            <Time>2020-03-07T16:42:15.000Z</Time>
            <Position>
              <LatitudeDegrees>40.700164139270782470703125</LatitudeDegrees>
              <LongitudeDegrees>-3.93024958670139312744140625</LongitudeDegrees>
            </Position>
            <AltitudeMeters>940.5999755859375</AltitudeMeters>
            <DistanceMeters>NAN</DistanceMeters>
          </Trackpoint>
          <Trackpoint>
            <Time>2020-03-07T16:42:16.000Z</Time>
            <Position>
              <LatitudeDegrees>40.70013555698096752166748046875</LatitudeDegrees>
              <LongitudeDegrees>-3.93030448816716670989990234375</LongitudeDegrees>
            </Position>
            <AltitudeMeters>940.79998779296875</AltitudeMeters>
            <DistanceMeters>NAN</DistanceMeters>
          </Trackpoint>
          <Trackpoint>
            <Time>2020-03-07T16:42:17.000Z</Time>
            <Position>
              <LatitudeDegrees>40.7001056335866451263427734375</LatitudeDegrees>
              <LongitudeDegrees>-3.9303583838045597076416015625</LongitudeDegrees>
            </Position>
            <AltitudeMeters>941</AltitudeMeters>
            <DistanceMeters>NAN</DistanceMeters>
          </Trackpoint>
          <Trackpoint>
            <Time>2020-03-07T16:42:18.000Z</Time>
            <Position>
              <LatitudeDegrees>40.70007487200200557708740234375</LatitudeDegrees>
              <LongitudeDegrees>-3.93041194416582584381103515625</LongitudeDegrees>
            </Position>
            <AltitudeMeters>941.20001220703125</AltitudeMeters>
            <DistanceMeters>NAN</DistanceMeters>
          </Trackpoint>
          <Trackpoint>
            <Time>2020-03-07T16:42:19.000Z</Time>
            <Position>
              <LatitudeDegrees>40.7000446133315563201904296875</LatitudeDegrees>
              <LongitudeDegrees>-3.9304663427174091339111328125</LongitudeDegrees>
            </Position>
            <AltitudeMeters>941.4000244140625</AltitudeMeters>
            <DistanceMeters>NAN</DistanceMeters>
          </Trackpoint>
          <Trackpoint>
            <Time>2020-03-07T16:42:20.000Z</Time>
            <Position>
              <LatitudeDegrees>40.70001586340367794036865234375</LatitudeDegrees>
              <LongitudeDegrees>-3.9305213280022144317626953125</LongitudeDegrees>
            </Position>
            <AltitudeMeters>941.5999755859375</AltitudeMeters>
            <DistanceMeters>NAN</DistanceMeters>
          </Trackpoint>
          <Trackpoint>
            <Time>2020-03-07T16:42:21.000Z</Time>
            <Position>
              <LatitudeDegrees>40.699987448751926422119140625</LatitudeDegrees>
              <LongitudeDegrees>-3.93057757057249546051025390625</LongitudeDegrees>
            </Position>
            <AltitudeMeters>941.79998779296875</AltitudeMeters>
            <DistanceMeters>NAN</DistanceMeters>
          </Trackpoint>
          <Trackpoint>
            <Time>2020-03-07T16:42:22.000Z</Time>
            <Position>
              <LatitudeDegrees>40.69995920173823833465576171875</LatitudeDegrees>
              <LongitudeDegrees>-3.9306336455047130584716796875</LongitudeDegrees>
            </Position>
            <AltitudeMeters>942</AltitudeMeters>
            <DistanceMeters>NAN</DistanceMeters>
          </Trackpoint>
          <Trackpoint>
            <Time>2020-03-07T16:42:23.000Z</Time>
            <Position>
              <LatitudeDegrees>40.69992969743907451629638671875</LatitudeDegrees>
              <LongitudeDegrees>-3.930689133703708648681640625</LongitudeDegrees>
            </Position>
            <AltitudeMeters>942</AltitudeMeters>
            <DistanceMeters>NAN</DistanceMeters>
          </Trackpoint>
          <Trackpoint>
            <Time>2020-03-07T16:42:24.000Z</Time>
            <Position>
              <LatitudeDegrees>40.6999001093208789825439453125</LatitudeDegrees>
              <LongitudeDegrees>-3.93074437044560909271240234375</LongitudeDegrees>
            </Position>
            <AltitudeMeters>942.20001220703125</AltitudeMeters>
            <DistanceMeters>NAN</DistanceMeters>
          </Trackpoint>
          <Trackpoint>
            <Time>2020-03-07T16:42:25.000Z</Time>
            <Position>
              <LatitudeDegrees>40.699870772659778594970703125</LatitudeDegrees>
              <LongitudeDegrees>-3.93079952336847782135009765625</LongitudeDegrees>
            </Position>
            <AltitudeMeters>942.20001220703125</AltitudeMeters>
            <DistanceMeters>NAN</DistanceMeters>
          </Trackpoint>
          <Trackpoint>
            <Time>2020-03-07T16:42:26.000Z</Time>
            <Position>
              <LatitudeDegrees>40.69984252564609050750732421875</LatitudeDegrees>
              <LongitudeDegrees>-3.93085551448166370391845703125</LongitudeDegrees>
            </Position>
            <AltitudeMeters>942.4000244140625</AltitudeMeters>
            <DistanceMeters>NAN</DistanceMeters>
          </Trackpoint>
          <Trackpoint>
            <Time>2020-03-07T16:42:27.000Z</Time>
            <Position>
              <LatitudeDegrees>40.69981520064175128936767578125</LatitudeDegrees>
              <LongitudeDegrees>-3.9309115894138813018798828125</LongitudeDegrees>
            </Position>
            <AltitudeMeters>942.4000244140625</AltitudeMeters>
            <DistanceMeters>NAN</DistanceMeters>
          </Trackpoint>
          <Trackpoint>
            <Time>2020-03-07T16:42:28.000Z</Time>
            <Position>
              <LatitudeDegrees>40.6997894681990146636962890625</LatitudeDegrees>
              <LongitudeDegrees>-3.93096749670803546905517578125</LongitudeDegrees>
            </Position>
            <AltitudeMeters>942.5999755859375</AltitudeMeters>
            <DistanceMeters>NAN</DistanceMeters>
          </Trackpoint>
          <Trackpoint>
            <Time>2020-03-07T16:42:29.000Z</Time>
            <Position>
              <LatitudeDegrees>40.69976826198399066925048828125</LatitudeDegrees>
              <LongitudeDegrees>-3.93102474510669708251953125</LongitudeDegrees>
            </Position>
            <AltitudeMeters>942.5999755859375</AltitudeMeters>
            <DistanceMeters>NAN</DistanceMeters>
          </Trackpoint>
          <Trackpoint>
            <Time>2020-03-07T16:42:30.000Z</Time>
            <Position>
              <LatitudeDegrees>40.699751414358615875244140625</LatitudeDegrees>
              <LongitudeDegrees>-3.93108216114342212677001953125</LongitudeDegrees>
            </Position>
            <AltitudeMeters>942.79998779296875</AltitudeMeters>
            <DistanceMeters>NAN</DistanceMeters>
          </Trackpoint>
          <Trackpoint>
            <Time>2020-03-07T16:42:31.000Z</Time>
            <Position>
              <LatitudeDegrees>40.69973506964743137359619140625</LatitudeDegrees>
              <LongitudeDegrees>-3.9311407506465911865234375</LongitudeDegrees>
            </Position>
            <AltitudeMeters>943.20001220703125</AltitudeMeters>
            <DistanceMeters>NAN</DistanceMeters>
          </Trackpoint>
          <Trackpoint>
            <Time>2020-03-07T16:42:32.000Z</Time>
            <Position>
              <LatitudeDegrees>40.699721239507198333740234375</LatitudeDegrees>
              <LongitudeDegrees>-3.931198753416538238525390625</LongitudeDegrees>
            </Position>
            <AltitudeMeters>943.4000244140625</AltitudeMeters>
            <DistanceMeters>NAN</DistanceMeters>
          </Trackpoint>
          <Trackpoint>
            <Time>2020-03-07T16:42:33.000Z</Time>
            <Position>
              <LatitudeDegrees>40.6997100077569484710693359375</LatitudeDegrees>
              <LongitudeDegrees>-3.93125851638615131378173828125</LongitudeDegrees>
            </Position>
            <AltitudeMeters>943.4000244140625</AltitudeMeters>
            <DistanceMeters>NAN</DistanceMeters>
          </Trackpoint>
          <Trackpoint>
            <Time>2020-03-07T16:42:34.000Z</Time>
            <Position>
              <LatitudeDegrees>40.6997001171112060546875</LatitudeDegrees>
              <LongitudeDegrees>-3.93131844699382781982421875</LongitudeDegrees>
            </Position>
            <AltitudeMeters>943.79998779296875</AltitudeMeters>
            <DistanceMeters>NAN</DistanceMeters>
          </Trackpoint>
          <Trackpoint>
            <Time>2020-03-07T16:42:35.000Z</Time>
            <Position>
              <LatitudeDegrees>40.69968913681805133819580078125</LatitudeDegrees>
              <LongitudeDegrees>-3.93137720413506031036376953125</LongitudeDegrees>
            </Position>
            <AltitudeMeters>943.79998779296875</AltitudeMeters>
            <DistanceMeters>NAN</DistanceMeters>
          </Trackpoint>
          <Trackpoint>
            <Time>2020-03-07T16:42:36.000Z</Time>
            <Position>
              <LatitudeDegrees>40.69967254064977169036865234375</LatitudeDegrees>
              <LongitudeDegrees>-3.9314316026866436004638671875</LongitudeDegrees>
            </Position>
            <AltitudeMeters>944</AltitudeMeters>
            <DistanceMeters>NAN</DistanceMeters>
          </Trackpoint>
          <Trackpoint>
            <Time>2020-03-07T16:42:37.000Z</Time>
            <Position>
              <LatitudeDegrees>40.6996496580541133880615234375</LatitudeDegrees>
              <LongitudeDegrees>-3.93148046918213367462158203125</LongitudeDegrees>
            </Position>
            <AltitudeMeters>944.20001220703125</AltitudeMeters>
            <DistanceMeters>NAN</DistanceMeters>
          </Trackpoint>
          <Trackpoint>
            <Time>2020-03-07T16:42:38.000Z</Time>
            <Position>
              <LatitudeDegrees>40.6996214948594570159912109375</LatitudeDegrees>
              <LongitudeDegrees>-3.93152355216443538665771484375</LongitudeDegrees>
            </Position>
            <AltitudeMeters>944.5999755859375</AltitudeMeters>
            <DistanceMeters>NAN</DistanceMeters>
          </Trackpoint>
          <Trackpoint>
            <Time>2020-03-07T16:42:39.000Z</Time>
            <Position>
              <LatitudeDegrees>40.69958754815161228179931640625</LatitudeDegrees>
              <LongitudeDegrees>-3.93155942671000957489013671875</LongitudeDegrees>
            </Position>
            <AltitudeMeters>944.79998779296875</AltitudeMeters>
            <DistanceMeters>NAN</DistanceMeters>
          </Trackpoint>
          <Trackpoint>
            <Time>2020-03-07T16:42:40.000Z</Time>
            <Position>
              <LatitudeDegrees>40.6995484046638011932373046875</LatitudeDegrees>
              <LongitudeDegrees>-3.93158423714339733123779296875</LongitudeDegrees>
            </Position>
            <AltitudeMeters>945.5999755859375</AltitudeMeters>
            <DistanceMeters>NAN</DistanceMeters>
          </Trackpoint>
          <Trackpoint>
            <Time>2020-03-07T16:42:41.000Z</Time>
            <Position>
              <LatitudeDegrees>40.69950574077665805816650390625</LatitudeDegrees>
              <LongitudeDegrees>-3.93159647472202777862548828125</LongitudeDegrees>
            </Position>
            <AltitudeMeters>945.79998779296875</AltitudeMeters>
            <DistanceMeters>NAN</DistanceMeters>
          </Trackpoint>
          <Trackpoint>
            <Time>2020-03-07T16:42:42.000Z</Time>
            <Position>
              <LatitudeDegrees>40.69946232251822948455810546875</LatitudeDegrees>
              <LongitudeDegrees>-3.93159781582653522491455078125</LongitudeDegrees>
            </Position>
            <AltitudeMeters>945.79998779296875</AltitudeMeters>
            <DistanceMeters>NAN</DistanceMeters>
          </Trackpoint>
          <Trackpoint>
            <Time>2020-03-07T16:42:43.000Z</Time>
            <Position>
              <LatitudeDegrees>40.69942007772624492645263671875</LatitudeDegrees>
              <LongitudeDegrees>-3.93158775754272937774658203125</LongitudeDegrees>
            </Position>
            <AltitudeMeters>946</AltitudeMeters>
            <DistanceMeters>NAN</DistanceMeters>
          </Trackpoint>
          <Trackpoint>
            <Time>2020-03-07T16:42:44.000Z</Time>
            <Position>
              <LatitudeDegrees>40.69937984459102153778076171875</LatitudeDegrees>
              <LongitudeDegrees>-3.93156847916543483734130859375</LongitudeDegrees>
            </Position>
            <AltitudeMeters>946</AltitudeMeters>
            <DistanceMeters>NAN</DistanceMeters>
          </Trackpoint>
          <Trackpoint>
            <Time>2020-03-07T16:42:45.000Z</Time>
            <Position>
              <LatitudeDegrees>40.6993420422077178955078125</LatitudeDegrees>
              <LongitudeDegrees>-3.93154232762753963470458984375</LongitudeDegrees>
            </Position>
            <AltitudeMeters>946.20001220703125</AltitudeMeters>
            <DistanceMeters>NAN</DistanceMeters>
          </Trackpoint>
          <Trackpoint>
            <Time>2020-03-07T16:42:46.000Z</Time>
            <Position>
              <LatitudeDegrees>40.69930708967149257659912109375</LatitudeDegrees>
              <LongitudeDegrees>-3.9315100573003292083740234375</LongitudeDegrees>
            </Position>
            <AltitudeMeters>946.4000244140625</AltitudeMeters>
            <DistanceMeters>NAN</DistanceMeters>
          </Trackpoint>
          <Trackpoint>
            <Time>2020-03-07T16:42:47.000Z</Time>
            <Position>
              <LatitudeDegrees>40.69927624426782131195068359375</LatitudeDegrees>
              <LongitudeDegrees>-3.9314674772322177886962890625</LongitudeDegrees>
            </Position>
            <AltitudeMeters>946.5999755859375</AltitudeMeters>
            <DistanceMeters>NAN</DistanceMeters>
          </Trackpoint>
          <Trackpoint>
            <Time>2020-03-07T16:42:48.000Z</Time>
            <Position>
              <LatitudeDegrees>40.69925243966281414031982421875</LatitudeDegrees>
              <LongitudeDegrees>-3.9314155094325542449951171875</LongitudeDegrees>
            </Position>
            <AltitudeMeters>946.5999755859375</AltitudeMeters>
            <DistanceMeters>NAN</DistanceMeters>
          </Trackpoint>
          <Trackpoint>
            <Time>2020-03-07T16:42:49.000Z</Time>
            <Position>
              <LatitudeDegrees>40.6992365978658199310302734375</LatitudeDegrees>
              <LongitudeDegrees>-3.931355662643909454345703125</LongitudeDegrees>
            </Position>
            <AltitudeMeters>946.5999755859375</AltitudeMeters>
            <DistanceMeters>NAN</DistanceMeters>
          </Trackpoint>
          <Trackpoint>
            <Time>2020-03-07T16:42:50.000Z</Time>
            <Position>
              <LatitudeDegrees>40.69923550821840763092041015625</LatitudeDegrees>
              <LongitudeDegrees>-3.93129606731235980987548828125</LongitudeDegrees>
            </Position>
            <AltitudeMeters>946.5999755859375</AltitudeMeters>
            <DistanceMeters>NAN</DistanceMeters>
          </Trackpoint>
          <Trackpoint>
            <Time>2020-03-07T16:42:51.000Z</Time>
            <Position>
              <LatitudeDegrees>40.6992479972541332244873046875</LatitudeDegrees>
              <LongitudeDegrees>-3.93123135901987552642822265625</LongitudeDegrees>
            </Position>
            <AltitudeMeters>946.5999755859375</AltitudeMeters>
            <DistanceMeters>NAN</DistanceMeters>
          </Trackpoint>
          <Trackpoint>
            <Time>2020-03-07T16:42:52.000Z</Time>
            <Position>
              <LatitudeDegrees>40.6992721371352672576904296875</LatitudeDegrees>
              <LongitudeDegrees>-3.9311633817851543426513671875</LongitudeDegrees>
            </Position>
            <AltitudeMeters>946.5999755859375</AltitudeMeters>
            <DistanceMeters>NAN</DistanceMeters>
          </Trackpoint>
          <Trackpoint>
            <Time>2020-03-07T16:42:53.000Z</Time>
            <Position>
              <LatitudeDegrees>40.69931077770888805389404296875</LatitudeDegrees>
              <LongitudeDegrees>-3.93110252916812896728515625</LongitudeDegrees>
            </Position>
            <AltitudeMeters>946.5999755859375</AltitudeMeters>
            <DistanceMeters>NAN</DistanceMeters>
          </Trackpoint>
          <Trackpoint>
            <Time>2020-03-07T16:42:54.000Z</Time>
            <Position>
              <LatitudeDegrees>40.69935687817633152008056640625</LatitudeDegrees>
              <LongitudeDegrees>-3.93104779534041881561279296875</LongitudeDegrees>
            </Position>
            <AltitudeMeters>946.5999755859375</AltitudeMeters>
            <DistanceMeters>NAN</DistanceMeters>
          </Trackpoint>
          <Trackpoint>
            <Time>2020-03-07T16:42:55.000Z</Time>
            <Position>
              <LatitudeDegrees>40.69941219873726367950439453125</LatitudeDegrees>
              <LongitudeDegrees>-3.931004963815212249755859375</LongitudeDegrees>
            </Position>
            <AltitudeMeters>946.5999755859375</AltitudeMeters>
            <DistanceMeters>NAN</DistanceMeters>
          </Trackpoint>
          <Trackpoint>
            <Time>2020-03-07T16:42:56.000Z</Time>
            <Position>
              <LatitudeDegrees>40.6994712911546230316162109375</LatitudeDegrees>
              <LongitudeDegrees>-3.9309716038405895233154296875</LongitudeDegrees>
            </Position>
            <AltitudeMeters>946.5999755859375</AltitudeMeters>
            <DistanceMeters>NAN</DistanceMeters>
          </Trackpoint>
          <Trackpoint>
            <Time>2020-03-07T16:42:57.000Z</Time>
            <Position>
              <LatitudeDegrees>40.6995323114097118377685546875</LatitudeDegrees>
              <LongitudeDegrees>-3.9309431053698062896728515625</LongitudeDegrees>
            </Position>
            <AltitudeMeters>946.5999755859375</AltitudeMeters>
            <DistanceMeters>NAN</DistanceMeters>
          </Trackpoint>
          <Trackpoint>
            <Time>2020-03-07T16:42:58.000Z</Time>
            <Position>
              <LatitudeDegrees>40.6995946727693080902099609375</LatitudeDegrees>
              <LongitudeDegrees>-3.93091334961354732513427734375</LongitudeDegrees>
            </Position>
            <AltitudeMeters>946.4000244140625</AltitudeMeters>
            <DistanceMeters>NAN</DistanceMeters>
          </Trackpoint>
          <Trackpoint>
            <Time>2020-03-07T16:42:59.000Z</Time>
            <Position>
              <LatitudeDegrees>40.699658207595348358154296875</LatitudeDegrees>
              <LongitudeDegrees>-3.9308807440102100372314453125</LongitudeDegrees>
            </Position>
            <AltitudeMeters>946.20001220703125</AltitudeMeters>
            <DistanceMeters>NAN</DistanceMeters>
          </Trackpoint>
          <Trackpoint>
            <Time>2020-03-07T16:43:00.000Z</Time>
            <Position>
              <LatitudeDegrees>40.699719898402690887451171875</LatitudeDegrees>
              <LongitudeDegrees>-3.930835314095020294189453125</LongitudeDegrees>
            </Position>
            <AltitudeMeters>946</AltitudeMeters>
            <DistanceMeters>NAN</DistanceMeters>
          </Trackpoint>
          <Trackpoint>
            <Time>2020-03-07T16:43:01.000Z</Time>
            <Position>
              <LatitudeDegrees>40.6997777335345745086669921875</LatitudeDegrees>
              <LongitudeDegrees>-3.9307761378586292266845703125</LongitudeDegrees>
            </Position>
            <AltitudeMeters>945.79998779296875</AltitudeMeters>
            <DistanceMeters>NAN</DistanceMeters>
          </Trackpoint>
          <Trackpoint>
            <Time>2020-03-07T16:43:02.000Z</Time>
            <Position>
              <LatitudeDegrees>40.6998310424387454986572265625</LatitudeDegrees>
              <LongitudeDegrees>-3.93070396967232227325439453125</LongitudeDegrees>
            </Position>
            <AltitudeMeters>945.5999755859375</AltitudeMeters>
            <DistanceMeters>NAN</DistanceMeters>
          </Trackpoint>
          <Trackpoint>
            <Time>2020-03-07T16:43:03.000Z</Time>
            <Position>
              <LatitudeDegrees>40.69987873546779155731201171875</LatitudeDegrees>
              <LongitudeDegrees>-3.93062132410705089569091796875</LongitudeDegrees>
            </Position>
            <AltitudeMeters>945</AltitudeMeters>
            <DistanceMeters>NAN</DistanceMeters>
          </Trackpoint>
          <Trackpoint>
            <Time>2020-03-07T16:43:04.000Z</Time>
            <Position>
              <LatitudeDegrees>40.6999215669929981231689453125</LatitudeDegrees>
              <LongitudeDegrees>-3.9305340684950351715087890625</LongitudeDegrees>
            </Position>
            <AltitudeMeters>944.79998779296875</AltitudeMeters>
            <DistanceMeters>NAN</DistanceMeters>
          </Trackpoint>
          <Trackpoint>
            <Time>2020-03-07T16:43:05.000Z</Time>
            <Position>
              <LatitudeDegrees>40.69996288977563381195068359375</LatitudeDegrees>
              <LongitudeDegrees>-3.9304485730826854705810546875</LongitudeDegrees>
            </Position>
            <AltitudeMeters>944.79998779296875</AltitudeMeters>
            <DistanceMeters>NAN</DistanceMeters>
          </Trackpoint>
          <Trackpoint>
            <Time>2020-03-07T16:43:06.000Z</Time>
            <Position>
              <LatitudeDegrees>40.70000546984374523162841796875</LatitudeDegrees>
              <LongitudeDegrees>-3.93036492168903350830078125</LongitudeDegrees>
            </Position>
            <AltitudeMeters>944.5999755859375</AltitudeMeters>
            <DistanceMeters>NAN</DistanceMeters>
          </Trackpoint>
          <Trackpoint>
            <Time>2020-03-07T16:43:07.000Z</Time>
            <Position>
              <LatitudeDegrees>40.70004922337830066680908203125</LatitudeDegrees>
              <LongitudeDegrees>-3.93028311431407928466796875</LongitudeDegrees>
            </Position>
            <AltitudeMeters>944</AltitudeMeters>
            <DistanceMeters>NAN</DistanceMeters>
          </Trackpoint>
          <Trackpoint>
            <Time>2020-03-07T16:43:08.000Z</Time>
            <Position>
              <LatitudeDegrees>40.70009104907512664794921875</LatitudeDegrees>
              <LongitudeDegrees>-3.930200636386871337890625</LongitudeDegrees>
            </Position>
            <AltitudeMeters>943.4000244140625</AltitudeMeters>
            <DistanceMeters>NAN</DistanceMeters>
          </Trackpoint>
          <Trackpoint>
            <Time>2020-03-07T16:43:09.000Z</Time>
            <Position>
              <LatitudeDegrees>40.70013463497161865234375</LatitudeDegrees>
              <LongitudeDegrees>-3.9301186613738536834716796875</LongitudeDegrees>
            </Position>
            <AltitudeMeters>943</AltitudeMeters>
            <DistanceMeters>NAN</DistanceMeters>
          </Trackpoint>
          <Trackpoint>
            <Time>2020-03-07T16:43:10.000Z</Time>
            <Position>
              <LatitudeDegrees>40.70017897523939609527587890625</LatitudeDegrees>
              <LongitudeDegrees>-3.93003861419856548309326171875</LongitudeDegrees>
            </Position>
            <AltitudeMeters>942.20001220703125</AltitudeMeters>
            <DistanceMeters>NAN</DistanceMeters>
          </Trackpoint>
          <Trackpoint>
            <Time>2020-03-07T16:43:11.000Z</Time>
            <Position>
              <LatitudeDegrees>40.7002233155071735382080078125</LatitudeDegrees>
              <LongitudeDegrees>-3.92995814792811870574951171875</LongitudeDegrees>
            </Position>
            <AltitudeMeters>941.5999755859375</AltitudeMeters>
            <DistanceMeters>NAN</DistanceMeters>
          </Trackpoint>
          <Trackpoint>
            <Time>2020-03-07T16:43:12.000Z</Time>
            <Position>
              <LatitudeDegrees>40.7002685777842998504638671875</LatitudeDegrees>
              <LongitudeDegrees>-3.929877094924449920654296875</LongitudeDegrees>
            </Position>
            <AltitudeMeters>941.20001220703125</AltitudeMeters>
            <DistanceMeters>NAN</DistanceMeters>
          </Trackpoint>
          <Trackpoint>
            <Time>2020-03-07T16:43:13.000Z</Time>
            <Position>
              <LatitudeDegrees>40.70031425915658473968505859375</LatitudeDegrees>
              <LongitudeDegrees>-3.9297954551875591278076171875</LongitudeDegrees>
            </Position>
            <AltitudeMeters>941</AltitudeMeters>
            <DistanceMeters>NAN</DistanceMeters>
          </Trackpoint>
          <Trackpoint>
            <Time>2020-03-07T16:43:14.000Z</Time>
            <Position>
              <LatitudeDegrees>40.7003604434430599212646484375</LatitudeDegrees>
              <LongitudeDegrees>-3.92971406690776348114013671875</LongitudeDegrees>
            </Position>
            <AltitudeMeters>940.5999755859375</AltitudeMeters>
            <DistanceMeters>NAN</DistanceMeters>
          </Trackpoint>
          <Trackpoint>
            <Time>2020-03-07T16:43:15.000Z</Time>
            <Position>
              <LatitudeDegrees>40.70040679536759853363037109375</LatitudeDegrees>
              <LongitudeDegrees>-3.92963192425668239593505859375</LongitudeDegrees>
            </Position>
            <AltitudeMeters>940.4000244140625</AltitudeMeters>
            <DistanceMeters>NAN</DistanceMeters>
          </Trackpoint>
          <Trackpoint>
            <Time>2020-03-07T16:43:16.000Z</Time>
            <Position>
              <LatitudeDegrees>40.70045172236859798431396484375</LatitudeDegrees>
              <LongitudeDegrees>-3.92954894341528415679931640625</LongitudeDegrees>
            </Position>
            <AltitudeMeters>940.20001220703125</AltitudeMeters>
            <DistanceMeters>NAN</DistanceMeters>
          </Trackpoint>
          <Trackpoint>
            <Time>2020-03-07T16:43:17.000Z</Time>
            <Position>
              <LatitudeDegrees>40.70049765519797801971435546875</LatitudeDegrees>
              <LongitudeDegrees>-3.929464705288410186767578125</LongitudeDegrees>
            </Position>
            <AltitudeMeters>940</AltitudeMeters>
            <DistanceMeters>NAN</DistanceMeters>
          </Trackpoint>
          <Trackpoint>
            <Time>2020-03-07T16:43:18.000Z</Time>
            <Position>
              <LatitudeDegrees>40.70054392330348491668701171875</LatitudeDegrees>
              <LongitudeDegrees>-3.92938055098056793212890625</LongitudeDegrees>
            </Position>
            <AltitudeMeters>939.5999755859375</AltitudeMeters>
            <DistanceMeters>NAN</DistanceMeters>
          </Trackpoint>
          <Trackpoint>
            <Time>2020-03-07T16:43:19.000Z</Time>
            <Position>
              <LatitudeDegrees>40.7005891017615795135498046875</LatitudeDegrees>
              <LongitudeDegrees>-3.92929648049175739288330078125</LongitudeDegrees>
            </Position>
            <AltitudeMeters>939.4000244140625</AltitudeMeters>
            <DistanceMeters>NAN</DistanceMeters>
          </Trackpoint>
          <Trackpoint>
            <Time>2020-03-07T16:43:20.000Z</Time>
            <Position>
              <LatitudeDegrees>40.70063662715256214141845703125</LatitudeDegrees>
              <LongitudeDegrees>-3.92921299673616886138916015625</LongitudeDegrees>
            </Position>
            <AltitudeMeters>939.20001220703125</AltitudeMeters>
            <DistanceMeters>NAN</DistanceMeters>
          </Trackpoint>
          <Trackpoint>
            <Time>2020-03-07T16:43:21.000Z</Time>
            <Position>
              <LatitudeDegrees>40.7006853260099887847900390625</LatitudeDegrees>
              <LongitudeDegrees>-3.92912867479026317596435546875</LongitudeDegrees>
            </Position>
            <AltitudeMeters>939</AltitudeMeters>
            <DistanceMeters>NAN</DistanceMeters>
          </Trackpoint>
          <Trackpoint>
            <Time>2020-03-07T16:43:22.000Z</Time>
            <Position>
              <LatitudeDegrees>40.7007319293916225433349609375</LatitudeDegrees>
              <LongitudeDegrees>-3.92904368229210376739501953125</LongitudeDegrees>
            </Position>
            <AltitudeMeters>938.79998779296875</AltitudeMeters>
            <DistanceMeters>NAN</DistanceMeters>
          </Trackpoint>
          <Trackpoint>
            <Time>2020-03-07T16:43:23.000Z</Time>
            <Position>
              <LatitudeDegrees>40.70077979005873203277587890625</LatitudeDegrees>
              <LongitudeDegrees>-3.92895801924169063568115234375</LongitudeDegrees>
            </Position>
            <AltitudeMeters>938.79998779296875</AltitudeMeters>
            <DistanceMeters>NAN</DistanceMeters>
          </Trackpoint>
          <Trackpoint>
            <Time>2020-03-07T16:43:24.000Z</Time>
            <Position>
              <LatitudeDegrees>40.70082773454487323760986328125</LatitudeDegrees>
              <LongitudeDegrees>-3.92887093126773834228515625</LongitudeDegrees>
            </Position>
            <AltitudeMeters>938.4000244140625</AltitudeMeters>
            <DistanceMeters>NAN</DistanceMeters>
          </Trackpoint>
          <Trackpoint>
            <Time>2020-03-07T16:43:25.000Z</Time>
            <Position>
              <LatitudeDegrees>40.70087651722133159637451171875</LatitudeDegrees>
              <LongitudeDegrees>-3.92878350801765918731689453125</LongitudeDegrees>
            </Position>
            <AltitudeMeters>938</AltitudeMeters>
            <DistanceMeters>NAN</DistanceMeters>
          </Trackpoint>
          <Trackpoint>
            <Time>2020-03-07T16:43:26.000Z</Time>
            <Position>
              <LatitudeDegrees>40.70092261768877506256103515625</LatitudeDegrees>
              <LongitudeDegrees>-3.928694240748882293701171875</LongitudeDegrees>
            </Position>
            <AltitudeMeters>937.79998779296875</AltitudeMeters>
            <DistanceMeters>NAN</DistanceMeters>
          </Trackpoint>
          <Trackpoint>
            <Time>2020-03-07T16:43:27.000Z</Time>
            <Position>
              <LatitudeDegrees>40.70096871815621852874755859375</LatitudeDegrees>
              <LongitudeDegrees>-3.9286060631275177001953125</LongitudeDegrees>
            </Position>
            <AltitudeMeters>937.4000244140625</AltitudeMeters>
            <DistanceMeters>NAN</DistanceMeters>
          </Trackpoint>
          <Trackpoint>
            <Time>2020-03-07T16:43:28.000Z</Time>
            <Position>
              <LatitudeDegrees>40.7010145671665668487548828125</LatitudeDegrees>
              <LongitudeDegrees>-3.92852132208645343780517578125</LongitudeDegrees>
            </Position>
            <AltitudeMeters>937</AltitudeMeters>
            <DistanceMeters>NAN</DistanceMeters>
          </Trackpoint>
          <Trackpoint>
            <Time>2020-03-07T16:43:29.000Z</Time>
            <Position>
              <LatitudeDegrees>40.70105941034853458404541015625</LatitudeDegrees>
              <LongitudeDegrees>-3.92843767069280147552490234375</LongitudeDegrees>
            </Position>
            <AltitudeMeters>936.79998779296875</AltitudeMeters>
            <DistanceMeters>NAN</DistanceMeters>
          </Trackpoint>
          <Trackpoint>
            <Time>2020-03-07T16:43:30.000Z</Time>
            <Position>
              <LatitudeDegrees>40.70110500790178775787353515625</LatitudeDegrees>
              <LongitudeDegrees>-3.9283544383943080902099609375</LongitudeDegrees>
            </Position>
            <AltitudeMeters>936.5999755859375</AltitudeMeters>
            <DistanceMeters>NAN</DistanceMeters>
          </Trackpoint>
          <Trackpoint>
            <Time>2020-03-07T16:43:31.000Z</Time>
            <Position>
              <LatitudeDegrees>40.70114943198859691619873046875</LatitudeDegrees>
              <LongitudeDegrees>-3.92827036790549755096435546875</LongitudeDegrees>
            </Position>
            <AltitudeMeters>936.4000244140625</AltitudeMeters>
            <DistanceMeters>NAN</DistanceMeters>
          </Trackpoint>
          <Trackpoint>
            <Time>2020-03-07T16:43:32.000Z</Time>
            <Position>
              <LatitudeDegrees>40.70119184441864490509033203125</LatitudeDegrees>
              <LongitudeDegrees>-3.9281851239502429962158203125</LongitudeDegrees>
            </Position>
            <AltitudeMeters>936.20001220703125</AltitudeMeters>
            <DistanceMeters>NAN</DistanceMeters>
          </Trackpoint>
          <Trackpoint>
            <Time>2020-03-07T16:43:33.000Z</Time>
            <Position>
              <LatitudeDegrees>40.70123442448675632476806640625</LatitudeDegrees>
              <LongitudeDegrees>-3.9281002990901470184326171875</LongitudeDegrees>
            </Position>
            <AltitudeMeters>936</AltitudeMeters>
            <DistanceMeters>NAN</DistanceMeters>
          </Trackpoint>
          <Trackpoint>
            <Time>2020-03-07T16:43:34.000Z</Time>
            <Position>
              <LatitudeDegrees>40.70127432234585285186767578125</LatitudeDegrees>
              <LongitudeDegrees>-3.92801321111619472503662109375</LongitudeDegrees>
            </Position>
            <AltitudeMeters>935.79998779296875</AltitudeMeters>
            <DistanceMeters>NAN</DistanceMeters>
          </Trackpoint>
          <Trackpoint>
            <Time>2020-03-07T16:43:35.000Z</Time>
            <Position>
              <LatitudeDegrees>40.70130969397723674774169921875</LatitudeDegrees>
              <LongitudeDegrees>-3.92792285420000553131103515625</LongitudeDegrees>
            </Position>
            <AltitudeMeters>935.5999755859375</AltitudeMeters>
            <DistanceMeters>NAN</DistanceMeters>
          </Trackpoint>
          <Trackpoint>
            <Time>2020-03-07T16:43:36.000Z</Time>
            <Position>
              <LatitudeDegrees>40.70130969397723674774169921875</LatitudeDegrees>
              <LongitudeDegrees>-3.92792285420000553131103515625</LongitudeDegrees>
            </Position>
            <AltitudeMeters>935.5999755859375</AltitudeMeters>
            <DistanceMeters>NAN</DistanceMeters>
          </Trackpoint>
          <Trackpoint>
            <Time>2020-03-07T16:43:37.000Z</Time>
            <Position>
              <LatitudeDegrees>40.70134154520928859710693359375</LatitudeDegrees>
              <LongitudeDegrees>-3.92783015035092830657958984375</LongitudeDegrees>
            </Position>
            <AltitudeMeters>935.5999755859375</AltitudeMeters>
            <DistanceMeters>NAN</DistanceMeters>
          </Trackpoint>
          <Trackpoint>
            <Time>2020-03-07T16:43:38.000Z</Time>
            <Position>
              <LatitudeDegrees>40.701369456946849822998046875</LatitudeDegrees>
              <LongitudeDegrees>-3.9277348481118679046630859375</LongitudeDegrees>
            </Position>
            <AltitudeMeters>935.4000244140625</AltitudeMeters>
            <DistanceMeters>NAN</DistanceMeters>
          </Trackpoint>
          <Trackpoint>
            <Time>2020-03-07T16:43:39.000Z</Time>
            <Position>
              <LatitudeDegrees>40.701393596827983856201171875</LatitudeDegrees>
              <LongitudeDegrees>-3.92763837240636348724365234375</LongitudeDegrees>
            </Position>
            <AltitudeMeters>935.4000244140625</AltitudeMeters>
            <DistanceMeters>NAN</DistanceMeters>
          </Trackpoint>
          <Trackpoint>
            <Time>2020-03-07T16:43:40.000Z</Time>
            <Position>
              <LatitudeDegrees>40.7014329917728900909423828125</LatitudeDegrees>
              <LongitudeDegrees>-3.9274414815008640289306640625</LongitudeDegrees>
            </Position>
            <AltitudeMeters>935.4000244140625</AltitudeMeters>
            <DistanceMeters>NAN</DistanceMeters>
          </Trackpoint>
          <Trackpoint>
            <Time>2020-03-07T16:43:41.000Z</Time>
            <Position>
              <LatitudeDegrees>40.70144799537956714630126953125</LatitudeDegrees>
              <LongitudeDegrees>-3.9273415692150592803955078125</LongitudeDegrees>
            </Position>
            <AltitudeMeters>935.4000244140625</AltitudeMeters>
            <DistanceMeters>NAN</DistanceMeters>
          </Trackpoint>
          <Trackpoint>
            <Time>2020-03-07T16:43:42.000Z</Time>
            <Position>
              <LatitudeDegrees>40.70146140642464160919189453125</LatitudeDegrees>
              <LongitudeDegrees>-3.92724224366247653961181640625</LongitudeDegrees>
            </Position>
            <AltitudeMeters>935.4000244140625</AltitudeMeters>
            <DistanceMeters>NAN</DistanceMeters>
          </Trackpoint>
          <Trackpoint>
            <Time>2020-03-07T16:43:43.000Z</Time>
            <Position>
              <LatitudeDegrees>40.70147347636520862579345703125</LatitudeDegrees>
              <LongitudeDegrees>-3.92714224755764007568359375</LongitudeDegrees>
            </Position>
            <AltitudeMeters>935.20001220703125</AltitudeMeters>
            <DistanceMeters>NAN</DistanceMeters>
          </Trackpoint>
          <Trackpoint>
            <Time>2020-03-07T16:43:44.000Z</Time>
            <Position>
              <LatitudeDegrees>40.70147347636520862579345703125</LatitudeDegrees>
              <LongitudeDegrees>-3.92714224755764007568359375</LongitudeDegrees>
            </Position>
            <AltitudeMeters>935.20001220703125</AltitudeMeters>
            <DistanceMeters>NAN</DistanceMeters>
          </Trackpoint>
          <Trackpoint>
            <Time>2020-03-07T16:43:45.000Z</Time>
            <Position>
              <LatitudeDegrees>40.701494850218296051025390625</LatitudeDegrees>
              <LongitudeDegrees>-3.92694376409053802490234375</LongitudeDegrees>
            </Position>
            <AltitudeMeters>935.20001220703125</AltitudeMeters>
            <DistanceMeters>NAN</DistanceMeters>
          </Trackpoint>
          <Trackpoint>
            <Time>2020-03-07T16:43:46.000Z</Time>
            <Position>
              <LatitudeDegrees>40.7015050761401653289794921875</LatitudeDegrees>
              <LongitudeDegrees>-3.926846198737621307373046875</LongitudeDegrees>
            </Position>
            <AltitudeMeters>935.20001220703125</AltitudeMeters>
            <DistanceMeters>NAN</DistanceMeters>
          </Trackpoint>
          <Trackpoint>
            <Time>2020-03-07T16:43:47.000Z</Time>
            <Position>
              <LatitudeDegrees>40.70151505060493946075439453125</LatitudeDegrees>
              <LongitudeDegrees>-3.9267481304705142974853515625</LongitudeDegrees>
            </Position>
            <AltitudeMeters>935.20001220703125</AltitudeMeters>
            <DistanceMeters>NAN</DistanceMeters>
          </Trackpoint>
          <Trackpoint>
            <Time>2020-03-07T16:43:48.000Z</Time>
            <Position>
              <LatitudeDegrees>40.701524354517459869384765625</LatitudeDegrees>
              <LongitudeDegrees>-3.9266505651175975799560546875</LongitudeDegrees>
            </Position>
            <AltitudeMeters>935.20001220703125</AltitudeMeters>
            <DistanceMeters>NAN</DistanceMeters>
          </Trackpoint>
          <Trackpoint>
            <Time>2020-03-07T16:43:49.000Z</Time>
            <Position>
              <LatitudeDegrees>40.70153382606804370880126953125</LatitudeDegrees>
              <LongitudeDegrees>-3.926553837954998016357421875</LongitudeDegrees>
            </Position>
            <AltitudeMeters>935</AltitudeMeters>
            <DistanceMeters>NAN</DistanceMeters>
          </Trackpoint>
          <Trackpoint>
            <Time>2020-03-07T16:43:50.000Z</Time>
            <Position>
              <LatitudeDegrees>40.70153382606804370880126953125</LatitudeDegrees>
              <LongitudeDegrees>-3.926553837954998016357421875</LongitudeDegrees>
            </Position>
            <AltitudeMeters>935</AltitudeMeters>
            <DistanceMeters>NAN</DistanceMeters>
          </Trackpoint>
          <Trackpoint>
            <Time>2020-03-07T16:43:51.000Z</Time>
            <Position>
              <LatitudeDegrees>40.7015580497682094573974609375</LatitudeDegrees>
              <LongitudeDegrees>-3.92636097036302089691162109375</LongitudeDegrees>
            </Position>
            <AltitudeMeters>935</AltitudeMeters>
            <DistanceMeters>NAN</DistanceMeters>
          </Trackpoint>
          <Trackpoint>
            <Time>2020-03-07T16:43:52.000Z</Time>
            <Position>
              <LatitudeDegrees>40.70157372392714023590087890625</LatitudeDegrees>
              <LongitudeDegrees>-3.92626441083848476409912109375</LongitudeDegrees>
            </Position>
            <AltitudeMeters>935</AltitudeMeters>
            <DistanceMeters>NAN</DistanceMeters>
          </Trackpoint>
          <Trackpoint>
            <Time>2020-03-07T16:43:53.000Z</Time>
            <Position>
              <LatitudeDegrees>40.7015915773808956146240234375</LatitudeDegrees>
              <LongitudeDegrees>-3.926167599856853485107421875</LongitudeDegrees>
            </Position>
            <AltitudeMeters>934.79998779296875</AltitudeMeters>
            <DistanceMeters>NAN</DistanceMeters>
          </Trackpoint>
          <Trackpoint>
            <Time>2020-03-07T16:43:54.000Z</Time>
            <Position>
              <LatitudeDegrees>40.70161161012947559356689453125</LatitudeDegrees>
              <LongitudeDegrees>-3.92607078887522220611572265625</LongitudeDegrees>
            </Position>
            <AltitudeMeters>934.79998779296875</AltitudeMeters>
            <DistanceMeters>NAN</DistanceMeters>
          </Trackpoint>
          <Trackpoint>
            <Time>2020-03-07T16:43:55.000Z</Time>
            <Position>
              <LatitudeDegrees>40.701632983982563018798828125</LatitudeDegrees>
              <LongitudeDegrees>-3.92597414553165435791015625</LongitudeDegrees>
            </Position>
            <AltitudeMeters>934.79998779296875</AltitudeMeters>
            <DistanceMeters>NAN</DistanceMeters>
          </Trackpoint>
          <Trackpoint>
            <Time>2020-03-07T16:43:56.000Z</Time>
            <Position>
              <LatitudeDegrees>40.7016576267778873443603515625</LatitudeDegrees>
              <LongitudeDegrees>-3.92587850801646709442138671875</LongitudeDegrees>
            </Position>
            <AltitudeMeters>934.79998779296875</AltitudeMeters>
            <DistanceMeters>NAN</DistanceMeters>
          </Trackpoint>
          <Trackpoint>
            <Time>2020-03-07T16:43:57.000Z</Time>
            <Position>
              <LatitudeDegrees>40.7016837783157825469970703125</LatitudeDegrees>
              <LongitudeDegrees>-3.92578312195837497711181640625</LongitudeDegrees>
            </Position>
            <AltitudeMeters>934.79998779296875</AltitudeMeters>
            <DistanceMeters>NAN</DistanceMeters>
          </Trackpoint>
          <Trackpoint>
            <Time>2020-03-07T16:43:58.000Z</Time>
            <Position>
              <LatitudeDegrees>40.70171236060559749603271484375</LatitudeDegrees>
              <LongitudeDegrees>-3.9256876520812511444091796875</LongitudeDegrees>
            </Position>
            <AltitudeMeters>934.79998779296875</AltitudeMeters>
            <DistanceMeters>NAN</DistanceMeters>
          </Trackpoint>
          <Trackpoint>
            <Time>2020-03-07T16:43:59.000Z</Time>
            <Position>
              <LatitudeDegrees>40.701742954552173614501953125</LatitudeDegrees>
              <LongitudeDegrees>-3.92559100873768329620361328125</LongitudeDegrees>
            </Position>
            <AltitudeMeters>934.79998779296875</AltitudeMeters>
            <DistanceMeters>NAN</DistanceMeters>
          </Trackpoint>
          <Trackpoint>
            <Time>2020-03-07T16:44:00.000Z</Time>
            <Position>
              <LatitudeDegrees>40.70177405141294002532958984375</LatitudeDegrees>
              <LongitudeDegrees>-3.925493694841861724853515625</LongitudeDegrees>
            </Position>
            <AltitudeMeters>934.79998779296875</AltitudeMeters>
            <DistanceMeters>NAN</DistanceMeters>
          </Trackpoint>
          <Trackpoint>
            <Time>2020-03-07T16:44:01.000Z</Time>
            <Position>
              <LatitudeDegrees>40.70180607028305530548095703125</LatitudeDegrees>
              <LongitudeDegrees>-3.9253959618508815765380859375</LongitudeDegrees>
            </Position>
            <AltitudeMeters>934.79998779296875</AltitudeMeters>
            <DistanceMeters>NAN</DistanceMeters>
          </Trackpoint>
          <Trackpoint>
            <Time>2020-03-07T16:44:02.000Z</Time>
            <Position>
              <LatitudeDegrees>40.701838843524456024169921875</LatitudeDegrees>
              <LongitudeDegrees>-3.9252973906695842742919921875</LongitudeDegrees>
            </Position>
            <AltitudeMeters>934.5999755859375</AltitudeMeters>
            <DistanceMeters>NAN</DistanceMeters>
          </Trackpoint>
          <Trackpoint>
            <Time>2020-03-07T16:44:03.000Z</Time>
            <Position>
              <LatitudeDegrees>40.70187245495617389678955078125</LatitudeDegrees>
              <LongitudeDegrees>-3.9251983165740966796875</LongitudeDegrees>
            </Position>
            <AltitudeMeters>934.5999755859375</AltitudeMeters>
            <DistanceMeters>NAN</DistanceMeters>
          </Trackpoint>
          <Trackpoint>
            <Time>2020-03-07T16:44:04.000Z</Time>
            <Position>
              <LatitudeDegrees>40.7019057311117649078369140625</LatitudeDegrees>
              <LongitudeDegrees>-3.92509982921183109283447265625</LongitudeDegrees>
            </Position>
            <AltitudeMeters>934.5999755859375</AltitudeMeters>
            <DistanceMeters>NAN</DistanceMeters>
          </Trackpoint>
          <Trackpoint>
            <Time>2020-03-07T16:44:05.000Z</Time>
            <Position>
              <LatitudeDegrees>40.7019384205341339111328125</LatitudeDegrees>
              <LongitudeDegrees>-3.9250013418495655059814453125</LongitudeDegrees>
            </Position>
            <AltitudeMeters>934.5999755859375</AltitudeMeters>
            <DistanceMeters>NAN</DistanceMeters>
          </Trackpoint>
          <Trackpoint>
            <Time>2020-03-07T16:44:06.000Z</Time>
            <Position>
              <LatitudeDegrees>40.7019704394042491912841796875</LatitudeDegrees>
              <LongitudeDegrees>-3.92490386031568050384521484375</LongitudeDegrees>
            </Position>
            <AltitudeMeters>934.4000244140625</AltitudeMeters>
            <DistanceMeters>NAN</DistanceMeters>
          </Trackpoint>
          <Trackpoint>
            <Time>2020-03-07T16:44:07.000Z</Time>
            <Position>
              <LatitudeDegrees>40.7020036317408084869384765625</LatitudeDegrees>
              <LongitudeDegrees>-3.92480671405792236328125</LongitudeDegrees>
            </Position>
            <AltitudeMeters>934.20001220703125</AltitudeMeters>
            <DistanceMeters>NAN</DistanceMeters>
          </Trackpoint>
          <Trackpoint>
            <Time>2020-03-07T16:44:08.000Z</Time>
            <Position>
              <LatitudeDegrees>40.7020371593534946441650390625</LatitudeDegrees>
              <LongitudeDegrees>-3.92470923252403736114501953125</LongitudeDegrees>
            </Position>
            <AltitudeMeters>934</AltitudeMeters>
            <DistanceMeters>NAN</DistanceMeters>
          </Trackpoint>
          <Trackpoint>
            <Time>2020-03-07T16:44:09.000Z</Time>
            <Position>
              <LatitudeDegrees>40.70207077078521251678466796875</LatitudeDegrees>
              <LongitudeDegrees>-3.9246114157140254974365234375</LongitudeDegrees>
            </Position>
            <AltitudeMeters>934</AltitudeMeters>
            <DistanceMeters>NAN</DistanceMeters>
          </Trackpoint>
          <Trackpoint>
            <Time>2020-03-07T16:44:10.000Z</Time>
            <Position>
              <LatitudeDegrees>40.70210547186434268951416015625</LatitudeDegrees>
              <LongitudeDegrees>-3.92451326362788677215576171875</LongitudeDegrees>
            </Position>
            <AltitudeMeters>933.79998779296875</AltitudeMeters>
            <DistanceMeters>NAN</DistanceMeters>
          </Trackpoint>
          <Trackpoint>
            <Time>2020-03-07T16:44:11.000Z</Time>
            <Position>
              <LatitudeDegrees>40.7021397538483142852783203125</LatitudeDegrees>
              <LongitudeDegrees>-3.92441435717046260833740234375</LongitudeDegrees>
            </Position>
            <AltitudeMeters>933.4000244140625</AltitudeMeters>
            <DistanceMeters>NAN</DistanceMeters>
          </Trackpoint>
          <Trackpoint>
            <Time>2020-03-07T16:44:12.000Z</Time>
            <Position>
              <LatitudeDegrees>40.70217370055615901947021484375</LatitudeDegrees>
              <LongitudeDegrees>-3.92431394197046756744384765625</LongitudeDegrees>
            </Position>
            <AltitudeMeters>933.20001220703125</AltitudeMeters>
            <DistanceMeters>NAN</DistanceMeters>
          </Trackpoint>
          <Trackpoint>
            <Time>2020-03-07T16:44:13.000Z</Time>
            <Position>
              <LatitudeDegrees>40.702207647264003753662109375</LatitudeDegrees>
              <LongitudeDegrees>-3.92421218566596508026123046875</LongitudeDegrees>
            </Position>
            <AltitudeMeters>933.20001220703125</AltitudeMeters>
            <DistanceMeters>NAN</DistanceMeters>
          </Trackpoint>
          <Trackpoint>
            <Time>2020-03-07T16:44:14.000Z</Time>
            <Position>
              <LatitudeDegrees>40.70224226452410221099853515625</LatitudeDegrees>
              <LongitudeDegrees>-3.92411026172339916229248046875</LongitudeDegrees>
            </Position>
            <AltitudeMeters>933</AltitudeMeters>
            <DistanceMeters>NAN</DistanceMeters>
          </Trackpoint>
          <Trackpoint>
            <Time>2020-03-07T16:44:15.000Z</Time>
            <Position>
              <LatitudeDegrees>40.7022772170603275299072265625</LatitudeDegrees>
              <LongitudeDegrees>-3.92400900833308696746826171875</LongitudeDegrees>
            </Position>
            <AltitudeMeters>933</AltitudeMeters>
            <DistanceMeters>NAN</DistanceMeters>
          </Trackpoint>
          <Trackpoint>
            <Time>2020-03-07T16:44:16.000Z</Time>
            <Position>
              <LatitudeDegrees>40.70230982266366481781005859375</LatitudeDegrees>
              <LongitudeDegrees>-3.92390658147633075714111328125</LongitudeDegrees>
            </Position>
            <AltitudeMeters>932.79998779296875</AltitudeMeters>
            <DistanceMeters>NAN</DistanceMeters>
          </Trackpoint>
          <Trackpoint>
            <Time>2020-03-07T16:44:17.000Z</Time>
            <Position>
              <LatitudeDegrees>40.70234301500022411346435546875</LatitudeDegrees>
              <LongitudeDegrees>-3.9238044060766696929931640625</LongitudeDegrees>
            </Position>
            <AltitudeMeters>932.79998779296875</AltitudeMeters>
            <DistanceMeters>NAN</DistanceMeters>
          </Trackpoint>
          <Trackpoint>
            <Time>2020-03-07T16:44:18.000Z</Time>
            <Position>
              <LatitudeDegrees>40.70237620733678340911865234375</LatitudeDegrees>
              <LongitudeDegrees>-3.92370256595313549041748046875</LongitudeDegrees>
            </Position>
            <AltitudeMeters>932.79998779296875</AltitudeMeters>
            <DistanceMeters>NAN</DistanceMeters>
          </Trackpoint>
          <Trackpoint>
            <Time>2020-03-07T16:44:19.000Z</Time>
            <Position>
              <LatitudeDegrees>40.7024093158543109893798828125</LatitudeDegrees>
              <LongitudeDegrees>-3.9236005581915378570556640625</LongitudeDegrees>
            </Position>
            <AltitudeMeters>932.5999755859375</AltitudeMeters>
            <DistanceMeters>NAN</DistanceMeters>
          </Trackpoint>
          <Trackpoint>
            <Time>2020-03-07T16:44:20.000Z</Time>
            <Position>
              <LatitudeDegrees>40.70244275964796543121337890625</LatitudeDegrees>
              <LongitudeDegrees>-3.9234996400773525238037109375</LongitudeDegrees>
            </Position>
            <AltitudeMeters>932.5999755859375</AltitudeMeters>
            <DistanceMeters>NAN</DistanceMeters>
          </Trackpoint>
          <Trackpoint>
            <Time>2020-03-07T16:44:21.000Z</Time>
            <Position>
              <LatitudeDegrees>40.7024760358035564422607421875</LatitudeDegrees>
              <LongitudeDegrees>-3.92339947633445262908935546875</LongitudeDegrees>
            </Position>
            <AltitudeMeters>932.5999755859375</AltitudeMeters>
            <DistanceMeters>NAN</DistanceMeters>
          </Trackpoint>
          <Trackpoint>
            <Time>2020-03-07T16:44:22.000Z</Time>
            <Position>
              <LatitudeDegrees>40.70250931195914745330810546875</LatitudeDegrees>
              <LongitudeDegrees>-3.923299647867679595947265625</LongitudeDegrees>
            </Position>
            <AltitudeMeters>932.5999755859375</AltitudeMeters>
            <DistanceMeters>NAN</DistanceMeters>
          </Trackpoint>
          <Trackpoint>
            <Time>2020-03-07T16:44:23.000Z</Time>
            <Position>
              <LatitudeDegrees>40.7025430910289287567138671875</LatitudeDegrees>
              <LongitudeDegrees>-3.92320074141025543212890625</LongitudeDegrees>
            </Position>
            <AltitudeMeters>932.5999755859375</AltitudeMeters>
            <DistanceMeters>NAN</DistanceMeters>
          </Trackpoint>
          <Trackpoint>
            <Time>2020-03-07T16:44:24.000Z</Time>
            <Position>
              <LatitudeDegrees>40.70257636718451976776123046875</LatitudeDegrees>
              <LongitudeDegrees>-3.92310158349573612213134765625</LongitudeDegrees>
            </Position>
            <AltitudeMeters>932.4000244140625</AltitudeMeters>
            <DistanceMeters>NAN</DistanceMeters>
          </Trackpoint>
          <Trackpoint>
            <Time>2020-03-07T16:44:25.000Z</Time>
            <Position>
              <LatitudeDegrees>40.70260972715914249420166015625</LatitudeDegrees>
              <LongitudeDegrees>-3.923001922667026519775390625</LongitudeDegrees>
            </Position>
            <AltitudeMeters>932</AltitudeMeters>
            <DistanceMeters>NAN</DistanceMeters>
          </Trackpoint>
          <Trackpoint>
            <Time>2020-03-07T16:44:26.000Z</Time>
            <Position>
              <LatitudeDegrees>40.70264392532408237457275390625</LatitudeDegrees>
              <LongitudeDegrees>-3.92290167510509490966796875</LongitudeDegrees>
            </Position>
            <AltitudeMeters>931.79998779296875</AltitudeMeters>
            <DistanceMeters>NAN</DistanceMeters>
          </Trackpoint>
          <Trackpoint>
            <Time>2020-03-07T16:44:27.000Z</Time>
            <Position>
              <LatitudeDegrees>40.70267879404127597808837890625</LatitudeDegrees>
              <LongitudeDegrees>-3.922800086438655853271484375</LongitudeDegrees>
            </Position>
            <AltitudeMeters>931.5999755859375</AltitudeMeters>
            <DistanceMeters>NAN</DistanceMeters>
          </Trackpoint>
          <Trackpoint>
            <Time>2020-03-07T16:44:28.000Z</Time>
            <Position>
              <LatitudeDegrees>40.70271500386297702789306640625</LatitudeDegrees>
              <LongitudeDegrees>-3.9226983301341533660888671875</LongitudeDegrees>
            </Position>
            <AltitudeMeters>931</AltitudeMeters>
            <DistanceMeters>NAN</DistanceMeters>
          </Trackpoint>
          <Trackpoint>
            <Time>2020-03-07T16:44:29.000Z</Time>
            <Position>
              <LatitudeDegrees>40.70275104604661464691162109375</LatitudeDegrees>
              <LongitudeDegrees>-3.92259590327739715576171875</LongitudeDegrees>
            </Position>
            <AltitudeMeters>930</AltitudeMeters>
            <DistanceMeters>NAN</DistanceMeters>
          </Trackpoint>
          <Trackpoint>
            <Time>2020-03-07T16:44:30.000Z</Time>
            <Position>
              <LatitudeDegrees>40.7027868367731571197509765625</LatitudeDegrees>
              <LongitudeDegrees>-3.92249263823032379150390625</LongitudeDegrees>
            </Position>
            <AltitudeMeters>929.5999755859375</AltitudeMeters>
            <DistanceMeters>NAN</DistanceMeters>
          </Trackpoint>
          <Trackpoint>
            <Time>2020-03-07T16:44:31.000Z</Time>
            <Position>
              <LatitudeDegrees>40.70282480679452419281005859375</LatitudeDegrees>
              <LongitudeDegrees>-3.9223902113735675811767578125</LongitudeDegrees>
            </Position>
            <AltitudeMeters>929.5999755859375</AltitudeMeters>
            <DistanceMeters>NAN</DistanceMeters>
          </Trackpoint>
          <Trackpoint>
            <Time>2020-03-07T16:44:32.000Z</Time>
            <Position>
              <LatitudeDegrees>40.70286487229168415069580078125</LatitudeDegrees>
              <LongitudeDegrees>-3.922288455069065093994140625</LongitudeDegrees>
            </Position>
            <AltitudeMeters>929.4000244140625</AltitudeMeters>
            <DistanceMeters>NAN</DistanceMeters>
          </Trackpoint>
          <Trackpoint>
            <Time>2020-03-07T16:44:33.000Z</Time>
            <Position>
              <LatitudeDegrees>40.7029072009027004241943359375</LatitudeDegrees>
              <LongitudeDegrees>-3.92218912951648235321044921875</LongitudeDegrees>
            </Position>
            <AltitudeMeters>929.20001220703125</AltitudeMeters>
            <DistanceMeters>NAN</DistanceMeters>
          </Trackpoint>
          <Trackpoint>
            <Time>2020-03-07T16:44:34.000Z</Time>
            <Position>
              <LatitudeDegrees>40.70295154117047786712646484375</LatitudeDegrees>
              <LongitudeDegrees>-3.92209164798259735107421875</LongitudeDegrees>
            </Position>
            <AltitudeMeters>929</AltitudeMeters>
            <DistanceMeters>NAN</DistanceMeters>
          </Trackpoint>
          <Trackpoint>
            <Time>2020-03-07T16:44:35.000Z</Time>
            <Position>
              <LatitudeDegrees>40.7029987312853336334228515625</LatitudeDegrees>
              <LongitudeDegrees>-3.92199668101966381072998046875</LongitudeDegrees>
            </Position>
            <AltitudeMeters>928.79998779296875</AltitudeMeters>
            <DistanceMeters>NAN</DistanceMeters>
          </Trackpoint>
          <Trackpoint>
            <Time>2020-03-07T16:44:36.000Z</Time>
            <Position>
              <LatitudeDegrees>40.70304860360920429229736328125</LatitudeDegrees>
              <LongitudeDegrees>-3.9219040609896183013916015625</LongitudeDegrees>
            </Position>
            <AltitudeMeters>928.79998779296875</AltitudeMeters>
            <DistanceMeters>NAN</DistanceMeters>
          </Trackpoint>
          <Trackpoint>
            <Time>2020-03-07T16:44:37.000Z</Time>
            <Position>
              <LatitudeDegrees>40.70310157723724842071533203125</LatitudeDegrees>
              <LongitudeDegrees>-3.92181336879730224609375</LongitudeDegrees>
            </Position>
            <AltitudeMeters>928.5999755859375</AltitudeMeters>
            <DistanceMeters>NAN</DistanceMeters>
          </Trackpoint>
          <Trackpoint>
            <Time>2020-03-07T16:44:38.000Z</Time>
            <Position>
              <LatitudeDegrees>40.703158490359783172607421875</LatitudeDegrees>
              <LongitudeDegrees>-3.92172628082334995269775390625</LongitudeDegrees>
            </Position>
            <AltitudeMeters>928.4000244140625</AltitudeMeters>
            <DistanceMeters>NAN</DistanceMeters>
          </Trackpoint>
          <Trackpoint>
            <Time>2020-03-07T16:44:39.000Z</Time>
            <Position>
              <LatitudeDegrees>40.7032183371484279632568359375</LatitudeDegrees>
              <LongitudeDegrees>-3.9216428808867931365966796875</LongitudeDegrees>
            </Position>
            <AltitudeMeters>928</AltitudeMeters>
            <DistanceMeters>NAN</DistanceMeters>
          </Trackpoint>
          <Trackpoint>
            <Time>2020-03-07T16:44:40.000Z</Time>
            <Position>
              <LatitudeDegrees>40.70327994413673877716064453125</LatitudeDegrees>
              <LongitudeDegrees>-3.92156048677861690521240234375</LongitudeDegrees>
            </Position>
            <AltitudeMeters>927.79998779296875</AltitudeMeters>
            <DistanceMeters>NAN</DistanceMeters>
          </Trackpoint>
          <Trackpoint>
            <Time>2020-03-07T16:44:41.000Z</Time>
            <Position>
              <LatitudeDegrees>40.7033433951437473297119140625</LatitudeDegrees>
              <LongitudeDegrees>-3.921479098498821258544921875</LongitudeDegrees>
            </Position>
            <AltitudeMeters>927.5999755859375</AltitudeMeters>
            <DistanceMeters>NAN</DistanceMeters>
          </Trackpoint>
          <Trackpoint>
            <Time>2020-03-07T16:44:42.000Z</Time>
            <Position>
              <LatitudeDegrees>40.70340869016945362091064453125</LatitudeDegrees>
              <LongitudeDegrees>-3.92139963805675506591796875</LongitudeDegrees>
            </Position>
            <AltitudeMeters>927.5999755859375</AltitudeMeters>
            <DistanceMeters>NAN</DistanceMeters>
          </Trackpoint>
          <Trackpoint>
            <Time>2020-03-07T16:44:43.000Z</Time>
            <Position>
              <LatitudeDegrees>40.703474991023540496826171875</LatitudeDegrees>
              <LongitudeDegrees>-3.921321518719196319580078125</LongitudeDegrees>
            </Position>
            <AltitudeMeters>927.4000244140625</AltitudeMeters>
            <DistanceMeters>NAN</DistanceMeters>
          </Trackpoint>
          <Trackpoint>
            <Time>2020-03-07T16:44:44.000Z</Time>
            <Position>
              <LatitudeDegrees>40.70354296825826168060302734375</LatitudeDegrees>
              <LongitudeDegrees>-3.9212452434003353118896484375</LongitudeDegrees>
            </Position>
            <AltitudeMeters>927.4000244140625</AltitudeMeters>
            <DistanceMeters>NAN</DistanceMeters>
          </Trackpoint>
          <Trackpoint>
            <Time>2020-03-07T16:44:45.000Z</Time>
            <Position>
              <LatitudeDegrees>40.70361278951168060302734375</LatitudeDegrees>
              <LongitudeDegrees>-3.92117089591920375823974609375</LongitudeDegrees>
            </Position>
            <AltitudeMeters>927.20001220703125</AltitudeMeters>
            <DistanceMeters>NAN</DistanceMeters>
          </Trackpoint>
          <Trackpoint>
            <Time>2020-03-07T16:44:46.000Z</Time>
            <Position>
              <LatitudeDegrees>40.70368328131735324859619140625</LatitudeDegrees>
              <LongitudeDegrees>-3.9210983924567699432373046875</LongitudeDegrees>
            </Position>
            <AltitudeMeters>927.20001220703125</AltitudeMeters>
            <DistanceMeters>NAN</DistanceMeters>
          </Trackpoint>
          <Trackpoint>
            <Time>2020-03-07T16:44:47.000Z</Time>
            <Position>
              <LatitudeDegrees>40.70375435985624790191650390625</LatitudeDegrees>
              <LongitudeDegrees>-3.9210269786417484283447265625</LongitudeDegrees>
            </Position>
            <AltitudeMeters>927.20001220703125</AltitudeMeters>
            <DistanceMeters>NAN</DistanceMeters>
          </Trackpoint>
          <Trackpoint>
            <Time>2020-03-07T16:44:48.000Z</Time>
            <Position>
              <LatitudeDegrees>40.70382560603320598602294921875</LatitudeDegrees>
              <LongitudeDegrees>-3.92095573246479034423828125</LongitudeDegrees>
            </Position>
            <AltitudeMeters>927</AltitudeMeters>
            <DistanceMeters>NAN</DistanceMeters>
          </Trackpoint>
          <Trackpoint>
            <Time>2020-03-07T16:44:49.000Z</Time>
            <Position>
              <LatitudeDegrees>40.70389567874372005462646484375</LatitudeDegrees>
              <LongitudeDegrees>-3.9208839833736419677734375</LongitudeDegrees>
            </Position>
            <AltitudeMeters>926.5999755859375</AltitudeMeters>
            <DistanceMeters>NAN</DistanceMeters>
          </Trackpoint>
          <Trackpoint>
            <Time>2020-03-07T16:44:50.000Z</Time>
            <Position>
              <LatitudeDegrees>40.70396508090198040008544921875</LatitudeDegrees>
              <LongitudeDegrees>-3.9208127371966838836669921875</LongitudeDegrees>
            </Position>
            <AltitudeMeters>926.4000244140625</AltitudeMeters>
            <DistanceMeters>NAN</DistanceMeters>
          </Trackpoint>
          <Trackpoint>
            <Time>2020-03-07T16:44:51.000Z</Time>
            <Position>
              <LatitudeDegrees>40.7040337286889553070068359375</LatitudeDegrees>
              <LongitudeDegrees>-3.92074249684810638427734375</LongitudeDegrees>
            </Position>
            <AltitudeMeters>926.20001220703125</AltitudeMeters>
            <DistanceMeters>NAN</DistanceMeters>
          </Trackpoint>
          <Trackpoint>
            <Time>2020-03-07T16:44:52.000Z</Time>
            <Position>
              <LatitudeDegrees>40.7041021250188350677490234375</LatitudeDegrees>
              <LongitudeDegrees>-3.92067334614694118499755859375</LongitudeDegrees>
            </Position>
            <AltitudeMeters>926</AltitudeMeters>
            <DistanceMeters>NAN</DistanceMeters>
          </Trackpoint>
          <Trackpoint>
            <Time>2020-03-07T16:44:53.000Z</Time>
            <Position>
              <LatitudeDegrees>40.704169683158397674560546875</LatitudeDegrees>
              <LongitudeDegrees>-3.92060570418834686279296875</LongitudeDegrees>
            </Position>
            <AltitudeMeters>925.79998779296875</AltitudeMeters>
            <DistanceMeters>NAN</DistanceMeters>
          </Trackpoint>
          <Trackpoint>
            <Time>2020-03-07T16:44:54.000Z</Time>
            <Position>
              <LatitudeDegrees>40.70423766039311885833740234375</LatitudeDegrees>
              <LongitudeDegrees>-3.92053663730621337890625</LongitudeDegrees>
            </Position>
            <AltitudeMeters>925.79998779296875</AltitudeMeters>
            <DistanceMeters>NAN</DistanceMeters>
          </Trackpoint>
          <Trackpoint>
            <Time>2020-03-07T16:44:55.000Z</Time>
            <Position>
              <LatitudeDegrees>40.7043042965233325958251953125</LatitudeDegrees>
              <LongitudeDegrees>-3.92046664841473102569580078125</LongitudeDegrees>
            </Position>
            <AltitudeMeters>925.79998779296875</AltitudeMeters>
            <DistanceMeters>NAN</DistanceMeters>
          </Trackpoint>
          <Trackpoint>
            <Time>2020-03-07T16:44:56.000Z</Time>
            <Position>
              <LatitudeDegrees>40.70436892099678516387939453125</LatitudeDegrees>
              <LongitudeDegrees>-3.92039825208485126495361328125</LongitudeDegrees>
            </Position>
            <AltitudeMeters>925.5999755859375</AltitudeMeters>
            <DistanceMeters>NAN</DistanceMeters>
          </Trackpoint>
          <Trackpoint>
            <Time>2020-03-07T16:44:57.000Z</Time>
            <Position>
              <LatitudeDegrees>40.7044347189366817474365234375</LatitudeDegrees>
              <LongitudeDegrees>-3.9203289337456226348876953125</LongitudeDegrees>
            </Position>
            <AltitudeMeters>925.4000244140625</AltitudeMeters>
            <DistanceMeters>NAN</DistanceMeters>
          </Trackpoint>
          <Trackpoint>
            <Time>2020-03-07T16:44:58.000Z</Time>
            <Position>
              <LatitudeDegrees>40.70450328290462493896484375</LatitudeDegrees>
              <LongitudeDegrees>-3.92025810666382312774658203125</LongitudeDegrees>
            </Position>
            <AltitudeMeters>925.20001220703125</AltitudeMeters>
            <DistanceMeters>NAN</DistanceMeters>
          </Trackpoint>
          <Trackpoint>
            <Time>2020-03-07T16:44:59.000Z</Time>
            <Position>
              <LatitudeDegrees>40.70457126013934612274169921875</LatitudeDegrees>
              <LongitudeDegrees>-3.92018836922943592071533203125</LongitudeDegrees>
            </Position>
            <AltitudeMeters>925</AltitudeMeters>
            <DistanceMeters>NAN</DistanceMeters>
          </Trackpoint>
          <Trackpoint>
            <Time>2020-03-07T16:45:00.000Z</Time>
            <Position>
              <LatitudeDegrees>40.70463898591697216033935546875</LatitudeDegrees>
              <LongitudeDegrees>-3.9201180450618267059326171875</LongitudeDegrees>
            </Position>
            <AltitudeMeters>924.5999755859375</AltitudeMeters>
            <DistanceMeters>NAN</DistanceMeters>
          </Trackpoint>
          <Trackpoint>
            <Time>2020-03-07T16:45:01.000Z</Time>
            <Position>
              <LatitudeDegrees>40.7047059573233127593994140625</LatitudeDegrees>
              <LongitudeDegrees>-3.920048139989376068115234375</LongitudeDegrees>
            </Position>
            <AltitudeMeters>924.4000244140625</AltitudeMeters>
            <DistanceMeters>NAN</DistanceMeters>
          </Trackpoint>
          <Trackpoint>
            <Time>2020-03-07T16:45:02.000Z</Time>
            <Position>
              <LatitudeDegrees>40.70477292872965335845947265625</LatitudeDegrees>
              <LongitudeDegrees>-3.91997647471725940704345703125</LongitudeDegrees>
            </Position>
            <AltitudeMeters>924</AltitudeMeters>
            <DistanceMeters>NAN</DistanceMeters>
          </Trackpoint>
          <Trackpoint>
            <Time>2020-03-07T16:45:03.000Z</Time>
            <Position>
              <LatitudeDegrees>40.70483830757439136505126953125</LatitudeDegrees>
              <LongitudeDegrees>-3.91990355215966701507568359375</LongitudeDegrees>
            </Position>
            <AltitudeMeters>923.79998779296875</AltitudeMeters>
            <DistanceMeters>NAN</DistanceMeters>
          </Trackpoint>
          <Trackpoint>
            <Time>2020-03-07T16:45:04.000Z</Time>
            <Position>
              <LatitudeDegrees>40.70490251295268535614013671875</LatitudeDegrees>
              <LongitudeDegrees>-3.9198290370404720306396484375</LongitudeDegrees>
            </Position>
            <AltitudeMeters>923.4000244140625</AltitudeMeters>
            <DistanceMeters>NAN</DistanceMeters>
          </Trackpoint>
          <Trackpoint>
            <Time>2020-03-07T16:45:05.000Z</Time>
            <Position>
              <LatitudeDegrees>40.70496453903615474700927734375</LatitudeDegrees>
              <LongitudeDegrees>-3.91975100152194499969482421875</LongitudeDegrees>
            </Position>
            <AltitudeMeters>923</AltitudeMeters>
            <DistanceMeters>NAN</DistanceMeters>
          </Trackpoint>
          <Trackpoint>
            <Time>2020-03-07T16:45:06.000Z</Time>
            <Position>
              <LatitudeDegrees>40.7050244696438312530517578125</LatitudeDegrees>
              <LongitudeDegrees>-3.91967036761343479156494140625</LongitudeDegrees>
            </Position>
            <AltitudeMeters>922.5999755859375</AltitudeMeters>
            <DistanceMeters>NAN</DistanceMeters>
          </Trackpoint>
          <Trackpoint>
            <Time>2020-03-07T16:45:07.000Z</Time>
            <Position>
              <LatitudeDegrees>40.70508129894733428955078125</LatitudeDegrees>
              <LongitudeDegrees>-3.919588141143321990966796875</LongitudeDegrees>
            </Position>
            <AltitudeMeters>922.4000244140625</AltitudeMeters>
            <DistanceMeters>NAN</DistanceMeters>
          </Trackpoint>
          <Trackpoint>
            <Time>2020-03-07T16:45:08.000Z</Time>
            <Position>
              <LatitudeDegrees>40.7051330991089344024658203125</LatitudeDegrees>
              <LongitudeDegrees>-3.9195021428167819976806640625</LongitudeDegrees>
            </Position>
            <AltitudeMeters>922.20001220703125</AltitudeMeters>
            <DistanceMeters>NAN</DistanceMeters>
          </Trackpoint>
          <Trackpoint>
            <Time>2020-03-07T16:45:09.000Z</Time>
            <Position>
              <LatitudeDegrees>40.70518313907086849212646484375</LatitudeDegrees>
              <LongitudeDegrees>-3.91941388137638568878173828125</LongitudeDegrees>
            </Position>
            <AltitudeMeters>922</AltitudeMeters>
            <DistanceMeters>NAN</DistanceMeters>
          </Trackpoint>
          <Trackpoint>
            <Time>2020-03-07T16:45:10.000Z</Time>
            <Position>
              <LatitudeDegrees>40.70523192174732685089111328125</LatitudeDegrees>
              <LongitudeDegrees>-3.91932553611695766448974609375</LongitudeDegrees>
            </Position>
            <AltitudeMeters>922</AltitudeMeters>
            <DistanceMeters>NAN</DistanceMeters>
          </Trackpoint>
          <Trackpoint>
            <Time>2020-03-07T16:45:11.000Z</Time>
            <Position>
              <LatitudeDegrees>40.7052786089479923248291015625</LatitudeDegrees>
              <LongitudeDegrees>-3.91923735849559307098388671875</LongitudeDegrees>
            </Position>
            <AltitudeMeters>922</AltitudeMeters>
            <DistanceMeters>NAN</DistanceMeters>
          </Trackpoint>
          <Trackpoint>
            <Time>2020-03-07T16:45:12.000Z</Time>
            <Position>
              <LatitudeDegrees>40.70532403886318206787109375</LatitudeDegrees>
              <LongitudeDegrees>-3.91914834268391132354736328125</LongitudeDegrees>
            </Position>
            <AltitudeMeters>922</AltitudeMeters>
            <DistanceMeters>NAN</DistanceMeters>
          </Trackpoint>
          <Trackpoint>
            <Time>2020-03-07T16:45:13.000Z</Time>
            <Position>
              <LatitudeDegrees>40.705368630588054656982421875</LatitudeDegrees>
              <LongitudeDegrees>-3.919060416519641876220703125</LongitudeDegrees>
            </Position>
            <AltitudeMeters>921.79998779296875</AltitudeMeters>
            <DistanceMeters>NAN</DistanceMeters>
          </Trackpoint>
          <Trackpoint>
            <Time>2020-03-07T16:45:14.000Z</Time>
            <Position>
              <LatitudeDegrees>40.7054127193987369537353515625</LatitudeDegrees>
              <LongitudeDegrees>-3.91897282563149929046630859375</LongitudeDegrees>
            </Position>
            <AltitudeMeters>921.79998779296875</AltitudeMeters>
            <DistanceMeters>NAN</DistanceMeters>
          </Trackpoint>
          <Trackpoint>
            <Time>2020-03-07T16:45:15.000Z</Time>
            <Position>
              <LatitudeDegrees>40.7054549641907215118408203125</LatitudeDegrees>
              <LongitudeDegrees>-3.91888179816305637359619140625</LongitudeDegrees>
            </Position>
            <AltitudeMeters>921.5999755859375</AltitudeMeters>
            <DistanceMeters>NAN</DistanceMeters>
          </Trackpoint>
          <Trackpoint>
            <Time>2020-03-07T16:45:16.000Z</Time>
            <Position>
              <LatitudeDegrees>40.70549645461142063140869140625</LatitudeDegrees>
              <LongitudeDegrees>-3.9187910221517086029052734375</LongitudeDegrees>
            </Position>
            <AltitudeMeters>921.4000244140625</AltitudeMeters>
            <DistanceMeters>NAN</DistanceMeters>
          </Trackpoint>
          <Trackpoint>
            <Time>2020-03-07T16:45:17.000Z</Time>
            <Position>
              <LatitudeDegrees>40.70553752593696117401123046875</LatitudeDegrees>
              <LongitudeDegrees>-3.91870644874870777130126953125</LongitudeDegrees>
            </Position>
            <AltitudeMeters>921.20001220703125</AltitudeMeters>
            <DistanceMeters>NAN</DistanceMeters>
          </Trackpoint>
          <Trackpoint>
            <Time>2020-03-07T16:45:18.000Z</Time>
            <Position>
              <LatitudeDegrees>40.70557809434831142425537109375</LatitudeDegrees>
              <LongitudeDegrees>-3.91861810348927974700927734375</LongitudeDegrees>
            </Position>
            <AltitudeMeters>920.79998779296875</AltitudeMeters>
            <DistanceMeters>NAN</DistanceMeters>
          </Trackpoint>
          <Trackpoint>
            <Time>2020-03-07T16:45:19.000Z</Time>
            <Position>
              <LatitudeDegrees>40.7056179083883762359619140625</LatitudeDegrees>
              <LongitudeDegrees>-3.9185278303921222686767578125</LongitudeDegrees>
            </Position>
            <AltitudeMeters>920.4000244140625</AltitudeMeters>
            <DistanceMeters>NAN</DistanceMeters>
          </Trackpoint>
          <Trackpoint>
            <Time>2020-03-07T16:45:20.000Z</Time>
            <Position>
              <LatitudeDegrees>40.705657303333282470703125</LatitudeDegrees>
              <LongitudeDegrees>-3.918436467647552490234375</LongitudeDegrees>
            </Position>
            <AltitudeMeters>920</AltitudeMeters>
            <DistanceMeters>NAN</DistanceMeters>
          </Trackpoint>
          <Trackpoint>
            <Time>2020-03-07T16:45:21.000Z</Time>
            <Position>
              <LatitudeDegrees>40.70569862611591815948486328125</LatitudeDegrees>
              <LongitudeDegrees>-3.91834803856909275054931640625</LongitudeDegrees>
            </Position>
            <AltitudeMeters>919.79998779296875</AltitudeMeters>
            <DistanceMeters>NAN</DistanceMeters>
          </Trackpoint>
          <Trackpoint>
            <Time>2020-03-07T16:45:22.000Z</Time>
            <Position>
              <LatitudeDegrees>40.7057406194508075714111328125</LatitudeDegrees>
              <LongitudeDegrees>-3.91825969330966472625732421875</LongitudeDegrees>
            </Position>
            <AltitudeMeters>919.5999755859375</AltitudeMeters>
            <DistanceMeters>NAN</DistanceMeters>
          </Trackpoint>
          <Trackpoint>
            <Time>2020-03-07T16:45:23.000Z</Time>
            <Position>
              <LatitudeDegrees>40.70578143931925296783447265625</LatitudeDegrees>
              <LongitudeDegrees>-3.9181697554886341094970703125</LongitudeDegrees>
            </Position>
            <AltitudeMeters>919.4000244140625</AltitudeMeters>
            <DistanceMeters>NAN</DistanceMeters>
          </Trackpoint>
          <Trackpoint>
            <Time>2020-03-07T16:45:24.000Z</Time>
            <Position>
              <LatitudeDegrees>40.7058220915496349334716796875</LatitudeDegrees>
              <LongitudeDegrees>-3.91807906329631805419921875</LongitudeDegrees>
            </Position>
            <AltitudeMeters>919.4000244140625</AltitudeMeters>
            <DistanceMeters>NAN</DistanceMeters>
          </Trackpoint>
          <Trackpoint>
            <Time>2020-03-07T16:45:25.000Z</Time>
            <Position>
              <LatitudeDegrees>40.7058624923229217529296875</LatitudeDegrees>
              <LongitudeDegrees>-3.91798778437077999114990234375</LongitudeDegrees>
            </Position>
            <AltitudeMeters>919.4000244140625</AltitudeMeters>
            <DistanceMeters>NAN</DistanceMeters>
          </Trackpoint>
          <Trackpoint>
            <Time>2020-03-07T16:45:26.000Z</Time>
            <Position>
              <LatitudeDegrees>40.7059027254581451416015625</LatitudeDegrees>
              <LongitudeDegrees>-3.9178995229303836822509765625</LongitudeDegrees>
            </Position>
            <AltitudeMeters>919.4000244140625</AltitudeMeters>
            <DistanceMeters>NAN</DistanceMeters>
          </Trackpoint>
          <Trackpoint>
            <Time>2020-03-07T16:45:27.000Z</Time>
            <Position>
              <LatitudeDegrees>40.7059444673359394073486328125</LatitudeDegrees>
              <LongitudeDegrees>-3.91781218349933624267578125</LongitudeDegrees>
            </Position>
            <AltitudeMeters>919.4000244140625</AltitudeMeters>
            <DistanceMeters>NAN</DistanceMeters>
          </Trackpoint>
          <Trackpoint>
            <Time>2020-03-07T16:45:28.000Z</Time>
            <Position>
              <LatitudeDegrees>40.705986209213733673095703125</LatitudeDegrees>
              <LongitudeDegrees>-3.91772291623055934906005859375</LongitudeDegrees>
            </Position>
            <AltitudeMeters>919.4000244140625</AltitudeMeters>
            <DistanceMeters>NAN</DistanceMeters>
          </Trackpoint>
          <Trackpoint>
            <Time>2020-03-07T16:45:29.000Z</Time>
            <Position>
              <LatitudeDegrees>40.70602769963443279266357421875</LatitudeDegrees>
              <LongitudeDegrees>-3.917633481323719024658203125</LongitudeDegrees>
            </Position>
            <AltitudeMeters>919.4000244140625</AltitudeMeters>
            <DistanceMeters>NAN</DistanceMeters>
          </Trackpoint>
          <Trackpoint>
            <Time>2020-03-07T16:45:30.000Z</Time>
            <Position>
              <LatitudeDegrees>40.706070028245449066162109375</LatitudeDegrees>
              <LongitudeDegrees>-3.91754438169300556182861328125</LongitudeDegrees>
            </Position>
            <AltitudeMeters>919.4000244140625</AltitudeMeters>
            <DistanceMeters>NAN</DistanceMeters>
          </Trackpoint>
          <Trackpoint>
            <Time>2020-03-07T16:45:31.000Z</Time>
            <Position>
              <LatitudeDegrees>40.7061127759516239166259765625</LatitudeDegrees>
              <LongitudeDegrees>-3.9174559526145458221435546875</LongitudeDegrees>
            </Position>
            <AltitudeMeters>919.4000244140625</AltitudeMeters>
            <DistanceMeters>NAN</DistanceMeters>
          </Trackpoint>
          <Trackpoint>
            <Time>2020-03-07T16:45:32.000Z</Time>
            <Position>
              <LatitudeDegrees>40.70615510456264019012451171875</LatitudeDegrees>
              <LongitudeDegrees>-3.9173671044409275054931640625</LongitudeDegrees>
            </Position>
            <AltitudeMeters>919.4000244140625</AltitudeMeters>
            <DistanceMeters>NAN</DistanceMeters>
          </Trackpoint>
          <Trackpoint>
            <Time>2020-03-07T16:45:33.000Z</Time>
            <Position>
              <LatitudeDegrees>40.70619751699268817901611328125</LatitudeDegrees>
              <LongitudeDegrees>-3.91727834008634090423583984375</LongitudeDegrees>
            </Position>
            <AltitudeMeters>919.4000244140625</AltitudeMeters>
            <DistanceMeters>NAN</DistanceMeters>
          </Trackpoint>
          <Trackpoint>
            <Time>2020-03-07T16:45:34.000Z</Time>
            <Position>
              <LatitudeDegrees>40.706240348517894744873046875</LatitudeDegrees>
              <LongitudeDegrees>-3.91718831844627857208251953125</LongitudeDegrees>
            </Position>
            <AltitudeMeters>919.5999755859375</AltitudeMeters>
            <DistanceMeters>NAN</DistanceMeters>
          </Trackpoint>
          <Trackpoint>
            <Time>2020-03-07T16:45:35.000Z</Time>
            <Position>
              <LatitudeDegrees>40.706280581653118133544921875</LatitudeDegrees>
              <LongitudeDegrees>-3.9171005599200725555419921875</LongitudeDegrees>
            </Position>
            <AltitudeMeters>919.5999755859375</AltitudeMeters>
            <DistanceMeters>NAN</DistanceMeters>
          </Trackpoint>
          <Trackpoint>
            <Time>2020-03-07T16:45:36.000Z</Time>
            <Position>
              <LatitudeDegrees>40.70631922222673892974853515625</LatitudeDegrees>
              <LongitudeDegrees>-3.91701397486031055450439453125</LongitudeDegrees>
            </Position>
            <AltitudeMeters>919.5999755859375</AltitudeMeters>
            <DistanceMeters>NAN</DistanceMeters>
          </Trackpoint>
          <Trackpoint>
            <Time>2020-03-07T16:45:37.000Z</Time>
            <Position>
              <LatitudeDegrees>40.70635744370520114898681640625</LatitudeDegrees>
              <LongitudeDegrees>-3.9169288985431194305419921875</LongitudeDegrees>
            </Position>
            <AltitudeMeters>919.5999755859375</AltitudeMeters>
            <DistanceMeters>NAN</DistanceMeters>
          </Trackpoint>
          <Trackpoint>
            <Time>2020-03-07T16:45:38.000Z</Time>
            <Position>
              <LatitudeDegrees>40.70639767684042453765869140625</LatitudeDegrees>
              <LongitudeDegrees>-3.91684516333043575286865234375</LongitudeDegrees>
            </Position>
            <AltitudeMeters>919.5999755859375</AltitudeMeters>
            <DistanceMeters>NAN</DistanceMeters>
          </Trackpoint>
          <Trackpoint>
            <Time>2020-03-07T16:45:39.000Z</Time>
            <Position>
              <LatitudeDegrees>40.70643983781337738037109375</LatitudeDegrees>
              <LongitudeDegrees>-3.91675983555614948272705078125</LongitudeDegrees>
            </Position>
            <AltitudeMeters>919.5999755859375</AltitudeMeters>
            <DistanceMeters>NAN</DistanceMeters>
          </Trackpoint>
          <Trackpoint>
            <Time>2020-03-07T16:45:40.000Z</Time>
            <Position>
              <LatitudeDegrees>40.70648082531988620758056640625</LatitudeDegrees>
              <LongitudeDegrees>-3.9166740886867046356201171875</LongitudeDegrees>
            </Position>
            <AltitudeMeters>919.4000244140625</AltitudeMeters>
            <DistanceMeters>NAN</DistanceMeters>
          </Trackpoint>
          <Trackpoint>
            <Time>2020-03-07T16:45:41.000Z</Time>
            <Position>
              <LatitudeDegrees>40.70652022026479244232177734375</LatitudeDegrees>
              <LongitudeDegrees>-3.9165882579982280731201171875</LongitudeDegrees>
            </Position>
            <AltitudeMeters>919.4000244140625</AltitudeMeters>
            <DistanceMeters>NAN</DistanceMeters>
          </Trackpoint>
          <Trackpoint>
            <Time>2020-03-07T16:45:42.000Z</Time>
            <Position>
              <LatitudeDegrees>40.70655961520969867706298828125</LatitudeDegrees>
              <LongitudeDegrees>-3.9165034331381320953369140625</LongitudeDegrees>
            </Position>
            <AltitudeMeters>919.20001220703125</AltitudeMeters>
            <DistanceMeters>NAN</DistanceMeters>
          </Trackpoint>
          <Trackpoint>
            <Time>2020-03-07T16:45:43.000Z</Time>
            <Position>
              <LatitudeDegrees>40.70659850724041461944580078125</LatitudeDegrees>
              <LongitudeDegrees>-3.91642087139189243316650390625</LongitudeDegrees>
            </Position>
            <AltitudeMeters>919.20001220703125</AltitudeMeters>
            <DistanceMeters>NAN</DistanceMeters>
          </Trackpoint>
          <Trackpoint>
            <Time>2020-03-07T16:45:44.000Z</Time>
            <Position>
              <LatitudeDegrees>40.7066376507282257080078125</LatitudeDegrees>
              <LongitudeDegrees>-3.91633906401693820953369140625</LongitudeDegrees>
            </Position>
            <AltitudeMeters>919.20001220703125</AltitudeMeters>
            <DistanceMeters>NAN</DistanceMeters>
          </Trackpoint>
          <Trackpoint>
            <Time>2020-03-07T16:45:45.000Z</Time>
            <Position>
              <LatitudeDegrees>40.70667847059667110443115234375</LatitudeDegrees>
              <LongitudeDegrees>-3.91625289805233478546142578125</LongitudeDegrees>
            </Position>
            <AltitudeMeters>919.20001220703125</AltitudeMeters>
            <DistanceMeters>NAN</DistanceMeters>
          </Trackpoint>
          <Trackpoint>
            <Time>2020-03-07T16:45:46.000Z</Time>
            <Position>
              <LatitudeDegrees>40.70672146975994110107421875</LatitudeDegrees>
              <LongitudeDegrees>-3.9161624573171138763427734375</LongitudeDegrees>
            </Position>
            <AltitudeMeters>919.20001220703125</AltitudeMeters>
            <DistanceMeters>NAN</DistanceMeters>
          </Trackpoint>
          <Trackpoint>
            <Time>2020-03-07T16:45:47.000Z</Time>
            <Position>
              <LatitudeDegrees>40.70676262490451335906982421875</LatitudeDegrees>
              <LongitudeDegrees>-3.9160726033151149749755859375</LongitudeDegrees>
            </Position>
            <AltitudeMeters>919</AltitudeMeters>
            <DistanceMeters>NAN</DistanceMeters>
          </Trackpoint>
          <Trackpoint>
            <Time>2020-03-07T16:45:48.000Z</Time>
            <Position>
              <LatitudeDegrees>40.7068039476871490478515625</LatitudeDegrees>
              <LongitudeDegrees>-3.91598450951278209686279296875</LongitudeDegrees>
            </Position>
            <AltitudeMeters>919</AltitudeMeters>
            <DistanceMeters>NAN</DistanceMeters>
          </Trackpoint>
          <Trackpoint>
            <Time>2020-03-07T16:45:49.000Z</Time>
            <Position>
              <LatitudeDegrees>40.70684510283172130584716796875</LatitudeDegrees>
              <LongitudeDegrees>-3.91589767299592494964599609375</LongitudeDegrees>
            </Position>
            <AltitudeMeters>919</AltitudeMeters>
            <DistanceMeters>NAN</DistanceMeters>
          </Trackpoint>
          <Trackpoint>
            <Time>2020-03-07T16:45:50.000Z</Time>
            <Position>
              <LatitudeDegrees>40.7068852521479129791259765625</LatitudeDegrees>
              <LongitudeDegrees>-3.91580966301262378692626953125</LongitudeDegrees>
            </Position>
            <AltitudeMeters>918.79998779296875</AltitudeMeters>
            <DistanceMeters>NAN</DistanceMeters>
          </Trackpoint>
          <Trackpoint>
            <Time>2020-03-07T16:45:51.000Z</Time>
            <Position>
              <LatitudeDegrees>40.7069246470928192138671875</LatitudeDegrees>
              <LongitudeDegrees>-3.9157215692102909088134765625</LongitudeDegrees>
            </Position>
            <AltitudeMeters>918.79998779296875</AltitudeMeters>
            <DistanceMeters>NAN</DistanceMeters>
          </Trackpoint>
          <Trackpoint>
            <Time>2020-03-07T16:45:52.000Z</Time>
            <Position>
              <LatitudeDegrees>40.70696647278964519500732421875</LatitudeDegrees>
              <LongitudeDegrees>-3.91563397832214832305908203125</LongitudeDegrees>
            </Position>
            <AltitudeMeters>918.79998779296875</AltitudeMeters>
            <DistanceMeters>NAN</DistanceMeters>
          </Trackpoint>
          <Trackpoint>
            <Time>2020-03-07T16:45:53.000Z</Time>
            <Position>
              <LatitudeDegrees>40.707009471952915191650390625</LatitudeDegrees>
              <LongitudeDegrees>-3.91554580070078372955322265625</LongitudeDegrees>
            </Position>
            <AltitudeMeters>918.79998779296875</AltitudeMeters>
            <DistanceMeters>NAN</DistanceMeters>
          </Trackpoint>
          <Trackpoint>
            <Time>2020-03-07T16:45:54.000Z</Time>
            <Position>
              <LatitudeDegrees>40.7070525549352169036865234375</LatitudeDegrees>
              <LongitudeDegrees>-3.915457539260387420654296875</LongitudeDegrees>
            </Position>
            <AltitudeMeters>918.5999755859375</AltitudeMeters>
            <DistanceMeters>NAN</DistanceMeters>
          </Trackpoint>
          <Trackpoint>
            <Time>2020-03-07T16:45:55.000Z</Time>
            <Position>
              <LatitudeDegrees>40.7070947997272014617919921875</LatitudeDegrees>
              <LongitudeDegrees>-3.91536994837224483489990234375</LongitudeDegrees>
            </Position>
            <AltitudeMeters>918.5999755859375</AltitudeMeters>
            <DistanceMeters>NAN</DistanceMeters>
          </Trackpoint>
          <Trackpoint>
            <Time>2020-03-07T16:45:56.000Z</Time>
            <Position>
              <LatitudeDegrees>40.707136876881122589111328125</LatitudeDegrees>
              <LongitudeDegrees>-3.9152823574841022491455078125</LongitudeDegrees>
            </Position>
            <AltitudeMeters>918.4000244140625</AltitudeMeters>
            <DistanceMeters>NAN</DistanceMeters>
          </Trackpoint>
          <Trackpoint>
            <Time>2020-03-07T16:45:57.000Z</Time>
            <Position>
              <LatitudeDegrees>40.7071792893111705780029296875</LatitudeDegrees>
              <LongitudeDegrees>-3.91519526951014995574951171875</LongitudeDegrees>
            </Position>
            <AltitudeMeters>918.4000244140625</AltitudeMeters>
            <DistanceMeters>NAN</DistanceMeters>
          </Trackpoint>
          <Trackpoint>
            <Time>2020-03-07T16:45:58.000Z</Time>
            <Position>
              <LatitudeDegrees>40.70722170174121856689453125</LatitudeDegrees>
              <LongitudeDegrees>-3.91510876826941967010498046875</LongitudeDegrees>
            </Position>
            <AltitudeMeters>918.4000244140625</AltitudeMeters>
            <DistanceMeters>NAN</DistanceMeters>
          </Trackpoint>
          <Trackpoint>
            <Time>2020-03-07T16:45:59.000Z</Time>
            <Position>
              <LatitudeDegrees>40.7072627730667591094970703125</LatitudeDegrees>
              <LongitudeDegrees>-3.91502092592418193817138671875</LongitudeDegrees>
            </Position>
            <AltitudeMeters>918.20001220703125</AltitudeMeters>
            <DistanceMeters>NAN</DistanceMeters>
          </Trackpoint>
          <Trackpoint>
            <Time>2020-03-07T16:46:00.000Z</Time>
            <Position>
              <LatitudeDegrees>40.707303173840045928955078125</LatitudeDegrees>
              <LongitudeDegrees>-3.91493375413119792938232421875</LongitudeDegrees>
            </Position>
            <AltitudeMeters>918.20001220703125</AltitudeMeters>
            <DistanceMeters>NAN</DistanceMeters>
          </Trackpoint>
          <Trackpoint>
            <Time>2020-03-07T16:46:01.000Z</Time>
            <Position>
              <LatitudeDegrees>40.7073429040610790252685546875</LatitudeDegrees>
              <LongitudeDegrees>-3.91484792344272136688232421875</LongitudeDegrees>
            </Position>
            <AltitudeMeters>918</AltitudeMeters>
            <DistanceMeters>NAN</DistanceMeters>
          </Trackpoint>
          <Trackpoint>
            <Time>2020-03-07T16:46:02.000Z</Time>
            <Position>
              <LatitudeDegrees>40.70738238282501697540283203125</LatitudeDegrees>
              <LongitudeDegrees>-3.9147599972784519195556640625</LongitudeDegrees>
            </Position>
            <AltitudeMeters>918</AltitudeMeters>
            <DistanceMeters>NAN</DistanceMeters>
          </Trackpoint>
          <Trackpoint>
            <Time>2020-03-07T16:46:03.000Z</Time>
            <Position>
              <LatitudeDegrees>40.7074223645031452178955078125</LatitudeDegrees>
              <LongitudeDegrees>-3.91467307694256305694580078125</LongitudeDegrees>
            </Position>
            <AltitudeMeters>917.79998779296875</AltitudeMeters>
            <DistanceMeters>NAN</DistanceMeters>
          </Trackpoint>
          <Trackpoint>
            <Time>2020-03-07T16:46:04.000Z</Time>
            <Position>
              <LatitudeDegrees>40.70746419019997119903564453125</LatitudeDegrees>
              <LongitudeDegrees>-3.91458624042570590972900390625</LongitudeDegrees>
            </Position>
            <AltitudeMeters>917.79998779296875</AltitudeMeters>
            <DistanceMeters>NAN</DistanceMeters>
          </Trackpoint>
          <Trackpoint>
            <Time>2020-03-07T16:46:05.000Z</Time>
            <Position>
              <LatitudeDegrees>40.70750693790614604949951171875</LatitudeDegrees>
              <LongitudeDegrees>-3.91449990682303905487060546875</LongitudeDegrees>
            </Position>
            <AltitudeMeters>917.5999755859375</AltitudeMeters>
            <DistanceMeters>NAN</DistanceMeters>
          </Trackpoint>
          <Trackpoint>
            <Time>2020-03-07T16:46:06.000Z</Time>
            <Position>
              <LatitudeDegrees>40.70755102671682834625244140625</LatitudeDegrees>
              <LongitudeDegrees>-3.91441407613456249237060546875</LongitudeDegrees>
            </Position>
            <AltitudeMeters>917.5999755859375</AltitudeMeters>
            <DistanceMeters>NAN</DistanceMeters>
          </Trackpoint>
          <Trackpoint>
            <Time>2020-03-07T16:46:07.000Z</Time>
            <Position>
              <LatitudeDegrees>40.70759595371782779693603515625</LatitudeDegrees>
              <LongitudeDegrees>-3.91432908363640308380126953125</LongitudeDegrees>
            </Position>
            <AltitudeMeters>917.5999755859375</AltitudeMeters>
            <DistanceMeters>NAN</DistanceMeters>
          </Trackpoint>
          <Trackpoint>
            <Time>2020-03-07T16:46:08.000Z</Time>
            <Position>
              <LatitudeDegrees>40.70764171890914440155029296875</LatitudeDegrees>
              <LongitudeDegrees>-3.91424610279500484466552734375</LongitudeDegrees>
            </Position>
            <AltitudeMeters>917.4000244140625</AltitudeMeters>
            <DistanceMeters>NAN</DistanceMeters>
          </Trackpoint>
          <Trackpoint>
            <Time>2020-03-07T16:46:09.000Z</Time>
            <Position>
              <LatitudeDegrees>40.7076909206807613372802734375</LatitudeDegrees>
              <LongitudeDegrees>-3.9141642116010189056396484375</LongitudeDegrees>
            </Position>
            <AltitudeMeters>917.4000244140625</AltitudeMeters>
            <DistanceMeters>NAN</DistanceMeters>
          </Trackpoint>
          <Trackpoint>
            <Time>2020-03-07T16:46:10.000Z</Time>
            <Position>
              <LatitudeDegrees>40.7077408768236637115478515625</LatitudeDegrees>
              <LongitudeDegrees>-3.91408382914960384368896484375</LongitudeDegrees>
            </Position>
            <AltitudeMeters>917.4000244140625</AltitudeMeters>
            <DistanceMeters>NAN</DistanceMeters>
          </Trackpoint>
          <Trackpoint>
            <Time>2020-03-07T16:46:11.000Z</Time>
            <Position>
              <LatitudeDegrees>40.70779091678559780120849609375</LatitudeDegrees>
              <LongitudeDegrees>-3.914004452526569366455078125</LongitudeDegrees>
            </Position>
            <AltitudeMeters>917.4000244140625</AltitudeMeters>
            <DistanceMeters>NAN</DistanceMeters>
          </Trackpoint>
          <Trackpoint>
            <Time>2020-03-07T16:46:12.000Z</Time>
            <Position>
              <LatitudeDegrees>40.70784288458526134490966796875</LatitudeDegrees>
              <LongitudeDegrees>-3.91392490826547145843505859375</LongitudeDegrees>
            </Position>
            <AltitudeMeters>917.20001220703125</AltitudeMeters>
            <DistanceMeters>NAN</DistanceMeters>
          </Trackpoint>
          <Trackpoint>
            <Time>2020-03-07T16:46:13.000Z</Time>
            <Position>
              <LatitudeDegrees>40.70789401419460773468017578125</LatitudeDegrees>
              <LongitudeDegrees>-3.91384662128984928131103515625</LongitudeDegrees>
            </Position>
            <AltitudeMeters>917.20001220703125</AltitudeMeters>
            <DistanceMeters>NAN</DistanceMeters>
          </Trackpoint>
          <Trackpoint>
            <Time>2020-03-07T16:46:14.000Z</Time>
            <Position>
              <LatitudeDegrees>40.7079477421939373016357421875</LatitudeDegrees>
              <LongitudeDegrees>-3.91376833431422710418701171875</LongitudeDegrees>
            </Position>
            <AltitudeMeters>917.20001220703125</AltitudeMeters>
            <DistanceMeters>NAN</DistanceMeters>
          </Trackpoint>
          <Trackpoint>
            <Time>2020-03-07T16:46:15.000Z</Time>
            <Position>
              <LatitudeDegrees>40.7079997099936008453369140625</LatitudeDegrees>
              <LongitudeDegrees>-3.9136911369860172271728515625</LongitudeDegrees>
            </Position>
            <AltitudeMeters>917</AltitudeMeters>
            <DistanceMeters>NAN</DistanceMeters>
          </Trackpoint>
          <Trackpoint>
            <Time>2020-03-07T16:46:16.000Z</Time>
            <Position>
              <LatitudeDegrees>40.7080523483455181121826171875</LatitudeDegrees>
              <LongitudeDegrees>-3.913613855838775634765625</LongitudeDegrees>
            </Position>
            <AltitudeMeters>917</AltitudeMeters>
            <DistanceMeters>NAN</DistanceMeters>
          </Trackpoint>
          <Trackpoint>
            <Time>2020-03-07T16:46:17.000Z</Time>
            <Position>
              <LatitudeDegrees>40.70810540579259395599365234375</LatitudeDegrees>
              <LongitudeDegrees>-3.9135369099676609039306640625</LongitudeDegrees>
            </Position>
            <AltitudeMeters>917</AltitudeMeters>
            <DistanceMeters>NAN</DistanceMeters>
          </Trackpoint>
          <Trackpoint>
            <Time>2020-03-07T16:46:18.000Z</Time>
            <Position>
              <LatitudeDegrees>40.7081593014299869537353515625</LatitudeDegrees>
              <LongitudeDegrees>-3.9134597964584827423095703125</LongitudeDegrees>
            </Position>
            <AltitudeMeters>916.79998779296875</AltitudeMeters>
            <DistanceMeters>NAN</DistanceMeters>
          </Trackpoint>
          <Trackpoint>
            <Time>2020-03-07T16:46:19.000Z</Time>
            <Position>
              <LatitudeDegrees>40.70821152068674564361572265625</LatitudeDegrees>
              <LongitudeDegrees>-3.9133833535015583038330078125</LongitudeDegrees>
            </Position>
            <AltitudeMeters>916.79998779296875</AltitudeMeters>
            <DistanceMeters>NAN</DistanceMeters>
          </Trackpoint>
          <Trackpoint>
            <Time>2020-03-07T16:46:20.000Z</Time>
            <Position>
              <LatitudeDegrees>40.708263404667377471923828125</LatitudeDegrees>
              <LongitudeDegrees>-3.9133048988878726959228515625</LongitudeDegrees>
            </Position>
            <AltitudeMeters>916.4000244140625</AltitudeMeters>
            <DistanceMeters>NAN</DistanceMeters>
          </Trackpoint>
          <Trackpoint>
            <Time>2020-03-07T16:46:21.000Z</Time>
            <Position>
              <LatitudeDegrees>40.70831512100994586944580078125</LatitudeDegrees>
              <LongitudeDegrees>-3.91322568990290164947509765625</LongitudeDegrees>
            </Position>
            <AltitudeMeters>916.20001220703125</AltitudeMeters>
            <DistanceMeters>NAN</DistanceMeters>
          </Trackpoint>
          <Trackpoint>
            <Time>2020-03-07T16:46:22.000Z</Time>
            <Position>
              <LatitudeDegrees>40.7083668373525142669677734375</LatitudeDegrees>
              <LongitudeDegrees>-3.913148157298564910888671875</LongitudeDegrees>
            </Position>
            <AltitudeMeters>916.20001220703125</AltitudeMeters>
            <DistanceMeters>NAN</DistanceMeters>
          </Trackpoint>
          <Trackpoint>
            <Time>2020-03-07T16:46:23.000Z</Time>
            <Position>
              <LatitudeDegrees>40.70841922424733638763427734375</LatitudeDegrees>
              <LongitudeDegrees>-3.91307196579873561859130859375</LongitudeDegrees>
            </Position>
            <AltitudeMeters>916.20001220703125</AltitudeMeters>
            <DistanceMeters>NAN</DistanceMeters>
          </Trackpoint>
          <Trackpoint>
            <Time>2020-03-07T16:46:24.000Z</Time>
            <Position>
              <LatitudeDegrees>40.70841922424733638763427734375</LatitudeDegrees>
              <LongitudeDegrees>-3.91307196579873561859130859375</LongitudeDegrees>
            </Position>
            <AltitudeMeters>916</AltitudeMeters>
            <DistanceMeters>NAN</DistanceMeters>
          </Trackpoint>
          <Trackpoint>
            <Time>2020-03-07T16:46:25.000Z</Time>
            <Position>
              <LatitudeDegrees>40.7084714435040950775146484375</LatitudeDegrees>
              <LongitudeDegrees>-3.91299652867019176483154296875</LongitudeDegrees>
            </Position>
            <AltitudeMeters>916</AltitudeMeters>
            <DistanceMeters>NAN</DistanceMeters>
          </Trackpoint>
          <Trackpoint>
            <Time>2020-03-07T16:46:26.000Z</Time>
            <Position>
              <LatitudeDegrees>40.7085230760276317596435546875</LatitudeDegrees>
              <LongitudeDegrees>-3.9129206724464893341064453125</LongitudeDegrees>
            </Position>
            <AltitudeMeters>916</AltitudeMeters>
            <DistanceMeters>NAN</DistanceMeters>
          </Trackpoint>
          <Trackpoint>
            <Time>2020-03-07T16:46:27.000Z</Time>
            <Position>
              <LatitudeDegrees>40.70857512764632701873779296875</LatitudeDegrees>
              <LongitudeDegrees>-3.91284481622278690338134765625</LongitudeDegrees>
            </Position>
            <AltitudeMeters>916</AltitudeMeters>
            <DistanceMeters>NAN</DistanceMeters>
          </Trackpoint>
          <Trackpoint>
            <Time>2020-03-07T16:46:28.000Z</Time>
            <Position>
              <LatitudeDegrees>40.70867772214114665985107421875</LatitudeDegrees>
              <LongitudeDegrees>-3.9126930199563503265380859375</LongitudeDegrees>
            </Position>
            <AltitudeMeters>915.79998779296875</AltitudeMeters>
            <DistanceMeters>NAN</DistanceMeters>
          </Trackpoint>
          <Trackpoint>
            <Time>2020-03-07T16:46:29.000Z</Time>
            <Position>
              <LatitudeDegrees>40.7087289355695247650146484375</LatitudeDegrees>
              <LongitudeDegrees>-3.9126165769994258880615234375</LongitudeDegrees>
            </Position>
            <AltitudeMeters>915.79998779296875</AltitudeMeters>
            <DistanceMeters>NAN</DistanceMeters>
          </Trackpoint>
          <Trackpoint>
            <Time>2020-03-07T16:46:30.000Z</Time>
            <Position>
              <LatitudeDegrees>40.70878098718822002410888671875</LatitudeDegrees>
              <LongitudeDegrees>-3.91254155896604061126708984375</LongitudeDegrees>
            </Position>
            <AltitudeMeters>915.79998779296875</AltitudeMeters>
            <DistanceMeters>NAN</DistanceMeters>
          </Trackpoint>
          <Trackpoint>
            <Time>2020-03-07T16:46:31.000Z</Time>
            <Position>
              <LatitudeDegrees>40.70883194915950298309326171875</LatitudeDegrees>
              <LongitudeDegrees>-3.912466876208782196044921875</LongitudeDegrees>
            </Position>
            <AltitudeMeters>915.79998779296875</AltitudeMeters>
            <DistanceMeters>NAN</DistanceMeters>
          </Trackpoint>
          <Trackpoint>
            <Time>2020-03-07T16:46:32.000Z</Time>
            <Position>
              <LatitudeDegrees>40.70883194915950298309326171875</LatitudeDegrees>
              <LongitudeDegrees>-3.912466876208782196044921875</LongitudeDegrees>
            </Position>
            <AltitudeMeters>915.5999755859375</AltitudeMeters>
            <DistanceMeters>NAN</DistanceMeters>
          </Trackpoint>
          <Trackpoint>
            <Time>2020-03-07T16:46:33.000Z</Time>
            <Position>
              <LatitudeDegrees>40.70893571712076663970947265625</LatitudeDegrees>
              <LongitudeDegrees>-3.91231642104685306549072265625</LongitudeDegrees>
            </Position>
            <AltitudeMeters>915.5999755859375</AltitudeMeters>
            <DistanceMeters>NAN</DistanceMeters>
          </Trackpoint>
          <Trackpoint>
            <Time>2020-03-07T16:46:34.000Z</Time>
            <Position>
              <LatitudeDegrees>40.7089874334633350372314453125</LatitudeDegrees>
              <LongitudeDegrees>-3.912240900099277496337890625</LongitudeDegrees>
            </Position>
            <AltitudeMeters>915.5999755859375</AltitudeMeters>
            <DistanceMeters>NAN</DistanceMeters>
          </Trackpoint>
          <Trackpoint>
            <Time>2020-03-07T16:46:35.000Z</Time>
            <Position>
              <LatitudeDegrees>40.70903889834880828857421875</LatitudeDegrees>
              <LongitudeDegrees>-3.9121639542281627655029296875</LongitudeDegrees>
            </Position>
            <AltitudeMeters>915.5999755859375</AltitudeMeters>
            <DistanceMeters>NAN</DistanceMeters>
          </Trackpoint>
          <Trackpoint>
            <Time>2020-03-07T16:46:36.000Z</Time>
            <Position>
              <LatitudeDegrees>40.7090906985104084014892578125</LatitudeDegrees>
              <LongitudeDegrees>-3.91208692453801631927490234375</LongitudeDegrees>
            </Position>
            <AltitudeMeters>915.4000244140625</AltitudeMeters>
            <DistanceMeters>NAN</DistanceMeters>
          </Trackpoint>
          <Trackpoint>
            <Time>2020-03-07T16:46:37.000Z</Time>
            <Position>
              <LatitudeDegrees>40.7091428339481353759765625</LatitudeDegrees>
              <LongitudeDegrees>-3.9120097272098064422607421875</LongitudeDegrees>
            </Position>
            <AltitudeMeters>915.4000244140625</AltitudeMeters>
            <DistanceMeters>NAN</DistanceMeters>
          </Trackpoint>
          <Trackpoint>
            <Time>2020-03-07T16:46:38.000Z</Time>
            <Position>
              <LatitudeDegrees>40.7091428339481353759765625</LatitudeDegrees>
              <LongitudeDegrees>-3.9120097272098064422607421875</LongitudeDegrees>
            </Position>
            <AltitudeMeters>915.4000244140625</AltitudeMeters>
            <DistanceMeters>NAN</DistanceMeters>
          </Trackpoint>
          <Trackpoint>
            <Time>2020-03-07T16:46:39.000Z</Time>
            <Position>
              <LatitudeDegrees>40.70924769155681133270263671875</LatitudeDegrees>
              <LongitudeDegrees>-3.91185407526791095733642578125</LongitudeDegrees>
            </Position>
            <AltitudeMeters>915.20001220703125</AltitudeMeters>
            <DistanceMeters>NAN</DistanceMeters>
          </Trackpoint>
          <Trackpoint>
            <Time>2020-03-07T16:46:40.000Z</Time>
            <Position>
              <LatitudeDegrees>40.70929932408034801483154296875</LatitudeDegrees>
              <LongitudeDegrees>-3.9117760397493839263916015625</LongitudeDegrees>
            </Position>
            <AltitudeMeters>915.20001220703125</AltitudeMeters>
            <DistanceMeters>NAN</DistanceMeters>
          </Trackpoint>
          <Trackpoint>
            <Time>2020-03-07T16:46:41.000Z</Time>
            <Position>
              <LatitudeDegrees>40.70935162715613842010498046875</LatitudeDegrees>
              <LongitudeDegrees>-3.9116975851356983184814453125</LongitudeDegrees>
            </Position>
            <AltitudeMeters>915</AltitudeMeters>
            <DistanceMeters>NAN</DistanceMeters>
          </Trackpoint>
          <Trackpoint>
            <Time>2020-03-07T16:46:42.000Z</Time>
            <Position>
              <LatitudeDegrees>40.70940376259386539459228515625</LatitudeDegrees>
              <LongitudeDegrees>-3.911618627607822418212890625</LongitudeDegrees>
            </Position>
            <AltitudeMeters>914.79998779296875</AltitudeMeters>
            <DistanceMeters>NAN</DistanceMeters>
          </Trackpoint>
          <Trackpoint>
            <Time>2020-03-07T16:46:43.000Z</Time>
            <Position>
              <LatitudeDegrees>40.70945589803159236907958984375</LatitudeDegrees>
              <LongitudeDegrees>-3.911540508270263671875</LongitudeDegrees>
            </Position>
            <AltitudeMeters>914.79998779296875</AltitudeMeters>
            <DistanceMeters>NAN</DistanceMeters>
          </Trackpoint>
          <Trackpoint>
            <Time>2020-03-07T16:46:44.000Z</Time>
            <Position>
              <LatitudeDegrees>40.7095087878406047821044921875</LatitudeDegrees>
              <LongitudeDegrees>-3.91146280802786350250244140625</LongitudeDegrees>
            </Position>
            <AltitudeMeters>914.79998779296875</AltitudeMeters>
            <DistanceMeters>NAN</DistanceMeters>
          </Trackpoint>
          <Trackpoint>
            <Time>2020-03-07T16:46:45.000Z</Time>
            <Position>
              <LatitudeDegrees>40.7095620967447757720947265625</LatitudeDegrees>
              <LongitudeDegrees>-3.9113857783377170562744140625</LongitudeDegrees>
            </Position>
            <AltitudeMeters>914.5999755859375</AltitudeMeters>
            <DistanceMeters>NAN</DistanceMeters>
          </Trackpoint>
          <Trackpoint>
            <Time>2020-03-07T16:46:46.000Z</Time>
            <Position>
              <LatitudeDegrees>40.70961515419185161590576171875</LatitudeDegrees>
              <LongitudeDegrees>-3.91130975447595119476318359375</LongitudeDegrees>
            </Position>
            <AltitudeMeters>914.4000244140625</AltitudeMeters>
            <DistanceMeters>NAN</DistanceMeters>
          </Trackpoint>
          <Trackpoint>
            <Time>2020-03-07T16:46:47.000Z</Time>
            <Position>
              <LatitudeDegrees>40.7096687145531177520751953125</LatitudeDegrees>
              <LongitudeDegrees>-3.91123406589031219482421875</LongitudeDegrees>
            </Position>
            <AltitudeMeters>914.4000244140625</AltitudeMeters>
            <DistanceMeters>NAN</DistanceMeters>
          </Trackpoint>
          <Trackpoint>
            <Time>2020-03-07T16:46:48.000Z</Time>
            <Position>
              <LatitudeDegrees>40.70972143672406673431396484375</LatitudeDegrees>
              <LongitudeDegrees>-3.91115737147629261016845703125</LongitudeDegrees>
            </Position>
            <AltitudeMeters>914.4000244140625</AltitudeMeters>
            <DistanceMeters>NAN</DistanceMeters>
          </Trackpoint>
          <Trackpoint>
            <Time>2020-03-07T16:46:49.000Z</Time>
            <Position>
              <LatitudeDegrees>40.7097733207046985626220703125</LatitudeDegrees>
              <LongitudeDegrees>-3.91107941977679729461669921875</LongitudeDegrees>
            </Position>
            <AltitudeMeters>914.4000244140625</AltitudeMeters>
            <DistanceMeters>NAN</DistanceMeters>
          </Trackpoint>
          <Trackpoint>
            <Time>2020-03-07T16:46:50.000Z</Time>
            <Position>
              <LatitudeDegrees>40.70982520468533039093017578125</LatitudeDegrees>
              <LongitudeDegrees>-3.91100197099149227142333984375</LongitudeDegrees>
            </Position>
            <AltitudeMeters>914.4000244140625</AltitudeMeters>
            <DistanceMeters>NAN</DistanceMeters>
          </Trackpoint>
          <Trackpoint>
            <Time>2020-03-07T16:46:51.000Z</Time>
            <Position>
              <LatitudeDegrees>40.7098772563040256500244140625</LatitudeDegrees>
              <LongitudeDegrees>-3.91092536039650440216064453125</LongitudeDegrees>
            </Position>
            <AltitudeMeters>914.4000244140625</AltitudeMeters>
            <DistanceMeters>NAN</DistanceMeters>
          </Trackpoint>
          <Trackpoint>
            <Time>2020-03-07T16:46:52.000Z</Time>
            <Position>
              <LatitudeDegrees>40.7099292241036891937255859375</LatitudeDegrees>
              <LongitudeDegrees>-3.91084841452538967132568359375</LongitudeDegrees>
            </Position>
            <AltitudeMeters>914.20001220703125</AltitudeMeters>
            <DistanceMeters>NAN</DistanceMeters>
          </Trackpoint>
          <Trackpoint>
            <Time>2020-03-07T16:46:53.000Z</Time>
            <Position>
              <LatitudeDegrees>40.709980688989162445068359375</LatitudeDegrees>
              <LongitudeDegrees>-3.91077180393040180206298828125</LongitudeDegrees>
            </Position>
            <AltitudeMeters>914.20001220703125</AltitudeMeters>
            <DistanceMeters>NAN</DistanceMeters>
          </Trackpoint>
          <Trackpoint>
            <Time>2020-03-07T16:46:54.000Z</Time>
            <Position>
              <LatitudeDegrees>40.71003257296979427337646484375</LatitudeDegrees>
              <LongitudeDegrees>-3.9106961153447628021240234375</LongitudeDegrees>
            </Position>
            <AltitudeMeters>914.20001220703125</AltitudeMeters>
            <DistanceMeters>NAN</DistanceMeters>
          </Trackpoint>
          <Trackpoint>
            <Time>2020-03-07T16:46:55.000Z</Time>
            <Position>
              <LatitudeDegrees>40.71008319966495037078857421875</LatitudeDegrees>
              <LongitudeDegrees>-3.9106213487684726715087890625</LongitudeDegrees>
            </Position>
            <AltitudeMeters>914.20001220703125</AltitudeMeters>
            <DistanceMeters>NAN</DistanceMeters>
          </Trackpoint>
          <Trackpoint>
            <Time>2020-03-07T16:46:56.000Z</Time>
            <Position>
              <LatitudeDegrees>40.71013399399816989898681640625</LatitudeDegrees>
              <LongitudeDegrees>-3.9105469174683094024658203125</LongitudeDegrees>
            </Position>
            <AltitudeMeters>914.20001220703125</AltitudeMeters>
            <DistanceMeters>NAN</DistanceMeters>
          </Trackpoint>
          <Trackpoint>
            <Time>2020-03-07T16:46:57.000Z</Time>
            <Position>
              <LatitudeDegrees>40.7101850397884845733642578125</LatitudeDegrees>
              <LongitudeDegrees>-3.9104731567203998565673828125</LongitudeDegrees>
            </Position>
            <AltitudeMeters>914.20001220703125</AltitudeMeters>
            <DistanceMeters>NAN</DistanceMeters>
          </Trackpoint>
          <Trackpoint>
            <Time>2020-03-07T16:46:58.000Z</Time>
            <Position>
              <LatitudeDegrees>40.71023524738848209381103515625</LatitudeDegrees>
              <LongitudeDegrees>-3.91039989888668060302734375</LongitudeDegrees>
            </Position>
            <AltitudeMeters>914</AltitudeMeters>
            <DistanceMeters>NAN</DistanceMeters>
          </Trackpoint>
          <Trackpoint>
            <Time>2020-03-07T16:46:59.000Z</Time>
            <Position>
              <LatitudeDegrees>40.71028637699782848358154296875</LatitudeDegrees>
              <LongitudeDegrees>-3.9103289879858493804931640625</LongitudeDegrees>
            </Position>
            <AltitudeMeters>914</AltitudeMeters>
            <DistanceMeters>NAN</DistanceMeters>
          </Trackpoint>
          <Trackpoint>
            <Time>2020-03-07T16:47:00.000Z</Time>
            <Position>
              <LatitudeDegrees>40.71033968590199947357177734375</LatitudeDegrees>
              <LongitudeDegrees>-3.91026050783693790435791015625</LongitudeDegrees>
            </Position>
            <AltitudeMeters>914</AltitudeMeters>
            <DistanceMeters>NAN</DistanceMeters>
          </Trackpoint>
          <Trackpoint>
            <Time>2020-03-07T16:47:01.000Z</Time>
            <Position>
              <LatitudeDegrees>40.7103935815393924713134765625</LatitudeDegrees>
              <LongitudeDegrees>-3.91019403934478759765625</LongitudeDegrees>
            </Position>
            <AltitudeMeters>913.79998779296875</AltitudeMeters>
            <DistanceMeters>NAN</DistanceMeters>
          </Trackpoint>
          <Trackpoint>
            <Time>2020-03-07T16:47:02.000Z</Time>
            <Position>
              <LatitudeDegrees>40.7104489021003246307373046875</LatitudeDegrees>
              <LongitudeDegrees>-3.91012991778552532196044921875</LongitudeDegrees>
            </Position>
            <AltitudeMeters>913.79998779296875</AltitudeMeters>
            <DistanceMeters>NAN</DistanceMeters>
          </Trackpoint>
          <Trackpoint>
            <Time>2020-03-07T16:47:03.000Z</Time>
            <Position>
              <LatitudeDegrees>40.7105045579373836517333984375</LatitudeDegrees>
              <LongitudeDegrees>-3.9100664667785167694091796875</LongitudeDegrees>
            </Position>
            <AltitudeMeters>913.79998779296875</AltitudeMeters>
            <DistanceMeters>NAN</DistanceMeters>
          </Trackpoint>
          <Trackpoint>
            <Time>2020-03-07T16:47:04.000Z</Time>
            <Position>
              <LatitudeDegrees>40.7105617225170135498046875</LatitudeDegrees>
              <LongitudeDegrees>-3.910004608333110809326171875</LongitudeDegrees>
            </Position>
            <AltitudeMeters>913.79998779296875</AltitudeMeters>
            <DistanceMeters>NAN</DistanceMeters>
          </Trackpoint>
          <Trackpoint>
            <Time>2020-03-07T16:47:05.000Z</Time>
            <Position>
              <LatitudeDegrees>40.7106205634772777557373046875</LatitudeDegrees>
              <LongitudeDegrees>-3.9099434204399585723876953125</LongitudeDegrees>
            </Position>
            <AltitudeMeters>913.79998779296875</AltitudeMeters>
            <DistanceMeters>NAN</DistanceMeters>
          </Trackpoint>
          <Trackpoint>
            <Time>2020-03-07T16:47:06.000Z</Time>
            <Position>
              <LatitudeDegrees>40.71067906916141510009765625</LatitudeDegrees>
              <LongitudeDegrees>-3.90988248400390148162841796875</LongitudeDegrees>
            </Position>
            <AltitudeMeters>913.79998779296875</AltitudeMeters>
            <DistanceMeters>NAN</DistanceMeters>
          </Trackpoint>
          <Trackpoint>
            <Time>2020-03-07T16:47:07.000Z</Time>
            <Position>
              <LatitudeDegrees>40.7107362337410449981689453125</LatitudeDegrees>
              <LongitudeDegrees>-3.90982112847268581390380859375</LongitudeDegrees>
            </Position>
            <AltitudeMeters>913.79998779296875</AltitudeMeters>
            <DistanceMeters>NAN</DistanceMeters>
          </Trackpoint>
          <Trackpoint>
            <Time>2020-03-07T16:47:08.000Z</Time>
            <Position>
              <LatitudeDegrees>40.7107362337410449981689453125</LatitudeDegrees>
              <LongitudeDegrees>-3.90982112847268581390380859375</LongitudeDegrees>
            </Position>
            <AltitudeMeters>913.79998779296875</AltitudeMeters>
            <DistanceMeters>NAN</DistanceMeters>
          </Trackpoint>
          <Trackpoint>
            <Time>2020-03-07T16:47:09.000Z</Time>
            <Position>
              <LatitudeDegrees>40.71079398505389690399169921875</LatitudeDegrees>
              <LongitudeDegrees>-3.90975876711308956146240234375</LongitudeDegrees>
            </Position>
            <AltitudeMeters>914</AltitudeMeters>
            <DistanceMeters>NAN</DistanceMeters>
          </Trackpoint>
          <Trackpoint>
            <Time>2020-03-07T16:47:10.000Z</Time>
            <Position>
              <LatitudeDegrees>40.710852406919002532958984375</LatitudeDegrees>
              <LongitudeDegrees>-3.909696154296398162841796875</LongitudeDegrees>
            </Position>
            <AltitudeMeters>914</AltitudeMeters>
            <DistanceMeters>NAN</DistanceMeters>
          </Trackpoint>
          <Trackpoint>
            <Time>2020-03-07T16:47:11.000Z</Time>
            <Position>
              <LatitudeDegrees>40.71096740663051605224609375</LatitudeDegrees>
              <LongitudeDegrees>-3.90957017429172992706298828125</LongitudeDegrees>
            </Position>
            <AltitudeMeters>914.20001220703125</AltitudeMeters>
            <DistanceMeters>NAN</DistanceMeters>
          </Trackpoint>
          <Trackpoint>
            <Time>2020-03-07T16:47:12.000Z</Time>
            <Position>
              <LatitudeDegrees>40.71102465502917766571044921875</LatitudeDegrees>
              <LongitudeDegrees>-3.90950630418956279754638671875</LongitudeDegrees>
            </Position>
            <AltitudeMeters>914.20001220703125</AltitudeMeters>
            <DistanceMeters>NAN</DistanceMeters>
          </Trackpoint>
          <Trackpoint>
            <Time>2020-03-07T16:47:13.000Z</Time>
            <Position>
              <LatitudeDegrees>40.7110765390098094940185546875</LatitudeDegrees>
              <LongitudeDegrees>-3.90943966805934906005859375</LongitudeDegrees>
            </Position>
            <AltitudeMeters>914.20001220703125</AltitudeMeters>
            <DistanceMeters>NAN</DistanceMeters>
          </Trackpoint>
          <Trackpoint>
            <Time>2020-03-07T16:47:14.000Z</Time>
            <Position>
              <LatitudeDegrees>40.7110765390098094940185546875</LatitudeDegrees>
              <LongitudeDegrees>-3.90943966805934906005859375</LongitudeDegrees>
            </Position>
            <AltitudeMeters>914.20001220703125</AltitudeMeters>
            <DistanceMeters>NAN</DistanceMeters>
          </Trackpoint>
          <Trackpoint>
            <Time>2020-03-07T16:47:15.000Z</Time>
            <Position>
              <LatitudeDegrees>40.7111865095794200897216796875</LatitudeDegrees>
              <LongitudeDegrees>-3.90930849127471446990966796875</LongitudeDegrees>
            </Position>
            <AltitudeMeters>914.20001220703125</AltitudeMeters>
            <DistanceMeters>NAN</DistanceMeters>
          </Trackpoint>
          <Trackpoint>
            <Time>2020-03-07T16:47:16.000Z</Time>
            <Position>
              <LatitudeDegrees>40.7112421654164791107177734375</LatitudeDegrees>
              <LongitudeDegrees>-3.9092443697154521942138671875</LongitudeDegrees>
            </Position>
            <AltitudeMeters>914.20001220703125</AltitudeMeters>
            <DistanceMeters>NAN</DistanceMeters>
          </Trackpoint>
          <Trackpoint>
            <Time>2020-03-07T16:47:17.000Z</Time>
            <Position>
              <LatitudeDegrees>40.7112979888916015625</LatitudeDegrees>
              <LongitudeDegrees>-3.90918158926069736480712890625</LongitudeDegrees>
            </Position>
            <AltitudeMeters>914.20001220703125</AltitudeMeters>
            <DistanceMeters>NAN</DistanceMeters>
          </Trackpoint>
          <Trackpoint>
            <Time>2020-03-07T16:47:18.000Z</Time>
            <Position>
              <LatitudeDegrees>40.71135305799543857574462890625</LatitudeDegrees>
              <LongitudeDegrees>-3.90911922790110111236572265625</LongitudeDegrees>
            </Position>
            <AltitudeMeters>914.20001220703125</AltitudeMeters>
            <DistanceMeters>NAN</DistanceMeters>
          </Trackpoint>
          <Trackpoint>
            <Time>2020-03-07T16:47:19.000Z</Time>
            <Position>
              <LatitudeDegrees>40.711409635841846466064453125</LatitudeDegrees>
              <LongitudeDegrees>-3.90905678272247314453125</LongitudeDegrees>
            </Position>
            <AltitudeMeters>914.20001220703125</AltitudeMeters>
            <DistanceMeters>NAN</DistanceMeters>
          </Trackpoint>
          <Trackpoint>
            <Time>2020-03-07T16:47:20.000Z</Time>
            <Position>
              <LatitudeDegrees>40.711409635841846466064453125</LatitudeDegrees>
              <LongitudeDegrees>-3.90905678272247314453125</LongitudeDegrees>
            </Position>
            <AltitudeMeters>914.20001220703125</AltitudeMeters>
            <DistanceMeters>NAN</DistanceMeters>
          </Trackpoint>
          <Trackpoint>
            <Time>2020-03-07T16:47:21.000Z</Time>
            <Position>
              <LatitudeDegrees>40.71152522228658199310302734375</LatitudeDegrees>
              <LongitudeDegrees>-3.9089305512607097625732421875</LongitudeDegrees>
            </Position>
            <AltitudeMeters>914.20001220703125</AltitudeMeters>
            <DistanceMeters>NAN</DistanceMeters>
          </Trackpoint>
          <Trackpoint>
            <Time>2020-03-07T16:47:22.000Z</Time>
            <Position>
              <LatitudeDegrees>40.71158221922814846038818359375</LatitudeDegrees>
              <LongitudeDegrees>-3.908867351710796356201171875</LongitudeDegrees>
            </Position>
            <AltitudeMeters>914</AltitudeMeters>
            <DistanceMeters>NAN</DistanceMeters>
          </Trackpoint>
          <Trackpoint>
            <Time>2020-03-07T16:47:23.000Z</Time>
            <Position>
              <LatitudeDegrees>40.71163888089358806610107421875</LatitudeDegrees>
              <LongitudeDegrees>-3.90880264341831207275390625</LongitudeDegrees>
            </Position>
            <AltitudeMeters>914</AltitudeMeters>
            <DistanceMeters>NAN</DistanceMeters>
          </Trackpoint>
          <Trackpoint>
            <Time>2020-03-07T16:47:24.000Z</Time>
            <Position>
              <LatitudeDegrees>40.71169294416904449462890625</LatitudeDegrees>
              <LongitudeDegrees>-3.90873558819293975830078125</LongitudeDegrees>
            </Position>
            <AltitudeMeters>914</AltitudeMeters>
            <DistanceMeters>NAN</DistanceMeters>
          </Trackpoint>
          <Trackpoint>
            <Time>2020-03-07T16:47:25.000Z</Time>
            <Position>
              <LatitudeDegrees>40.711747594177722930908203125</LatitudeDegrees>
              <LongitudeDegrees>-3.90866844914853572845458984375</LongitudeDegrees>
            </Position>
            <AltitudeMeters>914</AltitudeMeters>
            <DistanceMeters>NAN</DistanceMeters>
          </Trackpoint>
          <Trackpoint>
            <Time>2020-03-07T16:47:26.000Z</Time>
            <Position>
              <LatitudeDegrees>40.71180148981511592864990234375</LatitudeDegrees>
              <LongitudeDegrees>-3.90859871171414852142333984375</LongitudeDegrees>
            </Position>
            <AltitudeMeters>914</AltitudeMeters>
            <DistanceMeters>NAN</DistanceMeters>
          </Trackpoint>
          <Trackpoint>
            <Time>2020-03-07T16:47:27.000Z</Time>
            <Position>
              <LatitudeDegrees>40.71185563690960407257080078125</LatitudeDegrees>
              <LongitudeDegrees>-3.9085275493562221527099609375</LongitudeDegrees>
            </Position>
            <AltitudeMeters>914</AltitudeMeters>
            <DistanceMeters>NAN</DistanceMeters>
          </Trackpoint>
          <Trackpoint>
            <Time>2020-03-07T16:47:28.000Z</Time>
            <Position>
              <LatitudeDegrees>40.7119103707373142242431640625</LatitudeDegrees>
              <LongitudeDegrees>-3.90845621936023235321044921875</LongitudeDegrees>
            </Position>
            <AltitudeMeters>914</AltitudeMeters>
            <DistanceMeters>NAN</DistanceMeters>
          </Trackpoint>
          <Trackpoint>
            <Time>2020-03-07T16:47:29.000Z</Time>
            <Position>
              <LatitudeDegrees>40.7119640149176120758056640625</LatitudeDegrees>
              <LongitudeDegrees>-3.9083823747932910919189453125</LongitudeDegrees>
            </Position>
            <AltitudeMeters>913.79998779296875</AltitudeMeters>
            <DistanceMeters>NAN</DistanceMeters>
          </Trackpoint>
          <Trackpoint>
            <Time>2020-03-07T16:47:30.000Z</Time>
            <Position>
              <LatitudeDegrees>40.712016485631465911865234375</LatitudeDegrees>
              <LongitudeDegrees>-3.90830819495022296905517578125</LongitudeDegrees>
            </Position>
            <AltitudeMeters>913.79998779296875</AltitudeMeters>
            <DistanceMeters>NAN</DistanceMeters>
          </Trackpoint>
          <Trackpoint>
            <Time>2020-03-07T16:47:31.000Z</Time>
            <Position>
              <LatitudeDegrees>40.71206686086952686309814453125</LatitudeDegrees>
              <LongitudeDegrees>-3.90823409892618656158447265625</LongitudeDegrees>
            </Position>
            <AltitudeMeters>913.79998779296875</AltitudeMeters>
            <DistanceMeters>NAN</DistanceMeters>
          </Trackpoint>
          <Trackpoint>
            <Time>2020-03-07T16:47:32.000Z</Time>
            <Position>
              <LatitudeDegrees>40.71211782284080982208251953125</LatitudeDegrees>
              <LongitudeDegrees>-3.908159919083118438720703125</LongitudeDegrees>
            </Position>
            <AltitudeMeters>913.79998779296875</AltitudeMeters>
            <DistanceMeters>NAN</DistanceMeters>
          </Trackpoint>
          <Trackpoint>
            <Time>2020-03-07T16:47:33.000Z</Time>
            <Position>
              <LatitudeDegrees>40.71216727606952190399169921875</LatitudeDegrees>
              <LongitudeDegrees>-3.90808381140232086181640625</LongitudeDegrees>
            </Position>
            <AltitudeMeters>913.4000244140625</AltitudeMeters>
            <DistanceMeters>NAN</DistanceMeters>
          </Trackpoint>
          <Trackpoint>
            <Time>2020-03-07T16:47:34.000Z</Time>
            <Position>
              <LatitudeDegrees>40.71221706457436084747314453125</LatitudeDegrees>
              <LongitudeDegrees>-3.90800661407411098480224609375</LongitudeDegrees>
            </Position>
            <AltitudeMeters>913</AltitudeMeters>
            <DistanceMeters>NAN</DistanceMeters>
          </Trackpoint>
          <Trackpoint>
            <Time>2020-03-07T16:47:35.000Z</Time>
            <Position>
              <LatitudeDegrees>40.71226693689823150634765625</LatitudeDegrees>
              <LongitudeDegrees>-3.90792933292686939239501953125</LongitudeDegrees>
            </Position>
            <AltitudeMeters>912.5999755859375</AltitudeMeters>
            <DistanceMeters>NAN</DistanceMeters>
          </Trackpoint>
          <Trackpoint>
            <Time>2020-03-07T16:47:36.000Z</Time>
            <Position>
              <LatitudeDegrees>40.71231462992727756500244140625</LatitudeDegrees>
              <LongitudeDegrees>-3.90784987248480319976806640625</LongitudeDegrees>
            </Position>
            <AltitudeMeters>912.5999755859375</AltitudeMeters>
            <DistanceMeters>NAN</DistanceMeters>
          </Trackpoint>
          <Trackpoint>
            <Time>2020-03-07T16:47:37.000Z</Time>
            <Position>
              <LatitudeDegrees>40.7123623229563236236572265625</LatitudeDegrees>
              <LongitudeDegrees>-3.9077691547572612762451171875</LongitudeDegrees>
            </Position>
            <AltitudeMeters>912.4000244140625</AltitudeMeters>
            <DistanceMeters>NAN</DistanceMeters>
          </Trackpoint>
          <Trackpoint>
            <Time>2020-03-07T16:47:38.000Z</Time>
            <Position>
              <LatitudeDegrees>40.71240917779505252838134765625</LatitudeDegrees>
              <LongitudeDegrees>-3.9076890237629413604736328125</LongitudeDegrees>
            </Position>
            <AltitudeMeters>912.4000244140625</AltitudeMeters>
            <DistanceMeters>NAN</DistanceMeters>
          </Trackpoint>
          <Trackpoint>
            <Time>2020-03-07T16:47:39.000Z</Time>
            <Position>
              <LatitudeDegrees>40.7124551944434642791748046875</LatitudeDegrees>
              <LongitudeDegrees>-3.9076082222163677215576171875</LongitudeDegrees>
            </Position>
            <AltitudeMeters>912.4000244140625</AltitudeMeters>
            <DistanceMeters>NAN</DistanceMeters>
          </Trackpoint>
          <Trackpoint>
            <Time>2020-03-07T16:47:40.000Z</Time>
            <Position>
              <LatitudeDegrees>40.71250154636800289154052734375</LatitudeDegrees>
              <LongitudeDegrees>-3.90752716921269893646240234375</LongitudeDegrees>
            </Position>
            <AltitudeMeters>912.4000244140625</AltitudeMeters>
            <DistanceMeters>NAN</DistanceMeters>
          </Trackpoint>
          <Trackpoint>
            <Time>2020-03-07T16:47:41.000Z</Time>
            <Position>
              <LatitudeDegrees>40.71254613809287548065185546875</LatitudeDegrees>
              <LongitudeDegrees>-3.907446451485157012939453125</LongitudeDegrees>
            </Position>
            <AltitudeMeters>912.4000244140625</AltitudeMeters>
            <DistanceMeters>NAN</DistanceMeters>
          </Trackpoint>
          <Trackpoint>
            <Time>2020-03-07T16:47:42.000Z</Time>
            <Position>
              <LatitudeDegrees>40.7125933282077312469482421875</LatitudeDegrees>
              <LongitudeDegrees>-3.90736472792923450469970703125</LongitudeDegrees>
            </Position>
            <AltitudeMeters>912.20001220703125</AltitudeMeters>
            <DistanceMeters>NAN</DistanceMeters>
          </Trackpoint>
          <Trackpoint>
            <Time>2020-03-07T16:47:43.000Z</Time>
            <Position>
              <LatitudeDegrees>40.71263984777033329010009765625</LatitudeDegrees>
              <LongitudeDegrees>-3.9072833396494388580322265625</LongitudeDegrees>
            </Position>
            <AltitudeMeters>912.20001220703125</AltitudeMeters>
            <DistanceMeters>NAN</DistanceMeters>
          </Trackpoint>
          <Trackpoint>
            <Time>2020-03-07T16:47:44.000Z</Time>
            <Position>
              <LatitudeDegrees>40.71268594823777675628662109375</LatitudeDegrees>
              <LongitudeDegrees>-3.90720136463642120361328125</LongitudeDegrees>
            </Position>
            <AltitudeMeters>912.20001220703125</AltitudeMeters>
            <DistanceMeters>NAN</DistanceMeters>
          </Trackpoint>
          <Trackpoint>
            <Time>2020-03-07T16:47:45.000Z</Time>
            <Position>
              <LatitudeDegrees>40.71273305453360080718994140625</LatitudeDegrees>
              <LongitudeDegrees>-3.907119892537593841552734375</LongitudeDegrees>
            </Position>
            <AltitudeMeters>912.20001220703125</AltitudeMeters>
            <DistanceMeters>NAN</DistanceMeters>
          </Trackpoint>
          <Trackpoint>
            <Time>2020-03-07T16:47:46.000Z</Time>
            <Position>
              <LatitudeDegrees>40.71278150193393230438232421875</LatitudeDegrees>
              <LongitudeDegrees>-3.90703934244811534881591796875</LongitudeDegrees>
            </Position>
            <AltitudeMeters>912.20001220703125</AltitudeMeters>
            <DistanceMeters>NAN</DistanceMeters>
          </Trackpoint>
          <Trackpoint>
            <Time>2020-03-07T16:47:47.000Z</Time>
            <Position>
              <LatitudeDegrees>40.7128293626010417938232421875</LatitudeDegrees>
              <LongitudeDegrees>-3.90695862472057342529296875</LongitudeDegrees>
            </Position>
            <AltitudeMeters>912.20001220703125</AltitudeMeters>
            <DistanceMeters>NAN</DistanceMeters>
          </Trackpoint>
          <Trackpoint>
            <Time>2020-03-07T16:47:48.000Z</Time>
            <Position>
              <LatitudeDegrees>40.71287588216364383697509765625</LatitudeDegrees>
              <LongitudeDegrees>-3.90687706880271434783935546875</LongitudeDegrees>
            </Position>
            <AltitudeMeters>912.20001220703125</AltitudeMeters>
            <DistanceMeters>NAN</DistanceMeters>
          </Trackpoint>
          <Trackpoint>
            <Time>2020-03-07T16:47:49.000Z</Time>
            <Position>
              <LatitudeDegrees>40.71292349137365818023681640625</LatitudeDegrees>
              <LongitudeDegrees>-3.90679760836064815521240234375</LongitudeDegrees>
            </Position>
            <AltitudeMeters>912.20001220703125</AltitudeMeters>
            <DistanceMeters>NAN</DistanceMeters>
          </Trackpoint>
          <Trackpoint>
            <Time>2020-03-07T16:47:50.000Z</Time>
            <Position>
              <LatitudeDegrees>40.7129708491265773773193359375</LatitudeDegrees>
              <LongitudeDegrees>-3.90671764500439167022705078125</LongitudeDegrees>
            </Position>
            <AltitudeMeters>912.20001220703125</AltitudeMeters>
            <DistanceMeters>NAN</DistanceMeters>
          </Trackpoint>
          <Trackpoint>
            <Time>2020-03-07T16:47:51.000Z</Time>
            <Position>
              <LatitudeDegrees>40.71301988326013088226318359375</LatitudeDegrees>
              <LongitudeDegrees>-3.90663784928619861602783203125</LongitudeDegrees>
            </Position>
            <AltitudeMeters>912.20001220703125</AltitudeMeters>
            <DistanceMeters>NAN</DistanceMeters>
          </Trackpoint>
          <Trackpoint>
            <Time>2020-03-07T16:47:52.000Z</Time>
            <Position>
              <LatitudeDegrees>40.713069252669811248779296875</LatitudeDegrees>
              <LongitudeDegrees>-3.90655838884413242340087890625</LongitudeDegrees>
            </Position>
            <AltitudeMeters>912.20001220703125</AltitudeMeters>
            <DistanceMeters>NAN</DistanceMeters>
          </Trackpoint>
          <Trackpoint>
            <Time>2020-03-07T16:47:53.000Z</Time>
            <Position>
              <LatitudeDegrees>40.7131178677082061767578125</LatitudeDegrees>
              <LongitudeDegrees>-3.9064766652882099151611328125</LongitudeDegrees>
            </Position>
            <AltitudeMeters>912.20001220703125</AltitudeMeters>
            <DistanceMeters>NAN</DistanceMeters>
          </Trackpoint>
          <Trackpoint>
            <Time>2020-03-07T16:47:54.000Z</Time>
            <Position>
              <LatitudeDegrees>40.7131656445562839508056640625</LatitudeDegrees>
              <LongitudeDegrees>-3.90639443881809711456298828125</LongitudeDegrees>
            </Position>
            <AltitudeMeters>912.20001220703125</AltitudeMeters>
            <DistanceMeters>NAN</DistanceMeters>
          </Trackpoint>
          <Trackpoint>
            <Time>2020-03-07T16:47:55.000Z</Time>
            <Position>
              <LatitudeDegrees>40.71321434341371059417724609375</LatitudeDegrees>
              <LongitudeDegrees>-3.9063130505383014678955078125</LongitudeDegrees>
            </Position>
            <AltitudeMeters>912.20001220703125</AltitudeMeters>
            <DistanceMeters>NAN</DistanceMeters>
          </Trackpoint>
          <Trackpoint>
            <Time>2020-03-07T16:47:56.000Z</Time>
            <Position>
              <LatitudeDegrees>40.71326346136629581451416015625</LatitudeDegrees>
              <LongitudeDegrees>-3.90623300336301326751708984375</LongitudeDegrees>
            </Position>
            <AltitudeMeters>912</AltitudeMeters>
            <DistanceMeters>NAN</DistanceMeters>
          </Trackpoint>
          <Trackpoint>
            <Time>2020-03-07T16:47:57.000Z</Time>
            <Position>
              <LatitudeDegrees>40.7133114896714687347412109375</LatitudeDegrees>
              <LongitudeDegrees>-3.906152956187725067138671875</LongitudeDegrees>
            </Position>
            <AltitudeMeters>912</AltitudeMeters>
            <DistanceMeters>NAN</DistanceMeters>
          </Trackpoint>
          <Trackpoint>
            <Time>2020-03-07T16:47:58.000Z</Time>
            <Position>
              <LatitudeDegrees>40.7133584283292293548583984375</LatitudeDegrees>
              <LongitudeDegrees>-3.90607207082211971282958984375</LongitudeDegrees>
            </Position>
            <AltitudeMeters>912</AltitudeMeters>
            <DistanceMeters>NAN</DistanceMeters>
          </Trackpoint>
          <Trackpoint>
            <Time>2020-03-07T16:47:59.000Z</Time>
            <Position>
              <LatitudeDegrees>40.71340511552989482879638671875</LatitudeDegrees>
              <LongitudeDegrees>-3.90598976053297519683837890625</LongitudeDegrees>
            </Position>
            <AltitudeMeters>912</AltitudeMeters>
            <DistanceMeters>NAN</DistanceMeters>
          </Trackpoint>
          <Trackpoint>
            <Time>2020-03-07T16:48:00.000Z</Time>
            <Position>
              <LatitudeDegrees>40.71345021016895771026611328125</LatitudeDegrees>
              <LongitudeDegrees>-3.9059077017009258270263671875</LongitudeDegrees>
            </Position>
            <AltitudeMeters>912</AltitudeMeters>
            <DistanceMeters>NAN</DistanceMeters>
          </Trackpoint>
          <Trackpoint>
            <Time>2020-03-07T16:48:01.000Z</Time>
            <Position>
              <LatitudeDegrees>40.71349270641803741455078125</LatitudeDegrees>
              <LongitudeDegrees>-3.9058252237737178802490234375</LongitudeDegrees>
            </Position>
            <AltitudeMeters>911.79998779296875</AltitudeMeters>
            <DistanceMeters>NAN</DistanceMeters>
          </Trackpoint>
          <Trackpoint>
            <Time>2020-03-07T16:48:02.000Z</Time>
            <Position>
              <LatitudeDegrees>40.713533274829387664794921875</LatitudeDegrees>
              <LongitudeDegrees>-3.90574266202747821807861328125</LongitudeDegrees>
            </Position>
            <AltitudeMeters>911.5999755859375</AltitudeMeters>
            <DistanceMeters>NAN</DistanceMeters>
          </Trackpoint>
          <Trackpoint>
            <Time>2020-03-07T16:48:03.000Z</Time>
            <Position>
              <LatitudeDegrees>40.71357375942170619964599609375</LatitudeDegrees>
              <LongitudeDegrees>-3.905658759176731109619140625</LongitudeDegrees>
            </Position>
            <AltitudeMeters>911.5999755859375</AltitudeMeters>
            <DistanceMeters>NAN</DistanceMeters>
          </Trackpoint>
          <Trackpoint>
            <Time>2020-03-07T16:48:04.000Z</Time>
            <Position>
              <LatitudeDegrees>40.71361466310918331146240234375</LatitudeDegrees>
              <LongitudeDegrees>-3.90557435341179370880126953125</LongitudeDegrees>
            </Position>
            <AltitudeMeters>911.5999755859375</AltitudeMeters>
            <DistanceMeters>NAN</DistanceMeters>
          </Trackpoint>
          <Trackpoint>
            <Time>2020-03-07T16:48:05.000Z</Time>
            <Position>
              <LatitudeDegrees>40.71365296840667724609375</LatitudeDegrees>
              <LongitudeDegrees>-3.9054889418184757232666015625</LongitudeDegrees>
            </Position>
            <AltitudeMeters>911.4000244140625</AltitudeMeters>
            <DistanceMeters>NAN</DistanceMeters>
          </Trackpoint>
          <Trackpoint>
            <Time>2020-03-07T16:48:06.000Z</Time>
            <Position>
              <LatitudeDegrees>40.71368993259966373443603515625</LatitudeDegrees>
              <LongitudeDegrees>-3.905402608215808868408203125</LongitudeDegrees>
            </Position>
            <AltitudeMeters>911.4000244140625</AltitudeMeters>
            <DistanceMeters>NAN</DistanceMeters>
          </Trackpoint>
          <Trackpoint>
            <Time>2020-03-07T16:48:07.000Z</Time>
            <Position>
              <LatitudeDegrees>40.71372346021234989166259765625</LatitudeDegrees>
              <LongitudeDegrees>-3.905315436422824859619140625</LongitudeDegrees>
            </Position>
            <AltitudeMeters>911.4000244140625</AltitudeMeters>
            <DistanceMeters>NAN</DistanceMeters>
          </Trackpoint>
          <Trackpoint>
            <Time>2020-03-07T16:48:08.000Z</Time>
            <Position>
              <LatitudeDegrees>40.71375447325408458709716796875</LatitudeDegrees>
              <LongitudeDegrees>-3.90522717498242855072021484375</LongitudeDegrees>
            </Position>
            <AltitudeMeters>911.4000244140625</AltitudeMeters>
            <DistanceMeters>NAN</DistanceMeters>
          </Trackpoint>
          <Trackpoint>
            <Time>2020-03-07T16:48:09.000Z</Time>
            <Position>
              <LatitudeDegrees>40.71378213353455066680908203125</LatitudeDegrees>
              <LongitudeDegrees>-3.90513849444687366485595703125</LongitudeDegrees>
            </Position>
            <AltitudeMeters>911.20001220703125</AltitudeMeters>
            <DistanceMeters>NAN</DistanceMeters>
          </Trackpoint>
          <Trackpoint>
            <Time>2020-03-07T16:48:10.000Z</Time>
            <Position>
              <LatitudeDegrees>40.71380627341568470001220703125</LatitudeDegrees>
              <LongitudeDegrees>-3.9050482213497161865234375</LongitudeDegrees>
            </Position>
            <AltitudeMeters>911.20001220703125</AltitudeMeters>
            <DistanceMeters>NAN</DistanceMeters>
          </Trackpoint>
          <Trackpoint>
            <Time>2020-03-07T16:48:11.000Z</Time>
            <Position>
              <LatitudeDegrees>40.713827647268772125244140625</LatitudeDegrees>
              <LongitudeDegrees>-3.90495635569095611572265625</LongitudeDegrees>
            </Position>
            <AltitudeMeters>911.20001220703125</AltitudeMeters>
            <DistanceMeters>NAN</DistanceMeters>
          </Trackpoint>
          <Trackpoint>
            <Time>2020-03-07T16:48:12.000Z</Time>
            <Position>
              <LatitudeDegrees>40.7138474285602569580078125</LatitudeDegrees>
              <LongitudeDegrees>-3.90486306510865688323974609375</LongitudeDegrees>
            </Position>
            <AltitudeMeters>911.20001220703125</AltitudeMeters>
            <DistanceMeters>NAN</DistanceMeters>
          </Trackpoint>
          <Trackpoint>
            <Time>2020-03-07T16:48:13.000Z</Time>
            <Position>
              <LatitudeDegrees>40.71386662311851978302001953125</LatitudeDegrees>
              <LongitudeDegrees>-3.9047687686979770660400390625</LongitudeDegrees>
            </Position>
            <AltitudeMeters>911.20001220703125</AltitudeMeters>
            <DistanceMeters>NAN</DistanceMeters>
          </Trackpoint>
          <Trackpoint>
            <Time>2020-03-07T16:48:14.000Z</Time>
            <Position>
              <LatitudeDegrees>40.7138811238110065460205078125</LatitudeDegrees>
              <LongitudeDegrees>-3.90467732213437557220458984375</LongitudeDegrees>
            </Position>
            <AltitudeMeters>911.20001220703125</AltitudeMeters>
            <DistanceMeters>NAN</DistanceMeters>
          </Trackpoint>
          <Trackpoint>
            <Time>2020-03-07T16:48:15.000Z</Time>
            <Position>
              <LatitudeDegrees>40.713900066912174224853515625</LatitudeDegrees>
              <LongitudeDegrees>-3.90458277426660060882568359375</LongitudeDegrees>
            </Position>
            <AltitudeMeters>911</AltitudeMeters>
            <DistanceMeters>NAN</DistanceMeters>
          </Trackpoint>
          <Trackpoint>
            <Time>2020-03-07T16:48:16.000Z</Time>
            <Position>
              <LatitudeDegrees>40.713918171823024749755859375</LatitudeDegrees>
              <LongitudeDegrees>-3.90448772348463535308837890625</LongitudeDegrees>
            </Position>
            <AltitudeMeters>911</AltitudeMeters>
            <DistanceMeters>NAN</DistanceMeters>
          </Trackpoint>
          <Trackpoint>
            <Time>2020-03-07T16:48:17.000Z</Time>
            <Position>
              <LatitudeDegrees>40.71393736638128757476806640625</LatitudeDegrees>
              <LongitudeDegrees>-3.90439175069332122802734375</LongitudeDegrees>
            </Position>
            <AltitudeMeters>911</AltitudeMeters>
            <DistanceMeters>NAN</DistanceMeters>
          </Trackpoint>
          <Trackpoint>
            <Time>2020-03-07T16:48:18.000Z</Time>
            <Position>
              <LatitudeDegrees>40.7139558903872966766357421875</LatitudeDegrees>
              <LongitudeDegrees>-3.90429493971168994903564453125</LongitudeDegrees>
            </Position>
            <AltitudeMeters>911</AltitudeMeters>
            <DistanceMeters>NAN</DistanceMeters>
          </Trackpoint>
          <Trackpoint>
            <Time>2020-03-07T16:48:19.000Z</Time>
            <Position>
              <LatitudeDegrees>40.7139746658504009246826171875</LatitudeDegrees>
              <LongitudeDegrees>-3.904198296368122100830078125</LongitudeDegrees>
            </Position>
            <AltitudeMeters>911</AltitudeMeters>
            <DistanceMeters>NAN</DistanceMeters>
          </Trackpoint>
          <Trackpoint>
            <Time>2020-03-07T16:48:20.000Z</Time>
            <Position>
              <LatitudeDegrees>40.71399293839931488037109375</LatitudeDegrees>
              <LongitudeDegrees>-3.90409997664391994476318359375</LongitudeDegrees>
            </Position>
            <AltitudeMeters>910.79998779296875</AltitudeMeters>
            <DistanceMeters>NAN</DistanceMeters>
          </Trackpoint>
          <Trackpoint>
            <Time>2020-03-07T16:48:21.000Z</Time>
            <Position>
              <LatitudeDegrees>40.714012049138545989990234375</LatitudeDegrees>
              <LongitudeDegrees>-3.9040021598339080810546875</LongitudeDegrees>
            </Position>
            <AltitudeMeters>910.79998779296875</AltitudeMeters>
            <DistanceMeters>NAN</DistanceMeters>
          </Trackpoint>
          <Trackpoint>
            <Time>2020-03-07T16:48:22.000Z</Time>
            <Position>
              <LatitudeDegrees>40.7140313275158405303955078125</LatitudeDegrees>
              <LongitudeDegrees>-3.9039034210145473480224609375</LongitudeDegrees>
            </Position>
            <AltitudeMeters>910.79998779296875</AltitudeMeters>
            <DistanceMeters>NAN</DistanceMeters>
          </Trackpoint>
          <Trackpoint>
            <Time>2020-03-07T16:48:23.000Z</Time>
            <Position>
              <LatitudeDegrees>40.71405001915991306304931640625</LatitudeDegrees>
              <LongitudeDegrees>-3.90380443073809146881103515625</LongitudeDegrees>
            </Position>
            <AltitudeMeters>910.79998779296875</AltitudeMeters>
            <DistanceMeters>NAN</DistanceMeters>
          </Trackpoint>
          <Trackpoint>
            <Time>2020-03-07T16:48:24.000Z</Time>
            <Position>
              <LatitudeDegrees>40.71406795643270015716552734375</LatitudeDegrees>
              <LongitudeDegrees>-3.9037049375474452972412109375</LongitudeDegrees>
            </Position>
            <AltitudeMeters>910.5999755859375</AltitudeMeters>
            <DistanceMeters>NAN</DistanceMeters>
          </Trackpoint>
          <Trackpoint>
            <Time>2020-03-07T16:48:25.000Z</Time>
            <Position>
              <LatitudeDegrees>40.7140849716961383819580078125</LatitudeDegrees>
              <LongitudeDegrees>-3.90360577963292598724365234375</LongitudeDegrees>
            </Position>
            <AltitudeMeters>910.5999755859375</AltitudeMeters>
            <DistanceMeters>NAN</DistanceMeters>
          </Trackpoint>
          <Trackpoint>
            <Time>2020-03-07T16:48:26.000Z</Time>
            <Position>
              <LatitudeDegrees>40.7141030766069889068603515625</LatitudeDegrees>
              <LongitudeDegrees>-3.90350687317550182342529296875</LongitudeDegrees>
            </Position>
            <AltitudeMeters>910.5999755859375</AltitudeMeters>
            <DistanceMeters>NAN</DistanceMeters>
          </Trackpoint>
          <Trackpoint>
            <Time>2020-03-07T16:48:27.000Z</Time>
            <Position>
              <LatitudeDegrees>40.71412143297493457794189453125</LatitudeDegrees>
              <LongitudeDegrees>-3.9034078828990459442138671875</LongitudeDegrees>
            </Position>
            <AltitudeMeters>910.5999755859375</AltitudeMeters>
            <DistanceMeters>NAN</DistanceMeters>
          </Trackpoint>
          <Trackpoint>
            <Time>2020-03-07T16:48:28.000Z</Time>
            <Position>
              <LatitudeDegrees>40.71414037607610225677490234375</LatitudeDegrees>
              <LongitudeDegrees>-3.903308808803558349609375</LongitudeDegrees>
            </Position>
            <AltitudeMeters>910.4000244140625</AltitudeMeters>
            <DistanceMeters>NAN</DistanceMeters>
          </Trackpoint>
          <Trackpoint>
            <Time>2020-03-07T16:48:29.000Z</Time>
            <Position>
              <LatitudeDegrees>40.71415982209146022796630859375</LatitudeDegrees>
              <LongitudeDegrees>-3.90321099199354648590087890625</LongitudeDegrees>
            </Position>
            <AltitudeMeters>910.4000244140625</AltitudeMeters>
            <DistanceMeters>NAN</DistanceMeters>
          </Trackpoint>
          <Trackpoint>
            <Time>2020-03-07T16:48:30.000Z</Time>
            <Position>
              <LatitudeDegrees>40.7141800224781036376953125</LatitudeDegrees>
              <LongitudeDegrees>-3.90311300754547119140625</LongitudeDegrees>
            </Position>
            <AltitudeMeters>910.4000244140625</AltitudeMeters>
            <DistanceMeters>NAN</DistanceMeters>
          </Trackpoint>
          <Trackpoint>
            <Time>2020-03-07T16:48:31.000Z</Time>
            <Position>
              <LatitudeDegrees>40.71419946849346160888671875</LatitudeDegrees>
              <LongitudeDegrees>-3.90301485545933246612548828125</LongitudeDegrees>
            </Position>
            <AltitudeMeters>910.20001220703125</AltitudeMeters>
            <DistanceMeters>NAN</DistanceMeters>
          </Trackpoint>
          <Trackpoint>
            <Time>2020-03-07T16:48:32.000Z</Time>
            <Position>
              <LatitudeDegrees>40.71421899832785129547119140625</LatitudeDegrees>
              <LongitudeDegrees>-3.90291645191609859466552734375</LongitudeDegrees>
            </Position>
            <AltitudeMeters>910.20001220703125</AltitudeMeters>
            <DistanceMeters>NAN</DistanceMeters>
          </Trackpoint>
          <Trackpoint>
            <Time>2020-03-07T16:48:33.000Z</Time>
            <Position>
              <LatitudeDegrees>40.71423894725739955902099609375</LatitudeDegrees>
              <LongitudeDegrees>-3.9028179645538330078125</LongitudeDegrees>
            </Position>
            <AltitudeMeters>910.20001220703125</AltitudeMeters>
            <DistanceMeters>NAN</DistanceMeters>
          </Trackpoint>
          <Trackpoint>
            <Time>2020-03-07T16:48:34.000Z</Time>
            <Position>
              <LatitudeDegrees>40.7142576389014720916748046875</LatitudeDegrees>
              <LongitudeDegrees>-3.9027195610105991363525390625</LongitudeDegrees>
            </Position>
            <AltitudeMeters>910.20001220703125</AltitudeMeters>
            <DistanceMeters>NAN</DistanceMeters>
          </Trackpoint>
          <Trackpoint>
            <Time>2020-03-07T16:48:35.000Z</Time>
            <Position>
              <LatitudeDegrees>40.71427415125072002410888671875</LatitudeDegrees>
              <LongitudeDegrees>-3.90262107364833354949951171875</LongitudeDegrees>
            </Position>
            <AltitudeMeters>910.20001220703125</AltitudeMeters>
            <DistanceMeters>NAN</DistanceMeters>
          </Trackpoint>
          <Trackpoint>
            <Time>2020-03-07T16:48:36.000Z</Time>
            <Position>
              <LatitudeDegrees>40.71428798139095306396484375</LatitudeDegrees>
              <LongitudeDegrees>-3.9025224186480045318603515625</LongitudeDegrees>
            </Position>
            <AltitudeMeters>910.20001220703125</AltitudeMeters>
            <DistanceMeters>NAN</DistanceMeters>
          </Trackpoint>
          <Trackpoint>
            <Time>2020-03-07T16:48:37.000Z</Time>
            <Position>
              <LatitudeDegrees>40.7143015600740909576416015625</LatitudeDegrees>
              <LongitudeDegrees>-3.90242376364767551422119140625</LongitudeDegrees>
            </Position>
            <AltitudeMeters>910.20001220703125</AltitudeMeters>
            <DistanceMeters>NAN</DistanceMeters>
          </Trackpoint>
          <Trackpoint>
            <Time>2020-03-07T16:48:38.000Z</Time>
            <Position>
              <LatitudeDegrees>40.714317820966243743896484375</LatitudeDegrees>
              <LongitudeDegrees>-3.90232510864734649658203125</LongitudeDegrees>
            </Position>
            <AltitudeMeters>910.20001220703125</AltitudeMeters>
            <DistanceMeters>NAN</DistanceMeters>
          </Trackpoint>
          <Trackpoint>
            <Time>2020-03-07T16:48:39.000Z</Time>
            <Position>
              <LatitudeDegrees>40.71433567441999912261962890625</LatitudeDegrees>
              <LongitudeDegrees>-3.902228213846683502197265625</LongitudeDegrees>
            </Position>
            <AltitudeMeters>910</AltitudeMeters>
            <DistanceMeters>NAN</DistanceMeters>
          </Trackpoint>
          <Trackpoint>
            <Time>2020-03-07T16:48:40.000Z</Time>
            <Position>
              <LatitudeDegrees>40.71435344405472278594970703125</LatitudeDegrees>
              <LongitudeDegrees>-3.90213257633149623870849609375</LongitudeDegrees>
            </Position>
            <AltitudeMeters>910</AltitudeMeters>
            <DistanceMeters>NAN</DistanceMeters>
          </Trackpoint>
          <Trackpoint>
            <Time>2020-03-07T16:48:41.000Z</Time>
            <Position>
              <LatitudeDegrees>40.71437071077525615692138671875</LatitudeDegrees>
              <LongitudeDegrees>-3.90203685499727725982666015625</LongitudeDegrees>
            </Position>
            <AltitudeMeters>910</AltitudeMeters>
            <DistanceMeters>NAN</DistanceMeters>
          </Trackpoint>
          <Trackpoint>
            <Time>2020-03-07T16:48:42.000Z</Time>
            <Position>
              <LatitudeDegrees>40.71438764221966266632080078125</LatitudeDegrees>
              <LongitudeDegrees>-3.901941888034343719482421875</LongitudeDegrees>
            </Position>
            <AltitudeMeters>910</AltitudeMeters>
            <DistanceMeters>NAN</DistanceMeters>
          </Trackpoint>
          <Trackpoint>
            <Time>2020-03-07T16:48:43.000Z</Time>
            <Position>
              <LatitudeDegrees>40.71440524421632289886474609375</LatitudeDegrees>
              <LongitudeDegrees>-3.9018471725285053253173828125</LongitudeDegrees>
            </Position>
            <AltitudeMeters>909.79998779296875</AltitudeMeters>
            <DistanceMeters>NAN</DistanceMeters>
          </Trackpoint>
          <Trackpoint>
            <Time>2020-03-07T16:48:44.000Z</Time>
            <Position>
              <LatitudeDegrees>40.71442234329879283905029296875</LatitudeDegrees>
              <LongitudeDegrees>-3.90175321139395236968994140625</LongitudeDegrees>
            </Position>
            <AltitudeMeters>909.79998779296875</AltitudeMeters>
            <DistanceMeters>NAN</DistanceMeters>
          </Trackpoint>
          <Trackpoint>
            <Time>2020-03-07T16:48:45.000Z</Time>
            <Position>
              <LatitudeDegrees>40.71444061584770679473876953125</LatitudeDegrees>
              <LongitudeDegrees>-3.90165832825005054473876953125</LongitudeDegrees>
            </Position>
            <AltitudeMeters>909.79998779296875</AltitudeMeters>
            <DistanceMeters>NAN</DistanceMeters>
          </Trackpoint>
          <Trackpoint>
            <Time>2020-03-07T16:48:46.000Z</Time>
            <Position>
              <LatitudeDegrees>40.7144581340253353118896484375</LatitudeDegrees>
              <LongitudeDegrees>-3.9015641994774341583251953125</LongitudeDegrees>
            </Position>
            <AltitudeMeters>909.79998779296875</AltitudeMeters>
            <DistanceMeters>NAN</DistanceMeters>
          </Trackpoint>
          <Trackpoint>
            <Time>2020-03-07T16:48:47.000Z</Time>
            <Position>
              <LatitudeDegrees>40.7144762389361858367919921875</LatitudeDegrees>
              <LongitudeDegrees>-3.90146956779062747955322265625</LongitudeDegrees>
            </Position>
            <AltitudeMeters>909.79998779296875</AltitudeMeters>
            <DistanceMeters>NAN</DistanceMeters>
          </Trackpoint>
          <Trackpoint>
            <Time>2020-03-07T16:48:48.000Z</Time>
            <Position>
              <LatitudeDegrees>40.7144953496754169464111328125</LatitudeDegrees>
              <LongitudeDegrees>-3.90137468464672565460205078125</LongitudeDegrees>
            </Position>
            <AltitudeMeters>909.79998779296875</AltitudeMeters>
            <DistanceMeters>NAN</DistanceMeters>
          </Trackpoint>
          <Trackpoint>
            <Time>2020-03-07T16:48:49.000Z</Time>
            <Position>
              <LatitudeDegrees>40.7145134545862674713134765625</LatitudeDegrees>
              <LongitudeDegrees>-3.9012797176837921142578125</LongitudeDegrees>
            </Position>
            <AltitudeMeters>909.79998779296875</AltitudeMeters>
            <DistanceMeters>NAN</DistanceMeters>
          </Trackpoint>
          <Trackpoint>
            <Time>2020-03-07T16:48:50.000Z</Time>
            <Position>
              <LatitudeDegrees>40.7145308889448642730712890625</LatitudeDegrees>
              <LongitudeDegrees>-3.9011843316256999969482421875</LongitudeDegrees>
            </Position>
            <AltitudeMeters>909.79998779296875</AltitudeMeters>
            <DistanceMeters>NAN</DistanceMeters>
          </Trackpoint>
          <Trackpoint>
            <Time>2020-03-07T16:48:51.000Z</Time>
            <Position>
              <LatitudeDegrees>40.714547820389270782470703125</LatitudeDegrees>
              <LongitudeDegrees>-3.90108835883438587188720703125</LongitudeDegrees>
            </Position>
            <AltitudeMeters>909.79998779296875</AltitudeMeters>
            <DistanceMeters>NAN</DistanceMeters>
          </Trackpoint>
          <Trackpoint>
            <Time>2020-03-07T16:48:52.000Z</Time>
            <Position>
              <LatitudeDegrees>40.7145650871098041534423828125</LatitudeDegrees>
              <LongitudeDegrees>-3.90099196694791316986083984375</LongitudeDegrees>
            </Position>
            <AltitudeMeters>909.79998779296875</AltitudeMeters>
            <DistanceMeters>NAN</DistanceMeters>
          </Trackpoint>
          <Trackpoint>
            <Time>2020-03-07T16:48:53.000Z</Time>
            <Position>
              <LatitudeDegrees>40.71458168327808380126953125</LatitudeDegrees>
              <LongitudeDegrees>-3.9008949883282184600830078125</LongitudeDegrees>
            </Position>
            <AltitudeMeters>909.79998779296875</AltitudeMeters>
            <DistanceMeters>NAN</DistanceMeters>
          </Trackpoint>
          <Trackpoint>
            <Time>2020-03-07T16:48:54.000Z</Time>
            <Position>
              <LatitudeDegrees>40.71458168327808380126953125</LatitudeDegrees>
              <LongitudeDegrees>-3.9008949883282184600830078125</LongitudeDegrees>
            </Position>
            <AltitudeMeters>909.79998779296875</AltitudeMeters>
            <DistanceMeters>NAN</DistanceMeters>
          </Trackpoint>
          <Trackpoint>
            <Time>2020-03-07T16:48:55.000Z</Time>
            <Position>
              <LatitudeDegrees>40.71459853090345859527587890625</LatitudeDegrees>
              <LongitudeDegrees>-3.90079750679433345794677734375</LongitudeDegrees>
            </Position>
            <AltitudeMeters>909.79998779296875</AltitudeMeters>
            <DistanceMeters>NAN</DistanceMeters>
          </Trackpoint>
          <Trackpoint>
            <Time>2020-03-07T16:48:56.000Z</Time>
            <Position>
              <LatitudeDegrees>40.71461495943367481231689453125</LatitudeDegrees>
              <LongitudeDegrees>-3.90069943852722644805908203125</LongitudeDegrees>
            </Position>
            <AltitudeMeters>909.79998779296875</AltitudeMeters>
            <DistanceMeters>NAN</DistanceMeters>
          </Trackpoint>
          <Trackpoint>
            <Time>2020-03-07T16:48:57.000Z</Time>
            <Position>
              <LatitudeDegrees>40.71463122032582759857177734375</LatitudeDegrees>
              <LongitudeDegrees>-3.90060137026011943817138671875</LongitudeDegrees>
            </Position>
            <AltitudeMeters>909.79998779296875</AltitudeMeters>
            <DistanceMeters>NAN</DistanceMeters>
          </Trackpoint>
          <Trackpoint>
            <Time>2020-03-07T16:48:58.000Z</Time>
            <Position>
              <LatitudeDegrees>40.71466726250946521759033203125</LatitudeDegrees>
              <LongitudeDegrees>-3.900404982268810272216796875</LongitudeDegrees>
            </Position>
            <AltitudeMeters>909.79998779296875</AltitudeMeters>
            <DistanceMeters>NAN</DistanceMeters>
          </Trackpoint>
          <Trackpoint>
            <Time>2020-03-07T16:48:59.000Z</Time>
            <Position>
              <LatitudeDegrees>40.714685618877410888671875</LatitudeDegrees>
              <LongitudeDegrees>-3.90030649490654468536376953125</LongitudeDegrees>
            </Position>
            <AltitudeMeters>909.79998779296875</AltitudeMeters>
            <DistanceMeters>NAN</DistanceMeters>
          </Trackpoint>
          <Trackpoint>
            <Time>2020-03-07T16:49:00.000Z</Time>
            <Position>
              <LatitudeDegrees>40.71470330469310283660888671875</LatitudeDegrees>
              <LongitudeDegrees>-3.900207169353961944580078125</LongitudeDegrees>
            </Position>
            <AltitudeMeters>909.79998779296875</AltitudeMeters>
            <DistanceMeters>NAN</DistanceMeters>
          </Trackpoint>
          <Trackpoint>
            <Time>2020-03-07T16:49:01.000Z</Time>
            <Position>
              <LatitudeDegrees>40.7147204875946044921875</LatitudeDegrees>
              <LongitudeDegrees>-3.900107927620410919189453125</LongitudeDegrees>
            </Position>
            <AltitudeMeters>909.79998779296875</AltitudeMeters>
            <DistanceMeters>NAN</DistanceMeters>
          </Trackpoint>
          <Trackpoint>
            <Time>2020-03-07T16:49:02.000Z</Time>
            <Position>
              <LatitudeDegrees>40.7147204875946044921875</LatitudeDegrees>
              <LongitudeDegrees>-3.900107927620410919189453125</LongitudeDegrees>
            </Position>
            <AltitudeMeters>909.79998779296875</AltitudeMeters>
            <DistanceMeters>NAN</DistanceMeters>
          </Trackpoint>
          <Trackpoint>
            <Time>2020-03-07T16:49:03.000Z</Time>
            <Position>
              <LatitudeDegrees>40.71475493721663951873779296875</LatitudeDegrees>
              <LongitudeDegrees>-3.8999099470674991607666015625</LongitudeDegrees>
            </Position>
            <AltitudeMeters>909.79998779296875</AltitudeMeters>
            <DistanceMeters>NAN</DistanceMeters>
          </Trackpoint>
          <Trackpoint>
            <Time>2020-03-07T16:49:04.000Z</Time>
            <Position>
              <LatitudeDegrees>40.71477253921329975128173828125</LatitudeDegrees>
              <LongitudeDegrees>-3.89981145970523357391357421875</LongitudeDegrees>
            </Position>
            <AltitudeMeters>909.79998779296875</AltitudeMeters>
            <DistanceMeters>NAN</DistanceMeters>
          </Trackpoint>
          <Trackpoint>
            <Time>2020-03-07T16:49:05.000Z</Time>
            <Position>
              <LatitudeDegrees>40.71479030884802341461181640625</LatitudeDegrees>
              <LongitudeDegrees>-3.899712972342967987060546875</LongitudeDegrees>
            </Position>
            <AltitudeMeters>909.5999755859375</AltitudeMeters>
            <DistanceMeters>NAN</DistanceMeters>
          </Trackpoint>
          <Trackpoint>
            <Time>2020-03-07T16:49:06.000Z</Time>
            <Position>
              <LatitudeDegrees>40.714806653559207916259765625</LatitudeDegrees>
              <LongitudeDegrees>-3.89961549080908298492431640625</LongitudeDegrees>
            </Position>
            <AltitudeMeters>909.5999755859375</AltitudeMeters>
            <DistanceMeters>NAN</DistanceMeters>
          </Trackpoint>
          <Trackpoint>
            <Time>2020-03-07T16:49:07.000Z</Time>
            <Position>
              <LatitudeDegrees>40.7148242555558681488037109375</LatitudeDegrees>
              <LongitudeDegrees>-3.899517841637134552001953125</LongitudeDegrees>
            </Position>
            <AltitudeMeters>909.5999755859375</AltitudeMeters>
            <DistanceMeters>NAN</DistanceMeters>
          </Trackpoint>
          <Trackpoint>
            <Time>2020-03-07T16:49:08.000Z</Time>
            <Position>
              <LatitudeDegrees>40.7148242555558681488037109375</LatitudeDegrees>
              <LongitudeDegrees>-3.899517841637134552001953125</LongitudeDegrees>
            </Position>
            <AltitudeMeters>909.4000244140625</AltitudeMeters>
            <DistanceMeters>NAN</DistanceMeters>
          </Trackpoint>
          <Trackpoint>
            <Time>2020-03-07T16:49:09.000Z</Time>
            <Position>
              <LatitudeDegrees>40.71485937573015689849853515625</LatitudeDegrees>
              <LongitudeDegrees>-3.89932346530258655548095703125</LongitudeDegrees>
            </Position>
            <AltitudeMeters>909.4000244140625</AltitudeMeters>
            <DistanceMeters>NAN</DistanceMeters>
          </Trackpoint>
          <Trackpoint>
            <Time>2020-03-07T16:49:10.000Z</Time>
            <Position>
              <LatitudeDegrees>40.7148773968219757080078125</LatitudeDegrees>
              <LongitudeDegrees>-3.8992273248732089996337890625</LongitudeDegrees>
            </Position>
            <AltitudeMeters>909.4000244140625</AltitudeMeters>
            <DistanceMeters>NAN</DistanceMeters>
          </Trackpoint>
          <Trackpoint>
            <Time>2020-03-07T16:49:11.000Z</Time>
            <Position>
              <LatitudeDegrees>40.71489550173282623291015625</LatitudeDegrees>
              <LongitudeDegrees>-3.8991311006247997283935546875</LongitudeDegrees>
            </Position>
            <AltitudeMeters>909.4000244140625</AltitudeMeters>
            <DistanceMeters>NAN</DistanceMeters>
          </Trackpoint>
          <Trackpoint>
            <Time>2020-03-07T16:49:12.000Z</Time>
            <Position>
              <LatitudeDegrees>40.714913271367549896240234375</LatitudeDegrees>
              <LongitudeDegrees>-3.89903496019542217254638671875</LongitudeDegrees>
            </Position>
            <AltitudeMeters>909.4000244140625</AltitudeMeters>
            <DistanceMeters>NAN</DistanceMeters>
          </Trackpoint>
          <Trackpoint>
            <Time>2020-03-07T16:49:13.000Z</Time>
            <Position>
              <LatitudeDegrees>40.71493095718324184417724609375</LatitudeDegrees>
              <LongitudeDegrees>-3.8989386521279811859130859375</LongitudeDegrees>
            </Position>
            <AltitudeMeters>909.4000244140625</AltitudeMeters>
            <DistanceMeters>NAN</DistanceMeters>
          </Trackpoint>
          <Trackpoint>
            <Time>2020-03-07T16:49:14.000Z</Time>
            <Position>
              <LatitudeDegrees>40.7149489782750606536865234375</LatitudeDegrees>
              <LongitudeDegrees>-3.89884293079376220703125</LongitudeDegrees>
            </Position>
            <AltitudeMeters>909.20001220703125</AltitudeMeters>
            <DistanceMeters>NAN</DistanceMeters>
          </Trackpoint>
          <Trackpoint>
            <Time>2020-03-07T16:49:15.000Z</Time>
            <Position>
              <LatitudeDegrees>40.71496599353849887847900390625</LatitudeDegrees>
              <LongitudeDegrees>-3.89874637126922607421875</LongitudeDegrees>
            </Position>
            <AltitudeMeters>909.20001220703125</AltitudeMeters>
            <DistanceMeters>NAN</DistanceMeters>
          </Trackpoint>
          <Trackpoint>
            <Time>2020-03-07T16:49:16.000Z</Time>
            <Position>
              <LatitudeDegrees>40.71498191915452480316162109375</LatitudeDegrees>
              <LongitudeDegrees>-3.8986496441066265106201171875</LongitudeDegrees>
            </Position>
            <AltitudeMeters>909</AltitudeMeters>
            <DistanceMeters>NAN</DistanceMeters>
          </Trackpoint>
          <Trackpoint>
            <Time>2020-03-07T16:49:17.000Z</Time>
            <Position>
              <LatitudeDegrees>40.71499818004667758941650390625</LatitudeDegrees>
              <LongitudeDegrees>-3.89855283312499523162841796875</LongitudeDegrees>
            </Position>
            <AltitudeMeters>909</AltitudeMeters>
            <DistanceMeters>NAN</DistanceMeters>
          </Trackpoint>
          <Trackpoint>
            <Time>2020-03-07T16:49:18.000Z</Time>
            <Position>
              <LatitudeDegrees>40.7150150276720523834228515625</LatitudeDegrees>
              <LongitudeDegrees>-3.89845627360045909881591796875</LongitudeDegrees>
            </Position>
            <AltitudeMeters>909</AltitudeMeters>
            <DistanceMeters>NAN</DistanceMeters>
          </Trackpoint>
          <Trackpoint>
            <Time>2020-03-07T16:49:19.000Z</Time>
            <Position>
              <LatitudeDegrees>40.71503036655485630035400390625</LatitudeDegrees>
              <LongitudeDegrees>-3.8983596302568912506103515625</LongitudeDegrees>
            </Position>
            <AltitudeMeters>909</AltitudeMeters>
            <DistanceMeters>NAN</DistanceMeters>
          </Trackpoint>
          <Trackpoint>
            <Time>2020-03-07T16:49:20.000Z</Time>
            <Position>
              <LatitudeDegrees>40.71504461579024791717529296875</LatitudeDegrees>
              <LongitudeDegrees>-3.8982624001801013946533203125</LongitudeDegrees>
            </Position>
            <AltitudeMeters>909</AltitudeMeters>
            <DistanceMeters>NAN</DistanceMeters>
          </Trackpoint>
          <Trackpoint>
            <Time>2020-03-07T16:49:21.000Z</Time>
            <Position>
              <LatitudeDegrees>40.71505735628306865692138671875</LatitudeDegrees>
              <LongitudeDegrees>-3.89816525392234325408935546875</LongitudeDegrees>
            </Position>
            <AltitudeMeters>909</AltitudeMeters>
            <DistanceMeters>NAN</DistanceMeters>
          </Trackpoint>
          <Trackpoint>
            <Time>2020-03-07T16:49:22.000Z</Time>
            <Position>
              <LatitudeDegrees>40.71506875567138195037841796875</LatitudeDegrees>
              <LongitudeDegrees>-3.89806710183620452880859375</LongitudeDegrees>
            </Position>
            <AltitudeMeters>908.79998779296875</AltitudeMeters>
            <DistanceMeters>NAN</DistanceMeters>
          </Trackpoint>
          <Trackpoint>
            <Time>2020-03-07T16:49:23.000Z</Time>
            <Position>
              <LatitudeDegrees>40.71507847867906093597412109375</LatitudeDegrees>
              <LongitudeDegrees>-3.8979690335690975189208984375</LongitudeDegrees>
            </Position>
            <AltitudeMeters>908.79998779296875</AltitudeMeters>
            <DistanceMeters>NAN</DistanceMeters>
          </Trackpoint>
          <Trackpoint>
            <Time>2020-03-07T16:49:24.000Z</Time>
            <Position>
              <LatitudeDegrees>40.71508652530610561370849609375</LatitudeDegrees>
              <LongitudeDegrees>-3.89787088148295879364013671875</LongitudeDegrees>
            </Position>
            <AltitudeMeters>908.79998779296875</AltitudeMeters>
            <DistanceMeters>NAN</DistanceMeters>
          </Trackpoint>
          <Trackpoint>
            <Time>2020-03-07T16:49:25.000Z</Time>
            <Position>
              <LatitudeDegrees>40.7150938175618648529052734375</LatitudeDegrees>
              <LongitudeDegrees>-3.897772394120693206787109375</LongitudeDegrees>
            </Position>
            <AltitudeMeters>908.5999755859375</AltitudeMeters>
            <DistanceMeters>NAN</DistanceMeters>
          </Trackpoint>
          <Trackpoint>
            <Time>2020-03-07T16:49:26.000Z</Time>
            <Position>
              <LatitudeDegrees>40.71510110981762409210205078125</LatitudeDegrees>
              <LongitudeDegrees>-3.8976739905774593353271484375</LongitudeDegrees>
            </Position>
            <AltitudeMeters>908.5999755859375</AltitudeMeters>
            <DistanceMeters>NAN</DistanceMeters>
          </Trackpoint>
          <Trackpoint>
            <Time>2020-03-07T16:49:27.000Z</Time>
            <Position>
              <LatitudeDegrees>40.7151075638830661773681640625</LatitudeDegrees>
              <LongitudeDegrees>-3.8975760899484157562255859375</LongitudeDegrees>
            </Position>
            <AltitudeMeters>908.5999755859375</AltitudeMeters>
            <DistanceMeters>NAN</DistanceMeters>
          </Trackpoint>
          <Trackpoint>
            <Time>2020-03-07T16:49:28.000Z</Time>
            <Position>
              <LatitudeDegrees>40.71511317975819110870361328125</LatitudeDegrees>
              <LongitudeDegrees>-3.8974778540432453155517578125</LongitudeDegrees>
            </Position>
            <AltitudeMeters>908.4000244140625</AltitudeMeters>
            <DistanceMeters>NAN</DistanceMeters>
          </Trackpoint>
          <Trackpoint>
            <Time>2020-03-07T16:49:29.000Z</Time>
            <Position>
              <LatitudeDegrees>40.71511904709041118621826171875</LatitudeDegrees>
              <LongitudeDegrees>-3.89738003723323345184326171875</LongitudeDegrees>
            </Position>
            <AltitudeMeters>908.20001220703125</AltitudeMeters>
            <DistanceMeters>NAN</DistanceMeters>
          </Trackpoint>
          <Trackpoint>
            <Time>2020-03-07T16:49:30.000Z</Time>
            <Position>
              <LatitudeDegrees>40.71512390859425067901611328125</LatitudeDegrees>
              <LongitudeDegrees>-3.89728196896612644195556640625</LongitudeDegrees>
            </Position>
            <AltitudeMeters>908</AltitudeMeters>
            <DistanceMeters>NAN</DistanceMeters>
          </Trackpoint>
          <Trackpoint>
            <Time>2020-03-07T16:49:31.000Z</Time>
            <Position>
              <LatitudeDegrees>40.71512910537421703338623046875</LatitudeDegrees>
              <LongitudeDegrees>-3.89718457125127315521240234375</LongitudeDegrees>
            </Position>
            <AltitudeMeters>907.79998779296875</AltitudeMeters>
            <DistanceMeters>NAN</DistanceMeters>
          </Trackpoint>
          <Trackpoint>
            <Time>2020-03-07T16:49:32.000Z</Time>
            <Position>
              <LatitudeDegrees>40.71513430215418338775634765625</LatitudeDegrees>
              <LongitudeDegrees>-3.8970872573554515838623046875</LongitudeDegrees>
            </Position>
            <AltitudeMeters>907.79998779296875</AltitudeMeters>
            <DistanceMeters>NAN</DistanceMeters>
          </Trackpoint>
          <Trackpoint>
            <Time>2020-03-07T16:49:33.000Z</Time>
            <Position>
              <LatitudeDegrees>40.71513966657221317291259765625</LatitudeDegrees>
              <LongitudeDegrees>-3.896989859640598297119140625</LongitudeDegrees>
            </Position>
            <AltitudeMeters>907.79998779296875</AltitudeMeters>
            <DistanceMeters>NAN</DistanceMeters>
          </Trackpoint>
          <Trackpoint>
            <Time>2020-03-07T16:49:34.000Z</Time>
            <Position>
              <LatitudeDegrees>40.71514469571411609649658203125</LatitudeDegrees>
              <LongitudeDegrees>-3.89689153991639614105224609375</LongitudeDegrees>
            </Position>
            <AltitudeMeters>907.79998779296875</AltitudeMeters>
            <DistanceMeters>NAN</DistanceMeters>
          </Trackpoint>
          <Trackpoint>
            <Time>2020-03-07T16:49:35.000Z</Time>
            <Position>
              <LatitudeDegrees>40.7151496410369873046875</LatitudeDegrees>
              <LongitudeDegrees>-3.89679246582090854644775390625</LongitudeDegrees>
            </Position>
            <AltitudeMeters>907.79998779296875</AltitudeMeters>
            <DistanceMeters>NAN</DistanceMeters>
          </Trackpoint>
          <Trackpoint>
            <Time>2020-03-07T16:49:36.000Z</Time>
            <Position>
              <LatitudeDegrees>40.71515559218823909759521484375</LatitudeDegrees>
              <LongitudeDegrees>-3.8966929726302623748779296875</LongitudeDegrees>
            </Position>
            <AltitudeMeters>907.79998779296875</AltitudeMeters>
            <DistanceMeters>NAN</DistanceMeters>
          </Trackpoint>
          <Trackpoint>
            <Time>2020-03-07T16:49:37.000Z</Time>
            <Position>
              <LatitudeDegrees>40.7151622138917446136474609375</LatitudeDegrees>
              <LongitudeDegrees>-3.8965947367250919342041015625</LongitudeDegrees>
            </Position>
            <AltitudeMeters>907.79998779296875</AltitudeMeters>
            <DistanceMeters>NAN</DistanceMeters>
          </Trackpoint>
          <Trackpoint>
            <Time>2020-03-07T16:49:38.000Z</Time>
            <Position>
              <LatitudeDegrees>40.71516514755785465240478515625</LatitudeDegrees>
              <LongitudeDegrees>-3.89649993740022182464599609375</LongitudeDegrees>
            </Position>
            <AltitudeMeters>907.79998779296875</AltitudeMeters>
            <DistanceMeters>NAN</DistanceMeters>
          </Trackpoint>
          <Trackpoint>
            <Time>2020-03-07T16:49:39.000Z</Time>
            <Position>
              <LatitudeDegrees>40.715166069567203521728515625</LatitudeDegrees>
              <LongitudeDegrees>-3.8964126817882061004638671875</LongitudeDegrees>
            </Position>
            <AltitudeMeters>907.79998779296875</AltitudeMeters>
            <DistanceMeters>NAN</DistanceMeters>
          </Trackpoint>
          <Trackpoint>
            <Time>2020-03-07T16:49:49.000Z</Time>
            <Position>
              <LatitudeDegrees>40.71518945507705211639404296875</LatitudeDegrees>
              <LongitudeDegrees>-3.89592133462429046630859375</LongitudeDegrees>
            </Position>
            <AltitudeMeters>908.79998779296875</AltitudeMeters>
            <DistanceMeters>NAN</DistanceMeters>
          </Trackpoint>
          <Trackpoint>
            <Time>2020-03-07T16:49:50.000Z</Time>
            <Position>
              <LatitudeDegrees>40.71519331075251102447509765625</LatitudeDegrees>
              <LongitudeDegrees>-3.8958752341568470001220703125</LongitudeDegrees>
            </Position>
            <AltitudeMeters>909</AltitudeMeters>
            <DistanceMeters>NAN</DistanceMeters>
          </Trackpoint>
          <Trackpoint>
            <Time>2020-03-07T16:49:51.000Z</Time>
            <Position>
              <LatitudeDegrees>40.71519632823765277862548828125</LatitudeDegrees>
              <LongitudeDegrees>-3.89582653529942035675048828125</LongitudeDegrees>
            </Position>
            <AltitudeMeters>909.20001220703125</AltitudeMeters>
            <DistanceMeters>NAN</DistanceMeters>
          </Trackpoint>
          <Trackpoint>
            <Time>2020-03-07T16:49:52.000Z</Time>
            <Position>
              <LatitudeDegrees>40.71519859135150909423828125</LatitudeDegrees>
              <LongitudeDegrees>-3.89577741734683513641357421875</LongitudeDegrees>
            </Position>
            <AltitudeMeters>909.4000244140625</AltitudeMeters>
            <DistanceMeters>NAN</DistanceMeters>
          </Trackpoint>
          <Trackpoint>
            <Time>2020-03-07T16:49:53.000Z</Time>
            <Position>
              <LatitudeDegrees>40.715200267732143402099609375</LatitudeDegrees>
              <LongitudeDegrees>-3.89572762884199619293212890625</LongitudeDegrees>
            </Position>
            <AltitudeMeters>909.4000244140625</AltitudeMeters>
            <DistanceMeters>NAN</DistanceMeters>
          </Trackpoint>
          <Trackpoint>
            <Time>2020-03-07T16:49:54.000Z</Time>
            <Position>
              <LatitudeDegrees>40.71520261466503143310546875</LatitudeDegrees>
              <LongitudeDegrees>-3.89568085782229900360107421875</LongitudeDegrees>
            </Position>
            <AltitudeMeters>909.5999755859375</AltitudeMeters>
            <DistanceMeters>NAN</DistanceMeters>
          </Trackpoint>
          <Trackpoint>
            <Time>2020-03-07T16:49:55.000Z</Time>
            <Position>
              <LatitudeDegrees>40.7152047939598560333251953125</LatitudeDegrees>
              <LongitudeDegrees>-3.89563911594450473785400390625</LongitudeDegrees>
            </Position>
            <AltitudeMeters>909.5999755859375</AltitudeMeters>
            <DistanceMeters>NAN</DistanceMeters>
          </Trackpoint>
          <Trackpoint>
            <Time>2020-03-07T16:57:03.000Z</Time>
            <Position>
              <LatitudeDegrees>40.71529087610542774200439453125</LatitudeDegrees>
              <LongitudeDegrees>-3.89412249438464641571044921875</LongitudeDegrees>
            </Position>
            <AltitudeMeters>910.4000244140625</AltitudeMeters>
            <DistanceMeters>NAN</DistanceMeters>
          </Trackpoint>
          <Trackpoint>
            <Time>2020-03-07T16:57:04.000Z</Time>
            <Position>
              <LatitudeDegrees>40.71528987027704715728759765625</LatitudeDegrees>
              <LongitudeDegrees>-3.89411360956728458404541015625</LongitudeDegrees>
            </Position>
            <AltitudeMeters>910.4000244140625</AltitudeMeters>
            <DistanceMeters>NAN</DistanceMeters>
          </Trackpoint>
          <Trackpoint>
            <Time>2020-03-07T16:57:05.000Z</Time>
            <Position>
              <LatitudeDegrees>40.71529054082930088043212890625</LatitudeDegrees>
              <LongitudeDegrees>-3.89409634284675121307373046875</LongitudeDegrees>
            </Position>
            <AltitudeMeters>910.4000244140625</AltitudeMeters>
            <DistanceMeters>NAN</DistanceMeters>
          </Trackpoint>
          <Trackpoint>
            <Time>2020-03-07T16:57:06.000Z</Time>
            <Position>
              <LatitudeDegrees>40.71529087610542774200439453125</LatitudeDegrees>
              <LongitudeDegrees>-3.8940697722136974334716796875</LongitudeDegrees>
            </Position>
            <AltitudeMeters>910.4000244140625</AltitudeMeters>
            <DistanceMeters>NAN</DistanceMeters>
          </Trackpoint>
          <Trackpoint>
            <Time>2020-03-07T16:57:08.000Z</Time>
            <Position>
              <LatitudeDegrees>40.7152933068573474884033203125</LatitudeDegrees>
              <LongitudeDegrees>-3.89399693347513675689697265625</LongitudeDegrees>
            </Position>
            <AltitudeMeters>910.4000244140625</AltitudeMeters>
            <DistanceMeters>NAN</DistanceMeters>
          </Trackpoint>
          <Trackpoint>
            <Time>2020-03-07T16:57:09.000Z</Time>
            <Position>
              <LatitudeDegrees>40.7152976654469966888427734375</LatitudeDegrees>
              <LongitudeDegrees>-3.89395301230251789093017578125</LongitudeDegrees>
            </Position>
            <AltitudeMeters>910.20001220703125</AltitudeMeters>
            <DistanceMeters>NAN</DistanceMeters>
          </Trackpoint>
          <Trackpoint>
            <Time>2020-03-07T16:57:10.000Z</Time>
            <Position>
              <LatitudeDegrees>40.71530294604599475860595703125</LatitudeDegrees>
              <LongitudeDegrees>-3.8939051516354084014892578125</LongitudeDegrees>
            </Position>
            <AltitudeMeters>910.20001220703125</AltitudeMeters>
            <DistanceMeters>NAN</DistanceMeters>
          </Trackpoint>
          <Trackpoint>
            <Time>2020-03-07T16:57:11.000Z</Time>
            <Position>
              <LatitudeDegrees>40.71530663408339023590087890625</LatitudeDegrees>
              <LongitudeDegrees>-3.89385402202606201171875</LongitudeDegrees>
            </Position>
            <AltitudeMeters>910.20001220703125</AltitudeMeters>
            <DistanceMeters>NAN</DistanceMeters>
          </Trackpoint>
          <Trackpoint>
            <Time>2020-03-07T16:57:12.000Z</Time>
            <Position>
              <LatitudeDegrees>40.715311579406261444091796875</LatitudeDegrees>
              <LongitudeDegrees>-3.8937998749315738677978515625</LongitudeDegrees>
            </Position>
            <AltitudeMeters>910.20001220703125</AltitudeMeters>
            <DistanceMeters>NAN</DistanceMeters>
          </Trackpoint>
          <Trackpoint>
            <Time>2020-03-07T16:57:13.000Z</Time>
            <Position>
              <LatitudeDegrees>40.7153172791004180908203125</LatitudeDegrees>
              <LongitudeDegrees>-3.89374229125678539276123046875</LongitudeDegrees>
            </Position>
            <AltitudeMeters>910</AltitudeMeters>
            <DistanceMeters>NAN</DistanceMeters>
          </Trackpoint>
          <Trackpoint>
            <Time>2020-03-07T16:57:14.000Z</Time>
            <Position>
              <LatitudeDegrees>40.7153218053281307220458984375</LatitudeDegrees>
              <LongitudeDegrees>-3.8936805166304111480712890625</LongitudeDegrees>
            </Position>
            <AltitudeMeters>910</AltitudeMeters>
            <DistanceMeters>NAN</DistanceMeters>
          </Trackpoint>
          <Trackpoint>
            <Time>2020-03-07T16:57:15.000Z</Time>
            <Position>
              <LatitudeDegrees>40.71532473899424076080322265625</LatitudeDegrees>
              <LongitudeDegrees>-3.89361455105245113372802734375</LongitudeDegrees>
            </Position>
            <AltitudeMeters>910</AltitudeMeters>
            <DistanceMeters>NAN</DistanceMeters>
          </Trackpoint>
          <Trackpoint>
            <Time>2020-03-07T16:57:16.000Z</Time>
            <Position>
              <LatitudeDegrees>40.7153271697461605072021484375</LatitudeDegrees>
              <LongitudeDegrees>-3.89354682527482509613037109375</LongitudeDegrees>
            </Position>
            <AltitudeMeters>909.79998779296875</AltitudeMeters>
            <DistanceMeters>NAN</DistanceMeters>
          </Trackpoint>
          <Trackpoint>
            <Time>2020-03-07T16:57:17.000Z</Time>
            <Position>
              <LatitudeDegrees>40.7153295166790485382080078125</LatitudeDegrees>
              <LongitudeDegrees>-3.89347775839269161224365234375</LongitudeDegrees>
            </Position>
            <AltitudeMeters>909.5999755859375</AltitudeMeters>
            <DistanceMeters>NAN</DistanceMeters>
          </Trackpoint>
          <Trackpoint>
            <Time>2020-03-07T16:57:18.000Z</Time>
            <Position>
              <LatitudeDegrees>40.71533161215484142303466796875</LatitudeDegrees>
              <LongitudeDegrees>-3.8934052549302577972412109375</LongitudeDegrees>
            </Position>
            <AltitudeMeters>909.4000244140625</AltitudeMeters>
            <DistanceMeters>NAN</DistanceMeters>
          </Trackpoint>
          <Trackpoint>
            <Time>2020-03-07T16:57:19.000Z</Time>
            <Position>
              <LatitudeDegrees>40.7153348810970783233642578125</LatitudeDegrees>
              <LongitudeDegrees>-3.8933301530778408050537109375</LongitudeDegrees>
            </Position>
            <AltitudeMeters>909.4000244140625</AltitudeMeters>
            <DistanceMeters>NAN</DistanceMeters>
          </Trackpoint>
          <Trackpoint>
            <Time>2020-03-07T16:57:20.000Z</Time>
            <Position>
              <LatitudeDegrees>40.71533865295350551605224609375</LatitudeDegrees>
              <LongitudeDegrees>-3.89325563795864582061767578125</LongitudeDegrees>
            </Position>
            <AltitudeMeters>909.4000244140625</AltitudeMeters>
            <DistanceMeters>NAN</DistanceMeters>
          </Trackpoint>
          <Trackpoint>
            <Time>2020-03-07T16:57:21.000Z</Time>
            <Position>
              <LatitudeDegrees>40.71534208953380584716796875</LatitudeDegrees>
              <LongitudeDegrees>-3.89317885972559452056884765625</LongitudeDegrees>
            </Position>
            <AltitudeMeters>909.20001220703125</AltitudeMeters>
            <DistanceMeters>NAN</DistanceMeters>
          </Trackpoint>
          <Trackpoint>
            <Time>2020-03-07T16:57:22.000Z</Time>
            <Position>
              <LatitudeDegrees>40.71534552611410617828369140625</LatitudeDegrees>
              <LongitudeDegrees>-3.89309923164546489715576171875</LongitudeDegrees>
            </Position>
            <AltitudeMeters>909.20001220703125</AltitudeMeters>
            <DistanceMeters>NAN</DistanceMeters>
          </Trackpoint>
          <Trackpoint>
            <Time>2020-03-07T16:57:23.000Z</Time>
            <Position>
              <LatitudeDegrees>40.71534971706569194793701171875</LatitudeDegrees>
              <LongitudeDegrees>-3.8930193521082401275634765625</LongitudeDegrees>
            </Position>
            <AltitudeMeters>909.20001220703125</AltitudeMeters>
            <DistanceMeters>NAN</DistanceMeters>
          </Trackpoint>
          <Trackpoint>
            <Time>2020-03-07T16:57:24.000Z</Time>
            <Position>
              <LatitudeDegrees>40.7153553329408168792724609375</LatitudeDegrees>
              <LongitudeDegrees>-3.89293729327619075775146484375</LongitudeDegrees>
            </Position>
            <AltitudeMeters>909</AltitudeMeters>
            <DistanceMeters>NAN</DistanceMeters>
          </Trackpoint>
          <Trackpoint>
            <Time>2020-03-07T16:57:25.000Z</Time>
            <Position>
              <LatitudeDegrees>40.71536161936819553375244140625</LatitudeDegrees>
              <LongitudeDegrees>-3.8928547315299510955810546875</LongitudeDegrees>
            </Position>
            <AltitudeMeters>909</AltitudeMeters>
            <DistanceMeters>NAN</DistanceMeters>
          </Trackpoint>
          <Trackpoint>
            <Time>2020-03-07T16:57:26.000Z</Time>
            <Position>
              <LatitudeDegrees>40.71536681614816188812255859375</LatitudeDegrees>
              <LongitudeDegrees>-3.8927725888788700103759765625</LongitudeDegrees>
            </Position>
            <AltitudeMeters>908.79998779296875</AltitudeMeters>
            <DistanceMeters>NAN</DistanceMeters>
          </Trackpoint>
          <Trackpoint>
            <Time>2020-03-07T16:57:27.000Z</Time>
            <Position>
              <LatitudeDegrees>40.71537385694682598114013671875</LatitudeDegrees>
              <LongitudeDegrees>-3.8926894403994083404541015625</LongitudeDegrees>
            </Position>
            <AltitudeMeters>908.5999755859375</AltitudeMeters>
            <DistanceMeters>NAN</DistanceMeters>
          </Trackpoint>
          <Trackpoint>
            <Time>2020-03-07T16:57:28.000Z</Time>
            <Position>
              <LatitudeDegrees>40.71538240648806095123291015625</LatitudeDegrees>
              <LongitudeDegrees>-3.8926056213676929473876953125</LongitudeDegrees>
            </Position>
            <AltitudeMeters>908.4000244140625</AltitudeMeters>
            <DistanceMeters>NAN</DistanceMeters>
          </Trackpoint>
          <Trackpoint>
            <Time>2020-03-07T16:57:29.000Z</Time>
            <Position>
              <LatitudeDegrees>40.715393722057342529296875</LatitudeDegrees>
              <LongitudeDegrees>-3.89252163469791412353515625</LongitudeDegrees>
            </Position>
            <AltitudeMeters>908.4000244140625</AltitudeMeters>
            <DistanceMeters>NAN</DistanceMeters>
          </Trackpoint>
          <Trackpoint>
            <Time>2020-03-07T16:57:30.000Z</Time>
            <Position>
              <LatitudeDegrees>40.715406127274036407470703125</LatitudeDegrees>
              <LongitudeDegrees>-3.89243689365684986114501953125</LongitudeDegrees>
            </Position>
            <AltitudeMeters>908.20001220703125</AltitudeMeters>
            <DistanceMeters>NAN</DistanceMeters>
          </Trackpoint>
          <Trackpoint>
            <Time>2020-03-07T16:57:31.000Z</Time>
            <Position>
              <LatitudeDegrees>40.71541811339557170867919921875</LatitudeDegrees>
              <LongitudeDegrees>-3.892352320253849029541015625</LongitudeDegrees>
            </Position>
            <AltitudeMeters>908.20001220703125</AltitudeMeters>
            <DistanceMeters>NAN</DistanceMeters>
          </Trackpoint>
          <Trackpoint>
            <Time>2020-03-07T16:57:32.000Z</Time>
            <Position>
              <LatitudeDegrees>40.71543185971677303314208984375</LatitudeDegrees>
              <LongitudeDegrees>-3.8922676630318164825439453125</LongitudeDegrees>
            </Position>
            <AltitudeMeters>908.20001220703125</AltitudeMeters>
            <DistanceMeters>NAN</DistanceMeters>
          </Trackpoint>
          <Trackpoint>
            <Time>2020-03-07T16:57:33.000Z</Time>
            <Position>
              <LatitudeDegrees>40.71544745005667209625244140625</LatitudeDegrees>
              <LongitudeDegrees>-3.8921825028955936431884765625</LongitudeDegrees>
            </Position>
            <AltitudeMeters>908.20001220703125</AltitudeMeters>
            <DistanceMeters>NAN</DistanceMeters>
          </Trackpoint>
          <Trackpoint>
            <Time>2020-03-07T16:57:34.000Z</Time>
            <Position>
              <LatitudeDegrees>40.71546555496752262115478515625</LatitudeDegrees>
              <LongitudeDegrees>-3.89209809713065624237060546875</LongitudeDegrees>
            </Position>
            <AltitudeMeters>908.20001220703125</AltitudeMeters>
            <DistanceMeters>NAN</DistanceMeters>
          </Trackpoint>
          <Trackpoint>
            <Time>2020-03-07T16:57:35.000Z</Time>
            <Position>
              <LatitudeDegrees>40.71548550389707088470458984375</LatitudeDegrees>
              <LongitudeDegrees>-3.89201360754668712615966796875</LongitudeDegrees>
            </Position>
            <AltitudeMeters>908.20001220703125</AltitudeMeters>
            <DistanceMeters>NAN</DistanceMeters>
          </Trackpoint>
          <Trackpoint>
            <Time>2020-03-07T16:57:36.000Z</Time>
            <Position>
              <LatitudeDegrees>40.7155088894069194793701171875</LatitudeDegrees>
              <LongitudeDegrees>-3.891930878162384033203125</LongitudeDegrees>
            </Position>
            <AltitudeMeters>908</AltitudeMeters>
            <DistanceMeters>NAN</DistanceMeters>
          </Trackpoint>
          <Trackpoint>
            <Time>2020-03-07T16:57:37.000Z</Time>
            <Position>
              <LatitudeDegrees>40.71553160436451435089111328125</LatitudeDegrees>
              <LongitudeDegrees>-3.89184948988258838653564453125</LongitudeDegrees>
            </Position>
            <AltitudeMeters>908</AltitudeMeters>
            <DistanceMeters>NAN</DistanceMeters>
          </Trackpoint>
          <Trackpoint>
            <Time>2020-03-07T16:57:38.000Z</Time>
            <Position>
              <LatitudeDegrees>40.71555591188371181488037109375</LatitudeDegrees>
              <LongitudeDegrees>-3.89176986180245876312255859375</LongitudeDegrees>
            </Position>
            <AltitudeMeters>907.79998779296875</AltitudeMeters>
            <DistanceMeters>NAN</DistanceMeters>
          </Trackpoint>
          <Trackpoint>
            <Time>2020-03-07T16:57:39.000Z</Time>
            <Position>
              <LatitudeDegrees>40.71558256633579730987548828125</LatitudeDegrees>
              <LongitudeDegrees>-3.89169308356940746307373046875</LongitudeDegrees>
            </Position>
            <AltitudeMeters>907.79998779296875</AltitudeMeters>
            <DistanceMeters>NAN</DistanceMeters>
          </Trackpoint>
          <Trackpoint>
            <Time>2020-03-07T16:57:40.000Z</Time>
            <Position>
              <LatitudeDegrees>40.71560787968337535858154296875</LatitudeDegrees>
              <LongitudeDegrees>-3.89161764644086360931396484375</LongitudeDegrees>
            </Position>
            <AltitudeMeters>907.79998779296875</AltitudeMeters>
            <DistanceMeters>NAN</DistanceMeters>
          </Trackpoint>
          <Trackpoint>
            <Time>2020-03-07T16:57:41.000Z</Time>
            <Position>
              <LatitudeDegrees>40.71563369594514369964599609375</LatitudeDegrees>
              <LongitudeDegrees>-3.891541957855224609375</LongitudeDegrees>
            </Position>
            <AltitudeMeters>907.5999755859375</AltitudeMeters>
            <DistanceMeters>NAN</DistanceMeters>
          </Trackpoint>
          <Trackpoint>
            <Time>2020-03-07T16:57:42.000Z</Time>
            <Position>
              <LatitudeDegrees>40.7156594283878803253173828125</LatitudeDegrees>
              <LongitudeDegrees>-3.89146576635539531707763671875</LongitudeDegrees>
            </Position>
            <AltitudeMeters>907.5999755859375</AltitudeMeters>
            <DistanceMeters>NAN</DistanceMeters>
          </Trackpoint>
          <Trackpoint>
            <Time>2020-03-07T16:57:43.000Z</Time>
            <Position>
              <LatitudeDegrees>40.71568583138287067413330078125</LatitudeDegrees>
              <LongitudeDegrees>-3.891390077769756317138671875</LongitudeDegrees>
            </Position>
            <AltitudeMeters>907.5999755859375</AltitudeMeters>
            <DistanceMeters>NAN</DistanceMeters>
          </Trackpoint>
          <Trackpoint>
            <Time>2020-03-07T16:57:44.000Z</Time>
            <Position>
              <LatitudeDegrees>40.715714581310749053955078125</LatitudeDegrees>
              <LongitudeDegrees>-3.89131505973637104034423828125</LongitudeDegrees>
            </Position>
            <AltitudeMeters>907.5999755859375</AltitudeMeters>
            <DistanceMeters>NAN</DistanceMeters>
          </Trackpoint>
          <Trackpoint>
            <Time>2020-03-07T16:57:45.000Z</Time>
            <Position>
              <LatitudeDegrees>40.71574483998119831085205078125</LatitudeDegrees>
              <LongitudeDegrees>-3.89124129898846149444580078125</LongitudeDegrees>
            </Position>
            <AltitudeMeters>907.5999755859375</AltitudeMeters>
            <DistanceMeters>NAN</DistanceMeters>
          </Trackpoint>
          <Trackpoint>
            <Time>2020-03-07T16:57:46.000Z</Time>
            <Position>
              <LatitudeDegrees>40.715774595737457275390625</LatitudeDegrees>
              <LongitudeDegrees>-3.8911666162312030792236328125</LongitudeDegrees>
            </Position>
            <AltitudeMeters>907.5999755859375</AltitudeMeters>
            <DistanceMeters>NAN</DistanceMeters>
          </Trackpoint>
          <Trackpoint>
            <Time>2020-03-07T16:57:47.000Z</Time>
            <Position>
              <LatitudeDegrees>40.71580468676984310150146484375</LatitudeDegrees>
              <LongitudeDegrees>-3.89109193347394466400146484375</LongitudeDegrees>
            </Position>
            <AltitudeMeters>907.5999755859375</AltitudeMeters>
            <DistanceMeters>NAN</DistanceMeters>
          </Trackpoint>
          <Trackpoint>
            <Time>2020-03-07T16:57:48.000Z</Time>
            <Position>
              <LatitudeDegrees>40.71583519689738750457763671875</LatitudeDegrees>
              <LongitudeDegrees>-3.89101733453571796417236328125</LongitudeDegrees>
            </Position>
            <AltitudeMeters>907.5999755859375</AltitudeMeters>
            <DistanceMeters>NAN</DistanceMeters>
          </Trackpoint>
          <Trackpoint>
            <Time>2020-03-07T16:57:49.000Z</Time>
            <Position>
              <LatitudeDegrees>40.71586553938686847686767578125</LatitudeDegrees>
              <LongitudeDegrees>-3.89094273559749126434326171875</LongitudeDegrees>
            </Position>
            <AltitudeMeters>907.4000244140625</AltitudeMeters>
            <DistanceMeters>NAN</DistanceMeters>
          </Trackpoint>
          <Trackpoint>
            <Time>2020-03-07T16:57:50.000Z</Time>
            <Position>
              <LatitudeDegrees>40.7158951275050640106201171875</LatitudeDegrees>
              <LongitudeDegrees>-3.89086763374507427215576171875</LongitudeDegrees>
            </Position>
            <AltitudeMeters>907.4000244140625</AltitudeMeters>
            <DistanceMeters>NAN</DistanceMeters>
          </Trackpoint>
          <Trackpoint>
            <Time>2020-03-07T16:57:51.000Z</Time>
            <Position>
              <LatitudeDegrees>40.71592488326132297515869140625</LatitudeDegrees>
              <LongitudeDegrees>-3.8907927833497524261474609375</LongitudeDegrees>
            </Position>
            <AltitudeMeters>907.4000244140625</AltitudeMeters>
            <DistanceMeters>NAN</DistanceMeters>
          </Trackpoint>
          <Trackpoint>
            <Time>2020-03-07T16:57:52.000Z</Time>
            <Position>
              <LatitudeDegrees>40.71595497429370880126953125</LatitudeDegrees>
              <LongitudeDegrees>-3.8907183520495891571044921875</LongitudeDegrees>
            </Position>
            <AltitudeMeters>907.4000244140625</AltitudeMeters>
            <DistanceMeters>NAN</DistanceMeters>
          </Trackpoint>
          <Trackpoint>
            <Time>2020-03-07T16:57:53.000Z</Time>
            <Position>
              <LatitudeDegrees>40.71598405949771404266357421875</LatitudeDegrees>
              <LongitudeDegrees>-3.890643753111362457275390625</LongitudeDegrees>
            </Position>
            <AltitudeMeters>907.4000244140625</AltitudeMeters>
            <DistanceMeters>NAN</DistanceMeters>
          </Trackpoint>
          <Trackpoint>
            <Time>2020-03-07T16:57:54.000Z</Time>
            <Position>
              <LatitudeDegrees>40.71601272560656070709228515625</LatitudeDegrees>
              <LongitudeDegrees>-3.89056898653507232666015625</LongitudeDegrees>
            </Position>
            <AltitudeMeters>907.20001220703125</AltitudeMeters>
            <DistanceMeters>NAN</DistanceMeters>
          </Trackpoint>
          <Trackpoint>
            <Time>2020-03-07T16:57:55.000Z</Time>
            <Position>
              <LatitudeDegrees>40.71604105643928050994873046875</LatitudeDegrees>
              <LongitudeDegrees>-3.89049388468265533447265625</LongitudeDegrees>
            </Position>
            <AltitudeMeters>907.20001220703125</AltitudeMeters>
            <DistanceMeters>NAN</DistanceMeters>
          </Trackpoint>
          <Trackpoint>
            <Time>2020-03-07T16:57:56.000Z</Time>
            <Position>
              <LatitudeDegrees>40.71606955491006374359130859375</LatitudeDegrees>
              <LongitudeDegrees>-3.89041786082088947296142578125</LongitudeDegrees>
            </Position>
            <AltitudeMeters>907.20001220703125</AltitudeMeters>
            <DistanceMeters>NAN</DistanceMeters>
          </Trackpoint>
          <Trackpoint>
            <Time>2020-03-07T16:57:57.000Z</Time>
            <Position>
              <LatitudeDegrees>40.71609956212341785430908203125</LatitudeDegrees>
              <LongitudeDegrees>-3.8903411664068698883056640625</LongitudeDegrees>
            </Position>
            <AltitudeMeters>907</AltitudeMeters>
            <DistanceMeters>NAN</DistanceMeters>
          </Trackpoint>
          <Trackpoint>
            <Time>2020-03-07T16:57:58.000Z</Time>
            <Position>
              <LatitudeDegrees>40.71613074280321598052978515625</LatitudeDegrees>
              <LongitudeDegrees>-3.890265561640262603759765625</LongitudeDegrees>
            </Position>
            <AltitudeMeters>907</AltitudeMeters>
            <DistanceMeters>NAN</DistanceMeters>
          </Trackpoint>
          <Trackpoint>
            <Time>2020-03-07T16:57:59.000Z</Time>
            <Position>
              <LatitudeDegrees>40.7161613367497920989990234375</LatitudeDegrees>
              <LongitudeDegrees>-3.890191130340099334716796875</LongitudeDegrees>
            </Position>
            <AltitudeMeters>906.79998779296875</AltitudeMeters>
            <DistanceMeters>NAN</DistanceMeters>
          </Trackpoint>
          <Trackpoint>
            <Time>2020-03-07T16:58:00.000Z</Time>
            <Position>
              <LatitudeDegrees>40.716190338134765625</LatitudeDegrees>
              <LongitudeDegrees>-3.89011862687766551971435546875</LongitudeDegrees>
            </Position>
            <AltitudeMeters>906.79998779296875</AltitudeMeters>
            <DistanceMeters>NAN</DistanceMeters>
          </Trackpoint>
          <Trackpoint>
            <Time>2020-03-07T16:58:01.000Z</Time>
            <Position>
              <LatitudeDegrees>40.71622009389102458953857421875</LatitudeDegrees>
              <LongitudeDegrees>-3.89004671014845371246337890625</LongitudeDegrees>
            </Position>
            <AltitudeMeters>906.5999755859375</AltitudeMeters>
            <DistanceMeters>NAN</DistanceMeters>
          </Trackpoint>
          <Trackpoint>
            <Time>2020-03-07T16:58:02.000Z</Time>
            <Position>
              <LatitudeDegrees>40.71624976582825183868408203125</LatitudeDegrees>
              <LongitudeDegrees>-3.88997278176248073577880859375</LongitudeDegrees>
            </Position>
            <AltitudeMeters>906.5999755859375</AltitudeMeters>
            <DistanceMeters>NAN</DistanceMeters>
          </Trackpoint>
          <Trackpoint>
            <Time>2020-03-07T16:58:03.000Z</Time>
            <Position>
              <LatitudeDegrees>40.716279186308383941650390625</LatitudeDegrees>
              <LongitudeDegrees>-3.88989818282425403594970703125</LongitudeDegrees>
            </Position>
            <AltitudeMeters>906.4000244140625</AltitudeMeters>
            <DistanceMeters>NAN</DistanceMeters>
          </Trackpoint>
          <Trackpoint>
            <Time>2020-03-07T16:58:04.000Z</Time>
            <Position>
              <LatitudeDegrees>40.71630827151238918304443359375</LatitudeDegrees>
              <LongitudeDegrees>-3.889823667705059051513671875</LongitudeDegrees>
            </Position>
            <AltitudeMeters>906.4000244140625</AltitudeMeters>
            <DistanceMeters>NAN</DistanceMeters>
          </Trackpoint>
          <Trackpoint>
            <Time>2020-03-07T16:58:05.000Z</Time>
            <Position>
              <LatitudeDegrees>40.71633811108767986297607421875</LatitudeDegrees>
              <LongitudeDegrees>-3.88974957168102264404296875</LongitudeDegrees>
            </Position>
            <AltitudeMeters>906.4000244140625</AltitudeMeters>
            <DistanceMeters>NAN</DistanceMeters>
          </Trackpoint>
          <Trackpoint>
            <Time>2020-03-07T16:58:06.000Z</Time>
            <Position>
              <LatitudeDegrees>40.7163665257394313812255859375</LatitudeDegrees>
              <LongitudeDegrees>-3.88967673294246196746826171875</LongitudeDegrees>
            </Position>
            <AltitudeMeters>906.20001220703125</AltitudeMeters>
            <DistanceMeters>NAN</DistanceMeters>
          </Trackpoint>
          <Trackpoint>
            <Time>2020-03-07T16:58:07.000Z</Time>
            <Position>
              <LatitudeDegrees>40.7163941860198974609375</LatitudeDegrees>
              <LongitudeDegrees>-3.88960473239421844482421875</LongitudeDegrees>
            </Position>
            <AltitudeMeters>906.20001220703125</AltitudeMeters>
            <DistanceMeters>NAN</DistanceMeters>
          </Trackpoint>
          <Trackpoint>
            <Time>2020-03-07T16:58:08.000Z</Time>
            <Position>
              <LatitudeDegrees>40.71642193011939525604248046875</LatitudeDegrees>
              <LongitudeDegrees>-3.889533318579196929931640625</LongitudeDegrees>
            </Position>
            <AltitudeMeters>906.20001220703125</AltitudeMeters>
            <DistanceMeters>NAN</DistanceMeters>
          </Trackpoint>
          <Trackpoint>
            <Time>2020-03-07T16:58:09.000Z</Time>
            <Position>
              <LatitudeDegrees>40.716449506580829620361328125</LatitudeDegrees>
              <LongitudeDegrees>-3.8894617371261119842529296875</LongitudeDegrees>
            </Position>
            <AltitudeMeters>906.20001220703125</AltitudeMeters>
            <DistanceMeters>NAN</DistanceMeters>
          </Trackpoint>
          <Trackpoint>
            <Time>2020-03-07T16:58:10.000Z</Time>
            <Position>
              <LatitudeDegrees>40.7164785079658031463623046875</LatitudeDegrees>
              <LongitudeDegrees>-3.8893894851207733154296875</LongitudeDegrees>
            </Position>
            <AltitudeMeters>906</AltitudeMeters>
            <DistanceMeters>NAN</DistanceMeters>
          </Trackpoint>
          <Trackpoint>
            <Time>2020-03-07T16:58:11.000Z</Time>
            <Position>
              <LatitudeDegrees>40.71650608442723751068115234375</LatitudeDegrees>
              <LongitudeDegrees>-3.8893192447721958160400390625</LongitudeDegrees>
            </Position>
            <AltitudeMeters>905.79998779296875</AltitudeMeters>
            <DistanceMeters>NAN</DistanceMeters>
          </Trackpoint>
          <Trackpoint>
            <Time>2020-03-07T16:58:12.000Z</Time>
            <Position>
              <LatitudeDegrees>40.71653307415544986724853515625</LatitudeDegrees>
              <LongitudeDegrees>-3.889249674975872039794921875</LongitudeDegrees>
            </Position>
            <AltitudeMeters>905.79998779296875</AltitudeMeters>
            <DistanceMeters>NAN</DistanceMeters>
          </Trackpoint>
          <Trackpoint>
            <Time>2020-03-07T16:58:13.000Z</Time>
            <Position>
              <LatitudeDegrees>40.71656023152172565460205078125</LatitudeDegrees>
              <LongitudeDegrees>-3.88918018899857997894287109375</LongitudeDegrees>
            </Position>
            <AltitudeMeters>905.5999755859375</AltitudeMeters>
            <DistanceMeters>NAN</DistanceMeters>
          </Trackpoint>
          <Trackpoint>
            <Time>2020-03-07T16:58:14.000Z</Time>
            <Position>
              <LatitudeDegrees>40.7165874727070331573486328125</LatitudeDegrees>
              <LongitudeDegrees>-3.88911095447838306427001953125</LongitudeDegrees>
            </Position>
            <AltitudeMeters>905.5999755859375</AltitudeMeters>
            <DistanceMeters>NAN</DistanceMeters>
          </Trackpoint>
          <Trackpoint>
            <Time>2020-03-07T16:58:15.000Z</Time>
            <Position>
              <LatitudeDegrees>40.71661437861621379852294921875</LatitudeDegrees>
              <LongitudeDegrees>-3.88904205523431301116943359375</LongitudeDegrees>
            </Position>
            <AltitudeMeters>905.5999755859375</AltitudeMeters>
            <DistanceMeters>NAN</DistanceMeters>
          </Trackpoint>
          <Trackpoint>
            <Time>2020-03-07T16:58:16.000Z</Time>
            <Position>
              <LatitudeDegrees>40.71664203889667987823486328125</LatitudeDegrees>
              <LongitudeDegrees>-3.888972736895084381103515625</LongitudeDegrees>
            </Position>
            <AltitudeMeters>905.5999755859375</AltitudeMeters>
            <DistanceMeters>NAN</DistanceMeters>
          </Trackpoint>
          <Trackpoint>
            <Time>2020-03-07T16:58:17.000Z</Time>
            <Position>
              <LatitudeDegrees>40.71666969917714595794677734375</LatitudeDegrees>
              <LongitudeDegrees>-3.88890408910810947418212890625</LongitudeDegrees>
            </Position>
            <AltitudeMeters>905.5999755859375</AltitudeMeters>
            <DistanceMeters>NAN</DistanceMeters>
          </Trackpoint>
          <Trackpoint>
            <Time>2020-03-07T16:58:18.000Z</Time>
            <Position>
              <LatitudeDegrees>40.7166971080005168914794921875</LatitudeDegrees>
              <LongitudeDegrees>-3.8888367824256420135498046875</LongitudeDegrees>
            </Position>
            <AltitudeMeters>905.5999755859375</AltitudeMeters>
            <DistanceMeters>NAN</DistanceMeters>
          </Trackpoint>
          <Trackpoint>
            <Time>2020-03-07T16:58:19.000Z</Time>
            <Position>
              <LatitudeDegrees>40.71672476828098297119140625</LatitudeDegrees>
              <LongitudeDegrees>-3.88876880519092082977294921875</LongitudeDegrees>
            </Position>
            <AltitudeMeters>905.5999755859375</AltitudeMeters>
            <DistanceMeters>NAN</DistanceMeters>
          </Trackpoint>
          <Trackpoint>
            <Time>2020-03-07T16:58:20.000Z</Time>
            <Position>
              <LatitudeDegrees>40.71675284765660762786865234375</LatitudeDegrees>
              <LongitudeDegrees>-3.88870091177523136138916015625</LongitudeDegrees>
            </Position>
            <AltitudeMeters>905.79998779296875</AltitudeMeters>
            <DistanceMeters>NAN</DistanceMeters>
          </Trackpoint>
          <Trackpoint>
            <Time>2020-03-07T16:58:21.000Z</Time>
            <Position>
              <LatitudeDegrees>40.71678101085126399993896484375</LatitudeDegrees>
              <LongitudeDegrees>-3.88863251544535160064697265625</LongitudeDegrees>
            </Position>
            <AltitudeMeters>905.79998779296875</AltitudeMeters>
            <DistanceMeters>NAN</DistanceMeters>
          </Trackpoint>
          <Trackpoint>
            <Time>2020-03-07T16:58:22.000Z</Time>
            <Position>
              <LatitudeDegrees>40.7168087549507617950439453125</LatitudeDegrees>
              <LongitudeDegrees>-3.8885642029345035552978515625</LongitudeDegrees>
            </Position>
            <AltitudeMeters>905.79998779296875</AltitudeMeters>
            <DistanceMeters>NAN</DistanceMeters>
          </Trackpoint>
          <Trackpoint>
            <Time>2020-03-07T16:58:23.000Z</Time>
            <Position>
              <LatitudeDegrees>40.71683784015476703643798828125</LatitudeDegrees>
              <LongitudeDegrees>-3.88849739916622638702392578125</LongitudeDegrees>
            </Position>
            <AltitudeMeters>906</AltitudeMeters>
            <DistanceMeters>NAN</DistanceMeters>
          </Trackpoint>
          <Trackpoint>
            <Time>2020-03-07T16:58:24.000Z</Time>
            <Position>
              <LatitudeDegrees>40.7168662548065185546875</LatitudeDegrees>
              <LongitudeDegrees>-3.8884300924837589263916015625</LongitudeDegrees>
            </Position>
            <AltitudeMeters>906</AltitudeMeters>
            <DistanceMeters>NAN</DistanceMeters>
          </Trackpoint>
          <Trackpoint>
            <Time>2020-03-07T16:58:25.000Z</Time>
            <Position>
              <LatitudeDegrees>40.71689450182020664215087890625</LatitudeDegrees>
              <LongitudeDegrees>-3.88836194761097431182861328125</LongitudeDegrees>
            </Position>
            <AltitudeMeters>906</AltitudeMeters>
            <DistanceMeters>NAN</DistanceMeters>
          </Trackpoint>
          <Trackpoint>
            <Time>2020-03-07T16:58:26.000Z</Time>
            <Position>
              <LatitudeDegrees>40.7169237546622753143310546875</LatitudeDegrees>
              <LongitudeDegrees>-3.888294138014316558837890625</LongitudeDegrees>
            </Position>
            <AltitudeMeters>906</AltitudeMeters>
            <DistanceMeters>NAN</DistanceMeters>
          </Trackpoint>
          <Trackpoint>
            <Time>2020-03-07T16:58:27.000Z</Time>
            <Position>
              <LatitudeDegrees>40.716953091323375701904296875</LatitudeDegrees>
              <LongitudeDegrees>-3.888227753341197967529296875</LongitudeDegrees>
            </Position>
            <AltitudeMeters>906</AltitudeMeters>
            <DistanceMeters>NAN</DistanceMeters>
          </Trackpoint>
          <Trackpoint>
            <Time>2020-03-07T16:58:28.000Z</Time>
            <Position>
              <LatitudeDegrees>40.71698267944157123565673828125</LatitudeDegrees>
              <LongitudeDegrees>-3.88816162012517452239990234375</LongitudeDegrees>
            </Position>
            <AltitudeMeters>906</AltitudeMeters>
            <DistanceMeters>NAN</DistanceMeters>
          </Trackpoint>
          <Trackpoint>
            <Time>2020-03-07T16:58:29.000Z</Time>
            <Position>
              <LatitudeDegrees>40.71701201610267162322998046875</LatitudeDegrees>
              <LongitudeDegrees>-3.888095319271087646484375</LongitudeDegrees>
            </Position>
            <AltitudeMeters>906</AltitudeMeters>
            <DistanceMeters>NAN</DistanceMeters>
          </Trackpoint>
          <Trackpoint>
            <Time>2020-03-07T16:58:30.000Z</Time>
            <Position>
              <LatitudeDegrees>40.717040598392486572265625</LatitudeDegrees>
              <LongitudeDegrees>-3.88802901841700077056884765625</LongitudeDegrees>
            </Position>
            <AltitudeMeters>906</AltitudeMeters>
            <DistanceMeters>NAN</DistanceMeters>
          </Trackpoint>
          <Trackpoint>
            <Time>2020-03-07T16:58:31.000Z</Time>
            <Position>
              <LatitudeDegrees>40.71706968359649181365966796875</LatitudeDegrees>
              <LongitudeDegrees>-3.8879637233912944793701171875</LongitudeDegrees>
            </Position>
            <AltitudeMeters>906</AltitudeMeters>
            <DistanceMeters>NAN</DistanceMeters>
          </Trackpoint>
          <Trackpoint>
            <Time>2020-03-07T16:58:32.000Z</Time>
            <Position>
              <LatitudeDegrees>40.717099271714687347412109375</LatitudeDegrees>
              <LongitudeDegrees>-3.88789893127977848052978515625</LongitudeDegrees>
            </Position>
            <AltitudeMeters>906</AltitudeMeters>
            <DistanceMeters>NAN</DistanceMeters>
          </Trackpoint>
          <Trackpoint>
            <Time>2020-03-07T16:58:33.000Z</Time>
            <Position>
              <LatitudeDegrees>40.71712902747094631195068359375</LatitudeDegrees>
              <LongitudeDegrees>-3.887834809720516204833984375</LongitudeDegrees>
            </Position>
            <AltitudeMeters>906</AltitudeMeters>
            <DistanceMeters>NAN</DistanceMeters>
          </Trackpoint>
          <Trackpoint>
            <Time>2020-03-07T16:58:34.000Z</Time>
            <Position>
              <LatitudeDegrees>40.717159621417522430419921875</LatitudeDegrees>
              <LongitudeDegrees>-3.88777052052319049835205078125</LongitudeDegrees>
            </Position>
            <AltitudeMeters>906.20001220703125</AltitudeMeters>
            <DistanceMeters>NAN</DistanceMeters>
          </Trackpoint>
          <Trackpoint>
            <Time>2020-03-07T16:58:35.000Z</Time>
            <Position>
              <LatitudeDegrees>40.7171899639070034027099609375</LatitudeDegrees>
              <LongitudeDegrees>-3.8877062313258647918701171875</LongitudeDegrees>
            </Position>
            <AltitudeMeters>906.20001220703125</AltitudeMeters>
            <DistanceMeters>NAN</DistanceMeters>
          </Trackpoint>
          <Trackpoint>
            <Time>2020-03-07T16:58:36.000Z</Time>
            <Position>
              <LatitudeDegrees>40.71722122840583324432373046875</LatitudeDegrees>
              <LongitudeDegrees>-3.8876415230333805084228515625</LongitudeDegrees>
            </Position>
            <AltitudeMeters>906.20001220703125</AltitudeMeters>
            <DistanceMeters>NAN</DistanceMeters>
          </Trackpoint>
          <Trackpoint>
            <Time>2020-03-07T16:58:37.000Z</Time>
            <Position>
              <LatitudeDegrees>40.717252157628536224365234375</LatitudeDegrees>
              <LongitudeDegrees>-3.8875763118267059326171875</LongitudeDegrees>
            </Position>
            <AltitudeMeters>906.20001220703125</AltitudeMeters>
            <DistanceMeters>NAN</DistanceMeters>
          </Trackpoint>
          <Trackpoint>
            <Time>2020-03-07T16:58:38.000Z</Time>
            <Position>
              <LatitudeDegrees>40.71728400886058807373046875</LatitudeDegrees>
              <LongitudeDegrees>-3.8875107653439044952392578125</LongitudeDegrees>
            </Position>
            <AltitudeMeters>906.4000244140625</AltitudeMeters>
            <DistanceMeters>NAN</DistanceMeters>
          </Trackpoint>
          <Trackpoint>
            <Time>2020-03-07T16:58:39.000Z</Time>
            <Position>
              <LatitudeDegrees>40.71731619536876678466796875</LatitudeDegrees>
              <LongitudeDegrees>-3.88744513504207134246826171875</LongitudeDegrees>
            </Position>
            <AltitudeMeters>906.4000244140625</AltitudeMeters>
            <DistanceMeters>NAN</DistanceMeters>
          </Trackpoint>
          <Trackpoint>
            <Time>2020-03-07T16:58:40.000Z</Time>
            <Position>
              <LatitudeDegrees>40.71734745986759662628173828125</LatitudeDegrees>
              <LongitudeDegrees>-3.88738118112087249755859375</LongitudeDegrees>
            </Position>
            <AltitudeMeters>906.4000244140625</AltitudeMeters>
            <DistanceMeters>NAN</DistanceMeters>
          </Trackpoint>
          <Trackpoint>
            <Time>2020-03-07T16:58:41.000Z</Time>
            <Position>
              <LatitudeDegrees>40.7173787243664264678955078125</LatitudeDegrees>
              <LongitudeDegrees>-3.88731739483773708343505859375</LongitudeDegrees>
            </Position>
            <AltitudeMeters>906.4000244140625</AltitudeMeters>
            <DistanceMeters>NAN</DistanceMeters>
          </Trackpoint>
          <Trackpoint>
            <Time>2020-03-07T16:58:42.000Z</Time>
            <Position>
              <LatitudeDegrees>40.71740965358912944793701171875</LatitudeDegrees>
              <LongitudeDegrees>-3.8872532732784748077392578125</LongitudeDegrees>
            </Position>
            <AltitudeMeters>906.4000244140625</AltitudeMeters>
            <DistanceMeters>NAN</DistanceMeters>
          </Trackpoint>
          <Trackpoint>
            <Time>2020-03-07T16:58:43.000Z</Time>
            <Position>
              <LatitudeDegrees>40.717441253364086151123046875</LatitudeDegrees>
              <LongitudeDegrees>-3.8871885649859905242919921875</LongitudeDegrees>
            </Position>
            <AltitudeMeters>906.4000244140625</AltitudeMeters>
            <DistanceMeters>NAN</DistanceMeters>
          </Trackpoint>
          <Trackpoint>
            <Time>2020-03-07T16:58:44.000Z</Time>
            <Position>
              <LatitudeDegrees>40.7174722664058208465576171875</LatitudeDegrees>
              <LongitudeDegrees>-3.887124024331569671630859375</LongitudeDegrees>
            </Position>
            <AltitudeMeters>906.4000244140625</AltitudeMeters>
            <DistanceMeters>NAN</DistanceMeters>
          </Trackpoint>
          <Trackpoint>
            <Time>2020-03-07T16:58:45.000Z</Time>
            <Position>
              <LatitudeDegrees>40.7175031118094921112060546875</LatitudeDegrees>
              <LongitudeDegrees>-3.88705956749618053436279296875</LongitudeDegrees>
            </Position>
            <AltitudeMeters>906.4000244140625</AltitudeMeters>
            <DistanceMeters>NAN</DistanceMeters>
          </Trackpoint>
          <Trackpoint>
            <Time>2020-03-07T16:58:46.000Z</Time>
            <Position>
              <LatitudeDegrees>40.71753487922251224517822265625</LatitudeDegrees>
              <LongitudeDegrees>-3.88699603267014026641845703125</LongitudeDegrees>
            </Position>
            <AltitudeMeters>906.5999755859375</AltitudeMeters>
            <DistanceMeters>NAN</DistanceMeters>
          </Trackpoint>
          <Trackpoint>
            <Time>2020-03-07T16:58:47.000Z</Time>
            <Position>
              <LatitudeDegrees>40.717566646635532379150390625</LatitudeDegrees>
              <LongitudeDegrees>-3.8869327493011951446533203125</LongitudeDegrees>
            </Position>
            <AltitudeMeters>906.79998779296875</AltitudeMeters>
            <DistanceMeters>NAN</DistanceMeters>
          </Trackpoint>
          <Trackpoint>
            <Time>2020-03-07T16:58:48.000Z</Time>
            <Position>
              <LatitudeDegrees>40.71759782731533050537109375</LatitudeDegrees>
              <LongitudeDegrees>-3.88686879537999629974365234375</LongitudeDegrees>
            </Position>
            <AltitudeMeters>906.79998779296875</AltitudeMeters>
            <DistanceMeters>NAN</DistanceMeters>
          </Trackpoint>
          <Trackpoint>
            <Time>2020-03-07T16:58:49.000Z</Time>
            <Position>
              <LatitudeDegrees>40.7176293432712554931640625</LatitudeDegrees>
              <LongitudeDegrees>-3.8868038356304168701171875</LongitudeDegrees>
            </Position>
            <AltitudeMeters>906.79998779296875</AltitudeMeters>
            <DistanceMeters>NAN</DistanceMeters>
          </Trackpoint>
          <Trackpoint>
            <Time>2020-03-07T16:58:50.000Z</Time>
            <Position>
              <LatitudeDegrees>40.71766044013202190399169921875</LatitudeDegrees>
              <LongitudeDegrees>-3.88673921115696430206298828125</LongitudeDegrees>
            </Position>
            <AltitudeMeters>906.79998779296875</AltitudeMeters>
            <DistanceMeters>NAN</DistanceMeters>
          </Trackpoint>
          <Trackpoint>
            <Time>2020-03-07T16:58:51.000Z</Time>
            <Position>
              <LatitudeDegrees>40.71769237518310546875</LatitudeDegrees>
              <LongitudeDegrees>-3.88667643070220947265625</LongitudeDegrees>
            </Position>
            <AltitudeMeters>906.79998779296875</AltitudeMeters>
            <DistanceMeters>NAN</DistanceMeters>
          </Trackpoint>
          <Trackpoint>
            <Time>2020-03-07T16:58:52.000Z</Time>
            <Position>
              <LatitudeDegrees>40.717723555862903594970703125</LatitudeDegrees>
              <LongitudeDegrees>-3.886614404618740081787109375</LongitudeDegrees>
            </Position>
            <AltitudeMeters>906.79998779296875</AltitudeMeters>
            <DistanceMeters>NAN</DistanceMeters>
          </Trackpoint>
          <Trackpoint>
            <Time>2020-03-07T16:58:53.000Z</Time>
            <Position>
              <LatitudeDegrees>40.717754401266574859619140625</LatitudeDegrees>
              <LongitudeDegrees>-3.88655246235430240631103515625</LongitudeDegrees>
            </Position>
            <AltitudeMeters>907</AltitudeMeters>
            <DistanceMeters>NAN</DistanceMeters>
          </Trackpoint>
          <Trackpoint>
            <Time>2020-03-07T16:58:54.000Z</Time>
            <Position>
              <LatitudeDegrees>40.71778558194637298583984375</LatitudeDegrees>
              <LongitudeDegrees>-3.8864905200898647308349609375</LongitudeDegrees>
            </Position>
            <AltitudeMeters>907</AltitudeMeters>
            <DistanceMeters>NAN</DistanceMeters>
          </Trackpoint>
          <Trackpoint>
            <Time>2020-03-07T16:58:55.000Z</Time>
            <Position>
              <LatitudeDegrees>40.71781617589294910430908203125</LatitudeDegrees>
              <LongitudeDegrees>-3.8864283263683319091796875</LongitudeDegrees>
            </Position>
            <AltitudeMeters>907</AltitudeMeters>
            <DistanceMeters>NAN</DistanceMeters>
          </Trackpoint>
          <Trackpoint>
            <Time>2020-03-07T16:58:56.000Z</Time>
            <Position>
              <LatitudeDegrees>40.7178467698395252227783203125</LatitudeDegrees>
              <LongitudeDegrees>-3.8863666355609893798828125</LongitudeDegrees>
            </Position>
            <AltitudeMeters>907</AltitudeMeters>
            <DistanceMeters>NAN</DistanceMeters>
          </Trackpoint>
          <Trackpoint>
            <Time>2020-03-07T16:58:57.000Z</Time>
            <Position>
              <LatitudeDegrees>40.71787719614803791046142578125</LatitudeDegrees>
              <LongitudeDegrees>-3.88630435802042484283447265625</LongitudeDegrees>
            </Position>
            <AltitudeMeters>907</AltitudeMeters>
            <DistanceMeters>NAN</DistanceMeters>
          </Trackpoint>
          <Trackpoint>
            <Time>2020-03-07T16:58:58.000Z</Time>
            <Position>
              <LatitudeDegrees>40.71790762245655059814453125</LatitudeDegrees>
              <LongitudeDegrees>-3.88624065555632114410400390625</LongitudeDegrees>
            </Position>
            <AltitudeMeters>907</AltitudeMeters>
            <DistanceMeters>NAN</DistanceMeters>
          </Trackpoint>
          <Trackpoint>
            <Time>2020-03-07T16:58:59.000Z</Time>
            <Position>
              <LatitudeDegrees>40.717938803136348724365234375</LatitudeDegrees>
              <LongitudeDegrees>-3.8861763663589954376220703125</LongitudeDegrees>
            </Position>
            <AltitudeMeters>907</AltitudeMeters>
            <DistanceMeters>NAN</DistanceMeters>
          </Trackpoint>
          <Trackpoint>
            <Time>2020-03-07T16:59:00.000Z</Time>
            <Position>
              <LatitudeDegrees>40.7179708220064640045166015625</LatitudeDegrees>
              <LongitudeDegrees>-3.886111490428447723388671875</LongitudeDegrees>
            </Position>
            <AltitudeMeters>907</AltitudeMeters>
            <DistanceMeters>NAN</DistanceMeters>
          </Trackpoint>
          <Trackpoint>
            <Time>2020-03-07T16:59:01.000Z</Time>
            <Position>
              <LatitudeDegrees>40.71800225414335727691650390625</LatitudeDegrees>
              <LongitudeDegrees>-3.88604602776467800140380859375</LongitudeDegrees>
            </Position>
            <AltitudeMeters>907</AltitudeMeters>
            <DistanceMeters>NAN</DistanceMeters>
          </Trackpoint>
          <Trackpoint>
            <Time>2020-03-07T16:59:02.000Z</Time>
            <Position>
              <LatitudeDegrees>40.71803410537540912628173828125</LatitudeDegrees>
              <LongitudeDegrees>-3.88598081655800342559814453125</LongitudeDegrees>
            </Position>
            <AltitudeMeters>907</AltitudeMeters>
            <DistanceMeters>NAN</DistanceMeters>
          </Trackpoint>
          <Trackpoint>
            <Time>2020-03-07T16:59:03.000Z</Time>
            <Position>
              <LatitudeDegrees>40.71806595660746097564697265625</LatitudeDegrees>
              <LongitudeDegrees>-3.88591661117970943450927734375</LongitudeDegrees>
            </Position>
            <AltitudeMeters>907</AltitudeMeters>
            <DistanceMeters>NAN</DistanceMeters>
          </Trackpoint>
          <Trackpoint>
            <Time>2020-03-07T16:59:04.000Z</Time>
            <Position>
              <LatitudeDegrees>40.718097053468227386474609375</LatitudeDegrees>
              <LongitudeDegrees>-3.88585232198238372802734375</LongitudeDegrees>
            </Position>
            <AltitudeMeters>907.20001220703125</AltitudeMeters>
            <DistanceMeters>NAN</DistanceMeters>
          </Trackpoint>
          <Trackpoint>
            <Time>2020-03-07T16:59:05.000Z</Time>
            <Position>
              <LatitudeDegrees>40.71812848560512065887451171875</LatitudeDegrees>
              <LongitudeDegrees>-3.88578794896602630615234375</LongitudeDegrees>
            </Position>
            <AltitudeMeters>907.20001220703125</AltitudeMeters>
            <DistanceMeters>NAN</DistanceMeters>
          </Trackpoint>
          <Trackpoint>
            <Time>2020-03-07T16:59:06.000Z</Time>
            <Position>
              <LatitudeDegrees>40.71816033683717250823974609375</LatitudeDegrees>
              <LongitudeDegrees>-3.88572265394032001495361328125</LongitudeDegrees>
            </Position>
            <AltitudeMeters>907.20001220703125</AltitudeMeters>
            <DistanceMeters>NAN</DistanceMeters>
          </Trackpoint>
          <Trackpoint>
            <Time>2020-03-07T16:59:07.000Z</Time>
            <Position>
              <LatitudeDegrees>40.718192942440509796142578125</LatitudeDegrees>
              <LongitudeDegrees>-3.88565509580075740814208984375</LongitudeDegrees>
            </Position>
            <AltitudeMeters>907.20001220703125</AltitudeMeters>
            <DistanceMeters>NAN</DistanceMeters>
          </Trackpoint>
          <Trackpoint>
            <Time>2020-03-07T16:59:08.000Z</Time>
            <Position>
              <LatitudeDegrees>40.7182252965867519378662109375</LatitudeDegrees>
              <LongitudeDegrees>-3.88558678328990936279296875</LongitudeDegrees>
            </Position>
            <AltitudeMeters>907.4000244140625</AltitudeMeters>
            <DistanceMeters>NAN</DistanceMeters>
          </Trackpoint>
          <Trackpoint>
            <Time>2020-03-07T16:59:09.000Z</Time>
            <Position>
              <LatitudeDegrees>40.718257315456867218017578125</LatitudeDegrees>
              <LongitudeDegrees>-3.88551838696002960205078125</LongitudeDegrees>
            </Position>
            <AltitudeMeters>907.5999755859375</AltitudeMeters>
            <DistanceMeters>NAN</DistanceMeters>
          </Trackpoint>
          <Trackpoint>
            <Time>2020-03-07T16:59:10.000Z</Time>
            <Position>
              <LatitudeDegrees>40.71828975342214107513427734375</LatitudeDegrees>
              <LongitudeDegrees>-3.88545091263949871063232421875</LongitudeDegrees>
            </Position>
            <AltitudeMeters>907.79998779296875</AltitudeMeters>
            <DistanceMeters>NAN</DistanceMeters>
          </Trackpoint>
          <Trackpoint>
            <Time>2020-03-07T16:59:11.000Z</Time>
            <Position>
              <LatitudeDegrees>40.7183218561112880706787109375</LatitudeDegrees>
              <LongitudeDegrees>-3.885385282337665557861328125</LongitudeDegrees>
            </Position>
            <AltitudeMeters>907.79998779296875</AltitudeMeters>
            <DistanceMeters>NAN</DistanceMeters>
          </Trackpoint>
          <Trackpoint>
            <Time>2020-03-07T16:59:12.000Z</Time>
            <Position>
              <LatitudeDegrees>40.71835295297205448150634765625</LatitudeDegrees>
              <LongitudeDegrees>-3.8853210769593715667724609375</LongitudeDegrees>
            </Position>
            <AltitudeMeters>907.79998779296875</AltitudeMeters>
            <DistanceMeters>NAN</DistanceMeters>
          </Trackpoint>
          <Trackpoint>
            <Time>2020-03-07T16:59:13.000Z</Time>
            <Position>
              <LatitudeDegrees>40.71838597767055034637451171875</LatitudeDegrees>
              <LongitudeDegrees>-3.88525209389626979827880859375</LongitudeDegrees>
            </Position>
            <AltitudeMeters>908</AltitudeMeters>
            <DistanceMeters>NAN</DistanceMeters>
          </Trackpoint>
          <Trackpoint>
            <Time>2020-03-07T16:59:14.000Z</Time>
            <Position>
              <LatitudeDegrees>40.7184187509119510650634765625</LatitudeDegrees>
              <LongitudeDegrees>-3.88518185354769229888916015625</LongitudeDegrees>
            </Position>
            <AltitudeMeters>908</AltitudeMeters>
            <DistanceMeters>NAN</DistanceMeters>
          </Trackpoint>
          <Trackpoint>
            <Time>2020-03-07T16:59:15.000Z</Time>
            <Position>
              <LatitudeDegrees>40.71845118887722492218017578125</LatitudeDegrees>
              <LongitudeDegrees>-3.88511337339878082275390625</LongitudeDegrees>
            </Position>
            <AltitudeMeters>908.20001220703125</AltitudeMeters>
            <DistanceMeters>NAN</DistanceMeters>
          </Trackpoint>
          <Trackpoint>
            <Time>2020-03-07T16:59:16.000Z</Time>
            <Position>
              <LatitudeDegrees>40.71848320774734020233154296875</LatitudeDegrees>
              <LongitudeDegrees>-3.88504640199244022369384765625</LongitudeDegrees>
            </Position>
            <AltitudeMeters>908.20001220703125</AltitudeMeters>
            <DistanceMeters>NAN</DistanceMeters>
          </Trackpoint>
          <Trackpoint>
            <Time>2020-03-07T16:59:17.000Z</Time>
            <Position>
              <LatitudeDegrees>40.71851707063615322113037109375</LatitudeDegrees>
              <LongitudeDegrees>-3.88497649691998958587646484375</LongitudeDegrees>
            </Position>
            <AltitudeMeters>908.20001220703125</AltitudeMeters>
            <DistanceMeters>NAN</DistanceMeters>
          </Trackpoint>
          <Trackpoint>
            <Time>2020-03-07T16:59:18.000Z</Time>
            <Position>
              <LatitudeDegrees>40.71855009533464908599853515625</LatitudeDegrees>
              <LongitudeDegrees>-3.88490818440914154052734375</LongitudeDegrees>
            </Position>
            <AltitudeMeters>908.20001220703125</AltitudeMeters>
            <DistanceMeters>NAN</DistanceMeters>
          </Trackpoint>
          <Trackpoint>
            <Time>2020-03-07T16:59:19.000Z</Time>
            <Position>
              <LatitudeDegrees>40.7185833714902400970458984375</LatitudeDegrees>
              <LongitudeDegrees>-3.88484054245054721832275390625</LongitudeDegrees>
            </Position>
            <AltitudeMeters>908.20001220703125</AltitudeMeters>
            <DistanceMeters>NAN</DistanceMeters>
          </Trackpoint>
          <Trackpoint>
            <Time>2020-03-07T16:59:20.000Z</Time>
            <Position>
              <LatitudeDegrees>40.7186165638267993927001953125</LatitudeDegrees>
              <LongitudeDegrees>-3.88476845808327198028564453125</LongitudeDegrees>
            </Position>
            <AltitudeMeters>908.20001220703125</AltitudeMeters>
            <DistanceMeters>NAN</DistanceMeters>
          </Trackpoint>
          <Trackpoint>
            <Time>2020-03-07T16:59:21.000Z</Time>
            <Position>
              <LatitudeDegrees>40.71865101344883441925048828125</LatitudeDegrees>
              <LongitudeDegrees>-3.88469360768795013427734375</LongitudeDegrees>
            </Position>
            <AltitudeMeters>908.20001220703125</AltitudeMeters>
            <DistanceMeters>NAN</DistanceMeters>
          </Trackpoint>
          <Trackpoint>
            <Time>2020-03-07T16:59:22.000Z</Time>
            <Position>
              <LatitudeDegrees>40.7186879776418209075927734375</LatitudeDegrees>
              <LongitudeDegrees>-3.884619511663913726806640625</LongitudeDegrees>
            </Position>
            <AltitudeMeters>908.20001220703125</AltitudeMeters>
            <DistanceMeters>NAN</DistanceMeters>
          </Trackpoint>
          <Trackpoint>
            <Time>2020-03-07T16:59:23.000Z</Time>
            <Position>
              <LatitudeDegrees>40.71872594766318798065185546875</LatitudeDegrees>
              <LongitudeDegrees>-3.884542398154735565185546875</LongitudeDegrees>
            </Position>
            <AltitudeMeters>908.20001220703125</AltitudeMeters>
            <DistanceMeters>NAN</DistanceMeters>
          </Trackpoint>
          <Trackpoint>
            <Time>2020-03-07T16:59:24.000Z</Time>
            <Position>
              <LatitudeDegrees>40.7187624089419841766357421875</LatitudeDegrees>
              <LongitudeDegrees>-3.88446872122585773468017578125</LongitudeDegrees>
            </Position>
            <AltitudeMeters>908.20001220703125</AltitudeMeters>
            <DistanceMeters>NAN</DistanceMeters>
          </Trackpoint>
          <Trackpoint>
            <Time>2020-03-07T16:59:25.000Z</Time>
            <Position>
              <LatitudeDegrees>40.7188009656965732574462890625</LatitudeDegrees>
              <LongitudeDegrees>-3.88439160771667957305908203125</LongitudeDegrees>
            </Position>
            <AltitudeMeters>908</AltitudeMeters>
            <DistanceMeters>NAN</DistanceMeters>
          </Trackpoint>
          <Trackpoint>
            <Time>2020-03-07T16:59:26.000Z</Time>
            <Position>
              <LatitudeDegrees>40.7188009656965732574462890625</LatitudeDegrees>
              <LongitudeDegrees>-3.88439160771667957305908203125</LongitudeDegrees>
            </Position>
            <AltitudeMeters>908</AltitudeMeters>
            <DistanceMeters>NAN</DistanceMeters>
          </Trackpoint>
          <Trackpoint>
            <Time>2020-03-07T16:59:27.000Z</Time>
            <Position>
              <LatitudeDegrees>40.718876235187053680419921875</LatitudeDegrees>
              <LongitudeDegrees>-3.884244002401828765869140625</LongitudeDegrees>
            </Position>
            <AltitudeMeters>908</AltitudeMeters>
            <DistanceMeters>NAN</DistanceMeters>
          </Trackpoint>
          <Trackpoint>
            <Time>2020-03-07T16:59:28.000Z</Time>
            <Position>
              <LatitudeDegrees>40.718908421695232391357421875</LatitudeDegrees>
              <LongitudeDegrees>-3.88417820446193218231201171875</LongitudeDegrees>
            </Position>
            <AltitudeMeters>908</AltitudeMeters>
            <DistanceMeters>NAN</DistanceMeters>
          </Trackpoint>
          <Trackpoint>
            <Time>2020-03-07T16:59:29.000Z</Time>
            <Position>
              <LatitudeDegrees>40.71893700398504734039306640625</LatitudeDegrees>
              <LongitudeDegrees>-3.88411768712103366851806640625</LongitudeDegrees>
            </Position>
            <AltitudeMeters>907.79998779296875</AltitudeMeters>
            <DistanceMeters>NAN</DistanceMeters>
          </Trackpoint>
          <Trackpoint>
            <Time>2020-03-07T16:59:30.000Z</Time>
            <Position>
              <LatitudeDegrees>40.7189642451703548431396484375</LatitudeDegrees>
              <LongitudeDegrees>-3.88406060636043548583984375</LongitudeDegrees>
            </Position>
            <AltitudeMeters>907.79998779296875</AltitudeMeters>
            <DistanceMeters>NAN</DistanceMeters>
          </Trackpoint>
          <Trackpoint>
            <Time>2020-03-07T16:59:31.000Z</Time>
            <Position>
              <LatitudeDegrees>40.71899215690791606903076171875</LatitudeDegrees>
              <LongitudeDegrees>-3.88400386087596416473388671875</LongitudeDegrees>
            </Position>
            <AltitudeMeters>907.79998779296875</AltitudeMeters>
            <DistanceMeters>NAN</DistanceMeters>
          </Trackpoint>
          <Trackpoint>
            <Time>2020-03-07T16:59:32.000Z</Time>
            <Position>
              <LatitudeDegrees>40.71899215690791606903076171875</LatitudeDegrees>
              <LongitudeDegrees>-3.88400386087596416473388671875</LongitudeDegrees>
            </Position>
            <AltitudeMeters>907.79998779296875</AltitudeMeters>
            <DistanceMeters>NAN</DistanceMeters>
          </Trackpoint>
          <Trackpoint>
            <Time>2020-03-07T16:59:33.000Z</Time>
            <Position>
              <LatitudeDegrees>40.71905158460140228271484375</LatitudeDegrees>
              <LongitudeDegrees>-3.88388014398515224456787109375</LongitudeDegrees>
            </Position>
            <AltitudeMeters>907.79998779296875</AltitudeMeters>
            <DistanceMeters>NAN</DistanceMeters>
          </Trackpoint>
          <Trackpoint>
            <Time>2020-03-07T16:59:34.000Z</Time>
            <Position>
              <LatitudeDegrees>40.7190812565386295318603515625</LatitudeDegrees>
              <LongitudeDegrees>-3.8838200457394123077392578125</LongitudeDegrees>
            </Position>
            <AltitudeMeters>907.79998779296875</AltitudeMeters>
            <DistanceMeters>NAN</DistanceMeters>
          </Trackpoint>
          <Trackpoint>
            <Time>2020-03-07T16:59:35.000Z</Time>
            <Position>
              <LatitudeDegrees>40.71911101229488849639892578125</LatitudeDegrees>
              <LongitudeDegrees>-3.8837586902081966400146484375</LongitudeDegrees>
            </Position>
            <AltitudeMeters>907.79998779296875</AltitudeMeters>
            <DistanceMeters>NAN</DistanceMeters>
          </Trackpoint>
          <Trackpoint>
            <Time>2020-03-07T16:59:36.000Z</Time>
            <Position>
              <LatitudeDegrees>40.719141773879528045654296875</LatitudeDegrees>
              <LongitudeDegrees>-3.8836986757814884185791015625</LongitudeDegrees>
            </Position>
            <AltitudeMeters>907.5999755859375</AltitudeMeters>
            <DistanceMeters>NAN</DistanceMeters>
          </Trackpoint>
          <Trackpoint>
            <Time>2020-03-07T16:59:37.000Z</Time>
            <Position>
              <LatitudeDegrees>40.719173289835453033447265625</LatitudeDegrees>
              <LongitudeDegrees>-3.88364008627831935882568359375</LongitudeDegrees>
            </Position>
            <AltitudeMeters>907.5999755859375</AltitudeMeters>
            <DistanceMeters>NAN</DistanceMeters>
          </Trackpoint>
          <Trackpoint>
            <Time>2020-03-07T16:59:38.000Z</Time>
            <Position>
              <LatitudeDegrees>40.7192036323249340057373046875</LatitudeDegrees>
              <LongitudeDegrees>-3.8835819996893405914306640625</LongitudeDegrees>
            </Position>
            <AltitudeMeters>907.5999755859375</AltitudeMeters>
            <DistanceMeters>NAN</DistanceMeters>
          </Trackpoint>
          <Trackpoint>
            <Time>2020-03-07T16:59:39.000Z</Time>
            <Position>
              <LatitudeDegrees>40.71923338808119297027587890625</LatitudeDegrees>
              <LongitudeDegrees>-3.88352743349969387054443359375</LongitudeDegrees>
            </Position>
            <AltitudeMeters>907.5999755859375</AltitudeMeters>
            <DistanceMeters>NAN</DistanceMeters>
          </Trackpoint>
          <Trackpoint>
            <Time>2020-03-07T16:59:40.000Z</Time>
            <Position>
              <LatitudeDegrees>40.71926188655197620391845703125</LatitudeDegrees>
              <LongitudeDegrees>-3.88347261585295200347900390625</LongitudeDegrees>
            </Position>
            <AltitudeMeters>907.5999755859375</AltitudeMeters>
            <DistanceMeters>NAN</DistanceMeters>
          </Trackpoint>
          <Trackpoint>
            <Time>2020-03-07T16:59:41.000Z</Time>
            <Position>
              <LatitudeDegrees>40.71929004974663257598876953125</LatitudeDegrees>
              <LongitudeDegrees>-3.8834167085587978363037109375</LongitudeDegrees>
            </Position>
            <AltitudeMeters>907.5999755859375</AltitudeMeters>
            <DistanceMeters>NAN</DistanceMeters>
          </Trackpoint>
          <Trackpoint>
            <Time>2020-03-07T16:59:42.000Z</Time>
            <Position>
              <LatitudeDegrees>40.71931955404579639434814453125</LatitudeDegrees>
              <LongitudeDegrees>-3.883359543979167938232421875</LongitudeDegrees>
            </Position>
            <AltitudeMeters>907.5999755859375</AltitudeMeters>
            <DistanceMeters>NAN</DistanceMeters>
          </Trackpoint>
          <Trackpoint>
            <Time>2020-03-07T16:59:43.000Z</Time>
            <Position>
              <LatitudeDegrees>40.71934930980205535888671875</LatitudeDegrees>
              <LongitudeDegrees>-3.88330422341823577880859375</LongitudeDegrees>
            </Position>
            <AltitudeMeters>907.79998779296875</AltitudeMeters>
            <DistanceMeters>NAN</DistanceMeters>
          </Trackpoint>
          <Trackpoint>
            <Time>2020-03-07T16:59:44.000Z</Time>
            <Position>
              <LatitudeDegrees>40.71937747299671173095703125</LatitudeDegrees>
              <LongitudeDegrees>-3.883247561752796173095703125</LongitudeDegrees>
            </Position>
            <AltitudeMeters>907.79998779296875</AltitudeMeters>
            <DistanceMeters>NAN</DistanceMeters>
          </Trackpoint>
          <Trackpoint>
            <Time>2020-03-07T16:59:45.000Z</Time>
            <Position>
              <LatitudeDegrees>40.71940421126782894134521484375</LatitudeDegrees>
              <LongitudeDegrees>-3.883191905915737152099609375</LongitudeDegrees>
            </Position>
            <AltitudeMeters>908</AltitudeMeters>
            <DistanceMeters>NAN</DistanceMeters>
          </Trackpoint>
          <Trackpoint>
            <Time>2020-03-07T16:59:46.000Z</Time>
            <Position>
              <LatitudeDegrees>40.7194316200911998748779296875</LatitudeDegrees>
              <LongitudeDegrees>-3.88313868083059787750244140625</LongitudeDegrees>
            </Position>
            <AltitudeMeters>908</AltitudeMeters>
            <DistanceMeters>NAN</DistanceMeters>
          </Trackpoint>
          <Trackpoint>
            <Time>2020-03-07T16:59:47.000Z</Time>
            <Position>
              <LatitudeDegrees>40.71945802308619022369384765625</LatitudeDegrees>
              <LongitudeDegrees>-3.88308654539287090301513671875</LongitudeDegrees>
            </Position>
            <AltitudeMeters>908.20001220703125</AltitudeMeters>
            <DistanceMeters>NAN</DistanceMeters>
          </Trackpoint>
          <Trackpoint>
            <Time>2020-03-07T16:59:48.000Z</Time>
            <Position>
              <LatitudeDegrees>40.71948333643376827239990234375</LatitudeDegrees>
              <LongitudeDegrees>-3.88303491286933422088623046875</LongitudeDegrees>
            </Position>
            <AltitudeMeters>908.4000244140625</AltitudeMeters>
            <DistanceMeters>NAN</DistanceMeters>
          </Trackpoint>
          <Trackpoint>
            <Time>2020-03-07T16:59:49.000Z</Time>
            <Position>
              <LatitudeDegrees>40.7195083983242511749267578125</LatitudeDegrees>
              <LongitudeDegrees>-3.88298193924129009246826171875</LongitudeDegrees>
            </Position>
            <AltitudeMeters>908.4000244140625</AltitudeMeters>
            <DistanceMeters>NAN</DistanceMeters>
          </Trackpoint>
          <Trackpoint>
            <Time>2020-03-07T16:59:50.000Z</Time>
            <Position>
              <LatitudeDegrees>40.719534046947956085205078125</LatitudeDegrees>
              <LongitudeDegrees>-3.8829280436038970947265625</LongitudeDegrees>
            </Position>
            <AltitudeMeters>908.5999755859375</AltitudeMeters>
            <DistanceMeters>NAN</DistanceMeters>
          </Trackpoint>
          <Trackpoint>
            <Time>2020-03-07T16:59:51.000Z</Time>
            <Position>
              <LatitudeDegrees>40.71956095285713672637939453125</LatitudeDegrees>
              <LongitudeDegrees>-3.88287347741425037384033203125</LongitudeDegrees>
            </Position>
            <AltitudeMeters>908.5999755859375</AltitudeMeters>
            <DistanceMeters>NAN</DistanceMeters>
          </Trackpoint>
          <Trackpoint>
            <Time>2020-03-07T16:59:52.000Z</Time>
            <Position>
              <LatitudeDegrees>40.719588361680507659912109375</LatitudeDegrees>
              <LongitudeDegrees>-3.88281815685331821441650390625</LongitudeDegrees>
            </Position>
            <AltitudeMeters>908.5999755859375</AltitudeMeters>
            <DistanceMeters>NAN</DistanceMeters>
          </Trackpoint>
          <Trackpoint>
            <Time>2020-03-07T16:59:53.000Z</Time>
            <Position>
              <LatitudeDegrees>40.71961610578000545501708984375</LatitudeDegrees>
              <LongitudeDegrees>-3.88276283629238605499267578125</LongitudeDegrees>
            </Position>
            <AltitudeMeters>908.5999755859375</AltitudeMeters>
            <DistanceMeters>NAN</DistanceMeters>
          </Trackpoint>
          <Trackpoint>
            <Time>2020-03-07T16:59:54.000Z</Time>
            <Position>
              <LatitudeDegrees>40.7196428440511226654052734375</LatitudeDegrees>
              <LongitudeDegrees>-3.88270835392177104949951171875</LongitudeDegrees>
            </Position>
            <AltitudeMeters>908.79998779296875</AltitudeMeters>
            <DistanceMeters>NAN</DistanceMeters>
          </Trackpoint>
          <Trackpoint>
            <Time>2020-03-07T16:59:55.000Z</Time>
            <Position>
              <LatitudeDegrees>40.719669498503208160400390625</LatitudeDegrees>
              <LongitudeDegrees>-3.8826536200940608978271484375</LongitudeDegrees>
            </Position>
            <AltitudeMeters>908.79998779296875</AltitudeMeters>
            <DistanceMeters>NAN</DistanceMeters>
          </Trackpoint>
          <Trackpoint>
            <Time>2020-03-07T16:59:56.000Z</Time>
            <Position>
              <LatitudeDegrees>40.71969573386013507843017578125</LatitudeDegrees>
              <LongitudeDegrees>-3.88259938918054103851318359375</LongitudeDegrees>
            </Position>
            <AltitudeMeters>908.79998779296875</AltitudeMeters>
            <DistanceMeters>NAN</DistanceMeters>
          </Trackpoint>
          <Trackpoint>
            <Time>2020-03-07T16:59:57.000Z</Time>
            <Position>
              <LatitudeDegrees>40.7197219692170619964599609375</LatitudeDegrees>
              <LongitudeDegrees>-3.88254649937152862548828125</LongitudeDegrees>
            </Position>
            <AltitudeMeters>909</AltitudeMeters>
            <DistanceMeters>NAN</DistanceMeters>
          </Trackpoint>
          <Trackpoint>
            <Time>2020-03-07T16:59:58.000Z</Time>
            <Position>
              <LatitudeDegrees>40.71974904276430606842041015625</LatitudeDegrees>
              <LongitudeDegrees>-3.88249260373413562774658203125</LongitudeDegrees>
            </Position>
            <AltitudeMeters>909.20001220703125</AltitudeMeters>
            <DistanceMeters>NAN</DistanceMeters>
          </Trackpoint>
          <Trackpoint>
            <Time>2020-03-07T16:59:59.000Z</Time>
            <Position>
              <LatitudeDegrees>40.71977670304477214813232421875</LatitudeDegrees>
              <LongitudeDegrees>-3.882437534630298614501953125</LongitudeDegrees>
            </Position>
            <AltitudeMeters>909.4000244140625</AltitudeMeters>
            <DistanceMeters>NAN</DistanceMeters>
          </Trackpoint>
          <Trackpoint>
            <Time>2020-03-07T17:00:00.000Z</Time>
            <Position>
              <LatitudeDegrees>40.7198034413158893585205078125</LatitudeDegrees>
              <LongitudeDegrees>-3.8823808729648590087890625</LongitudeDegrees>
            </Position>
            <AltitudeMeters>909.5999755859375</AltitudeMeters>
            <DistanceMeters>NAN</DistanceMeters>
          </Trackpoint>
          <Trackpoint>
            <Time>2020-03-07T17:00:01.000Z</Time>
            <Position>
              <LatitudeDegrees>40.71983085013926029205322265625</LatitudeDegrees>
              <LongitudeDegrees>-3.8823240436613559722900390625</LongitudeDegrees>
            </Position>
            <AltitudeMeters>909.5999755859375</AltitudeMeters>
            <DistanceMeters>NAN</DistanceMeters>
          </Trackpoint>
          <Trackpoint>
            <Time>2020-03-07T17:00:02.000Z</Time>
            <Position>
              <LatitudeDegrees>40.71985884569585323333740234375</LatitudeDegrees>
              <LongitudeDegrees>-3.88226645998656749725341796875</LongitudeDegrees>
            </Position>
            <AltitudeMeters>909.79998779296875</AltitudeMeters>
            <DistanceMeters>NAN</DistanceMeters>
          </Trackpoint>
          <Trackpoint>
            <Time>2020-03-07T17:00:03.000Z</Time>
            <Position>
              <LatitudeDegrees>40.71988885290920734405517578125</LatitudeDegrees>
              <LongitudeDegrees>-3.88220812194049358367919921875</LongitudeDegrees>
            </Position>
            <AltitudeMeters>909.79998779296875</AltitudeMeters>
            <DistanceMeters>NAN</DistanceMeters>
          </Trackpoint>
          <Trackpoint>
            <Time>2020-03-07T17:00:04.000Z</Time>
            <Position>
              <LatitudeDegrees>40.71991768665611743927001953125</LatitudeDegrees>
              <LongitudeDegrees>-3.8821500353515148162841796875</LongitudeDegrees>
            </Position>
            <AltitudeMeters>910</AltitudeMeters>
            <DistanceMeters>NAN</DistanceMeters>
          </Trackpoint>
          <Trackpoint>
            <Time>2020-03-07T17:00:05.000Z</Time>
            <Position>
              <LatitudeDegrees>40.7199455983936786651611328125</LatitudeDegrees>
              <LongitudeDegrees>-3.882091529667377471923828125</LongitudeDegrees>
            </Position>
            <AltitudeMeters>910</AltitudeMeters>
            <DistanceMeters>NAN</DistanceMeters>
          </Trackpoint>
          <Trackpoint>
            <Time>2020-03-07T17:00:06.000Z</Time>
            <Position>
              <LatitudeDegrees>40.71997468359768390655517578125</LatitudeDegrees>
              <LongitudeDegrees>-3.88203226961195468902587890625</LongitudeDegrees>
            </Position>
            <AltitudeMeters>910.20001220703125</AltitudeMeters>
            <DistanceMeters>NAN</DistanceMeters>
          </Trackpoint>
          <Trackpoint>
            <Time>2020-03-07T17:00:07.000Z</Time>
            <Position>
              <LatitudeDegrees>40.7200039364397525787353515625</LatitudeDegrees>
              <LongitudeDegrees>-3.88197242282330989837646484375</LongitudeDegrees>
            </Position>
            <AltitudeMeters>910.20001220703125</AltitudeMeters>
            <DistanceMeters>NAN</DistanceMeters>
          </Trackpoint>
          <Trackpoint>
            <Time>2020-03-07T17:00:08.000Z</Time>
            <Position>
              <LatitudeDegrees>40.7200331054627895355224609375</LatitudeDegrees>
              <LongitudeDegrees>-3.8819136656820774078369140625</LongitudeDegrees>
            </Position>
            <AltitudeMeters>910.20001220703125</AltitudeMeters>
            <DistanceMeters>NAN</DistanceMeters>
          </Trackpoint>
          <Trackpoint>
            <Time>2020-03-07T17:00:09.000Z</Time>
            <Position>
              <LatitudeDegrees>40.72006143629550933837890625</LatitudeDegrees>
              <LongitudeDegrees>-3.881856836378574371337890625</LongitudeDegrees>
            </Position>
            <AltitudeMeters>910.20001220703125</AltitudeMeters>
            <DistanceMeters>NAN</DistanceMeters>
          </Trackpoint>
          <Trackpoint>
            <Time>2020-03-07T17:00:10.000Z</Time>
            <Position>
              <LatitudeDegrees>40.720089934766292572021484375</LatitudeDegrees>
              <LongitudeDegrees>-3.88179816305637359619140625</LongitudeDegrees>
            </Position>
            <AltitudeMeters>910.4000244140625</AltitudeMeters>
            <DistanceMeters>NAN</DistanceMeters>
          </Trackpoint>
          <Trackpoint>
            <Time>2020-03-07T17:00:11.000Z</Time>
            <Position>
              <LatitudeDegrees>40.72011717595160007476806640625</LatitudeDegrees>
              <LongitudeDegrees>-3.8817383162677288055419921875</LongitudeDegrees>
            </Position>
            <AltitudeMeters>910.4000244140625</AltitudeMeters>
            <DistanceMeters>NAN</DistanceMeters>
          </Trackpoint>
          <Trackpoint>
            <Time>2020-03-07T17:00:12.000Z</Time>
            <Position>
              <LatitudeDegrees>40.72014533914625644683837890625</LatitudeDegrees>
              <LongitudeDegrees>-3.88167721219360828399658203125</LongitudeDegrees>
            </Position>
            <AltitudeMeters>910.4000244140625</AltitudeMeters>
            <DistanceMeters>NAN</DistanceMeters>
          </Trackpoint>
          <Trackpoint>
            <Time>2020-03-07T17:00:13.000Z</Time>
            <Position>
              <LatitudeDegrees>40.72017266415059566497802734375</LatitudeDegrees>
              <LongitudeDegrees>-3.88161820359528064727783203125</LongitudeDegrees>
            </Position>
            <AltitudeMeters>910.4000244140625</AltitudeMeters>
            <DistanceMeters>NAN</DistanceMeters>
          </Trackpoint>
          <Trackpoint>
            <Time>2020-03-07T17:00:14.000Z</Time>
            <Position>
              <LatitudeDegrees>40.72019982151687145233154296875</LatitudeDegrees>
              <LongitudeDegrees>-3.8815602846443653106689453125</LongitudeDegrees>
            </Position>
            <AltitudeMeters>910.4000244140625</AltitudeMeters>
            <DistanceMeters>NAN</DistanceMeters>
          </Trackpoint>
          <Trackpoint>
            <Time>2020-03-07T17:00:15.000Z</Time>
            <Position>
              <LatitudeDegrees>40.72022865526378154754638671875</LatitudeDegrees>
              <LongitudeDegrees>-3.88149775564670562744140625</LongitudeDegrees>
            </Position>
            <AltitudeMeters>910.5999755859375</AltitudeMeters>
            <DistanceMeters>NAN</DistanceMeters>
          </Trackpoint>
          <Trackpoint>
            <Time>2020-03-07T17:00:16.000Z</Time>
            <Position>
              <LatitudeDegrees>40.72025782428681850433349609375</LatitudeDegrees>
              <LongitudeDegrees>-3.88143463991582393646240234375</LongitudeDegrees>
            </Position>
            <AltitudeMeters>910.5999755859375</AltitudeMeters>
            <DistanceMeters>NAN</DistanceMeters>
          </Trackpoint>
          <Trackpoint>
            <Time>2020-03-07T17:00:17.000Z</Time>
            <Position>
              <LatitudeDegrees>40.72028833441436290740966796875</LatitudeDegrees>
              <LongitudeDegrees>-3.8813723623752593994140625</LongitudeDegrees>
            </Position>
            <AltitudeMeters>910.5999755859375</AltitudeMeters>
            <DistanceMeters>NAN</DistanceMeters>
          </Trackpoint>
          <Trackpoint>
            <Time>2020-03-07T17:00:18.000Z</Time>
            <Position>
              <LatitudeDegrees>40.7203197665512561798095703125</LatitudeDegrees>
              <LongitudeDegrees>-3.881309665739536285400390625</LongitudeDegrees>
            </Position>
            <AltitudeMeters>910.79998779296875</AltitudeMeters>
            <DistanceMeters>NAN</DistanceMeters>
          </Trackpoint>
          <Trackpoint>
            <Time>2020-03-07T17:00:19.000Z</Time>
            <Position>
              <LatitudeDegrees>40.72034767828881740570068359375</LatitudeDegrees>
              <LongitudeDegrees>-3.88124889694154262542724609375</LongitudeDegrees>
            </Position>
            <AltitudeMeters>911.4000244140625</AltitudeMeters>
            <DistanceMeters>NAN</DistanceMeters>
          </Trackpoint>
          <Trackpoint>
            <Time>2020-03-07T17:00:20.000Z</Time>
            <Position>
              <LatitudeDegrees>40.720374919474124908447265625</LatitudeDegrees>
              <LongitudeDegrees>-3.88118972070515155792236328125</LongitudeDegrees>
            </Position>
            <AltitudeMeters>911.79998779296875</AltitudeMeters>
            <DistanceMeters>NAN</DistanceMeters>
          </Trackpoint>
          <Trackpoint>
            <Time>2020-03-07T17:00:21.000Z</Time>
            <Position>
              <LatitudeDegrees>40.720401741564273834228515625</LatitudeDegrees>
              <LongitudeDegrees>-3.88113071210682392120361328125</LongitudeDegrees>
            </Position>
            <AltitudeMeters>911.79998779296875</AltitudeMeters>
            <DistanceMeters>NAN</DistanceMeters>
          </Trackpoint>
          <Trackpoint>
            <Time>2020-03-07T17:00:22.000Z</Time>
            <Position>
              <LatitudeDegrees>40.720429234206676483154296875</LatitudeDegrees>
              <LongitudeDegrees>-3.881073631346225738525390625</LongitudeDegrees>
            </Position>
            <AltitudeMeters>912</AltitudeMeters>
            <DistanceMeters>NAN</DistanceMeters>
          </Trackpoint>
          <Trackpoint>
            <Time>2020-03-07T17:00:23.000Z</Time>
            <Position>
              <LatitudeDegrees>40.72046234272420406341552734375</LatitudeDegrees>
              <LongitudeDegrees>-3.88101386837661266326904296875</LongitudeDegrees>
            </Position>
            <AltitudeMeters>912</AltitudeMeters>
            <DistanceMeters>NAN</DistanceMeters>
          </Trackpoint>
          <Trackpoint>
            <Time>2020-03-07T17:00:24.000Z</Time>
            <Position>
              <LatitudeDegrees>40.72049796581268310546875</LatitudeDegrees>
              <LongitudeDegrees>-3.880948908627033233642578125</LongitudeDegrees>
            </Position>
            <AltitudeMeters>912</AltitudeMeters>
            <DistanceMeters>NAN</DistanceMeters>
          </Trackpoint>
          <Trackpoint>
            <Time>2020-03-07T17:00:25.000Z</Time>
            <Position>
              <LatitudeDegrees>40.72053241543471813201904296875</LatitudeDegrees>
              <LongitudeDegrees>-3.88088411651551723480224609375</LongitudeDegrees>
            </Position>
            <AltitudeMeters>912</AltitudeMeters>
            <DistanceMeters>NAN</DistanceMeters>
          </Trackpoint>
          <Trackpoint>
            <Time>2020-03-07T17:00:26.000Z</Time>
            <Position>
              <LatitudeDegrees>40.720567367970943450927734375</LatitudeDegrees>
              <LongitudeDegrees>-3.88081848621368408203125</LongitudeDegrees>
            </Position>
            <AltitudeMeters>912</AltitudeMeters>
            <DistanceMeters>NAN</DistanceMeters>
          </Trackpoint>
          <Trackpoint>
            <Time>2020-03-07T17:00:27.000Z</Time>
            <Position>
              <LatitudeDegrees>40.72060014121234416961669921875</LatitudeDegrees>
              <LongitudeDegrees>-3.88075411319732666015625</LongitudeDegrees>
            </Position>
            <AltitudeMeters>912</AltitudeMeters>
            <DistanceMeters>NAN</DistanceMeters>
          </Trackpoint>
          <Trackpoint>
            <Time>2020-03-07T17:00:28.000Z</Time>
            <Position>
              <LatitudeDegrees>40.7206349261105060577392578125</LatitudeDegrees>
              <LongitudeDegrees>-3.88068596832454204559326171875</LongitudeDegrees>
            </Position>
            <AltitudeMeters>912</AltitudeMeters>
            <DistanceMeters>NAN</DistanceMeters>
          </Trackpoint>
          <Trackpoint>
            <Time>2020-03-07T17:00:29.000Z</Time>
            <Position>
              <LatitudeDegrees>40.72066954337060451507568359375</LatitudeDegrees>
              <LongitudeDegrees>-3.88061790727078914642333984375</LongitudeDegrees>
            </Position>
            <AltitudeMeters>912</AltitudeMeters>
            <DistanceMeters>NAN</DistanceMeters>
          </Trackpoint>
          <Trackpoint>
            <Time>2020-03-07T17:00:30.000Z</Time>
            <Position>
              <LatitudeDegrees>40.72070742957293987274169921875</LatitudeDegrees>
              <LongitudeDegrees>-3.88054917566478252410888671875</LongitudeDegrees>
            </Position>
            <AltitudeMeters>912.20001220703125</AltitudeMeters>
            <DistanceMeters>NAN</DistanceMeters>
          </Trackpoint>
          <Trackpoint>
            <Time>2020-03-07T17:00:31.000Z</Time>
            <Position>
              <LatitudeDegrees>40.720747075974941253662109375</LatitudeDegrees>
              <LongitudeDegrees>-3.88048094697296619415283203125</LongitudeDegrees>
            </Position>
            <AltitudeMeters>911.79998779296875</AltitudeMeters>
            <DistanceMeters>NAN</DistanceMeters>
          </Trackpoint>
          <Trackpoint>
            <Time>2020-03-07T17:00:32.000Z</Time>
            <Position>
              <LatitudeDegrees>40.7207863032817840576171875</LatitudeDegrees>
              <LongitudeDegrees>-3.88041590340435504913330078125</LongitudeDegrees>
            </Position>
            <AltitudeMeters>911.4000244140625</AltitudeMeters>
            <DistanceMeters>NAN</DistanceMeters>
          </Trackpoint>
          <Trackpoint>
            <Time>2020-03-07T17:00:33.000Z</Time>
            <Position>
              <LatitudeDegrees>40.7208246923983097076416015625</LatitudeDegrees>
              <LongitudeDegrees>-3.88035119511187076568603515625</LongitudeDegrees>
            </Position>
            <AltitudeMeters>911.20001220703125</AltitudeMeters>
            <DistanceMeters>NAN</DistanceMeters>
          </Trackpoint>
          <Trackpoint>
            <Time>2020-03-07T17:00:34.000Z</Time>
            <Position>
              <LatitudeDegrees>40.72086132131516933441162109375</LatitudeDegrees>
              <LongitudeDegrees>-3.88028766028583049774169921875</LongitudeDegrees>
            </Position>
            <AltitudeMeters>910.79998779296875</AltitudeMeters>
            <DistanceMeters>NAN</DistanceMeters>
          </Trackpoint>
          <Trackpoint>
            <Time>2020-03-07T17:00:35.000Z</Time>
            <Position>
              <LatitudeDegrees>40.7208974473178386688232421875</LatitudeDegrees>
              <LongitudeDegrees>-3.880224712193012237548828125</LongitudeDegrees>
            </Position>
            <AltitudeMeters>910.5999755859375</AltitudeMeters>
            <DistanceMeters>NAN</DistanceMeters>
          </Trackpoint>
          <Trackpoint>
            <Time>2020-03-07T17:00:36.000Z</Time>
            <Position>
              <LatitudeDegrees>40.72093407623469829559326171875</LatitudeDegrees>
              <LongitudeDegrees>-3.88015874661505222320556640625</LongitudeDegrees>
            </Position>
            <AltitudeMeters>910.4000244140625</AltitudeMeters>
            <DistanceMeters>NAN</DistanceMeters>
          </Trackpoint>
          <Trackpoint>
            <Time>2020-03-07T17:00:37.000Z</Time>
            <Position>
              <LatitudeDegrees>40.72097380645573139190673828125</LatitudeDegrees>
              <LongitudeDegrees>-3.880091607570648193359375</LongitudeDegrees>
            </Position>
            <AltitudeMeters>910.20001220703125</AltitudeMeters>
            <DistanceMeters>NAN</DistanceMeters>
          </Trackpoint>
          <Trackpoint>
            <Time>2020-03-07T17:00:38.000Z</Time>
            <Position>
              <LatitudeDegrees>40.72101454250514507293701171875</LatitudeDegrees>
              <LongitudeDegrees>-3.88002648018300533294677734375</LongitudeDegrees>
            </Position>
            <AltitudeMeters>910</AltitudeMeters>
            <DistanceMeters>NAN</DistanceMeters>
          </Trackpoint>
          <Trackpoint>
            <Time>2020-03-07T17:00:39.000Z</Time>
            <Position>
              <LatitudeDegrees>40.72105729021131992340087890625</LatitudeDegrees>
              <LongitudeDegrees>-3.87996227480471134185791015625</LongitudeDegrees>
            </Position>
            <AltitudeMeters>910</AltitudeMeters>
            <DistanceMeters>NAN</DistanceMeters>
          </Trackpoint>
          <Trackpoint>
            <Time>2020-03-07T17:00:40.000Z</Time>
            <Position>
              <LatitudeDegrees>40.7211001217365264892578125</LatitudeDegrees>
              <LongitudeDegrees>-3.87990008108317852020263671875</LongitudeDegrees>
            </Position>
            <AltitudeMeters>909.79998779296875</AltitudeMeters>
            <DistanceMeters>NAN</DistanceMeters>
          </Trackpoint>
          <Trackpoint>
            <Time>2020-03-07T17:00:41.000Z</Time>
            <Position>
              <LatitudeDegrees>40.7211445458233356475830078125</LatitudeDegrees>
              <LongitudeDegrees>-3.87983839027583599090576171875</LongitudeDegrees>
            </Position>
            <AltitudeMeters>909.79998779296875</AltitudeMeters>
            <DistanceMeters>NAN</DistanceMeters>
          </Trackpoint>
          <Trackpoint>
            <Time>2020-03-07T17:00:42.000Z</Time>
            <Position>
              <LatitudeDegrees>40.72119106538593769073486328125</LatitudeDegrees>
              <LongitudeDegrees>-3.8797772862017154693603515625</LongitudeDegrees>
            </Position>
            <AltitudeMeters>909.5999755859375</AltitudeMeters>
            <DistanceMeters>NAN</DistanceMeters>
          </Trackpoint>
          <Trackpoint>
            <Time>2020-03-07T17:00:43.000Z</Time>
            <Position>
              <LatitudeDegrees>40.721238590776920318603515625</LatitudeDegrees>
              <LongitudeDegrees>-3.8797186128795146942138671875</LongitudeDegrees>
            </Position>
            <AltitudeMeters>909.5999755859375</AltitudeMeters>
            <DistanceMeters>NAN</DistanceMeters>
          </Trackpoint>
          <Trackpoint>
            <Time>2020-03-07T17:00:44.000Z</Time>
            <Position>
              <LatitudeDegrees>40.72128863073885440826416015625</LatitudeDegrees>
              <LongitudeDegrees>-3.87966019101440906524658203125</LongitudeDegrees>
            </Position>
            <AltitudeMeters>909.4000244140625</AltitudeMeters>
            <DistanceMeters>NAN</DistanceMeters>
          </Trackpoint>
          <Trackpoint>
            <Time>2020-03-07T17:00:45.000Z</Time>
            <Position>
              <LatitudeDegrees>40.72133548557758331298828125</LatitudeDegrees>
              <LongitudeDegrees>-3.8796059601008892059326171875</LongitudeDegrees>
            </Position>
            <AltitudeMeters>909.4000244140625</AltitudeMeters>
            <DistanceMeters>NAN</DistanceMeters>
          </Trackpoint>
          <Trackpoint>
            <Time>2020-03-07T17:00:46.000Z</Time>
            <Position>
              <LatitudeDegrees>40.72138736955821514129638671875</LatitudeDegrees>
              <LongitudeDegrees>-3.879552148282527923583984375</LongitudeDegrees>
            </Position>
            <AltitudeMeters>909.20001220703125</AltitudeMeters>
            <DistanceMeters>NAN</DistanceMeters>
          </Trackpoint>
          <Trackpoint>
            <Time>2020-03-07T17:00:47.000Z</Time>
            <Position>
              <LatitudeDegrees>40.721440427005290985107421875</LatitudeDegrees>
              <LongitudeDegrees>-3.87949909083545207977294921875</LongitudeDegrees>
            </Position>
            <AltitudeMeters>909</AltitudeMeters>
            <DistanceMeters>NAN</DistanceMeters>
          </Trackpoint>
          <Trackpoint>
            <Time>2020-03-07T17:00:48.000Z</Time>
            <Position>
              <LatitudeDegrees>40.72149465791881084442138671875</LatitudeDegrees>
              <LongitudeDegrees>-3.87944527901709079742431640625</LongitudeDegrees>
            </Position>
            <AltitudeMeters>908.79998779296875</AltitudeMeters>
            <DistanceMeters>NAN</DistanceMeters>
          </Trackpoint>
          <Trackpoint>
            <Time>2020-03-07T17:00:49.000Z</Time>
            <Position>
              <LatitudeDegrees>40.72154629044234752655029296875</LatitudeDegrees>
              <LongitudeDegrees>-3.8793940655887126922607421875</LongitudeDegrees>
            </Position>
            <AltitudeMeters>908.5999755859375</AltitudeMeters>
            <DistanceMeters>NAN</DistanceMeters>
          </Trackpoint>
          <Trackpoint>
            <Time>2020-03-07T17:00:50.000Z</Time>
            <Position>
              <LatitudeDegrees>40.72160060517489910125732421875</LatitudeDegrees>
              <LongitudeDegrees>-3.87934301979839801788330078125</LongitudeDegrees>
            </Position>
            <AltitudeMeters>908.4000244140625</AltitudeMeters>
            <DistanceMeters>NAN</DistanceMeters>
          </Trackpoint>
          <Trackpoint>
            <Time>2020-03-07T17:00:51.000Z</Time>
            <Position>
              <LatitudeDegrees>40.7216545008122920989990234375</LatitudeDegrees>
              <LongitudeDegrees>-3.8792914710938930511474609375</LongitudeDegrees>
            </Position>
            <AltitudeMeters>908.4000244140625</AltitudeMeters>
            <DistanceMeters>NAN</DistanceMeters>
          </Trackpoint>
          <Trackpoint>
            <Time>2020-03-07T17:00:52.000Z</Time>
            <Position>
              <LatitudeDegrees>40.72171074338257312774658203125</LatitudeDegrees>
              <LongitudeDegrees>-3.879241682589054107666015625</LongitudeDegrees>
            </Position>
            <AltitudeMeters>908.20001220703125</AltitudeMeters>
            <DistanceMeters>NAN</DistanceMeters>
          </Trackpoint>
          <Trackpoint>
            <Time>2020-03-07T17:00:53.000Z</Time>
            <Position>
              <LatitudeDegrees>40.72176790796220302581787109375</LatitudeDegrees>
              <LongitudeDegrees>-3.87919331900775432586669921875</LongitudeDegrees>
            </Position>
            <AltitudeMeters>908</AltitudeMeters>
            <DistanceMeters>NAN</DistanceMeters>
          </Trackpoint>
          <Trackpoint>
            <Time>2020-03-07T17:00:54.000Z</Time>
            <Position>
              <LatitudeDegrees>40.72182792238891124725341796875</LatitudeDegrees>
              <LongitudeDegrees>-3.8791459612548351287841796875</LongitudeDegrees>
            </Position>
            <AltitudeMeters>908</AltitudeMeters>
            <DistanceMeters>NAN</DistanceMeters>
          </Trackpoint>
          <Trackpoint>
            <Time>2020-03-07T17:00:55.000Z</Time>
            <Position>
              <LatitudeDegrees>40.7218875177204608917236328125</LatitudeDegrees>
              <LongitudeDegrees>-3.87909927405416965484619140625</LongitudeDegrees>
            </Position>
            <AltitudeMeters>907.79998779296875</AltitudeMeters>
            <DistanceMeters>NAN</DistanceMeters>
          </Trackpoint>
          <Trackpoint>
            <Time>2020-03-07T17:00:56.000Z</Time>
            <Position>
              <LatitudeDegrees>40.72194795124232769012451171875</LatitudeDegrees>
              <LongitudeDegrees>-3.87905350886285305023193359375</LongitudeDegrees>
            </Position>
            <AltitudeMeters>907.79998779296875</AltitudeMeters>
            <DistanceMeters>NAN</DistanceMeters>
          </Trackpoint>
          <Trackpoint>
            <Time>2020-03-07T17:00:57.000Z</Time>
            <Position>
              <LatitudeDegrees>40.72200880385935306549072265625</LatitudeDegrees>
              <LongitudeDegrees>-3.87900657020509243011474609375</LongitudeDegrees>
            </Position>
            <AltitudeMeters>907.5999755859375</AltitudeMeters>
            <DistanceMeters>NAN</DistanceMeters>
          </Trackpoint>
          <Trackpoint>
            <Time>2020-03-07T17:00:58.000Z</Time>
            <Position>
              <LatitudeDegrees>40.722070746123790740966796875</LatitudeDegrees>
              <LongitudeDegrees>-3.8789588771760463714599609375</LongitudeDegrees>
            </Position>
            <AltitudeMeters>907.4000244140625</AltitudeMeters>
            <DistanceMeters>NAN</DistanceMeters>
          </Trackpoint>
          <Trackpoint>
            <Time>2020-03-07T17:00:59.000Z</Time>
            <Position>
              <LatitudeDegrees>40.7221299223601818084716796875</LatitudeDegrees>
              <LongitudeDegrees>-3.87891017831861972808837890625</LongitudeDegrees>
            </Position>
            <AltitudeMeters>907</AltitudeMeters>
            <DistanceMeters>NAN</DistanceMeters>
          </Trackpoint>
          <Trackpoint>
            <Time>2020-03-07T17:01:00.000Z</Time>
            <Position>
              <LatitudeDegrees>40.7221906073391437530517578125</LatitudeDegrees>
              <LongitudeDegrees>-3.8788609765470027923583984375</LongitudeDegrees>
            </Position>
            <AltitudeMeters>906.79998779296875</AltitudeMeters>
            <DistanceMeters>NAN</DistanceMeters>
          </Trackpoint>
          <Trackpoint>
            <Time>2020-03-07T17:01:01.000Z</Time>
            <Position>
              <LatitudeDegrees>40.72225070558488368988037109375</LatitudeDegrees>
              <LongitudeDegrees>-3.878813870251178741455078125</LongitudeDegrees>
            </Position>
            <AltitudeMeters>906.5999755859375</AltitudeMeters>
            <DistanceMeters>NAN</DistanceMeters>
          </Trackpoint>
          <Trackpoint>
            <Time>2020-03-07T17:01:02.000Z</Time>
            <Position>
              <LatitudeDegrees>40.72230887599289417266845703125</LatitudeDegrees>
              <LongitudeDegrees>-3.8787670992314815521240234375</LongitudeDegrees>
            </Position>
            <AltitudeMeters>906.5999755859375</AltitudeMeters>
            <DistanceMeters>NAN</DistanceMeters>
          </Trackpoint>
          <Trackpoint>
            <Time>2020-03-07T17:01:03.000Z</Time>
            <Position>
              <LatitudeDegrees>40.7223659567534923553466796875</LatitudeDegrees>
              <LongitudeDegrees>-3.8787191547453403472900390625</LongitudeDegrees>
            </Position>
            <AltitudeMeters>906.4000244140625</AltitudeMeters>
            <DistanceMeters>NAN</DistanceMeters>
          </Trackpoint>
          <Trackpoint>
            <Time>2020-03-07T17:01:04.000Z</Time>
            <Position>
              <LatitudeDegrees>40.72242119349539279937744140625</LatitudeDegrees>
              <LongitudeDegrees>-3.8786713778972625732421875</LongitudeDegrees>
            </Position>
            <AltitudeMeters>906.4000244140625</AltitudeMeters>
            <DistanceMeters>NAN</DistanceMeters>
          </Trackpoint>
          <Trackpoint>
            <Time>2020-03-07T17:01:05.000Z</Time>
            <Position>
              <LatitudeDegrees>40.72247550822794437408447265625</LatitudeDegrees>
              <LongitudeDegrees>-3.878624103963375091552734375</LongitudeDegrees>
            </Position>
            <AltitudeMeters>906.20001220703125</AltitudeMeters>
            <DistanceMeters>NAN</DistanceMeters>
          </Trackpoint>
          <Trackpoint>
            <Time>2020-03-07T17:01:06.000Z</Time>
            <Position>
              <LatitudeDegrees>40.72252898477017879486083984375</LatitudeDegrees>
              <LongitudeDegrees>-3.87857683002948760986328125</LongitudeDegrees>
            </Position>
            <AltitudeMeters>906</AltitudeMeters>
            <DistanceMeters>NAN</DistanceMeters>
          </Trackpoint>
          <Trackpoint>
            <Time>2020-03-07T17:01:07.000Z</Time>
            <Position>
              <LatitudeDegrees>40.72258195839822292327880859375</LatitudeDegrees>
              <LongitudeDegrees>-3.87852989137172698974609375</LongitudeDegrees>
            </Position>
            <AltitudeMeters>906</AltitudeMeters>
            <DistanceMeters>NAN</DistanceMeters>
          </Trackpoint>
          <Trackpoint>
            <Time>2020-03-07T17:01:08.000Z</Time>
            <Position>
              <LatitudeDegrees>40.7226338423788547515869140625</LatitudeDegrees>
              <LongitudeDegrees>-3.8784849643707275390625</LongitudeDegrees>
            </Position>
            <AltitudeMeters>906</AltitudeMeters>
            <DistanceMeters>NAN</DistanceMeters>
          </Trackpoint>
          <Trackpoint>
            <Time>2020-03-07T17:01:09.000Z</Time>
            <Position>
              <LatitudeDegrees>40.7226854749023914337158203125</LatitudeDegrees>
              <LongitudeDegrees>-3.8784391991794109344482421875</LongitudeDegrees>
            </Position>
            <AltitudeMeters>906</AltitudeMeters>
            <DistanceMeters>NAN</DistanceMeters>
          </Trackpoint>
          <Trackpoint>
            <Time>2020-03-07T17:01:10.000Z</Time>
            <Position>
              <LatitudeDegrees>40.72273886762559413909912109375</LatitudeDegrees>
              <LongitudeDegrees>-3.87839251197874546051025390625</LongitudeDegrees>
            </Position>
            <AltitudeMeters>905.79998779296875</AltitudeMeters>
            <DistanceMeters>NAN</DistanceMeters>
          </Trackpoint>
          <Trackpoint>
            <Time>2020-03-07T17:01:11.000Z</Time>
            <Position>
              <LatitudeDegrees>40.72279284708201885223388671875</LatitudeDegrees>
              <LongitudeDegrees>-3.87834892608225345611572265625</LongitudeDegrees>
            </Position>
            <AltitudeMeters>905.79998779296875</AltitudeMeters>
            <DistanceMeters>NAN</DistanceMeters>
          </Trackpoint>
          <Trackpoint>
            <Time>2020-03-07T17:01:12.000Z</Time>
            <Position>
              <LatitudeDegrees>40.72284833528101444244384765625</LatitudeDegrees>
              <LongitudeDegrees>-3.878304921090602874755859375</LongitudeDegrees>
            </Position>
            <AltitudeMeters>905.79998779296875</AltitudeMeters>
            <DistanceMeters>NAN</DistanceMeters>
          </Trackpoint>
          <Trackpoint>
            <Time>2020-03-07T17:01:13.000Z</Time>
            <Position>
              <LatitudeDegrees>40.72290197946131229400634765625</LatitudeDegrees>
              <LongitudeDegrees>-3.8782583177089691162109375</LongitudeDegrees>
            </Position>
            <AltitudeMeters>905.79998779296875</AltitudeMeters>
            <DistanceMeters>NAN</DistanceMeters>
          </Trackpoint>
          <Trackpoint>
            <Time>2020-03-07T17:01:14.000Z</Time>
            <Position>
              <LatitudeDegrees>40.7229550369083881378173828125</LatitudeDegrees>
              <LongitudeDegrees>-3.878211714327335357666015625</LongitudeDegrees>
            </Position>
            <AltitudeMeters>905.79998779296875</AltitudeMeters>
            <DistanceMeters>NAN</DistanceMeters>
          </Trackpoint>
          <Trackpoint>
            <Time>2020-03-07T17:01:15.000Z</Time>
            <Position>
              <LatitudeDegrees>40.7230070047080516815185546875</LatitudeDegrees>
              <LongitudeDegrees>-3.87816502712666988372802734375</LongitudeDegrees>
            </Position>
            <AltitudeMeters>905.79998779296875</AltitudeMeters>
            <DistanceMeters>NAN</DistanceMeters>
          </Trackpoint>
          <Trackpoint>
            <Time>2020-03-07T17:01:16.000Z</Time>
            <Position>
              <LatitudeDegrees>40.7230593077838420867919921875</LatitudeDegrees>
              <LongitudeDegrees>-3.8781173340976238250732421875</LongitudeDegrees>
            </Position>
            <AltitudeMeters>905.79998779296875</AltitudeMeters>
            <DistanceMeters>NAN</DistanceMeters>
          </Trackpoint>
          <Trackpoint>
            <Time>2020-03-07T17:01:17.000Z</Time>
            <Position>
              <LatitudeDegrees>40.72311337105929851531982421875</LatitudeDegrees>
              <LongitudeDegrees>-3.8780687190592288970947265625</LongitudeDegrees>
            </Position>
            <AltitudeMeters>905.79998779296875</AltitudeMeters>
            <DistanceMeters>NAN</DistanceMeters>
          </Trackpoint>
          <Trackpoint>
            <Time>2020-03-07T17:01:18.000Z</Time>
            <Position>
              <LatitudeDegrees>40.72316600941121578216552734375</LatitudeDegrees>
              <LongitudeDegrees>-3.87801934964954853057861328125</LongitudeDegrees>
            </Position>
            <AltitudeMeters>905.79998779296875</AltitudeMeters>
            <DistanceMeters>NAN</DistanceMeters>
          </Trackpoint>
          <Trackpoint>
            <Time>2020-03-07T17:01:19.000Z</Time>
            <Position>
              <LatitudeDegrees>40.7232178933918476104736328125</LatitudeDegrees>
              <LongitudeDegrees>-3.8779678009450435638427734375</LongitudeDegrees>
            </Position>
            <AltitudeMeters>905.79998779296875</AltitudeMeters>
            <DistanceMeters>NAN</DistanceMeters>
          </Trackpoint>
          <Trackpoint>
            <Time>2020-03-07T17:01:20.000Z</Time>
            <Position>
              <LatitudeDegrees>40.7232705317437648773193359375</LatitudeDegrees>
              <LongitudeDegrees>-3.877913653850555419921875</LongitudeDegrees>
            </Position>
            <AltitudeMeters>905.79998779296875</AltitudeMeters>
            <DistanceMeters>NAN</DistanceMeters>
          </Trackpoint>
          <Trackpoint>
            <Time>2020-03-07T17:01:21.000Z</Time>
            <Position>
              <LatitudeDegrees>40.7233245112001895904541015625</LatitudeDegrees>
              <LongitudeDegrees>-3.87785741128027439117431640625</LongitudeDegrees>
            </Position>
            <AltitudeMeters>905.79998779296875</AltitudeMeters>
            <DistanceMeters>NAN</DistanceMeters>
          </Trackpoint>
          <Trackpoint>
            <Time>2020-03-07T17:01:22.000Z</Time>
            <Position>
              <LatitudeDegrees>40.7233758084475994110107421875</LatitudeDegrees>
              <LongitudeDegrees>-3.87780091725289821624755859375</LongitudeDegrees>
            </Position>
            <AltitudeMeters>905.79998779296875</AltitudeMeters>
            <DistanceMeters>NAN</DistanceMeters>
          </Trackpoint>
          <Trackpoint>
            <Time>2020-03-07T17:01:23.000Z</Time>
            <Position>
              <LatitudeDegrees>40.72342584840953350067138671875</LatitudeDegrees>
              <LongitudeDegrees>-3.877740316092967987060546875</LongitudeDegrees>
            </Position>
            <AltitudeMeters>905.79998779296875</AltitudeMeters>
            <DistanceMeters>NAN</DistanceMeters>
          </Trackpoint>
          <Trackpoint>
            <Time>2020-03-07T17:01:24.000Z</Time>
            <Position>
              <LatitudeDegrees>40.72347454726696014404296875</LatitudeDegrees>
              <LongitudeDegrees>-3.8776781223714351654052734375</LongitudeDegrees>
            </Position>
            <AltitudeMeters>905.79998779296875</AltitudeMeters>
            <DistanceMeters>NAN</DistanceMeters>
          </Trackpoint>
          <Trackpoint>
            <Time>2020-03-07T17:01:25.000Z</Time>
            <Position>
              <LatitudeDegrees>40.723518468439579010009765625</LatitudeDegrees>
              <LongitudeDegrees>-3.8776160962879657745361328125</LongitudeDegrees>
            </Position>
            <AltitudeMeters>905.79998779296875</AltitudeMeters>
            <DistanceMeters>NAN</DistanceMeters>
          </Trackpoint>
          <Trackpoint>
            <Time>2020-03-07T17:01:26.000Z</Time>
            <Position>
              <LatitudeDegrees>40.72356280870735645294189453125</LatitudeDegrees>
              <LongitudeDegrees>-3.87755222618579864501953125</LongitudeDegrees>
            </Position>
            <AltitudeMeters>905.79998779296875</AltitudeMeters>
            <DistanceMeters>NAN</DistanceMeters>
          </Trackpoint>
          <Trackpoint>
            <Time>2020-03-07T17:01:27.000Z</Time>
            <Position>
              <LatitudeDegrees>40.72360438294708728790283203125</LatitudeDegrees>
              <LongitudeDegrees>-3.8774890266358852386474609375</LongitudeDegrees>
            </Position>
            <AltitudeMeters>905.79998779296875</AltitudeMeters>
            <DistanceMeters>NAN</DistanceMeters>
          </Trackpoint>
          <Trackpoint>
            <Time>2020-03-07T17:01:28.000Z</Time>
            <Position>
              <LatitudeDegrees>40.72364193387329578399658203125</LatitudeDegrees>
              <LongitudeDegrees>-3.877424485981464385986328125</LongitudeDegrees>
            </Position>
            <AltitudeMeters>905.79998779296875</AltitudeMeters>
            <DistanceMeters>NAN</DistanceMeters>
          </Trackpoint>
          <Trackpoint>
            <Time>2020-03-07T17:01:29.000Z</Time>
            <Position>
              <LatitudeDegrees>40.7236762158572673797607421875</LatitudeDegrees>
              <LongitudeDegrees>-3.8773575983941555023193359375</LongitudeDegrees>
            </Position>
            <AltitudeMeters>905.79998779296875</AltitudeMeters>
            <DistanceMeters>NAN</DistanceMeters>
          </Trackpoint>
          <Trackpoint>
            <Time>2020-03-07T17:01:30.000Z</Time>
            <Position>
              <LatitudeDegrees>40.723708905279636383056640625</LatitudeDegrees>
              <LongitudeDegrees>-3.87729062698781490325927734375</LongitudeDegrees>
            </Position>
            <AltitudeMeters>905.79998779296875</AltitudeMeters>
            <DistanceMeters>NAN</DistanceMeters>
          </Trackpoint>
          <Trackpoint>
            <Time>2020-03-07T17:01:31.000Z</Time>
            <Position>
              <LatitudeDegrees>40.723739750683307647705078125</LatitudeDegrees>
              <LongitudeDegrees>-3.87722206301987171173095703125</LongitudeDegrees>
            </Position>
            <AltitudeMeters>905.79998779296875</AltitudeMeters>
            <DistanceMeters>NAN</DistanceMeters>
          </Trackpoint>
          <Trackpoint>
            <Time>2020-03-07T17:01:32.000Z</Time>
            <Position>
              <LatitudeDegrees>40.72377000935375690460205078125</LatitudeDegrees>
              <LongitudeDegrees>-3.87715299613773822784423828125</LongitudeDegrees>
            </Position>
            <AltitudeMeters>905.79998779296875</AltitudeMeters>
            <DistanceMeters>NAN</DistanceMeters>
          </Trackpoint>
          <Trackpoint>
            <Time>2020-03-07T17:01:33.000Z</Time>
            <Position>
              <LatitudeDegrees>40.72379750199615955352783203125</LatitudeDegrees>
              <LongitudeDegrees>-3.87708242051303386688232421875</LongitudeDegrees>
            </Position>
            <AltitudeMeters>905.79998779296875</AltitudeMeters>
            <DistanceMeters>NAN</DistanceMeters>
          </Trackpoint>
          <Trackpoint>
            <Time>2020-03-07T17:01:34.000Z</Time>
            <Position>
              <LatitudeDegrees>40.7238237373530864715576171875</LatitudeDegrees>
              <LongitudeDegrees>-3.87701016850769519805908203125</LongitudeDegrees>
            </Position>
            <AltitudeMeters>905.79998779296875</AltitudeMeters>
            <DistanceMeters>NAN</DistanceMeters>
          </Trackpoint>
          <Trackpoint>
            <Time>2020-03-07T17:01:35.000Z</Time>
            <Position>
              <LatitudeDegrees>40.72384930215775966644287109375</LatitudeDegrees>
              <LongitudeDegrees>-3.8769401796162128448486328125</LongitudeDegrees>
            </Position>
            <AltitudeMeters>905.79998779296875</AltitudeMeters>
            <DistanceMeters>NAN</DistanceMeters>
          </Trackpoint>
          <Trackpoint>
            <Time>2020-03-07T17:01:36.000Z</Time>
            <Position>
              <LatitudeDegrees>40.723873190581798553466796875</LatitudeDegrees>
              <LongitudeDegrees>-3.87687052600085735321044921875</LongitudeDegrees>
            </Position>
            <AltitudeMeters>905.79998779296875</AltitudeMeters>
            <DistanceMeters>NAN</DistanceMeters>
          </Trackpoint>
          <Trackpoint>
            <Time>2020-03-07T17:01:37.000Z</Time>
            <Position>
              <LatitudeDegrees>40.72389565408229827880859375</LatitudeDegrees>
              <LongitudeDegrees>-3.8768000341951847076416015625</LongitudeDegrees>
            </Position>
            <AltitudeMeters>905.79998779296875</AltitudeMeters>
            <DistanceMeters>NAN</DistanceMeters>
          </Trackpoint>
          <Trackpoint>
            <Time>2020-03-07T17:01:38.000Z</Time>
            <Position>
              <LatitudeDegrees>40.72391686029732227325439453125</LatitudeDegrees>
              <LongitudeDegrees>-3.876729793846607208251953125</LongitudeDegrees>
            </Position>
            <AltitudeMeters>906</AltitudeMeters>
            <DistanceMeters>NAN</DistanceMeters>
          </Trackpoint>
          <Trackpoint>
            <Time>2020-03-07T17:01:39.000Z</Time>
            <Position>
              <LatitudeDegrees>40.7239360548555850982666015625</LatitudeDegrees>
              <LongitudeDegrees>-3.876660056412220001220703125</LongitudeDegrees>
            </Position>
            <AltitudeMeters>906</AltitudeMeters>
            <DistanceMeters>NAN</DistanceMeters>
          </Trackpoint>
          <Trackpoint>
            <Time>2020-03-07T17:01:40.000Z</Time>
            <Position>
              <LatitudeDegrees>40.723955333232879638671875</LatitudeDegrees>
              <LongitudeDegrees>-3.876591660082340240478515625</LongitudeDegrees>
            </Position>
            <AltitudeMeters>906</AltitudeMeters>
            <DistanceMeters>NAN</DistanceMeters>
          </Trackpoint>
          <Trackpoint>
            <Time>2020-03-07T17:01:41.000Z</Time>
            <Position>
              <LatitudeDegrees>40.72397218085825443267822265625</LatitudeDegrees>
              <LongitudeDegrees>-3.8765244372189044952392578125</LongitudeDegrees>
            </Position>
            <AltitudeMeters>906</AltitudeMeters>
            <DistanceMeters>NAN</DistanceMeters>
          </Trackpoint>
          <Trackpoint>
            <Time>2020-03-07T17:01:42.000Z</Time>
            <Position>
              <LatitudeDegrees>40.72398819029331207275390625</LatitudeDegrees>
              <LongitudeDegrees>-3.876458890736103057861328125</LongitudeDegrees>
            </Position>
            <AltitudeMeters>906.20001220703125</AltitudeMeters>
            <DistanceMeters>NAN</DistanceMeters>
          </Trackpoint>
          <Trackpoint>
            <Time>2020-03-07T17:01:43.000Z</Time>
            <Position>
              <LatitudeDegrees>40.7240010984241962432861328125</LatitudeDegrees>
              <LongitudeDegrees>-3.87639409862458705902099609375</LongitudeDegrees>
            </Position>
            <AltitudeMeters>906.20001220703125</AltitudeMeters>
            <DistanceMeters>NAN</DistanceMeters>
          </Trackpoint>
          <Trackpoint>
            <Time>2020-03-07T17:01:44.000Z</Time>
            <Position>
              <LatitudeDegrees>40.72401124052703380584716796875</LatitudeDegrees>
              <LongitudeDegrees>-3.87632972560822963714599609375</LongitudeDegrees>
            </Position>
            <AltitudeMeters>906.4000244140625</AltitudeMeters>
            <DistanceMeters>NAN</DistanceMeters>
          </Trackpoint>
          <Trackpoint>
            <Time>2020-03-07T17:01:45.000Z</Time>
            <Position>
              <LatitudeDegrees>40.7240185327827930450439453125</LatitudeDegrees>
              <LongitudeDegrees>-3.8762656040489673614501953125</LongitudeDegrees>
            </Position>
            <AltitudeMeters>906.5999755859375</AltitudeMeters>
            <DistanceMeters>NAN</DistanceMeters>
          </Trackpoint>
          <Trackpoint>
            <Time>2020-03-07T17:01:46.000Z</Time>
            <Position>
              <LatitudeDegrees>40.724022388458251953125</LatitudeDegrees>
              <LongitudeDegrees>-3.8762029074132442474365234375</LongitudeDegrees>
            </Position>
            <AltitudeMeters>906.79998779296875</AltitudeMeters>
            <DistanceMeters>NAN</DistanceMeters>
          </Trackpoint>
          <Trackpoint>
            <Time>2020-03-07T17:01:47.000Z</Time>
            <Position>
              <LatitudeDegrees>40.72402398101985454559326171875</LatitudeDegrees>
              <LongitudeDegrees>-3.87613995932042598724365234375</LongitudeDegrees>
            </Position>
            <AltitudeMeters>906.79998779296875</AltitudeMeters>
            <DistanceMeters>NAN</DistanceMeters>
          </Trackpoint>
          <Trackpoint>
            <Time>2020-03-07T17:01:48.000Z</Time>
            <Position>
              <LatitudeDegrees>40.72402699850499629974365234375</LatitudeDegrees>
              <LongitudeDegrees>-3.876077346503734588623046875</LongitudeDegrees>
            </Position>
            <AltitudeMeters>907</AltitudeMeters>
            <DistanceMeters>NAN</DistanceMeters>
          </Trackpoint>
          <Trackpoint>
            <Time>2020-03-07T17:01:49.000Z</Time>
            <Position>
              <LatitudeDegrees>40.724028088152408599853515625</LatitudeDegrees>
              <LongitudeDegrees>-3.8760173320770263671875</LongitudeDegrees>
            </Position>
            <AltitudeMeters>907.20001220703125</AltitudeMeters>
            <DistanceMeters>NAN</DistanceMeters>
          </Trackpoint>
          <Trackpoint>
            <Time>2020-03-07T17:01:50.000Z</Time>
            <Position>
              <LatitudeDegrees>40.724029429256916046142578125</LatitudeDegrees>
              <LongitudeDegrees>-3.87595689855515956878662109375</LongitudeDegrees>
            </Position>
            <AltitudeMeters>907.4000244140625</AltitudeMeters>
            <DistanceMeters>NAN</DistanceMeters>
          </Trackpoint>
          <Trackpoint>
            <Time>2020-03-07T17:01:51.000Z</Time>
            <Position>
              <LatitudeDegrees>40.72402976453304290771484375</LatitudeDegrees>
              <LongitudeDegrees>-3.87589872814714908599853515625</LongitudeDegrees>
            </Position>
            <AltitudeMeters>907.79998779296875</AltitudeMeters>
            <DistanceMeters>NAN</DistanceMeters>
          </Trackpoint>
          <Trackpoint>
            <Time>2020-03-07T17:01:52.000Z</Time>
            <Position>
              <LatitudeDegrees>40.724029429256916046142578125</LatitudeDegrees>
              <LongitudeDegrees>-3.87584223411977291107177734375</LongitudeDegrees>
            </Position>
            <AltitudeMeters>908</AltitudeMeters>
            <DistanceMeters>NAN</DistanceMeters>
          </Trackpoint>
          <Trackpoint>
            <Time>2020-03-07T17:01:53.000Z</Time>
            <Position>
              <LatitudeDegrees>40.72403110563755035400390625</LatitudeDegrees>
              <LongitudeDegrees>-3.87578666210174560546875</LongitudeDegrees>
            </Position>
            <AltitudeMeters>908.20001220703125</AltitudeMeters>
            <DistanceMeters>NAN</DistanceMeters>
          </Trackpoint>
          <Trackpoint>
            <Time>2020-03-07T17:01:54.000Z</Time>
            <Position>
              <LatitudeDegrees>40.72402800433337688446044921875</LatitudeDegrees>
              <LongitudeDegrees>-3.875730000436305999755859375</LongitudeDegrees>
            </Position>
            <AltitudeMeters>908.5999755859375</AltitudeMeters>
            <DistanceMeters>NAN</DistanceMeters>
          </Trackpoint>
          <Trackpoint>
            <Time>2020-03-07T17:01:55.000Z</Time>
            <Position>
              <LatitudeDegrees>40.72402129881083965301513671875</LatitudeDegrees>
              <LongitudeDegrees>-3.8756708241999149322509765625</LongitudeDegrees>
            </Position>
            <AltitudeMeters>908.5999755859375</AltitudeMeters>
            <DistanceMeters>NAN</DistanceMeters>
          </Trackpoint>
          <Trackpoint>
            <Time>2020-03-07T17:01:56.000Z</Time>
            <Position>
              <LatitudeDegrees>40.72401375509798526763916015625</LatitudeDegrees>
              <LongitudeDegrees>-3.8756141625344753265380859375</LongitudeDegrees>
            </Position>
            <AltitudeMeters>908.79998779296875</AltitudeMeters>
            <DistanceMeters>NAN</DistanceMeters>
          </Trackpoint>
          <Trackpoint>
            <Time>2020-03-07T17:01:57.000Z</Time>
            <Position>
              <LatitudeDegrees>40.72400704957544803619384765625</LatitudeDegrees>
              <LongitudeDegrees>-3.8755538128316402435302734375</LongitudeDegrees>
            </Position>
            <AltitudeMeters>909</AltitudeMeters>
            <DistanceMeters>NAN</DistanceMeters>
          </Trackpoint>
          <Trackpoint>
            <Time>2020-03-07T17:01:58.000Z</Time>
            <Position>
              <LatitudeDegrees>40.7240037806332111358642578125</LatitudeDegrees>
              <LongitudeDegrees>-3.8754956424236297607421875</LongitudeDegrees>
            </Position>
            <AltitudeMeters>909.4000244140625</AltitudeMeters>
            <DistanceMeters>NAN</DistanceMeters>
          </Trackpoint>
          <Trackpoint>
            <Time>2020-03-07T17:01:59.000Z</Time>
            <Position>
              <LatitudeDegrees>40.72400000877678394317626953125</LatitudeDegrees>
              <LongitudeDegrees>-3.87543621473014354705810546875</LongitudeDegrees>
            </Position>
            <AltitudeMeters>909.5999755859375</AltitudeMeters>
            <DistanceMeters>NAN</DistanceMeters>
          </Trackpoint>
          <Trackpoint>
            <Time>2020-03-07T17:02:00.000Z</Time>
            <Position>
              <LatitudeDegrees>40.72399766184389591217041015625</LatitudeDegrees>
              <LongitudeDegrees>-3.8753784634172916412353515625</LongitudeDegrees>
            </Position>
            <AltitudeMeters>909.79998779296875</AltitudeMeters>
            <DistanceMeters>NAN</DistanceMeters>
          </Trackpoint>
          <Trackpoint>
            <Time>2020-03-07T17:02:01.000Z</Time>
            <Position>
              <LatitudeDegrees>40.72399313561618328094482421875</LatitudeDegrees>
              <LongitudeDegrees>-3.875320963561534881591796875</LongitudeDegrees>
            </Position>
            <AltitudeMeters>910</AltitudeMeters>
            <DistanceMeters>NAN</DistanceMeters>
          </Trackpoint>
          <Trackpoint>
            <Time>2020-03-07T17:02:02.000Z</Time>
            <Position>
              <LatitudeDegrees>40.723989866673946380615234375</LatitudeDegrees>
              <LongitudeDegrees>-3.8752622902393341064453125</LongitudeDegrees>
            </Position>
            <AltitudeMeters>910.20001220703125</AltitudeMeters>
            <DistanceMeters>NAN</DistanceMeters>
          </Trackpoint>
          <Trackpoint>
            <Time>2020-03-07T17:02:03.000Z</Time>
            <Position>
              <LatitudeDegrees>40.72398609481751918792724609375</LatitudeDegrees>
              <LongitudeDegrees>-3.8752059638500213623046875</LongitudeDegrees>
            </Position>
            <AltitudeMeters>910.20001220703125</AltitudeMeters>
            <DistanceMeters>NAN</DistanceMeters>
          </Trackpoint>
          <Trackpoint>
            <Time>2020-03-07T17:02:04.000Z</Time>
            <Position>
              <LatitudeDegrees>40.72398425079882144927978515625</LatitudeDegrees>
              <LongitudeDegrees>-3.875148631632328033447265625</LongitudeDegrees>
            </Position>
            <AltitudeMeters>910.4000244140625</AltitudeMeters>
            <DistanceMeters>NAN</DistanceMeters>
          </Trackpoint>
          <Trackpoint>
            <Time>2020-03-07T17:02:05.000Z</Time>
            <Position>
              <LatitudeDegrees>40.7239833287894725799560546875</LatitudeDegrees>
              <LongitudeDegrees>-3.875092975795269012451171875</LongitudeDegrees>
            </Position>
            <AltitudeMeters>910.5999755859375</AltitudeMeters>
            <DistanceMeters>NAN</DistanceMeters>
          </Trackpoint>
          <Trackpoint>
            <Time>2020-03-07T17:02:06.000Z</Time>
            <Position>
              <LatitudeDegrees>40.72398106567561626434326171875</LatitudeDegrees>
              <LongitudeDegrees>-3.87503765523433685302734375</LongitudeDegrees>
            </Position>
            <AltitudeMeters>910.79998779296875</AltitudeMeters>
            <DistanceMeters>NAN</DistanceMeters>
          </Trackpoint>
          <Trackpoint>
            <Time>2020-03-07T17:02:07.000Z</Time>
            <Position>
              <LatitudeDegrees>40.72397871874272823333740234375</LatitudeDegrees>
              <LongitudeDegrees>-3.87498241849243640899658203125</LongitudeDegrees>
            </Position>
            <AltitudeMeters>911</AltitudeMeters>
            <DistanceMeters>NAN</DistanceMeters>
          </Trackpoint>
          <Trackpoint>
            <Time>2020-03-07T17:02:08.000Z</Time>
            <Position>
              <LatitudeDegrees>40.7239769585430622100830078125</LatitudeDegrees>
              <LongitudeDegrees>-3.8749268464744091033935546875</LongitudeDegrees>
            </Position>
            <AltitudeMeters>911.20001220703125</AltitudeMeters>
            <DistanceMeters>NAN</DistanceMeters>
          </Trackpoint>
          <Trackpoint>
            <Time>2020-03-07T17:02:09.000Z</Time>
            <Position>
              <LatitudeDegrees>40.7239754498004913330078125</LatitudeDegrees>
              <LongitudeDegrees>-3.87487412430346012115478515625</LongitudeDegrees>
            </Position>
            <AltitudeMeters>911.5999755859375</AltitudeMeters>
            <DistanceMeters>NAN</DistanceMeters>
          </Trackpoint>
          <Trackpoint>
            <Time>2020-03-07T17:02:10.000Z</Time>
            <Position>
              <LatitudeDegrees>40.723973102867603302001953125</LatitudeDegrees>
              <LongitudeDegrees>-3.874820731580257415771484375</LongitudeDegrees>
            </Position>
            <AltitudeMeters>911.79998779296875</AltitudeMeters>
            <DistanceMeters>NAN</DistanceMeters>
          </Trackpoint>
          <Trackpoint>
            <Time>2020-03-07T17:02:11.000Z</Time>
            <Position>
              <LatitudeDegrees>40.7239715941250324249267578125</LatitudeDegrees>
              <LongitudeDegrees>-3.87476700358092784881591796875</LongitudeDegrees>
            </Position>
            <AltitudeMeters>912</AltitudeMeters>
            <DistanceMeters>NAN</DistanceMeters>
          </Trackpoint>
          <Trackpoint>
            <Time>2020-03-07T17:02:12.000Z</Time>
            <Position>
              <LatitudeDegrees>40.72396983392536640167236328125</LatitudeDegrees>
              <LongitudeDegrees>-3.87471369467675685882568359375</LongitudeDegrees>
            </Position>
            <AltitudeMeters>912.20001220703125</AltitudeMeters>
            <DistanceMeters>NAN</DistanceMeters>
          </Trackpoint>
          <Trackpoint>
            <Time>2020-03-07T17:02:13.000Z</Time>
            <Position>
              <LatitudeDegrees>40.7239689119160175323486328125</LatitudeDegrees>
              <LongitudeDegrees>-3.87466105632483959197998046875</LongitudeDegrees>
            </Position>
            <AltitudeMeters>912.20001220703125</AltitudeMeters>
            <DistanceMeters>NAN</DistanceMeters>
          </Trackpoint>
          <Trackpoint>
            <Time>2020-03-07T17:02:14.000Z</Time>
            <Position>
              <LatitudeDegrees>40.7239682413637638092041015625</LatitudeDegrees>
              <LongitudeDegrees>-3.8746086694300174713134765625</LongitudeDegrees>
            </Position>
            <AltitudeMeters>912.20001220703125</AltitudeMeters>
            <DistanceMeters>NAN</DistanceMeters>
          </Trackpoint>
          <Trackpoint>
            <Time>2020-03-07T17:02:15.000Z</Time>
            <Position>
              <LatitudeDegrees>40.72396832518279552459716796875</LatitudeDegrees>
              <LongitudeDegrees>-3.874555863440036773681640625</LongitudeDegrees>
            </Position>
            <AltitudeMeters>912.4000244140625</AltitudeMeters>
            <DistanceMeters>NAN</DistanceMeters>
          </Trackpoint>
          <Trackpoint>
            <Time>2020-03-07T17:02:16.000Z</Time>
            <Position>
              <LatitudeDegrees>40.72396815754473209381103515625</LatitudeDegrees>
              <LongitudeDegrees>-3.874503560364246368408203125</LongitudeDegrees>
            </Position>
            <AltitudeMeters>912.4000244140625</AltitudeMeters>
            <DistanceMeters>NAN</DistanceMeters>
          </Trackpoint>
          <Trackpoint>
            <Time>2020-03-07T17:02:17.000Z</Time>
            <Position>
              <LatitudeDegrees>40.7239675708115100860595703125</LatitudeDegrees>
              <LongitudeDegrees>-3.8744520954787731170654296875</LongitudeDegrees>
            </Position>
            <AltitudeMeters>912.4000244140625</AltitudeMeters>
            <DistanceMeters>NAN</DistanceMeters>
          </Trackpoint>
          <Trackpoint>
            <Time>2020-03-07T17:02:18.000Z</Time>
            <Position>
              <LatitudeDegrees>40.72396765463054180145263671875</LatitudeDegrees>
              <LongitudeDegrees>-3.87439937330782413482666015625</LongitudeDegrees>
            </Position>
            <AltitudeMeters>912.5999755859375</AltitudeMeters>
            <DistanceMeters>NAN</DistanceMeters>
          </Trackpoint>
          <Trackpoint>
            <Time>2020-03-07T17:02:19.000Z</Time>
            <Position>
              <LatitudeDegrees>40.7239687442779541015625</LatitudeDegrees>
              <LongitudeDegrees>-3.87434656731784343719482421875</LongitudeDegrees>
            </Position>
            <AltitudeMeters>912.5999755859375</AltitudeMeters>
            <DistanceMeters>NAN</DistanceMeters>
          </Trackpoint>
          <Trackpoint>
            <Time>2020-03-07T17:02:20.000Z</Time>
            <Position>
              <LatitudeDegrees>40.7239685766398906707763671875</LatitudeDegrees>
              <LongitudeDegrees>-3.8742935098707675933837890625</LongitudeDegrees>
            </Position>
            <AltitudeMeters>912.79998779296875</AltitudeMeters>
            <DistanceMeters>NAN</DistanceMeters>
          </Trackpoint>
          <Trackpoint>
            <Time>2020-03-07T17:02:21.000Z</Time>
            <Position>
              <LatitudeDegrees>40.7239689119160175323486328125</LatitudeDegrees>
              <LongitudeDegrees>-3.8742412067949771881103515625</LongitudeDegrees>
            </Position>
            <AltitudeMeters>912.79998779296875</AltitudeMeters>
            <DistanceMeters>NAN</DistanceMeters>
          </Trackpoint>
          <Trackpoint>
            <Time>2020-03-07T17:02:22.000Z</Time>
            <Position>
              <LatitudeDegrees>40.72396966628730297088623046875</LatitudeDegrees>
              <LongitudeDegrees>-3.874188400804996490478515625</LongitudeDegrees>
            </Position>
            <AltitudeMeters>913.20001220703125</AltitudeMeters>
            <DistanceMeters>NAN</DistanceMeters>
          </Trackpoint>
          <Trackpoint>
            <Time>2020-03-07T17:02:23.000Z</Time>
            <Position>
              <LatitudeDegrees>40.723969079554080963134765625</LatitudeDegrees>
              <LongitudeDegrees>-3.87413534335792064666748046875</LongitudeDegrees>
            </Position>
            <AltitudeMeters>913.4000244140625</AltitudeMeters>
            <DistanceMeters>NAN</DistanceMeters>
          </Trackpoint>
          <Trackpoint>
            <Time>2020-03-07T17:02:24.000Z</Time>
            <Position>
              <LatitudeDegrees>40.72396782226860523223876953125</LatitudeDegrees>
              <LongitudeDegrees>-3.87408119626343250274658203125</LongitudeDegrees>
            </Position>
            <AltitudeMeters>913.5999755859375</AltitudeMeters>
            <DistanceMeters>NAN</DistanceMeters>
          </Trackpoint>
          <Trackpoint>
            <Time>2020-03-07T17:02:25.000Z</Time>
            <Position>
              <LatitudeDegrees>40.72396673262119293212890625</LatitudeDegrees>
              <LongitudeDegrees>-3.87402721680700778961181640625</LongitudeDegrees>
            </Position>
            <AltitudeMeters>913.79998779296875</AltitudeMeters>
            <DistanceMeters>NAN</DistanceMeters>
          </Trackpoint>
          <Trackpoint>
            <Time>2020-03-07T17:02:26.000Z</Time>
            <Position>
              <LatitudeDegrees>40.72396547533571720123291015625</LatitudeDegrees>
              <LongitudeDegrees>-3.87397273443639278411865234375</LongitudeDegrees>
            </Position>
            <AltitudeMeters>913.79998779296875</AltitudeMeters>
            <DistanceMeters>NAN</DistanceMeters>
          </Trackpoint>
          <Trackpoint>
            <Time>2020-03-07T17:02:27.000Z</Time>
            <Position>
              <LatitudeDegrees>40.72396564297378063201904296875</LatitudeDegrees>
              <LongitudeDegrees>-3.87391724623739719390869140625</LongitudeDegrees>
            </Position>
            <AltitudeMeters>914</AltitudeMeters>
            <DistanceMeters>NAN</DistanceMeters>
          </Trackpoint>
          <Trackpoint>
            <Time>2020-03-07T17:02:28.000Z</Time>
            <Position>
              <LatitudeDegrees>40.72396597824990749359130859375</LatitudeDegrees>
              <LongitudeDegrees>-3.8738626800477504730224609375</LongitudeDegrees>
            </Position>
            <AltitudeMeters>914</AltitudeMeters>
            <DistanceMeters>NAN</DistanceMeters>
          </Trackpoint>
          <Trackpoint>
            <Time>2020-03-07T17:02:29.000Z</Time>
            <Position>
              <LatitudeDegrees>40.723966062068939208984375</LatitudeDegrees>
              <LongitudeDegrees>-3.87380911968648433685302734375</LongitudeDegrees>
            </Position>
            <AltitudeMeters>914.20001220703125</AltitudeMeters>
            <DistanceMeters>NAN</DistanceMeters>
          </Trackpoint>
          <Trackpoint>
            <Time>2020-03-07T17:02:30.000Z</Time>
            <Position>
              <LatitudeDegrees>40.72396631352603435516357421875</LatitudeDegrees>
              <LongitudeDegrees>-3.87375530786812305450439453125</LongitudeDegrees>
            </Position>
            <AltitudeMeters>914.20001220703125</AltitudeMeters>
            <DistanceMeters>NAN</DistanceMeters>
          </Trackpoint>
          <Trackpoint>
            <Time>2020-03-07T17:02:31.000Z</Time>
            <Position>
              <LatitudeDegrees>40.72396631352603435516357421875</LatitudeDegrees>
              <LongitudeDegrees>-3.87369965203106403350830078125</LongitudeDegrees>
            </Position>
            <AltitudeMeters>914.4000244140625</AltitudeMeters>
            <DistanceMeters>NAN</DistanceMeters>
          </Trackpoint>
          <Trackpoint>
            <Time>2020-03-07T17:02:32.000Z</Time>
            <Position>
              <LatitudeDegrees>40.72396614588797092437744140625</LatitudeDegrees>
              <LongitudeDegrees>-3.87364332564175128936767578125</LongitudeDegrees>
            </Position>
            <AltitudeMeters>914.5999755859375</AltitudeMeters>
            <DistanceMeters>NAN</DistanceMeters>
          </Trackpoint>
          <Trackpoint>
            <Time>2020-03-07T17:02:33.000Z</Time>
            <Position>
              <LatitudeDegrees>40.7239652238786220550537109375</LatitudeDegrees>
              <LongitudeDegrees>-3.87358716689050197601318359375</LongitudeDegrees>
            </Position>
            <AltitudeMeters>914.5999755859375</AltitudeMeters>
            <DistanceMeters>NAN</DistanceMeters>
          </Trackpoint>
          <Trackpoint>
            <Time>2020-03-07T17:02:34.000Z</Time>
            <Position>
              <LatitudeDegrees>40.72396270930767059326171875</LatitudeDegrees>
              <LongitudeDegrees>-3.8735310919582843780517578125</LongitudeDegrees>
            </Position>
            <AltitudeMeters>914.5999755859375</AltitudeMeters>
            <DistanceMeters>NAN</DistanceMeters>
          </Trackpoint>
          <Trackpoint>
            <Time>2020-03-07T17:02:35.000Z</Time>
            <Position>
              <LatitudeDegrees>40.7239601947367191314697265625</LatitudeDegrees>
              <LongitudeDegrees>-3.873475603759288787841796875</LongitudeDegrees>
            </Position>
            <AltitudeMeters>914.5999755859375</AltitudeMeters>
            <DistanceMeters>NAN</DistanceMeters>
          </Trackpoint>
          <Trackpoint>
            <Time>2020-03-07T17:02:36.000Z</Time>
            <Position>
              <LatitudeDegrees>40.72395826689898967742919921875</LatitudeDegrees>
              <LongitudeDegrees>-3.87341936118900775909423828125</LongitudeDegrees>
            </Position>
            <AltitudeMeters>914.79998779296875</AltitudeMeters>
            <DistanceMeters>NAN</DistanceMeters>
          </Trackpoint>
          <Trackpoint>
            <Time>2020-03-07T17:02:37.000Z</Time>
            <Position>
              <LatitudeDegrees>40.723954997956752777099609375</LatitudeDegrees>
              <LongitudeDegrees>-3.873363621532917022705078125</LongitudeDegrees>
            </Position>
            <AltitudeMeters>914.79998779296875</AltitudeMeters>
            <DistanceMeters>NAN</DistanceMeters>
          </Trackpoint>
          <Trackpoint>
            <Time>2020-03-07T17:02:38.000Z</Time>
            <Position>
              <LatitudeDegrees>40.72395156137645244598388671875</LatitudeDegrees>
              <LongitudeDegrees>-3.8733067922294139862060546875</LongitudeDegrees>
            </Position>
            <AltitudeMeters>914.79998779296875</AltitudeMeters>
            <DistanceMeters>NAN</DistanceMeters>
          </Trackpoint>
          <Trackpoint>
            <Time>2020-03-07T17:02:39.000Z</Time>
            <Position>
              <LatitudeDegrees>40.72395022027194499969482421875</LatitudeDegrees>
              <LongitudeDegrees>-3.8732494600117206573486328125</LongitudeDegrees>
            </Position>
            <AltitudeMeters>915</AltitudeMeters>
            <DistanceMeters>NAN</DistanceMeters>
          </Trackpoint>
          <Trackpoint>
            <Time>2020-03-07T17:02:40.000Z</Time>
            <Position>
              <LatitudeDegrees>40.7239498011767864227294921875</LatitudeDegrees>
              <LongitudeDegrees>-3.873191289603710174560546875</LongitudeDegrees>
            </Position>
            <AltitudeMeters>915</AltitudeMeters>
            <DistanceMeters>NAN</DistanceMeters>
          </Trackpoint>
          <Trackpoint>
            <Time>2020-03-07T17:02:41.000Z</Time>
            <Position>
              <LatitudeDegrees>40.72394904680550098419189453125</LatitudeDegrees>
              <LongitudeDegrees>-3.87313169427216053009033203125</LongitudeDegrees>
            </Position>
            <AltitudeMeters>915</AltitudeMeters>
            <DistanceMeters>NAN</DistanceMeters>
          </Trackpoint>
          <Trackpoint>
            <Time>2020-03-07T17:02:42.000Z</Time>
            <Position>
              <LatitudeDegrees>40.7239481247961521148681640625</LatitudeDegrees>
              <LongitudeDegrees>-3.87307226657867431640625</LongitudeDegrees>
            </Position>
            <AltitudeMeters>915.20001220703125</AltitudeMeters>
            <DistanceMeters>NAN</DistanceMeters>
          </Trackpoint>
          <Trackpoint>
            <Time>2020-03-07T17:02:43.000Z</Time>
            <Position>
              <LatitudeDegrees>40.7239471189677715301513671875</LatitudeDegrees>
              <LongitudeDegrees>-3.87301384471356868743896484375</LongitudeDegrees>
            </Position>
            <AltitudeMeters>915.4000244140625</AltitudeMeters>
            <DistanceMeters>NAN</DistanceMeters>
          </Trackpoint>
          <Trackpoint>
            <Time>2020-03-07T17:02:44.000Z</Time>
            <Position>
              <LatitudeDegrees>40.72394636459648609161376953125</LatitudeDegrees>
              <LongitudeDegrees>-3.872954584658145904541015625</LongitudeDegrees>
            </Position>
            <AltitudeMeters>915.4000244140625</AltitudeMeters>
            <DistanceMeters>NAN</DistanceMeters>
          </Trackpoint>
          <Trackpoint>
            <Time>2020-03-07T17:02:45.000Z</Time>
            <Position>
              <LatitudeDegrees>40.72394787333905696868896484375</LatitudeDegrees>
              <LongitudeDegrees>-3.87289465405046939849853515625</LongitudeDegrees>
            </Position>
            <AltitudeMeters>915.5999755859375</AltitudeMeters>
            <DistanceMeters>NAN</DistanceMeters>
          </Trackpoint>
          <Trackpoint>
            <Time>2020-03-07T17:02:46.000Z</Time>
            <Position>
              <LatitudeDegrees>40.72395122610032558441162109375</LatitudeDegrees>
              <LongitudeDegrees>-3.87283430434763431549072265625</LongitudeDegrees>
            </Position>
            <AltitudeMeters>915.5999755859375</AltitudeMeters>
            <DistanceMeters>NAN</DistanceMeters>
          </Trackpoint>
          <Trackpoint>
            <Time>2020-03-07T17:02:47.000Z</Time>
            <Position>
              <LatitudeDegrees>40.72395474649965763092041015625</LatitudeDegrees>
              <LongitudeDegrees>-3.87277328409254550933837890625</LongitudeDegrees>
            </Position>
            <AltitudeMeters>915.5999755859375</AltitudeMeters>
            <DistanceMeters>NAN</DistanceMeters>
          </Trackpoint>
          <Trackpoint>
            <Time>2020-03-07T17:02:48.000Z</Time>
            <Position>
              <LatitudeDegrees>40.72395910508930683135986328125</LatitudeDegrees>
              <LongitudeDegrees>-3.87271343730390071868896484375</LongitudeDegrees>
            </Position>
            <AltitudeMeters>915.79998779296875</AltitudeMeters>
            <DistanceMeters>NAN</DistanceMeters>
          </Trackpoint>
          <Trackpoint>
            <Time>2020-03-07T17:02:49.000Z</Time>
            <Position>
              <LatitudeDegrees>40.7239635474979877471923828125</LatitudeDegrees>
              <LongitudeDegrees>-3.87265317142009735107421875</LongitudeDegrees>
            </Position>
            <AltitudeMeters>916</AltitudeMeters>
            <DistanceMeters>NAN</DistanceMeters>
          </Trackpoint>
          <Trackpoint>
            <Time>2020-03-07T17:02:50.000Z</Time>
            <Position>
              <LatitudeDegrees>40.72396866045892238616943359375</LatitudeDegrees>
              <LongitudeDegrees>-3.87259106151759624481201171875</LongitudeDegrees>
            </Position>
            <AltitudeMeters>916.20001220703125</AltitudeMeters>
            <DistanceMeters>NAN</DistanceMeters>
          </Trackpoint>
          <Trackpoint>
            <Time>2020-03-07T17:02:51.000Z</Time>
            <Position>
              <LatitudeDegrees>40.7239732705056667327880859375</LatitudeDegrees>
              <LongitudeDegrees>-3.87252937071025371551513671875</LongitudeDegrees>
            </Position>
            <AltitudeMeters>916.4000244140625</AltitudeMeters>
            <DistanceMeters>NAN</DistanceMeters>
          </Trackpoint>
          <Trackpoint>
            <Time>2020-03-07T17:02:52.000Z</Time>
            <Position>
              <LatitudeDegrees>40.72397880256175994873046875</LatitudeDegrees>
              <LongitudeDegrees>-3.8724659197032451629638671875</LongitudeDegrees>
            </Position>
            <AltitudeMeters>916.5999755859375</AltitudeMeters>
            <DistanceMeters>NAN</DistanceMeters>
          </Trackpoint>
          <Trackpoint>
            <Time>2020-03-07T17:02:53.000Z</Time>
            <Position>
              <LatitudeDegrees>40.7239863462746143341064453125</LatitudeDegrees>
              <LongitudeDegrees>-3.8724032230675220489501953125</LongitudeDegrees>
            </Position>
            <AltitudeMeters>916.79998779296875</AltitudeMeters>
            <DistanceMeters>NAN</DistanceMeters>
          </Trackpoint>
          <Trackpoint>
            <Time>2020-03-07T17:02:54.000Z</Time>
            <Position>
              <LatitudeDegrees>40.723995901644229888916015625</LatitudeDegrees>
              <LongitudeDegrees>-3.8723395206034183502197265625</LongitudeDegrees>
            </Position>
            <AltitudeMeters>916.79998779296875</AltitudeMeters>
            <DistanceMeters>NAN</DistanceMeters>
          </Trackpoint>
          <Trackpoint>
            <Time>2020-03-07T17:02:55.000Z</Time>
            <Position>
              <LatitudeDegrees>40.72400788776576519012451171875</LatitudeDegrees>
              <LongitudeDegrees>-3.87227606959640979766845703125</LongitudeDegrees>
            </Position>
            <AltitudeMeters>916.79998779296875</AltitudeMeters>
            <DistanceMeters>NAN</DistanceMeters>
          </Trackpoint>
          <Trackpoint>
            <Time>2020-03-07T17:02:56.000Z</Time>
            <Position>
              <LatitudeDegrees>40.72402079589664936065673828125</LatitudeDegrees>
              <LongitudeDegrees>-3.8722111098468303680419921875</LongitudeDegrees>
            </Position>
            <AltitudeMeters>917</AltitudeMeters>
            <DistanceMeters>NAN</DistanceMeters>
          </Trackpoint>
          <Trackpoint>
            <Time>2020-03-07T17:02:57.000Z</Time>
            <Position>
              <LatitudeDegrees>40.72403504513204097747802734375</LatitudeDegrees>
              <LongitudeDegrees>-3.8721453957259654998779296875</LongitudeDegrees>
            </Position>
            <AltitudeMeters>917</AltitudeMeters>
            <DistanceMeters>NAN</DistanceMeters>
          </Trackpoint>
          <Trackpoint>
            <Time>2020-03-07T17:02:58.000Z</Time>
            <Position>
              <LatitudeDegrees>40.72404778562486171722412109375</LatitudeDegrees>
              <LongitudeDegrees>-3.87207909487187862396240234375</LongitudeDegrees>
            </Position>
            <AltitudeMeters>917</AltitudeMeters>
            <DistanceMeters>NAN</DistanceMeters>
          </Trackpoint>
          <Trackpoint>
            <Time>2020-03-07T17:02:59.000Z</Time>
            <Position>
              <LatitudeDegrees>40.72406195104122161865234375</LatitudeDegrees>
              <LongitudeDegrees>-3.87201346457004547119140625</LongitudeDegrees>
            </Position>
            <AltitudeMeters>917</AltitudeMeters>
            <DistanceMeters>NAN</DistanceMeters>
          </Trackpoint>
          <Trackpoint>
            <Time>2020-03-07T17:03:00.000Z</Time>
            <Position>
              <LatitudeDegrees>40.7240775413811206817626953125</LatitudeDegrees>
              <LongitudeDegrees>-3.87194733135402202606201171875</LongitudeDegrees>
            </Position>
            <AltitudeMeters>917</AltitudeMeters>
            <DistanceMeters>NAN</DistanceMeters>
          </Trackpoint>
          <Trackpoint>
            <Time>2020-03-07T17:03:01.000Z</Time>
            <Position>
              <LatitudeDegrees>40.7240922935307025909423828125</LatitudeDegrees>
              <LongitudeDegrees>-3.87188312597572803497314453125</LongitudeDegrees>
            </Position>
            <AltitudeMeters>917</AltitudeMeters>
            <DistanceMeters>NAN</DistanceMeters>
          </Trackpoint>
          <Trackpoint>
            <Time>2020-03-07T17:03:02.000Z</Time>
            <Position>
              <LatitudeDegrees>40.72410888969898223876953125</LatitudeDegrees>
              <LongitudeDegrees>-3.8718183338642120361328125</LongitudeDegrees>
            </Position>
            <AltitudeMeters>917</AltitudeMeters>
            <DistanceMeters>NAN</DistanceMeters>
          </Trackpoint>
          <Trackpoint>
            <Time>2020-03-07T17:03:03.000Z</Time>
            <Position>
              <LatitudeDegrees>40.72412875480949878692626953125</LatitudeDegrees>
              <LongitudeDegrees>-3.87175136245787143707275390625</LongitudeDegrees>
            </Position>
            <AltitudeMeters>917</AltitudeMeters>
            <DistanceMeters>NAN</DistanceMeters>
          </Trackpoint>
          <Trackpoint>
            <Time>2020-03-07T17:03:04.000Z</Time>
            <Position>
              <LatitudeDegrees>40.7241524755954742431640625</LatitudeDegrees>
              <LongitudeDegrees>-3.871682547032833099365234375</LongitudeDegrees>
            </Position>
            <AltitudeMeters>917</AltitudeMeters>
            <DistanceMeters>NAN</DistanceMeters>
          </Trackpoint>
          <Trackpoint>
            <Time>2020-03-07T17:03:05.000Z</Time>
            <Position>
              <LatitudeDegrees>40.72417586110532283782958984375</LatitudeDegrees>
              <LongitudeDegrees>-3.87161356396973133087158203125</LongitudeDegrees>
            </Position>
            <AltitudeMeters>917</AltitudeMeters>
            <DistanceMeters>NAN</DistanceMeters>
          </Trackpoint>
          <Trackpoint>
            <Time>2020-03-07T17:03:06.000Z</Time>
            <Position>
              <LatitudeDegrees>40.7242009229958057403564453125</LatitudeDegrees>
              <LongitudeDegrees>-3.8715439103543758392333984375</LongitudeDegrees>
            </Position>
            <AltitudeMeters>917</AltitudeMeters>
            <DistanceMeters>NAN</DistanceMeters>
          </Trackpoint>
          <Trackpoint>
            <Time>2020-03-07T17:03:07.000Z</Time>
            <Position>
              <LatitudeDegrees>40.72422564961016178131103515625</LatitudeDegrees>
              <LongitudeDegrees>-3.87147626839578151702880859375</LongitudeDegrees>
            </Position>
            <AltitudeMeters>917</AltitudeMeters>
            <DistanceMeters>NAN</DistanceMeters>
          </Trackpoint>
          <Trackpoint>
            <Time>2020-03-07T17:03:08.000Z</Time>
            <Position>
              <LatitudeDegrees>40.724251382052898406982421875</LatitudeDegrees>
              <LongitudeDegrees>-3.87140862643718719482421875</LongitudeDegrees>
            </Position>
            <AltitudeMeters>917</AltitudeMeters>
            <DistanceMeters>NAN</DistanceMeters>
          </Trackpoint>
          <Trackpoint>
            <Time>2020-03-07T17:03:09.000Z</Time>
            <Position>
              <LatitudeDegrees>40.72427895851433277130126953125</LatitudeDegrees>
              <LongitudeDegrees>-3.8713410682976245880126953125</LongitudeDegrees>
            </Position>
            <AltitudeMeters>916.79998779296875</AltitudeMeters>
            <DistanceMeters>NAN</DistanceMeters>
          </Trackpoint>
          <Trackpoint>
            <Time>2020-03-07T17:03:10.000Z</Time>
            <Position>
              <LatitudeDegrees>40.724306367337703704833984375</LatitudeDegrees>
              <LongitudeDegrees>-3.87127158232033252716064453125</LongitudeDegrees>
            </Position>
            <AltitudeMeters>916.79998779296875</AltitudeMeters>
            <DistanceMeters>NAN</DistanceMeters>
          </Trackpoint>
          <Trackpoint>
            <Time>2020-03-07T17:03:11.000Z</Time>
            <Position>
              <LatitudeDegrees>40.7243340276181697845458984375</LatitudeDegrees>
              <LongitudeDegrees>-3.87120209634304046630859375</LongitudeDegrees>
            </Position>
            <AltitudeMeters>916.79998779296875</AltitudeMeters>
            <DistanceMeters>NAN</DistanceMeters>
          </Trackpoint>
          <Trackpoint>
            <Time>2020-03-07T17:03:12.000Z</Time>
            <Position>
              <LatitudeDegrees>40.72436294518411159515380859375</LatitudeDegrees>
              <LongitudeDegrees>-3.87113261036574840545654296875</LongitudeDegrees>
            </Position>
            <AltitudeMeters>916.79998779296875</AltitudeMeters>
            <DistanceMeters>NAN</DistanceMeters>
          </Trackpoint>
          <Trackpoint>
            <Time>2020-03-07T17:03:13.000Z</Time>
            <Position>
              <LatitudeDegrees>40.7243916951119899749755859375</LatitudeDegrees>
              <LongitudeDegrees>-3.87106387875974178314208984375</LongitudeDegrees>
            </Position>
            <AltitudeMeters>916.79998779296875</AltitudeMeters>
            <DistanceMeters>NAN</DistanceMeters>
          </Trackpoint>
          <Trackpoint>
            <Time>2020-03-07T17:03:14.000Z</Time>
            <Position>
              <LatitudeDegrees>40.7244201935827732086181640625</LatitudeDegrees>
              <LongitudeDegrees>-3.87099422514438629150390625</LongitudeDegrees>
            </Position>
            <AltitudeMeters>916.5999755859375</AltitudeMeters>
            <DistanceMeters>NAN</DistanceMeters>
          </Trackpoint>
          <Trackpoint>
            <Time>2020-03-07T17:03:15.000Z</Time>
            <Position>
              <LatitudeDegrees>40.7244486920535564422607421875</LatitudeDegrees>
              <LongitudeDegrees>-3.87092440389096736907958984375</LongitudeDegrees>
            </Position>
            <AltitudeMeters>916.4000244140625</AltitudeMeters>
            <DistanceMeters>NAN</DistanceMeters>
          </Trackpoint>
          <Trackpoint>
            <Time>2020-03-07T17:03:16.000Z</Time>
            <Position>
              <LatitudeDegrees>40.72447643615305423736572265625</LatitudeDegrees>
              <LongitudeDegrees>-3.87085449881851673126220703125</LongitudeDegrees>
            </Position>
            <AltitudeMeters>916.4000244140625</AltitudeMeters>
            <DistanceMeters>NAN</DistanceMeters>
          </Trackpoint>
          <Trackpoint>
            <Time>2020-03-07T17:03:17.000Z</Time>
            <Position>
              <LatitudeDegrees>40.72450376115739345550537109375</LatitudeDegrees>
              <LongitudeDegrees>-3.87078459374606609344482421875</LongitudeDegrees>
            </Position>
            <AltitudeMeters>916.20001220703125</AltitudeMeters>
            <DistanceMeters>NAN</DistanceMeters>
          </Trackpoint>
          <Trackpoint>
            <Time>2020-03-07T17:03:18.000Z</Time>
            <Position>
              <LatitudeDegrees>40.7245311699807643890380859375</LatitudeDegrees>
              <LongitudeDegrees>-3.8707147724926471710205078125</LongitudeDegrees>
            </Position>
            <AltitudeMeters>916.20001220703125</AltitudeMeters>
            <DistanceMeters>NAN</DistanceMeters>
          </Trackpoint>
          <Trackpoint>
            <Time>2020-03-07T17:03:19.000Z</Time>
            <Position>
              <LatitudeDegrees>40.72455757297575473785400390625</LatitudeDegrees>
              <LongitudeDegrees>-3.87064511887729167938232421875</LongitudeDegrees>
            </Position>
            <AltitudeMeters>916.20001220703125</AltitudeMeters>
            <DistanceMeters>NAN</DistanceMeters>
          </Trackpoint>
          <Trackpoint>
            <Time>2020-03-07T17:03:20.000Z</Time>
            <Position>
              <LatitudeDegrees>40.72458607144653797149658203125</LatitudeDegrees>
              <LongitudeDegrees>-3.870575129985809326171875</LongitudeDegrees>
            </Position>
            <AltitudeMeters>916.20001220703125</AltitudeMeters>
            <DistanceMeters>NAN</DistanceMeters>
          </Trackpoint>
          <Trackpoint>
            <Time>2020-03-07T17:03:21.000Z</Time>
            <Position>
              <LatitudeDegrees>40.724614150822162628173828125</LatitudeDegrees>
              <LongitudeDegrees>-3.8705045543611049652099609375</LongitudeDegrees>
            </Position>
            <AltitudeMeters>916.20001220703125</AltitudeMeters>
            <DistanceMeters>NAN</DistanceMeters>
          </Trackpoint>
          <Trackpoint>
            <Time>2020-03-07T17:03:22.000Z</Time>
            <Position>
              <LatitudeDegrees>40.7246428169310092926025390625</LatitudeDegrees>
              <LongitudeDegrees>-3.87043439783155918121337890625</LongitudeDegrees>
            </Position>
            <AltitudeMeters>916.20001220703125</AltitudeMeters>
            <DistanceMeters>NAN</DistanceMeters>
          </Trackpoint>
          <Trackpoint>
            <Time>2020-03-07T17:03:23.000Z</Time>
            <Position>
              <LatitudeDegrees>40.724669806659221649169921875</LatitudeDegrees>
              <LongitudeDegrees>-3.8703644089400768280029296875</LongitudeDegrees>
            </Position>
            <AltitudeMeters>916.20001220703125</AltitudeMeters>
            <DistanceMeters>NAN</DistanceMeters>
          </Trackpoint>
          <Trackpoint>
            <Time>2020-03-07T17:03:24.000Z</Time>
            <Position>
              <LatitudeDegrees>40.7246974669396877288818359375</LatitudeDegrees>
              <LongitudeDegrees>-3.87029525823891162872314453125</LongitudeDegrees>
            </Position>
            <AltitudeMeters>916.20001220703125</AltitudeMeters>
            <DistanceMeters>NAN</DistanceMeters>
          </Trackpoint>
          <Trackpoint>
            <Time>2020-03-07T17:03:25.000Z</Time>
            <Position>
              <LatitudeDegrees>40.724723450839519500732421875</LatitudeDegrees>
              <LongitudeDegrees>-3.8702251017093658447265625</LongitudeDegrees>
            </Position>
            <AltitudeMeters>916.20001220703125</AltitudeMeters>
            <DistanceMeters>NAN</DistanceMeters>
          </Trackpoint>
          <Trackpoint>
            <Time>2020-03-07T17:03:26.000Z</Time>
            <Position>
              <LatitudeDegrees>40.72474851273000240325927734375</LatitudeDegrees>
              <LongitudeDegrees>-3.87015528045594692230224609375</LongitudeDegrees>
            </Position>
            <AltitudeMeters>916.20001220703125</AltitudeMeters>
            <DistanceMeters>NAN</DistanceMeters>
          </Trackpoint>
          <Trackpoint>
            <Time>2020-03-07T17:03:27.000Z</Time>
            <Position>
              <LatitudeDegrees>40.72477315552532672882080078125</LatitudeDegrees>
              <LongitudeDegrees>-3.870083950459957122802734375</LongitudeDegrees>
            </Position>
            <AltitudeMeters>916.20001220703125</AltitudeMeters>
            <DistanceMeters>NAN</DistanceMeters>
          </Trackpoint>
          <Trackpoint>
            <Time>2020-03-07T17:03:28.000Z</Time>
            <Position>
              <LatitudeDegrees>40.72479813359677791595458984375</LatitudeDegrees>
              <LongitudeDegrees>-3.8700120337307453155517578125</LongitudeDegrees>
            </Position>
            <AltitudeMeters>916.20001220703125</AltitudeMeters>
            <DistanceMeters>NAN</DistanceMeters>
          </Trackpoint>
          <Trackpoint>
            <Time>2020-03-07T17:03:29.000Z</Time>
            <Position>
              <LatitudeDegrees>40.7248215191066265106201171875</LatitudeDegrees>
              <LongitudeDegrees>-3.86994003318250179290771484375</LongitudeDegrees>
            </Position>
            <AltitudeMeters>916</AltitudeMeters>
            <DistanceMeters>NAN</DistanceMeters>
          </Trackpoint>
          <Trackpoint>
            <Time>2020-03-07T17:03:30.000Z</Time>
            <Position>
              <LatitudeDegrees>40.7248456589877605438232421875</LatitudeDegrees>
              <LongitudeDegrees>-3.869867362082004547119140625</LongitudeDegrees>
            </Position>
            <AltitudeMeters>916</AltitudeMeters>
            <DistanceMeters>NAN</DistanceMeters>
          </Trackpoint>
          <Trackpoint>
            <Time>2020-03-07T17:03:31.000Z</Time>
            <Position>
              <LatitudeDegrees>40.72486803866922855377197265625</LatitudeDegrees>
              <LongitudeDegrees>-3.86979469098150730133056640625</LongitudeDegrees>
            </Position>
            <AltitudeMeters>916</AltitudeMeters>
            <DistanceMeters>NAN</DistanceMeters>
          </Trackpoint>
          <Trackpoint>
            <Time>2020-03-07T17:03:32.000Z</Time>
            <Position>
              <LatitudeDegrees>40.72489184327423572540283203125</LatitudeDegrees>
              <LongitudeDegrees>-3.86972143314778804779052734375</LongitudeDegrees>
            </Position>
            <AltitudeMeters>916</AltitudeMeters>
            <DistanceMeters>NAN</DistanceMeters>
          </Trackpoint>
          <Trackpoint>
            <Time>2020-03-07T17:03:33.000Z</Time>
            <Position>
              <LatitudeDegrees>40.72491564787924289703369140625</LatitudeDegrees>
              <LongitudeDegrees>-3.869647085666656494140625</LongitudeDegrees>
            </Position>
            <AltitudeMeters>916</AltitudeMeters>
            <DistanceMeters>NAN</DistanceMeters>
          </Trackpoint>
          <Trackpoint>
            <Time>2020-03-07T17:03:34.000Z</Time>
            <Position>
              <LatitudeDegrees>40.72493643499910831451416015625</LatitudeDegrees>
              <LongitudeDegrees>-3.86957240290939807891845703125</LongitudeDegrees>
            </Position>
            <AltitudeMeters>916</AltitudeMeters>
            <DistanceMeters>NAN</DistanceMeters>
          </Trackpoint>
          <Trackpoint>
            <Time>2020-03-07T17:03:35.000Z</Time>
            <Position>
              <LatitudeDegrees>40.72495755739510059356689453125</LatitudeDegrees>
              <LongitudeDegrees>-3.86949713341891765594482421875</LongitudeDegrees>
            </Position>
            <AltitudeMeters>915.79998779296875</AltitudeMeters>
            <DistanceMeters>NAN</DistanceMeters>
          </Trackpoint>
          <Trackpoint>
            <Time>2020-03-07T17:03:36.000Z</Time>
            <Position>
              <LatitudeDegrees>40.72497817687690258026123046875</LatitudeDegrees>
              <LongitudeDegrees>-3.8694212771952152252197265625</LongitudeDegrees>
            </Position>
            <AltitudeMeters>915.5999755859375</AltitudeMeters>
            <DistanceMeters>NAN</DistanceMeters>
          </Trackpoint>
          <Trackpoint>
            <Time>2020-03-07T17:03:37.000Z</Time>
            <Position>
              <LatitudeDegrees>40.724996365606784820556640625</LatitudeDegrees>
              <LongitudeDegrees>-3.8693448342382907867431640625</LongitudeDegrees>
            </Position>
            <AltitudeMeters>915.5999755859375</AltitudeMeters>
            <DistanceMeters>NAN</DistanceMeters>
          </Trackpoint>
          <Trackpoint>
            <Time>2020-03-07T17:03:38.000Z</Time>
            <Position>
              <LatitudeDegrees>40.72501547634601593017578125</LatitudeDegrees>
              <LongitudeDegrees>-3.869266547262668609619140625</LongitudeDegrees>
            </Position>
            <AltitudeMeters>915.4000244140625</AltitudeMeters>
            <DistanceMeters>NAN</DistanceMeters>
          </Trackpoint>
          <Trackpoint>
            <Time>2020-03-07T17:03:39.000Z</Time>
            <Position>
              <LatitudeDegrees>40.725031904876232147216796875</LatitudeDegrees>
              <LongitudeDegrees>-3.86918448843061923980712890625</LongitudeDegrees>
            </Position>
            <AltitudeMeters>915.4000244140625</AltitudeMeters>
            <DistanceMeters>NAN</DistanceMeters>
          </Trackpoint>
          <Trackpoint>
            <Time>2020-03-07T17:03:40.000Z</Time>
            <Position>
              <LatitudeDegrees>40.72504623793065547943115234375</LatitudeDegrees>
              <LongitudeDegrees>-3.8690980710089206695556640625</LongitudeDegrees>
            </Position>
            <AltitudeMeters>915.4000244140625</AltitudeMeters>
            <DistanceMeters>NAN</DistanceMeters>
          </Trackpoint>
          <Trackpoint>
            <Time>2020-03-07T17:03:41.000Z</Time>
            <Position>
              <LatitudeDegrees>40.7250585593283176422119140625</LatitudeDegrees>
              <LongitudeDegrees>-3.8690085522830486297607421875</LongitudeDegrees>
            </Position>
            <AltitudeMeters>915.4000244140625</AltitudeMeters>
            <DistanceMeters>NAN</DistanceMeters>
          </Trackpoint>
          <Trackpoint>
            <Time>2020-03-07T17:03:42.000Z</Time>
            <Position>
              <LatitudeDegrees>40.7250682823359966278076171875</LatitudeDegrees>
              <LongitudeDegrees>-3.8689148426055908203125</LongitudeDegrees>
            </Position>
            <AltitudeMeters>915.20001220703125</AltitudeMeters>
            <DistanceMeters>NAN</DistanceMeters>
          </Trackpoint>
          <Trackpoint>
            <Time>2020-03-07T17:03:43.000Z</Time>
            <Position>
              <LatitudeDegrees>40.72507389821112155914306640625</LatitudeDegrees>
              <LongitudeDegrees>-3.868819288909435272216796875</LongitudeDegrees>
            </Position>
            <AltitudeMeters>915.20001220703125</AltitudeMeters>
            <DistanceMeters>NAN</DistanceMeters>
          </Trackpoint>
          <Trackpoint>
            <Time>2020-03-07T17:03:44.000Z</Time>
            <Position>
              <LatitudeDegrees>40.725075490772724151611328125</LatitudeDegrees>
              <LongitudeDegrees>-3.86872063390910625457763671875</LongitudeDegrees>
            </Position>
            <AltitudeMeters>915.20001220703125</AltitudeMeters>
            <DistanceMeters>NAN</DistanceMeters>
          </Trackpoint>
          <Trackpoint>
            <Time>2020-03-07T17:03:45.000Z</Time>
            <Position>
              <LatitudeDegrees>40.725071467459201812744140625</LatitudeDegrees>
              <LongitudeDegrees>-3.8686192966997623443603515625</LongitudeDegrees>
            </Position>
            <AltitudeMeters>914.5999755859375</AltitudeMeters>
            <DistanceMeters>NAN</DistanceMeters>
          </Trackpoint>
          <Trackpoint>
            <Time>2020-03-07T17:03:46.000Z</Time>
            <Position>
              <LatitudeDegrees>40.7250552065670490264892578125</LatitudeDegrees>
              <LongitudeDegrees>-3.8685163669288158416748046875</LongitudeDegrees>
            </Position>
            <AltitudeMeters>914.4000244140625</AltitudeMeters>
            <DistanceMeters>NAN</DistanceMeters>
          </Trackpoint>
          <Trackpoint>
            <Time>2020-03-07T17:03:47.000Z</Time>
            <Position>
              <LatitudeDegrees>40.7250270433723926544189453125</LatitudeDegrees>
              <LongitudeDegrees>-3.8684141077101230621337890625</LongitudeDegrees>
            </Position>
            <AltitudeMeters>914</AltitudeMeters>
            <DistanceMeters>NAN</DistanceMeters>
          </Trackpoint>
          <Trackpoint>
            <Time>2020-03-07T17:03:48.000Z</Time>
            <Position>
              <LatitudeDegrees>40.72499292902648448944091796875</LatitudeDegrees>
              <LongitudeDegrees>-3.86830925010144710540771484375</LongitudeDegrees>
            </Position>
            <AltitudeMeters>913.5999755859375</AltitudeMeters>
            <DistanceMeters>NAN</DistanceMeters>
          </Trackpoint>
          <Trackpoint>
            <Time>2020-03-07T17:03:49.000Z</Time>
            <Position>
              <LatitudeDegrees>40.7249656878411769866943359375</LatitudeDegrees>
              <LongitudeDegrees>-3.868202380836009979248046875</LongitudeDegrees>
            </Position>
            <AltitudeMeters>913.20001220703125</AltitudeMeters>
            <DistanceMeters>NAN</DistanceMeters>
          </Trackpoint>
          <Trackpoint>
            <Time>2020-03-07T17:03:50.000Z</Time>
            <Position>
              <LatitudeDegrees>40.7249492593109607696533203125</LatitudeDegrees>
              <LongitudeDegrees>-3.8680900633335113525390625</LongitudeDegrees>
            </Position>
            <AltitudeMeters>912.79998779296875</AltitudeMeters>
            <DistanceMeters>NAN</DistanceMeters>
          </Trackpoint>
          <Trackpoint>
            <Time>2020-03-07T17:03:51.000Z</Time>
            <Position>
              <LatitudeDegrees>40.72495034895837306976318359375</LatitudeDegrees>
              <LongitudeDegrees>-3.86797665618360042572021484375</LongitudeDegrees>
            </Position>
            <AltitudeMeters>912.4000244140625</AltitudeMeters>
            <DistanceMeters>NAN</DistanceMeters>
          </Trackpoint>
          <Trackpoint>
            <Time>2020-03-07T17:03:52.000Z</Time>
            <Position>
              <LatitudeDegrees>40.72496962733566761016845703125</LatitudeDegrees>
              <LongitudeDegrees>-3.86786970309913158416748046875</LongitudeDegrees>
            </Position>
            <AltitudeMeters>911.79998779296875</AltitudeMeters>
            <DistanceMeters>NAN</DistanceMeters>
          </Trackpoint>
          <Trackpoint>
            <Time>2020-03-07T17:03:53.000Z</Time>
            <Position>
              <LatitudeDegrees>40.7249982096254825592041015625</LatitudeDegrees>
              <LongitudeDegrees>-3.867765851318836212158203125</LongitudeDegrees>
            </Position>
            <AltitudeMeters>911.20001220703125</AltitudeMeters>
            <DistanceMeters>NAN</DistanceMeters>
          </Trackpoint>
          <Trackpoint>
            <Time>2020-03-07T17:03:54.000Z</Time>
            <Position>
              <LatitudeDegrees>40.725027881562709808349609375</LatitudeDegrees>
              <LongitudeDegrees>-3.867662586271762847900390625</LongitudeDegrees>
            </Position>
            <AltitudeMeters>910.79998779296875</AltitudeMeters>
            <DistanceMeters>NAN</DistanceMeters>
          </Trackpoint>
          <Trackpoint>
            <Time>2020-03-07T17:03:55.000Z</Time>
            <Position>
              <LatitudeDegrees>40.72505227290093898773193359375</LatitudeDegrees>
              <LongitudeDegrees>-3.8675584830343723297119140625</LongitudeDegrees>
            </Position>
            <AltitudeMeters>910.4000244140625</AltitudeMeters>
            <DistanceMeters>NAN</DistanceMeters>
          </Trackpoint>
          <Trackpoint>
            <Time>2020-03-07T17:03:56.000Z</Time>
            <Position>
              <LatitudeDegrees>40.72507121600210666656494140625</LatitudeDegrees>
              <LongitudeDegrees>-3.86745370924472808837890625</LongitudeDegrees>
            </Position>
            <AltitudeMeters>910</AltitudeMeters>
            <DistanceMeters>NAN</DistanceMeters>
          </Trackpoint>
          <Trackpoint>
            <Time>2020-03-07T17:03:57.000Z</Time>
            <Position>
              <LatitudeDegrees>40.72508546523749828338623046875</LatitudeDegrees>
              <LongitudeDegrees>-3.8673465885221958160400390625</LongitudeDegrees>
            </Position>
            <AltitudeMeters>909.5999755859375</AltitudeMeters>
            <DistanceMeters>NAN</DistanceMeters>
          </Trackpoint>
          <Trackpoint>
            <Time>2020-03-07T17:03:58.000Z</Time>
            <Position>
              <LatitudeDegrees>40.72509594261646270751953125</LatitudeDegrees>
              <LongitudeDegrees>-3.86723921634256839752197265625</LongitudeDegrees>
            </Position>
            <AltitudeMeters>908.79998779296875</AltitudeMeters>
            <DistanceMeters>NAN</DistanceMeters>
          </Trackpoint>
          <Trackpoint>
            <Time>2020-03-07T17:03:59.000Z</Time>
            <Position>
              <LatitudeDegrees>40.725104324519634246826171875</LatitudeDegrees>
              <LongitudeDegrees>-3.86713259853422641754150390625</LongitudeDegrees>
            </Position>
            <AltitudeMeters>908</AltitudeMeters>
            <DistanceMeters>NAN</DistanceMeters>
          </Trackpoint>
          <Trackpoint>
            <Time>2020-03-07T17:04:00.000Z</Time>
            <Position>
              <LatitudeDegrees>40.7251095212996006011962890625</LatitudeDegrees>
              <LongitudeDegrees>-3.86702380143105983734130859375</LongitudeDegrees>
            </Position>
            <AltitudeMeters>907.4000244140625</AltitudeMeters>
            <DistanceMeters>NAN</DistanceMeters>
          </Trackpoint>
          <Trackpoint>
            <Time>2020-03-07T17:04:01.000Z</Time>
            <Position>
              <LatitudeDegrees>40.7251138798892498016357421875</LatitudeDegrees>
              <LongitudeDegrees>-3.86691316030919551849365234375</LongitudeDegrees>
            </Position>
            <AltitudeMeters>907.20001220703125</AltitudeMeters>
            <DistanceMeters>NAN</DistanceMeters>
          </Trackpoint>
          <Trackpoint>
            <Time>2020-03-07T17:04:02.000Z</Time>
            <Position>
              <LatitudeDegrees>40.7251168973743915557861328125</LatitudeDegrees>
              <LongitudeDegrees>-3.866801597177982330322265625</LongitudeDegrees>
            </Position>
            <AltitudeMeters>906.79998779296875</AltitudeMeters>
            <DistanceMeters>NAN</DistanceMeters>
          </Trackpoint>
          <Trackpoint>
            <Time>2020-03-07T17:04:03.000Z</Time>
            <Position>
              <LatitudeDegrees>40.72511740028858184814453125</LatitudeDegrees>
              <LongitudeDegrees>-3.86669003404676914215087890625</LongitudeDegrees>
            </Position>
            <AltitudeMeters>906.5999755859375</AltitudeMeters>
            <DistanceMeters>NAN</DistanceMeters>
          </Trackpoint>
          <Trackpoint>
            <Time>2020-03-07T17:04:04.000Z</Time>
            <Position>
              <LatitudeDegrees>40.725116394460201263427734375</LatitudeDegrees>
              <LongitudeDegrees>-3.86657604016363620758056640625</LongitudeDegrees>
            </Position>
            <AltitudeMeters>906.4000244140625</AltitudeMeters>
            <DistanceMeters>NAN</DistanceMeters>
          </Trackpoint>
          <Trackpoint>
            <Time>2020-03-07T17:04:05.000Z</Time>
            <Position>
              <LatitudeDegrees>40.72511681355535984039306640625</LatitudeDegrees>
              <LongitudeDegrees>-3.8664604537189006805419921875</LongitudeDegrees>
            </Position>
            <AltitudeMeters>906.20001220703125</AltitudeMeters>
            <DistanceMeters>NAN</DistanceMeters>
          </Trackpoint>
          <Trackpoint>
            <Time>2020-03-07T17:04:06.000Z</Time>
            <Position>
              <LatitudeDegrees>40.725117065012454986572265625</LatitudeDegrees>
              <LongitudeDegrees>-3.8663457892835140228271484375</LongitudeDegrees>
            </Position>
            <AltitudeMeters>906</AltitudeMeters>
            <DistanceMeters>NAN</DistanceMeters>
          </Trackpoint>
          <Trackpoint>
            <Time>2020-03-07T17:04:07.000Z</Time>
            <Position>
              <LatitudeDegrees>40.72511765174567699432373046875</LatitudeDegrees>
              <LongitudeDegrees>-3.8662358187139034271240234375</LongitudeDegrees>
            </Position>
            <AltitudeMeters>905.79998779296875</AltitudeMeters>
            <DistanceMeters>NAN</DistanceMeters>
          </Trackpoint>
          <Trackpoint>
            <Time>2020-03-07T17:04:08.000Z</Time>
            <Position>
              <LatitudeDegrees>40.7251182384788990020751953125</LatitudeDegrees>
              <LongitudeDegrees>-3.86612609960138797760009765625</LongitudeDegrees>
            </Position>
            <AltitudeMeters>905.5999755859375</AltitudeMeters>
            <DistanceMeters>NAN</DistanceMeters>
          </Trackpoint>
          <Trackpoint>
            <Time>2020-03-07T17:04:09.000Z</Time>
            <Position>
              <LatitudeDegrees>40.7251180708408355712890625</LatitudeDegrees>
              <LongitudeDegrees>-3.86601529084146022796630859375</LongitudeDegrees>
            </Position>
            <AltitudeMeters>905.4000244140625</AltitudeMeters>
            <DistanceMeters>NAN</DistanceMeters>
          </Trackpoint>
          <Trackpoint>
            <Time>2020-03-07T17:04:10.000Z</Time>
            <Position>
              <LatitudeDegrees>40.72511848993599414825439453125</LatitudeDegrees>
              <LongitudeDegrees>-3.86590464971959590911865234375</LongitudeDegrees>
            </Position>
            <AltitudeMeters>905.20001220703125</AltitudeMeters>
            <DistanceMeters>NAN</DistanceMeters>
          </Trackpoint>
          <Trackpoint>
            <Time>2020-03-07T17:04:11.000Z</Time>
            <Position>
              <LatitudeDegrees>40.72511899285018444061279296875</LatitudeDegrees>
              <LongitudeDegrees>-3.86579350568354129791259765625</LongitudeDegrees>
            </Position>
            <AltitudeMeters>905</AltitudeMeters>
            <DistanceMeters>NAN</DistanceMeters>
          </Trackpoint>
          <Trackpoint>
            <Time>2020-03-07T17:04:12.000Z</Time>
            <Position>
              <LatitudeDegrees>40.7251192443072795867919921875</LatitudeDegrees>
              <LongitudeDegrees>-3.86568219400942325592041015625</LongitudeDegrees>
            </Position>
            <AltitudeMeters>904.5999755859375</AltitudeMeters>
            <DistanceMeters>NAN</DistanceMeters>
          </Trackpoint>
          <Trackpoint>
            <Time>2020-03-07T17:04:13.000Z</Time>
            <Position>
              <LatitudeDegrees>40.7251179032027721405029296875</LatitudeDegrees>
              <LongitudeDegrees>-3.8655723072588443756103515625</LongitudeDegrees>
            </Position>
            <AltitudeMeters>904.20001220703125</AltitudeMeters>
            <DistanceMeters>NAN</DistanceMeters>
          </Trackpoint>
          <Trackpoint>
            <Time>2020-03-07T17:04:14.000Z</Time>
            <Position>
              <LatitudeDegrees>40.72511614300310611724853515625</LatitudeDegrees>
              <LongitudeDegrees>-3.8654623366892337799072265625</LongitudeDegrees>
            </Position>
            <AltitudeMeters>904</AltitudeMeters>
            <DistanceMeters>NAN</DistanceMeters>
          </Trackpoint>
          <Trackpoint>
            <Time>2020-03-07T17:04:15.000Z</Time>
            <Position>
              <LatitudeDegrees>40.7251155562698841094970703125</LatitudeDegrees>
              <LongitudeDegrees>-3.8653516955673694610595703125</LongitudeDegrees>
            </Position>
            <AltitudeMeters>903.79998779296875</AltitudeMeters>
            <DistanceMeters>NAN</DistanceMeters>
          </Trackpoint>
          <Trackpoint>
            <Time>2020-03-07T17:04:16.000Z</Time>
            <Position>
              <LatitudeDegrees>40.72511647827923297882080078125</LatitudeDegrees>
              <LongitudeDegrees>-3.86524356901645660400390625</LongitudeDegrees>
            </Position>
            <AltitudeMeters>903.5999755859375</AltitudeMeters>
            <DistanceMeters>NAN</DistanceMeters>
          </Trackpoint>
          <Trackpoint>
            <Time>2020-03-07T17:04:17.000Z</Time>
            <Position>
              <LatitudeDegrees>40.72511681355535984039306640625</LatitudeDegrees>
              <LongitudeDegrees>-3.86513401754200458526611328125</LongitudeDegrees>
            </Position>
            <AltitudeMeters>903.4000244140625</AltitudeMeters>
            <DistanceMeters>NAN</DistanceMeters>
          </Trackpoint>
          <Trackpoint>
            <Time>2020-03-07T17:04:18.000Z</Time>
            <Position>
              <LatitudeDegrees>40.725119076669216156005859375</LatitudeDegrees>
              <LongitudeDegrees>-3.865025974810123443603515625</LongitudeDegrees>
            </Position>
            <AltitudeMeters>903.4000244140625</AltitudeMeters>
            <DistanceMeters>NAN</DistanceMeters>
          </Trackpoint>
          <Trackpoint>
            <Time>2020-03-07T17:04:19.000Z</Time>
            <Position>
              <LatitudeDegrees>40.7251207530498504638671875</LatitudeDegrees>
              <LongitudeDegrees>-3.86491893790662288665771484375</LongitudeDegrees>
            </Position>
            <AltitudeMeters>903.4000244140625</AltitudeMeters>
            <DistanceMeters>NAN</DistanceMeters>
          </Trackpoint>
          <Trackpoint>
            <Time>2020-03-07T17:04:20.000Z</Time>
            <Position>
              <LatitudeDegrees>40.72512117214500904083251953125</LatitudeDegrees>
              <LongitudeDegrees>-3.8648125715553760528564453125</LongitudeDegrees>
            </Position>
            <AltitudeMeters>903.20001220703125</AltitudeMeters>
            <DistanceMeters>NAN</DistanceMeters>
          </Trackpoint>
          <Trackpoint>
            <Time>2020-03-07T17:04:21.000Z</Time>
            <Position>
              <LatitudeDegrees>40.72512251324951648712158203125</LatitudeDegrees>
              <LongitudeDegrees>-3.86470712721347808837890625</LongitudeDegrees>
            </Position>
            <AltitudeMeters>903</AltitudeMeters>
            <DistanceMeters>NAN</DistanceMeters>
          </Trackpoint>
          <Trackpoint>
            <Time>2020-03-07T17:04:22.000Z</Time>
            <Position>
              <LatitudeDegrees>40.72512318380177021026611328125</LatitudeDegrees>
              <LongitudeDegrees>-3.86460260488092899322509765625</LongitudeDegrees>
            </Position>
            <AltitudeMeters>903</AltitudeMeters>
            <DistanceMeters>NAN</DistanceMeters>
          </Trackpoint>
          <Trackpoint>
            <Time>2020-03-07T17:04:23.000Z</Time>
            <Position>
              <LatitudeDegrees>40.72512402199208736419677734375</LatitudeDegrees>
              <LongitudeDegrees>-3.86449699290096759796142578125</LongitudeDegrees>
            </Position>
            <AltitudeMeters>902.79998779296875</AltitudeMeters>
            <DistanceMeters>NAN</DistanceMeters>
          </Trackpoint>
          <Trackpoint>
            <Time>2020-03-07T17:04:24.000Z</Time>
            <Position>
              <LatitudeDegrees>40.72512410581111907958984375</LatitudeDegrees>
              <LongitudeDegrees>-3.86439054273068904876708984375</LongitudeDegrees>
            </Position>
            <AltitudeMeters>902.79998779296875</AltitudeMeters>
            <DistanceMeters>NAN</DistanceMeters>
          </Trackpoint>
          <Trackpoint>
            <Time>2020-03-07T17:04:25.000Z</Time>
            <Position>
              <LatitudeDegrees>40.7251239381730556488037109375</LatitudeDegrees>
              <LongitudeDegrees>-3.864283673465251922607421875</LongitudeDegrees>
            </Position>
            <AltitudeMeters>902.5999755859375</AltitudeMeters>
            <DistanceMeters>NAN</DistanceMeters>
          </Trackpoint>
          <Trackpoint>
            <Time>2020-03-07T17:04:26.000Z</Time>
            <Position>
              <LatitudeDegrees>40.72512418963015079498291015625</LatitudeDegrees>
              <LongitudeDegrees>-3.86417797766625881195068359375</LongitudeDegrees>
            </Position>
            <AltitudeMeters>902.5999755859375</AltitudeMeters>
            <DistanceMeters>NAN</DistanceMeters>
          </Trackpoint>
          <Trackpoint>
            <Time>2020-03-07T17:04:27.000Z</Time>
            <Position>
              <LatitudeDegrees>40.72512486018240451812744140625</LatitudeDegrees>
              <LongitudeDegrees>-3.86407270096242427825927734375</LongitudeDegrees>
            </Position>
            <AltitudeMeters>902.5999755859375</AltitudeMeters>
            <DistanceMeters>NAN</DistanceMeters>
          </Trackpoint>
          <Trackpoint>
            <Time>2020-03-07T17:04:28.000Z</Time>
            <Position>
              <LatitudeDegrees>40.72512435726821422576904296875</LatitudeDegrees>
              <LongitudeDegrees>-3.863969184458255767822265625</LongitudeDegrees>
            </Position>
            <AltitudeMeters>902.4000244140625</AltitudeMeters>
            <DistanceMeters>NAN</DistanceMeters>
          </Trackpoint>
          <Trackpoint>
            <Time>2020-03-07T17:04:29.000Z</Time>
            <Position>
              <LatitudeDegrees>40.72512368671596050262451171875</LatitudeDegrees>
              <LongitudeDegrees>-3.8638677634298801422119140625</LongitudeDegrees>
            </Position>
            <AltitudeMeters>902.4000244140625</AltitudeMeters>
            <DistanceMeters>NAN</DistanceMeters>
          </Trackpoint>
          <Trackpoint>
            <Time>2020-03-07T17:04:30.000Z</Time>
            <Position>
              <LatitudeDegrees>40.72512268088757991790771484375</LatitudeDegrees>
              <LongitudeDegrees>-3.86376701295375823974609375</LongitudeDegrees>
            </Position>
            <AltitudeMeters>902.4000244140625</AltitudeMeters>
            <DistanceMeters>NAN</DistanceMeters>
          </Trackpoint>
          <Trackpoint>
            <Time>2020-03-07T17:04:31.000Z</Time>
            <Position>
              <LatitudeDegrees>40.72512486018240451812744140625</LatitudeDegrees>
              <LongitudeDegrees>-3.8636662624776363372802734375</LongitudeDegrees>
            </Position>
            <AltitudeMeters>902.4000244140625</AltitudeMeters>
            <DistanceMeters>NAN</DistanceMeters>
          </Trackpoint>
          <Trackpoint>
            <Time>2020-03-07T17:04:32.000Z</Time>
            <Position>
              <LatitudeDegrees>40.72512854821979999542236328125</LatitudeDegrees>
              <LongitudeDegrees>-3.8635676912963390350341796875</LongitudeDegrees>
            </Position>
            <AltitudeMeters>902.4000244140625</AltitudeMeters>
            <DistanceMeters>NAN</DistanceMeters>
          </Trackpoint>
          <Trackpoint>
            <Time>2020-03-07T17:04:33.000Z</Time>
            <Position>
              <LatitudeDegrees>40.725135505199432373046875</LatitudeDegrees>
              <LongitudeDegrees>-3.8634707964956760406494140625</LongitudeDegrees>
            </Position>
            <AltitudeMeters>902.4000244140625</AltitudeMeters>
            <DistanceMeters>NAN</DistanceMeters>
          </Trackpoint>
          <Trackpoint>
            <Time>2020-03-07T17:04:34.000Z</Time>
            <Position>
              <LatitudeDegrees>40.72514430619776248931884765625</LatitudeDegrees>
              <LongitudeDegrees>-3.863375075161457061767578125</LongitudeDegrees>
            </Position>
            <AltitudeMeters>902.20001220703125</AltitudeMeters>
            <DistanceMeters>NAN</DistanceMeters>
          </Trackpoint>
          <Trackpoint>
            <Time>2020-03-07T17:04:35.000Z</Time>
            <Position>
              <LatitudeDegrees>40.725156962871551513671875</LatitudeDegrees>
              <LongitudeDegrees>-3.8632810302078723907470703125</LongitudeDegrees>
            </Position>
            <AltitudeMeters>902.20001220703125</AltitudeMeters>
            <DistanceMeters>NAN</DistanceMeters>
          </Trackpoint>
          <Trackpoint>
            <Time>2020-03-07T17:04:36.000Z</Time>
            <Position>
              <LatitudeDegrees>40.72517196647822856903076171875</LatitudeDegrees>
              <LongitudeDegrees>-3.86318723671138286590576171875</LongitudeDegrees>
            </Position>
            <AltitudeMeters>902.20001220703125</AltitudeMeters>
            <DistanceMeters>NAN</DistanceMeters>
          </Trackpoint>
          <Trackpoint>
            <Time>2020-03-07T17:04:37.000Z</Time>
            <Position>
              <LatitudeDegrees>40.725188814103603363037109375</LatitudeDegrees>
              <LongitudeDegrees>-3.86309486813843250274658203125</LongitudeDegrees>
            </Position>
            <AltitudeMeters>902</AltitudeMeters>
            <DistanceMeters>NAN</DistanceMeters>
          </Trackpoint>
          <Trackpoint>
            <Time>2020-03-07T17:04:38.000Z</Time>
            <Position>
              <LatitudeDegrees>40.725209601223468780517578125</LatitudeDegrees>
              <LongitudeDegrees>-3.8630007393658161163330078125</LongitudeDegrees>
            </Position>
            <AltitudeMeters>902</AltitudeMeters>
            <DistanceMeters>NAN</DistanceMeters>
          </Trackpoint>
          <Trackpoint>
            <Time>2020-03-07T17:04:39.000Z</Time>
            <Position>
              <LatitudeDegrees>40.72523131035268306732177734375</LatitudeDegrees>
              <LongitudeDegrees>-3.862909041345119476318359375</LongitudeDegrees>
            </Position>
            <AltitudeMeters>902</AltitudeMeters>
            <DistanceMeters>NAN</DistanceMeters>
          </Trackpoint>
          <Trackpoint>
            <Time>2020-03-07T17:04:40.000Z</Time>
            <Position>
              <LatitudeDegrees>40.7252557016909122467041015625</LatitudeDegrees>
              <LongitudeDegrees>-3.8628170080482959747314453125</LongitudeDegrees>
            </Position>
            <AltitudeMeters>902</AltitudeMeters>
            <DistanceMeters>NAN</DistanceMeters>
          </Trackpoint>
          <Trackpoint>
            <Time>2020-03-07T17:04:41.000Z</Time>
            <Position>
              <LatitudeDegrees>40.72528109885752201080322265625</LatitudeDegrees>
              <LongitudeDegrees>-3.862725310027599334716796875</LongitudeDegrees>
            </Position>
            <AltitudeMeters>902</AltitudeMeters>
            <DistanceMeters>NAN</DistanceMeters>
          </Trackpoint>
          <Trackpoint>
            <Time>2020-03-07T17:04:42.000Z</Time>
            <Position>
              <LatitudeDegrees>40.725308842957019805908203125</LatitudeDegrees>
              <LongitudeDegrees>-3.8626349531114101409912109375</LongitudeDegrees>
            </Position>
            <AltitudeMeters>902</AltitudeMeters>
            <DistanceMeters>NAN</DistanceMeters>
          </Trackpoint>
          <Trackpoint>
            <Time>2020-03-07T17:04:43.000Z</Time>
            <Position>
              <LatitudeDegrees>40.72533776052296161651611328125</LatitudeDegrees>
              <LongitudeDegrees>-3.86254535056650638580322265625</LongitudeDegrees>
            </Position>
            <AltitudeMeters>902</AltitudeMeters>
            <DistanceMeters>NAN</DistanceMeters>
          </Trackpoint>
          <Trackpoint>
            <Time>2020-03-07T17:04:44.000Z</Time>
            <Position>
              <LatitudeDegrees>40.7253703661262989044189453125</LatitudeDegrees>
              <LongitudeDegrees>-3.86245750822126865386962890625</LongitudeDegrees>
            </Position>
            <AltitudeMeters>902</AltitudeMeters>
            <DistanceMeters>NAN</DistanceMeters>
          </Trackpoint>
          <Trackpoint>
            <Time>2020-03-07T17:04:45.000Z</Time>
            <Position>
              <LatitudeDegrees>40.72540213353931903839111328125</LatitudeDegrees>
              <LongitudeDegrees>-3.86237335391342639923095703125</LongitudeDegrees>
            </Position>
            <AltitudeMeters>902</AltitudeMeters>
            <DistanceMeters>NAN</DistanceMeters>
          </Trackpoint>
          <Trackpoint>
            <Time>2020-03-07T17:04:46.000Z</Time>
            <Position>
              <LatitudeDegrees>40.72543633170425891876220703125</LatitudeDegrees>
              <LongitudeDegrees>-3.8622896187007427215576171875</LongitudeDegrees>
            </Position>
            <AltitudeMeters>902</AltitudeMeters>
            <DistanceMeters>NAN</DistanceMeters>
          </Trackpoint>
          <Trackpoint>
            <Time>2020-03-07T17:04:47.000Z</Time>
            <Position>
              <LatitudeDegrees>40.7254732958972454071044921875</LatitudeDegrees>
              <LongitudeDegrees>-3.86220395565032958984375</LongitudeDegrees>
            </Position>
            <AltitudeMeters>902</AltitudeMeters>
            <DistanceMeters>NAN</DistanceMeters>
          </Trackpoint>
          <Trackpoint>
            <Time>2020-03-07T17:04:48.000Z</Time>
            <Position>
              <LatitudeDegrees>40.7255098409950733184814453125</LatitudeDegrees>
              <LongitudeDegrees>-3.86212089098989963531494140625</LongitudeDegrees>
            </Position>
            <AltitudeMeters>902</AltitudeMeters>
            <DistanceMeters>NAN</DistanceMeters>
          </Trackpoint>
          <Trackpoint>
            <Time>2020-03-07T17:04:49.000Z</Time>
            <Position>
              <LatitudeDegrees>40.72554714046418666839599609375</LatitudeDegrees>
              <LongitudeDegrees>-3.86204243637621402740478515625</LongitudeDegrees>
            </Position>
            <AltitudeMeters>902</AltitudeMeters>
            <DistanceMeters>NAN</DistanceMeters>
          </Trackpoint>
          <Trackpoint>
            <Time>2020-03-07T17:04:50.000Z</Time>
            <Position>
              <LatitudeDegrees>40.72558402083814144134521484375</LatitudeDegrees>
              <LongitudeDegrees>-3.861967585980892181396484375</LongitudeDegrees>
            </Position>
            <AltitudeMeters>902</AltitudeMeters>
            <DistanceMeters>NAN</DistanceMeters>
          </Trackpoint>
          <Trackpoint>
            <Time>2020-03-07T17:04:51.000Z</Time>
            <Position>
              <LatitudeDegrees>40.725623667240142822265625</LatitudeDegrees>
              <LongitudeDegrees>-3.86189751327037811279296875</LongitudeDegrees>
            </Position>
            <AltitudeMeters>902.20001220703125</AltitudeMeters>
            <DistanceMeters>NAN</DistanceMeters>
          </Trackpoint>
          <Trackpoint>
            <Time>2020-03-07T17:04:52.000Z</Time>
            <Position>
              <LatitudeDegrees>40.72566180489957332611083984375</LatitudeDegrees>
              <LongitudeDegrees>-3.86183121241629123687744140625</LongitudeDegrees>
            </Position>
            <AltitudeMeters>902.20001220703125</AltitudeMeters>
            <DistanceMeters>NAN</DistanceMeters>
          </Trackpoint>
          <Trackpoint>
            <Time>2020-03-07T17:04:53.000Z</Time>
            <Position>
              <LatitudeDegrees>40.72570078074932098388671875</LatitudeDegrees>
              <LongitudeDegrees>-3.86176616884768009185791015625</LongitudeDegrees>
            </Position>
            <AltitudeMeters>902.4000244140625</AltitudeMeters>
            <DistanceMeters>NAN</DistanceMeters>
          </Trackpoint>
          <Trackpoint>
            <Time>2020-03-07T17:04:54.000Z</Time>
            <Position>
              <LatitudeDegrees>40.7257388345897197723388671875</LatitudeDegrees>
              <LongitudeDegrees>-3.8617035560309886932373046875</LongitudeDegrees>
            </Position>
            <AltitudeMeters>902.5999755859375</AltitudeMeters>
            <DistanceMeters>NAN</DistanceMeters>
          </Trackpoint>
          <Trackpoint>
            <Time>2020-03-07T17:04:55.000Z</Time>
            <Position>
              <LatitudeDegrees>40.7257778942584991455078125</LatitudeDegrees>
              <LongitudeDegrees>-3.86164261959493160247802734375</LongitudeDegrees>
            </Position>
            <AltitudeMeters>902.5999755859375</AltitudeMeters>
            <DistanceMeters>NAN</DistanceMeters>
          </Trackpoint>
          <Trackpoint>
            <Time>2020-03-07T17:04:56.000Z</Time>
            <Position>
              <LatitudeDegrees>40.725814439356327056884765625</LatitudeDegrees>
              <LongitudeDegrees>-3.86158713139593601226806640625</LongitudeDegrees>
            </Position>
            <AltitudeMeters>902.79998779296875</AltitudeMeters>
            <DistanceMeters>NAN</DistanceMeters>
          </Trackpoint>
          <Trackpoint>
            <Time>2020-03-07T17:04:57.000Z</Time>
            <Position>
              <LatitudeDegrees>40.72585408575832843780517578125</LatitudeDegrees>
              <LongitudeDegrees>-3.8615325652062892913818359375</LongitudeDegrees>
            </Position>
            <AltitudeMeters>903.20001220703125</AltitudeMeters>
            <DistanceMeters>NAN</DistanceMeters>
          </Trackpoint>
          <Trackpoint>
            <Time>2020-03-07T17:04:58.000Z</Time>
            <Position>
              <LatitudeDegrees>40.7258932292461395263671875</LatitudeDegrees>
              <LongitudeDegrees>-3.86148051358759403228759765625</LongitudeDegrees>
            </Position>
            <AltitudeMeters>903.4000244140625</AltitudeMeters>
            <DistanceMeters>NAN</DistanceMeters>
          </Trackpoint>
          <Trackpoint>
            <Time>2020-03-07T17:04:59.000Z</Time>
            <Position>
              <LatitudeDegrees>40.72593413293361663818359375</LatitudeDegrees>
              <LongitudeDegrees>-3.86142686940729618072509765625</LongitudeDegrees>
            </Position>
            <AltitudeMeters>903.4000244140625</AltitudeMeters>
            <DistanceMeters>NAN</DistanceMeters>
          </Trackpoint>
          <Trackpoint>
            <Time>2020-03-07T17:05:00.000Z</Time>
            <Position>
              <LatitudeDegrees>40.7259755395352840423583984375</LatitudeDegrees>
              <LongitudeDegrees>-3.86137775145471096038818359375</LongitudeDegrees>
            </Position>
            <AltitudeMeters>903.5999755859375</AltitudeMeters>
            <DistanceMeters>NAN</DistanceMeters>
          </Trackpoint>
          <Trackpoint>
            <Time>2020-03-07T17:05:01.000Z</Time>
            <Position>
              <LatitudeDegrees>40.72601719759404659271240234375</LatitudeDegrees>
              <LongitudeDegrees>-3.8613320700824260711669921875</LongitudeDegrees>
            </Position>
            <AltitudeMeters>903.5999755859375</AltitudeMeters>
            <DistanceMeters>NAN</DistanceMeters>
          </Trackpoint>
          <Trackpoint>
            <Time>2020-03-07T17:05:02.000Z</Time>
            <Position>
              <LatitudeDegrees>40.7260586880147457122802734375</LatitudeDegrees>
              <LongitudeDegrees>-3.86128705926239490509033203125</LongitudeDegrees>
            </Position>
            <AltitudeMeters>904</AltitudeMeters>
            <DistanceMeters>NAN</DistanceMeters>
          </Trackpoint>
          <Trackpoint>
            <Time>2020-03-07T17:05:03.000Z</Time>
            <Position>
              <LatitudeDegrees>40.72610168717801570892333984375</LatitudeDegrees>
              <LongitudeDegrees>-3.86124280281364917755126953125</LongitudeDegrees>
            </Position>
            <AltitudeMeters>904.4000244140625</AltitudeMeters>
            <DistanceMeters>NAN</DistanceMeters>
          </Trackpoint>
          <Trackpoint>
            <Time>2020-03-07T17:05:04.000Z</Time>
            <Position>
              <LatitudeDegrees>40.72614259086549282073974609375</LatitudeDegrees>
              <LongitudeDegrees>-3.86119921691715717315673828125</LongitudeDegrees>
            </Position>
            <AltitudeMeters>904.5999755859375</AltitudeMeters>
            <DistanceMeters>NAN</DistanceMeters>
          </Trackpoint>
          <Trackpoint>
            <Time>2020-03-07T17:05:05.000Z</Time>
            <Position>
              <LatitudeDegrees>40.72618366219103336334228515625</LatitudeDegrees>
              <LongitudeDegrees>-3.8611590676009654998779296875</LongitudeDegrees>
            </Position>
            <AltitudeMeters>904.79998779296875</AltitudeMeters>
            <DistanceMeters>NAN</DistanceMeters>
          </Trackpoint>
          <Trackpoint>
            <Time>2020-03-07T17:05:06.000Z</Time>
            <Position>
              <LatitudeDegrees>40.72622456587851047515869140625</LatitudeDegrees>
              <LongitudeDegrees>-3.86111942119896411895751953125</LongitudeDegrees>
            </Position>
            <AltitudeMeters>905</AltitudeMeters>
            <DistanceMeters>NAN</DistanceMeters>
          </Trackpoint>
          <Trackpoint>
            <Time>2020-03-07T17:05:07.000Z</Time>
            <Position>
              <LatitudeDegrees>40.7262625358998775482177734375</LatitudeDegrees>
              <LongitudeDegrees>-3.8610822893679141998291015625</LongitudeDegrees>
            </Position>
            <AltitudeMeters>905.4000244140625</AltitudeMeters>
            <DistanceMeters>NAN</DistanceMeters>
          </Trackpoint>
          <Trackpoint>
            <Time>2020-03-07T17:05:08.000Z</Time>
            <Position>
              <LatitudeDegrees>40.726299248635768890380859375</LatitudeDegrees>
              <LongitudeDegrees>-3.8610494323074817657470703125</LongitudeDegrees>
            </Position>
            <AltitudeMeters>905.5999755859375</AltitudeMeters>
            <DistanceMeters>NAN</DistanceMeters>
          </Trackpoint>
          <Trackpoint>
            <Time>2020-03-07T17:05:09.000Z</Time>
            <Position>
              <LatitudeDegrees>40.7263366319239139556884765625</LatitudeDegrees>
              <LongitudeDegrees>-3.8610159046947956085205078125</LongitudeDegrees>
            </Position>
            <AltitudeMeters>906.20001220703125</AltitudeMeters>
            <DistanceMeters>NAN</DistanceMeters>
          </Trackpoint>
          <Trackpoint>
            <Time>2020-03-07T17:05:10.000Z</Time>
            <Position>
              <LatitudeDegrees>40.7263728417456150054931640625</LatitudeDegrees>
              <LongitudeDegrees>-3.860983550548553466796875</LongitudeDegrees>
            </Position>
            <AltitudeMeters>906.20001220703125</AltitudeMeters>
            <DistanceMeters>NAN</DistanceMeters>
          </Trackpoint>
          <Trackpoint>
            <Time>2020-03-07T17:05:11.000Z</Time>
            <Position>
              <LatitudeDegrees>40.726410560309886932373046875</LatitudeDegrees>
              <LongitudeDegrees>-3.86095413006842136383056640625</LongitudeDegrees>
            </Position>
            <AltitudeMeters>906.4000244140625</AltitudeMeters>
            <DistanceMeters>NAN</DistanceMeters>
          </Trackpoint>
          <Trackpoint>
            <Time>2020-03-07T17:05:12.000Z</Time>
            <Position>
              <LatitudeDegrees>40.72644953615963459014892578125</LatitudeDegrees>
              <LongitudeDegrees>-3.8609258830547332763671875</LongitudeDegrees>
            </Position>
            <AltitudeMeters>906.4000244140625</AltitudeMeters>
            <DistanceMeters>NAN</DistanceMeters>
          </Trackpoint>
          <Trackpoint>
            <Time>2020-03-07T17:05:13.000Z</Time>
            <Position>
              <LatitudeDegrees>40.72648943401873111724853515625</LatitudeDegrees>
              <LongitudeDegrees>-3.86089663021266460418701171875</LongitudeDegrees>
            </Position>
            <AltitudeMeters>906.5999755859375</AltitudeMeters>
            <DistanceMeters>NAN</DistanceMeters>
          </Trackpoint>
          <Trackpoint>
            <Time>2020-03-07T17:05:14.000Z</Time>
            <Position>
              <LatitudeDegrees>40.72653184644877910614013671875</LatitudeDegrees>
              <LongitudeDegrees>-3.86086829937994480133056640625</LongitudeDegrees>
            </Position>
            <AltitudeMeters>907</AltitudeMeters>
            <DistanceMeters>NAN</DistanceMeters>
          </Trackpoint>
          <Trackpoint>
            <Time>2020-03-07T17:05:15.000Z</Time>
            <Position>
              <LatitudeDegrees>40.726574845612049102783203125</LatitudeDegrees>
              <LongitudeDegrees>-3.8608385436236858367919921875</LongitudeDegrees>
            </Position>
            <AltitudeMeters>907.4000244140625</AltitudeMeters>
            <DistanceMeters>NAN</DistanceMeters>
          </Trackpoint>
          <Trackpoint>
            <Time>2020-03-07T17:05:16.000Z</Time>
            <Position>
              <LatitudeDegrees>40.72661901824176311492919921875</LatitudeDegrees>
              <LongitudeDegrees>-3.8608078658580780029296875</LongitudeDegrees>
            </Position>
            <AltitudeMeters>907.5999755859375</AltitudeMeters>
            <DistanceMeters>NAN</DistanceMeters>
          </Trackpoint>
          <Trackpoint>
            <Time>2020-03-07T17:05:17.000Z</Time>
            <Position>
              <LatitudeDegrees>40.72666377760469913482666015625</LatitudeDegrees>
              <LongitudeDegrees>-3.86077643372118473052978515625</LongitudeDegrees>
            </Position>
            <AltitudeMeters>907.5999755859375</AltitudeMeters>
            <DistanceMeters>NAN</DistanceMeters>
          </Trackpoint>
          <Trackpoint>
            <Time>2020-03-07T17:05:18.000Z</Time>
            <Position>
              <LatitudeDegrees>40.7267097942531108856201171875</LatitudeDegrees>
              <LongitudeDegrees>-3.86074575595557689666748046875</LongitudeDegrees>
            </Position>
            <AltitudeMeters>907.79998779296875</AltitudeMeters>
            <DistanceMeters>NAN</DistanceMeters>
          </Trackpoint>
          <Trackpoint>
            <Time>2020-03-07T17:05:19.000Z</Time>
            <Position>
              <LatitudeDegrees>40.7267550565302371978759765625</LatitudeDegrees>
              <LongitudeDegrees>-3.86071423999965190887451171875</LongitudeDegrees>
            </Position>
            <AltitudeMeters>907.79998779296875</AltitudeMeters>
            <DistanceMeters>NAN</DistanceMeters>
          </Trackpoint>
          <Trackpoint>
            <Time>2020-03-07T17:05:20.000Z</Time>
            <Position>
              <LatitudeDegrees>40.7268033362925052642822265625</LatitudeDegrees>
              <LongitudeDegrees>-3.86068372987210750579833984375</LongitudeDegrees>
            </Position>
            <AltitudeMeters>907.79998779296875</AltitudeMeters>
            <DistanceMeters>NAN</DistanceMeters>
          </Trackpoint>
          <Trackpoint>
            <Time>2020-03-07T17:05:21.000Z</Time>
            <Position>
              <LatitudeDegrees>40.7268512807786464691162109375</LatitudeDegrees>
              <LongitudeDegrees>-3.860650956630706787109375</LongitudeDegrees>
            </Position>
            <AltitudeMeters>907.79998779296875</AltitudeMeters>
            <DistanceMeters>NAN</DistanceMeters>
          </Trackpoint>
          <Trackpoint>
            <Time>2020-03-07T17:05:22.000Z</Time>
            <Position>
              <LatitudeDegrees>40.7268992252647876739501953125</LatitudeDegrees>
              <LongitudeDegrees>-3.8606169261038303375244140625</LongitudeDegrees>
            </Position>
            <AltitudeMeters>907.79998779296875</AltitudeMeters>
            <DistanceMeters>NAN</DistanceMeters>
          </Trackpoint>
          <Trackpoint>
            <Time>2020-03-07T17:05:23.000Z</Time>
            <Position>
              <LatitudeDegrees>40.7269471697509288787841796875</LatitudeDegrees>
              <LongitudeDegrees>-3.86057945899665355682373046875</LongitudeDegrees>
            </Position>
            <AltitudeMeters>907.79998779296875</AltitudeMeters>
            <DistanceMeters>NAN</DistanceMeters>
          </Trackpoint>
          <Trackpoint>
            <Time>2020-03-07T17:05:24.000Z</Time>
            <Position>
              <LatitudeDegrees>40.72699503041803836822509765625</LatitudeDegrees>
              <LongitudeDegrees>-3.86054106988012790679931640625</LongitudeDegrees>
            </Position>
            <AltitudeMeters>907.79998779296875</AltitudeMeters>
            <DistanceMeters>NAN</DistanceMeters>
          </Trackpoint>
          <Trackpoint>
            <Time>2020-03-07T17:05:25.000Z</Time>
            <Position>
              <LatitudeDegrees>40.7270423881709575653076171875</LatitudeDegrees>
              <LongitudeDegrees>-3.86049832217395305633544921875</LongitudeDegrees>
            </Position>
            <AltitudeMeters>907.79998779296875</AltitudeMeters>
            <DistanceMeters>NAN</DistanceMeters>
          </Trackpoint>
          <Trackpoint>
            <Time>2020-03-07T17:05:26.000Z</Time>
            <Position>
              <LatitudeDegrees>40.72708882391452789306640625</LatitudeDegrees>
              <LongitudeDegrees>-3.86045473627746105194091796875</LongitudeDegrees>
            </Position>
            <AltitudeMeters>907.79998779296875</AltitudeMeters>
            <DistanceMeters>NAN</DistanceMeters>
          </Trackpoint>
          <Trackpoint>
            <Time>2020-03-07T17:05:27.000Z</Time>
            <Position>
              <LatitudeDegrees>40.72713601402938365936279296875</LatitudeDegrees>
              <LongitudeDegrees>-3.8604110665619373321533203125</LongitudeDegrees>
            </Position>
            <AltitudeMeters>907.79998779296875</AltitudeMeters>
            <DistanceMeters>NAN</DistanceMeters>
          </Trackpoint>
          <Trackpoint>
            <Time>2020-03-07T17:05:28.000Z</Time>
            <Position>
              <LatitudeDegrees>40.72718203067779541015625</LatitudeDegrees>
              <LongitudeDegrees>-3.86036588810384273529052734375</LongitudeDegrees>
            </Position>
            <AltitudeMeters>907.79998779296875</AltitudeMeters>
            <DistanceMeters>NAN</DistanceMeters>
          </Trackpoint>
          <Trackpoint>
            <Time>2020-03-07T17:05:29.000Z</Time>
            <Position>
              <LatitudeDegrees>40.72722771205008029937744140625</LatitudeDegrees>
              <LongitudeDegrees>-3.8603185303509235382080078125</LongitudeDegrees>
            </Position>
            <AltitudeMeters>907.79998779296875</AltitudeMeters>
            <DistanceMeters>NAN</DistanceMeters>
          </Trackpoint>
          <Trackpoint>
            <Time>2020-03-07T17:05:30.000Z</Time>
            <Position>
              <LatitudeDegrees>40.7272732257843017578125</LatitudeDegrees>
              <LongitudeDegrees>-3.86026832275092601776123046875</LongitudeDegrees>
            </Position>
            <AltitudeMeters>907.79998779296875</AltitudeMeters>
            <DistanceMeters>NAN</DistanceMeters>
          </Trackpoint>
          <Trackpoint>
            <Time>2020-03-07T17:05:31.000Z</Time>
            <Position>
              <LatitudeDegrees>40.72731806896626949310302734375</LatitudeDegrees>
              <LongitudeDegrees>-3.86021534912288188934326171875</LongitudeDegrees>
            </Position>
            <AltitudeMeters>907.5999755859375</AltitudeMeters>
            <DistanceMeters>NAN</DistanceMeters>
          </Trackpoint>
          <Trackpoint>
            <Time>2020-03-07T17:05:32.000Z</Time>
            <Position>
              <LatitudeDegrees>40.727361738681793212890625</LatitudeDegrees>
              <LongitudeDegrees>-3.860159777104854583740234375</LongitudeDegrees>
            </Position>
            <AltitudeMeters>907.5999755859375</AltitudeMeters>
            <DistanceMeters>NAN</DistanceMeters>
          </Trackpoint>
          <Trackpoint>
            <Time>2020-03-07T17:05:33.000Z</Time>
            <Position>
              <LatitudeDegrees>40.7274061627686023712158203125</LatitudeDegrees>
              <LongitudeDegrees>-3.86010236106812953948974609375</LongitudeDegrees>
            </Position>
            <AltitudeMeters>907.4000244140625</AltitudeMeters>
            <DistanceMeters>NAN</DistanceMeters>
          </Trackpoint>
          <Trackpoint>
            <Time>2020-03-07T17:05:34.000Z</Time>
            <Position>
              <LatitudeDegrees>40.72745000012218952178955078125</LatitudeDegrees>
              <LongitudeDegrees>-3.86004276573657989501953125</LongitudeDegrees>
            </Position>
            <AltitudeMeters>907.4000244140625</AltitudeMeters>
            <DistanceMeters>NAN</DistanceMeters>
          </Trackpoint>
          <Trackpoint>
            <Time>2020-03-07T17:05:35.000Z</Time>
            <Position>
              <LatitudeDegrees>40.72749358601868152618408203125</LatitudeDegrees>
              <LongitudeDegrees>-3.8599815778434276580810546875</LongitudeDegrees>
            </Position>
            <AltitudeMeters>907.4000244140625</AltitudeMeters>
            <DistanceMeters>NAN</DistanceMeters>
          </Trackpoint>
          <Trackpoint>
            <Time>2020-03-07T17:05:36.000Z</Time>
            <Position>
              <LatitudeDegrees>40.72753566317260265350341796875</LatitudeDegrees>
              <LongitudeDegrees>-3.85991946794092655181884765625</LongitudeDegrees>
            </Position>
            <AltitudeMeters>907.20001220703125</AltitudeMeters>
            <DistanceMeters>NAN</DistanceMeters>
          </Trackpoint>
          <Trackpoint>
            <Time>2020-03-07T17:05:37.000Z</Time>
            <Position>
              <LatitudeDegrees>40.72757706977427005767822265625</LatitudeDegrees>
              <LongitudeDegrees>-3.8598561845719814300537109375</LongitudeDegrees>
            </Position>
            <AltitudeMeters>906.5999755859375</AltitudeMeters>
            <DistanceMeters>NAN</DistanceMeters>
          </Trackpoint>
          <Trackpoint>
            <Time>2020-03-07T17:05:38.000Z</Time>
            <Position>
              <LatitudeDegrees>40.72761948220431804656982421875</LatitudeDegrees>
              <LongitudeDegrees>-3.859791643917560577392578125</LongitudeDegrees>
            </Position>
            <AltitudeMeters>906.5999755859375</AltitudeMeters>
            <DistanceMeters>NAN</DistanceMeters>
          </Trackpoint>
          <Trackpoint>
            <Time>2020-03-07T17:05:39.000Z</Time>
            <Position>
              <LatitudeDegrees>40.72766172699630260467529296875</LatitudeDegrees>
              <LongitudeDegrees>-3.859725929796695709228515625</LongitudeDegrees>
            </Position>
            <AltitudeMeters>906.4000244140625</AltitudeMeters>
            <DistanceMeters>NAN</DistanceMeters>
          </Trackpoint>
          <Trackpoint>
            <Time>2020-03-07T17:05:40.000Z</Time>
            <Position>
              <LatitudeDegrees>40.72770439088344573974609375</LatitudeDegrees>
              <LongitudeDegrees>-3.8596590422093868255615234375</LongitudeDegrees>
            </Position>
            <AltitudeMeters>906.4000244140625</AltitudeMeters>
            <DistanceMeters>NAN</DistanceMeters>
          </Trackpoint>
          <Trackpoint>
            <Time>2020-03-07T17:05:41.000Z</Time>
            <Position>
              <LatitudeDegrees>40.72774739004671573638916015625</LatitudeDegrees>
              <LongitudeDegrees>-3.85959290899336338043212890625</LongitudeDegrees>
            </Position>
            <AltitudeMeters>906.20001220703125</AltitudeMeters>
            <DistanceMeters>NAN</DistanceMeters>
          </Trackpoint>
          <Trackpoint>
            <Time>2020-03-07T17:05:42.000Z</Time>
            <Position>
              <LatitudeDegrees>40.72778929956257343292236328125</LatitudeDegrees>
              <LongitudeDegrees>-3.8595256023108959197998046875</LongitudeDegrees>
            </Position>
            <AltitudeMeters>906.20001220703125</AltitudeMeters>
            <DistanceMeters>NAN</DistanceMeters>
          </Trackpoint>
          <Trackpoint>
            <Time>2020-03-07T17:05:43.000Z</Time>
            <Position>
              <LatitudeDegrees>40.72783154435455799102783203125</LatitudeDegrees>
              <LongitudeDegrees>-3.859459049999713897705078125</LongitudeDegrees>
            </Position>
            <AltitudeMeters>906</AltitudeMeters>
            <DistanceMeters>NAN</DistanceMeters>
          </Trackpoint>
          <Trackpoint>
            <Time>2020-03-07T17:05:44.000Z</Time>
            <Position>
              <LatitudeDegrees>40.72787429206073284149169921875</LatitudeDegrees>
              <LongitudeDegrees>-3.85939157567918300628662109375</LongitudeDegrees>
            </Position>
            <AltitudeMeters>906</AltitudeMeters>
            <DistanceMeters>NAN</DistanceMeters>
          </Trackpoint>
          <Trackpoint>
            <Time>2020-03-07T17:05:45.000Z</Time>
            <Position>
              <LatitudeDegrees>40.72791553102433681488037109375</LatitudeDegrees>
              <LongitudeDegrees>-3.85932401753962039947509765625</LongitudeDegrees>
            </Position>
            <AltitudeMeters>905.79998779296875</AltitudeMeters>
            <DistanceMeters>NAN</DistanceMeters>
          </Trackpoint>
          <Trackpoint>
            <Time>2020-03-07T17:05:46.000Z</Time>
            <Position>
              <LatitudeDegrees>40.72795760817825794219970703125</LatitudeDegrees>
              <LongitudeDegrees>-3.8592546992003917694091796875</LongitudeDegrees>
            </Position>
            <AltitudeMeters>905.5999755859375</AltitudeMeters>
            <DistanceMeters>NAN</DistanceMeters>
          </Trackpoint>
          <Trackpoint>
            <Time>2020-03-07T17:05:47.000Z</Time>
            <Position>
              <LatitudeDegrees>40.7279979251325130462646484375</LatitudeDegrees>
              <LongitudeDegrees>-3.85918672196567058563232421875</LongitudeDegrees>
            </Position>
            <AltitudeMeters>905.4000244140625</AltitudeMeters>
            <DistanceMeters>NAN</DistanceMeters>
          </Trackpoint>
          <Trackpoint>
            <Time>2020-03-07T17:05:48.000Z</Time>
            <Position>
              <LatitudeDegrees>40.7280374877154827117919921875</LatitudeDegrees>
              <LongitudeDegrees>-3.85912117548286914825439453125</LongitudeDegrees>
            </Position>
            <AltitudeMeters>905.4000244140625</AltitudeMeters>
            <DistanceMeters>NAN</DistanceMeters>
          </Trackpoint>
          <Trackpoint>
            <Time>2020-03-07T17:05:49.000Z</Time>
            <Position>
              <LatitudeDegrees>40.72807847522199153900146484375</LatitudeDegrees>
              <LongitudeDegrees>-3.859054036438465118408203125</LongitudeDegrees>
            </Position>
            <AltitudeMeters>905</AltitudeMeters>
            <DistanceMeters>NAN</DistanceMeters>
          </Trackpoint>
          <Trackpoint>
            <Time>2020-03-07T17:05:50.000Z</Time>
            <Position>
              <LatitudeDegrees>40.72811887599527835845947265625</LatitudeDegrees>
              <LongitudeDegrees>-3.85898622684180736541748046875</LongitudeDegrees>
            </Position>
            <AltitudeMeters>905</AltitudeMeters>
            <DistanceMeters>NAN</DistanceMeters>
          </Trackpoint>
          <Trackpoint>
            <Time>2020-03-07T17:05:51.000Z</Time>
            <Position>
              <LatitudeDegrees>40.72815927676856517791748046875</LatitudeDegrees>
              <LongitudeDegrees>-3.85891883634030818939208984375</LongitudeDegrees>
            </Position>
            <AltitudeMeters>904.79998779296875</AltitudeMeters>
            <DistanceMeters>NAN</DistanceMeters>
          </Trackpoint>
          <Trackpoint>
            <Time>2020-03-07T17:05:52.000Z</Time>
            <Position>
              <LatitudeDegrees>40.72819816879928112030029296875</LatitudeDegrees>
              <LongitudeDegrees>-3.85885044001042842864990234375</LongitudeDegrees>
            </Position>
            <AltitudeMeters>904.79998779296875</AltitudeMeters>
            <DistanceMeters>NAN</DistanceMeters>
          </Trackpoint>
          <Trackpoint>
            <Time>2020-03-07T17:05:53.000Z</Time>
            <Position>
              <LatitudeDegrees>40.728235132992267608642578125</LatitudeDegrees>
              <LongitudeDegrees>-3.8587802834808826446533203125</LongitudeDegrees>
            </Position>
            <AltitudeMeters>904.5999755859375</AltitudeMeters>
            <DistanceMeters>NAN</DistanceMeters>
          </Trackpoint>
          <Trackpoint>
            <Time>2020-03-07T17:05:54.000Z</Time>
            <Position>
              <LatitudeDegrees>40.72827125899493694305419921875</LatitudeDegrees>
              <LongitudeDegrees>-3.8587102107703685760498046875</LongitudeDegrees>
            </Position>
            <AltitudeMeters>904.5999755859375</AltitudeMeters>
            <DistanceMeters>NAN</DistanceMeters>
          </Trackpoint>
          <Trackpoint>
            <Time>2020-03-07T17:05:55.000Z</Time>
            <Position>
              <LatitudeDegrees>40.7283036969602108001708984375</LatitudeDegrees>
              <LongitudeDegrees>-3.8586366176605224609375</LongitudeDegrees>
            </Position>
            <AltitudeMeters>904.5999755859375</AltitudeMeters>
            <DistanceMeters>NAN</DistanceMeters>
          </Trackpoint>
          <Trackpoint>
            <Time>2020-03-07T17:05:56.000Z</Time>
            <Position>
              <LatitudeDegrees>40.7283342070877552032470703125</LatitudeDegrees>
              <LongitudeDegrees>-3.85855992324650287628173828125</LongitudeDegrees>
            </Position>
            <AltitudeMeters>904.5999755859375</AltitudeMeters>
            <DistanceMeters>NAN</DistanceMeters>
          </Trackpoint>
          <Trackpoint>
            <Time>2020-03-07T17:05:57.000Z</Time>
            <Position>
              <LatitudeDegrees>40.72836329229176044464111328125</LatitudeDegrees>
              <LongitudeDegrees>-3.85848029516637325286865234375</LongitudeDegrees>
            </Position>
            <AltitudeMeters>904.4000244140625</AltitudeMeters>
            <DistanceMeters>NAN</DistanceMeters>
          </Trackpoint>
          <Trackpoint>
            <Time>2020-03-07T17:05:58.000Z</Time>
            <Position>
              <LatitudeDegrees>40.72838835418224334716796875</LatitudeDegrees>
              <LongitudeDegrees>-3.85839966125786304473876953125</LongitudeDegrees>
            </Position>
            <AltitudeMeters>904.4000244140625</AltitudeMeters>
            <DistanceMeters>NAN</DistanceMeters>
          </Trackpoint>
          <Trackpoint>
            <Time>2020-03-07T17:05:59.000Z</Time>
            <Position>
              <LatitudeDegrees>40.7284126617014408111572265625</LatitudeDegrees>
              <LongitudeDegrees>-3.85831718333065509796142578125</LongitudeDegrees>
            </Position>
            <AltitudeMeters>904.4000244140625</AltitudeMeters>
            <DistanceMeters>NAN</DistanceMeters>
          </Trackpoint>
          <Trackpoint>
            <Time>2020-03-07T17:06:00.000Z</Time>
            <Position>
              <LatitudeDegrees>40.72843571193516254425048828125</LatitudeDegrees>
              <LongitudeDegrees>-3.85823235847055912017822265625</LongitudeDegrees>
            </Position>
            <AltitudeMeters>904.4000244140625</AltitudeMeters>
            <DistanceMeters>NAN</DistanceMeters>
          </Trackpoint>
          <Trackpoint>
            <Time>2020-03-07T17:06:01.000Z</Time>
            <Position>
              <LatitudeDegrees>40.72845750488340854644775390625</LatitudeDegrees>
              <LongitudeDegrees>-3.858146108686923980712890625</LongitudeDegrees>
            </Position>
            <AltitudeMeters>904.4000244140625</AltitudeMeters>
            <DistanceMeters>NAN</DistanceMeters>
          </Trackpoint>
          <Trackpoint>
            <Time>2020-03-07T17:06:02.000Z</Time>
            <Position>
              <LatitudeDegrees>40.7284780405461788177490234375</LatitudeDegrees>
              <LongitudeDegrees>-3.85805868543684482574462890625</LongitudeDegrees>
            </Position>
            <AltitudeMeters>904.20001220703125</AltitudeMeters>
            <DistanceMeters>NAN</DistanceMeters>
          </Trackpoint>
          <Trackpoint>
            <Time>2020-03-07T17:06:03.000Z</Time>
            <Position>
              <LatitudeDegrees>40.7284994982182979583740234375</LatitudeDegrees>
              <LongitudeDegrees>-3.857969082891941070556640625</LongitudeDegrees>
            </Position>
            <AltitudeMeters>904</AltitudeMeters>
            <DistanceMeters>NAN</DistanceMeters>
          </Trackpoint>
          <Trackpoint>
            <Time>2020-03-07T17:06:04.000Z</Time>
            <Position>
              <LatitudeDegrees>40.72851978242397308349609375</LatitudeDegrees>
              <LongitudeDegrees>-3.85788023471832275390625</LongitudeDegrees>
            </Position>
            <AltitudeMeters>903.79998779296875</AltitudeMeters>
            <DistanceMeters>NAN</DistanceMeters>
          </Trackpoint>
          <Trackpoint>
            <Time>2020-03-07T17:06:05.000Z</Time>
            <Position>
              <LatitudeDegrees>40.72854015044867992401123046875</LatitudeDegrees>
              <LongitudeDegrees>-3.85779130272567272186279296875</LongitudeDegrees>
            </Position>
            <AltitudeMeters>903.5999755859375</AltitudeMeters>
            <DistanceMeters>NAN</DistanceMeters>
          </Trackpoint>
          <Trackpoint>
            <Time>2020-03-07T17:06:06.000Z</Time>
            <Position>
              <LatitudeDegrees>40.728559009730815887451171875</LatitudeDegrees>
              <LongitudeDegrees>-3.857702203094959259033203125</LongitudeDegrees>
            </Position>
            <AltitudeMeters>903.5999755859375</AltitudeMeters>
            <DistanceMeters>NAN</DistanceMeters>
          </Trackpoint>
          <Trackpoint>
            <Time>2020-03-07T17:06:07.000Z</Time>
            <Position>
              <LatitudeDegrees>40.7285776175558567047119140625</LatitudeDegrees>
              <LongitudeDegrees>-3.8576141931116580963134765625</LongitudeDegrees>
            </Position>
            <AltitudeMeters>903.5999755859375</AltitudeMeters>
            <DistanceMeters>NAN</DistanceMeters>
          </Trackpoint>
          <Trackpoint>
            <Time>2020-03-07T17:06:08.000Z</Time>
            <Position>
              <LatitudeDegrees>40.728596560657024383544921875</LatitudeDegrees>
              <LongitudeDegrees>-3.85752693749964237213134765625</LongitudeDegrees>
            </Position>
            <AltitudeMeters>903.4000244140625</AltitudeMeters>
            <DistanceMeters>NAN</DistanceMeters>
          </Trackpoint>
          <Trackpoint>
            <Time>2020-03-07T17:06:09.000Z</Time>
            <Position>
              <LatitudeDegrees>40.72861541993916034698486328125</LatitudeDegrees>
              <LongitudeDegrees>-3.857440017163753509521484375</LongitudeDegrees>
            </Position>
            <AltitudeMeters>903.20001220703125</AltitudeMeters>
            <DistanceMeters>NAN</DistanceMeters>
          </Trackpoint>
          <Trackpoint>
            <Time>2020-03-07T17:06:10.000Z</Time>
            <Position>
              <LatitudeDegrees>40.7286332733929157257080078125</LatitudeDegrees>
              <LongitudeDegrees>-3.857353515923023223876953125</LongitudeDegrees>
            </Position>
            <AltitudeMeters>903.20001220703125</AltitudeMeters>
            <DistanceMeters>NAN</DistanceMeters>
          </Trackpoint>
          <Trackpoint>
            <Time>2020-03-07T17:06:11.000Z</Time>
            <Position>
              <LatitudeDegrees>40.72865196503698825836181640625</LatitudeDegrees>
              <LongitudeDegrees>-3.85726743377745151519775390625</LongitudeDegrees>
            </Position>
            <AltitudeMeters>903.20001220703125</AltitudeMeters>
            <DistanceMeters>NAN</DistanceMeters>
          </Trackpoint>
          <Trackpoint>
            <Time>2020-03-07T17:06:12.000Z</Time>
            <Position>
              <LatitudeDegrees>40.72867124341428279876708984375</LatitudeDegrees>
              <LongitudeDegrees>-3.85717908851802349090576171875</LongitudeDegrees>
            </Position>
            <AltitudeMeters>903</AltitudeMeters>
            <DistanceMeters>NAN</DistanceMeters>
          </Trackpoint>
          <Trackpoint>
            <Time>2020-03-07T17:06:13.000Z</Time>
            <Position>
              <LatitudeDegrees>40.728690437972545623779296875</LatitudeDegrees>
              <LongitudeDegrees>-3.857089988887310028076171875</LongitudeDegrees>
            </Position>
            <AltitudeMeters>903</AltitudeMeters>
            <DistanceMeters>NAN</DistanceMeters>
          </Trackpoint>
          <Trackpoint>
            <Time>2020-03-07T17:06:14.000Z</Time>
            <Position>
              <LatitudeDegrees>40.72871114127337932586669921875</LatitudeDegrees>
              <LongitudeDegrees>-3.8569992966949939727783203125</LongitudeDegrees>
            </Position>
            <AltitudeMeters>903</AltitudeMeters>
            <DistanceMeters>NAN</DistanceMeters>
          </Trackpoint>
          <Trackpoint>
            <Time>2020-03-07T17:06:15.000Z</Time>
            <Position>
              <LatitudeDegrees>40.72872924618422985076904296875</LatitudeDegrees>
              <LongitudeDegrees>-3.856910280883312225341796875</LongitudeDegrees>
            </Position>
            <AltitudeMeters>903</AltitudeMeters>
            <DistanceMeters>NAN</DistanceMeters>
          </Trackpoint>
          <Trackpoint>
            <Time>2020-03-07T17:06:16.000Z</Time>
            <Position>
              <LatitudeDegrees>40.7287497818470001220703125</LatitudeDegrees>
              <LongitudeDegrees>-3.85682051070034503936767578125</LongitudeDegrees>
            </Position>
            <AltitudeMeters>903</AltitudeMeters>
            <DistanceMeters>NAN</DistanceMeters>
          </Trackpoint>
          <Trackpoint>
            <Time>2020-03-07T17:06:17.000Z</Time>
            <Position>
              <LatitudeDegrees>40.72876763530075550079345703125</LatitudeDegrees>
              <LongitudeDegrees>-3.85673291981220245361328125</LongitudeDegrees>
            </Position>
            <AltitudeMeters>903</AltitudeMeters>
            <DistanceMeters>NAN</DistanceMeters>
          </Trackpoint>
          <Trackpoint>
            <Time>2020-03-07T17:06:18.000Z</Time>
            <Position>
              <LatitudeDegrees>40.728786326944828033447265625</LatitudeDegrees>
              <LongitudeDegrees>-3.85664440691471099853515625</LongitudeDegrees>
            </Position>
            <AltitudeMeters>902.79998779296875</AltitudeMeters>
            <DistanceMeters>NAN</DistanceMeters>
          </Trackpoint>
          <Trackpoint>
            <Time>2020-03-07T17:06:19.000Z</Time>
            <Position>
              <LatitudeDegrees>40.7288061082363128662109375</LatitudeDegrees>
              <LongitudeDegrees>-3.85655597783625125885009765625</LongitudeDegrees>
            </Position>
            <AltitudeMeters>902.79998779296875</AltitudeMeters>
            <DistanceMeters>NAN</DistanceMeters>
          </Trackpoint>
          <Trackpoint>
            <Time>2020-03-07T17:06:20.000Z</Time>
            <Position>
              <LatitudeDegrees>40.72882530279457569122314453125</LatitudeDegrees>
              <LongitudeDegrees>-3.85646696202456951141357421875</LongitudeDegrees>
            </Position>
            <AltitudeMeters>902.79998779296875</AltitudeMeters>
            <DistanceMeters>NAN</DistanceMeters>
          </Trackpoint>
          <Trackpoint>
            <Time>2020-03-07T17:06:21.000Z</Time>
            <Position>
              <LatitudeDegrees>40.728845335543155670166015625</LatitudeDegrees>
              <LongitudeDegrees>-3.856379203498363494873046875</LongitudeDegrees>
            </Position>
            <AltitudeMeters>902.79998779296875</AltitudeMeters>
            <DistanceMeters>NAN</DistanceMeters>
          </Trackpoint>
          <Trackpoint>
            <Time>2020-03-07T17:06:22.000Z</Time>
            <Position>
              <LatitudeDegrees>40.728865452110767364501953125</LatitudeDegrees>
              <LongitudeDegrees>-3.85629194788634777069091796875</LongitudeDegrees>
            </Position>
            <AltitudeMeters>902.5999755859375</AltitudeMeters>
            <DistanceMeters>NAN</DistanceMeters>
          </Trackpoint>
          <Trackpoint>
            <Time>2020-03-07T17:06:23.000Z</Time>
            <Position>
              <LatitudeDegrees>40.7288864068686962127685546875</LatitudeDegrees>
              <LongitudeDegrees>-3.8562053628265857696533203125</LongitudeDegrees>
            </Position>
            <AltitudeMeters>902.5999755859375</AltitudeMeters>
            <DistanceMeters>NAN</DistanceMeters>
          </Trackpoint>
          <Trackpoint>
            <Time>2020-03-07T17:06:24.000Z</Time>
            <Position>
              <LatitudeDegrees>40.728906691074371337890625</LatitudeDegrees>
              <LongitudeDegrees>-3.85611894540488719940185546875</LongitudeDegrees>
            </Position>
            <AltitudeMeters>902.4000244140625</AltitudeMeters>
            <DistanceMeters>NAN</DistanceMeters>
          </Trackpoint>
          <Trackpoint>
            <Time>2020-03-07T17:06:25.000Z</Time>
            <Position>
              <LatitudeDegrees>40.72892722673714160919189453125</LatitudeDegrees>
              <LongitudeDegrees>-3.85603378526866436004638671875</LongitudeDegrees>
            </Position>
            <AltitudeMeters>902.20001220703125</AltitudeMeters>
            <DistanceMeters>NAN</DistanceMeters>
          </Trackpoint>
          <Trackpoint>
            <Time>2020-03-07T17:06:26.000Z</Time>
            <Position>
              <LatitudeDegrees>40.72894684039056301116943359375</LatitudeDegrees>
              <LongitudeDegrees>-3.85594963096082210540771484375</LongitudeDegrees>
            </Position>
            <AltitudeMeters>902</AltitudeMeters>
            <DistanceMeters>NAN</DistanceMeters>
          </Trackpoint>
          <Trackpoint>
            <Time>2020-03-07T17:06:27.000Z</Time>
            <Position>
              <LatitudeDegrees>40.72896796278655529022216796875</LatitudeDegrees>
              <LongitudeDegrees>-3.85586782358586788177490234375</LongitudeDegrees>
            </Position>
            <AltitudeMeters>901.79998779296875</AltitudeMeters>
            <DistanceMeters>NAN</DistanceMeters>
          </Trackpoint>
          <Trackpoint>
            <Time>2020-03-07T17:06:28.000Z</Time>
            <Position>
              <LatitudeDegrees>40.72899051010608673095703125</LatitudeDegrees>
              <LongitudeDegrees>-3.85578685440123081207275390625</LongitudeDegrees>
            </Position>
            <AltitudeMeters>901.79998779296875</AltitudeMeters>
            <DistanceMeters>NAN</DistanceMeters>
          </Trackpoint>
          <Trackpoint>
            <Time>2020-03-07T17:06:29.000Z</Time>
            <Position>
              <LatitudeDegrees>40.72901406325399875640869140625</LatitudeDegrees>
              <LongitudeDegrees>-3.8557081483304500579833984375</LongitudeDegrees>
            </Position>
            <AltitudeMeters>901.79998779296875</AltitudeMeters>
            <DistanceMeters>NAN</DistanceMeters>
          </Trackpoint>
          <Trackpoint>
            <Time>2020-03-07T17:06:30.000Z</Time>
            <Position>
              <LatitudeDegrees>40.72903937660157680511474609375</LatitudeDegrees>
              <LongitudeDegrees>-3.85562994517385959625244140625</LongitudeDegrees>
            </Position>
            <AltitudeMeters>901.5999755859375</AltitudeMeters>
            <DistanceMeters>NAN</DistanceMeters>
          </Trackpoint>
          <Trackpoint>
            <Time>2020-03-07T17:06:31.000Z</Time>
            <Position>
              <LatitudeDegrees>40.72906753979623317718505859375</LatitudeDegrees>
              <LongitudeDegrees>-3.8555535860359668731689453125</LongitudeDegrees>
            </Position>
            <AltitudeMeters>901.5999755859375</AltitudeMeters>
            <DistanceMeters>NAN</DistanceMeters>
          </Trackpoint>
          <Trackpoint>
            <Time>2020-03-07T17:06:32.000Z</Time>
            <Position>
              <LatitudeDegrees>40.729096792638301849365234375</LatitudeDegrees>
              <LongitudeDegrees>-3.85547890327870845794677734375</LongitudeDegrees>
            </Position>
            <AltitudeMeters>901.5999755859375</AltitudeMeters>
            <DistanceMeters>NAN</DistanceMeters>
          </Trackpoint>
          <Trackpoint>
            <Time>2020-03-07T17:06:33.000Z</Time>
            <Position>
              <LatitudeDegrees>40.72912654839456081390380859375</LatitudeDegrees>
              <LongitudeDegrees>-3.85540665127336978912353515625</LongitudeDegrees>
            </Position>
            <AltitudeMeters>901.5999755859375</AltitudeMeters>
            <DistanceMeters>NAN</DistanceMeters>
          </Trackpoint>
          <Trackpoint>
            <Time>2020-03-07T17:06:34.000Z</Time>
            <Position>
              <LatitudeDegrees>40.72915856726467609405517578125</LatitudeDegrees>
              <LongitudeDegrees>-3.85533557273447513580322265625</LongitudeDegrees>
            </Position>
            <AltitudeMeters>901.5999755859375</AltitudeMeters>
            <DistanceMeters>NAN</DistanceMeters>
          </Trackpoint>
          <Trackpoint>
            <Time>2020-03-07T17:06:35.000Z</Time>
            <Position>
              <LatitudeDegrees>40.72919142432510852813720703125</LatitudeDegrees>
              <LongitudeDegrees>-3.855265416204929351806640625</LongitudeDegrees>
            </Position>
            <AltitudeMeters>901.5999755859375</AltitudeMeters>
            <DistanceMeters>NAN</DistanceMeters>
          </Trackpoint>
          <Trackpoint>
            <Time>2020-03-07T17:06:36.000Z</Time>
            <Position>
              <LatitudeDegrees>40.72922595776617527008056640625</LatitudeDegrees>
              <LongitudeDegrees>-3.85519777424633502960205078125</LongitudeDegrees>
            </Position>
            <AltitudeMeters>901.5999755859375</AltitudeMeters>
            <DistanceMeters>NAN</DistanceMeters>
          </Trackpoint>
          <Trackpoint>
            <Time>2020-03-07T17:06:37.000Z</Time>
            <Position>
              <LatitudeDegrees>40.72926233522593975067138671875</LatitudeDegrees>
              <LongitudeDegrees>-3.85513155721127986907958984375</LongitudeDegrees>
            </Position>
            <AltitudeMeters>901.5999755859375</AltitudeMeters>
            <DistanceMeters>NAN</DistanceMeters>
          </Trackpoint>
          <Trackpoint>
            <Time>2020-03-07T17:06:38.000Z</Time>
            <Position>
              <LatitudeDegrees>40.7292984612286090850830078125</LatitudeDegrees>
              <LongitudeDegrees>-3.855065591633319854736328125</LongitudeDegrees>
            </Position>
            <AltitudeMeters>901.5999755859375</AltitudeMeters>
            <DistanceMeters>NAN</DistanceMeters>
          </Trackpoint>
          <Trackpoint>
            <Time>2020-03-07T17:06:39.000Z</Time>
            <Position>
              <LatitudeDegrees>40.729333497583866119384765625</LatitudeDegrees>
              <LongitudeDegrees>-3.85499912314116954803466796875</LongitudeDegrees>
            </Position>
            <AltitudeMeters>901.79998779296875</AltitudeMeters>
            <DistanceMeters>NAN</DistanceMeters>
          </Trackpoint>
          <Trackpoint>
            <Time>2020-03-07T17:06:40.000Z</Time>
            <Position>
              <LatitudeDegrees>40.72937071323394775390625</LatitudeDegrees>
              <LongitudeDegrees>-3.85493424721062183380126953125</LongitudeDegrees>
            </Position>
            <AltitudeMeters>901.79998779296875</AltitudeMeters>
            <DistanceMeters>NAN</DistanceMeters>
          </Trackpoint>
          <Trackpoint>
            <Time>2020-03-07T17:06:41.000Z</Time>
            <Position>
              <LatitudeDegrees>40.729409940540790557861328125</LatitudeDegrees>
              <LongitudeDegrees>-3.85487004183232784271240234375</LongitudeDegrees>
            </Position>
            <AltitudeMeters>901.79998779296875</AltitudeMeters>
            <DistanceMeters>NAN</DistanceMeters>
          </Trackpoint>
          <Trackpoint>
            <Time>2020-03-07T17:06:42.000Z</Time>
            <Position>
              <LatitudeDegrees>40.72945025749504566192626953125</LatitudeDegrees>
              <LongitudeDegrees>-3.85480516590178012847900390625</LongitudeDegrees>
            </Position>
            <AltitudeMeters>902</AltitudeMeters>
            <DistanceMeters>NAN</DistanceMeters>
          </Trackpoint>
          <Trackpoint>
            <Time>2020-03-07T17:06:43.000Z</Time>
            <Position>
              <LatitudeDegrees>40.7294922508299350738525390625</LatitudeDegrees>
              <LongitudeDegrees>-3.85474397800862789154052734375</LongitudeDegrees>
            </Position>
            <AltitudeMeters>902</AltitudeMeters>
            <DistanceMeters>NAN</DistanceMeters>
          </Trackpoint>
          <Trackpoint>
            <Time>2020-03-07T17:06:44.000Z</Time>
            <Position>
              <LatitudeDegrees>40.72953701019287109375</LatitudeDegrees>
              <LongitudeDegrees>-3.8546832092106342315673828125</LongitudeDegrees>
            </Position>
            <AltitudeMeters>902</AltitudeMeters>
            <DistanceMeters>NAN</DistanceMeters>
          </Trackpoint>
          <Trackpoint>
            <Time>2020-03-07T17:06:45.000Z</Time>
            <Position>
              <LatitudeDegrees>40.72958168573677539825439453125</LatitudeDegrees>
              <LongitudeDegrees>-3.85462311096489429473876953125</LongitudeDegrees>
            </Position>
            <AltitudeMeters>902</AltitudeMeters>
            <DistanceMeters>NAN</DistanceMeters>
          </Trackpoint>
          <Trackpoint>
            <Time>2020-03-07T17:06:46.000Z</Time>
            <Position>
              <LatitudeDegrees>40.7296256907284259796142578125</LatitudeDegrees>
              <LongitudeDegrees>-3.854565359652042388916015625</LongitudeDegrees>
            </Position>
            <AltitudeMeters>902</AltitudeMeters>
            <DistanceMeters>NAN</DistanceMeters>
          </Trackpoint>
          <Trackpoint>
            <Time>2020-03-07T17:06:47.000Z</Time>
            <Position>
              <LatitudeDegrees>40.72967179119586944580078125</LatitudeDegrees>
              <LongitudeDegrees>-3.8545075245201587677001953125</LongitudeDegrees>
            </Position>
            <AltitudeMeters>902.20001220703125</AltitudeMeters>
            <DistanceMeters>NAN</DistanceMeters>
          </Trackpoint>
          <Trackpoint>
            <Time>2020-03-07T17:06:48.000Z</Time>
            <Position>
              <LatitudeDegrees>40.7297175563871860504150390625</LatitudeDegrees>
              <LongitudeDegrees>-3.854449354112148284912109375</LongitudeDegrees>
            </Position>
            <AltitudeMeters>902.20001220703125</AltitudeMeters>
            <DistanceMeters>NAN</DistanceMeters>
          </Trackpoint>
          <Trackpoint>
            <Time>2020-03-07T17:06:49.000Z</Time>
            <Position>
              <LatitudeDegrees>40.72976357303559780120849609375</LatitudeDegrees>
              <LongitudeDegrees>-3.85439193807542324066162109375</LongitudeDegrees>
            </Position>
            <AltitudeMeters>902.20001220703125</AltitudeMeters>
            <DistanceMeters>NAN</DistanceMeters>
          </Trackpoint>
          <Trackpoint>
            <Time>2020-03-07T17:06:50.000Z</Time>
            <Position>
              <LatitudeDegrees>40.72980699129402637481689453125</LatitudeDegrees>
              <LongitudeDegrees>-3.85433376766741275787353515625</LongitudeDegrees>
            </Position>
            <AltitudeMeters>902.20001220703125</AltitudeMeters>
            <DistanceMeters>NAN</DistanceMeters>
          </Trackpoint>
          <Trackpoint>
            <Time>2020-03-07T17:06:51.000Z</Time>
            <Position>
              <LatitudeDegrees>40.72985191829502582550048828125</LatitudeDegrees>
              <LongitudeDegrees>-3.85427333414554595947265625</LongitudeDegrees>
            </Position>
            <AltitudeMeters>902.20001220703125</AltitudeMeters>
            <DistanceMeters>NAN</DistanceMeters>
          </Trackpoint>
          <Trackpoint>
            <Time>2020-03-07T17:06:52.000Z</Time>
            <Position>
              <LatitudeDegrees>40.72989709675312042236328125</LatitudeDegrees>
              <LongitudeDegrees>-3.8542121462523937225341796875</LongitudeDegrees>
            </Position>
            <AltitudeMeters>902.20001220703125</AltitudeMeters>
            <DistanceMeters>NAN</DistanceMeters>
          </Trackpoint>
          <Trackpoint>
            <Time>2020-03-07T17:06:53.000Z</Time>
            <Position>
              <LatitudeDegrees>40.72994160465896129608154296875</LatitudeDegrees>
              <LongitudeDegrees>-3.8541511259973049163818359375</LongitudeDegrees>
            </Position>
            <AltitudeMeters>902.20001220703125</AltitudeMeters>
            <DistanceMeters>NAN</DistanceMeters>
          </Trackpoint>
          <Trackpoint>
            <Time>2020-03-07T17:06:54.000Z</Time>
            <Position>
              <LatitudeDegrees>40.72998569346964359283447265625</LatitudeDegrees>
              <LongitudeDegrees>-3.85409018956124782562255859375</LongitudeDegrees>
            </Position>
            <AltitudeMeters>902.20001220703125</AltitudeMeters>
            <DistanceMeters>NAN</DistanceMeters>
          </Trackpoint>
          <Trackpoint>
            <Time>2020-03-07T17:06:55.000Z</Time>
            <Position>
              <LatitudeDegrees>40.73002860881388187408447265625</LatitudeDegrees>
              <LongitudeDegrees>-3.8540294207632541656494140625</LongitudeDegrees>
            </Position>
            <AltitudeMeters>902.20001220703125</AltitudeMeters>
            <DistanceMeters>NAN</DistanceMeters>
          </Trackpoint>
          <Trackpoint>
            <Time>2020-03-07T17:06:56.000Z</Time>
            <Position>
              <LatitudeDegrees>40.73007303290069103240966796875</LatitudeDegrees>
              <LongitudeDegrees>-3.8539684005081653594970703125</LongitudeDegrees>
            </Position>
            <AltitudeMeters>902.20001220703125</AltitudeMeters>
            <DistanceMeters>NAN</DistanceMeters>
          </Trackpoint>
          <Trackpoint>
            <Time>2020-03-07T17:06:57.000Z</Time>
            <Position>
              <LatitudeDegrees>40.73011712171137332916259765625</LatitudeDegrees>
              <LongitudeDegrees>-3.85390721261501312255859375</LongitudeDegrees>
            </Position>
            <AltitudeMeters>902.20001220703125</AltitudeMeters>
            <DistanceMeters>NAN</DistanceMeters>
          </Trackpoint>
          <Trackpoint>
            <Time>2020-03-07T17:06:58.000Z</Time>
            <Position>
              <LatitudeDegrees>40.73016037233173847198486328125</LatitudeDegrees>
              <LongitudeDegrees>-3.8538470305502414703369140625</LongitudeDegrees>
            </Position>
            <AltitudeMeters>902.20001220703125</AltitudeMeters>
            <DistanceMeters>NAN</DistanceMeters>
          </Trackpoint>
          <Trackpoint>
            <Time>2020-03-07T17:06:59.000Z</Time>
            <Position>
              <LatitudeDegrees>40.7302016951143741607666015625</LatitudeDegrees>
              <LongitudeDegrees>-3.85378810577094554901123046875</LongitudeDegrees>
            </Position>
            <AltitudeMeters>902.20001220703125</AltitudeMeters>
            <DistanceMeters>NAN</DistanceMeters>
          </Trackpoint>
          <Trackpoint>
            <Time>2020-03-07T17:07:00.000Z</Time>
            <Position>
              <LatitudeDegrees>40.73024486191570758819580078125</LatitudeDegrees>
              <LongitudeDegrees>-3.85372825898230075836181640625</LongitudeDegrees>
            </Position>
            <AltitudeMeters>902.20001220703125</AltitudeMeters>
            <DistanceMeters>NAN</DistanceMeters>
          </Trackpoint>
          <Trackpoint>
            <Time>2020-03-07T17:07:01.000Z</Time>
            <Position>
              <LatitudeDegrees>40.7302881963551044464111328125</LatitudeDegrees>
              <LongitudeDegrees>-3.8536689989268779754638671875</LongitudeDegrees>
            </Position>
            <AltitudeMeters>902.20001220703125</AltitudeMeters>
            <DistanceMeters>NAN</DistanceMeters>
          </Trackpoint>
          <Trackpoint>
            <Time>2020-03-07T17:07:02.000Z</Time>
            <Position>
              <LatitudeDegrees>40.73033287189900875091552734375</LatitudeDegrees>
              <LongitudeDegrees>-3.85361024178564548492431640625</LongitudeDegrees>
            </Position>
            <AltitudeMeters>902.20001220703125</AltitudeMeters>
            <DistanceMeters>NAN</DistanceMeters>
          </Trackpoint>
          <Trackpoint>
            <Time>2020-03-07T17:07:03.000Z</Time>
            <Position>
              <LatitudeDegrees>40.73037813417613506317138671875</LatitudeDegrees>
              <LongitudeDegrees>-3.85355181992053985595703125</LongitudeDegrees>
            </Position>
            <AltitudeMeters>902.20001220703125</AltitudeMeters>
            <DistanceMeters>NAN</DistanceMeters>
          </Trackpoint>
          <Trackpoint>
            <Time>2020-03-07T17:07:04.000Z</Time>
            <Position>
              <LatitudeDegrees>40.730423815548419952392578125</LatitudeDegrees>
              <LongitudeDegrees>-3.85349406860768795013427734375</LongitudeDegrees>
            </Position>
            <AltitudeMeters>902.20001220703125</AltitudeMeters>
            <DistanceMeters>NAN</DistanceMeters>
          </Trackpoint>
          <Trackpoint>
            <Time>2020-03-07T17:07:05.000Z</Time>
            <Position>
              <LatitudeDegrees>40.73046949692070484161376953125</LatitudeDegrees>
              <LongitudeDegrees>-3.85343514382839202880859375</LongitudeDegrees>
            </Position>
            <AltitudeMeters>902.20001220703125</AltitudeMeters>
            <DistanceMeters>NAN</DistanceMeters>
          </Trackpoint>
          <Trackpoint>
            <Time>2020-03-07T17:07:06.000Z</Time>
            <Position>
              <LatitudeDegrees>40.7305128313601016998291015625</LatitudeDegrees>
              <LongitudeDegrees>-3.853375799953937530517578125</LongitudeDegrees>
            </Position>
            <AltitudeMeters>902.20001220703125</AltitudeMeters>
            <DistanceMeters>NAN</DistanceMeters>
          </Trackpoint>
          <Trackpoint>
            <Time>2020-03-07T17:07:07.000Z</Time>
            <Position>
              <LatitudeDegrees>40.7305575907230377197265625</LatitudeDegrees>
              <LongitudeDegrees>-3.85331536643207073211669921875</LongitudeDegrees>
            </Position>
            <AltitudeMeters>902.20001220703125</AltitudeMeters>
            <DistanceMeters>NAN</DistanceMeters>
          </Trackpoint>
          <Trackpoint>
            <Time>2020-03-07T17:07:08.000Z</Time>
            <Position>
              <LatitudeDegrees>40.730599500238895416259765625</LatitudeDegrees>
              <LongitudeDegrees>-3.8532547652721405029296875</LongitudeDegrees>
            </Position>
            <AltitudeMeters>902.20001220703125</AltitudeMeters>
            <DistanceMeters>NAN</DistanceMeters>
          </Trackpoint>
          <Trackpoint>
            <Time>2020-03-07T17:07:09.000Z</Time>
            <Position>
              <LatitudeDegrees>40.73064216412603855133056640625</LatitudeDegrees>
              <LongitudeDegrees>-3.8531935773789882659912109375</LongitudeDegrees>
            </Position>
            <AltitudeMeters>902.20001220703125</AltitudeMeters>
            <DistanceMeters>NAN</DistanceMeters>
          </Trackpoint>
          <Trackpoint>
            <Time>2020-03-07T17:07:10.000Z</Time>
            <Position>
              <LatitudeDegrees>40.7306854985654354095458984375</LatitudeDegrees>
              <LongitudeDegrees>-3.853133730590343475341796875</LongitudeDegrees>
            </Position>
            <AltitudeMeters>902.20001220703125</AltitudeMeters>
            <DistanceMeters>NAN</DistanceMeters>
          </Trackpoint>
          <Trackpoint>
            <Time>2020-03-07T17:07:11.000Z</Time>
            <Position>
              <LatitudeDegrees>40.730729587376117706298828125</LatitudeDegrees>
              <LongitudeDegrees>-3.85307497344911098480224609375</LongitudeDegrees>
            </Position>
            <AltitudeMeters>902.20001220703125</AltitudeMeters>
            <DistanceMeters>NAN</DistanceMeters>
          </Trackpoint>
          <Trackpoint>
            <Time>2020-03-07T17:07:12.000Z</Time>
            <Position>
              <LatitudeDegrees>40.7307723350822925567626953125</LatitudeDegrees>
              <LongitudeDegrees>-3.853015713393688201904296875</LongitudeDegrees>
            </Position>
            <AltitudeMeters>902.20001220703125</AltitudeMeters>
            <DistanceMeters>NAN</DistanceMeters>
          </Trackpoint>
          <Trackpoint>
            <Time>2020-03-07T17:07:13.000Z</Time>
            <Position>
              <LatitudeDegrees>40.7308152504265308380126953125</LatitudeDegrees>
              <LongitudeDegrees>-3.85295569896697998046875</LongitudeDegrees>
            </Position>
            <AltitudeMeters>902.20001220703125</AltitudeMeters>
            <DistanceMeters>NAN</DistanceMeters>
          </Trackpoint>
          <Trackpoint>
            <Time>2020-03-07T17:07:14.000Z</Time>
            <Position>
              <LatitudeDegrees>40.73085732758045196533203125</LatitudeDegrees>
              <LongitudeDegrees>-3.8528955169022083282470703125</LongitudeDegrees>
            </Position>
            <AltitudeMeters>902.20001220703125</AltitudeMeters>
            <DistanceMeters>NAN</DistanceMeters>
          </Trackpoint>
          <Trackpoint>
            <Time>2020-03-07T17:07:15.000Z</Time>
            <Position>
              <LatitudeDegrees>40.7309000752866268157958984375</LatitudeDegrees>
              <LongitudeDegrees>-3.85283474810421466827392578125</LongitudeDegrees>
            </Position>
            <AltitudeMeters>902.20001220703125</AltitudeMeters>
            <DistanceMeters>NAN</DistanceMeters>
          </Trackpoint>
          <Trackpoint>
            <Time>2020-03-07T17:07:16.000Z</Time>
            <Position>
              <LatitudeDegrees>40.730942822992801666259765625</LatitudeDegrees>
              <LongitudeDegrees>-3.85277532041072845458984375</LongitudeDegrees>
            </Position>
            <AltitudeMeters>902.20001220703125</AltitudeMeters>
            <DistanceMeters>NAN</DistanceMeters>
          </Trackpoint>
          <Trackpoint>
            <Time>2020-03-07T17:07:17.000Z</Time>
            <Position>
              <LatitudeDegrees>40.730985738337039947509765625</LatitudeDegrees>
              <LongitudeDegrees>-3.852716647088527679443359375</LongitudeDegrees>
            </Position>
            <AltitudeMeters>902.20001220703125</AltitudeMeters>
            <DistanceMeters>NAN</DistanceMeters>
          </Trackpoint>
          <Trackpoint>
            <Time>2020-03-07T17:07:18.000Z</Time>
            <Position>
              <LatitudeDegrees>40.731029994785785675048828125</LatitudeDegrees>
              <LongitudeDegrees>-3.8526574708521366119384765625</LongitudeDegrees>
            </Position>
            <AltitudeMeters>902.20001220703125</AltitudeMeters>
            <DistanceMeters>NAN</DistanceMeters>
          </Trackpoint>
          <Trackpoint>
            <Time>2020-03-07T17:07:19.000Z</Time>
            <Position>
              <LatitudeDegrees>40.73107182048261165618896484375</LatitudeDegrees>
              <LongitudeDegrees>-3.85259804315865039825439453125</LongitudeDegrees>
            </Position>
            <AltitudeMeters>902.20001220703125</AltitudeMeters>
            <DistanceMeters>NAN</DistanceMeters>
          </Trackpoint>
          <Trackpoint>
            <Time>2020-03-07T17:07:20.000Z</Time>
            <Position>
              <LatitudeDegrees>40.73111339472234249114990234375</LatitudeDegrees>
              <LongitudeDegrees>-3.852538950741291046142578125</LongitudeDegrees>
            </Position>
            <AltitudeMeters>902.20001220703125</AltitudeMeters>
            <DistanceMeters>NAN</DistanceMeters>
          </Trackpoint>
          <Trackpoint>
            <Time>2020-03-07T17:07:21.000Z</Time>
            <Position>
              <LatitudeDegrees>40.7311575673520565032958984375</LatitudeDegrees>
              <LongitudeDegrees>-3.85247935540974140167236328125</LongitudeDegrees>
            </Position>
            <AltitudeMeters>902.20001220703125</AltitudeMeters>
            <DistanceMeters>NAN</DistanceMeters>
          </Trackpoint>
          <Trackpoint>
            <Time>2020-03-07T17:07:22.000Z</Time>
            <Position>
              <LatitudeDegrees>40.73120207525789737701416015625</LatitudeDegrees>
              <LongitudeDegrees>-3.852420262992382049560546875</LongitudeDegrees>
            </Position>
            <AltitudeMeters>902.20001220703125</AltitudeMeters>
            <DistanceMeters>NAN</DistanceMeters>
          </Trackpoint>
          <Trackpoint>
            <Time>2020-03-07T17:07:23.000Z</Time>
            <Position>
              <LatitudeDegrees>40.73124918155372142791748046875</LatitudeDegrees>
              <LongitudeDegrees>-3.85236016474664211273193359375</LongitudeDegrees>
            </Position>
            <AltitudeMeters>902.20001220703125</AltitudeMeters>
            <DistanceMeters>NAN</DistanceMeters>
          </Trackpoint>
          <Trackpoint>
            <Time>2020-03-07T17:07:24.000Z</Time>
            <Position>
              <LatitudeDegrees>40.73129528202116489410400390625</LatitudeDegrees>
              <LongitudeDegrees>-3.8523017428815364837646484375</LongitudeDegrees>
            </Position>
            <AltitudeMeters>902.20001220703125</AltitudeMeters>
            <DistanceMeters>NAN</DistanceMeters>
          </Trackpoint>
          <Trackpoint>
            <Time>2020-03-07T17:07:25.000Z</Time>
            <Position>
              <LatitudeDegrees>40.73134104721248149871826171875</LatitudeDegrees>
              <LongitudeDegrees>-3.85224332101643085479736328125</LongitudeDegrees>
            </Position>
            <AltitudeMeters>902.4000244140625</AltitudeMeters>
            <DistanceMeters>NAN</DistanceMeters>
          </Trackpoint>
          <Trackpoint>
            <Time>2020-03-07T17:07:26.000Z</Time>
            <Position>
              <LatitudeDegrees>40.731386728584766387939453125</LatitudeDegrees>
              <LongitudeDegrees>-3.852185904979705810546875</LongitudeDegrees>
            </Position>
            <AltitudeMeters>902.4000244140625</AltitudeMeters>
            <DistanceMeters>NAN</DistanceMeters>
          </Trackpoint>
          <Trackpoint>
            <Time>2020-03-07T17:07:27.000Z</Time>
            <Position>
              <LatitudeDegrees>40.731429643929004669189453125</LatitudeDegrees>
              <LongitudeDegrees>-3.85212647728621959686279296875</LongitudeDegrees>
            </Position>
            <AltitudeMeters>902.4000244140625</AltitudeMeters>
            <DistanceMeters>NAN</DistanceMeters>
          </Trackpoint>
          <Trackpoint>
            <Time>2020-03-07T17:07:28.000Z</Time>
            <Position>
              <LatitudeDegrees>40.73147289454936981201171875</LatitudeDegrees>
              <LongitudeDegrees>-3.852068223059177398681640625</LongitudeDegrees>
            </Position>
            <AltitudeMeters>902.4000244140625</AltitudeMeters>
            <DistanceMeters>NAN</DistanceMeters>
          </Trackpoint>
          <Trackpoint>
            <Time>2020-03-07T17:07:29.000Z</Time>
            <Position>
              <LatitudeDegrees>40.73151572607457637786865234375</LatitudeDegrees>
              <LongitudeDegrees>-3.8520103879272937774658203125</LongitudeDegrees>
            </Position>
            <AltitudeMeters>902.4000244140625</AltitudeMeters>
            <DistanceMeters>NAN</DistanceMeters>
          </Trackpoint>
          <Trackpoint>
            <Time>2020-03-07T17:07:30.000Z</Time>
            <Position>
              <LatitudeDegrees>40.73155797086656093597412109375</LatitudeDegrees>
              <LongitudeDegrees>-3.8519527204334735870361328125</LongitudeDegrees>
            </Position>
            <AltitudeMeters>902.4000244140625</AltitudeMeters>
            <DistanceMeters>NAN</DistanceMeters>
          </Trackpoint>
          <Trackpoint>
            <Time>2020-03-07T17:07:31.000Z</Time>
            <Position>
              <LatitudeDegrees>40.731599628925323486328125</LatitudeDegrees>
              <LongitudeDegrees>-3.8518937118351459503173828125</LongitudeDegrees>
            </Position>
            <AltitudeMeters>902.5999755859375</AltitudeMeters>
            <DistanceMeters>NAN</DistanceMeters>
          </Trackpoint>
          <Trackpoint>
            <Time>2020-03-07T17:07:32.000Z</Time>
            <Position>
              <LatitudeDegrees>40.73164229281246662139892578125</LatitudeDegrees>
              <LongitudeDegrees>-3.8518345355987548828125</LongitudeDegrees>
            </Position>
            <AltitudeMeters>902.5999755859375</AltitudeMeters>
            <DistanceMeters>NAN</DistanceMeters>
          </Trackpoint>
          <Trackpoint>
            <Time>2020-03-07T17:07:33.000Z</Time>
            <Position>
              <LatitudeDegrees>40.731685459613800048828125</LatitudeDegrees>
              <LongitudeDegrees>-3.8517740182578563690185546875</LongitudeDegrees>
            </Position>
            <AltitudeMeters>902.5999755859375</AltitudeMeters>
            <DistanceMeters>NAN</DistanceMeters>
          </Trackpoint>
          <Trackpoint>
            <Time>2020-03-07T17:07:34.000Z</Time>
            <Position>
              <LatitudeDegrees>40.7317285425961017608642578125</LatitudeDegrees>
              <LongitudeDegrees>-3.85171492584049701690673828125</LongitudeDegrees>
            </Position>
            <AltitudeMeters>902.5999755859375</AltitudeMeters>
            <DistanceMeters>NAN</DistanceMeters>
          </Trackpoint>
          <Trackpoint>
            <Time>2020-03-07T17:07:35.000Z</Time>
            <Position>
              <LatitudeDegrees>40.73177120648324489593505859375</LatitudeDegrees>
              <LongitudeDegrees>-3.851653821766376495361328125</LongitudeDegrees>
            </Position>
            <AltitudeMeters>902.5999755859375</AltitudeMeters>
            <DistanceMeters>NAN</DistanceMeters>
          </Trackpoint>
          <Trackpoint>
            <Time>2020-03-07T17:07:36.000Z</Time>
            <Position>
              <LatitudeDegrees>40.7318120263516902923583984375</LatitudeDegrees>
              <LongitudeDegrees>-3.85159355588257312774658203125</LongitudeDegrees>
            </Position>
            <AltitudeMeters>902.79998779296875</AltitudeMeters>
            <DistanceMeters>NAN</DistanceMeters>
          </Trackpoint>
          <Trackpoint>
            <Time>2020-03-07T17:07:37.000Z</Time>
            <Position>
              <LatitudeDegrees>40.7318522594869136810302734375</LatitudeDegrees>
              <LongitudeDegrees>-3.851531445980072021484375</LongitudeDegrees>
            </Position>
            <AltitudeMeters>902.79998779296875</AltitudeMeters>
            <DistanceMeters>NAN</DistanceMeters>
          </Trackpoint>
          <Trackpoint>
            <Time>2020-03-07T17:07:38.000Z</Time>
            <Position>
              <LatitudeDegrees>40.73189006187021732330322265625</LatitudeDegrees>
              <LongitudeDegrees>-3.85146816261112689971923828125</LongitudeDegrees>
            </Position>
            <AltitudeMeters>902.79998779296875</AltitudeMeters>
            <DistanceMeters>NAN</DistanceMeters>
          </Trackpoint>
          <Trackpoint>
            <Time>2020-03-07T17:07:39.000Z</Time>
            <Position>
              <LatitudeDegrees>40.731931217014789581298828125</LatitudeDegrees>
              <LongitudeDegrees>-3.8514055497944355010986328125</LongitudeDegrees>
            </Position>
            <AltitudeMeters>902.79998779296875</AltitudeMeters>
            <DistanceMeters>NAN</DistanceMeters>
          </Trackpoint>
          <Trackpoint>
            <Time>2020-03-07T17:07:40.000Z</Time>
            <Position>
              <LatitudeDegrees>40.73197622783482074737548828125</LatitudeDegrees>
              <LongitudeDegrees>-3.85134494863450527191162109375</LongitudeDegrees>
            </Position>
            <AltitudeMeters>902.79998779296875</AltitudeMeters>
            <DistanceMeters>NAN</DistanceMeters>
          </Trackpoint>
          <Trackpoint>
            <Time>2020-03-07T17:07:41.000Z</Time>
            <Position>
              <LatitudeDegrees>40.732018053531646728515625</LatitudeDegrees>
              <LongitudeDegrees>-3.851283676922321319580078125</LongitudeDegrees>
            </Position>
            <AltitudeMeters>902.79998779296875</AltitudeMeters>
            <DistanceMeters>NAN</DistanceMeters>
          </Trackpoint>
          <Trackpoint>
            <Time>2020-03-07T17:07:42.000Z</Time>
            <Position>
              <LatitudeDegrees>40.73206071741878986358642578125</LatitudeDegrees>
              <LongitudeDegrees>-3.8512221537530422210693359375</LongitudeDegrees>
            </Position>
            <AltitudeMeters>902.79998779296875</AltitudeMeters>
            <DistanceMeters>NAN</DistanceMeters>
          </Trackpoint>
          <Trackpoint>
            <Time>2020-03-07T17:07:43.000Z</Time>
            <Position>
              <LatitudeDegrees>40.73210128583014011383056640625</LatitudeDegrees>
              <LongitudeDegrees>-3.8511564396321773529052734375</LongitudeDegrees>
            </Position>
            <AltitudeMeters>902.79998779296875</AltitudeMeters>
            <DistanceMeters>NAN</DistanceMeters>
          </Trackpoint>
          <Trackpoint>
            <Time>2020-03-07T17:07:44.000Z</Time>
            <Position>
              <LatitudeDegrees>40.7321426086127758026123046875</LatitudeDegrees>
              <LongitudeDegrees>-3.85109491646289825439453125</LongitudeDegrees>
            </Position>
            <AltitudeMeters>902.79998779296875</AltitudeMeters>
            <DistanceMeters>NAN</DistanceMeters>
          </Trackpoint>
          <Trackpoint>
            <Time>2020-03-07T17:07:45.000Z</Time>
            <Position>
              <LatitudeDegrees>40.73218627832829952239990234375</LatitudeDegrees>
              <LongitudeDegrees>-3.8510323874652385711669921875</LongitudeDegrees>
            </Position>
            <AltitudeMeters>902.5999755859375</AltitudeMeters>
            <DistanceMeters>NAN</DistanceMeters>
          </Trackpoint>
          <Trackpoint>
            <Time>2020-03-07T17:07:46.000Z</Time>
            <Position>
              <LatitudeDegrees>40.73223019950091838836669921875</LatitudeDegrees>
              <LongitudeDegrees>-3.85097178630530834197998046875</LongitudeDegrees>
            </Position>
            <AltitudeMeters>902.5999755859375</AltitudeMeters>
            <DistanceMeters>NAN</DistanceMeters>
          </Trackpoint>
          <Trackpoint>
            <Time>2020-03-07T17:07:47.000Z</Time>
            <Position>
              <LatitudeDegrees>40.7322742044925689697265625</LatitudeDegrees>
              <LongitudeDegrees>-3.85091294534504413604736328125</LongitudeDegrees>
            </Position>
            <AltitudeMeters>902.5999755859375</AltitudeMeters>
            <DistanceMeters>NAN</DistanceMeters>
          </Trackpoint>
          <Trackpoint>
            <Time>2020-03-07T17:07:48.000Z</Time>
            <Position>
              <LatitudeDegrees>40.73231955058872699737548828125</LatitudeDegrees>
              <LongitudeDegrees>-3.8508550263941287994384765625</LongitudeDegrees>
            </Position>
            <AltitudeMeters>902.5999755859375</AltitudeMeters>
            <DistanceMeters>NAN</DistanceMeters>
          </Trackpoint>
          <Trackpoint>
            <Time>2020-03-07T17:07:49.000Z</Time>
            <Position>
              <LatitudeDegrees>40.73236162774264812469482421875</LatitudeDegrees>
              <LongitudeDegrees>-3.85079744271934032440185546875</LongitudeDegrees>
            </Position>
            <AltitudeMeters>902.5999755859375</AltitudeMeters>
            <DistanceMeters>NAN</DistanceMeters>
          </Trackpoint>
          <Trackpoint>
            <Time>2020-03-07T17:07:50.000Z</Time>
            <Position>
              <LatitudeDegrees>40.73240362107753753662109375</LatitudeDegrees>
              <LongitudeDegrees>-3.85073876939713954925537109375</LongitudeDegrees>
            </Position>
            <AltitudeMeters>902.5999755859375</AltitudeMeters>
            <DistanceMeters>NAN</DistanceMeters>
          </Trackpoint>
          <Trackpoint>
            <Time>2020-03-07T17:07:51.000Z</Time>
            <Position>
              <LatitudeDegrees>40.73244695551693439483642578125</LatitudeDegrees>
              <LongitudeDegrees>-3.8506796769797801971435546875</LongitudeDegrees>
            </Position>
            <AltitudeMeters>902.5999755859375</AltitudeMeters>
            <DistanceMeters>NAN</DistanceMeters>
          </Trackpoint>
          <Trackpoint>
            <Time>2020-03-07T17:07:52.000Z</Time>
            <Position>
              <LatitudeDegrees>40.73249288834631443023681640625</LatitudeDegrees>
              <LongitudeDegrees>-3.8506213389337062835693359375</LongitudeDegrees>
            </Position>
            <AltitudeMeters>902.5999755859375</AltitudeMeters>
            <DistanceMeters>NAN</DistanceMeters>
          </Trackpoint>
          <Trackpoint>
            <Time>2020-03-07T17:07:53.000Z</Time>
            <Position>
              <LatitudeDegrees>40.7325370609760284423828125</LatitudeDegrees>
              <LongitudeDegrees>-3.85056191124022006988525390625</LongitudeDegrees>
            </Position>
            <AltitudeMeters>902.5999755859375</AltitudeMeters>
            <DistanceMeters>NAN</DistanceMeters>
          </Trackpoint>
          <Trackpoint>
            <Time>2020-03-07T17:07:54.000Z</Time>
            <Position>
              <LatitudeDegrees>40.7325804792344570159912109375</LatitudeDegrees>
              <LongitudeDegrees>-3.8505066744983196258544921875</LongitudeDegrees>
            </Position>
            <AltitudeMeters>902.5999755859375</AltitudeMeters>
            <DistanceMeters>NAN</DistanceMeters>
          </Trackpoint>
          <Trackpoint>
            <Time>2020-03-07T17:07:55.000Z</Time>
            <Position>
              <LatitudeDegrees>40.73262331075966358184814453125</LatitudeDegrees>
              <LongitudeDegrees>-3.85045076720416545867919921875</LongitudeDegrees>
            </Position>
            <AltitudeMeters>902.5999755859375</AltitudeMeters>
            <DistanceMeters>NAN</DistanceMeters>
          </Trackpoint>
          <Trackpoint>
            <Time>2020-03-07T17:07:56.000Z</Time>
            <Position>
              <LatitudeDegrees>40.7326653040945529937744140625</LatitudeDegrees>
              <LongitudeDegrees>-3.85039393790066242218017578125</LongitudeDegrees>
            </Position>
            <AltitudeMeters>902.5999755859375</AltitudeMeters>
            <DistanceMeters>NAN</DistanceMeters>
          </Trackpoint>
          <Trackpoint>
            <Time>2020-03-07T17:07:57.000Z</Time>
            <Position>
              <LatitudeDegrees>40.7327095605432987213134765625</LatitudeDegrees>
              <LongitudeDegrees>-3.85033987462520599365234375</LongitudeDegrees>
            </Position>
            <AltitudeMeters>902.5999755859375</AltitudeMeters>
            <DistanceMeters>NAN</DistanceMeters>
          </Trackpoint>
          <Trackpoint>
            <Time>2020-03-07T17:07:58.000Z</Time>
            <Position>
              <LatitudeDegrees>40.73275633156299591064453125</LatitudeDegrees>
              <LongitudeDegrees>-3.85028623044490814208984375</LongitudeDegrees>
            </Position>
            <AltitudeMeters>902.5999755859375</AltitudeMeters>
            <DistanceMeters>NAN</DistanceMeters>
          </Trackpoint>
          <Trackpoint>
            <Time>2020-03-07T17:07:59.000Z</Time>
            <Position>
              <LatitudeDegrees>40.7328044436872005462646484375</LatitudeDegrees>
              <LongitudeDegrees>-3.85023468174040317535400390625</LongitudeDegrees>
            </Position>
            <AltitudeMeters>902.5999755859375</AltitudeMeters>
            <DistanceMeters>NAN</DistanceMeters>
          </Trackpoint>
          <Trackpoint>
            <Time>2020-03-07T17:08:00.000Z</Time>
            <Position>
              <LatitudeDegrees>40.73285029269754886627197265625</LatitudeDegrees>
              <LongitudeDegrees>-3.850185982882976531982421875</LongitudeDegrees>
            </Position>
            <AltitudeMeters>902.79998779296875</AltitudeMeters>
            <DistanceMeters>NAN</DistanceMeters>
          </Trackpoint>
          <Trackpoint>
            <Time>2020-03-07T17:08:01.000Z</Time>
            <Position>
              <LatitudeDegrees>40.73289538733661174774169921875</LatitudeDegrees>
              <LongitudeDegrees>-3.8501380383968353271484375</LongitudeDegrees>
            </Position>
            <AltitudeMeters>902.79998779296875</AltitudeMeters>
            <DistanceMeters>NAN</DistanceMeters>
          </Trackpoint>
          <Trackpoint>
            <Time>2020-03-07T17:08:02.000Z</Time>
            <Position>
              <LatitudeDegrees>40.73294249363243579864501953125</LatitudeDegrees>
              <LongitudeDegrees>-3.8500899262726306915283203125</LongitudeDegrees>
            </Position>
            <AltitudeMeters>902.79998779296875</AltitudeMeters>
            <DistanceMeters>NAN</DistanceMeters>
          </Trackpoint>
          <Trackpoint>
            <Time>2020-03-07T17:08:03.000Z</Time>
            <Position>
              <LatitudeDegrees>40.73298926465213298797607421875</LatitudeDegrees>
              <LongitudeDegrees>-3.8500436581671237945556640625</LongitudeDegrees>
            </Position>
            <AltitudeMeters>902.79998779296875</AltitudeMeters>
            <DistanceMeters>NAN</DistanceMeters>
          </Trackpoint>
          <Trackpoint>
            <Time>2020-03-07T17:08:04.000Z</Time>
            <Position>
              <LatitudeDegrees>40.7330332696437835693359375</LatitudeDegrees>
              <LongitudeDegrees>-3.84999965317547321319580078125</LongitudeDegrees>
            </Position>
            <AltitudeMeters>903</AltitudeMeters>
            <DistanceMeters>NAN</DistanceMeters>
          </Trackpoint>
          <Trackpoint>
            <Time>2020-03-07T17:08:05.000Z</Time>
            <Position>
              <LatitudeDegrees>40.7330788671970367431640625</LatitudeDegrees>
              <LongitudeDegrees>-3.8499556481838226318359375</LongitudeDegrees>
            </Position>
            <AltitudeMeters>903</AltitudeMeters>
            <DistanceMeters>NAN</DistanceMeters>
          </Trackpoint>
          <Trackpoint>
            <Time>2020-03-07T17:08:06.000Z</Time>
            <Position>
              <LatitudeDegrees>40.7331263087689876556396484375</LatitudeDegrees>
              <LongitudeDegrees>-3.8499132357537746429443359375</LongitudeDegrees>
            </Position>
            <AltitudeMeters>903</AltitudeMeters>
            <DistanceMeters>NAN</DistanceMeters>
          </Trackpoint>
          <Trackpoint>
            <Time>2020-03-07T17:08:07.000Z</Time>
            <Position>
              <LatitudeDegrees>40.7331742532551288604736328125</LatitudeDegrees>
              <LongitudeDegrees>-3.84987174533307552337646484375</LongitudeDegrees>
            </Position>
            <AltitudeMeters>903</AltitudeMeters>
            <DistanceMeters>NAN</DistanceMeters>
          </Trackpoint>
          <Trackpoint>
            <Time>2020-03-07T17:08:08.000Z</Time>
            <Position>
              <LatitudeDegrees>40.7332211919128894805908203125</LatitudeDegrees>
              <LongitudeDegrees>-3.8498337753117084503173828125</LongitudeDegrees>
            </Position>
            <AltitudeMeters>903.20001220703125</AltitudeMeters>
            <DistanceMeters>NAN</DistanceMeters>
          </Trackpoint>
          <Trackpoint>
            <Time>2020-03-07T17:08:09.000Z</Time>
            <Position>
              <LatitudeDegrees>40.7332738302648067474365234375</LatitudeDegrees>
              <LongitudeDegrees>-3.84979764930903911590576171875</LongitudeDegrees>
            </Position>
            <AltitudeMeters>903.20001220703125</AltitudeMeters>
            <DistanceMeters>NAN</DistanceMeters>
          </Trackpoint>
          <Trackpoint>
            <Time>2020-03-07T17:08:10.000Z</Time>
            <Position>
              <LatitudeDegrees>40.73332688771188259124755859375</LatitudeDegrees>
              <LongitudeDegrees>-3.849762864410877227783203125</LongitudeDegrees>
            </Position>
            <AltitudeMeters>903.20001220703125</AltitudeMeters>
            <DistanceMeters>NAN</DistanceMeters>
          </Trackpoint>
          <Trackpoint>
            <Time>2020-03-07T17:08:11.000Z</Time>
            <Position>
              <LatitudeDegrees>40.73337852023541927337646484375</LatitudeDegrees>
              <LongitudeDegrees>-3.8497298397123813629150390625</LongitudeDegrees>
            </Position>
            <AltitudeMeters>903.20001220703125</AltitudeMeters>
            <DistanceMeters>NAN</DistanceMeters>
          </Trackpoint>
          <Trackpoint>
            <Time>2020-03-07T17:08:12.000Z</Time>
            <Position>
              <LatitudeDegrees>40.733428895473480224609375</LatitudeDegrees>
              <LongitudeDegrees>-3.849697150290012359619140625</LongitudeDegrees>
            </Position>
            <AltitudeMeters>903.20001220703125</AltitudeMeters>
            <DistanceMeters>NAN</DistanceMeters>
          </Trackpoint>
          <Trackpoint>
            <Time>2020-03-07T17:08:13.000Z</Time>
            <Position>
              <LatitudeDegrees>40.7334811985492706298828125</LatitudeDegrees>
              <LongitudeDegrees>-3.84966353885829448699951171875</LongitudeDegrees>
            </Position>
            <AltitudeMeters>903.20001220703125</AltitudeMeters>
            <DistanceMeters>NAN</DistanceMeters>
          </Trackpoint>
          <Trackpoint>
            <Time>2020-03-07T17:08:14.000Z</Time>
            <Position>
              <LatitudeDegrees>40.73353040032088756561279296875</LatitudeDegrees>
              <LongitudeDegrees>-3.8496316038072109222412109375</LongitudeDegrees>
            </Position>
            <AltitudeMeters>903.20001220703125</AltitudeMeters>
            <DistanceMeters>NAN</DistanceMeters>
          </Trackpoint>
          <Trackpoint>
            <Time>2020-03-07T17:08:15.000Z</Time>
            <Position>
              <LatitudeDegrees>40.73357767425477504730224609375</LatitudeDegrees>
              <LongitudeDegrees>-3.84959933348000049591064453125</LongitudeDegrees>
            </Position>
            <AltitudeMeters>903.20001220703125</AltitudeMeters>
            <DistanceMeters>NAN</DistanceMeters>
          </Trackpoint>
          <Trackpoint>
            <Time>2020-03-07T17:08:16.000Z</Time>
            <Position>
              <LatitudeDegrees>40.7336278818547725677490234375</LatitudeDegrees>
              <LongitudeDegrees>-3.84956798516213893890380859375</LongitudeDegrees>
            </Position>
            <AltitudeMeters>903.20001220703125</AltitudeMeters>
            <DistanceMeters>NAN</DistanceMeters>
          </Trackpoint>
          <Trackpoint>
            <Time>2020-03-07T17:08:17.000Z</Time>
            <Position>
              <LatitudeDegrees>40.73367523960769176483154296875</LatitudeDegrees>
              <LongitudeDegrees>-3.84953680448234081268310546875</LongitudeDegrees>
            </Position>
            <AltitudeMeters>903.20001220703125</AltitudeMeters>
            <DistanceMeters>NAN</DistanceMeters>
          </Trackpoint>
          <Trackpoint>
            <Time>2020-03-07T17:08:18.000Z</Time>
            <Position>
              <LatitudeDegrees>40.73371916078031063079833984375</LatitudeDegrees>
              <LongitudeDegrees>-3.8495025224983692169189453125</LongitudeDegrees>
            </Position>
            <AltitudeMeters>903.20001220703125</AltitudeMeters>
            <DistanceMeters>NAN</DistanceMeters>
          </Trackpoint>
          <Trackpoint>
            <Time>2020-03-07T17:08:19.000Z</Time>
            <Position>
              <LatitudeDegrees>40.7337636686861515045166015625</LatitudeDegrees>
              <LongitudeDegrees>-3.84946279227733612060546875</LongitudeDegrees>
            </Position>
            <AltitudeMeters>903</AltitudeMeters>
            <DistanceMeters>NAN</DistanceMeters>
          </Trackpoint>
          <Trackpoint>
            <Time>2020-03-07T17:08:20.000Z</Time>
            <Position>
              <LatitudeDegrees>40.73380750603973865509033203125</LatitudeDegrees>
              <LongitudeDegrees>-3.84941962547600269317626953125</LongitudeDegrees>
            </Position>
            <AltitudeMeters>903</AltitudeMeters>
            <DistanceMeters>NAN</DistanceMeters>
          </Trackpoint>
          <Trackpoint>
            <Time>2020-03-07T17:08:21.000Z</Time>
            <Position>
              <LatitudeDegrees>40.733852684497833251953125</LatitudeDegrees>
              <LongitudeDegrees>-3.8493736088275909423828125</LongitudeDegrees>
            </Position>
            <AltitudeMeters>903</AltitudeMeters>
            <DistanceMeters>NAN</DistanceMeters>
          </Trackpoint>
          <Trackpoint>
            <Time>2020-03-07T17:08:22.000Z</Time>
            <Position>
              <LatitudeDegrees>40.7338977791368961334228515625</LatitudeDegrees>
              <LongitudeDegrees>-3.8493241555988788604736328125</LongitudeDegrees>
            </Position>
            <AltitudeMeters>903</AltitudeMeters>
            <DistanceMeters>NAN</DistanceMeters>
          </Trackpoint>
          <Trackpoint>
            <Time>2020-03-07T17:08:23.000Z</Time>
            <Position>
              <LatitudeDegrees>40.73394061066210269927978515625</LatitudeDegrees>
              <LongitudeDegrees>-3.84927160106599330902099609375</LongitudeDegrees>
            </Position>
            <AltitudeMeters>903</AltitudeMeters>
            <DistanceMeters>NAN</DistanceMeters>
          </Trackpoint>
          <Trackpoint>
            <Time>2020-03-07T17:08:24.000Z</Time>
            <Position>
              <LatitudeDegrees>40.73398268781602382659912109375</LatitudeDegrees>
              <LongitudeDegrees>-3.849215693771839141845703125</LongitudeDegrees>
            </Position>
            <AltitudeMeters>902.79998779296875</AltitudeMeters>
            <DistanceMeters>NAN</DistanceMeters>
          </Trackpoint>
          <Trackpoint>
            <Time>2020-03-07T17:08:25.000Z</Time>
            <Position>
              <LatitudeDegrees>40.73402409441769123077392578125</LatitudeDegrees>
              <LongitudeDegrees>-3.8491575233638286590576171875</LongitudeDegrees>
            </Position>
            <AltitudeMeters>902.5999755859375</AltitudeMeters>
            <DistanceMeters>NAN</DistanceMeters>
          </Trackpoint>
          <Trackpoint>
            <Time>2020-03-07T17:08:26.000Z</Time>
            <Position>
              <LatitudeDegrees>40.73406256735324859619140625</LatitudeDegrees>
              <LongitudeDegrees>-3.8490973412990570068359375</LongitudeDegrees>
            </Position>
            <AltitudeMeters>902.5999755859375</AltitudeMeters>
            <DistanceMeters>NAN</DistanceMeters>
          </Trackpoint>
          <Trackpoint>
            <Time>2020-03-07T17:08:27.000Z</Time>
            <Position>
              <LatitudeDegrees>40.73410120792686939239501953125</LatitudeDegrees>
              <LongitudeDegrees>-3.8490351475775241851806640625</LongitudeDegrees>
            </Position>
            <AltitudeMeters>902.5999755859375</AltitudeMeters>
            <DistanceMeters>NAN</DistanceMeters>
          </Trackpoint>
          <Trackpoint>
            <Time>2020-03-07T17:08:28.000Z</Time>
            <Position>
              <LatitudeDegrees>40.73414026759564876556396484375</LatitudeDegrees>
              <LongitudeDegrees>-3.84897194802761077880859375</LongitudeDegrees>
            </Position>
            <AltitudeMeters>902.4000244140625</AltitudeMeters>
            <DistanceMeters>NAN</DistanceMeters>
          </Trackpoint>
          <Trackpoint>
            <Time>2020-03-07T17:08:29.000Z</Time>
            <Position>
              <LatitudeDegrees>40.73417915962636470794677734375</LatitudeDegrees>
              <LongitudeDegrees>-3.8489074073731899261474609375</LongitudeDegrees>
            </Position>
            <AltitudeMeters>902.20001220703125</AltitudeMeters>
            <DistanceMeters>NAN</DistanceMeters>
          </Trackpoint>
          <Trackpoint>
            <Time>2020-03-07T17:08:30.000Z</Time>
            <Position>
              <LatitudeDegrees>40.73421453125774860382080078125</LatitudeDegrees>
              <LongitudeDegrees>-3.8488420285284519195556640625</LongitudeDegrees>
            </Position>
            <AltitudeMeters>902</AltitudeMeters>
            <DistanceMeters>NAN</DistanceMeters>
          </Trackpoint>
          <Trackpoint>
            <Time>2020-03-07T17:08:31.000Z</Time>
            <Position>
              <LatitudeDegrees>40.73425174690783023834228515625</LatitudeDegrees>
              <LongitudeDegrees>-3.84877480566501617431640625</LongitudeDegrees>
            </Position>
            <AltitudeMeters>902</AltitudeMeters>
            <DistanceMeters>NAN</DistanceMeters>
          </Trackpoint>
          <Trackpoint>
            <Time>2020-03-07T17:08:32.000Z</Time>
            <Position>
              <LatitudeDegrees>40.7342907227575778961181640625</LatitudeDegrees>
              <LongitudeDegrees>-3.8487119413912296295166015625</LongitudeDegrees>
            </Position>
            <AltitudeMeters>901.79998779296875</AltitudeMeters>
            <DistanceMeters>NAN</DistanceMeters>
          </Trackpoint>
          <Trackpoint>
            <Time>2020-03-07T17:08:33.000Z</Time>
            <Position>
              <LatitudeDegrees>40.73433204554021358489990234375</LatitudeDegrees>
              <LongitudeDegrees>-3.8486596383154392242431640625</LongitudeDegrees>
            </Position>
            <AltitudeMeters>901.79998779296875</AltitudeMeters>
            <DistanceMeters>NAN</DistanceMeters>
          </Trackpoint>
          <Trackpoint>
            <Time>2020-03-07T17:08:34.000Z</Time>
            <Position>
              <LatitudeDegrees>40.734378062188625335693359375</LatitudeDegrees>
              <LongitudeDegrees>-3.848620243370532989501953125</LongitudeDegrees>
            </Position>
            <AltitudeMeters>901.5999755859375</AltitudeMeters>
            <DistanceMeters>NAN</DistanceMeters>
          </Trackpoint>
          <Trackpoint>
            <Time>2020-03-07T17:08:35.000Z</Time>
            <Position>
              <LatitudeDegrees>40.7344241626560688018798828125</LatitudeDegrees>
              <LongitudeDegrees>-3.84860272519290447235107421875</LongitudeDegrees>
            </Position>
            <AltitudeMeters>901.5999755859375</AltitudeMeters>
            <DistanceMeters>NAN</DistanceMeters>
          </Trackpoint>
          <Trackpoint>
            <Time>2020-03-07T17:08:36.000Z</Time>
            <Position>
              <LatitudeDegrees>40.73447235859930515289306640625</LatitudeDegrees>
              <LongitudeDegrees>-3.84860155172646045684814453125</LongitudeDegrees>
            </Position>
            <AltitudeMeters>901.5999755859375</AltitudeMeters>
            <DistanceMeters>NAN</DistanceMeters>
          </Trackpoint>
          <Trackpoint>
            <Time>2020-03-07T17:08:37.000Z</Time>
            <Position>
              <LatitudeDegrees>40.73452348820865154266357421875</LatitudeDegrees>
              <LongitudeDegrees>-3.84860926307737827301025390625</LongitudeDegrees>
            </Position>
            <AltitudeMeters>901.5999755859375</AltitudeMeters>
            <DistanceMeters>NAN</DistanceMeters>
          </Trackpoint>
          <Trackpoint>
            <Time>2020-03-07T17:08:38.000Z</Time>
            <Position>
              <LatitudeDegrees>40.73457629419863224029541015625</LatitudeDegrees>
              <LongitudeDegrees>-3.84862594306468963623046875</LongitudeDegrees>
            </Position>
            <AltitudeMeters>901.5999755859375</AltitudeMeters>
            <DistanceMeters>NAN</DistanceMeters>
          </Trackpoint>
          <Trackpoint>
            <Time>2020-03-07T17:08:39.000Z</Time>
            <Position>
              <LatitudeDegrees>40.7346332073211669921875</LatitudeDegrees>
              <LongitudeDegrees>-3.84863591752946376800537109375</LongitudeDegrees>
            </Position>
            <AltitudeMeters>901.5999755859375</AltitudeMeters>
            <DistanceMeters>NAN</DistanceMeters>
          </Trackpoint>
          <Trackpoint>
            <Time>2020-03-07T17:08:40.000Z</Time>
            <Position>
              <LatitudeDegrees>40.7346893660724163055419921875</LatitudeDegrees>
              <LongitudeDegrees>-3.84863943792879581451416015625</LongitudeDegrees>
            </Position>
            <AltitudeMeters>901.5999755859375</AltitudeMeters>
            <DistanceMeters>NAN</DistanceMeters>
          </Trackpoint>
          <Trackpoint>
            <Time>2020-03-07T17:08:41.000Z</Time>
            <Position>
              <LatitudeDegrees>40.7347450219094753265380859375</LatitudeDegrees>
              <LongitudeDegrees>-3.848634995520114898681640625</LongitudeDegrees>
            </Position>
            <AltitudeMeters>901.5999755859375</AltitudeMeters>
            <DistanceMeters>NAN</DistanceMeters>
          </Trackpoint>
          <Trackpoint>
            <Time>2020-03-07T17:08:42.000Z</Time>
            <Position>
              <LatitudeDegrees>40.73480109684169292449951171875</LatitudeDegrees>
              <LongitudeDegrees>-3.84862351231276988983154296875</LongitudeDegrees>
            </Position>
            <AltitudeMeters>901.79998779296875</AltitudeMeters>
            <DistanceMeters>NAN</DistanceMeters>
          </Trackpoint>
          <Trackpoint>
            <Time>2020-03-07T17:08:43.000Z</Time>
            <Position>
              <LatitudeDegrees>40.734856836497783660888671875</LatitudeDegrees>
              <LongitudeDegrees>-3.84860716760158538818359375</LongitudeDegrees>
            </Position>
            <AltitudeMeters>901.79998779296875</AltitudeMeters>
            <DistanceMeters>NAN</DistanceMeters>
          </Trackpoint>
          <Trackpoint>
            <Time>2020-03-07T17:08:44.000Z</Time>
            <Position>
              <LatitudeDegrees>40.734912492334842681884765625</LatitudeDegrees>
              <LongitudeDegrees>-3.848586715757846832275390625</LongitudeDegrees>
            </Position>
            <AltitudeMeters>902</AltitudeMeters>
            <DistanceMeters>NAN</DistanceMeters>
          </Trackpoint>
          <Trackpoint>
            <Time>2020-03-07T17:08:45.000Z</Time>
            <Position>
              <LatitudeDegrees>40.73496789671480655670166015625</LatitudeDegrees>
              <LongitudeDegrees>-3.84856265969574451446533203125</LongitudeDegrees>
            </Position>
            <AltitudeMeters>902.20001220703125</AltitudeMeters>
            <DistanceMeters>NAN</DistanceMeters>
          </Trackpoint>
          <Trackpoint>
            <Time>2020-03-07T17:08:46.000Z</Time>
            <Position>
              <LatitudeDegrees>40.73502254672348499298095703125</LatitudeDegrees>
              <LongitudeDegrees>-3.84853340685367584228515625</LongitudeDegrees>
            </Position>
            <AltitudeMeters>902.20001220703125</AltitudeMeters>
            <DistanceMeters>NAN</DistanceMeters>
          </Trackpoint>
          <Trackpoint>
            <Time>2020-03-07T17:08:47.000Z</Time>
            <Position>
              <LatitudeDegrees>40.73507376015186309814453125</LatitudeDegrees>
              <LongitudeDegrees>-3.8485020585358142852783203125</LongitudeDegrees>
            </Position>
            <AltitudeMeters>902.20001220703125</AltitudeMeters>
            <DistanceMeters>NAN</DistanceMeters>
          </Trackpoint>
          <Trackpoint>
            <Time>2020-03-07T17:08:48.000Z</Time>
            <Position>
              <LatitudeDegrees>40.7351245544850826263427734375</LatitudeDegrees>
              <LongitudeDegrees>-3.8484685309231281280517578125</LongitudeDegrees>
            </Position>
            <AltitudeMeters>902.20001220703125</AltitudeMeters>
            <DistanceMeters>NAN</DistanceMeters>
          </Trackpoint>
          <Trackpoint>
            <Time>2020-03-07T17:08:49.000Z</Time>
            <Position>
              <LatitudeDegrees>40.7351736724376678466796875</LatitudeDegrees>
              <LongitudeDegrees>-3.84843223728239536285400390625</LongitudeDegrees>
            </Position>
            <AltitudeMeters>902.20001220703125</AltitudeMeters>
            <DistanceMeters>NAN</DistanceMeters>
          </Trackpoint>
          <Trackpoint>
            <Time>2020-03-07T17:08:50.000Z</Time>
            <Position>
              <LatitudeDegrees>40.73522170074284076690673828125</LatitudeDegrees>
              <LongitudeDegrees>-3.84839527308940887451171875</LongitudeDegrees>
            </Position>
            <AltitudeMeters>902.20001220703125</AltitudeMeters>
            <DistanceMeters>NAN</DistanceMeters>
          </Trackpoint>
          <Trackpoint>
            <Time>2020-03-07T17:08:51.000Z</Time>
            <Position>
              <LatitudeDegrees>40.73526830412447452545166015625</LatitudeDegrees>
              <LongitudeDegrees>-3.84835596196353435516357421875</LongitudeDegrees>
            </Position>
            <AltitudeMeters>902.20001220703125</AltitudeMeters>
            <DistanceMeters>NAN</DistanceMeters>
          </Trackpoint>
          <Trackpoint>
            <Time>2020-03-07T17:08:52.000Z</Time>
            <Position>
              <LatitudeDegrees>40.73531423695385456085205078125</LatitudeDegrees>
              <LongitudeDegrees>-3.84831388480961322784423828125</LongitudeDegrees>
            </Position>
            <AltitudeMeters>902.20001220703125</AltitudeMeters>
            <DistanceMeters>NAN</DistanceMeters>
          </Trackpoint>
          <Trackpoint>
            <Time>2020-03-07T17:08:53.000Z</Time>
            <Position>
              <LatitudeDegrees>40.7353595830500125885009765625</LatitudeDegrees>
              <LongitudeDegrees>-3.84826811961829662322998046875</LongitudeDegrees>
            </Position>
            <AltitudeMeters>902.20001220703125</AltitudeMeters>
            <DistanceMeters>NAN</DistanceMeters>
          </Trackpoint>
          <Trackpoint>
            <Time>2020-03-07T17:08:54.000Z</Time>
            <Position>
              <LatitudeDegrees>40.73540291748940944671630859375</LatitudeDegrees>
              <LongitudeDegrees>-3.84822101332247257232666015625</LongitudeDegrees>
            </Position>
            <AltitudeMeters>902.20001220703125</AltitudeMeters>
            <DistanceMeters>NAN</DistanceMeters>
          </Trackpoint>
          <Trackpoint>
            <Time>2020-03-07T17:08:55.000Z</Time>
            <Position>
              <LatitudeDegrees>40.73544658720493316650390625</LatitudeDegrees>
              <LongitudeDegrees>-3.84817156009376049041748046875</LongitudeDegrees>
            </Position>
            <AltitudeMeters>902.20001220703125</AltitudeMeters>
            <DistanceMeters>NAN</DistanceMeters>
          </Trackpoint>
          <Trackpoint>
            <Time>2020-03-07T17:08:56.000Z</Time>
            <Position>
              <LatitudeDegrees>40.73548858053982257843017578125</LatitudeDegrees>
              <LongitudeDegrees>-3.84812059812247753143310546875</LongitudeDegrees>
            </Position>
            <AltitudeMeters>902.20001220703125</AltitudeMeters>
            <DistanceMeters>NAN</DistanceMeters>
          </Trackpoint>
          <Trackpoint>
            <Time>2020-03-07T17:08:57.000Z</Time>
            <Position>
              <LatitudeDegrees>40.73553199879825115203857421875</LatitudeDegrees>
              <LongitudeDegrees>-3.848067708313465118408203125</LongitudeDegrees>
            </Position>
            <AltitudeMeters>902.20001220703125</AltitudeMeters>
            <DistanceMeters>NAN</DistanceMeters>
          </Trackpoint>
          <Trackpoint>
            <Time>2020-03-07T17:08:58.000Z</Time>
            <Position>
              <LatitudeDegrees>40.73557374067604541778564453125</LatitudeDegrees>
              <LongitudeDegrees>-3.84801280684769153594970703125</LongitudeDegrees>
            </Position>
            <AltitudeMeters>902.20001220703125</AltitudeMeters>
            <DistanceMeters>NAN</DistanceMeters>
          </Trackpoint>
          <Trackpoint>
            <Time>2020-03-07T17:08:59.000Z</Time>
            <Position>
              <LatitudeDegrees>40.7356147281825542449951171875</LatitudeDegrees>
              <LongitudeDegrees>-3.8479555584490299224853515625</LongitudeDegrees>
            </Position>
            <AltitudeMeters>902.20001220703125</AltitudeMeters>
            <DistanceMeters>NAN</DistanceMeters>
          </Trackpoint>
          <Trackpoint>
            <Time>2020-03-07T17:09:00.000Z</Time>
            <Position>
              <LatitudeDegrees>40.73565420694649219512939453125</LatitudeDegrees>
              <LongitudeDegrees>-3.84789747186005115509033203125</LongitudeDegrees>
            </Position>
            <AltitudeMeters>902.20001220703125</AltitudeMeters>
            <DistanceMeters>NAN</DistanceMeters>
          </Trackpoint>
          <Trackpoint>
            <Time>2020-03-07T17:09:01.000Z</Time>
            <Position>
              <LatitudeDegrees>40.7356928475201129913330078125</LatitudeDegrees>
              <LongitudeDegrees>-3.8478367030620574951171875</LongitudeDegrees>
            </Position>
            <AltitudeMeters>902.4000244140625</AltitudeMeters>
            <DistanceMeters>NAN</DistanceMeters>
          </Trackpoint>
          <Trackpoint>
            <Time>2020-03-07T17:09:02.000Z</Time>
            <Position>
              <LatitudeDegrees>40.7357288897037506103515625</LatitudeDegrees>
              <LongitudeDegrees>-3.84777425788342952728271484375</LongitudeDegrees>
            </Position>
            <AltitudeMeters>902.4000244140625</AltitudeMeters>
            <DistanceMeters>NAN</DistanceMeters>
          </Trackpoint>
          <Trackpoint>
            <Time>2020-03-07T17:09:03.000Z</Time>
            <Position>
              <LatitudeDegrees>40.73576468043029308319091796875</LatitudeDegrees>
              <LongitudeDegrees>-3.8477114774286746978759765625</LongitudeDegrees>
            </Position>
            <AltitudeMeters>902.4000244140625</AltitudeMeters>
            <DistanceMeters>NAN</DistanceMeters>
          </Trackpoint>
          <Trackpoint>
            <Time>2020-03-07T17:09:04.000Z</Time>
            <Position>
              <LatitudeDegrees>40.73580172844231128692626953125</LatitudeDegrees>
              <LongitudeDegrees>-3.84764718823134899139404296875</LongitudeDegrees>
            </Position>
            <AltitudeMeters>902.4000244140625</AltitudeMeters>
            <DistanceMeters>NAN</DistanceMeters>
          </Trackpoint>
          <Trackpoint>
            <Time>2020-03-07T17:09:05.000Z</Time>
            <Position>
              <LatitudeDegrees>40.73583927936851978302001953125</LatitudeDegrees>
              <LongitudeDegrees>-3.8475823961198329925537109375</LongitudeDegrees>
            </Position>
            <AltitudeMeters>902.4000244140625</AltitudeMeters>
            <DistanceMeters>NAN</DistanceMeters>
          </Trackpoint>
          <Trackpoint>
            <Time>2020-03-07T17:09:06.000Z</Time>
            <Position>
              <LatitudeDegrees>40.7358777523040771484375</LatitudeDegrees>
              <LongitudeDegrees>-3.84751525707542896270751953125</LongitudeDegrees>
            </Position>
            <AltitudeMeters>902.4000244140625</AltitudeMeters>
            <DistanceMeters>NAN</DistanceMeters>
          </Trackpoint>
          <Trackpoint>
            <Time>2020-03-07T17:09:07.000Z</Time>
            <Position>
              <LatitudeDegrees>40.73591588996350765228271484375</LatitudeDegrees>
              <LongitudeDegrees>-3.84744711220264434814453125</LongitudeDegrees>
            </Position>
            <AltitudeMeters>902.5999755859375</AltitudeMeters>
            <DistanceMeters>NAN</DistanceMeters>
          </Trackpoint>
          <Trackpoint>
            <Time>2020-03-07T17:09:08.000Z</Time>
            <Position>
              <LatitudeDegrees>40.7359526865184307098388671875</LatitudeDegrees>
              <LongitudeDegrees>-3.8473778776824474334716796875</LongitudeDegrees>
            </Position>
            <AltitudeMeters>902.5999755859375</AltitudeMeters>
            <DistanceMeters>NAN</DistanceMeters>
          </Trackpoint>
          <Trackpoint>
            <Time>2020-03-07T17:09:09.000Z</Time>
            <Position>
              <LatitudeDegrees>40.73599048890173435211181640625</LatitudeDegrees>
              <LongitudeDegrees>-3.84730587713420391082763671875</LongitudeDegrees>
            </Position>
            <AltitudeMeters>902.5999755859375</AltitudeMeters>
            <DistanceMeters>NAN</DistanceMeters>
          </Trackpoint>
          <Trackpoint>
            <Time>2020-03-07T17:09:10.000Z</Time>
            <Position>
              <LatitudeDegrees>40.73602653108537197113037109375</LatitudeDegrees>
              <LongitudeDegrees>-3.8472330383956432342529296875</LongitudeDegrees>
            </Position>
            <AltitudeMeters>902.5999755859375</AltitudeMeters>
            <DistanceMeters>NAN</DistanceMeters>
          </Trackpoint>
          <Trackpoint>
            <Time>2020-03-07T17:09:11.000Z</Time>
            <Position>
              <LatitudeDegrees>40.7360613159835338592529296875</LatitudeDegrees>
              <LongitudeDegrees>-3.84716170839965343475341796875</LongitudeDegrees>
            </Position>
            <AltitudeMeters>902.5999755859375</AltitudeMeters>
            <DistanceMeters>NAN</DistanceMeters>
          </Trackpoint>
          <Trackpoint>
            <Time>2020-03-07T17:09:12.000Z</Time>
            <Position>
              <LatitudeDegrees>40.73609375394880771636962890625</LatitudeDegrees>
              <LongitudeDegrees>-3.84708903729915618896484375</LongitudeDegrees>
            </Position>
            <AltitudeMeters>902.5999755859375</AltitudeMeters>
            <DistanceMeters>NAN</DistanceMeters>
          </Trackpoint>
          <Trackpoint>
            <Time>2020-03-07T17:09:13.000Z</Time>
            <Position>
              <LatitudeDegrees>40.7361280359327793121337890625</LatitudeDegrees>
              <LongitudeDegrees>-3.8470181263983249664306640625</LongitudeDegrees>
            </Position>
            <AltitudeMeters>902.5999755859375</AltitudeMeters>
            <DistanceMeters>NAN</DistanceMeters>
          </Trackpoint>
          <Trackpoint>
            <Time>2020-03-07T17:09:14.000Z</Time>
            <Position>
              <LatitudeDegrees>40.7361652515828609466552734375</LatitudeDegrees>
              <LongitudeDegrees>-3.84694729931652545928955078125</LongitudeDegrees>
            </Position>
            <AltitudeMeters>902.5999755859375</AltitudeMeters>
            <DistanceMeters>NAN</DistanceMeters>
          </Trackpoint>
          <Trackpoint>
            <Time>2020-03-07T17:09:15.000Z</Time>
            <Position>
              <LatitudeDegrees>40.7362051494419574737548828125</LatitudeDegrees>
              <LongitudeDegrees>-3.84687638841569423675537109375</LongitudeDegrees>
            </Position>
            <AltitudeMeters>902.5999755859375</AltitudeMeters>
            <DistanceMeters>NAN</DistanceMeters>
          </Trackpoint>
          <Trackpoint>
            <Time>2020-03-07T17:09:16.000Z</Time>
            <Position>
              <LatitudeDegrees>40.736245214939117431640625</LatitudeDegrees>
              <LongitudeDegrees>-3.846806399524211883544921875</LongitudeDegrees>
            </Position>
            <AltitudeMeters>902.5999755859375</AltitudeMeters>
            <DistanceMeters>NAN</DistanceMeters>
          </Trackpoint>
          <Trackpoint>
            <Time>2020-03-07T17:09:17.000Z</Time>
            <Position>
              <LatitudeDegrees>40.7362836040556430816650390625</LatitudeDegrees>
              <LongitudeDegrees>-3.8467371650040149688720703125</LongitudeDegrees>
            </Position>
            <AltitudeMeters>902.5999755859375</AltitudeMeters>
            <DistanceMeters>NAN</DistanceMeters>
          </Trackpoint>
          <Trackpoint>
            <Time>2020-03-07T17:09:18.000Z</Time>
            <Position>
              <LatitudeDegrees>40.7363231666386127471923828125</LatitudeDegrees>
              <LongitudeDegrees>-3.84666549973189830780029296875</LongitudeDegrees>
            </Position>
            <AltitudeMeters>902.5999755859375</AltitudeMeters>
            <DistanceMeters>NAN</DistanceMeters>
          </Trackpoint>
          <Trackpoint>
            <Time>2020-03-07T17:09:19.000Z</Time>
            <Position>
              <LatitudeDegrees>40.73636163957417011260986328125</LatitudeDegrees>
              <LongitudeDegrees>-3.8465933315455913543701171875</LongitudeDegrees>
            </Position>
            <AltitudeMeters>902.5999755859375</AltitudeMeters>
            <DistanceMeters>NAN</DistanceMeters>
          </Trackpoint>
          <Trackpoint>
            <Time>2020-03-07T17:09:20.000Z</Time>
            <Position>
              <LatitudeDegrees>40.73640136979520320892333984375</LatitudeDegrees>
              <LongitudeDegrees>-3.84651998989284038543701171875</LongitudeDegrees>
            </Position>
            <AltitudeMeters>902.5999755859375</AltitudeMeters>
            <DistanceMeters>NAN</DistanceMeters>
          </Trackpoint>
          <Trackpoint>
            <Time>2020-03-07T17:09:21.000Z</Time>
            <Position>
              <LatitudeDegrees>40.73644160293042659759521484375</LatitudeDegrees>
              <LongitudeDegrees>-3.84644689969718456268310546875</LongitudeDegrees>
            </Position>
            <AltitudeMeters>902.79998779296875</AltitudeMeters>
            <DistanceMeters>NAN</DistanceMeters>
          </Trackpoint>
          <Trackpoint>
            <Time>2020-03-07T17:09:22.000Z</Time>
            <Position>
              <LatitudeDegrees>40.7364804111421108245849609375</LatitudeDegrees>
              <LongitudeDegrees>-3.8463730551302433013916015625</LongitudeDegrees>
            </Position>
            <AltitudeMeters>902.79998779296875</AltitudeMeters>
            <DistanceMeters>NAN</DistanceMeters>
          </Trackpoint>
          <Trackpoint>
            <Time>2020-03-07T17:09:23.000Z</Time>
            <Position>
              <LatitudeDegrees>40.736519135534763336181640625</LatitudeDegrees>
              <LongitudeDegrees>-3.8462972827255725860595703125</LongitudeDegrees>
            </Position>
            <AltitudeMeters>902.79998779296875</AltitudeMeters>
            <DistanceMeters>NAN</DistanceMeters>
          </Trackpoint>
          <Trackpoint>
            <Time>2020-03-07T17:09:24.000Z</Time>
            <Position>
              <LatitudeDegrees>40.736558698117733001708984375</LatitudeDegrees>
              <LongitudeDegrees>-3.84621924720704555511474609375</LongitudeDegrees>
            </Position>
            <AltitudeMeters>902.79998779296875</AltitudeMeters>
            <DistanceMeters>NAN</DistanceMeters>
          </Trackpoint>
          <Trackpoint>
            <Time>2020-03-07T17:09:25.000Z</Time>
            <Position>
              <LatitudeDegrees>40.73659784160554409027099609375</LatitudeDegrees>
              <LongitudeDegrees>-3.8461407087743282318115234375</LongitudeDegrees>
            </Position>
            <AltitudeMeters>902.5999755859375</AltitudeMeters>
            <DistanceMeters>NAN</DistanceMeters>
          </Trackpoint>
          <Trackpoint>
            <Time>2020-03-07T17:09:26.000Z</Time>
            <Position>
              <LatitudeDegrees>40.7366354763507843017578125</LatitudeDegrees>
              <LongitudeDegrees>-3.84606200270354747772216796875</LongitudeDegrees>
            </Position>
            <AltitudeMeters>902.5999755859375</AltitudeMeters>
            <DistanceMeters>NAN</DistanceMeters>
          </Trackpoint>
          <Trackpoint>
            <Time>2020-03-07T17:09:27.000Z</Time>
            <Position>
              <LatitudeDegrees>40.7366735301911830902099609375</LatitudeDegrees>
              <LongitudeDegrees>-3.8459864817559719085693359375</LongitudeDegrees>
            </Position>
            <AltitudeMeters>902.5999755859375</AltitudeMeters>
            <DistanceMeters>NAN</DistanceMeters>
          </Trackpoint>
          <Trackpoint>
            <Time>2020-03-07T17:09:28.000Z</Time>
            <Position>
              <LatitudeDegrees>40.7367132604122161865234375</LatitudeDegrees>
              <LongitudeDegrees>-3.8459110446274280548095703125</LongitudeDegrees>
            </Position>
            <AltitudeMeters>902.5999755859375</AltitudeMeters>
            <DistanceMeters>NAN</DistanceMeters>
          </Trackpoint>
          <Trackpoint>
            <Time>2020-03-07T17:09:29.000Z</Time>
            <Position>
              <LatitudeDegrees>40.73675508610904216766357421875</LatitudeDegrees>
              <LongitudeDegrees>-3.84583376348018646240234375</LongitudeDegrees>
            </Position>
            <AltitudeMeters>902.5999755859375</AltitudeMeters>
            <DistanceMeters>NAN</DistanceMeters>
          </Trackpoint>
          <Trackpoint>
            <Time>2020-03-07T17:09:30.000Z</Time>
            <Position>
              <LatitudeDegrees>40.73679716326296329498291015625</LatitudeDegrees>
              <LongitudeDegrees>-3.84575790725648403167724609375</LongitudeDegrees>
            </Position>
            <AltitudeMeters>902.5999755859375</AltitudeMeters>
            <DistanceMeters>NAN</DistanceMeters>
          </Trackpoint>
          <Trackpoint>
            <Time>2020-03-07T17:09:31.000Z</Time>
            <Position>
              <LatitudeDegrees>40.736837647855281829833984375</LatitudeDegrees>
              <LongitudeDegrees>-3.84568196721374988555908203125</LongitudeDegrees>
            </Position>
            <AltitudeMeters>902.5999755859375</AltitudeMeters>
            <DistanceMeters>NAN</DistanceMeters>
          </Trackpoint>
          <Trackpoint>
            <Time>2020-03-07T17:09:32.000Z</Time>
            <Position>
              <LatitudeDegrees>40.73687779717147350311279296875</LatitudeDegrees>
              <LongitudeDegrees>-3.84560502134263515472412109375</LongitudeDegrees>
            </Position>
            <AltitudeMeters>902.5999755859375</AltitudeMeters>
            <DistanceMeters>NAN</DistanceMeters>
          </Trackpoint>
          <Trackpoint>
            <Time>2020-03-07T17:09:33.000Z</Time>
            <Position>
              <LatitudeDegrees>40.73691786266863346099853515625</LatitudeDegrees>
              <LongitudeDegrees>-3.8455278240144252777099609375</LongitudeDegrees>
            </Position>
            <AltitudeMeters>902.5999755859375</AltitudeMeters>
            <DistanceMeters>NAN</DistanceMeters>
          </Trackpoint>
          <Trackpoint>
            <Time>2020-03-07T17:09:34.000Z</Time>
            <Position>
              <LatitudeDegrees>40.73695935308933258056640625</LatitudeDegrees>
              <LongitudeDegrees>-3.8454503752291202545166015625</LongitudeDegrees>
            </Position>
            <AltitudeMeters>902.79998779296875</AltitudeMeters>
            <DistanceMeters>NAN</DistanceMeters>
          </Trackpoint>
          <Trackpoint>
            <Time>2020-03-07T17:09:35.000Z</Time>
            <Position>
              <LatitudeDegrees>40.73699933476746082305908203125</LatitudeDegrees>
              <LongitudeDegrees>-3.84537334553897380828857421875</LongitudeDegrees>
            </Position>
            <AltitudeMeters>902.5999755859375</AltitudeMeters>
            <DistanceMeters>NAN</DistanceMeters>
          </Trackpoint>
          <Trackpoint>
            <Time>2020-03-07T17:09:36.000Z</Time>
            <Position>
              <LatitudeDegrees>40.73704208247363567352294921875</LatitudeDegrees>
              <LongitudeDegrees>-3.8452944718301296234130859375</LongitudeDegrees>
            </Position>
            <AltitudeMeters>902.5999755859375</AltitudeMeters>
            <DistanceMeters>NAN</DistanceMeters>
          </Trackpoint>
          <Trackpoint>
            <Time>2020-03-07T17:09:37.000Z</Time>
            <Position>
              <LatitudeDegrees>40.7370842434465885162353515625</LatitudeDegrees>
              <LongitudeDegrees>-3.84521685540676116943359375</LongitudeDegrees>
            </Position>
            <AltitudeMeters>902.5999755859375</AltitudeMeters>
            <DistanceMeters>NAN</DistanceMeters>
          </Trackpoint>
          <Trackpoint>
            <Time>2020-03-07T17:09:38.000Z</Time>
            <Position>
              <LatitudeDegrees>40.7371254824101924896240234375</LatitudeDegrees>
              <LongitudeDegrees>-3.84513999335467815399169921875</LongitudeDegrees>
            </Position>
            <AltitudeMeters>902.5999755859375</AltitudeMeters>
            <DistanceMeters>NAN</DistanceMeters>
          </Trackpoint>
          <Trackpoint>
            <Time>2020-03-07T17:09:39.000Z</Time>
            <Position>
              <LatitudeDegrees>40.7371707446873188018798828125</LatitudeDegrees>
              <LongitudeDegrees>-3.845061622560024261474609375</LongitudeDegrees>
            </Position>
            <AltitudeMeters>902.5999755859375</AltitudeMeters>
            <DistanceMeters>NAN</DistanceMeters>
          </Trackpoint>
          <Trackpoint>
            <Time>2020-03-07T17:09:40.000Z</Time>
            <Position>
              <LatitudeDegrees>40.737214498221874237060546875</LatitudeDegrees>
              <LongitudeDegrees>-3.84498358704149723052978515625</LongitudeDegrees>
            </Position>
            <AltitudeMeters>902.5999755859375</AltitudeMeters>
            <DistanceMeters>NAN</DistanceMeters>
          </Trackpoint>
          <Trackpoint>
            <Time>2020-03-07T17:09:41.000Z</Time>
            <Position>
              <LatitudeDegrees>40.7372602634131908416748046875</LatitudeDegrees>
              <LongitudeDegrees>-3.84490697644650936126708984375</LongitudeDegrees>
            </Position>
            <AltitudeMeters>902.5999755859375</AltitudeMeters>
            <DistanceMeters>NAN</DistanceMeters>
          </Trackpoint>
          <Trackpoint>
            <Time>2020-03-07T17:09:42.000Z</Time>
            <Position>
              <LatitudeDegrees>40.73730594478547573089599609375</LatitudeDegrees>
              <LongitudeDegrees>-3.84483195841312408447265625</LongitudeDegrees>
            </Position>
            <AltitudeMeters>902.5999755859375</AltitudeMeters>
            <DistanceMeters>NAN</DistanceMeters>
          </Trackpoint>
          <Trackpoint>
            <Time>2020-03-07T17:09:43.000Z</Time>
            <Position>
              <LatitudeDegrees>40.737353302538394927978515625</LatitudeDegrees>
              <LongitudeDegrees>-3.8447587005794048309326171875</LongitudeDegrees>
            </Position>
            <AltitudeMeters>902.5999755859375</AltitudeMeters>
            <DistanceMeters>NAN</DistanceMeters>
          </Trackpoint>
          <Trackpoint>
            <Time>2020-03-07T17:09:44.000Z</Time>
            <Position>
              <LatitudeDegrees>40.73740216903388500213623046875</LatitudeDegrees>
              <LongitudeDegrees>-3.844687454402446746826171875</LongitudeDegrees>
            </Position>
            <AltitudeMeters>902.5999755859375</AltitudeMeters>
            <DistanceMeters>NAN</DistanceMeters>
          </Trackpoint>
          <Trackpoint>
            <Time>2020-03-07T17:09:45.000Z</Time>
            <Position>
              <LatitudeDegrees>40.7374517060816287994384765625</LatitudeDegrees>
              <LongitudeDegrees>-3.8446188904345035552978515625</LongitudeDegrees>
            </Position>
            <AltitudeMeters>902.5999755859375</AltitudeMeters>
            <DistanceMeters>NAN</DistanceMeters>
          </Trackpoint>
          <Trackpoint>
            <Time>2020-03-07T17:09:46.000Z</Time>
            <Position>
              <LatitudeDegrees>40.7375009916722774505615234375</LatitudeDegrees>
              <LongitudeDegrees>-3.84455175139009952545166015625</LongitudeDegrees>
            </Position>
            <AltitudeMeters>902.79998779296875</AltitudeMeters>
            <DistanceMeters>NAN</DistanceMeters>
          </Trackpoint>
          <Trackpoint>
            <Time>2020-03-07T17:09:47.000Z</Time>
            <Position>
              <LatitudeDegrees>40.73755254037678241729736328125</LatitudeDegrees>
              <LongitudeDegrees>-3.8444867916405200958251953125</LongitudeDegrees>
            </Position>
            <AltitudeMeters>902.79998779296875</AltitudeMeters>
            <DistanceMeters>NAN</DistanceMeters>
          </Trackpoint>
          <Trackpoint>
            <Time>2020-03-07T17:09:48.000Z</Time>
            <Position>
              <LatitudeDegrees>40.73760283179581165313720703125</LatitudeDegrees>
              <LongitudeDegrees>-3.844425939023494720458984375</LongitudeDegrees>
            </Position>
            <AltitudeMeters>902.79998779296875</AltitudeMeters>
            <DistanceMeters>NAN</DistanceMeters>
          </Trackpoint>
          <Trackpoint>
            <Time>2020-03-07T17:09:49.000Z</Time>
            <Position>
              <LatitudeDegrees>40.7376582361757755279541015625</LatitudeDegrees>
              <LongitudeDegrees>-3.84436466731131076812744140625</LongitudeDegrees>
            </Position>
            <AltitudeMeters>902.79998779296875</AltitudeMeters>
            <DistanceMeters>NAN</DistanceMeters>
          </Trackpoint>
          <Trackpoint>
            <Time>2020-03-07T17:09:50.000Z</Time>
            <Position>
              <LatitudeDegrees>40.7377125509083271026611328125</LatitudeDegrees>
              <LongitudeDegrees>-3.844307251274585723876953125</LongitudeDegrees>
            </Position>
            <AltitudeMeters>902.79998779296875</AltitudeMeters>
            <DistanceMeters>NAN</DistanceMeters>
          </Trackpoint>
          <Trackpoint>
            <Time>2020-03-07T17:09:51.000Z</Time>
            <Position>
              <LatitudeDegrees>40.737768374383449554443359375</LatitudeDegrees>
              <LongitudeDegrees>-3.84425151161849498748779296875</LongitudeDegrees>
            </Position>
            <AltitudeMeters>902.79998779296875</AltitudeMeters>
            <DistanceMeters>NAN</DistanceMeters>
          </Trackpoint>
          <Trackpoint>
            <Time>2020-03-07T17:09:52.000Z</Time>
            <Position>
              <LatitudeDegrees>40.7378255389630794525146484375</LatitudeDegrees>
              <LongitudeDegrees>-3.84419619105756282806396484375</LongitudeDegrees>
            </Position>
            <AltitudeMeters>902.79998779296875</AltitudeMeters>
            <DistanceMeters>NAN</DistanceMeters>
          </Trackpoint>
          <Trackpoint>
            <Time>2020-03-07T17:09:53.000Z</Time>
            <Position>
              <LatitudeDegrees>40.7378862239420413970947265625</LatitudeDegrees>
              <LongitudeDegrees>-3.84414103813469409942626953125</LongitudeDegrees>
            </Position>
            <AltitudeMeters>902.79998779296875</AltitudeMeters>
            <DistanceMeters>NAN</DistanceMeters>
          </Trackpoint>
          <Trackpoint>
            <Time>2020-03-07T17:09:54.000Z</Time>
            <Position>
              <LatitudeDegrees>40.7379455678164958953857421875</LatitudeDegrees>
              <LongitudeDegrees>-3.84408739395439624786376953125</LongitudeDegrees>
            </Position>
            <AltitudeMeters>902.79998779296875</AltitudeMeters>
            <DistanceMeters>NAN</DistanceMeters>
          </Trackpoint>
          <Trackpoint>
            <Time>2020-03-07T17:09:55.000Z</Time>
            <Position>
              <LatitudeDegrees>40.7380065880715847015380859375</LatitudeDegrees>
              <LongitudeDegrees>-3.84403576143085956573486328125</LongitudeDegrees>
            </Position>
            <AltitudeMeters>902.79998779296875</AltitudeMeters>
            <DistanceMeters>NAN</DistanceMeters>
          </Trackpoint>
          <Trackpoint>
            <Time>2020-03-07T17:09:56.000Z</Time>
            <Position>
              <LatitudeDegrees>40.73806853033602237701416015625</LatitudeDegrees>
              <LongitudeDegrees>-3.84398547001183032989501953125</LongitudeDegrees>
            </Position>
            <AltitudeMeters>902.79998779296875</AltitudeMeters>
            <DistanceMeters>NAN</DistanceMeters>
          </Trackpoint>
          <Trackpoint>
            <Time>2020-03-07T17:09:57.000Z</Time>
            <Position>
              <LatitudeDegrees>40.73813323862850666046142578125</LatitudeDegrees>
              <LongitudeDegrees>-3.84393668733537197113037109375</LongitudeDegrees>
            </Position>
            <AltitudeMeters>902.79998779296875</AltitudeMeters>
            <DistanceMeters>NAN</DistanceMeters>
          </Trackpoint>
          <Trackpoint>
            <Time>2020-03-07T17:09:58.000Z</Time>
            <Position>
              <LatitudeDegrees>40.7381970249116420745849609375</LatitudeDegrees>
              <LongitudeDegrees>-3.84388916194438934326171875</LongitudeDegrees>
            </Position>
            <AltitudeMeters>902.79998779296875</AltitudeMeters>
            <DistanceMeters>NAN</DistanceMeters>
          </Trackpoint>
          <Trackpoint>
            <Time>2020-03-07T17:09:59.000Z</Time>
            <Position>
              <LatitudeDegrees>40.73826030828058719635009765625</LatitudeDegrees>
              <LongitudeDegrees>-3.84384281001985073089599609375</LongitudeDegrees>
            </Position>
            <AltitudeMeters>902.79998779296875</AltitudeMeters>
            <DistanceMeters>NAN</DistanceMeters>
          </Trackpoint>
          <Trackpoint>
            <Time>2020-03-07T17:10:00.000Z</Time>
            <Position>
              <LatitudeDegrees>40.73832283727824687957763671875</LatitudeDegrees>
              <LongitudeDegrees>-3.84379662573337554931640625</LongitudeDegrees>
            </Position>
            <AltitudeMeters>902.79998779296875</AltitudeMeters>
            <DistanceMeters>NAN</DistanceMeters>
          </Trackpoint>
          <Trackpoint>
            <Time>2020-03-07T17:10:01.000Z</Time>
            <Position>
              <LatitudeDegrees>40.73838402517139911651611328125</LatitudeDegrees>
              <LongitudeDegrees>-3.84375102818012237548828125</LongitudeDegrees>
            </Position>
            <AltitudeMeters>902.79998779296875</AltitudeMeters>
            <DistanceMeters>NAN</DistanceMeters>
          </Trackpoint>
          <Trackpoint>
            <Time>2020-03-07T17:10:02.000Z</Time>
            <Position>
              <LatitudeDegrees>40.73844688944518566131591796875</LatitudeDegrees>
              <LongitudeDegrees>-3.8437052629888057708740234375</LongitudeDegrees>
            </Position>
            <AltitudeMeters>902.79998779296875</AltitudeMeters>
            <DistanceMeters>NAN</DistanceMeters>
          </Trackpoint>
          <Trackpoint>
            <Time>2020-03-07T17:10:03.000Z</Time>
            <Position>
              <LatitudeDegrees>40.7385088317096233367919921875</LatitudeDegrees>
              <LongitudeDegrees>-3.84366209618747234344482421875</LongitudeDegrees>
            </Position>
            <AltitudeMeters>902.79998779296875</AltitudeMeters>
            <DistanceMeters>NAN</DistanceMeters>
          </Trackpoint>
          <Trackpoint>
            <Time>2020-03-07T17:10:04.000Z</Time>
            <Position>
              <LatitudeDegrees>40.73857094161212444305419921875</LatitudeDegrees>
              <LongitudeDegrees>-3.8436202704906463623046875</LongitudeDegrees>
            </Position>
            <AltitudeMeters>902.79998779296875</AltitudeMeters>
            <DistanceMeters>NAN</DistanceMeters>
          </Trackpoint>
          <Trackpoint>
            <Time>2020-03-07T17:10:05.000Z</Time>
            <Position>
              <LatitudeDegrees>40.73863196186721324920654296875</LatitudeDegrees>
              <LongitudeDegrees>-3.84357978589832782745361328125</LongitudeDegrees>
            </Position>
            <AltitudeMeters>902.79998779296875</AltitudeMeters>
            <DistanceMeters>NAN</DistanceMeters>
          </Trackpoint>
          <Trackpoint>
            <Time>2020-03-07T17:10:06.000Z</Time>
            <Position>
              <LatitudeDegrees>40.7386927306652069091796875</LatitudeDegrees>
              <LongitudeDegrees>-3.84354022331535816192626953125</LongitudeDegrees>
            </Position>
            <AltitudeMeters>902.79998779296875</AltitudeMeters>
            <DistanceMeters>NAN</DistanceMeters>
          </Trackpoint>
          <Trackpoint>
            <Time>2020-03-07T17:10:07.000Z</Time>
            <Position>
              <LatitudeDegrees>40.73875014670193195343017578125</LatitudeDegrees>
              <LongitudeDegrees>-3.84349982254207134246826171875</LongitudeDegrees>
            </Position>
            <AltitudeMeters>902.79998779296875</AltitudeMeters>
            <DistanceMeters>NAN</DistanceMeters>
          </Trackpoint>
          <Trackpoint>
            <Time>2020-03-07T17:10:08.000Z</Time>
            <Position>
              <LatitudeDegrees>40.738805718719959259033203125</LatitudeDegrees>
              <LongitudeDegrees>-3.84346143342554569244384765625</LongitudeDegrees>
            </Position>
            <AltitudeMeters>902.79998779296875</AltitudeMeters>
            <DistanceMeters>NAN</DistanceMeters>
          </Trackpoint>
          <Trackpoint>
            <Time>2020-03-07T17:10:09.000Z</Time>
            <Position>
              <LatitudeDegrees>40.73886129073798656463623046875</LatitudeDegrees>
              <LongitudeDegrees>-3.843422122299671173095703125</LongitudeDegrees>
            </Position>
            <AltitudeMeters>902.79998779296875</AltitudeMeters>
            <DistanceMeters>NAN</DistanceMeters>
          </Trackpoint>
          <Trackpoint>
            <Time>2020-03-07T17:10:10.000Z</Time>
            <Position>
              <LatitudeDegrees>40.73891644366085529327392578125</LatitudeDegrees>
              <LongitudeDegrees>-3.843382894992828369140625</LongitudeDegrees>
            </Position>
            <AltitudeMeters>902.79998779296875</AltitudeMeters>
            <DistanceMeters>NAN</DistanceMeters>
          </Trackpoint>
          <Trackpoint>
            <Time>2020-03-07T17:10:11.000Z</Time>
            <Position>
              <LatitudeDegrees>40.7389735244214534759521484375</LatitudeDegrees>
              <LongitudeDegrees>-3.8433428294956684112548828125</LongitudeDegrees>
            </Position>
            <AltitudeMeters>902.5999755859375</AltitudeMeters>
            <DistanceMeters>NAN</DistanceMeters>
          </Trackpoint>
          <Trackpoint>
            <Time>2020-03-07T17:10:12.000Z</Time>
            <Position>
              <LatitudeDegrees>40.73903043754398822784423828125</LatitudeDegrees>
              <LongitudeDegrees>-3.84330033324658870697021484375</LongitudeDegrees>
            </Position>
            <AltitudeMeters>902.5999755859375</AltitudeMeters>
            <DistanceMeters>NAN</DistanceMeters>
          </Trackpoint>
          <Trackpoint>
            <Time>2020-03-07T17:10:13.000Z</Time>
            <Position>
              <LatitudeDegrees>40.73908768594264984130859375</LatitudeDegrees>
              <LongitudeDegrees>-3.84325616061687469482421875</LongitudeDegrees>
            </Position>
            <AltitudeMeters>902.5999755859375</AltitudeMeters>
            <DistanceMeters>NAN</DistanceMeters>
          </Trackpoint>
          <Trackpoint>
            <Time>2020-03-07T17:10:14.000Z</Time>
            <Position>
              <LatitudeDegrees>40.7391435094177722930908203125</LatitudeDegrees>
              <LongitudeDegrees>-3.84321324527263641357421875</LongitudeDegrees>
            </Position>
            <AltitudeMeters>902.5999755859375</AltitudeMeters>
            <DistanceMeters>NAN</DistanceMeters>
          </Trackpoint>
          <Trackpoint>
            <Time>2020-03-07T17:10:15.000Z</Time>
            <Position>
              <LatitudeDegrees>40.7391991652548313140869140625</LatitudeDegrees>
              <LongitudeDegrees>-3.8431691564619541168212890625</LongitudeDegrees>
            </Position>
            <AltitudeMeters>902.4000244140625</AltitudeMeters>
            <DistanceMeters>NAN</DistanceMeters>
          </Trackpoint>
          <Trackpoint>
            <Time>2020-03-07T17:10:16.000Z</Time>
            <Position>
              <LatitudeDegrees>40.7392541505396366119384765625</LatitudeDegrees>
              <LongitudeDegrees>-3.84312364272773265838623046875</LongitudeDegrees>
            </Position>
            <AltitudeMeters>902.4000244140625</AltitudeMeters>
            <DistanceMeters>NAN</DistanceMeters>
          </Trackpoint>
          <Trackpoint>
            <Time>2020-03-07T17:10:17.000Z</Time>
            <Position>
              <LatitudeDegrees>40.73930737562477588653564453125</LatitudeDegrees>
              <LongitudeDegrees>-3.84307586587965488433837890625</LongitudeDegrees>
            </Position>
            <AltitudeMeters>902.4000244140625</AltitudeMeters>
            <DistanceMeters>NAN</DistanceMeters>
          </Trackpoint>
          <Trackpoint>
            <Time>2020-03-07T17:10:18.000Z</Time>
            <Position>
              <LatitudeDegrees>40.73935984633862972259521484375</LatitudeDegrees>
              <LongitudeDegrees>-3.8430266641080379486083984375</LongitudeDegrees>
            </Position>
            <AltitudeMeters>902.4000244140625</AltitudeMeters>
            <DistanceMeters>NAN</DistanceMeters>
          </Trackpoint>
          <Trackpoint>
            <Time>2020-03-07T17:10:19.000Z</Time>
            <Position>
              <LatitudeDegrees>40.73941214941442012786865234375</LatitudeDegrees>
              <LongitudeDegrees>-3.84297586977481842041015625</LongitudeDegrees>
            </Position>
            <AltitudeMeters>902.4000244140625</AltitudeMeters>
            <DistanceMeters>NAN</DistanceMeters>
          </Trackpoint>
          <Trackpoint>
            <Time>2020-03-07T17:10:20.000Z</Time>
            <Position>
              <LatitudeDegrees>40.73946478776633739471435546875</LatitudeDegrees>
              <LongitudeDegrees>-3.84292465634644031524658203125</LongitudeDegrees>
            </Position>
            <AltitudeMeters>902.4000244140625</AltitudeMeters>
            <DistanceMeters>NAN</DistanceMeters>
          </Trackpoint>
          <Trackpoint>
            <Time>2020-03-07T17:10:21.000Z</Time>
            <Position>
              <LatitudeDegrees>40.7395173422992229461669921875</LatitudeDegrees>
              <LongitudeDegrees>-3.84287252090871334075927734375</LongitudeDegrees>
            </Position>
            <AltitudeMeters>902.4000244140625</AltitudeMeters>
            <DistanceMeters>NAN</DistanceMeters>
          </Trackpoint>
          <Trackpoint>
            <Time>2020-03-07T17:10:22.000Z</Time>
            <Position>
              <LatitudeDegrees>40.7395679689943790435791015625</LatitudeDegrees>
              <LongitudeDegrees>-3.8428174518048763275146484375</LongitudeDegrees>
            </Position>
            <AltitudeMeters>902.20001220703125</AltitudeMeters>
            <DistanceMeters>NAN</DistanceMeters>
          </Trackpoint>
          <Trackpoint>
            <Time>2020-03-07T17:10:23.000Z</Time>
            <Position>
              <LatitudeDegrees>40.7396172545850276947021484375</LatitudeDegrees>
              <LongitudeDegrees>-3.8427611254155635833740234375</LongitudeDegrees>
            </Position>
            <AltitudeMeters>902.20001220703125</AltitudeMeters>
            <DistanceMeters>NAN</DistanceMeters>
          </Trackpoint>
          <Trackpoint>
            <Time>2020-03-07T17:10:24.000Z</Time>
            <Position>
              <LatitudeDegrees>40.73966427706182003021240234375</LatitudeDegrees>
              <LongitudeDegrees>-3.84270253591239452362060546875</LongitudeDegrees>
            </Position>
            <AltitudeMeters>902.20001220703125</AltitudeMeters>
            <DistanceMeters>NAN</DistanceMeters>
          </Trackpoint>
          <Trackpoint>
            <Time>2020-03-07T17:10:25.000Z</Time>
            <Position>
              <LatitudeDegrees>40.73971054516732692718505859375</LatitudeDegrees>
              <LongitudeDegrees>-3.84264118038117885589599609375</LongitudeDegrees>
            </Position>
            <AltitudeMeters>902.20001220703125</AltitudeMeters>
            <DistanceMeters>NAN</DistanceMeters>
          </Trackpoint>
          <Trackpoint>
            <Time>2020-03-07T17:10:26.000Z</Time>
            <Position>
              <LatitudeDegrees>40.7397563941776752471923828125</LatitudeDegrees>
              <LongitudeDegrees>-3.84257747791707515716552734375</LongitudeDegrees>
            </Position>
            <AltitudeMeters>902.20001220703125</AltitudeMeters>
            <DistanceMeters>NAN</DistanceMeters>
          </Trackpoint>
          <Trackpoint>
            <Time>2020-03-07T17:10:27.000Z</Time>
            <Position>
              <LatitudeDegrees>40.73979721404612064361572265625</LatitudeDegrees>
              <LongitudeDegrees>-3.84251209907233715057373046875</LongitudeDegrees>
            </Position>
            <AltitudeMeters>902.20001220703125</AltitudeMeters>
            <DistanceMeters>NAN</DistanceMeters>
          </Trackpoint>
          <Trackpoint>
            <Time>2020-03-07T17:10:28.000Z</Time>
            <Position>
              <LatitudeDegrees>40.73983996175229549407958984375</LatitudeDegrees>
              <LongitudeDegrees>-3.84244521148502826690673828125</LongitudeDegrees>
            </Position>
            <AltitudeMeters>902.20001220703125</AltitudeMeters>
            <DistanceMeters>NAN</DistanceMeters>
          </Trackpoint>
          <Trackpoint>
            <Time>2020-03-07T17:10:29.000Z</Time>
            <Position>
              <LatitudeDegrees>40.7398824580013751983642578125</LatitudeDegrees>
              <LongitudeDegrees>-3.8423762284219264984130859375</LongitudeDegrees>
            </Position>
            <AltitudeMeters>902.20001220703125</AltitudeMeters>
            <DistanceMeters>NAN</DistanceMeters>
          </Trackpoint>
          <Trackpoint>
            <Time>2020-03-07T17:10:30.000Z</Time>
            <Position>
              <LatitudeDegrees>40.73992227204144001007080078125</LatitudeDegrees>
              <LongitudeDegrees>-3.84230372495949268341064453125</LongitudeDegrees>
            </Position>
            <AltitudeMeters>902.20001220703125</AltitudeMeters>
            <DistanceMeters>NAN</DistanceMeters>
          </Trackpoint>
          <Trackpoint>
            <Time>2020-03-07T17:10:31.000Z</Time>
            <Position>
              <LatitudeDegrees>40.73996216990053653717041015625</LatitudeDegrees>
              <LongitudeDegrees>-3.84222828783094882965087890625</LongitudeDegrees>
            </Position>
            <AltitudeMeters>902.20001220703125</AltitudeMeters>
            <DistanceMeters>NAN</DistanceMeters>
          </Trackpoint>
          <Trackpoint>
            <Time>2020-03-07T17:10:32.000Z</Time>
            <Position>
              <LatitudeDegrees>40.74000005610287189483642578125</LatitudeDegrees>
              <LongitudeDegrees>-3.8421495817601680755615234375</LongitudeDegrees>
            </Position>
            <AltitudeMeters>902.20001220703125</AltitudeMeters>
            <DistanceMeters>NAN</DistanceMeters>
          </Trackpoint>
          <Trackpoint>
            <Time>2020-03-07T17:10:33.000Z</Time>
            <Position>
              <LatitudeDegrees>40.7400373555719852447509765625</LatitudeDegrees>
              <LongitudeDegrees>-3.84206970222294330596923828125</LongitudeDegrees>
            </Position>
            <AltitudeMeters>902.20001220703125</AltitudeMeters>
            <DistanceMeters>NAN</DistanceMeters>
          </Trackpoint>
          <Trackpoint>
            <Time>2020-03-07T17:10:34.000Z</Time>
            <Position>
              <LatitudeDegrees>40.74007482267916202545166015625</LatitudeDegrees>
              <LongitudeDegrees>-3.84198940359055995941162109375</LongitudeDegrees>
            </Position>
            <AltitudeMeters>902.20001220703125</AltitudeMeters>
            <DistanceMeters>NAN</DistanceMeters>
          </Trackpoint>
          <Trackpoint>
            <Time>2020-03-07T17:10:35.000Z</Time>
            <Position>
              <LatitudeDegrees>40.740109272301197052001953125</LatitudeDegrees>
              <LongitudeDegrees>-3.84190893732011318206787109375</LongitudeDegrees>
            </Position>
            <AltitudeMeters>902.20001220703125</AltitudeMeters>
            <DistanceMeters>NAN</DistanceMeters>
          </Trackpoint>
          <Trackpoint>
            <Time>2020-03-07T17:10:36.000Z</Time>
            <Position>
              <LatitudeDegrees>40.7401419617235660552978515625</LatitudeDegrees>
              <LongitudeDegrees>-3.8418277166783809661865234375</LongitudeDegrees>
            </Position>
            <AltitudeMeters>902.4000244140625</AltitudeMeters>
            <DistanceMeters>NAN</DistanceMeters>
          </Trackpoint>
          <Trackpoint>
            <Time>2020-03-07T17:10:37.000Z</Time>
            <Position>
              <LatitudeDegrees>40.7401751540601253509521484375</LatitudeDegrees>
              <LongitudeDegrees>-3.8417455740272998809814453125</LongitudeDegrees>
            </Position>
            <AltitudeMeters>902.4000244140625</AltitudeMeters>
            <DistanceMeters>NAN</DistanceMeters>
          </Trackpoint>
          <Trackpoint>
            <Time>2020-03-07T17:10:38.000Z</Time>
            <Position>
              <LatitudeDegrees>40.74020843021571636199951171875</LatitudeDegrees>
              <LongitudeDegrees>-3.841663934290409088134765625</LongitudeDegrees>
            </Position>
            <AltitudeMeters>902.4000244140625</AltitudeMeters>
            <DistanceMeters>NAN</DistanceMeters>
          </Trackpoint>
          <Trackpoint>
            <Time>2020-03-07T17:10:39.000Z</Time>
            <Position>
              <LatitudeDegrees>40.7402415387332439422607421875</LatitudeDegrees>
              <LongitudeDegrees>-3.84158288128674030303955078125</LongitudeDegrees>
            </Position>
            <AltitudeMeters>902.4000244140625</AltitudeMeters>
            <DistanceMeters>NAN</DistanceMeters>
          </Trackpoint>
          <Trackpoint>
            <Time>2020-03-07T17:10:40.000Z</Time>
            <Position>
              <LatitudeDegrees>40.74027682654559612274169921875</LatitudeDegrees>
              <LongitudeDegrees>-3.84149990044534206390380859375</LongitudeDegrees>
            </Position>
            <AltitudeMeters>902.4000244140625</AltitudeMeters>
            <DistanceMeters>NAN</DistanceMeters>
          </Trackpoint>
          <Trackpoint>
            <Time>2020-03-07T17:10:41.000Z</Time>
            <Position>
              <LatitudeDegrees>40.74031135998666286468505859375</LatitudeDegrees>
              <LongitudeDegrees>-3.84141759015619754791259765625</LongitudeDegrees>
            </Position>
            <AltitudeMeters>902.4000244140625</AltitudeMeters>
            <DistanceMeters>NAN</DistanceMeters>
          </Trackpoint>
          <Trackpoint>
            <Time>2020-03-07T17:10:42.000Z</Time>
            <Position>
              <LatitudeDegrees>40.74034689925611019134521484375</LatitudeDegrees>
              <LongitudeDegrees>-3.84133544750511646270751953125</LongitudeDegrees>
            </Position>
            <AltitudeMeters>902.4000244140625</AltitudeMeters>
            <DistanceMeters>NAN</DistanceMeters>
          </Trackpoint>
          <Trackpoint>
            <Time>2020-03-07T17:10:43.000Z</Time>
            <Position>
              <LatitudeDegrees>40.7403826899826526641845703125</LatitudeDegrees>
              <LongitudeDegrees>-3.8412523828446865081787109375</LongitudeDegrees>
            </Position>
            <AltitudeMeters>902.4000244140625</AltitudeMeters>
            <DistanceMeters>NAN</DistanceMeters>
          </Trackpoint>
          <Trackpoint>
            <Time>2020-03-07T17:10:44.000Z</Time>
            <Position>
              <LatitudeDegrees>40.74041797779500484466552734375</LatitudeDegrees>
              <LongitudeDegrees>-3.84117074310779571533203125</LongitudeDegrees>
            </Position>
            <AltitudeMeters>902.4000244140625</AltitudeMeters>
            <DistanceMeters>NAN</DistanceMeters>
          </Trackpoint>
          <Trackpoint>
            <Time>2020-03-07T17:10:45.000Z</Time>
            <Position>
              <LatitudeDegrees>40.74045435525476932525634765625</LatitudeDegrees>
              <LongitudeDegrees>-3.84108767844736576080322265625</LongitudeDegrees>
            </Position>
            <AltitudeMeters>902.4000244140625</AltitudeMeters>
            <DistanceMeters>NAN</DistanceMeters>
          </Trackpoint>
          <Trackpoint>
            <Time>2020-03-07T17:10:46.000Z</Time>
            <Position>
              <LatitudeDegrees>40.74049006216228008270263671875</LatitudeDegrees>
              <LongitudeDegrees>-3.84100520052015781402587890625</LongitudeDegrees>
            </Position>
            <AltitudeMeters>902.4000244140625</AltitudeMeters>
            <DistanceMeters>NAN</DistanceMeters>
          </Trackpoint>
          <Trackpoint>
            <Time>2020-03-07T17:10:47.000Z</Time>
            <Position>
              <LatitudeDegrees>40.7405241765081882476806640625</LatitudeDegrees>
              <LongitudeDegrees>-3.84092255495488643646240234375</LongitudeDegrees>
            </Position>
            <AltitudeMeters>902.4000244140625</AltitudeMeters>
            <DistanceMeters>NAN</DistanceMeters>
          </Trackpoint>
          <Trackpoint>
            <Time>2020-03-07T17:10:48.000Z</Time>
            <Position>
              <LatitudeDegrees>40.74055627919733524322509765625</LatitudeDegrees>
              <LongitudeDegrees>-3.840841166675090789794921875</LongitudeDegrees>
            </Position>
            <AltitudeMeters>902.4000244140625</AltitudeMeters>
            <DistanceMeters>NAN</DistanceMeters>
          </Trackpoint>
          <Trackpoint>
            <Time>2020-03-07T17:10:49.000Z</Time>
            <Position>
              <LatitudeDegrees>40.74058829806745052337646484375</LatitudeDegrees>
              <LongitudeDegrees>-3.8407595269381999969482421875</LongitudeDegrees>
            </Position>
            <AltitudeMeters>902.20001220703125</AltitudeMeters>
            <DistanceMeters>NAN</DistanceMeters>
          </Trackpoint>
          <Trackpoint>
            <Time>2020-03-07T17:10:50.000Z</Time>
            <Position>
              <LatitudeDegrees>40.74062115512788295745849609375</LatitudeDegrees>
              <LongitudeDegrees>-3.8406783901154994964599609375</LongitudeDegrees>
            </Position>
            <AltitudeMeters>902.20001220703125</AltitudeMeters>
            <DistanceMeters>NAN</DistanceMeters>
          </Trackpoint>
          <Trackpoint>
            <Time>2020-03-07T17:10:51.000Z</Time>
            <Position>
              <LatitudeDegrees>40.7406562753021717071533203125</LatitudeDegrees>
              <LongitudeDegrees>-3.84059532545506954193115234375</LongitudeDegrees>
            </Position>
            <AltitudeMeters>902.20001220703125</AltitudeMeters>
            <DistanceMeters>NAN</DistanceMeters>
          </Trackpoint>
          <Trackpoint>
            <Time>2020-03-07T17:10:52.000Z</Time>
            <Position>
              <LatitudeDegrees>40.74068971909582614898681640625</LatitudeDegrees>
              <LongitudeDegrees>-3.840512596070766448974609375</LongitudeDegrees>
            </Position>
            <AltitudeMeters>902.20001220703125</AltitudeMeters>
            <DistanceMeters>NAN</DistanceMeters>
          </Trackpoint>
          <Trackpoint>
            <Time>2020-03-07T17:10:53.000Z</Time>
            <Position>
              <LatitudeDegrees>40.7407231628894805908203125</LatitudeDegrees>
              <LongitudeDegrees>-3.84042969904839992523193359375</LongitudeDegrees>
            </Position>
            <AltitudeMeters>902.20001220703125</AltitudeMeters>
            <DistanceMeters>NAN</DistanceMeters>
          </Trackpoint>
          <Trackpoint>
            <Time>2020-03-07T17:10:54.000Z</Time>
            <Position>
              <LatitudeDegrees>40.74075601994991302490234375</LatitudeDegrees>
              <LongitudeDegrees>-3.84034655056893825531005859375</LongitudeDegrees>
            </Position>
            <AltitudeMeters>902.20001220703125</AltitudeMeters>
            <DistanceMeters>NAN</DistanceMeters>
          </Trackpoint>
          <Trackpoint>
            <Time>2020-03-07T17:10:55.000Z</Time>
            <Position>
              <LatitudeDegrees>40.74078996665775775909423828125</LatitudeDegrees>
              <LongitudeDegrees>-3.84026256389915943145751953125</LongitudeDegrees>
            </Position>
            <AltitudeMeters>902.20001220703125</AltitudeMeters>
            <DistanceMeters>NAN</DistanceMeters>
          </Trackpoint>
          <Trackpoint>
            <Time>2020-03-07T17:10:56.000Z</Time>
            <Position>
              <LatitudeDegrees>40.740823410451412200927734375</LatitudeDegrees>
              <LongitudeDegrees>-3.84017790667712688446044921875</LongitudeDegrees>
            </Position>
            <AltitudeMeters>902.20001220703125</AltitudeMeters>
            <DistanceMeters>NAN</DistanceMeters>
          </Trackpoint>
          <Trackpoint>
            <Time>2020-03-07T17:10:57.000Z</Time>
            <Position>
              <LatitudeDegrees>40.74085752479732036590576171875</LatitudeDegrees>
              <LongitudeDegrees>-3.840092830359935760498046875</LongitudeDegrees>
            </Position>
            <AltitudeMeters>902.20001220703125</AltitudeMeters>
            <DistanceMeters>NAN</DistanceMeters>
          </Trackpoint>
          <Trackpoint>
            <Time>2020-03-07T17:10:58.000Z</Time>
            <Position>
              <LatitudeDegrees>40.74089172296226024627685546875</LatitudeDegrees>
              <LongitudeDegrees>-3.84000825695693492889404296875</LongitudeDegrees>
            </Position>
            <AltitudeMeters>902.20001220703125</AltitudeMeters>
            <DistanceMeters>NAN</DistanceMeters>
          </Trackpoint>
          <Trackpoint>
            <Time>2020-03-07T17:10:59.000Z</Time>
            <Position>
              <LatitudeDegrees>40.7409268431365489959716796875</LatitudeDegrees>
              <LongitudeDegrees>-3.839923180639743804931640625</LongitudeDegrees>
            </Position>
            <AltitudeMeters>902.20001220703125</AltitudeMeters>
            <DistanceMeters>NAN</DistanceMeters>
          </Trackpoint>
          <Trackpoint>
            <Time>2020-03-07T17:11:00.000Z</Time>
            <Position>
              <LatitudeDegrees>40.740961544215679168701171875</LatitudeDegrees>
              <LongitudeDegrees>-3.83983944542706012725830078125</LongitudeDegrees>
            </Position>
            <AltitudeMeters>902.20001220703125</AltitudeMeters>
            <DistanceMeters>NAN</DistanceMeters>
          </Trackpoint>
          <Trackpoint>
            <Time>2020-03-07T17:11:01.000Z</Time>
            <Position>
              <LatitudeDegrees>40.74099616147577762603759765625</LatitudeDegrees>
              <LongitudeDegrees>-3.8397567160427570343017578125</LongitudeDegrees>
            </Position>
            <AltitudeMeters>902.20001220703125</AltitudeMeters>
            <DistanceMeters>NAN</DistanceMeters>
          </Trackpoint>
          <Trackpoint>
            <Time>2020-03-07T17:11:02.000Z</Time>
            <Position>
              <LatitudeDegrees>40.7410314492881298065185546875</LatitudeDegrees>
              <LongitudeDegrees>-3.83967700414359569549560546875</LongitudeDegrees>
            </Position>
            <AltitudeMeters>902.20001220703125</AltitudeMeters>
            <DistanceMeters>NAN</DistanceMeters>
          </Trackpoint>
          <Trackpoint>
            <Time>2020-03-07T17:11:03.000Z</Time>
            <Position>
              <LatitudeDegrees>40.74106514453887939453125</LatitudeDegrees>
              <LongitudeDegrees>-3.83959829807281494140625</LongitudeDegrees>
            </Position>
            <AltitudeMeters>902.20001220703125</AltitudeMeters>
            <DistanceMeters>NAN</DistanceMeters>
          </Trackpoint>
          <Trackpoint>
            <Time>2020-03-07T17:11:04.000Z</Time>
            <Position>
              <LatitudeDegrees>40.7411008514463901519775390625</LatitudeDegrees>
              <LongitudeDegrees>-3.83951892144978046417236328125</LongitudeDegrees>
            </Position>
            <AltitudeMeters>902.20001220703125</AltitudeMeters>
            <DistanceMeters>NAN</DistanceMeters>
          </Trackpoint>
          <Trackpoint>
            <Time>2020-03-07T17:11:05.000Z</Time>
            <Position>
              <LatitudeDegrees>40.74113328941166400909423828125</LatitudeDegrees>
              <LongitudeDegrees>-3.83944013155996799468994140625</LongitudeDegrees>
            </Position>
            <AltitudeMeters>902.20001220703125</AltitudeMeters>
            <DistanceMeters>NAN</DistanceMeters>
          </Trackpoint>
          <Trackpoint>
            <Time>2020-03-07T17:11:06.000Z</Time>
            <Position>
              <LatitudeDegrees>40.74116497300565242767333984375</LatitudeDegrees>
              <LongitudeDegrees>-3.83936025202274322509765625</LongitudeDegrees>
            </Position>
            <AltitudeMeters>902.20001220703125</AltitudeMeters>
            <DistanceMeters>NAN</DistanceMeters>
          </Trackpoint>
          <Trackpoint>
            <Time>2020-03-07T17:11:07.000Z</Time>
            <Position>
              <LatitudeDegrees>40.741195566952228546142578125</LatitudeDegrees>
              <LongitudeDegrees>-3.839281462132930755615234375</LongitudeDegrees>
            </Position>
            <AltitudeMeters>902.20001220703125</AltitudeMeters>
            <DistanceMeters>NAN</DistanceMeters>
          </Trackpoint>
          <Trackpoint>
            <Time>2020-03-07T17:11:08.000Z</Time>
            <Position>
              <LatitudeDegrees>40.7412255741655826568603515625</LatitudeDegrees>
              <LongitudeDegrees>-3.83920242078602313995361328125</LongitudeDegrees>
            </Position>
            <AltitudeMeters>902.20001220703125</AltitudeMeters>
            <DistanceMeters>NAN</DistanceMeters>
          </Trackpoint>
          <Trackpoint>
            <Time>2020-03-07T17:11:09.000Z</Time>
            <Position>
              <LatitudeDegrees>40.74125549755990505218505859375</LatitudeDegrees>
              <LongitudeDegrees>-3.83912178687751293182373046875</LongitudeDegrees>
            </Position>
            <AltitudeMeters>902</AltitudeMeters>
            <DistanceMeters>NAN</DistanceMeters>
          </Trackpoint>
          <Trackpoint>
            <Time>2020-03-07T17:11:10.000Z</Time>
            <Position>
              <LatitudeDegrees>40.74128651060163974761962890625</LatitudeDegrees>
              <LongitudeDegrees>-3.8390402309596538543701171875</LongitudeDegrees>
            </Position>
            <AltitudeMeters>902</AltitudeMeters>
            <DistanceMeters>NAN</DistanceMeters>
          </Trackpoint>
          <Trackpoint>
            <Time>2020-03-07T17:11:11.000Z</Time>
            <Position>
              <LatitudeDegrees>40.74132087640464305877685546875</LatitudeDegrees>
              <LongitudeDegrees>-3.83895657956600189208984375</LongitudeDegrees>
            </Position>
            <AltitudeMeters>902</AltitudeMeters>
            <DistanceMeters>NAN</DistanceMeters>
          </Trackpoint>
          <Trackpoint>
            <Time>2020-03-07T17:11:12.000Z</Time>
            <Position>
              <LatitudeDegrees>40.7413536496460437774658203125</LatitudeDegrees>
              <LongitudeDegrees>-3.83887485601007938385009765625</LongitudeDegrees>
            </Position>
            <AltitudeMeters>902</AltitudeMeters>
            <DistanceMeters>NAN</DistanceMeters>
          </Trackpoint>
          <Trackpoint>
            <Time>2020-03-07T17:11:13.000Z</Time>
            <Position>
              <LatitudeDegrees>40.7413885183632373809814453125</LatitudeDegrees>
              <LongitudeDegrees>-3.838791288435459136962890625</LongitudeDegrees>
            </Position>
            <AltitudeMeters>902</AltitudeMeters>
            <DistanceMeters>NAN</DistanceMeters>
          </Trackpoint>
          <Trackpoint>
            <Time>2020-03-07T17:11:14.000Z</Time>
            <Position>
              <LatitudeDegrees>40.74142388999462127685546875</LatitudeDegrees>
              <LongitudeDegrees>-3.83870738558471202850341796875</LongitudeDegrees>
            </Position>
            <AltitudeMeters>902</AltitudeMeters>
            <DistanceMeters>NAN</DistanceMeters>
          </Trackpoint>
          <Trackpoint>
            <Time>2020-03-07T17:11:15.000Z</Time>
            <Position>
              <LatitudeDegrees>40.74146118946373462677001953125</LatitudeDegrees>
              <LongitudeDegrees>-3.838622309267520904541015625</LongitudeDegrees>
            </Position>
            <AltitudeMeters>902</AltitudeMeters>
            <DistanceMeters>NAN</DistanceMeters>
          </Trackpoint>
          <Trackpoint>
            <Time>2020-03-07T17:11:16.000Z</Time>
            <Position>
              <LatitudeDegrees>40.741497315466403961181640625</LatitudeDegrees>
              <LongitudeDegrees>-3.83853589184582233428955078125</LongitudeDegrees>
            </Position>
            <AltitudeMeters>902</AltitudeMeters>
            <DistanceMeters>NAN</DistanceMeters>
          </Trackpoint>
          <Trackpoint>
            <Time>2020-03-07T17:11:17.000Z</Time>
            <Position>
              <LatitudeDegrees>40.74153117835521697998046875</LatitudeDegrees>
              <LongitudeDegrees>-3.83845022879540920257568359375</LongitudeDegrees>
            </Position>
            <AltitudeMeters>902</AltitudeMeters>
            <DistanceMeters>NAN</DistanceMeters>
          </Trackpoint>
          <Trackpoint>
            <Time>2020-03-07T17:11:18.000Z</Time>
            <Position>
              <LatitudeDegrees>40.74156596325337886810302734375</LatitudeDegrees>
              <LongitudeDegrees>-3.83836205117404460906982421875</LongitudeDegrees>
            </Position>
            <AltitudeMeters>902</AltitudeMeters>
            <DistanceMeters>NAN</DistanceMeters>
          </Trackpoint>
          <Trackpoint>
            <Time>2020-03-07T17:11:19.000Z</Time>
            <Position>
              <LatitudeDegrees>40.74160066433250904083251953125</LatitudeDegrees>
              <LongitudeDegrees>-3.83827337063848972320556640625</LongitudeDegrees>
            </Position>
            <AltitudeMeters>902</AltitudeMeters>
            <DistanceMeters>NAN</DistanceMeters>
          </Trackpoint>
          <Trackpoint>
            <Time>2020-03-07T17:11:20.000Z</Time>
            <Position>
              <LatitudeDegrees>40.74163503013551235198974609375</LatitudeDegrees>
              <LongitudeDegrees>-3.8381832651793956756591796875</LongitudeDegrees>
            </Position>
            <AltitudeMeters>902</AltitudeMeters>
            <DistanceMeters>NAN</DistanceMeters>
          </Trackpoint>
          <Trackpoint>
            <Time>2020-03-07T17:11:21.000Z</Time>
            <Position>
              <LatitudeDegrees>40.7416664622724056243896484375</LatitudeDegrees>
              <LongitudeDegrees>-3.8380907289683818817138671875</LongitudeDegrees>
            </Position>
            <AltitudeMeters>902.20001220703125</AltitudeMeters>
            <DistanceMeters>NAN</DistanceMeters>
          </Trackpoint>
          <Trackpoint>
            <Time>2020-03-07T17:11:22.000Z</Time>
            <Position>
              <LatitudeDegrees>40.7416966371238231658935546875</LatitudeDegrees>
              <LongitudeDegrees>-3.83799576200544834136962890625</LongitudeDegrees>
            </Position>
            <AltitudeMeters>902.20001220703125</AltitudeMeters>
            <DistanceMeters>NAN</DistanceMeters>
          </Trackpoint>
          <Trackpoint>
            <Time>2020-03-07T17:11:23.000Z</Time>
            <Position>
              <LatitudeDegrees>40.7417258061468601226806640625</LatitudeDegrees>
              <LongitudeDegrees>-3.8378982804715633392333984375</LongitudeDegrees>
            </Position>
            <AltitudeMeters>902.20001220703125</AltitudeMeters>
            <DistanceMeters>NAN</DistanceMeters>
          </Trackpoint>
          <Trackpoint>
            <Time>2020-03-07T17:11:24.000Z</Time>
            <Position>
              <LatitudeDegrees>40.74175204150378704071044921875</LatitudeDegrees>
              <LongitudeDegrees>-3.83780146948993206024169921875</LongitudeDegrees>
            </Position>
            <AltitudeMeters>902.20001220703125</AltitudeMeters>
            <DistanceMeters>NAN</DistanceMeters>
          </Trackpoint>
          <Trackpoint>
            <Time>2020-03-07T17:11:25.000Z</Time>
            <Position>
              <LatitudeDegrees>40.74177333153784275054931640625</LatitudeDegrees>
              <LongitudeDegrees>-3.83770465850830078125</LongitudeDegrees>
            </Position>
            <AltitudeMeters>902.20001220703125</AltitudeMeters>
            <DistanceMeters>NAN</DistanceMeters>
          </Trackpoint>
          <Trackpoint>
            <Time>2020-03-07T17:11:26.000Z</Time>
            <Position>
              <LatitudeDegrees>40.741791017353534698486328125</LatitudeDegrees>
              <LongitudeDegrees>-3.8376080989837646484375</LongitudeDegrees>
            </Position>
            <AltitudeMeters>902.20001220703125</AltitudeMeters>
            <DistanceMeters>NAN</DistanceMeters>
          </Trackpoint>
          <Trackpoint>
            <Time>2020-03-07T17:11:27.000Z</Time>
            <Position>
              <LatitudeDegrees>40.74180769734084606170654296875</LatitudeDegrees>
              <LongitudeDegrees>-3.8375107012689113616943359375</LongitudeDegrees>
            </Position>
            <AltitudeMeters>902.20001220703125</AltitudeMeters>
            <DistanceMeters>NAN</DistanceMeters>
          </Trackpoint>
          <Trackpoint>
            <Time>2020-03-07T17:11:28.000Z</Time>
            <Position>
              <LatitudeDegrees>40.74182177893817424774169921875</LatitudeDegrees>
              <LongitudeDegrees>-3.8374128006398677825927734375</LongitudeDegrees>
            </Position>
            <AltitudeMeters>902.20001220703125</AltitudeMeters>
            <DistanceMeters>NAN</DistanceMeters>
          </Trackpoint>
          <Trackpoint>
            <Time>2020-03-07T17:11:29.000Z</Time>
            <Position>
              <LatitudeDegrees>40.74183384887874126434326171875</LatitudeDegrees>
              <LongitudeDegrees>-3.83731364272534847259521484375</LongitudeDegrees>
            </Position>
            <AltitudeMeters>902.20001220703125</AltitudeMeters>
            <DistanceMeters>NAN</DistanceMeters>
          </Trackpoint>
          <Trackpoint>
            <Time>2020-03-07T17:11:30.000Z</Time>
            <Position>
              <LatitudeDegrees>40.74184256605803966522216796875</LatitudeDegrees>
              <LongitudeDegrees>-3.837212808430194854736328125</LongitudeDegrees>
            </Position>
            <AltitudeMeters>902.20001220703125</AltitudeMeters>
            <DistanceMeters>NAN</DistanceMeters>
          </Trackpoint>
          <Trackpoint>
            <Time>2020-03-07T17:11:31.000Z</Time>
            <Position>
              <LatitudeDegrees>40.74184776283800601959228515625</LatitudeDegrees>
              <LongitudeDegrees>-3.83711314760148525238037109375</LongitudeDegrees>
            </Position>
            <AltitudeMeters>902.20001220703125</AltitudeMeters>
            <DistanceMeters>NAN</DistanceMeters>
          </Trackpoint>
          <Trackpoint>
            <Time>2020-03-07T17:11:32.000Z</Time>
            <Position>
              <LatitudeDegrees>40.7418471761047840118408203125</LatitudeDegrees>
              <LongitudeDegrees>-3.8370131514966487884521484375</LongitudeDegrees>
            </Position>
            <AltitudeMeters>902.20001220703125</AltitudeMeters>
            <DistanceMeters>NAN</DistanceMeters>
          </Trackpoint>
          <Trackpoint>
            <Time>2020-03-07T17:11:33.000Z</Time>
            <Position>
              <LatitudeDegrees>40.74184139259159564971923828125</LatitudeDegrees>
              <LongitudeDegrees>-3.83691382594406604766845703125</LongitudeDegrees>
            </Position>
            <AltitudeMeters>902.20001220703125</AltitudeMeters>
            <DistanceMeters>NAN</DistanceMeters>
          </Trackpoint>
          <Trackpoint>
            <Time>2020-03-07T17:11:34.000Z</Time>
            <Position>
              <LatitudeDegrees>40.7418330945074558258056640625</LatitudeDegrees>
              <LongitudeDegrees>-3.8368146680295467376708984375</LongitudeDegrees>
            </Position>
            <AltitudeMeters>902.20001220703125</AltitudeMeters>
            <DistanceMeters>NAN</DistanceMeters>
          </Trackpoint>
          <Trackpoint>
            <Time>2020-03-07T17:11:35.000Z</Time>
            <Position>
              <LatitudeDegrees>40.741814486682415008544921875</LatitudeDegrees>
              <LongitudeDegrees>-3.8367221318185329437255859375</LongitudeDegrees>
            </Position>
            <AltitudeMeters>902.20001220703125</AltitudeMeters>
            <DistanceMeters>NAN</DistanceMeters>
          </Trackpoint>
          <Trackpoint>
            <Time>2020-03-07T17:11:36.000Z</Time>
            <Position>
              <LatitudeDegrees>40.7417968846857547760009765625</LatitudeDegrees>
              <LongitudeDegrees>-3.8366262428462505340576171875</LongitudeDegrees>
            </Position>
            <AltitudeMeters>902.20001220703125</AltitudeMeters>
            <DistanceMeters>NAN</DistanceMeters>
          </Trackpoint>
          <Trackpoint>
            <Time>2020-03-07T17:11:37.000Z</Time>
            <Position>
              <LatitudeDegrees>40.741781629621982574462890625</LatitudeDegrees>
              <LongitudeDegrees>-3.8365259952843189239501953125</LongitudeDegrees>
            </Position>
            <AltitudeMeters>902.20001220703125</AltitudeMeters>
            <DistanceMeters>NAN</DistanceMeters>
          </Trackpoint>
          <Trackpoint>
            <Time>2020-03-07T17:11:38.000Z</Time>
            <Position>
              <LatitudeDegrees>40.74176662601530551910400390625</LatitudeDegrees>
              <LongitudeDegrees>-3.83642616681754589080810546875</LongitudeDegrees>
            </Position>
            <AltitudeMeters>902</AltitudeMeters>
            <DistanceMeters>NAN</DistanceMeters>
          </Trackpoint>
          <Trackpoint>
            <Time>2020-03-07T17:11:39.000Z</Time>
            <Position>
              <LatitudeDegrees>40.7417509518563747406005859375</LatitudeDegrees>
              <LongitudeDegrees>-3.83632667362689971923828125</LongitudeDegrees>
            </Position>
            <AltitudeMeters>901.5999755859375</AltitudeMeters>
            <DistanceMeters>NAN</DistanceMeters>
          </Trackpoint>
          <Trackpoint>
            <Time>2020-03-07T17:11:40.000Z</Time>
            <Position>
              <LatitudeDegrees>40.74173293076455593109130859375</LatitudeDegrees>
              <LongitudeDegrees>-3.83622701279819011688232421875</LongitudeDegrees>
            </Position>
            <AltitudeMeters>901.4000244140625</AltitudeMeters>
            <DistanceMeters>NAN</DistanceMeters>
          </Trackpoint>
          <Trackpoint>
            <Time>2020-03-07T17:11:41.000Z</Time>
            <Position>
              <LatitudeDegrees>40.7417144067585468292236328125</LatitudeDegrees>
              <LongitudeDegrees>-3.83612877689301967620849609375</LongitudeDegrees>
            </Position>
            <AltitudeMeters>901.20001220703125</AltitudeMeters>
            <DistanceMeters>NAN</DistanceMeters>
          </Trackpoint>
          <Trackpoint>
            <Time>2020-03-07T17:11:42.000Z</Time>
            <Position>
              <LatitudeDegrees>40.74169454164803028106689453125</LatitudeDegrees>
              <LongitudeDegrees>-3.83603221736848354339599609375</LongitudeDegrees>
            </Position>
            <AltitudeMeters>901.20001220703125</AltitudeMeters>
            <DistanceMeters>NAN</DistanceMeters>
          </Trackpoint>
          <Trackpoint>
            <Time>2020-03-07T17:11:43.000Z</Time>
            <Position>
              <LatitudeDegrees>40.74167224578559398651123046875</LatitudeDegrees>
              <LongitudeDegrees>-3.8359330594539642333984375</LongitudeDegrees>
            </Position>
            <AltitudeMeters>901</AltitudeMeters>
            <DistanceMeters>NAN</DistanceMeters>
          </Trackpoint>
          <Trackpoint>
            <Time>2020-03-07T17:11:44.000Z</Time>
            <Position>
              <LatitudeDegrees>40.7416517101228237152099609375</LatitudeDegrees>
              <LongitudeDegrees>-3.83583356626331806182861328125</LongitudeDegrees>
            </Position>
            <AltitudeMeters>901</AltitudeMeters>
            <DistanceMeters>NAN</DistanceMeters>
          </Trackpoint>
          <Trackpoint>
            <Time>2020-03-07T17:11:45.000Z</Time>
            <Position>
              <LatitudeDegrees>40.74163150973618030548095703125</LatitudeDegrees>
              <LongitudeDegrees>-3.83573591709136962890625</LongitudeDegrees>
            </Position>
            <AltitudeMeters>901</AltitudeMeters>
            <DistanceMeters>NAN</DistanceMeters>
          </Trackpoint>
          <Trackpoint>
            <Time>2020-03-07T17:11:46.000Z</Time>
            <Position>
              <LatitudeDegrees>40.74161231517791748046875</LatitudeDegrees>
              <LongitudeDegrees>-3.83563734591007232666015625</LongitudeDegrees>
            </Position>
            <AltitudeMeters>901</AltitudeMeters>
            <DistanceMeters>NAN</DistanceMeters>
          </Trackpoint>
          <Trackpoint>
            <Time>2020-03-07T17:11:47.000Z</Time>
            <Position>
              <LatitudeDegrees>40.74159261770546436309814453125</LatitudeDegrees>
              <LongitudeDegrees>-3.835538439452648162841796875</LongitudeDegrees>
            </Position>
            <AltitudeMeters>901</AltitudeMeters>
            <DistanceMeters>NAN</DistanceMeters>
          </Trackpoint>
          <Trackpoint>
            <Time>2020-03-07T17:11:48.000Z</Time>
            <Position>
              <LatitudeDegrees>40.74157266877591609954833984375</LatitudeDegrees>
              <LongitudeDegrees>-3.8354393653571605682373046875</LongitudeDegrees>
            </Position>
            <AltitudeMeters>901</AltitudeMeters>
            <DistanceMeters>NAN</DistanceMeters>
          </Trackpoint>
          <Trackpoint>
            <Time>2020-03-07T17:11:49.000Z</Time>
            <Position>
              <LatitudeDegrees>40.74155406095087528228759765625</LatitudeDegrees>
              <LongitudeDegrees>-3.83533953689038753509521484375</LongitudeDegrees>
            </Position>
            <AltitudeMeters>901</AltitudeMeters>
            <DistanceMeters>NAN</DistanceMeters>
          </Trackpoint>
          <Trackpoint>
            <Time>2020-03-07T17:11:50.000Z</Time>
            <Position>
              <LatitudeDegrees>40.74153444729745388031005859375</LatitudeDegrees>
              <LongitudeDegrees>-3.83524012751877307891845703125</LongitudeDegrees>
            </Position>
            <AltitudeMeters>900.79998779296875</AltitudeMeters>
            <DistanceMeters>NAN</DistanceMeters>
          </Trackpoint>
          <Trackpoint>
            <Time>2020-03-07T17:11:51.000Z</Time>
            <Position>
              <LatitudeDegrees>40.74151667766273021697998046875</LatitudeDegrees>
              <LongitudeDegrees>-3.8351423107087612152099609375</LongitudeDegrees>
            </Position>
            <AltitudeMeters>900.79998779296875</AltitudeMeters>
            <DistanceMeters>NAN</DistanceMeters>
          </Trackpoint>
          <Trackpoint>
            <Time>2020-03-07T17:11:52.000Z</Time>
            <Position>
              <LatitudeDegrees>40.741496980190277099609375</LatitudeDegrees>
              <LongitudeDegrees>-3.83504583500325679779052734375</LongitudeDegrees>
            </Position>
            <AltitudeMeters>900.79998779296875</AltitudeMeters>
            <DistanceMeters>NAN</DistanceMeters>
          </Trackpoint>
          <Trackpoint>
            <Time>2020-03-07T17:11:53.000Z</Time>
            <Position>
              <LatitudeDegrees>40.74147661216557025909423828125</LatitudeDegrees>
              <LongitudeDegrees>-3.83495044894516468048095703125</LongitudeDegrees>
            </Position>
            <AltitudeMeters>900.79998779296875</AltitudeMeters>
            <DistanceMeters>NAN</DistanceMeters>
          </Trackpoint>
          <Trackpoint>
            <Time>2020-03-07T17:11:54.000Z</Time>
            <Position>
              <LatitudeDegrees>40.74145381338894367218017578125</LatitudeDegrees>
              <LongitudeDegrees>-3.8348546437919139862060546875</LongitudeDegrees>
            </Position>
            <AltitudeMeters>900.79998779296875</AltitudeMeters>
            <DistanceMeters>NAN</DistanceMeters>
          </Trackpoint>
          <Trackpoint>
            <Time>2020-03-07T17:11:55.000Z</Time>
            <Position>
              <LatitudeDegrees>40.741430260241031646728515625</LatitudeDegrees>
              <LongitudeDegrees>-3.83475959300994873046875</LongitudeDegrees>
            </Position>
            <AltitudeMeters>900.79998779296875</AltitudeMeters>
            <DistanceMeters>NAN</DistanceMeters>
          </Trackpoint>
          <Trackpoint>
            <Time>2020-03-07T17:11:56.000Z</Time>
            <Position>
              <LatitudeDegrees>40.7414069585502147674560546875</LatitudeDegrees>
              <LongitudeDegrees>-3.83466831408441066741943359375</LongitudeDegrees>
            </Position>
            <AltitudeMeters>900.79998779296875</AltitudeMeters>
            <DistanceMeters>NAN</DistanceMeters>
          </Trackpoint>
          <Trackpoint>
            <Time>2020-03-07T17:11:57.000Z</Time>
            <Position>
              <LatitudeDegrees>40.7413844950497150421142578125</LatitudeDegrees>
              <LongitudeDegrees>-3.83457812480628490447998046875</LongitudeDegrees>
            </Position>
            <AltitudeMeters>900.79998779296875</AltitudeMeters>
            <DistanceMeters>NAN</DistanceMeters>
          </Trackpoint>
          <Trackpoint>
            <Time>2020-03-07T17:11:58.000Z</Time>
            <Position>
              <LatitudeDegrees>40.7413640432059764862060546875</LatitudeDegrees>
              <LongitudeDegrees>-3.83448743261396884918212890625</LongitudeDegrees>
            </Position>
            <AltitudeMeters>901</AltitudeMeters>
            <DistanceMeters>NAN</DistanceMeters>
          </Trackpoint>
          <Trackpoint>
            <Time>2020-03-07T17:11:59.000Z</Time>
            <Position>
              <LatitudeDegrees>40.74134585447609424591064453125</LatitudeDegrees>
              <LongitudeDegrees>-3.834397830069065093994140625</LongitudeDegrees>
            </Position>
            <AltitudeMeters>901</AltitudeMeters>
            <DistanceMeters>NAN</DistanceMeters>
          </Trackpoint>
          <Trackpoint>
            <Time>2020-03-07T17:12:00.000Z</Time>
            <Position>
              <LatitudeDegrees>40.741329677402973175048828125</LatitudeDegrees>
              <LongitudeDegrees>-3.83430906571447849273681640625</LongitudeDegrees>
            </Position>
            <AltitudeMeters>901</AltitudeMeters>
            <DistanceMeters>NAN</DistanceMeters>
          </Trackpoint>
          <Trackpoint>
            <Time>2020-03-07T17:12:01.000Z</Time>
            <Position>
              <LatitudeDegrees>40.74131517671048641204833984375</LatitudeDegrees>
              <LongitudeDegrees>-3.8342219777405261993408203125</LongitudeDegrees>
            </Position>
            <AltitudeMeters>901</AltitudeMeters>
            <DistanceMeters>NAN</DistanceMeters>
          </Trackpoint>
          <Trackpoint>
            <Time>2020-03-07T17:12:02.000Z</Time>
            <Position>
              <LatitudeDegrees>40.74130293913185596466064453125</LatitudeDegrees>
              <LongitudeDegrees>-3.83413539268076419830322265625</LongitudeDegrees>
            </Position>
            <AltitudeMeters>901</AltitudeMeters>
            <DistanceMeters>NAN</DistanceMeters>
          </Trackpoint>
          <Trackpoint>
            <Time>2020-03-07T17:12:03.000Z</Time>
            <Position>
              <LatitudeDegrees>40.74129086919128894805908203125</LatitudeDegrees>
              <LongitudeDegrees>-3.834048807621002197265625</LongitudeDegrees>
            </Position>
            <AltitudeMeters>901</AltitudeMeters>
            <DistanceMeters>NAN</DistanceMeters>
          </Trackpoint>
          <Trackpoint>
            <Time>2020-03-07T17:12:04.000Z</Time>
            <Position>
              <LatitudeDegrees>40.7412805594503879547119140625</LatitudeDegrees>
              <LongitudeDegrees>-3.83396222256124019622802734375</LongitudeDegrees>
            </Position>
            <AltitudeMeters>901</AltitudeMeters>
            <DistanceMeters>NAN</DistanceMeters>
          </Trackpoint>
          <Trackpoint>
            <Time>2020-03-07T17:12:05.000Z</Time>
            <Position>
              <LatitudeDegrees>40.74127259664237499237060546875</LatitudeDegrees>
              <LongitudeDegrees>-3.8338753022253513336181640625</LongitudeDegrees>
            </Position>
            <AltitudeMeters>901</AltitudeMeters>
            <DistanceMeters>NAN</DistanceMeters>
          </Trackpoint>
          <Trackpoint>
            <Time>2020-03-07T17:12:06.000Z</Time>
            <Position>
              <LatitudeDegrees>40.741267316043376922607421875</LatitudeDegrees>
              <LongitudeDegrees>-3.83379072882235050201416015625</LongitudeDegrees>
            </Position>
            <AltitudeMeters>901</AltitudeMeters>
            <DistanceMeters>NAN</DistanceMeters>
          </Trackpoint>
          <Trackpoint>
            <Time>2020-03-07T17:12:07.000Z</Time>
            <Position>
              <LatitudeDegrees>40.7412636280059814453125</LatitudeDegrees>
              <LongitudeDegrees>-3.83370540104806423187255859375</LongitudeDegrees>
            </Position>
            <AltitudeMeters>901</AltitudeMeters>
            <DistanceMeters>NAN</DistanceMeters>
          </Trackpoint>
          <Trackpoint>
            <Time>2020-03-07T17:12:08.000Z</Time>
            <Position>
              <LatitudeDegrees>40.74126086197793483734130859375</LatitudeDegrees>
              <LongitudeDegrees>-3.833619654178619384765625</LongitudeDegrees>
            </Position>
            <AltitudeMeters>901</AltitudeMeters>
            <DistanceMeters>NAN</DistanceMeters>
          </Trackpoint>
          <Trackpoint>
            <Time>2020-03-07T17:12:09.000Z</Time>
            <Position>
              <LatitudeDegrees>40.74125952087342739105224609375</LatitudeDegrees>
              <LongitudeDegrees>-3.8335351645946502685546875</LongitudeDegrees>
            </Position>
            <AltitudeMeters>901</AltitudeMeters>
            <DistanceMeters>NAN</DistanceMeters>
          </Trackpoint>
          <Trackpoint>
            <Time>2020-03-07T17:12:10.000Z</Time>
            <Position>
              <LatitudeDegrees>40.7412611134350299835205078125</LatitudeDegrees>
              <LongitudeDegrees>-3.83344958536326885223388671875</LongitudeDegrees>
            </Position>
            <AltitudeMeters>901</AltitudeMeters>
            <DistanceMeters>NAN</DistanceMeters>
          </Trackpoint>
          <Trackpoint>
            <Time>2020-03-07T17:12:11.000Z</Time>
            <Position>
              <LatitudeDegrees>40.7412648014724254608154296875</LatitudeDegrees>
              <LongitudeDegrees>-3.83336551487445831298828125</LongitudeDegrees>
            </Position>
            <AltitudeMeters>901</AltitudeMeters>
            <DistanceMeters>NAN</DistanceMeters>
          </Trackpoint>
          <Trackpoint>
            <Time>2020-03-07T17:12:12.000Z</Time>
            <Position>
              <LatitudeDegrees>40.7412731833755970001220703125</LatitudeDegrees>
              <LongitudeDegrees>-3.83328177966177463531494140625</LongitudeDegrees>
            </Position>
            <AltitudeMeters>901</AltitudeMeters>
            <DistanceMeters>NAN</DistanceMeters>
          </Trackpoint>
          <Trackpoint>
            <Time>2020-03-07T17:12:13.000Z</Time>
            <Position>
              <LatitudeDegrees>40.74127972126007080078125</LatitudeDegrees>
              <LongitudeDegrees>-3.8331963680684566497802734375</LongitudeDegrees>
            </Position>
            <AltitudeMeters>901</AltitudeMeters>
            <DistanceMeters>NAN</DistanceMeters>
          </Trackpoint>
          <Trackpoint>
            <Time>2020-03-07T17:12:14.000Z</Time>
            <Position>
              <LatitudeDegrees>40.7412886060774326324462890625</LatitudeDegrees>
              <LongitudeDegrees>-3.833111710846424102783203125</LongitudeDegrees>
            </Position>
            <AltitudeMeters>901</AltitudeMeters>
            <DistanceMeters>NAN</DistanceMeters>
          </Trackpoint>
          <Trackpoint>
            <Time>2020-03-07T17:12:15.000Z</Time>
            <Position>
              <LatitudeDegrees>40.74129841290414333343505859375</LatitudeDegrees>
              <LongitudeDegrees>-3.8330247066915035247802734375</LongitudeDegrees>
            </Position>
            <AltitudeMeters>901</AltitudeMeters>
            <DistanceMeters>NAN</DistanceMeters>
          </Trackpoint>
          <Trackpoint>
            <Time>2020-03-07T17:12:16.000Z</Time>
            <Position>
              <LatitudeDegrees>40.74130763299763202667236328125</LatitudeDegrees>
              <LongitudeDegrees>-3.8329382054507732391357421875</LongitudeDegrees>
            </Position>
            <AltitudeMeters>901</AltitudeMeters>
            <DistanceMeters>NAN</DistanceMeters>
          </Trackpoint>
          <Trackpoint>
            <Time>2020-03-07T17:12:17.000Z</Time>
            <Position>
              <LatitudeDegrees>40.7413164339959621429443359375</LatitudeDegrees>
              <LongitudeDegrees>-3.83285229094326496124267578125</LongitudeDegrees>
            </Position>
            <AltitudeMeters>901</AltitudeMeters>
            <DistanceMeters>NAN</DistanceMeters>
          </Trackpoint>
          <Trackpoint>
            <Time>2020-03-07T17:12:18.000Z</Time>
            <Position>
              <LatitudeDegrees>40.7413254864513874053955078125</LatitudeDegrees>
              <LongitudeDegrees>-3.83276646025478839874267578125</LongitudeDegrees>
            </Position>
            <AltitudeMeters>901</AltitudeMeters>
            <DistanceMeters>NAN</DistanceMeters>
          </Trackpoint>
          <Trackpoint>
            <Time>2020-03-07T17:12:19.000Z</Time>
            <Position>
              <LatitudeDegrees>40.74133931659162044525146484375</LatitudeDegrees>
              <LongitudeDegrees>-3.83267995901405811309814453125</LongitudeDegrees>
            </Position>
            <AltitudeMeters>901</AltitudeMeters>
            <DistanceMeters>NAN</DistanceMeters>
          </Trackpoint>
          <Trackpoint>
            <Time>2020-03-07T17:12:20.000Z</Time>
            <Position>
              <LatitudeDegrees>40.741351135075092315673828125</LatitudeDegrees>
              <LongitudeDegrees>-3.83259446360170841217041015625</LongitudeDegrees>
            </Position>
            <AltitudeMeters>901</AltitudeMeters>
            <DistanceMeters>NAN</DistanceMeters>
          </Trackpoint>
          <Trackpoint>
            <Time>2020-03-07T17:12:21.000Z</Time>
            <Position>
              <LatitudeDegrees>40.74136496521532535552978515625</LatitudeDegrees>
              <LongitudeDegrees>-3.83251030929386615753173828125</LongitudeDegrees>
            </Position>
            <AltitudeMeters>901</AltitudeMeters>
            <DistanceMeters>NAN</DistanceMeters>
          </Trackpoint>
          <Trackpoint>
            <Time>2020-03-07T17:12:22.000Z</Time>
            <Position>
              <LatitudeDegrees>40.74137887917459011077880859375</LatitudeDegrees>
              <LongitudeDegrees>-3.832423724234104156494140625</LongitudeDegrees>
            </Position>
            <AltitudeMeters>901</AltitudeMeters>
            <DistanceMeters>NAN</DistanceMeters>
          </Trackpoint>
          <Trackpoint>
            <Time>2020-03-07T17:12:23.000Z</Time>
            <Position>
              <LatitudeDegrees>40.74139304459095001220703125</LatitudeDegrees>
              <LongitudeDegrees>-3.8323377259075641632080078125</LongitudeDegrees>
            </Position>
            <AltitudeMeters>901</AltitudeMeters>
            <DistanceMeters>NAN</DistanceMeters>
          </Trackpoint>
          <Trackpoint>
            <Time>2020-03-07T17:12:24.000Z</Time>
            <Position>
              <LatitudeDegrees>40.7414099760353565216064453125</LatitudeDegrees>
              <LongitudeDegrees>-3.83224929682910442352294921875</LongitudeDegrees>
            </Position>
            <AltitudeMeters>900.79998779296875</AltitudeMeters>
            <DistanceMeters>NAN</DistanceMeters>
          </Trackpoint>
          <Trackpoint>
            <Time>2020-03-07T17:12:25.000Z</Time>
            <Position>
              <LatitudeDegrees>40.74142933823168277740478515625</LatitudeDegrees>
              <LongitudeDegrees>-3.83216195739805698394775390625</LongitudeDegrees>
            </Position>
            <AltitudeMeters>900.79998779296875</AltitudeMeters>
            <DistanceMeters>NAN</DistanceMeters>
          </Trackpoint>
          <Trackpoint>
            <Time>2020-03-07T17:12:26.000Z</Time>
            <Position>
              <LatitudeDegrees>40.7414515502750873565673828125</LatitudeDegrees>
              <LongitudeDegrees>-3.8320733606815338134765625</LongitudeDegrees>
            </Position>
            <AltitudeMeters>900.79998779296875</AltitudeMeters>
            <DistanceMeters>NAN</DistanceMeters>
          </Trackpoint>
          <Trackpoint>
            <Time>2020-03-07T17:12:27.000Z</Time>
            <Position>
              <LatitudeDegrees>40.7414723373949527740478515625</LatitudeDegrees>
              <LongitudeDegrees>-3.831983841955661773681640625</LongitudeDegrees>
            </Position>
            <AltitudeMeters>900.79998779296875</AltitudeMeters>
            <DistanceMeters>NAN</DistanceMeters>
          </Trackpoint>
          <Trackpoint>
            <Time>2020-03-07T17:12:28.000Z</Time>
            <Position>
              <LatitudeDegrees>40.74149404652416706085205078125</LatitudeDegrees>
              <LongitudeDegrees>-3.83189591579139232635498046875</LongitudeDegrees>
            </Position>
            <AltitudeMeters>900.79998779296875</AltitudeMeters>
            <DistanceMeters>NAN</DistanceMeters>
          </Trackpoint>
          <Trackpoint>
            <Time>2020-03-07T17:12:29.000Z</Time>
            <Position>
              <LatitudeDegrees>40.74151349253952503204345703125</LatitudeDegrees>
              <LongitudeDegrees>-3.83180924691259860992431640625</LongitudeDegrees>
            </Position>
            <AltitudeMeters>900.79998779296875</AltitudeMeters>
            <DistanceMeters>NAN</DistanceMeters>
          </Trackpoint>
          <Trackpoint>
            <Time>2020-03-07T17:12:30.000Z</Time>
            <Position>
              <LatitudeDegrees>40.741532184183597564697265625</LatitudeDegrees>
              <LongitudeDegrees>-3.83172140456736087799072265625</LongitudeDegrees>
            </Position>
            <AltitudeMeters>901</AltitudeMeters>
            <DistanceMeters>NAN</DistanceMeters>
          </Trackpoint>
          <Trackpoint>
            <Time>2020-03-07T17:12:31.000Z</Time>
            <Position>
              <LatitudeDegrees>40.741550289094448089599609375</LatitudeDegrees>
              <LongitudeDegrees>-3.83163272403180599212646484375</LongitudeDegrees>
            </Position>
            <AltitudeMeters>901</AltitudeMeters>
            <DistanceMeters>NAN</DistanceMeters>
          </Trackpoint>
          <Trackpoint>
            <Time>2020-03-07T17:12:32.000Z</Time>
            <Position>
              <LatitudeDegrees>40.74156763963401317596435546875</LatitudeDegrees>
              <LongitudeDegrees>-3.831543624401092529296875</LongitudeDegrees>
            </Position>
            <AltitudeMeters>901</AltitudeMeters>
            <DistanceMeters>NAN</DistanceMeters>
          </Trackpoint>
          <Trackpoint>
            <Time>2020-03-07T17:12:33.000Z</Time>
            <Position>
              <LatitudeDegrees>40.74158675037324428558349609375</LatitudeDegrees>
              <LongitudeDegrees>-3.83145318366587162017822265625</LongitudeDegrees>
            </Position>
            <AltitudeMeters>901</AltitudeMeters>
            <DistanceMeters>NAN</DistanceMeters>
          </Trackpoint>
          <Trackpoint>
            <Time>2020-03-07T17:12:34.000Z</Time>
            <Position>
              <LatitudeDegrees>40.7416057772934436798095703125</LatitudeDegrees>
              <LongitudeDegrees>-3.83136265911161899566650390625</LongitudeDegrees>
            </Position>
            <AltitudeMeters>901</AltitudeMeters>
            <DistanceMeters>NAN</DistanceMeters>
          </Trackpoint>
          <Trackpoint>
            <Time>2020-03-07T17:12:35.000Z</Time>
            <Position>
              <LatitudeDegrees>40.7416245527565479278564453125</LatitudeDegrees>
              <LongitudeDegrees>-3.83127280510962009429931640625</LongitudeDegrees>
            </Position>
            <AltitudeMeters>901</AltitudeMeters>
            <DistanceMeters>NAN</DistanceMeters>
          </Trackpoint>
          <Trackpoint>
            <Time>2020-03-07T17:12:36.000Z</Time>
            <Position>
              <LatitudeDegrees>40.74164575897157192230224609375</LatitudeDegrees>
              <LongitudeDegrees>-3.83118144236505031585693359375</LongitudeDegrees>
            </Position>
            <AltitudeMeters>900.79998779296875</AltitudeMeters>
            <DistanceMeters>NAN</DistanceMeters>
          </Trackpoint>
          <Trackpoint>
            <Time>2020-03-07T17:12:37.000Z</Time>
            <Position>
              <LatitudeDegrees>40.7416654564440250396728515625</LatitudeDegrees>
              <LongitudeDegrees>-3.83108957670629024505615234375</LongitudeDegrees>
            </Position>
            <AltitudeMeters>900.79998779296875</AltitudeMeters>
            <DistanceMeters>NAN</DistanceMeters>
          </Trackpoint>
          <Trackpoint>
            <Time>2020-03-07T17:12:38.000Z</Time>
            <Position>
              <LatitudeDegrees>40.74168414808809757232666015625</LatitudeDegrees>
              <LongitudeDegrees>-3.8309982977807521820068359375</LongitudeDegrees>
            </Position>
            <AltitudeMeters>901</AltitudeMeters>
            <DistanceMeters>NAN</DistanceMeters>
          </Trackpoint>
          <Trackpoint>
            <Time>2020-03-07T17:12:39.000Z</Time>
            <Position>
              <LatitudeDegrees>40.741703845560550689697265625</LatitudeDegrees>
              <LongitudeDegrees>-3.8309065997600555419921875</LongitudeDegrees>
            </Position>
            <AltitudeMeters>901</AltitudeMeters>
            <DistanceMeters>NAN</DistanceMeters>
          </Trackpoint>
          <Trackpoint>
            <Time>2020-03-07T17:12:40.000Z</Time>
            <Position>
              <LatitudeDegrees>40.7417234592139720916748046875</LatitudeDegrees>
              <LongitudeDegrees>-3.8308145664632320404052734375</LongitudeDegrees>
            </Position>
            <AltitudeMeters>901</AltitudeMeters>
            <DistanceMeters>NAN</DistanceMeters>
          </Trackpoint>
          <Trackpoint>
            <Time>2020-03-07T17:12:41.000Z</Time>
            <Position>
              <LatitudeDegrees>40.74174650944769382476806640625</LatitudeDegrees>
              <LongitudeDegrees>-3.83072219789028167724609375</LongitudeDegrees>
            </Position>
            <AltitudeMeters>900.79998779296875</AltitudeMeters>
            <DistanceMeters>NAN</DistanceMeters>
          </Trackpoint>
          <Trackpoint>
            <Time>2020-03-07T17:12:42.000Z</Time>
            <Position>
              <LatitudeDegrees>40.7417663745582103729248046875</LatitudeDegrees>
              <LongitudeDegrees>-3.83063024841248989105224609375</LongitudeDegrees>
            </Position>
            <AltitudeMeters>900.79998779296875</AltitudeMeters>
            <DistanceMeters>NAN</DistanceMeters>
          </Trackpoint>
          <Trackpoint>
            <Time>2020-03-07T17:12:43.000Z</Time>
            <Position>
              <LatitudeDegrees>40.74178523384034633636474609375</LatitudeDegrees>
              <LongitudeDegrees>-3.8305382989346981048583984375</LongitudeDegrees>
            </Position>
            <AltitudeMeters>900.79998779296875</AltitudeMeters>
            <DistanceMeters>NAN</DistanceMeters>
          </Trackpoint>
          <Trackpoint>
            <Time>2020-03-07T17:12:44.000Z</Time>
            <Position>
              <LatitudeDegrees>40.74180367402732372283935546875</LatitudeDegrees>
              <LongitudeDegrees>-3.83044534362852573394775390625</LongitudeDegrees>
            </Position>
            <AltitudeMeters>900.79998779296875</AltitudeMeters>
            <DistanceMeters>NAN</DistanceMeters>
          </Trackpoint>
          <Trackpoint>
            <Time>2020-03-07T17:12:45.000Z</Time>
            <Position>
              <LatitudeDegrees>40.74182261712849140167236328125</LatitudeDegrees>
              <LongitudeDegrees>-3.83035297505557537078857421875</LongitudeDegrees>
            </Position>
            <AltitudeMeters>900.79998779296875</AltitudeMeters>
            <DistanceMeters>NAN</DistanceMeters>
          </Trackpoint>
          <Trackpoint>
            <Time>2020-03-07T17:12:46.000Z</Time>
            <Position>
              <LatitudeDegrees>40.74184273369610309600830078125</LatitudeDegrees>
              <LongitudeDegrees>-3.83025976829230785369873046875</LongitudeDegrees>
            </Position>
            <AltitudeMeters>900.79998779296875</AltitudeMeters>
            <DistanceMeters>NAN</DistanceMeters>
          </Trackpoint>
          <Trackpoint>
            <Time>2020-03-07T17:12:47.000Z</Time>
            <Position>
              <LatitudeDegrees>40.74186243116855621337890625</LatitudeDegrees>
              <LongitudeDegrees>-3.83016522042453289031982421875</LongitudeDegrees>
            </Position>
            <AltitudeMeters>900.79998779296875</AltitudeMeters>
            <DistanceMeters>NAN</DistanceMeters>
          </Trackpoint>
          <Trackpoint>
            <Time>2020-03-07T17:12:48.000Z</Time>
            <Position>
              <LatitudeDegrees>40.7418791949748992919921875</LatitudeDegrees>
              <LongitudeDegrees>-3.83007109165191650390625</LongitudeDegrees>
            </Position>
            <AltitudeMeters>900.79998779296875</AltitudeMeters>
            <DistanceMeters>NAN</DistanceMeters>
          </Trackpoint>
          <Trackpoint>
            <Time>2020-03-07T17:12:49.000Z</Time>
            <Position>
              <LatitudeDegrees>40.74189352802932262420654296875</LatitudeDegrees>
              <LongitudeDegrees>-3.8299763761460781097412109375</LongitudeDegrees>
            </Position>
            <AltitudeMeters>900.79998779296875</AltitudeMeters>
            <DistanceMeters>NAN</DistanceMeters>
          </Trackpoint>
          <Trackpoint>
            <Time>2020-03-07T17:12:50.000Z</Time>
            <Position>
              <LatitudeDegrees>40.741907693445682525634765625</LatitudeDegrees>
              <LongitudeDegrees>-3.829882331192493438720703125</LongitudeDegrees>
            </Position>
            <AltitudeMeters>900.5999755859375</AltitudeMeters>
            <DistanceMeters>NAN</DistanceMeters>
          </Trackpoint>
          <Trackpoint>
            <Time>2020-03-07T17:12:51.000Z</Time>
            <Position>
              <LatitudeDegrees>40.74192152358591556549072265625</LatitudeDegrees>
              <LongitudeDegrees>-3.82978736422955989837646484375</LongitudeDegrees>
            </Position>
            <AltitudeMeters>900.5999755859375</AltitudeMeters>
            <DistanceMeters>NAN</DistanceMeters>
          </Trackpoint>
          <Trackpoint>
            <Time>2020-03-07T17:12:52.000Z</Time>
            <Position>
              <LatitudeDegrees>40.74193275533616542816162109375</LatitudeDegrees>
              <LongitudeDegrees>-3.829692564904689788818359375</LongitudeDegrees>
            </Position>
            <AltitudeMeters>900.5999755859375</AltitudeMeters>
            <DistanceMeters>NAN</DistanceMeters>
          </Trackpoint>
          <Trackpoint>
            <Time>2020-03-07T17:12:53.000Z</Time>
            <Position>
              <LatitudeDegrees>40.7419437356293201446533203125</LatitudeDegrees>
              <LongitudeDegrees>-3.82959592156112194061279296875</LongitudeDegrees>
            </Position>
            <AltitudeMeters>900.5999755859375</AltitudeMeters>
            <DistanceMeters>NAN</DistanceMeters>
          </Trackpoint>
          <Trackpoint>
            <Time>2020-03-07T17:12:54.000Z</Time>
            <Position>
              <LatitudeDegrees>40.74195404537022113800048828125</LatitudeDegrees>
              <LongitudeDegrees>-3.8294984400272369384765625</LongitudeDegrees>
            </Position>
            <AltitudeMeters>900.5999755859375</AltitudeMeters>
            <DistanceMeters>NAN</DistanceMeters>
          </Trackpoint>
          <Trackpoint>
            <Time>2020-03-07T17:12:55.000Z</Time>
            <Position>
              <LatitudeDegrees>40.741963349282741546630859375</LatitudeDegrees>
              <LongitudeDegrees>-3.8294003717601299285888671875</LongitudeDegrees>
            </Position>
            <AltitudeMeters>900.4000244140625</AltitudeMeters>
            <DistanceMeters>NAN</DistanceMeters>
          </Trackpoint>
          <Trackpoint>
            <Time>2020-03-07T17:12:56.000Z</Time>
            <Position>
              <LatitudeDegrees>40.7419712282717227935791015625</LatitudeDegrees>
              <LongitudeDegrees>-3.82930356077849864959716796875</LongitudeDegrees>
            </Position>
            <AltitudeMeters>900.4000244140625</AltitudeMeters>
            <DistanceMeters>NAN</DistanceMeters>
          </Trackpoint>
          <Trackpoint>
            <Time>2020-03-07T17:12:57.000Z</Time>
            <Position>
              <LatitudeDegrees>40.741974078118801116943359375</LatitudeDegrees>
              <LongitudeDegrees>-3.82920867763459682464599609375</LongitudeDegrees>
            </Position>
            <AltitudeMeters>900.4000244140625</AltitudeMeters>
            <DistanceMeters>NAN</DistanceMeters>
          </Trackpoint>
          <Trackpoint>
            <Time>2020-03-07T17:12:58.000Z</Time>
            <Position>
              <LatitudeDegrees>40.7419749163091182708740234375</LatitudeDegrees>
              <LongitudeDegrees>-3.8291133753955364227294921875</LongitudeDegrees>
            </Position>
            <AltitudeMeters>900.4000244140625</AltitudeMeters>
            <DistanceMeters>NAN</DistanceMeters>
          </Trackpoint>
          <Trackpoint>
            <Time>2020-03-07T17:12:59.000Z</Time>
            <Position>
              <LatitudeDegrees>40.7419752515852451324462890625</LatitudeDegrees>
              <LongitudeDegrees>-3.829016983509063720703125</LongitudeDegrees>
            </Position>
            <AltitudeMeters>900.4000244140625</AltitudeMeters>
            <DistanceMeters>NAN</DistanceMeters>
          </Trackpoint>
          <Trackpoint>
            <Time>2020-03-07T17:13:00.000Z</Time>
            <Position>
              <LatitudeDegrees>40.74197215028107166290283203125</LatitudeDegrees>
              <LongitudeDegrees>-3.82892151363193988800048828125</LongitudeDegrees>
            </Position>
            <AltitudeMeters>900.4000244140625</AltitudeMeters>
            <DistanceMeters>NAN</DistanceMeters>
          </Trackpoint>
          <Trackpoint>
            <Time>2020-03-07T17:13:01.000Z</Time>
            <Position>
              <LatitudeDegrees>40.74196779169142246246337890625</LatitudeDegrees>
              <LongitudeDegrees>-3.82882579229772090911865234375</LongitudeDegrees>
            </Position>
            <AltitudeMeters>900.4000244140625</AltitudeMeters>
            <DistanceMeters>NAN</DistanceMeters>
          </Trackpoint>
          <Trackpoint>
            <Time>2020-03-07T17:13:02.000Z</Time>
            <Position>
              <LatitudeDegrees>40.74196041561663150787353515625</LatitudeDegrees>
              <LongitudeDegrees>-3.82873199880123138427734375</LongitudeDegrees>
            </Position>
            <AltitudeMeters>900.4000244140625</AltitudeMeters>
            <DistanceMeters>NAN</DistanceMeters>
          </Trackpoint>
          <Trackpoint>
            <Time>2020-03-07T17:13:03.000Z</Time>
            <Position>
              <LatitudeDegrees>40.741952620446681976318359375</LatitudeDegrees>
              <LongitudeDegrees>-3.8286342658102512359619140625</LongitudeDegrees>
            </Position>
            <AltitudeMeters>900.20001220703125</AltitudeMeters>
            <DistanceMeters>NAN</DistanceMeters>
          </Trackpoint>
          <Trackpoint>
            <Time>2020-03-07T17:13:04.000Z</Time>
            <Position>
              <LatitudeDegrees>40.74194298125803470611572265625</LatitudeDegrees>
              <LongitudeDegrees>-3.82853753864765167236328125</LongitudeDegrees>
            </Position>
            <AltitudeMeters>900.20001220703125</AltitudeMeters>
            <DistanceMeters>NAN</DistanceMeters>
          </Trackpoint>
          <Trackpoint>
            <Time>2020-03-07T17:13:05.000Z</Time>
            <Position>
              <LatitudeDegrees>40.7419316656887531280517578125</LatitudeDegrees>
              <LongitudeDegrees>-3.82844173349440097808837890625</LongitudeDegrees>
            </Position>
            <AltitudeMeters>900.20001220703125</AltitudeMeters>
            <DistanceMeters>NAN</DistanceMeters>
          </Trackpoint>
          <Trackpoint>
            <Time>2020-03-07T17:13:06.000Z</Time>
            <Position>
              <LatitudeDegrees>40.7419138960540294647216796875</LatitudeDegrees>
              <LongitudeDegrees>-3.8283482752740383148193359375</LongitudeDegrees>
            </Position>
            <AltitudeMeters>900.20001220703125</AltitudeMeters>
            <DistanceMeters>NAN</DistanceMeters>
          </Trackpoint>
          <Trackpoint>
            <Time>2020-03-07T17:13:07.000Z</Time>
            <Position>
              <LatitudeDegrees>40.7418951205909252166748046875</LatitudeDegrees>
              <LongitudeDegrees>-3.8282525539398193359375</LongitudeDegrees>
            </Position>
            <AltitudeMeters>900.20001220703125</AltitudeMeters>
            <DistanceMeters>NAN</DistanceMeters>
          </Trackpoint>
          <Trackpoint>
            <Time>2020-03-07T17:13:08.000Z</Time>
            <Position>
              <LatitudeDegrees>40.74187626130878925323486328125</LatitudeDegrees>
              <LongitudeDegrees>-3.82815473712980747222900390625</LongitudeDegrees>
            </Position>
            <AltitudeMeters>900.20001220703125</AltitudeMeters>
            <DistanceMeters>NAN</DistanceMeters>
          </Trackpoint>
          <Trackpoint>
            <Time>2020-03-07T17:13:09.000Z</Time>
            <Position>
              <LatitudeDegrees>40.7418565638363361358642578125</LatitudeDegrees>
              <LongitudeDegrees>-3.82805800996720790863037109375</LongitudeDegrees>
            </Position>
            <AltitudeMeters>900.20001220703125</AltitudeMeters>
            <DistanceMeters>NAN</DistanceMeters>
          </Trackpoint>
          <Trackpoint>
            <Time>2020-03-07T17:13:10.000Z</Time>
            <Position>
              <LatitudeDegrees>40.741835273802280426025390625</LatitudeDegrees>
              <LongitudeDegrees>-3.827961869537830352783203125</LongitudeDegrees>
            </Position>
            <AltitudeMeters>900.20001220703125</AltitudeMeters>
            <DistanceMeters>NAN</DistanceMeters>
          </Trackpoint>
          <Trackpoint>
            <Time>2020-03-07T17:13:11.000Z</Time>
            <Position>
              <LatitudeDegrees>40.741808451712131500244140625</LatitudeDegrees>
              <LongitudeDegrees>-3.82786941714584827423095703125</LongitudeDegrees>
            </Position>
            <AltitudeMeters>900.20001220703125</AltitudeMeters>
            <DistanceMeters>NAN</DistanceMeters>
          </Trackpoint>
          <Trackpoint>
            <Time>2020-03-07T17:13:12.000Z</Time>
            <Position>
              <LatitudeDegrees>40.7417801208794116973876953125</LatitudeDegrees>
              <LongitudeDegrees>-3.82777847349643707275390625</LongitudeDegrees>
            </Position>
            <AltitudeMeters>900.20001220703125</AltitudeMeters>
            <DistanceMeters>NAN</DistanceMeters>
          </Trackpoint>
          <Trackpoint>
            <Time>2020-03-07T17:13:13.000Z</Time>
            <Position>
              <LatitudeDegrees>40.741752795875072479248046875</LatitudeDegrees>
              <LongitudeDegrees>-3.82768786512315273284912109375</LongitudeDegrees>
            </Position>
            <AltitudeMeters>900.20001220703125</AltitudeMeters>
            <DistanceMeters>NAN</DistanceMeters>
          </Trackpoint>
          <Trackpoint>
            <Time>2020-03-07T17:13:14.000Z</Time>
            <Position>
              <LatitudeDegrees>40.7417254708707332611083984375</LatitudeDegrees>
              <LongitudeDegrees>-3.8275975920259952545166015625</LongitudeDegrees>
            </Position>
            <AltitudeMeters>900.20001220703125</AltitudeMeters>
            <DistanceMeters>NAN</DistanceMeters>
          </Trackpoint>
          <Trackpoint>
            <Time>2020-03-07T17:13:15.000Z</Time>
            <Position>
              <LatitudeDegrees>40.7416966371238231658935546875</LatitudeDegrees>
              <LongitudeDegrees>-3.827505894005298614501953125</LongitudeDegrees>
            </Position>
            <AltitudeMeters>900.20001220703125</AltitudeMeters>
            <DistanceMeters>NAN</DistanceMeters>
          </Trackpoint>
          <Trackpoint>
            <Time>2020-03-07T17:13:16.000Z</Time>
            <Position>
              <LatitudeDegrees>40.741666294634342193603515625</LatitudeDegrees>
              <LongitudeDegrees>-3.82741377688944339752197265625</LongitudeDegrees>
            </Position>
            <AltitudeMeters>900.20001220703125</AltitudeMeters>
            <DistanceMeters>NAN</DistanceMeters>
          </Trackpoint>
          <Trackpoint>
            <Time>2020-03-07T17:13:17.000Z</Time>
            <Position>
              <LatitudeDegrees>40.74163804762065410614013671875</LatitudeDegrees>
              <LongitudeDegrees>-3.82732543163001537322998046875</LongitudeDegrees>
            </Position>
            <AltitudeMeters>900.20001220703125</AltitudeMeters>
            <DistanceMeters>NAN</DistanceMeters>
          </Trackpoint>
          <Trackpoint>
            <Time>2020-03-07T17:13:18.000Z</Time>
            <Position>
              <LatitudeDegrees>40.74160686694085597991943359375</LatitudeDegrees>
              <LongitudeDegrees>-3.827239014208316802978515625</LongitudeDegrees>
            </Position>
            <AltitudeMeters>900.20001220703125</AltitudeMeters>
            <DistanceMeters>NAN</DistanceMeters>
          </Trackpoint>
          <Trackpoint>
            <Time>2020-03-07T17:13:19.000Z</Time>
            <Position>
              <LatitudeDegrees>40.74157400988042354583740234375</LatitudeDegrees>
              <LongitudeDegrees>-3.82715309970080852508544921875</LongitudeDegrees>
            </Position>
            <AltitudeMeters>900.20001220703125</AltitudeMeters>
            <DistanceMeters>NAN</DistanceMeters>
          </Trackpoint>
          <Trackpoint>
            <Time>2020-03-07T17:13:20.000Z</Time>
            <Position>
              <LatitudeDegrees>40.741539895534515380859375</LatitudeDegrees>
              <LongitudeDegrees>-3.82706827484071254730224609375</LongitudeDegrees>
            </Position>
            <AltitudeMeters>900</AltitudeMeters>
            <DistanceMeters>NAN</DistanceMeters>
          </Trackpoint>
          <Trackpoint>
            <Time>2020-03-07T17:13:21.000Z</Time>
            <Position>
              <LatitudeDegrees>40.741508044302463531494140625</LatitudeDegrees>
              <LongitudeDegrees>-3.8269905745983123779296875</LongitudeDegrees>
            </Position>
            <AltitudeMeters>900</AltitudeMeters>
            <DistanceMeters>NAN</DistanceMeters>
          </Trackpoint>
          <Trackpoint>
            <Time>2020-03-07T17:13:22.000Z</Time>
            <Position>
              <LatitudeDegrees>40.74147392995655536651611328125</LatitudeDegrees>
              <LongitudeDegrees>-3.82691639475524425506591796875</LongitudeDegrees>
            </Position>
            <AltitudeMeters>900</AltitudeMeters>
            <DistanceMeters>NAN</DistanceMeters>
          </Trackpoint>
          <Trackpoint>
            <Time>2020-03-07T17:13:23.000Z</Time>
            <Position>
              <LatitudeDegrees>40.74143730103969573974609375</LatitudeDegrees>
              <LongitudeDegrees>-3.8268422149121761322021484375</LongitudeDegrees>
            </Position>
            <AltitudeMeters>900</AltitudeMeters>
            <DistanceMeters>NAN</DistanceMeters>
          </Trackpoint>
          <Trackpoint>
            <Time>2020-03-07T17:13:24.000Z</Time>
            <Position>
              <LatitudeDegrees>40.74139765463769435882568359375</LatitudeDegrees>
              <LongitudeDegrees>-3.8267691247165203094482421875</LongitudeDegrees>
            </Position>
            <AltitudeMeters>900</AltitudeMeters>
            <DistanceMeters>NAN</DistanceMeters>
          </Trackpoint>
          <Trackpoint>
            <Time>2020-03-07T17:13:25.000Z</Time>
            <Position>
              <LatitudeDegrees>40.74135524220764636993408203125</LatitudeDegrees>
              <LongitudeDegrees>-3.8266928493976593017578125</LongitudeDegrees>
            </Position>
            <AltitudeMeters>900</AltitudeMeters>
            <DistanceMeters>NAN</DistanceMeters>
          </Trackpoint>
          <Trackpoint>
            <Time>2020-03-07T17:13:26.000Z</Time>
            <Position>
              <LatitudeDegrees>40.74131735600531101226806640625</LatitudeDegrees>
              <LongitudeDegrees>-3.82661682553589344024658203125</LongitudeDegrees>
            </Position>
            <AltitudeMeters>900</AltitudeMeters>
            <DistanceMeters>NAN</DistanceMeters>
          </Trackpoint>
          <Trackpoint>
            <Time>2020-03-07T17:13:27.000Z</Time>
            <Position>
              <LatitudeDegrees>40.7412788830697536468505859375</LatitudeDegrees>
              <LongitudeDegrees>-3.82654088549315929412841796875</LongitudeDegrees>
            </Position>
            <AltitudeMeters>900</AltitudeMeters>
            <DistanceMeters>NAN</DistanceMeters>
          </Trackpoint>
          <Trackpoint>
            <Time>2020-03-07T17:13:28.000Z</Time>
            <Position>
              <LatitudeDegrees>40.7412389852106571197509765625</LatitudeDegrees>
              <LongitudeDegrees>-3.82646628655493259429931640625</LongitudeDegrees>
            </Position>
            <AltitudeMeters>900</AltitudeMeters>
            <DistanceMeters>NAN</DistanceMeters>
          </Trackpoint>
          <Trackpoint>
            <Time>2020-03-07T17:13:29.000Z</Time>
            <Position>
              <LatitudeDegrees>40.74119749478995800018310546875</LatitudeDegrees>
              <LongitudeDegrees>-3.82638833485543727874755859375</LongitudeDegrees>
            </Position>
            <AltitudeMeters>900</AltitudeMeters>
            <DistanceMeters>NAN</DistanceMeters>
          </Trackpoint>
          <Trackpoint>
            <Time>2020-03-07T17:13:30.000Z</Time>
            <Position>
              <LatitudeDegrees>40.74115340597927570343017578125</LatitudeDegrees>
              <LongitudeDegrees>-3.826316334307193756103515625</LongitudeDegrees>
            </Position>
            <AltitudeMeters>900</AltitudeMeters>
            <DistanceMeters>NAN</DistanceMeters>
          </Trackpoint>
          <Trackpoint>
            <Time>2020-03-07T17:13:31.000Z</Time>
            <Position>
              <LatitudeDegrees>40.7411072216928005218505859375</LatitudeDegrees>
              <LongitudeDegrees>-3.82624014280736446380615234375</LongitudeDegrees>
            </Position>
            <AltitudeMeters>900</AltitudeMeters>
            <DistanceMeters>NAN</DistanceMeters>
          </Trackpoint>
          <Trackpoint>
            <Time>2020-03-07T17:13:32.000Z</Time>
            <Position>
              <LatitudeDegrees>40.7410609535872936248779296875</LatitudeDegrees>
              <LongitudeDegrees>-3.8261703215539455413818359375</LongitudeDegrees>
            </Position>
            <AltitudeMeters>900</AltitudeMeters>
            <DistanceMeters>NAN</DistanceMeters>
          </Trackpoint>
          <Trackpoint>
            <Time>2020-03-07T17:13:33.000Z</Time>
            <Position>
              <LatitudeDegrees>40.74101082980632781982421875</LatitudeDegrees>
              <LongitudeDegrees>-3.8261002488434314727783203125</LongitudeDegrees>
            </Position>
            <AltitudeMeters>900</AltitudeMeters>
            <DistanceMeters>NAN</DistanceMeters>
          </Trackpoint>
          <Trackpoint>
            <Time>2020-03-07T17:13:34.000Z</Time>
            <Position>
              <LatitudeDegrees>40.7409597001969814300537109375</LatitudeDegrees>
              <LongitudeDegrees>-3.8260345347225666046142578125</LongitudeDegrees>
            </Position>
            <AltitudeMeters>899.79998779296875</AltitudeMeters>
            <DistanceMeters>NAN</DistanceMeters>
          </Trackpoint>
          <Trackpoint>
            <Time>2020-03-07T17:13:35.000Z</Time>
            <Position>
              <LatitudeDegrees>40.7409060560166835784912109375</LatitudeDegrees>
              <LongitudeDegrees>-3.82596873678267002105712890625</LongitudeDegrees>
            </Position>
            <AltitudeMeters>899.79998779296875</AltitudeMeters>
            <DistanceMeters>NAN</DistanceMeters>
          </Trackpoint>
          <Trackpoint>
            <Time>2020-03-07T17:13:36.000Z</Time>
            <Position>
              <LatitudeDegrees>40.74085232801735401153564453125</LatitudeDegrees>
              <LongitudeDegrees>-3.82590386085212230682373046875</LongitudeDegrees>
            </Position>
            <AltitudeMeters>899.79998779296875</AltitudeMeters>
            <DistanceMeters>NAN</DistanceMeters>
          </Trackpoint>
          <Trackpoint>
            <Time>2020-03-07T17:13:37.000Z</Time>
            <Position>
              <LatitudeDegrees>40.74079734273254871368408203125</LatitudeDegrees>
              <LongitudeDegrees>-3.8258400745689868927001953125</LongitudeDegrees>
            </Position>
            <AltitudeMeters>899.5999755859375</AltitudeMeters>
            <DistanceMeters>NAN</DistanceMeters>
          </Trackpoint>
          <Trackpoint>
            <Time>2020-03-07T17:13:38.000Z</Time>
            <Position>
              <LatitudeDegrees>40.74074118398129940032958984375</LatitudeDegrees>
              <LongitudeDegrees>-3.82577545009553432464599609375</LongitudeDegrees>
            </Position>
            <AltitudeMeters>899.5999755859375</AltitudeMeters>
            <DistanceMeters>NAN</DistanceMeters>
          </Trackpoint>
          <Trackpoint>
            <Time>2020-03-07T17:13:39.000Z</Time>
            <Position>
              <LatitudeDegrees>40.7406874559819698333740234375</LatitudeDegrees>
              <LongitudeDegrees>-3.8257119990885257720947265625</LongitudeDegrees>
            </Position>
            <AltitudeMeters>899.4000244140625</AltitudeMeters>
            <DistanceMeters>NAN</DistanceMeters>
          </Trackpoint>
          <Trackpoint>
            <Time>2020-03-07T17:13:40.000Z</Time>
            <Position>
              <LatitudeDegrees>40.740632973611354827880859375</LatitudeDegrees>
              <LongitudeDegrees>-3.82565039210021495819091796875</LongitudeDegrees>
            </Position>
            <AltitudeMeters>899.4000244140625</AltitudeMeters>
            <DistanceMeters>NAN</DistanceMeters>
          </Trackpoint>
          <Trackpoint>
            <Time>2020-03-07T17:13:41.000Z</Time>
            <Position>
              <LatitudeDegrees>40.74057907797396183013916015625</LatitudeDegrees>
              <LongitudeDegrees>-3.82559071294963359832763671875</LongitudeDegrees>
            </Position>
            <AltitudeMeters>899.4000244140625</AltitudeMeters>
            <DistanceMeters>NAN</DistanceMeters>
          </Trackpoint>
          <Trackpoint>
            <Time>2020-03-07T17:13:42.000Z</Time>
            <Position>
              <LatitudeDegrees>40.7405246794223785400390625</LatitudeDegrees>
              <LongitudeDegrees>-3.82553086616098880767822265625</LongitudeDegrees>
            </Position>
            <AltitudeMeters>899.20001220703125</AltitudeMeters>
            <DistanceMeters>NAN</DistanceMeters>
          </Trackpoint>
          <Trackpoint>
            <Time>2020-03-07T17:13:43.000Z</Time>
            <Position>
              <LatitudeDegrees>40.74047061614692211151123046875</LatitudeDegrees>
              <LongitudeDegrees>-3.825474120676517486572265625</LongitudeDegrees>
            </Position>
            <AltitudeMeters>899.20001220703125</AltitudeMeters>
            <DistanceMeters>NAN</DistanceMeters>
          </Trackpoint>
          <Trackpoint>
            <Time>2020-03-07T17:13:44.000Z</Time>
            <Position>
              <LatitudeDegrees>40.7404155470430850982666015625</LatitudeDegrees>
              <LongitudeDegrees>-3.8254169560968875885009765625</LongitudeDegrees>
            </Position>
            <AltitudeMeters>899.20001220703125</AltitudeMeters>
            <DistanceMeters>NAN</DistanceMeters>
          </Trackpoint>
          <Trackpoint>
            <Time>2020-03-07T17:13:45.000Z</Time>
            <Position>
              <LatitudeDegrees>40.74036047793924808502197265625</LatitudeDegrees>
              <LongitudeDegrees>-3.82535752840340137481689453125</LongitudeDegrees>
            </Position>
            <AltitudeMeters>899.20001220703125</AltitudeMeters>
            <DistanceMeters>NAN</DistanceMeters>
          </Trackpoint>
          <Trackpoint>
            <Time>2020-03-07T17:13:46.000Z</Time>
            <Position>
              <LatitudeDegrees>40.74030406773090362548828125</LatitudeDegrees>
              <LongitudeDegrees>-3.8252992741763591766357421875</LongitudeDegrees>
            </Position>
            <AltitudeMeters>899.20001220703125</AltitudeMeters>
            <DistanceMeters>NAN</DistanceMeters>
          </Trackpoint>
          <Trackpoint>
            <Time>2020-03-07T17:13:47.000Z</Time>
            <Position>
              <LatitudeDegrees>40.74024614877998828887939453125</LatitudeDegrees>
              <LongitudeDegrees>-3.8252429477870464324951171875</LongitudeDegrees>
            </Position>
            <AltitudeMeters>899.20001220703125</AltitudeMeters>
            <DistanceMeters>NAN</DistanceMeters>
          </Trackpoint>
          <Trackpoint>
            <Time>2020-03-07T17:13:48.000Z</Time>
            <Position>
              <LatitudeDegrees>40.7401905767619609832763671875</LatitudeDegrees>
              <LongitudeDegrees>-3.8251872919499874114990234375</LongitudeDegrees>
            </Position>
            <AltitudeMeters>899</AltitudeMeters>
            <DistanceMeters>NAN</DistanceMeters>
          </Trackpoint>
          <Trackpoint>
            <Time>2020-03-07T17:13:49.000Z</Time>
            <Position>
              <LatitudeDegrees>40.74013634584844112396240234375</LatitudeDegrees>
              <LongitudeDegrees>-3.8251306302845478057861328125</LongitudeDegrees>
            </Position>
            <AltitudeMeters>899</AltitudeMeters>
            <DistanceMeters>NAN</DistanceMeters>
          </Trackpoint>
          <Trackpoint>
            <Time>2020-03-07T17:13:50.000Z</Time>
            <Position>
              <LatitudeDegrees>40.74008353985846042633056640625</LatitudeDegrees>
              <LongitudeDegrees>-3.82507489062845706939697265625</LongitudeDegrees>
            </Position>
            <AltitudeMeters>899</AltitudeMeters>
            <DistanceMeters>NAN</DistanceMeters>
          </Trackpoint>
          <Trackpoint>
            <Time>2020-03-07T17:13:51.000Z</Time>
            <Position>
              <LatitudeDegrees>40.74003173969686031341552734375</LatitudeDegrees>
              <LongitudeDegrees>-3.82501923479139804840087890625</LongitudeDegrees>
            </Position>
            <AltitudeMeters>899</AltitudeMeters>
            <DistanceMeters>NAN</DistanceMeters>
          </Trackpoint>
          <Trackpoint>
            <Time>2020-03-07T17:13:52.000Z</Time>
            <Position>
              <LatitudeDegrees>40.73997910134494304656982421875</LatitudeDegrees>
              <LongitudeDegrees>-3.82496349513530731201171875</LongitudeDegrees>
            </Position>
            <AltitudeMeters>899</AltitudeMeters>
            <DistanceMeters>NAN</DistanceMeters>
          </Trackpoint>
          <Trackpoint>
            <Time>2020-03-07T17:13:53.000Z</Time>
            <Position>
              <LatitudeDegrees>40.73992612771689891815185546875</LatitudeDegrees>
              <LongitudeDegrees>-3.8249090127646923065185546875</LongitudeDegrees>
            </Position>
            <AltitudeMeters>899</AltitudeMeters>
            <DistanceMeters>NAN</DistanceMeters>
          </Trackpoint>
          <Trackpoint>
            <Time>2020-03-07T17:13:54.000Z</Time>
            <Position>
              <LatitudeDegrees>40.73987181298434734344482421875</LatitudeDegrees>
              <LongitudeDegrees>-3.82485562004148960113525390625</LongitudeDegrees>
            </Position>
            <AltitudeMeters>899</AltitudeMeters>
            <DistanceMeters>NAN</DistanceMeters>
          </Trackpoint>
          <Trackpoint>
            <Time>2020-03-07T17:13:55.000Z</Time>
            <Position>
              <LatitudeDegrees>40.73981733061373233795166015625</LatitudeDegrees>
              <LongitudeDegrees>-3.82480164058506488800048828125</LongitudeDegrees>
            </Position>
            <AltitudeMeters>899</AltitudeMeters>
            <DistanceMeters>NAN</DistanceMeters>
          </Trackpoint>
          <Trackpoint>
            <Time>2020-03-07T17:13:56.000Z</Time>
            <Position>
              <LatitudeDegrees>40.73976284824311733245849609375</LatitudeDegrees>
              <LongitudeDegrees>-3.82474598474800586700439453125</LongitudeDegrees>
            </Position>
            <AltitudeMeters>899</AltitudeMeters>
            <DistanceMeters>NAN</DistanceMeters>
          </Trackpoint>
          <Trackpoint>
            <Time>2020-03-07T17:13:57.000Z</Time>
            <Position>
              <LatitudeDegrees>40.73970970697700977325439453125</LatitudeDegrees>
              <LongitudeDegrees>-3.82469083182513713836669921875</LongitudeDegrees>
            </Position>
            <AltitudeMeters>899</AltitudeMeters>
            <DistanceMeters>NAN</DistanceMeters>
          </Trackpoint>
          <Trackpoint>
            <Time>2020-03-07T17:13:58.000Z</Time>
            <Position>
              <LatitudeDegrees>40.7396571524441242218017578125</LatitudeDegrees>
              <LongitudeDegrees>-3.8246350921690464019775390625</LongitudeDegrees>
            </Position>
            <AltitudeMeters>899</AltitudeMeters>
            <DistanceMeters>NAN</DistanceMeters>
          </Trackpoint>
          <Trackpoint>
            <Time>2020-03-07T17:13:59.000Z</Time>
            <Position>
              <LatitudeDegrees>40.7396019995212554931640625</LatitudeDegrees>
              <LongitudeDegrees>-3.82457499392330646514892578125</LongitudeDegrees>
            </Position>
            <AltitudeMeters>899.20001220703125</AltitudeMeters>
            <DistanceMeters>NAN</DistanceMeters>
          </Trackpoint>
          <Trackpoint>
            <Time>2020-03-07T17:14:00.000Z</Time>
            <Position>
              <LatitudeDegrees>40.73954827152192592620849609375</LatitudeDegrees>
              <LongitudeDegrees>-3.82451380603015422821044921875</LongitudeDegrees>
            </Position>
            <AltitudeMeters>899.4000244140625</AltitudeMeters>
            <DistanceMeters>NAN</DistanceMeters>
          </Trackpoint>
          <Trackpoint>
            <Time>2020-03-07T17:14:01.000Z</Time>
            <Position>
              <LatitudeDegrees>40.73949311859905719757080078125</LatitudeDegrees>
              <LongitudeDegrees>-3.82445530034601688385009765625</LongitudeDegrees>
            </Position>
            <AltitudeMeters>899.4000244140625</AltitudeMeters>
            <DistanceMeters>NAN</DistanceMeters>
          </Trackpoint>
          <Trackpoint>
            <Time>2020-03-07T17:14:02.000Z</Time>
            <Position>
              <LatitudeDegrees>40.73943771421909332275390625</LatitudeDegrees>
              <LongitudeDegrees>-3.8243973813951015472412109375</LongitudeDegrees>
            </Position>
            <AltitudeMeters>899.5999755859375</AltitudeMeters>
            <DistanceMeters>NAN</DistanceMeters>
          </Trackpoint>
          <Trackpoint>
            <Time>2020-03-07T17:14:03.000Z</Time>
            <Position>
              <LatitudeDegrees>40.739382393658161163330078125</LatitudeDegrees>
              <LongitudeDegrees>-3.82433988153934478759765625</LongitudeDegrees>
            </Position>
            <AltitudeMeters>899.5999755859375</AltitudeMeters>
            <DistanceMeters>NAN</DistanceMeters>
          </Trackpoint>
          <Trackpoint>
            <Time>2020-03-07T17:14:04.000Z</Time>
            <Position>
              <LatitudeDegrees>40.73932799510657787322998046875</LatitudeDegrees>
              <LongitudeDegrees>-3.82428196258842945098876953125</LongitudeDegrees>
            </Position>
            <AltitudeMeters>899.5999755859375</AltitudeMeters>
            <DistanceMeters>NAN</DistanceMeters>
          </Trackpoint>
          <Trackpoint>
            <Time>2020-03-07T17:14:05.000Z</Time>
            <Position>
              <LatitudeDegrees>40.73927275836467742919921875</LatitudeDegrees>
              <LongitudeDegrees>-3.82422395981848239898681640625</LongitudeDegrees>
            </Position>
            <AltitudeMeters>899.5999755859375</AltitudeMeters>
            <DistanceMeters>NAN</DistanceMeters>
          </Trackpoint>
          <Trackpoint>
            <Time>2020-03-07T17:14:06.000Z</Time>
            <Position>
              <LatitudeDegrees>40.7392202876508235931396484375</LatitudeDegrees>
              <LongitudeDegrees>-3.82416092790663242340087890625</LongitudeDegrees>
            </Position>
            <AltitudeMeters>899.5999755859375</AltitudeMeters>
            <DistanceMeters>NAN</DistanceMeters>
          </Trackpoint>
          <Trackpoint>
            <Time>2020-03-07T17:14:07.000Z</Time>
            <Position>
              <LatitudeDegrees>40.7391669787466526031494140625</LatitudeDegrees>
              <LongitudeDegrees>-3.82410024292767047882080078125</LongitudeDegrees>
            </Position>
            <AltitudeMeters>899.5999755859375</AltitudeMeters>
            <DistanceMeters>NAN</DistanceMeters>
          </Trackpoint>
          <Trackpoint>
            <Time>2020-03-07T17:14:08.000Z</Time>
            <Position>
              <LatitudeDegrees>40.7391165196895599365234375</LatitudeDegrees>
              <LongitudeDegrees>-3.82404106669127941131591796875</LongitudeDegrees>
            </Position>
            <AltitudeMeters>899.5999755859375</AltitudeMeters>
            <DistanceMeters>NAN</DistanceMeters>
          </Trackpoint>
          <Trackpoint>
            <Time>2020-03-07T17:14:09.000Z</Time>
            <Position>
              <LatitudeDegrees>40.73906622827053070068359375</LatitudeDegrees>
              <LongitudeDegrees>-3.82397518493235111236572265625</LongitudeDegrees>
            </Position>
            <AltitudeMeters>899.5999755859375</AltitudeMeters>
            <DistanceMeters>NAN</DistanceMeters>
          </Trackpoint>
          <Trackpoint>
            <Time>2020-03-07T17:14:10.000Z</Time>
            <Position>
              <LatitudeDegrees>40.7390134222805500030517578125</LatitudeDegrees>
              <LongitudeDegrees>-3.823910392820835113525390625</LongitudeDegrees>
            </Position>
            <AltitudeMeters>899.5999755859375</AltitudeMeters>
            <DistanceMeters>NAN</DistanceMeters>
          </Trackpoint>
          <Trackpoint>
            <Time>2020-03-07T17:14:11.000Z</Time>
            <Position>
              <LatitudeDegrees>40.73896304704248905181884765625</LatitudeDegrees>
              <LongitudeDegrees>-3.82384425960481166839599609375</LongitudeDegrees>
            </Position>
            <AltitudeMeters>899.5999755859375</AltitudeMeters>
            <DistanceMeters>NAN</DistanceMeters>
          </Trackpoint>
          <Trackpoint>
            <Time>2020-03-07T17:14:12.000Z</Time>
            <Position>
              <LatitudeDegrees>40.7389125041663646697998046875</LatitudeDegrees>
              <LongitudeDegrees>-3.82377929985523223876953125</LongitudeDegrees>
            </Position>
            <AltitudeMeters>899.5999755859375</AltitudeMeters>
            <DistanceMeters>NAN</DistanceMeters>
          </Trackpoint>
          <Trackpoint>
            <Time>2020-03-07T17:14:13.000Z</Time>
            <Position>
              <LatitudeDegrees>40.738863050937652587890625</LatitudeDegrees>
              <LongitudeDegrees>-3.82371333427727222442626953125</LongitudeDegrees>
            </Position>
            <AltitudeMeters>899.5999755859375</AltitudeMeters>
            <DistanceMeters>NAN</DistanceMeters>
          </Trackpoint>
          <Trackpoint>
            <Time>2020-03-07T17:14:14.000Z</Time>
            <Position>
              <LatitudeDegrees>40.73881301097571849822998046875</LatitudeDegrees>
              <LongitudeDegrees>-3.82364527322351932525634765625</LongitudeDegrees>
            </Position>
            <AltitudeMeters>899.5999755859375</AltitudeMeters>
            <DistanceMeters>NAN</DistanceMeters>
          </Trackpoint>
          <Trackpoint>
            <Time>2020-03-07T17:14:15.000Z</Time>
            <Position>
              <LatitudeDegrees>40.73876322247087955474853515625</LatitudeDegrees>
              <LongitudeDegrees>-3.8235772959887981414794921875</LongitudeDegrees>
            </Position>
            <AltitudeMeters>899.5999755859375</AltitudeMeters>
            <DistanceMeters>NAN</DistanceMeters>
          </Trackpoint>
          <Trackpoint>
            <Time>2020-03-07T17:14:16.000Z</Time>
            <Position>
              <LatitudeDegrees>40.73871259577572345733642578125</LatitudeDegrees>
              <LongitudeDegrees>-3.82350504398345947265625</LongitudeDegrees>
            </Position>
            <AltitudeMeters>899.5999755859375</AltitudeMeters>
            <DistanceMeters>NAN</DistanceMeters>
          </Trackpoint>
          <Trackpoint>
            <Time>2020-03-07T17:14:17.000Z</Time>
            <Position>
              <LatitudeDegrees>40.7386610470712184906005859375</LatitudeDegrees>
              <LongitudeDegrees>-3.82343254052102565765380859375</LongitudeDegrees>
            </Position>
            <AltitudeMeters>899.5999755859375</AltitudeMeters>
            <DistanceMeters>NAN</DistanceMeters>
          </Trackpoint>
          <Trackpoint>
            <Time>2020-03-07T17:14:18.000Z</Time>
            <Position>
              <LatitudeDegrees>40.7386120967566967010498046875</LatitudeDegrees>
              <LongitudeDegrees>-3.8233580254018306732177734375</LongitudeDegrees>
            </Position>
            <AltitudeMeters>899.5999755859375</AltitudeMeters>
            <DistanceMeters>NAN</DistanceMeters>
          </Trackpoint>
          <Trackpoint>
            <Time>2020-03-07T17:14:19.000Z</Time>
            <Position>
              <LatitudeDegrees>40.73856255970895290374755859375</LatitudeDegrees>
              <LongitudeDegrees>-3.82327915169298648834228515625</LongitudeDegrees>
            </Position>
            <AltitudeMeters>899.5999755859375</AltitudeMeters>
            <DistanceMeters>NAN</DistanceMeters>
          </Trackpoint>
          <Trackpoint>
            <Time>2020-03-07T17:14:20.000Z</Time>
            <Position>
              <LatitudeDegrees>40.7385155372321605682373046875</LatitudeDegrees>
              <LongitudeDegrees>-3.823200277984142303466796875</LongitudeDegrees>
            </Position>
            <AltitudeMeters>899.5999755859375</AltitudeMeters>
            <DistanceMeters>NAN</DistanceMeters>
          </Trackpoint>
          <Trackpoint>
            <Time>2020-03-07T17:14:21.000Z</Time>
            <Position>
              <LatitudeDegrees>40.73847320862114429473876953125</LatitudeDegrees>
              <LongitudeDegrees>-3.8231206499040126800537109375</LongitudeDegrees>
            </Position>
            <AltitudeMeters>899.79998779296875</AltitudeMeters>
            <DistanceMeters>NAN</DistanceMeters>
          </Trackpoint>
          <Trackpoint>
            <Time>2020-03-07T17:14:22.000Z</Time>
            <Position>
              <LatitudeDegrees>40.73842979036271572113037109375</LatitudeDegrees>
              <LongitudeDegrees>-3.82304395548999309539794921875</LongitudeDegrees>
            </Position>
            <AltitudeMeters>899.79998779296875</AltitudeMeters>
            <DistanceMeters>NAN</DistanceMeters>
          </Trackpoint>
          <Trackpoint>
            <Time>2020-03-07T17:14:23.000Z</Time>
            <Position>
              <LatitudeDegrees>40.73838855139911174774169921875</LatitudeDegrees>
              <LongitudeDegrees>-3.82296793162822723388671875</LongitudeDegrees>
            </Position>
            <AltitudeMeters>899.79998779296875</AltitudeMeters>
            <DistanceMeters>NAN</DistanceMeters>
          </Trackpoint>
          <Trackpoint>
            <Time>2020-03-07T17:14:24.000Z</Time>
            <Position>
              <LatitudeDegrees>40.7383509166538715362548828125</LatitudeDegrees>
              <LongitudeDegrees>-3.82288939319550991058349609375</LongitudeDegrees>
            </Position>
            <AltitudeMeters>899.79998779296875</AltitudeMeters>
            <DistanceMeters>NAN</DistanceMeters>
          </Trackpoint>
          <Trackpoint>
            <Time>2020-03-07T17:14:25.000Z</Time>
            <Position>
              <LatitudeDegrees>40.738315545022487640380859375</LatitudeDegrees>
              <LongitudeDegrees>-3.82281093858182430267333984375</LongitudeDegrees>
            </Position>
            <AltitudeMeters>899.79998779296875</AltitudeMeters>
            <DistanceMeters>NAN</DistanceMeters>
          </Trackpoint>
          <Trackpoint>
            <Time>2020-03-07T17:14:26.000Z</Time>
            <Position>
              <LatitudeDegrees>40.73828168213367462158203125</LatitudeDegrees>
              <LongitudeDegrees>-3.82273265160620212554931640625</LongitudeDegrees>
            </Position>
            <AltitudeMeters>899.79998779296875</AltitudeMeters>
            <DistanceMeters>NAN</DistanceMeters>
          </Trackpoint>
          <Trackpoint>
            <Time>2020-03-07T17:14:27.000Z</Time>
            <Position>
              <LatitudeDegrees>40.738247148692607879638671875</LatitudeDegrees>
              <LongitudeDegrees>-3.822650425136089324951171875</LongitudeDegrees>
            </Position>
            <AltitudeMeters>899.79998779296875</AltitudeMeters>
            <DistanceMeters>NAN</DistanceMeters>
          </Trackpoint>
          <Trackpoint>
            <Time>2020-03-07T17:14:28.000Z</Time>
            <Position>
              <LatitudeDegrees>40.73821135796606540679931640625</LatitudeDegrees>
              <LongitudeDegrees>-3.82256551645696163177490234375</LongitudeDegrees>
            </Position>
            <AltitudeMeters>899.79998779296875</AltitudeMeters>
            <DistanceMeters>NAN</DistanceMeters>
          </Trackpoint>
          <Trackpoint>
            <Time>2020-03-07T17:14:29.000Z</Time>
            <Position>
              <LatitudeDegrees>40.73817615397274494171142578125</LatitudeDegrees>
              <LongitudeDegrees>-3.822480104863643646240234375</LongitudeDegrees>
            </Position>
            <AltitudeMeters>899.79998779296875</AltitudeMeters>
            <DistanceMeters>NAN</DistanceMeters>
          </Trackpoint>
          <Trackpoint>
            <Time>2020-03-07T17:14:30.000Z</Time>
            <Position>
              <LatitudeDegrees>40.7381447218358516693115234375</LatitudeDegrees>
              <LongitudeDegrees>-3.82239351980388164520263671875</LongitudeDegrees>
            </Position>
            <AltitudeMeters>899.79998779296875</AltitudeMeters>
            <DistanceMeters>NAN</DistanceMeters>
          </Trackpoint>
          <Trackpoint>
            <Time>2020-03-07T17:14:31.000Z</Time>
            <Position>
              <LatitudeDegrees>40.7381138764321804046630859375</LatitudeDegrees>
              <LongitudeDegrees>-3.82230886258184909820556640625</LongitudeDegrees>
            </Position>
            <AltitudeMeters>899.79998779296875</AltitudeMeters>
            <DistanceMeters>NAN</DistanceMeters>
          </Trackpoint>
          <Trackpoint>
            <Time>2020-03-07T17:14:32.000Z</Time>
            <Position>
              <LatitudeDegrees>40.73808453977108001708984375</LatitudeDegrees>
              <LongitudeDegrees>-3.82222336716949939727783203125</LongitudeDegrees>
            </Position>
            <AltitudeMeters>899.79998779296875</AltitudeMeters>
            <DistanceMeters>NAN</DistanceMeters>
          </Trackpoint>
          <Trackpoint>
            <Time>2020-03-07T17:14:33.000Z</Time>
            <Position>
              <LatitudeDegrees>40.738057382404804229736328125</LatitudeDegrees>
              <LongitudeDegrees>-3.822136782109737396240234375</LongitudeDegrees>
            </Position>
            <AltitudeMeters>899.79998779296875</AltitudeMeters>
            <DistanceMeters>NAN</DistanceMeters>
          </Trackpoint>
          <Trackpoint>
            <Time>2020-03-07T17:14:34.000Z</Time>
            <Position>
              <LatitudeDegrees>40.738033913075923919677734375</LatitudeDegrees>
              <LongitudeDegrees>-3.82204927504062652587890625</LongitudeDegrees>
            </Position>
            <AltitudeMeters>899.79998779296875</AltitudeMeters>
            <DistanceMeters>NAN</DistanceMeters>
          </Trackpoint>
          <Trackpoint>
            <Time>2020-03-07T17:14:35.000Z</Time>
            <Position>
              <LatitudeDegrees>40.7380106113851070404052734375</LatitudeDegrees>
              <LongitudeDegrees>-3.82196185179054737091064453125</LongitudeDegrees>
            </Position>
            <AltitudeMeters>899.5999755859375</AltitudeMeters>
            <DistanceMeters>NAN</DistanceMeters>
          </Trackpoint>
          <Trackpoint>
            <Time>2020-03-07T17:14:36.000Z</Time>
            <Position>
              <LatitudeDegrees>40.73798906989395618438720703125</LatitudeDegrees>
              <LongitudeDegrees>-3.8218754343688488006591796875</LongitudeDegrees>
            </Position>
            <AltitudeMeters>899.5999755859375</AltitudeMeters>
            <DistanceMeters>NAN</DistanceMeters>
          </Trackpoint>
          <Trackpoint>
            <Time>2020-03-07T17:14:37.000Z</Time>
            <Position>
              <LatitudeDegrees>40.73796660639345645904541015625</LatitudeDegrees>
              <LongitudeDegrees>-3.82178750820457935333251953125</LongitudeDegrees>
            </Position>
            <AltitudeMeters>899.5999755859375</AltitudeMeters>
            <DistanceMeters>NAN</DistanceMeters>
          </Trackpoint>
          <Trackpoint>
            <Time>2020-03-07T17:14:38.000Z</Time>
            <Position>
              <LatitudeDegrees>40.7379455678164958953857421875</LatitudeDegrees>
              <LongitudeDegrees>-3.821697235107421875</LongitudeDegrees>
            </Position>
            <AltitudeMeters>899.4000244140625</AltitudeMeters>
            <DistanceMeters>NAN</DistanceMeters>
          </Trackpoint>
          <Trackpoint>
            <Time>2020-03-07T17:14:39.000Z</Time>
            <Position>
              <LatitudeDegrees>40.737927965819835662841796875</LatitudeDegrees>
              <LongitudeDegrees>-3.8216072134673595428466796875</LongitudeDegrees>
            </Position>
            <AltitudeMeters>899.4000244140625</AltitudeMeters>
            <DistanceMeters>NAN</DistanceMeters>
          </Trackpoint>
          <Trackpoint>
            <Time>2020-03-07T17:14:40.000Z</Time>
            <Position>
              <LatitudeDegrees>40.73791078291833400726318359375</LatitudeDegrees>
              <LongitudeDegrees>-3.82151710800826549530029296875</LongitudeDegrees>
            </Position>
            <AltitudeMeters>899.4000244140625</AltitudeMeters>
            <DistanceMeters>NAN</DistanceMeters>
          </Trackpoint>
          <Trackpoint>
            <Time>2020-03-07T17:14:41.000Z</Time>
            <Position>
              <LatitudeDegrees>40.7378939352929592132568359375</LatitudeDegrees>
              <LongitudeDegrees>-3.821426331996917724609375</LongitudeDegrees>
            </Position>
            <AltitudeMeters>899.4000244140625</AltitudeMeters>
            <DistanceMeters>NAN</DistanceMeters>
          </Trackpoint>
          <Trackpoint>
            <Time>2020-03-07T17:14:42.000Z</Time>
            <Position>
              <LatitudeDegrees>40.7378788478672504425048828125</LatitudeDegrees>
              <LongitudeDegrees>-3.82133580744266510009765625</LongitudeDegrees>
            </Position>
            <AltitudeMeters>899.4000244140625</AltitudeMeters>
            <DistanceMeters>NAN</DistanceMeters>
          </Trackpoint>
          <Trackpoint>
            <Time>2020-03-07T17:14:43.000Z</Time>
            <Position>
              <LatitudeDegrees>40.7378644309937953948974609375</LatitudeDegrees>
              <LongitudeDegrees>-3.82124452851712703704833984375</LongitudeDegrees>
            </Position>
            <AltitudeMeters>899.4000244140625</AltitudeMeters>
            <DistanceMeters>NAN</DistanceMeters>
          </Trackpoint>
          <Trackpoint>
            <Time>2020-03-07T17:14:44.000Z</Time>
            <Position>
              <LatitudeDegrees>40.7378513552248477935791015625</LatitudeDegrees>
              <LongitudeDegrees>-3.8211532495915889739990234375</LongitudeDegrees>
            </Position>
            <AltitudeMeters>899.20001220703125</AltitudeMeters>
            <DistanceMeters>NAN</DistanceMeters>
          </Trackpoint>
          <Trackpoint>
            <Time>2020-03-07T17:14:45.000Z</Time>
            <Position>
              <LatitudeDegrees>40.73784045875072479248046875</LatitudeDegrees>
              <LongitudeDegrees>-3.82106222212314605712890625</LongitudeDegrees>
            </Position>
            <AltitudeMeters>899.20001220703125</AltitudeMeters>
            <DistanceMeters>NAN</DistanceMeters>
          </Trackpoint>
          <Trackpoint>
            <Time>2020-03-07T17:14:46.000Z</Time>
            <Position>
              <LatitudeDegrees>40.73783065192401409149169921875</LatitudeDegrees>
              <LongitudeDegrees>-3.820970691740512847900390625</LongitudeDegrees>
            </Position>
            <AltitudeMeters>899.20001220703125</AltitudeMeters>
            <DistanceMeters>NAN</DistanceMeters>
          </Trackpoint>
          <Trackpoint>
            <Time>2020-03-07T17:14:47.000Z</Time>
            <Position>
              <LatitudeDegrees>40.737822353839874267578125</LatitudeDegrees>
              <LongitudeDegrees>-3.820878826081752777099609375</LongitudeDegrees>
            </Position>
            <AltitudeMeters>899.20001220703125</AltitudeMeters>
            <DistanceMeters>NAN</DistanceMeters>
          </Trackpoint>
          <Trackpoint>
            <Time>2020-03-07T17:14:48.000Z</Time>
            <Position>
              <LatitudeDegrees>40.737813971936702728271484375</LatitudeDegrees>
              <LongitudeDegrees>-3.82078620605170726776123046875</LongitudeDegrees>
            </Position>
            <AltitudeMeters>899.20001220703125</AltitudeMeters>
            <DistanceMeters>NAN</DistanceMeters>
          </Trackpoint>
          <Trackpoint>
            <Time>2020-03-07T17:14:49.000Z</Time>
            <Position>
              <LatitudeDegrees>40.737807266414165496826171875</LatitudeDegrees>
              <LongitudeDegrees>-3.82069115526974201202392578125</LongitudeDegrees>
            </Position>
            <AltitudeMeters>899.20001220703125</AltitudeMeters>
            <DistanceMeters>NAN</DistanceMeters>
          </Trackpoint>
          <Trackpoint>
            <Time>2020-03-07T17:14:50.000Z</Time>
            <Position>
              <LatitudeDegrees>40.73780332691967487335205078125</LatitudeDegrees>
              <LongitudeDegrees>-3.820595182478427886962890625</LongitudeDegrees>
            </Position>
            <AltitudeMeters>899.20001220703125</AltitudeMeters>
            <DistanceMeters>NAN</DistanceMeters>
          </Trackpoint>
          <Trackpoint>
            <Time>2020-03-07T17:14:51.000Z</Time>
            <Position>
              <LatitudeDegrees>40.73779779486358165740966796875</LatitudeDegrees>
              <LongitudeDegrees>-3.82049820385873317718505859375</LongitudeDegrees>
            </Position>
            <AltitudeMeters>899.20001220703125</AltitudeMeters>
            <DistanceMeters>NAN</DistanceMeters>
          </Trackpoint>
          <Trackpoint>
            <Time>2020-03-07T17:14:52.000Z</Time>
            <Position>
              <LatitudeDegrees>40.7377923466265201568603515625</LatitudeDegrees>
              <LongitudeDegrees>-3.8204045780003070831298828125</LongitudeDegrees>
            </Position>
            <AltitudeMeters>899.20001220703125</AltitudeMeters>
            <DistanceMeters>NAN</DistanceMeters>
          </Trackpoint>
          <Trackpoint>
            <Time>2020-03-07T17:14:53.000Z</Time>
            <Position>
              <LatitudeDegrees>40.73778958059847354888916015625</LatitudeDegrees>
              <LongitudeDegrees>-3.82031195797026157379150390625</LongitudeDegrees>
            </Position>
            <AltitudeMeters>899.20001220703125</AltitudeMeters>
            <DistanceMeters>NAN</DistanceMeters>
          </Trackpoint>
          <Trackpoint>
            <Time>2020-03-07T17:14:54.000Z</Time>
            <Position>
              <LatitudeDegrees>40.73778907768428325653076171875</LatitudeDegrees>
              <LongitudeDegrees>-3.82021942175924777984619140625</LongitudeDegrees>
            </Position>
            <AltitudeMeters>899.20001220703125</AltitudeMeters>
            <DistanceMeters>NAN</DistanceMeters>
          </Trackpoint>
          <Trackpoint>
            <Time>2020-03-07T17:14:55.000Z</Time>
            <Position>
              <LatitudeDegrees>40.73779226280748844146728515625</LatitudeDegrees>
              <LongitudeDegrees>-3.82012856192886829376220703125</LongitudeDegrees>
            </Position>
            <AltitudeMeters>899.20001220703125</AltitudeMeters>
            <DistanceMeters>NAN</DistanceMeters>
          </Trackpoint>
          <Trackpoint>
            <Time>2020-03-07T17:14:56.000Z</Time>
            <Position>
              <LatitudeDegrees>40.7377977110445499420166015625</LatitudeDegrees>
              <LongitudeDegrees>-3.82003962993621826171875</LongitudeDegrees>
            </Position>
            <AltitudeMeters>899.20001220703125</AltitudeMeters>
            <DistanceMeters>NAN</DistanceMeters>
          </Trackpoint>
          <Trackpoint>
            <Time>2020-03-07T17:14:57.000Z</Time>
            <Position>
              <LatitudeDegrees>40.73780282400548458099365234375</LatitudeDegrees>
              <LongitudeDegrees>-3.81995321251451969146728515625</LongitudeDegrees>
            </Position>
            <AltitudeMeters>899</AltitudeMeters>
            <DistanceMeters>NAN</DistanceMeters>
          </Trackpoint>
          <Trackpoint>
            <Time>2020-03-07T17:14:58.000Z</Time>
            <Position>
              <LatitudeDegrees>40.737809948623180389404296875</LatitudeDegrees>
              <LongitudeDegrees>-3.819864951074123382568359375</LongitudeDegrees>
            </Position>
            <AltitudeMeters>899</AltitudeMeters>
            <DistanceMeters>NAN</DistanceMeters>
          </Trackpoint>
          <Trackpoint>
            <Time>2020-03-07T17:14:59.000Z</Time>
            <Position>
              <LatitudeDegrees>40.73781556449830532073974609375</LatitudeDegrees>
              <LongitudeDegrees>-3.8197789527475833892822265625</LongitudeDegrees>
            </Position>
            <AltitudeMeters>899</AltitudeMeters>
            <DistanceMeters>NAN</DistanceMeters>
          </Trackpoint>
          <Trackpoint>
            <Time>2020-03-07T17:15:00.000Z</Time>
            <Position>
              <LatitudeDegrees>40.73782009072601795196533203125</LatitudeDegrees>
              <LongitudeDegrees>-3.81969706155359745025634765625</LongitudeDegrees>
            </Position>
            <AltitudeMeters>899</AltitudeMeters>
            <DistanceMeters>NAN</DistanceMeters>
          </Trackpoint>
          <Trackpoint>
            <Time>2020-03-07T17:15:01.000Z</Time>
            <Position>
              <LatitudeDegrees>40.73782704770565032958984375</LatitudeDegrees>
              <LongitudeDegrees>-3.8196183554828166961669921875</LongitudeDegrees>
            </Position>
            <AltitudeMeters>899</AltitudeMeters>
            <DistanceMeters>NAN</DistanceMeters>
          </Trackpoint>
          <Trackpoint>
            <Time>2020-03-07T17:15:02.000Z</Time>
            <Position>
              <LatitudeDegrees>40.73783517815172672271728515625</LatitudeDegrees>
              <LongitudeDegrees>-3.819541744887828826904296875</LongitudeDegrees>
            </Position>
            <AltitudeMeters>899</AltitudeMeters>
            <DistanceMeters>NAN</DistanceMeters>
          </Trackpoint>
          <Trackpoint>
            <Time>2020-03-07T17:15:03.000Z</Time>
            <Position>
              <LatitudeDegrees>40.73784423060715198516845703125</LatitudeDegrees>
              <LongitudeDegrees>-3.81946471519768238067626953125</LongitudeDegrees>
            </Position>
            <AltitudeMeters>899</AltitudeMeters>
            <DistanceMeters>NAN</DistanceMeters>
          </Trackpoint>
          <Trackpoint>
            <Time>2020-03-07T17:15:04.000Z</Time>
            <Position>
              <LatitudeDegrees>40.7378503493964672088623046875</LatitudeDegrees>
              <LongitudeDegrees>-3.819390200078487396240234375</LongitudeDegrees>
            </Position>
            <AltitudeMeters>899.4000244140625</AltitudeMeters>
            <DistanceMeters>NAN</DistanceMeters>
          </Trackpoint>
          <Trackpoint>
            <Time>2020-03-07T17:15:05.000Z</Time>
            <Position>
              <LatitudeDegrees>40.73785789310932159423828125</LatitudeDegrees>
              <LongitudeDegrees>-3.8193176127970218658447265625</LongitudeDegrees>
            </Position>
            <AltitudeMeters>899.4000244140625</AltitudeMeters>
            <DistanceMeters>NAN</DistanceMeters>
          </Trackpoint>
          <Trackpoint>
            <Time>2020-03-07T17:15:06.000Z</Time>
            <Position>
              <LatitudeDegrees>40.73786870576441287994384765625</LatitudeDegrees>
              <LongitudeDegrees>-3.8192468695342540740966796875</LongitudeDegrees>
            </Position>
            <AltitudeMeters>899.4000244140625</AltitudeMeters>
            <DistanceMeters>NAN</DistanceMeters>
          </Trackpoint>
          <Trackpoint>
            <Time>2020-03-07T17:15:07.000Z</Time>
            <Position>
              <LatitudeDegrees>40.73787725530564785003662109375</LatitudeDegrees>
              <LongitudeDegrees>-3.81917654536664485931396484375</LongitudeDegrees>
            </Position>
            <AltitudeMeters>899.4000244140625</AltitudeMeters>
            <DistanceMeters>NAN</DistanceMeters>
          </Trackpoint>
          <Trackpoint>
            <Time>2020-03-07T17:15:08.000Z</Time>
            <Position>
              <LatitudeDegrees>40.73788848705589771270751953125</LatitudeDegrees>
              <LongitudeDegrees>-3.81910814903676509857177734375</LongitudeDegrees>
            </Position>
            <AltitudeMeters>899.4000244140625</AltitudeMeters>
            <DistanceMeters>NAN</DistanceMeters>
          </Trackpoint>
          <Trackpoint>
            <Time>2020-03-07T17:15:09.000Z</Time>
            <Position>
              <LatitudeDegrees>40.73789921589195728302001953125</LatitudeDegrees>
              <LongitudeDegrees>-3.819039165973663330078125</LongitudeDegrees>
            </Position>
            <AltitudeMeters>899.4000244140625</AltitudeMeters>
            <DistanceMeters>NAN</DistanceMeters>
          </Trackpoint>
          <Trackpoint>
            <Time>2020-03-07T17:15:10.000Z</Time>
            <Position>
              <LatitudeDegrees>40.7379120402038097381591796875</LatitudeDegrees>
              <LongitudeDegrees>-3.81897144019603729248046875</LongitudeDegrees>
            </Position>
            <AltitudeMeters>899.4000244140625</AltitudeMeters>
            <DistanceMeters>NAN</DistanceMeters>
          </Trackpoint>
          <Trackpoint>
            <Time>2020-03-07T17:15:11.000Z</Time>
            <Position>
              <LatitudeDegrees>40.73792905546724796295166015625</LatitudeDegrees>
              <LongitudeDegrees>-3.81890363059937953948974609375</LongitudeDegrees>
            </Position>
            <AltitudeMeters>899.4000244140625</AltitudeMeters>
            <DistanceMeters>NAN</DistanceMeters>
          </Trackpoint>
          <Trackpoint>
            <Time>2020-03-07T17:15:12.000Z</Time>
            <Position>
              <LatitudeDegrees>40.737949423491954803466796875</LatitudeDegrees>
              <LongitudeDegrees>-3.818835318088531494140625</LongitudeDegrees>
            </Position>
            <AltitudeMeters>899.5999755859375</AltitudeMeters>
            <DistanceMeters>NAN</DistanceMeters>
          </Trackpoint>
          <Trackpoint>
            <Time>2020-03-07T17:15:13.000Z</Time>
            <Position>
              <LatitudeDegrees>40.73796794749796390533447265625</LatitudeDegrees>
              <LongitudeDegrees>-3.81876717321574687957763671875</LongitudeDegrees>
            </Position>
            <AltitudeMeters>899.5999755859375</AltitudeMeters>
            <DistanceMeters>NAN</DistanceMeters>
          </Trackpoint>
          <Trackpoint>
            <Time>2020-03-07T17:15:14.000Z</Time>
            <Position>
              <LatitudeDegrees>40.73798529803752899169921875</LatitudeDegrees>
              <LongitudeDegrees>-3.818698860704898834228515625</LongitudeDegrees>
            </Position>
            <AltitudeMeters>899.5999755859375</AltitudeMeters>
            <DistanceMeters>NAN</DistanceMeters>
          </Trackpoint>
          <Trackpoint>
            <Time>2020-03-07T17:15:15.000Z</Time>
            <Position>
              <LatitudeDegrees>40.73800331912934780120849609375</LatitudeDegrees>
              <LongitudeDegrees>-3.8186309672892093658447265625</LongitudeDegrees>
            </Position>
            <AltitudeMeters>899.5999755859375</AltitudeMeters>
            <DistanceMeters>NAN</DistanceMeters>
          </Trackpoint>
          <Trackpoint>
            <Time>2020-03-07T17:15:16.000Z</Time>
            <Position>
              <LatitudeDegrees>40.7380203343927860260009765625</LatitudeDegrees>
              <LongitudeDegrees>-3.81856332533061504364013671875</LongitudeDegrees>
            </Position>
            <AltitudeMeters>899.5999755859375</AltitudeMeters>
            <DistanceMeters>NAN</DistanceMeters>
          </Trackpoint>
          <Trackpoint>
            <Time>2020-03-07T17:15:17.000Z</Time>
            <Position>
              <LatitudeDegrees>40.738039277493953704833984375</LatitudeDegrees>
              <LongitudeDegrees>-3.81849559955298900604248046875</LongitudeDegrees>
            </Position>
            <AltitudeMeters>899.5999755859375</AltitudeMeters>
            <DistanceMeters>NAN</DistanceMeters>
          </Trackpoint>
          <Trackpoint>
            <Time>2020-03-07T17:15:18.000Z</Time>
            <Position>
              <LatitudeDegrees>40.73806031607091426849365234375</LatitudeDegrees>
              <LongitudeDegrees>-3.81842921487987041473388671875</LongitudeDegrees>
            </Position>
            <AltitudeMeters>899.5999755859375</AltitudeMeters>
            <DistanceMeters>NAN</DistanceMeters>
          </Trackpoint>
          <Trackpoint>
            <Time>2020-03-07T17:15:19.000Z</Time>
            <Position>
              <LatitudeDegrees>40.73808026500046253204345703125</LatitudeDegrees>
              <LongitudeDegrees>-3.81836123764514923095703125</LongitudeDegrees>
            </Position>
            <AltitudeMeters>899.5999755859375</AltitudeMeters>
            <DistanceMeters>NAN</DistanceMeters>
          </Trackpoint>
          <Trackpoint>
            <Time>2020-03-07T17:15:20.000Z</Time>
            <Position>
              <LatitudeDegrees>40.73810222558677196502685546875</LatitudeDegrees>
              <LongitudeDegrees>-3.81829510442912578582763671875</LongitudeDegrees>
            </Position>
            <AltitudeMeters>899.5999755859375</AltitudeMeters>
            <DistanceMeters>NAN</DistanceMeters>
          </Trackpoint>
          <Trackpoint>
            <Time>2020-03-07T17:15:21.000Z</Time>
            <Position>
              <LatitudeDegrees>40.73812385089695453643798828125</LatitudeDegrees>
              <LongitudeDegrees>-3.8182272948324680328369140625</LongitudeDegrees>
            </Position>
            <AltitudeMeters>899.5999755859375</AltitudeMeters>
            <DistanceMeters>NAN</DistanceMeters>
          </Trackpoint>
          <Trackpoint>
            <Time>2020-03-07T17:15:22.000Z</Time>
            <Position>
              <LatitudeDegrees>40.7381470687687397003173828125</LatitudeDegrees>
              <LongitudeDegrees>-3.81815847940742969512939453125</LongitudeDegrees>
            </Position>
            <AltitudeMeters>899.5999755859375</AltitudeMeters>
            <DistanceMeters>NAN</DistanceMeters>
          </Trackpoint>
          <Trackpoint>
            <Time>2020-03-07T17:15:23.000Z</Time>
            <Position>
              <LatitudeDegrees>40.73816844262182712554931640625</LatitudeDegrees>
              <LongitudeDegrees>-3.81809159182012081146240234375</LongitudeDegrees>
            </Position>
            <AltitudeMeters>899.5999755859375</AltitudeMeters>
            <DistanceMeters>NAN</DistanceMeters>
          </Trackpoint>
          <Trackpoint>
            <Time>2020-03-07T17:15:24.000Z</Time>
            <Position>
              <LatitudeDegrees>40.7381884753704071044921875</LatitudeDegrees>
              <LongitudeDegrees>-3.81802554242312908172607421875</LongitudeDegrees>
            </Position>
            <AltitudeMeters>899.5999755859375</AltitudeMeters>
            <DistanceMeters>NAN</DistanceMeters>
          </Trackpoint>
          <Trackpoint>
            <Time>2020-03-07T17:15:25.000Z</Time>
            <Position>
              <LatitudeDegrees>40.7382097654044628143310546875</LatitudeDegrees>
              <LongitudeDegrees>-3.81795823574066162109375</LongitudeDegrees>
            </Position>
            <AltitudeMeters>899.5999755859375</AltitudeMeters>
            <DistanceMeters>NAN</DistanceMeters>
          </Trackpoint>
          <Trackpoint>
            <Time>2020-03-07T17:15:26.000Z</Time>
            <Position>
              <LatitudeDegrees>40.73823331855237483978271484375</LatitudeDegrees>
              <LongitudeDegrees>-3.81788916885852813720703125</LongitudeDegrees>
            </Position>
            <AltitudeMeters>899.4000244140625</AltitudeMeters>
            <DistanceMeters>NAN</DistanceMeters>
          </Trackpoint>
          <Trackpoint>
            <Time>2020-03-07T17:15:27.000Z</Time>
            <Position>
              <LatitudeDegrees>40.7382570393383502960205078125</LatitudeDegrees>
              <LongitudeDegrees>-3.8178199343383312225341796875</LongitudeDegrees>
            </Position>
            <AltitudeMeters>899.4000244140625</AltitudeMeters>
            <DistanceMeters>NAN</DistanceMeters>
          </Trackpoint>
          <Trackpoint>
            <Time>2020-03-07T17:15:28.000Z</Time>
            <Position>
              <LatitudeDegrees>40.73827925138175487518310546875</LatitudeDegrees>
              <LongitudeDegrees>-3.8177522085607051849365234375</LongitudeDegrees>
            </Position>
            <AltitudeMeters>899.4000244140625</AltitudeMeters>
            <DistanceMeters>NAN</DistanceMeters>
          </Trackpoint>
          <Trackpoint>
            <Time>2020-03-07T17:15:29.000Z</Time>
            <Position>
              <LatitudeDegrees>40.73830473236739635467529296875</LatitudeDegrees>
              <LongitudeDegrees>-3.8176824711263179779052734375</LongitudeDegrees>
            </Position>
            <AltitudeMeters>899.20001220703125</AltitudeMeters>
            <DistanceMeters>NAN</DistanceMeters>
          </Trackpoint>
          <Trackpoint>
            <Time>2020-03-07T17:15:30.000Z</Time>
            <Position>
              <LatitudeDegrees>40.73832903988659381866455078125</LatitudeDegrees>
              <LongitudeDegrees>-3.8176127336919307708740234375</LongitudeDegrees>
            </Position>
            <AltitudeMeters>899.20001220703125</AltitudeMeters>
            <DistanceMeters>NAN</DistanceMeters>
          </Trackpoint>
          <Trackpoint>
            <Time>2020-03-07T17:15:31.000Z</Time>
            <Position>
              <LatitudeDegrees>40.73835401795804500579833984375</LatitudeDegrees>
              <LongitudeDegrees>-3.81754316389560699462890625</LongitudeDegrees>
            </Position>
            <AltitudeMeters>899.20001220703125</AltitudeMeters>
            <DistanceMeters>NAN</DistanceMeters>
          </Trackpoint>
          <Trackpoint>
            <Time>2020-03-07T17:15:32.000Z</Time>
            <Position>
              <LatitudeDegrees>40.7383797504007816314697265625</LatitudeDegrees>
              <LongitudeDegrees>-3.8174725882709026336669921875</LongitudeDegrees>
            </Position>
            <AltitudeMeters>899.20001220703125</AltitudeMeters>
            <DistanceMeters>NAN</DistanceMeters>
          </Trackpoint>
          <Trackpoint>
            <Time>2020-03-07T17:15:33.000Z</Time>
            <Position>
              <LatitudeDegrees>40.7384055666625499725341796875</LatitudeDegrees>
              <LongitudeDegrees>-3.8174018450081348419189453125</LongitudeDegrees>
            </Position>
            <AltitudeMeters>899</AltitudeMeters>
            <DistanceMeters>NAN</DistanceMeters>
          </Trackpoint>
          <Trackpoint>
            <Time>2020-03-07T17:15:34.000Z</Time>
            <Position>
              <LatitudeDegrees>40.73843230493366718292236328125</LatitudeDegrees>
              <LongitudeDegrees>-3.81733068265020847320556640625</LongitudeDegrees>
            </Position>
            <AltitudeMeters>899</AltitudeMeters>
            <DistanceMeters>NAN</DistanceMeters>
          </Trackpoint>
          <Trackpoint>
            <Time>2020-03-07T17:15:35.000Z</Time>
            <Position>
              <LatitudeDegrees>40.73846097104251384735107421875</LatitudeDegrees>
              <LongitudeDegrees>-3.8172603584825992584228515625</LongitudeDegrees>
            </Position>
            <AltitudeMeters>899</AltitudeMeters>
            <DistanceMeters>NAN</DistanceMeters>
          </Trackpoint>
          <Trackpoint>
            <Time>2020-03-07T17:15:36.000Z</Time>
            <Position>
              <LatitudeDegrees>40.73848963715136051177978515625</LatitudeDegrees>
              <LongitudeDegrees>-3.81719070486724376678466796875</LongitudeDegrees>
            </Position>
            <AltitudeMeters>899</AltitudeMeters>
            <DistanceMeters>NAN</DistanceMeters>
          </Trackpoint>
          <Trackpoint>
            <Time>2020-03-07T17:15:37.000Z</Time>
            <Position>
              <LatitudeDegrees>40.73851645924150943756103515625</LatitudeDegrees>
              <LongitudeDegrees>-3.81712247617542743682861328125</LongitudeDegrees>
            </Position>
            <AltitudeMeters>899</AltitudeMeters>
            <DistanceMeters>NAN</DistanceMeters>
          </Trackpoint>
          <Trackpoint>
            <Time>2020-03-07T17:15:38.000Z</Time>
            <Position>
              <LatitudeDegrees>40.73854261077940464019775390625</LatitudeDegrees>
              <LongitudeDegrees>-3.81705407984554767608642578125</LongitudeDegrees>
            </Position>
            <AltitudeMeters>899</AltitudeMeters>
            <DistanceMeters>NAN</DistanceMeters>
          </Trackpoint>
          <Trackpoint>
            <Time>2020-03-07T17:15:39.000Z</Time>
            <Position>
              <LatitudeDegrees>40.73856926523149013519287109375</LatitudeDegrees>
              <LongitudeDegrees>-3.8169850967824459075927734375</LongitudeDegrees>
            </Position>
            <AltitudeMeters>899</AltitudeMeters>
            <DistanceMeters>NAN</DistanceMeters>
          </Trackpoint>
          <Trackpoint>
            <Time>2020-03-07T17:15:40.000Z</Time>
            <Position>
              <LatitudeDegrees>40.7385970093309879302978515625</LatitudeDegrees>
              <LongitudeDegrees>-3.81691686809062957763671875</LongitudeDegrees>
            </Position>
            <AltitudeMeters>898.79998779296875</AltitudeMeters>
            <DistanceMeters>NAN</DistanceMeters>
          </Trackpoint>
          <Trackpoint>
            <Time>2020-03-07T17:15:41.000Z</Time>
            <Position>
              <LatitudeDegrees>40.73862626217305660247802734375</LatitudeDegrees>
              <LongitudeDegrees>-3.81684713065624237060546875</LongitudeDegrees>
            </Position>
            <AltitudeMeters>898.79998779296875</AltitudeMeters>
            <DistanceMeters>NAN</DistanceMeters>
          </Trackpoint>
          <Trackpoint>
            <Time>2020-03-07T17:15:42.000Z</Time>
            <Position>
              <LatitudeDegrees>40.738652832806110382080078125</LatitudeDegrees>
              <LongitudeDegrees>-3.8167765550315380096435546875</LongitudeDegrees>
            </Position>
            <AltitudeMeters>898.79998779296875</AltitudeMeters>
            <DistanceMeters>NAN</DistanceMeters>
          </Trackpoint>
          <Trackpoint>
            <Time>2020-03-07T17:15:43.000Z</Time>
            <Position>
              <LatitudeDegrees>40.7386798225343227386474609375</LatitudeDegrees>
              <LongitudeDegrees>-3.81670505739748477935791015625</LongitudeDegrees>
            </Position>
            <AltitudeMeters>898.79998779296875</AltitudeMeters>
            <DistanceMeters>NAN</DistanceMeters>
          </Trackpoint>
          <Trackpoint>
            <Time>2020-03-07T17:15:44.000Z</Time>
            <Position>
              <LatitudeDegrees>40.73870622552931308746337890625</LatitudeDegrees>
              <LongitudeDegrees>-3.81663255393505096435546875</LongitudeDegrees>
            </Position>
            <AltitudeMeters>898.79998779296875</AltitudeMeters>
            <DistanceMeters>NAN</DistanceMeters>
          </Trackpoint>
          <Trackpoint>
            <Time>2020-03-07T17:15:45.000Z</Time>
            <Position>
              <LatitudeDegrees>40.7387311197817325592041015625</LatitudeDegrees>
              <LongitudeDegrees>-3.81656206212937831878662109375</LongitudeDegrees>
            </Position>
            <AltitudeMeters>898.79998779296875</AltitudeMeters>
            <DistanceMeters>NAN</DistanceMeters>
          </Trackpoint>
          <Trackpoint>
            <Time>2020-03-07T17:15:46.000Z</Time>
            <Position>
              <LatitudeDegrees>40.73875852860510349273681640625</LatitudeDegrees>
              <LongitudeDegrees>-3.81649232469499111175537109375</LongitudeDegrees>
            </Position>
            <AltitudeMeters>898.79998779296875</AltitudeMeters>
            <DistanceMeters>NAN</DistanceMeters>
          </Trackpoint>
          <Trackpoint>
            <Time>2020-03-07T17:15:47.000Z</Time>
            <Position>
              <LatitudeDegrees>40.73878317140042781829833984375</LatitudeDegrees>
              <LongitudeDegrees>-3.816422335803508758544921875</LongitudeDegrees>
            </Position>
            <AltitudeMeters>898.79998779296875</AltitudeMeters>
            <DistanceMeters>NAN</DistanceMeters>
          </Trackpoint>
          <Trackpoint>
            <Time>2020-03-07T17:15:48.000Z</Time>
            <Position>
              <LatitudeDegrees>40.73880764655768871307373046875</LatitudeDegrees>
              <LongitudeDegrees>-3.8163537718355655670166015625</LongitudeDegrees>
            </Position>
            <AltitudeMeters>898.79998779296875</AltitudeMeters>
            <DistanceMeters>NAN</DistanceMeters>
          </Trackpoint>
          <Trackpoint>
            <Time>2020-03-07T17:15:49.000Z</Time>
            <Position>
              <LatitudeDegrees>40.7388340495526790618896484375</LatitudeDegrees>
              <LongitudeDegrees>-3.81628663279116153717041015625</LongitudeDegrees>
            </Position>
            <AltitudeMeters>898.79998779296875</AltitudeMeters>
            <DistanceMeters>NAN</DistanceMeters>
          </Trackpoint>
          <Trackpoint>
            <Time>2020-03-07T17:15:50.000Z</Time>
            <Position>
              <LatitudeDegrees>40.73886078782379627227783203125</LatitudeDegrees>
              <LongitudeDegrees>-3.81622058339416980743408203125</LongitudeDegrees>
            </Position>
            <AltitudeMeters>898.79998779296875</AltitudeMeters>
            <DistanceMeters>NAN</DistanceMeters>
          </Trackpoint>
          <Trackpoint>
            <Time>2020-03-07T17:15:51.000Z</Time>
            <Position>
              <LatitudeDegrees>40.738890208303928375244140625</LatitudeDegrees>
              <LongitudeDegrees>-3.8161522708833217620849609375</LongitudeDegrees>
            </Position>
            <AltitudeMeters>898.79998779296875</AltitudeMeters>
            <DistanceMeters>NAN</DistanceMeters>
          </Trackpoint>
          <Trackpoint>
            <Time>2020-03-07T17:15:52.000Z</Time>
            <Position>
              <LatitudeDegrees>40.7389141805469989776611328125</LatitudeDegrees>
              <LongitudeDegrees>-3.81608261726796627044677734375</LongitudeDegrees>
            </Position>
            <AltitudeMeters>898.79998779296875</AltitudeMeters>
            <DistanceMeters>NAN</DistanceMeters>
          </Trackpoint>
          <Trackpoint>
            <Time>2020-03-07T17:15:53.000Z</Time>
            <Position>
              <LatitudeDegrees>40.73893957771360874176025390625</LatitudeDegrees>
              <LongitudeDegrees>-3.8160127960145473480224609375</LongitudeDegrees>
            </Position>
            <AltitudeMeters>898.79998779296875</AltitudeMeters>
            <DistanceMeters>NAN</DistanceMeters>
          </Trackpoint>
          <Trackpoint>
            <Time>2020-03-07T17:15:54.000Z</Time>
            <Position>
              <LatitudeDegrees>40.738963298499584197998046875</LatitudeDegrees>
              <LongitudeDegrees>-3.81594079546630382537841796875</LongitudeDegrees>
            </Position>
            <AltitudeMeters>898.79998779296875</AltitudeMeters>
            <DistanceMeters>NAN</DistanceMeters>
          </Trackpoint>
          <Trackpoint>
            <Time>2020-03-07T17:15:55.000Z</Time>
            <Position>
              <LatitudeDegrees>40.7389904558658599853515625</LatitudeDegrees>
              <LongitudeDegrees>-3.815870471298694610595703125</LongitudeDegrees>
            </Position>
            <AltitudeMeters>899</AltitudeMeters>
            <DistanceMeters>NAN</DistanceMeters>
          </Trackpoint>
          <Trackpoint>
            <Time>2020-03-07T17:15:56.000Z</Time>
            <Position>
              <LatitudeDegrees>40.73902021162211894989013671875</LatitudeDegrees>
              <LongitudeDegrees>-3.81579863838851451873779296875</LongitudeDegrees>
            </Position>
            <AltitudeMeters>899</AltitudeMeters>
            <DistanceMeters>NAN</DistanceMeters>
          </Trackpoint>
          <Trackpoint>
            <Time>2020-03-07T17:15:57.000Z</Time>
            <Position>
              <LatitudeDegrees>40.7390482909977436065673828125</LatitudeDegrees>
              <LongitudeDegrees>-3.815724961459636688232421875</LongitudeDegrees>
            </Position>
            <AltitudeMeters>899</AltitudeMeters>
            <DistanceMeters>NAN</DistanceMeters>
          </Trackpoint>
          <Trackpoint>
            <Time>2020-03-07T17:15:58.000Z</Time>
            <Position>
              <LatitudeDegrees>40.739076621830463409423828125</LatitudeDegrees>
              <LongitudeDegrees>-3.8156527094542980194091796875</LongitudeDegrees>
            </Position>
            <AltitudeMeters>899.20001220703125</AltitudeMeters>
            <DistanceMeters>NAN</DistanceMeters>
          </Trackpoint>
          <Trackpoint>
            <Time>2020-03-07T17:15:59.000Z</Time>
            <Position>
              <LatitudeDegrees>40.739102102816104888916015625</LatitudeDegrees>
              <LongitudeDegrees>-3.8155796192586421966552734375</LongitudeDegrees>
            </Position>
            <AltitudeMeters>899.20001220703125</AltitudeMeters>
            <DistanceMeters>NAN</DistanceMeters>
          </Trackpoint>
          <Trackpoint>
            <Time>2020-03-07T17:16:00.000Z</Time>
            <Position>
              <LatitudeDegrees>40.739125907421112060546875</LatitudeDegrees>
              <LongitudeDegrees>-3.81550870835781097412109375</LongitudeDegrees>
            </Position>
            <AltitudeMeters>899.20001220703125</AltitudeMeters>
            <DistanceMeters>NAN</DistanceMeters>
          </Trackpoint>
          <Trackpoint>
            <Time>2020-03-07T17:16:01.000Z</Time>
            <Position>
              <LatitudeDegrees>40.73915465734899044036865234375</LatitudeDegrees>
              <LongitudeDegrees>-3.81543494760990142822265625</LongitudeDegrees>
            </Position>
            <AltitudeMeters>899.20001220703125</AltitudeMeters>
            <DistanceMeters>NAN</DistanceMeters>
          </Trackpoint>
          <Trackpoint>
            <Time>2020-03-07T17:16:02.000Z</Time>
            <Position>
              <LatitudeDegrees>40.7391750253736972808837890625</LatitudeDegrees>
              <LongitudeDegrees>-3.81536713801324367523193359375</LongitudeDegrees>
            </Position>
            <AltitudeMeters>899.4000244140625</AltitudeMeters>
            <DistanceMeters>NAN</DistanceMeters>
          </Trackpoint>
          <Trackpoint>
            <Time>2020-03-07T17:16:03.000Z</Time>
            <Position>
              <LatitudeDegrees>40.739193968474864959716796875</LatitudeDegrees>
              <LongitudeDegrees>-3.8152976520359516143798828125</LongitudeDegrees>
            </Position>
            <AltitudeMeters>899.4000244140625</AltitudeMeters>
            <DistanceMeters>NAN</DistanceMeters>
          </Trackpoint>
          <Trackpoint>
            <Time>2020-03-07T17:16:04.000Z</Time>
            <Position>
              <LatitudeDegrees>40.73921467177569866180419921875</LatitudeDegrees>
              <LongitudeDegrees>-3.81522766314446926116943359375</LongitudeDegrees>
            </Position>
            <AltitudeMeters>899.4000244140625</AltitudeMeters>
            <DistanceMeters>NAN</DistanceMeters>
          </Trackpoint>
          <Trackpoint>
            <Time>2020-03-07T17:16:05.000Z</Time>
            <Position>
              <LatitudeDegrees>40.739233531057834625244140625</LatitudeDegrees>
              <LongitudeDegrees>-3.81515440531075000762939453125</LongitudeDegrees>
            </Position>
            <AltitudeMeters>899.4000244140625</AltitudeMeters>
            <DistanceMeters>NAN</DistanceMeters>
          </Trackpoint>
          <Trackpoint>
            <Time>2020-03-07T17:16:06.000Z</Time>
            <Position>
              <LatitudeDegrees>40.7392511330544948577880859375</LatitudeDegrees>
              <LongitudeDegrees>-3.8150817342102527618408203125</LongitudeDegrees>
            </Position>
            <AltitudeMeters>899.4000244140625</AltitudeMeters>
            <DistanceMeters>NAN</DistanceMeters>
          </Trackpoint>
          <Trackpoint>
            <Time>2020-03-07T17:16:07.000Z</Time>
            <Position>
              <LatitudeDegrees>40.73927141726016998291015625</LatitudeDegrees>
              <LongitudeDegrees>-3.8150062970817089080810546875</LongitudeDegrees>
            </Position>
            <AltitudeMeters>899.5999755859375</AltitudeMeters>
            <DistanceMeters>NAN</DistanceMeters>
          </Trackpoint>
          <Trackpoint>
            <Time>2020-03-07T17:16:08.000Z</Time>
            <Position>
              <LatitudeDegrees>40.7392913661897182464599609375</LatitudeDegrees>
              <LongitudeDegrees>-3.814931698143482208251953125</LongitudeDegrees>
            </Position>
            <AltitudeMeters>899.5999755859375</AltitudeMeters>
            <DistanceMeters>NAN</DistanceMeters>
          </Trackpoint>
          <Trackpoint>
            <Time>2020-03-07T17:16:09.000Z</Time>
            <Position>
              <LatitudeDegrees>40.73930921964347362518310546875</LatitudeDegrees>
              <LongitudeDegrees>-3.81485651247203350067138671875</LongitudeDegrees>
            </Position>
            <AltitudeMeters>899.5999755859375</AltitudeMeters>
            <DistanceMeters>NAN</DistanceMeters>
          </Trackpoint>
          <Trackpoint>
            <Time>2020-03-07T17:16:10.000Z</Time>
            <Position>
              <LatitudeDegrees>40.7393222115933895111083984375</LatitudeDegrees>
              <LongitudeDegrees>-3.81478308700025081634521484375</LongitudeDegrees>
            </Position>
            <AltitudeMeters>899.5999755859375</AltitudeMeters>
            <DistanceMeters>NAN</DistanceMeters>
          </Trackpoint>
          <Trackpoint>
            <Time>2020-03-07T17:16:11.000Z</Time>
            <Position>
              <LatitudeDegrees>40.7393295876681804656982421875</LatitudeDegrees>
              <LongitudeDegrees>-3.81470697931945323944091796875</LongitudeDegrees>
            </Position>
            <AltitudeMeters>899.5999755859375</AltitudeMeters>
            <DistanceMeters>NAN</DistanceMeters>
          </Trackpoint>
          <Trackpoint>
            <Time>2020-03-07T17:16:12.000Z</Time>
            <Position>
              <LatitudeDegrees>40.739330761134624481201171875</LatitudeDegrees>
              <LongitudeDegrees>-3.8146309554576873779296875</LongitudeDegrees>
            </Position>
            <AltitudeMeters>899.79998779296875</AltitudeMeters>
            <DistanceMeters>NAN</DistanceMeters>
          </Trackpoint>
          <Trackpoint>
            <Time>2020-03-07T17:16:13.000Z</Time>
            <Position>
              <LatitudeDegrees>40.73932413943111896514892578125</LatitudeDegrees>
              <LongitudeDegrees>-3.8145563565194606781005859375</LongitudeDegrees>
            </Position>
            <AltitudeMeters>899.79998779296875</AltitudeMeters>
            <DistanceMeters>NAN</DistanceMeters>
          </Trackpoint>
          <Trackpoint>
            <Time>2020-03-07T17:16:14.000Z</Time>
            <Position>
              <LatitudeDegrees>40.73930955491960048675537109375</LatitudeDegrees>
              <LongitudeDegrees>-3.81448469124734401702880859375</LongitudeDegrees>
            </Position>
            <AltitudeMeters>899.79998779296875</AltitudeMeters>
            <DistanceMeters>NAN</DistanceMeters>
          </Trackpoint>
          <Trackpoint>
            <Time>2020-03-07T17:16:15.000Z</Time>
            <Position>
              <LatitudeDegrees>40.739286504685878753662109375</LatitudeDegrees>
              <LongitudeDegrees>-3.81441595964133739471435546875</LongitudeDegrees>
            </Position>
            <AltitudeMeters>899.79998779296875</AltitudeMeters>
            <DistanceMeters>NAN</DistanceMeters>
          </Trackpoint>
          <Trackpoint>
            <Time>2020-03-07T17:16:16.000Z</Time>
            <Position>
              <LatitudeDegrees>40.7392578385770320892333984375</LatitudeDegrees>
              <LongitudeDegrees>-3.81434672512114048004150390625</LongitudeDegrees>
            </Position>
            <AltitudeMeters>899.79998779296875</AltitudeMeters>
            <DistanceMeters>NAN</DistanceMeters>
          </Trackpoint>
          <Trackpoint>
            <Time>2020-03-07T17:16:17.000Z</Time>
            <Position>
              <LatitudeDegrees>40.73922707699239253997802734375</LatitudeDegrees>
              <LongitudeDegrees>-3.81427346728742122650146484375</LongitudeDegrees>
            </Position>
            <AltitudeMeters>899.79998779296875</AltitudeMeters>
            <DistanceMeters>NAN</DistanceMeters>
          </Trackpoint>
          <Trackpoint>
            <Time>2020-03-07T17:16:18.000Z</Time>
            <Position>
              <LatitudeDegrees>40.73919497430324554443359375</LatitudeDegrees>
              <LongitudeDegrees>-3.8142006285488605499267578125</LongitudeDegrees>
            </Position>
            <AltitudeMeters>899.79998779296875</AltitudeMeters>
            <DistanceMeters>NAN</DistanceMeters>
          </Trackpoint>
          <Trackpoint>
            <Time>2020-03-07T17:16:19.000Z</Time>
            <Position>
              <LatitudeDegrees>40.7391629554331302642822265625</LatitudeDegrees>
              <LongitudeDegrees>-3.81412913091480731964111328125</LongitudeDegrees>
            </Position>
            <AltitudeMeters>900</AltitudeMeters>
            <DistanceMeters>NAN</DistanceMeters>
          </Trackpoint>
          <Trackpoint>
            <Time>2020-03-07T17:16:20.000Z</Time>
            <Position>
              <LatitudeDegrees>40.73913370259106159210205078125</LatitudeDegrees>
              <LongitudeDegrees>-3.814055956900119781494140625</LongitudeDegrees>
            </Position>
            <AltitudeMeters>900</AltitudeMeters>
            <DistanceMeters>NAN</DistanceMeters>
          </Trackpoint>
          <Trackpoint>
            <Time>2020-03-07T17:16:21.000Z</Time>
            <Position>
              <LatitudeDegrees>40.7391089759767055511474609375</LatitudeDegrees>
              <LongitudeDegrees>-3.81398211233317852020263671875</LongitudeDegrees>
            </Position>
            <AltitudeMeters>900</AltitudeMeters>
            <DistanceMeters>NAN</DistanceMeters>
          </Trackpoint>
          <Trackpoint>
            <Time>2020-03-07T17:16:22.000Z</Time>
            <Position>
              <LatitudeDegrees>40.73909414000809192657470703125</LatitudeDegrees>
              <LongitudeDegrees>-3.81390751339495182037353515625</LongitudeDegrees>
            </Position>
            <AltitudeMeters>900</AltitudeMeters>
            <DistanceMeters>NAN</DistanceMeters>
          </Trackpoint>
          <Trackpoint>
            <Time>2020-03-07T17:16:23.000Z</Time>
            <Position>
              <LatitudeDegrees>40.73908575810492038726806640625</LatitudeDegrees>
              <LongitudeDegrees>-3.81383811123669147491455078125</LongitudeDegrees>
            </Position>
            <AltitudeMeters>900</AltitudeMeters>
            <DistanceMeters>NAN</DistanceMeters>
          </Trackpoint>
          <Trackpoint>
            <Time>2020-03-07T17:16:24.000Z</Time>
            <Position>
              <LatitudeDegrees>40.7390841655433177947998046875</LatitudeDegrees>
              <LongitudeDegrees>-3.813769631087779998779296875</LongitudeDegrees>
            </Position>
            <AltitudeMeters>900</AltitudeMeters>
            <DistanceMeters>NAN</DistanceMeters>
          </Trackpoint>
          <Trackpoint>
            <Time>2020-03-07T17:16:25.000Z</Time>
            <Position>
              <LatitudeDegrees>40.73909145779907703399658203125</LatitudeDegrees>
              <LongitudeDegrees>-3.81370282731950283050537109375</LongitudeDegrees>
            </Position>
            <AltitudeMeters>900.20001220703125</AltitudeMeters>
            <DistanceMeters>NAN</DistanceMeters>
          </Trackpoint>
          <Trackpoint>
            <Time>2020-03-07T17:16:26.000Z</Time>
            <Position>
              <LatitudeDegrees>40.739105455577373504638671875</LatitudeDegrees>
              <LongitudeDegrees>-3.813634179532527923583984375</LongitudeDegrees>
            </Position>
            <AltitudeMeters>900.20001220703125</AltitudeMeters>
            <DistanceMeters>NAN</DistanceMeters>
          </Trackpoint>
          <Trackpoint>
            <Time>2020-03-07T17:16:27.000Z</Time>
            <Position>
              <LatitudeDegrees>40.73912749998271465301513671875</LatitudeDegrees>
              <LongitudeDegrees>-3.81356385536491870880126953125</LongitudeDegrees>
            </Position>
            <AltitudeMeters>900.20001220703125</AltitudeMeters>
            <DistanceMeters>NAN</DistanceMeters>
          </Trackpoint>
          <Trackpoint>
            <Time>2020-03-07T17:16:28.000Z</Time>
            <Position>
              <LatitudeDegrees>40.73915448971092700958251953125</LatitudeDegrees>
              <LongitudeDegrees>-3.81349160335958003997802734375</LongitudeDegrees>
            </Position>
            <AltitudeMeters>900.20001220703125</AltitudeMeters>
            <DistanceMeters>NAN</DistanceMeters>
          </Trackpoint>
          <Trackpoint>
            <Time>2020-03-07T17:16:29.000Z</Time>
            <Position>
              <LatitudeDegrees>40.73918265290558338165283203125</LatitudeDegrees>
              <LongitudeDegrees>-3.81342069245874881744384765625</LongitudeDegrees>
            </Position>
            <AltitudeMeters>900.4000244140625</AltitudeMeters>
            <DistanceMeters>NAN</DistanceMeters>
          </Trackpoint>
          <Trackpoint>
            <Time>2020-03-07T17:16:30.000Z</Time>
            <Position>
              <LatitudeDegrees>40.739210732281208038330078125</LatitudeDegrees>
              <LongitudeDegrees>-3.8133515417575836181640625</LongitudeDegrees>
            </Position>
            <AltitudeMeters>900.4000244140625</AltitudeMeters>
            <DistanceMeters>NAN</DistanceMeters>
          </Trackpoint>
          <Trackpoint>
            <Time>2020-03-07T17:16:31.000Z</Time>
            <Position>
              <LatitudeDegrees>40.73923864401876926422119140625</LatitudeDegrees>
              <LongitudeDegrees>-3.813281469047069549560546875</LongitudeDegrees>
            </Position>
            <AltitudeMeters>900.4000244140625</AltitudeMeters>
            <DistanceMeters>NAN</DistanceMeters>
          </Trackpoint>
          <Trackpoint>
            <Time>2020-03-07T17:16:32.000Z</Time>
            <Position>
              <LatitudeDegrees>40.739265717566013336181640625</LatitudeDegrees>
              <LongitudeDegrees>-3.81321030668914318084716796875</LongitudeDegrees>
            </Position>
            <AltitudeMeters>900.4000244140625</AltitudeMeters>
            <DistanceMeters>NAN</DistanceMeters>
          </Trackpoint>
          <Trackpoint>
            <Time>2020-03-07T17:16:33.000Z</Time>
            <Position>
              <LatitudeDegrees>40.7392917014658451080322265625</LatitudeDegrees>
              <LongitudeDegrees>-3.81313486956059932708740234375</LongitudeDegrees>
            </Position>
            <AltitudeMeters>900.4000244140625</AltitudeMeters>
            <DistanceMeters>NAN</DistanceMeters>
          </Trackpoint>
          <Trackpoint>
            <Time>2020-03-07T17:16:34.000Z</Time>
            <Position>
              <LatitudeDegrees>40.7393158413469791412353515625</LatitudeDegrees>
              <LongitudeDegrees>-3.81306127645075321197509765625</LongitudeDegrees>
            </Position>
            <AltitudeMeters>900.4000244140625</AltitudeMeters>
            <DistanceMeters>NAN</DistanceMeters>
          </Trackpoint>
          <Trackpoint>
            <Time>2020-03-07T17:16:35.000Z</Time>
            <Position>
              <LatitudeDegrees>40.7393352873623371124267578125</LatitudeDegrees>
              <LongitudeDegrees>-3.8129852525889873504638671875</LongitudeDegrees>
            </Position>
            <AltitudeMeters>900.4000244140625</AltitudeMeters>
            <DistanceMeters>NAN</DistanceMeters>
          </Trackpoint>
          <Trackpoint>
            <Time>2020-03-07T17:16:36.000Z</Time>
            <Position>
              <LatitudeDegrees>40.7393537275493144989013671875</LatitudeDegrees>
              <LongitudeDegrees>-3.81290830671787261962890625</LongitudeDegrees>
            </Position>
            <AltitudeMeters>900.4000244140625</AltitudeMeters>
            <DistanceMeters>NAN</DistanceMeters>
          </Trackpoint>
          <Trackpoint>
            <Time>2020-03-07T17:16:37.000Z</Time>
            <Position>
              <LatitudeDegrees>40.73936906643211841583251953125</LatitudeDegrees>
              <LongitudeDegrees>-3.8128313608467578887939453125</LongitudeDegrees>
            </Position>
            <AltitudeMeters>900.4000244140625</AltitudeMeters>
            <DistanceMeters>NAN</DistanceMeters>
          </Trackpoint>
          <Trackpoint>
            <Time>2020-03-07T17:16:38.000Z</Time>
            <Position>
              <LatitudeDegrees>40.73938247747719287872314453125</LatitudeDegrees>
              <LongitudeDegrees>-3.81275785155594348907470703125</LongitudeDegrees>
            </Position>
            <AltitudeMeters>900.4000244140625</AltitudeMeters>
            <DistanceMeters>NAN</DistanceMeters>
          </Trackpoint>
          <Trackpoint>
            <Time>2020-03-07T17:16:39.000Z</Time>
            <Position>
              <LatitudeDegrees>40.73939337395131587982177734375</LatitudeDegrees>
              <LongitudeDegrees>-3.8126838393509387969970703125</LongitudeDegrees>
            </Position>
            <AltitudeMeters>900.5999755859375</AltitudeMeters>
            <DistanceMeters>NAN</DistanceMeters>
          </Trackpoint>
          <Trackpoint>
            <Time>2020-03-07T17:16:40.000Z</Time>
            <Position>
              <LatitudeDegrees>40.73940016329288482666015625</LatitudeDegrees>
              <LongitudeDegrees>-3.81261267699301242828369140625</LongitudeDegrees>
            </Position>
            <AltitudeMeters>900.5999755859375</AltitudeMeters>
            <DistanceMeters>NAN</DistanceMeters>
          </Trackpoint>
          <Trackpoint>
            <Time>2020-03-07T17:16:41.000Z</Time>
            <Position>
              <LatitudeDegrees>40.7394030131399631500244140625</LatitudeDegrees>
              <LongitudeDegrees>-3.81254025734961032867431640625</LongitudeDegrees>
            </Position>
            <AltitudeMeters>900.5999755859375</AltitudeMeters>
            <DistanceMeters>NAN</DistanceMeters>
          </Trackpoint>
          <Trackpoint>
            <Time>2020-03-07T17:16:42.000Z</Time>
            <Position>
              <LatitudeDegrees>40.7394056953489780426025390625</LatitudeDegrees>
              <LongitudeDegrees>-3.8124682568013668060302734375</LongitudeDegrees>
            </Position>
            <AltitudeMeters>900.5999755859375</AltitudeMeters>
            <DistanceMeters>NAN</DistanceMeters>
          </Trackpoint>
          <Trackpoint>
            <Time>2020-03-07T17:16:43.000Z</Time>
            <Position>
              <LatitudeDegrees>40.73940393514931201934814453125</LatitudeDegrees>
              <LongitudeDegrees>-3.8123978488147258758544921875</LongitudeDegrees>
            </Position>
            <AltitudeMeters>900.5999755859375</AltitudeMeters>
            <DistanceMeters>NAN</DistanceMeters>
          </Trackpoint>
          <Trackpoint>
            <Time>2020-03-07T17:16:44.000Z</Time>
            <Position>
              <LatitudeDegrees>40.73940016329288482666015625</LatitudeDegrees>
              <LongitudeDegrees>-3.8123296201229095458984375</LongitudeDegrees>
            </Position>
            <AltitudeMeters>900.5999755859375</AltitudeMeters>
            <DistanceMeters>NAN</DistanceMeters>
          </Trackpoint>
          <Trackpoint>
            <Time>2020-03-07T17:16:45.000Z</Time>
            <Position>
              <LatitudeDegrees>40.7393966428935527801513671875</LatitudeDegrees>
              <LongitudeDegrees>-3.81225862540304660797119140625</LongitudeDegrees>
            </Position>
            <AltitudeMeters>900.5999755859375</AltitudeMeters>
            <DistanceMeters>NAN</DistanceMeters>
          </Trackpoint>
          <Trackpoint>
            <Time>2020-03-07T17:16:46.000Z</Time>
            <Position>
              <LatitudeDegrees>40.739393122494220733642578125</LatitudeDegrees>
              <LongitudeDegrees>-3.812185116112232208251953125</LongitudeDegrees>
            </Position>
            <AltitudeMeters>900.5999755859375</AltitudeMeters>
            <DistanceMeters>NAN</DistanceMeters>
          </Trackpoint>
          <Trackpoint>
            <Time>2020-03-07T17:16:47.000Z</Time>
            <Position>
              <LatitudeDegrees>40.73938935063779354095458984375</LatitudeDegrees>
              <LongitudeDegrees>-3.81211127154529094696044921875</LongitudeDegrees>
            </Position>
            <AltitudeMeters>900.79998779296875</AltitudeMeters>
            <DistanceMeters>NAN</DistanceMeters>
          </Trackpoint>
          <Trackpoint>
            <Time>2020-03-07T17:16:48.000Z</Time>
            <Position>
              <LatitudeDegrees>40.739383064210414886474609375</LatitudeDegrees>
              <LongitudeDegrees>-3.8120350800454616546630859375</LongitudeDegrees>
            </Position>
            <AltitudeMeters>900.79998779296875</AltitudeMeters>
            <DistanceMeters>NAN</DistanceMeters>
          </Trackpoint>
          <Trackpoint>
            <Time>2020-03-07T17:16:49.000Z</Time>
            <Position>
              <LatitudeDegrees>40.7393761910498142242431640625</LatitudeDegrees>
              <LongitudeDegrees>-3.8119586370885372161865234375</LongitudeDegrees>
            </Position>
            <AltitudeMeters>900.79998779296875</AltitudeMeters>
            <DistanceMeters>NAN</DistanceMeters>
          </Trackpoint>
          <Trackpoint>
            <Time>2020-03-07T17:16:50.000Z</Time>
            <Position>
              <LatitudeDegrees>40.7393701560795307159423828125</LatitudeDegrees>
              <LongitudeDegrees>-3.811883367598056793212890625</LongitudeDegrees>
            </Position>
            <AltitudeMeters>900.79998779296875</AltitudeMeters>
            <DistanceMeters>NAN</DistanceMeters>
          </Trackpoint>
          <Trackpoint>
            <Time>2020-03-07T17:16:51.000Z</Time>
            <Position>
              <LatitudeDegrees>40.73936219327151775360107421875</LatitudeDegrees>
              <LongitudeDegrees>-3.81181186996400356292724609375</LongitudeDegrees>
            </Position>
            <AltitudeMeters>900.79998779296875</AltitudeMeters>
            <DistanceMeters>NAN</DistanceMeters>
          </Trackpoint>
          <Trackpoint>
            <Time>2020-03-07T17:16:52.000Z</Time>
            <Position>
              <LatitudeDegrees>40.739352889358997344970703125</LatitudeDegrees>
              <LongitudeDegrees>-3.81174020469188690185546875</LongitudeDegrees>
            </Position>
            <AltitudeMeters>900.79998779296875</AltitudeMeters>
            <DistanceMeters>NAN</DistanceMeters>
          </Trackpoint>
          <Trackpoint>
            <Time>2020-03-07T17:16:53.000Z</Time>
            <Position>
              <LatitudeDegrees>40.739345513284206390380859375</LatitudeDegrees>
              <LongitudeDegrees>-3.81166736595332622528076171875</LongitudeDegrees>
            </Position>
            <AltitudeMeters>900.79998779296875</AltitudeMeters>
            <DistanceMeters>NAN</DistanceMeters>
          </Trackpoint>
          <Trackpoint>
            <Time>2020-03-07T17:16:54.000Z</Time>
            <Position>
              <LatitudeDegrees>40.73934056796133518218994140625</LatitudeDegrees>
              <LongitudeDegrees>-3.8115920126438140869140625</LongitudeDegrees>
            </Position>
            <AltitudeMeters>900.79998779296875</AltitudeMeters>
            <DistanceMeters>NAN</DistanceMeters>
          </Trackpoint>
          <Trackpoint>
            <Time>2020-03-07T17:16:55.000Z</Time>
            <Position>
              <LatitudeDegrees>40.739334784448146820068359375</LatitudeDegrees>
              <LongitudeDegrees>-3.8115169107913970947265625</LongitudeDegrees>
            </Position>
            <AltitudeMeters>900.79998779296875</AltitudeMeters>
            <DistanceMeters>NAN</DistanceMeters>
          </Trackpoint>
          <Trackpoint>
            <Time>2020-03-07T17:16:56.000Z</Time>
            <Position>
              <LatitudeDegrees>40.73932908475399017333984375</LatitudeDegrees>
              <LongitudeDegrees>-3.81144122220575809478759765625</LongitudeDegrees>
            </Position>
            <AltitudeMeters>900.79998779296875</AltitudeMeters>
            <DistanceMeters>NAN</DistanceMeters>
          </Trackpoint>
          <Trackpoint>
            <Time>2020-03-07T17:16:57.000Z</Time>
            <Position>
              <LatitudeDegrees>40.739325396716594696044921875</LatitudeDegrees>
              <LongitudeDegrees>-3.811365030705928802490234375</LongitudeDegrees>
            </Position>
            <AltitudeMeters>901</AltitudeMeters>
            <DistanceMeters>NAN</DistanceMeters>
          </Trackpoint>
          <Trackpoint>
            <Time>2020-03-07T17:16:58.000Z</Time>
            <Position>
              <LatitudeDegrees>40.7393215410411357879638671875</LatitudeDegrees>
              <LongitudeDegrees>-3.81128833629190921783447265625</LongitudeDegrees>
            </Position>
            <AltitudeMeters>901</AltitudeMeters>
            <DistanceMeters>NAN</DistanceMeters>
          </Trackpoint>
          <Trackpoint>
            <Time>2020-03-07T17:16:59.000Z</Time>
            <Position>
              <LatitudeDegrees>40.73931810446083545684814453125</LatitudeDegrees>
              <LongitudeDegrees>-3.8112111389636993408203125</LongitudeDegrees>
            </Position>
            <AltitudeMeters>901</AltitudeMeters>
            <DistanceMeters>NAN</DistanceMeters>
          </Trackpoint>
          <Trackpoint>
            <Time>2020-03-07T17:17:00.000Z</Time>
            <Position>
              <LatitudeDegrees>40.73931424878537654876708984375</LatitudeDegrees>
              <LongitudeDegrees>-3.811133019626140594482421875</LongitudeDegrees>
            </Position>
            <AltitudeMeters>901</AltitudeMeters>
            <DistanceMeters>NAN</DistanceMeters>
          </Trackpoint>
          <Trackpoint>
            <Time>2020-03-07T17:17:01.000Z</Time>
            <Position>
              <LatitudeDegrees>40.739311315119266510009765625</LatitudeDegrees>
              <LongitudeDegrees>-3.811054229736328125</LongitudeDegrees>
            </Position>
            <AltitudeMeters>901</AltitudeMeters>
            <DistanceMeters>NAN</DistanceMeters>
          </Trackpoint>
          <Trackpoint>
            <Time>2020-03-07T17:17:02.000Z</Time>
            <Position>
              <LatitudeDegrees>40.73930854909121990203857421875</LatitudeDegrees>
              <LongitudeDegrees>-3.81097585894167423248291015625</LongitudeDegrees>
            </Position>
            <AltitudeMeters>901</AltitudeMeters>
            <DistanceMeters>NAN</DistanceMeters>
          </Trackpoint>
          <Trackpoint>
            <Time>2020-03-07T17:17:03.000Z</Time>
            <Position>
              <LatitudeDegrees>40.7393034361302852630615234375</LatitudeDegrees>
              <LongitudeDegrees>-3.810898326337337493896484375</LongitudeDegrees>
            </Position>
            <AltitudeMeters>901</AltitudeMeters>
            <DistanceMeters>NAN</DistanceMeters>
          </Trackpoint>
          <Trackpoint>
            <Time>2020-03-07T17:17:04.000Z</Time>
            <Position>
              <LatitudeDegrees>40.7392980717122554779052734375</LatitudeDegrees>
              <LongitudeDegrees>-3.81082230247557163238525390625</LongitudeDegrees>
            </Position>
            <AltitudeMeters>901</AltitudeMeters>
            <DistanceMeters>NAN</DistanceMeters>
          </Trackpoint>
          <Trackpoint>
            <Time>2020-03-07T17:17:05.000Z</Time>
            <Position>
              <LatitudeDegrees>40.739291869103908538818359375</LatitudeDegrees>
              <LongitudeDegrees>-3.81074636243283748626708984375</LongitudeDegrees>
            </Position>
            <AltitudeMeters>901</AltitudeMeters>
            <DistanceMeters>NAN</DistanceMeters>
          </Trackpoint>
          <Trackpoint>
            <Time>2020-03-07T17:17:06.000Z</Time>
            <Position>
              <LatitudeDegrees>40.73928440921008586883544921875</LatitudeDegrees>
              <LongitudeDegrees>-3.8106698356568813323974609375</LongitudeDegrees>
            </Position>
            <AltitudeMeters>901</AltitudeMeters>
            <DistanceMeters>NAN</DistanceMeters>
          </Trackpoint>
          <Trackpoint>
            <Time>2020-03-07T17:17:07.000Z</Time>
            <Position>
              <LatitudeDegrees>40.73927619494497776031494140625</LatitudeDegrees>
              <LongitudeDegrees>-3.8105927221477031707763671875</LongitudeDegrees>
            </Position>
            <AltitudeMeters>901</AltitudeMeters>
            <DistanceMeters>NAN</DistanceMeters>
          </Trackpoint>
          <Trackpoint>
            <Time>2020-03-07T17:17:08.000Z</Time>
            <Position>
              <LatitudeDegrees>40.7392694056034088134765625</LatitudeDegrees>
              <LongitudeDegrees>-3.8105137646198272705078125</LongitudeDegrees>
            </Position>
            <AltitudeMeters>901.20001220703125</AltitudeMeters>
            <DistanceMeters>NAN</DistanceMeters>
          </Trackpoint>
          <Trackpoint>
            <Time>2020-03-07T17:17:09.000Z</Time>
            <Position>
              <LatitudeDegrees>40.73926429264247417449951171875</LatitudeDegrees>
              <LongitudeDegrees>-3.81043422035872936248779296875</LongitudeDegrees>
            </Position>
            <AltitudeMeters>901.20001220703125</AltitudeMeters>
            <DistanceMeters>NAN</DistanceMeters>
          </Trackpoint>
          <Trackpoint>
            <Time>2020-03-07T17:17:10.000Z</Time>
            <Position>
              <LatitudeDegrees>40.73925792239606380462646484375</LatitudeDegrees>
              <LongitudeDegrees>-3.81035308353602886199951171875</LongitudeDegrees>
            </Position>
            <AltitudeMeters>901.20001220703125</AltitudeMeters>
            <DistanceMeters>NAN</DistanceMeters>
          </Trackpoint>
          <Trackpoint>
            <Time>2020-03-07T17:17:11.000Z</Time>
            <Position>
              <LatitudeDegrees>40.73925071395933628082275390625</LatitudeDegrees>
              <LongitudeDegrees>-3.81027244962751865386962890625</LongitudeDegrees>
            </Position>
            <AltitudeMeters>901.20001220703125</AltitudeMeters>
            <DistanceMeters>NAN</DistanceMeters>
          </Trackpoint>
          <Trackpoint>
            <Time>2020-03-07T17:17:12.000Z</Time>
            <Position>
              <LatitudeDegrees>40.73924451135098934173583984375</LatitudeDegrees>
              <LongitudeDegrees>-3.8101913966238498687744140625</LongitudeDegrees>
            </Position>
            <AltitudeMeters>901.4000244140625</AltitudeMeters>
            <DistanceMeters>NAN</DistanceMeters>
          </Trackpoint>
          <Trackpoint>
            <Time>2020-03-07T17:17:13.000Z</Time>
            <Position>
              <LatitudeDegrees>40.73924032039940357208251953125</LatitudeDegrees>
              <LongitudeDegrees>-3.8101089186966419219970703125</LongitudeDegrees>
            </Position>
            <AltitudeMeters>901.4000244140625</AltitudeMeters>
            <DistanceMeters>NAN</DistanceMeters>
          </Trackpoint>
          <Trackpoint>
            <Time>2020-03-07T17:17:14.000Z</Time>
            <Position>
              <LatitudeDegrees>40.73923462070524692535400390625</LatitudeDegrees>
              <LongitudeDegrees>-3.81002753041684627532958984375</LongitudeDegrees>
            </Position>
            <AltitudeMeters>901.4000244140625</AltitudeMeters>
            <DistanceMeters>NAN</DistanceMeters>
          </Trackpoint>
          <Trackpoint>
            <Time>2020-03-07T17:17:15.000Z</Time>
            <Position>
              <LatitudeDegrees>40.73922984302043914794921875</LatitudeDegrees>
              <LongitudeDegrees>-3.80994639359414577484130859375</LongitudeDegrees>
            </Position>
            <AltitudeMeters>901.4000244140625</AltitudeMeters>
            <DistanceMeters>NAN</DistanceMeters>
          </Trackpoint>
          <Trackpoint>
            <Time>2020-03-07T17:17:16.000Z</Time>
            <Position>
              <LatitudeDegrees>40.73922456242144107818603515625</LatitudeDegrees>
              <LongitudeDegrees>-3.8098668493330478668212890625</LongitudeDegrees>
            </Position>
            <AltitudeMeters>901.4000244140625</AltitudeMeters>
            <DistanceMeters>NAN</DistanceMeters>
          </Trackpoint>
          <Trackpoint>
            <Time>2020-03-07T17:17:17.000Z</Time>
            <Position>
              <LatitudeDegrees>40.73922053910791873931884765625</LatitudeDegrees>
              <LongitudeDegrees>-3.8097863830626010894775390625</LongitudeDegrees>
            </Position>
            <AltitudeMeters>901.4000244140625</AltitudeMeters>
            <DistanceMeters>NAN</DistanceMeters>
          </Trackpoint>
          <Trackpoint>
            <Time>2020-03-07T17:17:18.000Z</Time>
            <Position>
              <LatitudeDegrees>40.7392165996134281158447265625</LatitudeDegrees>
              <LongitudeDegrees>-3.80970432423055171966552734375</LongitudeDegrees>
            </Position>
            <AltitudeMeters>901.4000244140625</AltitudeMeters>
            <DistanceMeters>NAN</DistanceMeters>
          </Trackpoint>
          <Trackpoint>
            <Time>2020-03-07T17:17:19.000Z</Time>
            <Position>
              <LatitudeDegrees>40.739211738109588623046875</LatitudeDegrees>
              <LongitudeDegrees>-3.80962201394140720367431640625</LongitudeDegrees>
            </Position>
            <AltitudeMeters>901.4000244140625</AltitudeMeters>
            <DistanceMeters>NAN</DistanceMeters>
          </Trackpoint>
          <Trackpoint>
            <Time>2020-03-07T17:17:20.000Z</Time>
            <Position>
              <LatitudeDegrees>40.73920712806284427642822265625</LatitudeDegrees>
              <LongitudeDegrees>-3.80953903310000896453857421875</LongitudeDegrees>
            </Position>
            <AltitudeMeters>901.4000244140625</AltitudeMeters>
            <DistanceMeters>NAN</DistanceMeters>
          </Trackpoint>
          <Trackpoint>
            <Time>2020-03-07T17:17:21.000Z</Time>
            <Position>
              <LatitudeDegrees>40.7392025180160999298095703125</LatitudeDegrees>
              <LongitudeDegrees>-3.80945571698248386383056640625</LongitudeDegrees>
            </Position>
            <AltitudeMeters>901.4000244140625</AltitudeMeters>
            <DistanceMeters>NAN</DistanceMeters>
          </Trackpoint>
          <Trackpoint>
            <Time>2020-03-07T17:17:22.000Z</Time>
            <Position>
              <LatitudeDegrees>40.73919740505516529083251953125</LatitudeDegrees>
              <LongitudeDegrees>-3.809372819960117340087890625</LongitudeDegrees>
            </Position>
            <AltitudeMeters>901.4000244140625</AltitudeMeters>
            <DistanceMeters>NAN</DistanceMeters>
          </Trackpoint>
          <Trackpoint>
            <Time>2020-03-07T17:17:23.000Z</Time>
            <Position>
              <LatitudeDegrees>40.7391927950084209442138671875</LatitudeDegrees>
              <LongitudeDegrees>-3.80928942002356052398681640625</LongitudeDegrees>
            </Position>
            <AltitudeMeters>901.4000244140625</AltitudeMeters>
            <DistanceMeters>NAN</DistanceMeters>
          </Trackpoint>
          <Trackpoint>
            <Time>2020-03-07T17:17:24.000Z</Time>
            <Position>
              <LatitudeDegrees>40.739187933504581451416015625</LatitudeDegrees>
              <LongitudeDegrees>-3.80920593626797199249267578125</LongitudeDegrees>
            </Position>
            <AltitudeMeters>901.4000244140625</AltitudeMeters>
            <DistanceMeters>NAN</DistanceMeters>
          </Trackpoint>
          <Trackpoint>
            <Time>2020-03-07T17:17:25.000Z</Time>
            <Position>
              <LatitudeDegrees>40.739183239638805389404296875</LatitudeDegrees>
              <LongitudeDegrees>-3.80912211723625659942626953125</LongitudeDegrees>
            </Position>
            <AltitudeMeters>901.20001220703125</AltitudeMeters>
            <DistanceMeters>NAN</DistanceMeters>
          </Trackpoint>
          <Trackpoint>
            <Time>2020-03-07T17:17:26.000Z</Time>
            <Position>
              <LatitudeDegrees>40.7391790486872196197509765625</LatitudeDegrees>
              <LongitudeDegrees>-3.80903796292841434478759765625</LongitudeDegrees>
            </Position>
            <AltitudeMeters>901.20001220703125</AltitudeMeters>
            <DistanceMeters>NAN</DistanceMeters>
          </Trackpoint>
          <Trackpoint>
            <Time>2020-03-07T17:17:27.000Z</Time>
            <Position>
              <LatitudeDegrees>40.739174187183380126953125</LatitudeDegrees>
              <LongitudeDegrees>-3.808952383697032928466796875</LongitudeDegrees>
            </Position>
            <AltitudeMeters>901.20001220703125</AltitudeMeters>
            <DistanceMeters>NAN</DistanceMeters>
          </Trackpoint>
          <Trackpoint>
            <Time>2020-03-07T17:17:28.000Z</Time>
            <Position>
              <LatitudeDegrees>40.73916823603212833404541015625</LatitudeDegrees>
              <LongitudeDegrees>-3.80886797793209552764892578125</LongitudeDegrees>
            </Position>
            <AltitudeMeters>901.20001220703125</AltitudeMeters>
            <DistanceMeters>NAN</DistanceMeters>
          </Trackpoint>
          <Trackpoint>
            <Time>2020-03-07T17:17:29.000Z</Time>
            <Position>
              <LatitudeDegrees>40.7391616143286228179931640625</LatitudeDegrees>
              <LongitudeDegrees>-3.80878348834812641143798828125</LongitudeDegrees>
            </Position>
            <AltitudeMeters>901.20001220703125</AltitudeMeters>
            <DistanceMeters>NAN</DistanceMeters>
          </Trackpoint>
          <Trackpoint>
            <Time>2020-03-07T17:17:30.000Z</Time>
            <Position>
              <LatitudeDegrees>40.73915767483413219451904296875</LatitudeDegrees>
              <LongitudeDegrees>-3.8086967356503009796142578125</LongitudeDegrees>
            </Position>
            <AltitudeMeters>901.20001220703125</AltitudeMeters>
            <DistanceMeters>NAN</DistanceMeters>
          </Trackpoint>
          <Trackpoint>
            <Time>2020-03-07T17:17:31.000Z</Time>
            <Position>
              <LatitudeDegrees>40.7391518913209438323974609375</LatitudeDegrees>
              <LongitudeDegrees>-3.80861266516149044036865234375</LongitudeDegrees>
            </Position>
            <AltitudeMeters>901.20001220703125</AltitudeMeters>
            <DistanceMeters>NAN</DistanceMeters>
          </Trackpoint>
          <Trackpoint>
            <Time>2020-03-07T17:17:32.000Z</Time>
            <Position>
              <LatitudeDegrees>40.73914443142712116241455078125</LatitudeDegrees>
              <LongitudeDegrees>-3.8085280917584896087646484375</LongitudeDegrees>
            </Position>
            <AltitudeMeters>901.20001220703125</AltitudeMeters>
            <DistanceMeters>NAN</DistanceMeters>
          </Trackpoint>
          <Trackpoint>
            <Time>2020-03-07T17:17:33.000Z</Time>
            <Position>
              <LatitudeDegrees>40.7391364686191082000732421875</LatitudeDegrees>
              <LongitudeDegrees>-3.80844569765031337738037109375</LongitudeDegrees>
            </Position>
            <AltitudeMeters>901.20001220703125</AltitudeMeters>
            <DistanceMeters>NAN</DistanceMeters>
          </Trackpoint>
          <Trackpoint>
            <Time>2020-03-07T17:17:34.000Z</Time>
            <Position>
              <LatitudeDegrees>40.7391299307346343994140625</LatitudeDegrees>
              <LongitudeDegrees>-3.8083617947995662689208984375</LongitudeDegrees>
            </Position>
            <AltitudeMeters>901.20001220703125</AltitudeMeters>
            <DistanceMeters>NAN</DistanceMeters>
          </Trackpoint>
          <Trackpoint>
            <Time>2020-03-07T17:17:35.000Z</Time>
            <Position>
              <LatitudeDegrees>40.7391250692307949066162109375</LatitudeDegrees>
              <LongitudeDegrees>-3.8082779757678508758544921875</LongitudeDegrees>
            </Position>
            <AltitudeMeters>901.20001220703125</AltitudeMeters>
            <DistanceMeters>NAN</DistanceMeters>
          </Trackpoint>
          <Trackpoint>
            <Time>2020-03-07T17:17:36.000Z</Time>
            <Position>
              <LatitudeDegrees>40.73912112973630428314208984375</LatitudeDegrees>
              <LongitudeDegrees>-3.80819424055516719818115234375</LongitudeDegrees>
            </Position>
            <AltitudeMeters>901.20001220703125</AltitudeMeters>
            <DistanceMeters>NAN</DistanceMeters>
          </Trackpoint>
          <Trackpoint>
            <Time>2020-03-07T17:17:37.000Z</Time>
            <Position>
              <LatitudeDegrees>40.7391163520514965057373046875</LatitudeDegrees>
              <LongitudeDegrees>-3.80811025388538837432861328125</LongitudeDegrees>
            </Position>
            <AltitudeMeters>901.20001220703125</AltitudeMeters>
            <DistanceMeters>NAN</DistanceMeters>
          </Trackpoint>
          <Trackpoint>
            <Time>2020-03-07T17:17:38.000Z</Time>
            <Position>
              <LatitudeDegrees>40.73911140672862529754638671875</LatitudeDegrees>
              <LongitudeDegrees>-3.80802693776786327362060546875</LongitudeDegrees>
            </Position>
            <AltitudeMeters>901.20001220703125</AltitudeMeters>
            <DistanceMeters>NAN</DistanceMeters>
          </Trackpoint>
          <Trackpoint>
            <Time>2020-03-07T17:17:39.000Z</Time>
            <Position>
              <LatitudeDegrees>40.73910620994865894317626953125</LatitudeDegrees>
              <LongitudeDegrees>-3.8079415261745452880859375</LongitudeDegrees>
            </Position>
            <AltitudeMeters>901.20001220703125</AltitudeMeters>
            <DistanceMeters>NAN</DistanceMeters>
          </Trackpoint>
          <Trackpoint>
            <Time>2020-03-07T17:17:40.000Z</Time>
            <Position>
              <LatitudeDegrees>40.7391005940735340118408203125</LatitudeDegrees>
              <LongitudeDegrees>-3.80785661749541759490966796875</LongitudeDegrees>
            </Position>
            <AltitudeMeters>901.20001220703125</AltitudeMeters>
            <DistanceMeters>NAN</DistanceMeters>
          </Trackpoint>
          <Trackpoint>
            <Time>2020-03-07T17:17:41.000Z</Time>
            <Position>
              <LatitudeDegrees>40.73909548111259937286376953125</LatitudeDegrees>
              <LongitudeDegrees>-3.80777053534984588623046875</LongitudeDegrees>
            </Position>
            <AltitudeMeters>901.20001220703125</AltitudeMeters>
            <DistanceMeters>NAN</DistanceMeters>
          </Trackpoint>
          <Trackpoint>
            <Time>2020-03-07T17:17:42.000Z</Time>
            <Position>
              <LatitudeDegrees>40.739091373980045318603515625</LatitudeDegrees>
              <LongitudeDegrees>-3.80768311209976673126220703125</LongitudeDegrees>
            </Position>
            <AltitudeMeters>901.20001220703125</AltitudeMeters>
            <DistanceMeters>NAN</DistanceMeters>
          </Trackpoint>
          <Trackpoint>
            <Time>2020-03-07T17:17:43.000Z</Time>
            <Position>
              <LatitudeDegrees>40.73908902704715728759765625</LatitudeDegrees>
              <LongitudeDegrees>-3.80759594030678272247314453125</LongitudeDegrees>
            </Position>
            <AltitudeMeters>901.20001220703125</AltitudeMeters>
            <DistanceMeters>NAN</DistanceMeters>
          </Trackpoint>
          <Trackpoint>
            <Time>2020-03-07T17:17:44.000Z</Time>
            <Position>
              <LatitudeDegrees>40.73908592574298381805419921875</LatitudeDegrees>
              <LongitudeDegrees>-3.8075096905231475830078125</LongitudeDegrees>
            </Position>
            <AltitudeMeters>901</AltitudeMeters>
            <DistanceMeters>NAN</DistanceMeters>
          </Trackpoint>
          <Trackpoint>
            <Time>2020-03-07T17:17:45.000Z</Time>
            <Position>
              <LatitudeDegrees>40.73908156715333461761474609375</LatitudeDegrees>
              <LongitudeDegrees>-3.80742612294852733612060546875</LongitudeDegrees>
            </Position>
            <AltitudeMeters>901</AltitudeMeters>
            <DistanceMeters>NAN</DistanceMeters>
          </Trackpoint>
          <Trackpoint>
            <Time>2020-03-07T17:17:46.000Z</Time>
            <Position>
              <LatitudeDegrees>40.73907687328755855560302734375</LatitudeDegrees>
              <LongitudeDegrees>-3.80734297446906566619873046875</LongitudeDegrees>
            </Position>
            <AltitudeMeters>901</AltitudeMeters>
            <DistanceMeters>NAN</DistanceMeters>
          </Trackpoint>
          <Trackpoint>
            <Time>2020-03-07T17:17:47.000Z</Time>
            <Position>
              <LatitudeDegrees>40.73907159268856048583984375</LatitudeDegrees>
              <LongitudeDegrees>-3.80725882016122341156005859375</LongitudeDegrees>
            </Position>
            <AltitudeMeters>901</AltitudeMeters>
            <DistanceMeters>NAN</DistanceMeters>
          </Trackpoint>
          <Trackpoint>
            <Time>2020-03-07T17:17:48.000Z</Time>
            <Position>
              <LatitudeDegrees>40.73906949721276760101318359375</LatitudeDegrees>
              <LongitudeDegrees>-3.80717248655855655670166015625</LongitudeDegrees>
            </Position>
            <AltitudeMeters>901</AltitudeMeters>
            <DistanceMeters>NAN</DistanceMeters>
          </Trackpoint>
          <Trackpoint>
            <Time>2020-03-07T17:17:49.000Z</Time>
            <Position>
              <LatitudeDegrees>40.73906580917537212371826171875</LatitudeDegrees>
              <LongitudeDegrees>-3.80708615295588970184326171875</LongitudeDegrees>
            </Position>
            <AltitudeMeters>901</AltitudeMeters>
            <DistanceMeters>NAN</DistanceMeters>
          </Trackpoint>
          <Trackpoint>
            <Time>2020-03-07T17:17:50.000Z</Time>
            <Position>
              <LatitudeDegrees>40.73906220495700836181640625</LatitudeDegrees>
              <LongitudeDegrees>-3.80700015462934970855712890625</LongitudeDegrees>
            </Position>
            <AltitudeMeters>901</AltitudeMeters>
            <DistanceMeters>NAN</DistanceMeters>
          </Trackpoint>
          <Trackpoint>
            <Time>2020-03-07T17:17:51.000Z</Time>
            <Position>
              <LatitudeDegrees>40.73905809782445430755615234375</LatitudeDegrees>
              <LongitudeDegrees>-3.806913234293460845947265625</LongitudeDegrees>
            </Position>
            <AltitudeMeters>901.20001220703125</AltitudeMeters>
            <DistanceMeters>NAN</DistanceMeters>
          </Trackpoint>
          <Trackpoint>
            <Time>2020-03-07T17:17:52.000Z</Time>
            <Position>
              <LatitudeDegrees>40.739053823053836822509765625</LatitudeDegrees>
              <LongitudeDegrees>-3.8068242184817790985107421875</LongitudeDegrees>
            </Position>
            <AltitudeMeters>901.20001220703125</AltitudeMeters>
            <DistanceMeters>NAN</DistanceMeters>
          </Trackpoint>
          <Trackpoint>
            <Time>2020-03-07T17:17:53.000Z</Time>
            <Position>
              <LatitudeDegrees>40.73905005119740962982177734375</LatitudeDegrees>
              <LongitudeDegrees>-3.8067370466887950897216796875</LongitudeDegrees>
            </Position>
            <AltitudeMeters>901.20001220703125</AltitudeMeters>
            <DistanceMeters>NAN</DistanceMeters>
          </Trackpoint>
          <Trackpoint>
            <Time>2020-03-07T17:17:54.000Z</Time>
            <Position>
              <LatitudeDegrees>40.7390439324080944061279296875</LatitudeDegrees>
              <LongitudeDegrees>-3.80665180273354053497314453125</LongitudeDegrees>
            </Position>
            <AltitudeMeters>901.20001220703125</AltitudeMeters>
            <DistanceMeters>NAN</DistanceMeters>
          </Trackpoint>
          <Trackpoint>
            <Time>2020-03-07T17:17:55.000Z</Time>
            <Position>
              <LatitudeDegrees>40.73903798125684261322021484375</LatitudeDegrees>
              <LongitudeDegrees>-3.80656630732119083404541015625</LongitudeDegrees>
            </Position>
            <AltitudeMeters>901.20001220703125</AltitudeMeters>
            <DistanceMeters>NAN</DistanceMeters>
          </Trackpoint>
          <Trackpoint>
            <Time>2020-03-07T17:17:56.000Z</Time>
            <Position>
              <LatitudeDegrees>40.739034377038478851318359375</LatitudeDegrees>
              <LongitudeDegrees>-3.80648030899465084075927734375</LongitudeDegrees>
            </Position>
            <AltitudeMeters>901.20001220703125</AltitudeMeters>
            <DistanceMeters>NAN</DistanceMeters>
          </Trackpoint>
          <Trackpoint>
            <Time>2020-03-07T17:17:57.000Z</Time>
            <Position>
              <LatitudeDegrees>40.73903077282011508941650390625</LatitudeDegrees>
              <LongitudeDegrees>-3.80639414303004741668701171875</LongitudeDegrees>
            </Position>
            <AltitudeMeters>901.20001220703125</AltitudeMeters>
            <DistanceMeters>NAN</DistanceMeters>
          </Trackpoint>
          <Trackpoint>
            <Time>2020-03-07T17:17:58.000Z</Time>
            <Position>
              <LatitudeDegrees>40.73902540840208530426025390625</LatitudeDegrees>
              <LongitudeDegrees>-3.80630730651319026947021484375</LongitudeDegrees>
            </Position>
            <AltitudeMeters>901.20001220703125</AltitudeMeters>
            <DistanceMeters>NAN</DistanceMeters>
          </Trackpoint>
          <Trackpoint>
            <Time>2020-03-07T17:17:59.000Z</Time>
            <Position>
              <LatitudeDegrees>40.7390231452882289886474609375</LatitudeDegrees>
              <LongitudeDegrees>-3.80621912889182567596435546875</LongitudeDegrees>
            </Position>
            <AltitudeMeters>901.20001220703125</AltitudeMeters>
            <DistanceMeters>NAN</DistanceMeters>
          </Trackpoint>
          <Trackpoint>
            <Time>2020-03-07T17:18:00.000Z</Time>
            <Position>
              <LatitudeDegrees>40.7390171103179454803466796875</LatitudeDegrees>
              <LongitudeDegrees>-3.8061322085559368133544921875</LongitudeDegrees>
            </Position>
            <AltitudeMeters>901.20001220703125</AltitudeMeters>
            <DistanceMeters>NAN</DistanceMeters>
          </Trackpoint>
          <Trackpoint>
            <Time>2020-03-07T17:18:01.000Z</Time>
            <Position>
              <LatitudeDegrees>40.7390114106237888336181640625</LatitudeDegrees>
              <LongitudeDegrees>-3.80604612641036510467529296875</LongitudeDegrees>
            </Position>
            <AltitudeMeters>901.20001220703125</AltitudeMeters>
            <DistanceMeters>NAN</DistanceMeters>
          </Trackpoint>
          <Trackpoint>
            <Time>2020-03-07T17:18:02.000Z</Time>
            <Position>
              <LatitudeDegrees>40.73900319635868072509765625</LatitudeDegrees>
              <LongitudeDegrees>-3.80596138536930084228515625</LongitudeDegrees>
            </Position>
            <AltitudeMeters>901.20001220703125</AltitudeMeters>
            <DistanceMeters>NAN</DistanceMeters>
          </Trackpoint>
          <Trackpoint>
            <Time>2020-03-07T17:18:03.000Z</Time>
            <Position>
              <LatitudeDegrees>40.73899473063647747039794921875</LatitudeDegrees>
              <LongitudeDegrees>-3.80587580613791942596435546875</LongitudeDegrees>
            </Position>
            <AltitudeMeters>901.20001220703125</AltitudeMeters>
            <DistanceMeters>NAN</DistanceMeters>
          </Trackpoint>
          <Trackpoint>
            <Time>2020-03-07T17:18:04.000Z</Time>
            <Position>
              <LatitudeDegrees>40.73898584581911563873291015625</LatitudeDegrees>
              <LongitudeDegrees>-3.80579014308750629425048828125</LongitudeDegrees>
            </Position>
            <AltitudeMeters>901.20001220703125</AltitudeMeters>
            <DistanceMeters>NAN</DistanceMeters>
          </Trackpoint>
          <Trackpoint>
            <Time>2020-03-07T17:18:05.000Z</Time>
            <Position>
              <LatitudeDegrees>40.7389772124588489532470703125</LatitudeDegrees>
              <LongitudeDegrees>-3.8057037256658077239990234375</LongitudeDegrees>
            </Position>
            <AltitudeMeters>901.20001220703125</AltitudeMeters>
            <DistanceMeters>NAN</DistanceMeters>
          </Trackpoint>
          <Trackpoint>
            <Time>2020-03-07T17:18:06.000Z</Time>
            <Position>
              <LatitudeDegrees>40.7389676570892333984375</LatitudeDegrees>
              <LongitudeDegrees>-3.80561613477766513824462890625</LongitudeDegrees>
            </Position>
            <AltitudeMeters>901.20001220703125</AltitudeMeters>
            <DistanceMeters>NAN</DistanceMeters>
          </Trackpoint>
          <Trackpoint>
            <Time>2020-03-07T17:18:07.000Z</Time>
            <Position>
              <LatitudeDegrees>40.7389587722718715667724609375</LatitudeDegrees>
              <LongitudeDegrees>-3.805529884994029998779296875</LongitudeDegrees>
            </Position>
            <AltitudeMeters>901.20001220703125</AltitudeMeters>
            <DistanceMeters>NAN</DistanceMeters>
          </Trackpoint>
          <Trackpoint>
            <Time>2020-03-07T17:18:08.000Z</Time>
            <Position>
              <LatitudeDegrees>40.73894997127354145050048828125</LatitudeDegrees>
              <LongitudeDegrees>-3.8054435513913631439208984375</LongitudeDegrees>
            </Position>
            <AltitudeMeters>901.20001220703125</AltitudeMeters>
            <DistanceMeters>NAN</DistanceMeters>
          </Trackpoint>
          <Trackpoint>
            <Time>2020-03-07T17:18:09.000Z</Time>
            <Position>
              <LatitudeDegrees>40.73893873952329158782958984375</LatitudeDegrees>
              <LongitudeDegrees>-3.80535746924579143524169921875</LongitudeDegrees>
            </Position>
            <AltitudeMeters>901.20001220703125</AltitudeMeters>
            <DistanceMeters>NAN</DistanceMeters>
          </Trackpoint>
          <Trackpoint>
            <Time>2020-03-07T17:18:10.000Z</Time>
            <Position>
              <LatitudeDegrees>40.73892516084015369415283203125</LatitudeDegrees>
              <LongitudeDegrees>-3.80527599714696407318115234375</LongitudeDegrees>
            </Position>
            <AltitudeMeters>901.20001220703125</AltitudeMeters>
            <DistanceMeters>NAN</DistanceMeters>
          </Trackpoint>
          <Trackpoint>
            <Time>2020-03-07T17:18:11.000Z</Time>
            <Position>
              <LatitudeDegrees>40.73890973813831806182861328125</LatitudeDegrees>
              <LongitudeDegrees>-3.805195949971675872802734375</LongitudeDegrees>
            </Position>
            <AltitudeMeters>901.20001220703125</AltitudeMeters>
            <DistanceMeters>NAN</DistanceMeters>
          </Trackpoint>
          <Trackpoint>
            <Time>2020-03-07T17:18:12.000Z</Time>
            <Position>
              <LatitudeDegrees>40.73889188468456268310546875</LatitudeDegrees>
              <LongitudeDegrees>-3.80511942319571971893310546875</LongitudeDegrees>
            </Position>
            <AltitudeMeters>901.20001220703125</AltitudeMeters>
            <DistanceMeters>NAN</DistanceMeters>
          </Trackpoint>
          <Trackpoint>
            <Time>2020-03-07T17:18:13.000Z</Time>
            <Position>
              <LatitudeDegrees>40.73887310922145843505859375</LatitudeDegrees>
              <LongitudeDegrees>-3.80504314787685871124267578125</LongitudeDegrees>
            </Position>
            <AltitudeMeters>901.20001220703125</AltitudeMeters>
            <DistanceMeters>NAN</DistanceMeters>
          </Trackpoint>
          <Trackpoint>
            <Time>2020-03-07T17:18:14.000Z</Time>
            <Position>
              <LatitudeDegrees>40.7388536632061004638671875</LatitudeDegrees>
              <LongitudeDegrees>-3.8049669563770294189453125</LongitudeDegrees>
            </Position>
            <AltitudeMeters>901.20001220703125</AltitudeMeters>
            <DistanceMeters>NAN</DistanceMeters>
          </Trackpoint>
          <Trackpoint>
            <Time>2020-03-07T17:18:15.000Z</Time>
            <Position>
              <LatitudeDegrees>40.73883564211428165435791015625</LatitudeDegrees>
              <LongitudeDegrees>-3.80489177070558071136474609375</LongitudeDegrees>
            </Position>
            <AltitudeMeters>901.20001220703125</AltitudeMeters>
            <DistanceMeters>NAN</DistanceMeters>
          </Trackpoint>
          <Trackpoint>
            <Time>2020-03-07T17:18:16.000Z</Time>
            <Position>
              <LatitudeDegrees>40.738816447556018829345703125</LatitudeDegrees>
              <LongitudeDegrees>-3.80481650121510028839111328125</LongitudeDegrees>
            </Position>
            <AltitudeMeters>901.20001220703125</AltitudeMeters>
            <DistanceMeters>NAN</DistanceMeters>
          </Trackpoint>
          <Trackpoint>
            <Time>2020-03-07T17:18:17.000Z</Time>
            <Position>
              <LatitudeDegrees>40.7387971691787242889404296875</LatitudeDegrees>
              <LongitudeDegrees>-3.804739974439144134521484375</LongitudeDegrees>
            </Position>
            <AltitudeMeters>901.20001220703125</AltitudeMeters>
            <DistanceMeters>NAN</DistanceMeters>
          </Trackpoint>
          <Trackpoint>
            <Time>2020-03-07T17:18:18.000Z</Time>
            <Position>
              <LatitudeDegrees>40.73877789080142974853515625</LatitudeDegrees>
              <LongitudeDegrees>-3.8046636991202831268310546875</LongitudeDegrees>
            </Position>
            <AltitudeMeters>901.20001220703125</AltitudeMeters>
            <DistanceMeters>NAN</DistanceMeters>
          </Trackpoint>
          <Trackpoint>
            <Time>2020-03-07T17:18:19.000Z</Time>
            <Position>
              <LatitudeDegrees>40.73875844478607177734375</LatitudeDegrees>
              <LongitudeDegrees>-3.8045859150588512420654296875</LongitudeDegrees>
            </Position>
            <AltitudeMeters>901.20001220703125</AltitudeMeters>
            <DistanceMeters>NAN</DistanceMeters>
          </Trackpoint>
          <Trackpoint>
            <Time>2020-03-07T17:18:20.000Z</Time>
            <Position>
              <LatitudeDegrees>40.73873690329492092132568359375</LatitudeDegrees>
              <LongitudeDegrees>-3.8045064546167850494384765625</LongitudeDegrees>
            </Position>
            <AltitudeMeters>901.20001220703125</AltitudeMeters>
            <DistanceMeters>NAN</DistanceMeters>
          </Trackpoint>
          <Trackpoint>
            <Time>2020-03-07T17:18:21.000Z</Time>
            <Position>
              <LatitudeDegrees>40.738717205822467803955078125</LatitudeDegrees>
              <LongitudeDegrees>-3.804427497088909149169921875</LongitudeDegrees>
            </Position>
            <AltitudeMeters>901.4000244140625</AltitudeMeters>
            <DistanceMeters>NAN</DistanceMeters>
          </Trackpoint>
          <Trackpoint>
            <Time>2020-03-07T17:18:22.000Z</Time>
            <Position>
              <LatitudeDegrees>40.738696753978729248046875</LatitudeDegrees>
              <LongitudeDegrees>-3.80434778518974781036376953125</LongitudeDegrees>
            </Position>
            <AltitudeMeters>901.4000244140625</AltitudeMeters>
            <DistanceMeters>NAN</DistanceMeters>
          </Trackpoint>
          <Trackpoint>
            <Time>2020-03-07T17:18:23.000Z</Time>
            <Position>
              <LatitudeDegrees>40.73867655359208583831787109375</LatitudeDegrees>
              <LongitudeDegrees>-3.80426748655736446380615234375</LongitudeDegrees>
            </Position>
            <AltitudeMeters>901.4000244140625</AltitudeMeters>
            <DistanceMeters>NAN</DistanceMeters>
          </Trackpoint>
          <Trackpoint>
            <Time>2020-03-07T17:18:24.000Z</Time>
            <Position>
              <LatitudeDegrees>40.7386578619480133056640625</LatitudeDegrees>
              <LongitudeDegrees>-3.80419003777205944061279296875</LongitudeDegrees>
            </Position>
            <AltitudeMeters>901.4000244140625</AltitudeMeters>
            <DistanceMeters>NAN</DistanceMeters>
          </Trackpoint>
          <Trackpoint>
            <Time>2020-03-07T17:18:25.000Z</Time>
            <Position>
              <LatitudeDegrees>40.7386395893990993499755859375</LatitudeDegrees>
              <LongitudeDegrees>-3.8041128404438495635986328125</LongitudeDegrees>
            </Position>
            <AltitudeMeters>901.4000244140625</AltitudeMeters>
            <DistanceMeters>NAN</DistanceMeters>
          </Trackpoint>
          <Trackpoint>
            <Time>2020-03-07T17:18:26.000Z</Time>
            <Position>
              <LatitudeDegrees>40.738620646297931671142578125</LatitudeDegrees>
              <LongitudeDegrees>-3.80403555929660797119140625</LongitudeDegrees>
            </Position>
            <AltitudeMeters>901.4000244140625</AltitudeMeters>
            <DistanceMeters>NAN</DistanceMeters>
          </Trackpoint>
          <Trackpoint>
            <Time>2020-03-07T17:18:27.000Z</Time>
            <Position>
              <LatitudeDegrees>40.73860379867255687713623046875</LatitudeDegrees>
              <LongitudeDegrees>-3.8039611279964447021484375</LongitudeDegrees>
            </Position>
            <AltitudeMeters>901.4000244140625</AltitudeMeters>
            <DistanceMeters>NAN</DistanceMeters>
          </Trackpoint>
          <Trackpoint>
            <Time>2020-03-07T17:18:28.000Z</Time>
            <Position>
              <LatitudeDegrees>40.7385872863233089447021484375</LatitudeDegrees>
              <LongitudeDegrees>-3.80388610996305942535400390625</LongitudeDegrees>
            </Position>
            <AltitudeMeters>901.5999755859375</AltitudeMeters>
            <DistanceMeters>NAN</DistanceMeters>
          </Trackpoint>
          <Trackpoint>
            <Time>2020-03-07T17:18:29.000Z</Time>
            <Position>
              <LatitudeDegrees>40.7385681755840778350830078125</LatitudeDegrees>
              <LongitudeDegrees>-3.80380899645388126373291015625</LongitudeDegrees>
            </Position>
            <AltitudeMeters>901.5999755859375</AltitudeMeters>
            <DistanceMeters>NAN</DistanceMeters>
          </Trackpoint>
          <Trackpoint>
            <Time>2020-03-07T17:18:30.000Z</Time>
            <Position>
              <LatitudeDegrees>40.73854981921613216400146484375</LatitudeDegrees>
              <LongitudeDegrees>-3.80373422987759113311767578125</LongitudeDegrees>
            </Position>
            <AltitudeMeters>901.5999755859375</AltitudeMeters>
            <DistanceMeters>NAN</DistanceMeters>
          </Trackpoint>
          <Trackpoint>
            <Time>2020-03-07T17:18:31.000Z</Time>
            <Position>
              <LatitudeDegrees>40.73853104375302791595458984375</LatitudeDegrees>
              <LongitudeDegrees>-3.80366164259612560272216796875</LongitudeDegrees>
            </Position>
            <AltitudeMeters>901.5999755859375</AltitudeMeters>
            <DistanceMeters>NAN</DistanceMeters>
          </Trackpoint>
          <Trackpoint>
            <Time>2020-03-07T17:18:32.000Z</Time>
            <Position>
              <LatitudeDegrees>40.73851008899509906768798828125</LatitudeDegrees>
              <LongitudeDegrees>-3.80358855240046977996826171875</LongitudeDegrees>
            </Position>
            <AltitudeMeters>901.5999755859375</AltitudeMeters>
            <DistanceMeters>NAN</DistanceMeters>
          </Trackpoint>
          <Trackpoint>
            <Time>2020-03-07T17:18:33.000Z</Time>
            <Position>
              <LatitudeDegrees>40.738491900265216827392578125</LatitudeDegrees>
              <LongitudeDegrees>-3.803514540195465087890625</LongitudeDegrees>
            </Position>
            <AltitudeMeters>901.5999755859375</AltitudeMeters>
            <DistanceMeters>NAN</DistanceMeters>
          </Trackpoint>
          <Trackpoint>
            <Time>2020-03-07T17:18:34.000Z</Time>
            <Position>
              <LatitudeDegrees>40.7384722866117954254150390625</LatitudeDegrees>
              <LongitudeDegrees>-3.80344253964722156524658203125</LongitudeDegrees>
            </Position>
            <AltitudeMeters>901.5999755859375</AltitudeMeters>
            <DistanceMeters>NAN</DistanceMeters>
          </Trackpoint>
          <Trackpoint>
            <Time>2020-03-07T17:18:35.000Z</Time>
            <Position>
              <LatitudeDegrees>40.7384514994919300079345703125</LatitudeDegrees>
              <LongitudeDegrees>-3.80337162874639034271240234375</LongitudeDegrees>
            </Position>
            <AltitudeMeters>901.5999755859375</AltitudeMeters>
            <DistanceMeters>NAN</DistanceMeters>
          </Trackpoint>
          <Trackpoint>
            <Time>2020-03-07T17:18:36.000Z</Time>
            <Position>
              <LatitudeDegrees>40.73843331076204776763916015625</LatitudeDegrees>
              <LongitudeDegrees>-3.803300298750400543212890625</LongitudeDegrees>
            </Position>
            <AltitudeMeters>901.79998779296875</AltitudeMeters>
            <DistanceMeters>NAN</DistanceMeters>
          </Trackpoint>
          <Trackpoint>
            <Time>2020-03-07T17:18:37.000Z</Time>
            <Position>
              <LatitudeDegrees>40.73841520585119724273681640625</LatitudeDegrees>
              <LongitudeDegrees>-3.80323014222085475921630859375</LongitudeDegrees>
            </Position>
            <AltitudeMeters>901.79998779296875</AltitudeMeters>
            <DistanceMeters>NAN</DistanceMeters>
          </Trackpoint>
          <Trackpoint>
            <Time>2020-03-07T17:18:38.000Z</Time>
            <Position>
              <LatitudeDegrees>40.7383965142071247100830078125</LatitudeDegrees>
              <LongitudeDegrees>-3.80315973423421382904052734375</LongitudeDegrees>
            </Position>
            <AltitudeMeters>901.79998779296875</AltitudeMeters>
            <DistanceMeters>NAN</DistanceMeters>
          </Trackpoint>
          <Trackpoint>
            <Time>2020-03-07T17:18:39.000Z</Time>
            <Position>
              <LatitudeDegrees>40.738379247486591339111328125</LatitudeDegrees>
              <LongitudeDegrees>-3.80308630876243114471435546875</LongitudeDegrees>
            </Position>
            <AltitudeMeters>902</AltitudeMeters>
            <DistanceMeters>NAN</DistanceMeters>
          </Trackpoint>
          <Trackpoint>
            <Time>2020-03-07T17:18:40.000Z</Time>
            <Position>
              <LatitudeDegrees>40.73835837654769420623779296875</LatitudeDegrees>
              <LongitudeDegrees>-3.80300827324390411376953125</LongitudeDegrees>
            </Position>
            <AltitudeMeters>902.20001220703125</AltitudeMeters>
            <DistanceMeters>NAN</DistanceMeters>
          </Trackpoint>
          <Trackpoint>
            <Time>2020-03-07T17:18:41.000Z</Time>
            <Position>
              <LatitudeDegrees>40.73833775706589221954345703125</LatitudeDegrees>
              <LongitudeDegrees>-3.80293141119182109832763671875</LongitudeDegrees>
            </Position>
            <AltitudeMeters>902.20001220703125</AltitudeMeters>
            <DistanceMeters>NAN</DistanceMeters>
          </Trackpoint>
          <Trackpoint>
            <Time>2020-03-07T17:18:42.000Z</Time>
            <Position>
              <LatitudeDegrees>40.738316886126995086669921875</LatitudeDegrees>
              <LongitudeDegrees>-3.80285044200718402862548828125</LongitudeDegrees>
            </Position>
            <AltitudeMeters>902.4000244140625</AltitudeMeters>
            <DistanceMeters>NAN</DistanceMeters>
          </Trackpoint>
          <Trackpoint>
            <Time>2020-03-07T17:18:43.000Z</Time>
            <Position>
              <LatitudeDegrees>40.7382957637310028076171875</LatitudeDegrees>
              <LongitudeDegrees>-3.80276821553707122802734375</LongitudeDegrees>
            </Position>
            <AltitudeMeters>902.4000244140625</AltitudeMeters>
            <DistanceMeters>NAN</DistanceMeters>
          </Trackpoint>
          <Trackpoint>
            <Time>2020-03-07T17:18:44.000Z</Time>
            <Position>
              <LatitudeDegrees>40.738274641335010528564453125</LatitudeDegrees>
              <LongitudeDegrees>-3.80268414504826068878173828125</LongitudeDegrees>
            </Position>
            <AltitudeMeters>902.4000244140625</AltitudeMeters>
            <DistanceMeters>NAN</DistanceMeters>
          </Trackpoint>
          <Trackpoint>
            <Time>2020-03-07T17:18:45.000Z</Time>
            <Position>
              <LatitudeDegrees>40.7382540218532085418701171875</LatitudeDegrees>
              <LongitudeDegrees>-3.80260233767330646514892578125</LongitudeDegrees>
            </Position>
            <AltitudeMeters>902.5999755859375</AltitudeMeters>
            <DistanceMeters>NAN</DistanceMeters>
          </Trackpoint>
          <Trackpoint>
            <Time>2020-03-07T17:18:46.000Z</Time>
            <Position>
              <LatitudeDegrees>40.73823516257107257843017578125</LatitudeDegrees>
              <LongitudeDegrees>-3.802520446479320526123046875</LongitudeDegrees>
            </Position>
            <AltitudeMeters>902.5999755859375</AltitudeMeters>
            <DistanceMeters>NAN</DistanceMeters>
          </Trackpoint>
          <Trackpoint>
            <Time>2020-03-07T17:18:47.000Z</Time>
            <Position>
              <LatitudeDegrees>40.73821571655571460723876953125</LatitudeDegrees>
              <LongitudeDegrees>-3.80243889056146144866943359375</LongitudeDegrees>
            </Position>
            <AltitudeMeters>902.5999755859375</AltitudeMeters>
            <DistanceMeters>NAN</DistanceMeters>
          </Trackpoint>
          <Trackpoint>
            <Time>2020-03-07T17:18:48.000Z</Time>
            <Position>
              <LatitudeDegrees>40.738193504512310028076171875</LatitudeDegrees>
              <LongitudeDegrees>-3.802358172833919525146484375</LongitudeDegrees>
            </Position>
            <AltitudeMeters>902.5999755859375</AltitudeMeters>
            <DistanceMeters>NAN</DistanceMeters>
          </Trackpoint>
          <Trackpoint>
            <Time>2020-03-07T17:18:49.000Z</Time>
            <Position>
              <LatitudeDegrees>40.738171376287937164306640625</LatitudeDegrees>
              <LongitudeDegrees>-3.802277706563472747802734375</LongitudeDegrees>
            </Position>
            <AltitudeMeters>902.5999755859375</AltitudeMeters>
            <DistanceMeters>NAN</DistanceMeters>
          </Trackpoint>
          <Trackpoint>
            <Time>2020-03-07T17:18:50.000Z</Time>
            <Position>
              <LatitudeDegrees>40.73815000243484973907470703125</LatitudeDegrees>
              <LongitudeDegrees>-3.80220000632107257843017578125</LongitudeDegrees>
            </Position>
            <AltitudeMeters>902.5999755859375</AltitudeMeters>
            <DistanceMeters>NAN</DistanceMeters>
          </Trackpoint>
          <Trackpoint>
            <Time>2020-03-07T17:18:51.000Z</Time>
            <Position>
              <LatitudeDegrees>40.73812837712466716766357421875</LatitudeDegrees>
              <LongitudeDegrees>-3.80211903713643550872802734375</LongitudeDegrees>
            </Position>
            <AltitudeMeters>902.5999755859375</AltitudeMeters>
            <DistanceMeters>NAN</DistanceMeters>
          </Trackpoint>
          <Trackpoint>
            <Time>2020-03-07T17:18:52.000Z</Time>
            <Position>
              <LatitudeDegrees>40.7381105236709117889404296875</LatitudeDegrees>
              <LongitudeDegrees>-3.80204158835113048553466796875</LongitudeDegrees>
            </Position>
            <AltitudeMeters>902.5999755859375</AltitudeMeters>
            <DistanceMeters>NAN</DistanceMeters>
          </Trackpoint>
          <Trackpoint>
            <Time>2020-03-07T17:18:53.000Z</Time>
            <Position>
              <LatitudeDegrees>40.73809334076941013336181640625</LatitudeDegrees>
              <LongitudeDegrees>-3.80196648649871349334716796875</LongitudeDegrees>
            </Position>
            <AltitudeMeters>902.5999755859375</AltitudeMeters>
            <DistanceMeters>NAN</DistanceMeters>
          </Trackpoint>
          <Trackpoint>
            <Time>2020-03-07T17:18:54.000Z</Time>
            <Position>
              <LatitudeDegrees>40.7380749844014644622802734375</LatitudeDegrees>
              <LongitudeDegrees>-3.80188669078052043914794921875</LongitudeDegrees>
            </Position>
            <AltitudeMeters>902.5999755859375</AltitudeMeters>
            <DistanceMeters>NAN</DistanceMeters>
          </Trackpoint>
          <Trackpoint>
            <Time>2020-03-07T17:18:55.000Z</Time>
            <Position>
              <LatitudeDegrees>40.738056041300296783447265625</LatitudeDegrees>
              <LongitudeDegrees>-3.80180823616683483123779296875</LongitudeDegrees>
            </Position>
            <AltitudeMeters>902.5999755859375</AltitudeMeters>
            <DistanceMeters>NAN</DistanceMeters>
          </Trackpoint>
          <Trackpoint>
            <Time>2020-03-07T17:18:56.000Z</Time>
            <Position>
              <LatitudeDegrees>40.7380370981991291046142578125</LatitudeDegrees>
              <LongitudeDegrees>-3.80173145793378353118896484375</LongitudeDegrees>
            </Position>
            <AltitudeMeters>902.4000244140625</AltitudeMeters>
            <DistanceMeters>NAN</DistanceMeters>
          </Trackpoint>
          <Trackpoint>
            <Time>2020-03-07T17:18:57.000Z</Time>
            <Position>
              <LatitudeDegrees>40.738019160926342010498046875</LatitudeDegrees>
              <LongitudeDegrees>-3.80165375769138336181640625</LongitudeDegrees>
            </Position>
            <AltitudeMeters>902.4000244140625</AltitudeMeters>
            <DistanceMeters>NAN</DistanceMeters>
          </Trackpoint>
          <Trackpoint>
            <Time>2020-03-07T17:18:58.000Z</Time>
            <Position>
              <LatitudeDegrees>40.73800130747258663177490234375</LatitudeDegrees>
              <LongitudeDegrees>-3.8015701062977313995361328125</LongitudeDegrees>
            </Position>
            <AltitudeMeters>902.20001220703125</AltitudeMeters>
            <DistanceMeters>NAN</DistanceMeters>
          </Trackpoint>
          <Trackpoint>
            <Time>2020-03-07T17:18:59.000Z</Time>
            <Position>
              <LatitudeDegrees>40.73798521421849727630615234375</LatitudeDegrees>
              <LongitudeDegrees>-3.8014886341989040374755859375</LongitudeDegrees>
            </Position>
            <AltitudeMeters>902</AltitudeMeters>
            <DistanceMeters>NAN</DistanceMeters>
          </Trackpoint>
          <Trackpoint>
            <Time>2020-03-07T17:19:00.000Z</Time>
            <Position>
              <LatitudeDegrees>40.7379690371453762054443359375</LatitudeDegrees>
              <LongitudeDegrees>-3.80140674300491809844970703125</LongitudeDegrees>
            </Position>
            <AltitudeMeters>902</AltitudeMeters>
            <DistanceMeters>NAN</DistanceMeters>
          </Trackpoint>
          <Trackpoint>
            <Time>2020-03-07T17:19:01.000Z</Time>
            <Position>
              <LatitudeDegrees>40.73795118369162082672119140625</LatitudeDegrees>
              <LongitudeDegrees>-3.80132510326802730560302734375</LongitudeDegrees>
            </Position>
            <AltitudeMeters>902</AltitudeMeters>
            <DistanceMeters>NAN</DistanceMeters>
          </Trackpoint>
          <Trackpoint>
            <Time>2020-03-07T17:19:02.000Z</Time>
            <Position>
              <LatitudeDegrees>40.73793358169496059417724609375</LatitudeDegrees>
              <LongitudeDegrees>-3.801245056092739105224609375</LongitudeDegrees>
            </Position>
            <AltitudeMeters>902</AltitudeMeters>
            <DistanceMeters>NAN</DistanceMeters>
          </Trackpoint>
          <Trackpoint>
            <Time>2020-03-07T17:19:03.000Z</Time>
            <Position>
              <LatitudeDegrees>40.73791547678411006927490234375</LatitudeDegrees>
              <LongitudeDegrees>-3.8011677749454975128173828125</LongitudeDegrees>
            </Position>
            <AltitudeMeters>901.79998779296875</AltitudeMeters>
            <DistanceMeters>NAN</DistanceMeters>
          </Trackpoint>
          <Trackpoint>
            <Time>2020-03-07T17:19:04.000Z</Time>
            <Position>
              <LatitudeDegrees>40.73789502494037151336669921875</LatitudeDegrees>
              <LongitudeDegrees>-3.80109124816954135894775390625</LongitudeDegrees>
            </Position>
            <AltitudeMeters>901.79998779296875</AltitudeMeters>
            <DistanceMeters>NAN</DistanceMeters>
          </Trackpoint>
          <Trackpoint>
            <Time>2020-03-07T17:19:05.000Z</Time>
            <Position>
              <LatitudeDegrees>40.7378711365163326263427734375</LatitudeDegrees>
              <LongitudeDegrees>-3.80101413466036319732666015625</LongitudeDegrees>
            </Position>
            <AltitudeMeters>901.79998779296875</AltitudeMeters>
            <DistanceMeters>NAN</DistanceMeters>
          </Trackpoint>
          <Trackpoint>
            <Time>2020-03-07T17:19:06.000Z</Time>
            <Position>
              <LatitudeDegrees>40.7378473319113254547119140625</LatitudeDegrees>
              <LongitudeDegrees>-3.8009417988359928131103515625</LongitudeDegrees>
            </Position>
            <AltitudeMeters>901.79998779296875</AltitudeMeters>
            <DistanceMeters>NAN</DistanceMeters>
          </Trackpoint>
          <Trackpoint>
            <Time>2020-03-07T17:19:07.000Z</Time>
            <Position>
              <LatitudeDegrees>40.73782025836408138275146484375</LatitudeDegrees>
              <LongitudeDegrees>-3.80086812190711498260498046875</LongitudeDegrees>
            </Position>
            <AltitudeMeters>901.79998779296875</AltitudeMeters>
            <DistanceMeters>NAN</DistanceMeters>
          </Trackpoint>
          <Trackpoint>
            <Time>2020-03-07T17:19:08.000Z</Time>
            <Position>
              <LatitudeDegrees>40.7377956993877887725830078125</LatitudeDegrees>
              <LongitudeDegrees>-3.80079302005469799041748046875</LongitudeDegrees>
            </Position>
            <AltitudeMeters>901.79998779296875</AltitudeMeters>
            <DistanceMeters>NAN</DistanceMeters>
          </Trackpoint>
          <Trackpoint>
            <Time>2020-03-07T17:19:09.000Z</Time>
            <Position>
              <LatitudeDegrees>40.73777466081082820892333984375</LatitudeDegrees>
              <LongitudeDegrees>-3.8007218576967716217041015625</LongitudeDegrees>
            </Position>
            <AltitudeMeters>901.79998779296875</AltitudeMeters>
            <DistanceMeters>NAN</DistanceMeters>
          </Trackpoint>
          <Trackpoint>
            <Time>2020-03-07T17:19:10.000Z</Time>
            <Position>
              <LatitudeDegrees>40.7377571426331996917724609375</LatitudeDegrees>
              <LongitudeDegrees>-3.80065061151981353759765625</LongitudeDegrees>
            </Position>
            <AltitudeMeters>901.79998779296875</AltitudeMeters>
            <DistanceMeters>NAN</DistanceMeters>
          </Trackpoint>
          <Trackpoint>
            <Time>2020-03-07T17:19:11.000Z</Time>
            <Position>
              <LatitudeDegrees>40.73773710988461971282958984375</LatitudeDegrees>
              <LongitudeDegrees>-3.8005756773054599761962890625</LongitudeDegrees>
            </Position>
            <AltitudeMeters>901.79998779296875</AltitudeMeters>
            <DistanceMeters>NAN</DistanceMeters>
          </Trackpoint>
          <Trackpoint>
            <Time>2020-03-07T17:19:12.000Z</Time>
            <Position>
              <LatitudeDegrees>40.73771850205957889556884765625</LatitudeDegrees>
              <LongitudeDegrees>-3.800504095852375030517578125</LongitudeDegrees>
            </Position>
            <AltitudeMeters>901.79998779296875</AltitudeMeters>
            <DistanceMeters>NAN</DistanceMeters>
          </Trackpoint>
          <Trackpoint>
            <Time>2020-03-07T17:19:13.000Z</Time>
            <Position>
              <LatitudeDegrees>40.73770056478679180145263671875</LatitudeDegrees>
              <LongitudeDegrees>-3.8004298321902751922607421875</LongitudeDegrees>
            </Position>
            <AltitudeMeters>901.79998779296875</AltitudeMeters>
            <DistanceMeters>NAN</DistanceMeters>
          </Trackpoint>
          <Trackpoint>
            <Time>2020-03-07T17:19:14.000Z</Time>
            <Position>
              <LatitudeDegrees>40.7376806996762752532958984375</LatitudeDegrees>
              <LongitudeDegrees>-3.80035766400396823883056640625</LongitudeDegrees>
            </Position>
            <AltitudeMeters>901.79998779296875</AltitudeMeters>
            <DistanceMeters>NAN</DistanceMeters>
          </Trackpoint>
          <Trackpoint>
            <Time>2020-03-07T17:19:15.000Z</Time>
            <Position>
              <LatitudeDegrees>40.73766234330832958221435546875</LatitudeDegrees>
              <LongitudeDegrees>-3.8002813048660755157470703125</LongitudeDegrees>
            </Position>
            <AltitudeMeters>901.79998779296875</AltitudeMeters>
            <DistanceMeters>NAN</DistanceMeters>
          </Trackpoint>
          <Trackpoint>
            <Time>2020-03-07T17:19:16.000Z</Time>
            <Position>
              <LatitudeDegrees>40.7376411370933055877685546875</LatitudeDegrees>
              <LongitudeDegrees>-3.800199665129184722900390625</LongitudeDegrees>
            </Position>
            <AltitudeMeters>901.79998779296875</AltitudeMeters>
            <DistanceMeters>NAN</DistanceMeters>
          </Trackpoint>
          <Trackpoint>
            <Time>2020-03-07T17:19:17.000Z</Time>
            <Position>
              <LatitudeDegrees>40.73762177489697933197021484375</LatitudeDegrees>
              <LongitudeDegrees>-3.80012095905840396881103515625</LongitudeDegrees>
            </Position>
            <AltitudeMeters>901.79998779296875</AltitudeMeters>
            <DistanceMeters>NAN</DistanceMeters>
          </Trackpoint>
          <Trackpoint>
            <Time>2020-03-07T17:19:18.000Z</Time>
            <Position>
              <LatitudeDegrees>40.73760048486292362213134765625</LatitudeDegrees>
              <LongitudeDegrees>-3.80004066042602062225341796875</LongitudeDegrees>
            </Position>
            <AltitudeMeters>901.79998779296875</AltitudeMeters>
            <DistanceMeters>NAN</DistanceMeters>
          </Trackpoint>
          <Trackpoint>
            <Time>2020-03-07T17:19:19.000Z</Time>
            <Position>
              <LatitudeDegrees>40.73757894337177276611328125</LatitudeDegrees>
              <LongitudeDegrees>-3.79995726048946380615234375</LongitudeDegrees>
            </Position>
            <AltitudeMeters>901.79998779296875</AltitudeMeters>
            <DistanceMeters>NAN</DistanceMeters>
          </Trackpoint>
          <Trackpoint>
            <Time>2020-03-07T17:19:20.000Z</Time>
            <Position>
              <LatitudeDegrees>40.737555138766765594482421875</LatitudeDegrees>
              <LongitudeDegrees>-3.79987721331417560577392578125</LongitudeDegrees>
            </Position>
            <AltitudeMeters>901.79998779296875</AltitudeMeters>
            <DistanceMeters>NAN</DistanceMeters>
          </Trackpoint>
          <Trackpoint>
            <Time>2020-03-07T17:19:21.000Z</Time>
            <Position>
              <LatitudeDegrees>40.73753141798079013824462890625</LatitudeDegrees>
              <LongitudeDegrees>-3.79979423247277736663818359375</LongitudeDegrees>
            </Position>
            <AltitudeMeters>901.79998779296875</AltitudeMeters>
            <DistanceMeters>NAN</DistanceMeters>
          </Trackpoint>
          <Trackpoint>
            <Time>2020-03-07T17:19:22.000Z</Time>
            <Position>
              <LatitudeDegrees>40.73750861920416355133056640625</LatitudeDegrees>
              <LongitudeDegrees>-3.79971326328814029693603515625</LongitudeDegrees>
            </Position>
            <AltitudeMeters>901.79998779296875</AltitudeMeters>
            <DistanceMeters>NAN</DistanceMeters>
          </Trackpoint>
          <Trackpoint>
            <Time>2020-03-07T17:19:23.000Z</Time>
            <Position>
              <LatitudeDegrees>40.73748372495174407958984375</LatitudeDegrees>
              <LongitudeDegrees>-3.7996288575232028961181640625</LongitudeDegrees>
            </Position>
            <AltitudeMeters>901.79998779296875</AltitudeMeters>
            <DistanceMeters>NAN</DistanceMeters>
          </Trackpoint>
          <Trackpoint>
            <Time>2020-03-07T17:19:24.000Z</Time>
            <Position>
              <LatitudeDegrees>40.737460590898990631103515625</LatitudeDegrees>
              <LongitudeDegrees>-3.79953883588314056396484375</LongitudeDegrees>
            </Position>
            <AltitudeMeters>901.79998779296875</AltitudeMeters>
            <DistanceMeters>NAN</DistanceMeters>
          </Trackpoint>
          <Trackpoint>
            <Time>2020-03-07T17:19:25.000Z</Time>
            <Position>
              <LatitudeDegrees>40.73744022287428379058837890625</LatitudeDegrees>
              <LongitudeDegrees>-3.799448311328887939453125</LongitudeDegrees>
            </Position>
            <AltitudeMeters>901.79998779296875</AltitudeMeters>
            <DistanceMeters>NAN</DistanceMeters>
          </Trackpoint>
          <Trackpoint>
            <Time>2020-03-07T17:19:26.000Z</Time>
            <Position>
              <LatitudeDegrees>40.73742077685892581939697265625</LatitudeDegrees>
              <LongitudeDegrees>-3.79936407320201396942138671875</LongitudeDegrees>
            </Position>
            <AltitudeMeters>901.79998779296875</AltitudeMeters>
            <DistanceMeters>NAN</DistanceMeters>
          </Trackpoint>
          <Trackpoint>
            <Time>2020-03-07T17:19:27.000Z</Time>
            <Position>
              <LatitudeDegrees>40.73739998973906040191650390625</LatitudeDegrees>
              <LongitudeDegrees>-3.79928260110318660736083984375</LongitudeDegrees>
            </Position>
            <AltitudeMeters>901.79998779296875</AltitudeMeters>
            <DistanceMeters>NAN</DistanceMeters>
          </Trackpoint>
          <Trackpoint>
            <Time>2020-03-07T17:19:28.000Z</Time>
            <Position>
              <LatitudeDegrees>40.737378783524036407470703125</LatitudeDegrees>
              <LongitudeDegrees>-3.7991966865956783294677734375</LongitudeDegrees>
            </Position>
            <AltitudeMeters>901.79998779296875</AltitudeMeters>
            <DistanceMeters>NAN</DistanceMeters>
          </Trackpoint>
          <Trackpoint>
            <Time>2020-03-07T17:19:29.000Z</Time>
            <Position>
              <LatitudeDegrees>40.73735740967094898223876953125</LatitudeDegrees>
              <LongitudeDegrees>-3.799112029373645782470703125</LongitudeDegrees>
            </Position>
            <AltitudeMeters>901.79998779296875</AltitudeMeters>
            <DistanceMeters>NAN</DistanceMeters>
          </Trackpoint>
          <Trackpoint>
            <Time>2020-03-07T17:19:30.000Z</Time>
            <Position>
              <LatitudeDegrees>40.73733611963689327239990234375</LatitudeDegrees>
              <LongitudeDegrees>-3.79902779124677181243896484375</LongitudeDegrees>
            </Position>
            <AltitudeMeters>901.79998779296875</AltitudeMeters>
            <DistanceMeters>NAN</DistanceMeters>
          </Trackpoint>
          <Trackpoint>
            <Time>2020-03-07T17:19:31.000Z</Time>
            <Position>
              <LatitudeDegrees>40.73731415905058383941650390625</LatitudeDegrees>
              <LongitudeDegrees>-3.79894112236797809600830078125</LongitudeDegrees>
            </Position>
            <AltitudeMeters>901.79998779296875</AltitudeMeters>
            <DistanceMeters>NAN</DistanceMeters>
          </Trackpoint>
          <Trackpoint>
            <Time>2020-03-07T17:19:32.000Z</Time>
            <Position>
              <LatitudeDegrees>40.73729219846427440643310546875</LatitudeDegrees>
              <LongitudeDegrees>-3.79885462112724781036376953125</LongitudeDegrees>
            </Position>
            <AltitudeMeters>901.79998779296875</AltitudeMeters>
            <DistanceMeters>NAN</DistanceMeters>
          </Trackpoint>
          <Trackpoint>
            <Time>2020-03-07T17:19:33.000Z</Time>
            <Position>
              <LatitudeDegrees>40.73727074079215526580810546875</LatitudeDegrees>
              <LongitudeDegrees>-3.79876979626715183258056640625</LongitudeDegrees>
            </Position>
            <AltitudeMeters>901.5999755859375</AltitudeMeters>
            <DistanceMeters>NAN</DistanceMeters>
          </Trackpoint>
          <Trackpoint>
            <Time>2020-03-07T17:19:34.000Z</Time>
            <Position>
              <LatitudeDegrees>40.73725012131035327911376953125</LatitudeDegrees>
              <LongitudeDegrees>-3.7986870668828487396240234375</LongitudeDegrees>
            </Position>
            <AltitudeMeters>901.5999755859375</AltitudeMeters>
            <DistanceMeters>NAN</DistanceMeters>
          </Trackpoint>
          <Trackpoint>
            <Time>2020-03-07T17:19:35.000Z</Time>
            <Position>
              <LatitudeDegrees>40.73722933419048786163330078125</LatitudeDegrees>
              <LongitudeDegrees>-3.79860249347984790802001953125</LongitudeDegrees>
            </Position>
            <AltitudeMeters>901.5999755859375</AltitudeMeters>
            <DistanceMeters>NAN</DistanceMeters>
          </Trackpoint>
          <Trackpoint>
            <Time>2020-03-07T17:19:36.000Z</Time>
            <Position>
              <LatitudeDegrees>40.73720703832805156707763671875</LatitudeDegrees>
              <LongitudeDegrees>-3.79851959645748138427734375</LongitudeDegrees>
            </Position>
            <AltitudeMeters>901.5999755859375</AltitudeMeters>
            <DistanceMeters>NAN</DistanceMeters>
          </Trackpoint>
          <Trackpoint>
            <Time>2020-03-07T17:19:37.000Z</Time>
            <Position>
              <LatitudeDegrees>40.7371838204562664031982421875</LatitudeDegrees>
              <LongitudeDegrees>-3.7984312511980533599853515625</LongitudeDegrees>
            </Position>
            <AltitudeMeters>901.5999755859375</AltitudeMeters>
            <DistanceMeters>NAN</DistanceMeters>
          </Trackpoint>
          <Trackpoint>
            <Time>2020-03-07T17:19:38.000Z</Time>
            <Position>
              <LatitudeDegrees>40.73716185986995697021484375</LatitudeDegrees>
              <LongitudeDegrees>-3.79834483377635478973388671875</LongitudeDegrees>
            </Position>
            <AltitudeMeters>901.4000244140625</AltitudeMeters>
            <DistanceMeters>NAN</DistanceMeters>
          </Trackpoint>
          <Trackpoint>
            <Time>2020-03-07T17:19:39.000Z</Time>
            <Position>
              <LatitudeDegrees>40.73714040219783782958984375</LatitudeDegrees>
              <LongitudeDegrees>-3.79826084710657596588134765625</LongitudeDegrees>
            </Position>
            <AltitudeMeters>901.4000244140625</AltitudeMeters>
            <DistanceMeters>NAN</DistanceMeters>
          </Trackpoint>
          <Trackpoint>
            <Time>2020-03-07T17:19:40.000Z</Time>
            <Position>
              <LatitudeDegrees>40.7371182739734649658203125</LatitudeDegrees>
              <LongitudeDegrees>-3.7981747649610042572021484375</LongitudeDegrees>
            </Position>
            <AltitudeMeters>901.4000244140625</AltitudeMeters>
            <DistanceMeters>NAN</DistanceMeters>
          </Trackpoint>
          <Trackpoint>
            <Time>2020-03-07T17:19:41.000Z</Time>
            <Position>
              <LatitudeDegrees>40.73709539137780666351318359375</LatitudeDegrees>
              <LongitudeDegrees>-3.798085413873195648193359375</LongitudeDegrees>
            </Position>
            <AltitudeMeters>901.4000244140625</AltitudeMeters>
            <DistanceMeters>NAN</DistanceMeters>
          </Trackpoint>
          <Trackpoint>
            <Time>2020-03-07T17:19:42.000Z</Time>
            <Position>
              <LatitudeDegrees>40.7370726764202117919921875</LatitudeDegrees>
              <LongitudeDegrees>-3.79799514077603816986083984375</LongitudeDegrees>
            </Position>
            <AltitudeMeters>901.4000244140625</AltitudeMeters>
            <DistanceMeters>NAN</DistanceMeters>
          </Trackpoint>
          <Trackpoint>
            <Time>2020-03-07T17:19:43.000Z</Time>
            <Position>
              <LatitudeDegrees>40.73704996146261692047119140625</LatitudeDegrees>
              <LongitudeDegrees>-3.7979048676788806915283203125</LongitudeDegrees>
            </Position>
            <AltitudeMeters>901.4000244140625</AltitudeMeters>
            <DistanceMeters>NAN</DistanceMeters>
          </Trackpoint>
          <Trackpoint>
            <Time>2020-03-07T17:19:44.000Z</Time>
            <Position>
              <LatitudeDegrees>40.73702632449567317962646484375</LatitudeDegrees>
              <LongitudeDegrees>-3.79781543277204036712646484375</LongitudeDegrees>
            </Position>
            <AltitudeMeters>901.20001220703125</AltitudeMeters>
            <DistanceMeters>NAN</DistanceMeters>
          </Trackpoint>
          <Trackpoint>
            <Time>2020-03-07T17:19:45.000Z</Time>
            <Position>
              <LatitudeDegrees>40.7370014302432537078857421875</LatitudeDegrees>
              <LongitudeDegrees>-3.79772432148456573486328125</LongitudeDegrees>
            </Position>
            <AltitudeMeters>901.20001220703125</AltitudeMeters>
            <DistanceMeters>NAN</DistanceMeters>
          </Trackpoint>
          <Trackpoint>
            <Time>2020-03-07T17:19:46.000Z</Time>
            <Position>
              <LatitudeDegrees>40.7369759492576122283935546875</LatitudeDegrees>
              <LongitudeDegrees>-3.79763505421578884124755859375</LongitudeDegrees>
            </Position>
            <AltitudeMeters>901.20001220703125</AltitudeMeters>
            <DistanceMeters>NAN</DistanceMeters>
          </Trackpoint>
          <Trackpoint>
            <Time>2020-03-07T17:19:47.000Z</Time>
            <Position>
              <LatitudeDegrees>40.73695071972906589508056640625</LatitudeDegrees>
              <LongitudeDegrees>-3.79754855297505855560302734375</LongitudeDegrees>
            </Position>
            <AltitudeMeters>901.20001220703125</AltitudeMeters>
            <DistanceMeters>NAN</DistanceMeters>
          </Trackpoint>
          <Trackpoint>
            <Time>2020-03-07T17:19:48.000Z</Time>
            <Position>
              <LatitudeDegrees>40.73692507110536098480224609375</LatitudeDegrees>
              <LongitudeDegrees>-3.7974612973630428314208984375</LongitudeDegrees>
            </Position>
            <AltitudeMeters>901</AltitudeMeters>
            <DistanceMeters>NAN</DistanceMeters>
          </Trackpoint>
          <Trackpoint>
            <Time>2020-03-07T17:19:49.000Z</Time>
            <Position>
              <LatitudeDegrees>40.7368983328342437744140625</LatitudeDegrees>
              <LongitudeDegrees>-3.797373287379741668701171875</LongitudeDegrees>
            </Position>
            <AltitudeMeters>901</AltitudeMeters>
            <DistanceMeters>NAN</DistanceMeters>
          </Trackpoint>
          <Trackpoint>
            <Time>2020-03-07T17:19:50.000Z</Time>
            <Position>
              <LatitudeDegrees>40.73687109164893627166748046875</LatitudeDegrees>
              <LongitudeDegrees>-3.797285445034503936767578125</LongitudeDegrees>
            </Position>
            <AltitudeMeters>901</AltitudeMeters>
            <DistanceMeters>NAN</DistanceMeters>
          </Trackpoint>
          <Trackpoint>
            <Time>2020-03-07T17:19:51.000Z</Time>
            <Position>
              <LatitudeDegrees>40.7368433475494384765625</LatitudeDegrees>
              <LongitudeDegrees>-3.797200620174407958984375</LongitudeDegrees>
            </Position>
            <AltitudeMeters>900.79998779296875</AltitudeMeters>
            <DistanceMeters>NAN</DistanceMeters>
          </Trackpoint>
          <Trackpoint>
            <Time>2020-03-07T17:19:52.000Z</Time>
            <Position>
              <LatitudeDegrees>40.73681476525962352752685546875</LatitudeDegrees>
              <LongitudeDegrees>-3.79711839370429515838623046875</LongitudeDegrees>
            </Position>
            <AltitudeMeters>900.79998779296875</AltitudeMeters>
            <DistanceMeters>NAN</DistanceMeters>
          </Trackpoint>
          <Trackpoint>
            <Time>2020-03-07T17:19:53.000Z</Time>
            <Position>
              <LatitudeDegrees>40.7367829978466033935546875</LatitudeDegrees>
              <LongitudeDegrees>-3.7970371730625629425048828125</LongitudeDegrees>
            </Position>
            <AltitudeMeters>900.79998779296875</AltitudeMeters>
            <DistanceMeters>NAN</DistanceMeters>
          </Trackpoint>
          <Trackpoint>
            <Time>2020-03-07T17:19:54.000Z</Time>
            <Position>
              <LatitudeDegrees>40.73674771003425121307373046875</LatitudeDegrees>
              <LongitudeDegrees>-3.79695461131632328033447265625</LongitudeDegrees>
            </Position>
            <AltitudeMeters>900.79998779296875</AltitudeMeters>
            <DistanceMeters>NAN</DistanceMeters>
          </Trackpoint>
          <Trackpoint>
            <Time>2020-03-07T17:19:55.000Z</Time>
            <Position>
              <LatitudeDegrees>40.73671183548867702484130859375</LatitudeDegrees>
              <LongitudeDegrees>-3.7968762405216693878173828125</LongitudeDegrees>
            </Position>
            <AltitudeMeters>900.79998779296875</AltitudeMeters>
            <DistanceMeters>NAN</DistanceMeters>
          </Trackpoint>
          <Trackpoint>
            <Time>2020-03-07T17:19:56.000Z</Time>
            <Position>
              <LatitudeDegrees>40.73667529039084911346435546875</LatitudeDegrees>
              <LongitudeDegrees>-3.796797282993793487548828125</LongitudeDegrees>
            </Position>
            <AltitudeMeters>900.5999755859375</AltitudeMeters>
            <DistanceMeters>NAN</DistanceMeters>
          </Trackpoint>
          <Trackpoint>
            <Time>2020-03-07T17:19:57.000Z</Time>
            <Position>
              <LatitudeDegrees>40.73663748800754547119140625</LatitudeDegrees>
              <LongitudeDegrees>-3.79671891219913959503173828125</LongitudeDegrees>
            </Position>
            <AltitudeMeters>900.5999755859375</AltitudeMeters>
            <DistanceMeters>NAN</DistanceMeters>
          </Trackpoint>
          <Trackpoint>
            <Time>2020-03-07T17:19:58.000Z</Time>
            <Position>
              <LatitudeDegrees>40.7365979254245758056640625</LatitudeDegrees>
              <LongitudeDegrees>-3.79664003849029541015625</LongitudeDegrees>
            </Position>
            <AltitudeMeters>900.5999755859375</AltitudeMeters>
            <DistanceMeters>NAN</DistanceMeters>
          </Trackpoint>
          <Trackpoint>
            <Time>2020-03-07T17:19:59.000Z</Time>
            <Position>
              <LatitudeDegrees>40.73655710555613040924072265625</LatitudeDegrees>
              <LongitudeDegrees>-3.79656049422919750213623046875</LongitudeDegrees>
            </Position>
            <AltitudeMeters>900.5999755859375</AltitudeMeters>
            <DistanceMeters>NAN</DistanceMeters>
          </Trackpoint>
          <Trackpoint>
            <Time>2020-03-07T17:20:00.000Z</Time>
            <Position>
              <LatitudeDegrees>40.73651586659252643585205078125</LatitudeDegrees>
              <LongitudeDegrees>-3.7964839674532413482666015625</LongitudeDegrees>
            </Position>
            <AltitudeMeters>900.4000244140625</AltitudeMeters>
            <DistanceMeters>NAN</DistanceMeters>
          </Trackpoint>
          <Trackpoint>
            <Time>2020-03-07T17:20:01.000Z</Time>
            <Position>
              <LatitudeDegrees>40.73647395707666873931884765625</LatitudeDegrees>
              <LongitudeDegrees>-3.7964102067053318023681640625</LongitudeDegrees>
            </Position>
            <AltitudeMeters>900.4000244140625</AltitudeMeters>
            <DistanceMeters>NAN</DistanceMeters>
          </Trackpoint>
          <Trackpoint>
            <Time>2020-03-07T17:20:02.000Z</Time>
            <Position>
              <LatitudeDegrees>40.736431293189525604248046875</LatitudeDegrees>
              <LongitudeDegrees>-3.79633602686226367950439453125</LongitudeDegrees>
            </Position>
            <AltitudeMeters>900.4000244140625</AltitudeMeters>
            <DistanceMeters>NAN</DistanceMeters>
          </Trackpoint>
          <Trackpoint>
            <Time>2020-03-07T17:20:03.000Z</Time>
            <Position>
              <LatitudeDegrees>40.73638879694044589996337890625</LatitudeDegrees>
              <LongitudeDegrees>-3.7962643615901470184326171875</LongitudeDegrees>
            </Position>
            <AltitudeMeters>900.4000244140625</AltitudeMeters>
            <DistanceMeters>NAN</DistanceMeters>
          </Trackpoint>
          <Trackpoint>
            <Time>2020-03-07T17:20:04.000Z</Time>
            <Position>
              <LatitudeDegrees>40.73634789325296878814697265625</LatitudeDegrees>
              <LongitudeDegrees>-3.79619303159415721893310546875</LongitudeDegrees>
            </Position>
            <AltitudeMeters>900.4000244140625</AltitudeMeters>
            <DistanceMeters>NAN</DistanceMeters>
          </Trackpoint>
          <Trackpoint>
            <Time>2020-03-07T17:20:05.000Z</Time>
            <Position>
              <LatitudeDegrees>40.73630682192742824554443359375</LatitudeDegrees>
              <LongitudeDegrees>-3.79612480290234088897705078125</LongitudeDegrees>
            </Position>
            <AltitudeMeters>900.4000244140625</AltitudeMeters>
            <DistanceMeters>NAN</DistanceMeters>
          </Trackpoint>
          <Trackpoint>
            <Time>2020-03-07T17:20:06.000Z</Time>
            <Position>
              <LatitudeDegrees>40.73626524768769741058349609375</LatitudeDegrees>
              <LongitudeDegrees>-3.7960566580295562744140625</LongitudeDegrees>
            </Position>
            <AltitudeMeters>900.4000244140625</AltitudeMeters>
            <DistanceMeters>NAN</DistanceMeters>
          </Trackpoint>
          <Trackpoint>
            <Time>2020-03-07T17:20:07.000Z</Time>
            <Position>
              <LatitudeDegrees>40.73622283525764942169189453125</LatitudeDegrees>
              <LongitudeDegrees>-3.79598666913807392120361328125</LongitudeDegrees>
            </Position>
            <AltitudeMeters>900.20001220703125</AltitudeMeters>
            <DistanceMeters>NAN</DistanceMeters>
          </Trackpoint>
          <Trackpoint>
            <Time>2020-03-07T17:20:08.000Z</Time>
            <Position>
              <LatitudeDegrees>40.7361806742846965789794921875</LatitudeDegrees>
              <LongitudeDegrees>-3.79591559059917926788330078125</LongitudeDegrees>
            </Position>
            <AltitudeMeters>900.20001220703125</AltitudeMeters>
            <DistanceMeters>NAN</DistanceMeters>
          </Trackpoint>
          <Trackpoint>
            <Time>2020-03-07T17:20:09.000Z</Time>
            <Position>
              <LatitudeDegrees>40.7361380942165851593017578125</LatitudeDegrees>
              <LongitudeDegrees>-3.79584543406963348388671875</LongitudeDegrees>
            </Position>
            <AltitudeMeters>900.20001220703125</AltitudeMeters>
            <DistanceMeters>NAN</DistanceMeters>
          </Trackpoint>
          <Trackpoint>
            <Time>2020-03-07T17:20:10.000Z</Time>
            <Position>
              <LatitudeDegrees>40.7360938377678394317626953125</LatitudeDegrees>
              <LongitudeDegrees>-3.79577242769300937652587890625</LongitudeDegrees>
            </Position>
            <AltitudeMeters>900.20001220703125</AltitudeMeters>
            <DistanceMeters>NAN</DistanceMeters>
          </Trackpoint>
          <Trackpoint>
            <Time>2020-03-07T17:20:11.000Z</Time>
            <Position>
              <LatitudeDegrees>40.73605184443295001983642578125</LatitudeDegrees>
              <LongitudeDegrees>-3.79570269025862216949462890625</LongitudeDegrees>
            </Position>
            <AltitudeMeters>900.20001220703125</AltitudeMeters>
            <DistanceMeters>NAN</DistanceMeters>
          </Trackpoint>
          <Trackpoint>
            <Time>2020-03-07T17:20:12.000Z</Time>
            <Position>
              <LatitudeDegrees>40.7360090129077434539794921875</LatitudeDegrees>
              <LongitudeDegrees>-3.79563429392874240875244140625</LongitudeDegrees>
            </Position>
            <AltitudeMeters>900.20001220703125</AltitudeMeters>
            <DistanceMeters>NAN</DistanceMeters>
          </Trackpoint>
          <Trackpoint>
            <Time>2020-03-07T17:20:13.000Z</Time>
            <Position>
              <LatitudeDegrees>40.73596467263996601104736328125</LatitudeDegrees>
              <LongitudeDegrees>-3.795564807951450347900390625</LongitudeDegrees>
            </Position>
            <AltitudeMeters>900.20001220703125</AltitudeMeters>
            <DistanceMeters>NAN</DistanceMeters>
          </Trackpoint>
          <Trackpoint>
            <Time>2020-03-07T17:20:14.000Z</Time>
            <Position>
              <LatitudeDegrees>40.73592058382928371429443359375</LatitudeDegrees>
              <LongitudeDegrees>-3.79549481905996799468994140625</LongitudeDegrees>
            </Position>
            <AltitudeMeters>900.20001220703125</AltitudeMeters>
            <DistanceMeters>NAN</DistanceMeters>
          </Trackpoint>
          <Trackpoint>
            <Time>2020-03-07T17:20:15.000Z</Time>
            <Position>
              <LatitudeDegrees>40.7358762435615062713623046875</LatitudeDegrees>
              <LongitudeDegrees>-3.7954258359968662261962890625</LongitudeDegrees>
            </Position>
            <AltitudeMeters>900</AltitudeMeters>
            <DistanceMeters>NAN</DistanceMeters>
          </Trackpoint>
          <Trackpoint>
            <Time>2020-03-07T17:20:16.000Z</Time>
            <Position>
              <LatitudeDegrees>40.7358313165605068206787109375</LatitudeDegrees>
              <LongitudeDegrees>-3.7953557632863521575927734375</LongitudeDegrees>
            </Position>
            <AltitudeMeters>900</AltitudeMeters>
            <DistanceMeters>NAN</DistanceMeters>
          </Trackpoint>
          <Trackpoint>
            <Time>2020-03-07T17:20:17.000Z</Time>
            <Position>
              <LatitudeDegrees>40.73578680865466594696044921875</LatitudeDegrees>
              <LongitudeDegrees>-3.79528812132775783538818359375</LongitudeDegrees>
            </Position>
            <AltitudeMeters>900</AltitudeMeters>
            <DistanceMeters>NAN</DistanceMeters>
          </Trackpoint>
          <Trackpoint>
            <Time>2020-03-07T17:20:18.000Z</Time>
            <Position>
              <LatitudeDegrees>40.7357434742152690887451171875</LatitudeDegrees>
              <LongitudeDegrees>-3.79521972499787807464599609375</LongitudeDegrees>
            </Position>
            <AltitudeMeters>900</AltitudeMeters>
            <DistanceMeters>NAN</DistanceMeters>
          </Trackpoint>
          <Trackpoint>
            <Time>2020-03-07T17:20:19.000Z</Time>
            <Position>
              <LatitudeDegrees>40.7356992177665233612060546875</LatitudeDegrees>
              <LongitudeDegrees>-3.7951488979160785675048828125</LongitudeDegrees>
            </Position>
            <AltitudeMeters>900</AltitudeMeters>
            <DistanceMeters>NAN</DistanceMeters>
          </Trackpoint>
          <Trackpoint>
            <Time>2020-03-07T17:20:20.000Z</Time>
            <Position>
              <LatitudeDegrees>40.7356552965939044952392578125</LatitudeDegrees>
              <LongitudeDegrees>-3.795081675052642822265625</LongitudeDegrees>
            </Position>
            <AltitudeMeters>900</AltitudeMeters>
            <DistanceMeters>NAN</DistanceMeters>
          </Trackpoint>
          <Trackpoint>
            <Time>2020-03-07T17:20:21.000Z</Time>
            <Position>
              <LatitudeDegrees>40.73561162687838077545166015625</LatitudeDegrees>
              <LongitudeDegrees>-3.79501604475080966949462890625</LongitudeDegrees>
            </Position>
            <AltitudeMeters>900</AltitudeMeters>
            <DistanceMeters>NAN</DistanceMeters>
          </Trackpoint>
          <Trackpoint>
            <Time>2020-03-07T17:20:22.000Z</Time>
            <Position>
              <LatitudeDegrees>40.73556804098188877105712890625</LatitudeDegrees>
              <LongitudeDegrees>-3.7949487380683422088623046875</LongitudeDegrees>
            </Position>
            <AltitudeMeters>900</AltitudeMeters>
            <DistanceMeters>NAN</DistanceMeters>
          </Trackpoint>
          <Trackpoint>
            <Time>2020-03-07T17:20:23.000Z</Time>
            <Position>
              <LatitudeDegrees>40.73552445508539676666259765625</LatitudeDegrees>
              <LongitudeDegrees>-3.79488260485231876373291015625</LongitudeDegrees>
            </Position>
            <AltitudeMeters>900</AltitudeMeters>
            <DistanceMeters>NAN</DistanceMeters>
          </Trackpoint>
          <Trackpoint>
            <Time>2020-03-07T17:20:24.000Z</Time>
            <Position>
              <LatitudeDegrees>40.735479779541492462158203125</LatitudeDegrees>
              <LongitudeDegrees>-3.79481554962694644927978515625</LongitudeDegrees>
            </Position>
            <AltitudeMeters>900</AltitudeMeters>
            <DistanceMeters>NAN</DistanceMeters>
          </Trackpoint>
          <Trackpoint>
            <Time>2020-03-07T17:20:25.000Z</Time>
            <Position>
              <LatitudeDegrees>40.735435187816619873046875</LatitudeDegrees>
              <LongitudeDegrees>-3.7947482429444789886474609375</LongitudeDegrees>
            </Position>
            <AltitudeMeters>900</AltitudeMeters>
            <DistanceMeters>NAN</DistanceMeters>
          </Trackpoint>
          <Trackpoint>
            <Time>2020-03-07T17:20:26.000Z</Time>
            <Position>
              <LatitudeDegrees>40.73539168573915958404541015625</LatitudeDegrees>
              <LongitudeDegrees>-3.7946808524429798126220703125</LongitudeDegrees>
            </Position>
            <AltitudeMeters>900</AltitudeMeters>
            <DistanceMeters>NAN</DistanceMeters>
          </Trackpoint>
          <Trackpoint>
            <Time>2020-03-07T17:20:27.000Z</Time>
            <Position>
              <LatitudeDegrees>40.7353495247662067413330078125</LatitudeDegrees>
              <LongitudeDegrees>-3.79461555741727352142333984375</LongitudeDegrees>
            </Position>
            <AltitudeMeters>900</AltitudeMeters>
            <DistanceMeters>NAN</DistanceMeters>
          </Trackpoint>
          <Trackpoint>
            <Time>2020-03-07T17:20:28.000Z</Time>
            <Position>
              <LatitudeDegrees>40.735308118164539337158203125</LatitudeDegrees>
              <LongitudeDegrees>-3.79454900510609149932861328125</LongitudeDegrees>
            </Position>
            <AltitudeMeters>899.79998779296875</AltitudeMeters>
            <DistanceMeters>NAN</DistanceMeters>
          </Trackpoint>
          <Trackpoint>
            <Time>2020-03-07T17:20:29.000Z</Time>
            <Position>
              <LatitudeDegrees>40.735267214477062225341796875</LatitudeDegrees>
              <LongitudeDegrees>-3.794480860233306884765625</LongitudeDegrees>
            </Position>
            <AltitudeMeters>899.79998779296875</AltitudeMeters>
            <DistanceMeters>NAN</DistanceMeters>
          </Trackpoint>
          <Trackpoint>
            <Time>2020-03-07T17:20:30.000Z</Time>
            <Position>
              <LatitudeDegrees>40.735225640237331390380859375</LatitudeDegrees>
              <LongitudeDegrees>-3.7944124639034271240234375</LongitudeDegrees>
            </Position>
            <AltitudeMeters>899.79998779296875</AltitudeMeters>
            <DistanceMeters>NAN</DistanceMeters>
          </Trackpoint>
          <Trackpoint>
            <Time>2020-03-07T17:20:31.000Z</Time>
            <Position>
              <LatitudeDegrees>40.735183395445346832275390625</LatitudeDegrees>
              <LongitudeDegrees>-3.7943462468683719635009765625</LongitudeDegrees>
            </Position>
            <AltitudeMeters>899.79998779296875</AltitudeMeters>
            <DistanceMeters>NAN</DistanceMeters>
          </Trackpoint>
          <Trackpoint>
            <Time>2020-03-07T17:20:32.000Z</Time>
            <Position>
              <LatitudeDegrees>40.73514081537723541259765625</LatitudeDegrees>
              <LongitudeDegrees>-3.7942825444042682647705078125</LongitudeDegrees>
            </Position>
            <AltitudeMeters>899.5999755859375</AltitudeMeters>
            <DistanceMeters>NAN</DistanceMeters>
          </Trackpoint>
          <Trackpoint>
            <Time>2020-03-07T17:20:33.000Z</Time>
            <Position>
              <LatitudeDegrees>40.73510116897523403167724609375</LatitudeDegrees>
              <LongitudeDegrees>-3.794221021234989166259765625</LongitudeDegrees>
            </Position>
            <AltitudeMeters>899.5999755859375</AltitudeMeters>
            <DistanceMeters>NAN</DistanceMeters>
          </Trackpoint>
          <Trackpoint>
            <Time>2020-03-07T17:20:34.000Z</Time>
            <Position>
              <LatitudeDegrees>40.73506026528775691986083984375</LatitudeDegrees>
              <LongitudeDegrees>-3.79416058771312236785888671875</LongitudeDegrees>
            </Position>
            <AltitudeMeters>899.5999755859375</AltitudeMeters>
            <DistanceMeters>NAN</DistanceMeters>
          </Trackpoint>
          <Trackpoint>
            <Time>2020-03-07T17:20:35.000Z</Time>
            <Position>
              <LatitudeDegrees>40.73501902632415294647216796875</LatitudeDegrees>
              <LongitudeDegrees>-3.7941004894673824310302734375</LongitudeDegrees>
            </Position>
            <AltitudeMeters>899.5999755859375</AltitudeMeters>
            <DistanceMeters>NAN</DistanceMeters>
          </Trackpoint>
          <Trackpoint>
            <Time>2020-03-07T17:20:36.000Z</Time>
            <Position>
              <LatitudeDegrees>40.7349777035415172576904296875</LatitudeDegrees>
              <LongitudeDegrees>-3.79404005594551563262939453125</LongitudeDegrees>
            </Position>
            <AltitudeMeters>899.5999755859375</AltitudeMeters>
            <DistanceMeters>NAN</DistanceMeters>
          </Trackpoint>
          <Trackpoint>
            <Time>2020-03-07T17:20:37.000Z</Time>
            <Position>
              <LatitudeDegrees>40.73493520729243755340576171875</LatitudeDegrees>
              <LongitudeDegrees>-3.79397920332849025726318359375</LongitudeDegrees>
            </Position>
            <AltitudeMeters>899.5999755859375</AltitudeMeters>
            <DistanceMeters>NAN</DistanceMeters>
          </Trackpoint>
          <Trackpoint>
            <Time>2020-03-07T17:20:38.000Z</Time>
            <Position>
              <LatitudeDegrees>40.7348948903381824493408203125</LatitudeDegrees>
              <LongitudeDegrees>-3.79391851834952831268310546875</LongitudeDegrees>
            </Position>
            <AltitudeMeters>899.4000244140625</AltitudeMeters>
            <DistanceMeters>NAN</DistanceMeters>
          </Trackpoint>
          <Trackpoint>
            <Time>2020-03-07T17:20:39.000Z</Time>
            <Position>
              <LatitudeDegrees>40.7348556630313396453857421875</LatitudeDegrees>
              <LongitudeDegrees>-3.79385900683701038360595703125</LongitudeDegrees>
            </Position>
            <AltitudeMeters>899.4000244140625</AltitudeMeters>
            <DistanceMeters>NAN</DistanceMeters>
          </Trackpoint>
          <Trackpoint>
            <Time>2020-03-07T17:20:40.000Z</Time>
            <Position>
              <LatitudeDegrees>40.734815932810306549072265625</LatitudeDegrees>
              <LongitudeDegrees>-3.79379798658192157745361328125</LongitudeDegrees>
            </Position>
            <AltitudeMeters>899.4000244140625</AltitudeMeters>
            <DistanceMeters>NAN</DistanceMeters>
          </Trackpoint>
          <Trackpoint>
            <Time>2020-03-07T17:20:41.000Z</Time>
            <Position>
              <LatitudeDegrees>40.73477477766573429107666015625</LatitudeDegrees>
              <LongitudeDegrees>-3.79373495467007160186767578125</LongitudeDegrees>
            </Position>
            <AltitudeMeters>899.4000244140625</AltitudeMeters>
            <DistanceMeters>NAN</DistanceMeters>
          </Trackpoint>
          <Trackpoint>
            <Time>2020-03-07T17:20:42.000Z</Time>
            <Position>
              <LatitudeDegrees>40.734732449054718017578125</LatitudeDegrees>
              <LongitudeDegrees>-3.793670497834682464599609375</LongitudeDegrees>
            </Position>
            <AltitudeMeters>899.4000244140625</AltitudeMeters>
            <DistanceMeters>NAN</DistanceMeters>
          </Trackpoint>
          <Trackpoint>
            <Time>2020-03-07T17:20:43.000Z</Time>
            <Position>
              <LatitudeDegrees>40.734689868986606597900390625</LatitudeDegrees>
              <LongitudeDegrees>-3.79360671155154705047607421875</LongitudeDegrees>
            </Position>
            <AltitudeMeters>899.4000244140625</AltitudeMeters>
            <DistanceMeters>NAN</DistanceMeters>
          </Trackpoint>
          <Trackpoint>
            <Time>2020-03-07T17:20:44.000Z</Time>
            <Position>
              <LatitudeDegrees>40.7346481271088123321533203125</LatitudeDegrees>
              <LongitudeDegrees>-3.79354233853518962860107421875</LongitudeDegrees>
            </Position>
            <AltitudeMeters>899.4000244140625</AltitudeMeters>
            <DistanceMeters>NAN</DistanceMeters>
          </Trackpoint>
          <Trackpoint>
            <Time>2020-03-07T17:20:45.000Z</Time>
            <Position>
              <LatitudeDegrees>40.73460705578327178955078125</LatitudeDegrees>
              <LongitudeDegrees>-3.79347813315689563751220703125</LongitudeDegrees>
            </Position>
            <AltitudeMeters>899.4000244140625</AltitudeMeters>
            <DistanceMeters>NAN</DistanceMeters>
          </Trackpoint>
          <Trackpoint>
            <Time>2020-03-07T17:20:46.000Z</Time>
            <Position>
              <LatitudeDegrees>40.73456774465739727020263671875</LatitudeDegrees>
              <LongitudeDegrees>-3.793413341045379638671875</LongitudeDegrees>
            </Position>
            <AltitudeMeters>899.4000244140625</AltitudeMeters>
            <DistanceMeters>NAN</DistanceMeters>
          </Trackpoint>
          <Trackpoint>
            <Time>2020-03-07T17:20:47.000Z</Time>
            <Position>
              <LatitudeDegrees>40.73452902026474475860595703125</LatitudeDegrees>
              <LongitudeDegrees>-3.79334829747676849365234375</LongitudeDegrees>
            </Position>
            <AltitudeMeters>899.4000244140625</AltitudeMeters>
            <DistanceMeters>NAN</DistanceMeters>
          </Trackpoint>
          <Trackpoint>
            <Time>2020-03-07T17:20:48.000Z</Time>
            <Position>
              <LatitudeDegrees>40.7344895415008068084716796875</LatitudeDegrees>
              <LongitudeDegrees>-3.79328149370849132537841796875</LongitudeDegrees>
            </Position>
            <AltitudeMeters>899.4000244140625</AltitudeMeters>
            <DistanceMeters>NAN</DistanceMeters>
          </Trackpoint>
          <Trackpoint>
            <Time>2020-03-07T17:20:49.000Z</Time>
            <Position>
              <LatitudeDegrees>40.73444872163236141204833984375</LatitudeDegrees>
              <LongitudeDegrees>-3.793215863406658172607421875</LongitudeDegrees>
            </Position>
            <AltitudeMeters>899.4000244140625</AltitudeMeters>
            <DistanceMeters>NAN</DistanceMeters>
          </Trackpoint>
          <Trackpoint>
            <Time>2020-03-07T17:20:50.000Z</Time>
            <Position>
              <LatitudeDegrees>40.734406895935535430908203125</LatitudeDegrees>
              <LongitudeDegrees>-3.79315207712352275848388671875</LongitudeDegrees>
            </Position>
            <AltitudeMeters>899.4000244140625</AltitudeMeters>
            <DistanceMeters>NAN</DistanceMeters>
          </Trackpoint>
          <Trackpoint>
            <Time>2020-03-07T17:20:51.000Z</Time>
            <Position>
              <LatitudeDegrees>40.7343641482293605804443359375</LatitudeDegrees>
              <LongitudeDegrees>-3.79308879375457763671875</LongitudeDegrees>
            </Position>
            <AltitudeMeters>899.4000244140625</AltitudeMeters>
            <DistanceMeters>NAN</DistanceMeters>
          </Trackpoint>
          <Trackpoint>
            <Time>2020-03-07T17:20:52.000Z</Time>
            <Position>
              <LatitudeDegrees>40.73432215489447116851806640625</LatitudeDegrees>
              <LongitudeDegrees>-3.79302551038563251495361328125</LongitudeDegrees>
            </Position>
            <AltitudeMeters>899.4000244140625</AltitudeMeters>
            <DistanceMeters>NAN</DistanceMeters>
          </Trackpoint>
          <Trackpoint>
            <Time>2020-03-07T17:20:53.000Z</Time>
            <Position>
              <LatitudeDegrees>40.7342809997498989105224609375</LatitudeDegrees>
              <LongitudeDegrees>-3.7929625622928142547607421875</LongitudeDegrees>
            </Position>
            <AltitudeMeters>899.4000244140625</AltitudeMeters>
            <DistanceMeters>NAN</DistanceMeters>
          </Trackpoint>
          <Trackpoint>
            <Time>2020-03-07T17:20:54.000Z</Time>
            <Position>
              <LatitudeDegrees>40.73423984460532665252685546875</LatitudeDegrees>
              <LongitudeDegrees>-3.79289944656193256378173828125</LongitudeDegrees>
            </Position>
            <AltitudeMeters>899.5999755859375</AltitudeMeters>
            <DistanceMeters>NAN</DistanceMeters>
          </Trackpoint>
          <Trackpoint>
            <Time>2020-03-07T17:20:55.000Z</Time>
            <Position>
              <LatitudeDegrees>40.73419810272753238677978515625</LatitudeDegrees>
              <LongitudeDegrees>-3.7928354926407337188720703125</LongitudeDegrees>
            </Position>
            <AltitudeMeters>899.5999755859375</AltitudeMeters>
            <DistanceMeters>NAN</DistanceMeters>
          </Trackpoint>
          <Trackpoint>
            <Time>2020-03-07T17:20:56.000Z</Time>
            <Position>
              <LatitudeDegrees>40.73415552265942096710205078125</LatitudeDegrees>
              <LongitudeDegrees>-3.79277028143405914306640625</LongitudeDegrees>
            </Position>
            <AltitudeMeters>899.5999755859375</AltitudeMeters>
            <DistanceMeters>NAN</DistanceMeters>
          </Trackpoint>
          <Trackpoint>
            <Time>2020-03-07T17:20:57.000Z</Time>
            <Position>
              <LatitudeDegrees>40.73411227203905582427978515625</LatitudeDegrees>
              <LongitudeDegrees>-3.7927057407796382904052734375</LongitudeDegrees>
            </Position>
            <AltitudeMeters>899.5999755859375</AltitudeMeters>
            <DistanceMeters>NAN</DistanceMeters>
          </Trackpoint>
          <Trackpoint>
            <Time>2020-03-07T17:20:58.000Z</Time>
            <Position>
              <LatitudeDegrees>40.73406935669481754302978515625</LatitudeDegrees>
              <LongitudeDegrees>-3.792641200125217437744140625</LongitudeDegrees>
            </Position>
            <AltitudeMeters>899.5999755859375</AltitudeMeters>
            <DistanceMeters>NAN</DistanceMeters>
          </Trackpoint>
          <Trackpoint>
            <Time>2020-03-07T17:20:59.000Z</Time>
            <Position>
              <LatitudeDegrees>40.73402769863605499267578125</LatitudeDegrees>
              <LongitudeDegrees>-3.79257582128047943115234375</LongitudeDegrees>
            </Position>
            <AltitudeMeters>899.79998779296875</AltitudeMeters>
            <DistanceMeters>NAN</DistanceMeters>
          </Trackpoint>
          <Trackpoint>
            <Time>2020-03-07T17:21:00.000Z</Time>
            <Position>
              <LatitudeDegrees>40.73398738168179988861083984375</LatitudeDegrees>
              <LongitudeDegrees>-3.79251186735928058624267578125</LongitudeDegrees>
            </Position>
            <AltitudeMeters>899.79998779296875</AltitudeMeters>
            <DistanceMeters>NAN</DistanceMeters>
          </Trackpoint>
          <Trackpoint>
            <Time>2020-03-07T17:21:01.000Z</Time>
            <Position>
              <LatitudeDegrees>40.73394932784140110015869140625</LatitudeDegrees>
              <LongitudeDegrees>-3.7924499250948429107666015625</LongitudeDegrees>
            </Position>
            <AltitudeMeters>900</AltitudeMeters>
            <DistanceMeters>NAN</DistanceMeters>
          </Trackpoint>
          <Trackpoint>
            <Time>2020-03-07T17:21:02.000Z</Time>
            <Position>
              <LatitudeDegrees>40.73390901088714599609375</LatitudeDegrees>
              <LongitudeDegrees>-3.79238815046846866607666015625</LongitudeDegrees>
            </Position>
            <AltitudeMeters>900</AltitudeMeters>
            <DistanceMeters>NAN</DistanceMeters>
          </Trackpoint>
          <Trackpoint>
            <Time>2020-03-07T17:21:03.000Z</Time>
            <Position>
              <LatitudeDegrees>40.73386902920901775360107421875</LatitudeDegrees>
              <LongitudeDegrees>-3.792329393327236175537109375</LongitudeDegrees>
            </Position>
            <AltitudeMeters>900.20001220703125</AltitudeMeters>
            <DistanceMeters>NAN</DistanceMeters>
          </Trackpoint>
          <Trackpoint>
            <Time>2020-03-07T17:21:04.000Z</Time>
            <Position>
              <LatitudeDegrees>40.733828879892826080322265625</LatitudeDegrees>
              <LongitudeDegrees>-3.79226996563374996185302734375</LongitudeDegrees>
            </Position>
            <AltitudeMeters>900.20001220703125</AltitudeMeters>
            <DistanceMeters>NAN</DistanceMeters>
          </Trackpoint>
          <Trackpoint>
            <Time>2020-03-07T17:21:05.000Z</Time>
            <Position>
              <LatitudeDegrees>40.73378898203372955322265625</LatitudeDegrees>
              <LongitudeDegrees>-3.79220978356897830963134765625</LongitudeDegrees>
            </Position>
            <AltitudeMeters>900.20001220703125</AltitudeMeters>
            <DistanceMeters>NAN</DistanceMeters>
          </Trackpoint>
          <Trackpoint>
            <Time>2020-03-07T17:21:06.000Z</Time>
            <Position>
              <LatitudeDegrees>40.73374983854591846466064453125</LatitudeDegrees>
              <LongitudeDegrees>-3.79215060733258724212646484375</LongitudeDegrees>
            </Position>
            <AltitudeMeters>900.20001220703125</AltitudeMeters>
            <DistanceMeters>NAN</DistanceMeters>
          </Trackpoint>
          <Trackpoint>
            <Time>2020-03-07T17:21:07.000Z</Time>
            <Position>
              <LatitudeDegrees>40.73371195234358310699462890625</LatitudeDegrees>
              <LongitudeDegrees>-3.79209168255329132080078125</LongitudeDegrees>
            </Position>
            <AltitudeMeters>900.20001220703125</AltitudeMeters>
            <DistanceMeters>NAN</DistanceMeters>
          </Trackpoint>
          <Trackpoint>
            <Time>2020-03-07T17:21:08.000Z</Time>
            <Position>
              <LatitudeDegrees>40.7336761616170406341552734375</LatitudeDegrees>
              <LongitudeDegrees>-3.79203711636364459991455078125</LongitudeDegrees>
            </Position>
            <AltitudeMeters>900.4000244140625</AltitudeMeters>
            <DistanceMeters>NAN</DistanceMeters>
          </Trackpoint>
          <Trackpoint>
            <Time>2020-03-07T17:21:09.000Z</Time>
            <Position>
              <LatitudeDegrees>40.73364104144275188446044921875</LatitudeDegrees>
              <LongitudeDegrees>-3.79198565147817134857177734375</LongitudeDegrees>
            </Position>
            <AltitudeMeters>900.4000244140625</AltitudeMeters>
            <DistanceMeters>NAN</DistanceMeters>
          </Trackpoint>
          <Trackpoint>
            <Time>2020-03-07T17:21:10.000Z</Time>
            <Position>
              <LatitudeDegrees>40.73360684327781200408935546875</LatitudeDegrees>
              <LongitudeDegrees>-3.79193552769720554351806640625</LongitudeDegrees>
            </Position>
            <AltitudeMeters>900.4000244140625</AltitudeMeters>
            <DistanceMeters>NAN</DistanceMeters>
          </Trackpoint>
          <Trackpoint>
            <Time>2020-03-07T17:21:11.000Z</Time>
            <Position>
              <LatitudeDegrees>40.733573734760284423828125</LatitudeDegrees>
              <LongitudeDegrees>-3.791885487735271453857421875</LongitudeDegrees>
            </Position>
            <AltitudeMeters>900.5999755859375</AltitudeMeters>
            <DistanceMeters>NAN</DistanceMeters>
          </Trackpoint>
          <Trackpoint>
            <Time>2020-03-07T17:21:12.000Z</Time>
            <Position>
              <LatitudeDegrees>40.7335440628230571746826171875</LatitudeDegrees>
              <LongitudeDegrees>-3.79183444194495677947998046875</LongitudeDegrees>
            </Position>
            <AltitudeMeters>900.79998779296875</AltitudeMeters>
            <DistanceMeters>NAN</DistanceMeters>
          </Trackpoint>
          <Trackpoint>
            <Time>2020-03-07T17:21:13.000Z</Time>
            <Position>
              <LatitudeDegrees>40.73351380415260791778564453125</LatitudeDegrees>
              <LongitudeDegrees>-3.79178431816399097442626953125</LongitudeDegrees>
            </Position>
            <AltitudeMeters>901</AltitudeMeters>
            <DistanceMeters>NAN</DistanceMeters>
          </Trackpoint>
          <Trackpoint>
            <Time>2020-03-07T17:21:14.000Z</Time>
            <Position>
              <LatitudeDegrees>40.733483545482158660888671875</LatitudeDegrees>
              <LongitudeDegrees>-3.79173536784946918487548828125</LongitudeDegrees>
            </Position>
            <AltitudeMeters>901.20001220703125</AltitudeMeters>
            <DistanceMeters>NAN</DistanceMeters>
          </Trackpoint>
          <Trackpoint>
            <Time>2020-03-07T17:21:15.000Z</Time>
            <Position>
              <LatitudeDegrees>40.7334535382688045501708984375</LatitudeDegrees>
              <LongitudeDegrees>-3.79169111140072345733642578125</LongitudeDegrees>
            </Position>
            <AltitudeMeters>901.4000244140625</AltitudeMeters>
            <DistanceMeters>NAN</DistanceMeters>
          </Trackpoint>
          <Trackpoint>
            <Time>2020-03-07T17:21:16.000Z</Time>
            <Position>
              <LatitudeDegrees>40.7334240339696407318115234375</LatitudeDegrees>
              <LongitudeDegrees>-3.79164869897067546844482421875</LongitudeDegrees>
            </Position>
            <AltitudeMeters>901.79998779296875</AltitudeMeters>
            <DistanceMeters>NAN</DistanceMeters>
          </Trackpoint>
          <Trackpoint>
            <Time>2020-03-07T17:21:17.000Z</Time>
            <Position>
              <LatitudeDegrees>40.73339427821338176727294921875</LatitudeDegrees>
              <LongitudeDegrees>-3.7916046939790248870849609375</LongitudeDegrees>
            </Position>
            <AltitudeMeters>902.20001220703125</AltitudeMeters>
            <DistanceMeters>NAN</DistanceMeters>
          </Trackpoint>
          <Trackpoint>
            <Time>2020-03-07T17:21:18.000Z</Time>
            <Position>
              <LatitudeDegrees>40.73336427100002765655517578125</LatitudeDegrees>
              <LongitudeDegrees>-3.79155951552093029022216796875</LongitudeDegrees>
            </Position>
            <AltitudeMeters>902.4000244140625</AltitudeMeters>
            <DistanceMeters>NAN</DistanceMeters>
          </Trackpoint>
          <Trackpoint>
            <Time>2020-03-07T17:21:19.000Z</Time>
            <Position>
              <LatitudeDegrees>40.7333345152437686920166015625</LatitudeDegrees>
              <LongitudeDegrees>-3.791516013443470001220703125</LongitudeDegrees>
            </Position>
            <AltitudeMeters>902.79998779296875</AltitudeMeters>
            <DistanceMeters>NAN</DistanceMeters>
          </Trackpoint>
          <Trackpoint>
            <Time>2020-03-07T17:21:20.000Z</Time>
            <Position>
              <LatitudeDegrees>40.73330475948750972747802734375</LatitudeDegrees>
              <LongitudeDegrees>-3.79147301428020000457763671875</LongitudeDegrees>
            </Position>
            <AltitudeMeters>903</AltitudeMeters>
            <DistanceMeters>NAN</DistanceMeters>
          </Trackpoint>
          <Trackpoint>
            <Time>2020-03-07T17:21:21.000Z</Time>
            <Position>
              <LatitudeDegrees>40.7332748360931873321533203125</LatitudeDegrees>
              <LongitudeDegrees>-3.7914303503930568695068359375</LongitudeDegrees>
            </Position>
            <AltitudeMeters>903.4000244140625</AltitudeMeters>
            <DistanceMeters>NAN</DistanceMeters>
          </Trackpoint>
          <Trackpoint>
            <Time>2020-03-07T17:21:22.000Z</Time>
            <Position>
              <LatitudeDegrees>40.7332463376224040985107421875</LatitudeDegrees>
              <LongitudeDegrees>-3.79138818942010402679443359375</LongitudeDegrees>
            </Position>
            <AltitudeMeters>903.5999755859375</AltitudeMeters>
            <DistanceMeters>NAN</DistanceMeters>
          </Trackpoint>
          <Trackpoint>
            <Time>2020-03-07T17:21:23.000Z</Time>
            <Position>
              <LatitudeDegrees>40.73321691714227199554443359375</LatitudeDegrees>
              <LongitudeDegrees>-3.79134736955165863037109375</LongitudeDegrees>
            </Position>
            <AltitudeMeters>904.20001220703125</AltitudeMeters>
            <DistanceMeters>NAN</DistanceMeters>
          </Trackpoint>
          <Trackpoint>
            <Time>2020-03-07T17:21:24.000Z</Time>
            <Position>
              <LatitudeDegrees>40.73318774811923503875732421875</LatitudeDegrees>
              <LongitudeDegrees>-3.79130772314965724945068359375</LongitudeDegrees>
            </Position>
            <AltitudeMeters>904.5999755859375</AltitudeMeters>
            <DistanceMeters>NAN</DistanceMeters>
          </Trackpoint>
          <Trackpoint>
            <Time>2020-03-07T17:21:25.000Z</Time>
            <Position>
              <LatitudeDegrees>40.7331591658294200897216796875</LatitudeDegrees>
              <LongitudeDegrees>-3.79126665182411670684814453125</LongitudeDegrees>
            </Position>
            <AltitudeMeters>905</AltitudeMeters>
            <DistanceMeters>NAN</DistanceMeters>
          </Trackpoint>
          <Trackpoint>
            <Time>2020-03-07T17:21:26.000Z</Time>
            <Position>
              <LatitudeDegrees>40.73313125409185886383056640625</LatitudeDegrees>
              <LongitudeDegrees>-3.7912224791944026947021484375</LongitudeDegrees>
            </Position>
            <AltitudeMeters>905.20001220703125</AltitudeMeters>
            <DistanceMeters>NAN</DistanceMeters>
          </Trackpoint>
          <Trackpoint>
            <Time>2020-03-07T17:21:27.000Z</Time>
            <Position>
              <LatitudeDegrees>40.73310342617332935333251953125</LatitudeDegrees>
              <LongitudeDegrees>-3.79117880947887897491455078125</LongitudeDegrees>
            </Position>
            <AltitudeMeters>905.4000244140625</AltitudeMeters>
            <DistanceMeters>NAN</DistanceMeters>
          </Trackpoint>
          <Trackpoint>
            <Time>2020-03-07T17:21:28.000Z</Time>
            <Position>
              <LatitudeDegrees>40.73307626880705356597900390625</LatitudeDegrees>
              <LongitudeDegrees>-3.79113472066819667816162109375</LongitudeDegrees>
            </Position>
            <AltitudeMeters>905.5999755859375</AltitudeMeters>
            <DistanceMeters>NAN</DistanceMeters>
          </Trackpoint>
          <Trackpoint>
            <Time>2020-03-07T17:21:29.000Z</Time>
            <Position>
              <LatitudeDegrees>40.733049698173999786376953125</LatitudeDegrees>
              <LongitudeDegrees>-3.79109130240976810455322265625</LongitudeDegrees>
            </Position>
            <AltitudeMeters>905.79998779296875</AltitudeMeters>
            <DistanceMeters>NAN</DistanceMeters>
          </Trackpoint>
          <Trackpoint>
            <Time>2020-03-07T17:21:30.000Z</Time>
            <Position>
              <LatitudeDegrees>40.733023546636104583740234375</LatitudeDegrees>
              <LongitudeDegrees>-3.79104838706552982330322265625</LongitudeDegrees>
            </Position>
            <AltitudeMeters>906</AltitudeMeters>
            <DistanceMeters>NAN</DistanceMeters>
          </Trackpoint>
          <Trackpoint>
            <Time>2020-03-07T17:21:31.000Z</Time>
            <Position>
              <LatitudeDegrees>40.73299731127917766571044921875</LatitudeDegrees>
              <LongitudeDegrees>-3.79100664518773555755615234375</LongitudeDegrees>
            </Position>
            <AltitudeMeters>906.20001220703125</AltitudeMeters>
            <DistanceMeters>NAN</DistanceMeters>
          </Trackpoint>
          <Trackpoint>
            <Time>2020-03-07T17:21:32.000Z</Time>
            <Position>
              <LatitudeDegrees>40.732971914112567901611328125</LatitudeDegrees>
              <LongitudeDegrees>-3.790967166423797607421875</LongitudeDegrees>
            </Position>
            <AltitudeMeters>906.4000244140625</AltitudeMeters>
            <DistanceMeters>NAN</DistanceMeters>
          </Trackpoint>
          <Trackpoint>
            <Time>2020-03-07T17:21:33.000Z</Time>
            <Position>
              <LatitudeDegrees>40.7329476065933704376220703125</LatitudeDegrees>
              <LongitudeDegrees>-3.79092835821211338043212890625</LongitudeDegrees>
            </Position>
            <AltitudeMeters>906.5999755859375</AltitudeMeters>
            <DistanceMeters>NAN</DistanceMeters>
          </Trackpoint>
          <Trackpoint>
            <Time>2020-03-07T17:21:34.000Z</Time>
            <Position>
              <LatitudeDegrees>40.73292405344545841217041015625</LatitudeDegrees>
              <LongitudeDegrees>-3.79089198075234889984130859375</LongitudeDegrees>
            </Position>
            <AltitudeMeters>906.79998779296875</AltitudeMeters>
            <DistanceMeters>NAN</DistanceMeters>
          </Trackpoint>
          <Trackpoint>
            <Time>2020-03-07T17:21:35.000Z</Time>
            <Position>
              <LatitudeDegrees>40.73289957828819751739501953125</LatitudeDegrees>
              <LongitudeDegrees>-3.79085526801645755767822265625</LongitudeDegrees>
            </Position>
            <AltitudeMeters>906.79998779296875</AltitudeMeters>
            <DistanceMeters>NAN</DistanceMeters>
          </Trackpoint>
          <Trackpoint>
            <Time>2020-03-07T17:21:36.000Z</Time>
            <Position>
              <LatitudeDegrees>40.732876025140285491943359375</LatitudeDegrees>
              <LongitudeDegrees>-3.790819309651851654052734375</LongitudeDegrees>
            </Position>
            <AltitudeMeters>907.20001220703125</AltitudeMeters>
            <DistanceMeters>NAN</DistanceMeters>
          </Trackpoint>
          <Trackpoint>
            <Time>2020-03-07T17:21:37.000Z</Time>
            <Position>
              <LatitudeDegrees>40.7328522205352783203125</LatitudeDegrees>
              <LongitudeDegrees>-3.7907842732965946197509765625</LongitudeDegrees>
            </Position>
            <AltitudeMeters>907.4000244140625</AltitudeMeters>
            <DistanceMeters>NAN</DistanceMeters>
          </Trackpoint>
          <Trackpoint>
            <Time>2020-03-07T17:21:38.000Z</Time>
            <Position>
              <LatitudeDegrees>40.7328282482922077178955078125</LatitudeDegrees>
              <LongitudeDegrees>-3.790748901665210723876953125</LongitudeDegrees>
            </Position>
            <AltitudeMeters>907.5999755859375</AltitudeMeters>
            <DistanceMeters>NAN</DistanceMeters>
          </Trackpoint>
          <Trackpoint>
            <Time>2020-03-07T17:21:39.000Z</Time>
            <Position>
              <LatitudeDegrees>40.73280251584947109222412109375</LatitudeDegrees>
              <LongitudeDegrees>-3.79071160219609737396240234375</LongitudeDegrees>
            </Position>
            <AltitudeMeters>907.79998779296875</AltitudeMeters>
            <DistanceMeters>NAN</DistanceMeters>
          </Trackpoint>
          <Trackpoint>
            <Time>2020-03-07T17:21:40.000Z</Time>
            <Position>
              <LatitudeDegrees>40.7327776215970516204833984375</LatitudeDegrees>
              <LongitudeDegrees>-3.7906732968986034393310546875</LongitudeDegrees>
            </Position>
            <AltitudeMeters>908</AltitudeMeters>
            <DistanceMeters>NAN</DistanceMeters>
          </Trackpoint>
          <Trackpoint>
            <Time>2020-03-07T17:21:41.000Z</Time>
            <Position>
              <LatitudeDegrees>40.73275205679237842559814453125</LatitudeDegrees>
              <LongitudeDegrees>-3.79063515923917293548583984375</LongitudeDegrees>
            </Position>
            <AltitudeMeters>908.20001220703125</AltitudeMeters>
            <DistanceMeters>NAN</DistanceMeters>
          </Trackpoint>
          <Trackpoint>
            <Time>2020-03-07T17:21:42.000Z</Time>
            <Position>
              <LatitudeDegrees>40.73272573761641979217529296875</LatitudeDegrees>
              <LongitudeDegrees>-3.79059777595102787017822265625</LongitudeDegrees>
            </Position>
            <AltitudeMeters>908.4000244140625</AltitudeMeters>
            <DistanceMeters>NAN</DistanceMeters>
          </Trackpoint>
          <Trackpoint>
            <Time>2020-03-07T17:21:43.000Z</Time>
            <Position>
              <LatitudeDegrees>40.73269958607852458953857421875</LatitudeDegrees>
              <LongitudeDegrees>-3.79056039266288280487060546875</LongitudeDegrees>
            </Position>
            <AltitudeMeters>908.5999755859375</AltitudeMeters>
            <DistanceMeters>NAN</DistanceMeters>
          </Trackpoint>
          <Trackpoint>
            <Time>2020-03-07T17:21:44.000Z</Time>
            <Position>
              <LatitudeDegrees>40.7326733507215976715087890625</LatitudeDegrees>
              <LongitudeDegrees>-3.7905217520892620086669921875</LongitudeDegrees>
            </Position>
            <AltitudeMeters>909</AltitudeMeters>
            <DistanceMeters>NAN</DistanceMeters>
          </Trackpoint>
          <Trackpoint>
            <Time>2020-03-07T17:21:45.000Z</Time>
            <Position>
              <LatitudeDegrees>40.7326458580791950225830078125</LatitudeDegrees>
              <LongitudeDegrees>-3.79048160277307033538818359375</LongitudeDegrees>
            </Position>
            <AltitudeMeters>909.20001220703125</AltitudeMeters>
            <DistanceMeters>NAN</DistanceMeters>
          </Trackpoint>
          <Trackpoint>
            <Time>2020-03-07T17:21:46.000Z</Time>
            <Position>
              <LatitudeDegrees>40.73261777870357036590576171875</LatitudeDegrees>
              <LongitudeDegrees>-3.79044103436172008514404296875</LongitudeDegrees>
            </Position>
            <AltitudeMeters>909.4000244140625</AltitudeMeters>
            <DistanceMeters>NAN</DistanceMeters>
          </Trackpoint>
          <Trackpoint>
            <Time>2020-03-07T17:21:47.000Z</Time>
            <Position>
              <LatitudeDegrees>40.73258995078504085540771484375</LatitudeDegrees>
              <LongitudeDegrees>-3.79039946012198925018310546875</LongitudeDegrees>
            </Position>
            <AltitudeMeters>909.5999755859375</AltitudeMeters>
            <DistanceMeters>NAN</DistanceMeters>
          </Trackpoint>
          <Trackpoint>
            <Time>2020-03-07T17:21:48.000Z</Time>
            <Position>
              <LatitudeDegrees>40.7325623743236064910888671875</LatitudeDegrees>
              <LongitudeDegrees>-3.79035721533000469207763671875</LongitudeDegrees>
            </Position>
            <AltitudeMeters>909.79998779296875</AltitudeMeters>
            <DistanceMeters>NAN</DistanceMeters>
          </Trackpoint>
          <Trackpoint>
            <Time>2020-03-07T17:21:49.000Z</Time>
            <Position>
              <LatitudeDegrees>40.73253395967185497283935546875</LatitudeDegrees>
              <LongitudeDegrees>-3.7903135456144809722900390625</LongitudeDegrees>
            </Position>
            <AltitudeMeters>910</AltitudeMeters>
            <DistanceMeters>NAN</DistanceMeters>
          </Trackpoint>
          <Trackpoint>
            <Time>2020-03-07T17:21:50.000Z</Time>
            <Position>
              <LatitudeDegrees>40.7325050421059131622314453125</LatitudeDegrees>
              <LongitudeDegrees>-3.7902692891657352447509765625</LongitudeDegrees>
            </Position>
            <AltitudeMeters>910.20001220703125</AltitudeMeters>
            <DistanceMeters>NAN</DistanceMeters>
          </Trackpoint>
          <Trackpoint>
            <Time>2020-03-07T17:21:51.000Z</Time>
            <Position>
              <LatitudeDegrees>40.73247696273028850555419921875</LatitudeDegrees>
              <LongitudeDegrees>-3.79022629000246524810791015625</LongitudeDegrees>
            </Position>
            <AltitudeMeters>910.4000244140625</AltitudeMeters>
            <DistanceMeters>NAN</DistanceMeters>
          </Trackpoint>
          <Trackpoint>
            <Time>2020-03-07T17:21:52.000Z</Time>
            <Position>
              <LatitudeDegrees>40.73244947008788585662841796875</LatitudeDegrees>
              <LongitudeDegrees>-3.7901824526488780975341796875</LongitudeDegrees>
            </Position>
            <AltitudeMeters>910.5999755859375</AltitudeMeters>
            <DistanceMeters>NAN</DistanceMeters>
          </Trackpoint>
          <Trackpoint>
            <Time>2020-03-07T17:21:53.000Z</Time>
            <Position>
              <LatitudeDegrees>40.73242130689322948455810546875</LatitudeDegrees>
              <LongitudeDegrees>-3.7901375256478786468505859375</LongitudeDegrees>
            </Position>
            <AltitudeMeters>910.79998779296875</AltitudeMeters>
            <DistanceMeters>NAN</DistanceMeters>
          </Trackpoint>
          <Trackpoint>
            <Time>2020-03-07T17:21:54.000Z</Time>
            <Position>
              <LatitudeDegrees>40.73239381425082683563232421875</LatitudeDegrees>
              <LongitudeDegrees>-3.79009209573268890380859375</LongitudeDegrees>
            </Position>
            <AltitudeMeters>910.79998779296875</AltitudeMeters>
            <DistanceMeters>NAN</DistanceMeters>
          </Trackpoint>
          <Trackpoint>
            <Time>2020-03-07T17:21:55.000Z</Time>
            <Position>
              <LatitudeDegrees>40.73236682452261447906494140625</LatitudeDegrees>
              <LongitudeDegrees>-3.79004783928394317626953125</LongitudeDegrees>
            </Position>
            <AltitudeMeters>911</AltitudeMeters>
            <DistanceMeters>NAN</DistanceMeters>
          </Trackpoint>
          <Trackpoint>
            <Time>2020-03-07T17:21:56.000Z</Time>
            <Position>
              <LatitudeDegrees>40.7323390804231166839599609375</LatitudeDegrees>
              <LongitudeDegrees>-3.7900024093687534332275390625</LongitudeDegrees>
            </Position>
            <AltitudeMeters>911</AltitudeMeters>
            <DistanceMeters>NAN</DistanceMeters>
          </Trackpoint>
          <Trackpoint>
            <Time>2020-03-07T17:21:57.000Z</Time>
            <Position>
              <LatitudeDegrees>40.73231334798038005828857421875</LatitudeDegrees>
              <LongitudeDegrees>-3.78995890729129314422607421875</LongitudeDegrees>
            </Position>
            <AltitudeMeters>911</AltitudeMeters>
            <DistanceMeters>NAN</DistanceMeters>
          </Trackpoint>
          <Trackpoint>
            <Time>2020-03-07T17:21:58.000Z</Time>
            <Position>
              <LatitudeDegrees>40.7322876155376434326171875</LatitudeDegrees>
              <LongitudeDegrees>-3.78991096280515193939208984375</LongitudeDegrees>
            </Position>
            <AltitudeMeters>911.20001220703125</AltitudeMeters>
            <DistanceMeters>NAN</DistanceMeters>
          </Trackpoint>
          <Trackpoint>
            <Time>2020-03-07T17:21:59.000Z</Time>
            <Position>
              <LatitudeDegrees>40.732264816761016845703125</LatitudeDegrees>
              <LongitudeDegrees>-3.7898672930896282196044921875</LongitudeDegrees>
            </Position>
            <AltitudeMeters>911.4000244140625</AltitudeMeters>
            <DistanceMeters>NAN</DistanceMeters>
          </Trackpoint>
          <Trackpoint>
            <Time>2020-03-07T17:22:00.000Z</Time>
            <Position>
              <LatitudeDegrees>40.73223841376602649688720703125</LatitudeDegrees>
              <LongitudeDegrees>-3.78982010297477245330810546875</LongitudeDegrees>
            </Position>
            <AltitudeMeters>911.5999755859375</AltitudeMeters>
            <DistanceMeters>NAN</DistanceMeters>
          </Trackpoint>
          <Trackpoint>
            <Time>2020-03-07T17:22:01.000Z</Time>
            <Position>
              <LatitudeDegrees>40.7322125136852264404296875</LatitudeDegrees>
              <LongitudeDegrees>-3.78977634944021701812744140625</LongitudeDegrees>
            </Position>
            <AltitudeMeters>911.5999755859375</AltitudeMeters>
            <DistanceMeters>NAN</DistanceMeters>
          </Trackpoint>
          <Trackpoint>
            <Time>2020-03-07T17:22:02.000Z</Time>
            <Position>
              <LatitudeDegrees>40.73218560777604579925537109375</LatitudeDegrees>
              <LongitudeDegrees>-3.7897321768105030059814453125</LongitudeDegrees>
            </Position>
            <AltitudeMeters>911.79998779296875</AltitudeMeters>
            <DistanceMeters>NAN</DistanceMeters>
          </Trackpoint>
          <Trackpoint>
            <Time>2020-03-07T17:22:03.000Z</Time>
            <Position>
              <LatitudeDegrees>40.73215928860008716583251953125</LatitudeDegrees>
              <LongitudeDegrees>-3.7896889261901378631591796875</LongitudeDegrees>
            </Position>
            <AltitudeMeters>911.79998779296875</AltitudeMeters>
            <DistanceMeters>NAN</DistanceMeters>
          </Trackpoint>
          <Trackpoint>
            <Time>2020-03-07T17:22:04.000Z</Time>
            <Position>
              <LatitudeDegrees>40.732133388519287109375</LatitudeDegrees>
              <LongitudeDegrees>-3.78964676521718502044677734375</LongitudeDegrees>
            </Position>
            <AltitudeMeters>912</AltitudeMeters>
            <DistanceMeters>NAN</DistanceMeters>
          </Trackpoint>
          <Trackpoint>
            <Time>2020-03-07T17:22:05.000Z</Time>
            <Position>
              <LatitudeDegrees>40.7321057282388210296630859375</LatitudeDegrees>
              <LongitudeDegrees>-3.7896091304719448089599609375</LongitudeDegrees>
            </Position>
            <AltitudeMeters>912</AltitudeMeters>
            <DistanceMeters>NAN</DistanceMeters>
          </Trackpoint>
          <Trackpoint>
            <Time>2020-03-07T17:22:06.000Z</Time>
            <Position>
              <LatitudeDegrees>40.73207731358706951141357421875</LatitudeDegrees>
              <LongitudeDegrees>-3.7895729206502437591552734375</LongitudeDegrees>
            </Position>
            <AltitudeMeters>912.20001220703125</AltitudeMeters>
            <DistanceMeters>NAN</DistanceMeters>
          </Trackpoint>
          <Trackpoint>
            <Time>2020-03-07T17:22:07.000Z</Time>
            <Position>
              <LatitudeDegrees>40.7320504076778888702392578125</LatitudeDegrees>
              <LongitudeDegrees>-3.7895380519330501556396484375</LongitudeDegrees>
            </Position>
            <AltitudeMeters>912.4000244140625</AltitudeMeters>
            <DistanceMeters>NAN</DistanceMeters>
          </Trackpoint>
          <Trackpoint>
            <Time>2020-03-07T17:22:08.000Z</Time>
            <Position>
              <LatitudeDegrees>40.73202266357839107513427734375</LatitudeDegrees>
              <LongitudeDegrees>-3.7895048595964908599853515625</LongitudeDegrees>
            </Position>
            <AltitudeMeters>912.4000244140625</AltitudeMeters>
            <DistanceMeters>NAN</DistanceMeters>
          </Trackpoint>
          <Trackpoint>
            <Time>2020-03-07T17:22:09.000Z</Time>
            <Position>
              <LatitudeDegrees>40.73199567385017871856689453125</LatitudeDegrees>
              <LongitudeDegrees>-3.78947694785892963409423828125</LongitudeDegrees>
            </Position>
            <AltitudeMeters>912.5999755859375</AltitudeMeters>
            <DistanceMeters>NAN</DistanceMeters>
          </Trackpoint>
          <Trackpoint>
            <Time>2020-03-07T17:22:10.000Z</Time>
            <Position>
              <LatitudeDegrees>40.7319696061313152313232421875</LatitudeDegrees>
              <LongitudeDegrees>-3.78945331089198589324951171875</LongitudeDegrees>
            </Position>
            <AltitudeMeters>912.79998779296875</AltitudeMeters>
            <DistanceMeters>NAN</DistanceMeters>
          </Trackpoint>
          <Trackpoint>
            <Time>2020-03-07T17:22:11.000Z</Time>
            <Position>
              <LatitudeDegrees>40.73194538243114948272705078125</LatitudeDegrees>
              <LongitudeDegrees>-3.78943554125726222991943359375</LongitudeDegrees>
            </Position>
            <AltitudeMeters>913</AltitudeMeters>
            <DistanceMeters>NAN</DistanceMeters>
          </Trackpoint>
          <Trackpoint>
            <Time>2020-03-07T17:22:42.000Z</Time>
            <Position>
              <LatitudeDegrees>40.7315652631223201751708984375</LatitudeDegrees>
              <LongitudeDegrees>-3.78957937471568584442138671875</LongitudeDegrees>
            </Position>
            <AltitudeMeters>915.79998779296875</AltitudeMeters>
            <DistanceMeters>NAN</DistanceMeters>
          </Trackpoint>
          <Trackpoint>
            <Time>2020-03-07T17:22:43.000Z</Time>
            <Position>
              <LatitudeDegrees>40.73155160062015056610107421875</LatitudeDegrees>
              <LongitudeDegrees>-3.78958524204790592193603515625</LongitudeDegrees>
            </Position>
            <AltitudeMeters>915.79998779296875</AltitudeMeters>
            <DistanceMeters>NAN</DistanceMeters>
          </Trackpoint>
          <Trackpoint>
            <Time>2020-03-07T17:22:44.000Z</Time>
            <Position>
              <LatitudeDegrees>40.73153584264218807220458984375</LatitudeDegrees>
              <LongitudeDegrees>-3.78959546796977519989013671875</LongitudeDegrees>
            </Position>
            <AltitudeMeters>916</AltitudeMeters>
            <DistanceMeters>NAN</DistanceMeters>
          </Trackpoint>
          <Trackpoint>
            <Time>2020-03-07T17:22:45.000Z</Time>
            <Position>
              <LatitudeDegrees>40.7315132953226566314697265625</LatitudeDegrees>
              <LongitudeDegrees>-3.7896081246435642242431640625</LongitudeDegrees>
            </Position>
            <AltitudeMeters>916</AltitudeMeters>
            <DistanceMeters>NAN</DistanceMeters>
          </Trackpoint>
          <Trackpoint>
            <Time>2020-03-07T17:22:46.000Z</Time>
            <Position>
              <LatitudeDegrees>40.73148521594703197479248046875</LatitudeDegrees>
              <LongitudeDegrees>-3.78962094895541667938232421875</LongitudeDegrees>
            </Position>
            <AltitudeMeters>916</AltitudeMeters>
            <DistanceMeters>NAN</DistanceMeters>
          </Trackpoint>
          <Trackpoint>
            <Time>2020-03-07T17:22:47.000Z</Time>
            <Position>
              <LatitudeDegrees>40.73145269416272640228271484375</LatitudeDegrees>
              <LongitudeDegrees>-3.78963352181017398834228515625</LongitudeDegrees>
            </Position>
            <AltitudeMeters>916</AltitudeMeters>
            <DistanceMeters>NAN</DistanceMeters>
          </Trackpoint>
          <Trackpoint>
            <Time>2020-03-07T17:22:48.000Z</Time>
            <Position>
              <LatitudeDegrees>40.73141631670296192169189453125</LatitudeDegrees>
              <LongitudeDegrees>-3.7896476872265338897705078125</LongitudeDegrees>
            </Position>
            <AltitudeMeters>916</AltitudeMeters>
            <DistanceMeters>NAN</DistanceMeters>
          </Trackpoint>
          <Trackpoint>
            <Time>2020-03-07T17:22:49.000Z</Time>
            <Position>
              <LatitudeDegrees>40.7313741557300090789794921875</LatitudeDegrees>
              <LongitudeDegrees>-3.789663277566432952880859375</LongitudeDegrees>
            </Position>
            <AltitudeMeters>916</AltitudeMeters>
            <DistanceMeters>NAN</DistanceMeters>
          </Trackpoint>
          <Trackpoint>
            <Time>2020-03-07T17:22:50.000Z</Time>
            <Position>
              <LatitudeDegrees>40.731330402195453643798828125</LatitudeDegrees>
              <LongitudeDegrees>-3.78968029282987117767333984375</LongitudeDegrees>
            </Position>
            <AltitudeMeters>916</AltitudeMeters>
            <DistanceMeters>NAN</DistanceMeters>
          </Trackpoint>
          <Trackpoint>
            <Time>2020-03-07T17:22:51.000Z</Time>
            <Position>
              <LatitudeDegrees>40.7312886603176593780517578125</LatitudeDegrees>
              <LongitudeDegrees>-3.7896969728171825408935546875</LongitudeDegrees>
            </Position>
            <AltitudeMeters>916</AltitudeMeters>
            <DistanceMeters>NAN</DistanceMeters>
          </Trackpoint>
          <Trackpoint>
            <Time>2020-03-07T17:22:52.000Z</Time>
            <Position>
              <LatitudeDegrees>40.73124750517308712005615234375</LatitudeDegrees>
              <LongitudeDegrees>-3.78971415571868419647216796875</LongitudeDegrees>
            </Position>
            <AltitudeMeters>916.20001220703125</AltitudeMeters>
            <DistanceMeters>NAN</DistanceMeters>
          </Trackpoint>
          <Trackpoint>
            <Time>2020-03-07T17:22:53.000Z</Time>
            <Position>
              <LatitudeDegrees>40.73120760731399059295654296875</LatitudeDegrees>
              <LongitudeDegrees>-3.7897335179150104522705078125</LongitudeDegrees>
            </Position>
            <AltitudeMeters>916.20001220703125</AltitudeMeters>
            <DistanceMeters>NAN</DistanceMeters>
          </Trackpoint>
          <Trackpoint>
            <Time>2020-03-07T17:22:54.000Z</Time>
            <Position>
              <LatitudeDegrees>40.731168128550052642822265625</LatitudeDegrees>
              <LongitudeDegrees>-3.7897512875497341156005859375</LongitudeDegrees>
            </Position>
            <AltitudeMeters>916.20001220703125</AltitudeMeters>
            <DistanceMeters>NAN</DistanceMeters>
          </Trackpoint>
          <Trackpoint>
            <Time>2020-03-07T17:22:55.000Z</Time>
            <Position>
              <LatitudeDegrees>40.731129907071590423583984375</LatitudeDegrees>
              <LongitudeDegrees>-3.78976888954639434814453125</LongitudeDegrees>
            </Position>
            <AltitudeMeters>916.20001220703125</AltitudeMeters>
            <DistanceMeters>NAN</DistanceMeters>
          </Trackpoint>
          <Trackpoint>
            <Time>2020-03-07T17:22:56.000Z</Time>
            <Position>
              <LatitudeDegrees>40.731091685593128204345703125</LatitudeDegrees>
              <LongitudeDegrees>-3.78978322260081768035888671875</LongitudeDegrees>
            </Position>
            <AltitudeMeters>916</AltitudeMeters>
            <DistanceMeters>NAN</DistanceMeters>
          </Trackpoint>
          <Trackpoint>
            <Time>2020-03-07T17:22:57.000Z</Time>
            <Position>
              <LatitudeDegrees>40.73105405084788799285888671875</LatitudeDegrees>
              <LongitudeDegrees>-3.78979579545557498931884765625</LongitudeDegrees>
            </Position>
            <AltitudeMeters>916.20001220703125</AltitudeMeters>
            <DistanceMeters>NAN</DistanceMeters>
          </Trackpoint>
          <Trackpoint>
            <Time>2020-03-07T17:22:58.000Z</Time>
            <Position>
              <LatitudeDegrees>40.731015913188457489013671875</LatitudeDegrees>
              <LongitudeDegrees>-3.78980501554906368255615234375</LongitudeDegrees>
            </Position>
            <AltitudeMeters>916</AltitudeMeters>
            <DistanceMeters>NAN</DistanceMeters>
          </Trackpoint>
          <Trackpoint>
            <Time>2020-03-07T17:22:59.000Z</Time>
            <Position>
              <LatitudeDegrees>40.7309758476912975311279296875</LatitudeDegrees>
              <LongitudeDegrees>-3.7898156605660915374755859375</LongitudeDegrees>
            </Position>
            <AltitudeMeters>916.20001220703125</AltitudeMeters>
            <DistanceMeters>NAN</DistanceMeters>
          </Trackpoint>
          <Trackpoint>
            <Time>2020-03-07T17:23:00.000Z</Time>
            <Position>
              <LatitudeDegrees>40.73093519546091556549072265625</LatitudeDegrees>
              <LongitudeDegrees>-3.7898260541260242462158203125</LongitudeDegrees>
            </Position>
            <AltitudeMeters>916.5999755859375</AltitudeMeters>
            <DistanceMeters>NAN</DistanceMeters>
          </Trackpoint>
          <Trackpoint>
            <Time>2020-03-07T17:23:01.000Z</Time>
            <Position>
              <LatitudeDegrees>40.73089563287794589996337890625</LatitudeDegrees>
              <LongitudeDegrees>-3.789839632809162139892578125</LongitudeDegrees>
            </Position>
            <AltitudeMeters>916.79998779296875</AltitudeMeters>
            <DistanceMeters>NAN</DistanceMeters>
          </Trackpoint>
          <Trackpoint>
            <Time>2020-03-07T17:23:02.000Z</Time>
            <Position>
              <LatitudeDegrees>40.73085506446659564971923828125</LatitudeDegrees>
              <LongitudeDegrees>-3.78985228948295116424560546875</LongitudeDegrees>
            </Position>
            <AltitudeMeters>916.79998779296875</AltitudeMeters>
            <DistanceMeters>NAN</DistanceMeters>
          </Trackpoint>
          <Trackpoint>
            <Time>2020-03-07T17:23:03.000Z</Time>
            <Position>
              <LatitudeDegrees>40.73081617243587970733642578125</LatitudeDegrees>
              <LongitudeDegrees>-3.7898688018321990966796875</LongitudeDegrees>
            </Position>
            <AltitudeMeters>916.79998779296875</AltitudeMeters>
            <DistanceMeters>NAN</DistanceMeters>
          </Trackpoint>
          <Trackpoint>
            <Time>2020-03-07T17:23:04.000Z</Time>
            <Position>
              <LatitudeDegrees>40.7307763583958148956298828125</LatitudeDegrees>
              <LongitudeDegrees>-3.78988447599112987518310546875</LongitudeDegrees>
            </Position>
            <AltitudeMeters>917.20001220703125</AltitudeMeters>
            <DistanceMeters>NAN</DistanceMeters>
          </Trackpoint>
          <Trackpoint>
            <Time>2020-03-07T17:23:05.000Z</Time>
            <Position>
              <LatitudeDegrees>40.7307361252605915069580078125</LatitudeDegrees>
              <LongitudeDegrees>-3.78989906050264835357666015625</LongitudeDegrees>
            </Position>
            <AltitudeMeters>917</AltitudeMeters>
            <DistanceMeters>NAN</DistanceMeters>
          </Trackpoint>
          <Trackpoint>
            <Time>2020-03-07T17:23:06.000Z</Time>
            <Position>
              <LatitudeDegrees>40.730696730315685272216796875</LatitudeDegrees>
              <LongitudeDegrees>-3.789913393557071685791015625</LongitudeDegrees>
            </Position>
            <AltitudeMeters>917.4000244140625</AltitudeMeters>
            <DistanceMeters>NAN</DistanceMeters>
          </Trackpoint>
          <Trackpoint>
            <Time>2020-03-07T17:23:07.000Z</Time>
            <Position>
              <LatitudeDegrees>40.73065607808530330657958984375</LatitudeDegrees>
              <LongitudeDegrees>-3.78992713987827301025390625</LongitudeDegrees>
            </Position>
            <AltitudeMeters>917.20001220703125</AltitudeMeters>
            <DistanceMeters>NAN</DistanceMeters>
          </Trackpoint>
          <Trackpoint>
            <Time>2020-03-07T17:23:08.000Z</Time>
            <Position>
              <LatitudeDegrees>40.73061584495007991790771484375</LatitudeDegrees>
              <LongitudeDegrees>-3.7899417243897914886474609375</LongitudeDegrees>
            </Position>
            <AltitudeMeters>917.20001220703125</AltitudeMeters>
            <DistanceMeters>NAN</DistanceMeters>
          </Trackpoint>
          <Trackpoint>
            <Time>2020-03-07T17:23:09.000Z</Time>
            <Position>
              <LatitudeDegrees>40.730576701462268829345703125</LatitudeDegrees>
              <LongitudeDegrees>-3.789957650005817413330078125</LongitudeDegrees>
            </Position>
            <AltitudeMeters>917.4000244140625</AltitudeMeters>
            <DistanceMeters>NAN</DistanceMeters>
          </Trackpoint>
          <Trackpoint>
            <Time>2020-03-07T17:23:10.000Z</Time>
            <Position>
              <LatitudeDegrees>40.73053873144090175628662109375</LatitudeDegrees>
              <LongitudeDegrees>-3.7899765931069850921630859375</LongitudeDegrees>
            </Position>
            <AltitudeMeters>917.4000244140625</AltitudeMeters>
            <DistanceMeters>NAN</DistanceMeters>
          </Trackpoint>
          <Trackpoint>
            <Time>2020-03-07T17:23:11.000Z</Time>
            <Position>
              <LatitudeDegrees>40.7305007614195346832275390625</LatitudeDegrees>
              <LongitudeDegrees>-3.78999863751232624053955078125</LongitudeDegrees>
            </Position>
            <AltitudeMeters>917.4000244140625</AltitudeMeters>
            <DistanceMeters>NAN</DistanceMeters>
          </Trackpoint>
          <Trackpoint>
            <Time>2020-03-07T17:23:12.000Z</Time>
            <Position>
              <LatitudeDegrees>40.7304638810455799102783203125</LatitudeDegrees>
              <LongitudeDegrees>-3.790023364126682281494140625</LongitudeDegrees>
            </Position>
            <AltitudeMeters>917.5999755859375</AltitudeMeters>
            <DistanceMeters>NAN</DistanceMeters>
          </Trackpoint>
          <Trackpoint>
            <Time>2020-03-07T17:23:13.000Z</Time>
            <Position>
              <LatitudeDegrees>40.73042775504291057586669921875</LatitudeDegrees>
              <LongitudeDegrees>-3.790052197873592376708984375</LongitudeDegrees>
            </Position>
            <AltitudeMeters>917.79998779296875</AltitudeMeters>
            <DistanceMeters>NAN</DistanceMeters>
          </Trackpoint>
          <Trackpoint>
            <Time>2020-03-07T17:23:14.000Z</Time>
            <Position>
              <LatitudeDegrees>40.73039062321186065673828125</LatitudeDegrees>
              <LongitudeDegrees>-3.790079690515995025634765625</LongitudeDegrees>
            </Position>
            <AltitudeMeters>918</AltitudeMeters>
            <DistanceMeters>NAN</DistanceMeters>
          </Trackpoint>
          <Trackpoint>
            <Time>2020-03-07T17:23:15.000Z</Time>
            <Position>
              <LatitudeDegrees>40.73035315610468387603759765625</LatitudeDegrees>
              <LongitudeDegrees>-3.79010408185422420501708984375</LongitudeDegrees>
            </Position>
            <AltitudeMeters>918.5999755859375</AltitudeMeters>
            <DistanceMeters>NAN</DistanceMeters>
          </Trackpoint>
          <Trackpoint>
            <Time>2020-03-07T17:23:16.000Z</Time>
            <Position>
              <LatitudeDegrees>40.7303146831691265106201171875</LatitudeDegrees>
              <LongitudeDegrees>-3.79012889228761196136474609375</LongitudeDegrees>
            </Position>
            <AltitudeMeters>918.5999755859375</AltitudeMeters>
            <DistanceMeters>NAN</DistanceMeters>
          </Trackpoint>
          <Trackpoint>
            <Time>2020-03-07T17:23:17.000Z</Time>
            <Position>
              <LatitudeDegrees>40.73027662932872772216796875</LatitudeDegrees>
              <LongitudeDegrees>-3.7901531159877777099609375</LongitudeDegrees>
            </Position>
            <AltitudeMeters>918.79998779296875</AltitudeMeters>
            <DistanceMeters>NAN</DistanceMeters>
          </Trackpoint>
          <Trackpoint>
            <Time>2020-03-07T17:23:18.000Z</Time>
            <Position>
              <LatitudeDegrees>40.73023547418415546417236328125</LatitudeDegrees>
              <LongitudeDegrees>-3.7901723943650722503662109375</LongitudeDegrees>
            </Position>
            <AltitudeMeters>919</AltitudeMeters>
            <DistanceMeters>NAN</DistanceMeters>
          </Trackpoint>
          <Trackpoint>
            <Time>2020-03-07T17:23:19.000Z</Time>
            <Position>
              <LatitudeDegrees>40.73019674979150295257568359375</LatitudeDegrees>
              <LongitudeDegrees>-3.79019200801849365234375</LongitudeDegrees>
            </Position>
            <AltitudeMeters>919.20001220703125</AltitudeMeters>
            <DistanceMeters>NAN</DistanceMeters>
          </Trackpoint>
          <Trackpoint>
            <Time>2020-03-07T17:23:20.000Z</Time>
            <Position>
              <LatitudeDegrees>40.7301581092178821563720703125</LatitudeDegrees>
              <LongitudeDegrees>-3.79020768217742443084716796875</LongitudeDegrees>
            </Position>
            <AltitudeMeters>919.20001220703125</AltitudeMeters>
            <DistanceMeters>NAN</DistanceMeters>
          </Trackpoint>
          <Trackpoint>
            <Time>2020-03-07T17:23:21.000Z</Time>
            <Position>
              <LatitudeDegrees>40.7301177084445953369140625</LatitudeDegrees>
              <LongitudeDegrees>-3.7902179919183254241943359375</LongitudeDegrees>
            </Position>
            <AltitudeMeters>919.4000244140625</AltitudeMeters>
            <DistanceMeters>NAN</DistanceMeters>
          </Trackpoint>
          <Trackpoint>
            <Time>2020-03-07T17:23:22.000Z</Time>
            <Position>
              <LatitudeDegrees>40.7300759665668010711669921875</LatitudeDegrees>
              <LongitudeDegrees>-3.79022486507892608642578125</LongitudeDegrees>
            </Position>
            <AltitudeMeters>919.4000244140625</AltitudeMeters>
            <DistanceMeters>NAN</DistanceMeters>
          </Trackpoint>
          <Trackpoint>
            <Time>2020-03-07T17:23:23.000Z</Time>
            <Position>
              <LatitudeDegrees>40.73003414086997509002685546875</LatitudeDegrees>
              <LongitudeDegrees>-3.79023198969662189483642578125</LongitudeDegrees>
            </Position>
            <AltitudeMeters>919.4000244140625</AltitudeMeters>
            <DistanceMeters>NAN</DistanceMeters>
          </Trackpoint>
          <Trackpoint>
            <Time>2020-03-07T17:23:24.000Z</Time>
            <Position>
              <LatitudeDegrees>40.729990303516387939453125</LatitudeDegrees>
              <LongitudeDegrees>-3.79023970104753971099853515625</LongitudeDegrees>
            </Position>
            <AltitudeMeters>919.5999755859375</AltitudeMeters>
            <DistanceMeters>NAN</DistanceMeters>
          </Trackpoint>
          <Trackpoint>
            <Time>2020-03-07T17:23:25.000Z</Time>
            <Position>
              <LatitudeDegrees>40.729944705963134765625</LatitudeDegrees>
              <LongitudeDegrees>-3.79025126807391643524169921875</LongitudeDegrees>
            </Position>
            <AltitudeMeters>919.79998779296875</AltitudeMeters>
            <DistanceMeters>NAN</DistanceMeters>
          </Trackpoint>
          <Trackpoint>
            <Time>2020-03-07T17:23:26.000Z</Time>
            <Position>
              <LatitudeDegrees>40.72989969514310359954833984375</LatitudeDegrees>
              <LongitudeDegrees>-3.79026719368994235992431640625</LongitudeDegrees>
            </Position>
            <AltitudeMeters>919.79998779296875</AltitudeMeters>
            <DistanceMeters>NAN</DistanceMeters>
          </Trackpoint>
          <Trackpoint>
            <Time>2020-03-07T17:23:27.000Z</Time>
            <Position>
              <LatitudeDegrees>40.729856193065643310546875</LatitudeDegrees>
              <LongitudeDegrees>-3.7902843765914440155029296875</LongitudeDegrees>
            </Position>
            <AltitudeMeters>920</AltitudeMeters>
            <DistanceMeters>NAN</DistanceMeters>
          </Trackpoint>
          <Trackpoint>
            <Time>2020-03-07T17:23:28.000Z</Time>
            <Position>
              <LatitudeDegrees>40.72981285862624645233154296875</LatitudeDegrees>
              <LongitudeDegrees>-3.790303654968738555908203125</LongitudeDegrees>
            </Position>
            <AltitudeMeters>920.20001220703125</AltitudeMeters>
            <DistanceMeters>NAN</DistanceMeters>
          </Trackpoint>
          <Trackpoint>
            <Time>2020-03-07T17:23:29.000Z</Time>
            <Position>
              <LatitudeDegrees>40.7297688536345958709716796875</LatitudeDegrees>
              <LongitudeDegrees>-3.79032410681247711181640625</LongitudeDegrees>
            </Position>
            <AltitudeMeters>920.20001220703125</AltitudeMeters>
            <DistanceMeters>NAN</DistanceMeters>
          </Trackpoint>
          <Trackpoint>
            <Time>2020-03-07T17:23:30.000Z</Time>
            <Position>
              <LatitudeDegrees>40.72972518391907215118408203125</LatitudeDegrees>
              <LongitudeDegrees>-3.79034447483718395233154296875</LongitudeDegrees>
            </Position>
            <AltitudeMeters>920.4000244140625</AltitudeMeters>
            <DistanceMeters>NAN</DistanceMeters>
          </Trackpoint>
          <Trackpoint>
            <Time>2020-03-07T17:23:31.000Z</Time>
            <Position>
              <LatitudeDegrees>40.72967891581356525421142578125</LatitudeDegrees>
              <LongitudeDegrees>-3.79036090336740016937255859375</LongitudeDegrees>
            </Position>
            <AltitudeMeters>920.4000244140625</AltitudeMeters>
            <DistanceMeters>NAN</DistanceMeters>
          </Trackpoint>
          <Trackpoint>
            <Time>2020-03-07T17:23:32.000Z</Time>
            <Position>
              <LatitudeDegrees>40.72963298298418521881103515625</LatitudeDegrees>
              <LongitudeDegrees>-3.79037565551698207855224609375</LongitudeDegrees>
            </Position>
            <AltitudeMeters>920.5999755859375</AltitudeMeters>
            <DistanceMeters>NAN</DistanceMeters>
          </Trackpoint>
          <Trackpoint>
            <Time>2020-03-07T17:23:33.000Z</Time>
            <Position>
              <LatitudeDegrees>40.72958788834512233734130859375</LatitudeDegrees>
              <LongitudeDegrees>-3.790389485657215118408203125</LongitudeDegrees>
            </Position>
            <AltitudeMeters>920.5999755859375</AltitudeMeters>
            <DistanceMeters>NAN</DistanceMeters>
          </Trackpoint>
          <Trackpoint>
            <Time>2020-03-07T17:23:34.000Z</Time>
            <Position>
              <LatitudeDegrees>40.729543380439281463623046875</LatitudeDegrees>
              <LongitudeDegrees>-3.7904027290642261505126953125</LongitudeDegrees>
            </Position>
            <AltitudeMeters>920.79998779296875</AltitudeMeters>
            <DistanceMeters>NAN</DistanceMeters>
          </Trackpoint>
          <Trackpoint>
            <Time>2020-03-07T17:23:35.000Z</Time>
            <Position>
              <LatitudeDegrees>40.729501806199550628662109375</LatitudeDegrees>
              <LongitudeDegrees>-3.79042075015604496002197265625</LongitudeDegrees>
            </Position>
            <AltitudeMeters>921</AltitudeMeters>
            <DistanceMeters>NAN</DistanceMeters>
          </Trackpoint>
          <Trackpoint>
            <Time>2020-03-07T17:23:36.000Z</Time>
            <Position>
              <LatitudeDegrees>40.7294597290456295013427734375</LatitudeDegrees>
              <LongitudeDegrees>-3.79043717868626117706298828125</LongitudeDegrees>
            </Position>
            <AltitudeMeters>921</AltitudeMeters>
            <DistanceMeters>NAN</DistanceMeters>
          </Trackpoint>
          <Trackpoint>
            <Time>2020-03-07T17:23:37.000Z</Time>
            <Position>
              <LatitudeDegrees>40.72941639460623264312744140625</LatitudeDegrees>
              <LongitudeDegrees>-3.79045310430228710174560546875</LongitudeDegrees>
            </Position>
            <AltitudeMeters>921</AltitudeMeters>
            <DistanceMeters>NAN</DistanceMeters>
          </Trackpoint>
          <Trackpoint>
            <Time>2020-03-07T17:23:38.000Z</Time>
            <Position>
              <LatitudeDegrees>40.72937062941491603851318359375</LatitudeDegrees>
              <LongitudeDegrees>-3.790467940270900726318359375</LongitudeDegrees>
            </Position>
            <AltitudeMeters>921</AltitudeMeters>
            <DistanceMeters>NAN</DistanceMeters>
          </Trackpoint>
          <Trackpoint>
            <Time>2020-03-07T17:23:39.000Z</Time>
            <Position>
              <LatitudeDegrees>40.7293229363858699798583984375</LatitudeDegrees>
              <LongitudeDegrees>-3.79048478789627552032470703125</LongitudeDegrees>
            </Position>
            <AltitudeMeters>921</AltitudeMeters>
            <DistanceMeters>NAN</DistanceMeters>
          </Trackpoint>
          <Trackpoint>
            <Time>2020-03-07T17:23:40.000Z</Time>
            <Position>
              <LatitudeDegrees>40.72927356697618961334228515625</LatitudeDegrees>
              <LongitudeDegrees>-3.79050054587423801422119140625</LongitudeDegrees>
            </Position>
            <AltitudeMeters>921</AltitudeMeters>
            <DistanceMeters>NAN</DistanceMeters>
          </Trackpoint>
          <Trackpoint>
            <Time>2020-03-07T17:23:41.000Z</Time>
            <Position>
              <LatitudeDegrees>40.7292203418910503387451171875</LatitudeDegrees>
              <LongitudeDegrees>-3.79051529802381992340087890625</LongitudeDegrees>
            </Position>
            <AltitudeMeters>921</AltitudeMeters>
            <DistanceMeters>NAN</DistanceMeters>
          </Trackpoint>
          <Trackpoint>
            <Time>2020-03-07T17:23:42.000Z</Time>
            <Position>
              <LatitudeDegrees>40.72916711680591106414794921875</LatitudeDegrees>
              <LongitudeDegrees>-3.79053172655403614044189453125</LongitudeDegrees>
            </Position>
            <AltitudeMeters>921</AltitudeMeters>
            <DistanceMeters>NAN</DistanceMeters>
          </Trackpoint>
          <Trackpoint>
            <Time>2020-03-07T17:23:43.000Z</Time>
            <Position>
              <LatitudeDegrees>40.72911179624497890472412109375</LatitudeDegrees>
              <LongitudeDegrees>-3.7905475683510303497314453125</LongitudeDegrees>
            </Position>
            <AltitudeMeters>921.20001220703125</AltitudeMeters>
            <DistanceMeters>NAN</DistanceMeters>
          </Trackpoint>
          <Trackpoint>
            <Time>2020-03-07T17:23:44.000Z</Time>
            <Position>
              <LatitudeDegrees>40.7290530391037464141845703125</LatitudeDegrees>
              <LongitudeDegrees>-3.7905623205006122589111328125</LongitudeDegrees>
            </Position>
            <AltitudeMeters>921</AltitudeMeters>
            <DistanceMeters>NAN</DistanceMeters>
          </Trackpoint>
          <Trackpoint>
            <Time>2020-03-07T17:23:45.000Z</Time>
            <Position>
              <LatitudeDegrees>40.7289950363337993621826171875</LatitudeDegrees>
              <LongitudeDegrees>-3.79057983867824077606201171875</LongitudeDegrees>
            </Position>
            <AltitudeMeters>921</AltitudeMeters>
            <DistanceMeters>NAN</DistanceMeters>
          </Trackpoint>
          <Trackpoint>
            <Time>2020-03-07T17:23:46.000Z</Time>
            <Position>
              <LatitudeDegrees>40.72893829084932804107666015625</LatitudeDegrees>
              <LongitudeDegrees>-3.7905968539416790008544921875</LongitudeDegrees>
            </Position>
            <AltitudeMeters>921</AltitudeMeters>
            <DistanceMeters>NAN</DistanceMeters>
          </Trackpoint>
          <Trackpoint>
            <Time>2020-03-07T17:23:47.000Z</Time>
            <Position>
              <LatitudeDegrees>40.72888062335550785064697265625</LatitudeDegrees>
              <LongitudeDegrees>-3.7906136177480220794677734375</LongitudeDegrees>
            </Position>
            <AltitudeMeters>921</AltitudeMeters>
            <DistanceMeters>NAN</DistanceMeters>
          </Trackpoint>
          <Trackpoint>
            <Time>2020-03-07T17:23:48.000Z</Time>
            <Position>
              <LatitudeDegrees>40.72882161475718021392822265625</LatitudeDegrees>
              <LongitudeDegrees>-3.79062853753566741943359375</LongitudeDegrees>
            </Position>
            <AltitudeMeters>920.79998779296875</AltitudeMeters>
            <DistanceMeters>NAN</DistanceMeters>
          </Trackpoint>
          <Trackpoint>
            <Time>2020-03-07T17:23:49.000Z</Time>
            <Position>
              <LatitudeDegrees>40.728762857615947723388671875</LatitudeDegrees>
              <LongitudeDegrees>-3.79064437933266162872314453125</LongitudeDegrees>
            </Position>
            <AltitudeMeters>920.5999755859375</AltitudeMeters>
            <DistanceMeters>NAN</DistanceMeters>
          </Trackpoint>
          <Trackpoint>
            <Time>2020-03-07T17:23:50.000Z</Time>
            <Position>
              <LatitudeDegrees>40.728704519569873809814453125</LatitudeDegrees>
              <LongitudeDegrees>-3.7906612269580364227294921875</LongitudeDegrees>
            </Position>
            <AltitudeMeters>920.4000244140625</AltitudeMeters>
            <DistanceMeters>NAN</DistanceMeters>
          </Trackpoint>
          <Trackpoint>
            <Time>2020-03-07T17:23:51.000Z</Time>
            <Position>
              <LatitudeDegrees>40.72864593006670475006103515625</LatitudeDegrees>
              <LongitudeDegrees>-3.79067840985953807830810546875</LongitudeDegrees>
            </Position>
            <AltitudeMeters>920.4000244140625</AltitudeMeters>
            <DistanceMeters>NAN</DistanceMeters>
          </Trackpoint>
          <Trackpoint>
            <Time>2020-03-07T17:23:52.000Z</Time>
            <Position>
              <LatitudeDegrees>40.7285861670970916748046875</LatitudeDegrees>
              <LongitudeDegrees>-3.7906957603991031646728515625</LongitudeDegrees>
            </Position>
            <AltitudeMeters>920.20001220703125</AltitudeMeters>
            <DistanceMeters>NAN</DistanceMeters>
          </Trackpoint>
          <Trackpoint>
            <Time>2020-03-07T17:23:53.000Z</Time>
            <Position>
              <LatitudeDegrees>40.7285256497561931610107421875</LatitudeDegrees>
              <LongitudeDegrees>-3.79071361385285854339599609375</LongitudeDegrees>
            </Position>
            <AltitudeMeters>920</AltitudeMeters>
            <DistanceMeters>NAN</DistanceMeters>
          </Trackpoint>
          <Trackpoint>
            <Time>2020-03-07T17:23:54.000Z</Time>
            <Position>
              <LatitudeDegrees>40.72846421040594577789306640625</LatitudeDegrees>
              <LongitudeDegrees>-3.79073171876370906829833984375</LongitudeDegrees>
            </Position>
            <AltitudeMeters>919.79998779296875</AltitudeMeters>
            <DistanceMeters>NAN</DistanceMeters>
          </Trackpoint>
          <Trackpoint>
            <Time>2020-03-07T17:23:55.000Z</Time>
            <Position>
              <LatitudeDegrees>40.72840335778892040252685546875</LatitudeDegrees>
              <LongitudeDegrees>-3.79075191915035247802734375</LongitudeDegrees>
            </Position>
            <AltitudeMeters>919.5999755859375</AltitudeMeters>
            <DistanceMeters>NAN</DistanceMeters>
          </Trackpoint>
          <Trackpoint>
            <Time>2020-03-07T17:23:56.000Z</Time>
            <Position>
              <LatitudeDegrees>40.7283412478864192962646484375</LatitudeDegrees>
              <LongitudeDegrees>-3.79077178426086902618408203125</LongitudeDegrees>
            </Position>
            <AltitudeMeters>919.4000244140625</AltitudeMeters>
            <DistanceMeters>NAN</DistanceMeters>
          </Trackpoint>
          <Trackpoint>
            <Time>2020-03-07T17:23:57.000Z</Time>
            <Position>
              <LatitudeDegrees>40.72827796451747417449951171875</LatitudeDegrees>
              <LongitudeDegrees>-3.7907909788191318511962890625</LongitudeDegrees>
            </Position>
            <AltitudeMeters>919.4000244140625</AltitudeMeters>
            <DistanceMeters>NAN</DistanceMeters>
          </Trackpoint>
          <Trackpoint>
            <Time>2020-03-07T17:23:58.000Z</Time>
            <Position>
              <LatitudeDegrees>40.72821375913918018341064453125</LatitudeDegrees>
              <LongitudeDegrees>-3.79081084392964839935302734375</LongitudeDegrees>
            </Position>
            <AltitudeMeters>919</AltitudeMeters>
            <DistanceMeters>NAN</DistanceMeters>
          </Trackpoint>
          <Trackpoint>
            <Time>2020-03-07T17:23:59.000Z</Time>
            <Position>
              <LatitudeDegrees>40.72814921848475933074951171875</LatitudeDegrees>
              <LongitudeDegrees>-3.79083246923983097076416015625</LongitudeDegrees>
            </Position>
            <AltitudeMeters>918.79998779296875</AltitudeMeters>
            <DistanceMeters>NAN</DistanceMeters>
          </Trackpoint>
          <Trackpoint>
            <Time>2020-03-07T17:24:00.000Z</Time>
            <Position>
              <LatitudeDegrees>40.72808392345905303955078125</LatitudeDegrees>
              <LongitudeDegrees>-3.7908546812832355499267578125</LongitudeDegrees>
            </Position>
            <AltitudeMeters>918.5999755859375</AltitudeMeters>
            <DistanceMeters>NAN</DistanceMeters>
          </Trackpoint>
          <Trackpoint>
            <Time>2020-03-07T17:24:01.000Z</Time>
            <Position>
              <LatitudeDegrees>40.72801661677658557891845703125</LatitudeDegrees>
              <LongitudeDegrees>-3.7908761389553546905517578125</LongitudeDegrees>
            </Position>
            <AltitudeMeters>918.4000244140625</AltitudeMeters>
            <DistanceMeters>NAN</DistanceMeters>
          </Trackpoint>
          <Trackpoint>
            <Time>2020-03-07T17:24:02.000Z</Time>
            <Position>
              <LatitudeDegrees>40.7279493100941181182861328125</LatitudeDegrees>
              <LongitudeDegrees>-3.79089717753231525421142578125</LongitudeDegrees>
            </Position>
            <AltitudeMeters>918.20001220703125</AltitudeMeters>
            <DistanceMeters>NAN</DistanceMeters>
          </Trackpoint>
          <Trackpoint>
            <Time>2020-03-07T17:24:03.000Z</Time>
            <Position>
              <LatitudeDegrees>40.727880410850048065185546875</LatitudeDegrees>
              <LongitudeDegrees>-3.7909177131950855255126953125</LongitudeDegrees>
            </Position>
            <AltitudeMeters>918</AltitudeMeters>
            <DistanceMeters>NAN</DistanceMeters>
          </Trackpoint>
          <Trackpoint>
            <Time>2020-03-07T17:24:04.000Z</Time>
            <Position>
              <LatitudeDegrees>40.7278111763298511505126953125</LatitudeDegrees>
              <LongitudeDegrees>-3.79093875177204608917236328125</LongitudeDegrees>
            </Position>
            <AltitudeMeters>917.79998779296875</AltitudeMeters>
            <DistanceMeters>NAN</DistanceMeters>
          </Trackpoint>
          <Trackpoint>
            <Time>2020-03-07T17:24:05.000Z</Time>
            <Position>
              <LatitudeDegrees>40.72773967869579792022705078125</LatitudeDegrees>
              <LongitudeDegrees>-3.7909582816064357757568359375</LongitudeDegrees>
            </Position>
            <AltitudeMeters>917.5999755859375</AltitudeMeters>
            <DistanceMeters>NAN</DistanceMeters>
          </Trackpoint>
          <Trackpoint>
            <Time>2020-03-07T17:24:06.000Z</Time>
            <Position>
              <LatitudeDegrees>40.7276680134236812591552734375</LatitudeDegrees>
              <LongitudeDegrees>-3.79097814671695232391357421875</LongitudeDegrees>
            </Position>
            <AltitudeMeters>917.4000244140625</AltitudeMeters>
            <DistanceMeters>NAN</DistanceMeters>
          </Trackpoint>
          <Trackpoint>
            <Time>2020-03-07T17:24:07.000Z</Time>
            <Position>
              <LatitudeDegrees>40.72759601287543773651123046875</LatitudeDegrees>
              <LongitudeDegrees>-3.79099910147488117218017578125</LongitudeDegrees>
            </Position>
            <AltitudeMeters>917.20001220703125</AltitudeMeters>
            <DistanceMeters>NAN</DistanceMeters>
          </Trackpoint>
          <Trackpoint>
            <Time>2020-03-07T17:24:08.000Z</Time>
            <Position>
              <LatitudeDegrees>40.72752535343170166015625</LatitudeDegrees>
              <LongitudeDegrees>-3.7910219840705394744873046875</LongitudeDegrees>
            </Position>
            <AltitudeMeters>917.20001220703125</AltitudeMeters>
            <DistanceMeters>NAN</DistanceMeters>
          </Trackpoint>
          <Trackpoint>
            <Time>2020-03-07T17:24:09.000Z</Time>
            <Position>
              <LatitudeDegrees>40.72745536454021930694580078125</LatitudeDegrees>
              <LongitudeDegrees>-3.791047632694244384765625</LongitudeDegrees>
            </Position>
            <AltitudeMeters>917</AltitudeMeters>
            <DistanceMeters>NAN</DistanceMeters>
          </Trackpoint>
          <Trackpoint>
            <Time>2020-03-07T17:24:10.000Z</Time>
            <Position>
              <LatitudeDegrees>40.72738512419164180755615234375</LatitudeDegrees>
              <LongitudeDegrees>-3.791074119508266448974609375</LongitudeDegrees>
            </Position>
            <AltitudeMeters>916.4000244140625</AltitudeMeters>
            <DistanceMeters>NAN</DistanceMeters>
          </Trackpoint>
          <Trackpoint>
            <Time>2020-03-07T17:24:11.000Z</Time>
            <Position>
              <LatitudeDegrees>40.727314464747905731201171875</LatitudeDegrees>
              <LongitudeDegrees>-3.7911001034080982208251953125</LongitudeDegrees>
            </Position>
            <AltitudeMeters>916.4000244140625</AltitudeMeters>
            <DistanceMeters>NAN</DistanceMeters>
          </Trackpoint>
          <Trackpoint>
            <Time>2020-03-07T17:24:12.000Z</Time>
            <Position>
              <LatitudeDegrees>40.72724640369415283203125</LatitudeDegrees>
              <LongitudeDegrees>-3.79112650640308856964111328125</LongitudeDegrees>
            </Position>
            <AltitudeMeters>916.20001220703125</AltitudeMeters>
            <DistanceMeters>NAN</DistanceMeters>
          </Trackpoint>
          <Trackpoint>
            <Time>2020-03-07T17:24:13.000Z</Time>
            <Position>
              <LatitudeDegrees>40.7271798513829708099365234375</LatitudeDegrees>
              <LongitudeDegrees>-3.79115399904549121856689453125</LongitudeDegrees>
            </Position>
            <AltitudeMeters>916</AltitudeMeters>
            <DistanceMeters>NAN</DistanceMeters>
          </Trackpoint>
          <Trackpoint>
            <Time>2020-03-07T17:24:14.000Z</Time>
            <Position>
              <LatitudeDegrees>40.7271141372621059417724609375</LatitudeDegrees>
              <LongitudeDegrees>-3.79118065349757671356201171875</LongitudeDegrees>
            </Position>
            <AltitudeMeters>915.79998779296875</AltitudeMeters>
            <DistanceMeters>NAN</DistanceMeters>
          </Trackpoint>
          <Trackpoint>
            <Time>2020-03-07T17:24:15.000Z</Time>
            <Position>
              <LatitudeDegrees>40.727047584950923919677734375</LatitudeDegrees>
              <LongitudeDegrees>-3.7912072241306304931640625</LongitudeDegrees>
            </Position>
            <AltitudeMeters>915.4000244140625</AltitudeMeters>
            <DistanceMeters>NAN</DistanceMeters>
          </Trackpoint>
          <Trackpoint>
            <Time>2020-03-07T17:24:16.000Z</Time>
            <Position>
              <LatitudeDegrees>40.726983882486820220947265625</LatitudeDegrees>
              <LongitudeDegrees>-3.79123664461076259613037109375</LongitudeDegrees>
            </Position>
            <AltitudeMeters>915.20001220703125</AltitudeMeters>
            <DistanceMeters>NAN</DistanceMeters>
          </Trackpoint>
          <Trackpoint>
            <Time>2020-03-07T17:24:17.000Z</Time>
            <Position>
              <LatitudeDegrees>40.72692118585109710693359375</LatitudeDegrees>
              <LongitudeDegrees>-3.7912667356431484222412109375</LongitudeDegrees>
            </Position>
            <AltitudeMeters>915</AltitudeMeters>
            <DistanceMeters>NAN</DistanceMeters>
          </Trackpoint>
          <Trackpoint>
            <Time>2020-03-07T17:24:18.000Z</Time>
            <Position>
              <LatitudeDegrees>40.7268576510250568389892578125</LatitudeDegrees>
              <LongitudeDegrees>-3.79129682667553424835205078125</LongitudeDegrees>
            </Position>
            <AltitudeMeters>914.79998779296875</AltitudeMeters>
            <DistanceMeters>NAN</DistanceMeters>
          </Trackpoint>
          <Trackpoint>
            <Time>2020-03-07T17:24:19.000Z</Time>
            <Position>
              <LatitudeDegrees>40.72679403237998485565185546875</LatitudeDegrees>
              <LongitudeDegrees>-3.791327588260173797607421875</LongitudeDegrees>
            </Position>
            <AltitudeMeters>914.5999755859375</AltitudeMeters>
            <DistanceMeters>NAN</DistanceMeters>
          </Trackpoint>
          <Trackpoint>
            <Time>2020-03-07T17:24:20.000Z</Time>
            <Position>
              <LatitudeDegrees>40.7267315872013568878173828125</LatitudeDegrees>
              <LongitudeDegrees>-3.79135985858738422393798828125</LongitudeDegrees>
            </Position>
            <AltitudeMeters>914.5999755859375</AltitudeMeters>
            <DistanceMeters>NAN</DistanceMeters>
          </Trackpoint>
          <Trackpoint>
            <Time>2020-03-07T17:24:21.000Z</Time>
            <Position>
              <LatitudeDegrees>40.72666930966079235076904296875</LatitudeDegrees>
              <LongitudeDegrees>-3.7913948111236095428466796875</LongitudeDegrees>
            </Position>
            <AltitudeMeters>914.5999755859375</AltitudeMeters>
            <DistanceMeters>NAN</DistanceMeters>
          </Trackpoint>
          <Trackpoint>
            <Time>2020-03-07T17:24:22.000Z</Time>
            <Position>
              <LatitudeDegrees>40.7266093790531158447265625</LatitudeDegrees>
              <LongitudeDegrees>-3.79143278114497661590576171875</LongitudeDegrees>
            </Position>
            <AltitudeMeters>914.4000244140625</AltitudeMeters>
            <DistanceMeters>NAN</DistanceMeters>
          </Trackpoint>
          <Trackpoint>
            <Time>2020-03-07T17:24:23.000Z</Time>
            <Position>
              <LatitudeDegrees>40.7265502028167247772216796875</LatitudeDegrees>
              <LongitudeDegrees>-3.7914719246327877044677734375</LongitudeDegrees>
            </Position>
            <AltitudeMeters>914.4000244140625</AltitudeMeters>
            <DistanceMeters>NAN</DistanceMeters>
          </Trackpoint>
          <Trackpoint>
            <Time>2020-03-07T17:24:24.000Z</Time>
            <Position>
              <LatitudeDegrees>40.72649069130420684814453125</LatitudeDegrees>
              <LongitudeDegrees>-3.79151140339672565460205078125</LongitudeDegrees>
            </Position>
            <AltitudeMeters>914.4000244140625</AltitudeMeters>
            <DistanceMeters>NAN</DistanceMeters>
          </Trackpoint>
          <Trackpoint>
            <Time>2020-03-07T17:24:25.000Z</Time>
            <Position>
              <LatitudeDegrees>40.72643059305846691131591796875</LatitudeDegrees>
              <LongitudeDegrees>-3.791550882160663604736328125</LongitudeDegrees>
            </Position>
            <AltitudeMeters>914.4000244140625</AltitudeMeters>
            <DistanceMeters>NAN</DistanceMeters>
          </Trackpoint>
          <Trackpoint>
            <Time>2020-03-07T17:24:26.000Z</Time>
            <Position>
              <LatitudeDegrees>40.7263711653649806976318359375</LatitudeDegrees>
              <LongitudeDegrees>-3.7915902771055698394775390625</LongitudeDegrees>
            </Position>
            <AltitudeMeters>914.4000244140625</AltitudeMeters>
            <DistanceMeters>NAN</DistanceMeters>
          </Trackpoint>
          <Trackpoint>
            <Time>2020-03-07T17:24:27.000Z</Time>
            <Position>
              <LatitudeDegrees>40.726312659680843353271484375</LatitudeDegrees>
              <LongitudeDegrees>-3.79163042642176151275634765625</LongitudeDegrees>
            </Position>
            <AltitudeMeters>914.4000244140625</AltitudeMeters>
            <DistanceMeters>NAN</DistanceMeters>
          </Trackpoint>
          <Trackpoint>
            <Time>2020-03-07T17:24:28.000Z</Time>
            <Position>
              <LatitudeDegrees>40.72625608183443546295166015625</LatitudeDegrees>
              <LongitudeDegrees>-3.79167183302342891693115234375</LongitudeDegrees>
            </Position>
            <AltitudeMeters>914.4000244140625</AltitudeMeters>
            <DistanceMeters>NAN</DistanceMeters>
          </Trackpoint>
          <Trackpoint>
            <Time>2020-03-07T17:24:29.000Z</Time>
            <Position>
              <LatitudeDegrees>40.72620126418769359588623046875</LatitudeDegrees>
              <LongitudeDegrees>-3.791714496910572052001953125</LongitudeDegrees>
            </Position>
            <AltitudeMeters>914.4000244140625</AltitudeMeters>
            <DistanceMeters>NAN</DistanceMeters>
          </Trackpoint>
          <Trackpoint>
            <Time>2020-03-07T17:24:30.000Z</Time>
            <Position>
              <LatitudeDegrees>40.72614694945514202117919921875</LatitudeDegrees>
              <LongitudeDegrees>-3.791757412254810333251953125</LongitudeDegrees>
            </Position>
            <AltitudeMeters>914.4000244140625</AltitudeMeters>
            <DistanceMeters>NAN</DistanceMeters>
          </Trackpoint>
          <Trackpoint>
            <Time>2020-03-07T17:24:31.000Z</Time>
            <Position>
              <LatitudeDegrees>40.72609313763678073883056640625</LatitudeDegrees>
              <LongitudeDegrees>-3.79179940558969974517822265625</LongitudeDegrees>
            </Position>
            <AltitudeMeters>914.4000244140625</AltitudeMeters>
            <DistanceMeters>NAN</DistanceMeters>
          </Trackpoint>
          <Trackpoint>
            <Time>2020-03-07T17:24:32.000Z</Time>
            <Position>
              <LatitudeDegrees>40.7260402478277683258056640625</LatitudeDegrees>
              <LongitudeDegrees>-3.79184114746749401092529296875</LongitudeDegrees>
            </Position>
            <AltitudeMeters>914.20001220703125</AltitudeMeters>
            <DistanceMeters>NAN</DistanceMeters>
          </Trackpoint>
          <Trackpoint>
            <Time>2020-03-07T17:24:33.000Z</Time>
            <Position>
              <LatitudeDegrees>40.72598568163812160491943359375</LatitudeDegrees>
              <LongitudeDegrees>-3.79188288934528827667236328125</LongitudeDegrees>
            </Position>
            <AltitudeMeters>914.20001220703125</AltitudeMeters>
            <DistanceMeters>NAN</DistanceMeters>
          </Trackpoint>
          <Trackpoint>
            <Time>2020-03-07T17:24:34.000Z</Time>
            <Position>
              <LatitudeDegrees>40.72593371383845806121826171875</LatitudeDegrees>
              <LongitudeDegrees>-3.79192538559436798095703125</LongitudeDegrees>
            </Position>
            <AltitudeMeters>914.20001220703125</AltitudeMeters>
            <DistanceMeters>NAN</DistanceMeters>
          </Trackpoint>
          <Trackpoint>
            <Time>2020-03-07T17:24:35.000Z</Time>
            <Position>
              <LatitudeDegrees>40.72588048875331878662109375</LatitudeDegrees>
              <LongitudeDegrees>-3.79196955822408199310302734375</LongitudeDegrees>
            </Position>
            <AltitudeMeters>914.20001220703125</AltitudeMeters>
            <DistanceMeters>NAN</DistanceMeters>
          </Trackpoint>
          <Trackpoint>
            <Time>2020-03-07T17:24:36.000Z</Time>
            <Position>
              <LatitudeDegrees>40.72582709603011608123779296875</LatitudeDegrees>
              <LongitudeDegrees>-3.792014233767986297607421875</LongitudeDegrees>
            </Position>
            <AltitudeMeters>914.20001220703125</AltitudeMeters>
            <DistanceMeters>NAN</DistanceMeters>
          </Trackpoint>
          <Trackpoint>
            <Time>2020-03-07T17:24:37.000Z</Time>
            <Position>
              <LatitudeDegrees>40.725775547325611114501953125</LatitudeDegrees>
              <LongitudeDegrees>-3.7920583225786685943603515625</LongitudeDegrees>
            </Position>
            <AltitudeMeters>914.20001220703125</AltitudeMeters>
            <DistanceMeters>NAN</DistanceMeters>
          </Trackpoint>
          <Trackpoint>
            <Time>2020-03-07T17:24:38.000Z</Time>
            <Position>
              <LatitudeDegrees>40.72572399862110614776611328125</LatitudeDegrees>
              <LongitudeDegrees>-3.7921015731990337371826171875</LongitudeDegrees>
            </Position>
            <AltitudeMeters>914.20001220703125</AltitudeMeters>
            <DistanceMeters>NAN</DistanceMeters>
          </Trackpoint>
          <Trackpoint>
            <Time>2020-03-07T17:24:39.000Z</Time>
            <Position>
              <LatitudeDegrees>40.725671947002410888671875</LatitudeDegrees>
              <LongitudeDegrees>-3.79214256070554256439208984375</LongitudeDegrees>
            </Position>
            <AltitudeMeters>914.20001220703125</AltitudeMeters>
            <DistanceMeters>NAN</DistanceMeters>
          </Trackpoint>
          <Trackpoint>
            <Time>2020-03-07T17:24:40.000Z</Time>
            <Position>
              <LatitudeDegrees>40.7256224937736988067626953125</LatitudeDegrees>
              <LongitudeDegrees>-3.79218555986881256103515625</LongitudeDegrees>
            </Position>
            <AltitudeMeters>914.4000244140625</AltitudeMeters>
            <DistanceMeters>NAN</DistanceMeters>
          </Trackpoint>
          <Trackpoint>
            <Time>2020-03-07T17:24:41.000Z</Time>
            <Position>
              <LatitudeDegrees>40.7255740463733673095703125</LatitudeDegrees>
              <LongitudeDegrees>-3.792228810489177703857421875</LongitudeDegrees>
            </Position>
            <AltitudeMeters>914.4000244140625</AltitudeMeters>
            <DistanceMeters>NAN</DistanceMeters>
          </Trackpoint>
          <Trackpoint>
            <Time>2020-03-07T17:24:42.000Z</Time>
            <Position>
              <LatitudeDegrees>40.72552635334432125091552734375</LatitudeDegrees>
              <LongitudeDegrees>-3.79227139055728912353515625</LongitudeDegrees>
            </Position>
            <AltitudeMeters>914.4000244140625</AltitudeMeters>
            <DistanceMeters>NAN</DistanceMeters>
          </Trackpoint>
          <Trackpoint>
            <Time>2020-03-07T17:24:43.000Z</Time>
            <Position>
              <LatitudeDegrees>40.72548125870525836944580078125</LatitudeDegrees>
              <LongitudeDegrees>-3.79231288097798824310302734375</LongitudeDegrees>
            </Position>
            <AltitudeMeters>914.4000244140625</AltitudeMeters>
            <DistanceMeters>NAN</DistanceMeters>
          </Trackpoint>
          <Trackpoint>
            <Time>2020-03-07T17:24:44.000Z</Time>
            <Position>
              <LatitudeDegrees>40.72543549351394176483154296875</LatitudeDegrees>
              <LongitudeDegrees>-3.792354874312877655029296875</LongitudeDegrees>
            </Position>
            <AltitudeMeters>914.4000244140625</AltitudeMeters>
            <DistanceMeters>NAN</DistanceMeters>
          </Trackpoint>
          <Trackpoint>
            <Time>2020-03-07T17:24:45.000Z</Time>
            <Position>
              <LatitudeDegrees>40.72538889013230800628662109375</LatitudeDegrees>
              <LongitudeDegrees>-3.79239602945744991302490234375</LongitudeDegrees>
            </Position>
            <AltitudeMeters>914.4000244140625</AltitudeMeters>
            <DistanceMeters>NAN</DistanceMeters>
          </Trackpoint>
          <Trackpoint>
            <Time>2020-03-07T17:24:46.000Z</Time>
            <Position>
              <LatitudeDegrees>40.72534278966486454010009765625</LatitudeDegrees>
              <LongitudeDegrees>-3.79243777133524417877197265625</LongitudeDegrees>
            </Position>
            <AltitudeMeters>914.4000244140625</AltitudeMeters>
            <DistanceMeters>NAN</DistanceMeters>
          </Trackpoint>
          <Trackpoint>
            <Time>2020-03-07T17:24:47.000Z</Time>
            <Position>
              <LatitudeDegrees>40.7252986170351505279541015625</LatitudeDegrees>
              <LongitudeDegrees>-3.7924764119088649749755859375</LongitudeDegrees>
            </Position>
            <AltitudeMeters>914.4000244140625</AltitudeMeters>
            <DistanceMeters>NAN</DistanceMeters>
          </Trackpoint>
          <Trackpoint>
            <Time>2020-03-07T17:24:48.000Z</Time>
            <Position>
              <LatitudeDegrees>40.7252548635005950927734375</LatitudeDegrees>
              <LongitudeDegrees>-3.79251572303473949432373046875</LongitudeDegrees>
            </Position>
            <AltitudeMeters>914.4000244140625</AltitudeMeters>
            <DistanceMeters>NAN</DistanceMeters>
          </Trackpoint>
          <Trackpoint>
            <Time>2020-03-07T17:24:49.000Z</Time>
            <Position>
              <LatitudeDegrees>40.72521287016570568084716796875</LatitudeDegrees>
              <LongitudeDegrees>-3.79255444742739200592041015625</LongitudeDegrees>
            </Position>
            <AltitudeMeters>914.5999755859375</AltitudeMeters>
            <DistanceMeters>NAN</DistanceMeters>
          </Trackpoint>
          <Trackpoint>
            <Time>2020-03-07T17:24:50.000Z</Time>
            <Position>
              <LatitudeDegrees>40.7251690328121185302734375</LatitudeDegrees>
              <LongitudeDegrees>-3.79259568639099597930908203125</LongitudeDegrees>
            </Position>
            <AltitudeMeters>914.79998779296875</AltitudeMeters>
            <DistanceMeters>NAN</DistanceMeters>
          </Trackpoint>
          <Trackpoint>
            <Time>2020-03-07T17:24:51.000Z</Time>
            <Position>
              <LatitudeDegrees>40.72512536309659481048583984375</LatitudeDegrees>
              <LongitudeDegrees>-3.792635500431060791015625</LongitudeDegrees>
            </Position>
            <AltitudeMeters>914.79998779296875</AltitudeMeters>
            <DistanceMeters>NAN</DistanceMeters>
          </Trackpoint>
          <Trackpoint>
            <Time>2020-03-07T17:24:52.000Z</Time>
            <Position>
              <LatitudeDegrees>40.7250810228288173675537109375</LatitudeDegrees>
              <LongitudeDegrees>-3.7926759012043476104736328125</LongitudeDegrees>
            </Position>
            <AltitudeMeters>915</AltitudeMeters>
            <DistanceMeters>NAN</DistanceMeters>
          </Trackpoint>
          <Trackpoint>
            <Time>2020-03-07T17:24:53.000Z</Time>
            <Position>
              <LatitudeDegrees>40.72503693401813507080078125</LatitudeDegrees>
              <LongitudeDegrees>-3.7927186489105224609375</LongitudeDegrees>
            </Position>
            <AltitudeMeters>915</AltitudeMeters>
            <DistanceMeters>NAN</DistanceMeters>
          </Trackpoint>
          <Trackpoint>
            <Time>2020-03-07T17:24:54.000Z</Time>
            <Position>
              <LatitudeDegrees>40.7249946892261505126953125</LatitudeDegrees>
              <LongitudeDegrees>-3.7927570380270481109619140625</LongitudeDegrees>
            </Position>
            <AltitudeMeters>915.20001220703125</AltitudeMeters>
            <DistanceMeters>NAN</DistanceMeters>
          </Trackpoint>
          <Trackpoint>
            <Time>2020-03-07T17:24:55.000Z</Time>
            <Position>
              <LatitudeDegrees>40.724950768053531646728515625</LatitudeDegrees>
              <LongitudeDegrees>-3.792795427143573760986328125</LongitudeDegrees>
            </Position>
            <AltitudeMeters>915.20001220703125</AltitudeMeters>
            <DistanceMeters>NAN</DistanceMeters>
          </Trackpoint>
          <Trackpoint>
            <Time>2020-03-07T17:24:56.000Z</Time>
            <Position>
              <LatitudeDegrees>40.72490676306188106536865234375</LatitudeDegrees>
              <LongitudeDegrees>-3.79283641465008258819580078125</LongitudeDegrees>
            </Position>
            <AltitudeMeters>915.4000244140625</AltitudeMeters>
            <DistanceMeters>NAN</DistanceMeters>
          </Trackpoint>
          <Trackpoint>
            <Time>2020-03-07T17:24:57.000Z</Time>
            <Position>
              <LatitudeDegrees>40.72486384771764278411865234375</LatitudeDegrees>
              <LongitudeDegrees>-3.79287488758563995361328125</LongitudeDegrees>
            </Position>
            <AltitudeMeters>915.4000244140625</AltitudeMeters>
            <DistanceMeters>NAN</DistanceMeters>
          </Trackpoint>
          <Trackpoint>
            <Time>2020-03-07T17:24:58.000Z</Time>
            <Position>
              <LatitudeDegrees>40.72482009418308734893798828125</LatitudeDegrees>
              <LongitudeDegrees>-3.79291252233088016510009765625</LongitudeDegrees>
            </Position>
            <AltitudeMeters>915.5999755859375</AltitudeMeters>
            <DistanceMeters>NAN</DistanceMeters>
          </Trackpoint>
          <Trackpoint>
            <Time>2020-03-07T17:24:59.000Z</Time>
            <Position>
              <LatitudeDegrees>40.724775753915309906005859375</LatitudeDegrees>
              <LongitudeDegrees>-3.7929518334567546844482421875</LongitudeDegrees>
            </Position>
            <AltitudeMeters>915.79998779296875</AltitudeMeters>
            <DistanceMeters>NAN</DistanceMeters>
          </Trackpoint>
          <Trackpoint>
            <Time>2020-03-07T17:25:00.000Z</Time>
            <Position>
              <LatitudeDegrees>40.7247323356568813323974609375</LatitudeDegrees>
              <LongitudeDegrees>-3.79298997111618518829345703125</LongitudeDegrees>
            </Position>
            <AltitudeMeters>916</AltitudeMeters>
            <DistanceMeters>NAN</DistanceMeters>
          </Trackpoint>
          <Trackpoint>
            <Time>2020-03-07T17:25:01.000Z</Time>
            <Position>
              <LatitudeDegrees>40.724690258502960205078125</LatitudeDegrees>
              <LongitudeDegrees>-3.7930286116898059844970703125</LongitudeDegrees>
            </Position>
            <AltitudeMeters>916.20001220703125</AltitudeMeters>
            <DistanceMeters>NAN</DistanceMeters>
          </Trackpoint>
          <Trackpoint>
            <Time>2020-03-07T17:25:02.000Z</Time>
            <Position>
              <LatitudeDegrees>40.7246495224535465240478515625</LatitudeDegrees>
              <LongitudeDegrees>-3.7930686771869659423828125</LongitudeDegrees>
            </Position>
            <AltitudeMeters>916.20001220703125</AltitudeMeters>
            <DistanceMeters>NAN</DistanceMeters>
          </Trackpoint>
          <Trackpoint>
            <Time>2020-03-07T17:25:03.000Z</Time>
            <Position>
              <LatitudeDegrees>40.724610798060894012451171875</LatitudeDegrees>
              <LongitudeDegrees>-3.79311092197895050048828125</LongitudeDegrees>
            </Position>
            <AltitudeMeters>916.4000244140625</AltitudeMeters>
            <DistanceMeters>NAN</DistanceMeters>
          </Trackpoint>
          <Trackpoint>
            <Time>2020-03-07T17:25:04.000Z</Time>
            <Position>
              <LatitudeDegrees>40.72457366622984409332275390625</LatitudeDegrees>
              <LongitudeDegrees>-3.79315643571317195892333984375</LongitudeDegrees>
            </Position>
            <AltitudeMeters>916.4000244140625</AltitudeMeters>
            <DistanceMeters>NAN</DistanceMeters>
          </Trackpoint>
          <Trackpoint>
            <Time>2020-03-07T17:25:05.000Z</Time>
            <Position>
              <LatitudeDegrees>40.724537707865238189697265625</LatitudeDegrees>
              <LongitudeDegrees>-3.79320479929447174072265625</LongitudeDegrees>
            </Position>
            <AltitudeMeters>916.5999755859375</AltitudeMeters>
            <DistanceMeters>NAN</DistanceMeters>
          </Trackpoint>
          <Trackpoint>
            <Time>2020-03-07T17:25:06.000Z</Time>
            <Position>
              <LatitudeDegrees>40.724502168595790863037109375</LatitudeDegrees>
              <LongitudeDegrees>-3.7932502292096614837646484375</LongitudeDegrees>
            </Position>
            <AltitudeMeters>916.79998779296875</AltitudeMeters>
            <DistanceMeters>NAN</DistanceMeters>
          </Trackpoint>
          <Trackpoint>
            <Time>2020-03-07T17:25:07.000Z</Time>
            <Position>
              <LatitudeDegrees>40.724463947117328643798828125</LatitudeDegrees>
              <LongitudeDegrees>-3.793290965259075164794921875</LongitudeDegrees>
            </Position>
            <AltitudeMeters>916.79998779296875</AltitudeMeters>
            <DistanceMeters>NAN</DistanceMeters>
          </Trackpoint>
          <Trackpoint>
            <Time>2020-03-07T17:25:08.000Z</Time>
            <Position>
              <LatitudeDegrees>40.724422372877597808837890625</LatitudeDegrees>
              <LongitudeDegrees>-3.793324492871761322021484375</LongitudeDegrees>
            </Position>
            <AltitudeMeters>917</AltitudeMeters>
            <DistanceMeters>NAN</DistanceMeters>
          </Trackpoint>
          <Trackpoint>
            <Time>2020-03-07T17:25:09.000Z</Time>
            <Position>
              <LatitudeDegrees>40.7243802957236766815185546875</LatitudeDegrees>
              <LongitudeDegrees>-3.7933454476296901702880859375</LongitudeDegrees>
            </Position>
            <AltitudeMeters>917</AltitudeMeters>
            <DistanceMeters>NAN</DistanceMeters>
          </Trackpoint>
          <Trackpoint>
            <Time>2020-03-07T17:25:10.000Z</Time>
            <Position>
              <LatitudeDegrees>40.72433712892234325408935546875</LatitudeDegrees>
              <LongitudeDegrees>-3.79335827194154262542724609375</LongitudeDegrees>
            </Position>
            <AltitudeMeters>917</AltitudeMeters>
            <DistanceMeters>NAN</DistanceMeters>
          </Trackpoint>
          <Trackpoint>
            <Time>2020-03-07T17:25:11.000Z</Time>
            <Position>
              <LatitudeDegrees>40.72429371066391468048095703125</LatitudeDegrees>
              <LongitudeDegrees>-3.79336707293987274169921875</LongitudeDegrees>
            </Position>
            <AltitudeMeters>917.20001220703125</AltitudeMeters>
            <DistanceMeters>NAN</DistanceMeters>
          </Trackpoint>
          <Trackpoint>
            <Time>2020-03-07T17:25:12.000Z</Time>
            <Position>
              <LatitudeDegrees>40.72424970567226409912109375</LatitudeDegrees>
              <LongitudeDegrees>-3.7933779694139957427978515625</LongitudeDegrees>
            </Position>
            <AltitudeMeters>917.20001220703125</AltitudeMeters>
            <DistanceMeters>NAN</DistanceMeters>
          </Trackpoint>
          <Trackpoint>
            <Time>2020-03-07T17:25:13.000Z</Time>
            <Position>
              <LatitudeDegrees>40.72420519776642322540283203125</LatitudeDegrees>
              <LongitudeDegrees>-3.79339012317359447479248046875</LongitudeDegrees>
            </Position>
            <AltitudeMeters>917.20001220703125</AltitudeMeters>
            <DistanceMeters>NAN</DistanceMeters>
          </Trackpoint>
          <Trackpoint>
            <Time>2020-03-07T17:25:14.000Z</Time>
            <Position>
              <LatitudeDegrees>40.7241605222225189208984375</LatitudeDegrees>
              <LongitudeDegrees>-3.79340286366641521453857421875</LongitudeDegrees>
            </Position>
            <AltitudeMeters>917.20001220703125</AltitudeMeters>
            <DistanceMeters>NAN</DistanceMeters>
          </Trackpoint>
          <Trackpoint>
            <Time>2020-03-07T17:25:15.000Z</Time>
            <Position>
              <LatitudeDegrees>40.7241127453744411468505859375</LatitudeDegrees>
              <LongitudeDegrees>-3.79341577179729938507080078125</LongitudeDegrees>
            </Position>
            <AltitudeMeters>917.20001220703125</AltitudeMeters>
            <DistanceMeters>NAN</DistanceMeters>
          </Trackpoint>
          <Trackpoint>
            <Time>2020-03-07T17:25:16.000Z</Time>
            <Position>
              <LatitudeDegrees>40.724064297974109649658203125</LatitudeDegrees>
              <LongitudeDegrees>-3.7934289313852787017822265625</LongitudeDegrees>
            </Position>
            <AltitudeMeters>917.20001220703125</AltitudeMeters>
            <DistanceMeters>NAN</DistanceMeters>
          </Trackpoint>
          <Trackpoint>
            <Time>2020-03-07T17:25:17.000Z</Time>
            <Position>
              <LatitudeDegrees>40.72401635348796844482421875</LatitudeDegrees>
              <LongitudeDegrees>-3.79344343207776546478271484375</LongitudeDegrees>
            </Position>
            <AltitudeMeters>917.4000244140625</AltitudeMeters>
            <DistanceMeters>NAN</DistanceMeters>
          </Trackpoint>
          <Trackpoint>
            <Time>2020-03-07T17:25:18.000Z</Time>
            <Position>
              <LatitudeDegrees>40.72396782226860523223876953125</LatitudeDegrees>
              <LongitudeDegrees>-3.7934591062366962432861328125</LongitudeDegrees>
            </Position>
            <AltitudeMeters>917.4000244140625</AltitudeMeters>
            <DistanceMeters>NAN</DistanceMeters>
          </Trackpoint>
          <Trackpoint>
            <Time>2020-03-07T17:25:19.000Z</Time>
            <Position>
              <LatitudeDegrees>40.72392247617244720458984375</LatitudeDegrees>
              <LongitudeDegrees>-3.79347436130046844482421875</LongitudeDegrees>
            </Position>
            <AltitudeMeters>917.5999755859375</AltitudeMeters>
            <DistanceMeters>NAN</DistanceMeters>
          </Trackpoint>
          <Trackpoint>
            <Time>2020-03-07T17:25:20.000Z</Time>
            <Position>
              <LatitudeDegrees>40.72387327440083026885986328125</LatitudeDegrees>
              <LongitudeDegrees>-3.79348768852651119232177734375</LongitudeDegrees>
            </Position>
            <AltitudeMeters>917.79998779296875</AltitudeMeters>
            <DistanceMeters>NAN</DistanceMeters>
          </Trackpoint>
          <Trackpoint>
            <Time>2020-03-07T17:25:21.000Z</Time>
            <Position>
              <LatitudeDegrees>40.72382323443889617919921875</LatitudeDegrees>
              <LongitudeDegrees>-3.79349892027676105499267578125</LongitudeDegrees>
            </Position>
            <AltitudeMeters>917.79998779296875</AltitudeMeters>
            <DistanceMeters>NAN</DistanceMeters>
          </Trackpoint>
          <Trackpoint>
            <Time>2020-03-07T17:25:22.000Z</Time>
            <Position>
              <LatitudeDegrees>40.72377202101051807403564453125</LatitudeDegrees>
              <LongitudeDegrees>-3.7935087271034717559814453125</LongitudeDegrees>
            </Position>
            <AltitudeMeters>918.20001220703125</AltitudeMeters>
            <DistanceMeters>NAN</DistanceMeters>
          </Trackpoint>
          <Trackpoint>
            <Time>2020-03-07T17:25:23.000Z</Time>
            <Position>
              <LatitudeDegrees>40.72372265160083770751953125</LatitudeDegrees>
              <LongitudeDegrees>-3.79351769573986530303955078125</LongitudeDegrees>
            </Position>
            <AltitudeMeters>918.20001220703125</AltitudeMeters>
            <DistanceMeters>NAN</DistanceMeters>
          </Trackpoint>
          <Trackpoint>
            <Time>2020-03-07T17:25:24.000Z</Time>
            <Position>
              <LatitudeDegrees>40.7236768864095211029052734375</LatitudeDegrees>
              <LongitudeDegrees>-3.79352867603302001953125</LongitudeDegrees>
            </Position>
            <AltitudeMeters>918.4000244140625</AltitudeMeters>
            <DistanceMeters>NAN</DistanceMeters>
          </Trackpoint>
          <Trackpoint>
            <Time>2020-03-07T17:25:25.000Z</Time>
            <Position>
              <LatitudeDegrees>40.72362734936177730560302734375</LatitudeDegrees>
              <LongitudeDegrees>-3.793539069592952728271484375</LongitudeDegrees>
            </Position>
            <AltitudeMeters>918.79998779296875</AltitudeMeters>
            <DistanceMeters>NAN</DistanceMeters>
          </Trackpoint>
          <Trackpoint>
            <Time>2020-03-07T17:25:26.000Z</Time>
            <Position>
              <LatitudeDegrees>40.72357789613306522369384765625</LatitudeDegrees>
              <LongitudeDegrees>-3.793549127876758575439453125</LongitudeDegrees>
            </Position>
            <AltitudeMeters>918.79998779296875</AltitudeMeters>
            <DistanceMeters>NAN</DistanceMeters>
          </Trackpoint>
          <Trackpoint>
            <Time>2020-03-07T17:25:27.000Z</Time>
            <Position>
              <LatitudeDegrees>40.72352886199951171875</LatitudeDegrees>
              <LongitudeDegrees>-3.79355885088443756103515625</LongitudeDegrees>
            </Position>
            <AltitudeMeters>919</AltitudeMeters>
            <DistanceMeters>NAN</DistanceMeters>
          </Trackpoint>
          <Trackpoint>
            <Time>2020-03-07T17:25:28.000Z</Time>
            <Position>
              <LatitudeDegrees>40.72348016314208507537841796875</LatitudeDegrees>
              <LongitudeDegrees>-3.7935680709779262542724609375</LongitudeDegrees>
            </Position>
            <AltitudeMeters>919</AltitudeMeters>
            <DistanceMeters>NAN</DistanceMeters>
          </Trackpoint>
          <Trackpoint>
            <Time>2020-03-07T17:25:29.000Z</Time>
            <Position>
              <LatitudeDegrees>40.7234323024749755859375</LatitudeDegrees>
              <LongitudeDegrees>-3.7935754470527172088623046875</LongitudeDegrees>
            </Position>
            <AltitudeMeters>919</AltitudeMeters>
            <DistanceMeters>NAN</DistanceMeters>
          </Trackpoint>
          <Trackpoint>
            <Time>2020-03-07T17:25:30.000Z</Time>
            <Position>
              <LatitudeDegrees>40.72338460944592952728271484375</LatitudeDegrees>
              <LongitudeDegrees>-3.79358257167041301727294921875</LongitudeDegrees>
            </Position>
            <AltitudeMeters>919.20001220703125</AltitudeMeters>
            <DistanceMeters>NAN</DistanceMeters>
          </Trackpoint>
          <Trackpoint>
            <Time>2020-03-07T17:25:31.000Z</Time>
            <Position>
              <LatitudeDegrees>40.72333666495978832244873046875</LatitudeDegrees>
              <LongitudeDegrees>-3.79358609206974506378173828125</LongitudeDegrees>
            </Position>
            <AltitudeMeters>919.20001220703125</AltitudeMeters>
            <DistanceMeters>NAN</DistanceMeters>
          </Trackpoint>
          <Trackpoint>
            <Time>2020-03-07T17:25:32.000Z</Time>
            <Position>
              <LatitudeDegrees>40.72329039685428142547607421875</LatitudeDegrees>
              <LongitudeDegrees>-3.79358961246907711029052734375</LongitudeDegrees>
            </Position>
            <AltitudeMeters>919.4000244140625</AltitudeMeters>
            <DistanceMeters>NAN</DistanceMeters>
          </Trackpoint>
          <Trackpoint>
            <Time>2020-03-07T17:25:33.000Z</Time>
            <Position>
              <LatitudeDegrees>40.7232406921684741973876953125</LatitudeDegrees>
              <LongitudeDegrees>-3.79358877427875995635986328125</LongitudeDegrees>
            </Position>
            <AltitudeMeters>919.4000244140625</AltitudeMeters>
            <DistanceMeters>NAN</DistanceMeters>
          </Trackpoint>
          <Trackpoint>
            <Time>2020-03-07T17:25:34.000Z</Time>
            <Position>
              <LatitudeDegrees>40.72319299913942813873291015625</LatitudeDegrees>
              <LongitudeDegrees>-3.79358910955488681793212890625</LongitudeDegrees>
            </Position>
            <AltitudeMeters>919.4000244140625</AltitudeMeters>
            <DistanceMeters>NAN</DistanceMeters>
          </Trackpoint>
          <Trackpoint>
            <Time>2020-03-07T17:25:35.000Z</Time>
            <Position>
              <LatitudeDegrees>40.7231461443006992340087890625</LatitudeDegrees>
              <LongitudeDegrees>-3.793590031564235687255859375</LongitudeDegrees>
            </Position>
            <AltitudeMeters>919.4000244140625</AltitudeMeters>
            <DistanceMeters>NAN</DistanceMeters>
          </Trackpoint>
          <Trackpoint>
            <Time>2020-03-07T17:25:36.000Z</Time>
            <Position>
              <LatitudeDegrees>40.72309996001422405242919921875</LatitudeDegrees>
              <LongitudeDegrees>-3.79359028302133083343505859375</LongitudeDegrees>
            </Position>
            <AltitudeMeters>919.5999755859375</AltitudeMeters>
            <DistanceMeters>NAN</DistanceMeters>
          </Trackpoint>
          <Trackpoint>
            <Time>2020-03-07T17:25:37.000Z</Time>
            <Position>
              <LatitudeDegrees>40.72305335663259029388427734375</LatitudeDegrees>
              <LongitudeDegrees>-3.79359162412583827972412109375</LongitudeDegrees>
            </Position>
            <AltitudeMeters>919.5999755859375</AltitudeMeters>
            <DistanceMeters>NAN</DistanceMeters>
          </Trackpoint>
          <Trackpoint>
            <Time>2020-03-07T17:25:38.000Z</Time>
            <Position>
              <LatitudeDegrees>40.72300490923225879669189453125</LatitudeDegrees>
              <LongitudeDegrees>-3.7935895286500453948974609375</LongitudeDegrees>
            </Position>
            <AltitudeMeters>919.5999755859375</AltitudeMeters>
            <DistanceMeters>NAN</DistanceMeters>
          </Trackpoint>
          <Trackpoint>
            <Time>2020-03-07T17:25:39.000Z</Time>
            <Position>
              <LatitudeDegrees>40.72295822203159332275390625</LatitudeDegrees>
              <LongitudeDegrees>-3.79358709789812564849853515625</LongitudeDegrees>
            </Position>
            <AltitudeMeters>919.79998779296875</AltitudeMeters>
            <DistanceMeters>NAN</DistanceMeters>
          </Trackpoint>
          <Trackpoint>
            <Time>2020-03-07T17:25:40.000Z</Time>
            <Position>
              <LatitudeDegrees>40.72291069664061069488525390625</LatitudeDegrees>
              <LongitudeDegrees>-3.793585337698459625244140625</LongitudeDegrees>
            </Position>
            <AltitudeMeters>919.79998779296875</AltitudeMeters>
            <DistanceMeters>NAN</DistanceMeters>
          </Trackpoint>
          <Trackpoint>
            <Time>2020-03-07T17:25:41.000Z</Time>
            <Position>
              <LatitudeDegrees>40.72286032140254974365234375</LatitudeDegrees>
              <LongitudeDegrees>-3.79357938654720783233642578125</LongitudeDegrees>
            </Position>
            <AltitudeMeters>919.79998779296875</AltitudeMeters>
            <DistanceMeters>NAN</DistanceMeters>
          </Trackpoint>
          <Trackpoint>
            <Time>2020-03-07T17:25:42.000Z</Time>
            <Position>
              <LatitudeDegrees>40.72280944325029850006103515625</LatitudeDegrees>
              <LongitudeDegrees>-3.79357486031949520111083984375</LongitudeDegrees>
            </Position>
            <AltitudeMeters>919.79998779296875</AltitudeMeters>
            <DistanceMeters>NAN</DistanceMeters>
          </Trackpoint>
          <Trackpoint>
            <Time>2020-03-07T17:25:43.000Z</Time>
            <Position>
              <LatitudeDegrees>40.72276015765964984893798828125</LatitudeDegrees>
              <LongitudeDegrees>-3.79356689751148223876953125</LongitudeDegrees>
            </Position>
            <AltitudeMeters>919.79998779296875</AltitudeMeters>
            <DistanceMeters>NAN</DistanceMeters>
          </Trackpoint>
          <Trackpoint>
            <Time>2020-03-07T17:25:44.000Z</Time>
            <Position>
              <LatitudeDegrees>40.72271204553544521331787109375</LatitudeDegrees>
              <LongitudeDegrees>-3.793557845056056976318359375</LongitudeDegrees>
            </Position>
            <AltitudeMeters>920</AltitudeMeters>
            <DistanceMeters>NAN</DistanceMeters>
          </Trackpoint>
          <Trackpoint>
            <Time>2020-03-07T17:25:45.000Z</Time>
            <Position>
              <LatitudeDegrees>40.72266359813511371612548828125</LatitudeDegrees>
              <LongitudeDegrees>-3.7935486249625682830810546875</LongitudeDegrees>
            </Position>
            <AltitudeMeters>920</AltitudeMeters>
            <DistanceMeters>NAN</DistanceMeters>
          </Trackpoint>
          <Trackpoint>
            <Time>2020-03-07T17:25:46.000Z</Time>
            <Position>
              <LatitudeDegrees>40.722614564001560211181640625</LatitudeDegrees>
              <LongitudeDegrees>-3.79353881813585758209228515625</LongitudeDegrees>
            </Position>
            <AltitudeMeters>920</AltitudeMeters>
            <DistanceMeters>NAN</DistanceMeters>
          </Trackpoint>
          <Trackpoint>
            <Time>2020-03-07T17:25:47.000Z</Time>
            <Position>
              <LatitudeDegrees>40.72256519459187984466552734375</LatitudeDegrees>
              <LongitudeDegrees>-3.79352859221398830413818359375</LongitudeDegrees>
            </Position>
            <AltitudeMeters>920</AltitudeMeters>
            <DistanceMeters>NAN</DistanceMeters>
          </Trackpoint>
          <Trackpoint>
            <Time>2020-03-07T17:25:48.000Z</Time>
            <Position>
              <LatitudeDegrees>40.72251624427735805511474609375</LatitudeDegrees>
              <LongitudeDegrees>-3.7935157679021358489990234375</LongitudeDegrees>
            </Position>
            <AltitudeMeters>920</AltitudeMeters>
            <DistanceMeters>NAN</DistanceMeters>
          </Trackpoint>
          <Trackpoint>
            <Time>2020-03-07T17:25:49.000Z</Time>
            <Position>
              <LatitudeDegrees>40.72246746160089969635009765625</LatitudeDegrees>
              <LongitudeDegrees>-3.79350177012383937835693359375</LongitudeDegrees>
            </Position>
            <AltitudeMeters>920</AltitudeMeters>
            <DistanceMeters>NAN</DistanceMeters>
          </Trackpoint>
          <Trackpoint>
            <Time>2020-03-07T17:25:50.000Z</Time>
            <Position>
              <LatitudeDegrees>40.72241867892444133758544921875</LatitudeDegrees>
              <LongitudeDegrees>-3.79348668269813060760498046875</LongitudeDegrees>
            </Position>
            <AltitudeMeters>920.20001220703125</AltitudeMeters>
            <DistanceMeters>NAN</DistanceMeters>
          </Trackpoint>
          <Trackpoint>
            <Time>2020-03-07T17:25:51.000Z</Time>
            <Position>
              <LatitudeDegrees>40.722369141876697540283203125</LatitudeDegrees>
              <LongitudeDegrees>-3.79347075708210468292236328125</LongitudeDegrees>
            </Position>
            <AltitudeMeters>920.20001220703125</AltitudeMeters>
            <DistanceMeters>NAN</DistanceMeters>
          </Trackpoint>
          <Trackpoint>
            <Time>2020-03-07T17:25:52.000Z</Time>
            <Position>
              <LatitudeDegrees>40.7223193533718585968017578125</LatitudeDegrees>
              <LongitudeDegrees>-3.793453909456729888916015625</LongitudeDegrees>
            </Position>
            <AltitudeMeters>920.20001220703125</AltitudeMeters>
            <DistanceMeters>NAN</DistanceMeters>
          </Trackpoint>
          <Trackpoint>
            <Time>2020-03-07T17:25:53.000Z</Time>
            <Position>
              <LatitudeDegrees>40.7222714088857173919677734375</LatitudeDegrees>
              <LongitudeDegrees>-3.79343873821198940277099609375</LongitudeDegrees>
            </Position>
            <AltitudeMeters>920.20001220703125</AltitudeMeters>
            <DistanceMeters>NAN</DistanceMeters>
          </Trackpoint>
          <Trackpoint>
            <Time>2020-03-07T17:25:54.000Z</Time>
            <Position>
              <LatitudeDegrees>40.72222153656184673309326171875</LatitudeDegrees>
              <LongitudeDegrees>-3.79342138767242431640625</LongitudeDegrees>
            </Position>
            <AltitudeMeters>920.4000244140625</AltitudeMeters>
            <DistanceMeters>NAN</DistanceMeters>
          </Trackpoint>
          <Trackpoint>
            <Time>2020-03-07T17:25:55.000Z</Time>
            <Position>
              <LatitudeDegrees>40.72217258624732494354248046875</LatitudeDegrees>
              <LongitudeDegrees>-3.79340370185673236846923828125</LongitudeDegrees>
            </Position>
            <AltitudeMeters>920.4000244140625</AltitudeMeters>
            <DistanceMeters>NAN</DistanceMeters>
          </Trackpoint>
          <Trackpoint>
            <Time>2020-03-07T17:25:56.000Z</Time>
            <Position>
              <LatitudeDegrees>40.7221215404570102691650390625</LatitudeDegrees>
              <LongitudeDegrees>-3.793384172022342681884765625</LongitudeDegrees>
            </Position>
            <AltitudeMeters>920.4000244140625</AltitudeMeters>
            <DistanceMeters>NAN</DistanceMeters>
          </Trackpoint>
          <Trackpoint>
            <Time>2020-03-07T17:25:57.000Z</Time>
            <Position>
              <LatitudeDegrees>40.72207166813313961029052734375</LatitudeDegrees>
              <LongitudeDegrees>-3.7933623790740966796875</LongitudeDegrees>
            </Position>
            <AltitudeMeters>920.5999755859375</AltitudeMeters>
            <DistanceMeters>NAN</DistanceMeters>
          </Trackpoint>
          <Trackpoint>
            <Time>2020-03-07T17:25:58.000Z</Time>
            <Position>
              <LatitudeDegrees>40.72202238254249095916748046875</LatitudeDegrees>
              <LongitudeDegrees>-3.79333932884037494659423828125</LongitudeDegrees>
            </Position>
            <AltitudeMeters>920.5999755859375</AltitudeMeters>
            <DistanceMeters>NAN</DistanceMeters>
          </Trackpoint>
          <Trackpoint>
            <Time>2020-03-07T17:25:59.000Z</Time>
            <Position>
              <LatitudeDegrees>40.72197393514215946197509765625</LatitudeDegrees>
              <LongitudeDegrees>-3.7933176197111606597900390625</LongitudeDegrees>
            </Position>
            <AltitudeMeters>920.79998779296875</AltitudeMeters>
            <DistanceMeters>NAN</DistanceMeters>
          </Trackpoint>
          <Trackpoint>
            <Time>2020-03-07T17:26:00.000Z</Time>
            <Position>
              <LatitudeDegrees>40.72192632593214511871337890625</LatitudeDegrees>
              <LongitudeDegrees>-3.79329599440097808837890625</LongitudeDegrees>
            </Position>
            <AltitudeMeters>920.79998779296875</AltitudeMeters>
            <DistanceMeters>NAN</DistanceMeters>
          </Trackpoint>
          <Trackpoint>
            <Time>2020-03-07T17:26:01.000Z</Time>
            <Position>
              <LatitudeDegrees>40.72187972255051136016845703125</LatitudeDegrees>
              <LongitudeDegrees>-3.793272189795970916748046875</LongitudeDegrees>
            </Position>
            <AltitudeMeters>920.79998779296875</AltitudeMeters>
            <DistanceMeters>NAN</DistanceMeters>
          </Trackpoint>
          <Trackpoint>
            <Time>2020-03-07T17:26:02.000Z</Time>
            <Position>
              <LatitudeDegrees>40.7218335382640361785888671875</LatitudeDegrees>
              <LongitudeDegrees>-3.79324863664805889129638671875</LongitudeDegrees>
            </Position>
            <AltitudeMeters>920.79998779296875</AltitudeMeters>
            <DistanceMeters>NAN</DistanceMeters>
          </Trackpoint>
          <Trackpoint>
            <Time>2020-03-07T17:26:03.000Z</Time>
            <Position>
              <LatitudeDegrees>40.7217869348824024200439453125</LatitudeDegrees>
              <LongitudeDegrees>-3.7932234071195125579833984375</LongitudeDegrees>
            </Position>
            <AltitudeMeters>920.79998779296875</AltitudeMeters>
            <DistanceMeters>NAN</DistanceMeters>
          </Trackpoint>
          <Trackpoint>
            <Time>2020-03-07T17:26:04.000Z</Time>
            <Position>
              <LatitudeDegrees>40.72173857130110263824462890625</LatitudeDegrees>
              <LongitudeDegrees>-3.79319566302001476287841796875</LongitudeDegrees>
            </Position>
            <AltitudeMeters>920.79998779296875</AltitudeMeters>
            <DistanceMeters>NAN</DistanceMeters>
          </Trackpoint>
          <Trackpoint>
            <Time>2020-03-07T17:26:05.000Z</Time>
            <Position>
              <LatitudeDegrees>40.7216917164623737335205078125</LatitudeDegrees>
              <LongitudeDegrees>-3.79316682927310466766357421875</LongitudeDegrees>
            </Position>
            <AltitudeMeters>920.79998779296875</AltitudeMeters>
            <DistanceMeters>NAN</DistanceMeters>
          </Trackpoint>
          <Trackpoint>
            <Time>2020-03-07T17:26:06.000Z</Time>
            <Position>
              <LatitudeDegrees>40.72164569981396198272705078125</LatitudeDegrees>
              <LongitudeDegrees>-3.79313464276492595672607421875</LongitudeDegrees>
            </Position>
            <AltitudeMeters>920.79998779296875</AltitudeMeters>
            <DistanceMeters>NAN</DistanceMeters>
          </Trackpoint>
          <Trackpoint>
            <Time>2020-03-07T17:26:07.000Z</Time>
            <Position>
              <LatitudeDegrees>40.72159892879426479339599609375</LatitudeDegrees>
              <LongitudeDegrees>-3.793100528419017791748046875</LongitudeDegrees>
            </Position>
            <AltitudeMeters>920.79998779296875</AltitudeMeters>
            <DistanceMeters>NAN</DistanceMeters>
          </Trackpoint>
          <Trackpoint>
            <Time>2020-03-07T17:26:08.000Z</Time>
            <Position>
              <LatitudeDegrees>40.72155140340328216552734375</LatitudeDegrees>
              <LongitudeDegrees>-3.79306540824472904205322265625</LongitudeDegrees>
            </Position>
            <AltitudeMeters>920.79998779296875</AltitudeMeters>
            <DistanceMeters>NAN</DistanceMeters>
          </Trackpoint>
          <Trackpoint>
            <Time>2020-03-07T17:26:09.000Z</Time>
            <Position>
              <LatitudeDegrees>40.72150387801229953765869140625</LatitudeDegrees>
              <LongitudeDegrees>-3.79303221590816974639892578125</LongitudeDegrees>
            </Position>
            <AltitudeMeters>921</AltitudeMeters>
            <DistanceMeters>NAN</DistanceMeters>
          </Trackpoint>
          <Trackpoint>
            <Time>2020-03-07T17:26:10.000Z</Time>
            <Position>
              <LatitudeDegrees>40.72145710699260234832763671875</LatitudeDegrees>
              <LongitudeDegrees>-3.792999275028705596923828125</LongitudeDegrees>
            </Position>
            <AltitudeMeters>921</AltitudeMeters>
            <DistanceMeters>NAN</DistanceMeters>
          </Trackpoint>
          <Trackpoint>
            <Time>2020-03-07T17:26:11.000Z</Time>
            <Position>
              <LatitudeDegrees>40.72140991687774658203125</LatitudeDegrees>
              <LongitudeDegrees>-3.7929642386734485626220703125</LongitudeDegrees>
            </Position>
            <AltitudeMeters>921</AltitudeMeters>
            <DistanceMeters>NAN</DistanceMeters>
          </Trackpoint>
          <Trackpoint>
            <Time>2020-03-07T17:26:12.000Z</Time>
            <Position>
              <LatitudeDegrees>40.72136364877223968505859375</LatitudeDegrees>
              <LongitudeDegrees>-3.79293029196560382843017578125</LongitudeDegrees>
            </Position>
            <AltitudeMeters>921</AltitudeMeters>
            <DistanceMeters>NAN</DistanceMeters>
          </Trackpoint>
          <Trackpoint>
            <Time>2020-03-07T17:26:13.000Z</Time>
            <Position>
              <LatitudeDegrees>40.72131671011447906494140625</LatitudeDegrees>
              <LongitudeDegrees>-3.79289760254323482513427734375</LongitudeDegrees>
            </Position>
            <AltitudeMeters>921</AltitudeMeters>
            <DistanceMeters>NAN</DistanceMeters>
          </Trackpoint>
          <Trackpoint>
            <Time>2020-03-07T17:26:14.000Z</Time>
            <Position>
              <LatitudeDegrees>40.721268765628337860107421875</LatitudeDegrees>
              <LongitudeDegrees>-3.7928675115108489990234375</LongitudeDegrees>
            </Position>
            <AltitudeMeters>921</AltitudeMeters>
            <DistanceMeters>NAN</DistanceMeters>
          </Trackpoint>
          <Trackpoint>
            <Time>2020-03-07T17:26:15.000Z</Time>
            <Position>
              <LatitudeDegrees>40.7212183065712451934814453125</LatitudeDegrees>
              <LongitudeDegrees>-3.79283540882170200347900390625</LongitudeDegrees>
            </Position>
            <AltitudeMeters>921</AltitudeMeters>
            <DistanceMeters>NAN</DistanceMeters>
          </Trackpoint>
          <Trackpoint>
            <Time>2020-03-07T17:26:16.000Z</Time>
            <Position>
              <LatitudeDegrees>40.72116642259061336517333984375</LatitudeDegrees>
              <LongitudeDegrees>-3.79280506633222103118896484375</LongitudeDegrees>
            </Position>
            <AltitudeMeters>920.79998779296875</AltitudeMeters>
            <DistanceMeters>NAN</DistanceMeters>
          </Trackpoint>
          <Trackpoint>
            <Time>2020-03-07T17:26:17.000Z</Time>
            <Position>
              <LatitudeDegrees>40.7211130298674106597900390625</LatitudeDegrees>
              <LongitudeDegrees>-3.7927778251469135284423828125</LongitudeDegrees>
            </Position>
            <AltitudeMeters>920.79998779296875</AltitudeMeters>
            <DistanceMeters>NAN</DistanceMeters>
          </Trackpoint>
          <Trackpoint>
            <Time>2020-03-07T17:26:18.000Z</Time>
            <Position>
              <LatitudeDegrees>40.7210573740303516387939453125</LatitudeDegrees>
              <LongitudeDegrees>-3.7927540205419063568115234375</LongitudeDegrees>
            </Position>
            <AltitudeMeters>920.79998779296875</AltitudeMeters>
            <DistanceMeters>NAN</DistanceMeters>
          </Trackpoint>
          <Trackpoint>
            <Time>2020-03-07T17:26:19.000Z</Time>
            <Position>
              <LatitudeDegrees>40.72100129909813404083251953125</LatitudeDegrees>
              <LongitudeDegrees>-3.79273482598364353179931640625</LongitudeDegrees>
            </Position>
            <AltitudeMeters>920.79998779296875</AltitudeMeters>
            <DistanceMeters>NAN</DistanceMeters>
          </Trackpoint>
          <Trackpoint>
            <Time>2020-03-07T17:26:20.000Z</Time>
            <Position>
              <LatitudeDegrees>40.72094229049980640411376953125</LatitudeDegrees>
              <LongitudeDegrees>-3.79272158257663249969482421875</LongitudeDegrees>
            </Position>
            <AltitudeMeters>920.79998779296875</AltitudeMeters>
            <DistanceMeters>NAN</DistanceMeters>
          </Trackpoint>
          <Trackpoint>
            <Time>2020-03-07T17:26:21.000Z</Time>
            <Position>
              <LatitudeDegrees>40.72088261134922504425048828125</LatitudeDegrees>
              <LongitudeDegrees>-3.79271470941603183746337890625</LongitudeDegrees>
            </Position>
            <AltitudeMeters>920.79998779296875</AltitudeMeters>
            <DistanceMeters>NAN</DistanceMeters>
          </Trackpoint>
          <Trackpoint>
            <Time>2020-03-07T17:26:22.000Z</Time>
            <Position>
              <LatitudeDegrees>40.72082192637026309967041015625</LatitudeDegrees>
              <LongitudeDegrees>-3.79271236248314380645751953125</LongitudeDegrees>
            </Position>
            <AltitudeMeters>920.79998779296875</AltitudeMeters>
            <DistanceMeters>NAN</DistanceMeters>
          </Trackpoint>
          <Trackpoint>
            <Time>2020-03-07T17:26:23.000Z</Time>
            <Position>
              <LatitudeDegrees>40.720758475363254547119140625</LatitudeDegrees>
              <LongitudeDegrees>-3.79271202720701694488525390625</LongitudeDegrees>
            </Position>
            <AltitudeMeters>920.5999755859375</AltitudeMeters>
            <DistanceMeters>NAN</DistanceMeters>
          </Trackpoint>
          <Trackpoint>
            <Time>2020-03-07T17:26:24.000Z</Time>
            <Position>
              <LatitudeDegrees>40.7206942699849605560302734375</LatitudeDegrees>
              <LongitudeDegrees>-3.7927119433879852294921875</LongitudeDegrees>
            </Position>
            <AltitudeMeters>920.4000244140625</AltitudeMeters>
            <DistanceMeters>NAN</DistanceMeters>
          </Trackpoint>
          <Trackpoint>
            <Time>2020-03-07T17:26:25.000Z</Time>
            <Position>
              <LatitudeDegrees>40.72062897495925426483154296875</LatitudeDegrees>
              <LongitudeDegrees>-3.7927131168544292449951171875</LongitudeDegrees>
            </Position>
            <AltitudeMeters>920.4000244140625</AltitudeMeters>
            <DistanceMeters>NAN</DistanceMeters>
          </Trackpoint>
          <Trackpoint>
            <Time>2020-03-07T17:26:26.000Z</Time>
            <Position>
              <LatitudeDegrees>40.72056108154356479644775390625</LatitudeDegrees>
              <LongitudeDegrees>-3.7927119433879852294921875</LongitudeDegrees>
            </Position>
            <AltitudeMeters>920.20001220703125</AltitudeMeters>
            <DistanceMeters>NAN</DistanceMeters>
          </Trackpoint>
          <Trackpoint>
            <Time>2020-03-07T17:26:27.000Z</Time>
            <Position>
              <LatitudeDegrees>40.72049620561301708221435546875</LatitudeDegrees>
              <LongitudeDegrees>-3.7927134521305561065673828125</LongitudeDegrees>
            </Position>
            <AltitudeMeters>920.20001220703125</AltitudeMeters>
            <DistanceMeters>NAN</DistanceMeters>
          </Trackpoint>
          <Trackpoint>
            <Time>2020-03-07T17:26:28.000Z</Time>
            <Position>
              <LatitudeDegrees>40.72043250314891338348388671875</LatitudeDegrees>
              <LongitudeDegrees>-3.7927144579589366912841796875</LongitudeDegrees>
            </Position>
            <AltitudeMeters>920</AltitudeMeters>
            <DistanceMeters>NAN</DistanceMeters>
          </Trackpoint>
          <Trackpoint>
            <Time>2020-03-07T17:26:29.000Z</Time>
            <Position>
              <LatitudeDegrees>40.72036930359899997711181640625</LatitudeDegrees>
              <LongitudeDegrees>-3.792717643082141876220703125</LongitudeDegrees>
            </Position>
            <AltitudeMeters>919.79998779296875</AltitudeMeters>
            <DistanceMeters>NAN</DistanceMeters>
          </Trackpoint>
          <Trackpoint>
            <Time>2020-03-07T17:26:30.000Z</Time>
            <Position>
              <LatitudeDegrees>40.7203073613345623016357421875</LatitudeDegrees>
              <LongitudeDegrees>-3.792719654738903045654296875</LongitudeDegrees>
            </Position>
            <AltitudeMeters>919.79998779296875</AltitudeMeters>
            <DistanceMeters>NAN</DistanceMeters>
          </Trackpoint>
          <Trackpoint>
            <Time>2020-03-07T17:26:31.000Z</Time>
            <Position>
              <LatitudeDegrees>40.720248520374298095703125</LatitudeDegrees>
              <LongitudeDegrees>-3.79272392950952053070068359375</LongitudeDegrees>
            </Position>
            <AltitudeMeters>919.4000244140625</AltitudeMeters>
            <DistanceMeters>NAN</DistanceMeters>
          </Trackpoint>
          <Trackpoint>
            <Time>2020-03-07T17:26:32.000Z</Time>
            <Position>
              <LatitudeDegrees>40.72019194252789020538330078125</LatitudeDegrees>
              <LongitudeDegrees>-3.79272929392755031585693359375</LongitudeDegrees>
            </Position>
            <AltitudeMeters>919.4000244140625</AltitudeMeters>
            <DistanceMeters>NAN</DistanceMeters>
          </Trackpoint>
          <Trackpoint>
            <Time>2020-03-07T17:26:33.000Z</Time>
            <Position>
              <LatitudeDegrees>40.720135867595672607421875</LatitudeDegrees>
              <LongitudeDegrees>-3.79273398779332637786865234375</LongitudeDegrees>
            </Position>
            <AltitudeMeters>919.4000244140625</AltitudeMeters>
            <DistanceMeters>NAN</DistanceMeters>
          </Trackpoint>
          <Trackpoint>
            <Time>2020-03-07T17:26:34.000Z</Time>
            <Position>
              <LatitudeDegrees>40.72008046321570873260498046875</LatitudeDegrees>
              <LongitudeDegrees>-3.79273951984941959381103515625</LongitudeDegrees>
            </Position>
            <AltitudeMeters>919.20001220703125</AltitudeMeters>
            <DistanceMeters>NAN</DistanceMeters>
          </Trackpoint>
          <Trackpoint>
            <Time>2020-03-07T17:26:35.000Z</Time>
            <Position>
              <LatitudeDegrees>40.720024220645427703857421875</LatitudeDegrees>
              <LongitudeDegrees>-3.7927441298961639404296875</LongitudeDegrees>
            </Position>
            <AltitudeMeters>919</AltitudeMeters>
            <DistanceMeters>NAN</DistanceMeters>
          </Trackpoint>
          <Trackpoint>
            <Time>2020-03-07T17:26:36.000Z</Time>
            <Position>
              <LatitudeDegrees>40.71997183375060558319091796875</LatitudeDegrees>
              <LongitudeDegrees>-3.79274974577128887176513671875</LongitudeDegrees>
            </Position>
            <AltitudeMeters>919</AltitudeMeters>
            <DistanceMeters>NAN</DistanceMeters>
          </Trackpoint>
          <Trackpoint>
            <Time>2020-03-07T17:26:37.000Z</Time>
            <Position>
              <LatitudeDegrees>40.71991919539868831634521484375</LatitudeDegrees>
              <LongitudeDegrees>-3.7927548587322235107421875</LongitudeDegrees>
            </Position>
            <AltitudeMeters>919</AltitudeMeters>
            <DistanceMeters>NAN</DistanceMeters>
          </Trackpoint>
          <Trackpoint>
            <Time>2020-03-07T17:26:38.000Z</Time>
            <Position>
              <LatitudeDegrees>40.71986705996096134185791015625</LatitudeDegrees>
              <LongitudeDegrees>-3.7927630729973316192626953125</LongitudeDegrees>
            </Position>
            <AltitudeMeters>918.79998779296875</AltitudeMeters>
            <DistanceMeters>NAN</DistanceMeters>
          </Trackpoint>
          <Trackpoint>
            <Time>2020-03-07T17:26:39.000Z</Time>
            <Position>
              <LatitudeDegrees>40.71981358341872692108154296875</LatitudeDegrees>
              <LongitudeDegrees>-3.7927738018333911895751953125</LongitudeDegrees>
            </Position>
            <AltitudeMeters>918.79998779296875</AltitudeMeters>
            <DistanceMeters>NAN</DistanceMeters>
          </Trackpoint>
          <Trackpoint>
            <Time>2020-03-07T17:26:40.000Z</Time>
            <Position>
              <LatitudeDegrees>40.71975968778133392333984375</LatitudeDegrees>
              <LongitudeDegrees>-3.79278545267879962921142578125</LongitudeDegrees>
            </Position>
            <AltitudeMeters>918.79998779296875</AltitudeMeters>
            <DistanceMeters>NAN</DistanceMeters>
          </Trackpoint>
          <Trackpoint>
            <Time>2020-03-07T17:26:41.000Z</Time>
            <Position>
              <LatitudeDegrees>40.71970378048717975616455078125</LatitudeDegrees>
              <LongitudeDegrees>-3.79279576241970062255859375</LongitudeDegrees>
            </Position>
            <AltitudeMeters>918.79998779296875</AltitudeMeters>
            <DistanceMeters>NAN</DistanceMeters>
          </Trackpoint>
          <Trackpoint>
            <Time>2020-03-07T17:26:42.000Z</Time>
            <Position>
              <LatitudeDegrees>40.71964812465012073516845703125</LatitudeDegrees>
              <LongitudeDegrees>-3.79280623979866504669189453125</LongitudeDegrees>
            </Position>
            <AltitudeMeters>918.79998779296875</AltitudeMeters>
            <DistanceMeters>NAN</DistanceMeters>
          </Trackpoint>
          <Trackpoint>
            <Time>2020-03-07T17:26:43.000Z</Time>
            <Position>
              <LatitudeDegrees>40.71959070861339569091796875</LatitudeDegrees>
              <LongitudeDegrees>-3.792817890644073486328125</LongitudeDegrees>
            </Position>
            <AltitudeMeters>918.79998779296875</AltitudeMeters>
            <DistanceMeters>NAN</DistanceMeters>
          </Trackpoint>
          <Trackpoint>
            <Time>2020-03-07T17:26:44.000Z</Time>
            <Position>
              <LatitudeDegrees>40.7195328734815120697021484375</LatitudeDegrees>
              <LongitudeDegrees>-3.79282987676560878753662109375</LongitudeDegrees>
            </Position>
            <AltitudeMeters>918.79998779296875</AltitudeMeters>
            <DistanceMeters>NAN</DistanceMeters>
          </Trackpoint>
          <Trackpoint>
            <Time>2020-03-07T17:26:45.000Z</Time>
            <Position>
              <LatitudeDegrees>40.71947344578802585601806640625</LatitudeDegrees>
              <LongitudeDegrees>-3.79284177906811237335205078125</LongitudeDegrees>
            </Position>
            <AltitudeMeters>918.5999755859375</AltitudeMeters>
            <DistanceMeters>NAN</DistanceMeters>
          </Trackpoint>
          <Trackpoint>
            <Time>2020-03-07T17:26:46.000Z</Time>
            <Position>
              <LatitudeDegrees>40.7194125093519687652587890625</LatitudeDegrees>
              <LongitudeDegrees>-3.79285317845642566680908203125</LongitudeDegrees>
            </Position>
            <AltitudeMeters>918.5999755859375</AltitudeMeters>
            <DistanceMeters>NAN</DistanceMeters>
          </Trackpoint>
          <Trackpoint>
            <Time>2020-03-07T17:26:47.000Z</Time>
            <Position>
              <LatitudeDegrees>40.719350986182689666748046875</LatitudeDegrees>
              <LongitudeDegrees>-3.79286491312086582183837890625</LongitudeDegrees>
            </Position>
            <AltitudeMeters>918.5999755859375</AltitudeMeters>
            <DistanceMeters>NAN</DistanceMeters>
          </Trackpoint>
          <Trackpoint>
            <Time>2020-03-07T17:26:48.000Z</Time>
            <Position>
              <LatitudeDegrees>40.71928954683244228363037109375</LatitudeDegrees>
              <LongitudeDegrees>-3.79287756979465484619140625</LongitudeDegrees>
            </Position>
            <AltitudeMeters>918.4000244140625</AltitudeMeters>
            <DistanceMeters>NAN</DistanceMeters>
          </Trackpoint>
          <Trackpoint>
            <Time>2020-03-07T17:26:49.000Z</Time>
            <Position>
              <LatitudeDegrees>40.71922869421541690826416015625</LatitudeDegrees>
              <LongitudeDegrees>-3.79289072938263416290283203125</LongitudeDegrees>
            </Position>
            <AltitudeMeters>918.20001220703125</AltitudeMeters>
            <DistanceMeters>NAN</DistanceMeters>
          </Trackpoint>
          <Trackpoint>
            <Time>2020-03-07T17:26:50.000Z</Time>
            <Position>
              <LatitudeDegrees>40.71916691958904266357421875</LatitudeDegrees>
              <LongitudeDegrees>-3.7929038889706134796142578125</LongitudeDegrees>
            </Position>
            <AltitudeMeters>917.79998779296875</AltitudeMeters>
            <DistanceMeters>NAN</DistanceMeters>
          </Trackpoint>
          <Trackpoint>
            <Time>2020-03-07T17:26:51.000Z</Time>
            <Position>
              <LatitudeDegrees>40.71910447441041469573974609375</LatitudeDegrees>
              <LongitudeDegrees>-3.79291419871151447296142578125</LongitudeDegrees>
            </Position>
            <AltitudeMeters>917.5999755859375</AltitudeMeters>
            <DistanceMeters>NAN</DistanceMeters>
          </Trackpoint>
          <Trackpoint>
            <Time>2020-03-07T17:26:52.000Z</Time>
            <Position>
              <LatitudeDegrees>40.71904177777469158172607421875</LatitudeDegrees>
              <LongitudeDegrees>-3.79292693920433521270751953125</LongitudeDegrees>
            </Position>
            <AltitudeMeters>917.4000244140625</AltitudeMeters>
            <DistanceMeters>NAN</DistanceMeters>
          </Trackpoint>
          <Trackpoint>
            <Time>2020-03-07T17:26:53.000Z</Time>
            <Position>
              <LatitudeDegrees>40.718978829681873321533203125</LatitudeDegrees>
              <LongitudeDegrees>-3.79294018261134624481201171875</LongitudeDegrees>
            </Position>
            <AltitudeMeters>917.4000244140625</AltitudeMeters>
            <DistanceMeters>NAN</DistanceMeters>
          </Trackpoint>
          <Trackpoint>
            <Time>2020-03-07T17:26:54.000Z</Time>
            <Position>
              <LatitudeDegrees>40.71891479194164276123046875</LatitudeDegrees>
              <LongitudeDegrees>-3.79295392893254756927490234375</LongitudeDegrees>
            </Position>
            <AltitudeMeters>917.20001220703125</AltitudeMeters>
            <DistanceMeters>NAN</DistanceMeters>
          </Trackpoint>
          <Trackpoint>
            <Time>2020-03-07T17:26:55.000Z</Time>
            <Position>
              <LatitudeDegrees>40.71885201148688793182373046875</LatitudeDegrees>
              <LongitudeDegrees>-3.79296616651117801666259765625</LongitudeDegrees>
            </Position>
            <AltitudeMeters>917</AltitudeMeters>
            <DistanceMeters>NAN</DistanceMeters>
          </Trackpoint>
          <Trackpoint>
            <Time>2020-03-07T17:26:56.000Z</Time>
            <Position>
              <LatitudeDegrees>40.71878847666084766387939453125</LatitudeDegrees>
              <LongitudeDegrees>-3.792979158461093902587890625</LongitudeDegrees>
            </Position>
            <AltitudeMeters>917</AltitudeMeters>
            <DistanceMeters>NAN</DistanceMeters>
          </Trackpoint>
          <Trackpoint>
            <Time>2020-03-07T17:26:57.000Z</Time>
            <Position>
              <LatitudeDegrees>40.71872309781610965728759765625</LatitudeDegrees>
              <LongitudeDegrees>-3.792990557849407196044921875</LongitudeDegrees>
            </Position>
            <AltitudeMeters>916.79998779296875</AltitudeMeters>
            <DistanceMeters>NAN</DistanceMeters>
          </Trackpoint>
          <Trackpoint>
            <Time>2020-03-07T17:26:58.000Z</Time>
            <Position>
              <LatitudeDegrees>40.71865654550492763519287109375</LatitudeDegrees>
              <LongitudeDegrees>-3.79300338216125965118408203125</LongitudeDegrees>
            </Position>
            <AltitudeMeters>916.79998779296875</AltitudeMeters>
            <DistanceMeters>NAN</DistanceMeters>
          </Trackpoint>
          <Trackpoint>
            <Time>2020-03-07T17:26:59.000Z</Time>
            <Position>
              <LatitudeDegrees>40.7185917533934116363525390625</LatitudeDegrees>
              <LongitudeDegrees>-3.79301696084439754486083984375</LongitudeDegrees>
            </Position>
            <AltitudeMeters>916.5999755859375</AltitudeMeters>
            <DistanceMeters>NAN</DistanceMeters>
          </Trackpoint>
          <Trackpoint>
            <Time>2020-03-07T17:27:00.000Z</Time>
            <Position>
              <LatitudeDegrees>40.71852444671094417572021484375</LatitudeDegrees>
              <LongitudeDegrees>-3.79302970133721828460693359375</LongitudeDegrees>
            </Position>
            <AltitudeMeters>916.4000244140625</AltitudeMeters>
            <DistanceMeters>NAN</DistanceMeters>
          </Trackpoint>
          <Trackpoint>
            <Time>2020-03-07T17:27:01.000Z</Time>
            <Position>
              <LatitudeDegrees>40.71845789439976215362548828125</LatitudeDegrees>
              <LongitudeDegrees>-3.79304210655391216278076171875</LongitudeDegrees>
            </Position>
            <AltitudeMeters>916.20001220703125</AltitudeMeters>
            <DistanceMeters>NAN</DistanceMeters>
          </Trackpoint>
          <Trackpoint>
            <Time>2020-03-07T17:27:02.000Z</Time>
            <Position>
              <LatitudeDegrees>40.718392096459865570068359375</LatitudeDegrees>
              <LongitudeDegrees>-3.793053589761257171630859375</LongitudeDegrees>
            </Position>
            <AltitudeMeters>916</AltitudeMeters>
            <DistanceMeters>NAN</DistanceMeters>
          </Trackpoint>
          <Trackpoint>
            <Time>2020-03-07T17:27:03.000Z</Time>
            <Position>
              <LatitudeDegrees>40.71832512505352497100830078125</LatitudeDegrees>
              <LongitudeDegrees>-3.793064653873443603515625</LongitudeDegrees>
            </Position>
            <AltitudeMeters>915.79998779296875</AltitudeMeters>
            <DistanceMeters>NAN</DistanceMeters>
          </Trackpoint>
          <Trackpoint>
            <Time>2020-03-07T17:27:04.000Z</Time>
            <Position>
              <LatitudeDegrees>40.71825806982815265655517578125</LatitudeDegrees>
              <LongitudeDegrees>-3.79307663999497890472412109375</LongitudeDegrees>
            </Position>
            <AltitudeMeters>915.4000244140625</AltitudeMeters>
            <DistanceMeters>NAN</DistanceMeters>
          </Trackpoint>
          <Trackpoint>
            <Time>2020-03-07T17:27:05.000Z</Time>
            <Position>
              <LatitudeDegrees>40.7181910984218120574951171875</LatitudeDegrees>
              <LongitudeDegrees>-3.7930896319448947906494140625</LongitudeDegrees>
            </Position>
            <AltitudeMeters>915</AltitudeMeters>
            <DistanceMeters>NAN</DistanceMeters>
          </Trackpoint>
          <Trackpoint>
            <Time>2020-03-07T17:27:06.000Z</Time>
            <Position>
              <LatitudeDegrees>40.71812479756772518157958984375</LatitudeDegrees>
              <LongitudeDegrees>-3.79310245625674724578857421875</LongitudeDegrees>
            </Position>
            <AltitudeMeters>914.79998779296875</AltitudeMeters>
            <DistanceMeters>NAN</DistanceMeters>
          </Trackpoint>
          <Trackpoint>
            <Time>2020-03-07T17:27:07.000Z</Time>
            <Position>
              <LatitudeDegrees>40.7180589996278285980224609375</LatitudeDegrees>
              <LongitudeDegrees>-3.7931147776544094085693359375</LongitudeDegrees>
            </Position>
            <AltitudeMeters>914.79998779296875</AltitudeMeters>
            <DistanceMeters>NAN</DistanceMeters>
          </Trackpoint>
          <Trackpoint>
            <Time>2020-03-07T17:27:08.000Z</Time>
            <Position>
              <LatitudeDegrees>40.7179914414882659912109375</LatitudeDegrees>
              <LongitudeDegrees>-3.7931271828711032867431640625</LongitudeDegrees>
            </Position>
            <AltitudeMeters>914.5999755859375</AltitudeMeters>
            <DistanceMeters>NAN</DistanceMeters>
          </Trackpoint>
          <Trackpoint>
            <Time>2020-03-07T17:27:09.000Z</Time>
            <Position>
              <LatitudeDegrees>40.717923380434513092041015625</LatitudeDegrees>
              <LongitudeDegrees>-3.79313967190682888031005859375</LongitudeDegrees>
            </Position>
            <AltitudeMeters>914.4000244140625</AltitudeMeters>
            <DistanceMeters>NAN</DistanceMeters>
          </Trackpoint>
          <Trackpoint>
            <Time>2020-03-07T17:27:10.000Z</Time>
            <Position>
              <LatitudeDegrees>40.7178546488285064697265625</LatitudeDegrees>
              <LongitudeDegrees>-3.79315291531383991241455078125</LongitudeDegrees>
            </Position>
            <AltitudeMeters>914.20001220703125</AltitudeMeters>
            <DistanceMeters>NAN</DistanceMeters>
          </Trackpoint>
          <Trackpoint>
            <Time>2020-03-07T17:27:11.000Z</Time>
            <Position>
              <LatitudeDegrees>40.71778549812734127044677734375</LatitudeDegrees>
              <LongitudeDegrees>-3.7931664101779460906982421875</LongitudeDegrees>
            </Position>
            <AltitudeMeters>914</AltitudeMeters>
            <DistanceMeters>NAN</DistanceMeters>
          </Trackpoint>
          <Trackpoint>
            <Time>2020-03-07T17:27:12.000Z</Time>
            <Position>
              <LatitudeDegrees>40.71771643124520778656005859375</LatitudeDegrees>
              <LongitudeDegrees>-3.79317931830883026123046875</LongitudeDegrees>
            </Position>
            <AltitudeMeters>914</AltitudeMeters>
            <DistanceMeters>NAN</DistanceMeters>
          </Trackpoint>
          <Trackpoint>
            <Time>2020-03-07T17:27:13.000Z</Time>
            <Position>
              <LatitudeDegrees>40.7176469452679157257080078125</LatitudeDegrees>
              <LongitudeDegrees>-3.7931915558874607086181640625</LongitudeDegrees>
            </Position>
            <AltitudeMeters>914</AltitudeMeters>
            <DistanceMeters>NAN</DistanceMeters>
          </Trackpoint>
          <Trackpoint>
            <Time>2020-03-07T17:27:14.000Z</Time>
            <Position>
              <LatitudeDegrees>40.7175772078335285186767578125</LatitudeDegrees>
              <LongitudeDegrees>-3.79320287145674228668212890625</LongitudeDegrees>
            </Position>
            <AltitudeMeters>913.79998779296875</AltitudeMeters>
            <DistanceMeters>NAN</DistanceMeters>
          </Trackpoint>
          <Trackpoint>
            <Time>2020-03-07T17:27:15.000Z</Time>
            <Position>
              <LatitudeDegrees>40.7175078056752681732177734375</LatitudeDegrees>
              <LongitudeDegrees>-3.79321494139730930328369140625</LongitudeDegrees>
            </Position>
            <AltitudeMeters>913.79998779296875</AltitudeMeters>
            <DistanceMeters>NAN</DistanceMeters>
          </Trackpoint>
          <Trackpoint>
            <Time>2020-03-07T17:27:16.000Z</Time>
            <Position>
              <LatitudeDegrees>40.7174380682408809661865234375</LatitudeDegrees>
              <LongitudeDegrees>-3.7932270951569080352783203125</LongitudeDegrees>
            </Position>
            <AltitudeMeters>913.5999755859375</AltitudeMeters>
            <DistanceMeters>NAN</DistanceMeters>
          </Trackpoint>
          <Trackpoint>
            <Time>2020-03-07T17:27:17.000Z</Time>
            <Position>
              <LatitudeDegrees>40.71737009100615978240966796875</LatitudeDegrees>
              <LongitudeDegrees>-3.793238662183284759521484375</LongitudeDegrees>
            </Position>
            <AltitudeMeters>913.5999755859375</AltitudeMeters>
            <DistanceMeters>NAN</DistanceMeters>
          </Trackpoint>
          <Trackpoint>
            <Time>2020-03-07T17:27:18.000Z</Time>
            <Position>
              <LatitudeDegrees>40.7173012755811214447021484375</LatitudeDegrees>
              <LongitudeDegrees>-3.7932492233812808990478515625</LongitudeDegrees>
            </Position>
            <AltitudeMeters>913.4000244140625</AltitudeMeters>
            <DistanceMeters>NAN</DistanceMeters>
          </Trackpoint>
          <Trackpoint>
            <Time>2020-03-07T17:27:19.000Z</Time>
            <Position>
              <LatitudeDegrees>40.71723195724189281463623046875</LatitudeDegrees>
              <LongitudeDegrees>-3.79325978457927703857421875</LongitudeDegrees>
            </Position>
            <AltitudeMeters>913.20001220703125</AltitudeMeters>
            <DistanceMeters>NAN</DistanceMeters>
          </Trackpoint>
          <Trackpoint>
            <Time>2020-03-07T17:27:20.000Z</Time>
            <Position>
              <LatitudeDegrees>40.7171631418168544769287109375</LatitudeDegrees>
              <LongitudeDegrees>-3.793270178139209747314453125</LongitudeDegrees>
            </Position>
            <AltitudeMeters>912.79998779296875</AltitudeMeters>
            <DistanceMeters>NAN</DistanceMeters>
          </Trackpoint>
          <Trackpoint>
            <Time>2020-03-07T17:27:21.000Z</Time>
            <Position>
              <LatitudeDegrees>40.7170937396585941314697265625</LatitudeDegrees>
              <LongitudeDegrees>-3.79328258335590362548828125</LongitudeDegrees>
            </Position>
            <AltitudeMeters>912.5999755859375</AltitudeMeters>
            <DistanceMeters>NAN</DistanceMeters>
          </Trackpoint>
          <Trackpoint>
            <Time>2020-03-07T17:27:22.000Z</Time>
            <Position>
              <LatitudeDegrees>40.7170243375003337860107421875</LatitudeDegrees>
              <LongitudeDegrees>-3.79329741932451725006103515625</LongitudeDegrees>
            </Position>
            <AltitudeMeters>912.4000244140625</AltitudeMeters>
            <DistanceMeters>NAN</DistanceMeters>
          </Trackpoint>
          <Trackpoint>
            <Time>2020-03-07T17:27:23.000Z</Time>
            <Position>
              <LatitudeDegrees>40.71695485152304172515869140625</LatitudeDegrees>
              <LongitudeDegrees>-3.7933119200170040130615234375</LongitudeDegrees>
            </Position>
            <AltitudeMeters>912.4000244140625</AltitudeMeters>
            <DistanceMeters>NAN</DistanceMeters>
          </Trackpoint>
          <Trackpoint>
            <Time>2020-03-07T17:27:24.000Z</Time>
            <Position>
              <LatitudeDegrees>40.71688511408865451812744140625</LatitudeDegrees>
              <LongitudeDegrees>-3.79332683980464935302734375</LongitudeDegrees>
            </Position>
            <AltitudeMeters>912.20001220703125</AltitudeMeters>
            <DistanceMeters>NAN</DistanceMeters>
          </Trackpoint>
          <Trackpoint>
            <Time>2020-03-07T17:27:25.000Z</Time>
            <Position>
              <LatitudeDegrees>40.71681487374007701873779296875</LatitudeDegrees>
              <LongitudeDegrees>-3.79334201104938983917236328125</LongitudeDegrees>
            </Position>
            <AltitudeMeters>912.20001220703125</AltitudeMeters>
            <DistanceMeters>NAN</DistanceMeters>
          </Trackpoint>
          <Trackpoint>
            <Time>2020-03-07T17:27:26.000Z</Time>
            <Position>
              <LatitudeDegrees>40.71674446575343608856201171875</LatitudeDegrees>
              <LongitudeDegrees>-3.79335575737059116363525390625</LongitudeDegrees>
            </Position>
            <AltitudeMeters>912</AltitudeMeters>
            <DistanceMeters>NAN</DistanceMeters>
          </Trackpoint>
          <Trackpoint>
            <Time>2020-03-07T17:27:27.000Z</Time>
            <Position>
              <LatitudeDegrees>40.7166733033955097198486328125</LatitudeDegrees>
              <LongitudeDegrees>-3.793368078768253326416015625</LongitudeDegrees>
            </Position>
            <AltitudeMeters>912</AltitudeMeters>
            <DistanceMeters>NAN</DistanceMeters>
          </Trackpoint>
          <Trackpoint>
            <Time>2020-03-07T17:27:28.000Z</Time>
            <Position>
              <LatitudeDegrees>40.7166022248566150665283203125</LatitudeDegrees>
              <LongitudeDegrees>-3.79337922669947147369384765625</LongitudeDegrees>
            </Position>
            <AltitudeMeters>911.79998779296875</AltitudeMeters>
            <DistanceMeters>NAN</DistanceMeters>
          </Trackpoint>
          <Trackpoint>
            <Time>2020-03-07T17:27:29.000Z</Time>
            <Position>
              <LatitudeDegrees>40.71653190068900585174560546875</LatitudeDegrees>
              <LongitudeDegrees>-3.79339062608778476715087890625</LongitudeDegrees>
            </Position>
            <AltitudeMeters>911.79998779296875</AltitudeMeters>
            <DistanceMeters>NAN</DistanceMeters>
          </Trackpoint>
          <Trackpoint>
            <Time>2020-03-07T17:27:30.000Z</Time>
            <Position>
              <LatitudeDegrees>40.71646266616880893707275390625</LatitudeDegrees>
              <LongitudeDegrees>-3.793404288589954376220703125</LongitudeDegrees>
            </Position>
            <AltitudeMeters>911.5999755859375</AltitudeMeters>
            <DistanceMeters>NAN</DistanceMeters>
          </Trackpoint>
          <Trackpoint>
            <Time>2020-03-07T17:27:31.000Z</Time>
            <Position>
              <LatitudeDegrees>40.71639410220086574554443359375</LatitudeDegrees>
              <LongitudeDegrees>-3.79341811873018741607666015625</LongitudeDegrees>
            </Position>
            <AltitudeMeters>911.5999755859375</AltitudeMeters>
            <DistanceMeters>NAN</DistanceMeters>
          </Trackpoint>
          <Trackpoint>
            <Time>2020-03-07T17:27:32.000Z</Time>
            <Position>
              <LatitudeDegrees>40.71632377803325653076171875</LatitudeDegrees>
              <LongitudeDegrees>-3.7934329546988010406494140625</LongitudeDegrees>
            </Position>
            <AltitudeMeters>911.5999755859375</AltitudeMeters>
            <DistanceMeters>NAN</DistanceMeters>
          </Trackpoint>
          <Trackpoint>
            <Time>2020-03-07T17:27:33.000Z</Time>
            <Position>
              <LatitudeDegrees>40.71625311858952045440673828125</LatitudeDegrees>
              <LongitudeDegrees>-3.79344762302935123443603515625</LongitudeDegrees>
            </Position>
            <AltitudeMeters>911.4000244140625</AltitudeMeters>
            <DistanceMeters>NAN</DistanceMeters>
          </Trackpoint>
          <Trackpoint>
            <Time>2020-03-07T17:27:34.000Z</Time>
            <Position>
              <LatitudeDegrees>40.7161817885935306549072265625</LatitudeDegrees>
              <LongitudeDegrees>-3.79346053116023540496826171875</LongitudeDegrees>
            </Position>
            <AltitudeMeters>911.4000244140625</AltitudeMeters>
            <DistanceMeters>NAN</DistanceMeters>
          </Trackpoint>
          <Trackpoint>
            <Time>2020-03-07T17:27:35.000Z</Time>
            <Position>
              <LatitudeDegrees>40.71611112914979457855224609375</LatitudeDegrees>
              <LongitudeDegrees>-3.7934731878340244293212890625</LongitudeDegrees>
            </Position>
            <AltitudeMeters>911.20001220703125</AltitudeMeters>
            <DistanceMeters>NAN</DistanceMeters>
          </Trackpoint>
          <Trackpoint>
            <Time>2020-03-07T17:27:36.000Z</Time>
            <Position>
              <LatitudeDegrees>40.7160396315157413482666015625</LatitudeDegrees>
              <LongitudeDegrees>-3.79348752088844776153564453125</LongitudeDegrees>
            </Position>
            <AltitudeMeters>911</AltitudeMeters>
            <DistanceMeters>NAN</DistanceMeters>
          </Trackpoint>
          <Trackpoint>
            <Time>2020-03-07T17:27:37.000Z</Time>
            <Position>
              <LatitudeDegrees>40.7159675471484661102294921875</LatitudeDegrees>
              <LongitudeDegrees>-3.79350252449512481689453125</LongitudeDegrees>
            </Position>
            <AltitudeMeters>911</AltitudeMeters>
            <DistanceMeters>NAN</DistanceMeters>
          </Trackpoint>
          <Trackpoint>
            <Time>2020-03-07T17:27:38.000Z</Time>
            <Position>
              <LatitudeDegrees>40.71589604951441287994384765625</LatitudeDegrees>
              <LongitudeDegrees>-3.79351719282567501068115234375</LongitudeDegrees>
            </Position>
            <AltitudeMeters>910.79998779296875</AltitudeMeters>
            <DistanceMeters>NAN</DistanceMeters>
          </Trackpoint>
          <Trackpoint>
            <Time>2020-03-07T17:27:39.000Z</Time>
            <Position>
              <LatitudeDegrees>40.71582631208002567291259765625</LatitudeDegrees>
              <LongitudeDegrees>-3.7935375608503818511962890625</LongitudeDegrees>
            </Position>
            <AltitudeMeters>910.5999755859375</AltitudeMeters>
            <DistanceMeters>NAN</DistanceMeters>
          </Trackpoint>
          <Trackpoint>
            <Time>2020-03-07T17:27:40.000Z</Time>
            <Position>
              <LatitudeDegrees>40.7157576642930507659912109375</LatitudeDegrees>
              <LongitudeDegrees>-3.79356362856924533843994140625</LongitudeDegrees>
            </Position>
            <AltitudeMeters>910.20001220703125</AltitudeMeters>
            <DistanceMeters>NAN</DistanceMeters>
          </Trackpoint>
          <Trackpoint>
            <Time>2020-03-07T17:27:41.000Z</Time>
            <Position>
              <LatitudeDegrees>40.71569069288671016693115234375</LatitudeDegrees>
              <LongitudeDegrees>-3.79359464161098003387451171875</LongitudeDegrees>
            </Position>
            <AltitudeMeters>909.79998779296875</AltitudeMeters>
            <DistanceMeters>NAN</DistanceMeters>
          </Trackpoint>
          <Trackpoint>
            <Time>2020-03-07T17:27:42.000Z</Time>
            <Position>
              <LatitudeDegrees>40.71562380529940128326416015625</LatitudeDegrees>
              <LongitudeDegrees>-3.79362967796623706817626953125</LongitudeDegrees>
            </Position>
            <AltitudeMeters>909.5999755859375</AltitudeMeters>
            <DistanceMeters>NAN</DistanceMeters>
          </Trackpoint>
          <Trackpoint>
            <Time>2020-03-07T17:27:43.000Z</Time>
            <Position>
              <LatitudeDegrees>40.7155573368072509765625</LatitudeDegrees>
              <LongitudeDegrees>-3.793665803968906402587890625</LongitudeDegrees>
            </Position>
            <AltitudeMeters>909.5999755859375</AltitudeMeters>
            <DistanceMeters>NAN</DistanceMeters>
          </Trackpoint>
          <Trackpoint>
            <Time>2020-03-07T17:27:44.000Z</Time>
            <Position>
              <LatitudeDegrees>40.71549170650541782379150390625</LatitudeDegrees>
              <LongitudeDegrees>-3.793701343238353729248046875</LongitudeDegrees>
            </Position>
            <AltitudeMeters>909.4000244140625</AltitudeMeters>
            <DistanceMeters>NAN</DistanceMeters>
          </Trackpoint>
          <Trackpoint>
            <Time>2020-03-07T17:27:45.000Z</Time>
            <Position>
              <LatitudeDegrees>40.71542582474648952484130859375</LatitudeDegrees>
              <LongitudeDegrees>-3.7937357090413570404052734375</LongitudeDegrees>
            </Position>
            <AltitudeMeters>909.4000244140625</AltitudeMeters>
            <DistanceMeters>NAN</DistanceMeters>
          </Trackpoint>
          <Trackpoint>
            <Time>2020-03-07T17:27:46.000Z</Time>
            <Position>
              <LatitudeDegrees>40.71536145173013210296630859375</LatitudeDegrees>
              <LongitudeDegrees>-3.79377082921564579010009765625</LongitudeDegrees>
            </Position>
            <AltitudeMeters>909.4000244140625</AltitudeMeters>
            <DistanceMeters>NAN</DistanceMeters>
          </Trackpoint>
          <Trackpoint>
            <Time>2020-03-07T17:27:47.000Z</Time>
            <Position>
              <LatitudeDegrees>40.7152969948947429656982421875</LatitudeDegrees>
              <LongitudeDegrees>-3.79380653612315654754638671875</LongitudeDegrees>
            </Position>
            <AltitudeMeters>909.4000244140625</AltitudeMeters>
            <DistanceMeters>NAN</DistanceMeters>
          </Trackpoint>
          <Trackpoint>
            <Time>2020-03-07T17:27:48.000Z</Time>
            <Position>
              <LatitudeDegrees>40.71522968821227550506591796875</LatitudeDegrees>
              <LongitudeDegrees>-3.79384073428809642791748046875</LongitudeDegrees>
            </Position>
            <AltitudeMeters>909.4000244140625</AltitudeMeters>
            <DistanceMeters>NAN</DistanceMeters>
          </Trackpoint>
          <Trackpoint>
            <Time>2020-03-07T17:27:49.000Z</Time>
            <Position>
              <LatitudeDegrees>40.71516263298690319061279296875</LatitudeDegrees>
              <LongitudeDegrees>-3.79387401044368743896484375</LongitudeDegrees>
            </Position>
            <AltitudeMeters>909.20001220703125</AltitudeMeters>
            <DistanceMeters>NAN</DistanceMeters>
          </Trackpoint>
          <Trackpoint>
            <Time>2020-03-07T17:27:50.000Z</Time>
            <Position>
              <LatitudeDegrees>40.71509557776153087615966796875</LatitudeDegrees>
              <LongitudeDegrees>-3.79390443675220012664794921875</LongitudeDegrees>
            </Position>
            <AltitudeMeters>909.20001220703125</AltitudeMeters>
            <DistanceMeters>NAN</DistanceMeters>
          </Trackpoint>
          <Trackpoint>
            <Time>2020-03-07T17:27:51.000Z</Time>
            <Position>
              <LatitudeDegrees>40.7150314562022686004638671875</LatitudeDegrees>
              <LongitudeDegrees>-3.7939351983368396759033203125</LongitudeDegrees>
            </Position>
            <AltitudeMeters>909.20001220703125</AltitudeMeters>
            <DistanceMeters>NAN</DistanceMeters>
          </Trackpoint>
          <Trackpoint>
            <Time>2020-03-07T17:27:52.000Z</Time>
            <Position>
              <LatitudeDegrees>40.71496649645268917083740234375</LatitudeDegrees>
              <LongitudeDegrees>-3.79396344535052776336669921875</LongitudeDegrees>
            </Position>
            <AltitudeMeters>909.20001220703125</AltitudeMeters>
            <DistanceMeters>NAN</DistanceMeters>
          </Trackpoint>
          <Trackpoint>
            <Time>2020-03-07T17:27:53.000Z</Time>
            <Position>
              <LatitudeDegrees>40.7149028778076171875</LatitudeDegrees>
              <LongitudeDegrees>-3.79399194382131099700927734375</LongitudeDegrees>
            </Position>
            <AltitudeMeters>909.20001220703125</AltitudeMeters>
            <DistanceMeters>NAN</DistanceMeters>
          </Trackpoint>
          <Trackpoint>
            <Time>2020-03-07T17:27:54.000Z</Time>
            <Position>
              <LatitudeDegrees>40.71484127081930637359619140625</LatitudeDegrees>
              <LongitudeDegrees>-3.79401960410177707672119140625</LongitudeDegrees>
            </Position>
            <AltitudeMeters>909.20001220703125</AltitudeMeters>
            <DistanceMeters>NAN</DistanceMeters>
          </Trackpoint>
          <Trackpoint>
            <Time>2020-03-07T17:27:55.000Z</Time>
            <Position>
              <LatitudeDegrees>40.7147779874503612518310546875</LatitudeDegrees>
              <LongitudeDegrees>-3.79404290579259395599365234375</LongitudeDegrees>
            </Position>
            <AltitudeMeters>909.20001220703125</AltitudeMeters>
            <DistanceMeters>NAN</DistanceMeters>
          </Trackpoint>
          <Trackpoint>
            <Time>2020-03-07T17:27:56.000Z</Time>
            <Position>
              <LatitudeDegrees>40.71471889503300189971923828125</LatitudeDegrees>
              <LongitudeDegrees>-3.79406369291245937347412109375</LongitudeDegrees>
            </Position>
            <AltitudeMeters>909.20001220703125</AltitudeMeters>
            <DistanceMeters>NAN</DistanceMeters>
          </Trackpoint>
          <Trackpoint>
            <Time>2020-03-07T17:27:57.000Z</Time>
            <Position>
              <LatitudeDegrees>40.7146616466343402862548828125</LatitudeDegrees>
              <LongitudeDegrees>-3.7940820492804050445556640625</LongitudeDegrees>
            </Position>
            <AltitudeMeters>909.4000244140625</AltitudeMeters>
            <DistanceMeters>NAN</DistanceMeters>
          </Trackpoint>
          <Trackpoint>
            <Time>2020-03-07T17:27:58.000Z</Time>
            <Position>
              <LatitudeDegrees>40.71460456587374210357666015625</LatitudeDegrees>
              <LongitudeDegrees>-3.79410074092447757720947265625</LongitudeDegrees>
            </Position>
            <AltitudeMeters>909.4000244140625</AltitudeMeters>
            <DistanceMeters>NAN</DistanceMeters>
          </Trackpoint>
          <Trackpoint>
            <Time>2020-03-07T17:27:59.000Z</Time>
            <Position>
              <LatitudeDegrees>40.71455025114119052886962890625</LatitudeDegrees>
              <LongitudeDegrees>-3.7941172532737255096435546875</LongitudeDegrees>
            </Position>
            <AltitudeMeters>909.4000244140625</AltitudeMeters>
            <DistanceMeters>NAN</DistanceMeters>
          </Trackpoint>
          <Trackpoint>
            <Time>2020-03-07T17:28:00.000Z</Time>
            <Position>
              <LatitudeDegrees>40.71449157781898975372314453125</LatitudeDegrees>
              <LongitudeDegrees>-3.7941316701471805572509765625</LongitudeDegrees>
            </Position>
            <AltitudeMeters>909.4000244140625</AltitudeMeters>
            <DistanceMeters>NAN</DistanceMeters>
          </Trackpoint>
          <Trackpoint>
            <Time>2020-03-07T17:28:01.000Z</Time>
            <Position>
              <LatitudeDegrees>40.71442871354520320892333984375</LatitudeDegrees>
              <LongitudeDegrees>-3.794144578278064727783203125</LongitudeDegrees>
            </Position>
            <AltitudeMeters>909.4000244140625</AltitudeMeters>
            <DistanceMeters>NAN</DistanceMeters>
          </Trackpoint>
          <Trackpoint>
            <Time>2020-03-07T17:28:02.000Z</Time>
            <Position>
              <LatitudeDegrees>40.714367441833019256591796875</LatitudeDegrees>
              <LongitudeDegrees>-3.79416025243699550628662109375</LongitudeDegrees>
            </Position>
            <AltitudeMeters>909.5999755859375</AltitudeMeters>
            <DistanceMeters>NAN</DistanceMeters>
          </Trackpoint>
          <Trackpoint>
            <Time>2020-03-07T17:28:03.000Z</Time>
            <Position>
              <LatitudeDegrees>40.71430549956858158111572265625</LatitudeDegrees>
              <LongitudeDegrees>-3.79417249001562595367431640625</LongitudeDegrees>
            </Position>
            <AltitudeMeters>909.79998779296875</AltitudeMeters>
            <DistanceMeters>NAN</DistanceMeters>
          </Trackpoint>
          <Trackpoint>
            <Time>2020-03-07T17:28:04.000Z</Time>
            <Position>
              <LatitudeDegrees>40.71424481458961963653564453125</LatitudeDegrees>
              <LongitudeDegrees>-3.7941833026707172393798828125</LongitudeDegrees>
            </Position>
            <AltitudeMeters>909.79998779296875</AltitudeMeters>
            <DistanceMeters>NAN</DistanceMeters>
          </Trackpoint>
          <Trackpoint>
            <Time>2020-03-07T17:28:05.000Z</Time>
            <Position>
              <LatitudeDegrees>40.714183039963245391845703125</LatitudeDegrees>
              <LongitudeDegrees>-3.79419210366904735565185546875</LongitudeDegrees>
            </Position>
            <AltitudeMeters>909.79998779296875</AltitudeMeters>
            <DistanceMeters>NAN</DistanceMeters>
          </Trackpoint>
          <Trackpoint>
            <Time>2020-03-07T17:28:06.000Z</Time>
            <Position>
              <LatitudeDegrees>40.71411858312785625457763671875</LatitudeDegrees>
              <LongitudeDegrees>-3.794198893010616302490234375</LongitudeDegrees>
            </Position>
            <AltitudeMeters>910</AltitudeMeters>
            <DistanceMeters>NAN</DistanceMeters>
          </Trackpoint>
          <Trackpoint>
            <Time>2020-03-07T17:28:07.000Z</Time>
            <Position>
              <LatitudeDegrees>40.714054293930530548095703125</LatitudeDegrees>
              <LongitudeDegrees>-3.79420526325702667236328125</LongitudeDegrees>
            </Position>
            <AltitudeMeters>910</AltitudeMeters>
            <DistanceMeters>NAN</DistanceMeters>
          </Trackpoint>
          <Trackpoint>
            <Time>2020-03-07T17:28:08.000Z</Time>
            <Position>
              <LatitudeDegrees>40.7139897532761096954345703125</LatitudeDegrees>
              <LongitudeDegrees>-3.79420953802764415740966796875</LongitudeDegrees>
            </Position>
            <AltitudeMeters>910</AltitudeMeters>
            <DistanceMeters>NAN</DistanceMeters>
          </Trackpoint>
          <Trackpoint>
            <Time>2020-03-07T17:28:09.000Z</Time>
            <Position>
              <LatitudeDegrees>40.713926218450069427490234375</LatitudeDegrees>
              <LongitudeDegrees>-3.79421196877956390380859375</LongitudeDegrees>
            </Position>
            <AltitudeMeters>910</AltitudeMeters>
            <DistanceMeters>NAN</DistanceMeters>
          </Trackpoint>
          <Trackpoint>
            <Time>2020-03-07T17:28:10.000Z</Time>
            <Position>
              <LatitudeDegrees>40.71386343799531459808349609375</LatitudeDegrees>
              <LongitudeDegrees>-3.79421305842697620391845703125</LongitudeDegrees>
            </Position>
            <AltitudeMeters>910</AltitudeMeters>
            <DistanceMeters>NAN</DistanceMeters>
          </Trackpoint>
          <Trackpoint>
            <Time>2020-03-07T17:28:11.000Z</Time>
            <Position>
              <LatitudeDegrees>40.713800154626369476318359375</LatitudeDegrees>
              <LongitudeDegrees>-3.7942087836563587188720703125</LongitudeDegrees>
            </Position>
            <AltitudeMeters>910</AltitudeMeters>
            <DistanceMeters>NAN</DistanceMeters>
          </Trackpoint>
          <Trackpoint>
            <Time>2020-03-07T17:28:12.000Z</Time>
            <Position>
              <LatitudeDegrees>40.71373905055224895477294921875</LatitudeDegrees>
              <LongitudeDegrees>-3.79420434124767780303955078125</LongitudeDegrees>
            </Position>
            <AltitudeMeters>910</AltitudeMeters>
            <DistanceMeters>NAN</DistanceMeters>
          </Trackpoint>
          <Trackpoint>
            <Time>2020-03-07T17:28:13.000Z</Time>
            <Position>
              <LatitudeDegrees>40.71368180215358734130859375</LatitudeDegrees>
              <LongitudeDegrees>-3.79419964738190174102783203125</LongitudeDegrees>
            </Position>
            <AltitudeMeters>909.79998779296875</AltitudeMeters>
            <DistanceMeters>NAN</DistanceMeters>
          </Trackpoint>
          <Trackpoint>
            <Time>2020-03-07T17:28:14.000Z</Time>
            <Position>
              <LatitudeDegrees>40.7136229611933231353759765625</LatitudeDegrees>
              <LongitudeDegrees>-3.7941950373351573944091796875</LongitudeDegrees>
            </Position>
            <AltitudeMeters>909.79998779296875</AltitudeMeters>
            <DistanceMeters>NAN</DistanceMeters>
          </Trackpoint>
          <Trackpoint>
            <Time>2020-03-07T17:28:15.000Z</Time>
            <Position>
              <LatitudeDegrees>40.7135652936995029449462890625</LatitudeDegrees>
              <LongitudeDegrees>-3.79419051110744476318359375</LongitudeDegrees>
            </Position>
            <AltitudeMeters>909.79998779296875</AltitudeMeters>
            <DistanceMeters>NAN</DistanceMeters>
          </Trackpoint>
          <Trackpoint>
            <Time>2020-03-07T17:28:16.000Z</Time>
            <Position>
              <LatitudeDegrees>40.7135089673101902008056640625</LatitudeDegrees>
              <LongitudeDegrees>-3.79418606869876384735107421875</LongitudeDegrees>
            </Position>
            <AltitudeMeters>909.5999755859375</AltitudeMeters>
            <DistanceMeters>NAN</DistanceMeters>
          </Trackpoint>
          <Trackpoint>
            <Time>2020-03-07T17:28:17.000Z</Time>
            <Position>
              <LatitudeDegrees>40.7134533114731311798095703125</LatitudeDegrees>
              <LongitudeDegrees>-3.79418238066136837005615234375</LongitudeDegrees>
            </Position>
            <AltitudeMeters>909.5999755859375</AltitudeMeters>
            <DistanceMeters>NAN</DistanceMeters>
          </Trackpoint>
          <Trackpoint>
            <Time>2020-03-07T17:28:18.000Z</Time>
            <Position>
              <LatitudeDegrees>40.71339807473123073577880859375</LatitudeDegrees>
              <LongitudeDegrees>-3.7941806204617023468017578125</LongitudeDegrees>
            </Position>
            <AltitudeMeters>909.4000244140625</AltitudeMeters>
            <DistanceMeters>NAN</DistanceMeters>
          </Trackpoint>
          <Trackpoint>
            <Time>2020-03-07T17:28:19.000Z</Time>
            <Position>
              <LatitudeDegrees>40.71334225125610828399658203125</LatitudeDegrees>
              <LongitudeDegrees>-3.794179446995258331298828125</LongitudeDegrees>
            </Position>
            <AltitudeMeters>909.4000244140625</AltitudeMeters>
            <DistanceMeters>NAN</DistanceMeters>
          </Trackpoint>
          <Trackpoint>
            <Time>2020-03-07T17:28:20.000Z</Time>
            <Position>
              <LatitudeDegrees>40.71328458376228809356689453125</LatitudeDegrees>
              <LongitudeDegrees>-3.7941777706146240234375</LongitudeDegrees>
            </Position>
            <AltitudeMeters>909.20001220703125</AltitudeMeters>
            <DistanceMeters>NAN</DistanceMeters>
          </Trackpoint>
          <Trackpoint>
            <Time>2020-03-07T17:28:21.000Z</Time>
            <Position>
              <LatitudeDegrees>40.7132270000874996185302734375</LatitudeDegrees>
              <LongitudeDegrees>-3.7941782735288143157958984375</LongitudeDegrees>
            </Position>
            <AltitudeMeters>909.20001220703125</AltitudeMeters>
            <DistanceMeters>NAN</DistanceMeters>
          </Trackpoint>
          <Trackpoint>
            <Time>2020-03-07T17:28:22.000Z</Time>
            <Position>
              <LatitudeDegrees>40.71317084133625030517578125</LatitudeDegrees>
              <LongitudeDegrees>-3.7941789440810680389404296875</LongitudeDegrees>
            </Position>
            <AltitudeMeters>909</AltitudeMeters>
            <DistanceMeters>NAN</DistanceMeters>
          </Trackpoint>
          <Trackpoint>
            <Time>2020-03-07T17:28:23.000Z</Time>
            <Position>
              <LatitudeDegrees>40.71311426348984241485595703125</LatitudeDegrees>
              <LongitudeDegrees>-3.7941786088049411773681640625</LongitudeDegrees>
            </Position>
            <AltitudeMeters>909</AltitudeMeters>
            <DistanceMeters>NAN</DistanceMeters>
          </Trackpoint>
          <Trackpoint>
            <Time>2020-03-07T17:28:24.000Z</Time>
            <Position>
              <LatitudeDegrees>40.7130561769008636474609375</LatitudeDegrees>
              <LongitudeDegrees>-3.7941765971481800079345703125</LongitudeDegrees>
            </Position>
            <AltitudeMeters>909</AltitudeMeters>
            <DistanceMeters>NAN</DistanceMeters>
          </Trackpoint>
          <Trackpoint>
            <Time>2020-03-07T17:28:25.000Z</Time>
            <Position>
              <LatitudeDegrees>40.71299641393125057220458984375</LatitudeDegrees>
              <LongitudeDegrees>-3.794172070920467376708984375</LongitudeDegrees>
            </Position>
            <AltitudeMeters>908.79998779296875</AltitudeMeters>
            <DistanceMeters>NAN</DistanceMeters>
          </Trackpoint>
          <Trackpoint>
            <Time>2020-03-07T17:28:26.000Z</Time>
            <Position>
              <LatitudeDegrees>40.71293606422841548919677734375</LatitudeDegrees>
              <LongitudeDegrees>-3.79416578449308872222900390625</LongitudeDegrees>
            </Position>
            <AltitudeMeters>908.79998779296875</AltitudeMeters>
            <DistanceMeters>NAN</DistanceMeters>
          </Trackpoint>
          <Trackpoint>
            <Time>2020-03-07T17:28:27.000Z</Time>
            <Position>
              <LatitudeDegrees>40.71287638507783412933349609375</LatitudeDegrees>
              <LongitudeDegrees>-3.79415740258991718292236328125</LongitudeDegrees>
            </Position>
            <AltitudeMeters>908.79998779296875</AltitudeMeters>
            <DistanceMeters>NAN</DistanceMeters>
          </Trackpoint>
          <Trackpoint>
            <Time>2020-03-07T17:28:28.000Z</Time>
            <Position>
              <LatitudeDegrees>40.71281670592725276947021484375</LatitudeDegrees>
              <LongitudeDegrees>-3.79414734430611133575439453125</LongitudeDegrees>
            </Position>
            <AltitudeMeters>908.4000244140625</AltitudeMeters>
            <DistanceMeters>NAN</DistanceMeters>
          </Trackpoint>
          <Trackpoint>
            <Time>2020-03-07T17:28:29.000Z</Time>
            <Position>
              <LatitudeDegrees>40.71275820024311542510986328125</LatitudeDegrees>
              <LongitudeDegrees>-3.794136531651020050048828125</LongitudeDegrees>
            </Position>
            <AltitudeMeters>908.20001220703125</AltitudeMeters>
            <DistanceMeters>NAN</DistanceMeters>
          </Trackpoint>
          <Trackpoint>
            <Time>2020-03-07T17:28:30.000Z</Time>
            <Position>
              <LatitudeDegrees>40.71269868873059749603271484375</LatitudeDegrees>
              <LongitudeDegrees>-3.79412337206304073333740234375</LongitudeDegrees>
            </Position>
            <AltitudeMeters>907.79998779296875</AltitudeMeters>
            <DistanceMeters>NAN</DistanceMeters>
          </Trackpoint>
          <Trackpoint>
            <Time>2020-03-07T17:28:31.000Z</Time>
            <Position>
              <LatitudeDegrees>40.71263984777033329010009765625</LatitudeDegrees>
              <LongitudeDegrees>-3.794110380113124847412109375</LongitudeDegrees>
            </Position>
            <AltitudeMeters>907.79998779296875</AltitudeMeters>
            <DistanceMeters>NAN</DistanceMeters>
          </Trackpoint>
          <Trackpoint>
            <Time>2020-03-07T17:28:32.000Z</Time>
            <Position>
              <LatitudeDegrees>40.71258218027651309967041015625</LatitudeDegrees>
              <LongitudeDegrees>-3.79409688524901866912841796875</LongitudeDegrees>
            </Position>
            <AltitudeMeters>907.5999755859375</AltitudeMeters>
            <DistanceMeters>NAN</DistanceMeters>
          </Trackpoint>
          <Trackpoint>
            <Time>2020-03-07T17:28:33.000Z</Time>
            <Position>
              <LatitudeDegrees>40.7125239260494709014892578125</LatitudeDegrees>
              <LongitudeDegrees>-3.79408246837556362152099609375</LongitudeDegrees>
            </Position>
            <AltitudeMeters>907.4000244140625</AltitudeMeters>
            <DistanceMeters>NAN</DistanceMeters>
          </Trackpoint>
          <Trackpoint>
            <Time>2020-03-07T17:28:34.000Z</Time>
            <Position>
              <LatitudeDegrees>40.71246332488954067230224609375</LatitudeDegrees>
              <LongitudeDegrees>-3.79406318999826908111572265625</LongitudeDegrees>
            </Position>
            <AltitudeMeters>907.4000244140625</AltitudeMeters>
            <DistanceMeters>NAN</DistanceMeters>
          </Trackpoint>
          <Trackpoint>
            <Time>2020-03-07T17:28:35.000Z</Time>
            <Position>
              <LatitudeDegrees>40.7124045677483081817626953125</LatitudeDegrees>
              <LongitudeDegrees>-3.79405078478157520294189453125</LongitudeDegrees>
            </Position>
            <AltitudeMeters>907.20001220703125</AltitudeMeters>
            <DistanceMeters>NAN</DistanceMeters>
          </Trackpoint>
          <Trackpoint>
            <Time>2020-03-07T17:28:36.000Z</Time>
            <Position>
              <LatitudeDegrees>40.71234430186450481414794921875</LatitudeDegrees>
              <LongitudeDegrees>-3.794029243290424346923828125</LongitudeDegrees>
            </Position>
            <AltitudeMeters>907</AltitudeMeters>
            <DistanceMeters>NAN</DistanceMeters>
          </Trackpoint>
          <Trackpoint>
            <Time>2020-03-07T17:28:37.000Z</Time>
            <Position>
              <LatitudeDegrees>40.71227942593395709991455078125</LatitudeDegrees>
              <LongitudeDegrees>-3.794003427028656005859375</LongitudeDegrees>
            </Position>
            <AltitudeMeters>906.5999755859375</AltitudeMeters>
            <DistanceMeters>NAN</DistanceMeters>
          </Trackpoint>
          <Trackpoint>
            <Time>2020-03-07T17:28:38.000Z</Time>
            <Position>
              <LatitudeDegrees>40.7122181542217731475830078125</LatitudeDegrees>
              <LongitudeDegrees>-3.7939739227294921875</LongitudeDegrees>
            </Position>
            <AltitudeMeters>906.4000244140625</AltitudeMeters>
            <DistanceMeters>NAN</DistanceMeters>
          </Trackpoint>
          <Trackpoint>
            <Time>2020-03-07T17:28:39.000Z</Time>
            <Position>
              <LatitudeDegrees>40.712156631052494049072265625</LatitudeDegrees>
              <LongitudeDegrees>-3.793948106467723846435546875</LongitudeDegrees>
            </Position>
            <AltitudeMeters>906.20001220703125</AltitudeMeters>
            <DistanceMeters>NAN</DistanceMeters>
          </Trackpoint>
          <Trackpoint>
            <Time>2020-03-07T17:28:40.000Z</Time>
            <Position>
              <LatitudeDegrees>40.71209653280675411224365234375</LatitudeDegrees>
              <LongitudeDegrees>-3.79392606206238269805908203125</LongitudeDegrees>
            </Position>
            <AltitudeMeters>906</AltitudeMeters>
            <DistanceMeters>NAN</DistanceMeters>
          </Trackpoint>
          <Trackpoint>
            <Time>2020-03-07T17:28:41.000Z</Time>
            <Position>
              <LatitudeDegrees>40.71203299798071384429931640625</LatitudeDegrees>
              <LongitudeDegrees>-3.79390896297991275787353515625</LongitudeDegrees>
            </Position>
            <AltitudeMeters>905.79998779296875</AltitudeMeters>
            <DistanceMeters>NAN</DistanceMeters>
          </Trackpoint>
          <Trackpoint>
            <Time>2020-03-07T17:28:42.000Z</Time>
            <Position>
              <LatitudeDegrees>40.711965858936309814453125</LatitudeDegrees>
              <LongitudeDegrees>-3.79389756359159946441650390625</LongitudeDegrees>
            </Position>
            <AltitudeMeters>905.79998779296875</AltitudeMeters>
            <DistanceMeters>NAN</DistanceMeters>
          </Trackpoint>
          <Trackpoint>
            <Time>2020-03-07T17:28:43.000Z</Time>
            <Position>
              <LatitudeDegrees>40.711898468434810638427734375</LatitudeDegrees>
              <LongitudeDegrees>-3.79388633184134960174560546875</LongitudeDegrees>
            </Position>
            <AltitudeMeters>905.5999755859375</AltitudeMeters>
            <DistanceMeters>NAN</DistanceMeters>
          </Trackpoint>
          <Trackpoint>
            <Time>2020-03-07T17:28:44.000Z</Time>
            <Position>
              <LatitudeDegrees>40.71182965300977230072021484375</LatitudeDegrees>
              <LongitudeDegrees>-3.7938818894326686859130859375</LongitudeDegrees>
            </Position>
            <AltitudeMeters>905.4000244140625</AltitudeMeters>
            <DistanceMeters>NAN</DistanceMeters>
          </Trackpoint>
          <Trackpoint>
            <Time>2020-03-07T17:28:45.000Z</Time>
            <Position>
              <LatitudeDegrees>40.71176393888890743255615234375</LatitudeDegrees>
              <LongitudeDegrees>-3.79387577064335346221923828125</LongitudeDegrees>
            </Position>
            <AltitudeMeters>905.20001220703125</AltitudeMeters>
            <DistanceMeters>NAN</DistanceMeters>
          </Trackpoint>
          <Trackpoint>
            <Time>2020-03-07T17:28:46.000Z</Time>
            <Position>
              <LatitudeDegrees>40.711699314415454864501953125</LatitudeDegrees>
              <LongitudeDegrees>-3.7938698194921016693115234375</LongitudeDegrees>
            </Position>
            <AltitudeMeters>904.79998779296875</AltitudeMeters>
            <DistanceMeters>NAN</DistanceMeters>
          </Trackpoint>
          <Trackpoint>
            <Time>2020-03-07T17:28:47.000Z</Time>
            <Position>
              <LatitudeDegrees>40.71163502521812915802001953125</LatitudeDegrees>
              <LongitudeDegrees>-3.793858587741851806640625</LongitudeDegrees>
            </Position>
            <AltitudeMeters>904.5999755859375</AltitudeMeters>
            <DistanceMeters>NAN</DistanceMeters>
          </Trackpoint>
          <Trackpoint>
            <Time>2020-03-07T17:28:48.000Z</Time>
            <Position>
              <LatitudeDegrees>40.7115693949162960052490234375</LatitudeDegrees>
              <LongitudeDegrees>-3.7938543967902660369873046875</LongitudeDegrees>
            </Position>
            <AltitudeMeters>904.5999755859375</AltitudeMeters>
            <DistanceMeters>NAN</DistanceMeters>
          </Trackpoint>
          <Trackpoint>
            <Time>2020-03-07T17:28:49.000Z</Time>
            <Position>
              <LatitudeDegrees>40.7115036807954311370849609375</LatitudeDegrees>
              <LongitudeDegrees>-3.793851546943187713623046875</LongitudeDegrees>
            </Position>
            <AltitudeMeters>904.4000244140625</AltitudeMeters>
            <DistanceMeters>NAN</DistanceMeters>
          </Trackpoint>
          <Trackpoint>
            <Time>2020-03-07T17:28:50.000Z</Time>
            <Position>
              <LatitudeDegrees>40.711439810693264007568359375</LatitudeDegrees>
              <LongitudeDegrees>-3.7938483618199825286865234375</LongitudeDegrees>
            </Position>
            <AltitudeMeters>904.20001220703125</AltitudeMeters>
            <DistanceMeters>NAN</DistanceMeters>
          </Trackpoint>
          <Trackpoint>
            <Time>2020-03-07T17:28:51.000Z</Time>
            <Position>
              <LatitudeDegrees>40.7113772816956043243408203125</LatitudeDegrees>
              <LongitudeDegrees>-3.79384224303066730499267578125</LongitudeDegrees>
            </Position>
            <AltitudeMeters>904.20001220703125</AltitudeMeters>
            <DistanceMeters>NAN</DistanceMeters>
          </Trackpoint>
          <Trackpoint>
            <Time>2020-03-07T17:28:52.000Z</Time>
            <Position>
              <LatitudeDegrees>40.711314417421817779541015625</LatitudeDegrees>
              <LongitudeDegrees>-3.7938411533832550048828125</LongitudeDegrees>
            </Position>
            <AltitudeMeters>904</AltitudeMeters>
            <DistanceMeters>NAN</DistanceMeters>
          </Trackpoint>
          <Trackpoint>
            <Time>2020-03-07T17:28:53.000Z</Time>
            <Position>
              <LatitudeDegrees>40.711253397166728973388671875</LatitudeDegrees>
              <LongitudeDegrees>-3.7938386388123035430908203125</LongitudeDegrees>
            </Position>
            <AltitudeMeters>904</AltitudeMeters>
            <DistanceMeters>NAN</DistanceMeters>
          </Trackpoint>
          <Trackpoint>
            <Time>2020-03-07T17:28:54.000Z</Time>
            <Position>
              <LatitudeDegrees>40.7111935503780841827392578125</LatitudeDegrees>
              <LongitudeDegrees>-3.79383503459393978118896484375</LongitudeDegrees>
            </Position>
            <AltitudeMeters>903.79998779296875</AltitudeMeters>
            <DistanceMeters>NAN</DistanceMeters>
          </Trackpoint>
          <Trackpoint>
            <Time>2020-03-07T17:28:55.000Z</Time>
            <Position>
              <LatitudeDegrees>40.71113613434135913848876953125</LatitudeDegrees>
              <LongitudeDegrees>-3.79383084364235401153564453125</LongitudeDegrees>
            </Position>
            <AltitudeMeters>903.79998779296875</AltitudeMeters>
            <DistanceMeters>NAN</DistanceMeters>
          </Trackpoint>
          <Trackpoint>
            <Time>2020-03-07T17:28:56.000Z</Time>
            <Position>
              <LatitudeDegrees>40.71107846684753894805908203125</LatitudeDegrees>
              <LongitudeDegrees>-3.7938272394239902496337890625</LongitudeDegrees>
            </Position>
            <AltitudeMeters>903.5999755859375</AltitudeMeters>
            <DistanceMeters>NAN</DistanceMeters>
          </Trackpoint>
          <Trackpoint>
            <Time>2020-03-07T17:28:57.000Z</Time>
            <Position>
              <LatitudeDegrees>40.71102146990597248077392578125</LatitudeDegrees>
              <LongitudeDegrees>-3.79382229410111904144287109375</LongitudeDegrees>
            </Position>
            <AltitudeMeters>903.5999755859375</AltitudeMeters>
            <DistanceMeters>NAN</DistanceMeters>
          </Trackpoint>
          <Trackpoint>
            <Time>2020-03-07T17:28:58.000Z</Time>
            <Position>
              <LatitudeDegrees>40.7109638862311840057373046875</LatitudeDegrees>
              <LongitudeDegrees>-3.79381760023534297943115234375</LongitudeDegrees>
            </Position>
            <AltitudeMeters>903.4000244140625</AltitudeMeters>
            <DistanceMeters>NAN</DistanceMeters>
          </Trackpoint>
          <Trackpoint>
            <Time>2020-03-07T17:28:59.000Z</Time>
            <Position>
              <LatitudeDegrees>40.71090680547058582305908203125</LatitudeDegrees>
              <LongitudeDegrees>-3.79381357692182064056396484375</LongitudeDegrees>
            </Position>
            <AltitudeMeters>903.4000244140625</AltitudeMeters>
            <DistanceMeters>NAN</DistanceMeters>
          </Trackpoint>
          <Trackpoint>
            <Time>2020-03-07T17:29:00.000Z</Time>
            <Position>
              <LatitudeDegrees>40.71085081435739994049072265625</LatitudeDegrees>
              <LongitudeDegrees>-3.79380938597023487091064453125</LongitudeDegrees>
            </Position>
            <AltitudeMeters>903.4000244140625</AltitudeMeters>
            <DistanceMeters>NAN</DistanceMeters>
          </Trackpoint>
          <Trackpoint>
            <Time>2020-03-07T17:29:01.000Z</Time>
            <Position>
              <LatitudeDegrees>40.710793398320674896240234375</LatitudeDegrees>
              <LongitudeDegrees>-3.79380519501864910125732421875</LongitudeDegrees>
            </Position>
            <AltitudeMeters>903.4000244140625</AltitudeMeters>
            <DistanceMeters>NAN</DistanceMeters>
          </Trackpoint>
          <Trackpoint>
            <Time>2020-03-07T17:29:02.000Z</Time>
            <Position>
              <LatitudeDegrees>40.71073539555072784423828125</LatitudeDegrees>
              <LongitudeDegrees>-3.79380066879093647003173828125</LongitudeDegrees>
            </Position>
            <AltitudeMeters>903.4000244140625</AltitudeMeters>
            <DistanceMeters>NAN</DistanceMeters>
          </Trackpoint>
          <Trackpoint>
            <Time>2020-03-07T17:29:03.000Z</Time>
            <Position>
              <LatitudeDegrees>40.710678063333034515380859375</LatitudeDegrees>
              <LongitudeDegrees>-3.7937970645725727081298828125</LongitudeDegrees>
            </Position>
            <AltitudeMeters>903.4000244140625</AltitudeMeters>
            <DistanceMeters>NAN</DistanceMeters>
          </Trackpoint>
          <Trackpoint>
            <Time>2020-03-07T17:29:04.000Z</Time>
            <Position>
              <LatitudeDegrees>40.71062098257243633270263671875</LatitudeDegrees>
              <LongitudeDegrees>-3.79379396326839923858642578125</LongitudeDegrees>
            </Position>
            <AltitudeMeters>903.20001220703125</AltitudeMeters>
            <DistanceMeters>NAN</DistanceMeters>
          </Trackpoint>
          <Trackpoint>
            <Time>2020-03-07T17:29:05.000Z</Time>
            <Position>
              <LatitudeDegrees>40.7105632312595844268798828125</LatitudeDegrees>
              <LongitudeDegrees>-3.7937893532216548919677734375</LongitudeDegrees>
            </Position>
            <AltitudeMeters>903.20001220703125</AltitudeMeters>
            <DistanceMeters>NAN</DistanceMeters>
          </Trackpoint>
          <Trackpoint>
            <Time>2020-03-07T17:29:06.000Z</Time>
            <Position>
              <LatitudeDegrees>40.7105062343180179595947265625</LatitudeDegrees>
              <LongitudeDegrees>-3.7937849946320056915283203125</LongitudeDegrees>
            </Position>
            <AltitudeMeters>903.20001220703125</AltitudeMeters>
            <DistanceMeters>NAN</DistanceMeters>
          </Trackpoint>
          <Trackpoint>
            <Time>2020-03-07T17:29:07.000Z</Time>
            <Position>
              <LatitudeDegrees>40.7104490697383880615234375</LatitudeDegrees>
              <LongitudeDegrees>-3.7937796302139759063720703125</LongitudeDegrees>
            </Position>
            <AltitudeMeters>903.20001220703125</AltitudeMeters>
            <DistanceMeters>NAN</DistanceMeters>
          </Trackpoint>
          <Trackpoint>
            <Time>2020-03-07T17:29:08.000Z</Time>
            <Position>
              <LatitudeDegrees>40.7103908993303775787353515625</LatitudeDegrees>
              <LongitudeDegrees>-3.79377485252916812896728515625</LongitudeDegrees>
            </Position>
            <AltitudeMeters>903.20001220703125</AltitudeMeters>
            <DistanceMeters>NAN</DistanceMeters>
          </Trackpoint>
          <Trackpoint>
            <Time>2020-03-07T17:29:09.000Z</Time>
            <Position>
              <LatitudeDegrees>40.71033306419849395751953125</LatitudeDegrees>
              <LongitudeDegrees>-3.793771080672740936279296875</LongitudeDegrees>
            </Position>
            <AltitudeMeters>903.20001220703125</AltitudeMeters>
            <DistanceMeters>NAN</DistanceMeters>
          </Trackpoint>
          <Trackpoint>
            <Time>2020-03-07T17:29:10.000Z</Time>
            <Position>
              <LatitudeDegrees>40.71027413941919803619384765625</LatitudeDegrees>
              <LongitudeDegrees>-3.79376680590212345123291015625</LongitudeDegrees>
            </Position>
            <AltitudeMeters>903.20001220703125</AltitudeMeters>
            <DistanceMeters>NAN</DistanceMeters>
          </Trackpoint>
          <Trackpoint>
            <Time>2020-03-07T17:29:11.000Z</Time>
            <Position>
              <LatitudeDegrees>40.71021504700183868408203125</LatitudeDegrees>
              <LongitudeDegrees>-3.79376378841698169708251953125</LongitudeDegrees>
            </Position>
            <AltitudeMeters>903.20001220703125</AltitudeMeters>
            <DistanceMeters>NAN</DistanceMeters>
          </Trackpoint>
          <Trackpoint>
            <Time>2020-03-07T17:29:12.000Z</Time>
            <Position>
              <LatitudeDegrees>40.7101558707654476165771484375</LatitudeDegrees>
              <LongitudeDegrees>-3.7937605194747447967529296875</LongitudeDegrees>
            </Position>
            <AltitudeMeters>903.20001220703125</AltitudeMeters>
            <DistanceMeters>NAN</DistanceMeters>
          </Trackpoint>
          <Trackpoint>
            <Time>2020-03-07T17:29:13.000Z</Time>
            <Position>
              <LatitudeDegrees>40.7100988738238811492919921875</LatitudeDegrees>
              <LongitudeDegrees>-3.7937575019896030426025390625</LongitudeDegrees>
            </Position>
            <AltitudeMeters>903</AltitudeMeters>
            <DistanceMeters>NAN</DistanceMeters>
          </Trackpoint>
          <Trackpoint>
            <Time>2020-03-07T17:29:14.000Z</Time>
            <Position>
              <LatitudeDegrees>40.7100408710539340972900390625</LatitudeDegrees>
              <LongitudeDegrees>-3.79375272430479526519775390625</LongitudeDegrees>
            </Position>
            <AltitudeMeters>903</AltitudeMeters>
            <DistanceMeters>NAN</DistanceMeters>
          </Trackpoint>
          <Trackpoint>
            <Time>2020-03-07T17:29:15.000Z</Time>
            <Position>
              <LatitudeDegrees>40.70998345501720905303955078125</LatitudeDegrees>
              <LongitudeDegrees>-3.79374769516289234161376953125</LongitudeDegrees>
            </Position>
            <AltitudeMeters>903</AltitudeMeters>
            <DistanceMeters>NAN</DistanceMeters>
          </Trackpoint>
          <Trackpoint>
            <Time>2020-03-07T17:29:16.000Z</Time>
            <Position>
              <LatitudeDegrees>40.70992763154208660125732421875</LatitudeDegrees>
              <LongitudeDegrees>-3.79374132491648197174072265625</LongitudeDegrees>
            </Position>
            <AltitudeMeters>903</AltitudeMeters>
            <DistanceMeters>NAN</DistanceMeters>
          </Trackpoint>
          <Trackpoint>
            <Time>2020-03-07T17:29:17.000Z</Time>
            <Position>
              <LatitudeDegrees>40.70987281389534473419189453125</LatitudeDegrees>
              <LongitudeDegrees>-3.7937353737652301788330078125</LongitudeDegrees>
            </Position>
            <AltitudeMeters>903</AltitudeMeters>
            <DistanceMeters>NAN</DistanceMeters>
          </Trackpoint>
          <Trackpoint>
            <Time>2020-03-07T17:29:18.000Z</Time>
            <Position>
              <LatitudeDegrees>40.709817074239253997802734375</LatitudeDegrees>
              <LongitudeDegrees>-3.79373009316623210906982421875</LongitudeDegrees>
            </Position>
            <AltitudeMeters>903</AltitudeMeters>
            <DistanceMeters>NAN</DistanceMeters>
          </Trackpoint>
          <Trackpoint>
            <Time>2020-03-07T17:29:19.000Z</Time>
            <Position>
              <LatitudeDegrees>40.70976183749735355377197265625</LatitudeDegrees>
              <LongitudeDegrees>-3.79372472874820232391357421875</LongitudeDegrees>
            </Position>
            <AltitudeMeters>903</AltitudeMeters>
            <DistanceMeters>NAN</DistanceMeters>
          </Trackpoint>
          <Trackpoint>
            <Time>2020-03-07T17:29:20.000Z</Time>
            <Position>
              <LatitudeDegrees>40.70970567874610424041748046875</LatitudeDegrees>
              <LongitudeDegrees>-3.79372187890112400054931640625</LongitudeDegrees>
            </Position>
            <AltitudeMeters>903</AltitudeMeters>
            <DistanceMeters>NAN</DistanceMeters>
          </Trackpoint>
          <Trackpoint>
            <Time>2020-03-07T17:29:21.000Z</Time>
            <Position>
              <LatitudeDegrees>40.70964968763291835784912109375</LatitudeDegrees>
              <LongitudeDegrees>-3.79371953196823596954345703125</LongitudeDegrees>
            </Position>
            <AltitudeMeters>903</AltitudeMeters>
            <DistanceMeters>NAN</DistanceMeters>
          </Trackpoint>
          <Trackpoint>
            <Time>2020-03-07T17:29:22.000Z</Time>
            <Position>
              <LatitudeDegrees>40.709593780338764190673828125</LatitudeDegrees>
              <LongitudeDegrees>-3.7937165983021259307861328125</LongitudeDegrees>
            </Position>
            <AltitudeMeters>903</AltitudeMeters>
            <DistanceMeters>NAN</DistanceMeters>
          </Trackpoint>
          <Trackpoint>
            <Time>2020-03-07T17:29:23.000Z</Time>
            <Position>
              <LatitudeDegrees>40.70953845977783203125</LatitudeDegrees>
              <LongitudeDegrees>-3.7937122397124767303466796875</LongitudeDegrees>
            </Position>
            <AltitudeMeters>903</AltitudeMeters>
            <DistanceMeters>NAN</DistanceMeters>
          </Trackpoint>
          <Trackpoint>
            <Time>2020-03-07T17:29:24.000Z</Time>
            <Position>
              <LatitudeDegrees>40.70948439650237560272216796875</LatitudeDegrees>
              <LongitudeDegrees>-3.79370779730379581451416015625</LongitudeDegrees>
            </Position>
            <AltitudeMeters>903</AltitudeMeters>
            <DistanceMeters>NAN</DistanceMeters>
          </Trackpoint>
          <Trackpoint>
            <Time>2020-03-07T17:29:25.000Z</Time>
            <Position>
              <LatitudeDegrees>40.70943159051239490509033203125</LatitudeDegrees>
              <LongitudeDegrees>-3.793702684342861175537109375</LongitudeDegrees>
            </Position>
            <AltitudeMeters>903</AltitudeMeters>
            <DistanceMeters>NAN</DistanceMeters>
          </Trackpoint>
          <Trackpoint>
            <Time>2020-03-07T17:29:26.000Z</Time>
            <Position>
              <LatitudeDegrees>40.7093787007033824920654296875</LatitudeDegrees>
              <LongitudeDegrees>-3.7936963140964508056640625</LongitudeDegrees>
            </Position>
            <AltitudeMeters>903</AltitudeMeters>
            <DistanceMeters>NAN</DistanceMeters>
          </Trackpoint>
          <Trackpoint>
            <Time>2020-03-07T17:29:27.000Z</Time>
            <Position>
              <LatitudeDegrees>40.70932614617049694061279296875</LatitudeDegrees>
              <LongitudeDegrees>-3.7936911173164844512939453125</LongitudeDegrees>
            </Position>
            <AltitudeMeters>903</AltitudeMeters>
            <DistanceMeters>NAN</DistanceMeters>
          </Trackpoint>
          <Trackpoint>
            <Time>2020-03-07T17:29:28.000Z</Time>
            <Position>
              <LatitudeDegrees>40.70927434600889682769775390625</LatitudeDegrees>
              <LongitudeDegrees>-3.79368650726974010467529296875</LongitudeDegrees>
            </Position>
            <AltitudeMeters>903.20001220703125</AltitudeMeters>
            <DistanceMeters>NAN</DistanceMeters>
          </Trackpoint>
          <Trackpoint>
            <Time>2020-03-07T17:29:29.000Z</Time>
            <Position>
              <LatitudeDegrees>40.70922338403761386871337890625</LatitudeDegrees>
              <LongitudeDegrees>-3.7936810590326786041259765625</LongitudeDegrees>
            </Position>
            <AltitudeMeters>903.20001220703125</AltitudeMeters>
            <DistanceMeters>NAN</DistanceMeters>
          </Trackpoint>
          <Trackpoint>
            <Time>2020-03-07T17:29:30.000Z</Time>
            <Position>
              <LatitudeDegrees>40.70917175151407718658447265625</LatitudeDegrees>
              <LongitudeDegrees>-3.79367460496723651885986328125</LongitudeDegrees>
            </Position>
            <AltitudeMeters>903.4000244140625</AltitudeMeters>
            <DistanceMeters>NAN</DistanceMeters>
          </Trackpoint>
          <Trackpoint>
            <Time>2020-03-07T17:29:31.000Z</Time>
            <Position>
              <LatitudeDegrees>40.70912028662860393524169921875</LatitudeDegrees>
              <LongitudeDegrees>-3.79366815090179443359375</LongitudeDegrees>
            </Position>
            <AltitudeMeters>903.4000244140625</AltitudeMeters>
            <DistanceMeters>NAN</DistanceMeters>
          </Trackpoint>
          <Trackpoint>
            <Time>2020-03-07T17:29:32.000Z</Time>
            <Position>
              <LatitudeDegrees>40.709067396819591522216796875</LatitudeDegrees>
              <LongitudeDegrees>-3.79366253502666950225830078125</LongitudeDegrees>
            </Position>
            <AltitudeMeters>903.4000244140625</AltitudeMeters>
            <DistanceMeters>NAN</DistanceMeters>
          </Trackpoint>
          <Trackpoint>
            <Time>2020-03-07T17:29:33.000Z</Time>
            <Position>
              <LatitudeDegrees>40.7090140879154205322265625</LatitudeDegrees>
              <LongitudeDegrees>-3.79365683533251285552978515625</LongitudeDegrees>
            </Position>
            <AltitudeMeters>903.5999755859375</AltitudeMeters>
            <DistanceMeters>NAN</DistanceMeters>
          </Trackpoint>
          <Trackpoint>
            <Time>2020-03-07T17:29:34.000Z</Time>
            <Position>
              <LatitudeDegrees>40.70896069519221782684326171875</LatitudeDegrees>
              <LongitudeDegrees>-3.79365012980997562408447265625</LongitudeDegrees>
            </Position>
            <AltitudeMeters>903.5999755859375</AltitudeMeters>
            <DistanceMeters>NAN</DistanceMeters>
          </Trackpoint>
          <Trackpoint>
            <Time>2020-03-07T17:29:35.000Z</Time>
            <Position>
              <LatitudeDegrees>40.70890755392611026763916015625</LatitudeDegrees>
              <LongitudeDegrees>-3.7936445139348506927490234375</LongitudeDegrees>
            </Position>
            <AltitudeMeters>903.79998779296875</AltitudeMeters>
            <DistanceMeters>NAN</DistanceMeters>
          </Trackpoint>
          <Trackpoint>
            <Time>2020-03-07T17:29:36.000Z</Time>
            <Position>
              <LatitudeDegrees>40.708856843411922454833984375</LatitudeDegrees>
              <LongitudeDegrees>-3.793637640774250030517578125</LongitudeDegrees>
            </Position>
            <AltitudeMeters>903.79998779296875</AltitudeMeters>
            <DistanceMeters>NAN</DistanceMeters>
          </Trackpoint>
          <Trackpoint>
            <Time>2020-03-07T17:29:37.000Z</Time>
            <Position>
              <LatitudeDegrees>40.708807222545146942138671875</LatitudeDegrees>
              <LongitudeDegrees>-3.793632276356220245361328125</LongitudeDegrees>
            </Position>
            <AltitudeMeters>903.79998779296875</AltitudeMeters>
            <DistanceMeters>NAN</DistanceMeters>
          </Trackpoint>
          <Trackpoint>
            <Time>2020-03-07T17:29:38.000Z</Time>
            <Position>
              <LatitudeDegrees>40.70875701494514942169189453125</LatitudeDegrees>
              <LongitudeDegrees>-3.79362582229077816009521484375</LongitudeDegrees>
            </Position>
            <AltitudeMeters>903.79998779296875</AltitudeMeters>
            <DistanceMeters>NAN</DistanceMeters>
          </Trackpoint>
          <Trackpoint>
            <Time>2020-03-07T17:29:39.000Z</Time>
            <Position>
              <LatitudeDegrees>40.70870756171643733978271484375</LatitudeDegrees>
              <LongitudeDegrees>-3.7936190329492092132568359375</LongitudeDegrees>
            </Position>
            <AltitudeMeters>903.79998779296875</AltitudeMeters>
            <DistanceMeters>NAN</DistanceMeters>
          </Trackpoint>
          <Trackpoint>
            <Time>2020-03-07T17:29:40.000Z</Time>
            <Position>
              <LatitudeDegrees>40.70865827612578868865966796875</LatitudeDegrees>
              <LongitudeDegrees>-3.7936126627027988433837890625</LongitudeDegrees>
            </Position>
            <AltitudeMeters>903.79998779296875</AltitudeMeters>
            <DistanceMeters>NAN</DistanceMeters>
          </Trackpoint>
          <Trackpoint>
            <Time>2020-03-07T17:29:41.000Z</Time>
            <Position>
              <LatitudeDegrees>40.70861066691577434539794921875</LatitudeDegrees>
              <LongitudeDegrees>-3.7936078011989593505859375</LongitudeDegrees>
            </Position>
            <AltitudeMeters>904</AltitudeMeters>
            <DistanceMeters>NAN</DistanceMeters>
          </Trackpoint>
          <Trackpoint>
            <Time>2020-03-07T17:29:42.000Z</Time>
            <Position>
              <LatitudeDegrees>40.7085633091628551483154296875</LatitudeDegrees>
              <LongitudeDegrees>-3.7936029396951198577880859375</LongitudeDegrees>
            </Position>
            <AltitudeMeters>904</AltitudeMeters>
            <DistanceMeters>NAN</DistanceMeters>
          </Trackpoint>
          <Trackpoint>
            <Time>2020-03-07T17:29:43.000Z</Time>
            <Position>
              <LatitudeDegrees>40.70851561613380908966064453125</LatitudeDegrees>
              <LongitudeDegrees>-3.79359883256256580352783203125</LongitudeDegrees>
            </Position>
            <AltitudeMeters>904</AltitudeMeters>
            <DistanceMeters>NAN</DistanceMeters>
          </Trackpoint>
          <Trackpoint>
            <Time>2020-03-07T17:29:44.000Z</Time>
            <Position>
              <LatitudeDegrees>40.7084677554666996002197265625</LatitudeDegrees>
              <LongitudeDegrees>-3.7935982458293437957763671875</LongitudeDegrees>
            </Position>
            <AltitudeMeters>904</AltitudeMeters>
            <DistanceMeters>NAN</DistanceMeters>
          </Trackpoint>
          <Trackpoint>
            <Time>2020-03-07T17:29:45.000Z</Time>
            <Position>
              <LatitudeDegrees>40.7084184698760509490966796875</LatitudeDegrees>
              <LongitudeDegrees>-3.79359832964837551116943359375</LongitudeDegrees>
            </Position>
            <AltitudeMeters>904</AltitudeMeters>
            <DistanceMeters>NAN</DistanceMeters>
          </Trackpoint>
          <Trackpoint>
            <Time>2020-03-07T17:29:46.000Z</Time>
            <Position>
              <LatitudeDegrees>40.7083668373525142669677734375</LatitudeDegrees>
              <LongitudeDegrees>-3.79359732381999492645263671875</LongitudeDegrees>
            </Position>
            <AltitudeMeters>904.20001220703125</AltitudeMeters>
            <DistanceMeters>NAN</DistanceMeters>
          </Trackpoint>
          <Trackpoint>
            <Time>2020-03-07T17:29:47.000Z</Time>
            <Position>
              <LatitudeDegrees>40.7083155401051044464111328125</LatitudeDegrees>
              <LongitudeDegrees>-3.793594725430011749267578125</LongitudeDegrees>
            </Position>
            <AltitudeMeters>904.20001220703125</AltitudeMeters>
            <DistanceMeters>NAN</DistanceMeters>
          </Trackpoint>
          <Trackpoint>
            <Time>2020-03-07T17:29:48.000Z</Time>
            <Position>
              <LatitudeDegrees>40.70826617069542407989501953125</LatitudeDegrees>
              <LongitudeDegrees>-3.7935908697545528411865234375</LongitudeDegrees>
            </Position>
            <AltitudeMeters>904.20001220703125</AltitudeMeters>
            <DistanceMeters>NAN</DistanceMeters>
          </Trackpoint>
          <Trackpoint>
            <Time>2020-03-07T17:29:49.000Z</Time>
            <Position>
              <LatitudeDegrees>40.7082174718379974365234375</LatitudeDegrees>
              <LongitudeDegrees>-3.79358726553618907928466796875</LongitudeDegrees>
            </Position>
            <AltitudeMeters>904.20001220703125</AltitudeMeters>
            <DistanceMeters>NAN</DistanceMeters>
          </Trackpoint>
          <Trackpoint>
            <Time>2020-03-07T17:29:50.000Z</Time>
            <Position>
              <LatitudeDegrees>40.70816592313349246978759765625</LatitudeDegrees>
              <LongitudeDegrees>-3.79358257167041301727294921875</LongitudeDegrees>
            </Position>
            <AltitudeMeters>904.4000244140625</AltitudeMeters>
            <DistanceMeters>NAN</DistanceMeters>
          </Trackpoint>
          <Trackpoint>
            <Time>2020-03-07T17:29:51.000Z</Time>
            <Position>
              <LatitudeDegrees>40.70811219513416290283203125</LatitudeDegrees>
              <LongitudeDegrees>-3.7935767881572246551513671875</LongitudeDegrees>
            </Position>
            <AltitudeMeters>904.4000244140625</AltitudeMeters>
            <DistanceMeters>NAN</DistanceMeters>
          </Trackpoint>
          <Trackpoint>
            <Time>2020-03-07T17:29:52.000Z</Time>
            <Position>
              <LatitudeDegrees>40.7080597244203090667724609375</LatitudeDegrees>
              <LongitudeDegrees>-3.79357092082500457763671875</LongitudeDegrees>
            </Position>
            <AltitudeMeters>904.4000244140625</AltitudeMeters>
            <DistanceMeters>NAN</DistanceMeters>
          </Trackpoint>
          <Trackpoint>
            <Time>2020-03-07T17:29:53.000Z</Time>
            <Position>
              <LatitudeDegrees>40.708007924258708953857421875</LatitudeDegrees>
              <LongitudeDegrees>-3.793567903339862823486328125</LongitudeDegrees>
            </Position>
            <AltitudeMeters>904.5999755859375</AltitudeMeters>
            <DistanceMeters>NAN</DistanceMeters>
          </Trackpoint>
          <Trackpoint>
            <Time>2020-03-07T17:29:54.000Z</Time>
            <Position>
              <LatitudeDegrees>40.70795671083033084869384765625</LatitudeDegrees>
              <LongitudeDegrees>-3.79356429912149906158447265625</LongitudeDegrees>
            </Position>
            <AltitudeMeters>904.5999755859375</AltitudeMeters>
            <DistanceMeters>NAN</DistanceMeters>
          </Trackpoint>
          <Trackpoint>
            <Time>2020-03-07T17:29:55.000Z</Time>
            <Position>
              <LatitudeDegrees>40.7079044915735721588134765625</LatitudeDegrees>
              <LongitudeDegrees>-3.79356019198894500732421875</LongitudeDegrees>
            </Position>
            <AltitudeMeters>904.79998779296875</AltitudeMeters>
            <DistanceMeters>NAN</DistanceMeters>
          </Trackpoint>
          <Trackpoint>
            <Time>2020-03-07T17:29:56.000Z</Time>
            <Position>
              <LatitudeDegrees>40.7078521884977817535400390625</LatitudeDegrees>
              <LongitudeDegrees>-3.793555162847042083740234375</LongitudeDegrees>
            </Position>
            <AltitudeMeters>904.79998779296875</AltitudeMeters>
            <DistanceMeters>NAN</DistanceMeters>
          </Trackpoint>
          <Trackpoint>
            <Time>2020-03-07T17:29:57.000Z</Time>
            <Position>
              <LatitudeDegrees>40.707800388336181640625</LatitudeDegrees>
              <LongitudeDegrees>-3.79354937933385372161865234375</LongitudeDegrees>
            </Position>
            <AltitudeMeters>905</AltitudeMeters>
            <DistanceMeters>NAN</DistanceMeters>
          </Trackpoint>
          <Trackpoint>
            <Time>2020-03-07T17:29:58.000Z</Time>
            <Position>
              <LatitudeDegrees>40.70774934254586696624755859375</LatitudeDegrees>
              <LongitudeDegrees>-3.79354552365839481353759765625</LongitudeDegrees>
            </Position>
            <AltitudeMeters>905.20001220703125</AltitudeMeters>
            <DistanceMeters>NAN</DistanceMeters>
          </Trackpoint>
          <Trackpoint>
            <Time>2020-03-07T17:29:59.000Z</Time>
            <Position>
              <LatitudeDegrees>40.70770181715488433837890625</LatitudeDegrees>
              <LongitudeDegrees>-3.7935412488877773284912109375</LongitudeDegrees>
            </Position>
            <AltitudeMeters>905.20001220703125</AltitudeMeters>
            <DistanceMeters>NAN</DistanceMeters>
          </Trackpoint>
          <Trackpoint>
            <Time>2020-03-07T17:30:00.000Z</Time>
            <Position>
              <LatitudeDegrees>40.7076523639261722564697265625</LatitudeDegrees>
              <LongitudeDegrees>-3.79353429190814495086669921875</LongitudeDegrees>
            </Position>
            <AltitudeMeters>905.4000244140625</AltitudeMeters>
            <DistanceMeters>NAN</DistanceMeters>
          </Trackpoint>
          <Trackpoint>
            <Time>2020-03-07T17:30:01.000Z</Time>
            <Position>
              <LatitudeDegrees>40.70760383270680904388427734375</LatitudeDegrees>
              <LongitudeDegrees>-3.79352725110948085784912109375</LongitudeDegrees>
            </Position>
            <AltitudeMeters>905.4000244140625</AltitudeMeters>
            <DistanceMeters>NAN</DistanceMeters>
          </Trackpoint>
          <Trackpoint>
            <Time>2020-03-07T17:30:02.000Z</Time>
            <Position>
              <LatitudeDegrees>40.70755404420197010040283203125</LatitudeDegrees>
              <LongitudeDegrees>-3.79352021031081676483154296875</LongitudeDegrees>
            </Position>
            <AltitudeMeters>905.4000244140625</AltitudeMeters>
            <DistanceMeters>NAN</DistanceMeters>
          </Trackpoint>
          <Trackpoint>
            <Time>2020-03-07T17:30:03.000Z</Time>
            <Position>
              <LatitudeDegrees>40.70750358514487743377685546875</LatitudeDegrees>
              <LongitudeDegrees>-3.793515264987945556640625</LongitudeDegrees>
            </Position>
            <AltitudeMeters>905.5999755859375</AltitudeMeters>
            <DistanceMeters>NAN</DistanceMeters>
          </Trackpoint>
          <Trackpoint>
            <Time>2020-03-07T17:30:04.000Z</Time>
            <Position>
              <LatitudeDegrees>40.70745262317359447479248046875</LatitudeDegrees>
              <LongitudeDegrees>-3.7935110740363597869873046875</LongitudeDegrees>
            </Position>
            <AltitudeMeters>905.5999755859375</AltitudeMeters>
            <DistanceMeters>NAN</DistanceMeters>
          </Trackpoint>
          <Trackpoint>
            <Time>2020-03-07T17:30:05.000Z</Time>
            <Position>
              <LatitudeDegrees>40.7074022479355335235595703125</LatitudeDegrees>
              <LongitudeDegrees>-3.7935077212750911712646484375</LongitudeDegrees>
            </Position>
            <AltitudeMeters>905.5999755859375</AltitudeMeters>
            <DistanceMeters>NAN</DistanceMeters>
          </Trackpoint>
          <Trackpoint>
            <Time>2020-03-07T17:30:06.000Z</Time>
            <Position>
              <LatitudeDegrees>40.707351453602313995361328125</LatitudeDegrees>
              <LongitudeDegrees>-3.79350311122834682464599609375</LongitudeDegrees>
            </Position>
            <AltitudeMeters>905.5999755859375</AltitudeMeters>
            <DistanceMeters>NAN</DistanceMeters>
          </Trackpoint>
          <Trackpoint>
            <Time>2020-03-07T17:30:07.000Z</Time>
            <Position>
              <LatitudeDegrees>40.7073009945452213287353515625</LatitudeDegrees>
              <LongitudeDegrees>-3.7934973277151584625244140625</LongitudeDegrees>
            </Position>
            <AltitudeMeters>905.79998779296875</AltitudeMeters>
            <DistanceMeters>NAN</DistanceMeters>
          </Trackpoint>
          <Trackpoint>
            <Time>2020-03-07T17:30:08.000Z</Time>
            <Position>
              <LatitudeDegrees>40.70725112222135066986083984375</LatitudeDegrees>
              <LongitudeDegrees>-3.79349137656390666961669921875</LongitudeDegrees>
            </Position>
            <AltitudeMeters>905.79998779296875</AltitudeMeters>
            <DistanceMeters>NAN</DistanceMeters>
          </Trackpoint>
          <Trackpoint>
            <Time>2020-03-07T17:30:09.000Z</Time>
            <Position>
              <LatitudeDegrees>40.70720133371651172637939453125</LatitudeDegrees>
              <LongitudeDegrees>-3.79348517395555973052978515625</LongitudeDegrees>
            </Position>
            <AltitudeMeters>906</AltitudeMeters>
            <DistanceMeters>NAN</DistanceMeters>
          </Trackpoint>
          <Trackpoint>
            <Time>2020-03-07T17:30:10.000Z</Time>
            <Position>
              <LatitudeDegrees>40.7071507908403873443603515625</LatitudeDegrees>
              <LongitudeDegrees>-3.79347838461399078369140625</LongitudeDegrees>
            </Position>
            <AltitudeMeters>906</AltitudeMeters>
            <DistanceMeters>NAN</DistanceMeters>
          </Trackpoint>
          <Trackpoint>
            <Time>2020-03-07T17:30:11.000Z</Time>
            <Position>
              <LatitudeDegrees>40.70710024796426296234130859375</LatitudeDegrees>
              <LongitudeDegrees>-3.7934731878340244293212890625</LongitudeDegrees>
            </Position>
            <AltitudeMeters>906</AltitudeMeters>
            <DistanceMeters>NAN</DistanceMeters>
          </Trackpoint>
          <Trackpoint>
            <Time>2020-03-07T17:30:12.000Z</Time>
            <Position>
              <LatitudeDegrees>40.7070492021739482879638671875</LatitudeDegrees>
              <LongitudeDegrees>-3.7934684939682483673095703125</LongitudeDegrees>
            </Position>
            <AltitudeMeters>906</AltitudeMeters>
            <DistanceMeters>NAN</DistanceMeters>
          </Trackpoint>
          <Trackpoint>
            <Time>2020-03-07T17:30:13.000Z</Time>
            <Position>
              <LatitudeDegrees>40.70699865929782390594482421875</LatitudeDegrees>
              <LongitudeDegrees>-3.79346254281699657440185546875</LongitudeDegrees>
            </Position>
            <AltitudeMeters>906.20001220703125</AltitudeMeters>
            <DistanceMeters>NAN</DistanceMeters>
          </Trackpoint>
          <Trackpoint>
            <Time>2020-03-07T17:30:14.000Z</Time>
            <Position>
              <LatitudeDegrees>40.7069489546120166778564453125</LatitudeDegrees>
              <LongitudeDegrees>-3.7934577651321887969970703125</LongitudeDegrees>
            </Position>
            <AltitudeMeters>906.20001220703125</AltitudeMeters>
            <DistanceMeters>NAN</DistanceMeters>
          </Trackpoint>
          <Trackpoint>
            <Time>2020-03-07T17:30:15.000Z</Time>
            <Position>
              <LatitudeDegrees>40.70689824409782886505126953125</LatitudeDegrees>
              <LongitudeDegrees>-3.79345290362834930419921875</LongitudeDegrees>
            </Position>
            <AltitudeMeters>906.20001220703125</AltitudeMeters>
            <DistanceMeters>NAN</DistanceMeters>
          </Trackpoint>
          <Trackpoint>
            <Time>2020-03-07T17:30:16.000Z</Time>
            <Position>
              <LatitudeDegrees>40.70684644393622875213623046875</LatitudeDegrees>
              <LongitudeDegrees>-3.793447874486446380615234375</LongitudeDegrees>
            </Position>
            <AltitudeMeters>906.20001220703125</AltitudeMeters>
            <DistanceMeters>NAN</DistanceMeters>
          </Trackpoint>
          <Trackpoint>
            <Time>2020-03-07T17:30:17.000Z</Time>
            <Position>
              <LatitudeDegrees>40.70679347030818462371826171875</LatitudeDegrees>
              <LongitudeDegrees>-3.79344142042100429534912109375</LongitudeDegrees>
            </Position>
            <AltitudeMeters>906.20001220703125</AltitudeMeters>
            <DistanceMeters>NAN</DistanceMeters>
          </Trackpoint>
          <Trackpoint>
            <Time>2020-03-07T17:30:18.000Z</Time>
            <Position>
              <LatitudeDegrees>40.70674167014658451080322265625</LatitudeDegrees>
              <LongitudeDegrees>-3.793435804545879364013671875</LongitudeDegrees>
            </Position>
            <AltitudeMeters>906.20001220703125</AltitudeMeters>
            <DistanceMeters>NAN</DistanceMeters>
          </Trackpoint>
          <Trackpoint>
            <Time>2020-03-07T17:30:19.000Z</Time>
            <Position>
              <LatitudeDegrees>40.70669121108949184417724609375</LatitudeDegrees>
              <LongitudeDegrees>-3.793432451784610748291015625</LongitudeDegrees>
            </Position>
            <AltitudeMeters>906.4000244140625</AltitudeMeters>
            <DistanceMeters>NAN</DistanceMeters>
          </Trackpoint>
          <Trackpoint>
            <Time>2020-03-07T17:30:20.000Z</Time>
            <Position>
              <LatitudeDegrees>40.70664008148014545440673828125</LatitudeDegrees>
              <LongitudeDegrees>-3.7934299372136592864990234375</LongitudeDegrees>
            </Position>
            <AltitudeMeters>906.4000244140625</AltitudeMeters>
            <DistanceMeters>NAN</DistanceMeters>
          </Trackpoint>
          <Trackpoint>
            <Time>2020-03-07T17:30:21.000Z</Time>
            <Position>
              <LatitudeDegrees>40.706589035689830780029296875</LatitudeDegrees>
              <LongitudeDegrees>-3.79342784173786640167236328125</LongitudeDegrees>
            </Position>
            <AltitudeMeters>906.4000244140625</AltitudeMeters>
            <DistanceMeters>NAN</DistanceMeters>
          </Trackpoint>
          <Trackpoint>
            <Time>2020-03-07T17:30:22.000Z</Time>
            <Position>
              <LatitudeDegrees>40.7065385766327381134033203125</LatitudeDegrees>
              <LongitudeDegrees>-3.79342415370047092437744140625</LongitudeDegrees>
            </Position>
            <AltitudeMeters>906.4000244140625</AltitudeMeters>
            <DistanceMeters>NAN</DistanceMeters>
          </Trackpoint>
          <Trackpoint>
            <Time>2020-03-07T17:30:23.000Z</Time>
            <Position>
              <LatitudeDegrees>40.70648853667080402374267578125</LatitudeDegrees>
              <LongitudeDegrees>-3.79341979511082172393798828125</LongitudeDegrees>
            </Position>
            <AltitudeMeters>906.5999755859375</AltitudeMeters>
            <DistanceMeters>NAN</DistanceMeters>
          </Trackpoint>
          <Trackpoint>
            <Time>2020-03-07T17:30:24.000Z</Time>
            <Position>
              <LatitudeDegrees>40.706438161432743072509765625</LatitudeDegrees>
              <LongitudeDegrees>-3.79341577179729938507080078125</LongitudeDegrees>
            </Position>
            <AltitudeMeters>906.5999755859375</AltitudeMeters>
            <DistanceMeters>NAN</DistanceMeters>
          </Trackpoint>
          <Trackpoint>
            <Time>2020-03-07T17:30:25.000Z</Time>
            <Position>
              <LatitudeDegrees>40.706387199461460113525390625</LatitudeDegrees>
              <LongitudeDegrees>-3.7934128381311893463134765625</LongitudeDegrees>
            </Position>
            <AltitudeMeters>906.5999755859375</AltitudeMeters>
            <DistanceMeters>NAN</DistanceMeters>
          </Trackpoint>
          <Trackpoint>
            <Time>2020-03-07T17:30:26.000Z</Time>
            <Position>
              <LatitudeDegrees>40.706335566937923431396484375</LatitudeDegrees>
              <LongitudeDegrees>-3.79341074265539646148681640625</LongitudeDegrees>
            </Position>
            <AltitudeMeters>906.5999755859375</AltitudeMeters>
            <DistanceMeters>NAN</DistanceMeters>
          </Trackpoint>
          <Trackpoint>
            <Time>2020-03-07T17:30:27.000Z</Time>
            <Position>
              <LatitudeDegrees>40.7062847726047039031982421875</LatitudeDegrees>
              <LongitudeDegrees>-3.79340655170381069183349609375</LongitudeDegrees>
            </Position>
            <AltitudeMeters>906.5999755859375</AltitudeMeters>
            <DistanceMeters>NAN</DistanceMeters>
          </Trackpoint>
          <Trackpoint>
            <Time>2020-03-07T17:30:28.000Z</Time>
            <Position>
              <LatitudeDegrees>40.70623339153826236724853515625</LatitudeDegrees>
              <LongitudeDegrees>-3.79340034909546375274658203125</LongitudeDegrees>
            </Position>
            <AltitudeMeters>906.5999755859375</AltitudeMeters>
            <DistanceMeters>NAN</DistanceMeters>
          </Trackpoint>
          <Trackpoint>
            <Time>2020-03-07T17:30:29.000Z</Time>
            <Position>
              <LatitudeDegrees>40.70618242956697940826416015625</LatitudeDegrees>
              <LongitudeDegrees>-3.79339297302067279815673828125</LongitudeDegrees>
            </Position>
            <AltitudeMeters>906.79998779296875</AltitudeMeters>
            <DistanceMeters>NAN</DistanceMeters>
          </Trackpoint>
          <Trackpoint>
            <Time>2020-03-07T17:30:30.000Z</Time>
            <Position>
              <LatitudeDegrees>40.70613146759569644927978515625</LatitudeDegrees>
              <LongitudeDegrees>-3.7933870218694210052490234375</LongitudeDegrees>
            </Position>
            <AltitudeMeters>906.79998779296875</AltitudeMeters>
            <DistanceMeters>NAN</DistanceMeters>
          </Trackpoint>
          <Trackpoint>
            <Time>2020-03-07T17:30:31.000Z</Time>
            <Position>
              <LatitudeDegrees>40.70608017034828662872314453125</LatitudeDegrees>
              <LongitudeDegrees>-3.79338291473686695098876953125</LongitudeDegrees>
            </Position>
            <AltitudeMeters>906.79998779296875</AltitudeMeters>
            <DistanceMeters>NAN</DistanceMeters>
          </Trackpoint>
          <Trackpoint>
            <Time>2020-03-07T17:30:32.000Z</Time>
            <Position>
              <LatitudeDegrees>40.70602870546281337738037109375</LatitudeDegrees>
              <LongitudeDegrees>-3.79337780177593231201171875</LongitudeDegrees>
            </Position>
            <AltitudeMeters>907</AltitudeMeters>
            <DistanceMeters>NAN</DistanceMeters>
          </Trackpoint>
          <Trackpoint>
            <Time>2020-03-07T17:30:33.000Z</Time>
            <Position>
              <LatitudeDegrees>40.7059764862060546875</LatitudeDegrees>
              <LongitudeDegrees>-3.79337285645306110382080078125</LongitudeDegrees>
            </Position>
            <AltitudeMeters>907</AltitudeMeters>
            <DistanceMeters>NAN</DistanceMeters>
          </Trackpoint>
          <Trackpoint>
            <Time>2020-03-07T17:30:34.000Z</Time>
            <Position>
              <LatitudeDegrees>40.7059240154922008514404296875</LatitudeDegrees>
              <LongitudeDegrees>-3.7933672405779361724853515625</LongitudeDegrees>
            </Position>
            <AltitudeMeters>907</AltitudeMeters>
            <DistanceMeters>NAN</DistanceMeters>
          </Trackpoint>
          <Trackpoint>
            <Time>2020-03-07T17:30:35.000Z</Time>
            <Position>
              <LatitudeDegrees>40.70587112568318843841552734375</LatitudeDegrees>
              <LongitudeDegrees>-3.7933598645031452178955078125</LongitudeDegrees>
            </Position>
            <AltitudeMeters>907</AltitudeMeters>
            <DistanceMeters>NAN</DistanceMeters>
          </Trackpoint>
          <Trackpoint>
            <Time>2020-03-07T17:30:36.000Z</Time>
            <Position>
              <LatitudeDegrees>40.7058194093406200408935546875</LatitudeDegrees>
              <LongitudeDegrees>-3.7933524884283542633056640625</LongitudeDegrees>
            </Position>
            <AltitudeMeters>907.20001220703125</AltitudeMeters>
            <DistanceMeters>NAN</DistanceMeters>
          </Trackpoint>
          <Trackpoint>
            <Time>2020-03-07T17:30:37.000Z</Time>
            <Position>
              <LatitudeDegrees>40.70576903410255908966064453125</LatitudeDegrees>
              <LongitudeDegrees>-3.7933454476296901702880859375</LongitudeDegrees>
            </Position>
            <AltitudeMeters>907.4000244140625</AltitudeMeters>
            <DistanceMeters>NAN</DistanceMeters>
          </Trackpoint>
          <Trackpoint>
            <Time>2020-03-07T17:30:38.000Z</Time>
            <Position>
              <LatitudeDegrees>40.70571991614997386932373046875</LatitudeDegrees>
              <LongitudeDegrees>-3.79333999939262866973876953125</LongitudeDegrees>
            </Position>
            <AltitudeMeters>907.5999755859375</AltitudeMeters>
            <DistanceMeters>NAN</DistanceMeters>
          </Trackpoint>
          <Trackpoint>
            <Time>2020-03-07T17:30:39.000Z</Time>
            <Position>
              <LatitudeDegrees>40.705671049654483795166015625</LatitudeDegrees>
              <LongitudeDegrees>-3.793333880603313446044921875</LongitudeDegrees>
            </Position>
            <AltitudeMeters>907.5999755859375</AltitudeMeters>
            <DistanceMeters>NAN</DistanceMeters>
          </Trackpoint>
          <Trackpoint>
            <Time>2020-03-07T17:30:40.000Z</Time>
            <Position>
              <LatitudeDegrees>40.70562352426350116729736328125</LatitudeDegrees>
              <LongitudeDegrees>-3.793327175080776214599609375</LongitudeDegrees>
            </Position>
            <AltitudeMeters>907.5999755859375</AltitudeMeters>
            <DistanceMeters>NAN</DistanceMeters>
          </Trackpoint>
          <Trackpoint>
            <Time>2020-03-07T17:30:41.000Z</Time>
            <Position>
              <LatitudeDegrees>40.705577172338962554931640625</LatitudeDegrees>
              <LongitudeDegrees>-3.7933186255395412445068359375</LongitudeDegrees>
            </Position>
            <AltitudeMeters>907.5999755859375</AltitudeMeters>
            <DistanceMeters>NAN</DistanceMeters>
          </Trackpoint>
          <Trackpoint>
            <Time>2020-03-07T17:30:42.000Z</Time>
            <Position>
              <LatitudeDegrees>40.7055327482521533966064453125</LatitudeDegrees>
              <LongitudeDegrees>-3.793309740722179412841796875</LongitudeDegrees>
            </Position>
            <AltitudeMeters>907.5999755859375</AltitudeMeters>
            <DistanceMeters>NAN</DistanceMeters>
          </Trackpoint>
          <Trackpoint>
            <Time>2020-03-07T17:30:43.000Z</Time>
            <Position>
              <LatitudeDegrees>40.70548958145081996917724609375</LatitudeDegrees>
              <LongitudeDegrees>-3.79330211319029331207275390625</LongitudeDegrees>
            </Position>
            <AltitudeMeters>907.79998779296875</AltitudeMeters>
            <DistanceMeters>NAN</DistanceMeters>
          </Trackpoint>
          <Trackpoint>
            <Time>2020-03-07T17:30:44.000Z</Time>
            <Position>
              <LatitudeDegrees>40.70544607937335968017578125</LatitudeDegrees>
              <LongitudeDegrees>-3.79329456947743892669677734375</LongitudeDegrees>
            </Position>
            <AltitudeMeters>907.79998779296875</AltitudeMeters>
            <DistanceMeters>NAN</DistanceMeters>
          </Trackpoint>
          <Trackpoint>
            <Time>2020-03-07T17:30:45.000Z</Time>
            <Position>
              <LatitudeDegrees>40.7054029963910579681396484375</LatitudeDegrees>
              <LongitudeDegrees>-3.79328920505940914154052734375</LongitudeDegrees>
            </Position>
            <AltitudeMeters>907.79998779296875</AltitudeMeters>
            <DistanceMeters>NAN</DistanceMeters>
          </Trackpoint>
          <Trackpoint>
            <Time>2020-03-07T17:30:46.000Z</Time>
            <Position>
              <LatitudeDegrees>40.70536100305616855621337890625</LatitudeDegrees>
              <LongitudeDegrees>-3.793283589184284210205078125</LongitudeDegrees>
            </Position>
            <AltitudeMeters>908</AltitudeMeters>
            <DistanceMeters>NAN</DistanceMeters>
          </Trackpoint>
          <Trackpoint>
            <Time>2020-03-07T17:30:47.000Z</Time>
            <Position>
              <LatitudeDegrees>40.7053206861019134521484375</LatitudeDegrees>
              <LongitudeDegrees>-3.79328015260398387908935546875</LongitudeDegrees>
            </Position>
            <AltitudeMeters>908.4000244140625</AltitudeMeters>
            <DistanceMeters>NAN</DistanceMeters>
          </Trackpoint>
          <Trackpoint>
            <Time>2020-03-07T17:30:48.000Z</Time>
            <Position>
              <LatitudeDegrees>40.705282129347324371337890625</LatitudeDegrees>
              <LongitudeDegrees>-3.793274872004985809326171875</LongitudeDegrees>
            </Position>
            <AltitudeMeters>908.5999755859375</AltitudeMeters>
            <DistanceMeters>NAN</DistanceMeters>
          </Trackpoint>
          <Trackpoint>
            <Time>2020-03-07T17:30:49.000Z</Time>
            <Position>
              <LatitudeDegrees>40.70524332113564014434814453125</LatitudeDegrees>
              <LongitudeDegrees>-3.79327042959630489349365234375</LongitudeDegrees>
            </Position>
            <AltitudeMeters>908.79998779296875</AltitudeMeters>
            <DistanceMeters>NAN</DistanceMeters>
          </Trackpoint>
          <Trackpoint>
            <Time>2020-03-07T17:30:50.000Z</Time>
            <Position>
              <LatitudeDegrees>40.70520493201911449432373046875</LatitudeDegrees>
              <LongitudeDegrees>-3.79326556809246540069580078125</LongitudeDegrees>
            </Position>
            <AltitudeMeters>909</AltitudeMeters>
            <DistanceMeters>NAN</DistanceMeters>
          </Trackpoint>
          <Trackpoint>
            <Time>2020-03-07T17:30:51.000Z</Time>
            <Position>
              <LatitudeDegrees>40.7051666267216205596923828125</LatitudeDegrees>
              <LongitudeDegrees>-3.7932616285979747772216796875</LongitudeDegrees>
            </Position>
            <AltitudeMeters>909.20001220703125</AltitudeMeters>
            <DistanceMeters>NAN</DistanceMeters>
          </Trackpoint>
          <Trackpoint>
            <Time>2020-03-07T17:30:52.000Z</Time>
            <Position>
              <LatitudeDegrees>40.7051302492618560791015625</LatitudeDegrees>
              <LongitudeDegrees>-3.7932549230754375457763671875</LongitudeDegrees>
            </Position>
            <AltitudeMeters>909.4000244140625</AltitudeMeters>
            <DistanceMeters>NAN</DistanceMeters>
          </Trackpoint>
          <Trackpoint>
            <Time>2020-03-07T17:30:53.000Z</Time>
            <Position>
              <LatitudeDegrees>40.70509445853531360626220703125</LatitudeDegrees>
              <LongitudeDegrees>-3.7932492233812808990478515625</LongitudeDegrees>
            </Position>
            <AltitudeMeters>909.5999755859375</AltitudeMeters>
            <DistanceMeters>NAN</DistanceMeters>
          </Trackpoint>
          <Trackpoint>
            <Time>2020-03-07T17:30:54.000Z</Time>
            <Position>
              <LatitudeDegrees>40.70505850017070770263671875</LatitudeDegrees>
              <LongitudeDegrees>-3.7932441942393779754638671875</LongitudeDegrees>
            </Position>
            <AltitudeMeters>909.5999755859375</AltitudeMeters>
            <DistanceMeters>NAN</DistanceMeters>
          </Trackpoint>
          <Trackpoint>
            <Time>2020-03-07T17:30:55.000Z</Time>
            <Position>
              <LatitudeDegrees>40.7050237990915775299072265625</LatitudeDegrees>
              <LongitudeDegrees>-3.79324042238295078277587890625</LongitudeDegrees>
            </Position>
            <AltitudeMeters>909.79998779296875</AltitudeMeters>
            <DistanceMeters>NAN</DistanceMeters>
          </Trackpoint>
          <Trackpoint>
            <Time>2020-03-07T17:30:56.000Z</Time>
            <Position>
              <LatitudeDegrees>40.70498934946954250335693359375</LatitudeDegrees>
              <LongitudeDegrees>-3.79323639906942844390869140625</LongitudeDegrees>
            </Position>
            <AltitudeMeters>910.20001220703125</AltitudeMeters>
            <DistanceMeters>NAN</DistanceMeters>
          </Trackpoint>
          <Trackpoint>
            <Time>2020-03-07T17:30:57.000Z</Time>
            <Position>
              <LatitudeDegrees>40.7049543969333171844482421875</LatitudeDegrees>
              <LongitudeDegrees>-3.79323254339396953582763671875</LongitudeDegrees>
            </Position>
            <AltitudeMeters>910.4000244140625</AltitudeMeters>
            <DistanceMeters>NAN</DistanceMeters>
          </Trackpoint>
          <Trackpoint>
            <Time>2020-03-07T17:30:58.000Z</Time>
            <Position>
              <LatitudeDegrees>40.70491894148290157318115234375</LatitudeDegrees>
              <LongitudeDegrees>-3.79322893917560577392578125</LongitudeDegrees>
            </Position>
            <AltitudeMeters>910.5999755859375</AltitudeMeters>
            <DistanceMeters>NAN</DistanceMeters>
          </Trackpoint>
          <Trackpoint>
            <Time>2020-03-07T17:30:59.000Z</Time>
            <Position>
              <LatitudeDegrees>40.70488147437572479248046875</LatitudeDegrees>
              <LongitudeDegrees>-3.793223910033702850341796875</LongitudeDegrees>
            </Position>
            <AltitudeMeters>910.79998779296875</AltitudeMeters>
            <DistanceMeters>NAN</DistanceMeters>
          </Trackpoint>
          <Trackpoint>
            <Time>2020-03-07T17:31:00.000Z</Time>
            <Position>
              <LatitudeDegrees>40.70484518073499202728271484375</LatitudeDegrees>
              <LongitudeDegrees>-3.793220557272434234619140625</LongitudeDegrees>
            </Position>
            <AltitudeMeters>911</AltitudeMeters>
            <DistanceMeters>NAN</DistanceMeters>
          </Trackpoint>
          <Trackpoint>
            <Time>2020-03-07T17:31:01.000Z</Time>
            <Position>
              <LatitudeDegrees>40.70480980910360813140869140625</LatitudeDegrees>
              <LongitudeDegrees>-3.79321728833019733428955078125</LongitudeDegrees>
            </Position>
            <AltitudeMeters>911.4000244140625</AltitudeMeters>
            <DistanceMeters>NAN</DistanceMeters>
          </Trackpoint>
          <Trackpoint>
            <Time>2020-03-07T17:31:02.000Z</Time>
            <Position>
              <LatitudeDegrees>40.704773850739002227783203125</LatitudeDegrees>
              <LongitudeDegrees>-3.79321427084505558013916015625</LongitudeDegrees>
            </Position>
            <AltitudeMeters>911.5999755859375</AltitudeMeters>
            <DistanceMeters>NAN</DistanceMeters>
          </Trackpoint>
          <Trackpoint>
            <Time>2020-03-07T17:31:03.000Z</Time>
            <Position>
              <LatitudeDegrees>40.7047378085553646087646484375</LatitudeDegrees>
              <LongitudeDegrees>-3.7932116724550724029541015625</LongitudeDegrees>
            </Position>
            <AltitudeMeters>911.79998779296875</AltitudeMeters>
            <DistanceMeters>NAN</DistanceMeters>
          </Trackpoint>
          <Trackpoint>
            <Time>2020-03-07T17:31:04.000Z</Time>
            <Position>
              <LatitudeDegrees>40.7047005929052829742431640625</LatitudeDegrees>
              <LongitudeDegrees>-3.79321016371250152587890625</LongitudeDegrees>
            </Position>
            <AltitudeMeters>912</AltitudeMeters>
            <DistanceMeters>NAN</DistanceMeters>
          </Trackpoint>
          <Trackpoint>
            <Time>2020-03-07T17:31:05.000Z</Time>
            <Position>
              <LatitudeDegrees>40.7046635448932647705078125</LatitudeDegrees>
              <LongitudeDegrees>-3.7932083196938037872314453125</LongitudeDegrees>
            </Position>
            <AltitudeMeters>912.20001220703125</AltitudeMeters>
            <DistanceMeters>NAN</DistanceMeters>
          </Trackpoint>
          <Trackpoint>
            <Time>2020-03-07T17:31:06.000Z</Time>
            <Position>
              <LatitudeDegrees>40.704627670347690582275390625</LatitudeDegrees>
              <LongitudeDegrees>-3.7932056374847888946533203125</LongitudeDegrees>
            </Position>
            <AltitudeMeters>912.4000244140625</AltitudeMeters>
            <DistanceMeters>NAN</DistanceMeters>
          </Trackpoint>
          <Trackpoint>
            <Time>2020-03-07T17:31:07.000Z</Time>
            <Position>
              <LatitudeDegrees>40.704592131078243255615234375</LatitudeDegrees>
              <LongitudeDegrees>-3.7932027876377105712890625</LongitudeDegrees>
            </Position>
            <AltitudeMeters>912.5999755859375</AltitudeMeters>
            <DistanceMeters>NAN</DistanceMeters>
          </Trackpoint>
          <Trackpoint>
            <Time>2020-03-07T17:31:08.000Z</Time>
            <Position>
              <LatitudeDegrees>40.7045562565326690673828125</LatitudeDegrees>
              <LongitudeDegrees>-3.7931999377906322479248046875</LongitudeDegrees>
            </Position>
            <AltitudeMeters>912.79998779296875</AltitudeMeters>
            <DistanceMeters>NAN</DistanceMeters>
          </Trackpoint>
          <Trackpoint>
            <Time>2020-03-07T17:31:09.000Z</Time>
            <Position>
              <LatitudeDegrees>40.70451937615871429443359375</LatitudeDegrees>
              <LongitudeDegrees>-3.7931974232196807861328125</LongitudeDegrees>
            </Position>
            <AltitudeMeters>913</AltitudeMeters>
            <DistanceMeters>NAN</DistanceMeters>
          </Trackpoint>
          <Trackpoint>
            <Time>2020-03-07T17:31:10.000Z</Time>
            <Position>
              <LatitudeDegrees>40.70448224432766437530517578125</LatitudeDegrees>
              <LongitudeDegrees>-3.79319272935390472412109375</LongitudeDegrees>
            </Position>
            <AltitudeMeters>913</AltitudeMeters>
            <DistanceMeters>NAN</DistanceMeters>
          </Trackpoint>
          <Trackpoint>
            <Time>2020-03-07T17:31:11.000Z</Time>
            <Position>
              <LatitudeDegrees>40.70444502867758274078369140625</LatitudeDegrees>
              <LongitudeDegrees>-3.793188035488128662109375</LongitudeDegrees>
            </Position>
            <AltitudeMeters>913.20001220703125</AltitudeMeters>
            <DistanceMeters>NAN</DistanceMeters>
          </Trackpoint>
          <Trackpoint>
            <Time>2020-03-07T17:31:12.000Z</Time>
            <Position>
              <LatitudeDegrees>40.70440940558910369873046875</LatitudeDegrees>
              <LongitudeDegrees>-3.7931828387081623077392578125</LongitudeDegrees>
            </Position>
            <AltitudeMeters>913.20001220703125</AltitudeMeters>
            <DistanceMeters>NAN</DistanceMeters>
          </Trackpoint>
          <Trackpoint>
            <Time>2020-03-07T17:31:13.000Z</Time>
            <Position>
              <LatitudeDegrees>40.704373531043529510498046875</LatitudeDegrees>
              <LongitudeDegrees>-3.79317789338529109954833984375</LongitudeDegrees>
            </Position>
            <AltitudeMeters>913.4000244140625</AltitudeMeters>
            <DistanceMeters>NAN</DistanceMeters>
          </Trackpoint>
          <Trackpoint>
            <Time>2020-03-07T17:31:14.000Z</Time>
            <Position>
              <LatitudeDegrees>40.7043381594121456146240234375</LatitudeDegrees>
              <LongitudeDegrees>-3.79317387007176876068115234375</LongitudeDegrees>
            </Position>
            <AltitudeMeters>913.4000244140625</AltitudeMeters>
            <DistanceMeters>NAN</DistanceMeters>
          </Trackpoint>
          <Trackpoint>
            <Time>2020-03-07T17:31:15.000Z</Time>
            <Position>
              <LatitudeDegrees>40.704303123056888580322265625</LatitudeDegrees>
              <LongitudeDegrees>-3.79317102022469043731689453125</LongitudeDegrees>
            </Position>
            <AltitudeMeters>913.79998779296875</AltitudeMeters>
            <DistanceMeters>NAN</DistanceMeters>
          </Trackpoint>
          <Trackpoint>
            <Time>2020-03-07T17:31:16.000Z</Time>
            <Position>
              <LatitudeDegrees>40.7042677514255046844482421875</LatitudeDegrees>
              <LongitudeDegrees>-3.79316724836826324462890625</LongitudeDegrees>
            </Position>
            <AltitudeMeters>914</AltitudeMeters>
            <DistanceMeters>NAN</DistanceMeters>
          </Trackpoint>
          <Trackpoint>
            <Time>2020-03-07T17:31:17.000Z</Time>
            <Position>
              <LatitudeDegrees>40.704232044517993927001953125</LatitudeDegrees>
              <LongitudeDegrees>-3.79316280595958232879638671875</LongitudeDegrees>
            </Position>
            <AltitudeMeters>914</AltitudeMeters>
            <DistanceMeters>NAN</DistanceMeters>
          </Trackpoint>
          <Trackpoint>
            <Time>2020-03-07T17:31:18.000Z</Time>
            <Position>
              <LatitudeDegrees>40.7041953317821025848388671875</LatitudeDegrees>
              <LongitudeDegrees>-3.79315928556025028228759765625</LongitudeDegrees>
            </Position>
            <AltitudeMeters>914.20001220703125</AltitudeMeters>
            <DistanceMeters>NAN</DistanceMeters>
          </Trackpoint>
          <Trackpoint>
            <Time>2020-03-07T17:31:19.000Z</Time>
            <Position>
              <LatitudeDegrees>40.70415836758911609649658203125</LatitudeDegrees>
              <LongitudeDegrees>-3.79315677098929882049560546875</LongitudeDegrees>
            </Position>
            <AltitudeMeters>914.4000244140625</AltitudeMeters>
            <DistanceMeters>NAN</DistanceMeters>
          </Trackpoint>
          <Trackpoint>
            <Time>2020-03-07T17:31:20.000Z</Time>
            <Position>
              <LatitudeDegrees>40.70412031374871730804443359375</LatitudeDegrees>
              <LongitudeDegrees>-3.79315383732318878173828125</LongitudeDegrees>
            </Position>
            <AltitudeMeters>914.5999755859375</AltitudeMeters>
            <DistanceMeters>NAN</DistanceMeters>
          </Trackpoint>
          <Trackpoint>
            <Time>2020-03-07T17:31:21.000Z</Time>
            <Position>
              <LatitudeDegrees>40.70408242754638195037841796875</LatitudeDegrees>
              <LongitudeDegrees>-3.79315140657126903533935546875</LongitudeDegrees>
            </Position>
            <AltitudeMeters>914.79998779296875</AltitudeMeters>
            <DistanceMeters>NAN</DistanceMeters>
          </Trackpoint>
          <Trackpoint>
            <Time>2020-03-07T17:31:22.000Z</Time>
            <Position>
              <LatitudeDegrees>40.70404504425823688507080078125</LatitudeDegrees>
              <LongitudeDegrees>-3.79314704798161983489990234375</LongitudeDegrees>
            </Position>
            <AltitudeMeters>914.79998779296875</AltitudeMeters>
            <DistanceMeters>NAN</DistanceMeters>
          </Trackpoint>
          <Trackpoint>
            <Time>2020-03-07T17:31:23.000Z</Time>
            <Position>
              <LatitudeDegrees>40.704006738960742950439453125</LatitudeDegrees>
              <LongitudeDegrees>-3.79314218647778034210205078125</LongitudeDegrees>
            </Position>
            <AltitudeMeters>915</AltitudeMeters>
            <DistanceMeters>NAN</DistanceMeters>
          </Trackpoint>
          <Trackpoint>
            <Time>2020-03-07T17:31:24.000Z</Time>
            <Position>
              <LatitudeDegrees>40.70396893657743930816650390625</LatitudeDegrees>
              <LongitudeDegrees>-3.79313749261200428009033203125</LongitudeDegrees>
            </Position>
            <AltitudeMeters>915.20001220703125</AltitudeMeters>
            <DistanceMeters>NAN</DistanceMeters>
          </Trackpoint>
          <Trackpoint>
            <Time>2020-03-07T17:31:25.000Z</Time>
            <Position>
              <LatitudeDegrees>40.70393063127994537353515625</LatitudeDegrees>
              <LongitudeDegrees>-3.79313506186008453369140625</LongitudeDegrees>
            </Position>
            <AltitudeMeters>915.4000244140625</AltitudeMeters>
            <DistanceMeters>NAN</DistanceMeters>
          </Trackpoint>
          <Trackpoint>
            <Time>2020-03-07T17:31:26.000Z</Time>
            <Position>
              <LatitudeDegrees>40.7038912363350391387939453125</LatitudeDegrees>
              <LongitudeDegrees>-3.79313179291784763336181640625</LongitudeDegrees>
            </Position>
            <AltitudeMeters>915.4000244140625</AltitudeMeters>
            <DistanceMeters>NAN</DistanceMeters>
          </Trackpoint>
          <Trackpoint>
            <Time>2020-03-07T17:31:27.000Z</Time>
            <Position>
              <LatitudeDegrees>40.70385460741817951202392578125</LatitudeDegrees>
              <LongitudeDegrees>-3.793133385479450225830078125</LongitudeDegrees>
            </Position>
            <AltitudeMeters>915.5999755859375</AltitudeMeters>
            <DistanceMeters>NAN</DistanceMeters>
          </Trackpoint>
          <Trackpoint>
            <Time>2020-03-07T17:31:28.000Z</Time>
            <Position>
              <LatitudeDegrees>40.7038188166916370391845703125</LatitudeDegrees>
              <LongitudeDegrees>-3.793137073516845703125</LongitudeDegrees>
            </Position>
            <AltitudeMeters>915.5999755859375</AltitudeMeters>
            <DistanceMeters>NAN</DistanceMeters>
          </Trackpoint>
          <Trackpoint>
            <Time>2020-03-07T17:31:29.000Z</Time>
            <Position>
              <LatitudeDegrees>40.70378185249865055084228515625</LatitudeDegrees>
              <LongitudeDegrees>-3.79314176738262176513671875</LongitudeDegrees>
            </Position>
            <AltitudeMeters>915.5999755859375</AltitudeMeters>
            <DistanceMeters>NAN</DistanceMeters>
          </Trackpoint>
          <Trackpoint>
            <Time>2020-03-07T17:31:30.000Z</Time>
            <Position>
              <LatitudeDegrees>40.70374530740082263946533203125</LatitudeDegrees>
              <LongitudeDegrees>-3.79314922727644443511962890625</LongitudeDegrees>
            </Position>
            <AltitudeMeters>916</AltitudeMeters>
            <DistanceMeters>NAN</DistanceMeters>
          </Trackpoint>
          <Trackpoint>
            <Time>2020-03-07T17:31:31.000Z</Time>
            <Position>
              <LatitudeDegrees>40.70370742119848728179931640625</LatitudeDegrees>
              <LongitudeDegrees>-3.7931576929986476898193359375</LongitudeDegrees>
            </Position>
            <AltitudeMeters>916.20001220703125</AltitudeMeters>
            <DistanceMeters>NAN</DistanceMeters>
          </Trackpoint>
          <Trackpoint>
            <Time>2020-03-07T17:31:32.000Z</Time>
            <Position>
              <LatitudeDegrees>40.703672133386135101318359375</LatitudeDegrees>
              <LongitudeDegrees>-3.79316900856792926788330078125</LongitudeDegrees>
            </Position>
            <AltitudeMeters>916.4000244140625</AltitudeMeters>
            <DistanceMeters>NAN</DistanceMeters>
          </Trackpoint>
          <Trackpoint>
            <Time>2020-03-07T17:31:33.000Z</Time>
            <Position>
              <LatitudeDegrees>40.70364019833505153656005859375</LatitudeDegrees>
              <LongitudeDegrees>-3.79318476654589176177978515625</LongitudeDegrees>
            </Position>
            <AltitudeMeters>916.5999755859375</AltitudeMeters>
            <DistanceMeters>NAN</DistanceMeters>
          </Trackpoint>
          <Trackpoint>
            <Time>2020-03-07T17:31:34.000Z</Time>
            <Position>
              <LatitudeDegrees>40.70360817946493625640869140625</LatitudeDegrees>
              <LongitudeDegrees>-3.7932027876377105712890625</LongitudeDegrees>
            </Position>
            <AltitudeMeters>917</AltitudeMeters>
            <DistanceMeters>NAN</DistanceMeters>
          </Trackpoint>
          <Trackpoint>
            <Time>2020-03-07T17:31:35.000Z</Time>
            <Position>
              <LatitudeDegrees>40.7035745680332183837890625</LatitudeDegrees>
              <LongitudeDegrees>-3.793219886720180511474609375</LongitudeDegrees>
            </Position>
            <AltitudeMeters>917.20001220703125</AltitudeMeters>
            <DistanceMeters>NAN</DistanceMeters>
          </Trackpoint>
          <Trackpoint>
            <Time>2020-03-07T17:31:36.000Z</Time>
            <Position>
              <LatitudeDegrees>40.7035435549914836883544921875</LatitudeDegrees>
              <LongitudeDegrees>-3.7932338006794452667236328125</LongitudeDegrees>
            </Position>
            <AltitudeMeters>917.4000244140625</AltitudeMeters>
            <DistanceMeters>NAN</DistanceMeters>
          </Trackpoint>
          <Trackpoint>
            <Time>2020-03-07T17:31:37.000Z</Time>
            <Position>
              <LatitudeDegrees>40.70351480506360530853271484375</LatitudeDegrees>
              <LongitudeDegrees>-3.7932441942393779754638671875</LongitudeDegrees>
            </Position>
            <AltitudeMeters>917.5999755859375</AltitudeMeters>
            <DistanceMeters>NAN</DistanceMeters>
          </Trackpoint>
          <Trackpoint>
            <Time>2020-03-07T17:31:38.000Z</Time>
            <Position>
              <LatitudeDegrees>40.70348949171602725982666015625</LatitudeDegrees>
              <LongitudeDegrees>-3.79324846900999546051025390625</LongitudeDegrees>
            </Position>
            <AltitudeMeters>917.5999755859375</AltitudeMeters>
            <DistanceMeters>NAN</DistanceMeters>
          </Trackpoint>
          <Trackpoint>
            <Time>2020-03-07T17:31:39.000Z</Time>
            <Position>
              <LatitudeDegrees>40.70346434600651264190673828125</LatitudeDegrees>
              <LongitudeDegrees>-3.793246038258075714111328125</LongitudeDegrees>
            </Position>
            <AltitudeMeters>917.79998779296875</AltitudeMeters>
            <DistanceMeters>NAN</DistanceMeters>
          </Trackpoint>
          <Trackpoint>
            <Time>2020-03-07T17:31:40.000Z</Time>
            <Position>
              <LatitudeDegrees>40.7034419663250446319580078125</LatitudeDegrees>
              <LongitudeDegrees>-3.79323908127844333648681640625</LongitudeDegrees>
            </Position>
            <AltitudeMeters>918</AltitudeMeters>
            <DistanceMeters>NAN</DistanceMeters>
          </Trackpoint>
          <Trackpoint>
            <Time>2020-03-07T17:31:41.000Z</Time>
            <Position>
              <LatitudeDegrees>40.7034168206155300140380859375</LatitudeDegrees>
              <LongitudeDegrees>-3.79322751425206661224365234375</LongitudeDegrees>
            </Position>
            <AltitudeMeters>918</AltitudeMeters>
            <DistanceMeters>NAN</DistanceMeters>
          </Trackpoint>
          <Trackpoint>
            <Time>2020-03-07T17:31:42.000Z</Time>
            <Position>
              <LatitudeDegrees>40.70339108817279338836669921875</LatitudeDegrees>
              <LongitudeDegrees>-3.7932099960744380950927734375</LongitudeDegrees>
            </Position>
            <AltitudeMeters>918.20001220703125</AltitudeMeters>
            <DistanceMeters>NAN</DistanceMeters>
          </Trackpoint>
          <Trackpoint>
            <Time>2020-03-07T17:31:43.000Z</Time>
            <Position>
              <LatitudeDegrees>40.70336493663489818572998046875</LatitudeDegrees>
              <LongitudeDegrees>-3.79318778403103351593017578125</LongitudeDegrees>
            </Position>
            <AltitudeMeters>918.4000244140625</AltitudeMeters>
            <DistanceMeters>NAN</DistanceMeters>
          </Trackpoint>
          <Trackpoint>
            <Time>2020-03-07T17:31:44.000Z</Time>
            <Position>
              <LatitudeDegrees>40.70333652198314666748046875</LatitudeDegrees>
              <LongitudeDegrees>-3.79316096194088459014892578125</LongitudeDegrees>
            </Position>
            <AltitudeMeters>918.79998779296875</AltitudeMeters>
            <DistanceMeters>NAN</DistanceMeters>
          </Trackpoint>
          <Trackpoint>
            <Time>2020-03-07T17:31:45.000Z</Time>
            <Position>
              <LatitudeDegrees>40.703306011855602264404296875</LatitudeDegrees>
              <LongitudeDegrees>-3.793133385479450225830078125</LongitudeDegrees>
            </Position>
            <AltitudeMeters>919</AltitudeMeters>
            <DistanceMeters>NAN</DistanceMeters>
          </Trackpoint>
          <Trackpoint>
            <Time>2020-03-07T17:31:46.000Z</Time>
            <Position>
              <LatitudeDegrees>40.7032746635377407073974609375</LatitudeDegrees>
              <LongitudeDegrees>-3.79310765303671360015869140625</LongitudeDegrees>
            </Position>
            <AltitudeMeters>919.20001220703125</AltitudeMeters>
            <DistanceMeters>NAN</DistanceMeters>
          </Trackpoint>
          <Trackpoint>
            <Time>2020-03-07T17:31:47.000Z</Time>
            <Position>
              <LatitudeDegrees>40.7032438181340694427490234375</LatitudeDegrees>
              <LongitudeDegrees>-3.79308284260332584381103515625</LongitudeDegrees>
            </Position>
            <AltitudeMeters>919.20001220703125</AltitudeMeters>
            <DistanceMeters>NAN</DistanceMeters>
          </Trackpoint>
          <Trackpoint>
            <Time>2020-03-07T17:31:48.000Z</Time>
            <Position>
              <LatitudeDegrees>40.70321314036846160888671875</LatitudeDegrees>
              <LongitudeDegrees>-3.79305660724639892578125</LongitudeDegrees>
            </Position>
            <AltitudeMeters>919.4000244140625</AltitudeMeters>
            <DistanceMeters>NAN</DistanceMeters>
          </Trackpoint>
          <Trackpoint>
            <Time>2020-03-07T17:31:49.000Z</Time>
            <Position>
              <LatitudeDegrees>40.70318858139216899871826171875</LatitudeDegrees>
              <LongitudeDegrees>-3.793028779327869415283203125</LongitudeDegrees>
            </Position>
            <AltitudeMeters>919.4000244140625</AltitudeMeters>
            <DistanceMeters>NAN</DistanceMeters>
          </Trackpoint>
          <Trackpoint>
            <Time>2020-03-07T17:31:50.000Z</Time>
            <Position>
              <LatitudeDegrees>40.7031633518636226654052734375</LatitudeDegrees>
              <LongitudeDegrees>-3.79300204105675220489501953125</LongitudeDegrees>
            </Position>
            <AltitudeMeters>919.4000244140625</AltitudeMeters>
            <DistanceMeters>NAN</DistanceMeters>
          </Trackpoint>
          <Trackpoint>
            <Time>2020-03-07T17:31:51.000Z</Time>
            <Position>
              <LatitudeDegrees>40.70313761942088603973388671875</LatitudeDegrees>
              <LongitudeDegrees>-3.79297681152820587158203125</LongitudeDegrees>
            </Position>
            <AltitudeMeters>919.5999755859375</AltitudeMeters>
            <DistanceMeters>NAN</DistanceMeters>
          </Trackpoint>
          <Trackpoint>
            <Time>2020-03-07T17:31:52.000Z</Time>
            <Position>
              <LatitudeDegrees>40.70311029441654682159423828125</LatitudeDegrees>
              <LongitudeDegrees>-3.79295325838029384613037109375</LongitudeDegrees>
            </Position>
            <AltitudeMeters>919.5999755859375</AltitudeMeters>
            <DistanceMeters>NAN</DistanceMeters>
          </Trackpoint>
          <Trackpoint>
            <Time>2020-03-07T17:31:53.000Z</Time>
            <Position>
              <LatitudeDegrees>40.70308011956512928009033203125</LatitudeDegrees>
              <LongitudeDegrees>-3.79293196834623813629150390625</LongitudeDegrees>
            </Position>
            <AltitudeMeters>919.5999755859375</AltitudeMeters>
            <DistanceMeters>NAN</DistanceMeters>
          </Trackpoint>
          <Trackpoint>
            <Time>2020-03-07T17:31:54.000Z</Time>
            <Position>
              <LatitudeDegrees>40.7030488550662994384765625</LatitudeDegrees>
              <LongitudeDegrees>-3.792911432683467864990234375</LongitudeDegrees>
            </Position>
            <AltitudeMeters>919.5999755859375</AltitudeMeters>
            <DistanceMeters>NAN</DistanceMeters>
          </Trackpoint>
          <Trackpoint>
            <Time>2020-03-07T17:31:55.000Z</Time>
            <Position>
              <LatitudeDegrees>40.70301725529134273529052734375</LatitudeDegrees>
              <LongitudeDegrees>-3.7928928248584270477294921875</LongitudeDegrees>
            </Position>
            <AltitudeMeters>919.79998779296875</AltitudeMeters>
            <DistanceMeters>NAN</DistanceMeters>
          </Trackpoint>
          <Trackpoint>
            <Time>2020-03-07T17:31:56.000Z</Time>
            <Position>
              <LatitudeDegrees>40.7029853202402591705322265625</LatitudeDegrees>
              <LongitudeDegrees>-3.79287354648113250732421875</LongitudeDegrees>
            </Position>
            <AltitudeMeters>920</AltitudeMeters>
            <DistanceMeters>NAN</DistanceMeters>
          </Trackpoint>
          <Trackpoint>
            <Time>2020-03-07T17:31:57.000Z</Time>
            <Position>
              <LatitudeDegrees>40.7029538042843341827392578125</LatitudeDegrees>
              <LongitudeDegrees>-3.7928539328277111053466796875</LongitudeDegrees>
            </Position>
            <AltitudeMeters>920.20001220703125</AltitudeMeters>
            <DistanceMeters>NAN</DistanceMeters>
          </Trackpoint>
          <Trackpoint>
            <Time>2020-03-07T17:31:58.000Z</Time>
            <Position>
              <LatitudeDegrees>40.70292203687131404876708984375</LatitudeDegrees>
              <LongitudeDegrees>-3.79283507354557514190673828125</LongitudeDegrees>
            </Position>
            <AltitudeMeters>920.20001220703125</AltitudeMeters>
            <DistanceMeters>NAN</DistanceMeters>
          </Trackpoint>
          <Trackpoint>
            <Time>2020-03-07T17:31:59.000Z</Time>
            <Position>
              <LatitudeDegrees>40.7028897665441036224365234375</LatitudeDegrees>
              <LongitudeDegrees>-3.79281562753021717071533203125</LongitudeDegrees>
            </Position>
            <AltitudeMeters>920.4000244140625</AltitudeMeters>
            <DistanceMeters>NAN</DistanceMeters>
          </Trackpoint>
          <Trackpoint>
            <Time>2020-03-07T17:32:00.000Z</Time>
            <Position>
              <LatitudeDegrees>40.70285774767398834228515625</LatitudeDegrees>
              <LongitudeDegrees>-3.79279618151485919952392578125</LongitudeDegrees>
            </Position>
            <AltitudeMeters>920.4000244140625</AltitudeMeters>
            <DistanceMeters>NAN</DistanceMeters>
          </Trackpoint>
          <Trackpoint>
            <Time>2020-03-07T17:32:01.000Z</Time>
            <Position>
              <LatitudeDegrees>40.70282530970871448516845703125</LatitudeDegrees>
              <LongitudeDegrees>-3.79277522675693035125732421875</LongitudeDegrees>
            </Position>
            <AltitudeMeters>920.5999755859375</AltitudeMeters>
            <DistanceMeters>NAN</DistanceMeters>
          </Trackpoint>
          <Trackpoint>
            <Time>2020-03-07T17:32:02.000Z</Time>
            <Position>
              <LatitudeDegrees>40.70279312320053577423095703125</LatitudeDegrees>
              <LongitudeDegrees>-3.7927536852657794952392578125</LongitudeDegrees>
            </Position>
            <AltitudeMeters>920.5999755859375</AltitudeMeters>
            <DistanceMeters>NAN</DistanceMeters>
          </Trackpoint>
          <Trackpoint>
            <Time>2020-03-07T17:32:03.000Z</Time>
            <Position>
              <LatitudeDegrees>40.702760852873325347900390625</LatitudeDegrees>
              <LongitudeDegrees>-3.7927312217652797698974609375</LongitudeDegrees>
            </Position>
            <AltitudeMeters>920.79998779296875</AltitudeMeters>
            <DistanceMeters>NAN</DistanceMeters>
          </Trackpoint>
          <Trackpoint>
            <Time>2020-03-07T17:32:04.000Z</Time>
            <Position>
              <LatitudeDegrees>40.70272791199386119842529296875</LatitudeDegrees>
              <LongitudeDegrees>-3.7927074171602725982666015625</LongitudeDegrees>
            </Position>
            <AltitudeMeters>920.79998779296875</AltitudeMeters>
            <DistanceMeters>NAN</DistanceMeters>
          </Trackpoint>
          <Trackpoint>
            <Time>2020-03-07T17:32:05.000Z</Time>
            <Position>
              <LatitudeDegrees>40.7026948034763336181640625</LatitudeDegrees>
              <LongitudeDegrees>-3.79268310964107513427734375</LongitudeDegrees>
            </Position>
            <AltitudeMeters>920.79998779296875</AltitudeMeters>
            <DistanceMeters>NAN</DistanceMeters>
          </Trackpoint>
          <Trackpoint>
            <Time>2020-03-07T17:32:06.000Z</Time>
            <Position>
              <LatitudeDegrees>40.7026621140539646148681640625</LatitudeDegrees>
              <LongitudeDegrees>-3.79265871830284595489501953125</LongitudeDegrees>
            </Position>
            <AltitudeMeters>921</AltitudeMeters>
            <DistanceMeters>NAN</DistanceMeters>
          </Trackpoint>
          <Trackpoint>
            <Time>2020-03-07T17:32:07.000Z</Time>
            <Position>
              <LatitudeDegrees>40.70263110101222991943359375</LatitudeDegrees>
              <LongitudeDegrees>-3.7926353327929973602294921875</LongitudeDegrees>
            </Position>
            <AltitudeMeters>921.20001220703125</AltitudeMeters>
            <DistanceMeters>NAN</DistanceMeters>
          </Trackpoint>
          <Trackpoint>
            <Time>2020-03-07T17:32:08.000Z</Time>
            <Position>
              <LatitudeDegrees>40.7025984115898609161376953125</LatitudeDegrees>
              <LongitudeDegrees>-3.7926095165312290191650390625</LongitudeDegrees>
            </Position>
            <AltitudeMeters>921.20001220703125</AltitudeMeters>
            <DistanceMeters>NAN</DistanceMeters>
          </Trackpoint>
          <Trackpoint>
            <Time>2020-03-07T17:32:09.000Z</Time>
            <Position>
              <LatitudeDegrees>40.70256580598652362823486328125</LatitudeDegrees>
              <LongitudeDegrees>-3.79258244298398494720458984375</LongitudeDegrees>
            </Position>
            <AltitudeMeters>921.4000244140625</AltitudeMeters>
            <DistanceMeters>NAN</DistanceMeters>
          </Trackpoint>
          <Trackpoint>
            <Time>2020-03-07T17:32:10.000Z</Time>
            <Position>
              <LatitudeDegrees>40.7025330327451229095458984375</LatitudeDegrees>
              <LongitudeDegrees>-3.792555369436740875244140625</LongitudeDegrees>
            </Position>
            <AltitudeMeters>921.4000244140625</AltitudeMeters>
            <DistanceMeters>NAN</DistanceMeters>
          </Trackpoint>
          <Trackpoint>
            <Time>2020-03-07T17:32:11.000Z</Time>
            <Position>
              <LatitudeDegrees>40.70249975658953189849853515625</LatitudeDegrees>
              <LongitudeDegrees>-3.79252946935594081878662109375</LongitudeDegrees>
            </Position>
            <AltitudeMeters>921.5999755859375</AltitudeMeters>
            <DistanceMeters>NAN</DistanceMeters>
          </Trackpoint>
          <Trackpoint>
            <Time>2020-03-07T17:32:12.000Z</Time>
            <Position>
              <LatitudeDegrees>40.70246689952909946441650390625</LatitudeDegrees>
              <LongitudeDegrees>-3.79250348545610904693603515625</LongitudeDegrees>
            </Position>
            <AltitudeMeters>921.5999755859375</AltitudeMeters>
            <DistanceMeters>NAN</DistanceMeters>
          </Trackpoint>
          <Trackpoint>
            <Time>2020-03-07T17:32:13.000Z</Time>
            <Position>
              <LatitudeDegrees>40.7024344615638256072998046875</LatitudeDegrees>
              <LongitudeDegrees>-3.79247699864208698272705078125</LongitudeDegrees>
            </Position>
            <AltitudeMeters>921.5999755859375</AltitudeMeters>
            <DistanceMeters>NAN</DistanceMeters>
          </Trackpoint>
          <Trackpoint>
            <Time>2020-03-07T17:32:14.000Z</Time>
            <Position>
              <LatitudeDegrees>40.70240177214145660400390625</LatitudeDegrees>
              <LongitudeDegrees>-3.7924489192664623260498046875</LongitudeDegrees>
            </Position>
            <AltitudeMeters>921.5999755859375</AltitudeMeters>
            <DistanceMeters>NAN</DistanceMeters>
          </Trackpoint>
          <Trackpoint>
            <Time>2020-03-07T17:32:15.000Z</Time>
            <Position>
              <LatitudeDegrees>40.70236983709037303924560546875</LatitudeDegrees>
              <LongitudeDegrees>-3.79242117516696453094482421875</LongitudeDegrees>
            </Position>
            <AltitudeMeters>921.79998779296875</AltitudeMeters>
            <DistanceMeters>NAN</DistanceMeters>
          </Trackpoint>
          <Trackpoint>
            <Time>2020-03-07T17:32:16.000Z</Time>
            <Position>
              <LatitudeDegrees>40.70233748294413089752197265625</LatitudeDegrees>
              <LongitudeDegrees>-3.79239267669618129730224609375</LongitudeDegrees>
            </Position>
            <AltitudeMeters>921.79998779296875</AltitudeMeters>
            <DistanceMeters>NAN</DistanceMeters>
          </Trackpoint>
          <Trackpoint>
            <Time>2020-03-07T17:32:17.000Z</Time>
            <Position>
              <LatitudeDegrees>40.7023053802549839019775390625</LatitudeDegrees>
              <LongitudeDegrees>-3.79236652515828609466552734375</LongitudeDegrees>
            </Position>
            <AltitudeMeters>922</AltitudeMeters>
            <DistanceMeters>NAN</DistanceMeters>
          </Trackpoint>
          <Trackpoint>
            <Time>2020-03-07T17:32:18.000Z</Time>
            <Position>
              <LatitudeDegrees>40.7022718526422977447509765625</LatitudeDegrees>
              <LongitudeDegrees>-3.79234305582940578460693359375</LongitudeDegrees>
            </Position>
            <AltitudeMeters>922</AltitudeMeters>
            <DistanceMeters>NAN</DistanceMeters>
          </Trackpoint>
          <Trackpoint>
            <Time>2020-03-07T17:32:19.000Z</Time>
            <Position>
              <LatitudeDegrees>40.70223840884864330291748046875</LatitudeDegrees>
              <LongitudeDegrees>-3.7923241965472698211669921875</LongitudeDegrees>
            </Position>
            <AltitudeMeters>922.20001220703125</AltitudeMeters>
            <DistanceMeters>NAN</DistanceMeters>
          </Trackpoint>
          <Trackpoint>
            <Time>2020-03-07T17:32:20.000Z</Time>
            <Position>
              <LatitudeDegrees>40.7022039592266082763671875</LatitudeDegrees>
              <LongitudeDegrees>-3.79230567254126071929931640625</LongitudeDegrees>
            </Position>
            <AltitudeMeters>922.20001220703125</AltitudeMeters>
            <DistanceMeters>NAN</DistanceMeters>
          </Trackpoint>
          <Trackpoint>
            <Time>2020-03-07T17:32:21.000Z</Time>
            <Position>
              <LatitudeDegrees>40.7021699286997318267822265625</LatitudeDegrees>
              <LongitudeDegrees>-3.79228421486914157867431640625</LongitudeDegrees>
            </Position>
            <AltitudeMeters>922.4000244140625</AltitudeMeters>
            <DistanceMeters>NAN</DistanceMeters>
          </Trackpoint>
          <Trackpoint>
            <Time>2020-03-07T17:32:22.000Z</Time>
            <Position>
              <LatitudeDegrees>40.70213564671576023101806640625</LatitudeDegrees>
              <LongitudeDegrees>-3.7922591529786586761474609375</LongitudeDegrees>
            </Position>
            <AltitudeMeters>922.4000244140625</AltitudeMeters>
            <DistanceMeters>NAN</DistanceMeters>
          </Trackpoint>
          <Trackpoint>
            <Time>2020-03-07T17:32:23.000Z</Time>
            <Position>
              <LatitudeDegrees>40.7021038793027400970458984375</LatitudeDegrees>
              <LongitudeDegrees>-3.79223425872623920440673828125</LongitudeDegrees>
            </Position>
            <AltitudeMeters>922.5999755859375</AltitudeMeters>
            <DistanceMeters>NAN</DistanceMeters>
          </Trackpoint>
          <Trackpoint>
            <Time>2020-03-07T17:32:24.000Z</Time>
            <Position>
              <LatitudeDegrees>40.70207261480391025543212890625</LatitudeDegrees>
              <LongitudeDegrees>-3.79220961593091487884521484375</LongitudeDegrees>
            </Position>
            <AltitudeMeters>922.5999755859375</AltitudeMeters>
            <DistanceMeters>NAN</DistanceMeters>
          </Trackpoint>
          <Trackpoint>
            <Time>2020-03-07T17:32:25.000Z</Time>
            <Position>
              <LatitudeDegrees>40.7020405121147632598876953125</LatitudeDegrees>
              <LongitudeDegrees>-3.7921853922307491302490234375</LongitudeDegrees>
            </Position>
            <AltitudeMeters>922.5999755859375</AltitudeMeters>
            <DistanceMeters>NAN</DistanceMeters>
          </Trackpoint>
          <Trackpoint>
            <Time>2020-03-07T17:32:26.000Z</Time>
            <Position>
              <LatitudeDegrees>40.7020089961588382720947265625</LatitudeDegrees>
              <LongitudeDegrees>-3.79216116853058338165283203125</LongitudeDegrees>
            </Position>
            <AltitudeMeters>922.5999755859375</AltitudeMeters>
            <DistanceMeters>NAN</DistanceMeters>
          </Trackpoint>
          <Trackpoint>
            <Time>2020-03-07T17:32:27.000Z</Time>
            <Position>
              <LatitudeDegrees>40.7019758038222789764404296875</LatitudeDegrees>
              <LongitudeDegrees>-3.7921377830207347869873046875</LongitudeDegrees>
            </Position>
            <AltitudeMeters>923</AltitudeMeters>
            <DistanceMeters>NAN</DistanceMeters>
          </Trackpoint>
          <Trackpoint>
            <Time>2020-03-07T17:32:28.000Z</Time>
            <Position>
              <LatitudeDegrees>40.70194244384765625</LatitudeDegrees>
              <LongitudeDegrees>-3.7921112962067127227783203125</LongitudeDegrees>
            </Position>
            <AltitudeMeters>923</AltitudeMeters>
            <DistanceMeters>NAN</DistanceMeters>
          </Trackpoint>
          <Trackpoint>
            <Time>2020-03-07T17:32:29.000Z</Time>
            <Position>
              <LatitudeDegrees>40.70190958678722381591796875</LatitudeDegrees>
              <LongitudeDegrees>-3.79208472557365894317626953125</LongitudeDegrees>
            </Position>
            <AltitudeMeters>923.20001220703125</AltitudeMeters>
            <DistanceMeters>NAN</DistanceMeters>
          </Trackpoint>
          <Trackpoint>
            <Time>2020-03-07T17:32:30.000Z</Time>
            <Position>
              <LatitudeDegrees>40.70187614299356937408447265625</LatitudeDegrees>
              <LongitudeDegrees>-3.79205773584544658660888671875</LongitudeDegrees>
            </Position>
            <AltitudeMeters>923.20001220703125</AltitudeMeters>
            <DistanceMeters>NAN</DistanceMeters>
          </Trackpoint>
          <Trackpoint>
            <Time>2020-03-07T17:32:31.000Z</Time>
            <Position>
              <LatitudeDegrees>40.7018430344760417938232421875</LatitudeDegrees>
              <LongitudeDegrees>-3.79202873446047306060791015625</LongitudeDegrees>
            </Position>
            <AltitudeMeters>923.4000244140625</AltitudeMeters>
            <DistanceMeters>NAN</DistanceMeters>
          </Trackpoint>
          <Trackpoint>
            <Time>2020-03-07T17:32:32.000Z</Time>
            <Position>
              <LatitudeDegrees>40.701810009777545928955078125</LatitudeDegrees>
              <LongitudeDegrees>-3.79200090654194355010986328125</LongitudeDegrees>
            </Position>
            <AltitudeMeters>923.4000244140625</AltitudeMeters>
            <DistanceMeters>NAN</DistanceMeters>
          </Trackpoint>
          <Trackpoint>
            <Time>2020-03-07T17:32:33.000Z</Time>
            <Position>
              <LatitudeDegrees>40.70177690126001834869384765625</LatitudeDegrees>
              <LongitudeDegrees>-3.79197207279503345489501953125</LongitudeDegrees>
            </Position>
            <AltitudeMeters>923.5999755859375</AltitudeMeters>
            <DistanceMeters>NAN</DistanceMeters>
          </Trackpoint>
          <Trackpoint>
            <Time>2020-03-07T17:32:34.000Z</Time>
            <Position>
              <LatitudeDegrees>40.7017444632947444915771484375</LatitudeDegrees>
              <LongitudeDegrees>-3.791943155229091644287109375</LongitudeDegrees>
            </Position>
            <AltitudeMeters>923.5999755859375</AltitudeMeters>
            <DistanceMeters>NAN</DistanceMeters>
          </Trackpoint>
          <Trackpoint>
            <Time>2020-03-07T17:32:35.000Z</Time>
            <Position>
              <LatitudeDegrees>40.70171169005334377288818359375</LatitudeDegrees>
              <LongitudeDegrees>-3.79191490821540355682373046875</LongitudeDegrees>
            </Position>
            <AltitudeMeters>923.79998779296875</AltitudeMeters>
            <DistanceMeters>NAN</DistanceMeters>
          </Trackpoint>
          <Trackpoint>
            <Time>2020-03-07T17:32:36.000Z</Time>
            <Position>
              <LatitudeDegrees>40.7016767375171184539794921875</LatitudeDegrees>
              <LongitudeDegrees>-3.79188858903944492340087890625</LongitudeDegrees>
            </Position>
            <AltitudeMeters>923.79998779296875</AltitudeMeters>
            <DistanceMeters>NAN</DistanceMeters>
          </Trackpoint>
          <Trackpoint>
            <Time>2020-03-07T17:32:37.000Z</Time>
            <Position>
              <LatitudeDegrees>40.70164144970476627349853515625</LatitudeDegrees>
              <LongitudeDegrees>-3.7918643653392791748046875</LongitudeDegrees>
            </Position>
            <AltitudeMeters>924</AltitudeMeters>
            <DistanceMeters>NAN</DistanceMeters>
          </Trackpoint>
          <Trackpoint>
            <Time>2020-03-07T17:32:38.000Z</Time>
            <Position>
              <LatitudeDegrees>40.7016066648066043853759765625</LatitudeDegrees>
              <LongitudeDegrees>-3.7918375432491302490234375</LongitudeDegrees>
            </Position>
            <AltitudeMeters>924</AltitudeMeters>
            <DistanceMeters>NAN</DistanceMeters>
          </Trackpoint>
          <Trackpoint>
            <Time>2020-03-07T17:32:39.000Z</Time>
            <Position>
              <LatitudeDegrees>40.701573304831981658935546875</LatitudeDegrees>
              <LongitudeDegrees>-3.7918098829686641693115234375</LongitudeDegrees>
            </Position>
            <AltitudeMeters>924.20001220703125</AltitudeMeters>
            <DistanceMeters>NAN</DistanceMeters>
          </Trackpoint>
          <Trackpoint>
            <Time>2020-03-07T17:32:40.000Z</Time>
            <Position>
              <LatitudeDegrees>40.70154002867639064788818359375</LatitudeDegrees>
              <LongitudeDegrees>-3.791782557964324951171875</LongitudeDegrees>
            </Position>
            <AltitudeMeters>924.4000244140625</AltitudeMeters>
            <DistanceMeters>NAN</DistanceMeters>
          </Trackpoint>
          <Trackpoint>
            <Time>2020-03-07T17:32:41.000Z</Time>
            <Position>
              <LatitudeDegrees>40.70150733925402164459228515625</LatitudeDegrees>
              <LongitudeDegrees>-3.7917545624077320098876953125</LongitudeDegrees>
            </Position>
            <AltitudeMeters>924.5999755859375</AltitudeMeters>
            <DistanceMeters>NAN</DistanceMeters>
          </Trackpoint>
          <Trackpoint>
            <Time>2020-03-07T17:32:42.000Z</Time>
            <Position>
              <LatitudeDegrees>40.70147431455552577972412109375</LatitudeDegrees>
              <LongitudeDegrees>-3.7917263992130756378173828125</LongitudeDegrees>
            </Position>
            <AltitudeMeters>924.5999755859375</AltitudeMeters>
            <DistanceMeters>NAN</DistanceMeters>
          </Trackpoint>
          <Trackpoint>
            <Time>2020-03-07T17:32:43.000Z</Time>
            <Position>
              <LatitudeDegrees>40.70144112221896648406982421875</LatitudeDegrees>
              <LongitudeDegrees>-3.79169865511357784271240234375</LongitudeDegrees>
            </Position>
            <AltitudeMeters>924.79998779296875</AltitudeMeters>
            <DistanceMeters>NAN</DistanceMeters>
          </Trackpoint>
          <Trackpoint>
            <Time>2020-03-07T17:32:44.000Z</Time>
            <Position>
              <LatitudeDegrees>40.7014078460633754730224609375</LatitudeDegrees>
              <LongitudeDegrees>-3.7916707433760166168212890625</LongitudeDegrees>
            </Position>
            <AltitudeMeters>924.79998779296875</AltitudeMeters>
            <DistanceMeters>NAN</DistanceMeters>
          </Trackpoint>
          <Trackpoint>
            <Time>2020-03-07T17:32:45.000Z</Time>
            <Position>
              <LatitudeDegrees>40.70137423463165760040283203125</LatitudeDegrees>
              <LongitudeDegrees>-3.79164350219070911407470703125</LongitudeDegrees>
            </Position>
            <AltitudeMeters>924.79998779296875</AltitudeMeters>
            <DistanceMeters>NAN</DistanceMeters>
          </Trackpoint>
          <Trackpoint>
            <Time>2020-03-07T17:32:46.000Z</Time>
            <Position>
              <LatitudeDegrees>40.701340623199939727783203125</LatitudeDegrees>
              <LongitudeDegrees>-3.7916177697479724884033203125</LongitudeDegrees>
            </Position>
            <AltitudeMeters>925</AltitudeMeters>
            <DistanceMeters>NAN</DistanceMeters>
          </Trackpoint>
          <Trackpoint>
            <Time>2020-03-07T17:32:47.000Z</Time>
            <Position>
              <LatitudeDegrees>40.70130852051079273223876953125</LatitudeDegrees>
              <LongitudeDegrees>-3.79158935509622097015380859375</LongitudeDegrees>
            </Position>
            <AltitudeMeters>925.20001220703125</AltitudeMeters>
            <DistanceMeters>NAN</DistanceMeters>
          </Trackpoint>
          <Trackpoint>
            <Time>2020-03-07T17:32:48.000Z</Time>
            <Position>
              <LatitudeDegrees>40.7012760825455188751220703125</LatitudeDegrees>
              <LongitudeDegrees>-3.79155934788286685943603515625</LongitudeDegrees>
            </Position>
            <AltitudeMeters>925.4000244140625</AltitudeMeters>
            <DistanceMeters>NAN</DistanceMeters>
          </Trackpoint>
          <Trackpoint>
            <Time>2020-03-07T17:32:49.000Z</Time>
            <Position>
              <LatitudeDegrees>40.70124364458024501800537109375</LatitudeDegrees>
              <LongitudeDegrees>-3.79153034649789333343505859375</LongitudeDegrees>
            </Position>
            <AltitudeMeters>925.5999755859375</AltitudeMeters>
            <DistanceMeters>NAN</DistanceMeters>
          </Trackpoint>
          <Trackpoint>
            <Time>2020-03-07T17:32:50.000Z</Time>
            <Position>
              <LatitudeDegrees>40.70120944641530513763427734375</LatitudeDegrees>
              <LongitudeDegrees>-3.79150201566517353057861328125</LongitudeDegrees>
            </Position>
            <AltitudeMeters>925.5999755859375</AltitudeMeters>
            <DistanceMeters>NAN</DistanceMeters>
          </Trackpoint>
          <Trackpoint>
            <Time>2020-03-07T17:32:51.000Z</Time>
            <Position>
              <LatitudeDegrees>40.70117541588842868804931640625</LatitudeDegrees>
              <LongitudeDegrees>-3.7914727628231048583984375</LongitudeDegrees>
            </Position>
            <AltitudeMeters>925.79998779296875</AltitudeMeters>
            <DistanceMeters>NAN</DistanceMeters>
          </Trackpoint>
          <Trackpoint>
            <Time>2020-03-07T17:32:52.000Z</Time>
            <Position>
              <LatitudeDegrees>40.7011429779231548309326171875</LatitudeDegrees>
              <LongitudeDegrees>-3.79144317470490932464599609375</LongitudeDegrees>
            </Position>
            <AltitudeMeters>925.79998779296875</AltitudeMeters>
            <DistanceMeters>NAN</DistanceMeters>
          </Trackpoint>
          <Trackpoint>
            <Time>2020-03-07T17:32:53.000Z</Time>
            <Position>
              <LatitudeDegrees>40.70110986940562725067138671875</LatitudeDegrees>
              <LongitudeDegrees>-3.7914135865867137908935546875</LongitudeDegrees>
            </Position>
            <AltitudeMeters>925.79998779296875</AltitudeMeters>
            <DistanceMeters>NAN</DistanceMeters>
          </Trackpoint>
          <Trackpoint>
            <Time>2020-03-07T17:32:54.000Z</Time>
            <Position>
              <LatitudeDegrees>40.7010772638022899627685546875</LatitudeDegrees>
              <LongitudeDegrees>-3.79138383083045482635498046875</LongitudeDegrees>
            </Position>
            <AltitudeMeters>926</AltitudeMeters>
            <DistanceMeters>NAN</DistanceMeters>
          </Trackpoint>
          <Trackpoint>
            <Time>2020-03-07T17:32:55.000Z</Time>
            <Position>
              <LatitudeDegrees>40.70104398764669895172119140625</LatitudeDegrees>
              <LongitudeDegrees>-3.79135399125516414642333984375</LongitudeDegrees>
            </Position>
            <AltitudeMeters>926</AltitudeMeters>
            <DistanceMeters>NAN</DistanceMeters>
          </Trackpoint>
          <Trackpoint>
            <Time>2020-03-07T17:32:56.000Z</Time>
            <Position>
              <LatitudeDegrees>40.70101096294820308685302734375</LatitudeDegrees>
              <LongitudeDegrees>-3.7913237325847148895263671875</LongitudeDegrees>
            </Position>
            <AltitudeMeters>926.20001220703125</AltitudeMeters>
            <DistanceMeters>NAN</DistanceMeters>
          </Trackpoint>
          <Trackpoint>
            <Time>2020-03-07T17:32:57.000Z</Time>
            <Position>
              <LatitudeDegrees>40.70097743533551692962646484375</LatitudeDegrees>
              <LongitudeDegrees>-3.79129481501877307891845703125</LongitudeDegrees>
            </Position>
            <AltitudeMeters>926.4000244140625</AltitudeMeters>
            <DistanceMeters>NAN</DistanceMeters>
          </Trackpoint>
          <Trackpoint>
            <Time>2020-03-07T17:32:58.000Z</Time>
            <Position>
              <LatitudeDegrees>40.700942985713481903076171875</LatitudeDegrees>
              <LongitudeDegrees>-3.79126698710024356842041015625</LongitudeDegrees>
            </Position>
            <AltitudeMeters>926.4000244140625</AltitudeMeters>
            <DistanceMeters>NAN</DistanceMeters>
          </Trackpoint>
          <Trackpoint>
            <Time>2020-03-07T17:32:59.000Z</Time>
            <Position>
              <LatitudeDegrees>40.70090702734887599945068359375</LatitudeDegrees>
              <LongitudeDegrees>-3.79124008119106292724609375</LongitudeDegrees>
            </Position>
            <AltitudeMeters>926.5999755859375</AltitudeMeters>
            <DistanceMeters>NAN</DistanceMeters>
          </Trackpoint>
          <Trackpoint>
            <Time>2020-03-07T17:33:00.000Z</Time>
            <Position>
              <LatitudeDegrees>40.7008714042603969573974609375</LatitudeDegrees>
              <LongitudeDegrees>-3.79121233709156513214111328125</LongitudeDegrees>
            </Position>
            <AltitudeMeters>926.5999755859375</AltitudeMeters>
            <DistanceMeters>NAN</DistanceMeters>
          </Trackpoint>
          <Trackpoint>
            <Time>2020-03-07T17:33:01.000Z</Time>
            <Position>
              <LatitudeDegrees>40.7008358649909496307373046875</LatitudeDegrees>
              <LongitudeDegrees>-3.7911859340965747833251953125</LongitudeDegrees>
            </Position>
            <AltitudeMeters>926.5999755859375</AltitudeMeters>
            <DistanceMeters>NAN</DistanceMeters>
          </Trackpoint>
          <Trackpoint>
            <Time>2020-03-07T17:33:02.000Z</Time>
            <Position>
              <LatitudeDegrees>40.70080124773085117340087890625</LatitudeDegrees>
              <LongitudeDegrees>-3.7911591120064258575439453125</LongitudeDegrees>
            </Position>
            <AltitudeMeters>926.79998779296875</AltitudeMeters>
            <DistanceMeters>NAN</DistanceMeters>
          </Trackpoint>
          <Trackpoint>
            <Time>2020-03-07T17:33:03.000Z</Time>
            <Position>
              <LatitudeDegrees>40.700768642127513885498046875</LatitudeDegrees>
              <LongitudeDegrees>-3.79113153554499149322509765625</LongitudeDegrees>
            </Position>
            <AltitudeMeters>926.79998779296875</AltitudeMeters>
            <DistanceMeters>NAN</DistanceMeters>
          </Trackpoint>
          <Trackpoint>
            <Time>2020-03-07T17:33:04.000Z</Time>
            <Position>
              <LatitudeDegrees>40.70073553360998630523681640625</LatitudeDegrees>
              <LongitudeDegrees>-3.79110328853130340576171875</LongitudeDegrees>
            </Position>
            <AltitudeMeters>927</AltitudeMeters>
            <DistanceMeters>NAN</DistanceMeters>
          </Trackpoint>
          <Trackpoint>
            <Time>2020-03-07T17:33:05.000Z</Time>
            <Position>
              <LatitudeDegrees>40.700702928006649017333984375</LatitudeDegrees>
              <LongitudeDegrees>-3.791075460612773895263671875</LongitudeDegrees>
            </Position>
            <AltitudeMeters>927.20001220703125</AltitudeMeters>
            <DistanceMeters>NAN</DistanceMeters>
          </Trackpoint>
          <Trackpoint>
            <Time>2020-03-07T17:33:06.000Z</Time>
            <Position>
              <LatitudeDegrees>40.7006695680320262908935546875</LatitudeDegrees>
              <LongitudeDegrees>-3.7910461239516735076904296875</LongitudeDegrees>
            </Position>
            <AltitudeMeters>927.4000244140625</AltitudeMeters>
            <DistanceMeters>NAN</DistanceMeters>
          </Trackpoint>
          <Trackpoint>
            <Time>2020-03-07T17:33:07.000Z</Time>
            <Position>
              <LatitudeDegrees>40.70063612423837184906005859375</LatitudeDegrees>
              <LongitudeDegrees>-3.79101586528122425079345703125</LongitudeDegrees>
            </Position>
            <AltitudeMeters>927.5999755859375</AltitudeMeters>
            <DistanceMeters>NAN</DistanceMeters>
          </Trackpoint>
          <Trackpoint>
            <Time>2020-03-07T17:33:08.000Z</Time>
            <Position>
              <LatitudeDegrees>40.70060276426374912261962890625</LatitudeDegrees>
              <LongitudeDegrees>-3.7909854389727115631103515625</LongitudeDegrees>
            </Position>
            <AltitudeMeters>927.5999755859375</AltitudeMeters>
            <DistanceMeters>NAN</DistanceMeters>
          </Trackpoint>
          <Trackpoint>
            <Time>2020-03-07T17:33:09.000Z</Time>
            <Position>
              <LatitudeDegrees>40.70056839846074581146240234375</LatitudeDegrees>
              <LongitudeDegrees>-3.790955431759357452392578125</LongitudeDegrees>
            </Position>
            <AltitudeMeters>927.5999755859375</AltitudeMeters>
            <DistanceMeters>NAN</DistanceMeters>
          </Trackpoint>
          <Trackpoint>
            <Time>2020-03-07T17:33:10.000Z</Time>
            <Position>
              <LatitudeDegrees>40.70053495466709136962890625</LatitudeDegrees>
              <LongitudeDegrees>-3.79092534072697162628173828125</LongitudeDegrees>
            </Position>
            <AltitudeMeters>927.79998779296875</AltitudeMeters>
            <DistanceMeters>NAN</DistanceMeters>
          </Trackpoint>
          <Trackpoint>
            <Time>2020-03-07T17:33:11.000Z</Time>
            <Position>
              <LatitudeDegrees>40.7005015946924686431884765625</LatitudeDegrees>
              <LongitudeDegrees>-3.790895752608776092529296875</LongitudeDegrees>
            </Position>
            <AltitudeMeters>927.79998779296875</AltitudeMeters>
            <DistanceMeters>NAN</DistanceMeters>
          </Trackpoint>
          <Trackpoint>
            <Time>2020-03-07T17:33:12.000Z</Time>
            <Position>
              <LatitudeDegrees>40.7004690729081630706787109375</LatitudeDegrees>
              <LongitudeDegrees>-3.79086666740477085113525390625</LongitudeDegrees>
            </Position>
            <AltitudeMeters>928</AltitudeMeters>
            <DistanceMeters>NAN</DistanceMeters>
          </Trackpoint>
          <Trackpoint>
            <Time>2020-03-07T17:33:13.000Z</Time>
            <Position>
              <LatitudeDegrees>40.7004358805716037750244140625</LatitudeDegrees>
              <LongitudeDegrees>-3.7908365763723850250244140625</LongitudeDegrees>
            </Position>
            <AltitudeMeters>928.20001220703125</AltitudeMeters>
            <DistanceMeters>NAN</DistanceMeters>
          </Trackpoint>
          <Trackpoint>
            <Time>2020-03-07T17:33:14.000Z</Time>
            <Position>
              <LatitudeDegrees>40.70040126331150531768798828125</LatitudeDegrees>
              <LongitudeDegrees>-3.79080682061612606048583984375</LongitudeDegrees>
            </Position>
            <AltitudeMeters>928.4000244140625</AltitudeMeters>
            <DistanceMeters>NAN</DistanceMeters>
          </Trackpoint>
          <Trackpoint>
            <Time>2020-03-07T17:33:15.000Z</Time>
            <Position>
              <LatitudeDegrees>40.70036555640399456024169921875</LatitudeDegrees>
              <LongitudeDegrees>-3.79077882505953311920166015625</LongitudeDegrees>
            </Position>
            <AltitudeMeters>928.5999755859375</AltitudeMeters>
            <DistanceMeters>NAN</DistanceMeters>
          </Trackpoint>
          <Trackpoint>
            <Time>2020-03-07T17:33:16.000Z</Time>
            <Position>
              <LatitudeDegrees>40.70033001713454723358154296875</LatitudeDegrees>
              <LongitudeDegrees>-3.79075183533132076263427734375</LongitudeDegrees>
            </Position>
            <AltitudeMeters>928.79998779296875</AltitudeMeters>
            <DistanceMeters>NAN</DistanceMeters>
          </Trackpoint>
          <Trackpoint>
            <Time>2020-03-07T17:33:17.000Z</Time>
            <Position>
              <LatitudeDegrees>40.700295232236385345458984375</LatitudeDegrees>
              <LongitudeDegrees>-3.7907239235937595367431640625</LongitudeDegrees>
            </Position>
            <AltitudeMeters>929</AltitudeMeters>
            <DistanceMeters>NAN</DistanceMeters>
          </Trackpoint>
          <Trackpoint>
            <Time>2020-03-07T17:33:18.000Z</Time>
            <Position>
              <LatitudeDegrees>40.7002593576908111572265625</LatitudeDegrees>
              <LongitudeDegrees>-3.7906960956752300262451171875</LongitudeDegrees>
            </Position>
            <AltitudeMeters>929</AltitudeMeters>
            <DistanceMeters>NAN</DistanceMeters>
          </Trackpoint>
          <Trackpoint>
            <Time>2020-03-07T17:33:19.000Z</Time>
            <Position>
              <LatitudeDegrees>40.70022423751652240753173828125</LatitudeDegrees>
              <LongitudeDegrees>-3.79066885448992252349853515625</LongitudeDegrees>
            </Position>
            <AltitudeMeters>928.79998779296875</AltitudeMeters>
            <DistanceMeters>NAN</DistanceMeters>
          </Trackpoint>
          <Trackpoint>
            <Time>2020-03-07T17:33:20.000Z</Time>
            <Position>
              <LatitudeDegrees>40.70018970407545566558837890625</LatitudeDegrees>
              <LongitudeDegrees>-3.7906404398381710052490234375</LongitudeDegrees>
            </Position>
            <AltitudeMeters>929.20001220703125</AltitudeMeters>
            <DistanceMeters>NAN</DistanceMeters>
          </Trackpoint>
          <Trackpoint>
            <Time>2020-03-07T17:33:21.000Z</Time>
            <Position>
              <LatitudeDegrees>40.70015408098697662353515625</LatitudeDegrees>
              <LongitudeDegrees>-3.79061252810060977935791015625</LongitudeDegrees>
            </Position>
            <AltitudeMeters>929.20001220703125</AltitudeMeters>
            <DistanceMeters>NAN</DistanceMeters>
          </Trackpoint>
          <Trackpoint>
            <Time>2020-03-07T17:33:22.000Z</Time>
            <Position>
              <LatitudeDegrees>40.70011879317462444305419921875</LatitudeDegrees>
              <LongitudeDegrees>-3.790585957467555999755859375</LongitudeDegrees>
            </Position>
            <AltitudeMeters>929.20001220703125</AltitudeMeters>
            <DistanceMeters>NAN</DistanceMeters>
          </Trackpoint>
          <Trackpoint>
            <Time>2020-03-07T17:33:23.000Z</Time>
            <Position>
              <LatitudeDegrees>40.70008275099098682403564453125</LatitudeDegrees>
              <LongitudeDegrees>-3.7905609793961048126220703125</LongitudeDegrees>
            </Position>
            <AltitudeMeters>929.4000244140625</AltitudeMeters>
            <DistanceMeters>NAN</DistanceMeters>
          </Trackpoint>
          <Trackpoint>
            <Time>2020-03-07T17:33:24.000Z</Time>
            <Position>
              <LatitudeDegrees>40.70004637353122234344482421875</LatitudeDegrees>
              <LongitudeDegrees>-3.7905366718769073486328125</LongitudeDegrees>
            </Position>
            <AltitudeMeters>929.4000244140625</AltitudeMeters>
            <DistanceMeters>NAN</DistanceMeters>
          </Trackpoint>
          <Trackpoint>
            <Time>2020-03-07T17:33:25.000Z</Time>
            <Position>
              <LatitudeDegrees>40.70001100189983844757080078125</LatitudeDegrees>
              <LongitudeDegrees>-3.7905110232532024383544921875</LongitudeDegrees>
            </Position>
            <AltitudeMeters>929.4000244140625</AltitudeMeters>
            <DistanceMeters>NAN</DistanceMeters>
          </Trackpoint>
          <Trackpoint>
            <Time>2020-03-07T17:33:26.000Z</Time>
            <Position>
              <LatitudeDegrees>40.69997462444007396697998046875</LatitudeDegrees>
              <LongitudeDegrees>-3.790484033524990081787109375</LongitudeDegrees>
            </Position>
            <AltitudeMeters>929.5999755859375</AltitudeMeters>
            <DistanceMeters>NAN</DistanceMeters>
          </Trackpoint>
          <Trackpoint>
            <Time>2020-03-07T17:33:27.000Z</Time>
            <Position>
              <LatitudeDegrees>40.69993791170418262481689453125</LatitudeDegrees>
              <LongitudeDegrees>-3.79045695997774600982666015625</LongitudeDegrees>
            </Position>
            <AltitudeMeters>929.79998779296875</AltitudeMeters>
            <DistanceMeters>NAN</DistanceMeters>
          </Trackpoint>
          <Trackpoint>
            <Time>2020-03-07T17:33:28.000Z</Time>
            <Position>
              <LatitudeDegrees>40.69990136660635471343994140625</LatitudeDegrees>
              <LongitudeDegrees>-3.790430389344692230224609375</LongitudeDegrees>
            </Position>
            <AltitudeMeters>930</AltitudeMeters>
            <DistanceMeters>NAN</DistanceMeters>
          </Trackpoint>
          <Trackpoint>
            <Time>2020-03-07T17:33:29.000Z</Time>
            <Position>
              <LatitudeDegrees>40.69986582733690738677978515625</LatitudeDegrees>
              <LongitudeDegrees>-3.79040532745420932769775390625</LongitudeDegrees>
            </Position>
            <AltitudeMeters>930.20001220703125</AltitudeMeters>
            <DistanceMeters>NAN</DistanceMeters>
          </Trackpoint>
          <Trackpoint>
            <Time>2020-03-07T17:33:30.000Z</Time>
            <Position>
              <LatitudeDegrees>40.699831210076808929443359375</LatitudeDegrees>
              <LongitudeDegrees>-3.79038085229694843292236328125</LongitudeDegrees>
            </Position>
            <AltitudeMeters>930.4000244140625</AltitudeMeters>
            <DistanceMeters>NAN</DistanceMeters>
          </Trackpoint>
          <Trackpoint>
            <Time>2020-03-07T17:33:31.000Z</Time>
            <Position>
              <LatitudeDegrees>40.69979625754058361053466796875</LatitudeDegrees>
              <LongitudeDegrees>-3.79035604186356067657470703125</LongitudeDegrees>
            </Position>
            <AltitudeMeters>930.5999755859375</AltitudeMeters>
            <DistanceMeters>NAN</DistanceMeters>
          </Trackpoint>
          <Trackpoint>
            <Time>2020-03-07T17:33:32.000Z</Time>
            <Position>
              <LatitudeDegrees>40.6997604668140411376953125</LatitudeDegrees>
              <LongitudeDegrees>-3.79033173434436321258544921875</LongitudeDegrees>
            </Position>
            <AltitudeMeters>930.5999755859375</AltitudeMeters>
            <DistanceMeters>NAN</DistanceMeters>
          </Trackpoint>
          <Trackpoint>
            <Time>2020-03-07T17:33:33.000Z</Time>
            <Position>
              <LatitudeDegrees>40.69972316734492778778076171875</LatitudeDegrees>
              <LongitudeDegrees>-3.7903085164725780487060546875</LongitudeDegrees>
            </Position>
            <AltitudeMeters>930.5999755859375</AltitudeMeters>
            <DistanceMeters>NAN</DistanceMeters>
          </Trackpoint>
          <Trackpoint>
            <Time>2020-03-07T17:33:34.000Z</Time>
            <Position>
              <LatitudeDegrees>40.6996851973235607147216796875</LatitudeDegrees>
              <LongitudeDegrees>-3.7902850471436977386474609375</LongitudeDegrees>
            </Position>
            <AltitudeMeters>930.5999755859375</AltitudeMeters>
            <DistanceMeters>NAN</DistanceMeters>
          </Trackpoint>
          <Trackpoint>
            <Time>2020-03-07T17:33:35.000Z</Time>
            <Position>
              <LatitudeDegrees>40.69964588619768619537353515625</LatitudeDegrees>
              <LongitudeDegrees>-3.79026132635772228240966796875</LongitudeDegrees>
            </Position>
            <AltitudeMeters>930.5999755859375</AltitudeMeters>
            <DistanceMeters>NAN</DistanceMeters>
          </Trackpoint>
          <Trackpoint>
            <Time>2020-03-07T17:33:36.000Z</Time>
            <Position>
              <LatitudeDegrees>40.69960716180503368377685546875</LatitudeDegrees>
              <LongitudeDegrees>-3.790237270295619964599609375</LongitudeDegrees>
            </Position>
            <AltitudeMeters>930.79998779296875</AltitudeMeters>
            <DistanceMeters>NAN</DistanceMeters>
          </Trackpoint>
          <Trackpoint>
            <Time>2020-03-07T17:33:37.000Z</Time>
            <Position>
              <LatitudeDegrees>40.6995685212314128875732421875</LatitudeDegrees>
              <LongitudeDegrees>-3.79021388478577136993408203125</LongitudeDegrees>
            </Position>
            <AltitudeMeters>930.79998779296875</AltitudeMeters>
            <DistanceMeters>NAN</DistanceMeters>
          </Trackpoint>
          <Trackpoint>
            <Time>2020-03-07T17:33:38.000Z</Time>
            <Position>
              <LatitudeDegrees>40.69952971301972866058349609375</LatitudeDegrees>
              <LongitudeDegrees>-3.79018999636173248291015625</LongitudeDegrees>
            </Position>
            <AltitudeMeters>931</AltitudeMeters>
            <DistanceMeters>NAN</DistanceMeters>
          </Trackpoint>
          <Trackpoint>
            <Time>2020-03-07T17:33:39.000Z</Time>
            <Position>
              <LatitudeDegrees>40.69949115626513957977294921875</LatitudeDegrees>
              <LongitudeDegrees>-3.790164850652217864990234375</LongitudeDegrees>
            </Position>
            <AltitudeMeters>931.20001220703125</AltitudeMeters>
            <DistanceMeters>NAN</DistanceMeters>
          </Trackpoint>
          <Trackpoint>
            <Time>2020-03-07T17:33:40.000Z</Time>
            <Position>
              <LatitudeDegrees>40.69945125840604305267333984375</LatitudeDegrees>
              <LongitudeDegrees>-3.790140710771083831787109375</LongitudeDegrees>
            </Position>
            <AltitudeMeters>931.20001220703125</AltitudeMeters>
            <DistanceMeters>NAN</DistanceMeters>
          </Trackpoint>
          <Trackpoint>
            <Time>2020-03-07T17:33:41.000Z</Time>
            <Position>
              <LatitudeDegrees>40.6994109414517879486083984375</LatitudeDegrees>
              <LongitudeDegrees>-3.79011816345155239105224609375</LongitudeDegrees>
            </Position>
            <AltitudeMeters>931.4000244140625</AltitudeMeters>
            <DistanceMeters>NAN</DistanceMeters>
          </Trackpoint>
          <Trackpoint>
            <Time>2020-03-07T17:33:42.000Z</Time>
            <Position>
              <LatitudeDegrees>40.69936861284077167510986328125</LatitudeDegrees>
              <LongitudeDegrees>-3.79009477794170379638671875</LongitudeDegrees>
            </Position>
            <AltitudeMeters>931.4000244140625</AltitudeMeters>
            <DistanceMeters>NAN</DistanceMeters>
          </Trackpoint>
          <Trackpoint>
            <Time>2020-03-07T17:33:43.000Z</Time>
            <Position>
              <LatitudeDegrees>40.69932687096297740936279296875</LatitudeDegrees>
              <LongitudeDegrees>-3.79007172770798206329345703125</LongitudeDegrees>
            </Position>
            <AltitudeMeters>931.5999755859375</AltitudeMeters>
            <DistanceMeters>NAN</DistanceMeters>
          </Trackpoint>
          <Trackpoint>
            <Time>2020-03-07T17:33:44.000Z</Time>
            <Position>
              <LatitudeDegrees>40.6992845423519611358642578125</LatitudeDegrees>
              <LongitudeDegrees>-3.79004842601716518402099609375</LongitudeDegrees>
            </Position>
            <AltitudeMeters>931.79998779296875</AltitudeMeters>
            <DistanceMeters>NAN</DistanceMeters>
          </Trackpoint>
          <Trackpoint>
            <Time>2020-03-07T17:33:45.000Z</Time>
            <Position>
              <LatitudeDegrees>40.69924104027450084686279296875</LatitudeDegrees>
              <LongitudeDegrees>-3.79002478905022144317626953125</LongitudeDegrees>
            </Position>
            <AltitudeMeters>931.79998779296875</AltitudeMeters>
            <DistanceMeters>NAN</DistanceMeters>
          </Trackpoint>
          <Trackpoint>
            <Time>2020-03-07T17:33:46.000Z</Time>
            <Position>
              <LatitudeDegrees>40.69919787347316741943359375</LatitudeDegrees>
              <LongitudeDegrees>-3.7900029122829437255859375</LongitudeDegrees>
            </Position>
            <AltitudeMeters>932</AltitudeMeters>
            <DistanceMeters>NAN</DistanceMeters>
          </Trackpoint>
          <Trackpoint>
            <Time>2020-03-07T17:33:47.000Z</Time>
            <Position>
              <LatitudeDegrees>40.69915520958602428436279296875</LatitudeDegrees>
              <LongitudeDegrees>-3.789979107677936553955078125</LongitudeDegrees>
            </Position>
            <AltitudeMeters>932</AltitudeMeters>
            <DistanceMeters>NAN</DistanceMeters>
          </Trackpoint>
          <Trackpoint>
            <Time>2020-03-07T17:33:48.000Z</Time>
            <Position>
              <LatitudeDegrees>40.6991118751466274261474609375</LatitudeDegrees>
              <LongitudeDegrees>-3.78995538689196109771728515625</LongitudeDegrees>
            </Position>
            <AltitudeMeters>932</AltitudeMeters>
            <DistanceMeters>NAN</DistanceMeters>
          </Trackpoint>
          <Trackpoint>
            <Time>2020-03-07T17:33:49.000Z</Time>
            <Position>
              <LatitudeDegrees>40.69906837306916713714599609375</LatitudeDegrees>
              <LongitudeDegrees>-3.789932839572429656982421875</LongitudeDegrees>
            </Position>
            <AltitudeMeters>932.4000244140625</AltitudeMeters>
            <DistanceMeters>NAN</DistanceMeters>
          </Trackpoint>
          <Trackpoint>
            <Time>2020-03-07T17:33:50.000Z</Time>
            <Position>
              <LatitudeDegrees>40.69902411662042140960693359375</LatitudeDegrees>
              <LongitudeDegrees>-3.7899115495383739471435546875</LongitudeDegrees>
            </Position>
            <AltitudeMeters>932.4000244140625</AltitudeMeters>
            <DistanceMeters>NAN</DistanceMeters>
          </Trackpoint>
          <Trackpoint>
            <Time>2020-03-07T17:33:51.000Z</Time>
            <Position>
              <LatitudeDegrees>40.69897986017167568206787109375</LatitudeDegrees>
              <LongitudeDegrees>-3.78989252261817455291748046875</LongitudeDegrees>
            </Position>
            <AltitudeMeters>932.4000244140625</AltitudeMeters>
            <DistanceMeters>NAN</DistanceMeters>
          </Trackpoint>
          <Trackpoint>
            <Time>2020-03-07T17:33:52.000Z</Time>
            <Position>
              <LatitudeDegrees>40.69893510080873966217041015625</LatitudeDegrees>
              <LongitudeDegrees>-3.78987140022218227386474609375</LongitudeDegrees>
            </Position>
            <AltitudeMeters>932.5999755859375</AltitudeMeters>
            <DistanceMeters>NAN</DistanceMeters>
          </Trackpoint>
          <Trackpoint>
            <Time>2020-03-07T17:33:53.000Z</Time>
            <Position>
              <LatitudeDegrees>40.698891766369342803955078125</LatitudeDegrees>
              <LongitudeDegrees>-3.78985161893069744110107421875</LongitudeDegrees>
            </Position>
            <AltitudeMeters>932.5999755859375</AltitudeMeters>
            <DistanceMeters>NAN</DistanceMeters>
          </Trackpoint>
          <Trackpoint>
            <Time>2020-03-07T17:33:54.000Z</Time>
            <Position>
              <LatitudeDegrees>40.69884809665381908416748046875</LatitudeDegrees>
              <LongitudeDegrees>-3.78983183763921260833740234375</LongitudeDegrees>
            </Position>
            <AltitudeMeters>932.5999755859375</AltitudeMeters>
            <DistanceMeters>NAN</DistanceMeters>
          </Trackpoint>
          <Trackpoint>
            <Time>2020-03-07T17:33:55.000Z</Time>
            <Position>
              <LatitudeDegrees>40.698803924024105072021484375</LatitudeDegrees>
              <LongitudeDegrees>-3.78981138579547405242919921875</LongitudeDegrees>
            </Position>
            <AltitudeMeters>932.5999755859375</AltitudeMeters>
            <DistanceMeters>NAN</DistanceMeters>
          </Trackpoint>
          <Trackpoint>
            <Time>2020-03-07T17:33:56.000Z</Time>
            <Position>
              <LatitudeDegrees>40.698758997023105621337890625</LatitudeDegrees>
              <LongitudeDegrees>-3.78979177214205265045166015625</LongitudeDegrees>
            </Position>
            <AltitudeMeters>932.5999755859375</AltitudeMeters>
            <DistanceMeters>NAN</DistanceMeters>
          </Trackpoint>
          <Trackpoint>
            <Time>2020-03-07T17:33:57.000Z</Time>
            <Position>
              <LatitudeDegrees>40.69871482439339160919189453125</LatitudeDegrees>
              <LongitudeDegrees>-3.78977349959313869476318359375</LongitudeDegrees>
            </Position>
            <AltitudeMeters>932.5999755859375</AltitudeMeters>
            <DistanceMeters>NAN</DistanceMeters>
          </Trackpoint>
          <Trackpoint>
            <Time>2020-03-07T17:33:58.000Z</Time>
            <Position>
              <LatitudeDegrees>40.698669813573360443115234375</LatitudeDegrees>
              <LongitudeDegrees>-3.789755813777446746826171875</LongitudeDegrees>
            </Position>
            <AltitudeMeters>932.79998779296875</AltitudeMeters>
            <DistanceMeters>NAN</DistanceMeters>
          </Trackpoint>
          <Trackpoint>
            <Time>2020-03-07T17:33:59.000Z</Time>
            <Position>
              <LatitudeDegrees>40.69862522184848785400390625</LatitudeDegrees>
              <LongitudeDegrees>-3.78973946906626224517822265625</LongitudeDegrees>
            </Position>
            <AltitudeMeters>932.79998779296875</AltitudeMeters>
            <DistanceMeters>NAN</DistanceMeters>
          </Trackpoint>
          <Trackpoint>
            <Time>2020-03-07T17:34:00.000Z</Time>
            <Position>
              <LatitudeDegrees>40.698579289019107818603515625</LatitudeDegrees>
              <LongitudeDegrees>-3.789725638926029205322265625</LongitudeDegrees>
            </Position>
            <AltitudeMeters>932.79998779296875</AltitudeMeters>
            <DistanceMeters>NAN</DistanceMeters>
          </Trackpoint>
          <Trackpoint>
            <Time>2020-03-07T17:34:01.000Z</Time>
            <Position>
              <LatitudeDegrees>40.6985325179994106292724609375</LatitudeDegrees>
              <LongitudeDegrees>-3.78971097059547901153564453125</LongitudeDegrees>
            </Position>
            <AltitudeMeters>932.79998779296875</AltitudeMeters>
            <DistanceMeters>NAN</DistanceMeters>
          </Trackpoint>
          <Trackpoint>
            <Time>2020-03-07T17:34:02.000Z</Time>
            <Position>
              <LatitudeDegrees>40.698485076427459716796875</LatitudeDegrees>
              <LongitudeDegrees>-3.78969521261751651763916015625</LongitudeDegrees>
            </Position>
            <AltitudeMeters>932.79998779296875</AltitudeMeters>
            <DistanceMeters>NAN</DistanceMeters>
          </Trackpoint>
          <Trackpoint>
            <Time>2020-03-07T17:34:03.000Z</Time>
            <Position>
              <LatitudeDegrees>40.69843838922679424285888671875</LatitudeDegrees>
              <LongitudeDegrees>-3.78967878408730030059814453125</LongitudeDegrees>
            </Position>
            <AltitudeMeters>932.79998779296875</AltitudeMeters>
            <DistanceMeters>NAN</DistanceMeters>
          </Trackpoint>
          <Trackpoint>
            <Time>2020-03-07T17:34:04.000Z</Time>
            <Position>
              <LatitudeDegrees>40.6983917020261287689208984375</LatitudeDegrees>
              <LongitudeDegrees>-3.78966319374740123748779296875</LongitudeDegrees>
            </Position>
            <AltitudeMeters>932.79998779296875</AltitudeMeters>
            <DistanceMeters>NAN</DistanceMeters>
          </Trackpoint>
          <Trackpoint>
            <Time>2020-03-07T17:34:05.000Z</Time>
            <Position>
              <LatitudeDegrees>40.69834417663514614105224609375</LatitudeDegrees>
              <LongitudeDegrees>-3.78964877687394618988037109375</LongitudeDegrees>
            </Position>
            <AltitudeMeters>932.79998779296875</AltitudeMeters>
            <DistanceMeters>NAN</DistanceMeters>
          </Trackpoint>
          <Trackpoint>
            <Time>2020-03-07T17:34:06.000Z</Time>
            <Position>
              <LatitudeDegrees>40.69829606451094150543212890625</LatitudeDegrees>
              <LongitudeDegrees>-3.78963318653404712677001953125</LongitudeDegrees>
            </Position>
            <AltitudeMeters>932.79998779296875</AltitudeMeters>
            <DistanceMeters>NAN</DistanceMeters>
          </Trackpoint>
          <Trackpoint>
            <Time>2020-03-07T17:34:07.000Z</Time>
            <Position>
              <LatitudeDegrees>40.69824644364416599273681640625</LatitudeDegrees>
              <LongitudeDegrees>-3.7896168418228626251220703125</LongitudeDegrees>
            </Position>
            <AltitudeMeters>932.79998779296875</AltitudeMeters>
            <DistanceMeters>NAN</DistanceMeters>
          </Trackpoint>
          <Trackpoint>
            <Time>2020-03-07T17:34:08.000Z</Time>
            <Position>
              <LatitudeDegrees>40.69819665513932704925537109375</LatitudeDegrees>
              <LongitudeDegrees>-3.7896000780165195465087890625</LongitudeDegrees>
            </Position>
            <AltitudeMeters>932.79998779296875</AltitudeMeters>
            <DistanceMeters>NAN</DistanceMeters>
          </Trackpoint>
          <Trackpoint>
            <Time>2020-03-07T17:34:09.000Z</Time>
            <Position>
              <LatitudeDegrees>40.69814753718674182891845703125</LatitudeDegrees>
              <LongitudeDegrees>-3.789582811295986175537109375</LongitudeDegrees>
            </Position>
            <AltitudeMeters>932.79998779296875</AltitudeMeters>
            <DistanceMeters>NAN</DistanceMeters>
          </Trackpoint>
          <Trackpoint>
            <Time>2020-03-07T17:34:10.000Z</Time>
            <Position>
              <LatitudeDegrees>40.6980976648628711700439453125</LatitudeDegrees>
              <LongitudeDegrees>-3.7895655445754528045654296875</LongitudeDegrees>
            </Position>
            <AltitudeMeters>932.79998779296875</AltitudeMeters>
            <DistanceMeters>NAN</DistanceMeters>
          </Trackpoint>
          <Trackpoint>
            <Time>2020-03-07T17:34:11.000Z</Time>
            <Position>
              <LatitudeDegrees>40.69804745726287364959716796875</LatitudeDegrees>
              <LongitudeDegrees>-3.7895474396646022796630859375</LongitudeDegrees>
            </Position>
            <AltitudeMeters>932.79998779296875</AltitudeMeters>
            <DistanceMeters>NAN</DistanceMeters>
          </Trackpoint>
          <Trackpoint>
            <Time>2020-03-07T17:34:12.000Z</Time>
            <Position>
              <LatitudeDegrees>40.69799624383449554443359375</LatitudeDegrees>
              <LongitudeDegrees>-3.7895289994776248931884765625</LongitudeDegrees>
            </Position>
            <AltitudeMeters>932.79998779296875</AltitudeMeters>
            <DistanceMeters>NAN</DistanceMeters>
          </Trackpoint>
          <Trackpoint>
            <Time>2020-03-07T17:34:13.000Z</Time>
            <Position>
              <LatitudeDegrees>40.69794402457773685455322265625</LatitudeDegrees>
              <LongitudeDegrees>-3.789510391652584075927734375</LongitudeDegrees>
            </Position>
            <AltitudeMeters>932.79998779296875</AltitudeMeters>
            <DistanceMeters>NAN</DistanceMeters>
          </Trackpoint>
          <Trackpoint>
            <Time>2020-03-07T17:34:14.000Z</Time>
            <Position>
              <LatitudeDegrees>40.6978918053209781646728515625</LatitudeDegrees>
              <LongitudeDegrees>-3.78949220292270183563232421875</LongitudeDegrees>
            </Position>
            <AltitudeMeters>932.79998779296875</AltitudeMeters>
            <DistanceMeters>NAN</DistanceMeters>
          </Trackpoint>
          <Trackpoint>
            <Time>2020-03-07T17:34:15.000Z</Time>
            <Position>
              <LatitudeDegrees>40.69784075953066349029541015625</LatitudeDegrees>
              <LongitudeDegrees>-3.78947317600250244140625</LongitudeDegrees>
            </Position>
            <AltitudeMeters>932.79998779296875</AltitudeMeters>
            <DistanceMeters>NAN</DistanceMeters>
          </Trackpoint>
          <Trackpoint>
            <Time>2020-03-07T17:34:16.000Z</Time>
            <Position>
              <LatitudeDegrees>40.6977895461022853851318359375</LatitudeDegrees>
              <LongitudeDegrees>-3.78945113159716129302978515625</LongitudeDegrees>
            </Position>
            <AltitudeMeters>932.79998779296875</AltitudeMeters>
            <DistanceMeters>NAN</DistanceMeters>
          </Trackpoint>
          <Trackpoint>
            <Time>2020-03-07T17:34:17.000Z</Time>
            <Position>
              <LatitudeDegrees>40.697739422321319580078125</LatitudeDegrees>
              <LongitudeDegrees>-3.789427578449249267578125</LongitudeDegrees>
            </Position>
            <AltitudeMeters>932.5999755859375</AltitudeMeters>
            <DistanceMeters>NAN</DistanceMeters>
          </Trackpoint>
          <Trackpoint>
            <Time>2020-03-07T17:34:18.000Z</Time>
            <Position>
              <LatitudeDegrees>40.69768720306456089019775390625</LatitudeDegrees>
              <LongitudeDegrees>-3.78940679132938385009765625</LongitudeDegrees>
            </Position>
            <AltitudeMeters>932.5999755859375</AltitudeMeters>
            <DistanceMeters>NAN</DistanceMeters>
          </Trackpoint>
          <Trackpoint>
            <Time>2020-03-07T17:34:19.000Z</Time>
            <Position>
              <LatitudeDegrees>40.69763607345521450042724609375</LatitudeDegrees>
              <LongitudeDegrees>-3.7893898598849773406982421875</LongitudeDegrees>
            </Position>
            <AltitudeMeters>932.5999755859375</AltitudeMeters>
            <DistanceMeters>NAN</DistanceMeters>
          </Trackpoint>
          <Trackpoint>
            <Time>2020-03-07T17:34:20.000Z</Time>
            <Position>
              <LatitudeDegrees>40.6975825130939483642578125</LatitudeDegrees>
              <LongitudeDegrees>-3.78937661647796630859375</LongitudeDegrees>
            </Position>
            <AltitudeMeters>932.5999755859375</AltitudeMeters>
            <DistanceMeters>NAN</DistanceMeters>
          </Trackpoint>
          <Trackpoint>
            <Time>2020-03-07T17:34:21.000Z</Time>
            <Position>
              <LatitudeDegrees>40.69752752780914306640625</LatitudeDegrees>
              <LongitudeDegrees>-3.78935809247195720672607421875</LongitudeDegrees>
            </Position>
            <AltitudeMeters>932.5999755859375</AltitudeMeters>
            <DistanceMeters>NAN</DistanceMeters>
          </Trackpoint>
          <Trackpoint>
            <Time>2020-03-07T17:34:22.000Z</Time>
            <Position>
              <LatitudeDegrees>40.69747698493301868438720703125</LatitudeDegrees>
              <LongitudeDegrees>-3.7893375568091869354248046875</LongitudeDegrees>
            </Position>
            <AltitudeMeters>932.5999755859375</AltitudeMeters>
            <DistanceMeters>NAN</DistanceMeters>
          </Trackpoint>
          <Trackpoint>
            <Time>2020-03-07T17:34:23.000Z</Time>
            <Position>
              <LatitudeDegrees>40.6974256038665771484375</LatitudeDegrees>
              <LongitudeDegrees>-3.789319954812526702880859375</LongitudeDegrees>
            </Position>
            <AltitudeMeters>932.5999755859375</AltitudeMeters>
            <DistanceMeters>NAN</DistanceMeters>
          </Trackpoint>
          <Trackpoint>
            <Time>2020-03-07T17:34:24.000Z</Time>
            <Position>
              <LatitudeDegrees>40.69737271405756473541259765625</LatitudeDegrees>
              <LongitudeDegrees>-3.78930210135877132415771484375</LongitudeDegrees>
            </Position>
            <AltitudeMeters>932.5999755859375</AltitudeMeters>
            <DistanceMeters>NAN</DistanceMeters>
          </Trackpoint>
          <Trackpoint>
            <Time>2020-03-07T17:34:25.000Z</Time>
            <Position>
              <LatitudeDegrees>40.69731923751533031463623046875</LatitudeDegrees>
              <LongitudeDegrees>-3.78928567282855510711669921875</LongitudeDegrees>
            </Position>
            <AltitudeMeters>932.5999755859375</AltitudeMeters>
            <DistanceMeters>NAN</DistanceMeters>
          </Trackpoint>
          <Trackpoint>
            <Time>2020-03-07T17:34:26.000Z</Time>
            <Position>
              <LatitudeDegrees>40.69726643152534961700439453125</LatitudeDegrees>
              <LongitudeDegrees>-3.7892681546509265899658203125</LongitudeDegrees>
            </Position>
            <AltitudeMeters>932.5999755859375</AltitudeMeters>
            <DistanceMeters>NAN</DistanceMeters>
          </Trackpoint>
          <Trackpoint>
            <Time>2020-03-07T17:34:27.000Z</Time>
            <Position>
              <LatitudeDegrees>40.69721245206892490386962890625</LatitudeDegrees>
              <LongitudeDegrees>-3.78925080411136150360107421875</LongitudeDegrees>
            </Position>
            <AltitudeMeters>932.5999755859375</AltitudeMeters>
            <DistanceMeters>NAN</DistanceMeters>
          </Trackpoint>
          <Trackpoint>
            <Time>2020-03-07T17:34:28.000Z</Time>
            <Position>
              <LatitudeDegrees>40.697157718241214752197265625</LatitudeDegrees>
              <LongitudeDegrees>-3.7892339564859867095947265625</LongitudeDegrees>
            </Position>
            <AltitudeMeters>932.5999755859375</AltitudeMeters>
            <DistanceMeters>NAN</DistanceMeters>
          </Trackpoint>
          <Trackpoint>
            <Time>2020-03-07T17:34:29.000Z</Time>
            <Position>
              <LatitudeDegrees>40.69710172712802886962890625</LatitudeDegrees>
              <LongitudeDegrees>-3.78921694122254848480224609375</LongitudeDegrees>
            </Position>
            <AltitudeMeters>932.5999755859375</AltitudeMeters>
            <DistanceMeters>NAN</DistanceMeters>
          </Trackpoint>
          <Trackpoint>
            <Time>2020-03-07T17:34:30.000Z</Time>
            <Position>
              <LatitudeDegrees>40.6970472447574138641357421875</LatitudeDegrees>
              <LongitudeDegrees>-3.78919950686395168304443359375</LongitudeDegrees>
            </Position>
            <AltitudeMeters>932.5999755859375</AltitudeMeters>
            <DistanceMeters>NAN</DistanceMeters>
          </Trackpoint>
          <Trackpoint>
            <Time>2020-03-07T17:34:31.000Z</Time>
            <Position>
              <LatitudeDegrees>40.6969929300248622894287109375</LatitudeDegrees>
              <LongitudeDegrees>-3.789179809391498565673828125</LongitudeDegrees>
            </Position>
            <AltitudeMeters>932.5999755859375</AltitudeMeters>
            <DistanceMeters>NAN</DistanceMeters>
          </Trackpoint>
          <Trackpoint>
            <Time>2020-03-07T17:34:32.000Z</Time>
            <Position>
              <LatitudeDegrees>40.69693853147327899932861328125</LatitudeDegrees>
              <LongitudeDegrees>-3.78915944136679172515869140625</LongitudeDegrees>
            </Position>
            <AltitudeMeters>932.5999755859375</AltitudeMeters>
            <DistanceMeters>NAN</DistanceMeters>
          </Trackpoint>
          <Trackpoint>
            <Time>2020-03-07T17:34:33.000Z</Time>
            <Position>
              <LatitudeDegrees>40.69688237272202968597412109375</LatitudeDegrees>
              <LongitudeDegrees>-3.78913748078048229217529296875</LongitudeDegrees>
            </Position>
            <AltitudeMeters>932.4000244140625</AltitudeMeters>
            <DistanceMeters>NAN</DistanceMeters>
          </Trackpoint>
          <Trackpoint>
            <Time>2020-03-07T17:34:34.000Z</Time>
            <Position>
              <LatitudeDegrees>40.69682688452303409576416015625</LatitudeDegrees>
              <LongitudeDegrees>-3.789116106927394866943359375</LongitudeDegrees>
            </Position>
            <AltitudeMeters>932.4000244140625</AltitudeMeters>
            <DistanceMeters>NAN</DistanceMeters>
          </Trackpoint>
          <Trackpoint>
            <Time>2020-03-07T17:34:35.000Z</Time>
            <Position>
              <LatitudeDegrees>40.696772821247577667236328125</LatitudeDegrees>
              <LongitudeDegrees>-3.78909758292138576507568359375</LongitudeDegrees>
            </Position>
            <AltitudeMeters>932.4000244140625</AltitudeMeters>
            <DistanceMeters>NAN</DistanceMeters>
          </Trackpoint>
          <Trackpoint>
            <Time>2020-03-07T17:34:36.000Z</Time>
            <Position>
              <LatitudeDegrees>40.696718506515026092529296875</LatitudeDegrees>
              <LongitudeDegrees>-3.7890802323818206787109375</LongitudeDegrees>
            </Position>
            <AltitudeMeters>932.4000244140625</AltitudeMeters>
            <DistanceMeters>NAN</DistanceMeters>
          </Trackpoint>
          <Trackpoint>
            <Time>2020-03-07T17:34:37.000Z</Time>
            <Position>
              <LatitudeDegrees>40.69666226394474506378173828125</LatitudeDegrees>
              <LongitudeDegrees>-3.789061792194843292236328125</LongitudeDegrees>
            </Position>
            <AltitudeMeters>932.4000244140625</AltitudeMeters>
            <DistanceMeters>NAN</DistanceMeters>
          </Trackpoint>
          <Trackpoint>
            <Time>2020-03-07T17:34:38.000Z</Time>
            <Position>
              <LatitudeDegrees>40.69660711102187633514404296875</LatitudeDegrees>
              <LongitudeDegrees>-3.78904159180819988250732421875</LongitudeDegrees>
            </Position>
            <AltitudeMeters>932.4000244140625</AltitudeMeters>
            <DistanceMeters>NAN</DistanceMeters>
          </Trackpoint>
          <Trackpoint>
            <Time>2020-03-07T17:34:39.000Z</Time>
            <Position>
              <LatitudeDegrees>40.69655212573707103729248046875</LatitudeDegrees>
              <LongitudeDegrees>-3.78902214579284191131591796875</LongitudeDegrees>
            </Position>
            <AltitudeMeters>932.4000244140625</AltitudeMeters>
            <DistanceMeters>NAN</DistanceMeters>
          </Trackpoint>
          <Trackpoint>
            <Time>2020-03-07T17:34:40.000Z</Time>
            <Position>
              <LatitudeDegrees>40.6964980624616146087646484375</LatitudeDegrees>
              <LongitudeDegrees>-3.7890032865107059478759765625</LongitudeDegrees>
            </Position>
            <AltitudeMeters>932.4000244140625</AltitudeMeters>
            <DistanceMeters>NAN</DistanceMeters>
          </Trackpoint>
          <Trackpoint>
            <Time>2020-03-07T17:34:41.000Z</Time>
            <Position>
              <LatitudeDegrees>40.6964425742626190185546875</LatitudeDegrees>
              <LongitudeDegrees>-3.7889848463237285614013671875</LongitudeDegrees>
            </Position>
            <AltitudeMeters>932.20001220703125</AltitudeMeters>
            <DistanceMeters>NAN</DistanceMeters>
          </Trackpoint>
          <Trackpoint>
            <Time>2020-03-07T17:34:42.000Z</Time>
            <Position>
              <LatitudeDegrees>40.69638700224459171295166015625</LatitudeDegrees>
              <LongitudeDegrees>-3.788966573774814605712890625</LongitudeDegrees>
            </Position>
            <AltitudeMeters>932.20001220703125</AltitudeMeters>
            <DistanceMeters>NAN</DistanceMeters>
          </Trackpoint>
          <Trackpoint>
            <Time>2020-03-07T17:34:43.000Z</Time>
            <Position>
              <LatitudeDegrees>40.6963321007788181304931640625</LatitudeDegrees>
              <LongitudeDegrees>-3.78894838504493236541748046875</LongitudeDegrees>
            </Position>
            <AltitudeMeters>932.20001220703125</AltitudeMeters>
            <DistanceMeters>NAN</DistanceMeters>
          </Trackpoint>
          <Trackpoint>
            <Time>2020-03-07T17:34:44.000Z</Time>
            <Position>
              <LatitudeDegrees>40.696277618408203125</LatitudeDegrees>
              <LongitudeDegrees>-3.7889312021434307098388671875</LongitudeDegrees>
            </Position>
            <AltitudeMeters>932.20001220703125</AltitudeMeters>
            <DistanceMeters>NAN</DistanceMeters>
          </Trackpoint>
          <Trackpoint>
            <Time>2020-03-07T17:34:45.000Z</Time>
            <Position>
              <LatitudeDegrees>40.69622238166630268096923828125</LatitudeDegrees>
              <LongitudeDegrees>-3.7889171205461025238037109375</LongitudeDegrees>
            </Position>
            <AltitudeMeters>932</AltitudeMeters>
            <DistanceMeters>NAN</DistanceMeters>
          </Trackpoint>
          <Trackpoint>
            <Time>2020-03-07T17:34:46.000Z</Time>
            <Position>
              <LatitudeDegrees>40.6961681507527828216552734375</LatitudeDegrees>
              <LongitudeDegrees>-3.78890253603458404541015625</LongitudeDegrees>
            </Position>
            <AltitudeMeters>932</AltitudeMeters>
            <DistanceMeters>NAN</DistanceMeters>
          </Trackpoint>
          <Trackpoint>
            <Time>2020-03-07T17:34:47.000Z</Time>
            <Position>
              <LatitudeDegrees>40.6961131654679775238037109375</LatitudeDegrees>
              <LongitudeDegrees>-3.78888954408466815948486328125</LongitudeDegrees>
            </Position>
            <AltitudeMeters>932</AltitudeMeters>
            <DistanceMeters>NAN</DistanceMeters>
          </Trackpoint>
          <Trackpoint>
            <Time>2020-03-07T17:34:48.000Z</Time>
            <Position>
              <LatitudeDegrees>40.69605859927833080291748046875</LatitudeDegrees>
              <LongitudeDegrees>-3.788876719772815704345703125</LongitudeDegrees>
            </Position>
            <AltitudeMeters>932</AltitudeMeters>
            <DistanceMeters>NAN</DistanceMeters>
          </Trackpoint>
          <Trackpoint>
            <Time>2020-03-07T17:34:49.000Z</Time>
            <Position>
              <LatitudeDegrees>40.69600336253643035888671875</LatitudeDegrees>
              <LongitudeDegrees>-3.78886255435645580291748046875</LongitudeDegrees>
            </Position>
            <AltitudeMeters>932</AltitudeMeters>
            <DistanceMeters>NAN</DistanceMeters>
          </Trackpoint>
          <Trackpoint>
            <Time>2020-03-07T17:34:50.000Z</Time>
            <Position>
              <LatitudeDegrees>40.69594812579452991485595703125</LatitudeDegrees>
              <LongitudeDegrees>-3.78884629346430301666259765625</LongitudeDegrees>
            </Position>
            <AltitudeMeters>932</AltitudeMeters>
            <DistanceMeters>NAN</DistanceMeters>
          </Trackpoint>
          <Trackpoint>
            <Time>2020-03-07T17:34:51.000Z</Time>
            <Position>
              <LatitudeDegrees>40.69589297287166118621826171875</LatitudeDegrees>
              <LongitudeDegrees>-3.78883145749568939208984375</LongitudeDegrees>
            </Position>
            <AltitudeMeters>932</AltitudeMeters>
            <DistanceMeters>NAN</DistanceMeters>
          </Trackpoint>
          <Trackpoint>
            <Time>2020-03-07T17:34:52.000Z</Time>
            <Position>
              <LatitudeDegrees>40.69583840668201446533203125</LatitudeDegrees>
              <LongitudeDegrees>-3.7888172082602977752685546875</LongitudeDegrees>
            </Position>
            <AltitudeMeters>932</AltitudeMeters>
            <DistanceMeters>NAN</DistanceMeters>
          </Trackpoint>
          <Trackpoint>
            <Time>2020-03-07T17:34:53.000Z</Time>
            <Position>
              <LatitudeDegrees>40.69578384049236774444580078125</LatitudeDegrees>
              <LongitudeDegrees>-3.7888004444539546966552734375</LongitudeDegrees>
            </Position>
            <AltitudeMeters>932</AltitudeMeters>
            <DistanceMeters>NAN</DistanceMeters>
          </Trackpoint>
          <Trackpoint>
            <Time>2020-03-07T17:34:54.000Z</Time>
            <Position>
              <LatitudeDegrees>40.6957282684743404388427734375</LatitudeDegrees>
              <LongitudeDegrees>-3.78878192044794559478759765625</LongitudeDegrees>
            </Position>
            <AltitudeMeters>932</AltitudeMeters>
            <DistanceMeters>NAN</DistanceMeters>
          </Trackpoint>
          <Trackpoint>
            <Time>2020-03-07T17:34:55.000Z</Time>
            <Position>
              <LatitudeDegrees>40.695674121379852294921875</LatitudeDegrees>
              <LongitudeDegrees>-3.78876331262290477752685546875</LongitudeDegrees>
            </Position>
            <AltitudeMeters>932</AltitudeMeters>
            <DistanceMeters>NAN</DistanceMeters>
          </Trackpoint>
          <Trackpoint>
            <Time>2020-03-07T17:34:56.000Z</Time>
            <Position>
              <LatitudeDegrees>40.69561972282826900482177734375</LatitudeDegrees>
              <LongitudeDegrees>-3.7887434475123882293701171875</LongitudeDegrees>
            </Position>
            <AltitudeMeters>932</AltitudeMeters>
            <DistanceMeters>NAN</DistanceMeters>
          </Trackpoint>
          <Trackpoint>
            <Time>2020-03-07T17:34:57.000Z</Time>
            <Position>
              <LatitudeDegrees>40.69556540809571743011474609375</LatitudeDegrees>
              <LongitudeDegrees>-3.78872416913509368896484375</LongitudeDegrees>
            </Position>
            <AltitudeMeters>932</AltitudeMeters>
            <DistanceMeters>NAN</DistanceMeters>
          </Trackpoint>
          <Trackpoint>
            <Time>2020-03-07T17:34:58.000Z</Time>
            <Position>
              <LatitudeDegrees>40.69551176391541957855224609375</LatitudeDegrees>
              <LongitudeDegrees>-3.78870396874845027923583984375</LongitudeDegrees>
            </Position>
            <AltitudeMeters>932</AltitudeMeters>
            <DistanceMeters>NAN</DistanceMeters>
          </Trackpoint>
          <Trackpoint>
            <Time>2020-03-07T17:34:59.000Z</Time>
            <Position>
              <LatitudeDegrees>40.6954582035541534423828125</LatitudeDegrees>
              <LongitudeDegrees>-3.788685612380504608154296875</LongitudeDegrees>
            </Position>
            <AltitudeMeters>932</AltitudeMeters>
            <DistanceMeters>NAN</DistanceMeters>
          </Trackpoint>
          <Trackpoint>
            <Time>2020-03-07T17:35:00.000Z</Time>
            <Position>
              <LatitudeDegrees>40.69540363736450672149658203125</LatitudeDegrees>
              <LongitudeDegrees>-3.78866516053676605224609375</LongitudeDegrees>
            </Position>
            <AltitudeMeters>932</AltitudeMeters>
            <DistanceMeters>NAN</DistanceMeters>
          </Trackpoint>
          <Trackpoint>
            <Time>2020-03-07T17:35:01.000Z</Time>
            <Position>
              <LatitudeDegrees>40.69534982554614543914794921875</LatitudeDegrees>
              <LongitudeDegrees>-3.7886465527117252349853515625</LongitudeDegrees>
            </Position>
            <AltitudeMeters>932</AltitudeMeters>
            <DistanceMeters>NAN</DistanceMeters>
          </Trackpoint>
          <Trackpoint>
            <Time>2020-03-07T17:35:02.000Z</Time>
            <Position>
              <LatitudeDegrees>40.6952960975468158721923828125</LatitudeDegrees>
              <LongitudeDegrees>-3.78862635232508182525634765625</LongitudeDegrees>
            </Position>
            <AltitudeMeters>932</AltitudeMeters>
            <DistanceMeters>NAN</DistanceMeters>
          </Trackpoint>
          <Trackpoint>
            <Time>2020-03-07T17:35:03.000Z</Time>
            <Position>
              <LatitudeDegrees>40.695241279900074005126953125</LatitudeDegrees>
              <LongitudeDegrees>-3.7886059843003749847412109375</LongitudeDegrees>
            </Position>
            <AltitudeMeters>932</AltitudeMeters>
            <DistanceMeters>NAN</DistanceMeters>
          </Trackpoint>
          <Trackpoint>
            <Time>2020-03-07T17:35:04.000Z</Time>
            <Position>
              <LatitudeDegrees>40.69518503732979297637939453125</LatitudeDegrees>
              <LongitudeDegrees>-3.7885845266282558441162109375</LongitudeDegrees>
            </Position>
            <AltitudeMeters>932</AltitudeMeters>
            <DistanceMeters>NAN</DistanceMeters>
          </Trackpoint>
          <Trackpoint>
            <Time>2020-03-07T17:35:05.000Z</Time>
            <Position>
              <LatitudeDegrees>40.6951294653117656707763671875</LatitudeDegrees>
              <LongitudeDegrees>-3.78856231458485126495361328125</LongitudeDegrees>
            </Position>
            <AltitudeMeters>932</AltitudeMeters>
            <DistanceMeters>NAN</DistanceMeters>
          </Trackpoint>
          <Trackpoint>
            <Time>2020-03-07T17:35:06.000Z</Time>
            <Position>
              <LatitudeDegrees>40.69507473148405551910400390625</LatitudeDegrees>
              <LongitudeDegrees>-3.78854270093142986297607421875</LongitudeDegrees>
            </Position>
            <AltitudeMeters>932</AltitudeMeters>
            <DistanceMeters>NAN</DistanceMeters>
          </Trackpoint>
          <Trackpoint>
            <Time>2020-03-07T17:35:07.000Z</Time>
            <Position>
              <LatitudeDegrees>40.69501874037086963653564453125</LatitudeDegrees>
              <LongitudeDegrees>-3.788521327078342437744140625</LongitudeDegrees>
            </Position>
            <AltitudeMeters>932</AltitudeMeters>
            <DistanceMeters>NAN</DistanceMeters>
          </Trackpoint>
          <Trackpoint>
            <Time>2020-03-07T17:35:08.000Z</Time>
            <Position>
              <LatitudeDegrees>40.6949631683528423309326171875</LatitudeDegrees>
              <LongitudeDegrees>-3.78850062377750873565673828125</LongitudeDegrees>
            </Position>
            <AltitudeMeters>932</AltitudeMeters>
            <DistanceMeters>NAN</DistanceMeters>
          </Trackpoint>
          <Trackpoint>
            <Time>2020-03-07T17:35:09.000Z</Time>
            <Position>
              <LatitudeDegrees>40.69491128437221050262451171875</LatitudeDegrees>
              <LongitudeDegrees>-3.78848067484796047210693359375</LongitudeDegrees>
            </Position>
            <AltitudeMeters>932</AltitudeMeters>
            <DistanceMeters>NAN</DistanceMeters>
          </Trackpoint>
          <Trackpoint>
            <Time>2020-03-07T17:35:10.000Z</Time>
            <Position>
              <LatitudeDegrees>40.69485914893448352813720703125</LatitudeDegrees>
              <LongitudeDegrees>-3.78846005536615848541259765625</LongitudeDegrees>
            </Position>
            <AltitudeMeters>932</AltitudeMeters>
            <DistanceMeters>NAN</DistanceMeters>
          </Trackpoint>
          <Trackpoint>
            <Time>2020-03-07T17:35:11.000Z</Time>
            <Position>
              <LatitudeDegrees>40.69480751641094684600830078125</LatitudeDegrees>
              <LongitudeDegrees>-3.788439519703388214111328125</LongitudeDegrees>
            </Position>
            <AltitudeMeters>932</AltitudeMeters>
            <DistanceMeters>NAN</DistanceMeters>
          </Trackpoint>
          <Trackpoint>
            <Time>2020-03-07T17:35:12.000Z</Time>
            <Position>
              <LatitudeDegrees>40.694756470620632171630859375</LatitudeDegrees>
              <LongitudeDegrees>-3.78841973841190338134765625</LongitudeDegrees>
            </Position>
            <AltitudeMeters>932</AltitudeMeters>
            <DistanceMeters>NAN</DistanceMeters>
          </Trackpoint>
          <Trackpoint>
            <Time>2020-03-07T17:35:13.000Z</Time>
            <Position>
              <LatitudeDegrees>40.694706179201602935791015625</LatitudeDegrees>
              <LongitudeDegrees>-3.78840255551040172576904296875</LongitudeDegrees>
            </Position>
            <AltitudeMeters>932</AltitudeMeters>
            <DistanceMeters>NAN</DistanceMeters>
          </Trackpoint>
          <Trackpoint>
            <Time>2020-03-07T17:35:14.000Z</Time>
            <Position>
              <LatitudeDegrees>40.6946563906967639923095703125</LatitudeDegrees>
              <LongitudeDegrees>-3.7883897311985492706298828125</LongitudeDegrees>
            </Position>
            <AltitudeMeters>932</AltitudeMeters>
            <DistanceMeters>NAN</DistanceMeters>
          </Trackpoint>
          <Trackpoint>
            <Time>2020-03-07T17:35:15.000Z</Time>
            <Position>
              <LatitudeDegrees>40.6946079432964324951171875</LatitudeDegrees>
              <LongitudeDegrees>-3.788385204970836639404296875</LongitudeDegrees>
            </Position>
            <AltitudeMeters>932</AltitudeMeters>
            <DistanceMeters>NAN</DistanceMeters>
          </Trackpoint>
          <Trackpoint>
            <Time>2020-03-07T17:35:16.000Z</Time>
            <Position>
              <LatitudeDegrees>40.69455941207706928253173828125</LatitudeDegrees>
              <LongitudeDegrees>-3.78839199431240558624267578125</LongitudeDegrees>
            </Position>
            <AltitudeMeters>932</AltitudeMeters>
            <DistanceMeters>NAN</DistanceMeters>
          </Trackpoint>
          <Trackpoint>
            <Time>2020-03-07T17:35:17.000Z</Time>
            <Position>
              <LatitudeDegrees>40.6945112161338329315185546875</LatitudeDegrees>
              <LongitudeDegrees>-3.78841169178485870361328125</LongitudeDegrees>
            </Position>
            <AltitudeMeters>932</AltitudeMeters>
            <DistanceMeters>NAN</DistanceMeters>
          </Trackpoint>
          <Trackpoint>
            <Time>2020-03-07T17:35:18.000Z</Time>
            <Position>
              <LatitudeDegrees>40.694463439285755157470703125</LatitudeDegrees>
              <LongitudeDegrees>-3.78843708895146846771240234375</LongitudeDegrees>
            </Position>
            <AltitudeMeters>932</AltitudeMeters>
            <DistanceMeters>NAN</DistanceMeters>
          </Trackpoint>
          <Trackpoint>
            <Time>2020-03-07T17:35:19.000Z</Time>
            <Position>
              <LatitudeDegrees>40.69441524334251880645751953125</LatitudeDegrees>
              <LongitudeDegrees>-3.7884581275284290313720703125</LongitudeDegrees>
            </Position>
            <AltitudeMeters>932</AltitudeMeters>
            <DistanceMeters>NAN</DistanceMeters>
          </Trackpoint>
          <Trackpoint>
            <Time>2020-03-07T17:35:20.000Z</Time>
            <Position>
              <LatitudeDegrees>40.69436579011380672454833984375</LatitudeDegrees>
              <LongitudeDegrees>-3.78846458159387111663818359375</LongitudeDegrees>
            </Position>
            <AltitudeMeters>931.79998779296875</AltitudeMeters>
            <DistanceMeters>NAN</DistanceMeters>
          </Trackpoint>
          <Trackpoint>
            <Time>2020-03-07T17:35:21.000Z</Time>
            <Position>
              <LatitudeDegrees>40.69432203657925128936767578125</LatitudeDegrees>
              <LongitudeDegrees>-3.78845267929136753082275390625</LongitudeDegrees>
            </Position>
            <AltitudeMeters>931.79998779296875</AltitudeMeters>
            <DistanceMeters>NAN</DistanceMeters>
          </Trackpoint>
          <Trackpoint>
            <Time>2020-03-07T17:35:22.000Z</Time>
            <Position>
              <LatitudeDegrees>40.69429169408977031707763671875</LatitudeDegrees>
              <LongitudeDegrees>-3.78842200152575969696044921875</LongitudeDegrees>
            </Position>
            <AltitudeMeters>931.79998779296875</AltitudeMeters>
            <DistanceMeters>NAN</DistanceMeters>
          </Trackpoint>
          <Trackpoint>
            <Time>2020-03-07T17:35:23.000Z</Time>
            <Position>
              <LatitudeDegrees>40.694264285266399383544921875</LatitudeDegrees>
              <LongitudeDegrees>-3.78838310949504375457763671875</LongitudeDegrees>
            </Position>
            <AltitudeMeters>931.79998779296875</AltitudeMeters>
            <DistanceMeters>NAN</DistanceMeters>
          </Trackpoint>
          <Trackpoint>
            <Time>2020-03-07T17:35:24.000Z</Time>
            <Position>
              <LatitudeDegrees>40.69423570297658443450927734375</LatitudeDegrees>
              <LongitudeDegrees>-3.788342960178852081298828125</LongitudeDegrees>
            </Position>
            <AltitudeMeters>931.79998779296875</AltitudeMeters>
            <DistanceMeters>NAN</DistanceMeters>
          </Trackpoint>
          <Trackpoint>
            <Time>2020-03-07T17:35:25.000Z</Time>
            <Position>
              <LatitudeDegrees>40.69420502521097660064697265625</LatitudeDegrees>
              <LongitudeDegrees>-3.7883045710623264312744140625</LongitudeDegrees>
            </Position>
            <AltitudeMeters>931.79998779296875</AltitudeMeters>
            <DistanceMeters>NAN</DistanceMeters>
          </Trackpoint>
          <Trackpoint>
            <Time>2020-03-07T17:35:26.000Z</Time>
            <Position>
              <LatitudeDegrees>40.69417082704603672027587890625</LatitudeDegrees>
              <LongitudeDegrees>-3.78827297128736972808837890625</LongitudeDegrees>
            </Position>
            <AltitudeMeters>931.79998779296875</AltitudeMeters>
            <DistanceMeters>NAN</DistanceMeters>
          </Trackpoint>
          <Trackpoint>
            <Time>2020-03-07T17:35:27.000Z</Time>
            <Position>
              <LatitudeDegrees>40.69413310848176479339599609375</LatitudeDegrees>
              <LongitudeDegrees>-3.788244388997554779052734375</LongitudeDegrees>
            </Position>
            <AltitudeMeters>931.79998779296875</AltitudeMeters>
            <DistanceMeters>NAN</DistanceMeters>
          </Trackpoint>
          <Trackpoint>
            <Time>2020-03-07T17:35:28.000Z</Time>
            <Position>
              <LatitudeDegrees>40.6940901093184947967529296875</LatitudeDegrees>
              <LongitudeDegrees>-3.78821966238319873809814453125</LongitudeDegrees>
            </Position>
            <AltitudeMeters>932</AltitudeMeters>
            <DistanceMeters>NAN</DistanceMeters>
          </Trackpoint>
          <Trackpoint>
            <Time>2020-03-07T17:35:29.000Z</Time>
            <Position>
              <LatitudeDegrees>40.69404409267008304595947265625</LatitudeDegrees>
              <LongitudeDegrees>-3.7881972827017307281494140625</LongitudeDegrees>
            </Position>
            <AltitudeMeters>932</AltitudeMeters>
            <DistanceMeters>NAN</DistanceMeters>
          </Trackpoint>
          <Trackpoint>
            <Time>2020-03-07T17:35:30.000Z</Time>
            <Position>
              <LatitudeDegrees>40.69399698637425899505615234375</LatitudeDegrees>
              <LongitudeDegrees>-3.78817456774413585662841796875</LongitudeDegrees>
            </Position>
            <AltitudeMeters>932</AltitudeMeters>
            <DistanceMeters>NAN</DistanceMeters>
          </Trackpoint>
          <Trackpoint>
            <Time>2020-03-07T17:35:31.000Z</Time>
            <Position>
              <LatitudeDegrees>40.69394920952618122100830078125</LatitudeDegrees>
              <LongitudeDegrees>-3.7881533615291118621826171875</LongitudeDegrees>
            </Position>
            <AltitudeMeters>932</AltitudeMeters>
            <DistanceMeters>NAN</DistanceMeters>
          </Trackpoint>
          <Trackpoint>
            <Time>2020-03-07T17:35:32.000Z</Time>
            <Position>
              <LatitudeDegrees>40.6938990019261837005615234375</LatitudeDegrees>
              <LongitudeDegrees>-3.7881329096853733062744140625</LongitudeDegrees>
            </Position>
            <AltitudeMeters>932</AltitudeMeters>
            <DistanceMeters>NAN</DistanceMeters>
          </Trackpoint>
          <Trackpoint>
            <Time>2020-03-07T17:35:33.000Z</Time>
            <Position>
              <LatitudeDegrees>40.6938461959362030029296875</LatitudeDegrees>
              <LongitudeDegrees>-3.7881161458790302276611328125</LongitudeDegrees>
            </Position>
            <AltitudeMeters>932</AltitudeMeters>
            <DistanceMeters>NAN</DistanceMeters>
          </Trackpoint>
          <Trackpoint>
            <Time>2020-03-07T17:35:34.000Z</Time>
            <Position>
              <LatitudeDegrees>40.6937950663268566131591796875</LatitudeDegrees>
              <LongitudeDegrees>-3.78810189664363861083984375</LongitudeDegrees>
            </Position>
            <AltitudeMeters>932</AltitudeMeters>
            <DistanceMeters>NAN</DistanceMeters>
          </Trackpoint>
          <Trackpoint>
            <Time>2020-03-07T17:35:35.000Z</Time>
            <Position>
              <LatitudeDegrees>40.6937427632510662078857421875</LatitudeDegrees>
              <LongitudeDegrees>-3.788084127008914947509765625</LongitudeDegrees>
            </Position>
            <AltitudeMeters>932</AltitudeMeters>
            <DistanceMeters>NAN</DistanceMeters>
          </Trackpoint>
          <Trackpoint>
            <Time>2020-03-07T17:35:36.000Z</Time>
            <Position>
              <LatitudeDegrees>40.693690963089466094970703125</LatitudeDegrees>
              <LongitudeDegrees>-3.78806275315582752227783203125</LongitudeDegrees>
            </Position>
            <AltitudeMeters>932</AltitudeMeters>
            <DistanceMeters>NAN</DistanceMeters>
          </Trackpoint>
          <Trackpoint>
            <Time>2020-03-07T17:35:37.000Z</Time>
            <Position>
              <LatitudeDegrees>40.69364042021334171295166015625</LatitudeDegrees>
              <LongitudeDegrees>-3.7880422174930572509765625</LongitudeDegrees>
            </Position>
            <AltitudeMeters>932</AltitudeMeters>
            <DistanceMeters>NAN</DistanceMeters>
          </Trackpoint>
          <Trackpoint>
            <Time>2020-03-07T17:35:38.000Z</Time>
            <Position>
              <LatitudeDegrees>40.6935882009565830230712890625</LatitudeDegrees>
              <LongitudeDegrees>-3.788021095097064971923828125</LongitudeDegrees>
            </Position>
            <AltitudeMeters>932</AltitudeMeters>
            <DistanceMeters>NAN</DistanceMeters>
          </Trackpoint>
          <Trackpoint>
            <Time>2020-03-07T17:35:39.000Z</Time>
            <Position>
              <LatitudeDegrees>40.693536065518856048583984375</LatitudeDegrees>
              <LongitudeDegrees>-3.78799938596785068511962890625</LongitudeDegrees>
            </Position>
            <AltitudeMeters>932</AltitudeMeters>
            <DistanceMeters>NAN</DistanceMeters>
          </Trackpoint>
          <Trackpoint>
            <Time>2020-03-07T17:35:40.000Z</Time>
            <Position>
              <LatitudeDegrees>40.69348552264273166656494140625</LatitudeDegrees>
              <LongitudeDegrees>-3.7879796884953975677490234375</LongitudeDegrees>
            </Position>
            <AltitudeMeters>932</AltitudeMeters>
            <DistanceMeters>NAN</DistanceMeters>
          </Trackpoint>
          <Trackpoint>
            <Time>2020-03-07T17:35:41.000Z</Time>
            <Position>
              <LatitudeDegrees>40.69343456067144870758056640625</LatitudeDegrees>
              <LongitudeDegrees>-3.787958733737468719482421875</LongitudeDegrees>
            </Position>
            <AltitudeMeters>932</AltitudeMeters>
            <DistanceMeters>NAN</DistanceMeters>
          </Trackpoint>
          <Trackpoint>
            <Time>2020-03-07T17:35:42.000Z</Time>
            <Position>
              <LatitudeDegrees>40.69338208995759487152099609375</LatitudeDegrees>
              <LongitudeDegrees>-3.78793920390307903289794921875</LongitudeDegrees>
            </Position>
            <AltitudeMeters>931.79998779296875</AltitudeMeters>
            <DistanceMeters>NAN</DistanceMeters>
          </Trackpoint>
          <Trackpoint>
            <Time>2020-03-07T17:35:43.000Z</Time>
            <Position>
              <LatitudeDegrees>40.693329870700836181640625</LatitudeDegrees>
              <LongitudeDegrees>-3.7879193387925624847412109375</LongitudeDegrees>
            </Position>
            <AltitudeMeters>931.79998779296875</AltitudeMeters>
            <DistanceMeters>NAN</DistanceMeters>
          </Trackpoint>
          <Trackpoint>
            <Time>2020-03-07T17:35:44.000Z</Time>
            <Position>
              <LatitudeDegrees>40.69327714852988719940185546875</LatitudeDegrees>
              <LongitudeDegrees>-3.7878995575010776519775390625</LongitudeDegrees>
            </Position>
            <AltitudeMeters>931.79998779296875</AltitudeMeters>
            <DistanceMeters>NAN</DistanceMeters>
          </Trackpoint>
          <Trackpoint>
            <Time>2020-03-07T17:35:45.000Z</Time>
            <Position>
              <LatitudeDegrees>40.69322467781603336334228515625</LatitudeDegrees>
              <LongitudeDegrees>-3.78788036294281482696533203125</LongitudeDegrees>
            </Position>
            <AltitudeMeters>931.5999755859375</AltitudeMeters>
            <DistanceMeters>NAN</DistanceMeters>
          </Trackpoint>
          <Trackpoint>
            <Time>2020-03-07T17:35:46.000Z</Time>
            <Position>
              <LatitudeDegrees>40.69317304529249668121337890625</LatitudeDegrees>
              <LongitudeDegrees>-3.78785890527069568634033203125</LongitudeDegrees>
            </Position>
            <AltitudeMeters>931.5999755859375</AltitudeMeters>
            <DistanceMeters>NAN</DistanceMeters>
          </Trackpoint>
          <Trackpoint>
            <Time>2020-03-07T17:35:47.000Z</Time>
            <Position>
              <LatitudeDegrees>40.69312124513089656829833984375</LatitudeDegrees>
              <LongitudeDegrees>-3.78783845342695713043212890625</LongitudeDegrees>
            </Position>
            <AltitudeMeters>931.5999755859375</AltitudeMeters>
            <DistanceMeters>NAN</DistanceMeters>
          </Trackpoint>
          <Trackpoint>
            <Time>2020-03-07T17:35:48.000Z</Time>
            <Position>
              <LatitudeDegrees>40.69306961260735988616943359375</LatitudeDegrees>
              <LongitudeDegrees>-3.78781632520258426666259765625</LongitudeDegrees>
            </Position>
            <AltitudeMeters>931.5999755859375</AltitudeMeters>
            <DistanceMeters>NAN</DistanceMeters>
          </Trackpoint>
          <Trackpoint>
            <Time>2020-03-07T17:35:49.000Z</Time>
            <Position>
              <LatitudeDegrees>40.693019740283489227294921875</LatitudeDegrees>
              <LongitudeDegrees>-3.78779352642595767974853515625</LongitudeDegrees>
            </Position>
            <AltitudeMeters>931.4000244140625</AltitudeMeters>
            <DistanceMeters>NAN</DistanceMeters>
          </Trackpoint>
          <Trackpoint>
            <Time>2020-03-07T17:35:50.000Z</Time>
            <Position>
              <LatitudeDegrees>40.6929717957973480224609375</LatitudeDegrees>
              <LongitudeDegrees>-3.7877708114683628082275390625</LongitudeDegrees>
            </Position>
            <AltitudeMeters>931.4000244140625</AltitudeMeters>
            <DistanceMeters>NAN</DistanceMeters>
          </Trackpoint>
          <Trackpoint>
            <Time>2020-03-07T17:35:51.000Z</Time>
            <Position>
              <LatitudeDegrees>40.692923851311206817626953125</LatitudeDegrees>
              <LongitudeDegrees>-3.7877470068633556365966796875</LongitudeDegrees>
            </Position>
            <AltitudeMeters>931.4000244140625</AltitudeMeters>
            <DistanceMeters>NAN</DistanceMeters>
          </Trackpoint>
          <Trackpoint>
            <Time>2020-03-07T17:35:52.000Z</Time>
            <Position>
              <LatitudeDegrees>40.6928750686347484588623046875</LatitudeDegrees>
              <LongitudeDegrees>-3.78772529773414134979248046875</LongitudeDegrees>
            </Position>
            <AltitudeMeters>931.4000244140625</AltitudeMeters>
            <DistanceMeters>NAN</DistanceMeters>
          </Trackpoint>
          <Trackpoint>
            <Time>2020-03-07T17:35:53.000Z</Time>
            <Position>
              <LatitudeDegrees>40.6928261183202266693115234375</LatitudeDegrees>
              <LongitudeDegrees>-3.78770224750041961669921875</LongitudeDegrees>
            </Position>
            <AltitudeMeters>931.4000244140625</AltitudeMeters>
            <DistanceMeters>NAN</DistanceMeters>
          </Trackpoint>
          <Trackpoint>
            <Time>2020-03-07T17:35:54.000Z</Time>
            <Position>
              <LatitudeDegrees>40.6927761621773242950439453125</LatitudeDegrees>
              <LongitudeDegrees>-3.7876779399812221527099609375</LongitudeDegrees>
            </Position>
            <AltitudeMeters>931.4000244140625</AltitudeMeters>
            <DistanceMeters>NAN</DistanceMeters>
          </Trackpoint>
          <Trackpoint>
            <Time>2020-03-07T17:35:55.000Z</Time>
            <Position>
              <LatitudeDegrees>40.69272427819669246673583984375</LatitudeDegrees>
              <LongitudeDegrees>-3.78765136934816837310791015625</LongitudeDegrees>
            </Position>
            <AltitudeMeters>931.4000244140625</AltitudeMeters>
            <DistanceMeters>NAN</DistanceMeters>
          </Trackpoint>
          <Trackpoint>
            <Time>2020-03-07T17:35:56.000Z</Time>
            <Position>
              <LatitudeDegrees>40.69267205893993377685546875</LatitudeDegrees>
              <LongitudeDegrees>-3.78762354142963886260986328125</LongitudeDegrees>
            </Position>
            <AltitudeMeters>931.4000244140625</AltitudeMeters>
            <DistanceMeters>NAN</DistanceMeters>
          </Trackpoint>
          <Trackpoint>
            <Time>2020-03-07T17:35:57.000Z</Time>
            <Position>
              <LatitudeDegrees>40.69261766038835048675537109375</LatitudeDegrees>
              <LongitudeDegrees>-3.78759386949241161346435546875</LongitudeDegrees>
            </Position>
            <AltitudeMeters>931.20001220703125</AltitudeMeters>
            <DistanceMeters>NAN</DistanceMeters>
          </Trackpoint>
          <Trackpoint>
            <Time>2020-03-07T17:35:58.000Z</Time>
            <Position>
              <LatitudeDegrees>40.692562423646450042724609375</LatitudeDegrees>
              <LongitudeDegrees>-3.7875652872025966644287109375</LongitudeDegrees>
            </Position>
            <AltitudeMeters>931.20001220703125</AltitudeMeters>
            <DistanceMeters>NAN</DistanceMeters>
          </Trackpoint>
          <Trackpoint>
            <Time>2020-03-07T17:35:59.000Z</Time>
            <Position>
              <LatitudeDegrees>40.6925049237906932830810546875</LatitudeDegrees>
              <LongitudeDegrees>-3.7875384651124477386474609375</LongitudeDegrees>
            </Position>
            <AltitudeMeters>931.20001220703125</AltitudeMeters>
            <DistanceMeters>NAN</DistanceMeters>
          </Trackpoint>
          <Trackpoint>
            <Time>2020-03-07T17:36:00.000Z</Time>
            <Position>
              <LatitudeDegrees>40.69244666956365108489990234375</LatitudeDegrees>
              <LongitudeDegrees>-3.7875111401081085205078125</LongitudeDegrees>
            </Position>
            <AltitudeMeters>931.20001220703125</AltitudeMeters>
            <DistanceMeters>NAN</DistanceMeters>
          </Trackpoint>
          <Trackpoint>
            <Time>2020-03-07T17:36:01.000Z</Time>
            <Position>
              <LatitudeDegrees>40.6923875771462917327880859375</LatitudeDegrees>
              <LongitudeDegrees>-3.78748322837054729461669921875</LongitudeDegrees>
            </Position>
            <AltitudeMeters>931.20001220703125</AltitudeMeters>
            <DistanceMeters>NAN</DistanceMeters>
          </Trackpoint>
          <Trackpoint>
            <Time>2020-03-07T17:36:02.000Z</Time>
            <Position>
              <LatitudeDegrees>40.6923285685479640960693359375</LatitudeDegrees>
              <LongitudeDegrees>-3.7874543108046054840087890625</LongitudeDegrees>
            </Position>
            <AltitudeMeters>931.20001220703125</AltitudeMeters>
            <DistanceMeters>NAN</DistanceMeters>
          </Trackpoint>
          <Trackpoint>
            <Time>2020-03-07T17:36:03.000Z</Time>
            <Position>
              <LatitudeDegrees>40.692270062863826751708984375</LatitudeDegrees>
              <LongitudeDegrees>-3.7874268181622028350830078125</LongitudeDegrees>
            </Position>
            <AltitudeMeters>931</AltitudeMeters>
            <DistanceMeters>NAN</DistanceMeters>
          </Trackpoint>
          <Trackpoint>
            <Time>2020-03-07T17:36:04.000Z</Time>
            <Position>
              <LatitudeDegrees>40.69221071898937225341796875</LatitudeDegrees>
              <LongitudeDegrees>-3.78739974461495876312255859375</LongitudeDegrees>
            </Position>
            <AltitudeMeters>931</AltitudeMeters>
            <DistanceMeters>NAN</DistanceMeters>
          </Trackpoint>
          <Trackpoint>
            <Time>2020-03-07T17:36:05.000Z</Time>
            <Position>
              <LatitudeDegrees>40.69215129129588603973388671875</LatitudeDegrees>
              <LongitudeDegrees>-3.7873738445341587066650390625</LongitudeDegrees>
            </Position>
            <AltitudeMeters>931</AltitudeMeters>
            <DistanceMeters>NAN</DistanceMeters>
          </Trackpoint>
          <Trackpoint>
            <Time>2020-03-07T17:36:06.000Z</Time>
            <Position>
              <LatitudeDegrees>40.692091025412082672119140625</LatitudeDegrees>
              <LongitudeDegrees>-3.78734685480594635009765625</LongitudeDegrees>
            </Position>
            <AltitudeMeters>930.79998779296875</AltitudeMeters>
            <DistanceMeters>NAN</DistanceMeters>
          </Trackpoint>
          <Trackpoint>
            <Time>2020-03-07T17:36:07.000Z</Time>
            <Position>
              <LatitudeDegrees>40.69203101098537445068359375</LatitudeDegrees>
              <LongitudeDegrees>-3.7873205356299877166748046875</LongitudeDegrees>
            </Position>
            <AltitudeMeters>930.5999755859375</AltitudeMeters>
            <DistanceMeters>NAN</DistanceMeters>
          </Trackpoint>
          <Trackpoint>
            <Time>2020-03-07T17:36:08.000Z</Time>
            <Position>
              <LatitudeDegrees>40.691970996558666229248046875</LatitudeDegrees>
              <LongitudeDegrees>-3.787292875349521636962890625</LongitudeDegrees>
            </Position>
            <AltitudeMeters>930.5999755859375</AltitudeMeters>
            <DistanceMeters>NAN</DistanceMeters>
          </Trackpoint>
          <Trackpoint>
            <Time>2020-03-07T17:36:09.000Z</Time>
            <Position>
              <LatitudeDegrees>40.69191123358905315399169921875</LatitudeDegrees>
              <LongitudeDegrees>-3.7872652150690555572509765625</LongitudeDegrees>
            </Position>
            <AltitudeMeters>930.4000244140625</AltitudeMeters>
            <DistanceMeters>NAN</DistanceMeters>
          </Trackpoint>
          <Trackpoint>
            <Time>2020-03-07T17:36:10.000Z</Time>
            <Position>
              <LatitudeDegrees>40.691851638257503509521484375</LatitudeDegrees>
              <LongitudeDegrees>-3.78723931498825550079345703125</LongitudeDegrees>
            </Position>
            <AltitudeMeters>930.4000244140625</AltitudeMeters>
            <DistanceMeters>NAN</DistanceMeters>
          </Trackpoint>
          <Trackpoint>
            <Time>2020-03-07T17:36:11.000Z</Time>
            <Position>
              <LatitudeDegrees>40.69179095327854156494140625</LatitudeDegrees>
              <LongitudeDegrees>-3.7872122414410114288330078125</LongitudeDegrees>
            </Position>
            <AltitudeMeters>930.4000244140625</AltitudeMeters>
            <DistanceMeters>NAN</DistanceMeters>
          </Trackpoint>
          <Trackpoint>
            <Time>2020-03-07T17:36:12.000Z</Time>
            <Position>
              <LatitudeDegrees>40.69173018448054790496826171875</LatitudeDegrees>
              <LongitudeDegrees>-3.78718500025570392608642578125</LongitudeDegrees>
            </Position>
            <AltitudeMeters>930.20001220703125</AltitudeMeters>
            <DistanceMeters>NAN</DistanceMeters>
          </Trackpoint>
          <Trackpoint>
            <Time>2020-03-07T17:36:13.000Z</Time>
            <Position>
              <LatitudeDegrees>40.6916697509586811065673828125</LatitudeDegrees>
              <LongitudeDegrees>-3.78715801052749156951904296875</LongitudeDegrees>
            </Position>
            <AltitudeMeters>930.20001220703125</AltitudeMeters>
            <DistanceMeters>NAN</DistanceMeters>
          </Trackpoint>
          <Trackpoint>
            <Time>2020-03-07T17:36:14.000Z</Time>
            <Position>
              <LatitudeDegrees>40.69160881452262401580810546875</LatitudeDegrees>
              <LongitudeDegrees>-3.787131942808628082275390625</LongitudeDegrees>
            </Position>
            <AltitudeMeters>930.20001220703125</AltitudeMeters>
            <DistanceMeters>NAN</DistanceMeters>
          </Trackpoint>
          <Trackpoint>
            <Time>2020-03-07T17:36:15.000Z</Time>
            <Position>
              <LatitudeDegrees>40.691548548638820648193359375</LatitudeDegrees>
              <LongitudeDegrees>-3.787104785442352294921875</LongitudeDegrees>
            </Position>
            <AltitudeMeters>930</AltitudeMeters>
            <DistanceMeters>NAN</DistanceMeters>
          </Trackpoint>
          <Trackpoint>
            <Time>2020-03-07T17:36:16.000Z</Time>
            <Position>
              <LatitudeDegrees>40.691488198935985565185546875</LatitudeDegrees>
              <LongitudeDegrees>-3.78707729279994964599609375</LongitudeDegrees>
            </Position>
            <AltitudeMeters>930</AltitudeMeters>
            <DistanceMeters>NAN</DistanceMeters>
          </Trackpoint>
          <Trackpoint>
            <Time>2020-03-07T17:36:17.000Z</Time>
            <Position>
              <LatitudeDegrees>40.69142759777605533599853515625</LatitudeDegrees>
              <LongitudeDegrees>-3.7870498001575469970703125</LongitudeDegrees>
            </Position>
            <AltitudeMeters>930</AltitudeMeters>
            <DistanceMeters>NAN</DistanceMeters>
          </Trackpoint>
          <Trackpoint>
            <Time>2020-03-07T17:36:18.000Z</Time>
            <Position>
              <LatitudeDegrees>40.69136716425418853759765625</LatitudeDegrees>
              <LongitudeDegrees>-3.78702322952449321746826171875</LongitudeDegrees>
            </Position>
            <AltitudeMeters>929.79998779296875</AltitudeMeters>
            <DistanceMeters>NAN</DistanceMeters>
          </Trackpoint>
          <Trackpoint>
            <Time>2020-03-07T17:36:19.000Z</Time>
            <Position>
              <LatitudeDegrees>40.69130547344684600830078125</LatitudeDegrees>
              <LongitudeDegrees>-3.78699691034853458404541015625</LongitudeDegrees>
            </Position>
            <AltitudeMeters>929.79998779296875</AltitudeMeters>
            <DistanceMeters>NAN</DistanceMeters>
          </Trackpoint>
          <Trackpoint>
            <Time>2020-03-07T17:36:20.000Z</Time>
            <Position>
              <LatitudeDegrees>40.69124369882047176361083984375</LatitudeDegrees>
              <LongitudeDegrees>-3.7869725190103054046630859375</LongitudeDegrees>
            </Position>
            <AltitudeMeters>929.79998779296875</AltitudeMeters>
            <DistanceMeters>NAN</DistanceMeters>
          </Trackpoint>
          <Trackpoint>
            <Time>2020-03-07T17:36:21.000Z</Time>
            <Position>
              <LatitudeDegrees>40.6911827623844146728515625</LatitudeDegrees>
              <LongitudeDegrees>-3.7869497202336788177490234375</LongitudeDegrees>
            </Position>
            <AltitudeMeters>929.79998779296875</AltitudeMeters>
            <DistanceMeters>NAN</DistanceMeters>
          </Trackpoint>
          <Trackpoint>
            <Time>2020-03-07T17:36:22.000Z</Time>
            <Position>
              <LatitudeDegrees>40.69112048484385013580322265625</LatitudeDegrees>
              <LongitudeDegrees>-3.78692708909511566162109375</LongitudeDegrees>
            </Position>
            <AltitudeMeters>929.5999755859375</AltitudeMeters>
            <DistanceMeters>NAN</DistanceMeters>
          </Trackpoint>
          <Trackpoint>
            <Time>2020-03-07T17:36:23.000Z</Time>
            <Position>
              <LatitudeDegrees>40.69105845876038074493408203125</LatitudeDegrees>
              <LongitudeDegrees>-3.78690521232783794403076171875</LongitudeDegrees>
            </Position>
            <AltitudeMeters>929.5999755859375</AltitudeMeters>
            <DistanceMeters>NAN</DistanceMeters>
          </Trackpoint>
          <Trackpoint>
            <Time>2020-03-07T17:36:24.000Z</Time>
            <Position>
              <LatitudeDegrees>40.69099743850529193878173828125</LatitudeDegrees>
              <LongitudeDegrees>-3.78688425756990909576416015625</LongitudeDegrees>
            </Position>
            <AltitudeMeters>929.5999755859375</AltitudeMeters>
            <DistanceMeters>NAN</DistanceMeters>
          </Trackpoint>
          <Trackpoint>
            <Time>2020-03-07T17:36:25.000Z</Time>
            <Position>
              <LatitudeDegrees>40.69093457423150539398193359375</LatitudeDegrees>
              <LongitudeDegrees>-3.786863051354885101318359375</LongitudeDegrees>
            </Position>
            <AltitudeMeters>929.5999755859375</AltitudeMeters>
            <DistanceMeters>NAN</DistanceMeters>
          </Trackpoint>
          <Trackpoint>
            <Time>2020-03-07T17:36:26.000Z</Time>
            <Position>
              <LatitudeDegrees>40.6908741407096385955810546875</LatitudeDegrees>
              <LongitudeDegrees>-3.78684268333017826080322265625</LongitudeDegrees>
            </Position>
            <AltitudeMeters>929.5999755859375</AltitudeMeters>
            <DistanceMeters>NAN</DistanceMeters>
          </Trackpoint>
          <Trackpoint>
            <Time>2020-03-07T17:36:27.000Z</Time>
            <Position>
              <LatitudeDegrees>40.690813623368740081787109375</LatitudeDegrees>
              <LongitudeDegrees>-3.78682382404804229736328125</LongitudeDegrees>
            </Position>
            <AltitudeMeters>929.5999755859375</AltitudeMeters>
            <DistanceMeters>NAN</DistanceMeters>
          </Trackpoint>
          <Trackpoint>
            <Time>2020-03-07T17:36:28.000Z</Time>
            <Position>
              <LatitudeDegrees>40.6907531060278415679931640625</LatitudeDegrees>
              <LongitudeDegrees>-3.7868042103946208953857421875</LongitudeDegrees>
            </Position>
            <AltitudeMeters>929.5999755859375</AltitudeMeters>
            <DistanceMeters>NAN</DistanceMeters>
          </Trackpoint>
          <Trackpoint>
            <Time>2020-03-07T17:36:29.000Z</Time>
            <Position>
              <LatitudeDegrees>40.69069334305822849273681640625</LatitudeDegrees>
              <LongitudeDegrees>-3.78678518347442150115966796875</LongitudeDegrees>
            </Position>
            <AltitudeMeters>929.5999755859375</AltitudeMeters>
            <DistanceMeters>NAN</DistanceMeters>
          </Trackpoint>
          <Trackpoint>
            <Time>2020-03-07T17:36:30.000Z</Time>
            <Position>
              <LatitudeDegrees>40.69063466973602771759033203125</LatitudeDegrees>
              <LongitudeDegrees>-3.78676724620163440704345703125</LongitudeDegrees>
            </Position>
            <AltitudeMeters>929.5999755859375</AltitudeMeters>
            <DistanceMeters>NAN</DistanceMeters>
          </Trackpoint>
          <Trackpoint>
            <Time>2020-03-07T17:36:31.000Z</Time>
            <Position>
              <LatitudeDegrees>40.690576918423175811767578125</LatitudeDegrees>
              <LongitudeDegrees>-3.786750398576259613037109375</LongitudeDegrees>
            </Position>
            <AltitudeMeters>929.5999755859375</AltitudeMeters>
            <DistanceMeters>NAN</DistanceMeters>
          </Trackpoint>
          <Trackpoint>
            <Time>2020-03-07T17:36:32.000Z</Time>
            <Position>
              <LatitudeDegrees>40.690523274242877960205078125</LatitudeDegrees>
              <LongitudeDegrees>-3.78673673607409000396728515625</LongitudeDegrees>
            </Position>
            <AltitudeMeters>929.5999755859375</AltitudeMeters>
            <DistanceMeters>NAN</DistanceMeters>
          </Trackpoint>
          <Trackpoint>
            <Time>2020-03-07T17:36:33.000Z</Time>
            <Position>
              <LatitudeDegrees>40.69047038443386554718017578125</LatitudeDegrees>
              <LongitudeDegrees>-3.78672324120998382568359375</LongitudeDegrees>
            </Position>
            <AltitudeMeters>929.5999755859375</AltitudeMeters>
            <DistanceMeters>NAN</DistanceMeters>
          </Trackpoint>
          <Trackpoint>
            <Time>2020-03-07T17:36:34.000Z</Time>
            <Position>
              <LatitudeDegrees>40.6904218532145023345947265625</LatitudeDegrees>
              <LongitudeDegrees>-3.78671242855489253997802734375</LongitudeDegrees>
            </Position>
            <AltitudeMeters>929.5999755859375</AltitudeMeters>
            <DistanceMeters>NAN</DistanceMeters>
          </Trackpoint>
          <Trackpoint>
            <Time>2020-03-07T17:36:35.000Z</Time>
            <Position>
              <LatitudeDegrees>40.69037139415740966796875</LatitudeDegrees>
              <LongitudeDegrees>-3.78670019097626209259033203125</LongitudeDegrees>
            </Position>
            <AltitudeMeters>929.5999755859375</AltitudeMeters>
            <DistanceMeters>NAN</DistanceMeters>
          </Trackpoint>
          <Trackpoint>
            <Time>2020-03-07T17:36:36.000Z</Time>
            <Position>
              <LatitudeDegrees>40.69032135419547557830810546875</LatitudeDegrees>
              <LongitudeDegrees>-3.78668879158794879913330078125</LongitudeDegrees>
            </Position>
            <AltitudeMeters>929.5999755859375</AltitudeMeters>
            <DistanceMeters>NAN</DistanceMeters>
          </Trackpoint>
          <Trackpoint>
            <Time>2020-03-07T17:36:37.000Z</Time>
            <Position>
              <LatitudeDegrees>40.690273158252239227294921875</LatitudeDegrees>
              <LongitudeDegrees>-3.78667688928544521331787109375</LongitudeDegrees>
            </Position>
            <AltitudeMeters>929.5999755859375</AltitudeMeters>
            <DistanceMeters>NAN</DistanceMeters>
          </Trackpoint>
          <Trackpoint>
            <Time>2020-03-07T17:36:38.000Z</Time>
            <Position>
              <LatitudeDegrees>40.6902233697474002838134765625</LatitudeDegrees>
              <LongitudeDegrees>-3.7866630591452121734619140625</LongitudeDegrees>
            </Position>
            <AltitudeMeters>929.5999755859375</AltitudeMeters>
            <DistanceMeters>NAN</DistanceMeters>
          </Trackpoint>
          <Trackpoint>
            <Time>2020-03-07T17:36:39.000Z</Time>
            <Position>
              <LatitudeDegrees>40.69017416797578334808349609375</LatitudeDegrees>
              <LongitudeDegrees>-3.78664922900497913360595703125</LongitudeDegrees>
            </Position>
            <AltitudeMeters>929.79998779296875</AltitudeMeters>
            <DistanceMeters>NAN</DistanceMeters>
          </Trackpoint>
          <Trackpoint>
            <Time>2020-03-07T17:36:40.000Z</Time>
            <Position>
              <LatitudeDegrees>40.69012672640383243560791015625</LatitudeDegrees>
              <LongitudeDegrees>-3.7866362370550632476806640625</LongitudeDegrees>
            </Position>
            <AltitudeMeters>930</AltitudeMeters>
            <DistanceMeters>NAN</DistanceMeters>
          </Trackpoint>
          <Trackpoint>
            <Time>2020-03-07T17:36:41.000Z</Time>
            <Position>
              <LatitudeDegrees>40.69007861427962779998779296875</LatitudeDegrees>
              <LongitudeDegrees>-3.78662341274321079254150390625</LongitudeDegrees>
            </Position>
            <AltitudeMeters>930</AltitudeMeters>
            <DistanceMeters>NAN</DistanceMeters>
          </Trackpoint>
          <Trackpoint>
            <Time>2020-03-07T17:36:42.000Z</Time>
            <Position>
              <LatitudeDegrees>40.690029747784137725830078125</LatitudeDegrees>
              <LongitudeDegrees>-3.7866107560694217681884765625</LongitudeDegrees>
            </Position>
            <AltitudeMeters>930.20001220703125</AltitudeMeters>
            <DistanceMeters>NAN</DistanceMeters>
          </Trackpoint>
          <Trackpoint>
            <Time>2020-03-07T17:36:43.000Z</Time>
            <Position>
              <LatitudeDegrees>40.689981468021869659423828125</LatitudeDegrees>
              <LongitudeDegrees>-3.786598853766918182373046875</LongitudeDegrees>
            </Position>
            <AltitudeMeters>930.20001220703125</AltitudeMeters>
            <DistanceMeters>NAN</DistanceMeters>
          </Trackpoint>
          <Trackpoint>
            <Time>2020-03-07T17:36:44.000Z</Time>
            <Position>
              <LatitudeDegrees>40.68993176333606243133544921875</LatitudeDegrees>
              <LongitudeDegrees>-3.78658670000731945037841796875</LongitudeDegrees>
            </Position>
            <AltitudeMeters>930.20001220703125</AltitudeMeters>
            <DistanceMeters>NAN</DistanceMeters>
          </Trackpoint>
          <Trackpoint>
            <Time>2020-03-07T17:36:45.000Z</Time>
            <Position>
              <LatitudeDegrees>40.6898833997547626495361328125</LatitudeDegrees>
              <LongitudeDegrees>-3.7865735404193401336669921875</LongitudeDegrees>
            </Position>
            <AltitudeMeters>930.20001220703125</AltitudeMeters>
            <DistanceMeters>NAN</DistanceMeters>
          </Trackpoint>
          <Trackpoint>
            <Time>2020-03-07T17:36:46.000Z</Time>
            <Position>
              <LatitudeDegrees>40.68983369506895542144775390625</LatitudeDegrees>
              <LongitudeDegrees>-3.7865594588220119476318359375</LongitudeDegrees>
            </Position>
            <AltitudeMeters>930.20001220703125</AltitudeMeters>
            <DistanceMeters>NAN</DistanceMeters>
          </Trackpoint>
          <Trackpoint>
            <Time>2020-03-07T17:36:47.000Z</Time>
            <Position>
              <LatitudeDegrees>40.68978373892605304718017578125</LatitudeDegrees>
              <LongitudeDegrees>-3.78654378466308116912841796875</LongitudeDegrees>
            </Position>
            <AltitudeMeters>930.20001220703125</AltitudeMeters>
            <DistanceMeters>NAN</DistanceMeters>
          </Trackpoint>
          <Trackpoint>
            <Time>2020-03-07T17:36:48.000Z</Time>
            <Position>
              <LatitudeDegrees>40.6897325254976749420166015625</LatitudeDegrees>
              <LongitudeDegrees>-3.78652735613286495208740234375</LongitudeDegrees>
            </Position>
            <AltitudeMeters>930.20001220703125</AltitudeMeters>
            <DistanceMeters>NAN</DistanceMeters>
          </Trackpoint>
          <Trackpoint>
            <Time>2020-03-07T17:36:49.000Z</Time>
            <Position>
              <LatitudeDegrees>40.68968349136412143707275390625</LatitudeDegrees>
              <LongitudeDegrees>-3.7865121848881244659423828125</LongitudeDegrees>
            </Position>
            <AltitudeMeters>930.20001220703125</AltitudeMeters>
            <DistanceMeters>NAN</DistanceMeters>
          </Trackpoint>
          <Trackpoint>
            <Time>2020-03-07T17:36:50.000Z</Time>
            <Position>
              <LatitudeDegrees>40.68963311612606048583984375</LatitudeDegrees>
              <LongitudeDegrees>-3.7864972651004791259765625</LongitudeDegrees>
            </Position>
            <AltitudeMeters>930.4000244140625</AltitudeMeters>
            <DistanceMeters>NAN</DistanceMeters>
          </Trackpoint>
          <Trackpoint>
            <Time>2020-03-07T17:36:51.000Z</Time>
            <Position>
              <LatitudeDegrees>40.68958282470703125</LatitudeDegrees>
              <LongitudeDegrees>-3.786484189331531524658203125</LongitudeDegrees>
            </Position>
            <AltitudeMeters>930.4000244140625</AltitudeMeters>
            <DistanceMeters>NAN</DistanceMeters>
          </Trackpoint>
          <Trackpoint>
            <Time>2020-03-07T17:36:52.000Z</Time>
            <Position>
              <LatitudeDegrees>40.689532198011875152587890625</LatitudeDegrees>
              <LongitudeDegrees>-3.786472119390964508056640625</LongitudeDegrees>
            </Position>
            <AltitudeMeters>930.20001220703125</AltitudeMeters>
            <DistanceMeters>NAN</DistanceMeters>
          </Trackpoint>
          <Trackpoint>
            <Time>2020-03-07T17:36:53.000Z</Time>
            <Position>
              <LatitudeDegrees>40.68948199041187763214111328125</LatitudeDegrees>
              <LongitudeDegrees>-3.78646013326942920684814453125</LongitudeDegrees>
            </Position>
            <AltitudeMeters>930.20001220703125</AltitudeMeters>
            <DistanceMeters>NAN</DistanceMeters>
          </Trackpoint>
          <Trackpoint>
            <Time>2020-03-07T17:36:54.000Z</Time>
            <Position>
              <LatitudeDegrees>40.68943169899284839630126953125</LatitudeDegrees>
              <LongitudeDegrees>-3.78644739277660846710205078125</LongitudeDegrees>
            </Position>
            <AltitudeMeters>930.20001220703125</AltitudeMeters>
            <DistanceMeters>NAN</DistanceMeters>
          </Trackpoint>
          <Trackpoint>
            <Time>2020-03-07T17:36:55.000Z</Time>
            <Position>
              <LatitudeDegrees>40.6893824972212314605712890625</LatitudeDegrees>
              <LongitudeDegrees>-3.78643448464572429656982421875</LongitudeDegrees>
            </Position>
            <AltitudeMeters>930.20001220703125</AltitudeMeters>
            <DistanceMeters>NAN</DistanceMeters>
          </Trackpoint>
          <Trackpoint>
            <Time>2020-03-07T17:36:56.000Z</Time>
            <Position>
              <LatitudeDegrees>40.689333379268646240234375</LatitudeDegrees>
              <LongitudeDegrees>-3.78642040304839611053466796875</LongitudeDegrees>
            </Position>
            <AltitudeMeters>930.20001220703125</AltitudeMeters>
            <DistanceMeters>NAN</DistanceMeters>
          </Trackpoint>
          <Trackpoint>
            <Time>2020-03-07T17:36:57.000Z</Time>
            <Position>
              <LatitudeDegrees>40.6892825849354267120361328125</LatitudeDegrees>
              <LongitudeDegrees>-3.786407411098480224609375</LongitudeDegrees>
            </Position>
            <AltitudeMeters>930.20001220703125</AltitudeMeters>
            <DistanceMeters>NAN</DistanceMeters>
          </Trackpoint>
          <Trackpoint>
            <Time>2020-03-07T17:36:58.000Z</Time>
            <Position>
              <LatitudeDegrees>40.68923220969736576080322265625</LatitudeDegrees>
              <LongitudeDegrees>-3.78639358095824718475341796875</LongitudeDegrees>
            </Position>
            <AltitudeMeters>930.20001220703125</AltitudeMeters>
            <DistanceMeters>NAN</DistanceMeters>
          </Trackpoint>
          <Trackpoint>
            <Time>2020-03-07T17:36:59.000Z</Time>
            <Position>
              <LatitudeDegrees>40.6891816668212413787841796875</LatitudeDegrees>
              <LongitudeDegrees>-3.78637983463704586029052734375</LongitudeDegrees>
            </Position>
            <AltitudeMeters>930.20001220703125</AltitudeMeters>
            <DistanceMeters>NAN</DistanceMeters>
          </Trackpoint>
          <Trackpoint>
            <Time>2020-03-07T17:37:00.000Z</Time>
            <Position>
              <LatitudeDegrees>40.68913062103092670440673828125</LatitudeDegrees>
              <LongitudeDegrees>-3.786366172134876251220703125</LongitudeDegrees>
            </Position>
            <AltitudeMeters>930.20001220703125</AltitudeMeters>
            <DistanceMeters>NAN</DistanceMeters>
          </Trackpoint>
          <Trackpoint>
            <Time>2020-03-07T17:37:01.000Z</Time>
            <Position>
              <LatitudeDegrees>40.689077563583850860595703125</LatitudeDegrees>
              <LongitudeDegrees>-3.78635183908045291900634765625</LongitudeDegrees>
            </Position>
            <AltitudeMeters>930.20001220703125</AltitudeMeters>
            <DistanceMeters>NAN</DistanceMeters>
          </Trackpoint>
          <Trackpoint>
            <Time>2020-03-07T17:37:02.000Z</Time>
            <Position>
              <LatitudeDegrees>40.6890260986983776092529296875</LatitudeDegrees>
              <LongitudeDegrees>-3.7863378413021564483642578125</LongitudeDegrees>
            </Position>
            <AltitudeMeters>930.20001220703125</AltitudeMeters>
            <DistanceMeters>NAN</DistanceMeters>
          </Trackpoint>
          <Trackpoint>
            <Time>2020-03-07T17:37:03.000Z</Time>
            <Position>
              <LatitudeDegrees>40.6889753043651580810546875</LatitudeDegrees>
              <LongitudeDegrees>-3.786323256790637969970703125</LongitudeDegrees>
            </Position>
            <AltitudeMeters>930.20001220703125</AltitudeMeters>
            <DistanceMeters>NAN</DistanceMeters>
          </Trackpoint>
          <Trackpoint>
            <Time>2020-03-07T17:37:04.000Z</Time>
            <Position>
              <LatitudeDegrees>40.6889255158603191375732421875</LatitudeDegrees>
              <LongitudeDegrees>-3.7863093428313732147216796875</LongitudeDegrees>
            </Position>
            <AltitudeMeters>930.20001220703125</AltitudeMeters>
            <DistanceMeters>NAN</DistanceMeters>
          </Trackpoint>
          <Trackpoint>
            <Time>2020-03-07T17:37:05.000Z</Time>
            <Position>
              <LatitudeDegrees>40.68887597881257534027099609375</LatitudeDegrees>
              <LongitudeDegrees>-3.786295093595981597900390625</LongitudeDegrees>
            </Position>
            <AltitudeMeters>930.20001220703125</AltitudeMeters>
            <DistanceMeters>NAN</DistanceMeters>
          </Trackpoint>
          <Trackpoint>
            <Time>2020-03-07T17:37:06.000Z</Time>
            <Position>
              <LatitudeDegrees>40.6888262741267681121826171875</LatitudeDegrees>
              <LongitudeDegrees>-3.7862805090844631195068359375</LongitudeDegrees>
            </Position>
            <AltitudeMeters>930.20001220703125</AltitudeMeters>
            <DistanceMeters>NAN</DistanceMeters>
          </Trackpoint>
          <Trackpoint>
            <Time>2020-03-07T17:37:07.000Z</Time>
            <Position>
              <LatitudeDegrees>40.688775815069675445556640625</LatitudeDegrees>
              <LongitudeDegrees>-3.7862665951251983642578125</LongitudeDegrees>
            </Position>
            <AltitudeMeters>930.20001220703125</AltitudeMeters>
            <DistanceMeters>NAN</DistanceMeters>
          </Trackpoint>
          <Trackpoint>
            <Time>2020-03-07T17:37:08.000Z</Time>
            <Position>
              <LatitudeDegrees>40.68872443400323390960693359375</LatitudeDegrees>
              <LongitudeDegrees>-3.78625326789915561676025390625</LongitudeDegrees>
            </Position>
            <AltitudeMeters>930.20001220703125</AltitudeMeters>
            <DistanceMeters>NAN</DistanceMeters>
          </Trackpoint>
          <Trackpoint>
            <Time>2020-03-07T17:37:09.000Z</Time>
            <Position>
              <LatitudeDegrees>40.688673220574855804443359375</LatitudeDegrees>
              <LongitudeDegrees>-3.78623968921601772308349609375</LongitudeDegrees>
            </Position>
            <AltitudeMeters>930.20001220703125</AltitudeMeters>
            <DistanceMeters>NAN</DistanceMeters>
          </Trackpoint>
          <Trackpoint>
            <Time>2020-03-07T17:37:10.000Z</Time>
            <Position>
              <LatitudeDegrees>40.6886210851371288299560546875</LatitudeDegrees>
              <LongitudeDegrees>-3.78622435033321380615234375</LongitudeDegrees>
            </Position>
            <AltitudeMeters>930.20001220703125</AltitudeMeters>
            <DistanceMeters>NAN</DistanceMeters>
          </Trackpoint>
          <Trackpoint>
            <Time>2020-03-07T17:37:11.000Z</Time>
            <Position>
              <LatitudeDegrees>40.6885691173374652862548828125</LatitudeDegrees>
              <LongitudeDegrees>-3.7862094305455684661865234375</LongitudeDegrees>
            </Position>
            <AltitudeMeters>930.4000244140625</AltitudeMeters>
            <DistanceMeters>NAN</DistanceMeters>
          </Trackpoint>
          <Trackpoint>
            <Time>2020-03-07T17:37:12.000Z</Time>
            <Position>
              <LatitudeDegrees>40.68851840682327747344970703125</LatitudeDegrees>
              <LongitudeDegrees>-3.7861953489482402801513671875</LongitudeDegrees>
            </Position>
            <AltitudeMeters>930.4000244140625</AltitudeMeters>
            <DistanceMeters>NAN</DistanceMeters>
          </Trackpoint>
          <Trackpoint>
            <Time>2020-03-07T17:37:13.000Z</Time>
            <Position>
              <LatitudeDegrees>40.6884678639471530914306640625</LatitudeDegrees>
              <LongitudeDegrees>-3.7861812673509120941162109375</LongitudeDegrees>
            </Position>
            <AltitudeMeters>930.4000244140625</AltitudeMeters>
            <DistanceMeters>NAN</DistanceMeters>
          </Trackpoint>
          <Trackpoint>
            <Time>2020-03-07T17:37:14.000Z</Time>
            <Position>
              <LatitudeDegrees>40.68841673433780670166015625</LatitudeDegrees>
              <LongitudeDegrees>-3.786168359220027923583984375</LongitudeDegrees>
            </Position>
            <AltitudeMeters>930.4000244140625</AltitudeMeters>
            <DistanceMeters>NAN</DistanceMeters>
          </Trackpoint>
          <Trackpoint>
            <Time>2020-03-07T17:37:15.000Z</Time>
            <Position>
              <LatitudeDegrees>40.68836535327136516571044921875</LatitudeDegrees>
              <LongitudeDegrees>-3.78615503199398517608642578125</LongitudeDegrees>
            </Position>
            <AltitudeMeters>930.4000244140625</AltitudeMeters>
            <DistanceMeters>NAN</DistanceMeters>
          </Trackpoint>
          <Trackpoint>
            <Time>2020-03-07T17:37:16.000Z</Time>
            <Position>
              <LatitudeDegrees>40.68831439130008220672607421875</LatitudeDegrees>
              <LongitudeDegrees>-3.786142207682132720947265625</LongitudeDegrees>
            </Position>
            <AltitudeMeters>930.4000244140625</AltitudeMeters>
            <DistanceMeters>NAN</DistanceMeters>
          </Trackpoint>
          <Trackpoint>
            <Time>2020-03-07T17:37:17.000Z</Time>
            <Position>
              <LatitudeDegrees>40.68826242350041866302490234375</LatitudeDegrees>
              <LongitudeDegrees>-3.78612737171351909637451171875</LongitudeDegrees>
            </Position>
            <AltitudeMeters>930.4000244140625</AltitudeMeters>
            <DistanceMeters>NAN</DistanceMeters>
          </Trackpoint>
          <Trackpoint>
            <Time>2020-03-07T17:37:18.000Z</Time>
            <Position>
              <LatitudeDegrees>40.68821012042462825775146484375</LatitudeDegrees>
              <LongitudeDegrees>-3.78611161373555660247802734375</LongitudeDegrees>
            </Position>
            <AltitudeMeters>930.4000244140625</AltitudeMeters>
            <DistanceMeters>NAN</DistanceMeters>
          </Trackpoint>
          <Trackpoint>
            <Time>2020-03-07T17:37:19.000Z</Time>
            <Position>
              <LatitudeDegrees>40.68815681152045726776123046875</LatitudeDegrees>
              <LongitudeDegrees>-3.7860961072146892547607421875</LongitudeDegrees>
            </Position>
            <AltitudeMeters>930.4000244140625</AltitudeMeters>
            <DistanceMeters>NAN</DistanceMeters>
          </Trackpoint>
          <Trackpoint>
            <Time>2020-03-07T17:37:20.000Z</Time>
            <Position>
              <LatitudeDegrees>40.68810216151177883148193359375</LatitudeDegrees>
              <LongitudeDegrees>-3.78608076833188533782958984375</LongitudeDegrees>
            </Position>
            <AltitudeMeters>930.4000244140625</AltitudeMeters>
            <DistanceMeters>NAN</DistanceMeters>
          </Trackpoint>
          <Trackpoint>
            <Time>2020-03-07T17:37:21.000Z</Time>
            <Position>
              <LatitudeDegrees>40.688048265874385833740234375</LatitudeDegrees>
              <LongitudeDegrees>-3.7860655970871448516845703125</LongitudeDegrees>
            </Position>
            <AltitudeMeters>930.4000244140625</AltitudeMeters>
            <DistanceMeters>NAN</DistanceMeters>
          </Trackpoint>
          <Trackpoint>
            <Time>2020-03-07T17:37:22.000Z</Time>
            <Position>
              <LatitudeDegrees>40.6879951246082782745361328125</LatitudeDegrees>
              <LongitudeDegrees>-3.78605059348046779632568359375</LongitudeDegrees>
            </Position>
            <AltitudeMeters>930.5999755859375</AltitudeMeters>
            <DistanceMeters>NAN</DistanceMeters>
          </Trackpoint>
          <Trackpoint>
            <Time>2020-03-07T17:37:23.000Z</Time>
            <Position>
              <LatitudeDegrees>40.6879421509802341461181640625</LatitudeDegrees>
              <LongitudeDegrees>-3.78603433258831501007080078125</LongitudeDegrees>
            </Position>
            <AltitudeMeters>930.5999755859375</AltitudeMeters>
            <DistanceMeters>NAN</DistanceMeters>
          </Trackpoint>
          <Trackpoint>
            <Time>2020-03-07T17:37:24.000Z</Time>
            <Position>
              <LatitudeDegrees>40.68788959644734859466552734375</LatitudeDegrees>
              <LongitudeDegrees>-3.7860186584293842315673828125</LongitudeDegrees>
            </Position>
            <AltitudeMeters>930.5999755859375</AltitudeMeters>
            <DistanceMeters>NAN</DistanceMeters>
          </Trackpoint>
          <Trackpoint>
            <Time>2020-03-07T17:37:25.000Z</Time>
            <Position>
              <LatitudeDegrees>40.68783662281930446624755859375</LatitudeDegrees>
              <LongitudeDegrees>-3.7860029004514217376708984375</LongitudeDegrees>
            </Position>
            <AltitudeMeters>930.5999755859375</AltitudeMeters>
            <DistanceMeters>NAN</DistanceMeters>
          </Trackpoint>
          <Trackpoint>
            <Time>2020-03-07T17:37:26.000Z</Time>
            <Position>
              <LatitudeDegrees>40.687782727181911468505859375</LatitudeDegrees>
              <LongitudeDegrees>-3.78598672337830066680908203125</LongitudeDegrees>
            </Position>
            <AltitudeMeters>930.5999755859375</AltitudeMeters>
            <DistanceMeters>NAN</DistanceMeters>
          </Trackpoint>
          <Trackpoint>
            <Time>2020-03-07T17:37:27.000Z</Time>
            <Position>
              <LatitudeDegrees>40.68772983737289905548095703125</LatitudeDegrees>
              <LongitudeDegrees>-3.7859713844954967498779296875</LongitudeDegrees>
            </Position>
            <AltitudeMeters>930.5999755859375</AltitudeMeters>
            <DistanceMeters>NAN</DistanceMeters>
          </Trackpoint>
          <Trackpoint>
            <Time>2020-03-07T17:37:28.000Z</Time>
            <Position>
              <LatitudeDegrees>40.68767602555453777313232421875</LatitudeDegrees>
              <LongitudeDegrees>-3.78595705144107341766357421875</LongitudeDegrees>
            </Position>
            <AltitudeMeters>930.5999755859375</AltitudeMeters>
            <DistanceMeters>NAN</DistanceMeters>
          </Trackpoint>
          <Trackpoint>
            <Time>2020-03-07T17:37:29.000Z</Time>
            <Position>
              <LatitudeDegrees>40.68762221373617649078369140625</LatitudeDegrees>
              <LongitudeDegrees>-3.785943053662776947021484375</LongitudeDegrees>
            </Position>
            <AltitudeMeters>930.5999755859375</AltitudeMeters>
            <DistanceMeters>NAN</DistanceMeters>
          </Trackpoint>
          <Trackpoint>
            <Time>2020-03-07T17:37:30.000Z</Time>
            <Position>
              <LatitudeDegrees>40.6875698268413543701171875</LatitudeDegrees>
              <LongitudeDegrees>-3.7859284691512584686279296875</LongitudeDegrees>
            </Position>
            <AltitudeMeters>930.5999755859375</AltitudeMeters>
            <DistanceMeters>NAN</DistanceMeters>
          </Trackpoint>
          <Trackpoint>
            <Time>2020-03-07T17:37:31.000Z</Time>
            <Position>
              <LatitudeDegrees>40.68751475773751735687255859375</LatitudeDegrees>
              <LongitudeDegrees>-3.7859147228300571441650390625</LongitudeDegrees>
            </Position>
            <AltitudeMeters>930.5999755859375</AltitudeMeters>
            <DistanceMeters>NAN</DistanceMeters>
          </Trackpoint>
          <Trackpoint>
            <Time>2020-03-07T17:37:32.000Z</Time>
            <Position>
              <LatitudeDegrees>40.6874610297381877899169921875</LatitudeDegrees>
              <LongitudeDegrees>-3.7859009765088558197021484375</LongitudeDegrees>
            </Position>
            <AltitudeMeters>930.5999755859375</AltitudeMeters>
            <DistanceMeters>NAN</DistanceMeters>
          </Trackpoint>
          <Trackpoint>
            <Time>2020-03-07T17:37:33.000Z</Time>
            <Position>
              <LatitudeDegrees>40.68740746937692165374755859375</LatitudeDegrees>
              <LongitudeDegrees>-3.7858875654637813568115234375</LongitudeDegrees>
            </Position>
            <AltitudeMeters>930.5999755859375</AltitudeMeters>
            <DistanceMeters>NAN</DistanceMeters>
          </Trackpoint>
          <Trackpoint>
            <Time>2020-03-07T17:37:34.000Z</Time>
            <Position>
              <LatitudeDegrees>40.68735298700630664825439453125</LatitudeDegrees>
              <LongitudeDegrees>-3.78587306477129459381103515625</LongitudeDegrees>
            </Position>
            <AltitudeMeters>930.5999755859375</AltitudeMeters>
            <DistanceMeters>NAN</DistanceMeters>
          </Trackpoint>
          <Trackpoint>
            <Time>2020-03-07T17:37:35.000Z</Time>
            <Position>
              <LatitudeDegrees>40.6872987560927867889404296875</LatitudeDegrees>
              <LongitudeDegrees>-3.7858583964407444000244140625</LongitudeDegrees>
            </Position>
            <AltitudeMeters>930.5999755859375</AltitudeMeters>
            <DistanceMeters>NAN</DistanceMeters>
          </Trackpoint>
          <Trackpoint>
            <Time>2020-03-07T17:37:36.000Z</Time>
            <Position>
              <LatitudeDegrees>40.68724536336958408355712890625</LatitudeDegrees>
              <LongitudeDegrees>-3.785843811929225921630859375</LongitudeDegrees>
            </Position>
            <AltitudeMeters>930.5999755859375</AltitudeMeters>
            <DistanceMeters>NAN</DistanceMeters>
          </Trackpoint>
          <Trackpoint>
            <Time>2020-03-07T17:37:37.000Z</Time>
            <Position>
              <LatitudeDegrees>40.68719272501766681671142578125</LatitudeDegrees>
              <LongitudeDegrees>-3.7858298979699611663818359375</LongitudeDegrees>
            </Position>
            <AltitudeMeters>930.5999755859375</AltitudeMeters>
            <DistanceMeters>NAN</DistanceMeters>
          </Trackpoint>
          <Trackpoint>
            <Time>2020-03-07T17:37:38.000Z</Time>
            <Position>
              <LatitudeDegrees>40.68713924847543239593505859375</LatitudeDegrees>
              <LongitudeDegrees>-3.785816989839076995849609375</LongitudeDegrees>
            </Position>
            <AltitudeMeters>930.5999755859375</AltitudeMeters>
            <DistanceMeters>NAN</DistanceMeters>
          </Trackpoint>
          <Trackpoint>
            <Time>2020-03-07T17:37:39.000Z</Time>
            <Position>
              <LatitudeDegrees>40.68708526901900768280029296875</LatitudeDegrees>
              <LongitudeDegrees>-3.78580433316528797149658203125</LongitudeDegrees>
            </Position>
            <AltitudeMeters>930.5999755859375</AltitudeMeters>
            <DistanceMeters>NAN</DistanceMeters>
          </Trackpoint>
          <Trackpoint>
            <Time>2020-03-07T17:37:40.000Z</Time>
            <Position>
              <LatitudeDegrees>40.687033049762248992919921875</LatitudeDegrees>
              <LongitudeDegrees>-3.785790167748928070068359375</LongitudeDegrees>
            </Position>
            <AltitudeMeters>930.5999755859375</AltitudeMeters>
            <DistanceMeters>NAN</DistanceMeters>
          </Trackpoint>
          <Trackpoint>
            <Time>2020-03-07T17:37:41.000Z</Time>
            <Position>
              <LatitudeDegrees>40.68698217160999774932861328125</LatitudeDegrees>
              <LongitudeDegrees>-3.78577709197998046875</LongitudeDegrees>
            </Position>
            <AltitudeMeters>930.5999755859375</AltitudeMeters>
            <DistanceMeters>NAN</DistanceMeters>
          </Trackpoint>
          <Trackpoint>
            <Time>2020-03-07T17:37:42.000Z</Time>
            <Position>
              <LatitudeDegrees>40.68692970089614391326904296875</LatitudeDegrees>
              <LongitudeDegrees>-3.785762675106525421142578125</LongitudeDegrees>
            </Position>
            <AltitudeMeters>930.5999755859375</AltitudeMeters>
            <DistanceMeters>NAN</DistanceMeters>
          </Trackpoint>
          <Trackpoint>
            <Time>2020-03-07T17:37:43.000Z</Time>
            <Position>
              <LatitudeDegrees>40.686876475811004638671875</LatitudeDegrees>
              <LongitudeDegrees>-3.7857490964233875274658203125</LongitudeDegrees>
            </Position>
            <AltitudeMeters>930.5999755859375</AltitudeMeters>
            <DistanceMeters>NAN</DistanceMeters>
          </Trackpoint>
          <Trackpoint>
            <Time>2020-03-07T17:37:44.000Z</Time>
            <Position>
              <LatitudeDegrees>40.68682375364005565643310546875</LatitudeDegrees>
              <LongitudeDegrees>-3.785735853016376495361328125</LongitudeDegrees>
            </Position>
            <AltitudeMeters>930.5999755859375</AltitudeMeters>
            <DistanceMeters>NAN</DistanceMeters>
          </Trackpoint>
          <Trackpoint>
            <Time>2020-03-07T17:37:45.000Z</Time>
            <Position>
              <LatitudeDegrees>40.686772204935550689697265625</LatitudeDegrees>
              <LongitudeDegrees>-3.7857232801616191864013671875</LongitudeDegrees>
            </Position>
            <AltitudeMeters>930.5999755859375</AltitudeMeters>
            <DistanceMeters>NAN</DistanceMeters>
          </Trackpoint>
          <Trackpoint>
            <Time>2020-03-07T17:37:46.000Z</Time>
            <Position>
              <LatitudeDegrees>40.6867210753262042999267578125</LatitudeDegrees>
              <LongitudeDegrees>-3.78571070730686187744140625</LongitudeDegrees>
            </Position>
            <AltitudeMeters>930.5999755859375</AltitudeMeters>
            <DistanceMeters>NAN</DistanceMeters>
          </Trackpoint>
          <Trackpoint>
            <Time>2020-03-07T17:37:47.000Z</Time>
            <Position>
              <LatitudeDegrees>40.686668939888477325439453125</LatitudeDegrees>
              <LongitudeDegrees>-3.7856977991759777069091796875</LongitudeDegrees>
            </Position>
            <AltitudeMeters>930.5999755859375</AltitudeMeters>
            <DistanceMeters>NAN</DistanceMeters>
          </Trackpoint>
          <Trackpoint>
            <Time>2020-03-07T17:37:48.000Z</Time>
            <Position>
              <LatitudeDegrees>40.68661688826978206634521484375</LatitudeDegrees>
              <LongitudeDegrees>-3.7856843881309032440185546875</LongitudeDegrees>
            </Position>
            <AltitudeMeters>930.79998779296875</AltitudeMeters>
            <DistanceMeters>NAN</DistanceMeters>
          </Trackpoint>
          <Trackpoint>
            <Time>2020-03-07T17:37:49.000Z</Time>
            <Position>
              <LatitudeDegrees>40.68656475283205509185791015625</LatitudeDegrees>
              <LongitudeDegrees>-3.78567106090486049652099609375</LongitudeDegrees>
            </Position>
            <AltitudeMeters>930.79998779296875</AltitudeMeters>
            <DistanceMeters>NAN</DistanceMeters>
          </Trackpoint>
          <Trackpoint>
            <Time>2020-03-07T17:37:50.000Z</Time>
            <Position>
              <LatitudeDegrees>40.686511695384979248046875</LatitudeDegrees>
              <LongitudeDegrees>-3.78565706312656402587890625</LongitudeDegrees>
            </Position>
            <AltitudeMeters>930.79998779296875</AltitudeMeters>
            <DistanceMeters>NAN</DistanceMeters>
          </Trackpoint>
          <Trackpoint>
            <Time>2020-03-07T17:37:51.000Z</Time>
            <Position>
              <LatitudeDegrees>40.686459727585315704345703125</LatitudeDegrees>
              <LongitudeDegrees>-3.7856434844434261322021484375</LongitudeDegrees>
            </Position>
            <AltitudeMeters>931</AltitudeMeters>
            <DistanceMeters>NAN</DistanceMeters>
          </Trackpoint>
          <Trackpoint>
            <Time>2020-03-07T17:37:52.000Z</Time>
            <Position>
              <LatitudeDegrees>40.68640910089015960693359375</LatitudeDegrees>
              <LongitudeDegrees>-3.7856309115886688232421875</LongitudeDegrees>
            </Position>
            <AltitudeMeters>931</AltitudeMeters>
            <DistanceMeters>NAN</DistanceMeters>
          </Trackpoint>
          <Trackpoint>
            <Time>2020-03-07T17:37:53.000Z</Time>
            <Position>
              <LatitudeDegrees>40.6863573007285594940185546875</LatitudeDegrees>
              <LongitudeDegrees>-3.7856175005435943603515625</LongitudeDegrees>
            </Position>
            <AltitudeMeters>931.20001220703125</AltitudeMeters>
            <DistanceMeters>NAN</DistanceMeters>
          </Trackpoint>
          <Trackpoint>
            <Time>2020-03-07T17:37:54.000Z</Time>
            <Position>
              <LatitudeDegrees>40.68630424328148365020751953125</LatitudeDegrees>
              <LongitudeDegrees>-3.785607106983661651611328125</LongitudeDegrees>
            </Position>
            <AltitudeMeters>931</AltitudeMeters>
            <DistanceMeters>NAN</DistanceMeters>
          </Trackpoint>
          <Trackpoint>
            <Time>2020-03-07T17:37:55.000Z</Time>
            <Position>
              <LatitudeDegrees>40.68624942563474178314208984375</LatitudeDegrees>
              <LongitudeDegrees>-3.78559939563274383544921875</LongitudeDegrees>
            </Position>
            <AltitudeMeters>931.4000244140625</AltitudeMeters>
            <DistanceMeters>NAN</DistanceMeters>
          </Trackpoint>
          <Trackpoint>
            <Time>2020-03-07T17:37:56.000Z</Time>
            <Position>
              <LatitudeDegrees>40.686192847788333892822265625</LatitudeDegrees>
              <LongitudeDegrees>-3.7855931930243968963623046875</LongitudeDegrees>
            </Position>
            <AltitudeMeters>931.20001220703125</AltitudeMeters>
            <DistanceMeters>NAN</DistanceMeters>
          </Trackpoint>
          <Trackpoint>
            <Time>2020-03-07T17:37:57.000Z</Time>
            <Position>
              <LatitudeDegrees>40.68613761104643344879150390625</LatitudeDegrees>
              <LongitudeDegrees>-3.7855891697108745574951171875</LongitudeDegrees>
            </Position>
            <AltitudeMeters>931.20001220703125</AltitudeMeters>
            <DistanceMeters>NAN</DistanceMeters>
          </Trackpoint>
          <Trackpoint>
            <Time>2020-03-07T17:37:58.000Z</Time>
            <Position>
              <LatitudeDegrees>40.68608229048550128936767578125</LatitudeDegrees>
              <LongitudeDegrees>-3.78558774478733539581298828125</LongitudeDegrees>
            </Position>
            <AltitudeMeters>931.4000244140625</AltitudeMeters>
            <DistanceMeters>NAN</DistanceMeters>
          </Trackpoint>
          <Trackpoint>
            <Time>2020-03-07T17:37:59.000Z</Time>
            <Position>
              <LatitudeDegrees>40.68602680228650569915771484375</LatitudeDegrees>
              <LongitudeDegrees>-3.7855906784534454345703125</LongitudeDegrees>
            </Position>
            <AltitudeMeters>931.4000244140625</AltitudeMeters>
            <DistanceMeters>NAN</DistanceMeters>
          </Trackpoint>
          <Trackpoint>
            <Time>2020-03-07T17:38:00.000Z</Time>
            <Position>
              <LatitudeDegrees>40.6859739124774932861328125</LatitudeDegrees>
              <LongitudeDegrees>-3.7856014072895050048828125</LongitudeDegrees>
            </Position>
            <AltitudeMeters>931.4000244140625</AltitudeMeters>
            <DistanceMeters>NAN</DistanceMeters>
          </Trackpoint>
          <Trackpoint>
            <Time>2020-03-07T17:38:01.000Z</Time>
            <Position>
              <LatitudeDegrees>40.6859201006591320037841796875</LatitudeDegrees>
              <LongitudeDegrees>-3.78561951220035552978515625</LongitudeDegrees>
            </Position>
            <AltitudeMeters>931.4000244140625</AltitudeMeters>
            <DistanceMeters>NAN</DistanceMeters>
          </Trackpoint>
          <Trackpoint>
            <Time>2020-03-07T17:38:02.000Z</Time>
            <Position>
              <LatitudeDegrees>40.68586452864110469818115234375</LatitudeDegrees>
              <LongitudeDegrees>-3.785643316805362701416015625</LongitudeDegrees>
            </Position>
            <AltitudeMeters>931.4000244140625</AltitudeMeters>
            <DistanceMeters>NAN</DistanceMeters>
          </Trackpoint>
          <Trackpoint>
            <Time>2020-03-07T17:38:03.000Z</Time>
            <Position>
              <LatitudeDegrees>40.685808621346950531005859375</LatitudeDegrees>
              <LongitudeDegrees>-3.78567273728549480438232421875</LongitudeDegrees>
            </Position>
            <AltitudeMeters>931.4000244140625</AltitudeMeters>
            <DistanceMeters>NAN</DistanceMeters>
          </Trackpoint>
          <Trackpoint>
            <Time>2020-03-07T17:38:04.000Z</Time>
            <Position>
              <LatitudeDegrees>40.685752294957637786865234375</LatitudeDegrees>
              <LongitudeDegrees>-3.785705678164958953857421875</LongitudeDegrees>
            </Position>
            <AltitudeMeters>931.4000244140625</AltitudeMeters>
            <DistanceMeters>NAN</DistanceMeters>
          </Trackpoint>
          <Trackpoint>
            <Time>2020-03-07T17:38:05.000Z</Time>
            <Position>
              <LatitudeDegrees>40.68569387309253215789794921875</LatitudeDegrees>
              <LongitudeDegrees>-3.7857427261769771575927734375</LongitudeDegrees>
            </Position>
            <AltitudeMeters>931.4000244140625</AltitudeMeters>
            <DistanceMeters>NAN</DistanceMeters>
          </Trackpoint>
          <Trackpoint>
            <Time>2020-03-07T17:38:06.000Z</Time>
            <Position>
              <LatitudeDegrees>40.6856347806751728057861328125</LatitudeDegrees>
              <LongitudeDegrees>-3.78578052856028079986572265625</LongitudeDegrees>
            </Position>
            <AltitudeMeters>931.4000244140625</AltitudeMeters>
            <DistanceMeters>NAN</DistanceMeters>
          </Trackpoint>
          <Trackpoint>
            <Time>2020-03-07T17:38:07.000Z</Time>
            <Position>
              <LatitudeDegrees>40.68557350896298885345458984375</LatitudeDegrees>
              <LongitudeDegrees>-3.7858188338577747344970703125</LongitudeDegrees>
            </Position>
            <AltitudeMeters>931.4000244140625</AltitudeMeters>
            <DistanceMeters>NAN</DistanceMeters>
          </Trackpoint>
          <Trackpoint>
            <Time>2020-03-07T17:38:08.000Z</Time>
            <Position>
              <LatitudeDegrees>40.6855124048888683319091796875</LatitudeDegrees>
              <LongitudeDegrees>-3.7858590669929981231689453125</LongitudeDegrees>
            </Position>
            <AltitudeMeters>931.4000244140625</AltitudeMeters>
            <DistanceMeters>NAN</DistanceMeters>
          </Trackpoint>
          <Trackpoint>
            <Time>2020-03-07T17:38:09.000Z</Time>
            <Position>
              <LatitudeDegrees>40.68545021116733551025390625</LatitudeDegrees>
              <LongitudeDegrees>-3.785902820527553558349609375</LongitudeDegrees>
            </Position>
            <AltitudeMeters>931.20001220703125</AltitudeMeters>
            <DistanceMeters>NAN</DistanceMeters>
          </Trackpoint>
          <Trackpoint>
            <Time>2020-03-07T17:38:10.000Z</Time>
            <Position>
              <LatitudeDegrees>40.68538793362677097320556640625</LatitudeDegrees>
              <LongitudeDegrees>-3.7859500944614410400390625</LongitudeDegrees>
            </Position>
            <AltitudeMeters>931.20001220703125</AltitudeMeters>
            <DistanceMeters>NAN</DistanceMeters>
          </Trackpoint>
          <Trackpoint>
            <Time>2020-03-07T17:38:11.000Z</Time>
            <Position>
              <LatitudeDegrees>40.68532657809555530548095703125</LatitudeDegrees>
              <LongitudeDegrees>-3.78600248135626316070556640625</LongitudeDegrees>
            </Position>
            <AltitudeMeters>930.79998779296875</AltitudeMeters>
            <DistanceMeters>NAN</DistanceMeters>
          </Trackpoint>
          <Trackpoint>
            <Time>2020-03-07T17:38:12.000Z</Time>
            <Position>
              <LatitudeDegrees>40.68526958115398883819580078125</LatitudeDegrees>
              <LongitudeDegrees>-3.78606316633522510528564453125</LongitudeDegrees>
            </Position>
            <AltitudeMeters>930.5999755859375</AltitudeMeters>
            <DistanceMeters>NAN</DistanceMeters>
          </Trackpoint>
          <Trackpoint>
            <Time>2020-03-07T17:38:13.000Z</Time>
            <Position>
              <LatitudeDegrees>40.68521426059305667877197265625</LatitudeDegrees>
              <LongitudeDegrees>-3.78613005392253398895263671875</LongitudeDegrees>
            </Position>
            <AltitudeMeters>930</AltitudeMeters>
            <DistanceMeters>NAN</DistanceMeters>
          </Trackpoint>
          <Trackpoint>
            <Time>2020-03-07T17:38:14.000Z</Time>
            <Position>
              <LatitudeDegrees>40.68516380153596401214599609375</LatitudeDegrees>
              <LongitudeDegrees>-3.78620549105107784271240234375</LongitudeDegrees>
            </Position>
            <AltitudeMeters>929.4000244140625</AltitudeMeters>
            <DistanceMeters>NAN</DistanceMeters>
          </Trackpoint>
          <Trackpoint>
            <Time>2020-03-07T17:38:15.000Z</Time>
            <Position>
              <LatitudeDegrees>40.68511937744915485382080078125</LatitudeDegrees>
              <LongitudeDegrees>-3.78629148937761783599853515625</LongitudeDegrees>
            </Position>
            <AltitudeMeters>929.20001220703125</AltitudeMeters>
            <DistanceMeters>NAN</DistanceMeters>
          </Trackpoint>
          <Trackpoint>
            <Time>2020-03-07T17:38:16.000Z</Time>
            <Position>
              <LatitudeDegrees>40.6850802339613437652587890625</LatitudeDegrees>
              <LongitudeDegrees>-3.7863844446837902069091796875</LongitudeDegrees>
            </Position>
            <AltitudeMeters>928.79998779296875</AltitudeMeters>
            <DistanceMeters>NAN</DistanceMeters>
          </Trackpoint>
          <Trackpoint>
            <Time>2020-03-07T17:38:17.000Z</Time>
            <Position>
              <LatitudeDegrees>40.685044191777706146240234375</LatitudeDegrees>
              <LongitudeDegrees>-3.7864870391786098480224609375</LongitudeDegrees>
            </Position>
            <AltitudeMeters>928.4000244140625</AltitudeMeters>
            <DistanceMeters>NAN</DistanceMeters>
          </Trackpoint>
          <Trackpoint>
            <Time>2020-03-07T17:38:18.000Z</Time>
            <Position>
              <LatitudeDegrees>40.68501091562211513519287109375</LatitudeDegrees>
              <LongitudeDegrees>-3.78659189678728580474853515625</LongitudeDegrees>
            </Position>
            <AltitudeMeters>928.20001220703125</AltitudeMeters>
            <DistanceMeters>NAN</DistanceMeters>
          </Trackpoint>
          <Trackpoint>
            <Time>2020-03-07T17:38:19.000Z</Time>
            <Position>
              <LatitudeDegrees>40.68498258478939533233642578125</LatitudeDegrees>
              <LongitudeDegrees>-3.78670086152851581573486328125</LongitudeDegrees>
            </Position>
            <AltitudeMeters>927.4000244140625</AltitudeMeters>
            <DistanceMeters>NAN</DistanceMeters>
          </Trackpoint>
          <Trackpoint>
            <Time>2020-03-07T17:38:20.000Z</Time>
            <Position>
              <LatitudeDegrees>40.684955008327960968017578125</LatitudeDegrees>
              <LongitudeDegrees>-3.7868122570216655731201171875</LongitudeDegrees>
            </Position>
            <AltitudeMeters>927</AltitudeMeters>
            <DistanceMeters>NAN</DistanceMeters>
          </Trackpoint>
          <Trackpoint>
            <Time>2020-03-07T17:38:21.000Z</Time>
            <Position>
              <LatitudeDegrees>40.68492759950459003448486328125</LatitudeDegrees>
              <LongitudeDegrees>-3.7869202159345149993896484375</LongitudeDegrees>
            </Position>
            <AltitudeMeters>926.20001220703125</AltitudeMeters>
            <DistanceMeters>NAN</DistanceMeters>
          </Trackpoint>
          <Trackpoint>
            <Time>2020-03-07T17:38:22.000Z</Time>
            <Position>
              <LatitudeDegrees>40.68489641882479190826416015625</LatitudeDegrees>
              <LongitudeDegrees>-3.78701954148709774017333984375</LongitudeDegrees>
            </Position>
            <AltitudeMeters>925.79998779296875</AltitudeMeters>
            <DistanceMeters>NAN</DistanceMeters>
          </Trackpoint>
          <Trackpoint>
            <Time>2020-03-07T17:38:23.000Z</Time>
            <Position>
              <LatitudeDegrees>40.6848609633743762969970703125</LatitudeDegrees>
              <LongitudeDegrees>-3.78711274825036525726318359375</LongitudeDegrees>
            </Position>
            <AltitudeMeters>925.4000244140625</AltitudeMeters>
            <DistanceMeters>NAN</DistanceMeters>
          </Trackpoint>
          <Trackpoint>
            <Time>2020-03-07T17:38:24.000Z</Time>
            <Position>
              <LatitudeDegrees>40.68482617847621440887451171875</LatitudeDegrees>
              <LongitudeDegrees>-3.78718282096087932586669921875</LongitudeDegrees>
            </Position>
            <AltitudeMeters>925.4000244140625</AltitudeMeters>
            <DistanceMeters>NAN</DistanceMeters>
          </Trackpoint>
          <Trackpoint>
            <Time>2020-03-07T17:38:25.000Z</Time>
            <Position>
              <LatitudeDegrees>40.68478527478873729705810546875</LatitudeDegrees>
              <LongitudeDegrees>-3.7872286699712276458740234375</LongitudeDegrees>
            </Position>
            <AltitudeMeters>925.20001220703125</AltitudeMeters>
            <DistanceMeters>NAN</DistanceMeters>
          </Trackpoint>
          <Trackpoint>
            <Time>2020-03-07T17:38:26.000Z</Time>
            <Position>
              <LatitudeDegrees>40.6847419403493404388427734375</LatitudeDegrees>
              <LongitudeDegrees>-3.78725431859493255615234375</LongitudeDegrees>
            </Position>
            <AltitudeMeters>925.20001220703125</AltitudeMeters>
            <DistanceMeters>NAN</DistanceMeters>
          </Trackpoint>
          <Trackpoint>
            <Time>2020-03-07T17:38:27.000Z</Time>
            <Position>
              <LatitudeDegrees>40.68469651043415069580078125</LatitudeDegrees>
              <LongitudeDegrees>-3.787266053259372711181640625</LongitudeDegrees>
            </Position>
            <AltitudeMeters>925.20001220703125</AltitudeMeters>
            <DistanceMeters>NAN</DistanceMeters>
          </Trackpoint>
          <Trackpoint>
            <Time>2020-03-07T17:38:28.000Z</Time>
            <Position>
              <LatitudeDegrees>40.68464814685285091400146484375</LatitudeDegrees>
              <LongitudeDegrees>-3.78726731054484844207763671875</LongitudeDegrees>
            </Position>
            <AltitudeMeters>925.20001220703125</AltitudeMeters>
            <DistanceMeters>NAN</DistanceMeters>
          </Trackpoint>
          <Trackpoint>
            <Time>2020-03-07T17:38:29.000Z</Time>
            <Position>
              <LatitudeDegrees>40.6845994479954242706298828125</LatitudeDegrees>
              <LongitudeDegrees>-3.7872616946697235107421875</LongitudeDegrees>
            </Position>
            <AltitudeMeters>925.20001220703125</AltitudeMeters>
            <DistanceMeters>NAN</DistanceMeters>
          </Trackpoint>
          <Trackpoint>
            <Time>2020-03-07T17:38:30.000Z</Time>
            <Position>
              <LatitudeDegrees>40.68454924039542675018310546875</LatitudeDegrees>
              <LongitudeDegrees>-3.78725255839526653289794921875</LongitudeDegrees>
            </Position>
            <AltitudeMeters>925.20001220703125</AltitudeMeters>
            <DistanceMeters>NAN</DistanceMeters>
          </Trackpoint>
          <Trackpoint>
            <Time>2020-03-07T17:38:31.000Z</Time>
            <Position>
              <LatitudeDegrees>40.68449827842414379119873046875</LatitudeDegrees>
              <LongitudeDegrees>-3.78724090754985809326171875</LongitudeDegrees>
            </Position>
            <AltitudeMeters>925.20001220703125</AltitudeMeters>
            <DistanceMeters>NAN</DistanceMeters>
          </Trackpoint>
          <Trackpoint>
            <Time>2020-03-07T17:38:32.000Z</Time>
            <Position>
              <LatitudeDegrees>40.68445083685219287872314453125</LatitudeDegrees>
              <LongitudeDegrees>-3.7872209586203098297119140625</LongitudeDegrees>
            </Position>
            <AltitudeMeters>925.4000244140625</AltitudeMeters>
            <DistanceMeters>NAN</DistanceMeters>
          </Trackpoint>
          <Trackpoint>
            <Time>2020-03-07T17:38:33.000Z</Time>
            <Position>
              <LatitudeDegrees>40.68440590985119342803955078125</LatitudeDegrees>
              <LongitudeDegrees>-3.787197656929492950439453125</LongitudeDegrees>
            </Position>
            <AltitudeMeters>925.5999755859375</AltitudeMeters>
            <DistanceMeters>NAN</DistanceMeters>
          </Trackpoint>
          <Trackpoint>
            <Time>2020-03-07T17:38:34.000Z</Time>
            <Position>
              <LatitudeDegrees>40.68436198867857456207275390625</LatitudeDegrees>
              <LongitudeDegrees>-3.7871596030890941619873046875</LongitudeDegrees>
            </Position>
            <AltitudeMeters>926</AltitudeMeters>
            <DistanceMeters>NAN</DistanceMeters>
          </Trackpoint>
          <Trackpoint>
            <Time>2020-03-07T17:38:35.000Z</Time>
            <Position>
              <LatitudeDegrees>40.6843189895153045654296875</LatitudeDegrees>
              <LongitudeDegrees>-3.787116520106792449951171875</LongitudeDegrees>
            </Position>
            <AltitudeMeters>926.20001220703125</AltitudeMeters>
            <DistanceMeters>NAN</DistanceMeters>
          </Trackpoint>
          <Trackpoint>
            <Time>2020-03-07T17:38:36.000Z</Time>
            <Position>
              <LatitudeDegrees>40.684285797178745269775390625</LatitudeDegrees>
              <LongitudeDegrees>-3.78705474548041820526123046875</LongitudeDegrees>
            </Position>
            <AltitudeMeters>926.4000244140625</AltitudeMeters>
            <DistanceMeters>NAN</DistanceMeters>
          </Trackpoint>
          <Trackpoint>
            <Time>2020-03-07T17:38:37.000Z</Time>
            <Position>
              <LatitudeDegrees>40.6842611543834209442138671875</LatitudeDegrees>
              <LongitudeDegrees>-3.78698869608342647552490234375</LongitudeDegrees>
            </Position>
            <AltitudeMeters>926.5999755859375</AltitudeMeters>
            <DistanceMeters>NAN</DistanceMeters>
          </Trackpoint>
          <Trackpoint>
            <Time>2020-03-07T17:38:38.000Z</Time>
            <Position>
              <LatitudeDegrees>40.68424246273934841156005859375</LatitudeDegrees>
              <LongitudeDegrees>-3.7869155220687389373779296875</LongitudeDegrees>
            </Position>
            <AltitudeMeters>926.79998779296875</AltitudeMeters>
            <DistanceMeters>NAN</DistanceMeters>
          </Trackpoint>
          <Trackpoint>
            <Time>2020-03-07T17:38:39.000Z</Time>
            <Position>
              <LatitudeDegrees>40.684230141341686248779296875</LatitudeDegrees>
              <LongitudeDegrees>-3.78683455288410186767578125</LongitudeDegrees>
            </Position>
            <AltitudeMeters>927</AltitudeMeters>
            <DistanceMeters>NAN</DistanceMeters>
          </Trackpoint>
          <Trackpoint>
            <Time>2020-03-07T17:38:40.000Z</Time>
            <Position>
              <LatitudeDegrees>40.68422268144786357879638671875</LatitudeDegrees>
              <LongitudeDegrees>-3.786751069128513336181640625</LongitudeDegrees>
            </Position>
            <AltitudeMeters>927</AltitudeMeters>
            <DistanceMeters>NAN</DistanceMeters>
          </Trackpoint>
          <Trackpoint>
            <Time>2020-03-07T17:38:41.000Z</Time>
            <Position>
              <LatitudeDegrees>40.68421932868659496307373046875</LatitudeDegrees>
              <LongitudeDegrees>-3.78666683100163936614990234375</LongitudeDegrees>
            </Position>
            <AltitudeMeters>927.20001220703125</AltitudeMeters>
            <DistanceMeters>NAN</DistanceMeters>
          </Trackpoint>
          <Trackpoint>
            <Time>2020-03-07T17:38:42.000Z</Time>
            <Position>
              <LatitudeDegrees>40.6842168979346752166748046875</LatitudeDegrees>
              <LongitudeDegrees>-3.7865815870463848114013671875</LongitudeDegrees>
            </Position>
            <AltitudeMeters>927.20001220703125</AltitudeMeters>
            <DistanceMeters>NAN</DistanceMeters>
          </Trackpoint>
          <Trackpoint>
            <Time>2020-03-07T17:38:43.000Z</Time>
            <Position>
              <LatitudeDegrees>40.68421262316405773162841796875</LatitudeDegrees>
              <LongitudeDegrees>-3.78649332560598850250244140625</LongitudeDegrees>
            </Position>
            <AltitudeMeters>927.20001220703125</AltitudeMeters>
            <DistanceMeters>NAN</DistanceMeters>
          </Trackpoint>
          <Trackpoint>
            <Time>2020-03-07T17:38:44.000Z</Time>
            <Position>
              <LatitudeDegrees>40.68421195261180400848388671875</LatitudeDegrees>
              <LongitudeDegrees>-3.7864060699939727783203125</LongitudeDegrees>
            </Position>
            <AltitudeMeters>927.20001220703125</AltitudeMeters>
            <DistanceMeters>NAN</DistanceMeters>
          </Trackpoint>
          <Trackpoint>
            <Time>2020-03-07T17:38:45.000Z</Time>
            <Position>
              <LatitudeDegrees>40.68421044386923313140869140625</LatitudeDegrees>
              <LongitudeDegrees>-3.78631847910583019256591796875</LongitudeDegrees>
            </Position>
            <AltitudeMeters>927.20001220703125</AltitudeMeters>
            <DistanceMeters>NAN</DistanceMeters>
          </Trackpoint>
          <Trackpoint>
            <Time>2020-03-07T17:38:46.000Z</Time>
            <Position>
              <LatitudeDegrees>40.6842088513076305389404296875</LatitudeDegrees>
              <LongitudeDegrees>-3.78623130731284618377685546875</LongitudeDegrees>
            </Position>
            <AltitudeMeters>927.4000244140625</AltitudeMeters>
            <DistanceMeters>NAN</DistanceMeters>
          </Trackpoint>
          <Trackpoint>
            <Time>2020-03-07T17:38:47.000Z</Time>
            <Position>
              <LatitudeDegrees>40.6842076778411865234375</LatitudeDegrees>
              <LongitudeDegrees>-3.786146230995655059814453125</LongitudeDegrees>
            </Position>
            <AltitudeMeters>927.4000244140625</AltitudeMeters>
            <DistanceMeters>NAN</DistanceMeters>
          </Trackpoint>
          <Trackpoint>
            <Time>2020-03-07T17:38:48.000Z</Time>
            <Position>
              <LatitudeDegrees>40.6842091865837574005126953125</LatitudeDegrees>
              <LongitudeDegrees>-3.78605562262237071990966796875</LongitudeDegrees>
            </Position>
            <AltitudeMeters>927.4000244140625</AltitudeMeters>
            <DistanceMeters>NAN</DistanceMeters>
          </Trackpoint>
          <Trackpoint>
            <Time>2020-03-07T17:38:49.000Z</Time>
            <Position>
              <LatitudeDegrees>40.6842132098972797393798828125</LatitudeDegrees>
              <LongitudeDegrees>-3.78596761263906955718994140625</LongitudeDegrees>
            </Position>
            <AltitudeMeters>927.4000244140625</AltitudeMeters>
            <DistanceMeters>NAN</DistanceMeters>
          </Trackpoint>
          <Trackpoint>
            <Time>2020-03-07T17:38:50.000Z</Time>
            <Position>
              <LatitudeDegrees>40.684222765266895294189453125</LatitudeDegrees>
              <LongitudeDegrees>-3.7858768366277217864990234375</LongitudeDegrees>
            </Position>
            <AltitudeMeters>927.4000244140625</AltitudeMeters>
            <DistanceMeters>NAN</DistanceMeters>
          </Trackpoint>
          <Trackpoint>
            <Time>2020-03-07T17:38:51.000Z</Time>
            <Position>
              <LatitudeDegrees>40.68424095399677753448486328125</LatitudeDegrees>
              <LongitudeDegrees>-3.7857789359986782073974609375</LongitudeDegrees>
            </Position>
            <AltitudeMeters>927.4000244140625</AltitudeMeters>
            <DistanceMeters>NAN</DistanceMeters>
          </Trackpoint>
          <Trackpoint>
            <Time>2020-03-07T17:38:52.000Z</Time>
            <Position>
              <LatitudeDegrees>40.6842588074505329132080078125</LatitudeDegrees>
              <LongitudeDegrees>-3.7856817059218883514404296875</LongitudeDegrees>
            </Position>
            <AltitudeMeters>927.4000244140625</AltitudeMeters>
            <DistanceMeters>NAN</DistanceMeters>
          </Trackpoint>
          <Trackpoint>
            <Time>2020-03-07T17:38:53.000Z</Time>
            <Position>
              <LatitudeDegrees>40.6842856295406818389892578125</LatitudeDegrees>
              <LongitudeDegrees>-3.7855781055986881256103515625</LongitudeDegrees>
            </Position>
            <AltitudeMeters>927.4000244140625</AltitudeMeters>
            <DistanceMeters>NAN</DistanceMeters>
          </Trackpoint>
          <Trackpoint>
            <Time>2020-03-07T17:38:54.000Z</Time>
            <Position>
              <LatitudeDegrees>40.68431588821113109588623046875</LatitudeDegrees>
              <LongitudeDegrees>-3.78547224216163158416748046875</LongitudeDegrees>
            </Position>
            <AltitudeMeters>927.4000244140625</AltitudeMeters>
            <DistanceMeters>NAN</DistanceMeters>
          </Trackpoint>
          <Trackpoint>
            <Time>2020-03-07T17:38:55.000Z</Time>
            <Position>
              <LatitudeDegrees>40.68434287793934345245361328125</LatitudeDegrees>
              <LongitudeDegrees>-3.78536336123943328857421875</LongitudeDegrees>
            </Position>
            <AltitudeMeters>927.20001220703125</AltitudeMeters>
            <DistanceMeters>NAN</DistanceMeters>
          </Trackpoint>
          <Trackpoint>
            <Time>2020-03-07T17:38:56.000Z</Time>
            <Position>
              <LatitudeDegrees>40.684364922344684600830078125</LatitudeDegrees>
              <LongitudeDegrees>-3.78525867126882076263427734375</LongitudeDegrees>
            </Position>
            <AltitudeMeters>927.20001220703125</AltitudeMeters>
            <DistanceMeters>NAN</DistanceMeters>
          </Trackpoint>
          <Trackpoint>
            <Time>2020-03-07T17:38:57.000Z</Time>
            <Position>
              <LatitudeDegrees>40.68439073860645294189453125</LatitudeDegrees>
              <LongitudeDegrees>-3.78515825606882572174072265625</LongitudeDegrees>
            </Position>
            <AltitudeMeters>926.79998779296875</AltitudeMeters>
            <DistanceMeters>NAN</DistanceMeters>
          </Trackpoint>
          <Trackpoint>
            <Time>2020-03-07T17:38:58.000Z</Time>
            <Position>
              <LatitudeDegrees>40.68441747687757015228271484375</LatitudeDegrees>
              <LongitudeDegrees>-3.78505599685013294219970703125</LongitudeDegrees>
            </Position>
            <AltitudeMeters>926.4000244140625</AltitudeMeters>
            <DistanceMeters>NAN</DistanceMeters>
          </Trackpoint>
          <Trackpoint>
            <Time>2020-03-07T17:38:59.000Z</Time>
            <Position>
              <LatitudeDegrees>40.68444228731095790863037109375</LatitudeDegrees>
              <LongitudeDegrees>-3.784954659640789031982421875</LongitudeDegrees>
            </Position>
            <AltitudeMeters>926.20001220703125</AltitudeMeters>
            <DistanceMeters>NAN</DistanceMeters>
          </Trackpoint>
          <Trackpoint>
            <Time>2020-03-07T17:39:00.000Z</Time>
            <Position>
              <LatitudeDegrees>40.68447053432464599609375</LatitudeDegrees>
              <LongitudeDegrees>-3.78487125970423221588134765625</LongitudeDegrees>
            </Position>
            <AltitudeMeters>925.5999755859375</AltitudeMeters>
            <DistanceMeters>NAN</DistanceMeters>
          </Trackpoint>
          <Trackpoint>
            <Time>2020-03-07T17:39:01.000Z</Time>
            <Position>
              <LatitudeDegrees>40.68450397811830043792724609375</LatitudeDegrees>
              <LongitudeDegrees>-3.78480336628854274749755859375</LongitudeDegrees>
            </Position>
            <AltitudeMeters>925.20001220703125</AltitudeMeters>
            <DistanceMeters>NAN</DistanceMeters>
          </Trackpoint>
          <Trackpoint>
            <Time>2020-03-07T17:39:02.000Z</Time>
            <Position>
              <LatitudeDegrees>40.68454605527222156524658203125</LatitudeDegrees>
              <LongitudeDegrees>-3.7847261689603328704833984375</LongitudeDegrees>
            </Position>
            <AltitudeMeters>924.79998779296875</AltitudeMeters>
            <DistanceMeters>NAN</DistanceMeters>
          </Trackpoint>
          <Trackpoint>
            <Time>2020-03-07T17:39:03.000Z</Time>
            <Position>
              <LatitudeDegrees>40.68458788096904754638671875</LatitudeDegrees>
              <LongitudeDegrees>-3.78465701825916767120361328125</LongitudeDegrees>
            </Position>
            <AltitudeMeters>924.5999755859375</AltitudeMeters>
            <DistanceMeters>NAN</DistanceMeters>
          </Trackpoint>
          <Trackpoint>
            <Time>2020-03-07T17:39:04.000Z</Time>
            <Position>
              <LatitudeDegrees>40.68462274968624114990234375</LatitudeDegrees>
              <LongitudeDegrees>-3.7846027873456478118896484375</LongitudeDegrees>
            </Position>
            <AltitudeMeters>924.5999755859375</AltitudeMeters>
            <DistanceMeters>NAN</DistanceMeters>
          </Trackpoint>
          <Trackpoint>
            <Time>2020-03-07T17:39:05.000Z</Time>
            <Position>
              <LatitudeDegrees>40.68464848212897777557373046875</LatitudeDegrees>
              <LongitudeDegrees>-3.7845491431653499603271484375</LongitudeDegrees>
            </Position>
            <AltitudeMeters>924.5999755859375</AltitudeMeters>
            <DistanceMeters>NAN</DistanceMeters>
          </Trackpoint>
          <Trackpoint>
            <Time>2020-03-07T17:39:06.000Z</Time>
            <Position>
              <LatitudeDegrees>40.6846644915640354156494140625</LatitudeDegrees>
              <LongitudeDegrees>-3.78449072130024433135986328125</LongitudeDegrees>
            </Position>
            <AltitudeMeters>924.5999755859375</AltitudeMeters>
            <DistanceMeters>NAN</DistanceMeters>
          </Trackpoint>
          <Trackpoint>
            <Time>2020-03-07T17:39:07.000Z</Time>
            <Position>
              <LatitudeDegrees>40.68467966280877590179443359375</LatitudeDegrees>
              <LongitudeDegrees>-3.784435652196407318115234375</LongitudeDegrees>
            </Position>
            <AltitudeMeters>924.5999755859375</AltitudeMeters>
            <DistanceMeters>NAN</DistanceMeters>
          </Trackpoint>
          <Trackpoint>
            <Time>2020-03-07T17:39:08.000Z</Time>
            <Position>
              <LatitudeDegrees>40.68469357676804065704345703125</LatitudeDegrees>
              <LongitudeDegrees>-3.784379996359348297119140625</LongitudeDegrees>
            </Position>
            <AltitudeMeters>924.5999755859375</AltitudeMeters>
            <DistanceMeters>NAN</DistanceMeters>
          </Trackpoint>
          <Trackpoint>
            <Time>2020-03-07T17:39:09.000Z</Time>
            <Position>
              <LatitudeDegrees>40.6847000308334827423095703125</LatitudeDegrees>
              <LongitudeDegrees>-3.78432660363614559173583984375</LongitudeDegrees>
            </Position>
            <AltitudeMeters>924.5999755859375</AltitudeMeters>
            <DistanceMeters>NAN</DistanceMeters>
          </Trackpoint>
          <Trackpoint>
            <Time>2020-03-07T17:39:10.000Z</Time>
            <Position>
              <LatitudeDegrees>40.68470187485218048095703125</LatitudeDegrees>
              <LongitudeDegrees>-3.7842752225697040557861328125</LongitudeDegrees>
            </Position>
            <AltitudeMeters>924.5999755859375</AltitudeMeters>
            <DistanceMeters>NAN</DistanceMeters>
          </Trackpoint>
          <Trackpoint>
            <Time>2020-03-07T17:39:11.000Z</Time>
            <Position>
              <LatitudeDegrees>40.6847033835947513580322265625</LatitudeDegrees>
              <LongitudeDegrees>-3.78422434441745281219482421875</LongitudeDegrees>
            </Position>
            <AltitudeMeters>924.79998779296875</AltitudeMeters>
            <DistanceMeters>NAN</DistanceMeters>
          </Trackpoint>
          <Trackpoint>
            <Time>2020-03-07T17:39:12.000Z</Time>
            <Position>
              <LatitudeDegrees>40.68470262922346591949462890625</LatitudeDegrees>
              <LongitudeDegrees>-3.784177489578723907470703125</LongitudeDegrees>
            </Position>
            <AltitudeMeters>925.20001220703125</AltitudeMeters>
            <DistanceMeters>NAN</DistanceMeters>
          </Trackpoint>
          <Trackpoint>
            <Time>2020-03-07T17:39:13.000Z</Time>
            <Position>
              <LatitudeDegrees>40.68470112048089504241943359375</LatitudeDegrees>
              <LongitudeDegrees>-3.78413029946386814117431640625</LongitudeDegrees>
            </Position>
            <AltitudeMeters>925.79998779296875</AltitudeMeters>
            <DistanceMeters>NAN</DistanceMeters>
          </Trackpoint>
          <Trackpoint>
            <Time>2020-03-07T17:39:14.000Z</Time>
            <Position>
              <LatitudeDegrees>40.68469709716737270355224609375</LatitudeDegrees>
              <LongitudeDegrees>-3.7840824387967586517333984375</LongitudeDegrees>
            </Position>
            <AltitudeMeters>926</AltitudeMeters>
            <DistanceMeters>NAN</DistanceMeters>
          </Trackpoint>
          <Trackpoint>
            <Time>2020-03-07T17:39:15.000Z</Time>
            <Position>
              <LatitudeDegrees>40.68469005636870861053466796875</LatitudeDegrees>
              <LongitudeDegrees>-3.78403491340577602386474609375</LongitudeDegrees>
            </Position>
            <AltitudeMeters>926.4000244140625</AltitudeMeters>
            <DistanceMeters>NAN</DistanceMeters>
          </Trackpoint>
          <Trackpoint>
            <Time>2020-03-07T17:39:16.000Z</Time>
            <Position>
              <LatitudeDegrees>40.68468251265585422515869140625</LatitudeDegrees>
              <LongitudeDegrees>-3.78398696891963481903076171875</LongitudeDegrees>
            </Position>
            <AltitudeMeters>926.5999755859375</AltitudeMeters>
            <DistanceMeters>NAN</DistanceMeters>
          </Trackpoint>
          <Trackpoint>
            <Time>2020-03-07T17:39:17.000Z</Time>
            <Position>
              <LatitudeDegrees>40.68467597477138042449951171875</LatitudeDegrees>
              <LongitudeDegrees>-3.7839392758905887603759765625</LongitudeDegrees>
            </Position>
            <AltitudeMeters>926.79998779296875</AltitudeMeters>
            <DistanceMeters>NAN</DistanceMeters>
          </Trackpoint>
          <Trackpoint>
            <Time>2020-03-07T17:39:18.000Z</Time>
            <Position>
              <LatitudeDegrees>40.68466910161077976226806640625</LatitudeDegrees>
              <LongitudeDegrees>-3.78389107994735240936279296875</LongitudeDegrees>
            </Position>
            <AltitudeMeters>926.79998779296875</AltitudeMeters>
            <DistanceMeters>NAN</DistanceMeters>
          </Trackpoint>
          <Trackpoint>
            <Time>2020-03-07T17:39:19.000Z</Time>
            <Position>
              <LatitudeDegrees>40.68466189317405223846435546875</LatitudeDegrees>
              <LongitudeDegrees>-3.7838427163660526275634765625</LongitudeDegrees>
            </Position>
            <AltitudeMeters>927</AltitudeMeters>
            <DistanceMeters>NAN</DistanceMeters>
          </Trackpoint>
          <Trackpoint>
            <Time>2020-03-07T17:39:20.000Z</Time>
            <Position>
              <LatitudeDegrees>40.684655942022800445556640625</LatitudeDegrees>
              <LongitudeDegrees>-3.78379519097506999969482421875</LongitudeDegrees>
            </Position>
            <AltitudeMeters>927.4000244140625</AltitudeMeters>
            <DistanceMeters>NAN</DistanceMeters>
          </Trackpoint>
          <Trackpoint>
            <Time>2020-03-07T17:39:21.000Z</Time>
            <Position>
              <LatitudeDegrees>40.68464915268123149871826171875</LatitudeDegrees>
              <LongitudeDegrees>-3.78374976105988025665283203125</LongitudeDegrees>
            </Position>
            <AltitudeMeters>927.5999755859375</AltitudeMeters>
            <DistanceMeters>NAN</DistanceMeters>
          </Trackpoint>
          <Trackpoint>
            <Time>2020-03-07T17:39:22.000Z</Time>
            <Position>
              <LatitudeDegrees>40.68464244715869426727294921875</LatitudeDegrees>
              <LongitudeDegrees>-3.7837049178779125213623046875</LongitudeDegrees>
            </Position>
            <AltitudeMeters>927.79998779296875</AltitudeMeters>
            <DistanceMeters>NAN</DistanceMeters>
          </Trackpoint>
          <Trackpoint>
            <Time>2020-03-07T17:39:23.000Z</Time>
            <Position>
              <LatitudeDegrees>40.6846346519887447357177734375</LatitudeDegrees>
              <LongitudeDegrees>-3.783658482134342193603515625</LongitudeDegrees>
            </Position>
            <AltitudeMeters>928</AltitudeMeters>
            <DistanceMeters>NAN</DistanceMeters>
          </Trackpoint>
          <Trackpoint>
            <Time>2020-03-07T17:39:24.000Z</Time>
            <Position>
              <LatitudeDegrees>40.68462719209492206573486328125</LatitudeDegrees>
              <LongitudeDegrees>-3.7836100347340106964111328125</LongitudeDegrees>
            </Position>
            <AltitudeMeters>928.4000244140625</AltitudeMeters>
            <DistanceMeters>NAN</DistanceMeters>
          </Trackpoint>
          <Trackpoint>
            <Time>2020-03-07T17:39:25.000Z</Time>
            <Position>
              <LatitudeDegrees>40.684620402753353118896484375</LatitudeDegrees>
              <LongitudeDegrees>-3.78356016241014003753662109375</LongitudeDegrees>
            </Position>
            <AltitudeMeters>928.5999755859375</AltitudeMeters>
            <DistanceMeters>NAN</DistanceMeters>
          </Trackpoint>
          <Trackpoint>
            <Time>2020-03-07T17:39:26.000Z</Time>
            <Position>
              <LatitudeDegrees>40.684613026678562164306640625</LatitudeDegrees>
              <LongitudeDegrees>-3.78350920043885707855224609375</LongitudeDegrees>
            </Position>
            <AltitudeMeters>928.79998779296875</AltitudeMeters>
            <DistanceMeters>NAN</DistanceMeters>
          </Trackpoint>
          <Trackpoint>
            <Time>2020-03-07T17:39:27.000Z</Time>
            <Position>
              <LatitudeDegrees>40.68460665643215179443359375</LatitudeDegrees>
              <LongitudeDegrees>-3.78345689736306667327880859375</LongitudeDegrees>
            </Position>
            <AltitudeMeters>929</AltitudeMeters>
            <DistanceMeters>NAN</DistanceMeters>
          </Trackpoint>
          <Trackpoint>
            <Time>2020-03-07T17:39:28.000Z</Time>
            <Position>
              <LatitudeDegrees>40.6846001185476779937744140625</LatitudeDegrees>
              <LongitudeDegrees>-3.7834046781063079833984375</LongitudeDegrees>
            </Position>
            <AltitudeMeters>929.20001220703125</AltitudeMeters>
            <DistanceMeters>NAN</DistanceMeters>
          </Trackpoint>
          <Trackpoint>
            <Time>2020-03-07T17:39:29.000Z</Time>
            <Position>
              <LatitudeDegrees>40.68459366448223590850830078125</LatitudeDegrees>
              <LongitudeDegrees>-3.78335195593535900115966796875</LongitudeDegrees>
            </Position>
            <AltitudeMeters>929.4000244140625</AltitudeMeters>
            <DistanceMeters>NAN</DistanceMeters>
          </Trackpoint>
          <Trackpoint>
            <Time>2020-03-07T17:39:30.000Z</Time>
            <Position>
              <LatitudeDegrees>40.684585534036159515380859375</LatitudeDegrees>
              <LongitudeDegrees>-3.783301748335361480712890625</LongitudeDegrees>
            </Position>
            <AltitudeMeters>929.5999755859375</AltitudeMeters>
            <DistanceMeters>NAN</DistanceMeters>
          </Trackpoint>
          <Trackpoint>
            <Time>2020-03-07T17:39:31.000Z</Time>
            <Position>
              <LatitudeDegrees>40.68457723595201969146728515625</LatitudeDegrees>
              <LongitudeDegrees>-3.78324986435472965240478515625</LongitudeDegrees>
            </Position>
            <AltitudeMeters>930</AltitudeMeters>
            <DistanceMeters>NAN</DistanceMeters>
          </Trackpoint>
          <Trackpoint>
            <Time>2020-03-07T17:39:32.000Z</Time>
            <Position>
              <LatitudeDegrees>40.684568770229816436767578125</LatitudeDegrees>
              <LongitudeDegrees>-3.783199489116668701171875</LongitudeDegrees>
            </Position>
            <AltitudeMeters>930.20001220703125</AltitudeMeters>
            <DistanceMeters>NAN</DistanceMeters>
          </Trackpoint>
          <Trackpoint>
            <Time>2020-03-07T17:39:33.000Z</Time>
            <Position>
              <LatitudeDegrees>40.68456013686954975128173828125</LatitudeDegrees>
              <LongitudeDegrees>-3.78315028734505176544189453125</LongitudeDegrees>
            </Position>
            <AltitudeMeters>930.20001220703125</AltitudeMeters>
            <DistanceMeters>NAN</DistanceMeters>
          </Trackpoint>
          <Trackpoint>
            <Time>2020-03-07T17:39:34.000Z</Time>
            <Position>
              <LatitudeDegrees>40.68455209024250507354736328125</LatitudeDegrees>
              <LongitudeDegrees>-3.783101923763751983642578125</LongitudeDegrees>
            </Position>
            <AltitudeMeters>930.4000244140625</AltitudeMeters>
            <DistanceMeters>NAN</DistanceMeters>
          </Trackpoint>
          <Trackpoint>
            <Time>2020-03-07T17:39:35.000Z</Time>
            <Position>
              <LatitudeDegrees>40.6845424510538578033447265625</LatitudeDegrees>
              <LongitudeDegrees>-3.78305397927761077880859375</LongitudeDegrees>
            </Position>
            <AltitudeMeters>930.5999755859375</AltitudeMeters>
            <DistanceMeters>NAN</DistanceMeters>
          </Trackpoint>
          <Trackpoint>
            <Time>2020-03-07T17:39:36.000Z</Time>
            <Position>
              <LatitudeDegrees>40.68453180603682994842529296875</LatitudeDegrees>
              <LongitudeDegrees>-3.7830058671534061431884765625</LongitudeDegrees>
            </Position>
            <AltitudeMeters>930.5999755859375</AltitudeMeters>
            <DistanceMeters>NAN</DistanceMeters>
          </Trackpoint>
          <Trackpoint>
            <Time>2020-03-07T17:39:37.000Z</Time>
            <Position>
              <LatitudeDegrees>40.68452208302915096282958984375</LatitudeDegrees>
              <LongitudeDegrees>-3.78295917995274066925048828125</LongitudeDegrees>
            </Position>
            <AltitudeMeters>930.79998779296875</AltitudeMeters>
            <DistanceMeters>NAN</DistanceMeters>
          </Trackpoint>
          <Trackpoint>
            <Time>2020-03-07T17:39:38.000Z</Time>
            <Position>
              <LatitudeDegrees>40.6845129467546939849853515625</LatitudeDegrees>
              <LongitudeDegrees>-3.78291274420917034149169921875</LongitudeDegrees>
            </Position>
            <AltitudeMeters>931</AltitudeMeters>
            <DistanceMeters>NAN</DistanceMeters>
          </Trackpoint>
          <Trackpoint>
            <Time>2020-03-07T17:39:39.000Z</Time>
            <Position>
              <LatitudeDegrees>40.68450339138507843017578125</LatitudeDegrees>
              <LongitudeDegrees>-3.782865889370441436767578125</LongitudeDegrees>
            </Position>
            <AltitudeMeters>931.20001220703125</AltitudeMeters>
            <DistanceMeters>NAN</DistanceMeters>
          </Trackpoint>
          <Trackpoint>
            <Time>2020-03-07T17:39:40.000Z</Time>
            <Position>
              <LatitudeDegrees>40.68449241109192371368408203125</LatitudeDegrees>
              <LongitudeDegrees>-3.78281903453171253204345703125</LongitudeDegrees>
            </Position>
            <AltitudeMeters>931.4000244140625</AltitudeMeters>
            <DistanceMeters>NAN</DistanceMeters>
          </Trackpoint>
          <Trackpoint>
            <Time>2020-03-07T17:39:41.000Z</Time>
            <Position>
              <LatitudeDegrees>40.68447983823716640472412109375</LatitudeDegrees>
              <LongitudeDegrees>-3.782771341502666473388671875</LongitudeDegrees>
            </Position>
            <AltitudeMeters>931.5999755859375</AltitudeMeters>
            <DistanceMeters>NAN</DistanceMeters>
          </Trackpoint>
          <Trackpoint>
            <Time>2020-03-07T17:39:42.000Z</Time>
            <Position>
              <LatitudeDegrees>40.68446693010628223419189453125</LatitudeDegrees>
              <LongitudeDegrees>-3.78272398374974727630615234375</LongitudeDegrees>
            </Position>
            <AltitudeMeters>931.5999755859375</AltitudeMeters>
            <DistanceMeters>NAN</DistanceMeters>
          </Trackpoint>
          <Trackpoint>
            <Time>2020-03-07T17:39:43.000Z</Time>
            <Position>
              <LatitudeDegrees>40.6844542734324932098388671875</LatitudeDegrees>
              <LongitudeDegrees>-3.782676123082637786865234375</LongitudeDegrees>
            </Position>
            <AltitudeMeters>931.79998779296875</AltitudeMeters>
            <DistanceMeters>NAN</DistanceMeters>
          </Trackpoint>
          <Trackpoint>
            <Time>2020-03-07T17:39:44.000Z</Time>
            <Position>
              <LatitudeDegrees>40.68444178439676761627197265625</LatitudeDegrees>
              <LongitudeDegrees>-3.7826276756823062896728515625</LongitudeDegrees>
            </Position>
            <AltitudeMeters>932</AltitudeMeters>
            <DistanceMeters>NAN</DistanceMeters>
          </Trackpoint>
          <Trackpoint>
            <Time>2020-03-07T17:39:45.000Z</Time>
            <Position>
              <LatitudeDegrees>40.68442971445620059967041015625</LatitudeDegrees>
              <LongitudeDegrees>-3.7825783900916576385498046875</LongitudeDegrees>
            </Position>
            <AltitudeMeters>932.20001220703125</AltitudeMeters>
            <DistanceMeters>NAN</DistanceMeters>
          </Trackpoint>
          <Trackpoint>
            <Time>2020-03-07T17:39:46.000Z</Time>
            <Position>
              <LatitudeDegrees>40.6844180636107921600341796875</LatitudeDegrees>
              <LongitudeDegrees>-3.78252885304391384124755859375</LongitudeDegrees>
            </Position>
            <AltitudeMeters>932.20001220703125</AltitudeMeters>
            <DistanceMeters>NAN</DistanceMeters>
          </Trackpoint>
          <Trackpoint>
            <Time>2020-03-07T17:39:47.000Z</Time>
            <Position>
              <LatitudeDegrees>40.68440658040344715118408203125</LatitudeDegrees>
              <LongitudeDegrees>-3.78247872926294803619384765625</LongitudeDegrees>
            </Position>
            <AltitudeMeters>932.5999755859375</AltitudeMeters>
            <DistanceMeters>NAN</DistanceMeters>
          </Trackpoint>
          <Trackpoint>
            <Time>2020-03-07T17:39:48.000Z</Time>
            <Position>
              <LatitudeDegrees>40.68439518101513385772705078125</LatitudeDegrees>
              <LongitudeDegrees>-3.782428018748760223388671875</LongitudeDegrees>
            </Position>
            <AltitudeMeters>932.79998779296875</AltitudeMeters>
            <DistanceMeters>NAN</DistanceMeters>
          </Trackpoint>
          <Trackpoint>
            <Time>2020-03-07T17:39:49.000Z</Time>
            <Position>
              <LatitudeDegrees>40.68438361398875713348388671875</LatitudeDegrees>
              <LongitudeDegrees>-3.7823775596916675567626953125</LongitudeDegrees>
            </Position>
            <AltitudeMeters>932.79998779296875</AltitudeMeters>
            <DistanceMeters>NAN</DistanceMeters>
          </Trackpoint>
          <Trackpoint>
            <Time>2020-03-07T17:39:50.000Z</Time>
            <Position>
              <LatitudeDegrees>40.68437120877206325531005859375</LatitudeDegrees>
              <LongitudeDegrees>-3.78232718445360660552978515625</LongitudeDegrees>
            </Position>
            <AltitudeMeters>932.79998779296875</AltitudeMeters>
            <DistanceMeters>NAN</DistanceMeters>
          </Trackpoint>
          <Trackpoint>
            <Time>2020-03-07T17:39:51.000Z</Time>
            <Position>
              <LatitudeDegrees>40.68435746245086193084716796875</LatitudeDegrees>
              <LongitudeDegrees>-3.78227706067264080047607421875</LongitudeDegrees>
            </Position>
            <AltitudeMeters>933.20001220703125</AltitudeMeters>
            <DistanceMeters>NAN</DistanceMeters>
          </Trackpoint>
          <Trackpoint>
            <Time>2020-03-07T17:39:52.000Z</Time>
            <Position>
              <LatitudeDegrees>40.68434371612966060638427734375</LatitudeDegrees>
              <LongitudeDegrees>-3.78222760744392871856689453125</LongitudeDegrees>
            </Position>
            <AltitudeMeters>933.20001220703125</AltitudeMeters>
            <DistanceMeters>NAN</DistanceMeters>
          </Trackpoint>
          <Trackpoint>
            <Time>2020-03-07T17:39:53.000Z</Time>
            <Position>
              <LatitudeDegrees>40.6843292154371738433837890625</LatitudeDegrees>
              <LongitudeDegrees>-3.78217916004359722137451171875</LongitudeDegrees>
            </Position>
            <AltitudeMeters>933.20001220703125</AltitudeMeters>
            <DistanceMeters>NAN</DistanceMeters>
          </Trackpoint>
          <Trackpoint>
            <Time>2020-03-07T17:39:54.000Z</Time>
            <Position>
              <LatitudeDegrees>40.68431471474468708038330078125</LatitudeDegrees>
              <LongitudeDegrees>-3.78213188610970973968505859375</LongitudeDegrees>
            </Position>
            <AltitudeMeters>933.20001220703125</AltitudeMeters>
            <DistanceMeters>NAN</DistanceMeters>
          </Trackpoint>
          <Trackpoint>
            <Time>2020-03-07T17:39:55.000Z</Time>
            <Position>
              <LatitudeDegrees>40.68430013023316860198974609375</LatitudeDegrees>
              <LongitudeDegrees>-3.78208578564226627349853515625</LongitudeDegrees>
            </Position>
            <AltitudeMeters>933.4000244140625</AltitudeMeters>
            <DistanceMeters>NAN</DistanceMeters>
          </Trackpoint>
          <Trackpoint>
            <Time>2020-03-07T17:39:56.000Z</Time>
            <Position>
              <LatitudeDegrees>40.68428537808358669281005859375</LatitudeDegrees>
              <LongitudeDegrees>-3.7820394337177276611328125</LongitudeDegrees>
            </Position>
            <AltitudeMeters>933.4000244140625</AltitudeMeters>
            <DistanceMeters>NAN</DistanceMeters>
          </Trackpoint>
          <Trackpoint>
            <Time>2020-03-07T17:39:57.000Z</Time>
            <Position>
              <LatitudeDegrees>40.6842705421149730682373046875</LatitudeDegrees>
              <LongitudeDegrees>-3.78199274651706218719482421875</LongitudeDegrees>
            </Position>
            <AltitudeMeters>933.4000244140625</AltitudeMeters>
            <DistanceMeters>NAN</DistanceMeters>
          </Trackpoint>
          <Trackpoint>
            <Time>2020-03-07T17:39:58.000Z</Time>
            <Position>
              <LatitudeDegrees>40.68425587378442287445068359375</LatitudeDegrees>
              <LongitudeDegrees>-3.7819453887641429901123046875</LongitudeDegrees>
            </Position>
            <AltitudeMeters>933.5999755859375</AltitudeMeters>
            <DistanceMeters>NAN</DistanceMeters>
          </Trackpoint>
          <Trackpoint>
            <Time>2020-03-07T17:39:59.000Z</Time>
            <Position>
              <LatitudeDegrees>40.6842423789203166961669921875</LatitudeDegrees>
              <LongitudeDegrees>-3.7818981148302555084228515625</LongitudeDegrees>
            </Position>
            <AltitudeMeters>933.5999755859375</AltitudeMeters>
            <DistanceMeters>NAN</DistanceMeters>
          </Trackpoint>
          <Trackpoint>
            <Time>2020-03-07T17:40:00.000Z</Time>
            <Position>
              <LatitudeDegrees>40.68422737531363964080810546875</LatitudeDegrees>
              <LongitudeDegrees>-3.78185075707733631134033203125</LongitudeDegrees>
            </Position>
            <AltitudeMeters>933.79998779296875</AltitudeMeters>
            <DistanceMeters>NAN</DistanceMeters>
          </Trackpoint>
          <Trackpoint>
            <Time>2020-03-07T17:40:01.000Z</Time>
            <Position>
              <LatitudeDegrees>40.6842117011547088623046875</LatitudeDegrees>
              <LongitudeDegrees>-3.78180247731506824493408203125</LongitudeDegrees>
            </Position>
            <AltitudeMeters>934</AltitudeMeters>
            <DistanceMeters>NAN</DistanceMeters>
          </Trackpoint>
          <Trackpoint>
            <Time>2020-03-07T17:40:02.000Z</Time>
            <Position>
              <LatitudeDegrees>40.68419820629060268402099609375</LatitudeDegrees>
              <LongitudeDegrees>-3.781755454838275909423828125</LongitudeDegrees>
            </Position>
            <AltitudeMeters>934</AltitudeMeters>
            <DistanceMeters>NAN</DistanceMeters>
          </Trackpoint>
          <Trackpoint>
            <Time>2020-03-07T17:40:03.000Z</Time>
            <Position>
              <LatitudeDegrees>40.6841816939413547515869140625</LatitudeDegrees>
              <LongitudeDegrees>-3.7817127071321010589599609375</LongitudeDegrees>
            </Position>
            <AltitudeMeters>934.20001220703125</AltitudeMeters>
            <DistanceMeters>NAN</DistanceMeters>
          </Trackpoint>
          <Trackpoint>
            <Time>2020-03-07T17:40:04.000Z</Time>
            <Position>
              <LatitudeDegrees>40.6841659359633922576904296875</LatitudeDegrees>
              <LongitudeDegrees>-3.78166886977851390838623046875</LongitudeDegrees>
            </Position>
            <AltitudeMeters>934.20001220703125</AltitudeMeters>
            <DistanceMeters>NAN</DistanceMeters>
          </Trackpoint>
          <Trackpoint>
            <Time>2020-03-07T17:40:05.000Z</Time>
            <Position>
              <LatitudeDegrees>40.6841481663286685943603515625</LatitudeDegrees>
              <LongitudeDegrees>-3.78162327222526073455810546875</LongitudeDegrees>
            </Position>
            <AltitudeMeters>934.4000244140625</AltitudeMeters>
            <DistanceMeters>NAN</DistanceMeters>
          </Trackpoint>
          <Trackpoint>
            <Time>2020-03-07T17:40:06.000Z</Time>
            <Position>
              <LatitudeDegrees>40.68413400091230869293212890625</LatitudeDegrees>
              <LongitudeDegrees>-3.78158153034746646881103515625</LongitudeDegrees>
            </Position>
            <AltitudeMeters>934.5999755859375</AltitudeMeters>
            <DistanceMeters>NAN</DistanceMeters>
          </Trackpoint>
          <Trackpoint>
            <Time>2020-03-07T17:40:07.000Z</Time>
            <Position>
              <LatitudeDegrees>40.68412117660045623779296875</LatitudeDegrees>
              <LongitudeDegrees>-3.7815392017364501953125</LongitudeDegrees>
            </Position>
            <AltitudeMeters>934.79998779296875</AltitudeMeters>
            <DistanceMeters>NAN</DistanceMeters>
          </Trackpoint>
          <Trackpoint>
            <Time>2020-03-07T17:40:08.000Z</Time>
            <Position>
              <LatitudeDegrees>40.6841070950031280517578125</LatitudeDegrees>
              <LongitudeDegrees>-3.78149695694446563720703125</LongitudeDegrees>
            </Position>
            <AltitudeMeters>935</AltitudeMeters>
            <DistanceMeters>NAN</DistanceMeters>
          </Trackpoint>
          <Trackpoint>
            <Time>2020-03-07T17:40:09.000Z</Time>
            <Position>
              <LatitudeDegrees>40.68409435451030731201171875</LatitudeDegrees>
              <LongitudeDegrees>-3.78145613707602024078369140625</LongitudeDegrees>
            </Position>
            <AltitudeMeters>935</AltitudeMeters>
            <DistanceMeters>NAN</DistanceMeters>
          </Trackpoint>
          <Trackpoint>
            <Time>2020-03-07T17:40:10.000Z</Time>
            <Position>
              <LatitudeDegrees>40.684081614017486572265625</LatitudeDegrees>
              <LongitudeDegrees>-3.78141456283628940582275390625</LongitudeDegrees>
            </Position>
            <AltitudeMeters>935</AltitudeMeters>
            <DistanceMeters>NAN</DistanceMeters>
          </Trackpoint>
          <Trackpoint>
            <Time>2020-03-07T17:40:11.000Z</Time>
            <Position>
              <LatitudeDegrees>40.68407029844820499420166015625</LatitudeDegrees>
              <LongitudeDegrees>-3.78137231804430484771728515625</LongitudeDegrees>
            </Position>
            <AltitudeMeters>935.20001220703125</AltitudeMeters>
            <DistanceMeters>NAN</DistanceMeters>
          </Trackpoint>
          <Trackpoint>
            <Time>2020-03-07T17:40:12.000Z</Time>
            <Position>
              <LatitudeDegrees>40.68405680358409881591796875</LatitudeDegrees>
              <LongitudeDegrees>-3.78133476711809635162353515625</LongitudeDegrees>
            </Position>
            <AltitudeMeters>935.4000244140625</AltitudeMeters>
            <DistanceMeters>NAN</DistanceMeters>
          </Trackpoint>
          <Trackpoint>
            <Time>2020-03-07T17:40:13.000Z</Time>
            <Position>
              <LatitudeDegrees>40.68404330871999263763427734375</LatitudeDegrees>
              <LongitudeDegrees>-3.78129520453512668609619140625</LongitudeDegrees>
            </Position>
            <AltitudeMeters>935.4000244140625</AltitudeMeters>
            <DistanceMeters>NAN</DistanceMeters>
          </Trackpoint>
          <Trackpoint>
            <Time>2020-03-07T17:40:14.000Z</Time>
            <Position>
              <LatitudeDegrees>40.68403006531298160552978515625</LatitudeDegrees>
              <LongitudeDegrees>-3.781255222856998443603515625</LongitudeDegrees>
            </Position>
            <AltitudeMeters>935.5999755859375</AltitudeMeters>
            <DistanceMeters>NAN</DistanceMeters>
          </Trackpoint>
          <Trackpoint>
            <Time>2020-03-07T17:40:15.000Z</Time>
            <Position>
              <LatitudeDegrees>40.68401682190597057342529296875</LatitudeDegrees>
              <LongitudeDegrees>-3.7812161631882190704345703125</LongitudeDegrees>
            </Position>
            <AltitudeMeters>935.5999755859375</AltitudeMeters>
            <DistanceMeters>NAN</DistanceMeters>
          </Trackpoint>
          <Trackpoint>
            <Time>2020-03-07T17:40:16.000Z</Time>
            <Position>
              <LatitudeDegrees>40.68400391377508640289306640625</LatitudeDegrees>
              <LongitudeDegrees>-3.78117643296718597412109375</LongitudeDegrees>
            </Position>
            <AltitudeMeters>935.79998779296875</AltitudeMeters>
            <DistanceMeters>NAN</DistanceMeters>
          </Trackpoint>
          <Trackpoint>
            <Time>2020-03-07T17:40:17.000Z</Time>
            <Position>
              <LatitudeDegrees>40.68399108946323394775390625</LatitudeDegrees>
              <LongitudeDegrees>-3.7811343558132648468017578125</LongitudeDegrees>
            </Position>
            <AltitudeMeters>936.20001220703125</AltitudeMeters>
            <DistanceMeters>NAN</DistanceMeters>
          </Trackpoint>
          <Trackpoint>
            <Time>2020-03-07T17:40:18.000Z</Time>
            <Position>
              <LatitudeDegrees>40.6839783489704132080078125</LatitudeDegrees>
              <LongitudeDegrees>-3.78109185956418514251708984375</LongitudeDegrees>
            </Position>
            <AltitudeMeters>936.4000244140625</AltitudeMeters>
            <DistanceMeters>NAN</DistanceMeters>
          </Trackpoint>
          <Trackpoint>
            <Time>2020-03-07T17:40:19.000Z</Time>
            <Position>
              <LatitudeDegrees>40.6839664466679096221923828125</LatitudeDegrees>
              <LongitudeDegrees>-3.78104911185801029205322265625</LongitudeDegrees>
            </Position>
            <AltitudeMeters>936.5999755859375</AltitudeMeters>
            <DistanceMeters>NAN</DistanceMeters>
          </Trackpoint>
          <Trackpoint>
            <Time>2020-03-07T17:40:20.000Z</Time>
            <Position>
              <LatitudeDegrees>40.68395429290831089019775390625</LatitudeDegrees>
              <LongitudeDegrees>-3.78100753761827945709228515625</LongitudeDegrees>
            </Position>
            <AltitudeMeters>936.79998779296875</AltitudeMeters>
            <DistanceMeters>NAN</DistanceMeters>
          </Trackpoint>
          <Trackpoint>
            <Time>2020-03-07T17:40:21.000Z</Time>
            <Position>
              <LatitudeDegrees>40.68394012749195098876953125</LatitudeDegrees>
              <LongitudeDegrees>-3.7809657119214534759521484375</LongitudeDegrees>
            </Position>
            <AltitudeMeters>937</AltitudeMeters>
            <DistanceMeters>NAN</DistanceMeters>
          </Trackpoint>
          <Trackpoint>
            <Time>2020-03-07T17:40:22.000Z</Time>
            <Position>
              <LatitudeDegrees>40.6839247047901153564453125</LatitudeDegrees>
              <LongitudeDegrees>-3.78092288039624691009521484375</LongitudeDegrees>
            </Position>
            <AltitudeMeters>937.20001220703125</AltitudeMeters>
            <DistanceMeters>NAN</DistanceMeters>
          </Trackpoint>
          <Trackpoint>
            <Time>2020-03-07T17:40:23.000Z</Time>
            <Position>
              <LatitudeDegrees>40.68391154520213603973388671875</LatitudeDegrees>
              <LongitudeDegrees>-3.78088063560426235198974609375</LongitudeDegrees>
            </Position>
            <AltitudeMeters>937.4000244140625</AltitudeMeters>
            <DistanceMeters>NAN</DistanceMeters>
          </Trackpoint>
          <Trackpoint>
            <Time>2020-03-07T17:40:24.000Z</Time>
            <Position>
              <LatitudeDegrees>40.68389729596674442291259765625</LatitudeDegrees>
              <LongitudeDegrees>-3.78083721734583377838134765625</LongitudeDegrees>
            </Position>
            <AltitudeMeters>937.79998779296875</AltitudeMeters>
            <DistanceMeters>NAN</DistanceMeters>
          </Trackpoint>
          <Trackpoint>
            <Time>2020-03-07T17:40:25.000Z</Time>
            <Position>
              <LatitudeDegrees>40.68388388492166996002197265625</LatitudeDegrees>
              <LongitudeDegrees>-3.780793882906436920166015625</LongitudeDegrees>
            </Position>
            <AltitudeMeters>937.79998779296875</AltitudeMeters>
            <DistanceMeters>NAN</DistanceMeters>
          </Trackpoint>
          <Trackpoint>
            <Time>2020-03-07T17:40:26.000Z</Time>
            <Position>
              <LatitudeDegrees>40.6838705576956272125244140625</LatitudeDegrees>
              <LongitudeDegrees>-3.78074769861996173858642578125</LongitudeDegrees>
            </Position>
            <AltitudeMeters>938</AltitudeMeters>
            <DistanceMeters>NAN</DistanceMeters>
          </Trackpoint>
          <Trackpoint>
            <Time>2020-03-07T17:40:27.000Z</Time>
            <Position>
              <LatitudeDegrees>40.68385706283152103424072265625</LatitudeDegrees>
              <LongitudeDegrees>-3.78070327453315258026123046875</LongitudeDegrees>
            </Position>
            <AltitudeMeters>938.20001220703125</AltitudeMeters>
            <DistanceMeters>NAN</DistanceMeters>
          </Trackpoint>
          <Trackpoint>
            <Time>2020-03-07T17:40:28.000Z</Time>
            <Position>
              <LatitudeDegrees>40.68384348414838314056396484375</LatitudeDegrees>
              <LongitudeDegrees>-3.7806572578847408294677734375</LongitudeDegrees>
            </Position>
            <AltitudeMeters>938.4000244140625</AltitudeMeters>
            <DistanceMeters>NAN</DistanceMeters>
          </Trackpoint>
          <Trackpoint>
            <Time>2020-03-07T17:40:29.000Z</Time>
            <Position>
              <LatitudeDegrees>40.683829821646213531494140625</LatitudeDegrees>
              <LongitudeDegrees>-3.78061140887439250946044921875</LongitudeDegrees>
            </Position>
            <AltitudeMeters>938.4000244140625</AltitudeMeters>
            <DistanceMeters>NAN</DistanceMeters>
          </Trackpoint>
          <Trackpoint>
            <Time>2020-03-07T17:40:30.000Z</Time>
            <Position>
              <LatitudeDegrees>40.68381540477275848388671875</LatitudeDegrees>
              <LongitudeDegrees>-3.78056396730244159698486328125</LongitudeDegrees>
            </Position>
            <AltitudeMeters>938.5999755859375</AltitudeMeters>
            <DistanceMeters>NAN</DistanceMeters>
          </Trackpoint>
          <Trackpoint>
            <Time>2020-03-07T17:40:31.000Z</Time>
            <Position>
              <LatitudeDegrees>40.68380073644220829010009765625</LatitudeDegrees>
              <LongitudeDegrees>-3.78051753155887126922607421875</LongitudeDegrees>
            </Position>
            <AltitudeMeters>938.79998779296875</AltitudeMeters>
            <DistanceMeters>NAN</DistanceMeters>
          </Trackpoint>
          <Trackpoint>
            <Time>2020-03-07T17:40:32.000Z</Time>
            <Position>
              <LatitudeDegrees>40.68378682248294353485107421875</LatitudeDegrees>
              <LongitudeDegrees>-3.78047092817723751068115234375</LongitudeDegrees>
            </Position>
            <AltitudeMeters>938.79998779296875</AltitudeMeters>
            <DistanceMeters>NAN</DistanceMeters>
          </Trackpoint>
          <Trackpoint>
            <Time>2020-03-07T17:40:33.000Z</Time>
            <Position>
              <LatitudeDegrees>40.6837719865143299102783203125</LatitudeDegrees>
              <LongitudeDegrees>-3.780421055853366851806640625</LongitudeDegrees>
            </Position>
            <AltitudeMeters>939</AltitudeMeters>
            <DistanceMeters>NAN</DistanceMeters>
          </Trackpoint>
          <Trackpoint>
            <Time>2020-03-07T17:40:34.000Z</Time>
            <Position>
              <LatitudeDegrees>40.68375782109797000885009765625</LatitudeDegrees>
              <LongitudeDegrees>-3.7803722731769084930419921875</LongitudeDegrees>
            </Position>
            <AltitudeMeters>939</AltitudeMeters>
            <DistanceMeters>NAN</DistanceMeters>
          </Trackpoint>
          <Trackpoint>
            <Time>2020-03-07T17:40:35.000Z</Time>
            <Position>
              <LatitudeDegrees>40.68374206312000751495361328125</LatitudeDegrees>
              <LongitudeDegrees>-3.78032675944268703460693359375</LongitudeDegrees>
            </Position>
            <AltitudeMeters>939</AltitudeMeters>
            <DistanceMeters>NAN</DistanceMeters>
          </Trackpoint>
          <Trackpoint>
            <Time>2020-03-07T17:40:36.000Z</Time>
            <Position>
              <LatitudeDegrees>40.68372664041817188262939453125</LatitudeDegrees>
              <LongitudeDegrees>-3.78027814440429210662841796875</LongitudeDegrees>
            </Position>
            <AltitudeMeters>939.20001220703125</AltitudeMeters>
            <DistanceMeters>NAN</DistanceMeters>
          </Trackpoint>
          <Trackpoint>
            <Time>2020-03-07T17:40:37.000Z</Time>
            <Position>
              <LatitudeDegrees>40.68371021188795566558837890625</LatitudeDegrees>
              <LongitudeDegrees>-3.7802301160991191864013671875</LongitudeDegrees>
            </Position>
            <AltitudeMeters>939.20001220703125</AltitudeMeters>
            <DistanceMeters>NAN</DistanceMeters>
          </Trackpoint>
          <Trackpoint>
            <Time>2020-03-07T17:40:38.000Z</Time>
            <Position>
              <LatitudeDegrees>40.68369260989129543304443359375</LatitudeDegrees>
              <LongitudeDegrees>-3.780181668698787689208984375</LongitudeDegrees>
            </Position>
            <AltitudeMeters>939.20001220703125</AltitudeMeters>
            <DistanceMeters>NAN</DistanceMeters>
          </Trackpoint>
          <Trackpoint>
            <Time>2020-03-07T17:40:39.000Z</Time>
            <Position>
              <LatitudeDegrees>40.6836757622659206390380859375</LatitudeDegrees>
              <LongitudeDegrees>-3.7801332212984561920166015625</LongitudeDegrees>
            </Position>
            <AltitudeMeters>939.4000244140625</AltitudeMeters>
            <DistanceMeters>NAN</DistanceMeters>
          </Trackpoint>
          <Trackpoint>
            <Time>2020-03-07T17:40:40.000Z</Time>
            <Position>
              <LatitudeDegrees>40.68365941755473613739013671875</LatitudeDegrees>
              <LongitudeDegrees>-3.78008519299328327178955078125</LongitudeDegrees>
            </Position>
            <AltitudeMeters>939.5999755859375</AltitudeMeters>
            <DistanceMeters>NAN</DistanceMeters>
          </Trackpoint>
          <Trackpoint>
            <Time>2020-03-07T17:40:41.000Z</Time>
            <Position>
              <LatitudeDegrees>40.683643408119678497314453125</LatitudeDegrees>
              <LongitudeDegrees>-3.78003724850714206695556640625</LongitudeDegrees>
            </Position>
            <AltitudeMeters>939.79998779296875</AltitudeMeters>
            <DistanceMeters>NAN</DistanceMeters>
          </Trackpoint>
          <Trackpoint>
            <Time>2020-03-07T17:40:42.000Z</Time>
            <Position>
              <LatitudeDegrees>40.6836288236081600189208984375</LatitudeDegrees>
              <LongitudeDegrees>-3.7799880467355251312255859375</LongitudeDegrees>
            </Position>
            <AltitudeMeters>940</AltitudeMeters>
            <DistanceMeters>NAN</DistanceMeters>
          </Trackpoint>
          <Trackpoint>
            <Time>2020-03-07T17:40:43.000Z</Time>
            <Position>
              <LatitudeDegrees>40.68361398763954639434814453125</LatitudeDegrees>
              <LongitudeDegrees>-3.7799344025552272796630859375</LongitudeDegrees>
            </Position>
            <AltitudeMeters>940.20001220703125</AltitudeMeters>
            <DistanceMeters>NAN</DistanceMeters>
          </Trackpoint>
          <Trackpoint>
            <Time>2020-03-07T17:40:44.000Z</Time>
            <Position>
              <LatitudeDegrees>40.683598816394805908203125</LatitudeDegrees>
              <LongitudeDegrees>-3.77988251857459545135498046875</LongitudeDegrees>
            </Position>
            <AltitudeMeters>940.20001220703125</AltitudeMeters>
            <DistanceMeters>NAN</DistanceMeters>
          </Trackpoint>
          <Trackpoint>
            <Time>2020-03-07T17:40:45.000Z</Time>
            <Position>
              <LatitudeDegrees>40.68358565680682659149169921875</LatitudeDegrees>
              <LongitudeDegrees>-3.7798318080604076385498046875</LongitudeDegrees>
            </Position>
            <AltitudeMeters>940.4000244140625</AltitudeMeters>
            <DistanceMeters>NAN</DistanceMeters>
          </Trackpoint>
          <Trackpoint>
            <Time>2020-03-07T17:40:46.000Z</Time>
            <Position>
              <LatitudeDegrees>40.68357291631400585174560546875</LatitudeDegrees>
              <LongitudeDegrees>-3.77978034317493438720703125</LongitudeDegrees>
            </Position>
            <AltitudeMeters>940.4000244140625</AltitudeMeters>
            <DistanceMeters>NAN</DistanceMeters>
          </Trackpoint>
          <Trackpoint>
            <Time>2020-03-07T17:40:47.000Z</Time>
            <Position>
              <LatitudeDegrees>40.6835594214498996734619140625</LatitudeDegrees>
              <LongitudeDegrees>-3.77972812391817569732666015625</LongitudeDegrees>
            </Position>
            <AltitudeMeters>940.5999755859375</AltitudeMeters>
            <DistanceMeters>NAN</DistanceMeters>
          </Trackpoint>
          <Trackpoint>
            <Time>2020-03-07T17:40:48.000Z</Time>
            <Position>
              <LatitudeDegrees>40.68354542367160320281982421875</LatitudeDegrees>
              <LongitudeDegrees>-3.77967632375657558441162109375</LongitudeDegrees>
            </Position>
            <AltitudeMeters>940.79998779296875</AltitudeMeters>
            <DistanceMeters>NAN</DistanceMeters>
          </Trackpoint>
          <Trackpoint>
            <Time>2020-03-07T17:40:49.000Z</Time>
            <Position>
              <LatitudeDegrees>40.68353184498846530914306640625</LatitudeDegrees>
              <LongitudeDegrees>-3.779624439775943756103515625</LongitudeDegrees>
            </Position>
            <AltitudeMeters>940.79998779296875</AltitudeMeters>
            <DistanceMeters>NAN</DistanceMeters>
          </Trackpoint>
          <Trackpoint>
            <Time>2020-03-07T17:40:50.000Z</Time>
            <Position>
              <LatitudeDegrees>40.68351759575307369232177734375</LatitudeDegrees>
              <LongitudeDegrees>-3.779574818909168243408203125</LongitudeDegrees>
            </Position>
            <AltitudeMeters>941</AltitudeMeters>
            <DistanceMeters>NAN</DistanceMeters>
          </Trackpoint>
          <Trackpoint>
            <Time>2020-03-07T17:40:51.000Z</Time>
            <Position>
              <LatitudeDegrees>40.68350083194673061370849609375</LatitudeDegrees>
              <LongitudeDegrees>-3.77952528186142444610595703125</LongitudeDegrees>
            </Position>
            <AltitudeMeters>941</AltitudeMeters>
            <DistanceMeters>NAN</DistanceMeters>
          </Trackpoint>
          <Trackpoint>
            <Time>2020-03-07T17:40:52.000Z</Time>
            <Position>
              <LatitudeDegrees>40.68348490633070468902587890625</LatitudeDegrees>
              <LongitudeDegrees>-3.779472894966602325439453125</LongitudeDegrees>
            </Position>
            <AltitudeMeters>941.20001220703125</AltitudeMeters>
            <DistanceMeters>NAN</DistanceMeters>
          </Trackpoint>
          <Trackpoint>
            <Time>2020-03-07T17:40:53.000Z</Time>
            <Position>
              <LatitudeDegrees>40.6834675557911396026611328125</LatitudeDegrees>
              <LongitudeDegrees>-3.77942319028079509735107421875</LongitudeDegrees>
            </Position>
            <AltitudeMeters>941.20001220703125</AltitudeMeters>
            <DistanceMeters>NAN</DistanceMeters>
          </Trackpoint>
          <Trackpoint>
            <Time>2020-03-07T17:40:54.000Z</Time>
            <Position>
              <LatitudeDegrees>40.68345003761351108551025390625</LatitudeDegrees>
              <LongitudeDegrees>-3.77937423996627330780029296875</LongitudeDegrees>
            </Position>
            <AltitudeMeters>941.20001220703125</AltitudeMeters>
            <DistanceMeters>NAN</DistanceMeters>
          </Trackpoint>
          <Trackpoint>
            <Time>2020-03-07T17:40:55.000Z</Time>
            <Position>
              <LatitudeDegrees>40.6834340281784534454345703125</LatitudeDegrees>
              <LongitudeDegrees>-3.77932394854724407196044921875</LongitudeDegrees>
            </Position>
            <AltitudeMeters>941.4000244140625</AltitudeMeters>
            <DistanceMeters>NAN</DistanceMeters>
          </Trackpoint>
          <Trackpoint>
            <Time>2020-03-07T17:40:56.000Z</Time>
            <Position>
              <LatitudeDegrees>40.68341885693371295928955078125</LatitudeDegrees>
              <LongitudeDegrees>-3.77927198074758052825927734375</LongitudeDegrees>
            </Position>
            <AltitudeMeters>941.4000244140625</AltitudeMeters>
            <DistanceMeters>NAN</DistanceMeters>
          </Trackpoint>
          <Trackpoint>
            <Time>2020-03-07T17:40:57.000Z</Time>
            <Position>
              <LatitudeDegrees>40.68340410478413105010986328125</LatitudeDegrees>
              <LongitudeDegrees>-3.77922152169048786163330078125</LongitudeDegrees>
            </Position>
            <AltitudeMeters>941.4000244140625</AltitudeMeters>
            <DistanceMeters>NAN</DistanceMeters>
          </Trackpoint>
          <Trackpoint>
            <Time>2020-03-07T17:40:58.000Z</Time>
            <Position>
              <LatitudeDegrees>40.68338734097778797149658203125</LatitudeDegrees>
              <LongitudeDegrees>-3.7791716493666172027587890625</LongitudeDegrees>
            </Position>
            <AltitudeMeters>941.4000244140625</AltitudeMeters>
            <DistanceMeters>NAN</DistanceMeters>
          </Trackpoint>
          <Trackpoint>
            <Time>2020-03-07T17:40:59.000Z</Time>
            <Position>
              <LatitudeDegrees>40.68337141536176204681396484375</LatitudeDegrees>
              <LongitudeDegrees>-3.7791220284998416900634765625</LongitudeDegrees>
            </Position>
            <AltitudeMeters>941.4000244140625</AltitudeMeters>
            <DistanceMeters>NAN</DistanceMeters>
          </Trackpoint>
          <Trackpoint>
            <Time>2020-03-07T17:41:00.000Z</Time>
            <Position>
              <LatitudeDegrees>40.6833549030125141143798828125</LatitudeDegrees>
              <LongitudeDegrees>-3.77907182089984416961669921875</LongitudeDegrees>
            </Position>
            <AltitudeMeters>941.5999755859375</AltitudeMeters>
            <DistanceMeters>NAN</DistanceMeters>
          </Trackpoint>
          <Trackpoint>
            <Time>2020-03-07T17:41:01.000Z</Time>
            <Position>
              <LatitudeDegrees>40.68333872593939304351806640625</LatitudeDegrees>
              <LongitudeDegrees>-3.77902119420468807220458984375</LongitudeDegrees>
            </Position>
            <AltitudeMeters>941.5999755859375</AltitudeMeters>
            <DistanceMeters>NAN</DistanceMeters>
          </Trackpoint>
          <Trackpoint>
            <Time>2020-03-07T17:41:02.000Z</Time>
            <Position>
              <LatitudeDegrees>40.6833220459520816802978515625</LatitudeDegrees>
              <LongitudeDegrees>-3.77896956168115139007568359375</LongitudeDegrees>
            </Position>
            <AltitudeMeters>941.79998779296875</AltitudeMeters>
            <DistanceMeters>NAN</DistanceMeters>
          </Trackpoint>
          <Trackpoint>
            <Time>2020-03-07T17:41:03.000Z</Time>
            <Position>
              <LatitudeDegrees>40.6833066232502460479736328125</LatitudeDegrees>
              <LongitudeDegrees>-3.778917677700519561767578125</LongitudeDegrees>
            </Position>
            <AltitudeMeters>941.79998779296875</AltitudeMeters>
            <DistanceMeters>NAN</DistanceMeters>
          </Trackpoint>
          <Trackpoint>
            <Time>2020-03-07T17:41:04.000Z</Time>
            <Position>
              <LatitudeDegrees>40.68328960798680782318115234375</LatitudeDegrees>
              <LongitudeDegrees>-3.7788648717105388641357421875</LongitudeDegrees>
            </Position>
            <AltitudeMeters>941.79998779296875</AltitudeMeters>
            <DistanceMeters>NAN</DistanceMeters>
          </Trackpoint>
          <Trackpoint>
            <Time>2020-03-07T17:41:05.000Z</Time>
            <Position>
              <LatitudeDegrees>40.68327502347528934478759765625</LatitudeDegrees>
              <LongitudeDegrees>-3.77881131134927272796630859375</LongitudeDegrees>
            </Position>
            <AltitudeMeters>941.79998779296875</AltitudeMeters>
            <DistanceMeters>NAN</DistanceMeters>
          </Trackpoint>
          <Trackpoint>
            <Time>2020-03-07T17:41:06.000Z</Time>
            <Position>
              <LatitudeDegrees>40.68325884640216827392578125</LatitudeDegrees>
              <LongitudeDegrees>-3.77876018173992633819580078125</LongitudeDegrees>
            </Position>
            <AltitudeMeters>942</AltitudeMeters>
            <DistanceMeters>NAN</DistanceMeters>
          </Trackpoint>
          <Trackpoint>
            <Time>2020-03-07T17:41:13.000Z</Time>
            <Position>
              <LatitudeDegrees>40.68314359523355960845947265625</LatitudeDegrees>
              <LongitudeDegrees>-3.7783958204090595245361328125</LongitudeDegrees>
            </Position>
            <AltitudeMeters>942.20001220703125</AltitudeMeters>
            <DistanceMeters>NAN</DistanceMeters>
          </Trackpoint>
          <Trackpoint>
            <Time>2020-03-07T17:41:14.000Z</Time>
            <Position>
              <LatitudeDegrees>40.6831255741417407989501953125</LatitudeDegrees>
              <LongitudeDegrees>-3.7783420085906982421875</LongitudeDegrees>
            </Position>
            <AltitudeMeters>942.20001220703125</AltitudeMeters>
            <DistanceMeters>NAN</DistanceMeters>
          </Trackpoint>
          <Trackpoint>
            <Time>2020-03-07T17:41:15.000Z</Time>
            <Position>
              <LatitudeDegrees>40.6831081397831439971923828125</LatitudeDegrees>
              <LongitudeDegrees>-3.77828828059136867523193359375</LongitudeDegrees>
            </Position>
            <AltitudeMeters>942.20001220703125</AltitudeMeters>
            <DistanceMeters>NAN</DistanceMeters>
          </Trackpoint>
          <Trackpoint>
            <Time>2020-03-07T17:41:16.000Z</Time>
            <Position>
              <LatitudeDegrees>40.683091543614864349365234375</LatitudeDegrees>
              <LongitudeDegrees>-3.7782335467636585235595703125</LongitudeDegrees>
            </Position>
            <AltitudeMeters>942.4000244140625</AltitudeMeters>
            <DistanceMeters>NAN</DistanceMeters>
          </Trackpoint>
          <Trackpoint>
            <Time>2020-03-07T17:41:17.000Z</Time>
            <Position>
              <LatitudeDegrees>40.68307519890367984771728515625</LatitudeDegrees>
              <LongitudeDegrees>-3.77817646600306034088134765625</LongitudeDegrees>
            </Position>
            <AltitudeMeters>942.4000244140625</AltitudeMeters>
            <DistanceMeters>NAN</DistanceMeters>
          </Trackpoint>
          <Trackpoint>
            <Time>2020-03-07T17:41:18.000Z</Time>
            <Position>
              <LatitudeDegrees>40.68305910564959049224853515625</LatitudeDegrees>
              <LongitudeDegrees>-3.77812097780406475067138671875</LongitudeDegrees>
            </Position>
            <AltitudeMeters>942.4000244140625</AltitudeMeters>
            <DistanceMeters>NAN</DistanceMeters>
          </Trackpoint>
          <Trackpoint>
            <Time>2020-03-07T17:41:19.000Z</Time>
            <Position>
              <LatitudeDegrees>40.68304250948131084442138671875</LatitudeDegrees>
              <LongitudeDegrees>-3.7780655734241008758544921875</LongitudeDegrees>
            </Position>
            <AltitudeMeters>942.5999755859375</AltitudeMeters>
            <DistanceMeters>NAN</DistanceMeters>
          </Trackpoint>
          <Trackpoint>
            <Time>2020-03-07T17:41:20.000Z</Time>
            <Position>
              <LatitudeDegrees>40.6830276735126972198486328125</LatitudeDegrees>
              <LongitudeDegrees>-3.77800966612994670867919921875</LongitudeDegrees>
            </Position>
            <AltitudeMeters>942.5999755859375</AltitudeMeters>
            <DistanceMeters>NAN</DistanceMeters>
          </Trackpoint>
          <Trackpoint>
            <Time>2020-03-07T17:41:21.000Z</Time>
            <Position>
              <LatitudeDegrees>40.6830156035721302032470703125</LatitudeDegrees>
              <LongitudeDegrees>-3.77795107662677764892578125</LongitudeDegrees>
            </Position>
            <AltitudeMeters>942.5999755859375</AltitudeMeters>
            <DistanceMeters>NAN</DistanceMeters>
          </Trackpoint>
          <Trackpoint>
            <Time>2020-03-07T17:41:22.000Z</Time>
            <Position>
              <LatitudeDegrees>40.6829981692135334014892578125</LatitudeDegrees>
              <LongitudeDegrees>-3.77789567224681377410888671875</LongitudeDegrees>
            </Position>
            <AltitudeMeters>942.79998779296875</AltitudeMeters>
            <DistanceMeters>NAN</DistanceMeters>
          </Trackpoint>
          <Trackpoint>
            <Time>2020-03-07T17:41:23.000Z</Time>
            <Position>
              <LatitudeDegrees>40.68298333324491977691650390625</LatitudeDegrees>
              <LongitudeDegrees>-3.77784110605716705322265625</LongitudeDegrees>
            </Position>
            <AltitudeMeters>942.79998779296875</AltitudeMeters>
            <DistanceMeters>NAN</DistanceMeters>
          </Trackpoint>
          <Trackpoint>
            <Time>2020-03-07T17:41:24.000Z</Time>
            <Position>
              <LatitudeDegrees>40.68296858109533786773681640625</LatitudeDegrees>
              <LongitudeDegrees>-3.7777854502201080322265625</LongitudeDegrees>
            </Position>
            <AltitudeMeters>942.79998779296875</AltitudeMeters>
            <DistanceMeters>NAN</DistanceMeters>
          </Trackpoint>
          <Trackpoint>
            <Time>2020-03-07T17:41:25.000Z</Time>
            <Position>
              <LatitudeDegrees>40.68295114673674106597900390625</LatitudeDegrees>
              <LongitudeDegrees>-3.77772987820208072662353515625</LongitudeDegrees>
            </Position>
            <AltitudeMeters>943</AltitudeMeters>
            <DistanceMeters>NAN</DistanceMeters>
          </Trackpoint>
          <Trackpoint>
            <Time>2020-03-07T17:41:26.000Z</Time>
            <Position>
              <LatitudeDegrees>40.68293622694909572601318359375</LatitudeDegrees>
              <LongitudeDegrees>-3.77767388708889484405517578125</LongitudeDegrees>
            </Position>
            <AltitudeMeters>943</AltitudeMeters>
            <DistanceMeters>NAN</DistanceMeters>
          </Trackpoint>
          <Trackpoint>
            <Time>2020-03-07T17:41:27.000Z</Time>
            <Position>
              <LatitudeDegrees>40.6829223968088626861572265625</LatitudeDegrees>
              <LongitudeDegrees>-3.77761789597570896148681640625</LongitudeDegrees>
            </Position>
            <AltitudeMeters>943</AltitudeMeters>
            <DistanceMeters>NAN</DistanceMeters>
          </Trackpoint>
          <Trackpoint>
            <Time>2020-03-07T17:41:28.000Z</Time>
            <Position>
              <LatitudeDegrees>40.68290823139250278472900390625</LatitudeDegrees>
              <LongitudeDegrees>-3.77756039611995220184326171875</LongitudeDegrees>
            </Position>
            <AltitudeMeters>943.20001220703125</AltitudeMeters>
            <DistanceMeters>NAN</DistanceMeters>
          </Trackpoint>
          <Trackpoint>
            <Time>2020-03-07T17:41:29.000Z</Time>
            <Position>
              <LatitudeDegrees>40.6828918866813182830810546875</LatitudeDegrees>
              <LongitudeDegrees>-3.77750725485384464263916015625</LongitudeDegrees>
            </Position>
            <AltitudeMeters>943.20001220703125</AltitudeMeters>
            <DistanceMeters>NAN</DistanceMeters>
          </Trackpoint>
          <Trackpoint>
            <Time>2020-03-07T17:41:30.000Z</Time>
            <Position>
              <LatitudeDegrees>40.682876966893672943115234375</LatitudeDegrees>
              <LongitudeDegrees>-3.77745294012129306793212890625</LongitudeDegrees>
            </Position>
            <AltitudeMeters>943.20001220703125</AltitudeMeters>
            <DistanceMeters>NAN</DistanceMeters>
          </Trackpoint>
          <Trackpoint>
            <Time>2020-03-07T17:41:31.000Z</Time>
            <Position>
              <LatitudeDegrees>40.68286120891571044921875</LatitudeDegrees>
              <LongitudeDegrees>-3.7773977033793926239013671875</LongitudeDegrees>
            </Position>
            <AltitudeMeters>943.20001220703125</AltitudeMeters>
            <DistanceMeters>NAN</DistanceMeters>
          </Trackpoint>
          <Trackpoint>
            <Time>2020-03-07T17:41:32.000Z</Time>
            <Position>
              <LatitudeDegrees>40.6828437745571136474609375</LatitudeDegrees>
              <LongitudeDegrees>-3.77734355628490447998046875</LongitudeDegrees>
            </Position>
            <AltitudeMeters>943.4000244140625</AltitudeMeters>
            <DistanceMeters>NAN</DistanceMeters>
          </Trackpoint>
          <Trackpoint>
            <Time>2020-03-07T17:41:33.000Z</Time>
            <Position>
              <LatitudeDegrees>40.68282826803624629974365234375</LatitudeDegrees>
              <LongitudeDegrees>-3.77729284577071666717529296875</LongitudeDegrees>
            </Position>
            <AltitudeMeters>943.4000244140625</AltitudeMeters>
            <DistanceMeters>NAN</DistanceMeters>
          </Trackpoint>
          <Trackpoint>
            <Time>2020-03-07T17:41:34.000Z</Time>
            <Position>
              <LatitudeDegrees>40.68281359970569610595703125</LatitudeDegrees>
              <LongitudeDegrees>-3.77723836340010166168212890625</LongitudeDegrees>
            </Position>
            <AltitudeMeters>943.5999755859375</AltitudeMeters>
            <DistanceMeters>NAN</DistanceMeters>
          </Trackpoint>
          <Trackpoint>
            <Time>2020-03-07T17:41:35.000Z</Time>
            <Position>
              <LatitudeDegrees>40.6827959977090358734130859375</LatitudeDegrees>
              <LongitudeDegrees>-3.77718471921980381011962890625</LongitudeDegrees>
            </Position>
            <AltitudeMeters>943.5999755859375</AltitudeMeters>
            <DistanceMeters>NAN</DistanceMeters>
          </Trackpoint>
          <Trackpoint>
            <Time>2020-03-07T17:41:36.000Z</Time>
            <Position>
              <LatitudeDegrees>40.68277873098850250244140625</LatitudeDegrees>
              <LongitudeDegrees>-3.77712990157306194305419921875</LongitudeDegrees>
            </Position>
            <AltitudeMeters>943.79998779296875</AltitudeMeters>
            <DistanceMeters>NAN</DistanceMeters>
          </Trackpoint>
          <Trackpoint>
            <Time>2020-03-07T17:41:37.000Z</Time>
            <Position>
              <LatitudeDegrees>40.68276238627731800079345703125</LatitudeDegrees>
              <LongitudeDegrees>-3.7770755030214786529541015625</LongitudeDegrees>
            </Position>
            <AltitudeMeters>943.79998779296875</AltitudeMeters>
            <DistanceMeters>NAN</DistanceMeters>
          </Trackpoint>
          <Trackpoint>
            <Time>2020-03-07T17:41:38.000Z</Time>
            <Position>
              <LatitudeDegrees>40.682746209204196929931640625</LatitudeDegrees>
              <LongitudeDegrees>-3.77701900899410247802734375</LongitudeDegrees>
            </Position>
            <AltitudeMeters>943.79998779296875</AltitudeMeters>
            <DistanceMeters>NAN</DistanceMeters>
          </Trackpoint>
          <Trackpoint>
            <Time>2020-03-07T17:41:39.000Z</Time>
            <Position>
              <LatitudeDegrees>40.68272902630269527435302734375</LatitudeDegrees>
              <LongitudeDegrees>-3.77696427516639232635498046875</LongitudeDegrees>
            </Position>
            <AltitudeMeters>943.79998779296875</AltitudeMeters>
            <DistanceMeters>NAN</DistanceMeters>
          </Trackpoint>
          <Trackpoint>
            <Time>2020-03-07T17:41:40.000Z</Time>
            <Position>
              <LatitudeDegrees>40.68271008320152759552001953125</LatitudeDegrees>
              <LongitudeDegrees>-3.77690845169126987457275390625</LongitudeDegrees>
            </Position>
            <AltitudeMeters>943.79998779296875</AltitudeMeters>
            <DistanceMeters>NAN</DistanceMeters>
          </Trackpoint>
          <Trackpoint>
            <Time>2020-03-07T17:41:41.000Z</Time>
            <Position>
              <LatitudeDegrees>40.68269130773842334747314453125</LatitudeDegrees>
              <LongitudeDegrees>-3.77685262821614742279052734375</LongitudeDegrees>
            </Position>
            <AltitudeMeters>943.79998779296875</AltitudeMeters>
            <DistanceMeters>NAN</DistanceMeters>
          </Trackpoint>
          <Trackpoint>
            <Time>2020-03-07T17:41:42.000Z</Time>
            <Position>
              <LatitudeDegrees>40.68267278373241424560546875</LatitudeDegrees>
              <LongitudeDegrees>-3.77679772675037384033203125</LongitudeDegrees>
            </Position>
            <AltitudeMeters>943.79998779296875</AltitudeMeters>
            <DistanceMeters>NAN</DistanceMeters>
          </Trackpoint>
          <Trackpoint>
            <Time>2020-03-07T17:41:43.000Z</Time>
            <Position>
              <LatitudeDegrees>40.68265208043158054351806640625</LatitudeDegrees>
              <LongitudeDegrees>-3.77674114890396595001220703125</LongitudeDegrees>
            </Position>
            <AltitudeMeters>943.79998779296875</AltitudeMeters>
            <DistanceMeters>NAN</DistanceMeters>
          </Trackpoint>
          <Trackpoint>
            <Time>2020-03-07T17:41:44.000Z</Time>
            <Position>
              <LatitudeDegrees>40.68263028748333454132080078125</LatitudeDegrees>
              <LongitudeDegrees>-3.77668348141014575958251953125</LongitudeDegrees>
            </Position>
            <AltitudeMeters>943.79998779296875</AltitudeMeters>
            <DistanceMeters>NAN</DistanceMeters>
          </Trackpoint>
          <Trackpoint>
            <Time>2020-03-07T17:41:45.000Z</Time>
            <Position>
              <LatitudeDegrees>40.6826082430779933929443359375</LatitudeDegrees>
              <LongitudeDegrees>-3.77662464044988155364990234375</LongitudeDegrees>
            </Position>
            <AltitudeMeters>943.79998779296875</AltitudeMeters>
            <DistanceMeters>NAN</DistanceMeters>
          </Trackpoint>
          <Trackpoint>
            <Time>2020-03-07T17:41:46.000Z</Time>
            <Position>
              <LatitudeDegrees>40.682587958872318267822265625</LatitudeDegrees>
              <LongitudeDegrees>-3.7765652127563953399658203125</LongitudeDegrees>
            </Position>
            <AltitudeMeters>943.79998779296875</AltitudeMeters>
            <DistanceMeters>NAN</DistanceMeters>
          </Trackpoint>
          <Trackpoint>
            <Time>2020-03-07T17:41:47.000Z</Time>
            <Position>
              <LatitudeDegrees>40.68256876431405544281005859375</LatitudeDegrees>
              <LongitudeDegrees>-3.7765028513967990875244140625</LongitudeDegrees>
            </Position>
            <AltitudeMeters>943.79998779296875</AltitudeMeters>
            <DistanceMeters>NAN</DistanceMeters>
          </Trackpoint>
          <Trackpoint>
            <Time>2020-03-07T17:41:48.000Z</Time>
            <Position>
              <LatitudeDegrees>40.68255007266998291015625</LatitudeDegrees>
              <LongitudeDegrees>-3.776440322399139404296875</LongitudeDegrees>
            </Position>
            <AltitudeMeters>943.79998779296875</AltitudeMeters>
            <DistanceMeters>NAN</DistanceMeters>
          </Trackpoint>
          <Trackpoint>
            <Time>2020-03-07T17:41:49.000Z</Time>
            <Position>
              <LatitudeDegrees>40.68252953700721263885498046875</LatitudeDegrees>
              <LongitudeDegrees>-3.77637871541082859039306640625</LongitudeDegrees>
            </Position>
            <AltitudeMeters>943.79998779296875</AltitudeMeters>
            <DistanceMeters>NAN</DistanceMeters>
          </Trackpoint>
          <Trackpoint>
            <Time>2020-03-07T17:41:50.000Z</Time>
            <Position>
              <LatitudeDegrees>40.6825086660683155059814453125</LatitudeDegrees>
              <LongitudeDegrees>-3.776317276060581207275390625</LongitudeDegrees>
            </Position>
            <AltitudeMeters>943.79998779296875</AltitudeMeters>
            <DistanceMeters>NAN</DistanceMeters>
          </Trackpoint>
          <Trackpoint>
            <Time>2020-03-07T17:41:51.000Z</Time>
            <Position>
              <LatitudeDegrees>40.68248863331973552703857421875</LatitudeDegrees>
              <LongitudeDegrees>-3.77625667490065097808837890625</LongitudeDegrees>
            </Position>
            <AltitudeMeters>943.5999755859375</AltitudeMeters>
            <DistanceMeters>NAN</DistanceMeters>
          </Trackpoint>
          <Trackpoint>
            <Time>2020-03-07T17:41:52.000Z</Time>
            <Position>
              <LatitudeDegrees>40.68246734328567981719970703125</LatitudeDegrees>
              <LongitudeDegrees>-3.7761980853974819183349609375</LongitudeDegrees>
            </Position>
            <AltitudeMeters>943.5999755859375</AltitudeMeters>
            <DistanceMeters>NAN</DistanceMeters>
          </Trackpoint>
          <Trackpoint>
            <Time>2020-03-07T17:41:53.000Z</Time>
            <Position>
              <LatitudeDegrees>40.68244437687098979949951171875</LatitudeDegrees>
              <LongitudeDegrees>-3.77613899298012256622314453125</LongitudeDegrees>
            </Position>
            <AltitudeMeters>943.5999755859375</AltitudeMeters>
            <DistanceMeters>NAN</DistanceMeters>
          </Trackpoint>
          <Trackpoint>
            <Time>2020-03-07T17:41:54.000Z</Time>
            <Position>
              <LatitudeDegrees>40.68241973407566547393798828125</LatitudeDegrees>
              <LongitudeDegrees>-3.776077888906002044677734375</LongitudeDegrees>
            </Position>
            <AltitudeMeters>943.5999755859375</AltitudeMeters>
            <DistanceMeters>NAN</DistanceMeters>
          </Trackpoint>
          <Trackpoint>
            <Time>2020-03-07T17:41:55.000Z</Time>
            <Position>
              <LatitudeDegrees>40.6823976896703243255615234375</LatitudeDegrees>
              <LongitudeDegrees>-3.77601427026093006134033203125</LongitudeDegrees>
            </Position>
            <AltitudeMeters>943.4000244140625</AltitudeMeters>
            <DistanceMeters>NAN</DistanceMeters>
          </Trackpoint>
          <Trackpoint>
            <Time>2020-03-07T17:41:56.000Z</Time>
            <Position>
              <LatitudeDegrees>40.68237639963626861572265625</LatitudeDegrees>
              <LongitudeDegrees>-3.7759496457874774932861328125</LongitudeDegrees>
            </Position>
            <AltitudeMeters>943.4000244140625</AltitudeMeters>
            <DistanceMeters>NAN</DistanceMeters>
          </Trackpoint>
          <Trackpoint>
            <Time>2020-03-07T17:41:57.000Z</Time>
            <Position>
              <LatitudeDegrees>40.6823564507067203521728515625</LatitudeDegrees>
              <LongitudeDegrees>-3.77588577568531036376953125</LongitudeDegrees>
            </Position>
            <AltitudeMeters>943.4000244140625</AltitudeMeters>
            <DistanceMeters>NAN</DistanceMeters>
          </Trackpoint>
          <Trackpoint>
            <Time>2020-03-07T17:41:58.000Z</Time>
            <Position>
              <LatitudeDegrees>40.6823366694152355194091796875</LatitudeDegrees>
              <LongitudeDegrees>-3.77582265995442867279052734375</LongitudeDegrees>
            </Position>
            <AltitudeMeters>943.4000244140625</AltitudeMeters>
            <DistanceMeters>NAN</DistanceMeters>
          </Trackpoint>
          <Trackpoint>
            <Time>2020-03-07T17:41:59.000Z</Time>
            <Position>
              <LatitudeDegrees>40.68231814540922641754150390625</LatitudeDegrees>
              <LongitudeDegrees>-3.775759041309356689453125</LongitudeDegrees>
            </Position>
            <AltitudeMeters>943.4000244140625</AltitudeMeters>
            <DistanceMeters>NAN</DistanceMeters>
          </Trackpoint>
          <Trackpoint>
            <Time>2020-03-07T17:42:00.000Z</Time>
            <Position>
              <LatitudeDegrees>40.6823001243174076080322265625</LatitudeDegrees>
              <LongitudeDegrees>-3.775696344673633575439453125</LongitudeDegrees>
            </Position>
            <AltitudeMeters>943.4000244140625</AltitudeMeters>
            <DistanceMeters>NAN</DistanceMeters>
          </Trackpoint>
          <Trackpoint>
            <Time>2020-03-07T17:42:01.000Z</Time>
            <Position>
              <LatitudeDegrees>40.68227908574044704437255859375</LatitudeDegrees>
              <LongitudeDegrees>-3.775632642209529876708984375</LongitudeDegrees>
            </Position>
            <AltitudeMeters>943.4000244140625</AltitudeMeters>
            <DistanceMeters>NAN</DistanceMeters>
          </Trackpoint>
          <Trackpoint>
            <Time>2020-03-07T17:42:02.000Z</Time>
            <Position>
              <LatitudeDegrees>40.68225880153477191925048828125</LatitudeDegrees>
              <LongitudeDegrees>-3.77556835301220417022705078125</LongitudeDegrees>
            </Position>
            <AltitudeMeters>943.4000244140625</AltitudeMeters>
            <DistanceMeters>NAN</DistanceMeters>
          </Trackpoint>
          <Trackpoint>
            <Time>2020-03-07T17:42:03.000Z</Time>
            <Position>
              <LatitudeDegrees>40.682237930595874786376953125</LatitudeDegrees>
              <LongitudeDegrees>-3.77550615929067134857177734375</LongitudeDegrees>
            </Position>
            <AltitudeMeters>943.4000244140625</AltitudeMeters>
            <DistanceMeters>NAN</DistanceMeters>
          </Trackpoint>
          <Trackpoint>
            <Time>2020-03-07T17:42:04.000Z</Time>
            <Position>
              <LatitudeDegrees>40.68221454508602619171142578125</LatitudeDegrees>
              <LongitudeDegrees>-3.77544279210269451141357421875</LongitudeDegrees>
            </Position>
            <AltitudeMeters>943.4000244140625</AltitudeMeters>
            <DistanceMeters>NAN</DistanceMeters>
          </Trackpoint>
          <Trackpoint>
            <Time>2020-03-07T17:42:05.000Z</Time>
            <Position>
              <LatitudeDegrees>40.68219132721424102783203125</LatitudeDegrees>
              <LongitudeDegrees>-3.77537992782890796661376953125</LongitudeDegrees>
            </Position>
            <AltitudeMeters>943.4000244140625</AltitudeMeters>
            <DistanceMeters>NAN</DistanceMeters>
          </Trackpoint>
          <Trackpoint>
            <Time>2020-03-07T17:42:06.000Z</Time>
            <Position>
              <LatitudeDegrees>40.6821676902472972869873046875</LatitudeDegrees>
              <LongitudeDegrees>-3.775320164859294891357421875</LongitudeDegrees>
            </Position>
            <AltitudeMeters>943.4000244140625</AltitudeMeters>
            <DistanceMeters>NAN</DistanceMeters>
          </Trackpoint>
          <Trackpoint>
            <Time>2020-03-07T17:42:07.000Z</Time>
            <Position>
              <LatitudeDegrees>40.6821432150900363922119140625</LatitudeDegrees>
              <LongitudeDegrees>-3.77526224590837955474853515625</LongitudeDegrees>
            </Position>
            <AltitudeMeters>943.4000244140625</AltitudeMeters>
            <DistanceMeters>NAN</DistanceMeters>
          </Trackpoint>
          <Trackpoint>
            <Time>2020-03-07T17:42:08.000Z</Time>
            <Position>
              <LatitudeDegrees>40.68212016485631465911865234375</LatitudeDegrees>
              <LongitudeDegrees>-3.77520558424293994903564453125</LongitudeDegrees>
            </Position>
            <AltitudeMeters>943.4000244140625</AltitudeMeters>
            <DistanceMeters>NAN</DistanceMeters>
          </Trackpoint>
          <Trackpoint>
            <Time>2020-03-07T17:42:09.000Z</Time>
            <Position>
              <LatitudeDegrees>40.682097785174846649169921875</LatitudeDegrees>
              <LongitudeDegrees>-3.77515009604394435882568359375</LongitudeDegrees>
            </Position>
            <AltitudeMeters>943.4000244140625</AltitudeMeters>
            <DistanceMeters>NAN</DistanceMeters>
          </Trackpoint>
          <Trackpoint>
            <Time>2020-03-07T17:42:10.000Z</Time>
            <Position>
              <LatitudeDegrees>40.6820775009691715240478515625</LatitudeDegrees>
              <LongitudeDegrees>-3.7750960327684879302978515625</LongitudeDegrees>
            </Position>
            <AltitudeMeters>943.4000244140625</AltitudeMeters>
            <DistanceMeters>NAN</DistanceMeters>
          </Trackpoint>
          <Trackpoint>
            <Time>2020-03-07T17:42:11.000Z</Time>
            <Position>
              <LatitudeDegrees>40.6820578873157501220703125</LatitudeDegrees>
              <LongitudeDegrees>-3.77504582516849040985107421875</LongitudeDegrees>
            </Position>
            <AltitudeMeters>943.5999755859375</AltitudeMeters>
            <DistanceMeters>NAN</DistanceMeters>
          </Trackpoint>
          <Trackpoint>
            <Time>2020-03-07T17:42:12.000Z</Time>
            <Position>
              <LatitudeDegrees>40.68203785456717014312744140625</LatitudeDegrees>
              <LongitudeDegrees>-3.7749944441020488739013671875</LongitudeDegrees>
            </Position>
            <AltitudeMeters>943.5999755859375</AltitudeMeters>
            <DistanceMeters>NAN</DistanceMeters>
          </Trackpoint>
          <Trackpoint>
            <Time>2020-03-07T17:42:13.000Z</Time>
            <Position>
              <LatitudeDegrees>40.68201706744730472564697265625</LatitudeDegrees>
              <LongitudeDegrees>-3.77494473941624164581298828125</LongitudeDegrees>
            </Position>
            <AltitudeMeters>943.5999755859375</AltitudeMeters>
            <DistanceMeters>NAN</DistanceMeters>
          </Trackpoint>
          <Trackpoint>
            <Time>2020-03-07T17:42:14.000Z</Time>
            <Position>
              <LatitudeDegrees>40.6819975376129150390625</LatitudeDegrees>
              <LongitudeDegrees>-3.77489578910171985626220703125</LongitudeDegrees>
            </Position>
            <AltitudeMeters>943.79998779296875</AltitudeMeters>
            <DistanceMeters>NAN</DistanceMeters>
          </Trackpoint>
          <Trackpoint>
            <Time>2020-03-07T17:42:15.000Z</Time>
            <Position>
              <LatitudeDegrees>40.68197767250239849090576171875</LatitudeDegrees>
              <LongitudeDegrees>-3.7748489342629909515380859375</LongitudeDegrees>
            </Position>
            <AltitudeMeters>943.79998779296875</AltitudeMeters>
            <DistanceMeters>NAN</DistanceMeters>
          </Trackpoint>
          <Trackpoint>
            <Time>2020-03-07T17:42:16.000Z</Time>
            <Position>
              <LatitudeDegrees>40.68195772357285022735595703125</LatitudeDegrees>
              <LongitudeDegrees>-3.774801827967166900634765625</LongitudeDegrees>
            </Position>
            <AltitudeMeters>944</AltitudeMeters>
            <DistanceMeters>NAN</DistanceMeters>
          </Trackpoint>
          <Trackpoint>
            <Time>2020-03-07T17:42:17.000Z</Time>
            <Position>
              <LatitudeDegrees>40.6819386966526508331298828125</LatitudeDegrees>
              <LongitudeDegrees>-3.7747537158429622650146484375</LongitudeDegrees>
            </Position>
            <AltitudeMeters>944.20001220703125</AltitudeMeters>
            <DistanceMeters>NAN</DistanceMeters>
          </Trackpoint>
          <Trackpoint>
            <Time>2020-03-07T17:42:18.000Z</Time>
            <Position>
              <LatitudeDegrees>40.6819226033985614776611328125</LatitudeDegrees>
              <LongitudeDegrees>-3.77470560371875762939453125</LongitudeDegrees>
            </Position>
            <AltitudeMeters>944.4000244140625</AltitudeMeters>
            <DistanceMeters>NAN</DistanceMeters>
          </Trackpoint>
          <Trackpoint>
            <Time>2020-03-07T17:42:19.000Z</Time>
            <Position>
              <LatitudeDegrees>40.6819071806967258453369140625</LatitudeDegrees>
              <LongitudeDegrees>-3.77465740777552127838134765625</LongitudeDegrees>
            </Position>
            <AltitudeMeters>944.5999755859375</AltitudeMeters>
            <DistanceMeters>NAN</DistanceMeters>
          </Trackpoint>
          <Trackpoint>
            <Time>2020-03-07T17:42:20.000Z</Time>
            <Position>
              <LatitudeDegrees>40.68189217709004878997802734375</LatitudeDegrees>
              <LongitudeDegrees>-3.7746075354516506195068359375</LongitudeDegrees>
            </Position>
            <AltitudeMeters>944.79998779296875</AltitudeMeters>
            <DistanceMeters>NAN</DistanceMeters>
          </Trackpoint>
          <Trackpoint>
            <Time>2020-03-07T17:42:21.000Z</Time>
            <Position>
              <LatitudeDegrees>40.6818736530840396881103515625</LatitudeDegrees>
              <LongitudeDegrees>-3.77455716021358966827392578125</LongitudeDegrees>
            </Position>
            <AltitudeMeters>945.20001220703125</AltitudeMeters>
            <DistanceMeters>NAN</DistanceMeters>
          </Trackpoint>
          <Trackpoint>
            <Time>2020-03-07T17:42:22.000Z</Time>
            <Position>
              <LatitudeDegrees>40.681856386363506317138671875</LatitudeDegrees>
              <LongitudeDegrees>-3.77450577914714813232421875</LongitudeDegrees>
            </Position>
            <AltitudeMeters>945.4000244140625</AltitudeMeters>
            <DistanceMeters>NAN</DistanceMeters>
          </Trackpoint>
          <Trackpoint>
            <Time>2020-03-07T17:42:23.000Z</Time>
            <Position>
              <LatitudeDegrees>40.68184054456651210784912109375</LatitudeDegrees>
              <LongitudeDegrees>-3.77445171587169170379638671875</LongitudeDegrees>
            </Position>
            <AltitudeMeters>945.5999755859375</AltitudeMeters>
            <DistanceMeters>NAN</DistanceMeters>
          </Trackpoint>
          <Trackpoint>
            <Time>2020-03-07T17:42:24.000Z</Time>
            <Position>
              <LatitudeDegrees>40.68182512186467647552490234375</LatitudeDegrees>
              <LongitudeDegrees>-3.77439589239656925201416015625</LongitudeDegrees>
            </Position>
            <AltitudeMeters>945.79998779296875</AltitudeMeters>
            <DistanceMeters>NAN</DistanceMeters>
          </Trackpoint>
          <Trackpoint>
            <Time>2020-03-07T17:42:25.000Z</Time>
            <Position>
              <LatitudeDegrees>40.68181020207703113555908203125</LatitudeDegrees>
              <LongitudeDegrees>-3.774337470531463623046875</LongitudeDegrees>
            </Position>
            <AltitudeMeters>946</AltitudeMeters>
            <DistanceMeters>NAN</DistanceMeters>
          </Trackpoint>
          <Trackpoint>
            <Time>2020-03-07T17:42:26.000Z</Time>
            <Position>
              <LatitudeDegrees>40.68179444409906864166259765625</LatitudeDegrees>
              <LongitudeDegrees>-3.77427603118121623992919921875</LongitudeDegrees>
            </Position>
            <AltitudeMeters>946</AltitudeMeters>
            <DistanceMeters>NAN</DistanceMeters>
          </Trackpoint>
          <Trackpoint>
            <Time>2020-03-07T17:42:27.000Z</Time>
            <Position>
              <LatitudeDegrees>40.68177818320691585540771484375</LatitudeDegrees>
              <LongitudeDegrees>-3.77421031706035137176513671875</LongitudeDegrees>
            </Position>
            <AltitudeMeters>946</AltitudeMeters>
            <DistanceMeters>NAN</DistanceMeters>
          </Trackpoint>
          <Trackpoint>
            <Time>2020-03-07T17:42:28.000Z</Time>
            <Position>
              <LatitudeDegrees>40.68175856955349445343017578125</LatitudeDegrees>
              <LongitudeDegrees>-3.77414074726402759552001953125</LongitudeDegrees>
            </Position>
            <AltitudeMeters>946</AltitudeMeters>
            <DistanceMeters>NAN</DistanceMeters>
          </Trackpoint>
          <Trackpoint>
            <Time>2020-03-07T17:42:29.000Z</Time>
            <Position>
              <LatitudeDegrees>40.68173795007169246673583984375</LatitudeDegrees>
              <LongitudeDegrees>-3.77406581304967403411865234375</LongitudeDegrees>
            </Position>
            <AltitudeMeters>946</AltitudeMeters>
            <DistanceMeters>NAN</DistanceMeters>
          </Trackpoint>
          <Trackpoint>
            <Time>2020-03-07T17:42:30.000Z</Time>
            <Position>
              <LatitudeDegrees>40.68171481601893901824951171875</LatitudeDegrees>
              <LongitudeDegrees>-3.77398417331278324127197265625</LongitudeDegrees>
            </Position>
            <AltitudeMeters>946</AltitudeMeters>
            <DistanceMeters>NAN</DistanceMeters>
          </Trackpoint>
          <Trackpoint>
            <Time>2020-03-07T17:42:31.000Z</Time>
            <Position>
              <LatitudeDegrees>40.68168975412845611572265625</LatitudeDegrees>
              <LongitudeDegrees>-3.77389750443398952484130859375</LongitudeDegrees>
            </Position>
            <AltitudeMeters>946</AltitudeMeters>
            <DistanceMeters>NAN</DistanceMeters>
          </Trackpoint>
          <Trackpoint>
            <Time>2020-03-07T17:42:32.000Z</Time>
            <Position>
              <LatitudeDegrees>40.6816657818853855133056640625</LatitudeDegrees>
              <LongitudeDegrees>-3.7738038785755634307861328125</LongitudeDegrees>
            </Position>
            <AltitudeMeters>946</AltitudeMeters>
            <DistanceMeters>NAN</DistanceMeters>
          </Trackpoint>
          <Trackpoint>
            <Time>2020-03-07T17:42:33.000Z</Time>
            <Position>
              <LatitudeDegrees>40.68164021708071231842041015625</LatitudeDegrees>
              <LongitudeDegrees>-3.77370270900428295135498046875</LongitudeDegrees>
            </Position>
            <AltitudeMeters>945.5999755859375</AltitudeMeters>
            <DistanceMeters>NAN</DistanceMeters>
          </Trackpoint>
          <Trackpoint>
            <Time>2020-03-07T17:42:34.000Z</Time>
            <Position>
              <LatitudeDegrees>40.68161373026669025421142578125</LatitudeDegrees>
              <LongitudeDegrees>-3.77359525300562381744384765625</LongitudeDegrees>
            </Position>
            <AltitudeMeters>945.20001220703125</AltitudeMeters>
            <DistanceMeters>NAN</DistanceMeters>
          </Trackpoint>
          <Trackpoint>
            <Time>2020-03-07T17:42:35.000Z</Time>
            <Position>
              <LatitudeDegrees>40.6815859861671924591064453125</LatitudeDegrees>
              <LongitudeDegrees>-3.77348226495087146759033203125</LongitudeDegrees>
            </Position>
            <AltitudeMeters>944.79998779296875</AltitudeMeters>
            <DistanceMeters>NAN</DistanceMeters>
          </Trackpoint>
          <Trackpoint>
            <Time>2020-03-07T17:42:36.000Z</Time>
            <Position>
              <LatitudeDegrees>40.6815551407635211944580078125</LatitudeDegrees>
              <LongitudeDegrees>-3.77336307428777217864990234375</LongitudeDegrees>
            </Position>
            <AltitudeMeters>944.20001220703125</AltitudeMeters>
            <DistanceMeters>NAN</DistanceMeters>
          </Trackpoint>
          <Trackpoint>
            <Time>2020-03-07T17:42:37.000Z</Time>
            <Position>
              <LatitudeDegrees>40.68152253516018390655517578125</LatitudeDegrees>
              <LongitudeDegrees>-3.77323969267308712005615234375</LongitudeDegrees>
            </Position>
            <AltitudeMeters>943.79998779296875</AltitudeMeters>
            <DistanceMeters>NAN</DistanceMeters>
          </Trackpoint>
          <Trackpoint>
            <Time>2020-03-07T17:42:38.000Z</Time>
            <Position>
              <LatitudeDegrees>40.68148900754749774932861328125</LatitudeDegrees>
              <LongitudeDegrees>-3.77311631105840206146240234375</LongitudeDegrees>
            </Position>
            <AltitudeMeters>943</AltitudeMeters>
            <DistanceMeters>NAN</DistanceMeters>
          </Trackpoint>
          <Trackpoint>
            <Time>2020-03-07T17:42:39.000Z</Time>
            <Position>
              <LatitudeDegrees>40.68145447410643100738525390625</LatitudeDegrees>
              <LongitudeDegrees>-3.77298840321600437164306640625</LongitudeDegrees>
            </Position>
            <AltitudeMeters>942.4000244140625</AltitudeMeters>
            <DistanceMeters>NAN</DistanceMeters>
          </Trackpoint>
          <Trackpoint>
            <Time>2020-03-07T17:42:40.000Z</Time>
            <Position>
              <LatitudeDegrees>40.68141885101795196533203125</LatitudeDegrees>
              <LongitudeDegrees>-3.77285764552652835845947265625</LongitudeDegrees>
            </Position>
            <AltitudeMeters>941.5999755859375</AltitudeMeters>
            <DistanceMeters>NAN</DistanceMeters>
          </Trackpoint>
          <Trackpoint>
            <Time>2020-03-07T17:42:41.000Z</Time>
            <Position>
              <LatitudeDegrees>40.68138188682496547698974609375</LatitudeDegrees>
              <LongitudeDegrees>-3.77272345125675201416015625</LongitudeDegrees>
            </Position>
            <AltitudeMeters>940.5999755859375</AltitudeMeters>
            <DistanceMeters>NAN</DistanceMeters>
          </Trackpoint>
          <Trackpoint>
            <Time>2020-03-07T17:42:42.000Z</Time>
            <Position>
              <LatitudeDegrees>40.68134148605167865753173828125</LatitudeDegrees>
              <LongitudeDegrees>-3.77258523367345333099365234375</LongitudeDegrees>
            </Position>
            <AltitudeMeters>939.79998779296875</AltitudeMeters>
            <DistanceMeters>NAN</DistanceMeters>
          </Trackpoint>
          <Trackpoint>
            <Time>2020-03-07T17:42:43.000Z</Time>
            <Position>
              <LatitudeDegrees>40.68130016326904296875</LatitudeDegrees>
              <LongitudeDegrees>-3.772443830966949462890625</LongitudeDegrees>
            </Position>
            <AltitudeMeters>939</AltitudeMeters>
            <DistanceMeters>NAN</DistanceMeters>
          </Trackpoint>
          <Trackpoint>
            <Time>2020-03-07T17:42:44.000Z</Time>
            <Position>
              <LatitudeDegrees>40.6812570802867412567138671875</LatitudeDegrees>
              <LongitudeDegrees>-3.7722998298704624176025390625</LongitudeDegrees>
            </Position>
            <AltitudeMeters>938.20001220703125</AltitudeMeters>
            <DistanceMeters>NAN</DistanceMeters>
          </Trackpoint>
          <Trackpoint>
            <Time>2020-03-07T17:42:45.000Z</Time>
            <Position>
              <LatitudeDegrees>40.6812118180096149444580078125</LatitudeDegrees>
              <LongitudeDegrees>-3.77215348184108734130859375</LongitudeDegrees>
            </Position>
            <AltitudeMeters>937.20001220703125</AltitudeMeters>
            <DistanceMeters>NAN</DistanceMeters>
          </Trackpoint>
          <Trackpoint>
            <Time>2020-03-07T17:42:46.000Z</Time>
            <Position>
              <LatitudeDegrees>40.6811642087996006011962890625</LatitudeDegrees>
              <LongitudeDegrees>-3.77200503833591938018798828125</LongitudeDegrees>
            </Position>
            <AltitudeMeters>936.20001220703125</AltitudeMeters>
            <DistanceMeters>NAN</DistanceMeters>
          </Trackpoint>
          <Trackpoint>
            <Time>2020-03-07T17:42:47.000Z</Time>
            <Position>
              <LatitudeDegrees>40.68111668340861797332763671875</LatitudeDegrees>
              <LongitudeDegrees>-3.77185567282140254974365234375</LongitudeDegrees>
            </Position>
            <AltitudeMeters>935.20001220703125</AltitudeMeters>
            <DistanceMeters>NAN</DistanceMeters>
          </Trackpoint>
          <Trackpoint>
            <Time>2020-03-07T17:42:48.000Z</Time>
            <Position>
              <LatitudeDegrees>40.681069158017635345458984375</LatitudeDegrees>
              <LongitudeDegrees>-3.7717075645923614501953125</LongitudeDegrees>
            </Position>
            <AltitudeMeters>934.4000244140625</AltitudeMeters>
            <DistanceMeters>NAN</DistanceMeters>
          </Trackpoint>
          <Trackpoint>
            <Time>2020-03-07T17:42:49.000Z</Time>
            <Position>
              <LatitudeDegrees>40.68102431483566761016845703125</LatitudeDegrees>
              <LongitudeDegrees>-3.77156130038201808929443359375</LongitudeDegrees>
            </Position>
            <AltitudeMeters>933.20001220703125</AltitudeMeters>
            <DistanceMeters>NAN</DistanceMeters>
          </Trackpoint>
          <Trackpoint>
            <Time>2020-03-07T17:42:50.000Z</Time>
            <Position>
              <LatitudeDegrees>40.680979304015636444091796875</LatitudeDegrees>
              <LongitudeDegrees>-3.7714143656194210052490234375</LongitudeDegrees>
            </Position>
            <AltitudeMeters>932.20001220703125</AltitudeMeters>
            <DistanceMeters>NAN</DistanceMeters>
          </Trackpoint>
          <Trackpoint>
            <Time>2020-03-07T17:42:51.000Z</Time>
            <Position>
              <LatitudeDegrees>40.680935047566890716552734375</LatitudeDegrees>
              <LongitudeDegrees>-3.7712678499519824981689453125</LongitudeDegrees>
            </Position>
            <AltitudeMeters>931.20001220703125</AltitudeMeters>
            <DistanceMeters>NAN</DistanceMeters>
          </Trackpoint>
          <Trackpoint>
            <Time>2020-03-07T17:42:52.000Z</Time>
            <Position>
              <LatitudeDegrees>40.68088852800428867340087890625</LatitudeDegrees>
              <LongitudeDegrees>-3.77112225629389286041259765625</LongitudeDegrees>
            </Position>
            <AltitudeMeters>930.20001220703125</AltitudeMeters>
            <DistanceMeters>NAN</DistanceMeters>
          </Trackpoint>
          <Trackpoint>
            <Time>2020-03-07T17:42:53.000Z</Time>
            <Position>
              <LatitudeDegrees>40.68084209226071834564208984375</LatitudeDegrees>
              <LongitudeDegrees>-3.770979680120944976806640625</LongitudeDegrees>
            </Position>
            <AltitudeMeters>929.20001220703125</AltitudeMeters>
            <DistanceMeters>NAN</DistanceMeters>
          </Trackpoint>
          <Trackpoint>
            <Time>2020-03-07T17:42:54.000Z</Time>
            <Position>
              <LatitudeDegrees>40.6807937286794185638427734375</LatitudeDegrees>
              <LongitudeDegrees>-3.77083794213831424713134765625</LongitudeDegrees>
            </Position>
            <AltitudeMeters>928.20001220703125</AltitudeMeters>
            <DistanceMeters>NAN</DistanceMeters>
          </Trackpoint>
          <Trackpoint>
            <Time>2020-03-07T17:42:55.000Z</Time>
            <Position>
              <LatitudeDegrees>40.6807360611855983734130859375</LatitudeDegrees>
              <LongitudeDegrees>-3.77070240676403045654296875</LongitudeDegrees>
            </Position>
            <AltitudeMeters>927</AltitudeMeters>
            <DistanceMeters>NAN</DistanceMeters>
          </Trackpoint>
          <Trackpoint>
            <Time>2020-03-07T17:42:56.000Z</Time>
            <Position>
              <LatitudeDegrees>40.68066489882767200469970703125</LatitudeDegrees>
              <LongitudeDegrees>-3.77057969570159912109375</LongitudeDegrees>
            </Position>
            <AltitudeMeters>926</AltitudeMeters>
            <DistanceMeters>NAN</DistanceMeters>
          </Trackpoint>
          <Trackpoint>
            <Time>2020-03-07T17:42:57.000Z</Time>
            <Position>
              <LatitudeDegrees>40.6805774755775928497314453125</LatitudeDegrees>
              <LongitudeDegrees>-3.77047902904450893402099609375</LongitudeDegrees>
            </Position>
            <AltitudeMeters>925</AltitudeMeters>
            <DistanceMeters>NAN</DistanceMeters>
          </Trackpoint>
          <Trackpoint>
            <Time>2020-03-07T17:42:58.000Z</Time>
            <Position>
              <LatitudeDegrees>40.68047965876758098602294921875</LatitudeDegrees>
              <LongitudeDegrees>-3.77040158025920391082763671875</LongitudeDegrees>
            </Position>
            <AltitudeMeters>924.5999755859375</AltitudeMeters>
            <DistanceMeters>NAN</DistanceMeters>
          </Trackpoint>
          <Trackpoint>
            <Time>2020-03-07T17:42:59.000Z</Time>
            <Position>
              <LatitudeDegrees>40.68037119694054126739501953125</LatitudeDegrees>
              <LongitudeDegrees>-3.77034709788858890533447265625</LongitudeDegrees>
            </Position>
            <AltitudeMeters>924</AltitudeMeters>
            <DistanceMeters>NAN</DistanceMeters>
          </Trackpoint>
          <Trackpoint>
            <Time>2020-03-07T17:43:00.000Z</Time>
            <Position>
              <LatitudeDegrees>40.68026038818061351776123046875</LatitudeDegrees>
              <LongitudeDegrees>-3.77030946314334869384765625</LongitudeDegrees>
            </Position>
            <AltitudeMeters>923.4000244140625</AltitudeMeters>
            <DistanceMeters>NAN</DistanceMeters>
          </Trackpoint>
          <Trackpoint>
            <Time>2020-03-07T17:43:01.000Z</Time>
            <Position>
              <LatitudeDegrees>40.68014790304005146026611328125</LatitudeDegrees>
              <LongitudeDegrees>-3.77027752809226512908935546875</LongitudeDegrees>
            </Position>
            <AltitudeMeters>923</AltitudeMeters>
            <DistanceMeters>NAN</DistanceMeters>
          </Trackpoint>
          <Trackpoint>
            <Time>2020-03-07T17:43:02.000Z</Time>
            <Position>
              <LatitudeDegrees>40.6800376810133457183837890625</LatitudeDegrees>
              <LongitudeDegrees>-3.77024911344051361083984375</LongitudeDegrees>
            </Position>
            <AltitudeMeters>922.4000244140625</AltitudeMeters>
            <DistanceMeters>NAN</DistanceMeters>
          </Trackpoint>
          <Trackpoint>
            <Time>2020-03-07T17:43:03.000Z</Time>
            <Position>
              <LatitudeDegrees>40.67992812953889369964599609375</LatitudeDegrees>
              <LongitudeDegrees>-3.77022002823650836944580078125</LongitudeDegrees>
            </Position>
            <AltitudeMeters>922</AltitudeMeters>
            <DistanceMeters>NAN</DistanceMeters>
          </Trackpoint>
          <Trackpoint>
            <Time>2020-03-07T17:43:04.000Z</Time>
            <Position>
              <LatitudeDegrees>40.67982000298798084259033203125</LatitudeDegrees>
              <LongitudeDegrees>-3.77018851228058338165283203125</LongitudeDegrees>
            </Position>
            <AltitudeMeters>921.20001220703125</AltitudeMeters>
            <DistanceMeters>NAN</DistanceMeters>
          </Trackpoint>
          <Trackpoint>
            <Time>2020-03-07T17:43:05.000Z</Time>
            <Position>
              <LatitudeDegrees>40.67971489392220973968505859375</LatitudeDegrees>
              <LongitudeDegrees>-3.77014978788793087005615234375</LongitudeDegrees>
            </Position>
            <AltitudeMeters>920.79998779296875</AltitudeMeters>
            <DistanceMeters>NAN</DistanceMeters>
          </Trackpoint>
          <Trackpoint>
            <Time>2020-03-07T17:43:06.000Z</Time>
            <Position>
              <LatitudeDegrees>40.6796122156083583831787109375</LatitudeDegrees>
              <LongitudeDegrees>-3.77009966410696506500244140625</LongitudeDegrees>
            </Position>
            <AltitudeMeters>920.20001220703125</AltitudeMeters>
            <DistanceMeters>NAN</DistanceMeters>
          </Trackpoint>
          <Trackpoint>
            <Time>2020-03-07T17:43:07.000Z</Time>
            <Position>
              <LatitudeDegrees>40.67951448261737823486328125</LatitudeDegrees>
              <LongitudeDegrees>-3.77003797329962253570556640625</LongitudeDegrees>
            </Position>
            <AltitudeMeters>920</AltitudeMeters>
            <DistanceMeters>NAN</DistanceMeters>
          </Trackpoint>
          <Trackpoint>
            <Time>2020-03-07T17:43:08.000Z</Time>
            <Position>
              <LatitudeDegrees>40.6794224493205547332763671875</LatitudeDegrees>
              <LongitudeDegrees>-3.7699653021991252899169921875</LongitudeDegrees>
            </Position>
            <AltitudeMeters>919.5999755859375</AltitudeMeters>
            <DistanceMeters>NAN</DistanceMeters>
          </Trackpoint>
          <Trackpoint>
            <Time>2020-03-07T17:43:09.000Z</Time>
            <Position>
              <LatitudeDegrees>40.67933871410787105560302734375</LatitudeDegrees>
              <LongitudeDegrees>-3.76988089643418788909912109375</LongitudeDegrees>
            </Position>
            <AltitudeMeters>919.4000244140625</AltitudeMeters>
            <DistanceMeters>NAN</DistanceMeters>
          </Trackpoint>
          <Trackpoint>
            <Time>2020-03-07T17:43:10.000Z</Time>
            <Position>
              <LatitudeDegrees>40.679266713559627532958984375</LatitudeDegrees>
              <LongitudeDegrees>-3.7697798945009708404541015625</LongitudeDegrees>
            </Position>
            <AltitudeMeters>919.20001220703125</AltitudeMeters>
            <DistanceMeters>NAN</DistanceMeters>
          </Trackpoint>
          <Trackpoint>
            <Time>2020-03-07T17:43:11.000Z</Time>
            <Position>
              <LatitudeDegrees>40.6792118959128856658935546875</LatitudeDegrees>
              <LongitudeDegrees>-3.76966363750398159027099609375</LongitudeDegrees>
            </Position>
            <AltitudeMeters>918.79998779296875</AltitudeMeters>
            <DistanceMeters>NAN</DistanceMeters>
          </Trackpoint>
          <Trackpoint>
            <Time>2020-03-07T17:43:12.000Z</Time>
            <Position>
              <LatitudeDegrees>40.6791619397699832916259765625</LatitudeDegrees>
              <LongitudeDegrees>-3.7695435248315334320068359375</LongitudeDegrees>
            </Position>
            <AltitudeMeters>918.5999755859375</AltitudeMeters>
            <DistanceMeters>NAN</DistanceMeters>
          </Trackpoint>
          <Trackpoint>
            <Time>2020-03-07T17:43:14.000Z</Time>
            <Position>
              <LatitudeDegrees>40.67909337580204010009765625</LatitudeDegrees>
              <LongitudeDegrees>-3.769313357770442962646484375</LongitudeDegrees>
            </Position>
            <AltitudeMeters>917.5999755859375</AltitudeMeters>
            <DistanceMeters>NAN</DistanceMeters>
          </Trackpoint>
          <Trackpoint>
            <Time>2020-03-07T17:43:15.000Z</Time>
            <Position>
              <LatitudeDegrees>40.67910921759903430938720703125</LatitudeDegrees>
              <LongitudeDegrees>-3.76918771304190158843994140625</LongitudeDegrees>
            </Position>
            <AltitudeMeters>917.20001220703125</AltitudeMeters>
            <DistanceMeters>NAN</DistanceMeters>
          </Trackpoint>
          <Trackpoint>
            <Time>2020-03-07T17:43:16.000Z</Time>
            <Position>
              <LatitudeDegrees>40.67914324812591075897216796875</LatitudeDegrees>
              <LongitudeDegrees>-3.7690694443881511688232421875</LongitudeDegrees>
            </Position>
            <AltitudeMeters>916.79998779296875</AltitudeMeters>
            <DistanceMeters>NAN</DistanceMeters>
          </Trackpoint>
          <Trackpoint>
            <Time>2020-03-07T17:43:17.000Z</Time>
            <Position>
              <LatitudeDegrees>40.679199658334255218505859375</LatitudeDegrees>
              <LongitudeDegrees>-3.7689648382365703582763671875</LongitudeDegrees>
            </Position>
            <AltitudeMeters>916.5999755859375</AltitudeMeters>
            <DistanceMeters>NAN</DistanceMeters>
          </Trackpoint>
          <Trackpoint>
            <Time>2020-03-07T17:43:18.000Z</Time>
            <Position>
              <LatitudeDegrees>40.67926227115094661712646484375</LatitudeDegrees>
              <LongitudeDegrees>-3.76888227649033069610595703125</LongitudeDegrees>
            </Position>
            <AltitudeMeters>916.4000244140625</AltitudeMeters>
            <DistanceMeters>NAN</DistanceMeters>
          </Trackpoint>
          <Trackpoint>
            <Time>2020-03-07T17:43:19.000Z</Time>
            <Position>
              <LatitudeDegrees>40.679334104061126708984375</LatitudeDegrees>
              <LongitudeDegrees>-3.7688116170465946197509765625</LongitudeDegrees>
            </Position>
            <AltitudeMeters>916.20001220703125</AltitudeMeters>
            <DistanceMeters>NAN</DistanceMeters>
          </Trackpoint>
          <Trackpoint>
            <Time>2020-03-07T17:43:20.000Z</Time>
            <Position>
              <LatitudeDegrees>40.67941733635962009429931640625</LatitudeDegrees>
              <LongitudeDegrees>-3.7687428854405879974365234375</LongitudeDegrees>
            </Position>
            <AltitudeMeters>916.20001220703125</AltitudeMeters>
            <DistanceMeters>NAN</DistanceMeters>
          </Trackpoint>
          <Trackpoint>
            <Time>2020-03-07T17:43:21.000Z</Time>
            <Position>
              <LatitudeDegrees>40.67949729971587657928466796875</LatitudeDegrees>
              <LongitudeDegrees>-3.7686718069016933441162109375</LongitudeDegrees>
            </Position>
            <AltitudeMeters>916</AltitudeMeters>
            <DistanceMeters>NAN</DistanceMeters>
          </Trackpoint>
          <Trackpoint>
            <Time>2020-03-07T17:43:22.000Z</Time>
            <Position>
              <LatitudeDegrees>40.67957692779600620269775390625</LatitudeDegrees>
              <LongitudeDegrees>-3.76859779469668865203857421875</LongitudeDegrees>
            </Position>
            <AltitudeMeters>916</AltitudeMeters>
            <DistanceMeters>NAN</DistanceMeters>
          </Trackpoint>
          <Trackpoint>
            <Time>2020-03-07T17:43:23.000Z</Time>
            <Position>
              <LatitudeDegrees>40.67964582704007625579833984375</LatitudeDegrees>
              <LongitudeDegrees>-3.76851313747465610504150390625</LongitudeDegrees>
            </Position>
            <AltitudeMeters>915.79998779296875</AltitudeMeters>
            <DistanceMeters>NAN</DistanceMeters>
          </Trackpoint>
          <Trackpoint>
            <Time>2020-03-07T17:43:24.000Z</Time>
            <Position>
              <LatitudeDegrees>40.67970299161970615386962890625</LatitudeDegrees>
              <LongitudeDegrees>-3.76841708086431026458740234375</LongitudeDegrees>
            </Position>
            <AltitudeMeters>915.5999755859375</AltitudeMeters>
            <DistanceMeters>NAN</DistanceMeters>
          </Trackpoint>
          <Trackpoint>
            <Time>2020-03-07T17:43:25.000Z</Time>
            <Position>
              <LatitudeDegrees>40.67974573932588100433349609375</LatitudeDegrees>
              <LongitudeDegrees>-3.7683123908936977386474609375</LongitudeDegrees>
            </Position>
            <AltitudeMeters>915.4000244140625</AltitudeMeters>
            <DistanceMeters>NAN</DistanceMeters>
          </Trackpoint>
          <Trackpoint>
            <Time>2020-03-07T17:43:26.000Z</Time>
            <Position>
              <LatitudeDegrees>40.67977407015860080718994140625</LatitudeDegrees>
              <LongitudeDegrees>-3.7682019174098968505859375</LongitudeDegrees>
            </Position>
            <AltitudeMeters>915.4000244140625</AltitudeMeters>
            <DistanceMeters>NAN</DistanceMeters>
          </Trackpoint>
          <Trackpoint>
            <Time>2020-03-07T17:43:27.000Z</Time>
            <Position>
              <LatitudeDegrees>40.67978429608047008514404296875</LatitudeDegrees>
              <LongitudeDegrees>-3.768087923526763916015625</LongitudeDegrees>
            </Position>
            <AltitudeMeters>915.20001220703125</AltitudeMeters>
            <DistanceMeters>NAN</DistanceMeters>
          </Trackpoint>
          <Trackpoint>
            <Time>2020-03-07T17:43:28.000Z</Time>
            <Position>
              <LatitudeDegrees>40.6797798536717891693115234375</LatitudeDegrees>
              <LongitudeDegrees>-3.76797384582459926605224609375</LongitudeDegrees>
            </Position>
            <AltitudeMeters>915.20001220703125</AltitudeMeters>
            <DistanceMeters>NAN</DistanceMeters>
          </Trackpoint>
          <Trackpoint>
            <Time>2020-03-07T17:43:29.000Z</Time>
            <Position>
              <LatitudeDegrees>40.679762251675128936767578125</LatitudeDegrees>
              <LongitudeDegrees>-3.7678644619882106781005859375</LongitudeDegrees>
            </Position>
            <AltitudeMeters>915.20001220703125</AltitudeMeters>
            <DistanceMeters>NAN</DistanceMeters>
          </Trackpoint>
          <Trackpoint>
            <Time>2020-03-07T17:43:30.000Z</Time>
            <Position>
              <LatitudeDegrees>40.679727382957935333251953125</LatitudeDegrees>
              <LongitudeDegrees>-3.767760694026947021484375</LongitudeDegrees>
            </Position>
            <AltitudeMeters>915.20001220703125</AltitudeMeters>
            <DistanceMeters>NAN</DistanceMeters>
          </Trackpoint>
          <Trackpoint>
            <Time>2020-03-07T17:43:31.000Z</Time>
            <Position>
              <LatitudeDegrees>40.6796879880130290985107421875</LatitudeDegrees>
              <LongitudeDegrees>-3.767657764256000518798828125</LongitudeDegrees>
            </Position>
            <AltitudeMeters>915.20001220703125</AltitudeMeters>
            <DistanceMeters>NAN</DistanceMeters>
          </Trackpoint>
          <Trackpoint>
            <Time>2020-03-07T17:43:32.000Z</Time>
            <Position>
              <LatitudeDegrees>40.67964314483106136322021484375</LatitudeDegrees>
              <LongitudeDegrees>-3.76756011508405208587646484375</LongitudeDegrees>
            </Position>
            <AltitudeMeters>915</AltitudeMeters>
            <DistanceMeters>NAN</DistanceMeters>
          </Trackpoint>
          <Trackpoint>
            <Time>2020-03-07T17:43:33.000Z</Time>
            <Position>
              <LatitudeDegrees>40.67960073240101337432861328125</LatitudeDegrees>
              <LongitudeDegrees>-3.7674629688262939453125</LongitudeDegrees>
            </Position>
            <AltitudeMeters>914.79998779296875</AltitudeMeters>
            <DistanceMeters>NAN</DistanceMeters>
          </Trackpoint>
          <Trackpoint>
            <Time>2020-03-07T17:43:34.000Z</Time>
            <Position>
              <LatitudeDegrees>40.6795612536370754241943359375</LatitudeDegrees>
              <LongitudeDegrees>-3.76736146397888660430908203125</LongitudeDegrees>
            </Position>
            <AltitudeMeters>914.5999755859375</AltitudeMeters>
            <DistanceMeters>NAN</DistanceMeters>
          </Trackpoint>
          <Trackpoint>
            <Time>2020-03-07T17:43:35.000Z</Time>
            <Position>
              <LatitudeDegrees>40.67952462472021579742431640625</LatitudeDegrees>
              <LongitudeDegrees>-3.7672592885792255401611328125</LongitudeDegrees>
            </Position>
            <AltitudeMeters>914.4000244140625</AltitudeMeters>
            <DistanceMeters>NAN</DistanceMeters>
          </Trackpoint>
          <Trackpoint>
            <Time>2020-03-07T17:43:36.000Z</Time>
            <Position>
              <LatitudeDegrees>40.6794881634414196014404296875</LatitudeDegrees>
              <LongitudeDegrees>-3.76715644262731075286865234375</LongitudeDegrees>
            </Position>
            <AltitudeMeters>914.20001220703125</AltitudeMeters>
            <DistanceMeters>NAN</DistanceMeters>
          </Trackpoint>
          <Trackpoint>
            <Time>2020-03-07T17:43:37.000Z</Time>
            <Position>
              <LatitudeDegrees>40.67944943904876708984375</LatitudeDegrees>
              <LongitudeDegrees>-3.76705669797956943511962890625</LongitudeDegrees>
            </Position>
            <AltitudeMeters>914</AltitudeMeters>
            <DistanceMeters>NAN</DistanceMeters>
          </Trackpoint>
          <Trackpoint>
            <Time>2020-03-07T17:43:38.000Z</Time>
            <Position>
              <LatitudeDegrees>40.67940744571387767791748046875</LatitudeDegrees>
              <LongitudeDegrees>-3.7669578753411769866943359375</LongitudeDegrees>
            </Position>
            <AltitudeMeters>913.5999755859375</AltitudeMeters>
            <DistanceMeters>NAN</DistanceMeters>
          </Trackpoint>
          <Trackpoint>
            <Time>2020-03-07T17:43:39.000Z</Time>
            <Position>
              <LatitudeDegrees>40.679365284740924835205078125</LatitudeDegrees>
              <LongitudeDegrees>-3.766859807074069976806640625</LongitudeDegrees>
            </Position>
            <AltitudeMeters>913.4000244140625</AltitudeMeters>
            <DistanceMeters>NAN</DistanceMeters>
          </Trackpoint>
          <Trackpoint>
            <Time>2020-03-07T17:43:40.000Z</Time>
            <Position>
              <LatitudeDegrees>40.6793238781392574310302734375</LatitudeDegrees>
              <LongitudeDegrees>-3.76675997860729694366455078125</LongitudeDegrees>
            </Position>
            <AltitudeMeters>913.20001220703125</AltitudeMeters>
            <DistanceMeters>NAN</DistanceMeters>
          </Trackpoint>
          <Trackpoint>
            <Time>2020-03-07T17:43:41.000Z</Time>
            <Position>
              <LatitudeDegrees>40.6792823038995265960693359375</LatitudeDegrees>
              <LongitudeDegrees>-3.7666604854166507720947265625</LongitudeDegrees>
            </Position>
            <AltitudeMeters>913.20001220703125</AltitudeMeters>
            <DistanceMeters>NAN</DistanceMeters>
          </Trackpoint>
          <Trackpoint>
            <Time>2020-03-07T17:43:42.000Z</Time>
            <Position>
              <LatitudeDegrees>40.67924031056463718414306640625</LatitudeDegrees>
              <LongitudeDegrees>-3.766561411321163177490234375</LongitudeDegrees>
            </Position>
            <AltitudeMeters>913</AltitudeMeters>
            <DistanceMeters>NAN</DistanceMeters>
          </Trackpoint>
          <Trackpoint>
            <Time>2020-03-07T17:43:43.000Z</Time>
            <Position>
              <LatitudeDegrees>40.67919571883976459503173828125</LatitudeDegrees>
              <LongitudeDegrees>-3.7664646841585636138916015625</LongitudeDegrees>
            </Position>
            <AltitudeMeters>912.79998779296875</AltitudeMeters>
            <DistanceMeters>NAN</DistanceMeters>
          </Trackpoint>
          <Trackpoint>
            <Time>2020-03-07T17:43:44.000Z</Time>
            <Position>
              <LatitudeDegrees>40.6791498698294162750244140625</LatitudeDegrees>
              <LongitudeDegrees>-3.7663698010146617889404296875</LongitudeDegrees>
            </Position>
            <AltitudeMeters>912.5999755859375</AltitudeMeters>
            <DistanceMeters>NAN</DistanceMeters>
          </Trackpoint>
          <Trackpoint>
            <Time>2020-03-07T17:43:45.000Z</Time>
            <Position>
              <LatitudeDegrees>40.67910318262875080108642578125</LatitudeDegrees>
              <LongitudeDegrees>-3.766276426613330841064453125</LongitudeDegrees>
            </Position>
            <AltitudeMeters>912.5999755859375</AltitudeMeters>
            <DistanceMeters>NAN</DistanceMeters>
          </Trackpoint>
          <Trackpoint>
            <Time>2020-03-07T17:43:46.000Z</Time>
            <Position>
              <LatitudeDegrees>40.67905892618000507354736328125</LatitudeDegrees>
              <LongitudeDegrees>-3.7661833874881267547607421875</LongitudeDegrees>
            </Position>
            <AltitudeMeters>912.5999755859375</AltitudeMeters>
            <DistanceMeters>NAN</DistanceMeters>
          </Trackpoint>
          <Trackpoint>
            <Time>2020-03-07T17:43:47.000Z</Time>
            <Position>
              <LatitudeDegrees>40.6790140829980373382568359375</LatitudeDegrees>
              <LongitudeDegrees>-3.7660968862473964691162109375</LongitudeDegrees>
            </Position>
            <AltitudeMeters>912.4000244140625</AltitudeMeters>
            <DistanceMeters>NAN</DistanceMeters>
          </Trackpoint>
          <Trackpoint>
            <Time>2020-03-07T17:43:48.000Z</Time>
            <Position>
              <LatitudeDegrees>40.67896588705480098724365234375</LatitudeDegrees>
              <LongitudeDegrees>-3.76600879244506359100341796875</LongitudeDegrees>
            </Position>
            <AltitudeMeters>912.4000244140625</AltitudeMeters>
            <DistanceMeters>NAN</DistanceMeters>
          </Trackpoint>
          <Trackpoint>
            <Time>2020-03-07T17:43:49.000Z</Time>
            <Position>
              <LatitudeDegrees>40.6789175234735012054443359375</LatitudeDegrees>
              <LongitudeDegrees>-3.7659201957285404205322265625</LongitudeDegrees>
            </Position>
            <AltitudeMeters>912.4000244140625</AltitudeMeters>
            <DistanceMeters>NAN</DistanceMeters>
          </Trackpoint>
          <Trackpoint>
            <Time>2020-03-07T17:43:50.000Z</Time>
            <Position>
              <LatitudeDegrees>40.678868405520915985107421875</LatitudeDegrees>
              <LongitudeDegrees>-3.76583193428814411163330078125</LongitudeDegrees>
            </Position>
            <AltitudeMeters>912.4000244140625</AltitudeMeters>
            <DistanceMeters>NAN</DistanceMeters>
          </Trackpoint>
          <Trackpoint>
            <Time>2020-03-07T17:43:51.000Z</Time>
            <Position>
              <LatitudeDegrees>40.67882037721574306488037109375</LatitudeDegrees>
              <LongitudeDegrees>-3.76574325375258922576904296875</LongitudeDegrees>
            </Position>
            <AltitudeMeters>912.4000244140625</AltitudeMeters>
            <DistanceMeters>NAN</DistanceMeters>
          </Trackpoint>
          <Trackpoint>
            <Time>2020-03-07T17:43:52.000Z</Time>
            <Position>
              <LatitudeDegrees>40.67877042107284069061279296875</LatitudeDegrees>
              <LongitudeDegrees>-3.76565541140735149383544921875</LongitudeDegrees>
            </Position>
            <AltitudeMeters>912.20001220703125</AltitudeMeters>
            <DistanceMeters>NAN</DistanceMeters>
          </Trackpoint>
          <Trackpoint>
            <Time>2020-03-07T17:43:53.000Z</Time>
            <Position>
              <LatitudeDegrees>40.678721554577350616455078125</LatitudeDegrees>
              <LongitudeDegrees>-3.7655674852430820465087890625</LongitudeDegrees>
            </Position>
            <AltitudeMeters>911.5999755859375</AltitudeMeters>
            <DistanceMeters>NAN</DistanceMeters>
          </Trackpoint>
          <Trackpoint>
            <Time>2020-03-07T17:43:54.000Z</Time>
            <Position>
              <LatitudeDegrees>40.67867629230022430419921875</LatitudeDegrees>
              <LongitudeDegrees>-3.7654809840023517608642578125</LongitudeDegrees>
            </Position>
            <AltitudeMeters>910.5999755859375</AltitudeMeters>
            <DistanceMeters>NAN</DistanceMeters>
          </Trackpoint>
          <Trackpoint>
            <Time>2020-03-07T17:43:55.000Z</Time>
            <Position>
              <LatitudeDegrees>40.67863211967051029205322265625</LatitudeDegrees>
              <LongitudeDegrees>-3.7653961591422557830810546875</LongitudeDegrees>
            </Position>
            <AltitudeMeters>910.20001220703125</AltitudeMeters>
            <DistanceMeters>NAN</DistanceMeters>
          </Trackpoint>
          <Trackpoint>
            <Time>2020-03-07T17:43:56.000Z</Time>
            <Position>
              <LatitudeDegrees>40.67859054543077945709228515625</LatitudeDegrees>
              <LongitudeDegrees>-3.76531057991087436676025390625</LongitudeDegrees>
            </Position>
            <AltitudeMeters>909.79998779296875</AltitudeMeters>
            <DistanceMeters>NAN</DistanceMeters>
          </Trackpoint>
          <Trackpoint>
            <Time>2020-03-07T17:43:57.000Z</Time>
            <Position>
              <LatitudeDegrees>40.67854763008654117584228515625</LatitudeDegrees>
              <LongitudeDegrees>-3.76522642560303211212158203125</LongitudeDegrees>
            </Position>
            <AltitudeMeters>908.79998779296875</AltitudeMeters>
            <DistanceMeters>NAN</DistanceMeters>
          </Trackpoint>
          <Trackpoint>
            <Time>2020-03-07T17:43:58.000Z</Time>
            <Position>
              <LatitudeDegrees>40.67850136198103427886962890625</LatitudeDegrees>
              <LongitudeDegrees>-3.76514478586614131927490234375</LongitudeDegrees>
            </Position>
            <AltitudeMeters>908.20001220703125</AltitudeMeters>
            <DistanceMeters>NAN</DistanceMeters>
          </Trackpoint>
          <Trackpoint>
            <Time>2020-03-07T17:43:59.000Z</Time>
            <Position>
              <LatitudeDegrees>40.67845257930457592010498046875</LatitudeDegrees>
              <LongitudeDegrees>-3.76506616361439228057861328125</LongitudeDegrees>
            </Position>
            <AltitudeMeters>908</AltitudeMeters>
            <DistanceMeters>NAN</DistanceMeters>
          </Trackpoint>
          <Trackpoint>
            <Time>2020-03-07T17:44:00.000Z</Time>
            <Position>
              <LatitudeDegrees>40.67840228788554668426513671875</LatitudeDegrees>
              <LongitudeDegrees>-3.7649854458868503570556640625</LongitudeDegrees>
            </Position>
            <AltitudeMeters>907.79998779296875</AltitudeMeters>
            <DistanceMeters>NAN</DistanceMeters>
          </Trackpoint>
          <Trackpoint>
            <Time>2020-03-07T17:44:01.000Z</Time>
            <Position>
              <LatitudeDegrees>40.678354762494564056396484375</LatitudeDegrees>
              <LongitudeDegrees>-3.7649033032357692718505859375</LongitudeDegrees>
            </Position>
            <AltitudeMeters>907.79998779296875</AltitudeMeters>
            <DistanceMeters>NAN</DistanceMeters>
          </Trackpoint>
          <Trackpoint>
            <Time>2020-03-07T17:44:02.000Z</Time>
            <Position>
              <LatitudeDegrees>40.67830757237970829010009765625</LatitudeDegrees>
              <LongitudeDegrees>-3.76482392661273479461669921875</LongitudeDegrees>
            </Position>
            <AltitudeMeters>907.5999755859375</AltitudeMeters>
            <DistanceMeters>NAN</DistanceMeters>
          </Trackpoint>
          <Trackpoint>
            <Time>2020-03-07T17:44:03.000Z</Time>
            <Position>
              <LatitudeDegrees>40.6782583706080913543701171875</LatitudeDegrees>
              <LongitudeDegrees>-3.7647460587322711944580078125</LongitudeDegrees>
            </Position>
            <AltitudeMeters>907.5999755859375</AltitudeMeters>
            <DistanceMeters>NAN</DistanceMeters>
          </Trackpoint>
          <Trackpoint>
            <Time>2020-03-07T17:44:04.000Z</Time>
            <Position>
              <LatitudeDegrees>40.67820900119841098785400390625</LatitudeDegrees>
              <LongitudeDegrees>-3.764665760099887847900390625</LongitudeDegrees>
            </Position>
            <AltitudeMeters>907.5999755859375</AltitudeMeters>
            <DistanceMeters>NAN</DistanceMeters>
          </Trackpoint>
          <Trackpoint>
            <Time>2020-03-07T17:44:05.000Z</Time>
            <Position>
              <LatitudeDegrees>40.67816005088388919830322265625</LatitudeDegrees>
              <LongitudeDegrees>-3.76459074206650257110595703125</LongitudeDegrees>
            </Position>
            <AltitudeMeters>907.4000244140625</AltitudeMeters>
            <DistanceMeters>NAN</DistanceMeters>
          </Trackpoint>
          <Trackpoint>
            <Time>2020-03-07T17:44:06.000Z</Time>
            <Position>
              <LatitudeDegrees>40.67810892127454280853271484375</LatitudeDegrees>
              <LongitudeDegrees>-3.764520250260829925537109375</LongitudeDegrees>
            </Position>
            <AltitudeMeters>907.20001220703125</AltitudeMeters>
            <DistanceMeters>NAN</DistanceMeters>
          </Trackpoint>
          <Trackpoint>
            <Time>2020-03-07T17:44:07.000Z</Time>
            <Position>
              <LatitudeDegrees>40.678059719502925872802734375</LatitudeDegrees>
              <LongitudeDegrees>-3.7644468247890472412109375</LongitudeDegrees>
            </Position>
            <AltitudeMeters>907</AltitudeMeters>
            <DistanceMeters>NAN</DistanceMeters>
          </Trackpoint>
          <Trackpoint>
            <Time>2020-03-07T17:44:08.000Z</Time>
            <Position>
              <LatitudeDegrees>40.67800867371261119842529296875</LatitudeDegrees>
              <LongitudeDegrees>-3.7643717229366302490234375</LongitudeDegrees>
            </Position>
            <AltitudeMeters>906.79998779296875</AltitudeMeters>
            <DistanceMeters>NAN</DistanceMeters>
          </Trackpoint>
          <Trackpoint>
            <Time>2020-03-07T17:44:09.000Z</Time>
            <Position>
              <LatitudeDegrees>40.677956454455852508544921875</LatitudeDegrees>
              <LongitudeDegrees>-3.76429536379873752593994140625</LongitudeDegrees>
            </Position>
            <AltitudeMeters>906.79998779296875</AltitudeMeters>
            <DistanceMeters>NAN</DistanceMeters>
          </Trackpoint>
          <Trackpoint>
            <Time>2020-03-07T17:44:10.000Z</Time>
            <Position>
              <LatitudeDegrees>40.6779023073613643646240234375</LatitudeDegrees>
              <LongitudeDegrees>-3.76421992667019367218017578125</LongitudeDegrees>
            </Position>
            <AltitudeMeters>906.79998779296875</AltitudeMeters>
            <DistanceMeters>NAN</DistanceMeters>
          </Trackpoint>
          <Trackpoint>
            <Time>2020-03-07T17:44:11.000Z</Time>
            <Position>
              <LatitudeDegrees>40.677845813333988189697265625</LatitudeDegrees>
              <LongitudeDegrees>-3.76414231024682521820068359375</LongitudeDegrees>
            </Position>
            <AltitudeMeters>906.4000244140625</AltitudeMeters>
            <DistanceMeters>NAN</DistanceMeters>
          </Trackpoint>
          <Trackpoint>
            <Time>2020-03-07T17:44:12.000Z</Time>
            <Position>
              <LatitudeDegrees>40.67779158242046833038330078125</LatitudeDegrees>
              <LongitudeDegrees>-3.76406502909958362579345703125</LongitudeDegrees>
            </Position>
            <AltitudeMeters>906</AltitudeMeters>
            <DistanceMeters>NAN</DistanceMeters>
          </Trackpoint>
          <Trackpoint>
            <Time>2020-03-07T17:44:13.000Z</Time>
            <Position>
              <LatitudeDegrees>40.67773483693599700927734375</LatitudeDegrees>
              <LongitudeDegrees>-3.76398925669491291046142578125</LongitudeDegrees>
            </Position>
            <AltitudeMeters>905.5999755859375</AltitudeMeters>
            <DistanceMeters>NAN</DistanceMeters>
          </Trackpoint>
          <Trackpoint>
            <Time>2020-03-07T17:44:14.000Z</Time>
            <Position>
              <LatitudeDegrees>40.6776806898415088653564453125</LatitudeDegrees>
              <LongitudeDegrees>-3.76391105353832244873046875</LongitudeDegrees>
            </Position>
            <AltitudeMeters>905.20001220703125</AltitudeMeters>
            <DistanceMeters>NAN</DistanceMeters>
          </Trackpoint>
          <Trackpoint>
            <Time>2020-03-07T17:44:15.000Z</Time>
            <Position>
              <LatitudeDegrees>40.677625872194766998291015625</LatitudeDegrees>
              <LongitudeDegrees>-3.76383486203849315643310546875</LongitudeDegrees>
            </Position>
            <AltitudeMeters>905</AltitudeMeters>
            <DistanceMeters>NAN</DistanceMeters>
          </Trackpoint>
          <Trackpoint>
            <Time>2020-03-07T17:44:16.000Z</Time>
            <Position>
              <LatitudeDegrees>40.67757080309092998504638671875</LatitudeDegrees>
              <LongitudeDegrees>-3.76376076601445674896240234375</LongitudeDegrees>
            </Position>
            <AltitudeMeters>904.5999755859375</AltitudeMeters>
            <DistanceMeters>NAN</DistanceMeters>
          </Trackpoint>
          <Trackpoint>
            <Time>2020-03-07T17:44:17.000Z</Time>
            <Position>
              <LatitudeDegrees>40.67751548252999782562255859375</LatitudeDegrees>
              <LongitudeDegrees>-3.7636852450668811798095703125</LongitudeDegrees>
            </Position>
            <AltitudeMeters>904.20001220703125</AltitudeMeters>
            <DistanceMeters>NAN</DistanceMeters>
          </Trackpoint>
          <Trackpoint>
            <Time>2020-03-07T17:44:18.000Z</Time>
            <Position>
              <LatitudeDegrees>40.67745915614068508148193359375</LatitudeDegrees>
              <LongitudeDegrees>-3.763615004718303680419921875</LongitudeDegrees>
            </Position>
            <AltitudeMeters>904.20001220703125</AltitudeMeters>
            <DistanceMeters>NAN</DistanceMeters>
          </Trackpoint>
          <Trackpoint>
            <Time>2020-03-07T17:44:19.000Z</Time>
            <Position>
              <LatitudeDegrees>40.67740467377007007598876953125</LatitudeDegrees>
              <LongitudeDegrees>-3.763545267283916473388671875</LongitudeDegrees>
            </Position>
            <AltitudeMeters>904</AltitudeMeters>
            <DistanceMeters>NAN</DistanceMeters>
          </Trackpoint>
          <Trackpoint>
            <Time>2020-03-07T17:44:20.000Z</Time>
            <Position>
              <LatitudeDegrees>40.67735069431364536285400390625</LatitudeDegrees>
              <LongitudeDegrees>-3.76347628422081470489501953125</LongitudeDegrees>
            </Position>
            <AltitudeMeters>903.79998779296875</AltitudeMeters>
            <DistanceMeters>NAN</DistanceMeters>
          </Trackpoint>
          <Trackpoint>
            <Time>2020-03-07T17:44:21.000Z</Time>
            <Position>
              <LatitudeDegrees>40.67729738540947437286376953125</LatitudeDegrees>
              <LongitudeDegrees>-3.7634089775383472442626953125</LongitudeDegrees>
            </Position>
            <AltitudeMeters>903.4000244140625</AltitudeMeters>
            <DistanceMeters>NAN</DistanceMeters>
          </Trackpoint>
          <Trackpoint>
            <Time>2020-03-07T17:44:22.000Z</Time>
            <Position>
              <LatitudeDegrees>40.67724256776273250579833984375</LatitudeDegrees>
              <LongitudeDegrees>-3.763342760503292083740234375</LongitudeDegrees>
            </Position>
            <AltitudeMeters>903.20001220703125</AltitudeMeters>
            <DistanceMeters>NAN</DistanceMeters>
          </Trackpoint>
          <Trackpoint>
            <Time>2020-03-07T17:44:23.000Z</Time>
            <Position>
              <LatitudeDegrees>40.6771901808679103851318359375</LatitudeDegrees>
              <LongitudeDegrees>-3.763277046382427215576171875</LongitudeDegrees>
            </Position>
            <AltitudeMeters>903.20001220703125</AltitudeMeters>
            <DistanceMeters>NAN</DistanceMeters>
          </Trackpoint>
          <Trackpoint>
            <Time>2020-03-07T17:44:24.000Z</Time>
            <Position>
              <LatitudeDegrees>40.6771373748779296875</LatitudeDegrees>
              <LongitudeDegrees>-3.76321242190897464752197265625</LongitudeDegrees>
            </Position>
            <AltitudeMeters>903</AltitudeMeters>
            <DistanceMeters>NAN</DistanceMeters>
          </Trackpoint>
          <Trackpoint>
            <Time>2020-03-07T17:44:25.000Z</Time>
            <Position>
              <LatitudeDegrees>40.67708440124988555908203125</LatitudeDegrees>
              <LongitudeDegrees>-3.7631451152265071868896484375</LongitudeDegrees>
            </Position>
            <AltitudeMeters>903</AltitudeMeters>
            <DistanceMeters>NAN</DistanceMeters>
          </Trackpoint>
          <Trackpoint>
            <Time>2020-03-07T17:44:26.000Z</Time>
            <Position>
              <LatitudeDegrees>40.6770319305360317230224609375</LatitudeDegrees>
              <LongitudeDegrees>-3.76307797618210315704345703125</LongitudeDegrees>
            </Position>
            <AltitudeMeters>903</AltitudeMeters>
            <DistanceMeters>NAN</DistanceMeters>
          </Trackpoint>
          <Trackpoint>
            <Time>2020-03-07T17:44:27.000Z</Time>
            <Position>
              <LatitudeDegrees>40.676981471478939056396484375</LatitudeDegrees>
              <LongitudeDegrees>-3.76301242969930171966552734375</LongitudeDegrees>
            </Position>
            <AltitudeMeters>902.79998779296875</AltitudeMeters>
            <DistanceMeters>NAN</DistanceMeters>
          </Trackpoint>
          <Trackpoint>
            <Time>2020-03-07T17:44:28.000Z</Time>
            <Position>
              <LatitudeDegrees>40.6769303418695926666259765625</LatitudeDegrees>
              <LongitudeDegrees>-3.76294638030230998992919921875</LongitudeDegrees>
            </Position>
            <AltitudeMeters>902.79998779296875</AltitudeMeters>
            <DistanceMeters>NAN</DistanceMeters>
          </Trackpoint>
          <Trackpoint>
            <Time>2020-03-07T17:44:29.000Z</Time>
            <Position>
              <LatitudeDegrees>40.6768800504505634307861328125</LatitudeDegrees>
              <LongitudeDegrees>-3.76288267783820629119873046875</LongitudeDegrees>
            </Position>
            <AltitudeMeters>902.79998779296875</AltitudeMeters>
            <DistanceMeters>NAN</DistanceMeters>
          </Trackpoint>
          <Trackpoint>
            <Time>2020-03-07T17:44:30.000Z</Time>
            <Position>
              <LatitudeDegrees>40.6768267415463924407958984375</LatitudeDegrees>
              <LongitudeDegrees>-3.762817047536373138427734375</LongitudeDegrees>
            </Position>
            <AltitudeMeters>902.79998779296875</AltitudeMeters>
            <DistanceMeters>NAN</DistanceMeters>
          </Trackpoint>
          <Trackpoint>
            <Time>2020-03-07T17:44:31.000Z</Time>
            <Position>
              <LatitudeDegrees>40.67677058279514312744140625</LatitudeDegrees>
              <LongitudeDegrees>-3.76275192014873027801513671875</LongitudeDegrees>
            </Position>
            <AltitudeMeters>902.5999755859375</AltitudeMeters>
            <DistanceMeters>NAN</DistanceMeters>
          </Trackpoint>
          <Trackpoint>
            <Time>2020-03-07T17:44:32.000Z</Time>
            <Position>
              <LatitudeDegrees>40.676712580025196075439453125</LatitudeDegrees>
              <LongitudeDegrees>-3.76268654130399227142333984375</LongitudeDegrees>
            </Position>
            <AltitudeMeters>902.4000244140625</AltitudeMeters>
            <DistanceMeters>NAN</DistanceMeters>
          </Trackpoint>
          <Trackpoint>
            <Time>2020-03-07T17:44:33.000Z</Time>
            <Position>
              <LatitudeDegrees>40.67665097303688526153564453125</LatitudeDegrees>
              <LongitudeDegrees>-3.76261646859347820281982421875</LongitudeDegrees>
            </Position>
            <AltitudeMeters>902.4000244140625</AltitudeMeters>
            <DistanceMeters>NAN</DistanceMeters>
          </Trackpoint>
          <Trackpoint>
            <Time>2020-03-07T17:44:34.000Z</Time>
            <Position>
              <LatitudeDegrees>40.676587857306003570556640625</LatitudeDegrees>
              <LongitudeDegrees>-3.7625432945787906646728515625</LongitudeDegrees>
            </Position>
            <AltitudeMeters>902.20001220703125</AltitudeMeters>
            <DistanceMeters>NAN</DistanceMeters>
          </Trackpoint>
          <Trackpoint>
            <Time>2020-03-07T17:44:35.000Z</Time>
            <Position>
              <LatitudeDegrees>40.67652440629899501800537109375</LatitudeDegrees>
              <LongitudeDegrees>-3.762468360364437103271484375</LongitudeDegrees>
            </Position>
            <AltitudeMeters>902.20001220703125</AltitudeMeters>
            <DistanceMeters>NAN</DistanceMeters>
          </Trackpoint>
          <Trackpoint>
            <Time>2020-03-07T17:44:36.000Z</Time>
            <Position>
              <LatitudeDegrees>40.67645869217813014984130859375</LatitudeDegrees>
              <LongitudeDegrees>-3.76239418052136898040771484375</LongitudeDegrees>
            </Position>
            <AltitudeMeters>902.20001220703125</AltitudeMeters>
            <DistanceMeters>NAN</DistanceMeters>
          </Trackpoint>
          <Trackpoint>
            <Time>2020-03-07T17:44:37.000Z</Time>
            <Position>
              <LatitudeDegrees>40.676392726600170135498046875</LatitudeDegrees>
              <LongitudeDegrees>-3.76232142560184001922607421875</LongitudeDegrees>
            </Position>
            <AltitudeMeters>902</AltitudeMeters>
            <DistanceMeters>NAN</DistanceMeters>
          </Trackpoint>
          <Trackpoint>
            <Time>2020-03-07T17:44:38.000Z</Time>
            <Position>
              <LatitudeDegrees>40.67632399499416351318359375</LatitudeDegrees>
              <LongitudeDegrees>-3.7622487545013427734375</LongitudeDegrees>
            </Position>
            <AltitudeMeters>901.79998779296875</AltitudeMeters>
            <DistanceMeters>NAN</DistanceMeters>
          </Trackpoint>
          <Trackpoint>
            <Time>2020-03-07T17:44:39.000Z</Time>
            <Position>
              <LatitudeDegrees>40.676251240074634552001953125</LatitudeDegrees>
              <LongitudeDegrees>-3.7621758319437503814697265625</LongitudeDegrees>
            </Position>
            <AltitudeMeters>901.4000244140625</AltitudeMeters>
            <DistanceMeters>NAN</DistanceMeters>
          </Trackpoint>
          <Trackpoint>
            <Time>2020-03-07T17:44:40.000Z</Time>
            <Position>
              <LatitudeDegrees>40.67617722786962985992431640625</LatitudeDegrees>
              <LongitudeDegrees>-3.76210190355777740478515625</LongitudeDegrees>
            </Position>
            <AltitudeMeters>901.4000244140625</AltitudeMeters>
            <DistanceMeters>NAN</DistanceMeters>
          </Trackpoint>
          <Trackpoint>
            <Time>2020-03-07T17:44:41.000Z</Time>
            <Position>
              <LatitudeDegrees>40.67610229365527629852294921875</LatitudeDegrees>
              <LongitudeDegrees>-3.76202554441988468170166015625</LongitudeDegrees>
            </Position>
            <AltitudeMeters>901</AltitudeMeters>
            <DistanceMeters>NAN</DistanceMeters>
          </Trackpoint>
          <Trackpoint>
            <Time>2020-03-07T17:44:42.000Z</Time>
            <Position>
              <LatitudeDegrees>40.6760267727077007293701171875</LatitudeDegrees>
              <LongitudeDegrees>-3.76194901764392852783203125</LongitudeDegrees>
            </Position>
            <AltitudeMeters>900.4000244140625</AltitudeMeters>
            <DistanceMeters>NAN</DistanceMeters>
          </Trackpoint>
          <Trackpoint>
            <Time>2020-03-07T17:44:43.000Z</Time>
            <Position>
              <LatitudeDegrees>40.67594873718917369842529296875</LatitudeDegrees>
              <LongitudeDegrees>-3.76187148503959178924560546875</LongitudeDegrees>
            </Position>
            <AltitudeMeters>900.20001220703125</AltitudeMeters>
            <DistanceMeters>NAN</DistanceMeters>
          </Trackpoint>
          <Trackpoint>
            <Time>2020-03-07T17:44:44.000Z</Time>
            <Position>
              <LatitudeDegrees>40.67586793564260005950927734375</LatitudeDegrees>
              <LongitudeDegrees>-3.761795461177825927734375</LongitudeDegrees>
            </Position>
            <AltitudeMeters>899.5999755859375</AltitudeMeters>
            <DistanceMeters>NAN</DistanceMeters>
          </Trackpoint>
          <Trackpoint>
            <Time>2020-03-07T17:44:45.000Z</Time>
            <Position>
              <LatitudeDegrees>40.675786547362804412841796875</LatitudeDegrees>
              <LongitudeDegrees>-3.76171994023025035858154296875</LongitudeDegrees>
            </Position>
            <AltitudeMeters>899.20001220703125</AltitudeMeters>
            <DistanceMeters>NAN</DistanceMeters>
          </Trackpoint>
          <Trackpoint>
            <Time>2020-03-07T17:44:46.000Z</Time>
            <Position>
              <LatitudeDegrees>40.67570834420621395111083984375</LatitudeDegrees>
              <LongitudeDegrees>-3.76164718531072139739990234375</LongitudeDegrees>
            </Position>
            <AltitudeMeters>898.5999755859375</AltitudeMeters>
            <DistanceMeters>NAN</DistanceMeters>
          </Trackpoint>
          <Trackpoint>
            <Time>2020-03-07T17:44:47.000Z</Time>
            <Position>
              <LatitudeDegrees>40.67562854848802089691162109375</LatitudeDegrees>
              <LongitudeDegrees>-3.7615730054676532745361328125</LongitudeDegrees>
            </Position>
            <AltitudeMeters>897.79998779296875</AltitudeMeters>
            <DistanceMeters>NAN</DistanceMeters>
          </Trackpoint>
          <Trackpoint>
            <Time>2020-03-07T17:44:48.000Z</Time>
            <Position>
              <LatitudeDegrees>40.67554674111306667327880859375</LatitudeDegrees>
              <LongitudeDegrees>-3.7615017592906951904296875</LongitudeDegrees>
            </Position>
            <AltitudeMeters>896.5999755859375</AltitudeMeters>
            <DistanceMeters>NAN</DistanceMeters>
          </Trackpoint>
          <Trackpoint>
            <Time>2020-03-07T17:44:49.000Z</Time>
            <Position>
              <LatitudeDegrees>40.6754635088145732879638671875</LatitudeDegrees>
              <LongitudeDegrees>-3.76142724417150020599365234375</LongitudeDegrees>
            </Position>
            <AltitudeMeters>896.20001220703125</AltitudeMeters>
            <DistanceMeters>NAN</DistanceMeters>
          </Trackpoint>
          <Trackpoint>
            <Time>2020-03-07T17:44:50.000Z</Time>
            <Position>
              <LatitudeDegrees>40.67537860013544559478759765625</LatitudeDegrees>
              <LongitudeDegrees>-3.7613560818135738372802734375</LongitudeDegrees>
            </Position>
            <AltitudeMeters>895.4000244140625</AltitudeMeters>
            <DistanceMeters>NAN</DistanceMeters>
          </Trackpoint>
          <Trackpoint>
            <Time>2020-03-07T17:44:51.000Z</Time>
            <Position>
              <LatitudeDegrees>40.67529612220823764801025390625</LatitudeDegrees>
              <LongitudeDegrees>-3.76128743402659893035888671875</LongitudeDegrees>
            </Position>
            <AltitudeMeters>894.79998779296875</AltitudeMeters>
            <DistanceMeters>NAN</DistanceMeters>
          </Trackpoint>
          <Trackpoint>
            <Time>2020-03-07T17:44:52.000Z</Time>
            <Position>
              <LatitudeDegrees>40.67521448247134685516357421875</LatitudeDegrees>
              <LongitudeDegrees>-3.76122188754379749298095703125</LongitudeDegrees>
            </Position>
            <AltitudeMeters>894.20001220703125</AltitudeMeters>
            <DistanceMeters>NAN</DistanceMeters>
          </Trackpoint>
          <Trackpoint>
            <Time>2020-03-07T17:44:53.000Z</Time>
            <Position>
              <LatitudeDegrees>40.6751332618296146392822265625</LatitudeDegrees>
              <LongitudeDegrees>-3.7611562572419643402099609375</LongitudeDegrees>
            </Position>
            <AltitudeMeters>893.79998779296875</AltitudeMeters>
            <DistanceMeters>NAN</DistanceMeters>
          </Trackpoint>
          <Trackpoint>
            <Time>2020-03-07T17:44:54.000Z</Time>
            <Position>
              <LatitudeDegrees>40.675050951540470123291015625</LatitudeDegrees>
              <LongitudeDegrees>-3.7610878609120845794677734375</LongitudeDegrees>
            </Position>
            <AltitudeMeters>893.4000244140625</AltitudeMeters>
            <DistanceMeters>NAN</DistanceMeters>
          </Trackpoint>
          <Trackpoint>
            <Time>2020-03-07T17:44:55.000Z</Time>
            <Position>
              <LatitudeDegrees>40.6749662943184375762939453125</LatitudeDegrees>
              <LongitudeDegrees>-3.7610216438770294189453125</LongitudeDegrees>
            </Position>
            <AltitudeMeters>892.79998779296875</AltitudeMeters>
            <DistanceMeters>NAN</DistanceMeters>
          </Trackpoint>
          <Trackpoint>
            <Time>2020-03-07T17:44:56.000Z</Time>
            <Position>
              <LatitudeDegrees>40.67488356493413448333740234375</LatitudeDegrees>
              <LongitudeDegrees>-3.76095668412744998931884765625</LongitudeDegrees>
            </Position>
            <AltitudeMeters>892.5999755859375</AltitudeMeters>
            <DistanceMeters>NAN</DistanceMeters>
          </Trackpoint>
          <Trackpoint>
            <Time>2020-03-07T17:44:57.000Z</Time>
            <Position>
              <LatitudeDegrees>40.67480259574949741363525390625</LatitudeDegrees>
              <LongitudeDegrees>-3.7608877010643482208251953125</LongitudeDegrees>
            </Position>
            <AltitudeMeters>892.4000244140625</AltitudeMeters>
            <DistanceMeters>NAN</DistanceMeters>
          </Trackpoint>
          <Trackpoint>
            <Time>2020-03-07T17:44:58.000Z</Time>
            <Position>
              <LatitudeDegrees>40.674723051488399505615234375</LatitudeDegrees>
              <LongitudeDegrees>-3.76081268303096294403076171875</LongitudeDegrees>
            </Position>
            <AltitudeMeters>892</AltitudeMeters>
            <DistanceMeters>NAN</DistanceMeters>
          </Trackpoint>
          <Trackpoint>
            <Time>2020-03-07T17:44:59.000Z</Time>
            <Position>
              <LatitudeDegrees>40.6746427528560161590576171875</LatitudeDegrees>
              <LongitudeDegrees>-3.76073724590241909027099609375</LongitudeDegrees>
            </Position>
            <AltitudeMeters>891.79998779296875</AltitudeMeters>
            <DistanceMeters>NAN</DistanceMeters>
          </Trackpoint>
          <Trackpoint>
            <Time>2020-03-07T17:45:00.000Z</Time>
            <Position>
              <LatitudeDegrees>40.674559772014617919921875</LatitudeDegrees>
              <LongitudeDegrees>-3.76066231168806552886962890625</LongitudeDegrees>
            </Position>
            <AltitudeMeters>891.5999755859375</AltitudeMeters>
            <DistanceMeters>NAN</DistanceMeters>
          </Trackpoint>
          <Trackpoint>
            <Time>2020-03-07T17:45:01.000Z</Time>
            <Position>
              <LatitudeDegrees>40.674473606050014495849609375</LatitudeDegrees>
              <LongitudeDegrees>-3.76059181988239288330078125</LongitudeDegrees>
            </Position>
            <AltitudeMeters>891.20001220703125</AltitudeMeters>
            <DistanceMeters>NAN</DistanceMeters>
          </Trackpoint>
          <Trackpoint>
            <Time>2020-03-07T17:45:02.000Z</Time>
            <Position>
              <LatitudeDegrees>40.67438475787639617919921875</LatitudeDegrees>
              <LongitudeDegrees>-3.760523758828639984130859375</LongitudeDegrees>
            </Position>
            <AltitudeMeters>890.79998779296875</AltitudeMeters>
            <DistanceMeters>NAN</DistanceMeters>
          </Trackpoint>
          <Trackpoint>
            <Time>2020-03-07T17:45:03.000Z</Time>
            <Position>
              <LatitudeDegrees>40.67429482005536556243896484375</LatitudeDegrees>
              <LongitudeDegrees>-3.76045393757522106170654296875</LongitudeDegrees>
            </Position>
            <AltitudeMeters>890.4000244140625</AltitudeMeters>
            <DistanceMeters>NAN</DistanceMeters>
          </Trackpoint>
          <Trackpoint>
            <Time>2020-03-07T17:45:04.000Z</Time>
            <Position>
              <LatitudeDegrees>40.67420261912047863006591796875</LatitudeDegrees>
              <LongitudeDegrees>-3.76038218848407268524169921875</LongitudeDegrees>
            </Position>
            <AltitudeMeters>890.4000244140625</AltitudeMeters>
            <DistanceMeters>NAN</DistanceMeters>
          </Trackpoint>
          <Trackpoint>
            <Time>2020-03-07T17:45:05.000Z</Time>
            <Position>
              <LatitudeDegrees>40.67410874180495738983154296875</LatitudeDegrees>
              <LongitudeDegrees>-3.7603113614022731781005859375</LongitudeDegrees>
            </Position>
            <AltitudeMeters>889.79998779296875</AltitudeMeters>
            <DistanceMeters>NAN</DistanceMeters>
          </Trackpoint>
          <Trackpoint>
            <Time>2020-03-07T17:45:06.000Z</Time>
            <Position>
              <LatitudeDegrees>40.67401385866105556488037109375</LatitudeDegrees>
              <LongitudeDegrees>-3.760240785777568817138671875</LongitudeDegrees>
            </Position>
            <AltitudeMeters>889.4000244140625</AltitudeMeters>
            <DistanceMeters>NAN</DistanceMeters>
          </Trackpoint>
          <Trackpoint>
            <Time>2020-03-07T17:45:07.000Z</Time>
            <Position>
              <LatitudeDegrees>40.673919729888439178466796875</LatitudeDegrees>
              <LongitudeDegrees>-3.76016995869576930999755859375</LongitudeDegrees>
            </Position>
            <AltitudeMeters>889</AltitudeMeters>
            <DistanceMeters>NAN</DistanceMeters>
          </Trackpoint>
          <Trackpoint>
            <Time>2020-03-07T17:45:08.000Z</Time>
            <Position>
              <LatitudeDegrees>40.6738266907632350921630859375</LatitudeDegrees>
              <LongitudeDegrees>-3.76010105945169925689697265625</LongitudeDegrees>
            </Position>
            <AltitudeMeters>888.79998779296875</AltitudeMeters>
            <DistanceMeters>NAN</DistanceMeters>
          </Trackpoint>
          <Trackpoint>
            <Time>2020-03-07T17:45:09.000Z</Time>
            <Position>
              <LatitudeDegrees>40.67373340018093585968017578125</LatitudeDegrees>
              <LongitudeDegrees>-3.76003668643534183502197265625</LongitudeDegrees>
            </Position>
            <AltitudeMeters>888.4000244140625</AltitudeMeters>
            <DistanceMeters>NAN</DistanceMeters>
          </Trackpoint>
          <Trackpoint>
            <Time>2020-03-07T17:45:10.000Z</Time>
            <Position>
              <LatitudeDegrees>40.67364153452217578887939453125</LatitudeDegrees>
              <LongitudeDegrees>-3.7599737383425235748291015625</LongitudeDegrees>
            </Position>
            <AltitudeMeters>888</AltitudeMeters>
            <DistanceMeters>NAN</DistanceMeters>
          </Trackpoint>
          <Trackpoint>
            <Time>2020-03-07T17:45:11.000Z</Time>
            <Position>
              <LatitudeDegrees>40.673552267253398895263671875</LatitudeDegrees>
              <LongitudeDegrees>-3.75991053879261016845703125</LongitudeDegrees>
            </Position>
            <AltitudeMeters>887.4000244140625</AltitudeMeters>
            <DistanceMeters>NAN</DistanceMeters>
          </Trackpoint>
          <Trackpoint>
            <Time>2020-03-07T17:45:12.000Z</Time>
            <Position>
              <LatitudeDegrees>40.673464424908161163330078125</LatitudeDegrees>
              <LongitudeDegrees>-3.7598439864814281463623046875</LongitudeDegrees>
            </Position>
            <AltitudeMeters>886.79998779296875</AltitudeMeters>
            <DistanceMeters>NAN</DistanceMeters>
          </Trackpoint>
          <Trackpoint>
            <Time>2020-03-07T17:45:13.000Z</Time>
            <Position>
              <LatitudeDegrees>40.673379264771938323974609375</LatitudeDegrees>
              <LongitudeDegrees>-3.7597779370844364166259765625</LongitudeDegrees>
            </Position>
            <AltitudeMeters>886</AltitudeMeters>
            <DistanceMeters>NAN</DistanceMeters>
          </Trackpoint>
          <Trackpoint>
            <Time>2020-03-07T17:45:14.000Z</Time>
            <Position>
              <LatitudeDegrees>40.67329712212085723876953125</LatitudeDegrees>
              <LongitudeDegrees>-3.7597128935158252716064453125</LongitudeDegrees>
            </Position>
            <AltitudeMeters>885.20001220703125</AltitudeMeters>
            <DistanceMeters>NAN</DistanceMeters>
          </Trackpoint>
          <Trackpoint>
            <Time>2020-03-07T17:45:15.000Z</Time>
            <Position>
              <LatitudeDegrees>40.67321841605007648468017578125</LatitudeDegrees>
              <LongitudeDegrees>-3.75964793376624584197998046875</LongitudeDegrees>
            </Position>
            <AltitudeMeters>884.20001220703125</AltitudeMeters>
            <DistanceMeters>NAN</DistanceMeters>
          </Trackpoint>
          <Trackpoint>
            <Time>2020-03-07T17:45:16.000Z</Time>
            <Position>
              <LatitudeDegrees>40.67313895560801029205322265625</LatitudeDegrees>
              <LongitudeDegrees>-3.7595868296921253204345703125</LongitudeDegrees>
            </Position>
            <AltitudeMeters>883.5999755859375</AltitudeMeters>
            <DistanceMeters>NAN</DistanceMeters>
          </Trackpoint>
          <Trackpoint>
            <Time>2020-03-07T17:45:17.000Z</Time>
            <Position>
              <LatitudeDegrees>40.67306184209883213043212890625</LatitudeDegrees>
              <LongitudeDegrees>-3.7595335207879543304443359375</LongitudeDegrees>
            </Position>
            <AltitudeMeters>883</AltitudeMeters>
            <DistanceMeters>NAN</DistanceMeters>
          </Trackpoint>
          <Trackpoint>
            <Time>2020-03-07T17:45:18.000Z</Time>
            <Position>
              <LatitudeDegrees>40.6729838065803050994873046875</LatitudeDegrees>
              <LongitudeDegrees>-3.75947711057960987091064453125</LongitudeDegrees>
            </Position>
            <AltitudeMeters>882.79998779296875</AltitudeMeters>
            <DistanceMeters>NAN</DistanceMeters>
          </Trackpoint>
          <Trackpoint>
            <Time>2020-03-07T17:45:19.000Z</Time>
            <Position>
              <LatitudeDegrees>40.67290954291820526123046875</LatitudeDegrees>
              <LongitudeDegrees>-3.7594225443899631500244140625</LongitudeDegrees>
            </Position>
            <AltitudeMeters>882.79998779296875</AltitudeMeters>
            <DistanceMeters>NAN</DistanceMeters>
          </Trackpoint>
          <Trackpoint>
            <Time>2020-03-07T17:45:20.000Z</Time>
            <Position>
              <LatitudeDegrees>40.6728393025696277618408203125</LatitudeDegrees>
              <LongitudeDegrees>-3.7593689002096652984619140625</LongitudeDegrees>
            </Position>
            <AltitudeMeters>882.4000244140625</AltitudeMeters>
            <DistanceMeters>NAN</DistanceMeters>
          </Trackpoint>
          <Trackpoint>
            <Time>2020-03-07T17:45:21.000Z</Time>
            <Position>
              <LatitudeDegrees>40.67277266643941402435302734375</LatitudeDegrees>
              <LongitudeDegrees>-3.759318776428699493408203125</LongitudeDegrees>
            </Position>
            <AltitudeMeters>882.4000244140625</AltitudeMeters>
            <DistanceMeters>NAN</DistanceMeters>
          </Trackpoint>
          <Trackpoint>
            <Time>2020-03-07T17:45:22.000Z</Time>
            <Position>
              <LatitudeDegrees>40.672709383070468902587890625</LatitudeDegrees>
              <LongitudeDegrees>-3.759271167218685150146484375</LongitudeDegrees>
            </Position>
            <AltitudeMeters>882.20001220703125</AltitudeMeters>
            <DistanceMeters>NAN</DistanceMeters>
          </Trackpoint>
          <Trackpoint>
            <Time>2020-03-07T17:45:23.000Z</Time>
            <Position>
              <LatitudeDegrees>40.672649703919887542724609375</LatitudeDegrees>
              <LongitudeDegrees>-3.7592247314751148223876953125</LongitudeDegrees>
            </Position>
            <AltitudeMeters>882.20001220703125</AltitudeMeters>
            <DistanceMeters>NAN</DistanceMeters>
          </Trackpoint>
          <Trackpoint>
            <Time>2020-03-07T17:45:24.000Z</Time>
            <Position>
              <LatitudeDegrees>40.67259077914059162139892578125</LatitudeDegrees>
              <LongitudeDegrees>-3.75917921774089336395263671875</LongitudeDegrees>
            </Position>
            <AltitudeMeters>882.20001220703125</AltitudeMeters>
            <DistanceMeters>NAN</DistanceMeters>
          </Trackpoint>
          <Trackpoint>
            <Time>2020-03-07T17:45:25.000Z</Time>
            <Position>
              <LatitudeDegrees>40.67253277637064456939697265625</LatitudeDegrees>
              <LongitudeDegrees>-3.759135045111179351806640625</LongitudeDegrees>
            </Position>
            <AltitudeMeters>882.20001220703125</AltitudeMeters>
            <DistanceMeters>NAN</DistanceMeters>
          </Trackpoint>
          <Trackpoint>
            <Time>2020-03-07T17:45:26.000Z</Time>
            <Position>
              <LatitudeDegrees>40.67247368395328521728515625</LatitudeDegrees>
              <LongitudeDegrees>-3.75909204594790935516357421875</LongitudeDegrees>
            </Position>
            <AltitudeMeters>882.20001220703125</AltitudeMeters>
            <DistanceMeters>NAN</DistanceMeters>
          </Trackpoint>
          <Trackpoint>
            <Time>2020-03-07T17:45:27.000Z</Time>
            <Position>
              <LatitudeDegrees>40.6724148429930210113525390625</LatitudeDegrees>
              <LongitudeDegrees>-3.75904896296560764312744140625</LongitudeDegrees>
            </Position>
            <AltitudeMeters>882.20001220703125</AltitudeMeters>
            <DistanceMeters>NAN</DistanceMeters>
          </Trackpoint>
          <Trackpoint>
            <Time>2020-03-07T17:45:28.000Z</Time>
            <Position>
              <LatitudeDegrees>40.67235424183309078216552734375</LatitudeDegrees>
              <LongitudeDegrees>-3.75900487415492534637451171875</LongitudeDegrees>
            </Position>
            <AltitudeMeters>882.20001220703125</AltitudeMeters>
            <DistanceMeters>NAN</DistanceMeters>
          </Trackpoint>
          <Trackpoint>
            <Time>2020-03-07T17:45:29.000Z</Time>
            <Position>
              <LatitudeDegrees>40.6722938083112239837646484375</LatitudeDegrees>
              <LongitudeDegrees>-3.7589595280587673187255859375</LongitudeDegrees>
            </Position>
            <AltitudeMeters>882.20001220703125</AltitudeMeters>
            <DistanceMeters>NAN</DistanceMeters>
          </Trackpoint>
          <Trackpoint>
            <Time>2020-03-07T17:45:30.000Z</Time>
            <Position>
              <LatitudeDegrees>40.67223236896097660064697265625</LatitudeDegrees>
              <LongitudeDegrees>-3.758914433419704437255859375</LongitudeDegrees>
            </Position>
            <AltitudeMeters>882.4000244140625</AltitudeMeters>
            <DistanceMeters>NAN</DistanceMeters>
          </Trackpoint>
          <Trackpoint>
            <Time>2020-03-07T17:45:31.000Z</Time>
            <Position>
              <LatitudeDegrees>40.67217168398201465606689453125</LatitudeDegrees>
              <LongitudeDegrees>-3.75886791385710239410400390625</LongitudeDegrees>
            </Position>
            <AltitudeMeters>882.79998779296875</AltitudeMeters>
            <DistanceMeters>NAN</DistanceMeters>
          </Trackpoint>
          <Trackpoint>
            <Time>2020-03-07T17:45:32.000Z</Time>
            <Position>
              <LatitudeDegrees>40.67211099900305271148681640625</LatitudeDegrees>
              <LongitudeDegrees>-3.7588217295706272125244140625</LongitudeDegrees>
            </Position>
            <AltitudeMeters>883.20001220703125</AltitudeMeters>
            <DistanceMeters>NAN</DistanceMeters>
          </Trackpoint>
          <Trackpoint>
            <Time>2020-03-07T17:45:33.000Z</Time>
            <Position>
              <LatitudeDegrees>40.6720490567386150360107421875</LatitudeDegrees>
              <LongitudeDegrees>-3.758775629103183746337890625</LongitudeDegrees>
            </Position>
            <AltitudeMeters>883.20001220703125</AltitudeMeters>
            <DistanceMeters>NAN</DistanceMeters>
          </Trackpoint>
          <Trackpoint>
            <Time>2020-03-07T17:45:34.000Z</Time>
            <Position>
              <LatitudeDegrees>40.67198627628386020660400390625</LatitudeDegrees>
              <LongitudeDegrees>-3.7587296962738037109375</LongitudeDegrees>
            </Position>
            <AltitudeMeters>883.4000244140625</AltitudeMeters>
            <DistanceMeters>NAN</DistanceMeters>
          </Trackpoint>
          <Trackpoint>
            <Time>2020-03-07T17:45:35.000Z</Time>
            <Position>
              <LatitudeDegrees>40.67192391492426395416259765625</LatitudeDegrees>
              <LongitudeDegrees>-3.7586827576160430908203125</LongitudeDegrees>
            </Position>
            <AltitudeMeters>883.4000244140625</AltitudeMeters>
            <DistanceMeters>NAN</DistanceMeters>
          </Trackpoint>
          <Trackpoint>
            <Time>2020-03-07T17:45:36.000Z</Time>
            <Position>
              <LatitudeDegrees>40.67186172120273113250732421875</LatitudeDegrees>
              <LongitudeDegrees>-3.75863648951053619384765625</LongitudeDegrees>
            </Position>
            <AltitudeMeters>883.4000244140625</AltitudeMeters>
            <DistanceMeters>NAN</DistanceMeters>
          </Trackpoint>
          <Trackpoint>
            <Time>2020-03-07T17:45:37.000Z</Time>
            <Position>
              <LatitudeDegrees>40.67179818637669086456298828125</LatitudeDegrees>
              <LongitudeDegrees>-3.7585893832147121429443359375</LongitudeDegrees>
            </Position>
            <AltitudeMeters>883.4000244140625</AltitudeMeters>
            <DistanceMeters>NAN</DistanceMeters>
          </Trackpoint>
          <Trackpoint>
            <Time>2020-03-07T17:45:38.000Z</Time>
            <Position>
              <LatitudeDegrees>40.6717375852167606353759765625</LatitudeDegrees>
              <LongitudeDegrees>-3.75854261219501495361328125</LongitudeDegrees>
            </Position>
            <AltitudeMeters>883.4000244140625</AltitudeMeters>
            <DistanceMeters>NAN</DistanceMeters>
          </Trackpoint>
          <Trackpoint>
            <Time>2020-03-07T17:45:39.000Z</Time>
            <Position>
              <LatitudeDegrees>40.67167648114264011383056640625</LatitudeDegrees>
              <LongitudeDegrees>-3.75849542208015918731689453125</LongitudeDegrees>
            </Position>
            <AltitudeMeters>883.4000244140625</AltitudeMeters>
            <DistanceMeters>NAN</DistanceMeters>
          </Trackpoint>
          <Trackpoint>
            <Time>2020-03-07T17:45:40.000Z</Time>
            <Position>
              <LatitudeDegrees>40.6716152094304561614990234375</LatitudeDegrees>
              <LongitudeDegrees>-3.7584482319653034210205078125</LongitudeDegrees>
            </Position>
            <AltitudeMeters>883.4000244140625</AltitudeMeters>
            <DistanceMeters>NAN</DistanceMeters>
          </Trackpoint>
          <Trackpoint>
            <Time>2020-03-07T17:45:41.000Z</Time>
            <Position>
              <LatitudeDegrees>40.67155544646084308624267578125</LatitudeDegrees>
              <LongitudeDegrees>-3.75840271823108196258544921875</LongitudeDegrees>
            </Position>
            <AltitudeMeters>883.4000244140625</AltitudeMeters>
            <DistanceMeters>NAN</DistanceMeters>
          </Trackpoint>
          <Trackpoint>
            <Time>2020-03-07T17:45:42.000Z</Time>
            <Position>
              <LatitudeDegrees>40.67149526439607143402099609375</LatitudeDegrees>
              <LongitudeDegrees>-3.75835980288684368133544921875</LongitudeDegrees>
            </Position>
            <AltitudeMeters>883.5999755859375</AltitudeMeters>
            <DistanceMeters>NAN</DistanceMeters>
          </Trackpoint>
          <Trackpoint>
            <Time>2020-03-07T17:45:43.000Z</Time>
            <Position>
              <LatitudeDegrees>40.6714363396167755126953125</LatitudeDegrees>
              <LongitudeDegrees>-3.7583154626190662384033203125</LongitudeDegrees>
            </Position>
            <AltitudeMeters>883.5999755859375</AltitudeMeters>
            <DistanceMeters>NAN</DistanceMeters>
          </Trackpoint>
          <Trackpoint>
            <Time>2020-03-07T17:45:44.000Z</Time>
            <Position>
              <LatitudeDegrees>40.6713801808655261993408203125</LatitudeDegrees>
              <LongitudeDegrees>-3.75827372074127197265625</LongitudeDegrees>
            </Position>
            <AltitudeMeters>883.5999755859375</AltitudeMeters>
            <DistanceMeters>NAN</DistanceMeters>
          </Trackpoint>
          <Trackpoint>
            <Time>2020-03-07T17:45:45.000Z</Time>
            <Position>
              <LatitudeDegrees>40.6713245250284671783447265625</LatitudeDegrees>
              <LongitudeDegrees>-3.75823021866381168365478515625</LongitudeDegrees>
            </Position>
            <AltitudeMeters>883.5999755859375</AltitudeMeters>
            <DistanceMeters>NAN</DistanceMeters>
          </Trackpoint>
          <Trackpoint>
            <Time>2020-03-07T17:45:46.000Z</Time>
            <Position>
              <LatitudeDegrees>40.671271719038486480712890625</LatitudeDegrees>
              <LongitudeDegrees>-3.75819182954728603363037109375</LongitudeDegrees>
            </Position>
            <AltitudeMeters>883.79998779296875</AltitudeMeters>
            <DistanceMeters>NAN</DistanceMeters>
          </Trackpoint>
          <Trackpoint>
            <Time>2020-03-07T17:45:47.000Z</Time>
            <Position>
              <LatitudeDegrees>40.671216733753681182861328125</LatitudeDegrees>
              <LongitudeDegrees>-3.758154697716236114501953125</LongitudeDegrees>
            </Position>
            <AltitudeMeters>883.79998779296875</AltitudeMeters>
            <DistanceMeters>NAN</DistanceMeters>
          </Trackpoint>
          <Trackpoint>
            <Time>2020-03-07T17:45:48.000Z</Time>
            <Position>
              <LatitudeDegrees>40.6711602397263050079345703125</LatitudeDegrees>
              <LongitudeDegrees>-3.75811153091490268707275390625</LongitudeDegrees>
            </Position>
            <AltitudeMeters>883.79998779296875</AltitudeMeters>
            <DistanceMeters>NAN</DistanceMeters>
          </Trackpoint>
          <Trackpoint>
            <Time>2020-03-07T17:45:49.000Z</Time>
            <Position>
              <LatitudeDegrees>40.671104080975055694580078125</LatitudeDegrees>
              <LongitudeDegrees>-3.75806517899036407470703125</LongitudeDegrees>
            </Position>
            <AltitudeMeters>883.79998779296875</AltitudeMeters>
            <DistanceMeters>NAN</DistanceMeters>
          </Trackpoint>
          <Trackpoint>
            <Time>2020-03-07T17:45:50.000Z</Time>
            <Position>
              <LatitudeDegrees>40.67104884423315525054931640625</LatitudeDegrees>
              <LongitudeDegrees>-3.7580200843513011932373046875</LongitudeDegrees>
            </Position>
            <AltitudeMeters>883.79998779296875</AltitudeMeters>
            <DistanceMeters>NAN</DistanceMeters>
          </Trackpoint>
          <Trackpoint>
            <Time>2020-03-07T17:45:51.000Z</Time>
            <Position>
              <LatitudeDegrees>40.6709936074912548065185546875</LatitudeDegrees>
              <LongitudeDegrees>-3.7579738162457942962646484375</LongitudeDegrees>
            </Position>
            <AltitudeMeters>883.79998779296875</AltitudeMeters>
            <DistanceMeters>NAN</DistanceMeters>
          </Trackpoint>
          <Trackpoint>
            <Time>2020-03-07T17:45:52.000Z</Time>
            <Position>
              <LatitudeDegrees>40.67093468271195888519287109375</LatitudeDegrees>
              <LongitudeDegrees>-3.75792436301708221435546875</LongitudeDegrees>
            </Position>
            <AltitudeMeters>884</AltitudeMeters>
            <DistanceMeters>NAN</DistanceMeters>
          </Trackpoint>
          <Trackpoint>
            <Time>2020-03-07T17:45:53.000Z</Time>
            <Position>
              <LatitudeDegrees>40.670876093208789825439453125</LatitudeDegrees>
              <LongitudeDegrees>-3.757876418530941009521484375</LongitudeDegrees>
            </Position>
            <AltitudeMeters>884</AltitudeMeters>
            <DistanceMeters>NAN</DistanceMeters>
          </Trackpoint>
          <Trackpoint>
            <Time>2020-03-07T17:45:54.000Z</Time>
            <Position>
              <LatitudeDegrees>40.67082521505653858184814453125</LatitudeDegrees>
              <LongitudeDegrees>-3.757833503186702728271484375</LongitudeDegrees>
            </Position>
            <AltitudeMeters>884.20001220703125</AltitudeMeters>
            <DistanceMeters>NAN</DistanceMeters>
          </Trackpoint>
          <Trackpoint>
            <Time>2020-03-07T17:45:55.000Z</Time>
            <Position>
              <LatitudeDegrees>40.6707765161991119384765625</LatitudeDegrees>
              <LongitudeDegrees>-3.75778916291892528533935546875</LongitudeDegrees>
            </Position>
            <AltitudeMeters>884.4000244140625</AltitudeMeters>
            <DistanceMeters>NAN</DistanceMeters>
          </Trackpoint>
          <Trackpoint>
            <Time>2020-03-07T17:45:56.000Z</Time>
            <Position>
              <LatitudeDegrees>40.6707260571420192718505859375</LatitudeDegrees>
              <LongitudeDegrees>-3.757742308080196380615234375</LongitudeDegrees>
            </Position>
            <AltitudeMeters>884.4000244140625</AltitudeMeters>
            <DistanceMeters>NAN</DistanceMeters>
          </Trackpoint>
          <Trackpoint>
            <Time>2020-03-07T17:45:57.000Z</Time>
            <Position>
              <LatitudeDegrees>40.67067266441881656646728515625</LatitudeDegrees>
              <LongitudeDegrees>-3.7576978839933872222900390625</LongitudeDegrees>
            </Position>
            <AltitudeMeters>884.5999755859375</AltitudeMeters>
            <DistanceMeters>NAN</DistanceMeters>
          </Trackpoint>
          <Trackpoint>
            <Time>2020-03-07T17:45:58.000Z</Time>
            <Position>
              <LatitudeDegrees>40.67061885260045528411865234375</LatitudeDegrees>
              <LongitudeDegrees>-3.75765614211559295654296875</LongitudeDegrees>
            </Position>
            <AltitudeMeters>884.79998779296875</AltitudeMeters>
            <DistanceMeters>NAN</DistanceMeters>
          </Trackpoint>
          <Trackpoint>
            <Time>2020-03-07T17:45:59.000Z</Time>
            <Position>
              <LatitudeDegrees>40.67056889645755290985107421875</LatitudeDegrees>
              <LongitudeDegrees>-3.75762035138905048370361328125</LongitudeDegrees>
            </Position>
            <AltitudeMeters>885</AltitudeMeters>
            <DistanceMeters>NAN</DistanceMeters>
          </Trackpoint>
          <Trackpoint>
            <Time>2020-03-07T17:46:00.000Z</Time>
            <Position>
              <LatitudeDegrees>40.67051642574369907379150390625</LatitudeDegrees>
              <LongitudeDegrees>-3.7575848959386348724365234375</LongitudeDegrees>
            </Position>
            <AltitudeMeters>885.20001220703125</AltitudeMeters>
            <DistanceMeters>NAN</DistanceMeters>
          </Trackpoint>
          <Trackpoint>
            <Time>2020-03-07T17:46:01.000Z</Time>
            <Position>
              <LatitudeDegrees>40.670463703572750091552734375</LatitudeDegrees>
              <LongitudeDegrees>-3.75754625536501407623291015625</LongitudeDegrees>
            </Position>
            <AltitudeMeters>885.20001220703125</AltitudeMeters>
            <DistanceMeters>NAN</DistanceMeters>
          </Trackpoint>
          <Trackpoint>
            <Time>2020-03-07T17:46:02.000Z</Time>
            <Position>
              <LatitudeDegrees>40.670410729944705963134765625</LatitudeDegrees>
              <LongitudeDegrees>-3.757506273686885833740234375</LongitudeDegrees>
            </Position>
            <AltitudeMeters>885.4000244140625</AltitudeMeters>
            <DistanceMeters>NAN</DistanceMeters>
          </Trackpoint>
          <Trackpoint>
            <Time>2020-03-07T17:46:03.000Z</Time>
            <Position>
              <LatitudeDegrees>40.67035817541182041168212890625</LatitudeDegrees>
              <LongitudeDegrees>-3.75746528618037700653076171875</LongitudeDegrees>
            </Position>
            <AltitudeMeters>885.4000244140625</AltitudeMeters>
            <DistanceMeters>NAN</DistanceMeters>
          </Trackpoint>
          <Trackpoint>
            <Time>2020-03-07T17:46:04.000Z</Time>
            <Position>
              <LatitudeDegrees>40.6703049503266811370849609375</LatitudeDegrees>
              <LongitudeDegrees>-3.75742605887353420257568359375</LongitudeDegrees>
            </Position>
            <AltitudeMeters>885.5999755859375</AltitudeMeters>
            <DistanceMeters>NAN</DistanceMeters>
          </Trackpoint>
          <Trackpoint>
            <Time>2020-03-07T17:46:05.000Z</Time>
            <Position>
              <LatitudeDegrees>40.67025021649897098541259765625</LatitudeDegrees>
              <LongitudeDegrees>-3.757387585937976837158203125</LongitudeDegrees>
            </Position>
            <AltitudeMeters>885.5999755859375</AltitudeMeters>
            <DistanceMeters>NAN</DistanceMeters>
          </Trackpoint>
          <Trackpoint>
            <Time>2020-03-07T17:46:06.000Z</Time>
            <Position>
              <LatitudeDegrees>40.67019523121416568756103515625</LatitudeDegrees>
              <LongitudeDegrees>-3.75734768807888031005859375</LongitudeDegrees>
            </Position>
            <AltitudeMeters>885.5999755859375</AltitudeMeters>
            <DistanceMeters>NAN</DistanceMeters>
          </Trackpoint>
          <Trackpoint>
            <Time>2020-03-07T17:46:07.000Z</Time>
            <Position>
              <LatitudeDegrees>40.6701396591961383819580078125</LatitudeDegrees>
              <LongitudeDegrees>-3.75730955041944980621337890625</LongitudeDegrees>
            </Position>
            <AltitudeMeters>885.79998779296875</AltitudeMeters>
            <DistanceMeters>NAN</DistanceMeters>
          </Trackpoint>
          <Trackpoint>
            <Time>2020-03-07T17:46:08.000Z</Time>
            <Position>
              <LatitudeDegrees>40.6700836680829524993896484375</LatitudeDegrees>
              <LongitudeDegrees>-3.75726797617971897125244140625</LongitudeDegrees>
            </Position>
            <AltitudeMeters>885.79998779296875</AltitudeMeters>
            <DistanceMeters>NAN</DistanceMeters>
          </Trackpoint>
          <Trackpoint>
            <Time>2020-03-07T17:46:09.000Z</Time>
            <Position>
              <LatitudeDegrees>40.6700280122458934783935546875</LatitudeDegrees>
              <LongitudeDegrees>-3.7572261504828929901123046875</LongitudeDegrees>
            </Position>
            <AltitudeMeters>885.79998779296875</AltitudeMeters>
            <DistanceMeters>NAN</DistanceMeters>
          </Trackpoint>
          <Trackpoint>
            <Time>2020-03-07T17:46:10.000Z</Time>
            <Position>
              <LatitudeDegrees>40.66997126676142215728759765625</LatitudeDegrees>
              <LongitudeDegrees>-3.7571847438812255859375</LongitudeDegrees>
            </Position>
            <AltitudeMeters>885.79998779296875</AltitudeMeters>
            <DistanceMeters>NAN</DistanceMeters>
          </Trackpoint>
          <Trackpoint>
            <Time>2020-03-07T17:46:11.000Z</Time>
            <Position>
              <LatitudeDegrees>40.6699120067059993743896484375</LatitudeDegrees>
              <LongitudeDegrees>-3.757141493260860443115234375</LongitudeDegrees>
            </Position>
            <AltitudeMeters>885.79998779296875</AltitudeMeters>
            <DistanceMeters>NAN</DistanceMeters>
          </Trackpoint>
          <Trackpoint>
            <Time>2020-03-07T17:46:12.000Z</Time>
            <Position>
              <LatitudeDegrees>40.669854842126369476318359375</LatitudeDegrees>
              <LongitudeDegrees>-3.7570990808308124542236328125</LongitudeDegrees>
            </Position>
            <AltitudeMeters>885.79998779296875</AltitudeMeters>
            <DistanceMeters>NAN</DistanceMeters>
          </Trackpoint>
          <Trackpoint>
            <Time>2020-03-07T17:46:13.000Z</Time>
            <Position>
              <LatitudeDegrees>40.66979574970901012420654296875</LatitudeDegrees>
              <LongitudeDegrees>-3.7570551596581935882568359375</LongitudeDegrees>
            </Position>
            <AltitudeMeters>885.5999755859375</AltitudeMeters>
            <DistanceMeters>NAN</DistanceMeters>
          </Trackpoint>
          <Trackpoint>
            <Time>2020-03-07T17:46:14.000Z</Time>
            <Position>
              <LatitudeDegrees>40.66973556764423847198486328125</LatitudeDegrees>
              <LongitudeDegrees>-3.75701031647622585296630859375</LongitudeDegrees>
            </Position>
            <AltitudeMeters>885.5999755859375</AltitudeMeters>
            <DistanceMeters>NAN</DistanceMeters>
          </Trackpoint>
          <Trackpoint>
            <Time>2020-03-07T17:46:15.000Z</Time>
            <Position>
              <LatitudeDegrees>40.6696729548275470733642578125</LatitudeDegrees>
              <LongitudeDegrees>-3.75696270726621150970458984375</LongitudeDegrees>
            </Position>
            <AltitudeMeters>885.5999755859375</AltitudeMeters>
            <DistanceMeters>NAN</DistanceMeters>
          </Trackpoint>
          <Trackpoint>
            <Time>2020-03-07T17:46:16.000Z</Time>
            <Position>
              <LatitudeDegrees>40.66961000673472881317138671875</LatitudeDegrees>
              <LongitudeDegrees>-3.7569136731326580047607421875</LongitudeDegrees>
            </Position>
            <AltitudeMeters>885.5999755859375</AltitudeMeters>
            <DistanceMeters>NAN</DistanceMeters>
          </Trackpoint>
          <Trackpoint>
            <Time>2020-03-07T17:46:17.000Z</Time>
            <Position>
              <LatitudeDegrees>40.66954781301319599151611328125</LatitudeDegrees>
              <LongitudeDegrees>-3.75686220824718475341796875</LongitudeDegrees>
            </Position>
            <AltitudeMeters>885.4000244140625</AltitudeMeters>
            <DistanceMeters>NAN</DistanceMeters>
          </Trackpoint>
          <Trackpoint>
            <Time>2020-03-07T17:46:18.000Z</Time>
            <Position>
              <LatitudeDegrees>40.669483356177806854248046875</LatitudeDegrees>
              <LongitudeDegrees>-3.756808899343013763427734375</LongitudeDegrees>
            </Position>
            <AltitudeMeters>885.4000244140625</AltitudeMeters>
            <DistanceMeters>NAN</DistanceMeters>
          </Trackpoint>
          <Trackpoint>
            <Time>2020-03-07T17:46:19.000Z</Time>
            <Position>
              <LatitudeDegrees>40.66941688768565654754638671875</LatitudeDegrees>
              <LongitudeDegrees>-3.75675491988658905029296875</LongitudeDegrees>
            </Position>
            <AltitudeMeters>885.20001220703125</AltitudeMeters>
            <DistanceMeters>NAN</DistanceMeters>
          </Trackpoint>
          <Trackpoint>
            <Time>2020-03-07T17:46:20.000Z</Time>
            <Position>
              <LatitudeDegrees>40.669349245727062225341796875</LatitudeDegrees>
              <LongitudeDegrees>-3.7567027844488620758056640625</LongitudeDegrees>
            </Position>
            <AltitudeMeters>884.79998779296875</AltitudeMeters>
            <DistanceMeters>NAN</DistanceMeters>
          </Trackpoint>
          <Trackpoint>
            <Time>2020-03-07T17:46:21.000Z</Time>
            <Position>
              <LatitudeDegrees>40.66927942447364330291748046875</LatitudeDegrees>
              <LongitudeDegrees>-3.75664855353534221649169921875</LongitudeDegrees>
            </Position>
            <AltitudeMeters>884.5999755859375</AltitudeMeters>
            <DistanceMeters>NAN</DistanceMeters>
          </Trackpoint>
          <Trackpoint>
            <Time>2020-03-07T17:46:22.000Z</Time>
            <Position>
              <LatitudeDegrees>40.66920809447765350341796875</LatitudeDegrees>
              <LongitudeDegrees>-3.75659189186990261077880859375</LongitudeDegrees>
            </Position>
            <AltitudeMeters>884.20001220703125</AltitudeMeters>
            <DistanceMeters>NAN</DistanceMeters>
          </Trackpoint>
          <Trackpoint>
            <Time>2020-03-07T17:46:23.000Z</Time>
            <Position>
              <LatitudeDegrees>40.66913357935845851898193359375</LatitudeDegrees>
              <LongitudeDegrees>-3.75653363764286041259765625</LongitudeDegrees>
            </Position>
            <AltitudeMeters>883.79998779296875</AltitudeMeters>
            <DistanceMeters>NAN</DistanceMeters>
          </Trackpoint>
          <Trackpoint>
            <Time>2020-03-07T17:46:24.000Z</Time>
            <Position>
              <LatitudeDegrees>40.669055543839931488037109375</LatitudeDegrees>
              <LongitudeDegrees>-3.7564726173877716064453125</LongitudeDegrees>
            </Position>
            <AltitudeMeters>883.5999755859375</AltitudeMeters>
            <DistanceMeters>NAN</DistanceMeters>
          </Trackpoint>
          <Trackpoint>
            <Time>2020-03-07T17:46:25.000Z</Time>
            <Position>
              <LatitudeDegrees>40.66897616721689701080322265625</LatitudeDegrees>
              <LongitudeDegrees>-3.75641050748527050018310546875</LongitudeDegrees>
            </Position>
            <AltitudeMeters>883.20001220703125</AltitudeMeters>
            <DistanceMeters>NAN</DistanceMeters>
          </Trackpoint>
          <Trackpoint>
            <Time>2020-03-07T17:46:26.000Z</Time>
            <Position>
              <LatitudeDegrees>40.6688951142132282257080078125</LatitudeDegrees>
              <LongitudeDegrees>-3.75634680502116680145263671875</LongitudeDegrees>
            </Position>
            <AltitudeMeters>883</AltitudeMeters>
            <DistanceMeters>NAN</DistanceMeters>
          </Trackpoint>
          <Trackpoint>
            <Time>2020-03-07T17:46:27.000Z</Time>
            <Position>
              <LatitudeDegrees>40.66881121136248111724853515625</LatitudeDegrees>
              <LongitudeDegrees>-3.75628394074738025665283203125</LongitudeDegrees>
            </Position>
            <AltitudeMeters>882.5999755859375</AltitudeMeters>
            <DistanceMeters>NAN</DistanceMeters>
          </Trackpoint>
          <Trackpoint>
            <Time>2020-03-07T17:46:28.000Z</Time>
            <Position>
              <LatitudeDegrees>40.66872387193143367767333984375</LatitudeDegrees>
              <LongitudeDegrees>-3.7562300451099872589111328125</LongitudeDegrees>
            </Position>
            <AltitudeMeters>882</AltitudeMeters>
            <DistanceMeters>NAN</DistanceMeters>
          </Trackpoint>
          <Trackpoint>
            <Time>2020-03-07T17:46:29.000Z</Time>
            <Position>
              <LatitudeDegrees>40.6686335988342761993408203125</LatitudeDegrees>
              <LongitudeDegrees>-3.75618017278611660003662109375</LongitudeDegrees>
            </Position>
            <AltitudeMeters>881.4000244140625</AltitudeMeters>
            <DistanceMeters>NAN</DistanceMeters>
          </Trackpoint>
          <Trackpoint>
            <Time>2020-03-07T17:46:30.000Z</Time>
            <Position>
              <LatitudeDegrees>40.6685417331755161285400390625</LatitudeDegrees>
              <LongitudeDegrees>-3.7561314739286899566650390625</LongitudeDegrees>
            </Position>
            <AltitudeMeters>881</AltitudeMeters>
            <DistanceMeters>NAN</DistanceMeters>
          </Trackpoint>
          <Trackpoint>
            <Time>2020-03-07T17:46:31.000Z</Time>
            <Position>
              <LatitudeDegrees>40.66844760440289974212646484375</LatitudeDegrees>
              <LongitudeDegrees>-3.75608026050031185150146484375</LongitudeDegrees>
            </Position>
            <AltitudeMeters>880.5999755859375</AltitudeMeters>
            <DistanceMeters>NAN</DistanceMeters>
          </Trackpoint>
          <Trackpoint>
            <Time>2020-03-07T17:46:32.000Z</Time>
            <Position>
              <LatitudeDegrees>40.66834970377385616302490234375</LatitudeDegrees>
              <LongitudeDegrees>-3.75602862797677516937255859375</LongitudeDegrees>
            </Position>
            <AltitudeMeters>880</AltitudeMeters>
            <DistanceMeters>NAN</DistanceMeters>
          </Trackpoint>
          <Trackpoint>
            <Time>2020-03-07T17:46:33.000Z</Time>
            <Position>
              <LatitudeDegrees>40.66824777983129024505615234375</LatitudeDegrees>
              <LongitudeDegrees>-3.75597984530031681060791015625</LongitudeDegrees>
            </Position>
            <AltitudeMeters>879.4000244140625</AltitudeMeters>
            <DistanceMeters>NAN</DistanceMeters>
          </Trackpoint>
          <Trackpoint>
            <Time>2020-03-07T17:46:34.000Z</Time>
            <Position>
              <LatitudeDegrees>40.6681447662413120269775390625</LatitudeDegrees>
              <LongitudeDegrees>-3.75593290664255619049072265625</LongitudeDegrees>
            </Position>
            <AltitudeMeters>878.79998779296875</AltitudeMeters>
            <DistanceMeters>NAN</DistanceMeters>
          </Trackpoint>
          <Trackpoint>
            <Time>2020-03-07T17:46:35.000Z</Time>
            <Position>
              <LatitudeDegrees>40.66804041154682636260986328125</LatitudeDegrees>
              <LongitudeDegrees>-3.755878843367099761962890625</LongitudeDegrees>
            </Position>
            <AltitudeMeters>878.20001220703125</AltitudeMeters>
            <DistanceMeters>NAN</DistanceMeters>
          </Trackpoint>
          <Trackpoint>
            <Time>2020-03-07T17:46:36.000Z</Time>
            <Position>
              <LatitudeDegrees>40.66793630830943584442138671875</LatitudeDegrees>
              <LongitudeDegrees>-3.7558210082352161407470703125</LongitudeDegrees>
            </Position>
            <AltitudeMeters>877.5999755859375</AltitudeMeters>
            <DistanceMeters>NAN</DistanceMeters>
          </Trackpoint>
          <Trackpoint>
            <Time>2020-03-07T17:46:37.000Z</Time>
            <Position>
              <LatitudeDegrees>40.66783136688172817230224609375</LatitudeDegrees>
              <LongitudeDegrees>-3.7557589821517467498779296875</LongitudeDegrees>
            </Position>
            <AltitudeMeters>876.79998779296875</AltitudeMeters>
            <DistanceMeters>NAN</DistanceMeters>
          </Trackpoint>
          <Trackpoint>
            <Time>2020-03-07T17:46:38.000Z</Time>
            <Position>
              <LatitudeDegrees>40.66772692836821079254150390625</LatitudeDegrees>
              <LongitudeDegrees>-3.75569284893572330474853515625</LongitudeDegrees>
            </Position>
            <AltitudeMeters>876</AltitudeMeters>
            <DistanceMeters>NAN</DistanceMeters>
          </Trackpoint>
          <Trackpoint>
            <Time>2020-03-07T17:46:39.000Z</Time>
            <Position>
              <LatitudeDegrees>40.66762047819793224334716796875</LatitudeDegrees>
              <LongitudeDegrees>-3.755623362958431243896484375</LongitudeDegrees>
            </Position>
            <AltitudeMeters>875.4000244140625</AltitudeMeters>
            <DistanceMeters>NAN</DistanceMeters>
          </Trackpoint>
          <Trackpoint>
            <Time>2020-03-07T17:46:40.000Z</Time>
            <Position>
              <LatitudeDegrees>40.667510591447353363037109375</LatitudeDegrees>
              <LongitudeDegrees>-3.75554901547729969024658203125</LongitudeDegrees>
            </Position>
            <AltitudeMeters>874.4000244140625</AltitudeMeters>
            <DistanceMeters>NAN</DistanceMeters>
          </Trackpoint>
          <Trackpoint>
            <Time>2020-03-07T17:46:41.000Z</Time>
            <Position>
              <LatitudeDegrees>40.66740053705871105194091796875</LatitudeDegrees>
              <LongitudeDegrees>-3.7554709799587726593017578125</LongitudeDegrees>
            </Position>
            <AltitudeMeters>873.5999755859375</AltitudeMeters>
            <DistanceMeters>NAN</DistanceMeters>
          </Trackpoint>
          <Trackpoint>
            <Time>2020-03-07T17:46:42.000Z</Time>
            <Position>
              <LatitudeDegrees>40.66728805191814899444580078125</LatitudeDegrees>
              <LongitudeDegrees>-3.75539210624992847442626953125</LongitudeDegrees>
            </Position>
            <AltitudeMeters>872.5999755859375</AltitudeMeters>
            <DistanceMeters>NAN</DistanceMeters>
          </Trackpoint>
          <Trackpoint>
            <Time>2020-03-07T17:46:43.000Z</Time>
            <Position>
              <LatitudeDegrees>40.6671781651675701141357421875</LatitudeDegrees>
              <LongitudeDegrees>-3.755316250026226043701171875</LongitudeDegrees>
            </Position>
            <AltitudeMeters>870.5999755859375</AltitudeMeters>
            <DistanceMeters>NAN</DistanceMeters>
          </Trackpoint>
          <Trackpoint>
            <Time>2020-03-07T17:46:44.000Z</Time>
            <Position>
              <LatitudeDegrees>40.6670692004263401031494140625</LatitudeDegrees>
              <LongitudeDegrees>-3.75524257309734821319580078125</LongitudeDegrees>
            </Position>
            <AltitudeMeters>869.79998779296875</AltitudeMeters>
            <DistanceMeters>NAN</DistanceMeters>
          </Trackpoint>
          <Trackpoint>
            <Time>2020-03-07T17:46:45.000Z</Time>
            <Position>
              <LatitudeDegrees>40.6669625826179981231689453125</LatitudeDegrees>
              <LongitudeDegrees>-3.755168057978153228759765625</LongitudeDegrees>
            </Position>
            <AltitudeMeters>868.79998779296875</AltitudeMeters>
            <DistanceMeters>NAN</DistanceMeters>
          </Trackpoint>
          <Trackpoint>
            <Time>2020-03-07T17:46:46.000Z</Time>
            <Position>
              <LatitudeDegrees>40.6668576411902904510498046875</LatitudeDegrees>
              <LongitudeDegrees>-3.755094297230243682861328125</LongitudeDegrees>
            </Position>
            <AltitudeMeters>867.79998779296875</AltitudeMeters>
            <DistanceMeters>NAN</DistanceMeters>
          </Trackpoint>
          <Trackpoint>
            <Time>2020-03-07T17:46:47.000Z</Time>
            <Position>
              <LatitudeDegrees>40.66675387322902679443359375</LatitudeDegrees>
              <LongitudeDegrees>-3.75502011738717555999755859375</LongitudeDegrees>
            </Position>
            <AltitudeMeters>866.5999755859375</AltitudeMeters>
            <DistanceMeters>NAN</DistanceMeters>
          </Trackpoint>
          <Trackpoint>
            <Time>2020-03-07T17:46:48.000Z</Time>
            <Position>
              <LatitudeDegrees>40.66665194928646087646484375</LatitudeDegrees>
              <LongitudeDegrees>-3.75494618900120258331298828125</LongitudeDegrees>
            </Position>
            <AltitudeMeters>865.20001220703125</AltitudeMeters>
            <DistanceMeters>NAN</DistanceMeters>
          </Trackpoint>
          <Trackpoint>
            <Time>2020-03-07T17:46:49.000Z</Time>
            <Position>
              <LatitudeDegrees>40.66655002534389495849609375</LatitudeDegrees>
              <LongitudeDegrees>-3.75487293116748332977294921875</LongitudeDegrees>
            </Position>
            <AltitudeMeters>864</AltitudeMeters>
            <DistanceMeters>NAN</DistanceMeters>
          </Trackpoint>
          <Trackpoint>
            <Time>2020-03-07T17:46:50.000Z</Time>
            <Position>
              <LatitudeDegrees>40.66644684411585330963134765625</LatitudeDegrees>
              <LongitudeDegrees>-3.75479883514344692230224609375</LongitudeDegrees>
            </Position>
            <AltitudeMeters>863</AltitudeMeters>
            <DistanceMeters>NAN</DistanceMeters>
          </Trackpoint>
          <Trackpoint>
            <Time>2020-03-07T17:46:51.000Z</Time>
            <Position>
              <LatitudeDegrees>40.6663450039923191070556640625</LatitudeDegrees>
              <LongitudeDegrees>-3.75472457148134708404541015625</LongitudeDegrees>
            </Position>
            <AltitudeMeters>862.20001220703125</AltitudeMeters>
            <DistanceMeters>NAN</DistanceMeters>
          </Trackpoint>
          <Trackpoint>
            <Time>2020-03-07T17:46:52.000Z</Time>
            <Position>
              <LatitudeDegrees>40.6662435829639434814453125</LatitudeDegrees>
              <LongitudeDegrees>-3.754651732742786407470703125</LongitudeDegrees>
            </Position>
            <AltitudeMeters>861.5999755859375</AltitudeMeters>
            <DistanceMeters>NAN</DistanceMeters>
          </Trackpoint>
          <Trackpoint>
            <Time>2020-03-07T17:46:53.000Z</Time>
            <Position>
              <LatitudeDegrees>40.66614274866878986358642578125</LatitudeDegrees>
              <LongitudeDegrees>-3.7545818276703357696533203125</LongitudeDegrees>
            </Position>
            <AltitudeMeters>861</AltitudeMeters>
            <DistanceMeters>NAN</DistanceMeters>
          </Trackpoint>
          <Trackpoint>
            <Time>2020-03-07T17:46:54.000Z</Time>
            <Position>
              <LatitudeDegrees>40.6660392321646213531494140625</LatitudeDegrees>
              <LongitudeDegrees>-3.7545167841017246246337890625</LongitudeDegrees>
            </Position>
            <AltitudeMeters>860.4000244140625</AltitudeMeters>
            <DistanceMeters>NAN</DistanceMeters>
          </Trackpoint>
          <Trackpoint>
            <Time>2020-03-07T17:46:55.000Z</Time>
            <Position>
              <LatitudeDegrees>40.66593579947948455810546875</LatitudeDegrees>
              <LongitudeDegrees>-3.754455260932445526123046875</LongitudeDegrees>
            </Position>
            <AltitudeMeters>860</AltitudeMeters>
            <DistanceMeters>NAN</DistanceMeters>
          </Trackpoint>
          <Trackpoint>
            <Time>2020-03-07T17:46:56.000Z</Time>
            <Position>
              <LatitudeDegrees>40.6658323667943477630615234375</LatitudeDegrees>
              <LongitudeDegrees>-3.75439885072410106658935546875</LongitudeDegrees>
            </Position>
            <AltitudeMeters>859.5999755859375</AltitudeMeters>
            <DistanceMeters>NAN</DistanceMeters>
          </Trackpoint>
          <Trackpoint>
            <Time>2020-03-07T17:46:57.000Z</Time>
            <Position>
              <LatitudeDegrees>40.66573069430887699127197265625</LatitudeDegrees>
              <LongitudeDegrees>-3.75434369780123233795166015625</LongitudeDegrees>
            </Position>
            <AltitudeMeters>859.20001220703125</AltitudeMeters>
            <DistanceMeters>NAN</DistanceMeters>
          </Trackpoint>
          <Trackpoint>
            <Time>2020-03-07T17:46:58.000Z</Time>
            <Position>
              <LatitudeDegrees>40.6656312011182308197021484375</LatitudeDegrees>
              <LongitudeDegrees>-3.75428955070674419403076171875</LongitudeDegrees>
            </Position>
            <AltitudeMeters>858.79998779296875</AltitudeMeters>
            <DistanceMeters>NAN</DistanceMeters>
          </Trackpoint>
          <Trackpoint>
            <Time>2020-03-07T17:46:59.000Z</Time>
            <Position>
              <LatitudeDegrees>40.66553388722240924835205078125</LatitudeDegrees>
              <LongitudeDegrees>-3.75423900783061981201171875</LongitudeDegrees>
            </Position>
            <AltitudeMeters>858.4000244140625</AltitudeMeters>
            <DistanceMeters>NAN</DistanceMeters>
          </Trackpoint>
          <Trackpoint>
            <Time>2020-03-07T17:47:00.000Z</Time>
            <Position>
              <LatitudeDegrees>40.6654367409646511077880859375</LatitudeDegrees>
              <LongitudeDegrees>-3.75419382937252521514892578125</LongitudeDegrees>
            </Position>
            <AltitudeMeters>858.20001220703125</AltitudeMeters>
            <DistanceMeters>NAN</DistanceMeters>
          </Trackpoint>
          <Trackpoint>
            <Time>2020-03-07T17:47:01.000Z</Time>
            <Position>
              <LatitudeDegrees>40.66533900797367095947265625</LatitudeDegrees>
              <LongitudeDegrees>-3.75415585935115814208984375</LongitudeDegrees>
            </Position>
            <AltitudeMeters>857.79998779296875</AltitudeMeters>
            <DistanceMeters>NAN</DistanceMeters>
          </Trackpoint>
          <Trackpoint>
            <Time>2020-03-07T17:47:02.000Z</Time>
            <Position>
              <LatitudeDegrees>40.66524202935397624969482421875</LatitudeDegrees>
              <LongitudeDegrees>-3.7541288696229457855224609375</LongitudeDegrees>
            </Position>
            <AltitudeMeters>857.4000244140625</AltitudeMeters>
            <DistanceMeters>NAN</DistanceMeters>
          </Trackpoint>
          <Trackpoint>
            <Time>2020-03-07T17:47:03.000Z</Time>
            <Position>
              <LatitudeDegrees>40.66514530219137668609619140625</LatitudeDegrees>
              <LongitudeDegrees>-3.75411202199757099151611328125</LongitudeDegrees>
            </Position>
            <AltitudeMeters>857.20001220703125</AltitudeMeters>
            <DistanceMeters>NAN</DistanceMeters>
          </Trackpoint>
          <Trackpoint>
            <Time>2020-03-07T17:47:04.000Z</Time>
            <Position>
              <LatitudeDegrees>40.66504991613328456878662109375</LatitudeDegrees>
              <LongitudeDegrees>-3.75411101616919040679931640625</LongitudeDegrees>
            </Position>
            <AltitudeMeters>856.5999755859375</AltitudeMeters>
            <DistanceMeters>NAN</DistanceMeters>
          </Trackpoint>
          <Trackpoint>
            <Time>2020-03-07T17:47:05.000Z</Time>
            <Position>
              <LatitudeDegrees>40.6649552844464778900146484375</LatitudeDegrees>
              <LongitudeDegrees>-3.75412828288972377777099609375</LongitudeDegrees>
            </Position>
            <AltitudeMeters>856.5999755859375</AltitudeMeters>
            <DistanceMeters>NAN</DistanceMeters>
          </Trackpoint>
          <Trackpoint>
            <Time>2020-03-07T17:47:06.000Z</Time>
            <Position>
              <LatitudeDegrees>40.66486517898738384246826171875</LatitudeDegrees>
              <LongitudeDegrees>-3.754172287881374359130859375</LongitudeDegrees>
            </Position>
            <AltitudeMeters>856.4000244140625</AltitudeMeters>
            <DistanceMeters>NAN</DistanceMeters>
          </Trackpoint>
          <Trackpoint>
            <Time>2020-03-07T17:47:07.000Z</Time>
            <Position>
              <LatitudeDegrees>40.66477230750024318695068359375</LatitudeDegrees>
              <LongitudeDegrees>-3.75423272140324115753173828125</LongitudeDegrees>
            </Position>
            <AltitudeMeters>856.20001220703125</AltitudeMeters>
            <DistanceMeters>NAN</DistanceMeters>
          </Trackpoint>
          <Trackpoint>
            <Time>2020-03-07T17:47:08.000Z</Time>
            <Position>
              <LatitudeDegrees>40.664679519832134246826171875</LatitudeDegrees>
              <LongitudeDegrees>-3.75430338084697723388671875</LongitudeDegrees>
            </Position>
            <AltitudeMeters>856.20001220703125</AltitudeMeters>
            <DistanceMeters>NAN</DistanceMeters>
          </Trackpoint>
          <Trackpoint>
            <Time>2020-03-07T17:47:09.000Z</Time>
            <Position>
              <LatitudeDegrees>40.66458220593631267547607421875</LatitudeDegrees>
              <LongitudeDegrees>-3.75437370501458644866943359375</LongitudeDegrees>
            </Position>
            <AltitudeMeters>856.20001220703125</AltitudeMeters>
            <DistanceMeters>NAN</DistanceMeters>
          </Trackpoint>
          <Trackpoint>
            <Time>2020-03-07T17:47:10.000Z</Time>
            <Position>
              <LatitudeDegrees>40.66448195837438106536865234375</LatitudeDegrees>
              <LongitudeDegrees>-3.75443858094513416290283203125</LongitudeDegrees>
            </Position>
            <AltitudeMeters>856</AltitudeMeters>
            <DistanceMeters>NAN</DistanceMeters>
          </Trackpoint>
          <Trackpoint>
            <Time>2020-03-07T17:47:11.000Z</Time>
            <Position>
              <LatitudeDegrees>40.66437584348022937774658203125</LatitudeDegrees>
              <LongitudeDegrees>-3.7544872798025608062744140625</LongitudeDegrees>
            </Position>
            <AltitudeMeters>856</AltitudeMeters>
            <DistanceMeters>NAN</DistanceMeters>
          </Trackpoint>
          <Trackpoint>
            <Time>2020-03-07T17:47:12.000Z</Time>
            <Position>
              <LatitudeDegrees>40.664270482957363128662109375</LatitudeDegrees>
              <LongitudeDegrees>-3.75451988540589809417724609375</LongitudeDegrees>
            </Position>
            <AltitudeMeters>855.79998779296875</AltitudeMeters>
            <DistanceMeters>NAN</DistanceMeters>
          </Trackpoint>
          <Trackpoint>
            <Time>2020-03-07T17:47:13.000Z</Time>
            <Position>
              <LatitudeDegrees>40.6641512922942638397216796875</LatitudeDegrees>
              <LongitudeDegrees>-3.75452692620456218719482421875</LongitudeDegrees>
            </Position>
            <AltitudeMeters>855.79998779296875</AltitudeMeters>
            <DistanceMeters>NAN</DistanceMeters>
          </Trackpoint>
          <Trackpoint>
            <Time>2020-03-07T17:47:14.000Z</Time>
            <Position>
              <LatitudeDegrees>40.66406428813934326171875</LatitudeDegrees>
              <LongitudeDegrees>-3.75446422956883907318115234375</LongitudeDegrees>
            </Position>
            <AltitudeMeters>855.4000244140625</AltitudeMeters>
            <DistanceMeters>NAN</DistanceMeters>
          </Trackpoint>
          <Trackpoint>
            <Time>2020-03-07T17:47:15.000Z</Time>
            <Position>
              <LatitudeDegrees>40.66399790346622467041015625</LatitudeDegrees>
              <LongitudeDegrees>-3.75438116490840911865234375</LongitudeDegrees>
            </Position>
            <AltitudeMeters>854.79998779296875</AltitudeMeters>
            <DistanceMeters>NAN</DistanceMeters>
          </Trackpoint>
          <Trackpoint>
            <Time>2020-03-07T17:47:16.000Z</Time>
            <Position>
              <LatitudeDegrees>40.66396060399711132049560546875</LatitudeDegrees>
              <LongitudeDegrees>-3.7542780674993991851806640625</LongitudeDegrees>
            </Position>
            <AltitudeMeters>854.20001220703125</AltitudeMeters>
            <DistanceMeters>NAN</DistanceMeters>
          </Trackpoint>
          <Trackpoint>
            <Time>2020-03-07T17:47:17.000Z</Time>
            <Position>
              <LatitudeDegrees>40.663953311741352081298828125</LatitudeDegrees>
              <LongitudeDegrees>-3.75416113995015621185302734375</LongitudeDegrees>
            </Position>
            <AltitudeMeters>853.4000244140625</AltitudeMeters>
            <DistanceMeters>NAN</DistanceMeters>
          </Trackpoint>
          <Trackpoint>
            <Time>2020-03-07T17:47:18.000Z</Time>
            <Position>
              <LatitudeDegrees>40.663952641189098358154296875</LatitudeDegrees>
              <LongitudeDegrees>-3.754040859639644622802734375</LongitudeDegrees>
            </Position>
            <AltitudeMeters>852.4000244140625</AltitudeMeters>
            <DistanceMeters>NAN</DistanceMeters>
          </Trackpoint>
          <Trackpoint>
            <Time>2020-03-07T17:47:19.000Z</Time>
            <Position>
              <LatitudeDegrees>40.66395741887390613555908203125</LatitudeDegrees>
              <LongitudeDegrees>-3.7539169751107692718505859375</LongitudeDegrees>
            </Position>
            <AltitudeMeters>851.79998779296875</AltitudeMeters>
            <DistanceMeters>NAN</DistanceMeters>
          </Trackpoint>
          <Trackpoint>
            <Time>2020-03-07T17:47:20.000Z</Time>
            <Position>
              <LatitudeDegrees>40.66396429203450679779052734375</LatitudeDegrees>
              <LongitudeDegrees>-3.7537957727909088134765625</LongitudeDegrees>
            </Position>
            <AltitudeMeters>851.4000244140625</AltitudeMeters>
            <DistanceMeters>NAN</DistanceMeters>
          </Trackpoint>
          <Trackpoint>
            <Time>2020-03-07T17:47:21.000Z</Time>
            <Position>
              <LatitudeDegrees>40.66396839916706085205078125</LatitudeDegrees>
              <LongitudeDegrees>-3.7536785937845706939697265625</LongitudeDegrees>
            </Position>
            <AltitudeMeters>851.20001220703125</AltitudeMeters>
            <DistanceMeters>NAN</DistanceMeters>
          </Trackpoint>
          <Trackpoint>
            <Time>2020-03-07T17:47:22.000Z</Time>
            <Position>
              <LatitudeDegrees>40.66396932117640972137451171875</LatitudeDegrees>
              <LongitudeDegrees>-3.75356334261596202850341796875</LongitudeDegrees>
            </Position>
            <AltitudeMeters>851</AltitudeMeters>
            <DistanceMeters>NAN</DistanceMeters>
          </Trackpoint>
          <Trackpoint>
            <Time>2020-03-07T17:47:23.000Z</Time>
            <Position>
              <LatitudeDegrees>40.66396278329193592071533203125</LatitudeDegrees>
              <LongitudeDegrees>-3.7534439004957675933837890625</LongitudeDegrees>
            </Position>
            <AltitudeMeters>851</AltitudeMeters>
            <DistanceMeters>NAN</DistanceMeters>
          </Trackpoint>
          <Trackpoint>
            <Time>2020-03-07T17:47:24.000Z</Time>
            <Position>
              <LatitudeDegrees>40.6639454327523708343505859375</LatitudeDegrees>
              <LongitudeDegrees>-3.7533329240977764129638671875</LongitudeDegrees>
            </Position>
            <AltitudeMeters>851</AltitudeMeters>
            <DistanceMeters>NAN</DistanceMeters>
          </Trackpoint>
          <Trackpoint>
            <Time>2020-03-07T17:47:25.000Z</Time>
            <Position>
              <LatitudeDegrees>40.6639209575951099395751953125</LatitudeDegrees>
              <LongitudeDegrees>-3.753230832517147064208984375</LongitudeDegrees>
            </Position>
            <AltitudeMeters>851</AltitudeMeters>
            <DistanceMeters>NAN</DistanceMeters>
          </Trackpoint>
          <Trackpoint>
            <Time>2020-03-07T17:47:26.000Z</Time>
            <Position>
              <LatitudeDegrees>40.66389069892466068267822265625</LatitudeDegrees>
              <LongitudeDegrees>-3.7531364522874355316162109375</LongitudeDegrees>
            </Position>
            <AltitudeMeters>851</AltitudeMeters>
            <DistanceMeters>NAN</DistanceMeters>
          </Trackpoint>
          <Trackpoint>
            <Time>2020-03-07T17:47:27.000Z</Time>
            <Position>
              <LatitudeDegrees>40.66385163925588130950927734375</LatitudeDegrees>
              <LongitudeDegrees>-3.75304919667541980743408203125</LongitudeDegrees>
            </Position>
            <AltitudeMeters>851</AltitudeMeters>
            <DistanceMeters>NAN</DistanceMeters>
          </Trackpoint>
          <Trackpoint>
            <Time>2020-03-07T17:47:28.000Z</Time>
            <Position>
              <LatitudeDegrees>40.663804449141025543212890625</LatitudeDegrees>
              <LongitudeDegrees>-3.75297124497592449188232421875</LongitudeDegrees>
            </Position>
            <AltitudeMeters>851</AltitudeMeters>
            <DistanceMeters>NAN</DistanceMeters>
          </Trackpoint>
          <Trackpoint>
            <Time>2020-03-07T17:47:29.000Z</Time>
            <Position>
              <LatitudeDegrees>40.66375189460813999176025390625</LatitudeDegrees>
              <LongitudeDegrees>-3.75290083698928356170654296875</LongitudeDegrees>
            </Position>
            <AltitudeMeters>851.20001220703125</AltitudeMeters>
            <DistanceMeters>NAN</DistanceMeters>
          </Trackpoint>
          <Trackpoint>
            <Time>2020-03-07T17:47:30.000Z</Time>
            <Position>
              <LatitudeDegrees>40.66369456239044666290283203125</LatitudeDegrees>
              <LongitudeDegrees>-3.75283495523035526275634765625</LongitudeDegrees>
            </Position>
            <AltitudeMeters>851.20001220703125</AltitudeMeters>
            <DistanceMeters>NAN</DistanceMeters>
          </Trackpoint>
          <Trackpoint>
            <Time>2020-03-07T17:47:31.000Z</Time>
            <Position>
              <LatitudeDegrees>40.6636363081634044647216796875</LatitudeDegrees>
              <LongitudeDegrees>-3.75277326442301273345947265625</LongitudeDegrees>
            </Position>
            <AltitudeMeters>851.4000244140625</AltitudeMeters>
            <DistanceMeters>NAN</DistanceMeters>
          </Trackpoint>
          <Trackpoint>
            <Time>2020-03-07T17:47:32.000Z</Time>
            <Position>
              <LatitudeDegrees>40.6635766290128231048583984375</LatitudeDegrees>
              <LongitudeDegrees>-3.752715177834033966064453125</LongitudeDegrees>
            </Position>
            <AltitudeMeters>851.5999755859375</AltitudeMeters>
            <DistanceMeters>NAN</DistanceMeters>
          </Trackpoint>
          <Trackpoint>
            <Time>2020-03-07T17:47:33.000Z</Time>
            <Position>
              <LatitudeDegrees>40.66351736895740032196044921875</LatitudeDegrees>
              <LongitudeDegrees>-3.75265608541667461395263671875</LongitudeDegrees>
            </Position>
            <AltitudeMeters>851.79998779296875</AltitudeMeters>
            <DistanceMeters>NAN</DistanceMeters>
          </Trackpoint>
          <Trackpoint>
            <Time>2020-03-07T17:47:34.000Z</Time>
            <Position>
              <LatitudeDegrees>40.66345877945423126220703125</LatitudeDegrees>
              <LongitudeDegrees>-3.75259791500866413116455078125</LongitudeDegrees>
            </Position>
            <AltitudeMeters>851.79998779296875</AltitudeMeters>
            <DistanceMeters>NAN</DistanceMeters>
          </Trackpoint>
          <Trackpoint>
            <Time>2020-03-07T17:47:35.000Z</Time>
            <Position>
              <LatitudeDegrees>40.66340002231299877166748046875</LatitudeDegrees>
              <LongitudeDegrees>-3.7525376491248607635498046875</LongitudeDegrees>
            </Position>
            <AltitudeMeters>851.79998779296875</AltitudeMeters>
            <DistanceMeters>NAN</DistanceMeters>
          </Trackpoint>
          <Trackpoint>
            <Time>2020-03-07T17:47:36.000Z</Time>
            <Position>
              <LatitudeDegrees>40.66334151662886142730712890625</LatitudeDegrees>
              <LongitudeDegrees>-3.75247813761234283447265625</LongitudeDegrees>
            </Position>
            <AltitudeMeters>851.79998779296875</AltitudeMeters>
            <DistanceMeters>NAN</DistanceMeters>
          </Trackpoint>
          <Trackpoint>
            <Time>2020-03-07T17:47:37.000Z</Time>
            <Position>
              <LatitudeDegrees>40.66328502260148525238037109375</LatitudeDegrees>
              <LongitudeDegrees>-3.7524182908236980438232421875</LongitudeDegrees>
            </Position>
            <AltitudeMeters>851.79998779296875</AltitudeMeters>
            <DistanceMeters>NAN</DistanceMeters>
          </Trackpoint>
          <Trackpoint>
            <Time>2020-03-07T17:47:38.000Z</Time>
            <Position>
              <LatitudeDegrees>40.6632269360125064849853515625</LatitudeDegrees>
              <LongitudeDegrees>-3.75235701911151409149169921875</LongitudeDegrees>
            </Position>
            <AltitudeMeters>851.79998779296875</AltitudeMeters>
            <DistanceMeters>NAN</DistanceMeters>
          </Trackpoint>
          <Trackpoint>
            <Time>2020-03-07T17:47:39.000Z</Time>
            <Position>
              <LatitudeDegrees>40.66316717304289340972900390625</LatitudeDegrees>
              <LongitudeDegrees>-3.75229801051318645477294921875</LongitudeDegrees>
            </Position>
            <AltitudeMeters>851.79998779296875</AltitudeMeters>
            <DistanceMeters>NAN</DistanceMeters>
          </Trackpoint>
          <Trackpoint>
            <Time>2020-03-07T17:47:40.000Z</Time>
            <Position>
              <LatitudeDegrees>40.663105733692646026611328125</LatitudeDegrees>
              <LongitudeDegrees>-3.7522405944764614105224609375</LongitudeDegrees>
            </Position>
            <AltitudeMeters>851.79998779296875</AltitudeMeters>
            <DistanceMeters>NAN</DistanceMeters>
          </Trackpoint>
          <Trackpoint>
            <Time>2020-03-07T17:47:41.000Z</Time>
            <Position>
              <LatitudeDegrees>40.66304462961852550506591796875</LatitudeDegrees>
              <LongitudeDegrees>-3.7521849386394023895263671875</LongitudeDegrees>
            </Position>
            <AltitudeMeters>851.79998779296875</AltitudeMeters>
            <DistanceMeters>NAN</DistanceMeters>
          </Trackpoint>
          <Trackpoint>
            <Time>2020-03-07T17:47:42.000Z</Time>
            <Position>
              <LatitudeDegrees>40.66298067569732666015625</LatitudeDegrees>
              <LongitudeDegrees>-3.7521292828023433685302734375</LongitudeDegrees>
            </Position>
            <AltitudeMeters>851.79998779296875</AltitudeMeters>
            <DistanceMeters>NAN</DistanceMeters>
          </Trackpoint>
          <Trackpoint>
            <Time>2020-03-07T17:47:43.000Z</Time>
            <Position>
              <LatitudeDegrees>40.66291605122387409210205078125</LatitudeDegrees>
              <LongitudeDegrees>-3.7520749680697917938232421875</LongitudeDegrees>
            </Position>
            <AltitudeMeters>851.5999755859375</AltitudeMeters>
            <DistanceMeters>NAN</DistanceMeters>
          </Trackpoint>
          <Trackpoint>
            <Time>2020-03-07T17:47:44.000Z</Time>
            <Position>
              <LatitudeDegrees>40.6628507561981678009033203125</LatitudeDegrees>
              <LongitudeDegrees>-3.75201989896595478057861328125</LongitudeDegrees>
            </Position>
            <AltitudeMeters>851.4000244140625</AltitudeMeters>
            <DistanceMeters>NAN</DistanceMeters>
          </Trackpoint>
          <Trackpoint>
            <Time>2020-03-07T17:47:45.000Z</Time>
            <Position>
              <LatitudeDegrees>40.662785209715366363525390625</LatitudeDegrees>
              <LongitudeDegrees>-3.75196424312889575958251953125</LongitudeDegrees>
            </Position>
            <AltitudeMeters>851.20001220703125</AltitudeMeters>
            <DistanceMeters>NAN</DistanceMeters>
          </Trackpoint>
          <Trackpoint>
            <Time>2020-03-07T17:47:46.000Z</Time>
            <Position>
              <LatitudeDegrees>40.6627189926803112030029296875</LatitudeDegrees>
              <LongitudeDegrees>-3.7519086711108684539794921875</LongitudeDegrees>
            </Position>
            <AltitudeMeters>851.20001220703125</AltitudeMeters>
            <DistanceMeters>NAN</DistanceMeters>
          </Trackpoint>
          <Trackpoint>
            <Time>2020-03-07T17:47:47.000Z</Time>
            <Position>
              <LatitudeDegrees>40.66265252418816089630126953125</LatitudeDegrees>
              <LongitudeDegrees>-3.75185477547347545623779296875</LongitudeDegrees>
            </Position>
            <AltitudeMeters>851</AltitudeMeters>
            <DistanceMeters>NAN</DistanceMeters>
          </Trackpoint>
          <Trackpoint>
            <Time>2020-03-07T17:47:48.000Z</Time>
            <Position>
              <LatitudeDegrees>40.66258479841053485870361328125</LatitudeDegrees>
              <LongitudeDegrees>-3.7517988681793212890625</LongitudeDegrees>
            </Position>
            <AltitudeMeters>851</AltitudeMeters>
            <DistanceMeters>NAN</DistanceMeters>
          </Trackpoint>
          <Trackpoint>
            <Time>2020-03-07T17:47:49.000Z</Time>
            <Position>
              <LatitudeDegrees>40.66251891665160655975341796875</LatitudeDegrees>
              <LongitudeDegrees>-3.7517457269132137298583984375</LongitudeDegrees>
            </Position>
            <AltitudeMeters>851</AltitudeMeters>
            <DistanceMeters>NAN</DistanceMeters>
          </Trackpoint>
          <Trackpoint>
            <Time>2020-03-07T17:47:50.000Z</Time>
            <Position>
              <LatitudeDegrees>40.662451274693012237548828125</LatitudeDegrees>
              <LongitudeDegrees>-3.75169199891388416290283203125</LongitudeDegrees>
            </Position>
            <AltitudeMeters>850.5999755859375</AltitudeMeters>
            <DistanceMeters>NAN</DistanceMeters>
          </Trackpoint>
          <Trackpoint>
            <Time>2020-03-07T17:47:51.000Z</Time>
            <Position>
              <LatitudeDegrees>40.66238530911505222320556640625</LatitudeDegrees>
              <LongitudeDegrees>-3.75163952820003032684326171875</LongitudeDegrees>
            </Position>
            <AltitudeMeters>850.4000244140625</AltitudeMeters>
            <DistanceMeters>NAN</DistanceMeters>
          </Trackpoint>
          <Trackpoint>
            <Time>2020-03-07T17:47:52.000Z</Time>
            <Position>
              <LatitudeDegrees>40.66231858916580677032470703125</LatitudeDegrees>
              <LongitudeDegrees>-3.75158655457198619842529296875</LongitudeDegrees>
            </Position>
            <AltitudeMeters>850.20001220703125</AltitudeMeters>
            <DistanceMeters>NAN</DistanceMeters>
          </Trackpoint>
          <Trackpoint>
            <Time>2020-03-07T17:47:53.000Z</Time>
            <Position>
              <LatitudeDegrees>40.66225253976881504058837890625</LatitudeDegrees>
              <LongitudeDegrees>-3.7515351735055446624755859375</LongitudeDegrees>
            </Position>
            <AltitudeMeters>850</AltitudeMeters>
            <DistanceMeters>NAN</DistanceMeters>
          </Trackpoint>
          <Trackpoint>
            <Time>2020-03-07T17:47:54.000Z</Time>
            <Position>
              <LatitudeDegrees>40.6621869094669818878173828125</LatitudeDegrees>
              <LongitudeDegrees>-3.7514821998775005340576171875</LongitudeDegrees>
            </Position>
            <AltitudeMeters>849.79998779296875</AltitudeMeters>
            <DistanceMeters>NAN</DistanceMeters>
          </Trackpoint>
          <Trackpoint>
            <Time>2020-03-07T17:47:55.000Z</Time>
            <Position>
              <LatitudeDegrees>40.66212144680321216583251953125</LatitudeDegrees>
              <LongitudeDegrees>-3.75142947770655155181884765625</LongitudeDegrees>
            </Position>
            <AltitudeMeters>849.4000244140625</AltitudeMeters>
            <DistanceMeters>NAN</DistanceMeters>
          </Trackpoint>
          <Trackpoint>
            <Time>2020-03-07T17:47:56.000Z</Time>
            <Position>
              <LatitudeDegrees>40.6620564870536327362060546875</LatitudeDegrees>
              <LongitudeDegrees>-3.75137700699269771575927734375</LongitudeDegrees>
            </Position>
            <AltitudeMeters>849.4000244140625</AltitudeMeters>
            <DistanceMeters>NAN</DistanceMeters>
          </Trackpoint>
          <Trackpoint>
            <Time>2020-03-07T17:47:57.000Z</Time>
            <Position>
              <LatitudeDegrees>40.66199420951306819915771484375</LatitudeDegrees>
              <LongitudeDegrees>-3.75132554210722446441650390625</LongitudeDegrees>
            </Position>
            <AltitudeMeters>849</AltitudeMeters>
            <DistanceMeters>NAN</DistanceMeters>
          </Trackpoint>
          <Trackpoint>
            <Time>2020-03-07T17:47:58.000Z</Time>
            <Position>
              <LatitudeDegrees>40.66193151287734508514404296875</LatitudeDegrees>
              <LongitudeDegrees>-3.7512749992311000823974609375</LongitudeDegrees>
            </Position>
            <AltitudeMeters>848.79998779296875</AltitudeMeters>
            <DistanceMeters>NAN</DistanceMeters>
          </Trackpoint>
          <Trackpoint>
            <Time>2020-03-07T17:47:59.000Z</Time>
            <Position>
              <LatitudeDegrees>40.66186864860355854034423828125</LatitudeDegrees>
              <LongitudeDegrees>-3.75122579745948314666748046875</LongitudeDegrees>
            </Position>
            <AltitudeMeters>848.5999755859375</AltitudeMeters>
            <DistanceMeters>NAN</DistanceMeters>
          </Trackpoint>
          <Trackpoint>
            <Time>2020-03-07T17:48:00.000Z</Time>
            <Position>
              <LatitudeDegrees>40.6618072092533111572265625</LatitudeDegrees>
              <LongitudeDegrees>-3.75117500312626361846923828125</LongitudeDegrees>
            </Position>
            <AltitudeMeters>848.5999755859375</AltitudeMeters>
            <DistanceMeters>NAN</DistanceMeters>
          </Trackpoint>
          <Trackpoint>
            <Time>2020-03-07T17:48:01.000Z</Time>
            <Position>
              <LatitudeDegrees>40.6617456860840320587158203125</LatitudeDegrees>
              <LongitudeDegrees>-3.75112253241240978240966796875</LongitudeDegrees>
            </Position>
            <AltitudeMeters>848.4000244140625</AltitudeMeters>
            <DistanceMeters>NAN</DistanceMeters>
          </Trackpoint>
          <Trackpoint>
            <Time>2020-03-07T17:48:02.000Z</Time>
            <Position>
              <LatitudeDegrees>40.661684162914752960205078125</LatitudeDegrees>
              <LongitudeDegrees>-3.7510711513459682464599609375</LongitudeDegrees>
            </Position>
            <AltitudeMeters>848.20001220703125</AltitudeMeters>
            <DistanceMeters>NAN</DistanceMeters>
          </Trackpoint>
          <Trackpoint>
            <Time>2020-03-07T17:48:03.000Z</Time>
            <Position>
              <LatitudeDegrees>40.661620795726776123046875</LatitudeDegrees>
              <LongitudeDegrees>-3.7510201893746852874755859375</LongitudeDegrees>
            </Position>
            <AltitudeMeters>848</AltitudeMeters>
            <DistanceMeters>NAN</DistanceMeters>
          </Trackpoint>
          <Trackpoint>
            <Time>2020-03-07T17:48:04.000Z</Time>
            <Position>
              <LatitudeDegrees>40.66155767999589443206787109375</LatitudeDegrees>
              <LongitudeDegrees>-3.7509675510227680206298828125</LongitudeDegrees>
            </Position>
            <AltitudeMeters>847.79998779296875</AltitudeMeters>
            <DistanceMeters>NAN</DistanceMeters>
          </Trackpoint>
          <Trackpoint>
            <Time>2020-03-07T17:48:05.000Z</Time>
            <Position>
              <LatitudeDegrees>40.66149481572210788726806640625</LatitudeDegrees>
              <LongitudeDegrees>-3.7509152479469776153564453125</LongitudeDegrees>
            </Position>
            <AltitudeMeters>847.79998779296875</AltitudeMeters>
            <DistanceMeters>NAN</DistanceMeters>
          </Trackpoint>
          <Trackpoint>
            <Time>2020-03-07T17:48:06.000Z</Time>
            <Position>
              <LatitudeDegrees>40.6614308618009090423583984375</LatitudeDegrees>
              <LongitudeDegrees>-3.75086017884314060211181640625</LongitudeDegrees>
            </Position>
            <AltitudeMeters>847.5999755859375</AltitudeMeters>
            <DistanceMeters>NAN</DistanceMeters>
          </Trackpoint>
          <Trackpoint>
            <Time>2020-03-07T17:48:07.000Z</Time>
            <Position>
              <LatitudeDegrees>40.66136439330875873565673828125</LatitudeDegrees>
              <LongitudeDegrees>-3.75080066733062267303466796875</LongitudeDegrees>
            </Position>
            <AltitudeMeters>847.5999755859375</AltitudeMeters>
            <DistanceMeters>NAN</DistanceMeters>
          </Trackpoint>
          <Trackpoint>
            <Time>2020-03-07T17:48:08.000Z</Time>
            <Position>
              <LatitudeDegrees>40.66129624843597412109375</LatitudeDegrees>
              <LongitudeDegrees>-3.7507368810474872589111328125</LongitudeDegrees>
            </Position>
            <AltitudeMeters>847.4000244140625</AltitudeMeters>
            <DistanceMeters>NAN</DistanceMeters>
          </Trackpoint>
          <Trackpoint>
            <Time>2020-03-07T17:48:09.000Z</Time>
            <Position>
              <LatitudeDegrees>40.66122726537287235260009765625</LatitudeDegrees>
              <LongitudeDegrees>-3.7506674788892269134521484375</LongitudeDegrees>
            </Position>
            <AltitudeMeters>847.4000244140625</AltitudeMeters>
            <DistanceMeters>NAN</DistanceMeters>
          </Trackpoint>
          <Trackpoint>
            <Time>2020-03-07T17:48:10.000Z</Time>
            <Position>
              <LatitudeDegrees>40.66115970723330974578857421875</LatitudeDegrees>
              <LongitudeDegrees>-3.75059111975133419036865234375</LongitudeDegrees>
            </Position>
            <AltitudeMeters>847.4000244140625</AltitudeMeters>
            <DistanceMeters>NAN</DistanceMeters>
          </Trackpoint>
          <Trackpoint>
            <Time>2020-03-07T17:48:11.000Z</Time>
            <Position>
              <LatitudeDegrees>40.6610942445695400238037109375</LatitudeDegrees>
              <LongitudeDegrees>-3.7505073845386505126953125</LongitudeDegrees>
            </Position>
            <AltitudeMeters>847.20001220703125</AltitudeMeters>
            <DistanceMeters>NAN</DistanceMeters>
          </Trackpoint>
          <Trackpoint>
            <Time>2020-03-07T17:48:12.000Z</Time>
            <Position>
              <LatitudeDegrees>40.6610312126576900482177734375</LatitudeDegrees>
              <LongitudeDegrees>-3.750418536365032196044921875</LongitudeDegrees>
            </Position>
            <AltitudeMeters>847</AltitudeMeters>
            <DistanceMeters>NAN</DistanceMeters>
          </Trackpoint>
          <Trackpoint>
            <Time>2020-03-07T17:48:13.000Z</Time>
            <Position>
              <LatitudeDegrees>40.66096658818423748016357421875</LatitudeDegrees>
              <LongitudeDegrees>-3.75032843090593814849853515625</LongitudeDegrees>
            </Position>
            <AltitudeMeters>846.5999755859375</AltitudeMeters>
            <DistanceMeters>NAN</DistanceMeters>
          </Trackpoint>
          <Trackpoint>
            <Time>2020-03-07T17:48:14.000Z</Time>
            <Position>
              <LatitudeDegrees>40.66089970059692859649658203125</LatitudeDegrees>
              <LongitudeDegrees>-3.750235475599765777587890625</LongitudeDegrees>
            </Position>
            <AltitudeMeters>846</AltitudeMeters>
            <DistanceMeters>NAN</DistanceMeters>
          </Trackpoint>
          <Trackpoint>
            <Time>2020-03-07T17:48:15.000Z</Time>
            <Position>
              <LatitudeDegrees>40.6608317233622074127197265625</LatitudeDegrees>
              <LongitudeDegrees>-3.750147633254528045654296875</LongitudeDegrees>
            </Position>
            <AltitudeMeters>845.4000244140625</AltitudeMeters>
            <DistanceMeters>NAN</DistanceMeters>
          </Trackpoint>
          <Trackpoint>
            <Time>2020-03-07T17:48:16.000Z</Time>
            <Position>
              <LatitudeDegrees>40.6607566215097904205322265625</LatitudeDegrees>
              <LongitudeDegrees>-3.75007026828825473785400390625</LongitudeDegrees>
            </Position>
            <AltitudeMeters>844.79998779296875</AltitudeMeters>
            <DistanceMeters>NAN</DistanceMeters>
          </Trackpoint>
          <Trackpoint>
            <Time>2020-03-07T17:48:17.000Z</Time>
            <Position>
              <LatitudeDegrees>40.66068277694284915924072265625</LatitudeDegrees>
              <LongitudeDegrees>-3.7499912269413471221923828125</LongitudeDegrees>
            </Position>
            <AltitudeMeters>844</AltitudeMeters>
            <DistanceMeters>NAN</DistanceMeters>
          </Trackpoint>
          <Trackpoint>
            <Time>2020-03-07T17:48:18.000Z</Time>
            <Position>
              <LatitudeDegrees>40.66060884855687618255615234375</LatitudeDegrees>
              <LongitudeDegrees>-3.749910257756710052490234375</LongitudeDegrees>
            </Position>
            <AltitudeMeters>843.5999755859375</AltitudeMeters>
            <DistanceMeters>NAN</DistanceMeters>
          </Trackpoint>
          <Trackpoint>
            <Time>2020-03-07T17:48:19.000Z</Time>
            <Position>
              <LatitudeDegrees>40.6605376861989498138427734375</LatitudeDegrees>
              <LongitudeDegrees>-3.7498309649527072906494140625</LongitudeDegrees>
            </Position>
            <AltitudeMeters>842.79998779296875</AltitudeMeters>
            <DistanceMeters>NAN</DistanceMeters>
          </Trackpoint>
          <Trackpoint>
            <Time>2020-03-07T17:48:20.000Z</Time>
            <Position>
              <LatitudeDegrees>40.6604687869548797607421875</LatitudeDegrees>
              <LongitudeDegrees>-3.74975502490997314453125</LongitudeDegrees>
            </Position>
            <AltitudeMeters>842.20001220703125</AltitudeMeters>
            <DistanceMeters>NAN</DistanceMeters>
          </Trackpoint>
          <Trackpoint>
            <Time>2020-03-07T17:48:21.000Z</Time>
            <Position>
              <LatitudeDegrees>40.660403072834014892578125</LatitudeDegrees>
              <LongitudeDegrees>-3.7496807612478733062744140625</LongitudeDegrees>
            </Position>
            <AltitudeMeters>841.4000244140625</AltitudeMeters>
            <DistanceMeters>NAN</DistanceMeters>
          </Trackpoint>
          <Trackpoint>
            <Time>2020-03-07T17:48:22.000Z</Time>
            <Position>
              <LatitudeDegrees>40.66033744253218173980712890625</LatitudeDegrees>
              <LongitudeDegrees>-3.7496086768805980682373046875</LongitudeDegrees>
            </Position>
            <AltitudeMeters>840.5999755859375</AltitudeMeters>
            <DistanceMeters>NAN</DistanceMeters>
          </Trackpoint>
          <Trackpoint>
            <Time>2020-03-07T17:48:23.000Z</Time>
            <Position>
              <LatitudeDegrees>40.6602691300213336944580078125</LatitudeDegrees>
              <LongitudeDegrees>-3.74953768216073513031005859375</LongitudeDegrees>
            </Position>
            <AltitudeMeters>839.79998779296875</AltitudeMeters>
            <DistanceMeters>NAN</DistanceMeters>
          </Trackpoint>
          <Trackpoint>
            <Time>2020-03-07T17:48:24.000Z</Time>
            <Position>
              <LatitudeDegrees>40.66019159741699695587158203125</LatitudeDegrees>
              <LongitudeDegrees>-3.7494795955717563629150390625</LongitudeDegrees>
            </Position>
            <AltitudeMeters>839.20001220703125</AltitudeMeters>
            <DistanceMeters>NAN</DistanceMeters>
          </Trackpoint>
          <Trackpoint>
            <Time>2020-03-07T17:48:25.000Z</Time>
            <Position>
              <LatitudeDegrees>40.6601066887378692626953125</LatitudeDegrees>
              <LongitudeDegrees>-3.749441206455230712890625</LongitudeDegrees>
            </Position>
            <AltitudeMeters>838.79998779296875</AltitudeMeters>
            <DistanceMeters>NAN</DistanceMeters>
          </Trackpoint>
          <Trackpoint>
            <Time>2020-03-07T17:48:26.000Z</Time>
            <Position>
              <LatitudeDegrees>40.66001188941299915313720703125</LatitudeDegrees>
              <LongitudeDegrees>-3.74942285008728504180908203125</LongitudeDegrees>
            </Position>
            <AltitudeMeters>838.5999755859375</AltitudeMeters>
            <DistanceMeters>NAN</DistanceMeters>
          </Trackpoint>
          <Trackpoint>
            <Time>2020-03-07T17:48:27.000Z</Time>
            <Position>
              <LatitudeDegrees>40.65991063602268695831298828125</LatitudeDegrees>
              <LongitudeDegrees>-3.749418742954730987548828125</LongitudeDegrees>
            </Position>
            <AltitudeMeters>838.4000244140625</AltitudeMeters>
            <DistanceMeters>NAN</DistanceMeters>
          </Trackpoint>
          <Trackpoint>
            <Time>2020-03-07T17:48:28.000Z</Time>
            <Position>
              <LatitudeDegrees>40.6598067842423915863037109375</LatitudeDegrees>
              <LongitudeDegrees>-3.749422095715999603271484375</LongitudeDegrees>
            </Position>
            <AltitudeMeters>838.4000244140625</AltitudeMeters>
            <DistanceMeters>NAN</DistanceMeters>
          </Trackpoint>
          <Trackpoint>
            <Time>2020-03-07T17:48:29.000Z</Time>
            <Position>
              <LatitudeDegrees>40.65970125608146190643310546875</LatitudeDegrees>
              <LongitudeDegrees>-3.74942712485790252685546875</LongitudeDegrees>
            </Position>
            <AltitudeMeters>838.20001220703125</AltitudeMeters>
            <DistanceMeters>NAN</DistanceMeters>
          </Trackpoint>
          <Trackpoint>
            <Time>2020-03-07T17:48:30.000Z</Time>
            <Position>
              <LatitudeDegrees>40.6595928780734539031982421875</LatitudeDegrees>
              <LongitudeDegrees>-3.749424777925014495849609375</LongitudeDegrees>
            </Position>
            <AltitudeMeters>838.20001220703125</AltitudeMeters>
            <DistanceMeters>NAN</DistanceMeters>
          </Trackpoint>
          <Trackpoint>
            <Time>2020-03-07T17:48:31.000Z</Time>
            <Position>
              <LatitudeDegrees>40.65948500297963619232177734375</LatitudeDegrees>
              <LongitudeDegrees>-3.7494111992418766021728515625</LongitudeDegrees>
            </Position>
            <AltitudeMeters>838</AltitudeMeters>
            <DistanceMeters>NAN</DistanceMeters>
          </Trackpoint>
          <Trackpoint>
            <Time>2020-03-07T17:48:32.000Z</Time>
            <Position>
              <LatitudeDegrees>40.6593798100948333740234375</LatitudeDegrees>
              <LongitudeDegrees>-3.74937775544822216033935546875</LongitudeDegrees>
            </Position>
            <AltitudeMeters>838</AltitudeMeters>
            <DistanceMeters>NAN</DistanceMeters>
          </Trackpoint>
          <Trackpoint>
            <Time>2020-03-07T17:48:33.000Z</Time>
            <Position>
              <LatitudeDegrees>40.65927964635193347930908203125</LatitudeDegrees>
              <LongitudeDegrees>-3.74932008795440196990966796875</LongitudeDegrees>
            </Position>
            <AltitudeMeters>837.5999755859375</AltitudeMeters>
            <DistanceMeters>NAN</DistanceMeters>
          </Trackpoint>
          <Trackpoint>
            <Time>2020-03-07T17:48:34.000Z</Time>
            <Position>
              <LatitudeDegrees>40.65917956642806529998779296875</LatitudeDegrees>
              <LongitudeDegrees>-3.74924163334071636199951171875</LongitudeDegrees>
            </Position>
            <AltitudeMeters>837.20001220703125</AltitudeMeters>
            <DistanceMeters>NAN</DistanceMeters>
          </Trackpoint>
          <Trackpoint>
            <Time>2020-03-07T17:48:35.000Z</Time>
            <Position>
              <LatitudeDegrees>40.65908082760870456695556640625</LatitudeDegrees>
              <LongitudeDegrees>-3.74915999360382556915283203125</LongitudeDegrees>
            </Position>
            <AltitudeMeters>836.20001220703125</AltitudeMeters>
            <DistanceMeters>NAN</DistanceMeters>
          </Trackpoint>
          <Trackpoint>
            <Time>2020-03-07T17:48:36.000Z</Time>
            <Position>
              <LatitudeDegrees>40.658983848989009857177734375</LatitudeDegrees>
              <LongitudeDegrees>-3.7490876577794551849365234375</LongitudeDegrees>
            </Position>
            <AltitudeMeters>835.4000244140625</AltitudeMeters>
            <DistanceMeters>NAN</DistanceMeters>
          </Trackpoint>
          <Trackpoint>
            <Time>2020-03-07T17:48:37.000Z</Time>
            <Position>
              <LatitudeDegrees>40.65888418816030025482177734375</LatitudeDegrees>
              <LongitudeDegrees>-3.74903175048530101776123046875</LongitudeDegrees>
            </Position>
            <AltitudeMeters>833.4000244140625</AltitudeMeters>
            <DistanceMeters>NAN</DistanceMeters>
          </Trackpoint>
          <Trackpoint>
            <Time>2020-03-07T17:48:38.000Z</Time>
            <Position>
              <LatitudeDegrees>40.6587815098464488983154296875</LatitudeDegrees>
              <LongitudeDegrees>-3.74899822287261486053466796875</LongitudeDegrees>
            </Position>
            <AltitudeMeters>832.5999755859375</AltitudeMeters>
            <DistanceMeters>NAN</DistanceMeters>
          </Trackpoint>
          <Trackpoint>
            <Time>2020-03-07T17:48:39.000Z</Time>
            <Position>
              <LatitudeDegrees>40.65867849625647068023681640625</LatitudeDegrees>
              <LongitudeDegrees>-3.74897324480116367340087890625</LongitudeDegrees>
            </Position>
            <AltitudeMeters>831.79998779296875</AltitudeMeters>
            <DistanceMeters>NAN</DistanceMeters>
          </Trackpoint>
          <Trackpoint>
            <Time>2020-03-07T17:48:40.000Z</Time>
            <Position>
              <LatitudeDegrees>40.658578835427761077880859375</LatitudeDegrees>
              <LongitudeDegrees>-3.7489327602088451385498046875</LongitudeDegrees>
            </Position>
            <AltitudeMeters>830.5999755859375</AltitudeMeters>
            <DistanceMeters>NAN</DistanceMeters>
          </Trackpoint>
          <Trackpoint>
            <Time>2020-03-07T17:48:41.000Z</Time>
            <Position>
              <LatitudeDegrees>40.65848286263644695281982421875</LatitudeDegrees>
              <LongitudeDegrees>-3.74887819401919841766357421875</LongitudeDegrees>
            </Position>
            <AltitudeMeters>829.4000244140625</AltitudeMeters>
            <DistanceMeters>NAN</DistanceMeters>
          </Trackpoint>
          <Trackpoint>
            <Time>2020-03-07T17:48:42.000Z</Time>
            <Position>
              <LatitudeDegrees>40.65838881768286228179931640625</LatitudeDegrees>
              <LongitudeDegrees>-3.748824633657932281494140625</LongitudeDegrees>
            </Position>
            <AltitudeMeters>828.5999755859375</AltitudeMeters>
            <DistanceMeters>NAN</DistanceMeters>
          </Trackpoint>
          <Trackpoint>
            <Time>2020-03-07T17:48:43.000Z</Time>
            <Position>
              <LatitudeDegrees>40.6582961976528167724609375</LatitudeDegrees>
              <LongitudeDegrees>-3.7487808801233768463134765625</LongitudeDegrees>
            </Position>
            <AltitudeMeters>828</AltitudeMeters>
            <DistanceMeters>NAN</DistanceMeters>
          </Trackpoint>
          <Trackpoint>
            <Time>2020-03-07T17:48:44.000Z</Time>
            <Position>
              <LatitudeDegrees>40.65819804556667804718017578125</LatitudeDegrees>
              <LongitudeDegrees>-3.74877375550568103790283203125</LongitudeDegrees>
            </Position>
            <AltitudeMeters>827.79998779296875</AltitudeMeters>
            <DistanceMeters>NAN</DistanceMeters>
          </Trackpoint>
          <Trackpoint>
            <Time>2020-03-07T17:48:45.000Z</Time>
            <Position>
              <LatitudeDegrees>40.658099390566349029541015625</LatitudeDegrees>
              <LongitudeDegrees>-3.7487885914742946624755859375</LongitudeDegrees>
            </Position>
            <AltitudeMeters>827.5999755859375</AltitudeMeters>
            <DistanceMeters>NAN</DistanceMeters>
          </Trackpoint>
          <Trackpoint>
            <Time>2020-03-07T17:48:46.000Z</Time>
            <Position>
              <LatitudeDegrees>40.65800542943179607391357421875</LatitudeDegrees>
              <LongitudeDegrees>-3.74880862422287464141845703125</LongitudeDegrees>
            </Position>
            <AltitudeMeters>827.5999755859375</AltitudeMeters>
            <DistanceMeters>NAN</DistanceMeters>
          </Trackpoint>
          <Trackpoint>
            <Time>2020-03-07T17:48:47.000Z</Time>
            <Position>
              <LatitudeDegrees>40.65791758708655834197998046875</LatitudeDegrees>
              <LongitudeDegrees>-3.748823292553424835205078125</LongitudeDegrees>
            </Position>
            <AltitudeMeters>827.4000244140625</AltitudeMeters>
            <DistanceMeters>NAN</DistanceMeters>
          </Trackpoint>
          <Trackpoint>
            <Time>2020-03-07T17:48:48.000Z</Time>
            <Position>
              <LatitudeDegrees>40.6578383781015872955322265625</LatitudeDegrees>
              <LongitudeDegrees>-3.7488224543631076812744140625</LongitudeDegrees>
            </Position>
            <AltitudeMeters>827.4000244140625</AltitudeMeters>
            <DistanceMeters>NAN</DistanceMeters>
          </Trackpoint>
          <Trackpoint>
            <Time>2020-03-07T17:48:49.000Z</Time>
            <Position>
              <LatitudeDegrees>40.65776386298239231109619140625</LatitudeDegrees>
              <LongitudeDegrees>-3.7488020025193691253662109375</LongitudeDegrees>
            </Position>
            <AltitudeMeters>827.4000244140625</AltitudeMeters>
            <DistanceMeters>NAN</DistanceMeters>
          </Trackpoint>
          <Trackpoint>
            <Time>2020-03-07T17:48:50.000Z</Time>
            <Position>
              <LatitudeDegrees>40.65769580192863941192626953125</LatitudeDegrees>
              <LongitudeDegrees>-3.748784400522708892822265625</LongitudeDegrees>
            </Position>
            <AltitudeMeters>827.4000244140625</AltitudeMeters>
            <DistanceMeters>NAN</DistanceMeters>
          </Trackpoint>
          <Trackpoint>
            <Time>2020-03-07T17:48:51.000Z</Time>
            <Position>
              <LatitudeDegrees>40.65763662569224834442138671875</LatitudeDegrees>
              <LongitudeDegrees>-3.74877677299082279205322265625</LongitudeDegrees>
            </Position>
            <AltitudeMeters>827.4000244140625</AltitudeMeters>
            <DistanceMeters>NAN</DistanceMeters>
          </Trackpoint>
          <Trackpoint>
            <Time>2020-03-07T17:48:52.000Z</Time>
            <Position>
              <LatitudeDegrees>40.6575822271406650543212890625</LatitudeDegrees>
              <LongitudeDegrees>-3.74876805581152439117431640625</LongitudeDegrees>
            </Position>
            <AltitudeMeters>827.4000244140625</AltitudeMeters>
            <DistanceMeters>NAN</DistanceMeters>
          </Trackpoint>
          <Trackpoint>
            <Time>2020-03-07T17:48:53.000Z</Time>
            <Position>
              <LatitudeDegrees>40.6575285829603672027587890625</LatitudeDegrees>
              <LongitudeDegrees>-3.74875347130000591278076171875</LongitudeDegrees>
            </Position>
            <AltitudeMeters>827.4000244140625</AltitudeMeters>
            <DistanceMeters>NAN</DistanceMeters>
          </Trackpoint>
          <Trackpoint>
            <Time>2020-03-07T17:48:54.000Z</Time>
            <Position>
              <LatitudeDegrees>40.65747602842748165130615234375</LatitudeDegrees>
              <LongitudeDegrees>-3.748738132417201995849609375</LongitudeDegrees>
            </Position>
            <AltitudeMeters>827.4000244140625</AltitudeMeters>
            <DistanceMeters>NAN</DistanceMeters>
          </Trackpoint>
          <Trackpoint>
            <Time>2020-03-07T17:48:55.000Z</Time>
            <Position>
              <LatitudeDegrees>40.65742221660912036895751953125</LatitudeDegrees>
              <LongitudeDegrees>-3.74872430227696895599365234375</LongitudeDegrees>
            </Position>
            <AltitudeMeters>827.4000244140625</AltitudeMeters>
            <DistanceMeters>NAN</DistanceMeters>
          </Trackpoint>
          <Trackpoint>
            <Time>2020-03-07T17:48:56.000Z</Time>
            <Position>
              <LatitudeDegrees>40.657366476953029632568359375</LatitudeDegrees>
              <LongitudeDegrees>-3.748710639774799346923828125</LongitudeDegrees>
            </Position>
            <AltitudeMeters>827.4000244140625</AltitudeMeters>
            <DistanceMeters>NAN</DistanceMeters>
          </Trackpoint>
          <Trackpoint>
            <Time>2020-03-07T17:48:57.000Z</Time>
            <Position>
              <LatitudeDegrees>40.6573118269443511962890625</LatitudeDegrees>
              <LongitudeDegrees>-3.748700581490993499755859375</LongitudeDegrees>
            </Position>
            <AltitudeMeters>827.5999755859375</AltitudeMeters>
            <DistanceMeters>NAN</DistanceMeters>
          </Trackpoint>
          <Trackpoint>
            <Time>2020-03-07T17:48:58.000Z</Time>
            <Position>
              <LatitudeDegrees>40.65725826658308506011962890625</LatitudeDegrees>
              <LongitudeDegrees>-3.74868926592171192169189453125</LongitudeDegrees>
            </Position>
            <AltitudeMeters>827.79998779296875</AltitudeMeters>
            <DistanceMeters>NAN</DistanceMeters>
          </Trackpoint>
          <Trackpoint>
            <Time>2020-03-07T17:48:59.000Z</Time>
            <Position>
              <LatitudeDegrees>40.65721116028726100921630859375</LatitudeDegrees>
              <LongitudeDegrees>-3.748671077191829681396484375</LongitudeDegrees>
            </Position>
            <AltitudeMeters>828.4000244140625</AltitudeMeters>
            <DistanceMeters>NAN</DistanceMeters>
          </Trackpoint>
          <Trackpoint>
            <Time>2020-03-07T17:49:00.000Z</Time>
            <Position>
              <LatitudeDegrees>40.6571661494672298431396484375</LatitudeDegrees>
              <LongitudeDegrees>-3.7486346997320652008056640625</LongitudeDegrees>
            </Position>
            <AltitudeMeters>829.20001220703125</AltitudeMeters>
            <DistanceMeters>NAN</DistanceMeters>
          </Trackpoint>
          <Trackpoint>
            <Time>2020-03-07T17:49:01.000Z</Time>
            <Position>
              <LatitudeDegrees>40.65713454969227313995361328125</LatitudeDegrees>
              <LongitudeDegrees>-3.748573847115039825439453125</LongitudeDegrees>
            </Position>
            <AltitudeMeters>830</AltitudeMeters>
            <DistanceMeters>NAN</DistanceMeters>
          </Trackpoint>
          <Trackpoint>
            <Time>2020-03-07T17:49:02.000Z</Time>
            <Position>
              <LatitudeDegrees>40.6571108289062976837158203125</LatitudeDegrees>
              <LongitudeDegrees>-3.7484928779304027557373046875</LongitudeDegrees>
            </Position>
            <AltitudeMeters>830.4000244140625</AltitudeMeters>
            <DistanceMeters>NAN</DistanceMeters>
          </Trackpoint>
          <Trackpoint>
            <Time>2020-03-07T17:49:03.000Z</Time>
            <Position>
              <LatitudeDegrees>40.65709632821381092071533203125</LatitudeDegrees>
              <LongitudeDegrees>-3.7483979947865009307861328125</LongitudeDegrees>
            </Position>
            <AltitudeMeters>830.5999755859375</AltitudeMeters>
            <DistanceMeters>NAN</DistanceMeters>
          </Trackpoint>
          <Trackpoint>
            <Time>2020-03-07T17:49:04.000Z</Time>
            <Position>
              <LatitudeDegrees>40.6570851802825927734375</LatitudeDegrees>
              <LongitudeDegrees>-3.74829146079719066619873046875</LongitudeDegrees>
            </Position>
            <AltitudeMeters>830.5999755859375</AltitudeMeters>
            <DistanceMeters>NAN</DistanceMeters>
          </Trackpoint>
          <Trackpoint>
            <Time>2020-03-07T17:49:05.000Z</Time>
            <Position>
              <LatitudeDegrees>40.6570732779800891876220703125</LatitudeDegrees>
              <LongitudeDegrees>-3.7481817416846752166748046875</LongitudeDegrees>
            </Position>
            <AltitudeMeters>830.79998779296875</AltitudeMeters>
            <DistanceMeters>NAN</DistanceMeters>
          </Trackpoint>
          <Trackpoint>
            <Time>2020-03-07T17:49:06.000Z</Time>
            <Position>
              <LatitudeDegrees>40.65706213004887104034423828125</LatitudeDegrees>
              <LongitudeDegrees>-3.74807269312441349029541015625</LongitudeDegrees>
            </Position>
            <AltitudeMeters>830.79998779296875</AltitudeMeters>
            <DistanceMeters>NAN</DistanceMeters>
          </Trackpoint>
          <Trackpoint>
            <Time>2020-03-07T17:49:07.000Z</Time>
            <Position>
              <LatitudeDegrees>40.6570409238338470458984375</LatitudeDegrees>
              <LongitudeDegrees>-3.7479628063738346099853515625</LongitudeDegrees>
            </Position>
            <AltitudeMeters>830.79998779296875</AltitudeMeters>
            <DistanceMeters>NAN</DistanceMeters>
          </Trackpoint>
          <Trackpoint>
            <Time>2020-03-07T17:49:08.000Z</Time>
            <Position>
              <LatitudeDegrees>40.6570099107921123504638671875</LatitudeDegrees>
              <LongitudeDegrees>-3.74786515720188617706298828125</LongitudeDegrees>
            </Position>
            <AltitudeMeters>830.79998779296875</AltitudeMeters>
            <DistanceMeters>NAN</DistanceMeters>
          </Trackpoint>
          <Trackpoint>
            <Time>2020-03-07T17:49:09.000Z</Time>
            <Position>
              <LatitudeDegrees>40.656973533332347869873046875</LatitudeDegrees>
              <LongitudeDegrees>-3.74778117053210735321044921875</LongitudeDegrees>
            </Position>
            <AltitudeMeters>830.79998779296875</AltitudeMeters>
            <DistanceMeters>NAN</DistanceMeters>
          </Trackpoint>
          <Trackpoint>
            <Time>2020-03-07T17:49:10.000Z</Time>
            <Position>
              <LatitudeDegrees>40.6569338031113147735595703125</LatitudeDegrees>
              <LongitudeDegrees>-3.74770648777484893798828125</LongitudeDegrees>
            </Position>
            <AltitudeMeters>830.79998779296875</AltitudeMeters>
            <DistanceMeters>NAN</DistanceMeters>
          </Trackpoint>
          <Trackpoint>
            <Time>2020-03-07T17:49:11.000Z</Time>
            <Position>
              <LatitudeDegrees>40.65689449198544025421142578125</LatitudeDegrees>
              <LongitudeDegrees>-3.7476406060159206390380859375</LongitudeDegrees>
            </Position>
            <AltitudeMeters>830.4000244140625</AltitudeMeters>
            <DistanceMeters>NAN</DistanceMeters>
          </Trackpoint>
          <Trackpoint>
            <Time>2020-03-07T17:49:12.000Z</Time>
            <Position>
              <LatitudeDegrees>40.65685794688761234283447265625</LatitudeDegrees>
              <LongitudeDegrees>-3.74757966957986354827880859375</LongitudeDegrees>
            </Position>
            <AltitudeMeters>830</AltitudeMeters>
            <DistanceMeters>NAN</DistanceMeters>
          </Trackpoint>
          <Trackpoint>
            <Time>2020-03-07T17:49:13.000Z</Time>
            <Position>
              <LatitudeDegrees>40.65682274289429187774658203125</LatitudeDegrees>
              <LongitudeDegrees>-3.74752099625766277313232421875</LongitudeDegrees>
            </Position>
            <AltitudeMeters>829.79998779296875</AltitudeMeters>
            <DistanceMeters>NAN</DistanceMeters>
          </Trackpoint>
          <Trackpoint>
            <Time>2020-03-07T17:49:14.000Z</Time>
            <Position>
              <LatitudeDegrees>40.6567862816154956817626953125</LatitudeDegrees>
              <LongitudeDegrees>-3.747465424239635467529296875</LongitudeDegrees>
            </Position>
            <AltitudeMeters>829.5999755859375</AltitudeMeters>
            <DistanceMeters>NAN</DistanceMeters>
          </Trackpoint>
          <Trackpoint>
            <Time>2020-03-07T17:49:15.000Z</Time>
            <Position>
              <LatitudeDegrees>40.65674797631800174713134765625</LatitudeDegrees>
              <LongitudeDegrees>-3.74741571955382823944091796875</LongitudeDegrees>
            </Position>
            <AltitudeMeters>829.5999755859375</AltitudeMeters>
            <DistanceMeters>NAN</DistanceMeters>
          </Trackpoint>
          <Trackpoint>
            <Time>2020-03-07T17:49:16.000Z</Time>
            <Position>
              <LatitudeDegrees>40.656713359057903289794921875</LatitudeDegrees>
              <LongitudeDegrees>-3.74736794270575046539306640625</LongitudeDegrees>
            </Position>
            <AltitudeMeters>829.4000244140625</AltitudeMeters>
            <DistanceMeters>NAN</DistanceMeters>
          </Trackpoint>
          <Trackpoint>
            <Time>2020-03-07T17:49:17.000Z</Time>
            <Position>
              <LatitudeDegrees>40.6566823460161685943603515625</LatitudeDegrees>
              <LongitudeDegrees>-3.747321255505084991455078125</LongitudeDegrees>
            </Position>
            <AltitudeMeters>829.4000244140625</AltitudeMeters>
            <DistanceMeters>NAN</DistanceMeters>
          </Trackpoint>
          <Trackpoint>
            <Time>2020-03-07T17:49:18.000Z</Time>
            <Position>
              <LatitudeDegrees>40.65665208734571933746337890625</LatitudeDegrees>
              <LongitudeDegrees>-3.7472781725227832794189453125</LongitudeDegrees>
            </Position>
            <AltitudeMeters>829.4000244140625</AltitudeMeters>
            <DistanceMeters>NAN</DistanceMeters>
          </Trackpoint>
          <Trackpoint>
            <Time>2020-03-07T17:49:19.000Z</Time>
            <Position>
              <LatitudeDegrees>40.6566203199326992034912109375</LatitudeDegrees>
              <LongitudeDegrees>-3.74723399989306926727294921875</LongitudeDegrees>
            </Position>
            <AltitudeMeters>829.4000244140625</AltitudeMeters>
            <DistanceMeters>NAN</DistanceMeters>
          </Trackpoint>
          <Trackpoint>
            <Time>2020-03-07T17:49:20.000Z</Time>
            <Position>
              <LatitudeDegrees>40.65658788196742534637451171875</LatitudeDegrees>
              <LongitudeDegrees>-3.74718924053013324737548828125</LongitudeDegrees>
            </Position>
            <AltitudeMeters>829.4000244140625</AltitudeMeters>
            <DistanceMeters>NAN</DistanceMeters>
          </Trackpoint>
          <Trackpoint>
            <Time>2020-03-07T17:49:21.000Z</Time>
            <Position>
              <LatitudeDegrees>40.65655536018311977386474609375</LatitudeDegrees>
              <LongitudeDegrees>-3.7471376918256282806396484375</LongitudeDegrees>
            </Position>
            <AltitudeMeters>829.4000244140625</AltitudeMeters>
            <DistanceMeters>NAN</DistanceMeters>
          </Trackpoint>
          <Trackpoint>
            <Time>2020-03-07T17:49:22.000Z</Time>
            <Position>
              <LatitudeDegrees>40.65652250312268733978271484375</LatitudeDegrees>
              <LongitudeDegrees>-3.7470837123692035675048828125</LongitudeDegrees>
            </Position>
            <AltitudeMeters>829.5999755859375</AltitudeMeters>
            <DistanceMeters>NAN</DistanceMeters>
          </Trackpoint>
          <Trackpoint>
            <Time>2020-03-07T17:49:23.000Z</Time>
            <Position>
              <LatitudeDegrees>40.65648897551000118255615234375</LatitudeDegrees>
              <LongitudeDegrees>-3.7470285594463348388671875</LongitudeDegrees>
            </Position>
            <AltitudeMeters>830</AltitudeMeters>
            <DistanceMeters>NAN</DistanceMeters>
          </Trackpoint>
          <Trackpoint>
            <Time>2020-03-07T17:49:24.000Z</Time>
            <Position>
              <LatitudeDegrees>40.65645511262118816375732421875</LatitudeDegrees>
              <LongitudeDegrees>-3.74697156250476837158203125</LongitudeDegrees>
            </Position>
            <AltitudeMeters>830.4000244140625</AltitudeMeters>
            <DistanceMeters>NAN</DistanceMeters>
          </Trackpoint>
          <Trackpoint>
            <Time>2020-03-07T17:49:25.000Z</Time>
            <Position>
              <LatitudeDegrees>40.65642225556075572967529296875</LatitudeDegrees>
              <LongitudeDegrees>-3.74691749922931194305419921875</LongitudeDegrees>
            </Position>
            <AltitudeMeters>831</AltitudeMeters>
            <DistanceMeters>NAN</DistanceMeters>
          </Trackpoint>
          <Trackpoint>
            <Time>2020-03-07T17:49:26.000Z</Time>
            <Position>
              <LatitudeDegrees>40.65638981759548187255859375</LatitudeDegrees>
              <LongitudeDegrees>-3.7468627654016017913818359375</LongitudeDegrees>
            </Position>
            <AltitudeMeters>831.4000244140625</AltitudeMeters>
            <DistanceMeters>NAN</DistanceMeters>
          </Trackpoint>
          <Trackpoint>
            <Time>2020-03-07T17:49:27.000Z</Time>
            <Position>
              <LatitudeDegrees>40.65635771490633487701416015625</LatitudeDegrees>
              <LongitudeDegrees>-3.7468040920794010162353515625</LongitudeDegrees>
            </Position>
            <AltitudeMeters>831.79998779296875</AltitudeMeters>
            <DistanceMeters>NAN</DistanceMeters>
          </Trackpoint>
          <Trackpoint>
            <Time>2020-03-07T17:49:28.000Z</Time>
            <Position>
              <LatitudeDegrees>40.65632485784590244293212890625</LatitudeDegrees>
              <LongitudeDegrees>-3.74674483202397823333740234375</LongitudeDegrees>
            </Position>
            <AltitudeMeters>832</AltitudeMeters>
            <DistanceMeters>NAN</DistanceMeters>
          </Trackpoint>
          <Trackpoint>
            <Time>2020-03-07T17:49:29.000Z</Time>
            <Position>
              <LatitudeDegrees>40.65628479234874248504638671875</LatitudeDegrees>
              <LongitudeDegrees>-3.7466800399124622344970703125</LongitudeDegrees>
            </Position>
            <AltitudeMeters>832</AltitudeMeters>
            <DistanceMeters>NAN</DistanceMeters>
          </Trackpoint>
          <Trackpoint>
            <Time>2020-03-07T17:49:30.000Z</Time>
            <Position>
              <LatitudeDegrees>40.656243301928043365478515625</LatitudeDegrees>
              <LongitudeDegrees>-3.746610470116138458251953125</LongitudeDegrees>
            </Position>
            <AltitudeMeters>832.20001220703125</AltitudeMeters>
            <DistanceMeters>NAN</DistanceMeters>
          </Trackpoint>
          <Trackpoint>
            <Time>2020-03-07T17:49:31.000Z</Time>
            <Position>
              <LatitudeDegrees>40.65620080567896366119384765625</LatitudeDegrees>
              <LongitudeDegrees>-3.746536038815975189208984375</LongitudeDegrees>
            </Position>
            <AltitudeMeters>832.20001220703125</AltitudeMeters>
            <DistanceMeters>NAN</DistanceMeters>
          </Trackpoint>
          <Trackpoint>
            <Time>2020-03-07T17:49:32.000Z</Time>
            <Position>
              <LatitudeDegrees>40.6561532802879810333251953125</LatitudeDegrees>
              <LongitudeDegrees>-3.7464560754597187042236328125</LongitudeDegrees>
            </Position>
            <AltitudeMeters>832.20001220703125</AltitudeMeters>
            <DistanceMeters>NAN</DistanceMeters>
          </Trackpoint>
          <Trackpoint>
            <Time>2020-03-07T17:49:33.000Z</Time>
            <Position>
              <LatitudeDegrees>40.65610391087830066680908203125</LatitudeDegrees>
              <LongitudeDegrees>-3.7463709153234958648681640625</LongitudeDegrees>
            </Position>
            <AltitudeMeters>832.20001220703125</AltitudeMeters>
            <DistanceMeters>NAN</DistanceMeters>
          </Trackpoint>
          <Trackpoint>
            <Time>2020-03-07T17:49:34.000Z</Time>
            <Position>
              <LatitudeDegrees>40.65605378709733486175537109375</LatitudeDegrees>
              <LongitudeDegrees>-3.74628080986440181732177734375</LongitudeDegrees>
            </Position>
            <AltitudeMeters>832.20001220703125</AltitudeMeters>
            <DistanceMeters>NAN</DistanceMeters>
          </Trackpoint>
          <Trackpoint>
            <Time>2020-03-07T17:49:35.000Z</Time>
            <Position>
              <LatitudeDegrees>40.65600047819316387176513671875</LatitudeDegrees>
              <LongitudeDegrees>-3.74618760310113430023193359375</LongitudeDegrees>
            </Position>
            <AltitudeMeters>832.20001220703125</AltitudeMeters>
            <DistanceMeters>NAN</DistanceMeters>
          </Trackpoint>
          <Trackpoint>
            <Time>2020-03-07T17:49:36.000Z</Time>
            <Position>
              <LatitudeDegrees>40.655945576727390289306640625</LatitudeDegrees>
              <LongitudeDegrees>-3.74609087593853473663330078125</LongitudeDegrees>
            </Position>
            <AltitudeMeters>832</AltitudeMeters>
            <DistanceMeters>NAN</DistanceMeters>
          </Trackpoint>
          <Trackpoint>
            <Time>2020-03-07T17:49:37.000Z</Time>
            <Position>
              <LatitudeDegrees>40.65588958561420440673828125</LatitudeDegrees>
              <LongitudeDegrees>-3.745990879833698272705078125</LongitudeDegrees>
            </Position>
            <AltitudeMeters>831.5999755859375</AltitudeMeters>
            <DistanceMeters>NAN</DistanceMeters>
          </Trackpoint>
          <Trackpoint>
            <Time>2020-03-07T17:49:38.000Z</Time>
            <Position>
              <LatitudeDegrees>40.655832923948764801025390625</LatitudeDegrees>
              <LongitudeDegrees>-3.74589197337627410888671875</LongitudeDegrees>
            </Position>
            <AltitudeMeters>831</AltitudeMeters>
            <DistanceMeters>NAN</DistanceMeters>
          </Trackpoint>
          <Trackpoint>
            <Time>2020-03-07T17:49:39.000Z</Time>
            <Position>
              <LatitudeDegrees>40.6557737477123737335205078125</LatitudeDegrees>
              <LongitudeDegrees>-3.74579315073788166046142578125</LongitudeDegrees>
            </Position>
            <AltitudeMeters>830.5999755859375</AltitudeMeters>
            <DistanceMeters>NAN</DistanceMeters>
          </Trackpoint>
          <Trackpoint>
            <Time>2020-03-07T17:49:40.000Z</Time>
            <Position>
              <LatitudeDegrees>40.6557144038379192352294921875</LatitudeDegrees>
              <LongitudeDegrees>-3.745691142976284027099609375</LongitudeDegrees>
            </Position>
            <AltitudeMeters>829.79998779296875</AltitudeMeters>
            <DistanceMeters>NAN</DistanceMeters>
          </Trackpoint>
          <Trackpoint>
            <Time>2020-03-07T17:49:41.000Z</Time>
            <Position>
              <LatitudeDegrees>40.6556540541350841522216796875</LatitudeDegrees>
              <LongitudeDegrees>-3.745586536824703216552734375</LongitudeDegrees>
            </Position>
            <AltitudeMeters>829.20001220703125</AltitudeMeters>
            <DistanceMeters>NAN</DistanceMeters>
          </Trackpoint>
          <Trackpoint>
            <Time>2020-03-07T17:49:42.000Z</Time>
            <Position>
              <LatitudeDegrees>40.6555947102606296539306640625</LatitudeDegrees>
              <LongitudeDegrees>-3.7454810924828052520751953125</LongitudeDegrees>
            </Position>
            <AltitudeMeters>828.4000244140625</AltitudeMeters>
            <DistanceMeters>NAN</DistanceMeters>
          </Trackpoint>
          <Trackpoint>
            <Time>2020-03-07T17:49:43.000Z</Time>
            <Position>
              <LatitudeDegrees>40.655533187091350555419921875</LatitudeDegrees>
              <LongitudeDegrees>-3.7453751452267169952392578125</LongitudeDegrees>
            </Position>
            <AltitudeMeters>827.5999755859375</AltitudeMeters>
            <DistanceMeters>NAN</DistanceMeters>
          </Trackpoint>
          <Trackpoint>
            <Time>2020-03-07T17:49:44.000Z</Time>
            <Position>
              <LatitudeDegrees>40.65546956844627857208251953125</LatitudeDegrees>
              <LongitudeDegrees>-3.74526693485677242279052734375</LongitudeDegrees>
            </Position>
            <AltitudeMeters>826.79998779296875</AltitudeMeters>
            <DistanceMeters>NAN</DistanceMeters>
          </Trackpoint>
          <Trackpoint>
            <Time>2020-03-07T17:49:45.000Z</Time>
            <Position>
              <LatitudeDegrees>40.65541022457182407379150390625</LatitudeDegrees>
              <LongitudeDegrees>-3.74515830539166927337646484375</LongitudeDegrees>
            </Position>
            <AltitudeMeters>826</AltitudeMeters>
            <DistanceMeters>NAN</DistanceMeters>
          </Trackpoint>
          <Trackpoint>
            <Time>2020-03-07T17:49:46.000Z</Time>
            <Position>
              <LatitudeDegrees>40.65534912049770355224609375</LatitudeDegrees>
              <LongitudeDegrees>-3.745047748088836669921875</LongitudeDegrees>
            </Position>
            <AltitudeMeters>825.4000244140625</AltitudeMeters>
            <DistanceMeters>NAN</DistanceMeters>
          </Trackpoint>
          <Trackpoint>
            <Time>2020-03-07T17:49:47.000Z</Time>
            <Position>
              <LatitudeDegrees>40.65528868697583675384521484375</LatitudeDegrees>
              <LongitudeDegrees>-3.744934089481830596923828125</LongitudeDegrees>
            </Position>
            <AltitudeMeters>824.5999755859375</AltitudeMeters>
            <DistanceMeters>NAN</DistanceMeters>
          </Trackpoint>
          <Trackpoint>
            <Time>2020-03-07T17:49:48.000Z</Time>
            <Position>
              <LatitudeDegrees>40.655228756368160247802734375</LatitudeDegrees>
              <LongitudeDegrees>-3.74482252635061740875244140625</LongitudeDegrees>
            </Position>
            <AltitudeMeters>824</AltitudeMeters>
            <DistanceMeters>NAN</DistanceMeters>
          </Trackpoint>
          <Trackpoint>
            <Time>2020-03-07T17:49:49.000Z</Time>
            <Position>
              <LatitudeDegrees>40.65516941249370574951171875</LatitudeDegrees>
              <LongitudeDegrees>-3.7447146512567996978759765625</LongitudeDegrees>
            </Position>
            <AltitudeMeters>823.4000244140625</AltitudeMeters>
            <DistanceMeters>NAN</DistanceMeters>
          </Trackpoint>
          <Trackpoint>
            <Time>2020-03-07T17:49:50.000Z</Time>
            <Position>
              <LatitudeDegrees>40.65511032007634639739990234375</LatitudeDegrees>
              <LongitudeDegrees>-3.74460761435329914093017578125</LongitudeDegrees>
            </Position>
            <AltitudeMeters>822.79998779296875</AltitudeMeters>
            <DistanceMeters>NAN</DistanceMeters>
          </Trackpoint>
          <Trackpoint>
            <Time>2020-03-07T17:49:51.000Z</Time>
            <Position>
              <LatitudeDegrees>40.65505181439220905303955078125</LatitudeDegrees>
              <LongitudeDegrees>-3.74450133182108402252197265625</LongitudeDegrees>
            </Position>
            <AltitudeMeters>822.20001220703125</AltitudeMeters>
            <DistanceMeters>NAN</DistanceMeters>
          </Trackpoint>
          <Trackpoint>
            <Time>2020-03-07T17:49:52.000Z</Time>
            <Position>
              <LatitudeDegrees>40.65499506890773773193359375</LatitudeDegrees>
              <LongitudeDegrees>-3.74440066516399383544921875</LongitudeDegrees>
            </Position>
            <AltitudeMeters>821.4000244140625</AltitudeMeters>
            <DistanceMeters>NAN</DistanceMeters>
          </Trackpoint>
          <Trackpoint>
            <Time>2020-03-07T17:49:53.000Z</Time>
            <Position>
              <LatitudeDegrees>40.65493849106132984161376953125</LatitudeDegrees>
              <LongitudeDegrees>-3.74430150724947452545166015625</LongitudeDegrees>
            </Position>
            <AltitudeMeters>820.5999755859375</AltitudeMeters>
            <DistanceMeters>NAN</DistanceMeters>
          </Trackpoint>
          <Trackpoint>
            <Time>2020-03-07T17:49:54.000Z</Time>
            <Position>
              <LatitudeDegrees>40.654883421957492828369140625</LatitudeDegrees>
              <LongitudeDegrees>-3.744204528629779815673828125</LongitudeDegrees>
            </Position>
            <AltitudeMeters>820</AltitudeMeters>
            <DistanceMeters>NAN</DistanceMeters>
          </Trackpoint>
          <Trackpoint>
            <Time>2020-03-07T17:49:55.000Z</Time>
            <Position>
              <LatitudeDegrees>40.65483170561492443084716796875</LatitudeDegrees>
              <LongitudeDegrees>-3.74410654418170452117919921875</LongitudeDegrees>
            </Position>
            <AltitudeMeters>819.5999755859375</AltitudeMeters>
            <DistanceMeters>NAN</DistanceMeters>
          </Trackpoint>
          <Trackpoint>
            <Time>2020-03-07T17:49:56.000Z</Time>
            <Position>
              <LatitudeDegrees>40.65477739088237285614013671875</LatitudeDegrees>
              <LongitudeDegrees>-3.74400780536234378814697265625</LongitudeDegrees>
            </Position>
            <AltitudeMeters>819</AltitudeMeters>
            <DistanceMeters>NAN</DistanceMeters>
          </Trackpoint>
          <Trackpoint>
            <Time>2020-03-07T17:49:57.000Z</Time>
            <Position>
              <LatitudeDegrees>40.6547250039875507354736328125</LatitudeDegrees>
              <LongitudeDegrees>-3.7439109943807125091552734375</LongitudeDegrees>
            </Position>
            <AltitudeMeters>818.79998779296875</AltitudeMeters>
            <DistanceMeters>NAN</DistanceMeters>
          </Trackpoint>
          <Trackpoint>
            <Time>2020-03-07T17:49:58.000Z</Time>
            <Position>
              <LatitudeDegrees>40.6546730361878871917724609375</LatitudeDegrees>
              <LongitudeDegrees>-3.74381770379841327667236328125</LongitudeDegrees>
            </Position>
            <AltitudeMeters>818.5999755859375</AltitudeMeters>
            <DistanceMeters>NAN</DistanceMeters>
          </Trackpoint>
          <Trackpoint>
            <Time>2020-03-07T17:49:59.000Z</Time>
            <Position>
              <LatitudeDegrees>40.65462081693112850189208984375</LatitudeDegrees>
              <LongitudeDegrees>-3.74372751452028751373291015625</LongitudeDegrees>
            </Position>
            <AltitudeMeters>818.4000244140625</AltitudeMeters>
            <DistanceMeters>NAN</DistanceMeters>
          </Trackpoint>
          <Trackpoint>
            <Time>2020-03-07T17:50:00.000Z</Time>
            <Position>
              <LatitudeDegrees>40.6545691005885601043701171875</LatitudeDegrees>
              <LongitudeDegrees>-3.7436397559940814971923828125</LongitudeDegrees>
            </Position>
            <AltitudeMeters>818.4000244140625</AltitudeMeters>
            <DistanceMeters>NAN</DistanceMeters>
          </Trackpoint>
          <Trackpoint>
            <Time>2020-03-07T17:50:01.000Z</Time>
            <Position>
              <LatitudeDegrees>40.65451922826468944549560546875</LatitudeDegrees>
              <LongitudeDegrees>-3.74355350621044635772705078125</LongitudeDegrees>
            </Position>
            <AltitudeMeters>818.20001220703125</AltitudeMeters>
            <DistanceMeters>NAN</DistanceMeters>
          </Trackpoint>
          <Trackpoint>
            <Time>2020-03-07T17:50:02.000Z</Time>
            <Position>
              <LatitudeDegrees>40.6544713675975799560546875</LatitudeDegrees>
              <LongitudeDegrees>-3.74347262084484100341796875</LongitudeDegrees>
            </Position>
            <AltitudeMeters>818</AltitudeMeters>
            <DistanceMeters>NAN</DistanceMeters>
          </Trackpoint>
          <Trackpoint>
            <Time>2020-03-07T17:50:03.000Z</Time>
            <Position>
              <LatitudeDegrees>40.654426105320453643798828125</LatitudeDegrees>
              <LongitudeDegrees>-3.74339240603148937225341796875</LongitudeDegrees>
            </Position>
            <AltitudeMeters>818</AltitudeMeters>
            <DistanceMeters>NAN</DistanceMeters>
          </Trackpoint>
          <Trackpoint>
            <Time>2020-03-07T17:50:04.000Z</Time>
            <Position>
              <LatitudeDegrees>40.65438126213848590850830078125</LatitudeDegrees>
              <LongitudeDegrees>-3.74331261031329631805419921875</LongitudeDegrees>
            </Position>
            <AltitudeMeters>818</AltitudeMeters>
            <DistanceMeters>NAN</DistanceMeters>
          </Trackpoint>
          <Trackpoint>
            <Time>2020-03-07T17:50:05.000Z</Time>
            <Position>
              <LatitudeDegrees>40.6543360836803913116455078125</LatitudeDegrees>
              <LongitudeDegrees>-3.74323365278542041778564453125</LongitudeDegrees>
            </Position>
            <AltitudeMeters>818</AltitudeMeters>
            <DistanceMeters>NAN</DistanceMeters>
          </Trackpoint>
          <Trackpoint>
            <Time>2020-03-07T17:50:06.000Z</Time>
            <Position>
              <LatitudeDegrees>40.6542918272316455841064453125</LatitudeDegrees>
              <LongitudeDegrees>-3.74315704219043254852294921875</LongitudeDegrees>
            </Position>
            <AltitudeMeters>818</AltitudeMeters>
            <DistanceMeters>NAN</DistanceMeters>
          </Trackpoint>
          <Trackpoint>
            <Time>2020-03-07T17:50:07.000Z</Time>
            <Position>
              <LatitudeDegrees>40.65424731932580471038818359375</LatitudeDegrees>
              <LongitudeDegrees>-3.74308210797607898712158203125</LongitudeDegrees>
            </Position>
            <AltitudeMeters>818</AltitudeMeters>
            <DistanceMeters>NAN</DistanceMeters>
          </Trackpoint>
          <Trackpoint>
            <Time>2020-03-07T17:50:08.000Z</Time>
            <Position>
              <LatitudeDegrees>40.65420272760093212127685546875</LatitudeDegrees>
              <LongitudeDegrees>-3.74300658702850341796875</LongitudeDegrees>
            </Position>
            <AltitudeMeters>818</AltitudeMeters>
            <DistanceMeters>NAN</DistanceMeters>
          </Trackpoint>
          <Trackpoint>
            <Time>2020-03-07T17:50:09.000Z</Time>
            <Position>
              <LatitudeDegrees>40.6541587226092815399169921875</LatitudeDegrees>
              <LongitudeDegrees>-3.7429323233664035797119140625</LongitudeDegrees>
            </Position>
            <AltitudeMeters>818</AltitudeMeters>
            <DistanceMeters>NAN</DistanceMeters>
          </Trackpoint>
          <Trackpoint>
            <Time>2020-03-07T17:50:10.000Z</Time>
            <Position>
              <LatitudeDegrees>40.65411706455051898956298828125</LatitudeDegrees>
              <LongitudeDegrees>-3.74285831116139888763427734375</LongitudeDegrees>
            </Position>
            <AltitudeMeters>818</AltitudeMeters>
            <DistanceMeters>NAN</DistanceMeters>
          </Trackpoint>
          <Trackpoint>
            <Time>2020-03-07T17:50:11.000Z</Time>
            <Position>
              <LatitudeDegrees>40.65407582558691501617431640625</LatitudeDegrees>
              <LongitudeDegrees>-3.74278605915606021881103515625</LongitudeDegrees>
            </Position>
            <AltitudeMeters>818</AltitudeMeters>
            <DistanceMeters>NAN</DistanceMeters>
          </Trackpoint>
          <Trackpoint>
            <Time>2020-03-07T17:50:12.000Z</Time>
            <Position>
              <LatitudeDegrees>40.6540353409945964813232421875</LatitudeDegrees>
              <LongitudeDegrees>-3.74271397478878498077392578125</LongitudeDegrees>
            </Position>
            <AltitudeMeters>818</AltitudeMeters>
            <DistanceMeters>NAN</DistanceMeters>
          </Trackpoint>
          <Trackpoint>
            <Time>2020-03-07T17:50:13.000Z</Time>
            <Position>
              <LatitudeDegrees>40.653994269669055938720703125</LatitudeDegrees>
              <LongitudeDegrees>-3.74264373444020748138427734375</LongitudeDegrees>
            </Position>
            <AltitudeMeters>818.20001220703125</AltitudeMeters>
            <DistanceMeters>NAN</DistanceMeters>
          </Trackpoint>
          <Trackpoint>
            <Time>2020-03-07T17:50:14.000Z</Time>
            <Position>
              <LatitudeDegrees>40.65395663492381572723388671875</LatitudeDegrees>
              <LongitudeDegrees>-3.7425729073584079742431640625</LongitudeDegrees>
            </Position>
            <AltitudeMeters>818.20001220703125</AltitudeMeters>
            <DistanceMeters>NAN</DistanceMeters>
          </Trackpoint>
          <Trackpoint>
            <Time>2020-03-07T17:50:15.000Z</Time>
            <Position>
              <LatitudeDegrees>40.65392092801630496978759765625</LatitudeDegrees>
              <LongitudeDegrees>-3.7425035052001476287841796875</LongitudeDegrees>
            </Position>
            <AltitudeMeters>818.4000244140625</AltitudeMeters>
            <DistanceMeters>NAN</DistanceMeters>
          </Trackpoint>
          <Trackpoint>
            <Time>2020-03-07T17:50:16.000Z</Time>
            <Position>
              <LatitudeDegrees>40.65388555638492107391357421875</LatitudeDegrees>
              <LongitudeDegrees>-3.7424361146986484527587890625</LongitudeDegrees>
            </Position>
            <AltitudeMeters>818.79998779296875</AltitudeMeters>
            <DistanceMeters>NAN</DistanceMeters>
          </Trackpoint>
          <Trackpoint>
            <Time>2020-03-07T17:50:17.000Z</Time>
            <Position>
              <LatitudeDegrees>40.6538495980203151702880859375</LatitudeDegrees>
              <LongitudeDegrees>-3.74236981384456157684326171875</LongitudeDegrees>
            </Position>
            <AltitudeMeters>819.20001220703125</AltitudeMeters>
            <DistanceMeters>NAN</DistanceMeters>
          </Trackpoint>
          <Trackpoint>
            <Time>2020-03-07T17:50:18.000Z</Time>
            <Position>
              <LatitudeDegrees>40.65381623804569244384765625</LatitudeDegrees>
              <LongitudeDegrees>-3.74230393208563327789306640625</LongitudeDegrees>
            </Position>
            <AltitudeMeters>819.4000244140625</AltitudeMeters>
            <DistanceMeters>NAN</DistanceMeters>
          </Trackpoint>
          <Trackpoint>
            <Time>2020-03-07T17:50:19.000Z</Time>
            <Position>
              <LatitudeDegrees>40.6537847220897674560546875</LatitudeDegrees>
              <LongitudeDegrees>-3.74223385937511920928955078125</LongitudeDegrees>
            </Position>
            <AltitudeMeters>819.5999755859375</AltitudeMeters>
            <DistanceMeters>NAN</DistanceMeters>
          </Trackpoint>
          <Trackpoint>
            <Time>2020-03-07T17:50:20.000Z</Time>
            <Position>
              <LatitudeDegrees>40.65375328995287418365478515625</LatitudeDegrees>
              <LongitudeDegrees>-3.7421642057597637176513671875</LongitudeDegrees>
            </Position>
            <AltitudeMeters>820</AltitudeMeters>
            <DistanceMeters>NAN</DistanceMeters>
          </Trackpoint>
          <Trackpoint>
            <Time>2020-03-07T17:50:21.000Z</Time>
            <Position>
              <LatitudeDegrees>40.653722025454044342041015625</LatitudeDegrees>
              <LongitudeDegrees>-3.74209254048764705657958984375</LongitudeDegrees>
            </Position>
            <AltitudeMeters>820.20001220703125</AltitudeMeters>
            <DistanceMeters>NAN</DistanceMeters>
          </Trackpoint>
          <Trackpoint>
            <Time>2020-03-07T17:50:22.000Z</Time>
            <Position>
              <LatitudeDegrees>40.653690509498119354248046875</LatitudeDegrees>
              <LongitudeDegrees>-3.7420217134058475494384765625</LongitudeDegrees>
            </Position>
            <AltitudeMeters>820.4000244140625</AltitudeMeters>
            <DistanceMeters>NAN</DistanceMeters>
          </Trackpoint>
          <Trackpoint>
            <Time>2020-03-07T17:50:23.000Z</Time>
            <Position>
              <LatitudeDegrees>40.65365907736122608184814453125</LatitudeDegrees>
              <LongitudeDegrees>-3.7419472821056842803955078125</LongitudeDegrees>
            </Position>
            <AltitudeMeters>820.5999755859375</AltitudeMeters>
            <DistanceMeters>NAN</DistanceMeters>
          </Trackpoint>
          <Trackpoint>
            <Time>2020-03-07T17:50:24.000Z</Time>
            <Position>
              <LatitudeDegrees>40.65362772904336452484130859375</LatitudeDegrees>
              <LongitudeDegrees>-3.7418721802532672882080078125</LongitudeDegrees>
            </Position>
            <AltitudeMeters>820.79998779296875</AltitudeMeters>
            <DistanceMeters>NAN</DistanceMeters>
          </Trackpoint>
          <Trackpoint>
            <Time>2020-03-07T17:50:25.000Z</Time>
            <Position>
              <LatitudeDegrees>40.65359537489712238311767578125</LatitudeDegrees>
              <LongitudeDegrees>-3.74179699458181858062744140625</LongitudeDegrees>
            </Position>
            <AltitudeMeters>821.20001220703125</AltitudeMeters>
            <DistanceMeters>NAN</DistanceMeters>
          </Trackpoint>
          <Trackpoint>
            <Time>2020-03-07T17:50:26.000Z</Time>
            <Position>
              <LatitudeDegrees>40.65356411039829254150390625</LatitudeDegrees>
              <LongitudeDegrees>-3.741720132529735565185546875</LongitudeDegrees>
            </Position>
            <AltitudeMeters>821.20001220703125</AltitudeMeters>
            <DistanceMeters>NAN</DistanceMeters>
          </Trackpoint>
          <Trackpoint>
            <Time>2020-03-07T17:50:27.000Z</Time>
            <Position>
              <LatitudeDegrees>40.653534941375255584716796875</LatitudeDegrees>
              <LongitudeDegrees>-3.74164192937314510345458984375</LongitudeDegrees>
            </Position>
            <AltitudeMeters>821.4000244140625</AltitudeMeters>
            <DistanceMeters>NAN</DistanceMeters>
          </Trackpoint>
          <Trackpoint>
            <Time>2020-03-07T17:50:28.000Z</Time>
            <Position>
              <LatitudeDegrees>40.65350644290447235107421875</LatitudeDegrees>
              <LongitudeDegrees>-3.741560541093349456787109375</LongitudeDegrees>
            </Position>
            <AltitudeMeters>821.5999755859375</AltitudeMeters>
            <DistanceMeters>NAN</DistanceMeters>
          </Trackpoint>
          <Trackpoint>
            <Time>2020-03-07T17:50:29.000Z</Time>
            <Position>
              <LatitudeDegrees>40.653477944433689117431640625</LatitudeDegrees>
              <LongitudeDegrees>-3.74148116447031497955322265625</LongitudeDegrees>
            </Position>
            <AltitudeMeters>821.5999755859375</AltitudeMeters>
            <DistanceMeters>NAN</DistanceMeters>
          </Trackpoint>
          <Trackpoint>
            <Time>2020-03-07T17:50:30.000Z</Time>
            <Position>
              <LatitudeDegrees>40.6534486077725887298583984375</LatitudeDegrees>
              <LongitudeDegrees>-3.74140187166631221771240234375</LongitudeDegrees>
            </Position>
            <AltitudeMeters>821.5999755859375</AltitudeMeters>
            <DistanceMeters>NAN</DistanceMeters>
          </Trackpoint>
          <Trackpoint>
            <Time>2020-03-07T17:50:31.000Z</Time>
            <Position>
              <LatitudeDegrees>40.6534207798540592193603515625</LatitudeDegrees>
              <LongitudeDegrees>-3.74131620861589908599853515625</LongitudeDegrees>
            </Position>
            <AltitudeMeters>821.5999755859375</AltitudeMeters>
            <DistanceMeters>NAN</DistanceMeters>
          </Trackpoint>
          <Trackpoint>
            <Time>2020-03-07T17:50:32.000Z</Time>
            <Position>
              <LatitudeDegrees>40.65339244902133941650390625</LatitudeDegrees>
              <LongitudeDegrees>-3.7412321381270885467529296875</LongitudeDegrees>
            </Position>
            <AltitudeMeters>821.5999755859375</AltitudeMeters>
            <DistanceMeters>NAN</DistanceMeters>
          </Trackpoint>
          <Trackpoint>
            <Time>2020-03-07T17:50:33.000Z</Time>
            <Position>
              <LatitudeDegrees>40.6533631123602390289306640625</LatitudeDegrees>
              <LongitudeDegrees>-3.7411473132669925689697265625</LongitudeDegrees>
            </Position>
            <AltitudeMeters>821.5999755859375</AltitudeMeters>
            <DistanceMeters>NAN</DistanceMeters>
          </Trackpoint>
          <Trackpoint>
            <Time>2020-03-07T17:50:34.000Z</Time>
            <Position>
              <LatitudeDegrees>40.65333235077559947967529296875</LatitudeDegrees>
              <LongitudeDegrees>-3.7410634942352771759033203125</LongitudeDegrees>
            </Position>
            <AltitudeMeters>821.5999755859375</AltitudeMeters>
            <DistanceMeters>NAN</DistanceMeters>
          </Trackpoint>
          <Trackpoint>
            <Time>2020-03-07T17:50:35.000Z</Time>
            <Position>
              <LatitudeDegrees>40.653298906981945037841796875</LatitudeDegrees>
              <LongitudeDegrees>-3.74097883701324462890625</LongitudeDegrees>
            </Position>
            <AltitudeMeters>821.5999755859375</AltitudeMeters>
            <DistanceMeters>NAN</DistanceMeters>
          </Trackpoint>
          <Trackpoint>
            <Time>2020-03-07T17:50:36.000Z</Time>
            <Position>
              <LatitudeDegrees>40.653266720473766326904296875</LatitudeDegrees>
              <LongitudeDegrees>-3.740893341600894927978515625</LongitudeDegrees>
            </Position>
            <AltitudeMeters>821.5999755859375</AltitudeMeters>
            <DistanceMeters>NAN</DistanceMeters>
          </Trackpoint>
          <Trackpoint>
            <Time>2020-03-07T17:50:37.000Z</Time>
            <Position>
              <LatitudeDegrees>40.653235204517841339111328125</LatitudeDegrees>
              <LongitudeDegrees>-3.740806840360164642333984375</LongitudeDegrees>
            </Position>
            <AltitudeMeters>821.5999755859375</AltitudeMeters>
            <DistanceMeters>NAN</DistanceMeters>
          </Trackpoint>
          <Trackpoint>
            <Time>2020-03-07T17:50:38.000Z</Time>
            <Position>
              <LatitudeDegrees>40.6532038561999797821044921875</LatitudeDegrees>
              <LongitudeDegrees>-3.74071807600557804107666015625</LongitudeDegrees>
            </Position>
            <AltitudeMeters>821.4000244140625</AltitudeMeters>
            <DistanceMeters>NAN</DistanceMeters>
          </Trackpoint>
          <Trackpoint>
            <Time>2020-03-07T17:50:39.000Z</Time>
            <Position>
              <LatitudeDegrees>40.65317309461534023284912109375</LatitudeDegrees>
              <LongitudeDegrees>-3.7406323291361331939697265625</LongitudeDegrees>
            </Position>
            <AltitudeMeters>821.20001220703125</AltitudeMeters>
            <DistanceMeters>NAN</DistanceMeters>
          </Trackpoint>
          <Trackpoint>
            <Time>2020-03-07T17:50:40.000Z</Time>
            <Position>
              <LatitudeDegrees>40.65313889645040035247802734375</LatitudeDegrees>
              <LongitudeDegrees>-3.74054373241961002349853515625</LongitudeDegrees>
            </Position>
            <AltitudeMeters>820.79998779296875</AltitudeMeters>
            <DistanceMeters>NAN</DistanceMeters>
          </Trackpoint>
          <Trackpoint>
            <Time>2020-03-07T17:50:41.000Z</Time>
            <Position>
              <LatitudeDegrees>40.65310654230415821075439453125</LatitudeDegrees>
              <LongitudeDegrees>-3.74045505188405513763427734375</LongitudeDegrees>
            </Position>
            <AltitudeMeters>820.79998779296875</AltitudeMeters>
            <DistanceMeters>NAN</DistanceMeters>
          </Trackpoint>
          <Trackpoint>
            <Time>2020-03-07T17:50:42.000Z</Time>
            <Position>
              <LatitudeDegrees>40.65307284705340862274169921875</LatitudeDegrees>
              <LongitudeDegrees>-3.740365616977214813232421875</LongitudeDegrees>
            </Position>
            <AltitudeMeters>820.4000244140625</AltitudeMeters>
            <DistanceMeters>NAN</DistanceMeters>
          </Trackpoint>
          <Trackpoint>
            <Time>2020-03-07T17:50:43.000Z</Time>
            <Position>
              <LatitudeDegrees>40.6530392356216907501220703125</LatitudeDegrees>
              <LongitudeDegrees>-3.74027584679424762725830078125</LongitudeDegrees>
            </Position>
            <AltitudeMeters>820.20001220703125</AltitudeMeters>
            <DistanceMeters>NAN</DistanceMeters>
          </Trackpoint>
          <Trackpoint>
            <Time>2020-03-07T17:50:44.000Z</Time>
            <Position>
              <LatitudeDegrees>40.653005875647068023681640625</LatitudeDegrees>
              <LongitudeDegrees>-3.74018632806837558746337890625</LongitudeDegrees>
            </Position>
            <AltitudeMeters>820</AltitudeMeters>
            <DistanceMeters>NAN</DistanceMeters>
          </Trackpoint>
          <Trackpoint>
            <Time>2020-03-07T17:50:45.000Z</Time>
            <Position>
              <LatitudeDegrees>40.652971677482128143310546875</LatitudeDegrees>
              <LongitudeDegrees>-3.740096390247344970703125</LongitudeDegrees>
            </Position>
            <AltitudeMeters>819.5999755859375</AltitudeMeters>
            <DistanceMeters>NAN</DistanceMeters>
          </Trackpoint>
          <Trackpoint>
            <Time>2020-03-07T17:50:46.000Z</Time>
            <Position>
              <LatitudeDegrees>40.65293722786009311676025390625</LatitudeDegrees>
              <LongitudeDegrees>-3.740005195140838623046875</LongitudeDegrees>
            </Position>
            <AltitudeMeters>819.4000244140625</AltitudeMeters>
            <DistanceMeters>NAN</DistanceMeters>
          </Trackpoint>
          <Trackpoint>
            <Time>2020-03-07T17:50:47.000Z</Time>
            <Position>
              <LatitudeDegrees>40.65290336497128009796142578125</LatitudeDegrees>
              <LongitudeDegrees>-3.7399113178253173828125</LongitudeDegrees>
            </Position>
            <AltitudeMeters>819.20001220703125</AltitudeMeters>
            <DistanceMeters>NAN</DistanceMeters>
          </Trackpoint>
          <Trackpoint>
            <Time>2020-03-07T17:50:48.000Z</Time>
            <Position>
              <LatitudeDegrees>40.65286983735859394073486328125</LatitudeDegrees>
              <LongitudeDegrees>-3.739817105233669281005859375</LongitudeDegrees>
            </Position>
            <AltitudeMeters>818.79998779296875</AltitudeMeters>
            <DistanceMeters>NAN</DistanceMeters>
          </Trackpoint>
          <Trackpoint>
            <Time>2020-03-07T17:50:49.000Z</Time>
            <Position>
              <LatitudeDegrees>40.65283589065074920654296875</LatitudeDegrees>
              <LongitudeDegrees>-3.7397210486233234405517578125</LongitudeDegrees>
            </Position>
            <AltitudeMeters>818.5999755859375</AltitudeMeters>
            <DistanceMeters>NAN</DistanceMeters>
          </Trackpoint>
          <Trackpoint>
            <Time>2020-03-07T17:50:50.000Z</Time>
            <Position>
              <LatitudeDegrees>40.65279892645776271820068359375</LatitudeDegrees>
              <LongitudeDegrees>-3.7396214716136455535888671875</LongitudeDegrees>
            </Position>
            <AltitudeMeters>818.20001220703125</AltitudeMeters>
            <DistanceMeters>NAN</DistanceMeters>
          </Trackpoint>
          <Trackpoint>
            <Time>2020-03-07T17:50:51.000Z</Time>
            <Position>
              <LatitudeDegrees>40.65276305191218852996826171875</LatitudeDegrees>
              <LongitudeDegrees>-3.73952331952750682830810546875</LongitudeDegrees>
            </Position>
            <AltitudeMeters>818</AltitudeMeters>
            <DistanceMeters>NAN</DistanceMeters>
          </Trackpoint>
          <Trackpoint>
            <Time>2020-03-07T17:50:52.000Z</Time>
            <Position>
              <LatitudeDegrees>40.65272566862404346466064453125</LatitudeDegrees>
              <LongitudeDegrees>-3.73942340724170207977294921875</LongitudeDegrees>
            </Position>
            <AltitudeMeters>817.79998779296875</AltitudeMeters>
            <DistanceMeters>NAN</DistanceMeters>
          </Trackpoint>
          <Trackpoint>
            <Time>2020-03-07T17:50:53.000Z</Time>
            <Position>
              <LatitudeDegrees>40.65268660895526409149169921875</LatitudeDegrees>
              <LongitudeDegrees>-3.73932282440364360809326171875</LongitudeDegrees>
            </Position>
            <AltitudeMeters>817.4000244140625</AltitudeMeters>
            <DistanceMeters>NAN</DistanceMeters>
          </Trackpoint>
          <Trackpoint>
            <Time>2020-03-07T17:50:54.000Z</Time>
            <Position>
              <LatitudeDegrees>40.65264654345810413360595703125</LatitudeDegrees>
              <LongitudeDegrees>-3.73922140337526798248291015625</LongitudeDegrees>
            </Position>
            <AltitudeMeters>817.20001220703125</AltitudeMeters>
            <DistanceMeters>NAN</DistanceMeters>
          </Trackpoint>
          <Trackpoint>
            <Time>2020-03-07T17:50:55.000Z</Time>
            <Position>
              <LatitudeDegrees>40.65260798670351505279541015625</LatitudeDegrees>
              <LongitudeDegrees>-3.739120066165924072265625</LongitudeDegrees>
            </Position>
            <AltitudeMeters>817</AltitudeMeters>
            <DistanceMeters>NAN</DistanceMeters>
          </Trackpoint>
          <Trackpoint>
            <Time>2020-03-07T17:50:56.000Z</Time>
            <Position>
              <LatitudeDegrees>40.6525668315589427947998046875</LatitudeDegrees>
              <LongitudeDegrees>-3.739017136394977569580078125</LongitudeDegrees>
            </Position>
            <AltitudeMeters>816.5999755859375</AltitudeMeters>
            <DistanceMeters>NAN</DistanceMeters>
          </Trackpoint>
          <Trackpoint>
            <Time>2020-03-07T17:50:57.000Z</Time>
            <Position>
              <LatitudeDegrees>40.652525089681148529052734375</LatitudeDegrees>
              <LongitudeDegrees>-3.73891294933855533599853515625</LongitudeDegrees>
            </Position>
            <AltitudeMeters>816.4000244140625</AltitudeMeters>
            <DistanceMeters>NAN</DistanceMeters>
          </Trackpoint>
          <Trackpoint>
            <Time>2020-03-07T17:50:58.000Z</Time>
            <Position>
              <LatitudeDegrees>40.65248586237430572509765625</LatitudeDegrees>
              <LongitudeDegrees>-3.73880901373922824859619140625</LongitudeDegrees>
            </Position>
            <AltitudeMeters>816.20001220703125</AltitudeMeters>
            <DistanceMeters>NAN</DistanceMeters>
          </Trackpoint>
          <Trackpoint>
            <Time>2020-03-07T17:50:59.000Z</Time>
            <Position>
              <LatitudeDegrees>40.65244722180068492889404296875</LatitudeDegrees>
              <LongitudeDegrees>-3.7387034855782985687255859375</LongitudeDegrees>
            </Position>
            <AltitudeMeters>815.4000244140625</AltitudeMeters>
            <DistanceMeters>NAN</DistanceMeters>
          </Trackpoint>
          <Trackpoint>
            <Time>2020-03-07T17:51:00.000Z</Time>
            <Position>
              <LatitudeDegrees>40.65240673720836639404296875</LatitudeDegrees>
              <LongitudeDegrees>-3.7385988794267177581787109375</LongitudeDegrees>
            </Position>
            <AltitudeMeters>815.20001220703125</AltitudeMeters>
            <DistanceMeters>NAN</DistanceMeters>
          </Trackpoint>
          <Trackpoint>
            <Time>2020-03-07T17:51:01.000Z</Time>
            <Position>
              <LatitudeDegrees>40.65236558206379413604736328125</LatitudeDegrees>
              <LongitudeDegrees>-3.73849804513156414031982421875</LongitudeDegrees>
            </Position>
            <AltitudeMeters>814.79998779296875</AltitudeMeters>
            <DistanceMeters>NAN</DistanceMeters>
          </Trackpoint>
          <Trackpoint>
            <Time>2020-03-07T17:51:02.000Z</Time>
            <Position>
              <LatitudeDegrees>40.65232367254793643951416015625</LatitudeDegrees>
              <LongitudeDegrees>-3.738400898873805999755859375</LongitudeDegrees>
            </Position>
            <AltitudeMeters>814.5999755859375</AltitudeMeters>
            <DistanceMeters>NAN</DistanceMeters>
          </Trackpoint>
          <Trackpoint>
            <Time>2020-03-07T17:51:03.000Z</Time>
            <Position>
              <LatitudeDegrees>40.6522815115749835968017578125</LatitudeDegrees>
              <LongitudeDegrees>-3.7383071891963481903076171875</LongitudeDegrees>
            </Position>
            <AltitudeMeters>814.20001220703125</AltitudeMeters>
            <DistanceMeters>NAN</DistanceMeters>
          </Trackpoint>
          <Trackpoint>
            <Time>2020-03-07T17:51:04.000Z</Time>
            <Position>
              <LatitudeDegrees>40.65223733894526958465576171875</LatitudeDegrees>
              <LongitudeDegrees>-3.7382166646420955657958984375</LongitudeDegrees>
            </Position>
            <AltitudeMeters>813.79998779296875</AltitudeMeters>
            <DistanceMeters>NAN</DistanceMeters>
          </Trackpoint>
          <Trackpoint>
            <Time>2020-03-07T17:51:05.000Z</Time>
            <Position>
              <LatitudeDegrees>40.6521916575729846954345703125</LatitudeDegrees>
              <LongitudeDegrees>-3.73813175596296787261962890625</LongitudeDegrees>
            </Position>
            <AltitudeMeters>813.5999755859375</AltitudeMeters>
            <DistanceMeters>NAN</DistanceMeters>
          </Trackpoint>
          <Trackpoint>
            <Time>2020-03-07T17:51:06.000Z</Time>
            <Position>
              <LatitudeDegrees>40.6521447189152240753173828125</LatitudeDegrees>
              <LongitudeDegrees>-3.73805128969252109527587890625</LongitudeDegrees>
            </Position>
            <AltitudeMeters>813.20001220703125</AltitudeMeters>
            <DistanceMeters>NAN</DistanceMeters>
          </Trackpoint>
          <Trackpoint>
            <Time>2020-03-07T17:51:07.000Z</Time>
            <Position>
              <LatitudeDegrees>40.65209786407649517059326171875</LatitudeDegrees>
              <LongitudeDegrees>-3.7379712425172328948974609375</LongitudeDegrees>
            </Position>
            <AltitudeMeters>812.79998779296875</AltitudeMeters>
            <DistanceMeters>NAN</DistanceMeters>
          </Trackpoint>
          <Trackpoint>
            <Time>2020-03-07T17:51:08.000Z</Time>
            <Position>
              <LatitudeDegrees>40.65205092541873455047607421875</LatitudeDegrees>
              <LongitudeDegrees>-3.73789404518902301788330078125</LongitudeDegrees>
            </Position>
            <AltitudeMeters>812.79998779296875</AltitudeMeters>
            <DistanceMeters>NAN</DistanceMeters>
          </Trackpoint>
          <Trackpoint>
            <Time>2020-03-07T17:51:09.000Z</Time>
            <Position>
              <LatitudeDegrees>40.65200708806514739990234375</LatitudeDegrees>
              <LongitudeDegrees>-3.73782397247850894927978515625</LongitudeDegrees>
            </Position>
            <AltitudeMeters>812.5999755859375</AltitudeMeters>
            <DistanceMeters>NAN</DistanceMeters>
          </Trackpoint>
          <Trackpoint>
            <Time>2020-03-07T17:51:10.000Z</Time>
            <Position>
              <LatitudeDegrees>40.65195805393159389495849609375</LatitudeDegrees>
              <LongitudeDegrees>-3.73775607906281948089599609375</LongitudeDegrees>
            </Position>
            <AltitudeMeters>812.5999755859375</AltitudeMeters>
            <DistanceMeters>NAN</DistanceMeters>
          </Trackpoint>
          <Trackpoint>
            <Time>2020-03-07T17:51:11.000Z</Time>
            <Position>
              <LatitudeDegrees>40.651912204921245574951171875</LatitudeDegrees>
              <LongitudeDegrees>-3.7376922927796840667724609375</LongitudeDegrees>
            </Position>
            <AltitudeMeters>812.5999755859375</AltitudeMeters>
            <DistanceMeters>NAN</DistanceMeters>
          </Trackpoint>
          <Trackpoint>
            <Time>2020-03-07T17:51:12.000Z</Time>
            <Position>
              <LatitudeDegrees>40.65186551772058010101318359375</LatitudeDegrees>
              <LongitudeDegrees>-3.73763152398169040679931640625</LongitudeDegrees>
            </Position>
            <AltitudeMeters>812.5999755859375</AltitudeMeters>
            <DistanceMeters>NAN</DistanceMeters>
          </Trackpoint>
          <Trackpoint>
            <Time>2020-03-07T17:51:13.000Z</Time>
            <Position>
              <LatitudeDegrees>40.65181740559637546539306640625</LatitudeDegrees>
              <LongitudeDegrees>-3.737574107944965362548828125</LongitudeDegrees>
            </Position>
            <AltitudeMeters>812.5999755859375</AltitudeMeters>
            <DistanceMeters>NAN</DistanceMeters>
          </Trackpoint>
          <Trackpoint>
            <Time>2020-03-07T17:51:14.000Z</Time>
            <Position>
              <LatitudeDegrees>40.65176795236766338348388671875</LatitudeDegrees>
              <LongitudeDegrees>-3.73751551844179630279541015625</LongitudeDegrees>
            </Position>
            <AltitudeMeters>812.5999755859375</AltitudeMeters>
            <DistanceMeters>NAN</DistanceMeters>
          </Trackpoint>
          <Trackpoint>
            <Time>2020-03-07T17:51:15.000Z</Time>
            <Position>
              <LatitudeDegrees>40.65171883441507816314697265625</LatitudeDegrees>
              <LongitudeDegrees>-3.73745902441442012786865234375</LongitudeDegrees>
            </Position>
            <AltitudeMeters>812.5999755859375</AltitudeMeters>
            <DistanceMeters>NAN</DistanceMeters>
          </Trackpoint>
          <Trackpoint>
            <Time>2020-03-07T17:51:16.000Z</Time>
            <Position>
              <LatitudeDegrees>40.65166820771992206573486328125</LatitudeDegrees>
              <LongitudeDegrees>-3.73740454204380512237548828125</LongitudeDegrees>
            </Position>
            <AltitudeMeters>812.5999755859375</AltitudeMeters>
            <DistanceMeters>NAN</DistanceMeters>
          </Trackpoint>
          <Trackpoint>
            <Time>2020-03-07T17:51:17.000Z</Time>
            <Position>
              <LatitudeDegrees>40.65161623992025852203369140625</LatitudeDegrees>
              <LongitudeDegrees>-3.7373519875109195709228515625</LongitudeDegrees>
            </Position>
            <AltitudeMeters>812.5999755859375</AltitudeMeters>
            <DistanceMeters>NAN</DistanceMeters>
          </Trackpoint>
          <Trackpoint>
            <Time>2020-03-07T17:51:18.000Z</Time>
            <Position>
              <LatitudeDegrees>40.651564858853816986083984375</LatitudeDegrees>
              <LongitudeDegrees>-3.73730219900608062744140625</LongitudeDegrees>
            </Position>
            <AltitudeMeters>812.5999755859375</AltitudeMeters>
            <DistanceMeters>NAN</DistanceMeters>
          </Trackpoint>
          <Trackpoint>
            <Time>2020-03-07T17:51:19.000Z</Time>
            <Position>
              <LatitudeDegrees>40.6515120528638362884521484375</LatitudeDegrees>
              <LongitudeDegrees>-3.73725115321576595306396484375</LongitudeDegrees>
            </Position>
            <AltitudeMeters>812.79998779296875</AltitudeMeters>
            <DistanceMeters>NAN</DistanceMeters>
          </Trackpoint>
          <Trackpoint>
            <Time>2020-03-07T17:51:20.000Z</Time>
            <Position>
              <LatitudeDegrees>40.6514594145119190216064453125</LatitudeDegrees>
              <LongitudeDegrees>-3.7372024543583393096923828125</LongitudeDegrees>
            </Position>
            <AltitudeMeters>813.20001220703125</AltitudeMeters>
            <DistanceMeters>NAN</DistanceMeters>
          </Trackpoint>
          <Trackpoint>
            <Time>2020-03-07T17:51:21.000Z</Time>
            <Position>
              <LatitudeDegrees>40.65140618942677974700927734375</LatitudeDegrees>
              <LongitudeDegrees>-3.73715677298605442047119140625</LongitudeDegrees>
            </Position>
            <AltitudeMeters>813.4000244140625</AltitudeMeters>
            <DistanceMeters>NAN</DistanceMeters>
          </Trackpoint>
          <Trackpoint>
            <Time>2020-03-07T17:51:22.000Z</Time>
            <Position>
              <LatitudeDegrees>40.6513521261513233184814453125</LatitudeDegrees>
              <LongitudeDegrees>-3.73711486347019672393798828125</LongitudeDegrees>
            </Position>
            <AltitudeMeters>813.5999755859375</AltitudeMeters>
            <DistanceMeters>NAN</DistanceMeters>
          </Trackpoint>
          <Trackpoint>
            <Time>2020-03-07T17:51:23.000Z</Time>
            <Position>
              <LatitudeDegrees>40.651297979056835174560546875</LatitudeDegrees>
              <LongitudeDegrees>-3.73706943355500698089599609375</LongitudeDegrees>
            </Position>
            <AltitudeMeters>813.79998779296875</AltitudeMeters>
            <DistanceMeters>NAN</DistanceMeters>
          </Trackpoint>
          <Trackpoint>
            <Time>2020-03-07T17:51:24.000Z</Time>
            <Position>
              <LatitudeDegrees>40.65124140121042728424072265625</LatitudeDegrees>
              <LongitudeDegrees>-3.73702433891594409942626953125</LongitudeDegrees>
            </Position>
            <AltitudeMeters>814</AltitudeMeters>
            <DistanceMeters>NAN</DistanceMeters>
          </Trackpoint>
          <Trackpoint>
            <Time>2020-03-07T17:51:25.000Z</Time>
            <Position>
              <LatitudeDegrees>40.6511848233640193939208984375</LatitudeDegrees>
              <LongitudeDegrees>-3.736980669200420379638671875</LongitudeDegrees>
            </Position>
            <AltitudeMeters>814.20001220703125</AltitudeMeters>
            <DistanceMeters>NAN</DistanceMeters>
          </Trackpoint>
          <Trackpoint>
            <Time>2020-03-07T17:51:26.000Z</Time>
            <Position>
              <LatitudeDegrees>40.65113000571727752685546875</LatitudeDegrees>
              <LongitudeDegrees>-3.73693800531327724456787109375</LongitudeDegrees>
            </Position>
            <AltitudeMeters>814.20001220703125</AltitudeMeters>
            <DistanceMeters>NAN</DistanceMeters>
          </Trackpoint>
          <Trackpoint>
            <Time>2020-03-07T17:51:27.000Z</Time>
            <Position>
              <LatitudeDegrees>40.65107577480375766754150390625</LatitudeDegrees>
              <LongitudeDegrees>-3.73689542524516582489013671875</LongitudeDegrees>
            </Position>
            <AltitudeMeters>814.5999755859375</AltitudeMeters>
            <DistanceMeters>NAN</DistanceMeters>
          </Trackpoint>
          <Trackpoint>
            <Time>2020-03-07T17:51:28.000Z</Time>
            <Position>
              <LatitudeDegrees>40.65102196298539638519287109375</LatitudeDegrees>
              <LongitudeDegrees>-3.7368551082909107208251953125</LongitudeDegrees>
            </Position>
            <AltitudeMeters>815</AltitudeMeters>
            <DistanceMeters>NAN</DistanceMeters>
          </Trackpoint>
          <Trackpoint>
            <Time>2020-03-07T17:51:29.000Z</Time>
            <Position>
              <LatitudeDegrees>40.65096798352897167205810546875</LatitudeDegrees>
              <LongitudeDegrees>-3.7368162162601947784423828125</LongitudeDegrees>
            </Position>
            <AltitudeMeters>815</AltitudeMeters>
            <DistanceMeters>NAN</DistanceMeters>
          </Trackpoint>
          <Trackpoint>
            <Time>2020-03-07T17:51:30.000Z</Time>
            <Position>
              <LatitudeDegrees>40.65091668628156185150146484375</LatitudeDegrees>
              <LongitudeDegrees>-3.73677782714366912841796875</LongitudeDegrees>
            </Position>
            <AltitudeMeters>815</AltitudeMeters>
            <DistanceMeters>NAN</DistanceMeters>
          </Trackpoint>
          <Trackpoint>
            <Time>2020-03-07T17:51:31.000Z</Time>
            <Position>
              <LatitudeDegrees>40.650864802300930023193359375</LatitudeDegrees>
              <LongitudeDegrees>-3.736732564866542816162109375</LongitudeDegrees>
            </Position>
            <AltitudeMeters>815.20001220703125</AltitudeMeters>
            <DistanceMeters>NAN</DistanceMeters>
          </Trackpoint>
          <Trackpoint>
            <Time>2020-03-07T17:51:32.000Z</Time>
            <Position>
              <LatitudeDegrees>40.6508140079677104949951171875</LatitudeDegrees>
              <LongitudeDegrees>-3.73668797314167022705078125</LongitudeDegrees>
            </Position>
            <AltitudeMeters>815.20001220703125</AltitudeMeters>
            <DistanceMeters>NAN</DistanceMeters>
          </Trackpoint>
          <Trackpoint>
            <Time>2020-03-07T17:51:33.000Z</Time>
            <Position>
              <LatitudeDegrees>40.6507613696157932281494140625</LatitudeDegrees>
              <LongitudeDegrees>-3.73664505779743194580078125</LongitudeDegrees>
            </Position>
            <AltitudeMeters>815.20001220703125</AltitudeMeters>
            <DistanceMeters>NAN</DistanceMeters>
          </Trackpoint>
          <Trackpoint>
            <Time>2020-03-07T17:51:34.000Z</Time>
            <Position>
              <LatitudeDegrees>40.65071183256804943084716796875</LatitudeDegrees>
              <LongitudeDegrees>-3.7365986220538616180419921875</LongitudeDegrees>
            </Position>
            <AltitudeMeters>815.20001220703125</AltitudeMeters>
            <DistanceMeters>NAN</DistanceMeters>
          </Trackpoint>
          <Trackpoint>
            <Time>2020-03-07T17:51:35.000Z</Time>
            <Position>
              <LatitudeDegrees>40.650659613311290740966796875</LatitudeDegrees>
              <LongitudeDegrees>-3.73655092902481555938720703125</LongitudeDegrees>
            </Position>
            <AltitudeMeters>815.20001220703125</AltitudeMeters>
            <DistanceMeters>NAN</DistanceMeters>
          </Trackpoint>
          <Trackpoint>
            <Time>2020-03-07T17:51:36.000Z</Time>
            <Position>
              <LatitudeDegrees>40.65060135908424854278564453125</LatitudeDegrees>
              <LongitudeDegrees>-3.7365040741860866546630859375</LongitudeDegrees>
            </Position>
            <AltitudeMeters>815.20001220703125</AltitudeMeters>
            <DistanceMeters>NAN</DistanceMeters>
          </Trackpoint>
          <Trackpoint>
            <Time>2020-03-07T17:51:37.000Z</Time>
            <Position>
              <LatitudeDegrees>40.65054595470428466796875</LatitudeDegrees>
              <LongitudeDegrees>-3.73645587824285030364990234375</LongitudeDegrees>
            </Position>
            <AltitudeMeters>815.20001220703125</AltitudeMeters>
            <DistanceMeters>NAN</DistanceMeters>
          </Trackpoint>
          <Trackpoint>
            <Time>2020-03-07T17:51:38.000Z</Time>
            <Position>
              <LatitudeDegrees>40.65048887394368648529052734375</LatitudeDegrees>
              <LongitudeDegrees>-3.73640810139477252960205078125</LongitudeDegrees>
            </Position>
            <AltitudeMeters>815.20001220703125</AltitudeMeters>
            <DistanceMeters>NAN</DistanceMeters>
          </Trackpoint>
          <Trackpoint>
            <Time>2020-03-07T17:51:39.000Z</Time>
            <Position>
              <LatitudeDegrees>40.65042735077440738677978515625</LatitudeDegrees>
              <LongitudeDegrees>-3.73636015690863132476806640625</LongitudeDegrees>
            </Position>
            <AltitudeMeters>815.20001220703125</AltitudeMeters>
            <DistanceMeters>NAN</DistanceMeters>
          </Trackpoint>
          <Trackpoint>
            <Time>2020-03-07T17:51:40.000Z</Time>
            <Position>
              <LatitudeDegrees>40.65036096610128879547119140625</LatitudeDegrees>
              <LongitudeDegrees>-3.73630684800446033477783203125</LongitudeDegrees>
            </Position>
            <AltitudeMeters>815.20001220703125</AltitudeMeters>
            <DistanceMeters>NAN</DistanceMeters>
          </Trackpoint>
          <Trackpoint>
            <Time>2020-03-07T17:51:41.000Z</Time>
            <Position>
              <LatitudeDegrees>40.65028837881982326507568359375</LatitudeDegrees>
              <LongitudeDegrees>-3.73625555075705051422119140625</LongitudeDegrees>
            </Position>
            <AltitudeMeters>815.20001220703125</AltitudeMeters>
            <DistanceMeters>NAN</DistanceMeters>
          </Trackpoint>
          <Trackpoint>
            <Time>2020-03-07T17:51:42.000Z</Time>
            <Position>
              <LatitudeDegrees>40.650216378271579742431640625</LatitudeDegrees>
              <LongitudeDegrees>-3.73620123602449893951416015625</LongitudeDegrees>
            </Position>
            <AltitudeMeters>815.20001220703125</AltitudeMeters>
            <DistanceMeters>NAN</DistanceMeters>
          </Trackpoint>
          <Trackpoint>
            <Time>2020-03-07T17:51:43.000Z</Time>
            <Position>
              <LatitudeDegrees>40.65014186315238475799560546875</LatitudeDegrees>
              <LongitudeDegrees>-3.73615094460546970367431640625</LongitudeDegrees>
            </Position>
            <AltitudeMeters>815.20001220703125</AltitudeMeters>
            <DistanceMeters>NAN</DistanceMeters>
          </Trackpoint>
          <Trackpoint>
            <Time>2020-03-07T17:51:44.000Z</Time>
            <Position>
              <LatitudeDegrees>40.6500663422048091888427734375</LatitudeDegrees>
              <LongitudeDegrees>-3.73609696514904499053955078125</LongitudeDegrees>
            </Position>
            <AltitudeMeters>815</AltitudeMeters>
            <DistanceMeters>NAN</DistanceMeters>
          </Trackpoint>
          <Trackpoint>
            <Time>2020-03-07T17:51:45.000Z</Time>
            <Position>
              <LatitudeDegrees>40.649991743266582489013671875</LatitudeDegrees>
              <LongitudeDegrees>-3.736042566597461700439453125</LongitudeDegrees>
            </Position>
            <AltitudeMeters>814.79998779296875</AltitudeMeters>
            <DistanceMeters>NAN</DistanceMeters>
          </Trackpoint>
          <Trackpoint>
            <Time>2020-03-07T17:51:46.000Z</Time>
            <Position>
              <LatitudeDegrees>40.64992091618478298187255859375</LatitudeDegrees>
              <LongitudeDegrees>-3.735988922417163848876953125</LongitudeDegrees>
            </Position>
            <AltitudeMeters>814.4000244140625</AltitudeMeters>
            <DistanceMeters>NAN</DistanceMeters>
          </Trackpoint>
          <Trackpoint>
            <Time>2020-03-07T17:51:47.000Z</Time>
            <Position>
              <LatitudeDegrees>40.64985000528395175933837890625</LatitudeDegrees>
              <LongitudeDegrees>-3.73593385331332683563232421875</LongitudeDegrees>
            </Position>
            <AltitudeMeters>814</AltitudeMeters>
            <DistanceMeters>NAN</DistanceMeters>
          </Trackpoint>
          <Trackpoint>
            <Time>2020-03-07T17:51:48.000Z</Time>
            <Position>
              <LatitudeDegrees>40.64978144131600856781005859375</LatitudeDegrees>
              <LongitudeDegrees>-3.73587752692401409149169921875</LongitudeDegrees>
            </Position>
            <AltitudeMeters>813.5999755859375</AltitudeMeters>
            <DistanceMeters>NAN</DistanceMeters>
          </Trackpoint>
          <Trackpoint>
            <Time>2020-03-07T17:51:49.000Z</Time>
            <Position>
              <LatitudeDegrees>40.64971446990966796875</LatitudeDegrees>
              <LongitudeDegrees>-3.73582505621016025543212890625</LongitudeDegrees>
            </Position>
            <AltitudeMeters>813.4000244140625</AltitudeMeters>
            <DistanceMeters>NAN</DistanceMeters>
          </Trackpoint>
          <Trackpoint>
            <Time>2020-03-07T17:51:50.000Z</Time>
            <Position>
              <LatitudeDegrees>40.6496472470462322235107421875</LatitudeDegrees>
              <LongitudeDegrees>-3.73577560298144817352294921875</LongitudeDegrees>
            </Position>
            <AltitudeMeters>813.20001220703125</AltitudeMeters>
            <DistanceMeters>NAN</DistanceMeters>
          </Trackpoint>
          <Trackpoint>
            <Time>2020-03-07T17:51:51.000Z</Time>
            <Position>
              <LatitudeDegrees>40.6495828740298748016357421875</LatitudeDegrees>
              <LongitudeDegrees>-3.735730089247226715087890625</LongitudeDegrees>
            </Position>
            <AltitudeMeters>813</AltitudeMeters>
            <DistanceMeters>NAN</DistanceMeters>
          </Trackpoint>
          <Trackpoint>
            <Time>2020-03-07T17:51:52.000Z</Time>
            <Position>
              <LatitudeDegrees>40.649521015584468841552734375</LatitudeDegrees>
              <LongitudeDegrees>-3.73568692244589328765869140625</LongitudeDegrees>
            </Position>
            <AltitudeMeters>812.4000244140625</AltitudeMeters>
            <DistanceMeters>NAN</DistanceMeters>
          </Trackpoint>
          <Trackpoint>
            <Time>2020-03-07T17:51:53.000Z</Time>
            <Position>
              <LatitudeDegrees>40.64946033060550689697265625</LatitudeDegrees>
              <LongitudeDegrees>-3.7356444261968135833740234375</LongitudeDegrees>
            </Position>
            <AltitudeMeters>812</AltitudeMeters>
            <DistanceMeters>NAN</DistanceMeters>
          </Trackpoint>
          <Trackpoint>
            <Time>2020-03-07T17:51:54.000Z</Time>
            <Position>
              <LatitudeDegrees>40.64939805306494235992431640625</LatitudeDegrees>
              <LongitudeDegrees>-3.7356018461287021636962890625</LongitudeDegrees>
            </Position>
            <AltitudeMeters>811.79998779296875</AltitudeMeters>
            <DistanceMeters>NAN</DistanceMeters>
          </Trackpoint>
          <Trackpoint>
            <Time>2020-03-07T17:51:55.000Z</Time>
            <Position>
              <LatitudeDegrees>40.6493327580392360687255859375</LatitudeDegrees>
              <LongitudeDegrees>-3.7355616129934787750244140625</LongitudeDegrees>
            </Position>
            <AltitudeMeters>811.5999755859375</AltitudeMeters>
            <DistanceMeters>NAN</DistanceMeters>
          </Trackpoint>
          <Trackpoint>
            <Time>2020-03-07T17:51:56.000Z</Time>
            <Position>
              <LatitudeDegrees>40.64926276914775371551513671875</LatitudeDegrees>
              <LongitudeDegrees>-3.73552146367728710174560546875</LongitudeDegrees>
            </Position>
            <AltitudeMeters>811.20001220703125</AltitudeMeters>
            <DistanceMeters>NAN</DistanceMeters>
          </Trackpoint>
          <Trackpoint>
            <Time>2020-03-07T17:51:57.000Z</Time>
            <Position>
              <LatitudeDegrees>40.64919018186628818511962890625</LatitudeDegrees>
              <LongitudeDegrees>-3.73548357747495174407958984375</LongitudeDegrees>
            </Position>
            <AltitudeMeters>811.20001220703125</AltitudeMeters>
            <DistanceMeters>NAN</DistanceMeters>
          </Trackpoint>
          <Trackpoint>
            <Time>2020-03-07T17:51:58.000Z</Time>
            <Position>
              <LatitudeDegrees>40.64911491237580776214599609375</LatitudeDegrees>
              <LongitudeDegrees>-3.73544753529131412506103515625</LongitudeDegrees>
            </Position>
            <AltitudeMeters>811</AltitudeMeters>
            <DistanceMeters>NAN</DistanceMeters>
          </Trackpoint>
          <Trackpoint>
            <Time>2020-03-07T17:51:59.000Z</Time>
            <Position>
              <LatitudeDegrees>40.64903494901955127716064453125</LatitudeDegrees>
              <LongitudeDegrees>-3.73541400767862796783447265625</LongitudeDegrees>
            </Position>
            <AltitudeMeters>811</AltitudeMeters>
            <DistanceMeters>NAN</DistanceMeters>
          </Trackpoint>
          <Trackpoint>
            <Time>2020-03-07T17:52:00.000Z</Time>
            <Position>
              <LatitudeDegrees>40.6489502079784870147705078125</LatitudeDegrees>
              <LongitudeDegrees>-3.73538685031235218048095703125</LongitudeDegrees>
            </Position>
            <AltitudeMeters>810.79998779296875</AltitudeMeters>
            <DistanceMeters>NAN</DistanceMeters>
          </Trackpoint>
          <Trackpoint>
            <Time>2020-03-07T17:52:01.000Z</Time>
            <Position>
              <LatitudeDegrees>40.6488637067377567291259765625</LatitudeDegrees>
              <LongitudeDegrees>-3.73536036349833011627197265625</LongitudeDegrees>
            </Position>
            <AltitudeMeters>810.79998779296875</AltitudeMeters>
            <DistanceMeters>NAN</DistanceMeters>
          </Trackpoint>
          <Trackpoint>
            <Time>2020-03-07T17:52:02.000Z</Time>
            <Position>
              <LatitudeDegrees>40.64877636730670928955078125</LatitudeDegrees>
              <LongitudeDegrees>-3.7353329546749591827392578125</LongitudeDegrees>
            </Position>
            <AltitudeMeters>810.79998779296875</AltitudeMeters>
            <DistanceMeters>NAN</DistanceMeters>
          </Trackpoint>
          <Trackpoint>
            <Time>2020-03-07T17:52:03.000Z</Time>
            <Position>
              <LatitudeDegrees>40.64868785440921783447265625</LatitudeDegrees>
              <LongitudeDegrees>-3.73530529439449310302734375</LongitudeDegrees>
            </Position>
            <AltitudeMeters>810.4000244140625</AltitudeMeters>
            <DistanceMeters>NAN</DistanceMeters>
          </Trackpoint>
          <Trackpoint>
            <Time>2020-03-07T17:52:04.000Z</Time>
            <Position>
              <LatitudeDegrees>40.64859867095947265625</LatitudeDegrees>
              <LongitudeDegrees>-3.73527805320918560028076171875</LongitudeDegrees>
            </Position>
            <AltitudeMeters>809.79998779296875</AltitudeMeters>
            <DistanceMeters>NAN</DistanceMeters>
          </Trackpoint>
          <Trackpoint>
            <Time>2020-03-07T17:52:05.000Z</Time>
            <Position>
              <LatitudeDegrees>40.6485093198716640472412109375</LatitudeDegrees>
              <LongitudeDegrees>-3.735250644385814666748046875</LongitudeDegrees>
            </Position>
            <AltitudeMeters>809.4000244140625</AltitudeMeters>
            <DistanceMeters>NAN</DistanceMeters>
          </Trackpoint>
          <Trackpoint>
            <Time>2020-03-07T17:52:06.000Z</Time>
            <Position>
              <LatitudeDegrees>40.6484208069741725921630859375</LatitudeDegrees>
              <LongitudeDegrees>-3.73522373847663402557373046875</LongitudeDegrees>
            </Position>
            <AltitudeMeters>809</AltitudeMeters>
            <DistanceMeters>NAN</DistanceMeters>
          </Trackpoint>
          <Trackpoint>
            <Time>2020-03-07T17:52:07.000Z</Time>
            <Position>
              <LatitudeDegrees>40.648333132266998291015625</LatitudeDegrees>
              <LongitudeDegrees>-3.735198676586151123046875</LongitudeDegrees>
            </Position>
            <AltitudeMeters>808.4000244140625</AltitudeMeters>
            <DistanceMeters>NAN</DistanceMeters>
          </Trackpoint>
          <Trackpoint>
            <Time>2020-03-07T17:52:08.000Z</Time>
            <Position>
              <LatitudeDegrees>40.64824663102626800537109375</LatitudeDegrees>
              <LongitudeDegrees>-3.73517327941954135894775390625</LongitudeDegrees>
            </Position>
            <AltitudeMeters>807.4000244140625</AltitudeMeters>
            <DistanceMeters>NAN</DistanceMeters>
          </Trackpoint>
          <Trackpoint>
            <Time>2020-03-07T17:52:09.000Z</Time>
            <Position>
              <LatitudeDegrees>40.6481602974236011505126953125</LatitudeDegrees>
              <LongitudeDegrees>-3.7351477146148681640625</LongitudeDegrees>
            </Position>
            <AltitudeMeters>806.5999755859375</AltitudeMeters>
            <DistanceMeters>NAN</DistanceMeters>
          </Trackpoint>
          <Trackpoint>
            <Time>2020-03-07T17:52:10.000Z</Time>
            <Position>
              <LatitudeDegrees>40.6480751372873783111572265625</LatitudeDegrees>
              <LongitudeDegrees>-3.73512231744825839996337890625</LongitudeDegrees>
            </Position>
            <AltitudeMeters>805.79998779296875</AltitudeMeters>
            <DistanceMeters>NAN</DistanceMeters>
          </Trackpoint>
          <Trackpoint>
            <Time>2020-03-07T17:52:11.000Z</Time>
            <Position>
              <LatitudeDegrees>40.64799089916050434112548828125</LatitudeDegrees>
              <LongitudeDegrees>-3.73509683646261692047119140625</LongitudeDegrees>
            </Position>
            <AltitudeMeters>805</AltitudeMeters>
            <DistanceMeters>NAN</DistanceMeters>
          </Trackpoint>
          <Trackpoint>
            <Time>2020-03-07T17:52:12.000Z</Time>
            <Position>
              <LatitudeDegrees>40.647907666862010955810546875</LatitudeDegrees>
              <LongitudeDegrees>-3.7350712716579437255859375</LongitudeDegrees>
            </Position>
            <AltitudeMeters>804.4000244140625</AltitudeMeters>
            <DistanceMeters>NAN</DistanceMeters>
          </Trackpoint>
          <Trackpoint>
            <Time>2020-03-07T17:52:13.000Z</Time>
            <Position>
              <LatitudeDegrees>40.64782418310642242431640625</LatitudeDegrees>
              <LongitudeDegrees>-3.7350444495677947998046875</LongitudeDegrees>
            </Position>
            <AltitudeMeters>804.20001220703125</AltitudeMeters>
            <DistanceMeters>NAN</DistanceMeters>
          </Trackpoint>
          <Trackpoint>
            <Time>2020-03-07T17:52:14.000Z</Time>
            <Position>
              <LatitudeDegrees>40.64774044789373874664306640625</LatitudeDegrees>
              <LongitudeDegrees>-3.73501754365861415863037109375</LongitudeDegrees>
            </Position>
            <AltitudeMeters>803.79998779296875</AltitudeMeters>
            <DistanceMeters>NAN</DistanceMeters>
          </Trackpoint>
          <Trackpoint>
            <Time>2020-03-07T17:52:15.000Z</Time>
            <Position>
              <LatitudeDegrees>40.6476560421288013458251953125</LatitudeDegrees>
              <LongitudeDegrees>-3.73499038629233837127685546875</LongitudeDegrees>
            </Position>
            <AltitudeMeters>803.20001220703125</AltitudeMeters>
            <DistanceMeters>NAN</DistanceMeters>
          </Trackpoint>
          <Trackpoint>
            <Time>2020-03-07T17:52:16.000Z</Time>
            <Position>
              <LatitudeDegrees>40.64757096581161022186279296875</LatitudeDegrees>
              <LongitudeDegrees>-3.734962977468967437744140625</LongitudeDegrees>
            </Position>
            <AltitudeMeters>803</AltitudeMeters>
            <DistanceMeters>NAN</DistanceMeters>
          </Trackpoint>
          <Trackpoint>
            <Time>2020-03-07T17:52:17.000Z</Time>
            <Position>
              <LatitudeDegrees>40.6474850513041019439697265625</LatitudeDegrees>
              <LongitudeDegrees>-3.7349376641213893890380859375</LongitudeDegrees>
            </Position>
            <AltitudeMeters>802.5999755859375</AltitudeMeters>
            <DistanceMeters>NAN</DistanceMeters>
          </Trackpoint>
          <Trackpoint>
            <Time>2020-03-07T17:52:18.000Z</Time>
            <Position>
              <LatitudeDegrees>40.64739829860627651214599609375</LatitudeDegrees>
              <LongitudeDegrees>-3.7349115125834941864013671875</LongitudeDegrees>
            </Position>
            <AltitudeMeters>802.4000244140625</AltitudeMeters>
            <DistanceMeters>NAN</DistanceMeters>
          </Trackpoint>
          <Trackpoint>
            <Time>2020-03-07T17:52:19.000Z</Time>
            <Position>
              <LatitudeDegrees>40.64731196500360965728759765625</LatitudeDegrees>
              <LongitudeDegrees>-3.73488628305494785308837890625</LongitudeDegrees>
            </Position>
            <AltitudeMeters>802.20001220703125</AltitudeMeters>
            <DistanceMeters>NAN</DistanceMeters>
          </Trackpoint>
          <Trackpoint>
            <Time>2020-03-07T17:52:20.000Z</Time>
            <Position>
              <LatitudeDegrees>40.6472248770296573638916015625</LatitudeDegrees>
              <LongitudeDegrees>-3.7348605506122112274169921875</LongitudeDegrees>
            </Position>
            <AltitudeMeters>802</AltitudeMeters>
            <DistanceMeters>NAN</DistanceMeters>
          </Trackpoint>
          <Trackpoint>
            <Time>2020-03-07T17:52:21.000Z</Time>
            <Position>
              <LatitudeDegrees>40.647137872874736785888671875</LatitudeDegrees>
              <LongitudeDegrees>-3.73483599163591861724853515625</LongitudeDegrees>
            </Position>
            <AltitudeMeters>801.5999755859375</AltitudeMeters>
            <DistanceMeters>NAN</DistanceMeters>
          </Trackpoint>
          <Trackpoint>
            <Time>2020-03-07T17:52:22.000Z</Time>
            <Position>
              <LatitudeDegrees>40.64705011434853076934814453125</LatitudeDegrees>
              <LongitudeDegrees>-3.7348119355738162994384765625</LongitudeDegrees>
            </Position>
            <AltitudeMeters>801.20001220703125</AltitudeMeters>
            <DistanceMeters>NAN</DistanceMeters>
          </Trackpoint>
          <Trackpoint>
            <Time>2020-03-07T17:52:23.000Z</Time>
            <Position>
              <LatitudeDegrees>40.64696093089878559112548828125</LatitudeDegrees>
              <LongitudeDegrees>-3.734787292778491973876953125</LongitudeDegrees>
            </Position>
            <AltitudeMeters>801</AltitudeMeters>
            <DistanceMeters>NAN</DistanceMeters>
          </Trackpoint>
          <Trackpoint>
            <Time>2020-03-07T17:52:24.000Z</Time>
            <Position>
              <LatitudeDegrees>40.6468718312680721282958984375</LatitudeDegrees>
              <LongitudeDegrees>-3.73476072214543819427490234375</LongitudeDegrees>
            </Position>
            <AltitudeMeters>800.79998779296875</AltitudeMeters>
            <DistanceMeters>NAN</DistanceMeters>
          </Trackpoint>
          <Trackpoint>
            <Time>2020-03-07T17:52:25.000Z</Time>
            <Position>
              <LatitudeDegrees>40.64678348600864410400390625</LatitudeDegrees>
              <LongitudeDegrees>-3.7347328104078769683837890625</LongitudeDegrees>
            </Position>
            <AltitudeMeters>800.20001220703125</AltitudeMeters>
            <DistanceMeters>NAN</DistanceMeters>
          </Trackpoint>
          <Trackpoint>
            <Time>2020-03-07T17:52:26.000Z</Time>
            <Position>
              <LatitudeDegrees>40.6466958113014698028564453125</LatitudeDegrees>
              <LongitudeDegrees>-3.73470674268901348114013671875</LongitudeDegrees>
            </Position>
            <AltitudeMeters>799.79998779296875</AltitudeMeters>
            <DistanceMeters>NAN</DistanceMeters>
          </Trackpoint>
          <Trackpoint>
            <Time>2020-03-07T17:52:27.000Z</Time>
            <Position>
              <LatitudeDegrees>40.64660838805139064788818359375</LatitudeDegrees>
              <LongitudeDegrees>-3.7346791662275791168212890625</LongitudeDegrees>
            </Position>
            <AltitudeMeters>799.5999755859375</AltitudeMeters>
            <DistanceMeters>NAN</DistanceMeters>
          </Trackpoint>
          <Trackpoint>
            <Time>2020-03-07T17:52:28.000Z</Time>
            <Position>
              <LatitudeDegrees>40.64652121625840663909912109375</LatitudeDegrees>
              <LongitudeDegrees>-3.73464278876781463623046875</LongitudeDegrees>
            </Position>
            <AltitudeMeters>799.20001220703125</AltitudeMeters>
            <DistanceMeters>NAN</DistanceMeters>
          </Trackpoint>
          <Trackpoint>
            <Time>2020-03-07T17:52:29.000Z</Time>
            <Position>
              <LatitudeDegrees>40.64643622376024723052978515625</LatitudeDegrees>
              <LongitudeDegrees>-3.73459626920521259307861328125</LongitudeDegrees>
            </Position>
            <AltitudeMeters>799</AltitudeMeters>
            <DistanceMeters>NAN</DistanceMeters>
          </Trackpoint>
          <Trackpoint>
            <Time>2020-03-07T17:52:30.000Z</Time>
            <Position>
              <LatitudeDegrees>40.64635558985173702239990234375</LatitudeDegrees>
              <LongitudeDegrees>-3.73454153537750244140625</LongitudeDegrees>
            </Position>
            <AltitudeMeters>798.5999755859375</AltitudeMeters>
            <DistanceMeters>NAN</DistanceMeters>
          </Trackpoint>
          <Trackpoint>
            <Time>2020-03-07T17:52:31.000Z</Time>
            <Position>
              <LatitudeDegrees>40.646278895437717437744140625</LatitudeDegrees>
              <LongitudeDegrees>-3.7344763241708278656005859375</LongitudeDegrees>
            </Position>
            <AltitudeMeters>798.4000244140625</AltitudeMeters>
            <DistanceMeters>NAN</DistanceMeters>
          </Trackpoint>
          <Trackpoint>
            <Time>2020-03-07T17:52:32.000Z</Time>
            <Position>
              <LatitudeDegrees>40.6462089903652667999267578125</LatitudeDegrees>
              <LongitudeDegrees>-3.7344055809080600738525390625</LongitudeDegrees>
            </Position>
            <AltitudeMeters>798</AltitudeMeters>
            <DistanceMeters>NAN</DistanceMeters>
          </Trackpoint>
          <Trackpoint>
            <Time>2020-03-07T17:52:33.000Z</Time>
            <Position>
              <LatitudeDegrees>40.64614721573889255523681640625</LatitudeDegrees>
              <LongitudeDegrees>-3.73432687483727931976318359375</LongitudeDegrees>
            </Position>
            <AltitudeMeters>797.5999755859375</AltitudeMeters>
            <DistanceMeters>NAN</DistanceMeters>
          </Trackpoint>
          <Trackpoint>
            <Time>2020-03-07T17:52:34.000Z</Time>
            <Position>
              <LatitudeDegrees>40.64608879387378692626953125</LatitudeDegrees>
              <LongitudeDegrees>-3.73423668555915355682373046875</LongitudeDegrees>
            </Position>
            <AltitudeMeters>797.20001220703125</AltitudeMeters>
            <DistanceMeters>NAN</DistanceMeters>
          </Trackpoint>
          <Trackpoint>
            <Time>2020-03-07T17:52:35.000Z</Time>
            <Position>
              <LatitudeDegrees>40.6460359878838062286376953125</LatitudeDegrees>
              <LongitudeDegrees>-3.73413627035915851593017578125</LongitudeDegrees>
            </Position>
            <AltitudeMeters>796.79998779296875</AltitudeMeters>
            <DistanceMeters>NAN</DistanceMeters>
          </Trackpoint>
          <Trackpoint>
            <Time>2020-03-07T17:52:36.000Z</Time>
            <Position>
              <LatitudeDegrees>40.64598980359733104705810546875</LatitudeDegrees>
              <LongitudeDegrees>-3.7340305745601654052734375</LongitudeDegrees>
            </Position>
            <AltitudeMeters>796.4000244140625</AltitudeMeters>
            <DistanceMeters>NAN</DistanceMeters>
          </Trackpoint>
          <Trackpoint>
            <Time>2020-03-07T17:52:37.000Z</Time>
            <Position>
              <LatitudeDegrees>40.64594990573823451995849609375</LatitudeDegrees>
              <LongitudeDegrees>-3.73392798006534576416015625</LongitudeDegrees>
            </Position>
            <AltitudeMeters>796.20001220703125</AltitudeMeters>
            <DistanceMeters>NAN</DistanceMeters>
          </Trackpoint>
          <Trackpoint>
            <Time>2020-03-07T17:52:38.000Z</Time>
            <Position>
              <LatitudeDegrees>40.64590749330818653106689453125</LatitudeDegrees>
              <LongitudeDegrees>-3.73382127843797206878662109375</LongitudeDegrees>
            </Position>
            <AltitudeMeters>795.79998779296875</AltitudeMeters>
            <DistanceMeters>NAN</DistanceMeters>
          </Trackpoint>
          <Trackpoint>
            <Time>2020-03-07T17:52:39.000Z</Time>
            <Position>
              <LatitudeDegrees>40.64586575143039226531982421875</LatitudeDegrees>
              <LongitudeDegrees>-3.7337149120867252349853515625</LongitudeDegrees>
            </Position>
            <AltitudeMeters>795.4000244140625</AltitudeMeters>
            <DistanceMeters>NAN</DistanceMeters>
          </Trackpoint>
          <Trackpoint>
            <Time>2020-03-07T17:52:40.000Z</Time>
            <Position>
              <LatitudeDegrees>40.64582468010485172271728515625</LatitudeDegrees>
              <LongitudeDegrees>-3.73360737226903438568115234375</LongitudeDegrees>
            </Position>
            <AltitudeMeters>795.20001220703125</AltitudeMeters>
            <DistanceMeters>NAN</DistanceMeters>
          </Trackpoint>
          <Trackpoint>
            <Time>2020-03-07T17:52:41.000Z</Time>
            <Position>
              <LatitudeDegrees>40.6457831896841526031494140625</LatitudeDegrees>
              <LongitudeDegrees>-3.73350092209875583648681640625</LongitudeDegrees>
            </Position>
            <AltitudeMeters>795</AltitudeMeters>
            <DistanceMeters>NAN</DistanceMeters>
          </Trackpoint>
          <Trackpoint>
            <Time>2020-03-07T17:52:42.000Z</Time>
            <Position>
              <LatitudeDegrees>40.6457416154444217681884765625</LatitudeDegrees>
              <LongitudeDegrees>-3.733396232128143310546875</LongitudeDegrees>
            </Position>
            <AltitudeMeters>794.79998779296875</AltitudeMeters>
            <DistanceMeters>NAN</DistanceMeters>
          </Trackpoint>
          <Trackpoint>
            <Time>2020-03-07T17:52:43.000Z</Time>
            <Position>
              <LatitudeDegrees>40.64569844864308834075927734375</LatitudeDegrees>
              <LongitudeDegrees>-3.73329405672848224639892578125</LongitudeDegrees>
            </Position>
            <AltitudeMeters>794.5999755859375</AltitudeMeters>
            <DistanceMeters>NAN</DistanceMeters>
          </Trackpoint>
          <Trackpoint>
            <Time>2020-03-07T17:52:44.000Z</Time>
            <Position>
              <LatitudeDegrees>40.6456531025469303131103515625</LatitudeDegrees>
              <LongitudeDegrees>-3.73319565318524837493896484375</LongitudeDegrees>
            </Position>
            <AltitudeMeters>794.4000244140625</AltitudeMeters>
            <DistanceMeters>NAN</DistanceMeters>
          </Trackpoint>
          <Trackpoint>
            <Time>2020-03-07T17:52:45.000Z</Time>
            <Position>
              <LatitudeDegrees>40.64560373313724994659423828125</LatitudeDegrees>
              <LongitudeDegrees>-3.73310127295553684234619140625</LongitudeDegrees>
            </Position>
            <AltitudeMeters>794.20001220703125</AltitudeMeters>
            <DistanceMeters>NAN</DistanceMeters>
          </Trackpoint>
          <Trackpoint>
            <Time>2020-03-07T17:52:46.000Z</Time>
            <Position>
              <LatitudeDegrees>40.6455511786043643951416015625</LatitudeDegrees>
              <LongitudeDegrees>-3.73300739564001560211181640625</LongitudeDegrees>
            </Position>
            <AltitudeMeters>794</AltitudeMeters>
            <DistanceMeters>NAN</DistanceMeters>
          </Trackpoint>
          <Trackpoint>
            <Time>2020-03-07T17:52:47.000Z</Time>
            <Position>
              <LatitudeDegrees>40.64549661241471767425537109375</LatitudeDegrees>
              <LongitudeDegrees>-3.7329166196286678314208984375</LongitudeDegrees>
            </Position>
            <AltitudeMeters>794</AltitudeMeters>
            <DistanceMeters>NAN</DistanceMeters>
          </Trackpoint>
          <Trackpoint>
            <Time>2020-03-07T17:52:48.000Z</Time>
            <Position>
              <LatitudeDegrees>40.64544078893959522247314453125</LatitudeDegrees>
              <LongitudeDegrees>-3.73282969929277896881103515625</LongitudeDegrees>
            </Position>
            <AltitudeMeters>793.5999755859375</AltitudeMeters>
            <DistanceMeters>NAN</DistanceMeters>
          </Trackpoint>
          <Trackpoint>
            <Time>2020-03-07T17:52:49.000Z</Time>
            <Position>
              <LatitudeDegrees>40.6453845463693141937255859375</LatitudeDegrees>
              <LongitudeDegrees>-3.73274504207074642181396484375</LongitudeDegrees>
            </Position>
            <AltitudeMeters>793.5999755859375</AltitudeMeters>
            <DistanceMeters>NAN</DistanceMeters>
          </Trackpoint>
          <Trackpoint>
            <Time>2020-03-07T17:52:50.000Z</Time>
            <Position>
              <LatitudeDegrees>40.6453258730471134185791015625</LatitudeDegrees>
              <LongitudeDegrees>-3.73266608454287052154541015625</LongitudeDegrees>
            </Position>
            <AltitudeMeters>793.4000244140625</AltitudeMeters>
            <DistanceMeters>NAN</DistanceMeters>
          </Trackpoint>
          <Trackpoint>
            <Time>2020-03-07T17:52:51.000Z</Time>
            <Position>
              <LatitudeDegrees>40.64527180977165699005126953125</LatitudeDegrees>
              <LongitudeDegrees>-3.73260003514587879180908203125</LongitudeDegrees>
            </Position>
            <AltitudeMeters>793.20001220703125</AltitudeMeters>
            <DistanceMeters>NAN</DistanceMeters>
          </Trackpoint>
          <Trackpoint>
            <Time>2020-03-07T17:52:52.000Z</Time>
            <Position>
              <LatitudeDegrees>40.64521229825913906097412109375</LatitudeDegrees>
              <LongitudeDegrees>-3.73252962715923786163330078125</LongitudeDegrees>
            </Position>
            <AltitudeMeters>792.79998779296875</AltitudeMeters>
            <DistanceMeters>NAN</DistanceMeters>
          </Trackpoint>
          <Trackpoint>
            <Time>2020-03-07T17:52:53.000Z</Time>
            <Position>
              <LatitudeDegrees>40.64515496604144573211669921875</LatitudeDegrees>
              <LongitudeDegrees>-3.73246240429580211639404296875</LongitudeDegrees>
            </Position>
            <AltitudeMeters>792.5999755859375</AltitudeMeters>
            <DistanceMeters>NAN</DistanceMeters>
          </Trackpoint>
          <Trackpoint>
            <Time>2020-03-07T17:52:54.000Z</Time>
            <Position>
              <LatitudeDegrees>40.64510350115597248077392578125</LatitudeDegrees>
              <LongitudeDegrees>-3.7324024736881256103515625</LongitudeDegrees>
            </Position>
            <AltitudeMeters>792.20001220703125</AltitudeMeters>
            <DistanceMeters>NAN</DistanceMeters>
          </Trackpoint>
          <Trackpoint>
            <Time>2020-03-07T17:52:55.000Z</Time>
            <Position>
              <LatitudeDegrees>40.645053125917911529541015625</LatitudeDegrees>
              <LongitudeDegrees>-3.73234086669981479644775390625</LongitudeDegrees>
            </Position>
            <AltitudeMeters>792</AltitudeMeters>
            <DistanceMeters>NAN</DistanceMeters>
          </Trackpoint>
          <Trackpoint>
            <Time>2020-03-07T17:52:56.000Z</Time>
            <Position>
              <LatitudeDegrees>40.6450046785175800323486328125</LatitudeDegrees>
              <LongitudeDegrees>-3.7322775833308696746826171875</LongitudeDegrees>
            </Position>
            <AltitudeMeters>792</AltitudeMeters>
            <DistanceMeters>NAN</DistanceMeters>
          </Trackpoint>
          <Trackpoint>
            <Time>2020-03-07T17:52:57.000Z</Time>
            <Position>
              <LatitudeDegrees>40.6449550576508045196533203125</LatitudeDegrees>
              <LongitudeDegrees>-3.7322145514190196990966796875</LongitudeDegrees>
            </Position>
            <AltitudeMeters>792</AltitudeMeters>
            <DistanceMeters>NAN</DistanceMeters>
          </Trackpoint>
          <Trackpoint>
            <Time>2020-03-07T17:52:58.000Z</Time>
            <Position>
              <LatitudeDegrees>40.6449017487466335296630859375</LatitudeDegrees>
              <LongitudeDegrees>-3.73214833438396453857421875</LongitudeDegrees>
            </Position>
            <AltitudeMeters>792</AltitudeMeters>
            <DistanceMeters>NAN</DistanceMeters>
          </Trackpoint>
          <Trackpoint>
            <Time>2020-03-07T17:52:59.000Z</Time>
            <Position>
              <LatitudeDegrees>40.64484558999538421630859375</LatitudeDegrees>
              <LongitudeDegrees>-3.73208303935825824737548828125</LongitudeDegrees>
            </Position>
            <AltitudeMeters>792</AltitudeMeters>
            <DistanceMeters>NAN</DistanceMeters>
          </Trackpoint>
          <Trackpoint>
            <Time>2020-03-07T17:53:00.000Z</Time>
            <Position>
              <LatitudeDegrees>40.64479135908186435699462890625</LatitudeDegrees>
              <LongitudeDegrees>-3.732019923627376556396484375</LongitudeDegrees>
            </Position>
            <AltitudeMeters>792</AltitudeMeters>
            <DistanceMeters>NAN</DistanceMeters>
          </Trackpoint>
          <Trackpoint>
            <Time>2020-03-07T17:53:01.000Z</Time>
            <Position>
              <LatitudeDegrees>40.6447361223399639129638671875</LatitudeDegrees>
              <LongitudeDegrees>-3.73195244930684566497802734375</LongitudeDegrees>
            </Position>
            <AltitudeMeters>792</AltitudeMeters>
            <DistanceMeters>NAN</DistanceMeters>
          </Trackpoint>
          <Trackpoint>
            <Time>2020-03-07T17:53:02.000Z</Time>
            <Position>
              <LatitudeDegrees>40.64468222670257091522216796875</LatitudeDegrees>
              <LongitudeDegrees>-3.7318866513669490814208984375</LongitudeDegrees>
            </Position>
            <AltitudeMeters>792</AltitudeMeters>
            <DistanceMeters>NAN</DistanceMeters>
          </Trackpoint>
          <Trackpoint>
            <Time>2020-03-07T17:53:03.000Z</Time>
            <Position>
              <LatitudeDegrees>40.64462430775165557861328125</LatitudeDegrees>
              <LongitudeDegrees>-3.73181666247546672821044921875</LongitudeDegrees>
            </Position>
            <AltitudeMeters>792</AltitudeMeters>
            <DistanceMeters>NAN</DistanceMeters>
          </Trackpoint>
          <Trackpoint>
            <Time>2020-03-07T17:53:04.000Z</Time>
            <Position>
              <LatitudeDegrees>40.64456664025783538818359375</LatitudeDegrees>
              <LongitudeDegrees>-3.73174734413623809814453125</LongitudeDegrees>
            </Position>
            <AltitudeMeters>792</AltitudeMeters>
            <DistanceMeters>NAN</DistanceMeters>
          </Trackpoint>
          <Trackpoint>
            <Time>2020-03-07T17:53:05.000Z</Time>
            <Position>
              <LatitudeDegrees>40.64450603909790515899658203125</LatitudeDegrees>
              <LongitudeDegrees>-3.73167701996862888336181640625</LongitudeDegrees>
            </Position>
            <AltitudeMeters>792</AltitudeMeters>
            <DistanceMeters>NAN</DistanceMeters>
          </Trackpoint>
          <Trackpoint>
            <Time>2020-03-07T17:53:06.000Z</Time>
            <Position>
              <LatitudeDegrees>40.6444461084902286529541015625</LatitudeDegrees>
              <LongitudeDegrees>-3.7316085398197174072265625</LongitudeDegrees>
            </Position>
            <AltitudeMeters>792</AltitudeMeters>
            <DistanceMeters>NAN</DistanceMeters>
          </Trackpoint>
          <Trackpoint>
            <Time>2020-03-07T17:53:07.000Z</Time>
            <Position>
              <LatitudeDegrees>40.64438567496836185455322265625</LatitudeDegrees>
              <LongitudeDegrees>-3.73154274187982082366943359375</LongitudeDegrees>
            </Position>
            <AltitudeMeters>792</AltitudeMeters>
            <DistanceMeters>NAN</DistanceMeters>
          </Trackpoint>
          <Trackpoint>
            <Time>2020-03-07T17:53:08.000Z</Time>
            <Position>
              <LatitudeDegrees>40.64432381652295589447021484375</LatitudeDegrees>
              <LongitudeDegrees>-3.731478787958621978759765625</LongitudeDegrees>
            </Position>
            <AltitudeMeters>792</AltitudeMeters>
            <DistanceMeters>NAN</DistanceMeters>
          </Trackpoint>
          <Trackpoint>
            <Time>2020-03-07T17:53:09.000Z</Time>
            <Position>
              <LatitudeDegrees>40.64425944350659847259521484375</LatitudeDegrees>
              <LongitudeDegrees>-3.73141609132289886474609375</LongitudeDegrees>
            </Position>
            <AltitudeMeters>792</AltitudeMeters>
            <DistanceMeters>NAN</DistanceMeters>
          </Trackpoint>
          <Trackpoint>
            <Time>2020-03-07T17:53:10.000Z</Time>
            <Position>
              <LatitudeDegrees>40.64419381320476531982421875</LatitudeDegrees>
              <LongitudeDegrees>-3.7313585914671421051025390625</LongitudeDegrees>
            </Position>
            <AltitudeMeters>792</AltitudeMeters>
            <DistanceMeters>NAN</DistanceMeters>
          </Trackpoint>
          <Trackpoint>
            <Time>2020-03-07T17:53:11.000Z</Time>
            <Position>
              <LatitudeDegrees>40.6441275961697101593017578125</LatitudeDegrees>
              <LongitudeDegrees>-3.731302432715892791748046875</LongitudeDegrees>
            </Position>
            <AltitudeMeters>792</AltitudeMeters>
            <DistanceMeters>NAN</DistanceMeters>
          </Trackpoint>
          <Trackpoint>
            <Time>2020-03-07T17:53:12.000Z</Time>
            <Position>
              <LatitudeDegrees>40.64406079240143299102783203125</LatitudeDegrees>
              <LongitudeDegrees>-3.73124987818300724029541015625</LongitudeDegrees>
            </Position>
            <AltitudeMeters>791.5999755859375</AltitudeMeters>
            <DistanceMeters>NAN</DistanceMeters>
          </Trackpoint>
          <Trackpoint>
            <Time>2020-03-07T17:53:13.000Z</Time>
            <Position>
              <LatitudeDegrees>40.64399222843348979949951171875</LatitudeDegrees>
              <LongitudeDegrees>-3.73119858093559741973876953125</LongitudeDegrees>
            </Position>
            <AltitudeMeters>791.4000244140625</AltitudeMeters>
            <DistanceMeters>NAN</DistanceMeters>
          </Trackpoint>
          <Trackpoint>
            <Time>2020-03-07T17:53:14.000Z</Time>
            <Position>
              <LatitudeDegrees>40.643921904265880584716796875</LatitudeDegrees>
              <LongitudeDegrees>-3.7311513908207416534423828125</LongitudeDegrees>
            </Position>
            <AltitudeMeters>791.20001220703125</AltitudeMeters>
            <DistanceMeters>NAN</DistanceMeters>
          </Trackpoint>
          <Trackpoint>
            <Time>2020-03-07T17:53:15.000Z</Time>
            <Position>
              <LatitudeDegrees>40.64385241828858852386474609375</LatitudeDegrees>
              <LongitudeDegrees>-3.73110939748585224151611328125</LongitudeDegrees>
            </Position>
            <AltitudeMeters>791</AltitudeMeters>
            <DistanceMeters>NAN</DistanceMeters>
          </Trackpoint>
          <Trackpoint>
            <Time>2020-03-07T17:53:16.000Z</Time>
            <Position>
              <LatitudeDegrees>40.64378234557807445526123046875</LatitudeDegrees>
              <LongitudeDegrees>-3.73107184655964374542236328125</LongitudeDegrees>
            </Position>
            <AltitudeMeters>791</AltitudeMeters>
            <DistanceMeters>NAN</DistanceMeters>
          </Trackpoint>
          <Trackpoint>
            <Time>2020-03-07T17:53:17.000Z</Time>
            <Position>
              <LatitudeDegrees>40.64370942302048206329345703125</LatitudeDegrees>
              <LongitudeDegrees>-3.73103764839470386505126953125</LongitudeDegrees>
            </Position>
            <AltitudeMeters>791</AltitudeMeters>
            <DistanceMeters>NAN</DistanceMeters>
          </Trackpoint>
          <Trackpoint>
            <Time>2020-03-07T17:53:18.000Z</Time>
            <Position>
              <LatitudeDegrees>40.643634237349033355712890625</LatitudeDegrees>
              <LongitudeDegrees>-3.7310050427913665771484375</LongitudeDegrees>
            </Position>
            <AltitudeMeters>790.79998779296875</AltitudeMeters>
            <DistanceMeters>NAN</DistanceMeters>
          </Trackpoint>
          <Trackpoint>
            <Time>2020-03-07T17:53:19.000Z</Time>
            <Position>
              <LatitudeDegrees>40.643559135496616363525390625</LatitudeDegrees>
              <LongitudeDegrees>-3.73097361065447330474853515625</LongitudeDegrees>
            </Position>
            <AltitudeMeters>790.79998779296875</AltitudeMeters>
            <DistanceMeters>NAN</DistanceMeters>
          </Trackpoint>
          <Trackpoint>
            <Time>2020-03-07T17:53:20.000Z</Time>
            <Position>
              <LatitudeDegrees>40.64348445273935794830322265625</LatitudeDegrees>
              <LongitudeDegrees>-3.73094645328819751739501953125</LongitudeDegrees>
            </Position>
            <AltitudeMeters>790.5999755859375</AltitudeMeters>
            <DistanceMeters>NAN</DistanceMeters>
          </Trackpoint>
          <Trackpoint>
            <Time>2020-03-07T17:53:21.000Z</Time>
            <Position>
              <LatitudeDegrees>40.6434101052582263946533203125</LatitudeDegrees>
              <LongitudeDegrees>-3.73092667199671268463134765625</LongitudeDegrees>
            </Position>
            <AltitudeMeters>790.4000244140625</AltitudeMeters>
            <DistanceMeters>NAN</DistanceMeters>
          </Trackpoint>
          <Trackpoint>
            <Time>2020-03-07T17:53:22.000Z</Time>
            <Position>
              <LatitudeDegrees>40.6433308124542236328125</LatitudeDegrees>
              <LongitudeDegrees>-3.73090789653360843658447265625</LongitudeDegrees>
            </Position>
            <AltitudeMeters>790.4000244140625</AltitudeMeters>
            <DistanceMeters>NAN</DistanceMeters>
          </Trackpoint>
          <Trackpoint>
            <Time>2020-03-07T17:53:23.000Z</Time>
            <Position>
              <LatitudeDegrees>40.64325277693569660186767578125</LatitudeDegrees>
              <LongitudeDegrees>-3.7308923900127410888671875</LongitudeDegrees>
            </Position>
            <AltitudeMeters>790.20001220703125</AltitudeMeters>
            <DistanceMeters>NAN</DistanceMeters>
          </Trackpoint>
          <Trackpoint>
            <Time>2020-03-07T17:53:24.000Z</Time>
            <Position>
              <LatitudeDegrees>40.643174909055233001708984375</LatitudeDegrees>
              <LongitudeDegrees>-3.73088157735764980316162109375</LongitudeDegrees>
            </Position>
            <AltitudeMeters>790.20001220703125</AltitudeMeters>
            <DistanceMeters>NAN</DistanceMeters>
          </Trackpoint>
          <Trackpoint>
            <Time>2020-03-07T17:53:25.000Z</Time>
            <Position>
              <LatitudeDegrees>40.6430956162512302398681640625</LatitudeDegrees>
              <LongitudeDegrees>-3.730875290930271148681640625</LongitudeDegrees>
            </Position>
            <AltitudeMeters>790.20001220703125</AltitudeMeters>
            <DistanceMeters>NAN</DistanceMeters>
          </Trackpoint>
          <Trackpoint>
            <Time>2020-03-07T17:53:26.000Z</Time>
            <Position>
              <LatitudeDegrees>40.64301825128495693206787109375</LatitudeDegrees>
              <LongitudeDegrees>-3.73087487183511257171630859375</LongitudeDegrees>
            </Position>
            <AltitudeMeters>790</AltitudeMeters>
            <DistanceMeters>NAN</DistanceMeters>
          </Trackpoint>
          <Trackpoint>
            <Time>2020-03-07T17:53:27.000Z</Time>
            <Position>
              <LatitudeDegrees>40.64294113777577877044677734375</LatitudeDegrees>
              <LongitudeDegrees>-3.7308771349489688873291015625</LongitudeDegrees>
            </Position>
            <AltitudeMeters>790</AltitudeMeters>
            <DistanceMeters>NAN</DistanceMeters>
          </Trackpoint>
          <Trackpoint>
            <Time>2020-03-07T17:53:28.000Z</Time>
            <Position>
              <LatitudeDegrees>40.64286469481885433197021484375</LatitudeDegrees>
              <LongitudeDegrees>-3.73088627122342586517333984375</LongitudeDegrees>
            </Position>
            <AltitudeMeters>789.79998779296875</AltitudeMeters>
            <DistanceMeters>NAN</DistanceMeters>
          </Trackpoint>
          <Trackpoint>
            <Time>2020-03-07T17:53:29.000Z</Time>
            <Position>
              <LatitudeDegrees>40.64278657548129558563232421875</LatitudeDegrees>
              <LongitudeDegrees>-3.73089884407818317413330078125</LongitudeDegrees>
            </Position>
            <AltitudeMeters>789.5999755859375</AltitudeMeters>
            <DistanceMeters>NAN</DistanceMeters>
          </Trackpoint>
          <Trackpoint>
            <Time>2020-03-07T17:53:30.000Z</Time>
            <Position>
              <LatitudeDegrees>40.64270711503922939300537109375</LatitudeDegrees>
              <LongitudeDegrees>-3.7309123389422893524169921875</LongitudeDegrees>
            </Position>
            <AltitudeMeters>789.5999755859375</AltitudeMeters>
            <DistanceMeters>NAN</DistanceMeters>
          </Trackpoint>
          <Trackpoint>
            <Time>2020-03-07T17:53:31.000Z</Time>
            <Position>
              <LatitudeDegrees>40.64262849278748035430908203125</LatitudeDegrees>
              <LongitudeDegrees>-3.73092834837734699249267578125</LongitudeDegrees>
            </Position>
            <AltitudeMeters>789.4000244140625</AltitudeMeters>
            <DistanceMeters>NAN</DistanceMeters>
          </Trackpoint>
          <Trackpoint>
            <Time>2020-03-07T17:53:32.000Z</Time>
            <Position>
              <LatitudeDegrees>40.64255037344992160797119140625</LatitudeDegrees>
              <LongitudeDegrees>-3.7309455312788486480712890625</LongitudeDegrees>
            </Position>
            <AltitudeMeters>789.4000244140625</AltitudeMeters>
            <DistanceMeters>NAN</DistanceMeters>
          </Trackpoint>
          <Trackpoint>
            <Time>2020-03-07T17:53:33.000Z</Time>
            <Position>
              <LatitudeDegrees>40.6424746848642826080322265625</LatitudeDegrees>
              <LongitudeDegrees>-3.730965144932270050048828125</LongitudeDegrees>
            </Position>
            <AltitudeMeters>789.20001220703125</AltitudeMeters>
            <DistanceMeters>NAN</DistanceMeters>
          </Trackpoint>
          <Trackpoint>
            <Time>2020-03-07T17:53:34.000Z</Time>
            <Position>
              <LatitudeDegrees>40.64240033738315105438232421875</LatitudeDegrees>
              <LongitudeDegrees>-3.730985932052135467529296875</LongitudeDegrees>
            </Position>
            <AltitudeMeters>789</AltitudeMeters>
            <DistanceMeters>NAN</DistanceMeters>
          </Trackpoint>
          <Trackpoint>
            <Time>2020-03-07T17:53:35.000Z</Time>
            <Position>
              <LatitudeDegrees>40.642328672111034393310546875</LatitudeDegrees>
              <LongitudeDegrees>-3.7310135923326015472412109375</LongitudeDegrees>
            </Position>
            <AltitudeMeters>789</AltitudeMeters>
            <DistanceMeters>NAN</DistanceMeters>
          </Trackpoint>
          <Trackpoint>
            <Time>2020-03-07T17:53:36.000Z</Time>
            <Position>
              <LatitudeDegrees>40.6422574259340763092041015625</LatitudeDegrees>
              <LongitudeDegrees>-3.73104183934628963470458984375</LongitudeDegrees>
            </Position>
            <AltitudeMeters>788.79998779296875</AltitudeMeters>
            <DistanceMeters>NAN</DistanceMeters>
          </Trackpoint>
          <Trackpoint>
            <Time>2020-03-07T17:53:37.000Z</Time>
            <Position>
              <LatitudeDegrees>40.642185173928737640380859375</LatitudeDegrees>
              <LongitudeDegrees>-3.7310669012367725372314453125</LongitudeDegrees>
            </Position>
            <AltitudeMeters>788.5999755859375</AltitudeMeters>
            <DistanceMeters>NAN</DistanceMeters>
          </Trackpoint>
          <Trackpoint>
            <Time>2020-03-07T17:53:38.000Z</Time>
            <Position>
              <LatitudeDegrees>40.642112754285335540771484375</LatitudeDegrees>
              <LongitudeDegrees>-3.73109196312725543975830078125</LongitudeDegrees>
            </Position>
            <AltitudeMeters>788.5999755859375</AltitudeMeters>
            <DistanceMeters>NAN</DistanceMeters>
          </Trackpoint>
          <Trackpoint>
            <Time>2020-03-07T17:53:39.000Z</Time>
            <Position>
              <LatitudeDegrees>40.6420394964516162872314453125</LatitudeDegrees>
              <LongitudeDegrees>-3.73111610300838947296142578125</LongitudeDegrees>
            </Position>
            <AltitudeMeters>788.4000244140625</AltitudeMeters>
            <DistanceMeters>NAN</DistanceMeters>
          </Trackpoint>
          <Trackpoint>
            <Time>2020-03-07T17:53:40.000Z</Time>
            <Position>
              <LatitudeDegrees>40.64196565188467502593994140625</LatitudeDegrees>
              <LongitudeDegrees>-3.73114158399403095245361328125</LongitudeDegrees>
            </Position>
            <AltitudeMeters>788.20001220703125</AltitudeMeters>
            <DistanceMeters>NAN</DistanceMeters>
          </Trackpoint>
          <Trackpoint>
            <Time>2020-03-07T17:53:41.000Z</Time>
            <Position>
              <LatitudeDegrees>40.64189205877482891082763671875</LatitudeDegrees>
              <LongitudeDegrees>-3.73116907663643360137939453125</LongitudeDegrees>
            </Position>
            <AltitudeMeters>788</AltitudeMeters>
            <DistanceMeters>NAN</DistanceMeters>
          </Trackpoint>
          <Trackpoint>
            <Time>2020-03-07T17:53:42.000Z</Time>
            <Position>
              <LatitudeDegrees>40.641816370189189910888671875</LatitudeDegrees>
              <LongitudeDegrees>-3.73119774274528026580810546875</LongitudeDegrees>
            </Position>
            <AltitudeMeters>787.79998779296875</AltitudeMeters>
            <DistanceMeters>NAN</DistanceMeters>
          </Trackpoint>
          <Trackpoint>
            <Time>2020-03-07T17:53:43.000Z</Time>
            <Position>
              <LatitudeDegrees>40.641736574470996856689453125</LatitudeDegrees>
              <LongitudeDegrees>-3.7312234751880168914794921875</LongitudeDegrees>
            </Position>
            <AltitudeMeters>787.5999755859375</AltitudeMeters>
            <DistanceMeters>NAN</DistanceMeters>
          </Trackpoint>
          <Trackpoint>
            <Time>2020-03-07T17:53:44.000Z</Time>
            <Position>
              <LatitudeDegrees>40.6416519172489643096923828125</LatitudeDegrees>
              <LongitudeDegrees>-3.7312502972781658172607421875</LongitudeDegrees>
            </Position>
            <AltitudeMeters>787.5999755859375</AltitudeMeters>
            <DistanceMeters>NAN</DistanceMeters>
          </Trackpoint>
          <Trackpoint>
            <Time>2020-03-07T17:53:45.000Z</Time>
            <Position>
              <LatitudeDegrees>40.6415644101798534393310546875</LatitudeDegrees>
              <LongitudeDegrees>-3.73127996921539306640625</LongitudeDegrees>
            </Position>
            <AltitudeMeters>787.4000244140625</AltitudeMeters>
            <DistanceMeters>NAN</DistanceMeters>
          </Trackpoint>
          <Trackpoint>
            <Time>2020-03-07T17:53:46.000Z</Time>
            <Position>
              <LatitudeDegrees>40.64147405326366424560546875</LatitudeDegrees>
              <LongitudeDegrees>-3.731313161551952362060546875</LongitudeDegrees>
            </Position>
            <AltitudeMeters>787.20001220703125</AltitudeMeters>
            <DistanceMeters>NAN</DistanceMeters>
          </Trackpoint>
          <Trackpoint>
            <Time>2020-03-07T17:53:47.000Z</Time>
            <Position>
              <LatitudeDegrees>40.64137724228203296661376953125</LatitudeDegrees>
              <LongitudeDegrees>-3.73134442605078220367431640625</LongitudeDegrees>
            </Position>
            <AltitudeMeters>787</AltitudeMeters>
            <DistanceMeters>NAN</DistanceMeters>
          </Trackpoint>
          <Trackpoint>
            <Time>2020-03-07T17:53:48.000Z</Time>
            <Position>
              <LatitudeDegrees>40.6412754021584987640380859375</LatitudeDegrees>
              <LongitudeDegrees>-3.7313743494451045989990234375</LongitudeDegrees>
            </Position>
            <AltitudeMeters>787</AltitudeMeters>
            <DistanceMeters>NAN</DistanceMeters>
          </Trackpoint>
          <Trackpoint>
            <Time>2020-03-07T17:53:49.000Z</Time>
            <Position>
              <LatitudeDegrees>40.6411714665591716766357421875</LatitudeDegrees>
              <LongitudeDegrees>-3.73140745796263217926025390625</LongitudeDegrees>
            </Position>
            <AltitudeMeters>786.5999755859375</AltitudeMeters>
            <DistanceMeters>NAN</DistanceMeters>
          </Trackpoint>
          <Trackpoint>
            <Time>2020-03-07T17:53:50.000Z</Time>
            <Position>
              <LatitudeDegrees>40.64106744714081287384033203125</LatitudeDegrees>
              <LongitudeDegrees>-3.73144157230854034423828125</LongitudeDegrees>
            </Position>
            <AltitudeMeters>786</AltitudeMeters>
            <DistanceMeters>NAN</DistanceMeters>
          </Trackpoint>
          <Trackpoint>
            <Time>2020-03-07T17:53:53.000Z</Time>
            <Position>
              <LatitudeDegrees>40.6407563947141170501708984375</LatitudeDegrees>
              <LongitudeDegrees>-3.731539137661457061767578125</LongitudeDegrees>
            </Position>
            <AltitudeMeters>783.79998779296875</AltitudeMeters>
            <DistanceMeters>NAN</DistanceMeters>
          </Trackpoint>
          <Trackpoint>
            <Time>2020-03-07T17:53:54.000Z</Time>
            <Position>
              <LatitudeDegrees>40.64065941609442234039306640625</LatitudeDegrees>
              <LongitudeDegrees>-3.731559254229068756103515625</LongitudeDegrees>
            </Position>
            <AltitudeMeters>783</AltitudeMeters>
            <DistanceMeters>NAN</DistanceMeters>
          </Trackpoint>
          <Trackpoint>
            <Time>2020-03-07T17:53:55.000Z</Time>
            <Position>
              <LatitudeDegrees>40.6405672989785671234130859375</LatitudeDegrees>
              <LongitudeDegrees>-3.7315852381289005279541015625</LongitudeDegrees>
            </Position>
            <AltitudeMeters>782.20001220703125</AltitudeMeters>
            <DistanceMeters>NAN</DistanceMeters>
          </Trackpoint>
          <Trackpoint>
            <Time>2020-03-07T17:53:56.000Z</Time>
            <Position>
              <LatitudeDegrees>40.64047224819660186767578125</LatitudeDegrees>
              <LongitudeDegrees>-3.73161633498966693878173828125</LongitudeDegrees>
            </Position>
            <AltitudeMeters>781.20001220703125</AltitudeMeters>
            <DistanceMeters>NAN</DistanceMeters>
          </Trackpoint>
          <Trackpoint>
            <Time>2020-03-07T17:53:57.000Z</Time>
            <Position>
              <LatitudeDegrees>40.64037702977657318115234375</LatitudeDegrees>
              <LongitudeDegrees>-3.7316345237195491790771484375</LongitudeDegrees>
            </Position>
            <AltitudeMeters>780.20001220703125</AltitudeMeters>
            <DistanceMeters>NAN</DistanceMeters>
          </Trackpoint>
          <Trackpoint>
            <Time>2020-03-07T17:53:58.000Z</Time>
            <Position>
              <LatitudeDegrees>40.6402792967855930328369140625</LatitudeDegrees>
              <LongitudeDegrees>-3.73164567165076732635498046875</LongitudeDegrees>
            </Position>
            <AltitudeMeters>779.20001220703125</AltitudeMeters>
            <DistanceMeters>NAN</DistanceMeters>
          </Trackpoint>
          <Trackpoint>
            <Time>2020-03-07T17:53:59.000Z</Time>
            <Position>
              <LatitudeDegrees>40.64018198288977146148681640625</LatitudeDegrees>
              <LongitudeDegrees>-3.73166017234325408935546875</LongitudeDegrees>
            </Position>
            <AltitudeMeters>778.5999755859375</AltitudeMeters>
            <DistanceMeters>NAN</DistanceMeters>
          </Trackpoint>
          <Trackpoint>
            <Time>2020-03-07T17:54:01.000Z</Time>
            <Position>
              <LatitudeDegrees>40.63997712917625904083251953125</LatitudeDegrees>
              <LongitudeDegrees>-3.73170970939099788665771484375</LongitudeDegrees>
            </Position>
            <AltitudeMeters>778</AltitudeMeters>
            <DistanceMeters>NAN</DistanceMeters>
          </Trackpoint>
          <Trackpoint>
            <Time>2020-03-07T17:54:02.000Z</Time>
            <Position>
              <LatitudeDegrees>40.63988895155489444732666015625</LatitudeDegrees>
              <LongitudeDegrees>-3.73173502273857593536376953125</LongitudeDegrees>
            </Position>
            <AltitudeMeters>777.79998779296875</AltitudeMeters>
            <DistanceMeters>NAN</DistanceMeters>
          </Trackpoint>
          <Trackpoint>
            <Time>2020-03-07T17:54:03.000Z</Time>
            <Position>
              <LatitudeDegrees>40.6398109160363674163818359375</LatitudeDegrees>
              <LongitudeDegrees>-3.73177475295960903167724609375</LongitudeDegrees>
            </Position>
            <AltitudeMeters>777.79998779296875</AltitudeMeters>
            <DistanceMeters>NAN</DistanceMeters>
          </Trackpoint>
          <Trackpoint>
            <Time>2020-03-07T17:54:04.000Z</Time>
            <Position>
              <LatitudeDegrees>40.6397418491542339324951171875</LatitudeDegrees>
              <LongitudeDegrees>-3.7318219430744647979736328125</LongitudeDegrees>
            </Position>
            <AltitudeMeters>777.5999755859375</AltitudeMeters>
            <DistanceMeters>NAN</DistanceMeters>
          </Trackpoint>
          <Trackpoint>
            <Time>2020-03-07T17:54:05.000Z</Time>
            <Position>
              <LatitudeDegrees>40.6396774761378765106201171875</LatitudeDegrees>
              <LongitudeDegrees>-3.73187315650284290313720703125</LongitudeDegrees>
            </Position>
            <AltitudeMeters>777.5999755859375</AltitudeMeters>
            <DistanceMeters>NAN</DistanceMeters>
          </Trackpoint>
          <Trackpoint>
            <Time>2020-03-07T17:54:06.000Z</Time>
            <Position>
              <LatitudeDegrees>40.63961436040699481964111328125</LatitudeDegrees>
              <LongitudeDegrees>-3.7319272197782993316650390625</LongitudeDegrees>
            </Position>
            <AltitudeMeters>777.4000244140625</AltitudeMeters>
            <DistanceMeters>NAN</DistanceMeters>
          </Trackpoint>
          <Trackpoint>
            <Time>2020-03-07T17:54:07.000Z</Time>
            <Position>
              <LatitudeDegrees>40.63955199904739856719970703125</LatitudeDegrees>
              <LongitudeDegrees>-3.73197658918797969818115234375</LongitudeDegrees>
            </Position>
            <AltitudeMeters>777.20001220703125</AltitudeMeters>
            <DistanceMeters>NAN</DistanceMeters>
          </Trackpoint>
          <Trackpoint>
            <Time>2020-03-07T17:54:08.000Z</Time>
            <Position>
              <LatitudeDegrees>40.6394912302494049072265625</LatitudeDegrees>
              <LongitudeDegrees>-3.73202922753989696502685546875</LongitudeDegrees>
            </Position>
            <AltitudeMeters>777.20001220703125</AltitudeMeters>
            <DistanceMeters>NAN</DistanceMeters>
          </Trackpoint>
          <Trackpoint>
            <Time>2020-03-07T17:54:09.000Z</Time>
            <Position>
              <LatitudeDegrees>40.6394307129085063934326171875</LatitudeDegrees>
              <LongitudeDegrees>-3.73208303935825824737548828125</LongitudeDegrees>
            </Position>
            <AltitudeMeters>777.20001220703125</AltitudeMeters>
            <DistanceMeters>NAN</DistanceMeters>
          </Trackpoint>
          <Trackpoint>
            <Time>2020-03-07T17:54:10.000Z</Time>
            <Position>
              <LatitudeDegrees>40.6393718719482421875</LatitudeDegrees>
              <LongitudeDegrees>-3.73213852755725383758544921875</LongitudeDegrees>
            </Position>
            <AltitudeMeters>777.20001220703125</AltitudeMeters>
            <DistanceMeters>NAN</DistanceMeters>
          </Trackpoint>
          <Trackpoint>
            <Time>2020-03-07T17:54:11.000Z</Time>
            <Position>
              <LatitudeDegrees>40.63931093551218509674072265625</LatitudeDegrees>
              <LongitudeDegrees>-3.73219351284205913543701171875</LongitudeDegrees>
            </Position>
            <AltitudeMeters>777.20001220703125</AltitudeMeters>
            <DistanceMeters>NAN</DistanceMeters>
          </Trackpoint>
          <Trackpoint>
            <Time>2020-03-07T17:54:12.000Z</Time>
            <Position>
              <LatitudeDegrees>40.63924874179065227508544921875</LatitudeDegrees>
              <LongitudeDegrees>-3.73224732466042041778564453125</LongitudeDegrees>
            </Position>
            <AltitudeMeters>777.20001220703125</AltitudeMeters>
            <DistanceMeters>NAN</DistanceMeters>
          </Trackpoint>
          <Trackpoint>
            <Time>2020-03-07T17:54:13.000Z</Time>
            <Position>
              <LatitudeDegrees>40.63918453641235828399658203125</LatitudeDegrees>
              <LongitudeDegrees>-3.73230868019163608551025390625</LongitudeDegrees>
            </Position>
            <AltitudeMeters>777.20001220703125</AltitudeMeters>
            <DistanceMeters>NAN</DistanceMeters>
          </Trackpoint>
          <Trackpoint>
            <Time>2020-03-07T17:54:14.000Z</Time>
            <Position>
              <LatitudeDegrees>40.63911781646311283111572265625</LatitudeDegrees>
              <LongitudeDegrees>-3.73237355612218379974365234375</LongitudeDegrees>
            </Position>
            <AltitudeMeters>776.79998779296875</AltitudeMeters>
            <DistanceMeters>NAN</DistanceMeters>
          </Trackpoint>
          <Trackpoint>
            <Time>2020-03-07T17:54:15.000Z</Time>
            <Position>
              <LatitudeDegrees>40.63904707320034503936767578125</LatitudeDegrees>
              <LongitudeDegrees>-3.7324365042150020599365234375</LongitudeDegrees>
            </Position>
            <AltitudeMeters>777</AltitudeMeters>
            <DistanceMeters>NAN</DistanceMeters>
          </Trackpoint>
          <Trackpoint>
            <Time>2020-03-07T17:54:16.000Z</Time>
            <Position>
              <LatitudeDegrees>40.63897146843373775482177734375</LatitudeDegrees>
              <LongitudeDegrees>-3.7324891425669193267822265625</LongitudeDegrees>
            </Position>
            <AltitudeMeters>776.5999755859375</AltitudeMeters>
            <DistanceMeters>NAN</DistanceMeters>
          </Trackpoint>
          <Trackpoint>
            <Time>2020-03-07T17:54:17.000Z</Time>
            <Position>
              <LatitudeDegrees>40.6388904154300689697265625</LatitudeDegrees>
              <LongitudeDegrees>-3.73252107761800289154052734375</LongitudeDegrees>
            </Position>
            <AltitudeMeters>776.5999755859375</AltitudeMeters>
            <DistanceMeters>NAN</DistanceMeters>
          </Trackpoint>
          <Trackpoint>
            <Time>2020-03-07T17:54:18.000Z</Time>
            <Position>
              <LatitudeDegrees>40.63880550675094127655029296875</LatitudeDegrees>
              <LongitudeDegrees>-3.73253013007342815399169921875</LongitudeDegrees>
            </Position>
            <AltitudeMeters>776.5999755859375</AltitudeMeters>
            <DistanceMeters>NAN</DistanceMeters>
          </Trackpoint>
          <Trackpoint>
            <Time>2020-03-07T17:54:19.000Z</Time>
            <Position>
              <LatitudeDegrees>40.63871934078633785247802734375</LatitudeDegrees>
              <LongitudeDegrees>-3.73251319862902164459228515625</LongitudeDegrees>
            </Position>
            <AltitudeMeters>776.5999755859375</AltitudeMeters>
            <DistanceMeters>NAN</DistanceMeters>
          </Trackpoint>
          <Trackpoint>
            <Time>2020-03-07T17:54:20.000Z</Time>
            <Position>
              <LatitudeDegrees>40.638635270297527313232421875</LatitudeDegrees>
              <LongitudeDegrees>-3.73248838819563388824462890625</LongitudeDegrees>
            </Position>
            <AltitudeMeters>776.5999755859375</AltitudeMeters>
            <DistanceMeters>NAN</DistanceMeters>
          </Trackpoint>
          <Trackpoint>
            <Time>2020-03-07T17:54:21.000Z</Time>
            <Position>
              <LatitudeDegrees>40.638557486236095428466796875</LatitudeDegrees>
              <LongitudeDegrees>-3.73245938681066036224365234375</LongitudeDegrees>
            </Position>
            <AltitudeMeters>776.5999755859375</AltitudeMeters>
            <DistanceMeters>NAN</DistanceMeters>
          </Trackpoint>
          <Trackpoint>
            <Time>2020-03-07T17:54:22.000Z</Time>
            <Position>
              <LatitudeDegrees>40.6384825520217418670654296875</LatitudeDegrees>
              <LongitudeDegrees>-3.73242200352251529693603515625</LongitudeDegrees>
            </Position>
            <AltitudeMeters>776.20001220703125</AltitudeMeters>
            <DistanceMeters>NAN</DistanceMeters>
          </Trackpoint>
          <Trackpoint>
            <Time>2020-03-07T17:54:23.000Z</Time>
            <Position>
              <LatitudeDegrees>40.63841641880571842193603515625</LatitudeDegrees>
              <LongitudeDegrees>-3.7323858775198459625244140625</LongitudeDegrees>
            </Position>
            <AltitudeMeters>775.79998779296875</AltitudeMeters>
            <DistanceMeters>NAN</DistanceMeters>
          </Trackpoint>
          <Trackpoint>
            <Time>2020-03-07T17:54:24.000Z</Time>
            <Position>
              <LatitudeDegrees>40.638352967798709869384765625</LatitudeDegrees>
              <LongitudeDegrees>-3.73232477344572544097900390625</LongitudeDegrees>
            </Position>
            <AltitudeMeters>775.4000244140625</AltitudeMeters>
            <DistanceMeters>NAN</DistanceMeters>
          </Trackpoint>
          <Trackpoint>
            <Time>2020-03-07T17:54:25.000Z</Time>
            <Position>
              <LatitudeDegrees>40.63830443657934665679931640625</LatitudeDegrees>
              <LongitudeDegrees>-3.73225294053554534912109375</LongitudeDegrees>
            </Position>
            <AltitudeMeters>775</AltitudeMeters>
            <DistanceMeters>NAN</DistanceMeters>
          </Trackpoint>
          <Trackpoint>
            <Time>2020-03-07T17:54:26.000Z</Time>
            <Position>
              <LatitudeDegrees>40.63826420344412326812744140625</LatitudeDegrees>
              <LongitudeDegrees>-3.7321558780968189239501953125</LongitudeDegrees>
            </Position>
            <AltitudeMeters>774.5999755859375</AltitudeMeters>
            <DistanceMeters>NAN</DistanceMeters>
          </Trackpoint>
          <Trackpoint>
            <Time>2020-03-07T17:54:27.000Z</Time>
            <Position>
              <LatitudeDegrees>40.63824375160038471221923828125</LatitudeDegrees>
              <LongitudeDegrees>-3.73204900883138179779052734375</LongitudeDegrees>
            </Position>
            <AltitudeMeters>774.4000244140625</AltitudeMeters>
            <DistanceMeters>NAN</DistanceMeters>
          </Trackpoint>
          <Trackpoint>
            <Time>2020-03-07T17:54:28.000Z</Time>
            <Position>
              <LatitudeDegrees>40.63823587261140346527099609375</LatitudeDegrees>
              <LongitudeDegrees>-3.7319372780621051788330078125</LongitudeDegrees>
            </Position>
            <AltitudeMeters>774.4000244140625</AltitudeMeters>
            <DistanceMeters>NAN</DistanceMeters>
          </Trackpoint>
          <Trackpoint>
            <Time>2020-03-07T17:54:29.000Z</Time>
            <Position>
              <LatitudeDegrees>40.63823352567851543426513671875</LatitudeDegrees>
              <LongitudeDegrees>-3.73182102106511592864990234375</LongitudeDegrees>
            </Position>
            <AltitudeMeters>774.20001220703125</AltitudeMeters>
            <DistanceMeters>NAN</DistanceMeters>
          </Trackpoint>
          <Trackpoint>
            <Time>2020-03-07T17:54:30.000Z</Time>
            <Position>
              <LatitudeDegrees>40.63822413794696331024169921875</LatitudeDegrees>
              <LongitudeDegrees>-3.7317059375345706939697265625</LongitudeDegrees>
            </Position>
            <AltitudeMeters>774.20001220703125</AltitudeMeters>
            <DistanceMeters>NAN</DistanceMeters>
          </Trackpoint>
          <Trackpoint>
            <Time>2020-03-07T17:54:31.000Z</Time>
            <Position>
              <LatitudeDegrees>40.6381979025900363922119140625</LatitudeDegrees>
              <LongitudeDegrees>-3.73159873299300670623779296875</LongitudeDegrees>
            </Position>
            <AltitudeMeters>774.20001220703125</AltitudeMeters>
            <DistanceMeters>NAN</DistanceMeters>
          </Trackpoint>
          <Trackpoint>
            <Time>2020-03-07T17:54:32.000Z</Time>
            <Position>
              <LatitudeDegrees>40.63814945518970489501953125</LatitudeDegrees>
              <LongitudeDegrees>-3.73150468803942203521728515625</LongitudeDegrees>
            </Position>
            <AltitudeMeters>774</AltitudeMeters>
            <DistanceMeters>NAN</DistanceMeters>
          </Trackpoint>
          <Trackpoint>
            <Time>2020-03-07T17:54:33.000Z</Time>
            <Position>
              <LatitudeDegrees>40.63808281905949115753173828125</LatitudeDegrees>
              <LongitudeDegrees>-3.731431178748607635498046875</LongitudeDegrees>
            </Position>
            <AltitudeMeters>774</AltitudeMeters>
            <DistanceMeters>NAN</DistanceMeters>
          </Trackpoint>
          <Trackpoint>
            <Time>2020-03-07T17:54:34.000Z</Time>
            <Position>
              <LatitudeDegrees>40.63800604082643985748291015625</LatitudeDegrees>
              <LongitudeDegrees>-3.73138147406280040740966796875</LongitudeDegrees>
            </Position>
            <AltitudeMeters>774</AltitudeMeters>
            <DistanceMeters>NAN</DistanceMeters>
          </Trackpoint>
          <Trackpoint>
            <Time>2020-03-07T17:54:35.000Z</Time>
            <Position>
              <LatitudeDegrees>40.6379239819943904876708984375</LatitudeDegrees>
              <LongitudeDegrees>-3.73134710825979709625244140625</LongitudeDegrees>
            </Position>
            <AltitudeMeters>773.5999755859375</AltitudeMeters>
            <DistanceMeters>NAN</DistanceMeters>
          </Trackpoint>
          <Trackpoint>
            <Time>2020-03-07T17:54:36.000Z</Time>
            <Position>
              <LatitudeDegrees>40.63783940859138965606689453125</LatitudeDegrees>
              <LongitudeDegrees>-3.7313203699886798858642578125</LongitudeDegrees>
            </Position>
            <AltitudeMeters>773.4000244140625</AltitudeMeters>
            <DistanceMeters>NAN</DistanceMeters>
          </Trackpoint>
          <Trackpoint>
            <Time>2020-03-07T17:54:37.000Z</Time>
            <Position>
              <LatitudeDegrees>40.637755505740642547607421875</LatitudeDegrees>
              <LongitudeDegrees>-3.73129312880337238311767578125</LongitudeDegrees>
            </Position>
            <AltitudeMeters>773.4000244140625</AltitudeMeters>
            <DistanceMeters>NAN</DistanceMeters>
          </Trackpoint>
          <Trackpoint>
            <Time>2020-03-07T17:54:38.000Z</Time>
            <Position>
              <LatitudeDegrees>40.637671016156673431396484375</LatitudeDegrees>
              <LongitudeDegrees>-3.7312620319426059722900390625</LongitudeDegrees>
            </Position>
            <AltitudeMeters>773.20001220703125</AltitudeMeters>
            <DistanceMeters>NAN</DistanceMeters>
          </Trackpoint>
          <Trackpoint>
            <Time>2020-03-07T17:54:39.000Z</Time>
            <Position>
              <LatitudeDegrees>40.63758644275367259979248046875</LatitudeDegrees>
              <LongitudeDegrees>-3.731231689453125</LongitudeDegrees>
            </Position>
            <AltitudeMeters>773</AltitudeMeters>
            <DistanceMeters>NAN</DistanceMeters>
          </Trackpoint>
          <Trackpoint>
            <Time>2020-03-07T17:54:40.000Z</Time>
            <Position>
              <LatitudeDegrees>40.637499354779720306396484375</LatitudeDegrees>
              <LongitudeDegrees>-3.73120042495429515838623046875</LongitudeDegrees>
            </Position>
            <AltitudeMeters>772.79998779296875</AltitudeMeters>
            <DistanceMeters>NAN</DistanceMeters>
          </Trackpoint>
          <Trackpoint>
            <Time>2020-03-07T17:54:41.000Z</Time>
            <Position>
              <LatitudeDegrees>40.63741042278707027435302734375</LatitudeDegrees>
              <LongitudeDegrees>-3.73116656206548213958740234375</LongitudeDegrees>
            </Position>
            <AltitudeMeters>772.79998779296875</AltitudeMeters>
            <DistanceMeters>NAN</DistanceMeters>
          </Trackpoint>
          <Trackpoint>
            <Time>2020-03-07T17:54:42.000Z</Time>
            <Position>
              <LatitudeDegrees>40.63732123933732509613037109375</LatitudeDegrees>
              <LongitudeDegrees>-3.7311302684247493743896484375</LongitudeDegrees>
            </Position>
            <AltitudeMeters>772.5999755859375</AltitudeMeters>
            <DistanceMeters>NAN</DistanceMeters>
          </Trackpoint>
          <Trackpoint>
            <Time>2020-03-07T17:54:43.000Z</Time>
            <Position>
              <LatitudeDegrees>40.63722970895469188690185546875</LatitudeDegrees>
              <LongitudeDegrees>-3.73109162785112857818603515625</LongitudeDegrees>
            </Position>
            <AltitudeMeters>772.4000244140625</AltitudeMeters>
            <DistanceMeters>NAN</DistanceMeters>
          </Trackpoint>
          <Trackpoint>
            <Time>2020-03-07T17:54:44.000Z</Time>
            <Position>
              <LatitudeDegrees>40.63713599927723407745361328125</LatitudeDegrees>
              <LongitudeDegrees>-3.7310531549155712127685546875</LongitudeDegrees>
            </Position>
            <AltitudeMeters>772.4000244140625</AltitudeMeters>
            <DistanceMeters>NAN</DistanceMeters>
          </Trackpoint>
          <Trackpoint>
            <Time>2020-03-07T17:54:45.000Z</Time>
            <Position>
              <LatitudeDegrees>40.637041032314300537109375</LatitudeDegrees>
              <LongitudeDegrees>-3.73101166449487209320068359375</LongitudeDegrees>
            </Position>
            <AltitudeMeters>772.20001220703125</AltitudeMeters>
            <DistanceMeters>NAN</DistanceMeters>
          </Trackpoint>
          <Trackpoint>
            <Time>2020-03-07T17:54:46.000Z</Time>
            <Position>
              <LatitudeDegrees>40.63694648444652557373046875</LatitudeDegrees>
              <LongitudeDegrees>-3.73096958734095096588134765625</LongitudeDegrees>
            </Position>
            <AltitudeMeters>771.5999755859375</AltitudeMeters>
            <DistanceMeters>NAN</DistanceMeters>
          </Trackpoint>
          <Trackpoint>
            <Time>2020-03-07T17:54:47.000Z</Time>
            <Position>
              <LatitudeDegrees>40.6368521042168140411376953125</LatitudeDegrees>
              <LongitudeDegrees>-3.73092658817768096923828125</LongitudeDegrees>
            </Position>
            <AltitudeMeters>771.4000244140625</AltitudeMeters>
            <DistanceMeters>NAN</DistanceMeters>
          </Trackpoint>
          <Trackpoint>
            <Time>2020-03-07T17:54:48.000Z</Time>
            <Position>
              <LatitudeDegrees>40.6367578916251659393310546875</LatitudeDegrees>
              <LongitudeDegrees>-3.730887360870838165283203125</LongitudeDegrees>
            </Position>
            <AltitudeMeters>770.79998779296875</AltitudeMeters>
            <DistanceMeters>NAN</DistanceMeters>
          </Trackpoint>
          <Trackpoint>
            <Time>2020-03-07T17:54:49.000Z</Time>
            <Position>
              <LatitudeDegrees>40.63666242174804210662841796875</LatitudeDegrees>
              <LongitudeDegrees>-3.730848468840122222900390625</LongitudeDegrees>
            </Position>
            <AltitudeMeters>770.4000244140625</AltitudeMeters>
            <DistanceMeters>NAN</DistanceMeters>
          </Trackpoint>
          <Trackpoint>
            <Time>2020-03-07T17:54:50.000Z</Time>
            <Position>
              <LatitudeDegrees>40.63656619749963283538818359375</LatitudeDegrees>
              <LongitudeDegrees>-3.730806894600391387939453125</LongitudeDegrees>
            </Position>
            <AltitudeMeters>769.5999755859375</AltitudeMeters>
            <DistanceMeters>NAN</DistanceMeters>
          </Trackpoint>
          <Trackpoint>
            <Time>2020-03-07T17:54:51.000Z</Time>
            <Position>
              <LatitudeDegrees>40.6364708952605724334716796875</LatitudeDegrees>
              <LongitudeDegrees>-3.730763979256153106689453125</LongitudeDegrees>
            </Position>
            <AltitudeMeters>769</AltitudeMeters>
            <DistanceMeters>NAN</DistanceMeters>
          </Trackpoint>
          <Trackpoint>
            <Time>2020-03-07T17:54:52.000Z</Time>
            <Position>
              <LatitudeDegrees>40.63637441955506801605224609375</LatitudeDegrees>
              <LongitudeDegrees>-3.73071930371224880218505859375</LongitudeDegrees>
            </Position>
            <AltitudeMeters>768.4000244140625</AltitudeMeters>
            <DistanceMeters>NAN</DistanceMeters>
          </Trackpoint>
          <Trackpoint>
            <Time>2020-03-07T17:54:53.000Z</Time>
            <Position>
              <LatitudeDegrees>40.63627685420215129852294921875</LatitudeDegrees>
              <LongitudeDegrees>-3.73067655600607395172119140625</LongitudeDegrees>
            </Position>
            <AltitudeMeters>767.79998779296875</AltitudeMeters>
            <DistanceMeters>NAN</DistanceMeters>
          </Trackpoint>
          <Trackpoint>
            <Time>2020-03-07T17:54:54.000Z</Time>
            <Position>
              <LatitudeDegrees>40.63617794774472713470458984375</LatitudeDegrees>
              <LongitudeDegrees>-3.73063380829989910125732421875</LongitudeDegrees>
            </Position>
            <AltitudeMeters>767.20001220703125</AltitudeMeters>
            <DistanceMeters>NAN</DistanceMeters>
          </Trackpoint>
          <Trackpoint>
            <Time>2020-03-07T17:54:55.000Z</Time>
            <Position>
              <LatitudeDegrees>40.63607878983020782470703125</LatitudeDegrees>
              <LongitudeDegrees>-3.7305911444127559661865234375</LongitudeDegrees>
            </Position>
            <AltitudeMeters>766.79998779296875</AltitudeMeters>
            <DistanceMeters>NAN</DistanceMeters>
          </Trackpoint>
          <Trackpoint>
            <Time>2020-03-07T17:54:56.000Z</Time>
            <Position>
              <LatitudeDegrees>40.635978542268276214599609375</LatitudeDegrees>
              <LongitudeDegrees>-3.7305495701730251312255859375</LongitudeDegrees>
            </Position>
            <AltitudeMeters>766.4000244140625</AltitudeMeters>
            <DistanceMeters>NAN</DistanceMeters>
          </Trackpoint>
          <Trackpoint>
            <Time>2020-03-07T17:54:57.000Z</Time>
            <Position>
              <LatitudeDegrees>40.6358798034489154815673828125</LatitudeDegrees>
              <LongitudeDegrees>-3.73051042668521404266357421875</LongitudeDegrees>
            </Position>
            <AltitudeMeters>765.79998779296875</AltitudeMeters>
            <DistanceMeters>NAN</DistanceMeters>
          </Trackpoint>
          <Trackpoint>
            <Time>2020-03-07T17:54:58.000Z</Time>
            <Position>
              <LatitudeDegrees>40.63578265719115734100341796875</LatitudeDegrees>
              <LongitudeDegrees>-3.7304711155593395233154296875</LongitudeDegrees>
            </Position>
            <AltitudeMeters>765.20001220703125</AltitudeMeters>
            <DistanceMeters>NAN</DistanceMeters>
          </Trackpoint>
          <Trackpoint>
            <Time>2020-03-07T17:54:59.000Z</Time>
            <Position>
              <LatitudeDegrees>40.63568375073373317718505859375</LatitudeDegrees>
              <LongitudeDegrees>-3.73042509891092777252197265625</LongitudeDegrees>
            </Position>
            <AltitudeMeters>764.5999755859375</AltitudeMeters>
            <DistanceMeters>NAN</DistanceMeters>
          </Trackpoint>
          <Trackpoint>
            <Time>2020-03-07T17:55:00.000Z</Time>
            <Position>
              <LatitudeDegrees>40.635583586990833282470703125</LatitudeDegrees>
              <LongitudeDegrees>-3.730377070605754852294921875</LongitudeDegrees>
            </Position>
            <AltitudeMeters>763.79998779296875</AltitudeMeters>
            <DistanceMeters>NAN</DistanceMeters>
          </Trackpoint>
          <Trackpoint>
            <Time>2020-03-07T17:55:01.000Z</Time>
            <Position>
              <LatitudeDegrees>40.635478310286998748779296875</LatitudeDegrees>
              <LongitudeDegrees>-3.7303276173770427703857421875</LongitudeDegrees>
            </Position>
            <AltitudeMeters>763.4000244140625</AltitudeMeters>
            <DistanceMeters>NAN</DistanceMeters>
          </Trackpoint>
          <Trackpoint>
            <Time>2020-03-07T17:55:02.000Z</Time>
            <Position>
              <LatitudeDegrees>40.63537194393575191497802734375</LatitudeDegrees>
              <LongitudeDegrees>-3.73028176836669445037841796875</LongitudeDegrees>
            </Position>
            <AltitudeMeters>763.20001220703125</AltitudeMeters>
            <DistanceMeters>NAN</DistanceMeters>
          </Trackpoint>
          <Trackpoint>
            <Time>2020-03-07T17:55:03.000Z</Time>
            <Position>
              <LatitudeDegrees>40.6352612189948558807373046875</LatitudeDegrees>
              <LongitudeDegrees>-3.73023851774632930755615234375</LongitudeDegrees>
            </Position>
            <AltitudeMeters>763</AltitudeMeters>
            <DistanceMeters>NAN</DistanceMeters>
          </Trackpoint>
          <Trackpoint>
            <Time>2020-03-07T17:55:04.000Z</Time>
            <Position>
              <LatitudeDegrees>40.6351475603878498077392578125</LatitudeDegrees>
              <LongitudeDegrees>-3.730194680392742156982421875</LongitudeDegrees>
            </Position>
            <AltitudeMeters>762.4000244140625</AltitudeMeters>
            <DistanceMeters>NAN</DistanceMeters>
          </Trackpoint>
          <Trackpoint>
            <Time>2020-03-07T17:55:05.000Z</Time>
            <Position>
              <LatitudeDegrees>40.63503532670438289642333984375</LatitudeDegrees>
              <LongitudeDegrees>-3.7301542796194553375244140625</LongitudeDegrees>
            </Position>
            <AltitudeMeters>762</AltitudeMeters>
            <DistanceMeters>NAN</DistanceMeters>
          </Trackpoint>
          <Trackpoint>
            <Time>2020-03-07T17:55:06.000Z</Time>
            <Position>
              <LatitudeDegrees>40.63492678105831146240234375</LatitudeDegrees>
              <LongitudeDegrees>-3.73011790215969085693359375</LongitudeDegrees>
            </Position>
            <AltitudeMeters>761.4000244140625</AltitudeMeters>
            <DistanceMeters>NAN</DistanceMeters>
          </Trackpoint>
          <Trackpoint>
            <Time>2020-03-07T17:55:07.000Z</Time>
            <Position>
              <LatitudeDegrees>40.6348188221454620361328125</LatitudeDegrees>
              <LongitudeDegrees>-3.73009904287755489349365234375</LongitudeDegrees>
            </Position>
            <AltitudeMeters>761</AltitudeMeters>
            <DistanceMeters>NAN</DistanceMeters>
          </Trackpoint>
          <Trackpoint>
            <Time>2020-03-07T17:55:08.000Z</Time>
            <Position>
              <LatitudeDegrees>40.634718574583530426025390625</LatitudeDegrees>
              <LongitudeDegrees>-3.73007087968289852142333984375</LongitudeDegrees>
            </Position>
            <AltitudeMeters>760.4000244140625</AltitudeMeters>
            <DistanceMeters>NAN</DistanceMeters>
          </Trackpoint>
          <Trackpoint>
            <Time>2020-03-07T17:55:09.000Z</Time>
            <Position>
              <LatitudeDegrees>40.634622685611248016357421875</LatitudeDegrees>
              <LongitudeDegrees>-3.73004456050693988800048828125</LongitudeDegrees>
            </Position>
            <AltitudeMeters>759.79998779296875</AltitudeMeters>
            <DistanceMeters>NAN</DistanceMeters>
          </Trackpoint>
          <Trackpoint>
            <Time>2020-03-07T17:55:10.000Z</Time>
            <Position>
              <LatitudeDegrees>40.63453853130340576171875</LatitudeDegrees>
              <LongitudeDegrees>-3.73001857660710811614990234375</LongitudeDegrees>
            </Position>
            <AltitudeMeters>759</AltitudeMeters>
            <DistanceMeters>NAN</DistanceMeters>
          </Trackpoint>
          <Trackpoint>
            <Time>2020-03-07T17:55:11.000Z</Time>
            <Position>
              <LatitudeDegrees>40.63445471227169036865234375</LatitudeDegrees>
              <LongitudeDegrees>-3.729995191097259521484375</LongitudeDegrees>
            </Position>
            <AltitudeMeters>758.20001220703125</AltitudeMeters>
            <DistanceMeters>NAN</DistanceMeters>
          </Trackpoint>
          <Trackpoint>
            <Time>2020-03-07T17:55:12.000Z</Time>
            <Position>
              <LatitudeDegrees>40.6343762576580047607421875</LatitudeDegrees>
              <LongitudeDegrees>-3.729972727596759796142578125</LongitudeDegrees>
            </Position>
            <AltitudeMeters>757.79998779296875</AltitudeMeters>
            <DistanceMeters>NAN</DistanceMeters>
          </Trackpoint>
          <Trackpoint>
            <Time>2020-03-07T17:55:13.000Z</Time>
            <Position>
              <LatitudeDegrees>40.63429805450141429901123046875</LatitudeDegrees>
              <LongitudeDegrees>-3.7299509346485137939453125</LongitudeDegrees>
            </Position>
            <AltitudeMeters>757.5999755859375</AltitudeMeters>
            <DistanceMeters>NAN</DistanceMeters>
          </Trackpoint>
          <Trackpoint>
            <Time>2020-03-07T17:55:14.000Z</Time>
            <Position>
              <LatitudeDegrees>40.63421993516385555267333984375</LatitudeDegrees>
              <LongitudeDegrees>-3.7299360148608684539794921875</LongitudeDegrees>
            </Position>
            <AltitudeMeters>757.4000244140625</AltitudeMeters>
            <DistanceMeters>NAN</DistanceMeters>
          </Trackpoint>
          <Trackpoint>
            <Time>2020-03-07T17:55:15.000Z</Time>
            <Position>
              <LatitudeDegrees>40.6341457553207874298095703125</LatitudeDegrees>
              <LongitudeDegrees>-3.72992738150060176849365234375</LongitudeDegrees>
            </Position>
            <AltitudeMeters>757.4000244140625</AltitudeMeters>
            <DistanceMeters>NAN</DistanceMeters>
          </Trackpoint>
          <Trackpoint>
            <Time>2020-03-07T17:55:16.000Z</Time>
            <Position>
              <LatitudeDegrees>40.63406939618289470672607421875</LatitudeDegrees>
              <LongitudeDegrees>-3.729916401207447052001953125</LongitudeDegrees>
            </Position>
            <AltitudeMeters>757.4000244140625</AltitudeMeters>
            <DistanceMeters>NAN</DistanceMeters>
          </Trackpoint>
          <Trackpoint>
            <Time>2020-03-07T17:55:17.000Z</Time>
            <Position>
              <LatitudeDegrees>40.6339942105114459991455078125</LatitudeDegrees>
              <LongitudeDegrees>-3.7299088574945926666259765625</LongitudeDegrees>
            </Position>
            <AltitudeMeters>757.20001220703125</AltitudeMeters>
            <DistanceMeters>NAN</DistanceMeters>
          </Trackpoint>
          <Trackpoint>
            <Time>2020-03-07T17:55:18.000Z</Time>
            <Position>
              <LatitudeDegrees>40.63391667790710926055908203125</LatitudeDegrees>
              <LongitudeDegrees>-3.72990542091429233551025390625</LongitudeDegrees>
            </Position>
            <AltitudeMeters>757.20001220703125</AltitudeMeters>
            <DistanceMeters>NAN</DistanceMeters>
          </Trackpoint>
          <Trackpoint>
            <Time>2020-03-07T17:55:19.000Z</Time>
            <Position>
              <LatitudeDegrees>40.63383872620761394500732421875</LatitudeDegrees>
              <LongitudeDegrees>-3.72990324161946773529052734375</LongitudeDegrees>
            </Position>
            <AltitudeMeters>757.20001220703125</AltitudeMeters>
            <DistanceMeters>NAN</DistanceMeters>
          </Trackpoint>
          <Trackpoint>
            <Time>2020-03-07T17:55:20.000Z</Time>
            <Position>
              <LatitudeDegrees>40.63376094214618206024169921875</LatitudeDegrees>
              <LongitudeDegrees>-3.72989955358207225799560546875</LongitudeDegrees>
            </Position>
            <AltitudeMeters>757.79998779296875</AltitudeMeters>
            <DistanceMeters>NAN</DistanceMeters>
          </Trackpoint>
          <Trackpoint>
            <Time>2020-03-07T17:55:21.000Z</Time>
            <Position>
              <LatitudeDegrees>40.63368282280862331390380859375</LatitudeDegrees>
              <LongitudeDegrees>-3.729901649057865142822265625</LongitudeDegrees>
            </Position>
            <AltitudeMeters>758</AltitudeMeters>
            <DistanceMeters>NAN</DistanceMeters>
          </Trackpoint>
          <Trackpoint>
            <Time>2020-03-07T17:55:22.000Z</Time>
            <Position>
              <LatitudeDegrees>40.63360453583300113677978515625</LatitudeDegrees>
              <LongitudeDegrees>-3.72990458272397518157958984375</LongitudeDegrees>
            </Position>
            <AltitudeMeters>758.20001220703125</AltitudeMeters>
            <DistanceMeters>NAN</DistanceMeters>
          </Trackpoint>
          <Trackpoint>
            <Time>2020-03-07T17:55:23.000Z</Time>
            <Position>
              <LatitudeDegrees>40.6335271708667278289794921875</LatitudeDegrees>
              <LongitudeDegrees>-3.72990642674267292022705078125</LongitudeDegrees>
            </Position>
            <AltitudeMeters>758.20001220703125</AltitudeMeters>
            <DistanceMeters>NAN</DistanceMeters>
          </Trackpoint>
          <Trackpoint>
            <Time>2020-03-07T17:55:24.000Z</Time>
            <Position>
              <LatitudeDegrees>40.63345290720462799072265625</LatitudeDegrees>
              <LongitudeDegrees>-3.72991380281746387481689453125</LongitudeDegrees>
            </Position>
            <AltitudeMeters>758.20001220703125</AltitudeMeters>
            <DistanceMeters>NAN</DistanceMeters>
          </Trackpoint>
          <Trackpoint>
            <Time>2020-03-07T17:55:25.000Z</Time>
            <Position>
              <LatitudeDegrees>40.63337570987641811370849609375</LatitudeDegrees>
              <LongitudeDegrees>-3.7299214303493499755859375</LongitudeDegrees>
            </Position>
            <AltitudeMeters>758.4000244140625</AltitudeMeters>
            <DistanceMeters>NAN</DistanceMeters>
          </Trackpoint>
          <Trackpoint>
            <Time>2020-03-07T17:55:26.000Z</Time>
            <Position>
              <LatitudeDegrees>40.63329993747174739837646484375</LatitudeDegrees>
              <LongitudeDegrees>-3.72992956079542636871337890625</LongitudeDegrees>
            </Position>
            <AltitudeMeters>758.4000244140625</AltitudeMeters>
            <DistanceMeters>NAN</DistanceMeters>
          </Trackpoint>
          <Trackpoint>
            <Time>2020-03-07T17:55:27.000Z</Time>
            <Position>
              <LatitudeDegrees>40.63322584144771099090576171875</LatitudeDegrees>
              <LongitudeDegrees>-3.72993777506053447723388671875</LongitudeDegrees>
            </Position>
            <AltitudeMeters>758.5999755859375</AltitudeMeters>
            <DistanceMeters>NAN</DistanceMeters>
          </Trackpoint>
          <Trackpoint>
            <Time>2020-03-07T17:55:28.000Z</Time>
            <Position>
              <LatitudeDegrees>40.6331526674330234527587890625</LatitudeDegrees>
              <LongitudeDegrees>-3.72994414530694484710693359375</LongitudeDegrees>
            </Position>
            <AltitudeMeters>758.5999755859375</AltitudeMeters>
            <DistanceMeters>NAN</DistanceMeters>
          </Trackpoint>
          <Trackpoint>
            <Time>2020-03-07T17:55:29.000Z</Time>
            <Position>
              <LatitudeDegrees>40.633080415427684783935546875</LatitudeDegrees>
              <LongitudeDegrees>-3.72995001263916492462158203125</LongitudeDegrees>
            </Position>
            <AltitudeMeters>758.5999755859375</AltitudeMeters>
            <DistanceMeters>NAN</DistanceMeters>
          </Trackpoint>
          <Trackpoint>
            <Time>2020-03-07T17:55:30.000Z</Time>
            <Position>
              <LatitudeDegrees>40.63300925306975841522216796875</LatitudeDegrees>
              <LongitudeDegrees>-3.72995872981846332550048828125</LongitudeDegrees>
            </Position>
            <AltitudeMeters>758.79998779296875</AltitudeMeters>
            <DistanceMeters>NAN</DistanceMeters>
          </Trackpoint>
          <Trackpoint>
            <Time>2020-03-07T17:55:31.000Z</Time>
            <Position>
              <LatitudeDegrees>40.6329374201595783233642578125</LatitudeDegrees>
              <LongitudeDegrees>-3.729965351521968841552734375</LongitudeDegrees>
            </Position>
            <AltitudeMeters>758.79998779296875</AltitudeMeters>
            <DistanceMeters>NAN</DistanceMeters>
          </Trackpoint>
          <Trackpoint>
            <Time>2020-03-07T17:55:32.000Z</Time>
            <Position>
              <LatitudeDegrees>40.6328650005161762237548828125</LatitudeDegrees>
              <LongitudeDegrees>-3.72997130267322063446044921875</LongitudeDegrees>
            </Position>
            <AltitudeMeters>758.79998779296875</AltitudeMeters>
            <DistanceMeters>NAN</DistanceMeters>
          </Trackpoint>
          <Trackpoint>
            <Time>2020-03-07T17:55:33.000Z</Time>
            <Position>
              <LatitudeDegrees>40.6327905692160129547119140625</LatitudeDegrees>
              <LongitudeDegrees>-3.72997566126286983489990234375</LongitudeDegrees>
            </Position>
            <AltitudeMeters>758.79998779296875</AltitudeMeters>
            <DistanceMeters>NAN</DistanceMeters>
          </Trackpoint>
          <Trackpoint>
            <Time>2020-03-07T17:55:34.000Z</Time>
            <Position>
              <LatitudeDegrees>40.632714964449405670166015625</LatitudeDegrees>
              <LongitudeDegrees>-3.72998018749058246612548828125</LongitudeDegrees>
            </Position>
            <AltitudeMeters>758.79998779296875</AltitudeMeters>
            <DistanceMeters>NAN</DistanceMeters>
          </Trackpoint>
          <Trackpoint>
            <Time>2020-03-07T17:55:35.000Z</Time>
            <Position>
              <LatitudeDegrees>40.63263877294957637786865234375</LatitudeDegrees>
              <LongitudeDegrees>-3.72998722828924655914306640625</LongitudeDegrees>
            </Position>
            <AltitudeMeters>758.5999755859375</AltitudeMeters>
            <DistanceMeters>NAN</DistanceMeters>
          </Trackpoint>
          <Trackpoint>
            <Time>2020-03-07T17:55:36.000Z</Time>
            <Position>
              <LatitudeDegrees>40.63256434164941310882568359375</LatitudeDegrees>
              <LongitudeDegrees>-3.729996867477893829345703125</LongitudeDegrees>
            </Position>
            <AltitudeMeters>758.5999755859375</AltitudeMeters>
            <DistanceMeters>NAN</DistanceMeters>
          </Trackpoint>
          <Trackpoint>
            <Time>2020-03-07T17:55:37.000Z</Time>
            <Position>
              <LatitudeDegrees>40.6324915029108524322509765625</LatitudeDegrees>
              <LongitudeDegrees>-3.7300064228475093841552734375</LongitudeDegrees>
            </Position>
            <AltitudeMeters>758.4000244140625</AltitudeMeters>
            <DistanceMeters>NAN</DistanceMeters>
          </Trackpoint>
          <Trackpoint>
            <Time>2020-03-07T17:55:38.000Z</Time>
            <Position>
              <LatitudeDegrees>40.63241816125810146331787109375</LatitudeDegrees>
              <LongitudeDegrees>-3.730016984045505523681640625</LongitudeDegrees>
            </Position>
            <AltitudeMeters>758.4000244140625</AltitudeMeters>
            <DistanceMeters>NAN</DistanceMeters>
          </Trackpoint>
          <Trackpoint>
            <Time>2020-03-07T17:55:39.000Z</Time>
            <Position>
              <LatitudeDegrees>40.632346160709857940673828125</LatitudeDegrees>
              <LongitudeDegrees>-3.73002813197672367095947265625</LongitudeDegrees>
            </Position>
            <AltitudeMeters>758.4000244140625</AltitudeMeters>
            <DistanceMeters>NAN</DistanceMeters>
          </Trackpoint>
          <Trackpoint>
            <Time>2020-03-07T17:55:40.000Z</Time>
            <Position>
              <LatitudeDegrees>40.63227516598999500274658203125</LatitudeDegrees>
              <LongitudeDegrees>-3.730037100613117218017578125</LongitudeDegrees>
            </Position>
            <AltitudeMeters>758.20001220703125</AltitudeMeters>
            <DistanceMeters>NAN</DistanceMeters>
          </Trackpoint>
          <Trackpoint>
            <Time>2020-03-07T17:55:41.000Z</Time>
            <Position>
              <LatitudeDegrees>40.6322021596133708953857421875</LatitudeDegrees>
              <LongitudeDegrees>-3.7300436384975910186767578125</LongitudeDegrees>
            </Position>
            <AltitudeMeters>758.20001220703125</AltitudeMeters>
            <DistanceMeters>NAN</DistanceMeters>
          </Trackpoint>
          <Trackpoint>
            <Time>2020-03-07T17:55:42.000Z</Time>
            <Position>
              <LatitudeDegrees>40.632132254540920257568359375</LatitudeDegrees>
              <LongitudeDegrees>-3.73005294241011142730712890625</LongitudeDegrees>
            </Position>
            <AltitudeMeters>758</AltitudeMeters>
            <DistanceMeters>NAN</DistanceMeters>
          </Trackpoint>
          <Trackpoint>
            <Time>2020-03-07T17:55:43.000Z</Time>
            <Position>
              <LatitudeDegrees>40.63206260092556476593017578125</LatitudeDegrees>
              <LongitudeDegrees>-3.7300634197890758514404296875</LongitudeDegrees>
            </Position>
            <AltitudeMeters>757.79998779296875</AltitudeMeters>
            <DistanceMeters>NAN</DistanceMeters>
          </Trackpoint>
          <Trackpoint>
            <Time>2020-03-07T17:55:44.000Z</Time>
            <Position>
              <LatitudeDegrees>40.63199336640536785125732421875</LatitudeDegrees>
              <LongitudeDegrees>-3.73007096350193023681640625</LongitudeDegrees>
            </Position>
            <AltitudeMeters>757.79998779296875</AltitudeMeters>
            <DistanceMeters>NAN</DistanceMeters>
          </Trackpoint>
          <Trackpoint>
            <Time>2020-03-07T17:55:45.000Z</Time>
            <Position>
              <LatitudeDegrees>40.63192497007548809051513671875</LatitudeDegrees>
              <LongitudeDegrees>-3.73008043505251407623291015625</LongitudeDegrees>
            </Position>
            <AltitudeMeters>757.79998779296875</AltitudeMeters>
            <DistanceMeters>NAN</DistanceMeters>
          </Trackpoint>
          <Trackpoint>
            <Time>2020-03-07T17:55:46.000Z</Time>
            <Position>
              <LatitudeDegrees>40.6318568252027034759521484375</LatitudeDegrees>
              <LongitudeDegrees>-3.7300868891179561614990234375</LongitudeDegrees>
            </Position>
            <AltitudeMeters>757.5999755859375</AltitudeMeters>
            <DistanceMeters>NAN</DistanceMeters>
          </Trackpoint>
          <Trackpoint>
            <Time>2020-03-07T17:55:47.000Z</Time>
            <Position>
              <LatitudeDegrees>40.6317887641489505767822265625</LatitudeDegrees>
              <LongitudeDegrees>-3.73009351082146167755126953125</LongitudeDegrees>
            </Position>
            <AltitudeMeters>757.5999755859375</AltitudeMeters>
            <DistanceMeters>NAN</DistanceMeters>
          </Trackpoint>
          <Trackpoint>
            <Time>2020-03-07T17:55:48.000Z</Time>
            <Position>
              <LatitudeDegrees>40.631721876561641693115234375</LatitudeDegrees>
              <LongitudeDegrees>-3.73010172508656978607177734375</LongitudeDegrees>
            </Position>
            <AltitudeMeters>757.5999755859375</AltitudeMeters>
            <DistanceMeters>NAN</DistanceMeters>
          </Trackpoint>
          <Trackpoint>
            <Time>2020-03-07T17:55:49.000Z</Time>
            <Position>
              <LatitudeDegrees>40.63165389932692050933837890625</LatitudeDegrees>
              <LongitudeDegrees>-3.73010776005685329437255859375</LongitudeDegrees>
            </Position>
            <AltitudeMeters>757.5999755859375</AltitudeMeters>
            <DistanceMeters>NAN</DistanceMeters>
          </Trackpoint>
          <Trackpoint>
            <Time>2020-03-07T17:55:50.000Z</Time>
            <Position>
              <LatitudeDegrees>40.63158751465380191802978515625</LatitudeDegrees>
              <LongitudeDegrees>-3.73011664487421512603759765625</LongitudeDegrees>
            </Position>
            <AltitudeMeters>757.5999755859375</AltitudeMeters>
            <DistanceMeters>NAN</DistanceMeters>
          </Trackpoint>
          <Trackpoint>
            <Time>2020-03-07T17:55:51.000Z</Time>
            <Position>
              <LatitudeDegrees>40.631521381437778472900390625</LatitudeDegrees>
              <LongitudeDegrees>-3.73012569732964038848876953125</LongitudeDegrees>
            </Position>
            <AltitudeMeters>757.5999755859375</AltitudeMeters>
            <DistanceMeters>NAN</DistanceMeters>
          </Trackpoint>
          <Trackpoint>
            <Time>2020-03-07T17:55:52.000Z</Time>
            <Position>
              <LatitudeDegrees>40.631455667316913604736328125</LatitudeDegrees>
              <LongitudeDegrees>-3.73013625852763652801513671875</LongitudeDegrees>
            </Position>
            <AltitudeMeters>757.5999755859375</AltitudeMeters>
            <DistanceMeters>NAN</DistanceMeters>
          </Trackpoint>
          <Trackpoint>
            <Time>2020-03-07T17:55:53.000Z</Time>
            <Position>
              <LatitudeDegrees>40.63139171339571475982666015625</LatitudeDegrees>
              <LongitudeDegrees>-3.73014598153531551361083984375</LongitudeDegrees>
            </Position>
            <AltitudeMeters>757.5999755859375</AltitudeMeters>
            <DistanceMeters>NAN</DistanceMeters>
          </Trackpoint>
          <Trackpoint>
            <Time>2020-03-07T17:55:54.000Z</Time>
            <Position>
              <LatitudeDegrees>40.63132901675999164581298828125</LatitudeDegrees>
              <LongitudeDegrees>-3.73015872202813625335693359375</LongitudeDegrees>
            </Position>
            <AltitudeMeters>757.5999755859375</AltitudeMeters>
            <DistanceMeters>NAN</DistanceMeters>
          </Trackpoint>
          <Trackpoint>
            <Time>2020-03-07T17:55:55.000Z</Time>
            <Position>
              <LatitudeDegrees>40.63126556575298309326171875</LatitudeDegrees>
              <LongitudeDegrees>-3.73016844503581523895263671875</LongitudeDegrees>
            </Position>
            <AltitudeMeters>757.79998779296875</AltitudeMeters>
            <DistanceMeters>NAN</DistanceMeters>
          </Trackpoint>
          <Trackpoint>
            <Time>2020-03-07T17:55:56.000Z</Time>
            <Position>
              <LatitudeDegrees>40.63120110891759395599365234375</LatitudeDegrees>
              <LongitudeDegrees>-3.73017364181578159332275390625</LongitudeDegrees>
            </Position>
            <AltitudeMeters>758</AltitudeMeters>
            <DistanceMeters>NAN</DistanceMeters>
          </Trackpoint>
          <Trackpoint>
            <Time>2020-03-07T17:55:57.000Z</Time>
            <Position>
              <LatitudeDegrees>40.63113690353929996490478515625</LatitudeDegrees>
              <LongitudeDegrees>-3.73017900623381137847900390625</LongitudeDegrees>
            </Position>
            <AltitudeMeters>758</AltitudeMeters>
            <DistanceMeters>NAN</DistanceMeters>
          </Trackpoint>
          <Trackpoint>
            <Time>2020-03-07T17:55:58.000Z</Time>
            <Position>
              <LatitudeDegrees>40.6310746259987354278564453125</LatitudeDegrees>
              <LongitudeDegrees>-3.73018763959407806396484375</LongitudeDegrees>
            </Position>
            <AltitudeMeters>758</AltitudeMeters>
            <DistanceMeters>NAN</DistanceMeters>
          </Trackpoint>
          <Trackpoint>
            <Time>2020-03-07T17:55:59.000Z</Time>
            <Position>
              <LatitudeDegrees>40.63101318664848804473876953125</LatitudeDegrees>
              <LongitudeDegrees>-3.73019526712596416473388671875</LongitudeDegrees>
            </Position>
            <AltitudeMeters>758.20001220703125</AltitudeMeters>
            <DistanceMeters>NAN</DistanceMeters>
          </Trackpoint>
          <Trackpoint>
            <Time>2020-03-07T17:56:00.000Z</Time>
            <Position>
              <LatitudeDegrees>40.6309539265930652618408203125</LatitudeDegrees>
              <LongitudeDegrees>-3.7302057445049285888671875</LongitudeDegrees>
            </Position>
            <AltitudeMeters>758.4000244140625</AltitudeMeters>
            <DistanceMeters>NAN</DistanceMeters>
          </Trackpoint>
          <Trackpoint>
            <Time>2020-03-07T17:56:01.000Z</Time>
            <Position>
              <LatitudeDegrees>40.63089407980442047119140625</LatitudeDegrees>
              <LongitudeDegrees>-3.73021605424582958221435546875</LongitudeDegrees>
            </Position>
            <AltitudeMeters>758.5999755859375</AltitudeMeters>
            <DistanceMeters>NAN</DistanceMeters>
          </Trackpoint>
          <Trackpoint>
            <Time>2020-03-07T17:56:02.000Z</Time>
            <Position>
              <LatitudeDegrees>40.6308355741202831268310546875</LatitudeDegrees>
              <LongitudeDegrees>-3.730226866900920867919921875</LongitudeDegrees>
            </Position>
            <AltitudeMeters>758.79998779296875</AltitudeMeters>
            <DistanceMeters>NAN</DistanceMeters>
          </Trackpoint>
          <Trackpoint>
            <Time>2020-03-07T17:56:03.000Z</Time>
            <Position>
              <LatitudeDegrees>40.63077648170292377471923828125</LatitudeDegrees>
              <LongitudeDegrees>-3.73023851774632930755615234375</LongitudeDegrees>
            </Position>
            <AltitudeMeters>759</AltitudeMeters>
            <DistanceMeters>NAN</DistanceMeters>
          </Trackpoint>
          <Trackpoint>
            <Time>2020-03-07T17:56:04.000Z</Time>
            <Position>
              <LatitudeDegrees>40.63071780838072299957275390625</LatitudeDegrees>
              <LongitudeDegrees>-3.73025259934365749359130859375</LongitudeDegrees>
            </Position>
            <AltitudeMeters>759</AltitudeMeters>
            <DistanceMeters>NAN</DistanceMeters>
          </Trackpoint>
          <Trackpoint>
            <Time>2020-03-07T17:56:05.000Z</Time>
            <Position>
              <LatitudeDegrees>40.63065938651561737060546875</LatitudeDegrees>
              <LongitudeDegrees>-3.730266094207763671875</LongitudeDegrees>
            </Position>
            <AltitudeMeters>759.4000244140625</AltitudeMeters>
            <DistanceMeters>NAN</DistanceMeters>
          </Trackpoint>
          <Trackpoint>
            <Time>2020-03-07T17:56:06.000Z</Time>
            <Position>
              <LatitudeDegrees>40.6305995397269725799560546875</LatitudeDegrees>
              <LongitudeDegrees>-3.730278499424457550048828125</LongitudeDegrees>
            </Position>
            <AltitudeMeters>759.5999755859375</AltitudeMeters>
            <DistanceMeters>NAN</DistanceMeters>
          </Trackpoint>
          <Trackpoint>
            <Time>2020-03-07T17:56:07.000Z</Time>
            <Position>
              <LatitudeDegrees>40.6305381841957569122314453125</LatitudeDegrees>
              <LongitudeDegrees>-3.73029115609824657440185546875</LongitudeDegrees>
            </Position>
            <AltitudeMeters>759.5999755859375</AltitudeMeters>
            <DistanceMeters>NAN</DistanceMeters>
          </Trackpoint>
          <Trackpoint>
            <Time>2020-03-07T17:56:08.000Z</Time>
            <Position>
              <LatitudeDegrees>40.63047565519809722900390625</LatitudeDegrees>
              <LongitudeDegrees>-3.73030222021043300628662109375</LongitudeDegrees>
            </Position>
            <AltitudeMeters>759.79998779296875</AltitudeMeters>
            <DistanceMeters>NAN</DistanceMeters>
          </Trackpoint>
          <Trackpoint>
            <Time>2020-03-07T17:56:09.000Z</Time>
            <Position>
              <LatitudeDegrees>40.63040985725820064544677734375</LatitudeDegrees>
              <LongitudeDegrees>-3.730312027037143707275390625</LongitudeDegrees>
            </Position>
            <AltitudeMeters>759.79998779296875</AltitudeMeters>
            <DistanceMeters>NAN</DistanceMeters>
          </Trackpoint>
          <Trackpoint>
            <Time>2020-03-07T17:56:10.000Z</Time>
            <Position>
              <LatitudeDegrees>40.63034288585186004638671875</LatitudeDegrees>
              <LongitudeDegrees>-3.73031948693096637725830078125</LongitudeDegrees>
            </Position>
            <AltitudeMeters>759.79998779296875</AltitudeMeters>
            <DistanceMeters>NAN</DistanceMeters>
          </Trackpoint>
          <Trackpoint>
            <Time>2020-03-07T17:56:11.000Z</Time>
            <Position>
              <LatitudeDegrees>40.630275495350360870361328125</LatitudeDegrees>
              <LongitudeDegrees>-3.7303269468247890472412109375</LongitudeDegrees>
            </Position>
            <AltitudeMeters>759.79998779296875</AltitudeMeters>
            <DistanceMeters>NAN</DistanceMeters>
          </Trackpoint>
          <Trackpoint>
            <Time>2020-03-07T17:56:12.000Z</Time>
            <Position>
              <LatitudeDegrees>40.63020667992532253265380859375</LatitudeDegrees>
              <LongitudeDegrees>-3.73033407144248485565185546875</LongitudeDegrees>
            </Position>
            <AltitudeMeters>759.79998779296875</AltitudeMeters>
            <DistanceMeters>NAN</DistanceMeters>
          </Trackpoint>
          <Trackpoint>
            <Time>2020-03-07T17:56:13.000Z</Time>
            <Position>
              <LatitudeDegrees>40.6301371939480304718017578125</LatitudeDegrees>
              <LongitudeDegrees>-3.73033893294632434844970703125</LongitudeDegrees>
            </Position>
            <AltitudeMeters>759.79998779296875</AltitudeMeters>
            <DistanceMeters>NAN</DistanceMeters>
          </Trackpoint>
          <Trackpoint>
            <Time>2020-03-07T17:56:14.000Z</Time>
            <Position>
              <LatitudeDegrees>40.630065612494945526123046875</LatitudeDegrees>
              <LongitudeDegrees>-3.7303420342504978179931640625</LongitudeDegrees>
            </Position>
            <AltitudeMeters>759.79998779296875</AltitudeMeters>
            <DistanceMeters>NAN</DistanceMeters>
          </Trackpoint>
          <Trackpoint>
            <Time>2020-03-07T17:56:15.000Z</Time>
            <Position>
              <LatitudeDegrees>40.6299943663179874420166015625</LatitudeDegrees>
              <LongitudeDegrees>-3.7303490750491619110107421875</LongitudeDegrees>
            </Position>
            <AltitudeMeters>759.79998779296875</AltitudeMeters>
            <DistanceMeters>NAN</DistanceMeters>
          </Trackpoint>
          <Trackpoint>
            <Time>2020-03-07T17:56:16.000Z</Time>
            <Position>
              <LatitudeDegrees>40.6299246288836002349853515625</LatitudeDegrees>
              <LongitudeDegrees>-3.73036072589457035064697265625</LongitudeDegrees>
            </Position>
            <AltitudeMeters>759.79998779296875</AltitudeMeters>
            <DistanceMeters>NAN</DistanceMeters>
          </Trackpoint>
          <Trackpoint>
            <Time>2020-03-07T17:56:17.000Z</Time>
            <Position>
              <LatitudeDegrees>40.62985472381114959716796875</LatitudeDegrees>
              <LongitudeDegrees>-3.73037279583513736724853515625</LongitudeDegrees>
            </Position>
            <AltitudeMeters>759.5999755859375</AltitudeMeters>
            <DistanceMeters>NAN</DistanceMeters>
          </Trackpoint>
          <Trackpoint>
            <Time>2020-03-07T17:56:18.000Z</Time>
            <Position>
              <LatitudeDegrees>40.62978364527225494384765625</LatitudeDegrees>
              <LongitudeDegrees>-3.73038235120475292205810546875</LongitudeDegrees>
            </Position>
            <AltitudeMeters>759.4000244140625</AltitudeMeters>
            <DistanceMeters>NAN</DistanceMeters>
          </Trackpoint>
          <Trackpoint>
            <Time>2020-03-07T17:56:19.000Z</Time>
            <Position>
              <LatitudeDegrees>40.62971181236207485198974609375</LatitudeDegrees>
              <LongitudeDegrees>-3.73039207421243190765380859375</LongitudeDegrees>
            </Position>
            <AltitudeMeters>759.20001220703125</AltitudeMeters>
            <DistanceMeters>NAN</DistanceMeters>
          </Trackpoint>
          <Trackpoint>
            <Time>2020-03-07T17:56:20.000Z</Time>
            <Position>
              <LatitudeDegrees>40.62963939271867275238037109375</LatitudeDegrees>
              <LongitudeDegrees>-3.73040280304849147796630859375</LongitudeDegrees>
            </Position>
            <AltitudeMeters>758.79998779296875</AltitudeMeters>
            <DistanceMeters>NAN</DistanceMeters>
          </Trackpoint>
          <Trackpoint>
            <Time>2020-03-07T17:56:21.000Z</Time>
            <Position>
              <LatitudeDegrees>40.6295668892562389373779296875</LatitudeDegrees>
              <LongitudeDegrees>-3.73041487298905849456787109375</LongitudeDegrees>
            </Position>
            <AltitudeMeters>758.4000244140625</AltitudeMeters>
            <DistanceMeters>NAN</DistanceMeters>
          </Trackpoint>
          <Trackpoint>
            <Time>2020-03-07T17:56:22.000Z</Time>
            <Position>
              <LatitudeDegrees>40.62949354760348796844482421875</LatitudeDegrees>
              <LongitudeDegrees>-3.73042660765349864959716796875</LongitudeDegrees>
            </Position>
            <AltitudeMeters>758.20001220703125</AltitudeMeters>
            <DistanceMeters>NAN</DistanceMeters>
          </Trackpoint>
          <Trackpoint>
            <Time>2020-03-07T17:56:23.000Z</Time>
            <Position>
              <LatitudeDegrees>40.62942079268395900726318359375</LatitudeDegrees>
              <LongitudeDegrees>-3.73043985106050968170166015625</LongitudeDegrees>
            </Position>
            <AltitudeMeters>758</AltitudeMeters>
            <DistanceMeters>NAN</DistanceMeters>
          </Trackpoint>
          <Trackpoint>
            <Time>2020-03-07T17:56:24.000Z</Time>
            <Position>
              <LatitudeDegrees>40.629346109926700592041015625</LatitudeDegrees>
              <LongitudeDegrees>-3.73045091517269611358642578125</LongitudeDegrees>
            </Position>
            <AltitudeMeters>757.79998779296875</AltitudeMeters>
            <DistanceMeters>NAN</DistanceMeters>
          </Trackpoint>
          <Trackpoint>
            <Time>2020-03-07T17:56:25.000Z</Time>
            <Position>
              <LatitudeDegrees>40.62927008606493473052978515625</LatitudeDegrees>
              <LongitudeDegrees>-3.73046432621777057647705078125</LongitudeDegrees>
            </Position>
            <AltitudeMeters>757.5999755859375</AltitudeMeters>
            <DistanceMeters>NAN</DistanceMeters>
          </Trackpoint>
          <Trackpoint>
            <Time>2020-03-07T17:56:26.000Z</Time>
            <Position>
              <LatitudeDegrees>40.6291947327554225921630859375</LatitudeDegrees>
              <LongitudeDegrees>-3.7304791621863842010498046875</LongitudeDegrees>
            </Position>
            <AltitudeMeters>757.4000244140625</AltitudeMeters>
            <DistanceMeters>NAN</DistanceMeters>
          </Trackpoint>
          <Trackpoint>
            <Time>2020-03-07T17:56:27.000Z</Time>
            <Position>
              <LatitudeDegrees>40.6291182897984981536865234375</LatitudeDegrees>
              <LongitudeDegrees>-3.73049198649823665618896484375</LongitudeDegrees>
            </Position>
            <AltitudeMeters>757</AltitudeMeters>
            <DistanceMeters>NAN</DistanceMeters>
          </Trackpoint>
          <Trackpoint>
            <Time>2020-03-07T17:56:28.000Z</Time>
            <Position>
              <LatitudeDegrees>40.62904226593673229217529296875</LatitudeDegrees>
              <LongitudeDegrees>-3.730505146086215972900390625</LongitudeDegrees>
            </Position>
            <AltitudeMeters>756.79998779296875</AltitudeMeters>
            <DistanceMeters>NAN</DistanceMeters>
          </Trackpoint>
          <Trackpoint>
            <Time>2020-03-07T17:56:29.000Z</Time>
            <Position>
              <LatitudeDegrees>40.62896833755075931549072265625</LatitudeDegrees>
              <LongitudeDegrees>-3.7305227480828762054443359375</LongitudeDegrees>
            </Position>
            <AltitudeMeters>756.5999755859375</AltitudeMeters>
            <DistanceMeters>NAN</DistanceMeters>
          </Trackpoint>
          <Trackpoint>
            <Time>2020-03-07T17:56:30.000Z</Time>
            <Position>
              <LatitudeDegrees>40.6288939900696277618408203125</LatitudeDegrees>
              <LongitudeDegrees>-3.7305462174117565155029296875</LongitudeDegrees>
            </Position>
            <AltitudeMeters>756.4000244140625</AltitudeMeters>
            <DistanceMeters>NAN</DistanceMeters>
          </Trackpoint>
          <Trackpoint>
            <Time>2020-03-07T17:56:31.000Z</Time>
            <Position>
              <LatitudeDegrees>40.62882031314074993133544921875</LatitudeDegrees>
              <LongitudeDegrees>-3.730572201311588287353515625</LongitudeDegrees>
            </Position>
            <AltitudeMeters>756.20001220703125</AltitudeMeters>
            <DistanceMeters>NAN</DistanceMeters>
          </Trackpoint>
          <Trackpoint>
            <Time>2020-03-07T17:56:32.000Z</Time>
            <Position>
              <LatitudeDegrees>40.62874638475477695465087890625</LatitudeDegrees>
              <LongitudeDegrees>-3.73059776611626148223876953125</LongitudeDegrees>
            </Position>
            <AltitudeMeters>756</AltitudeMeters>
            <DistanceMeters>NAN</DistanceMeters>
          </Trackpoint>
          <Trackpoint>
            <Time>2020-03-07T17:56:33.000Z</Time>
            <Position>
              <LatitudeDegrees>40.6286743842065334320068359375</LatitudeDegrees>
              <LongitudeDegrees>-3.7306226603686809539794921875</LongitudeDegrees>
            </Position>
            <AltitudeMeters>755.79998779296875</AltitudeMeters>
            <DistanceMeters>NAN</DistanceMeters>
          </Trackpoint>
          <Trackpoint>
            <Time>2020-03-07T17:56:34.000Z</Time>
            <Position>
              <LatitudeDegrees>40.62860389240086078643798828125</LatitudeDegrees>
              <LongitudeDegrees>-3.7306468002498149871826171875</LongitudeDegrees>
            </Position>
            <AltitudeMeters>755.5999755859375</AltitudeMeters>
            <DistanceMeters>NAN</DistanceMeters>
          </Trackpoint>
          <Trackpoint>
            <Time>2020-03-07T17:56:35.000Z</Time>
            <Position>
              <LatitudeDegrees>40.62853465788066387176513671875</LatitudeDegrees>
              <LongitudeDegrees>-3.7306692637503147125244140625</LongitudeDegrees>
            </Position>
            <AltitudeMeters>755.5999755859375</AltitudeMeters>
            <DistanceMeters>NAN</DistanceMeters>
          </Trackpoint>
          <Trackpoint>
            <Time>2020-03-07T17:56:36.000Z</Time>
            <Position>
              <LatitudeDegrees>40.62846441753208637237548828125</LatitudeDegrees>
              <LongitudeDegrees>-3.73068644665181636810302734375</LongitudeDegrees>
            </Position>
            <AltitudeMeters>755.4000244140625</AltitudeMeters>
            <DistanceMeters>NAN</DistanceMeters>
          </Trackpoint>
          <Trackpoint>
            <Time>2020-03-07T17:56:37.000Z</Time>
            <Position>
              <LatitudeDegrees>40.628394596278667449951171875</LatitudeDegrees>
              <LongitudeDegrees>-3.73069499619305133819580078125</LongitudeDegrees>
            </Position>
            <AltitudeMeters>755.20001220703125</AltitudeMeters>
            <DistanceMeters>NAN</DistanceMeters>
          </Trackpoint>
          <Trackpoint>
            <Time>2020-03-07T17:56:38.000Z</Time>
            <Position>
              <LatitudeDegrees>40.6283251941204071044921875</LatitudeDegrees>
              <LongitudeDegrees>-3.7306957505643367767333984375</LongitudeDegrees>
            </Position>
            <AltitudeMeters>755</AltitudeMeters>
            <DistanceMeters>NAN</DistanceMeters>
          </Trackpoint>
          <Trackpoint>
            <Time>2020-03-07T17:56:39.000Z</Time>
            <Position>
              <LatitudeDegrees>40.628255121409893035888671875</LatitudeDegrees>
              <LongitudeDegrees>-3.730690218508243560791015625</LongitudeDegrees>
            </Position>
            <AltitudeMeters>754.79998779296875</AltitudeMeters>
            <DistanceMeters>NAN</DistanceMeters>
          </Trackpoint>
          <Trackpoint>
            <Time>2020-03-07T17:56:40.000Z</Time>
            <Position>
              <LatitudeDegrees>40.62818731181323528289794921875</LatitudeDegrees>
              <LongitudeDegrees>-3.73067907057702541351318359375</LongitudeDegrees>
            </Position>
            <AltitudeMeters>754.79998779296875</AltitudeMeters>
            <DistanceMeters>NAN</DistanceMeters>
          </Trackpoint>
          <Trackpoint>
            <Time>2020-03-07T17:56:41.000Z</Time>
            <Position>
              <LatitudeDegrees>40.6281191669404506683349609375</LatitudeDegrees>
              <LongitudeDegrees>-3.73066515661776065826416015625</LongitudeDegrees>
            </Position>
            <AltitudeMeters>754.5999755859375</AltitudeMeters>
            <DistanceMeters>NAN</DistanceMeters>
          </Trackpoint>
          <Trackpoint>
            <Time>2020-03-07T17:56:42.000Z</Time>
            <Position>
              <LatitudeDegrees>40.628050267696380615234375</LatitudeDegrees>
              <LongitudeDegrees>-3.7306498177349567413330078125</LongitudeDegrees>
            </Position>
            <AltitudeMeters>754.5999755859375</AltitudeMeters>
            <DistanceMeters>NAN</DistanceMeters>
          </Trackpoint>
          <Trackpoint>
            <Time>2020-03-07T17:56:43.000Z</Time>
            <Position>
              <LatitudeDegrees>40.62798061408102512359619140625</LatitudeDegrees>
              <LongitudeDegrees>-3.730639256536960601806640625</LongitudeDegrees>
            </Position>
            <AltitudeMeters>754.5999755859375</AltitudeMeters>
            <DistanceMeters>NAN</DistanceMeters>
          </Trackpoint>
          <Trackpoint>
            <Time>2020-03-07T17:56:44.000Z</Time>
            <Position>
              <LatitudeDegrees>40.62791146337985992431640625</LatitudeDegrees>
              <LongitudeDegrees>-3.7306350655853748321533203125</LongitudeDegrees>
            </Position>
            <AltitudeMeters>754.4000244140625</AltitudeMeters>
            <DistanceMeters>NAN</DistanceMeters>
          </Trackpoint>
          <Trackpoint>
            <Time>2020-03-07T17:56:45.000Z</Time>
            <Position>
              <LatitudeDegrees>40.62784365378320217132568359375</LatitudeDegrees>
              <LongitudeDegrees>-3.7306370772421360015869140625</LongitudeDegrees>
            </Position>
            <AltitudeMeters>754.4000244140625</AltitudeMeters>
            <DistanceMeters>NAN</DistanceMeters>
          </Trackpoint>
          <Trackpoint>
            <Time>2020-03-07T17:56:46.000Z</Time>
            <Position>
              <LatitudeDegrees>40.62777492217719554901123046875</LatitudeDegrees>
              <LongitudeDegrees>-3.7306394241750240325927734375</LongitudeDegrees>
            </Position>
            <AltitudeMeters>754.4000244140625</AltitudeMeters>
            <DistanceMeters>NAN</DistanceMeters>
          </Trackpoint>
          <Trackpoint>
            <Time>2020-03-07T17:56:47.000Z</Time>
            <Position>
              <LatitudeDegrees>40.62770501710474491119384765625</LatitudeDegrees>
              <LongitudeDegrees>-3.73063950799405574798583984375</LongitudeDegrees>
            </Position>
            <AltitudeMeters>754.4000244140625</AltitudeMeters>
            <DistanceMeters>NAN</DistanceMeters>
          </Trackpoint>
          <Trackpoint>
            <Time>2020-03-07T17:56:48.000Z</Time>
            <Position>
              <LatitudeDegrees>40.62763343565165996551513671875</LatitudeDegrees>
              <LongitudeDegrees>-3.7306364066898822784423828125</LongitudeDegrees>
            </Position>
            <AltitudeMeters>754.4000244140625</AltitudeMeters>
            <DistanceMeters>NAN</DistanceMeters>
          </Trackpoint>
          <Trackpoint>
            <Time>2020-03-07T17:56:49.000Z</Time>
            <Position>
              <LatitudeDegrees>40.62755967490375041961669921875</LatitudeDegrees>
              <LongitudeDegrees>-3.730633221566677093505859375</LongitudeDegrees>
            </Position>
            <AltitudeMeters>754.4000244140625</AltitudeMeters>
            <DistanceMeters>NAN</DistanceMeters>
          </Trackpoint>
          <Trackpoint>
            <Time>2020-03-07T17:56:50.000Z</Time>
            <Position>
              <LatitudeDegrees>40.62748423777520656585693359375</LatitudeDegrees>
              <LongitudeDegrees>-3.7306270189583301544189453125</LongitudeDegrees>
            </Position>
            <AltitudeMeters>754.20001220703125</AltitudeMeters>
            <DistanceMeters>NAN</DistanceMeters>
          </Trackpoint>
          <Trackpoint>
            <Time>2020-03-07T17:56:51.000Z</Time>
            <Position>
              <LatitudeDegrees>40.62740729190409183502197265625</LatitudeDegrees>
              <LongitudeDegrees>-3.7306193076074123382568359375</LongitudeDegrees>
            </Position>
            <AltitudeMeters>754.20001220703125</AltitudeMeters>
            <DistanceMeters>NAN</DistanceMeters>
          </Trackpoint>
          <Trackpoint>
            <Time>2020-03-07T17:56:52.000Z</Time>
            <Position>
              <LatitudeDegrees>40.62733068130910396575927734375</LatitudeDegrees>
              <LongitudeDegrees>-3.73061100952327251434326171875</LongitudeDegrees>
            </Position>
            <AltitudeMeters>754</AltitudeMeters>
            <DistanceMeters>NAN</DistanceMeters>
          </Trackpoint>
          <Trackpoint>
            <Time>2020-03-07T17:56:53.000Z</Time>
            <Position>
              <LatitudeDegrees>40.62725289724767208099365234375</LatitudeDegrees>
              <LongitudeDegrees>-3.730600364506244659423828125</LongitudeDegrees>
            </Position>
            <AltitudeMeters>753.79998779296875</AltitudeMeters>
            <DistanceMeters>NAN</DistanceMeters>
          </Trackpoint>
          <Trackpoint>
            <Time>2020-03-07T17:56:54.000Z</Time>
            <Position>
              <LatitudeDegrees>40.62717678956687450408935546875</LatitudeDegrees>
              <LongitudeDegrees>-3.7305887974798679351806640625</LongitudeDegrees>
            </Position>
            <AltitudeMeters>753.5999755859375</AltitudeMeters>
            <DistanceMeters>NAN</DistanceMeters>
          </Trackpoint>
          <Trackpoint>
            <Time>2020-03-07T17:56:55.000Z</Time>
            <Position>
              <LatitudeDegrees>40.62710118480026721954345703125</LatitudeDegrees>
              <LongitudeDegrees>-3.730578236281871795654296875</LongitudeDegrees>
            </Position>
            <AltitudeMeters>753.4000244140625</AltitudeMeters>
            <DistanceMeters>NAN</DistanceMeters>
          </Trackpoint>
          <Trackpoint>
            <Time>2020-03-07T17:56:56.000Z</Time>
            <Position>
              <LatitudeDegrees>40.62702574767172336578369140625</LatitudeDegrees>
              <LongitudeDegrees>-3.73056717216968536376953125</LongitudeDegrees>
            </Position>
            <AltitudeMeters>753.20001220703125</AltitudeMeters>
            <DistanceMeters>NAN</DistanceMeters>
          </Trackpoint>
          <Trackpoint>
            <Time>2020-03-07T17:56:57.000Z</Time>
            <Position>
              <LatitudeDegrees>40.62695131637156009674072265625</LatitudeDegrees>
              <LongitudeDegrees>-3.73055434785783290863037109375</LongitudeDegrees>
            </Position>
            <AltitudeMeters>752.79998779296875</AltitudeMeters>
            <DistanceMeters>NAN</DistanceMeters>
          </Trackpoint>
          <Trackpoint>
            <Time>2020-03-07T17:56:58.000Z</Time>
            <Position>
              <LatitudeDegrees>40.6268794834613800048828125</LatitudeDegrees>
              <LongitudeDegrees>-3.7305421940982341766357421875</LongitudeDegrees>
            </Position>
            <AltitudeMeters>752.5999755859375</AltitudeMeters>
            <DistanceMeters>NAN</DistanceMeters>
          </Trackpoint>
          <Trackpoint>
            <Time>2020-03-07T17:56:59.000Z</Time>
            <Position>
              <LatitudeDegrees>40.626806057989597320556640625</LatitudeDegrees>
              <LongitudeDegrees>-3.73053071089088916778564453125</LongitudeDegrees>
            </Position>
            <AltitudeMeters>752.20001220703125</AltitudeMeters>
            <DistanceMeters>NAN</DistanceMeters>
          </Trackpoint>
          <Trackpoint>
            <Time>2020-03-07T17:57:00.000Z</Time>
            <Position>
              <LatitudeDegrees>40.62673338688910007476806640625</LatitudeDegrees>
              <LongitudeDegrees>-3.73051981441676616668701171875</LongitudeDegrees>
            </Position>
            <AltitudeMeters>751.79998779296875</AltitudeMeters>
            <DistanceMeters>NAN</DistanceMeters>
          </Trackpoint>
          <Trackpoint>
            <Time>2020-03-07T17:57:01.000Z</Time>
            <Position>
              <LatitudeDegrees>40.62666147015988826751708984375</LatitudeDegrees>
              <LongitudeDegrees>-3.7305110134184360504150390625</LongitudeDegrees>
            </Position>
            <AltitudeMeters>751.4000244140625</AltitudeMeters>
            <DistanceMeters>NAN</DistanceMeters>
          </Trackpoint>
          <Trackpoint>
            <Time>2020-03-07T17:57:02.000Z</Time>
            <Position>
              <LatitudeDegrees>40.62658921815454959869384765625</LatitudeDegrees>
              <LongitudeDegrees>-3.73050053603947162628173828125</LongitudeDegrees>
            </Position>
            <AltitudeMeters>751</AltitudeMeters>
            <DistanceMeters>NAN</DistanceMeters>
          </Trackpoint>
          <Trackpoint>
            <Time>2020-03-07T17:57:03.000Z</Time>
            <Position>
              <LatitudeDegrees>40.62651763670146465301513671875</LatitudeDegrees>
              <LongitudeDegrees>-3.7304939143359661102294921875</LongitudeDegrees>
            </Position>
            <AltitudeMeters>750.5999755859375</AltitudeMeters>
            <DistanceMeters>NAN</DistanceMeters>
          </Trackpoint>
          <Trackpoint>
            <Time>2020-03-07T17:57:04.000Z</Time>
            <Position>
              <LatitudeDegrees>40.62644521705806255340576171875</LatitudeDegrees>
              <LongitudeDegrees>-3.73050154186785221099853515625</LongitudeDegrees>
            </Position>
            <AltitudeMeters>750.4000244140625</AltitudeMeters>
            <DistanceMeters>NAN</DistanceMeters>
          </Trackpoint>
          <Trackpoint>
            <Time>2020-03-07T17:57:05.000Z</Time>
            <Position>
              <LatitudeDegrees>40.6263740547001361846923828125</LatitudeDegrees>
              <LongitudeDegrees>-3.7305195629596710205078125</LongitudeDegrees>
            </Position>
            <AltitudeMeters>750.4000244140625</AltitudeMeters>
            <DistanceMeters>NAN</DistanceMeters>
          </Trackpoint>
          <Trackpoint>
            <Time>2020-03-07T17:57:06.000Z</Time>
            <Position>
              <LatitudeDegrees>40.62630071304738521575927734375</LatitudeDegrees>
              <LongitudeDegrees>-3.73054948635399341583251953125</LongitudeDegrees>
            </Position>
            <AltitudeMeters>750.4000244140625</AltitudeMeters>
            <DistanceMeters>NAN</DistanceMeters>
          </Trackpoint>
          <Trackpoint>
            <Time>2020-03-07T17:57:07.000Z</Time>
            <Position>
              <LatitudeDegrees>40.62622946687042713165283203125</LatitudeDegrees>
              <LongitudeDegrees>-3.7305824272334575653076171875</LongitudeDegrees>
            </Position>
            <AltitudeMeters>750.20001220703125</AltitudeMeters>
            <DistanceMeters>NAN</DistanceMeters>
          </Trackpoint>
          <Trackpoint>
            <Time>2020-03-07T17:57:08.000Z</Time>
            <Position>
              <LatitudeDegrees>40.62616266310214996337890625</LatitudeDegrees>
              <LongitudeDegrees>-3.73061050660908222198486328125</LongitudeDegrees>
            </Position>
            <AltitudeMeters>750.20001220703125</AltitudeMeters>
            <DistanceMeters>NAN</DistanceMeters>
          </Trackpoint>
          <Trackpoint>
            <Time>2020-03-07T17:57:09.000Z</Time>
            <Position>
              <LatitudeDegrees>40.62609569169580936431884765625</LatitudeDegrees>
              <LongitudeDegrees>-3.7306310422718524932861328125</LongitudeDegrees>
            </Position>
            <AltitudeMeters>750.20001220703125</AltitudeMeters>
            <DistanceMeters>NAN</DistanceMeters>
          </Trackpoint>
          <Trackpoint>
            <Time>2020-03-07T17:57:10.000Z</Time>
            <Position>
              <LatitudeDegrees>40.6260287202894687652587890625</LatitudeDegrees>
              <LongitudeDegrees>-3.73063690960407257080078125</LongitudeDegrees>
            </Position>
            <AltitudeMeters>750.20001220703125</AltitudeMeters>
            <DistanceMeters>NAN</DistanceMeters>
          </Trackpoint>
          <Trackpoint>
            <Time>2020-03-07T17:57:11.000Z</Time>
            <Position>
              <LatitudeDegrees>40.6259640119969844818115234375</LatitudeDegrees>
              <LongitudeDegrees>-3.73063288629055023193359375</LongitudeDegrees>
            </Position>
            <AltitudeMeters>750.20001220703125</AltitudeMeters>
            <DistanceMeters>NAN</DistanceMeters>
          </Trackpoint>
          <Trackpoint>
            <Time>2020-03-07T17:57:12.000Z</Time>
            <Position>
              <LatitudeDegrees>40.6259053386747837066650390625</LatitudeDegrees>
              <LongitudeDegrees>-3.7306243367493152618408203125</LongitudeDegrees>
            </Position>
            <AltitudeMeters>750.20001220703125</AltitudeMeters>
            <DistanceMeters>NAN</DistanceMeters>
          </Trackpoint>
          <Trackpoint>
            <Time>2020-03-07T17:57:13.000Z</Time>
            <Position>
              <LatitudeDegrees>40.6258527003228664398193359375</LatitudeDegrees>
              <LongitudeDegrees>-3.73061637394130229949951171875</LongitudeDegrees>
            </Position>
            <AltitudeMeters>750.20001220703125</AltitudeMeters>
            <DistanceMeters>NAN</DistanceMeters>
          </Trackpoint>
          <Trackpoint>
            <Time>2020-03-07T17:57:14.000Z</Time>
            <Position>
              <LatitudeDegrees>40.62579830177128314971923828125</LatitudeDegrees>
              <LongitudeDegrees>-3.73060447163879871368408203125</LongitudeDegrees>
            </Position>
            <AltitudeMeters>750.20001220703125</AltitudeMeters>
            <DistanceMeters>NAN</DistanceMeters>
          </Trackpoint>
          <Trackpoint>
            <Time>2020-03-07T17:57:15.000Z</Time>
            <Position>
              <LatitudeDegrees>40.62574231065809726715087890625</LatitudeDegrees>
              <LongitudeDegrees>-3.73058997094631195068359375</LongitudeDegrees>
            </Position>
            <AltitudeMeters>750.20001220703125</AltitudeMeters>
            <DistanceMeters>NAN</DistanceMeters>
          </Trackpoint>
          <Trackpoint>
            <Time>2020-03-07T17:57:16.000Z</Time>
            <Position>
              <LatitudeDegrees>40.62568883411586284637451171875</LatitudeDegrees>
              <LongitudeDegrees>-3.73057429678738117218017578125</LongitudeDegrees>
            </Position>
            <AltitudeMeters>750.20001220703125</AltitudeMeters>
            <DistanceMeters>NAN</DistanceMeters>
          </Trackpoint>
          <Trackpoint>
            <Time>2020-03-07T17:57:17.000Z</Time>
            <Position>
              <LatitudeDegrees>40.62563426792621612548828125</LatitudeDegrees>
              <LongitudeDegrees>-3.730558119714260101318359375</LongitudeDegrees>
            </Position>
            <AltitudeMeters>750.4000244140625</AltitudeMeters>
            <DistanceMeters>NAN</DistanceMeters>
          </Trackpoint>
          <Trackpoint>
            <Time>2020-03-07T17:57:18.000Z</Time>
            <Position>
              <LatitudeDegrees>40.62558154575526714324951171875</LatitudeDegrees>
              <LongitudeDegrees>-3.73054160736501216888427734375</LongitudeDegrees>
            </Position>
            <AltitudeMeters>750.5999755859375</AltitudeMeters>
            <DistanceMeters>NAN</DistanceMeters>
          </Trackpoint>
          <Trackpoint>
            <Time>2020-03-07T17:57:19.000Z</Time>
            <Position>
              <LatitudeDegrees>40.62552689574658870697021484375</LatitudeDegrees>
              <LongitudeDegrees>-3.7305291183292865753173828125</LongitudeDegrees>
            </Position>
            <AltitudeMeters>751</AltitudeMeters>
            <DistanceMeters>NAN</DistanceMeters>
          </Trackpoint>
          <Trackpoint>
            <Time>2020-03-07T17:57:20.000Z</Time>
            <Position>
              <LatitudeDegrees>40.6254728324711322784423828125</LatitudeDegrees>
              <LongitudeDegrees>-3.73051964677870273590087890625</LongitudeDegrees>
            </Position>
            <AltitudeMeters>751.4000244140625</AltitudeMeters>
            <DistanceMeters>NAN</DistanceMeters>
          </Trackpoint>
          <Trackpoint>
            <Time>2020-03-07T17:57:21.000Z</Time>
            <Position>
              <LatitudeDegrees>40.6254181824624538421630859375</LatitudeDegrees>
              <LongitudeDegrees>-3.7305069901049137115478515625</LongitudeDegrees>
            </Position>
            <AltitudeMeters>751.79998779296875</AltitudeMeters>
            <DistanceMeters>NAN</DistanceMeters>
          </Trackpoint>
          <Trackpoint>
            <Time>2020-03-07T17:57:22.000Z</Time>
            <Position>
              <LatitudeDegrees>40.62536336481571197509765625</LatitudeDegrees>
              <LongitudeDegrees>-3.73049475252628326416015625</LongitudeDegrees>
            </Position>
            <AltitudeMeters>752</AltitudeMeters>
            <DistanceMeters>NAN</DistanceMeters>
          </Trackpoint>
          <Trackpoint>
            <Time>2020-03-07T17:57:23.000Z</Time>
            <Position>
              <LatitudeDegrees>40.62529806979000568389892578125</LatitudeDegrees>
              <LongitudeDegrees>-3.73048000037670135498046875</LongitudeDegrees>
            </Position>
            <AltitudeMeters>752.4000244140625</AltitudeMeters>
            <DistanceMeters>NAN</DistanceMeters>
          </Trackpoint>
          <Trackpoint>
            <Time>2020-03-07T17:57:24.000Z</Time>
            <Position>
              <LatitudeDegrees>40.625240989029407501220703125</LatitudeDegrees>
              <LongitudeDegrees>-3.73046566732227802276611328125</LongitudeDegrees>
            </Position>
            <AltitudeMeters>752.79998779296875</AltitudeMeters>
            <DistanceMeters>NAN</DistanceMeters>
          </Trackpoint>
          <Trackpoint>
            <Time>2020-03-07T17:57:25.000Z</Time>
            <Position>
              <LatitudeDegrees>40.62518022023141384124755859375</LatitudeDegrees>
              <LongitudeDegrees>-3.7304553575813770294189453125</LongitudeDegrees>
            </Position>
            <AltitudeMeters>752.79998779296875</AltitudeMeters>
            <DistanceMeters>NAN</DistanceMeters>
          </Trackpoint>
          <Trackpoint>
            <Time>2020-03-07T17:57:26.000Z</Time>
            <Position>
              <LatitudeDegrees>40.6251197867095470428466796875</LatitudeDegrees>
              <LongitudeDegrees>-3.7304429523646831512451171875</LongitudeDegrees>
            </Position>
            <AltitudeMeters>752.79998779296875</AltitudeMeters>
            <DistanceMeters>NAN</DistanceMeters>
          </Trackpoint>
          <Trackpoint>
            <Time>2020-03-07T17:57:27.000Z</Time>
            <Position>
              <LatitudeDegrees>40.62506170012056827545166015625</LatitudeDegrees>
              <LongitudeDegrees>-3.73043465428054332733154296875</LongitudeDegrees>
            </Position>
            <AltitudeMeters>752.79998779296875</AltitudeMeters>
            <DistanceMeters>NAN</DistanceMeters>
          </Trackpoint>
          <Trackpoint>
            <Time>2020-03-07T17:57:28.000Z</Time>
            <Position>
              <LatitudeDegrees>40.6249994225800037384033203125</LatitudeDegrees>
              <LongitudeDegrees>-3.73042928986251354217529296875</LongitudeDegrees>
            </Position>
            <AltitudeMeters>752.79998779296875</AltitudeMeters>
            <DistanceMeters>NAN</DistanceMeters>
          </Trackpoint>
          <Trackpoint>
            <Time>2020-03-07T17:57:29.000Z</Time>
            <Position>
              <LatitudeDegrees>40.6249394081532955169677734375</LatitudeDegrees>
              <LongitudeDegrees>-3.7304225005209445953369140625</LongitudeDegrees>
            </Position>
            <AltitudeMeters>753</AltitudeMeters>
            <DistanceMeters>NAN</DistanceMeters>
          </Trackpoint>
          <Trackpoint>
            <Time>2020-03-07T17:57:30.000Z</Time>
            <Position>
              <LatitudeDegrees>40.62487511895596981048583984375</LatitudeDegrees>
              <LongitudeDegrees>-3.73041805811226367950439453125</LongitudeDegrees>
            </Position>
            <AltitudeMeters>753</AltitudeMeters>
            <DistanceMeters>NAN</DistanceMeters>
          </Trackpoint>
          <Trackpoint>
            <Time>2020-03-07T17:57:31.000Z</Time>
            <Position>
              <LatitudeDegrees>40.62481217086315155029296875</LatitudeDegrees>
              <LongitudeDegrees>-3.73041369952261447906494140625</LongitudeDegrees>
            </Position>
            <AltitudeMeters>753</AltitudeMeters>
            <DistanceMeters>NAN</DistanceMeters>
          </Trackpoint>
          <Trackpoint>
            <Time>2020-03-07T17:57:32.000Z</Time>
            <Position>
              <LatitudeDegrees>40.62475190497934818267822265625</LatitudeDegrees>
              <LongitudeDegrees>-3.730413615703582763671875</LongitudeDegrees>
            </Position>
            <AltitudeMeters>753</AltitudeMeters>
            <DistanceMeters>NAN</DistanceMeters>
          </Trackpoint>
          <Trackpoint>
            <Time>2020-03-07T17:57:33.000Z</Time>
            <Position>
              <LatitudeDegrees>40.624697841703891754150390625</LatitudeDegrees>
              <LongitudeDegrees>-3.7304174713790416717529296875</LongitudeDegrees>
            </Position>
            <AltitudeMeters>753</AltitudeMeters>
            <DistanceMeters>NAN</DistanceMeters>
          </Trackpoint>
          <Trackpoint>
            <Time>2020-03-07T17:57:34.000Z</Time>
            <Position>
              <LatitudeDegrees>40.624644197523593902587890625</LatitudeDegrees>
              <LongitudeDegrees>-3.7304238416254520416259765625</LongitudeDegrees>
            </Position>
            <AltitudeMeters>753</AltitudeMeters>
            <DistanceMeters>NAN</DistanceMeters>
          </Trackpoint>
          <Trackpoint>
            <Time>2020-03-07T17:57:35.000Z</Time>
            <Position>
              <LatitudeDegrees>40.6245944090187549591064453125</LatitudeDegrees>
              <LongitudeDegrees>-3.73043037950992584228515625</LongitudeDegrees>
            </Position>
            <AltitudeMeters>753</AltitudeMeters>
            <DistanceMeters>NAN</DistanceMeters>
          </Trackpoint>
          <Trackpoint>
            <Time>2020-03-07T17:57:36.000Z</Time>
            <Position>
              <LatitudeDegrees>40.6245444528758525848388671875</LatitudeDegrees>
              <LongitudeDegrees>-3.7304345704615116119384765625</LongitudeDegrees>
            </Position>
            <AltitudeMeters>753</AltitudeMeters>
            <DistanceMeters>NAN</DistanceMeters>
          </Trackpoint>
          <Trackpoint>
            <Time>2020-03-07T17:57:37.000Z</Time>
            <Position>
              <LatitudeDegrees>40.62449659220874309539794921875</LatitudeDegrees>
              <LongitudeDegrees>-3.730438761413097381591796875</LongitudeDegrees>
            </Position>
            <AltitudeMeters>753</AltitudeMeters>
            <DistanceMeters>NAN</DistanceMeters>
          </Trackpoint>
          <Trackpoint>
            <Time>2020-03-07T17:57:38.000Z</Time>
            <Position>
              <LatitudeDegrees>40.6244495697319507598876953125</LatitudeDegrees>
              <LongitudeDegrees>-3.73044571839272975921630859375</LongitudeDegrees>
            </Position>
            <AltitudeMeters>753</AltitudeMeters>
            <DistanceMeters>NAN</DistanceMeters>
          </Trackpoint>
          <Trackpoint>
            <Time>2020-03-07T17:57:39.000Z</Time>
            <Position>
              <LatitudeDegrees>40.62440489418804645538330078125</LatitudeDegrees>
              <LongitudeDegrees>-3.7304556928575038909912109375</LongitudeDegrees>
            </Position>
            <AltitudeMeters>753</AltitudeMeters>
            <DistanceMeters>NAN</DistanceMeters>
          </Trackpoint>
          <Trackpoint>
            <Time>2020-03-07T17:57:40.000Z</Time>
            <Position>
              <LatitudeDegrees>40.6243603862822055816650390625</LatitudeDegrees>
              <LongitudeDegrees>-3.73046700842678546905517578125</LongitudeDegrees>
            </Position>
            <AltitudeMeters>753</AltitudeMeters>
            <DistanceMeters>NAN</DistanceMeters>
          </Trackpoint>
          <Trackpoint>
            <Time>2020-03-07T17:57:41.000Z</Time>
            <Position>
              <LatitudeDegrees>40.62431721948087215423583984375</LatitudeDegrees>
              <LongitudeDegrees>-3.73047958128154277801513671875</LongitudeDegrees>
            </Position>
            <AltitudeMeters>753</AltitudeMeters>
            <DistanceMeters>NAN</DistanceMeters>
          </Trackpoint>
          <Trackpoint>
            <Time>2020-03-07T17:57:42.000Z</Time>
            <Position>
              <LatitudeDegrees>40.62427480705082416534423828125</LatitudeDegrees>
              <LongitudeDegrees>-3.7304954230785369873046875</LongitudeDegrees>
            </Position>
            <AltitudeMeters>753.20001220703125</AltitudeMeters>
            <DistanceMeters>NAN</DistanceMeters>
          </Trackpoint>
          <Trackpoint>
            <Time>2020-03-07T17:57:43.000Z</Time>
            <Position>
              <LatitudeDegrees>40.62423272989690303802490234375</LatitudeDegrees>
              <LongitudeDegrees>-3.7305123545229434967041015625</LongitudeDegrees>
            </Position>
            <AltitudeMeters>753.5999755859375</AltitudeMeters>
            <DistanceMeters>NAN</DistanceMeters>
          </Trackpoint>
          <Trackpoint>
            <Time>2020-03-07T17:57:44.000Z</Time>
            <Position>
              <LatitudeDegrees>40.62419065274298191070556640625</LatitudeDegrees>
              <LongitudeDegrees>-3.7305291183292865753173828125</LongitudeDegrees>
            </Position>
            <AltitudeMeters>754</AltitudeMeters>
            <DistanceMeters>NAN</DistanceMeters>
          </Trackpoint>
          <Trackpoint>
            <Time>2020-03-07T17:57:45.000Z</Time>
            <Position>
              <LatitudeDegrees>40.62414832413196563720703125</LatitudeDegrees>
              <LongitudeDegrees>-3.73054663650691509246826171875</LongitudeDegrees>
            </Position>
            <AltitudeMeters>754.4000244140625</AltitudeMeters>
            <DistanceMeters>NAN</DistanceMeters>
          </Trackpoint>
          <Trackpoint>
            <Time>2020-03-07T17:57:46.000Z</Time>
            <Position>
              <LatitudeDegrees>40.624106414616107940673828125</LatitudeDegrees>
              <LongitudeDegrees>-3.730565495789051055908203125</LongitudeDegrees>
            </Position>
            <AltitudeMeters>754.79998779296875</AltitudeMeters>
            <DistanceMeters>NAN</DistanceMeters>
          </Trackpoint>
          <Trackpoint>
            <Time>2020-03-07T17:57:47.000Z</Time>
            <Position>
              <LatitudeDegrees>40.624064169824123382568359375</LatitudeDegrees>
              <LongitudeDegrees>-3.73058385215699672698974609375</LongitudeDegrees>
            </Position>
            <AltitudeMeters>755.20001220703125</AltitudeMeters>
            <DistanceMeters>NAN</DistanceMeters>
          </Trackpoint>
          <Trackpoint>
            <Time>2020-03-07T17:57:48.000Z</Time>
            <Position>
              <LatitudeDegrees>40.6240217573940753936767578125</LatitudeDegrees>
              <LongitudeDegrees>-3.73059944249689579010009765625</LongitudeDegrees>
            </Position>
            <AltitudeMeters>755.79998779296875</AltitudeMeters>
            <DistanceMeters>NAN</DistanceMeters>
          </Trackpoint>
          <Trackpoint>
            <Time>2020-03-07T17:57:49.000Z</Time>
            <Position>
              <LatitudeDegrees>40.62397825531661510467529296875</LatitudeDegrees>
              <LongitudeDegrees>-3.730606734752655029296875</LongitudeDegrees>
            </Position>
            <AltitudeMeters>756</AltitudeMeters>
            <DistanceMeters>NAN</DistanceMeters>
          </Trackpoint>
          <Trackpoint>
            <Time>2020-03-07T17:57:50.000Z</Time>
            <Position>
              <LatitudeDegrees>40.623935423791408538818359375</LatitudeDegrees>
              <LongitudeDegrees>-3.73060950078070163726806640625</LongitudeDegrees>
            </Position>
            <AltitudeMeters>756.4000244140625</AltitudeMeters>
            <DistanceMeters>NAN</DistanceMeters>
          </Trackpoint>
          <Trackpoint>
            <Time>2020-03-07T17:57:51.000Z</Time>
            <Position>
              <LatitudeDegrees>40.62389275990426540374755859375</LatitudeDegrees>
              <LongitudeDegrees>-3.73061142861843109130859375</LongitudeDegrees>
            </Position>
            <AltitudeMeters>756.5999755859375</AltitudeMeters>
            <DistanceMeters>NAN</DistanceMeters>
          </Trackpoint>
          <Trackpoint>
            <Time>2020-03-07T17:57:52.000Z</Time>
            <Position>
              <LatitudeDegrees>40.62385101802647113800048828125</LatitudeDegrees>
              <LongitudeDegrees>-3.7306126020848751068115234375</LongitudeDegrees>
            </Position>
            <AltitudeMeters>757</AltitudeMeters>
            <DistanceMeters>NAN</DistanceMeters>
          </Trackpoint>
          <Trackpoint>
            <Time>2020-03-07T17:57:53.000Z</Time>
            <Position>
              <LatitudeDegrees>40.6238095276057720184326171875</LatitudeDegrees>
              <LongitudeDegrees>-3.730611763894557952880859375</LongitudeDegrees>
            </Position>
            <AltitudeMeters>757.4000244140625</AltitudeMeters>
            <DistanceMeters>NAN</DistanceMeters>
          </Trackpoint>
          <Trackpoint>
            <Time>2020-03-07T17:57:54.000Z</Time>
            <Position>
              <LatitudeDegrees>40.62376753427088260650634765625</LatitudeDegrees>
              <LongitudeDegrees>-3.7306082434952259063720703125</LongitudeDegrees>
            </Position>
            <AltitudeMeters>757.5999755859375</AltitudeMeters>
            <DistanceMeters>NAN</DistanceMeters>
          </Trackpoint>
          <Trackpoint>
            <Time>2020-03-07T17:57:55.000Z</Time>
            <Position>
              <LatitudeDegrees>40.62372386455535888671875</LatitudeDegrees>
              <LongitudeDegrees>-3.73060195706784725189208984375</LongitudeDegrees>
            </Position>
            <AltitudeMeters>757.79998779296875</AltitudeMeters>
            <DistanceMeters>NAN</DistanceMeters>
          </Trackpoint>
          <Trackpoint>
            <Time>2020-03-07T17:57:56.000Z</Time>
            <Position>
              <LatitudeDegrees>40.62367768026888370513916015625</LatitudeDegrees>
              <LongitudeDegrees>-3.73059332370758056640625</LongitudeDegrees>
            </Position>
            <AltitudeMeters>758.20001220703125</AltitudeMeters>
            <DistanceMeters>NAN</DistanceMeters>
          </Trackpoint>
          <Trackpoint>
            <Time>2020-03-07T17:57:57.000Z</Time>
            <Position>
              <LatitudeDegrees>40.62363065779209136962890625</LatitudeDegrees>
              <LongitudeDegrees>-3.7305861152708530426025390625</LongitudeDegrees>
            </Position>
            <AltitudeMeters>758.4000244140625</AltitudeMeters>
            <DistanceMeters>NAN</DistanceMeters>
          </Trackpoint>
          <Trackpoint>
            <Time>2020-03-07T17:57:58.000Z</Time>
            <Position>
              <LatitudeDegrees>40.623580701649188995361328125</LatitudeDegrees>
              <LongitudeDegrees>-3.73058167286217212677001953125</LongitudeDegrees>
            </Position>
            <AltitudeMeters>758.5999755859375</AltitudeMeters>
            <DistanceMeters>NAN</DistanceMeters>
          </Trackpoint>
          <Trackpoint>
            <Time>2020-03-07T17:57:59.000Z</Time>
            <Position>
              <LatitudeDegrees>40.6235245428979396820068359375</LatitudeDegrees>
              <LongitudeDegrees>-3.73058066703379154205322265625</LongitudeDegrees>
            </Position>
            <AltitudeMeters>758.79998779296875</AltitudeMeters>
            <DistanceMeters>NAN</DistanceMeters>
          </Trackpoint>
          <Trackpoint>
            <Time>2020-03-07T17:58:00.000Z</Time>
            <Position>
              <LatitudeDegrees>40.62346260063350200653076171875</LatitudeDegrees>
              <LongitudeDegrees>-3.73058452270925045013427734375</LongitudeDegrees>
            </Position>
            <AltitudeMeters>758.79998779296875</AltitudeMeters>
            <DistanceMeters>NAN</DistanceMeters>
          </Trackpoint>
          <Trackpoint>
            <Time>2020-03-07T17:58:01.000Z</Time>
            <Position>
              <LatitudeDegrees>40.62339504249393939971923828125</LatitudeDegrees>
              <LongitudeDegrees>-3.73059055767953395843505859375</LongitudeDegrees>
            </Position>
            <AltitudeMeters>758.79998779296875</AltitudeMeters>
            <DistanceMeters>NAN</DistanceMeters>
          </Trackpoint>
          <Trackpoint>
            <Time>2020-03-07T17:58:02.000Z</Time>
            <Position>
              <LatitudeDegrees>40.62332413159310817718505859375</LatitudeDegrees>
              <LongitudeDegrees>-3.73060011304914951324462890625</LongitudeDegrees>
            </Position>
            <AltitudeMeters>758.79998779296875</AltitudeMeters>
            <DistanceMeters>NAN</DistanceMeters>
          </Trackpoint>
          <Trackpoint>
            <Time>2020-03-07T17:58:03.000Z</Time>
            <Position>
              <LatitudeDegrees>40.62325053848326206207275390625</LatitudeDegrees>
              <LongitudeDegrees>-3.730614446103572845458984375</LongitudeDegrees>
            </Position>
            <AltitudeMeters>758.79998779296875</AltitudeMeters>
            <DistanceMeters>NAN</DistanceMeters>
          </Trackpoint>
          <Trackpoint>
            <Time>2020-03-07T17:58:04.000Z</Time>
            <Position>
              <LatitudeDegrees>40.62317426316440105438232421875</LatitudeDegrees>
              <LongitudeDegrees>-3.730635233223438262939453125</LongitudeDegrees>
            </Position>
            <AltitudeMeters>758.79998779296875</AltitudeMeters>
            <DistanceMeters>NAN</DistanceMeters>
          </Trackpoint>
          <Trackpoint>
            <Time>2020-03-07T17:58:05.000Z</Time>
            <Position>
              <LatitudeDegrees>40.6230940483510494232177734375</LatitudeDegrees>
              <LongitudeDegrees>-3.7306617200374603271484375</LongitudeDegrees>
            </Position>
            <AltitudeMeters>758.79998779296875</AltitudeMeters>
            <DistanceMeters>NAN</DistanceMeters>
          </Trackpoint>
          <Trackpoint>
            <Time>2020-03-07T17:58:06.000Z</Time>
            <Position>
              <LatitudeDegrees>40.6230105645954608917236328125</LatitudeDegrees>
              <LongitudeDegrees>-3.73069231398403644561767578125</LongitudeDegrees>
            </Position>
            <AltitudeMeters>758.79998779296875</AltitudeMeters>
            <DistanceMeters>NAN</DistanceMeters>
          </Trackpoint>
          <Trackpoint>
            <Time>2020-03-07T17:58:07.000Z</Time>
            <Position>
              <LatitudeDegrees>40.6229254044592380523681640625</LatitudeDegrees>
              <LongitudeDegrees>-3.7307265959680080413818359375</LongitudeDegrees>
            </Position>
            <AltitudeMeters>758.4000244140625</AltitudeMeters>
            <DistanceMeters>NAN</DistanceMeters>
          </Trackpoint>
          <Trackpoint>
            <Time>2020-03-07T17:58:08.000Z</Time>
            <Position>
              <LatitudeDegrees>40.62283697538077831268310546875</LatitudeDegrees>
              <LongitudeDegrees>-3.7307609617710113525390625</LongitudeDegrees>
            </Position>
            <AltitudeMeters>757.79998779296875</AltitudeMeters>
            <DistanceMeters>NAN</DistanceMeters>
          </Trackpoint>
          <Trackpoint>
            <Time>2020-03-07T17:58:09.000Z</Time>
            <Position>
              <LatitudeDegrees>40.6227433495223522186279296875</LatitudeDegrees>
              <LongitudeDegrees>-3.73079021461308002471923828125</LongitudeDegrees>
            </Position>
            <AltitudeMeters>757.4000244140625</AltitudeMeters>
            <DistanceMeters>NAN</DistanceMeters>
          </Trackpoint>
          <Trackpoint>
            <Time>2020-03-07T17:58:10.000Z</Time>
            <Position>
              <LatitudeDegrees>40.62264570035040378570556640625</LatitudeDegrees>
              <LongitudeDegrees>-3.73081100173294544219970703125</LongitudeDegrees>
            </Position>
            <AltitudeMeters>756.79998779296875</AltitudeMeters>
            <DistanceMeters>NAN</DistanceMeters>
          </Trackpoint>
          <Trackpoint>
            <Time>2020-03-07T17:58:11.000Z</Time>
            <Position>
              <LatitudeDegrees>40.62254293821752071380615234375</LatitudeDegrees>
              <LongitudeDegrees>-3.73082106001675128936767578125</LongitudeDegrees>
            </Position>
            <AltitudeMeters>756.20001220703125</AltitudeMeters>
            <DistanceMeters>NAN</DistanceMeters>
          </Trackpoint>
          <Trackpoint>
            <Time>2020-03-07T17:58:12.000Z</Time>
            <Position>
              <LatitudeDegrees>40.6224392540752887725830078125</LatitudeDegrees>
              <LongitudeDegrees>-3.7308204732835292816162109375</LongitudeDegrees>
            </Position>
            <AltitudeMeters>755.4000244140625</AltitudeMeters>
            <DistanceMeters>NAN</DistanceMeters>
          </Trackpoint>
          <Trackpoint>
            <Time>2020-03-07T17:58:13.000Z</Time>
            <Position>
              <LatitudeDegrees>40.6223363243043422698974609375</LatitudeDegrees>
              <LongitudeDegrees>-3.73081569559872150421142578125</LongitudeDegrees>
            </Position>
            <AltitudeMeters>754.5999755859375</AltitudeMeters>
            <DistanceMeters>NAN</DistanceMeters>
          </Trackpoint>
          <Trackpoint>
            <Time>2020-03-07T17:58:14.000Z</Time>
            <Position>
              <LatitudeDegrees>40.6222354061901569366455078125</LatitudeDegrees>
              <LongitudeDegrees>-3.7308087386190891265869140625</LongitudeDegrees>
            </Position>
            <AltitudeMeters>753.79998779296875</AltitudeMeters>
            <DistanceMeters>NAN</DistanceMeters>
          </Trackpoint>
          <Trackpoint>
            <Time>2020-03-07T17:58:15.000Z</Time>
            <Position>
              <LatitudeDegrees>40.6221361644566059112548828125</LatitudeDegrees>
              <LongitudeDegrees>-3.73080194927752017974853515625</LongitudeDegrees>
            </Position>
            <AltitudeMeters>753</AltitudeMeters>
            <DistanceMeters>NAN</DistanceMeters>
          </Trackpoint>
          <Trackpoint>
            <Time>2020-03-07T17:58:16.000Z</Time>
            <Position>
              <LatitudeDegrees>40.62204144895076751708984375</LatitudeDegrees>
              <LongitudeDegrees>-3.7307958304882049560546875</LongitudeDegrees>
            </Position>
            <AltitudeMeters>752</AltitudeMeters>
            <DistanceMeters>NAN</DistanceMeters>
          </Trackpoint>
          <Trackpoint>
            <Time>2020-03-07T17:58:17.000Z</Time>
            <Position>
              <LatitudeDegrees>40.6219500862061977386474609375</LatitudeDegrees>
              <LongitudeDegrees>-3.73078845441341400146484375</LongitudeDegrees>
            </Position>
            <AltitudeMeters>751.20001220703125</AltitudeMeters>
            <DistanceMeters>NAN</DistanceMeters>
          </Trackpoint>
          <Trackpoint>
            <Time>2020-03-07T17:58:18.000Z</Time>
            <Position>
              <LatitudeDegrees>40.62186299823224544525146484375</LatitudeDegrees>
              <LongitudeDegrees>-3.7307788990437984466552734375</LongitudeDegrees>
            </Position>
            <AltitudeMeters>750.4000244140625</AltitudeMeters>
            <DistanceMeters>NAN</DistanceMeters>
          </Trackpoint>
          <Trackpoint>
            <Time>2020-03-07T17:58:19.000Z</Time>
            <Position>
              <LatitudeDegrees>40.62177984975278377532958984375</LatitudeDegrees>
              <LongitudeDegrees>-3.73077093623578548431396484375</LongitudeDegrees>
            </Position>
            <AltitudeMeters>750</AltitudeMeters>
            <DistanceMeters>NAN</DistanceMeters>
          </Trackpoint>
          <Trackpoint>
            <Time>2020-03-07T17:58:20.000Z</Time>
            <Position>
              <LatitudeDegrees>40.62170122750103473663330078125</LatitudeDegrees>
              <LongitudeDegrees>-3.730763308703899383544921875</LongitudeDegrees>
            </Position>
            <AltitudeMeters>749.79998779296875</AltitudeMeters>
            <DistanceMeters>NAN</DistanceMeters>
          </Trackpoint>
          <Trackpoint>
            <Time>2020-03-07T17:58:21.000Z</Time>
            <Position>
              <LatitudeDegrees>40.621626712381839752197265625</LatitudeDegrees>
              <LongitudeDegrees>-3.7307584472000598907470703125</LongitudeDegrees>
            </Position>
            <AltitudeMeters>749.5999755859375</AltitudeMeters>
            <DistanceMeters>NAN</DistanceMeters>
          </Trackpoint>
          <Trackpoint>
            <Time>2020-03-07T17:58:22.000Z</Time>
            <Position>
              <LatitudeDegrees>40.62155689112842082977294921875</LatitudeDegrees>
              <LongitudeDegrees>-3.73075224459171295166015625</LongitudeDegrees>
            </Position>
            <AltitudeMeters>749.5999755859375</AltitudeMeters>
            <DistanceMeters>NAN</DistanceMeters>
          </Trackpoint>
          <Trackpoint>
            <Time>2020-03-07T17:58:23.000Z</Time>
            <Position>
              <LatitudeDegrees>40.62148614786565303802490234375</LatitudeDegrees>
              <LongitudeDegrees>-3.73074729926884174346923828125</LongitudeDegrees>
            </Position>
            <AltitudeMeters>749.4000244140625</AltitudeMeters>
            <DistanceMeters>NAN</DistanceMeters>
          </Trackpoint>
          <Trackpoint>
            <Time>2020-03-07T17:58:24.000Z</Time>
            <Position>
              <LatitudeDegrees>40.62141607515513896942138671875</LatitudeDegrees>
              <LongitudeDegrees>-3.73074411414563655853271484375</LongitudeDegrees>
            </Position>
            <AltitudeMeters>749.4000244140625</AltitudeMeters>
            <DistanceMeters>NAN</DistanceMeters>
          </Trackpoint>
          <Trackpoint>
            <Time>2020-03-07T17:58:25.000Z</Time>
            <Position>
              <LatitudeDegrees>40.6213445775210857391357421875</LatitudeDegrees>
              <LongitudeDegrees>-3.73074025847017765045166015625</LongitudeDegrees>
            </Position>
            <AltitudeMeters>749.4000244140625</AltitudeMeters>
            <DistanceMeters>NAN</DistanceMeters>
          </Trackpoint>
          <Trackpoint>
            <Time>2020-03-07T17:58:26.000Z</Time>
            <Position>
              <LatitudeDegrees>40.62127576209604740142822265625</LatitudeDegrees>
              <LongitudeDegrees>-3.73073791153728961944580078125</LongitudeDegrees>
            </Position>
            <AltitudeMeters>749.4000244140625</AltitudeMeters>
            <DistanceMeters>NAN</DistanceMeters>
          </Trackpoint>
          <Trackpoint>
            <Time>2020-03-07T17:58:27.000Z</Time>
            <Position>
              <LatitudeDegrees>40.62120619229972362518310546875</LatitudeDegrees>
              <LongitudeDegrees>-3.73074143193662166595458984375</LongitudeDegrees>
            </Position>
            <AltitudeMeters>749.4000244140625</AltitudeMeters>
            <DistanceMeters>NAN</DistanceMeters>
          </Trackpoint>
          <Trackpoint>
            <Time>2020-03-07T17:58:28.000Z</Time>
            <Position>
              <LatitudeDegrees>40.6211400590837001800537109375</LatitudeDegrees>
              <LongitudeDegrees>-3.73075417242944240570068359375</LongitudeDegrees>
            </Position>
            <AltitudeMeters>749.4000244140625</AltitudeMeters>
            <DistanceMeters>NAN</DistanceMeters>
          </Trackpoint>
          <Trackpoint>
            <Time>2020-03-07T17:58:29.000Z</Time>
            <Position>
              <LatitudeDegrees>40.62107979319989681243896484375</LatitudeDegrees>
              <LongitudeDegrees>-3.7307805754244327545166015625</LongitudeDegrees>
            </Position>
            <AltitudeMeters>749.5999755859375</AltitudeMeters>
            <DistanceMeters>NAN</DistanceMeters>
          </Trackpoint>
          <Trackpoint>
            <Time>2020-03-07T17:58:30.000Z</Time>
            <Position>
              <LatitudeDegrees>40.62102665193378925323486328125</LatitudeDegrees>
              <LongitudeDegrees>-3.730819635093212127685546875</LongitudeDegrees>
            </Position>
            <AltitudeMeters>749.79998779296875</AltitudeMeters>
            <DistanceMeters>NAN</DistanceMeters>
          </Trackpoint>
          <Trackpoint>
            <Time>2020-03-07T17:58:31.000Z</Time>
            <Position>
              <LatitudeDegrees>40.62097418121993541717529296875</LatitudeDegrees>
              <LongitudeDegrees>-3.73086246661841869354248046875</LongitudeDegrees>
            </Position>
            <AltitudeMeters>750</AltitudeMeters>
            <DistanceMeters>NAN</DistanceMeters>
          </Trackpoint>
          <Trackpoint>
            <Time>2020-03-07T17:58:32.000Z</Time>
            <Position>
              <LatitudeDegrees>40.62092363834381103515625</LatitudeDegrees>
              <LongitudeDegrees>-3.73090236447751522064208984375</LongitudeDegrees>
            </Position>
            <AltitudeMeters>750.20001220703125</AltitudeMeters>
            <DistanceMeters>NAN</DistanceMeters>
          </Trackpoint>
          <Trackpoint>
            <Time>2020-03-07T17:58:33.000Z</Time>
            <Position>
              <LatitudeDegrees>40.6208704970777034759521484375</LatitudeDegrees>
              <LongitudeDegrees>-3.73093455098569393157958984375</LongitudeDegrees>
            </Position>
            <AltitudeMeters>750.4000244140625</AltitudeMeters>
            <DistanceMeters>NAN</DistanceMeters>
          </Trackpoint>
          <Trackpoint>
            <Time>2020-03-07T17:58:34.000Z</Time>
            <Position>
              <LatitudeDegrees>40.62081576324999332427978515625</LatitudeDegrees>
              <LongitudeDegrees>-3.7309569306671619415283203125</LongitudeDegrees>
            </Position>
            <AltitudeMeters>750.5999755859375</AltitudeMeters>
            <DistanceMeters>NAN</DistanceMeters>
          </Trackpoint>
          <Trackpoint>
            <Time>2020-03-07T17:58:35.000Z</Time>
            <Position>
              <LatitudeDegrees>40.6207595206797122955322265625</LatitudeDegrees>
              <LongitudeDegrees>-3.73097009025514125823974609375</LongitudeDegrees>
            </Position>
            <AltitudeMeters>750.79998779296875</AltitudeMeters>
            <DistanceMeters>NAN</DistanceMeters>
          </Trackpoint>
          <Trackpoint>
            <Time>2020-03-07T17:58:36.000Z</Time>
            <Position>
              <LatitudeDegrees>40.62070512212812900543212890625</LatitudeDegrees>
              <LongitudeDegrees>-3.73097612522542476654052734375</LongitudeDegrees>
            </Position>
            <AltitudeMeters>751.20001220703125</AltitudeMeters>
            <DistanceMeters>NAN</DistanceMeters>
          </Trackpoint>
          <Trackpoint>
            <Time>2020-03-07T17:58:37.000Z</Time>
            <Position>
              <LatitudeDegrees>40.6206539086997509002685546875</LatitudeDegrees>
              <LongitudeDegrees>-3.73097394593060016632080078125</LongitudeDegrees>
            </Position>
            <AltitudeMeters>751.4000244140625</AltitudeMeters>
            <DistanceMeters>NAN</DistanceMeters>
          </Trackpoint>
          <Trackpoint>
            <Time>2020-03-07T17:58:43.000Z</Time>
            <Position>
              <LatitudeDegrees>40.6203612126410007476806640625</LatitudeDegrees>
              <LongitudeDegrees>-3.73086380772292613983154296875</LongitudeDegrees>
            </Position>
            <AltitudeMeters>752.79998779296875</AltitudeMeters>
            <DistanceMeters>NAN</DistanceMeters>
          </Trackpoint>
          <Trackpoint>
            <Time>2020-03-07T17:58:44.000Z</Time>
            <Position>
              <LatitudeDegrees>40.620374791324138641357421875</LatitudeDegrees>
              <LongitudeDegrees>-3.7309612892568111419677734375</LongitudeDegrees>
            </Position>
            <AltitudeMeters>752.79998779296875</AltitudeMeters>
            <DistanceMeters>NAN</DistanceMeters>
          </Trackpoint>
          <Trackpoint>
            <Time>2020-03-07T17:58:45.000Z</Time>
            <Position>
              <LatitudeDegrees>40.62031519599258899688720703125</LatitudeDegrees>
              <LongitudeDegrees>-3.73093974776566028594970703125</LongitudeDegrees>
            </Position>
            <AltitudeMeters>753</AltitudeMeters>
            <DistanceMeters>NAN</DistanceMeters>
          </Trackpoint>
          <Trackpoint>
            <Time>2020-03-07T17:58:46.000Z</Time>
            <Position>
              <LatitudeDegrees>40.62026917934417724609375</LatitudeDegrees>
              <LongitudeDegrees>-3.7309009395539760589599609375</LongitudeDegrees>
            </Position>
            <AltitudeMeters>753.20001220703125</AltitudeMeters>
            <DistanceMeters>NAN</DistanceMeters>
          </Trackpoint>
          <Trackpoint>
            <Time>2020-03-07T17:58:47.000Z</Time>
            <Position>
              <LatitudeDegrees>40.62021913938224315643310546875</LatitudeDegrees>
              <LongitudeDegrees>-3.73086280189454555511474609375</LongitudeDegrees>
            </Position>
            <AltitudeMeters>753.4000244140625</AltitudeMeters>
            <DistanceMeters>NAN</DistanceMeters>
          </Trackpoint>
          <Trackpoint>
            <Time>2020-03-07T17:58:48.000Z</Time>
            <Position>
              <LatitudeDegrees>40.62017102725803852081298828125</LatitudeDegrees>
              <LongitudeDegrees>-3.73081670142710208892822265625</LongitudeDegrees>
            </Position>
            <AltitudeMeters>753.5999755859375</AltitudeMeters>
            <DistanceMeters>NAN</DistanceMeters>
          </Trackpoint>
          <Trackpoint>
            <Time>2020-03-07T17:58:49.000Z</Time>
            <Position>
              <LatitudeDegrees>40.62012157402932643890380859375</LatitudeDegrees>
              <LongitudeDegrees>-3.730776049196720123291015625</LongitudeDegrees>
            </Position>
            <AltitudeMeters>753.5999755859375</AltitudeMeters>
            <DistanceMeters>NAN</DistanceMeters>
          </Trackpoint>
          <Trackpoint>
            <Time>2020-03-07T17:58:50.000Z</Time>
            <Position>
              <LatitudeDegrees>40.6200611405074596405029296875</LatitudeDegrees>
              <LongitudeDegrees>-3.7307222373783588409423828125</LongitudeDegrees>
            </Position>
            <AltitudeMeters>753.79998779296875</AltitudeMeters>
            <DistanceMeters>NAN</DistanceMeters>
          </Trackpoint>
          <Trackpoint>
            <Time>2020-03-07T17:58:51.000Z</Time>
            <Position>
              <LatitudeDegrees>40.62000422738492488861083984375</LatitudeDegrees>
              <LongitudeDegrees>-3.73067538253962993621826171875</LongitudeDegrees>
            </Position>
            <AltitudeMeters>753.79998779296875</AltitudeMeters>
            <DistanceMeters>NAN</DistanceMeters>
          </Trackpoint>
          <Trackpoint>
            <Time>2020-03-07T17:58:52.000Z</Time>
            <Position>
              <LatitudeDegrees>40.61995209194719791412353515625</LatitudeDegrees>
              <LongitudeDegrees>-3.73063934035599231719970703125</LongitudeDegrees>
            </Position>
            <AltitudeMeters>753.79998779296875</AltitudeMeters>
            <DistanceMeters>NAN</DistanceMeters>
          </Trackpoint>
          <Trackpoint>
            <Time>2020-03-07T17:58:53.000Z</Time>
            <Position>
              <LatitudeDegrees>40.61989895068109035491943359375</LatitudeDegrees>
              <LongitudeDegrees>-3.73060874640941619873046875</LongitudeDegrees>
            </Position>
            <AltitudeMeters>754</AltitudeMeters>
            <DistanceMeters>NAN</DistanceMeters>
          </Trackpoint>
          <Trackpoint>
            <Time>2020-03-07T17:58:54.000Z</Time>
            <Position>
              <LatitudeDegrees>40.6198438815772533416748046875</LatitudeDegrees>
              <LongitudeDegrees>-3.730580247938632965087890625</LongitudeDegrees>
            </Position>
            <AltitudeMeters>754.20001220703125</AltitudeMeters>
            <DistanceMeters>NAN</DistanceMeters>
          </Trackpoint>
          <Trackpoint>
            <Time>2020-03-07T17:58:55.000Z</Time>
            <Position>
              <LatitudeDegrees>40.61979786492884159088134765625</LatitudeDegrees>
              <LongitudeDegrees>-3.73056138865649700164794921875</LongitudeDegrees>
            </Position>
            <AltitudeMeters>754.4000244140625</AltitudeMeters>
            <DistanceMeters>NAN</DistanceMeters>
          </Trackpoint>
          <Trackpoint>
            <Time>2020-03-07T17:58:56.000Z</Time>
            <Position>
              <LatitudeDegrees>40.61975218355655670166015625</LatitudeDegrees>
              <LongitudeDegrees>-3.7305415235459804534912109375</LongitudeDegrees>
            </Position>
            <AltitudeMeters>754.5999755859375</AltitudeMeters>
            <DistanceMeters>NAN</DistanceMeters>
          </Trackpoint>
          <Trackpoint>
            <Time>2020-03-07T17:58:58.000Z</Time>
            <Position>
              <LatitudeDegrees>40.6196728907525539398193359375</LatitudeDegrees>
              <LongitudeDegrees>-3.730515204370021820068359375</LongitudeDegrees>
            </Position>
            <AltitudeMeters>755.20001220703125</AltitudeMeters>
            <DistanceMeters>NAN</DistanceMeters>
          </Trackpoint>
          <Trackpoint>
            <Time>2020-03-07T17:58:59.000Z</Time>
            <Position>
              <LatitudeDegrees>40.61963793821632862091064453125</LatitudeDegrees>
              <LongitudeDegrees>-3.73050590045750141143798828125</LongitudeDegrees>
            </Position>
            <AltitudeMeters>755.4000244140625</AltitudeMeters>
            <DistanceMeters>NAN</DistanceMeters>
          </Trackpoint>
          <Trackpoint>
            <Time>2020-03-07T17:59:00.000Z</Time>
            <Position>
              <LatitudeDegrees>40.61960524879395961761474609375</LatitudeDegrees>
              <LongitudeDegrees>-3.73049877583980560302734375</LongitudeDegrees>
            </Position>
            <AltitudeMeters>755.5999755859375</AltitudeMeters>
            <DistanceMeters>NAN</DistanceMeters>
          </Trackpoint>
          <Trackpoint>
            <Time>2020-03-07T17:59:01.000Z</Time>
            <Position>
              <LatitudeDegrees>40.6195491738617420196533203125</LatitudeDegrees>
              <LongitudeDegrees>-3.730475641787052154541015625</LongitudeDegrees>
            </Position>
            <AltitudeMeters>755.79998779296875</AltitudeMeters>
            <DistanceMeters>NAN</DistanceMeters>
          </Trackpoint>
          <Trackpoint>
            <Time>2020-03-07T17:59:02.000Z</Time>
            <Position>
              <LatitudeDegrees>40.6194901652634143829345703125</LatitudeDegrees>
              <LongitudeDegrees>-3.73046013526618480682373046875</LongitudeDegrees>
            </Position>
            <AltitudeMeters>756.20001220703125</AltitudeMeters>
            <DistanceMeters>NAN</DistanceMeters>
          </Trackpoint>
          <Trackpoint>
            <Time>2020-03-07T17:59:03.000Z</Time>
            <Position>
              <LatitudeDegrees>40.619433335959911346435546875</LatitudeDegrees>
              <LongitudeDegrees>-3.73044135980308055877685546875</LongitudeDegrees>
            </Position>
            <AltitudeMeters>756.4000244140625</AltitudeMeters>
            <DistanceMeters>NAN</DistanceMeters>
          </Trackpoint>
          <Trackpoint>
            <Time>2020-03-07T17:59:04.000Z</Time>
            <Position>
              <LatitudeDegrees>40.61937608756124973297119140625</LatitudeDegrees>
              <LongitudeDegrees>-3.7304208241403102874755859375</LongitudeDegrees>
            </Position>
            <AltitudeMeters>756.5999755859375</AltitudeMeters>
            <DistanceMeters>NAN</DistanceMeters>
          </Trackpoint>
          <Trackpoint>
            <Time>2020-03-07T17:59:05.000Z</Time>
            <Position>
              <LatitudeDegrees>40.619321353733539581298828125</LatitudeDegrees>
              <LongitudeDegrees>-3.73040028847754001617431640625</LongitudeDegrees>
            </Position>
            <AltitudeMeters>757.20001220703125</AltitudeMeters>
            <DistanceMeters>NAN</DistanceMeters>
          </Trackpoint>
          <Trackpoint>
            <Time>2020-03-07T17:59:06.000Z</Time>
            <Position>
              <LatitudeDegrees>40.6192688830196857452392578125</LatitudeDegrees>
              <LongitudeDegrees>-3.73038075864315032958984375</LongitudeDegrees>
            </Position>
            <AltitudeMeters>757.4000244140625</AltitudeMeters>
            <DistanceMeters>NAN</DistanceMeters>
          </Trackpoint>
          <Trackpoint>
            <Time>2020-03-07T17:59:07.000Z</Time>
            <Position>
              <LatitudeDegrees>40.61921498738229274749755859375</LatitudeDegrees>
              <LongitudeDegrees>-3.73036005534231662750244140625</LongitudeDegrees>
            </Position>
            <AltitudeMeters>757.79998779296875</AltitudeMeters>
            <DistanceMeters>NAN</DistanceMeters>
          </Trackpoint>
          <Trackpoint>
            <Time>2020-03-07T17:59:08.000Z</Time>
            <Position>
              <LatitudeDegrees>40.61916318722069263458251953125</LatitudeDegrees>
              <LongitudeDegrees>-3.73033859767019748687744140625</LongitudeDegrees>
            </Position>
            <AltitudeMeters>758</AltitudeMeters>
            <DistanceMeters>NAN</DistanceMeters>
          </Trackpoint>
          <Trackpoint>
            <Time>2020-03-07T17:59:09.000Z</Time>
            <Position>
              <LatitudeDegrees>40.61911423690617084503173828125</LatitudeDegrees>
              <LongitudeDegrees>-3.73031412251293659210205078125</LongitudeDegrees>
            </Position>
            <AltitudeMeters>758.20001220703125</AltitudeMeters>
            <DistanceMeters>NAN</DistanceMeters>
          </Trackpoint>
          <Trackpoint>
            <Time>2020-03-07T17:59:10.000Z</Time>
            <Position>
              <LatitudeDegrees>40.61906612478196620941162109375</LatitudeDegrees>
              <LongitudeDegrees>-3.730289898812770843505859375</LongitudeDegrees>
            </Position>
            <AltitudeMeters>758.4000244140625</AltitudeMeters>
            <DistanceMeters>NAN</DistanceMeters>
          </Trackpoint>
          <Trackpoint>
            <Time>2020-03-07T17:59:11.000Z</Time>
            <Position>
              <LatitudeDegrees>40.61901801265776157379150390625</LatitudeDegrees>
              <LongitudeDegrees>-3.73026601038873195648193359375</LongitudeDegrees>
            </Position>
            <AltitudeMeters>758.5999755859375</AltitudeMeters>
            <DistanceMeters>NAN</DistanceMeters>
          </Trackpoint>
          <Trackpoint>
            <Time>2020-03-07T17:59:12.000Z</Time>
            <Position>
              <LatitudeDegrees>40.61897258274257183074951171875</LatitudeDegrees>
              <LongitudeDegrees>-3.73024119995534420013427734375</LongitudeDegrees>
            </Position>
            <AltitudeMeters>758.5999755859375</AltitudeMeters>
            <DistanceMeters>NAN</DistanceMeters>
          </Trackpoint>
          <Trackpoint>
            <Time>2020-03-07T17:59:13.000Z</Time>
            <Position>
              <LatitudeDegrees>40.6189258955419063568115234375</LatitudeDegrees>
              <LongitudeDegrees>-3.73021638952195644378662109375</LongitudeDegrees>
            </Position>
            <AltitudeMeters>758.79998779296875</AltitudeMeters>
            <DistanceMeters>NAN</DistanceMeters>
          </Trackpoint>
          <Trackpoint>
            <Time>2020-03-07T17:59:14.000Z</Time>
            <Position>
              <LatitudeDegrees>40.61887954361736774444580078125</LatitudeDegrees>
              <LongitudeDegrees>-3.73019476421177387237548828125</LongitudeDegrees>
            </Position>
            <AltitudeMeters>758.79998779296875</AltitudeMeters>
            <DistanceMeters>NAN</DistanceMeters>
          </Trackpoint>
          <Trackpoint>
            <Time>2020-03-07T17:59:15.000Z</Time>
            <Position>
              <LatitudeDegrees>40.61883495189249515533447265625</LatitudeDegrees>
              <LongitudeDegrees>-3.73017682693898677825927734375</LongitudeDegrees>
            </Position>
            <AltitudeMeters>758.79998779296875</AltitudeMeters>
            <DistanceMeters>NAN</DistanceMeters>
          </Trackpoint>
          <Trackpoint>
            <Time>2020-03-07T17:59:16.000Z</Time>
            <Position>
              <LatitudeDegrees>40.618792958557605743408203125</LatitudeDegrees>
              <LongitudeDegrees>-3.7301628291606903076171875</LongitudeDegrees>
            </Position>
            <AltitudeMeters>758.79998779296875</AltitudeMeters>
            <DistanceMeters>NAN</DistanceMeters>
          </Trackpoint>
          <Trackpoint>
            <Time>2020-03-07T17:59:17.000Z</Time>
            <Position>
              <LatitudeDegrees>40.6187498755753040313720703125</LatitudeDegrees>
              <LongitudeDegrees>-3.7301502563059329986572265625</LongitudeDegrees>
            </Position>
            <AltitudeMeters>758.79998779296875</AltitudeMeters>
            <DistanceMeters>NAN</DistanceMeters>
          </Trackpoint>
          <Trackpoint>
            <Time>2020-03-07T17:59:18.000Z</Time>
            <Position>
              <LatitudeDegrees>40.6187052838504314422607421875</LatitudeDegrees>
              <LongitudeDegrees>-3.73013927601277828216552734375</LongitudeDegrees>
            </Position>
            <AltitudeMeters>758.79998779296875</AltitudeMeters>
            <DistanceMeters>NAN</DistanceMeters>
          </Trackpoint>
          <Trackpoint>
            <Time>2020-03-07T17:59:19.000Z</Time>
            <Position>
              <LatitudeDegrees>40.61865826137363910675048828125</LatitudeDegrees>
              <LongitudeDegrees>-3.7301301397383213043212890625</LongitudeDegrees>
            </Position>
            <AltitudeMeters>758.79998779296875</AltitudeMeters>
            <DistanceMeters>NAN</DistanceMeters>
          </Trackpoint>
          <Trackpoint>
            <Time>2020-03-07T17:59:20.000Z</Time>
            <Position>
              <LatitudeDegrees>40.61860478483140468597412109375</LatitudeDegrees>
              <LongitudeDegrees>-3.73012100346386432647705078125</LongitudeDegrees>
            </Position>
            <AltitudeMeters>758.79998779296875</AltitudeMeters>
            <DistanceMeters>NAN</DistanceMeters>
          </Trackpoint>
          <Trackpoint>
            <Time>2020-03-07T17:59:21.000Z</Time>
            <Position>
              <LatitudeDegrees>40.6185443513095378875732421875</LatitudeDegrees>
              <LongitudeDegrees>-3.730110190808773040771484375</LongitudeDegrees>
            </Position>
            <AltitudeMeters>758.79998779296875</AltitudeMeters>
            <DistanceMeters>NAN</DistanceMeters>
          </Trackpoint>
          <Trackpoint>
            <Time>2020-03-07T17:59:22.000Z</Time>
            <Position>
              <LatitudeDegrees>40.6184779666364192962646484375</LatitudeDegrees>
              <LongitudeDegrees>-3.730099461972713470458984375</LongitudeDegrees>
            </Position>
            <AltitudeMeters>758.79998779296875</AltitudeMeters>
            <DistanceMeters>NAN</DistanceMeters>
          </Trackpoint>
          <Trackpoint>
            <Time>2020-03-07T17:59:23.000Z</Time>
            <Position>
              <LatitudeDegrees>40.61840697191655635833740234375</LatitudeDegrees>
              <LongitudeDegrees>-3.7300838716328144073486328125</LongitudeDegrees>
            </Position>
            <AltitudeMeters>758.79998779296875</AltitudeMeters>
            <DistanceMeters>NAN</DistanceMeters>
          </Trackpoint>
          <Trackpoint>
            <Time>2020-03-07T17:59:24.000Z</Time>
            <Position>
              <LatitudeDegrees>40.6183351390063762664794921875</LatitudeDegrees>
              <LongitudeDegrees>-3.73007004149258136749267578125</LongitudeDegrees>
            </Position>
            <AltitudeMeters>758.79998779296875</AltitudeMeters>
            <DistanceMeters>NAN</DistanceMeters>
          </Trackpoint>
          <Trackpoint>
            <Time>2020-03-07T17:59:25.000Z</Time>
            <Position>
              <LatitudeDegrees>40.61826313845813274383544921875</LatitudeDegrees>
              <LongitudeDegrees>-3.730056546628475189208984375</LongitudeDegrees>
            </Position>
            <AltitudeMeters>758.79998779296875</AltitudeMeters>
            <DistanceMeters>NAN</DistanceMeters>
          </Trackpoint>
          <Trackpoint>
            <Time>2020-03-07T17:59:27.000Z</Time>
            <Position>
              <LatitudeDegrees>40.61811603605747222900390625</LatitudeDegrees>
              <LongitudeDegrees>-3.730036430060863494873046875</LongitudeDegrees>
            </Position>
            <AltitudeMeters>758.79998779296875</AltitudeMeters>
            <DistanceMeters>NAN</DistanceMeters>
          </Trackpoint>
          <Trackpoint>
            <Time>2020-03-07T17:59:28.000Z</Time>
            <Position>
              <LatitudeDegrees>40.6180538423359394073486328125</LatitudeDegrees>
              <LongitudeDegrees>-3.73002578504383563995361328125</LongitudeDegrees>
            </Position>
            <AltitudeMeters>758.5999755859375</AltitudeMeters>
            <DistanceMeters>NAN</DistanceMeters>
          </Trackpoint>
          <Trackpoint>
            <Time>2020-03-07T17:59:29.000Z</Time>
            <Position>
              <LatitudeDegrees>40.61799491755664348602294921875</LatitudeDegrees>
              <LongitudeDegrees>-3.73000768013298511505126953125</LongitudeDegrees>
            </Position>
            <AltitudeMeters>758.20001220703125</AltitudeMeters>
            <DistanceMeters>NAN</DistanceMeters>
          </Trackpoint>
          <Trackpoint>
            <Time>2020-03-07T17:59:30.000Z</Time>
            <Position>
              <LatitudeDegrees>40.61795644462108612060546875</LatitudeDegrees>
              <LongitudeDegrees>-3.73001069761812686920166015625</LongitudeDegrees>
            </Position>
            <AltitudeMeters>757.5999755859375</AltitudeMeters>
            <DistanceMeters>NAN</DistanceMeters>
          </Trackpoint>
          <Trackpoint>
            <Time>2020-03-07T17:59:31.000Z</Time>
            <Position>
              <LatitudeDegrees>40.6179076619446277618408203125</LatitudeDegrees>
              <LongitudeDegrees>-3.72999493964016437530517578125</LongitudeDegrees>
            </Position>
            <AltitudeMeters>757</AltitudeMeters>
            <DistanceMeters>NAN</DistanceMeters>
          </Trackpoint>
          <Trackpoint>
            <Time>2020-03-07T17:59:32.000Z</Time>
            <Position>
              <LatitudeDegrees>40.6178590469062328338623046875</LatitudeDegrees>
              <LongitudeDegrees>-3.72997063212096691131591796875</LongitudeDegrees>
            </Position>
            <AltitudeMeters>756.4000244140625</AltitudeMeters>
            <DistanceMeters>NAN</DistanceMeters>
          </Trackpoint>
          <Trackpoint>
            <Time>2020-03-07T17:59:33.000Z</Time>
            <Position>
              <LatitudeDegrees>40.61781001277267932891845703125</LatitudeDegrees>
              <LongitudeDegrees>-3.72994213365018367767333984375</LongitudeDegrees>
            </Position>
            <AltitudeMeters>756.4000244140625</AltitudeMeters>
            <DistanceMeters>NAN</DistanceMeters>
          </Trackpoint>
          <Trackpoint>
            <Time>2020-03-07T17:59:34.000Z</Time>
            <Position>
              <LatitudeDegrees>40.61776332557201385498046875</LatitudeDegrees>
              <LongitudeDegrees>-3.72991673648357391357421875</LongitudeDegrees>
            </Position>
            <AltitudeMeters>756.4000244140625</AltitudeMeters>
            <DistanceMeters>NAN</DistanceMeters>
          </Trackpoint>
          <Trackpoint>
            <Time>2020-03-07T17:59:35.000Z</Time>
            <Position>
              <LatitudeDegrees>40.61771814711391925811767578125</LatitudeDegrees>
              <LongitudeDegrees>-3.72989393770694732666015625</LongitudeDegrees>
            </Position>
            <AltitudeMeters>756.4000244140625</AltitudeMeters>
            <DistanceMeters>NAN</DistanceMeters>
          </Trackpoint>
          <Trackpoint>
            <Time>2020-03-07T17:59:36.000Z</Time>
            <Position>
              <LatitudeDegrees>40.61767271719872951507568359375</LatitudeDegrees>
              <LongitudeDegrees>-3.7298749946057796478271484375</LongitudeDegrees>
            </Position>
            <AltitudeMeters>756.4000244140625</AltitudeMeters>
            <DistanceMeters>NAN</DistanceMeters>
          </Trackpoint>
          <Trackpoint>
            <Time>2020-03-07T17:59:37.000Z</Time>
            <Position>
              <LatitudeDegrees>40.61762787401676177978515625</LatitudeDegrees>
              <LongitudeDegrees>-3.7298582307994365692138671875</LongitudeDegrees>
            </Position>
            <AltitudeMeters>756.4000244140625</AltitudeMeters>
            <DistanceMeters>NAN</DistanceMeters>
          </Trackpoint>
          <Trackpoint>
            <Time>2020-03-07T17:59:38.000Z</Time>
            <Position>
              <LatitudeDegrees>40.61758495867252349853515625</LatitudeDegrees>
              <LongitudeDegrees>-3.72983903624117374420166015625</LongitudeDegrees>
            </Position>
            <AltitudeMeters>756.4000244140625</AltitudeMeters>
            <DistanceMeters>NAN</DistanceMeters>
          </Trackpoint>
          <Trackpoint>
            <Time>2020-03-07T17:59:39.000Z</Time>
            <Position>
              <LatitudeDegrees>40.61754397116601467132568359375</LatitudeDegrees>
              <LongitudeDegrees>-3.729820512235164642333984375</LongitudeDegrees>
            </Position>
            <AltitudeMeters>756.4000244140625</AltitudeMeters>
            <DistanceMeters>NAN</DistanceMeters>
          </Trackpoint>
          <Trackpoint>
            <Time>2020-03-07T17:59:40.000Z</Time>
            <Position>
              <LatitudeDegrees>40.61750004999339580535888671875</LatitudeDegrees>
              <LongitudeDegrees>-3.729803748428821563720703125</LongitudeDegrees>
            </Position>
            <AltitudeMeters>756.4000244140625</AltitudeMeters>
            <DistanceMeters>NAN</DistanceMeters>
          </Trackpoint>
          <Trackpoint>
            <Time>2020-03-07T17:59:41.000Z</Time>
            <Position>
              <LatitudeDegrees>40.61745445244014263153076171875</LatitudeDegrees>
              <LongitudeDegrees>-3.72978505678474903106689453125</LongitudeDegrees>
            </Position>
            <AltitudeMeters>756.5999755859375</AltitudeMeters>
            <DistanceMeters>NAN</DistanceMeters>
          </Trackpoint>
          <Trackpoint>
            <Time>2020-03-07T17:59:42.000Z</Time>
            <Position>
              <LatitudeDegrees>40.61740650795400142669677734375</LatitudeDegrees>
              <LongitudeDegrees>-3.72976385056972503662109375</LongitudeDegrees>
            </Position>
            <AltitudeMeters>757</AltitudeMeters>
            <DistanceMeters>NAN</DistanceMeters>
          </Trackpoint>
          <Trackpoint>
            <Time>2020-03-07T17:59:43.000Z</Time>
            <Position>
              <LatitudeDegrees>40.61735588125884532928466796875</LatitudeDegrees>
              <LongitudeDegrees>-3.7297444045543670654296875</LongitudeDegrees>
            </Position>
            <AltitudeMeters>757.5999755859375</AltitudeMeters>
            <DistanceMeters>NAN</DistanceMeters>
          </Trackpoint>
          <Trackpoint>
            <Time>2020-03-07T17:59:44.000Z</Time>
            <Position>
              <LatitudeDegrees>40.61730190180242061614990234375</LatitudeDegrees>
              <LongitudeDegrees>-3.729723282158374786376953125</LongitudeDegrees>
            </Position>
            <AltitudeMeters>758</AltitudeMeters>
            <DistanceMeters>NAN</DistanceMeters>
          </Trackpoint>
          <Trackpoint>
            <Time>2020-03-07T17:59:45.000Z</Time>
            <Position>
              <LatitudeDegrees>40.617246329784393310546875</LatitudeDegrees>
              <LongitudeDegrees>-3.7297003157436847686767578125</LongitudeDegrees>
            </Position>
            <AltitudeMeters>758.20001220703125</AltitudeMeters>
            <DistanceMeters>NAN</DistanceMeters>
          </Trackpoint>
          <Trackpoint>
            <Time>2020-03-07T17:59:46.000Z</Time>
            <Position>
              <LatitudeDegrees>40.61719059012830257415771484375</LatitudeDegrees>
              <LongitudeDegrees>-3.7296748347580432891845703125</LongitudeDegrees>
            </Position>
            <AltitudeMeters>758.4000244140625</AltitudeMeters>
            <DistanceMeters>NAN</DistanceMeters>
          </Trackpoint>
          <Trackpoint>
            <Time>2020-03-07T17:59:47.000Z</Time>
            <Position>
              <LatitudeDegrees>40.61713434755802154541015625</LatitudeDegrees>
              <LongitudeDegrees>-3.729646503925323486328125</LongitudeDegrees>
            </Position>
            <AltitudeMeters>758.4000244140625</AltitudeMeters>
            <DistanceMeters>NAN</DistanceMeters>
          </Trackpoint>
          <Trackpoint>
            <Time>2020-03-07T17:59:48.000Z</Time>
            <Position>
              <LatitudeDegrees>40.61707802116870880126953125</LatitudeDegrees>
              <LongitudeDegrees>-3.72961792163550853729248046875</LongitudeDegrees>
            </Position>
            <AltitudeMeters>758.5999755859375</AltitudeMeters>
            <DistanceMeters>NAN</DistanceMeters>
          </Trackpoint>
          <Trackpoint>
            <Time>2020-03-07T17:59:49.000Z</Time>
            <Position>
              <LatitudeDegrees>40.61702144332230091094970703125</LatitudeDegrees>
              <LongitudeDegrees>-3.72959026135504245758056640625</LongitudeDegrees>
            </Position>
            <AltitudeMeters>758.5999755859375</AltitudeMeters>
            <DistanceMeters>NAN</DistanceMeters>
          </Trackpoint>
          <Trackpoint>
            <Time>2020-03-07T17:59:50.000Z</Time>
            <Position>
              <LatitudeDegrees>40.61696310527622699737548828125</LatitudeDegrees>
              <LongitudeDegrees>-3.7295620143413543701171875</LongitudeDegrees>
            </Position>
            <AltitudeMeters>758.5999755859375</AltitudeMeters>
            <DistanceMeters>NAN</DistanceMeters>
          </Trackpoint>
          <Trackpoint>
            <Time>2020-03-07T17:59:51.000Z</Time>
            <Position>
              <LatitudeDegrees>40.6169031746685504913330078125</LatitudeDegrees>
              <LongitudeDegrees>-3.729540221393108367919921875</LongitudeDegrees>
            </Position>
            <AltitudeMeters>758.5999755859375</AltitudeMeters>
            <DistanceMeters>NAN</DistanceMeters>
          </Trackpoint>
          <Trackpoint>
            <Time>2020-03-07T17:59:52.000Z</Time>
            <Position>
              <LatitudeDegrees>40.6168418191373348236083984375</LatitudeDegrees>
              <LongitudeDegrees>-3.72952270321547985076904296875</LongitudeDegrees>
            </Position>
            <AltitudeMeters>758.5999755859375</AltitudeMeters>
            <DistanceMeters>NAN</DistanceMeters>
          </Trackpoint>
          <Trackpoint>
            <Time>2020-03-07T17:59:53.000Z</Time>
            <Position>
              <LatitudeDegrees>40.61678339727222919464111328125</LatitudeDegrees>
              <LongitudeDegrees>-3.72950124554336071014404296875</LongitudeDegrees>
            </Position>
            <AltitudeMeters>758.5999755859375</AltitudeMeters>
            <DistanceMeters>NAN</DistanceMeters>
          </Trackpoint>
          <Trackpoint>
            <Time>2020-03-07T17:59:54.000Z</Time>
            <Position>
              <LatitudeDegrees>40.61673142947256565093994140625</LatitudeDegrees>
              <LongitudeDegrees>-3.72947224415838718414306640625</LongitudeDegrees>
            </Position>
            <AltitudeMeters>758.4000244140625</AltitudeMeters>
            <DistanceMeters>NAN</DistanceMeters>
          </Trackpoint>
          <Trackpoint>
            <Time>2020-03-07T17:59:55.000Z</Time>
            <Position>
              <LatitudeDegrees>40.61667979694902896881103515625</LatitudeDegrees>
              <LongitudeDegrees>-3.729435615241527557373046875</LongitudeDegrees>
            </Position>
            <AltitudeMeters>758.20001220703125</AltitudeMeters>
            <DistanceMeters>NAN</DistanceMeters>
          </Trackpoint>
          <Trackpoint>
            <Time>2020-03-07T17:59:56.000Z</Time>
            <Position>
              <LatitudeDegrees>40.6166295893490314483642578125</LatitudeDegrees>
              <LongitudeDegrees>-3.72940099798142910003662109375</LongitudeDegrees>
            </Position>
            <AltitudeMeters>758</AltitudeMeters>
            <DistanceMeters>NAN</DistanceMeters>
          </Trackpoint>
          <Trackpoint>
            <Time>2020-03-07T17:59:57.000Z</Time>
            <Position>
              <LatitudeDegrees>40.616576112806797027587890625</LatitudeDegrees>
              <LongitudeDegrees>-3.72936612926423549652099609375</LongitudeDegrees>
            </Position>
            <AltitudeMeters>758</AltitudeMeters>
            <DistanceMeters>NAN</DistanceMeters>
          </Trackpoint>
          <Trackpoint>
            <Time>2020-03-07T17:59:58.000Z</Time>
            <Position>
              <LatitudeDegrees>40.61652255244553089141845703125</LatitudeDegrees>
              <LongitudeDegrees>-3.7293348647654056549072265625</LongitudeDegrees>
            </Position>
            <AltitudeMeters>757.79998779296875</AltitudeMeters>
            <DistanceMeters>NAN</DistanceMeters>
          </Trackpoint>
          <Trackpoint>
            <Time>2020-03-07T17:59:59.000Z</Time>
            <Position>
              <LatitudeDegrees>40.61647075228393077850341796875</LatitudeDegrees>
              <LongitudeDegrees>-3.7293077073991298675537109375</LongitudeDegrees>
            </Position>
            <AltitudeMeters>757.5999755859375</AltitudeMeters>
            <DistanceMeters>NAN</DistanceMeters>
          </Trackpoint>
          <Trackpoint>
            <Time>2020-03-07T18:00:00.000Z</Time>
            <Position>
              <LatitudeDegrees>40.616418533027172088623046875</LatitudeDegrees>
              <LongitudeDegrees>-3.7292735092341899871826171875</LongitudeDegrees>
            </Position>
            <AltitudeMeters>757.4000244140625</AltitudeMeters>
            <DistanceMeters>NAN</DistanceMeters>
          </Trackpoint>
          <Trackpoint>
            <Time>2020-03-07T18:00:01.000Z</Time>
            <Position>
              <LatitudeDegrees>40.61636698432266712188720703125</LatitudeDegrees>
              <LongitudeDegrees>-3.7292336113750934600830078125</LongitudeDegrees>
            </Position>
            <AltitudeMeters>757.4000244140625</AltitudeMeters>
            <DistanceMeters>NAN</DistanceMeters>
          </Trackpoint>
          <Trackpoint>
            <Time>2020-03-07T18:00:02.000Z</Time>
            <Position>
              <LatitudeDegrees>40.6163142621517181396484375</LatitudeDegrees>
              <LongitudeDegrees>-3.72919212095439434051513671875</LongitudeDegrees>
            </Position>
            <AltitudeMeters>757.4000244140625</AltitudeMeters>
            <DistanceMeters>NAN</DistanceMeters>
          </Trackpoint>
          <Trackpoint>
            <Time>2020-03-07T18:00:03.000Z</Time>
            <Position>
              <LatitudeDegrees>40.61626003123819828033447265625</LatitudeDegrees>
              <LongitudeDegrees>-3.729152977466583251953125</LongitudeDegrees>
            </Position>
            <AltitudeMeters>757.4000244140625</AltitudeMeters>
            <DistanceMeters>NAN</DistanceMeters>
          </Trackpoint>
          <Trackpoint>
            <Time>2020-03-07T18:00:04.000Z</Time>
            <Position>
              <LatitudeDegrees>40.61620588414371013641357421875</LatitudeDegrees>
              <LongitudeDegrees>-3.7291140854358673095703125</LongitudeDegrees>
            </Position>
            <AltitudeMeters>757.4000244140625</AltitudeMeters>
            <DistanceMeters>NAN</DistanceMeters>
          </Trackpoint>
          <Trackpoint>
            <Time>2020-03-07T18:00:05.000Z</Time>
            <Position>
              <LatitudeDegrees>40.61615089885890483856201171875</LatitudeDegrees>
              <LongitudeDegrees>-3.7290770374238491058349609375</LongitudeDegrees>
            </Position>
            <AltitudeMeters>757.4000244140625</AltitudeMeters>
            <DistanceMeters>NAN</DistanceMeters>
          </Trackpoint>
          <Trackpoint>
            <Time>2020-03-07T18:00:06.000Z</Time>
            <Position>
              <LatitudeDegrees>40.61610010452568531036376953125</LatitudeDegrees>
              <LongitudeDegrees>-3.72904309071600437164306640625</LongitudeDegrees>
            </Position>
            <AltitudeMeters>757.20001220703125</AltitudeMeters>
            <DistanceMeters>NAN</DistanceMeters>
          </Trackpoint>
          <Trackpoint>
            <Time>2020-03-07T18:00:07.000Z</Time>
            <Position>
              <LatitudeDegrees>40.61605014838278293609619140625</LatitudeDegrees>
              <LongitudeDegrees>-3.7290076352655887603759765625</LongitudeDegrees>
            </Position>
            <AltitudeMeters>757.20001220703125</AltitudeMeters>
            <DistanceMeters>NAN</DistanceMeters>
          </Trackpoint>
          <Trackpoint>
            <Time>2020-03-07T18:00:08.000Z</Time>
            <Position>
              <LatitudeDegrees>40.61600253917276859283447265625</LatitudeDegrees>
              <LongitudeDegrees>-3.72897150926291942596435546875</LongitudeDegrees>
            </Position>
            <AltitudeMeters>757.20001220703125</AltitudeMeters>
            <DistanceMeters>NAN</DistanceMeters>
          </Trackpoint>
          <Trackpoint>
            <Time>2020-03-07T18:00:09.000Z</Time>
            <Position>
              <LatitudeDegrees>40.61595442704856395721435546875</LatitudeDegrees>
              <LongitudeDegrees>-3.728932701051235198974609375</LongitudeDegrees>
            </Position>
            <AltitudeMeters>757</AltitudeMeters>
            <DistanceMeters>NAN</DistanceMeters>
          </Trackpoint>
          <Trackpoint>
            <Time>2020-03-07T18:00:10.000Z</Time>
            <Position>
              <LatitudeDegrees>40.61590681783854961395263671875</LatitudeDegrees>
              <LongitudeDegrees>-3.72888953424990177154541015625</LongitudeDegrees>
            </Position>
            <AltitudeMeters>756.79998779296875</AltitudeMeters>
            <DistanceMeters>NAN</DistanceMeters>
          </Trackpoint>
          <Trackpoint>
            <Time>2020-03-07T18:00:11.000Z</Time>
            <Position>
              <LatitudeDegrees>40.61586172319948673248291015625</LatitudeDegrees>
              <LongitudeDegrees>-3.72884443961083889007568359375</LongitudeDegrees>
            </Position>
            <AltitudeMeters>756.79998779296875</AltitudeMeters>
            <DistanceMeters>NAN</DistanceMeters>
          </Trackpoint>
          <Trackpoint>
            <Time>2020-03-07T18:00:12.000Z</Time>
            <Position>
              <LatitudeDegrees>40.61581470072269439697265625</LatitudeDegrees>
              <LongitudeDegrees>-3.7287930585443973541259765625</LongitudeDegrees>
            </Position>
            <AltitudeMeters>756.5999755859375</AltitudeMeters>
            <DistanceMeters>NAN</DistanceMeters>
          </Trackpoint>
          <Trackpoint>
            <Time>2020-03-07T18:00:13.000Z</Time>
            <Position>
              <LatitudeDegrees>40.61577052809298038482666015625</LatitudeDegrees>
              <LongitudeDegrees>-3.728740252554416656494140625</LongitudeDegrees>
            </Position>
            <AltitudeMeters>756.5999755859375</AltitudeMeters>
            <DistanceMeters>NAN</DistanceMeters>
          </Trackpoint>
          <Trackpoint>
            <Time>2020-03-07T18:00:14.000Z</Time>
            <Position>
              <LatitudeDegrees>40.61572627164423465728759765625</LatitudeDegrees>
              <LongitudeDegrees>-3.72868769802153110504150390625</LongitudeDegrees>
            </Position>
            <AltitudeMeters>756.5999755859375</AltitudeMeters>
            <DistanceMeters>NAN</DistanceMeters>
          </Trackpoint>
          <Trackpoint>
            <Time>2020-03-07T18:00:15.000Z</Time>
            <Position>
              <LatitudeDegrees>40.61568268574774265289306640625</LatitudeDegrees>
              <LongitudeDegrees>-3.72863505966961383819580078125</LongitudeDegrees>
            </Position>
            <AltitudeMeters>756.5999755859375</AltitudeMeters>
            <DistanceMeters>NAN</DistanceMeters>
          </Trackpoint>
          <Trackpoint>
            <Time>2020-03-07T18:00:16.000Z</Time>
            <Position>
              <LatitudeDegrees>40.61563977040350437164306640625</LatitudeDegrees>
              <LongitudeDegrees>-3.72858074493706226348876953125</LongitudeDegrees>
            </Position>
            <AltitudeMeters>756.5999755859375</AltitudeMeters>
            <DistanceMeters>NAN</DistanceMeters>
          </Trackpoint>
          <Trackpoint>
            <Time>2020-03-07T18:00:17.000Z</Time>
            <Position>
              <LatitudeDegrees>40.615599118173122406005859375</LatitudeDegrees>
              <LongitudeDegrees>-3.72852467000484466552734375</LongitudeDegrees>
            </Position>
            <AltitudeMeters>756.4000244140625</AltitudeMeters>
            <DistanceMeters>NAN</DistanceMeters>
          </Trackpoint>
          <Trackpoint>
            <Time>2020-03-07T18:00:18.000Z</Time>
            <Position>
              <LatitudeDegrees>40.61555947177112102508544921875</LatitudeDegrees>
              <LongitudeDegrees>-3.72846557758748531341552734375</LongitudeDegrees>
            </Position>
            <AltitudeMeters>756.4000244140625</AltitudeMeters>
            <DistanceMeters>NAN</DistanceMeters>
          </Trackpoint>
          <Trackpoint>
            <Time>2020-03-07T18:00:19.000Z</Time>
            <Position>
              <LatitudeDegrees>40.61551856808364391326904296875</LatitudeDegrees>
              <LongitudeDegrees>-3.72840338386595249176025390625</LongitudeDegrees>
            </Position>
            <AltitudeMeters>756.4000244140625</AltitudeMeters>
            <DistanceMeters>NAN</DistanceMeters>
          </Trackpoint>
          <Trackpoint>
            <Time>2020-03-07T18:00:20.000Z</Time>
            <Position>
              <LatitudeDegrees>40.61547867022454738616943359375</LatitudeDegrees>
              <LongitudeDegrees>-3.7283407710492610931396484375</LongitudeDegrees>
            </Position>
            <AltitudeMeters>756.4000244140625</AltitudeMeters>
            <DistanceMeters>NAN</DistanceMeters>
          </Trackpoint>
          <Trackpoint>
            <Time>2020-03-07T18:00:21.000Z</Time>
            <Position>
              <LatitudeDegrees>40.61544229276478290557861328125</LatitudeDegrees>
              <LongitudeDegrees>-3.7282757274806499481201171875</LongitudeDegrees>
            </Position>
            <AltitudeMeters>756.4000244140625</AltitudeMeters>
            <DistanceMeters>NAN</DistanceMeters>
          </Trackpoint>
          <Trackpoint>
            <Time>2020-03-07T18:00:22.000Z</Time>
            <Position>
              <LatitudeDegrees>40.61540641821920871734619140625</LatitudeDegrees>
              <LongitudeDegrees>-3.728207163512706756591796875</LongitudeDegrees>
            </Position>
            <AltitudeMeters>756.4000244140625</AltitudeMeters>
            <DistanceMeters>NAN</DistanceMeters>
          </Trackpoint>
          <Trackpoint>
            <Time>2020-03-07T18:00:23.000Z</Time>
            <Position>
              <LatitudeDegrees>40.61537188477814197540283203125</LatitudeDegrees>
              <LongitudeDegrees>-3.7281359173357486724853515625</LongitudeDegrees>
            </Position>
            <AltitudeMeters>756.4000244140625</AltitudeMeters>
            <DistanceMeters>NAN</DistanceMeters>
          </Trackpoint>
          <Trackpoint>
            <Time>2020-03-07T18:00:24.000Z</Time>
            <Position>
              <LatitudeDegrees>40.6153391115367412567138671875</LatitudeDegrees>
              <LongitudeDegrees>-3.72806123457849025726318359375</LongitudeDegrees>
            </Position>
            <AltitudeMeters>756.20001220703125</AltitudeMeters>
            <DistanceMeters>NAN</DistanceMeters>
          </Trackpoint>
          <Trackpoint>
            <Time>2020-03-07T18:00:25.000Z</Time>
            <Position>
              <LatitudeDegrees>40.615306086838245391845703125</LatitudeDegrees>
              <LongitudeDegrees>-3.72798412106931209564208984375</LongitudeDegrees>
            </Position>
            <AltitudeMeters>756.20001220703125</AltitudeMeters>
            <DistanceMeters>NAN</DistanceMeters>
          </Trackpoint>
          <Trackpoint>
            <Time>2020-03-07T18:00:26.000Z</Time>
            <Position>
              <LatitudeDegrees>40.61527423560619354248046875</LatitudeDegrees>
              <LongitudeDegrees>-3.72790600173175334930419921875</LongitudeDegrees>
            </Position>
            <AltitudeMeters>756</AltitudeMeters>
            <DistanceMeters>NAN</DistanceMeters>
          </Trackpoint>
          <Trackpoint>
            <Time>2020-03-07T18:00:27.000Z</Time>
            <Position>
              <LatitudeDegrees>40.61524447984993457794189453125</LatitudeDegrees>
              <LongitudeDegrees>-3.72782805003225803375244140625</LongitudeDegrees>
            </Position>
            <AltitudeMeters>756</AltitudeMeters>
            <DistanceMeters>NAN</DistanceMeters>
          </Trackpoint>
          <Trackpoint>
            <Time>2020-03-07T18:00:28.000Z</Time>
            <Position>
              <LatitudeDegrees>40.61521631665527820587158203125</LatitudeDegrees>
              <LongitudeDegrees>-3.72775018215179443359375</LongitudeDegrees>
            </Position>
            <AltitudeMeters>756</AltitudeMeters>
            <DistanceMeters>NAN</DistanceMeters>
          </Trackpoint>
          <Trackpoint>
            <Time>2020-03-07T18:00:29.000Z</Time>
            <Position>
              <LatitudeDegrees>40.61518765054643154144287109375</LatitudeDegrees>
              <LongitudeDegrees>-3.72767315246164798736572265625</LongitudeDegrees>
            </Position>
            <AltitudeMeters>755.79998779296875</AltitudeMeters>
            <DistanceMeters>NAN</DistanceMeters>
          </Trackpoint>
          <Trackpoint>
            <Time>2020-03-07T18:00:30.000Z</Time>
            <Position>
              <LatitudeDegrees>40.615153200924396514892578125</LatitudeDegrees>
              <LongitudeDegrees>-3.72760199010372161865234375</LongitudeDegrees>
            </Position>
            <AltitudeMeters>755.79998779296875</AltitudeMeters>
            <DistanceMeters>NAN</DistanceMeters>
          </Trackpoint>
          <Trackpoint>
            <Time>2020-03-07T18:00:31.000Z</Time>
            <Position>
              <LatitudeDegrees>40.6151117943227291107177734375</LatitudeDegrees>
              <LongitudeDegrees>-3.727537952363491058349609375</LongitudeDegrees>
            </Position>
            <AltitudeMeters>755.79998779296875</AltitudeMeters>
            <DistanceMeters>NAN</DistanceMeters>
          </Trackpoint>
          <Trackpoint>
            <Time>2020-03-07T18:00:32.000Z</Time>
            <Position>
              <LatitudeDegrees>40.61506158672273159027099609375</LatitudeDegrees>
              <LongitudeDegrees>-3.72747953049838542938232421875</LongitudeDegrees>
            </Position>
            <AltitudeMeters>755.79998779296875</AltitudeMeters>
            <DistanceMeters>NAN</DistanceMeters>
          </Trackpoint>
          <Trackpoint>
            <Time>2020-03-07T18:00:33.000Z</Time>
            <Position>
              <LatitudeDegrees>40.61500626616179943084716796875</LatitudeDegrees>
              <LongitudeDegrees>-3.72743024490773677825927734375</LongitudeDegrees>
            </Position>
            <AltitudeMeters>755.5999755859375</AltitudeMeters>
            <DistanceMeters>NAN</DistanceMeters>
          </Trackpoint>
          <Trackpoint>
            <Time>2020-03-07T18:00:34.000Z</Time>
            <Position>
              <LatitudeDegrees>40.61494658701121807098388671875</LatitudeDegrees>
              <LongitudeDegrees>-3.727390766143798828125</LongitudeDegrees>
            </Position>
            <AltitudeMeters>755.79998779296875</AltitudeMeters>
            <DistanceMeters>NAN</DistanceMeters>
          </Trackpoint>
          <Trackpoint>
            <Time>2020-03-07T18:00:35.000Z</Time>
            <Position>
              <LatitudeDegrees>40.61488254927098751068115234375</LatitudeDegrees>
              <LongitudeDegrees>-3.72736067511141300201416015625</LongitudeDegrees>
            </Position>
            <AltitudeMeters>755.79998779296875</AltitudeMeters>
            <DistanceMeters>NAN</DistanceMeters>
          </Trackpoint>
          <Trackpoint>
            <Time>2020-03-07T18:00:36.000Z</Time>
            <Position>
              <LatitudeDegrees>40.6148164160549640655517578125</LatitudeDegrees>
              <LongitudeDegrees>-3.72733904980123043060302734375</LongitudeDegrees>
            </Position>
            <AltitudeMeters>755.5999755859375</AltitudeMeters>
            <DistanceMeters>NAN</DistanceMeters>
          </Trackpoint>
          <Trackpoint>
            <Time>2020-03-07T18:00:37.000Z</Time>
            <Position>
              <LatitudeDegrees>40.61474852263927459716796875</LatitudeDegrees>
              <LongitudeDegrees>-3.72732102870941162109375</LongitudeDegrees>
            </Position>
            <AltitudeMeters>755.4000244140625</AltitudeMeters>
            <DistanceMeters>NAN</DistanceMeters>
          </Trackpoint>
          <Trackpoint>
            <Time>2020-03-07T18:00:38.000Z</Time>
            <Position>
              <LatitudeDegrees>40.61468146741390228271484375</LatitudeDegrees>
              <LongitudeDegrees>-3.7273009121417999267578125</LongitudeDegrees>
            </Position>
            <AltitudeMeters>755.4000244140625</AltitudeMeters>
            <DistanceMeters>NAN</DistanceMeters>
          </Trackpoint>
          <Trackpoint>
            <Time>2020-03-07T18:00:39.000Z</Time>
            <Position>
              <LatitudeDegrees>40.61461516655981540679931640625</LatitudeDegrees>
              <LongitudeDegrees>-3.7272799573838710784912109375</LongitudeDegrees>
            </Position>
            <AltitudeMeters>755.20001220703125</AltitudeMeters>
            <DistanceMeters>NAN</DistanceMeters>
          </Trackpoint>
          <Trackpoint>
            <Time>2020-03-07T18:00:40.000Z</Time>
            <Position>
              <LatitudeDegrees>40.6145498715341091156005859375</LatitudeDegrees>
              <LongitudeDegrees>-3.72725741006433963775634765625</LongitudeDegrees>
            </Position>
            <AltitudeMeters>755.20001220703125</AltitudeMeters>
            <DistanceMeters>NAN</DistanceMeters>
          </Trackpoint>
          <Trackpoint>
            <Time>2020-03-07T18:00:41.000Z</Time>
            <Position>
              <LatitudeDegrees>40.6144871748983860015869140625</LatitudeDegrees>
              <LongitudeDegrees>-3.72723360545933246612548828125</LongitudeDegrees>
            </Position>
            <AltitudeMeters>755.20001220703125</AltitudeMeters>
            <DistanceMeters>NAN</DistanceMeters>
          </Trackpoint>
          <Trackpoint>
            <Time>2020-03-07T18:00:42.000Z</Time>
            <Position>
              <LatitudeDegrees>40.6144261546432971954345703125</LatitudeDegrees>
              <LongitudeDegrees>-3.72721013613045215606689453125</LongitudeDegrees>
            </Position>
            <AltitudeMeters>755</AltitudeMeters>
            <DistanceMeters>NAN</DistanceMeters>
          </Trackpoint>
          <Trackpoint>
            <Time>2020-03-07T18:00:43.000Z</Time>
            <Position>
              <LatitudeDegrees>40.61436689458787441253662109375</LatitudeDegrees>
              <LongitudeDegrees>-3.7271802127361297607421875</LongitudeDegrees>
            </Position>
            <AltitudeMeters>754.5999755859375</AltitudeMeters>
            <DistanceMeters>NAN</DistanceMeters>
          </Trackpoint>
          <Trackpoint>
            <Time>2020-03-07T18:00:44.000Z</Time>
            <Position>
              <LatitudeDegrees>40.61431266367435455322265625</LatitudeDegrees>
              <LongitudeDegrees>-3.727143667638301849365234375</LongitudeDegrees>
            </Position>
            <AltitudeMeters>754.5999755859375</AltitudeMeters>
            <DistanceMeters>NAN</DistanceMeters>
          </Trackpoint>
          <Trackpoint>
            <Time>2020-03-07T18:00:45.000Z</Time>
            <Position>
              <LatitudeDegrees>40.61426815576851367950439453125</LatitudeDegrees>
              <LongitudeDegrees>-3.7271009199321269989013671875</LongitudeDegrees>
            </Position>
            <AltitudeMeters>754.5999755859375</AltitudeMeters>
            <DistanceMeters>NAN</DistanceMeters>
          </Trackpoint>
          <Trackpoint>
            <Time>2020-03-07T18:00:46.000Z</Time>
            <Position>
              <LatitudeDegrees>40.61423412524163722991943359375</LatitudeDegrees>
              <LongitudeDegrees>-3.72704518027603626251220703125</LongitudeDegrees>
            </Position>
            <AltitudeMeters>754.4000244140625</AltitudeMeters>
            <DistanceMeters>NAN</DistanceMeters>
          </Trackpoint>
          <Trackpoint>
            <Time>2020-03-07T18:00:47.000Z</Time>
            <Position>
              <LatitudeDegrees>40.61421208083629608154296875</LatitudeDegrees>
              <LongitudeDegrees>-3.7269849143922328948974609375</LongitudeDegrees>
            </Position>
            <AltitudeMeters>754.4000244140625</AltitudeMeters>
            <DistanceMeters>NAN</DistanceMeters>
          </Trackpoint>
          <Trackpoint>
            <Time>2020-03-07T18:00:48.000Z</Time>
            <Position>
              <LatitudeDegrees>40.61420914717018604278564453125</LatitudeDegrees>
              <LongitudeDegrees>-3.7269145064055919647216796875</LongitudeDegrees>
            </Position>
            <AltitudeMeters>754.4000244140625</AltitudeMeters>
            <DistanceMeters>NAN</DistanceMeters>
          </Trackpoint>
          <Trackpoint>
            <Time>2020-03-07T18:00:49.000Z</Time>
            <Position>
              <LatitudeDegrees>40.61421367339789867401123046875</LatitudeDegrees>
              <LongitudeDegrees>-3.726840578019618988037109375</LongitudeDegrees>
            </Position>
            <AltitudeMeters>754.4000244140625</AltitudeMeters>
            <DistanceMeters>NAN</DistanceMeters>
          </Trackpoint>
          <Trackpoint>
            <Time>2020-03-07T18:00:50.000Z</Time>
            <Position>
              <LatitudeDegrees>40.6142223067581653594970703125</LatitudeDegrees>
              <LongitudeDegrees>-3.7267676554620265960693359375</LongitudeDegrees>
            </Position>
            <AltitudeMeters>754.4000244140625</AltitudeMeters>
            <DistanceMeters>NAN</DistanceMeters>
          </Trackpoint>
          <Trackpoint>
            <Time>2020-03-07T18:00:51.000Z</Time>
            <Position>
              <LatitudeDegrees>40.61423546634614467620849609375</LatitudeDegrees>
              <LongitudeDegrees>-3.7266922183334827423095703125</LongitudeDegrees>
            </Position>
            <AltitudeMeters>754.4000244140625</AltitudeMeters>
            <DistanceMeters>NAN</DistanceMeters>
          </Trackpoint>
          <Trackpoint>
            <Time>2020-03-07T18:00:52.000Z</Time>
            <Position>
              <LatitudeDegrees>40.614251978695392608642578125</LatitudeDegrees>
              <LongitudeDegrees>-3.726615943014621734619140625</LongitudeDegrees>
            </Position>
            <AltitudeMeters>754.4000244140625</AltitudeMeters>
            <DistanceMeters>NAN</DistanceMeters>
          </Trackpoint>
          <Trackpoint>
            <Time>2020-03-07T18:00:53.000Z</Time>
            <Position>
              <LatitudeDegrees>40.6142685748636722564697265625</LatitudeDegrees>
              <LongitudeDegrees>-3.7265349738299846649169921875</LongitudeDegrees>
            </Position>
            <AltitudeMeters>754.5999755859375</AltitudeMeters>
            <DistanceMeters>NAN</DistanceMeters>
          </Trackpoint>
          <Trackpoint>
            <Time>2020-03-07T18:00:54.000Z</Time>
            <Position>
              <LatitudeDegrees>40.6142886914312839508056640625</LatitudeDegrees>
              <LongitudeDegrees>-3.726450987160205841064453125</LongitudeDegrees>
            </Position>
            <AltitudeMeters>755</AltitudeMeters>
            <DistanceMeters>NAN</DistanceMeters>
          </Trackpoint>
          <Trackpoint>
            <Time>2020-03-07T18:00:55.000Z</Time>
            <Position>
              <LatitudeDegrees>40.6143061257898807525634765625</LatitudeDegrees>
              <LongitudeDegrees>-3.72636959888041019439697265625</LongitudeDegrees>
            </Position>
            <AltitudeMeters>755</AltitudeMeters>
            <DistanceMeters>NAN</DistanceMeters>
          </Trackpoint>
          <Trackpoint>
            <Time>2020-03-07T18:00:56.000Z</Time>
            <Position>
              <LatitudeDegrees>40.61432112939655780792236328125</LatitudeDegrees>
              <LongitudeDegrees>-3.726284019649028778076171875</LongitudeDegrees>
            </Position>
            <AltitudeMeters>755.20001220703125</AltitudeMeters>
            <DistanceMeters>NAN</DistanceMeters>
          </Trackpoint>
          <Trackpoint>
            <Time>2020-03-07T18:00:57.000Z</Time>
            <Position>
              <LatitudeDegrees>40.61432716436684131622314453125</LatitudeDegrees>
              <LongitudeDegrees>-3.7261986918747425079345703125</LongitudeDegrees>
            </Position>
            <AltitudeMeters>755.20001220703125</AltitudeMeters>
            <DistanceMeters>NAN</DistanceMeters>
          </Trackpoint>
          <Trackpoint>
            <Time>2020-03-07T18:00:58.000Z</Time>
            <Position>
              <LatitudeDegrees>40.6143267452716827392578125</LatitudeDegrees>
              <LongitudeDegrees>-3.72611068189144134521484375</LongitudeDegrees>
            </Position>
            <AltitudeMeters>755.20001220703125</AltitudeMeters>
            <DistanceMeters>NAN</DistanceMeters>
          </Trackpoint>
          <Trackpoint>
            <Time>2020-03-07T18:00:59.000Z</Time>
            <Position>
              <LatitudeDegrees>40.614317692816257476806640625</LatitudeDegrees>
              <LongitudeDegrees>-3.726012445986270904541015625</LongitudeDegrees>
            </Position>
            <AltitudeMeters>755.20001220703125</AltitudeMeters>
            <DistanceMeters>NAN</DistanceMeters>
          </Trackpoint>
          <Trackpoint>
            <Time>2020-03-07T18:01:00.000Z</Time>
            <Position>
              <LatitudeDegrees>40.6142967380583286285400390625</LatitudeDegrees>
              <LongitudeDegrees>-3.72591446153819561004638671875</LongitudeDegrees>
            </Position>
            <AltitudeMeters>755.20001220703125</AltitudeMeters>
            <DistanceMeters>NAN</DistanceMeters>
          </Trackpoint>
          <Trackpoint>
            <Time>2020-03-07T18:01:01.000Z</Time>
            <Position>
              <LatitudeDegrees>40.61426312662661075592041015625</LatitudeDegrees>
              <LongitudeDegrees>-3.72581555508077144622802734375</LongitudeDegrees>
            </Position>
            <AltitudeMeters>755.20001220703125</AltitudeMeters>
            <DistanceMeters>NAN</DistanceMeters>
          </Trackpoint>
          <Trackpoint>
            <Time>2020-03-07T18:01:02.000Z</Time>
            <Position>
              <LatitudeDegrees>40.614213757216930389404296875</LatitudeDegrees>
              <LongitudeDegrees>-3.7257182411849498748779296875</LongitudeDegrees>
            </Position>
            <AltitudeMeters>755.20001220703125</AltitudeMeters>
            <DistanceMeters>NAN</DistanceMeters>
          </Trackpoint>
          <Trackpoint>
            <Time>2020-03-07T18:01:03.000Z</Time>
            <Position>
              <LatitudeDegrees>40.614149384200572967529296875</LatitudeDegrees>
              <LongitudeDegrees>-3.7256257049739360809326171875</LongitudeDegrees>
            </Position>
            <AltitudeMeters>755.20001220703125</AltitudeMeters>
            <DistanceMeters>NAN</DistanceMeters>
          </Trackpoint>
          <Trackpoint>
            <Time>2020-03-07T18:01:04.000Z</Time>
            <Position>
              <LatitudeDegrees>40.61407671310007572174072265625</LatitudeDegrees>
              <LongitudeDegrees>-3.72553844936192035675048828125</LongitudeDegrees>
            </Position>
            <AltitudeMeters>755</AltitudeMeters>
            <DistanceMeters>NAN</DistanceMeters>
          </Trackpoint>
          <Trackpoint>
            <Time>2020-03-07T18:01:05.000Z</Time>
            <Position>
              <LatitudeDegrees>40.6139973364770412445068359375</LatitudeDegrees>
              <LongitudeDegrees>-3.72545043937861919403076171875</LongitudeDegrees>
            </Position>
            <AltitudeMeters>754.5999755859375</AltitudeMeters>
            <DistanceMeters>NAN</DistanceMeters>
          </Trackpoint>
          <Trackpoint>
            <Time>2020-03-07T18:01:06.000Z</Time>
            <Position>
              <LatitudeDegrees>40.61391393654048442840576171875</LatitudeDegrees>
              <LongitudeDegrees>-3.72536209411919116973876953125</LongitudeDegrees>
            </Position>
            <AltitudeMeters>754.20001220703125</AltitudeMeters>
            <DistanceMeters>NAN</DistanceMeters>
          </Trackpoint>
          <Trackpoint>
            <Time>2020-03-07T18:01:07.000Z</Time>
            <Position>
              <LatitudeDegrees>40.61382777057588100433349609375</LatitudeDegrees>
              <LongitudeDegrees>-3.72527249157428741455078125</LongitudeDegrees>
            </Position>
            <AltitudeMeters>753.5999755859375</AltitudeMeters>
            <DistanceMeters>NAN</DistanceMeters>
          </Trackpoint>
          <Trackpoint>
            <Time>2020-03-07T18:01:08.000Z</Time>
            <Position>
              <LatitudeDegrees>40.61373867094516754150390625</LatitudeDegrees>
              <LongitudeDegrees>-3.7251841463148593902587890625</LongitudeDegrees>
            </Position>
            <AltitudeMeters>753</AltitudeMeters>
            <DistanceMeters>NAN</DistanceMeters>
          </Trackpoint>
          <Trackpoint>
            <Time>2020-03-07T18:01:09.000Z</Time>
            <Position>
              <LatitudeDegrees>40.6136452965438365936279296875</LatitudeDegrees>
              <LongitudeDegrees>-3.725094459950923919677734375</LongitudeDegrees>
            </Position>
            <AltitudeMeters>752.20001220703125</AltitudeMeters>
            <DistanceMeters>NAN</DistanceMeters>
          </Trackpoint>
          <Trackpoint>
            <Time>2020-03-07T18:01:10.000Z</Time>
            <Position>
              <LatitudeDegrees>40.613547898828983306884765625</LatitudeDegrees>
              <LongitudeDegrees>-3.72501097619533538818359375</LongitudeDegrees>
            </Position>
            <AltitudeMeters>751.5999755859375</AltitudeMeters>
            <DistanceMeters>NAN</DistanceMeters>
          </Trackpoint>
          <Trackpoint>
            <Time>2020-03-07T18:01:11.000Z</Time>
            <Position>
              <LatitudeDegrees>40.613448321819305419921875</LatitudeDegrees>
              <LongitudeDegrees>-3.72493159957230091094970703125</LongitudeDegrees>
            </Position>
            <AltitudeMeters>750.4000244140625</AltitudeMeters>
            <DistanceMeters>NAN</DistanceMeters>
          </Trackpoint>
          <Trackpoint>
            <Time>2020-03-07T18:01:12.000Z</Time>
            <Position>
              <LatitudeDegrees>40.6133489124476909637451171875</LatitudeDegrees>
              <LongitudeDegrees>-3.72485297732055187225341796875</LongitudeDegrees>
            </Position>
            <AltitudeMeters>749.20001220703125</AltitudeMeters>
            <DistanceMeters>NAN</DistanceMeters>
          </Trackpoint>
          <Trackpoint>
            <Time>2020-03-07T18:01:13.000Z</Time>
            <Position>
              <LatitudeDegrees>40.61324941925704479217529296875</LatitudeDegrees>
              <LongitudeDegrees>-3.72477519325911998748779296875</LongitudeDegrees>
            </Position>
            <AltitudeMeters>748.20001220703125</AltitudeMeters>
            <DistanceMeters>NAN</DistanceMeters>
          </Trackpoint>
          <Trackpoint>
            <Time>2020-03-07T18:01:14.000Z</Time>
            <Position>
              <LatitudeDegrees>40.613152943551540374755859375</LatitudeDegrees>
              <LongitudeDegrees>-3.724698834121227264404296875</LongitudeDegrees>
            </Position>
            <AltitudeMeters>747.20001220703125</AltitudeMeters>
            <DistanceMeters>NAN</DistanceMeters>
          </Trackpoint>
          <Trackpoint>
            <Time>2020-03-07T18:01:15.000Z</Time>
            <Position>
              <LatitudeDegrees>40.6130585633218288421630859375</LatitudeDegrees>
              <LongitudeDegrees>-3.72462582774460315704345703125</LongitudeDegrees>
            </Position>
            <AltitudeMeters>746.20001220703125</AltitudeMeters>
            <DistanceMeters>NAN</DistanceMeters>
          </Trackpoint>
          <Trackpoint>
            <Time>2020-03-07T18:01:16.000Z</Time>
            <Position>
              <LatitudeDegrees>40.6129673682153224945068359375</LatitudeDegrees>
              <LongitudeDegrees>-3.72455508448183536529541015625</LongitudeDegrees>
            </Position>
            <AltitudeMeters>745.20001220703125</AltitudeMeters>
            <DistanceMeters>NAN</DistanceMeters>
          </Trackpoint>
          <Trackpoint>
            <Time>2020-03-07T18:01:17.000Z</Time>
            <Position>
              <LatitudeDegrees>40.61287843622267246246337890625</LatitudeDegrees>
              <LongitudeDegrees>-3.7244844250380992889404296875</LongitudeDegrees>
            </Position>
            <AltitudeMeters>744.4000244140625</AltitudeMeters>
            <DistanceMeters>NAN</DistanceMeters>
          </Trackpoint>
          <Trackpoint>
            <Time>2020-03-07T18:01:18.000Z</Time>
            <Position>
              <LatitudeDegrees>40.612793862819671630859375</LatitudeDegrees>
              <LongitudeDegrees>-3.72441527433693408966064453125</LongitudeDegrees>
            </Position>
            <AltitudeMeters>743.20001220703125</AltitudeMeters>
            <DistanceMeters>NAN</DistanceMeters>
          </Trackpoint>
          <Trackpoint>
            <Time>2020-03-07T18:01:19.000Z</Time>
            <Position>
              <LatitudeDegrees>40.612714402377605438232421875</LatitudeDegrees>
              <LongitudeDegrees>-3.7243472971022129058837890625</LongitudeDegrees>
            </Position>
            <AltitudeMeters>742.20001220703125</AltitudeMeters>
            <DistanceMeters>NAN</DistanceMeters>
          </Trackpoint>
          <Trackpoint>
            <Time>2020-03-07T18:01:20.000Z</Time>
            <Position>
              <LatitudeDegrees>40.61263988725841045379638671875</LatitudeDegrees>
              <LongitudeDegrees>-3.72428636066615581512451171875</LongitudeDegrees>
            </Position>
            <AltitudeMeters>741.79998779296875</AltitudeMeters>
            <DistanceMeters>NAN</DistanceMeters>
          </Trackpoint>
          <Trackpoint>
            <Time>2020-03-07T18:01:21.000Z</Time>
            <Position>
              <LatitudeDegrees>40.6125653721392154693603515625</LatitudeDegrees>
              <LongitudeDegrees>-3.72422550804913043975830078125</LongitudeDegrees>
            </Position>
            <AltitudeMeters>741.4000244140625</AltitudeMeters>
            <DistanceMeters>NAN</DistanceMeters>
          </Trackpoint>
          <Trackpoint>
            <Time>2020-03-07T18:01:22.000Z</Time>
            <Position>
              <LatitudeDegrees>40.612493790686130523681640625</LatitudeDegrees>
              <LongitudeDegrees>-3.7241680920124053955078125</LongitudeDegrees>
            </Position>
            <AltitudeMeters>741.4000244140625</AltitudeMeters>
            <DistanceMeters>NAN</DistanceMeters>
          </Trackpoint>
          <Trackpoint>
            <Time>2020-03-07T18:01:23.000Z</Time>
            <Position>
              <LatitudeDegrees>40.61242765747010707855224609375</LatitudeDegrees>
              <LongitudeDegrees>-3.7241139449179172515869140625</LongitudeDegrees>
            </Position>
            <AltitudeMeters>741.20001220703125</AltitudeMeters>
            <DistanceMeters>NAN</DistanceMeters>
          </Trackpoint>
          <Trackpoint>
            <Time>2020-03-07T18:01:24.000Z</Time>
            <Position>
              <LatitudeDegrees>40.61236345209181308746337890625</LatitudeDegrees>
              <LongitudeDegrees>-3.72406415641307830810546875</LongitudeDegrees>
            </Position>
            <AltitudeMeters>741.20001220703125</AltitudeMeters>
            <DistanceMeters>NAN</DistanceMeters>
          </Trackpoint>
          <Trackpoint>
            <Time>2020-03-07T18:01:25.000Z</Time>
            <Position>
              <LatitudeDegrees>40.61230125837028026580810546875</LatitudeDegrees>
              <LongitudeDegrees>-3.7240170501172542572021484375</LongitudeDegrees>
            </Position>
            <AltitudeMeters>741.20001220703125</AltitudeMeters>
            <DistanceMeters>NAN</DistanceMeters>
          </Trackpoint>
          <Trackpoint>
            <Time>2020-03-07T18:01:26.000Z</Time>
            <Position>
              <LatitudeDegrees>40.61223990283906459808349609375</LatitudeDegrees>
              <LongitudeDegrees>-3.723968602716922760009765625</LongitudeDegrees>
            </Position>
            <AltitudeMeters>741.20001220703125</AltitudeMeters>
            <DistanceMeters>NAN</DistanceMeters>
          </Trackpoint>
          <Trackpoint>
            <Time>2020-03-07T18:01:27.000Z</Time>
            <Position>
              <LatitudeDegrees>40.61218122951686382293701171875</LatitudeDegrees>
              <LongitudeDegrees>-3.72392610646784305572509765625</LongitudeDegrees>
            </Position>
            <AltitudeMeters>741.20001220703125</AltitudeMeters>
            <DistanceMeters>NAN</DistanceMeters>
          </Trackpoint>
          <Trackpoint>
            <Time>2020-03-07T18:01:28.000Z</Time>
            <Position>
              <LatitudeDegrees>40.61212423257529735565185546875</LatitudeDegrees>
              <LongitudeDegrees>-3.72388176620006561279296875</LongitudeDegrees>
            </Position>
            <AltitudeMeters>741.20001220703125</AltitudeMeters>
            <DistanceMeters>NAN</DistanceMeters>
          </Trackpoint>
          <Trackpoint>
            <Time>2020-03-07T18:01:29.000Z</Time>
            <Position>
              <LatitudeDegrees>40.61207159422338008880615234375</LatitudeDegrees>
              <LongitudeDegrees>-3.7238363362848758697509765625</LongitudeDegrees>
            </Position>
            <AltitudeMeters>741.4000244140625</AltitudeMeters>
            <DistanceMeters>NAN</DistanceMeters>
          </Trackpoint>
          <Trackpoint>
            <Time>2020-03-07T18:01:30.000Z</Time>
            <Position>
              <LatitudeDegrees>40.6120195426046848297119140625</LatitudeDegrees>
              <LongitudeDegrees>-3.723790906369686126708984375</LongitudeDegrees>
            </Position>
            <AltitudeMeters>741.5999755859375</AltitudeMeters>
            <DistanceMeters>NAN</DistanceMeters>
          </Trackpoint>
          <Trackpoint>
            <Time>2020-03-07T18:01:31.000Z</Time>
            <Position>
              <LatitudeDegrees>40.6119699217379093170166015625</LatitudeDegrees>
              <LongitudeDegrees>-3.72375033795833587646484375</LongitudeDegrees>
            </Position>
            <AltitudeMeters>741.79998779296875</AltitudeMeters>
            <DistanceMeters>NAN</DistanceMeters>
          </Trackpoint>
          <Trackpoint>
            <Time>2020-03-07T18:01:32.000Z</Time>
            <Position>
              <LatitudeDegrees>40.6119206361472606658935546875</LatitudeDegrees>
              <LongitudeDegrees>-3.72371278703212738037109375</LongitudeDegrees>
            </Position>
            <AltitudeMeters>742.20001220703125</AltitudeMeters>
            <DistanceMeters>NAN</DistanceMeters>
          </Trackpoint>
          <Trackpoint>
            <Time>2020-03-07T18:01:33.000Z</Time>
            <Position>
              <LatitudeDegrees>40.61187512241303920745849609375</LatitudeDegrees>
              <LongitudeDegrees>-3.72368152253329753875732421875</LongitudeDegrees>
            </Position>
            <AltitudeMeters>742.4000244140625</AltitudeMeters>
            <DistanceMeters>NAN</DistanceMeters>
          </Trackpoint>
          <Trackpoint>
            <Time>2020-03-07T18:01:34.000Z</Time>
            <Position>
              <LatitudeDegrees>40.61183069832623004913330078125</LatitudeDegrees>
              <LongitudeDegrees>-3.72364967130124568939208984375</LongitudeDegrees>
            </Position>
            <AltitudeMeters>742.79998779296875</AltitudeMeters>
            <DistanceMeters>NAN</DistanceMeters>
          </Trackpoint>
          <Trackpoint>
            <Time>2020-03-07T18:01:35.000Z</Time>
            <Position>
              <LatitudeDegrees>40.611787028610706329345703125</LatitudeDegrees>
              <LongitudeDegrees>-3.7236194126307964324951171875</LongitudeDegrees>
            </Position>
            <AltitudeMeters>743.20001220703125</AltitudeMeters>
            <DistanceMeters>NAN</DistanceMeters>
          </Trackpoint>
          <Trackpoint>
            <Time>2020-03-07T18:01:36.000Z</Time>
            <Position>
              <LatitudeDegrees>40.61174637638032436370849609375</LatitudeDegrees>
              <LongitudeDegrees>-3.7235919199883937835693359375</LongitudeDegrees>
            </Position>
            <AltitudeMeters>743.5999755859375</AltitudeMeters>
            <DistanceMeters>NAN</DistanceMeters>
          </Trackpoint>
          <Trackpoint>
            <Time>2020-03-07T18:01:37.000Z</Time>
            <Position>
              <LatitudeDegrees>40.61170547269284725189208984375</LatitudeDegrees>
              <LongitudeDegrees>-3.723567612469196319580078125</LongitudeDegrees>
            </Position>
            <AltitudeMeters>743.79998779296875</AltitudeMeters>
            <DistanceMeters>NAN</DistanceMeters>
          </Trackpoint>
          <Trackpoint>
            <Time>2020-03-07T18:01:38.000Z</Time>
            <Position>
              <LatitudeDegrees>40.611663646996021270751953125</LatitudeDegrees>
              <LongitudeDegrees>-3.723543472588062286376953125</LongitudeDegrees>
            </Position>
            <AltitudeMeters>744.20001220703125</AltitudeMeters>
            <DistanceMeters>NAN</DistanceMeters>
          </Trackpoint>
          <Trackpoint>
            <Time>2020-03-07T18:01:39.000Z</Time>
            <Position>
              <LatitudeDegrees>40.61161997728049755096435546875</LatitudeDegrees>
              <LongitudeDegrees>-3.72351841069757938385009765625</LongitudeDegrees>
            </Position>
            <AltitudeMeters>744.5999755859375</AltitudeMeters>
            <DistanceMeters>NAN</DistanceMeters>
          </Trackpoint>
          <Trackpoint>
            <Time>2020-03-07T18:01:40.000Z</Time>
            <Position>
              <LatitudeDegrees>40.61157689429819583892822265625</LatitudeDegrees>
              <LongitudeDegrees>-3.723493851721286773681640625</LongitudeDegrees>
            </Position>
            <AltitudeMeters>744.79998779296875</AltitudeMeters>
            <DistanceMeters>NAN</DistanceMeters>
          </Trackpoint>
          <Trackpoint>
            <Time>2020-03-07T18:01:41.000Z</Time>
            <Position>
              <LatitudeDegrees>40.61153297312557697296142578125</LatitudeDegrees>
              <LongitudeDegrees>-3.7234698794782161712646484375</LongitudeDegrees>
            </Position>
            <AltitudeMeters>745.20001220703125</AltitudeMeters>
            <DistanceMeters>NAN</DistanceMeters>
          </Trackpoint>
          <Trackpoint>
            <Time>2020-03-07T18:01:42.000Z</Time>
            <Position>
              <LatitudeDegrees>40.6114871241152286529541015625</LatitudeDegrees>
              <LongitudeDegrees>-3.72344858944416046142578125</LongitudeDegrees>
            </Position>
            <AltitudeMeters>745.79998779296875</AltitudeMeters>
            <DistanceMeters>NAN</DistanceMeters>
          </Trackpoint>
          <Trackpoint>
            <Time>2020-03-07T18:01:43.000Z</Time>
            <Position>
              <LatitudeDegrees>40.61143976636230945587158203125</LatitudeDegrees>
              <LongitudeDegrees>-3.72342771850526332855224609375</LongitudeDegrees>
            </Position>
            <AltitudeMeters>746.20001220703125</AltitudeMeters>
            <DistanceMeters>NAN</DistanceMeters>
          </Trackpoint>
          <Trackpoint>
            <Time>2020-03-07T18:01:44.000Z</Time>
            <Position>
              <LatitudeDegrees>40.61139039695262908935546875</LatitudeDegrees>
              <LongitudeDegrees>-3.7234055064618587493896484375</LongitudeDegrees>
            </Position>
            <AltitudeMeters>746.4000244140625</AltitudeMeters>
            <DistanceMeters>NAN</DistanceMeters>
          </Trackpoint>
          <Trackpoint>
            <Time>2020-03-07T18:01:45.000Z</Time>
            <Position>
              <LatitudeDegrees>40.611339770257472991943359375</LatitudeDegrees>
              <LongitudeDegrees>-3.7233806960284709930419921875</LongitudeDegrees>
            </Position>
            <AltitudeMeters>746.79998779296875</AltitudeMeters>
            <DistanceMeters>NAN</DistanceMeters>
          </Trackpoint>
          <Trackpoint>
            <Time>2020-03-07T18:01:46.000Z</Time>
            <Position>
              <LatitudeDegrees>40.61129023320972919464111328125</LatitudeDegrees>
              <LongitudeDegrees>-3.72335731051862239837646484375</LongitudeDegrees>
            </Position>
            <AltitudeMeters>747</AltitudeMeters>
            <DistanceMeters>NAN</DistanceMeters>
          </Trackpoint>
          <Trackpoint>
            <Time>2020-03-07T18:01:47.000Z</Time>
            <Position>
              <LatitudeDegrees>40.61124279163777828216552734375</LatitudeDegrees>
              <LongitudeDegrees>-3.7233354337513446807861328125</LongitudeDegrees>
            </Position>
            <AltitudeMeters>747.20001220703125</AltitudeMeters>
            <DistanceMeters>NAN</DistanceMeters>
          </Trackpoint>
          <Trackpoint>
            <Time>2020-03-07T18:01:48.000Z</Time>
            <Position>
              <LatitudeDegrees>40.6111964397132396697998046875</LatitudeDegrees>
              <LongitudeDegrees>-3.7233112938702106475830078125</LongitudeDegrees>
            </Position>
            <AltitudeMeters>747.4000244140625</AltitudeMeters>
            <DistanceMeters>NAN</DistanceMeters>
          </Trackpoint>
          <Trackpoint>
            <Time>2020-03-07T18:01:49.000Z</Time>
            <Position>
              <LatitudeDegrees>40.61114941723644733428955078125</LatitudeDegrees>
              <LongitudeDegrees>-3.723284639418125152587890625</LongitudeDegrees>
            </Position>
            <AltitudeMeters>747.5999755859375</AltitudeMeters>
            <DistanceMeters>NAN</DistanceMeters>
          </Trackpoint>
          <Trackpoint>
            <Time>2020-03-07T18:01:50.000Z</Time>
            <Position>
              <LatitudeDegrees>40.61109996400773525238037109375</LatitudeDegrees>
              <LongitudeDegrees>-3.72325371019542217254638671875</LongitudeDegrees>
            </Position>
            <AltitudeMeters>747.5999755859375</AltitudeMeters>
            <DistanceMeters>NAN</DistanceMeters>
          </Trackpoint>
          <Trackpoint>
            <Time>2020-03-07T18:01:51.000Z</Time>
            <Position>
              <LatitudeDegrees>40.6110472418367862701416015625</LatitudeDegrees>
              <LongitudeDegrees>-3.7232197634875774383544921875</LongitudeDegrees>
            </Position>
            <AltitudeMeters>747.5999755859375</AltitudeMeters>
            <DistanceMeters>NAN</DistanceMeters>
          </Trackpoint>
          <Trackpoint>
            <Time>2020-03-07T18:01:52.000Z</Time>
            <Position>
              <LatitudeDegrees>40.6109939329326152801513671875</LatitudeDegrees>
              <LongitudeDegrees>-3.72318682260811328887939453125</LongitudeDegrees>
            </Position>
            <AltitudeMeters>747.5999755859375</AltitudeMeters>
            <DistanceMeters>NAN</DistanceMeters>
          </Trackpoint>
          <Trackpoint>
            <Time>2020-03-07T18:01:53.000Z</Time>
            <Position>
              <LatitudeDegrees>40.61094255186617374420166015625</LatitudeDegrees>
              <LongitudeDegrees>-3.72315463609993457794189453125</LongitudeDegrees>
            </Position>
            <AltitudeMeters>747.5999755859375</AltitudeMeters>
            <DistanceMeters>NAN</DistanceMeters>
          </Trackpoint>
          <Trackpoint>
            <Time>2020-03-07T18:01:54.000Z</Time>
            <Position>
              <LatitudeDegrees>40.610889829695224761962890625</LatitudeDegrees>
              <LongitudeDegrees>-3.72312177903950214385986328125</LongitudeDegrees>
            </Position>
            <AltitudeMeters>747.5999755859375</AltitudeMeters>
            <DistanceMeters>NAN</DistanceMeters>
          </Trackpoint>
          <Trackpoint>
            <Time>2020-03-07T18:01:55.000Z</Time>
            <Position>
              <LatitudeDegrees>40.61083509586751461029052734375</LatitudeDegrees>
              <LongitudeDegrees>-3.7230866588652133941650390625</LongitudeDegrees>
            </Position>
            <AltitudeMeters>747.5999755859375</AltitudeMeters>
            <DistanceMeters>NAN</DistanceMeters>
          </Trackpoint>
          <Trackpoint>
            <Time>2020-03-07T18:01:56.000Z</Time>
            <Position>
              <LatitudeDegrees>40.61077776364982128143310546875</LatitudeDegrees>
              <LongitudeDegrees>-3.72305220924317836761474609375</LongitudeDegrees>
            </Position>
            <AltitudeMeters>747.5999755859375</AltitudeMeters>
            <DistanceMeters>NAN</DistanceMeters>
          </Trackpoint>
          <Trackpoint>
            <Time>2020-03-07T18:01:57.000Z</Time>
            <Position>
              <LatitudeDegrees>40.61071984469890594482421875</LatitudeDegrees>
              <LongitudeDegrees>-3.72301943600177764892578125</LongitudeDegrees>
            </Position>
            <AltitudeMeters>747.5999755859375</AltitudeMeters>
            <DistanceMeters>NAN</DistanceMeters>
          </Trackpoint>
          <Trackpoint>
            <Time>2020-03-07T18:01:58.000Z</Time>
            <Position>
              <LatitudeDegrees>40.61066293157637119293212890625</LatitudeDegrees>
              <LongitudeDegrees>-3.72298724949359893798828125</LongitudeDegrees>
            </Position>
            <AltitudeMeters>747.5999755859375</AltitudeMeters>
            <DistanceMeters>NAN</DistanceMeters>
          </Trackpoint>
          <Trackpoint>
            <Time>2020-03-07T18:01:59.000Z</Time>
            <Position>
              <LatitudeDegrees>40.610612891614437103271484375</LatitudeDegrees>
              <LongitudeDegrees>-3.7229528836905956268310546875</LongitudeDegrees>
            </Position>
            <AltitudeMeters>747.5999755859375</AltitudeMeters>
            <DistanceMeters>NAN</DistanceMeters>
          </Trackpoint>
          <Trackpoint>
            <Time>2020-03-07T18:02:00.000Z</Time>
            <Position>
              <LatitudeDegrees>40.6105657853186130523681640625</LatitudeDegrees>
              <LongitudeDegrees>-3.7229186855256557464599609375</LongitudeDegrees>
            </Position>
            <AltitudeMeters>747.4000244140625</AltitudeMeters>
            <DistanceMeters>NAN</DistanceMeters>
          </Trackpoint>
          <Trackpoint>
            <Time>2020-03-07T18:02:03.000Z</Time>
            <Position>
              <LatitudeDegrees>40.61044751666486263275146484375</LatitudeDegrees>
              <LongitudeDegrees>-3.7227725051343441009521484375</LongitudeDegrees>
            </Position>
            <AltitudeMeters>746.5999755859375</AltitudeMeters>
            <DistanceMeters>NAN</DistanceMeters>
          </Trackpoint>
          <Trackpoint>
            <Time>2020-03-07T18:02:04.000Z</Time>
            <Position>
              <LatitudeDegrees>40.6104159168899059295654296875</LatitudeDegrees>
              <LongitudeDegrees>-3.722726739943027496337890625</LongitudeDegrees>
            </Position>
            <AltitudeMeters>746.5999755859375</AltitudeMeters>
            <DistanceMeters>NAN</DistanceMeters>
          </Trackpoint>
          <Trackpoint>
            <Time>2020-03-07T18:02:05.000Z</Time>
            <Position>
              <LatitudeDegrees>40.61037878505885601043701171875</LatitudeDegrees>
              <LongitudeDegrees>-3.72268256731331348419189453125</LongitudeDegrees>
            </Position>
            <AltitudeMeters>746.5999755859375</AltitudeMeters>
            <DistanceMeters>NAN</DistanceMeters>
          </Trackpoint>
          <Trackpoint>
            <Time>2020-03-07T18:02:06.000Z</Time>
            <Position>
              <LatitudeDegrees>40.6103418208658695220947265625</LatitudeDegrees>
              <LongitudeDegrees>-3.72264124453067779541015625</LongitudeDegrees>
            </Position>
            <AltitudeMeters>746.5999755859375</AltitudeMeters>
            <DistanceMeters>NAN</DistanceMeters>
          </Trackpoint>
          <Trackpoint>
            <Time>2020-03-07T18:02:07.000Z</Time>
            <Position>
              <LatitudeDegrees>40.61030267737805843353271484375</LatitudeDegrees>
              <LongitudeDegrees>-3.7226018495857715606689453125</LongitudeDegrees>
            </Position>
            <AltitudeMeters>746.4000244140625</AltitudeMeters>
            <DistanceMeters>NAN</DistanceMeters>
          </Trackpoint>
          <Trackpoint>
            <Time>2020-03-07T18:02:08.000Z</Time>
            <Position>
              <LatitudeDegrees>40.610267557203769683837890625</LatitudeDegrees>
              <LongitudeDegrees>-3.72255734167993068695068359375</LongitudeDegrees>
            </Position>
            <AltitudeMeters>746.4000244140625</AltitudeMeters>
            <DistanceMeters>NAN</DistanceMeters>
          </Trackpoint>
          <Trackpoint>
            <Time>2020-03-07T18:02:09.000Z</Time>
            <Position>
              <LatitudeDegrees>40.6102385558187961578369140625</LatitudeDegrees>
              <LongitudeDegrees>-3.72251828201115131378173828125</LongitudeDegrees>
            </Position>
            <AltitudeMeters>746.4000244140625</AltitudeMeters>
            <DistanceMeters>NAN</DistanceMeters>
          </Trackpoint>
          <Trackpoint>
            <Time>2020-03-07T18:02:10.000Z</Time>
            <Position>
              <LatitudeDegrees>40.61021768487989902496337890625</LatitudeDegrees>
              <LongitudeDegrees>-3.722476959228515625</LongitudeDegrees>
            </Position>
            <AltitudeMeters>746.4000244140625</AltitudeMeters>
            <DistanceMeters>NAN</DistanceMeters>
          </Trackpoint>
          <Trackpoint>
            <Time>2020-03-07T18:02:11.000Z</Time>
            <Position>
              <LatitudeDegrees>40.6101946346461772918701171875</LatitudeDegrees>
              <LongitudeDegrees>-3.72243898920714855194091796875</LongitudeDegrees>
            </Position>
            <AltitudeMeters>746.4000244140625</AltitudeMeters>
            <DistanceMeters>NAN</DistanceMeters>
          </Trackpoint>
          <Trackpoint>
            <Time>2020-03-07T18:02:12.000Z</Time>
            <Position>
              <LatitudeDegrees>40.61016521416604518890380859375</LatitudeDegrees>
              <LongitudeDegrees>-3.7224040366709232330322265625</LongitudeDegrees>
            </Position>
            <AltitudeMeters>746.4000244140625</AltitudeMeters>
            <DistanceMeters>NAN</DistanceMeters>
          </Trackpoint>
          <Trackpoint>
            <Time>2020-03-07T18:02:13.000Z</Time>
            <Position>
              <LatitudeDegrees>40.61014316976070404052734375</LatitudeDegrees>
              <LongitudeDegrees>-3.72236338444054126739501953125</LongitudeDegrees>
            </Position>
            <AltitudeMeters>746.5999755859375</AltitudeMeters>
            <DistanceMeters>NAN</DistanceMeters>
          </Trackpoint>
          <Trackpoint>
            <Time>2020-03-07T18:02:14.000Z</Time>
            <Position>
              <LatitudeDegrees>40.61011810787022113800048828125</LatitudeDegrees>
              <LongitudeDegrees>-3.722326755523681640625</LongitudeDegrees>
            </Position>
            <AltitudeMeters>746.79998779296875</AltitudeMeters>
            <DistanceMeters>NAN</DistanceMeters>
          </Trackpoint>
          <Trackpoint>
            <Time>2020-03-07T18:02:15.000Z</Time>
            <Position>
              <LatitudeDegrees>40.610091201961040496826171875</LatitudeDegrees>
              <LongitudeDegrees>-3.722290210425853729248046875</LongitudeDegrees>
            </Position>
            <AltitudeMeters>747</AltitudeMeters>
            <DistanceMeters>NAN</DistanceMeters>
          </Trackpoint>
          <Trackpoint>
            <Time>2020-03-07T18:02:16.000Z</Time>
            <Position>
              <LatitudeDegrees>40.6100662238895893096923828125</LatitudeDegrees>
              <LongitudeDegrees>-3.72225844301283359527587890625</LongitudeDegrees>
            </Position>
            <AltitudeMeters>747.5999755859375</AltitudeMeters>
            <DistanceMeters>NAN</DistanceMeters>
          </Trackpoint>
          <Trackpoint>
            <Time>2020-03-07T18:02:17.000Z</Time>
            <Position>
              <LatitudeDegrees>40.61004099436104297637939453125</LatitudeDegrees>
              <LongitudeDegrees>-3.722220472991466522216796875</LongitudeDegrees>
            </Position>
            <AltitudeMeters>747.79998779296875</AltitudeMeters>
            <DistanceMeters>NAN</DistanceMeters>
          </Trackpoint>
          <Trackpoint>
            <Time>2020-03-07T18:02:18.000Z</Time>
            <Position>
              <LatitudeDegrees>40.61001366935670375823974609375</LatitudeDegrees>
              <LongitudeDegrees>-3.72218468226492404937744140625</LongitudeDegrees>
            </Position>
            <AltitudeMeters>748.20001220703125</AltitudeMeters>
            <DistanceMeters>NAN</DistanceMeters>
          </Trackpoint>
          <Trackpoint>
            <Time>2020-03-07T18:02:19.000Z</Time>
            <Position>
              <LatitudeDegrees>40.6099855899810791015625</LatitudeDegrees>
              <LongitudeDegrees>-3.72214646078646183013916015625</LongitudeDegrees>
            </Position>
            <AltitudeMeters>748.5999755859375</AltitudeMeters>
            <DistanceMeters>NAN</DistanceMeters>
          </Trackpoint>
          <Trackpoint>
            <Time>2020-03-07T18:02:20.000Z</Time>
            <Position>
              <LatitudeDegrees>40.6099602766335010528564453125</LatitudeDegrees>
              <LongitudeDegrees>-3.722108490765094757080078125</LongitudeDegrees>
            </Position>
            <AltitudeMeters>749</AltitudeMeters>
            <DistanceMeters>NAN</DistanceMeters>
          </Trackpoint>
          <Trackpoint>
            <Time>2020-03-07T18:02:21.000Z</Time>
            <Position>
              <LatitudeDegrees>40.60992993414402008056640625</LatitudeDegrees>
              <LongitudeDegrees>-3.72206750325858592987060546875</LongitudeDegrees>
            </Position>
            <AltitudeMeters>749.4000244140625</AltitudeMeters>
            <DistanceMeters>NAN</DistanceMeters>
          </Trackpoint>
          <Trackpoint>
            <Time>2020-03-07T18:02:22.000Z</Time>
            <Position>
              <LatitudeDegrees>40.60989908874034881591796875</LatitudeDegrees>
              <LongitudeDegrees>-3.722033388912677764892578125</LongitudeDegrees>
            </Position>
            <AltitudeMeters>749.79998779296875</AltitudeMeters>
            <DistanceMeters>NAN</DistanceMeters>
          </Trackpoint>
          <Trackpoint>
            <Time>2020-03-07T18:02:23.000Z</Time>
            <Position>
              <LatitudeDegrees>40.60986815951764583587646484375</LatitudeDegrees>
              <LongitudeDegrees>-3.72200111858546733856201171875</LongitudeDegrees>
            </Position>
            <AltitudeMeters>750.5999755859375</AltitudeMeters>
            <DistanceMeters>NAN</DistanceMeters>
          </Trackpoint>
          <Trackpoint>
            <Time>2020-03-07T18:02:24.000Z</Time>
            <Position>
              <LatitudeDegrees>40.60983513481914997100830078125</LatitudeDegrees>
              <LongitudeDegrees>-3.721969686448574066162109375</LongitudeDegrees>
            </Position>
            <AltitudeMeters>751</AltitudeMeters>
            <DistanceMeters>NAN</DistanceMeters>
          </Trackpoint>
          <Trackpoint>
            <Time>2020-03-07T18:02:25.000Z</Time>
            <Position>
              <LatitudeDegrees>40.60979372821748256683349609375</LatitudeDegrees>
              <LongitudeDegrees>-3.72194915078580379486083984375</LongitudeDegrees>
            </Position>
            <AltitudeMeters>751.20001220703125</AltitudeMeters>
            <DistanceMeters>NAN</DistanceMeters>
          </Trackpoint>
          <Trackpoint>
            <Time>2020-03-07T18:02:26.000Z</Time>
            <Position>
              <LatitudeDegrees>40.609757266938686370849609375</LatitudeDegrees>
              <LongitudeDegrees>-3.72193221934139728546142578125</LongitudeDegrees>
            </Position>
            <AltitudeMeters>751.5999755859375</AltitudeMeters>
            <DistanceMeters>NAN</DistanceMeters>
          </Trackpoint>
          <Trackpoint>
            <Time>2020-03-07T18:02:27.000Z</Time>
            <Position>
              <LatitudeDegrees>40.609709657728672027587890625</LatitudeDegrees>
              <LongitudeDegrees>-3.7219178862869739532470703125</LongitudeDegrees>
            </Position>
            <AltitudeMeters>751.5999755859375</AltitudeMeters>
            <DistanceMeters>NAN</DistanceMeters>
          </Trackpoint>
          <Trackpoint>
            <Time>2020-03-07T18:02:28.000Z</Time>
            <Position>
              <LatitudeDegrees>40.60966028831899166107177734375</LatitudeDegrees>
              <LongitudeDegrees>-3.72190053574740886688232421875</LongitudeDegrees>
            </Position>
            <AltitudeMeters>751.79998779296875</AltitudeMeters>
            <DistanceMeters>NAN</DistanceMeters>
          </Trackpoint>
          <Trackpoint>
            <Time>2020-03-07T18:02:29.000Z</Time>
            <Position>
              <LatitudeDegrees>40.609610415995121002197265625</LatitudeDegrees>
              <LongitudeDegrees>-3.72188025154173374176025390625</LongitudeDegrees>
            </Position>
            <AltitudeMeters>751.79998779296875</AltitudeMeters>
            <DistanceMeters>NAN</DistanceMeters>
          </Trackpoint>
          <Trackpoint>
            <Time>2020-03-07T18:02:30.000Z</Time>
            <Position>
              <LatitudeDegrees>40.60956071130931377410888671875</LatitudeDegrees>
              <LongitudeDegrees>-3.721857704222202301025390625</LongitudeDegrees>
            </Position>
            <AltitudeMeters>751.79998779296875</AltitudeMeters>
            <DistanceMeters>NAN</DistanceMeters>
          </Trackpoint>
          <Trackpoint>
            <Time>2020-03-07T18:02:31.000Z</Time>
            <Position>
              <LatitudeDegrees>40.60951310209929943084716796875</LatitudeDegrees>
              <LongitudeDegrees>-3.72183968313038349151611328125</LongitudeDegrees>
            </Position>
            <AltitudeMeters>751.79998779296875</AltitudeMeters>
            <DistanceMeters>NAN</DistanceMeters>
          </Trackpoint>
          <Trackpoint>
            <Time>2020-03-07T18:02:32.000Z</Time>
            <Position>
              <LatitudeDegrees>40.6094603799283504486083984375</LatitudeDegrees>
              <LongitudeDegrees>-3.72180171310901641845703125</LongitudeDegrees>
            </Position>
            <AltitudeMeters>751.79998779296875</AltitudeMeters>
            <DistanceMeters>NAN</DistanceMeters>
          </Trackpoint>
          <Trackpoint>
            <Time>2020-03-07T18:02:33.000Z</Time>
            <Position>
              <LatitudeDegrees>40.609412603080272674560546875</LatitudeDegrees>
              <LongitudeDegrees>-3.721789978444576263427734375</LongitudeDegrees>
            </Position>
            <AltitudeMeters>752</AltitudeMeters>
            <DistanceMeters>NAN</DistanceMeters>
          </Trackpoint>
          <Trackpoint>
            <Time>2020-03-07T18:02:34.000Z</Time>
            <Position>
              <LatitudeDegrees>40.60936742462217807769775390625</LatitudeDegrees>
              <LongitudeDegrees>-3.7217817641794681549072265625</LongitudeDegrees>
            </Position>
            <AltitudeMeters>752</AltitudeMeters>
            <DistanceMeters>NAN</DistanceMeters>
          </Trackpoint>
          <Trackpoint>
            <Time>2020-03-07T18:02:35.000Z</Time>
            <Position>
              <LatitudeDegrees>40.60932585038244724273681640625</LatitudeDegrees>
              <LongitudeDegrees>-3.72177891433238983154296875</LongitudeDegrees>
            </Position>
            <AltitudeMeters>752</AltitudeMeters>
            <DistanceMeters>NAN</DistanceMeters>
          </Trackpoint>
          <Trackpoint>
            <Time>2020-03-07T18:02:36.000Z</Time>
            <Position>
              <LatitudeDegrees>40.609282515943050384521484375</LatitudeDegrees>
              <LongitudeDegrees>-3.7217700295150279998779296875</LongitudeDegrees>
            </Position>
            <AltitudeMeters>752.20001220703125</AltitudeMeters>
            <DistanceMeters>NAN</DistanceMeters>
          </Trackpoint>
          <Trackpoint>
            <Time>2020-03-07T18:02:37.000Z</Time>
            <Position>
              <LatitudeDegrees>40.609236918389797210693359375</LatitudeDegrees>
              <LongitudeDegrees>-3.7217536009848117828369140625</LongitudeDegrees>
            </Position>
            <AltitudeMeters>752.20001220703125</AltitudeMeters>
            <DistanceMeters>NAN</DistanceMeters>
          </Trackpoint>
          <Trackpoint>
            <Time>2020-03-07T18:02:38.000Z</Time>
            <Position>
              <LatitudeDegrees>40.60919408686459064483642578125</LatitudeDegrees>
              <LongitudeDegrees>-3.72174672782421112060546875</LongitudeDegrees>
            </Position>
            <AltitudeMeters>752.20001220703125</AltitudeMeters>
            <DistanceMeters>NAN</DistanceMeters>
          </Trackpoint>
          <Trackpoint>
            <Time>2020-03-07T18:02:39.000Z</Time>
            <Position>
              <LatitudeDegrees>40.6091485731303691864013671875</LatitudeDegrees>
              <LongitudeDegrees>-3.7217406928539276123046875</LongitudeDegrees>
            </Position>
            <AltitudeMeters>752.20001220703125</AltitudeMeters>
            <DistanceMeters>NAN</DistanceMeters>
          </Trackpoint>
          <Trackpoint>
            <Time>2020-03-07T18:02:40.000Z</Time>
            <Position>
              <LatitudeDegrees>40.6090986169874668121337890625</LatitudeDegrees>
              <LongitudeDegrees>-3.72172803618013858795166015625</LongitudeDegrees>
            </Position>
            <AltitudeMeters>752.20001220703125</AltitudeMeters>
            <DistanceMeters>NAN</DistanceMeters>
          </Trackpoint>
          <Trackpoint>
            <Time>2020-03-07T18:02:41.000Z</Time>
            <Position>
              <LatitudeDegrees>40.6090563721954822540283203125</LatitudeDegrees>
              <LongitudeDegrees>-3.72172300703823566436767578125</LongitudeDegrees>
            </Position>
            <AltitudeMeters>752.20001220703125</AltitudeMeters>
            <DistanceMeters>NAN</DistanceMeters>
          </Trackpoint>
          <Trackpoint>
            <Time>2020-03-07T18:02:42.000Z</Time>
            <Position>
              <LatitudeDegrees>40.6090134568512439727783203125</LatitudeDegrees>
              <LongitudeDegrees>-3.72171663679182529449462890625</LongitudeDegrees>
            </Position>
            <AltitudeMeters>752.4000244140625</AltitudeMeters>
            <DistanceMeters>NAN</DistanceMeters>
          </Trackpoint>
          <Trackpoint>
            <Time>2020-03-07T18:02:43.000Z</Time>
            <Position>
              <LatitudeDegrees>40.60897900722920894622802734375</LatitudeDegrees>
              <LongitudeDegrees>-3.72171881608664989471435546875</LongitudeDegrees>
            </Position>
            <AltitudeMeters>752.5999755859375</AltitudeMeters>
            <DistanceMeters>NAN</DistanceMeters>
          </Trackpoint>
          <Trackpoint>
            <Time>2020-03-07T18:02:44.000Z</Time>
            <Position>
              <LatitudeDegrees>40.60893324203789234161376953125</LatitudeDegrees>
              <LongitudeDegrees>-3.72171345166862010955810546875</LongitudeDegrees>
            </Position>
            <AltitudeMeters>752.79998779296875</AltitudeMeters>
            <DistanceMeters>NAN</DistanceMeters>
          </Trackpoint>
          <Trackpoint>
            <Time>2020-03-07T18:02:45.000Z</Time>
            <Position>
              <LatitudeDegrees>40.60889032669365406036376953125</LatitudeDegrees>
              <LongitudeDegrees>-3.72170825488865375518798828125</LongitudeDegrees>
            </Position>
            <AltitudeMeters>753</AltitudeMeters>
            <DistanceMeters>NAN</DistanceMeters>
          </Trackpoint>
          <Trackpoint>
            <Time>2020-03-07T18:02:46.000Z</Time>
            <Position>
              <LatitudeDegrees>40.608847998082637786865234375</LatitudeDegrees>
              <LongitudeDegrees>-3.72170221991837024688720703125</LongitudeDegrees>
            </Position>
            <AltitudeMeters>753</AltitudeMeters>
            <DistanceMeters>NAN</DistanceMeters>
          </Trackpoint>
          <Trackpoint>
            <Time>2020-03-07T18:02:47.000Z</Time>
            <Position>
              <LatitudeDegrees>40.60880684293806552886962890625</LatitudeDegrees>
              <LongitudeDegrees>-3.72169601731002330780029296875</LongitudeDegrees>
            </Position>
            <AltitudeMeters>753.20001220703125</AltitudeMeters>
            <DistanceMeters>NAN</DistanceMeters>
          </Trackpoint>
          <Trackpoint>
            <Time>2020-03-07T18:02:48.000Z</Time>
            <Position>
              <LatitudeDegrees>40.60876845382153987884521484375</LatitudeDegrees>
              <LongitudeDegrees>-3.72168947942554950714111328125</LongitudeDegrees>
            </Position>
            <AltitudeMeters>753.79998779296875</AltitudeMeters>
            <DistanceMeters>NAN</DistanceMeters>
          </Trackpoint>
          <Trackpoint>
            <Time>2020-03-07T18:02:49.000Z</Time>
            <Position>
              <LatitudeDegrees>40.60872486792504787445068359375</LatitudeDegrees>
              <LongitudeDegrees>-3.72168025933206081390380859375</LongitudeDegrees>
            </Position>
            <AltitudeMeters>754.4000244140625</AltitudeMeters>
            <DistanceMeters>NAN</DistanceMeters>
          </Trackpoint>
          <Trackpoint>
            <Time>2020-03-07T18:02:50.000Z</Time>
            <Position>
              <LatitudeDegrees>40.6086805276572704315185546875</LatitudeDegrees>
              <LongitudeDegrees>-3.721669614315032958984375</LongitudeDegrees>
            </Position>
            <AltitudeMeters>754.5999755859375</AltitudeMeters>
            <DistanceMeters>NAN</DistanceMeters>
          </Trackpoint>
          <Trackpoint>
            <Time>2020-03-07T18:02:51.000Z</Time>
            <Position>
              <LatitudeDegrees>40.6086359359323978424072265625</LatitudeDegrees>
              <LongitudeDegrees>-3.72165779583156108856201171875</LongitudeDegrees>
            </Position>
            <AltitudeMeters>755</AltitudeMeters>
            <DistanceMeters>NAN</DistanceMeters>
          </Trackpoint>
          <Trackpoint>
            <Time>2020-03-07T18:02:52.000Z</Time>
            <Position>
              <LatitudeDegrees>40.60858891345560550689697265625</LatitudeDegrees>
              <LongitudeDegrees>-3.72164488770067691802978515625</LongitudeDegrees>
            </Position>
            <AltitudeMeters>755.20001220703125</AltitudeMeters>
            <DistanceMeters>NAN</DistanceMeters>
          </Trackpoint>
          <Trackpoint>
            <Time>2020-03-07T18:02:53.000Z</Time>
            <Position>
              <LatitudeDegrees>40.60854113660752773284912109375</LatitudeDegrees>
              <LongitudeDegrees>-3.72163382358849048614501953125</LongitudeDegrees>
            </Position>
            <AltitudeMeters>755.4000244140625</AltitudeMeters>
            <DistanceMeters>NAN</DistanceMeters>
          </Trackpoint>
          <Trackpoint>
            <Time>2020-03-07T18:02:54.000Z</Time>
            <Position>
              <LatitudeDegrees>40.6084927730262279510498046875</LatitudeDegrees>
              <LongitudeDegrees>-3.72162477113306522369384765625</LongitudeDegrees>
            </Position>
            <AltitudeMeters>755.5999755859375</AltitudeMeters>
            <DistanceMeters>NAN</DistanceMeters>
          </Trackpoint>
          <Trackpoint>
            <Time>2020-03-07T18:02:55.000Z</Time>
            <Position>
              <LatitudeDegrees>40.60844742693006992340087890625</LatitudeDegrees>
              <LongitudeDegrees>-3.72162275947630405426025390625</LongitudeDegrees>
            </Position>
            <AltitudeMeters>755.5999755859375</AltitudeMeters>
            <DistanceMeters>NAN</DistanceMeters>
          </Trackpoint>
          <Trackpoint>
            <Time>2020-03-07T18:02:56.000Z</Time>
            <Position>
              <LatitudeDegrees>40.6084025837481021881103515625</LatitudeDegrees>
              <LongitudeDegrees>-3.7216221727430820465087890625</LongitudeDegrees>
            </Position>
            <AltitudeMeters>755.79998779296875</AltitudeMeters>
            <DistanceMeters>NAN</DistanceMeters>
          </Trackpoint>
          <Trackpoint>
            <Time>2020-03-07T18:02:57.000Z</Time>
            <Position>
              <LatitudeDegrees>40.6083586625754833221435546875</LatitudeDegrees>
              <LongitudeDegrees>-3.7216199934482574462890625</LongitudeDegrees>
            </Position>
            <AltitudeMeters>755.79998779296875</AltitudeMeters>
            <DistanceMeters>NAN</DistanceMeters>
          </Trackpoint>
          <Trackpoint>
            <Time>2020-03-07T18:02:58.000Z</Time>
            <Position>
              <LatitudeDegrees>40.608312897384166717529296875</LatitudeDegrees>
              <LongitudeDegrees>-3.72161270119249820709228515625</LongitudeDegrees>
            </Position>
            <AltitudeMeters>755.79998779296875</AltitudeMeters>
            <DistanceMeters>NAN</DistanceMeters>
          </Trackpoint>
          <Trackpoint>
            <Time>2020-03-07T18:02:59.000Z</Time>
            <Position>
              <LatitudeDegrees>40.6082667969167232513427734375</LatitudeDegrees>
              <LongitudeDegrees>-3.72159828431904315948486328125</LongitudeDegrees>
            </Position>
            <AltitudeMeters>755.79998779296875</AltitudeMeters>
            <DistanceMeters>NAN</DistanceMeters>
          </Trackpoint>
          <Trackpoint>
            <Time>2020-03-07T18:03:00.000Z</Time>
            <Position>
              <LatitudeDegrees>40.6082205288112163543701171875</LatitudeDegrees>
              <LongitudeDegrees>-3.7215717136859893798828125</LongitudeDegrees>
            </Position>
            <AltitudeMeters>755.79998779296875</AltitudeMeters>
            <DistanceMeters>NAN</DistanceMeters>
          </Trackpoint>
          <Trackpoint>
            <Time>2020-03-07T18:03:01.000Z</Time>
            <Position>
              <LatitudeDegrees>40.6081752665340900421142578125</LatitudeDegrees>
              <LongitudeDegrees>-3.721533156931400299072265625</LongitudeDegrees>
            </Position>
            <AltitudeMeters>755.79998779296875</AltitudeMeters>
            <DistanceMeters>NAN</DistanceMeters>
          </Trackpoint>
          <Trackpoint>
            <Time>2020-03-07T18:03:02.000Z</Time>
            <Position>
              <LatitudeDegrees>40.6081296689808368682861328125</LatitudeDegrees>
              <LongitudeDegrees>-3.72148118913173675537109375</LongitudeDegrees>
            </Position>
            <AltitudeMeters>755.79998779296875</AltitudeMeters>
            <DistanceMeters>NAN</DistanceMeters>
          </Trackpoint>
          <Trackpoint>
            <Time>2020-03-07T18:03:03.000Z</Time>
            <Position>
              <LatitudeDegrees>40.60807996429502964019775390625</LatitudeDegrees>
              <LongitudeDegrees>-3.72141606174409389495849609375</LongitudeDegrees>
            </Position>
            <AltitudeMeters>755.79998779296875</AltitudeMeters>
            <DistanceMeters>NAN</DistanceMeters>
          </Trackpoint>
          <Trackpoint>
            <Time>2020-03-07T18:03:04.000Z</Time>
            <Position>
              <LatitudeDegrees>40.6080237217247486114501953125</LatitudeDegrees>
              <LongitudeDegrees>-3.72135621495544910430908203125</LongitudeDegrees>
            </Position>
            <AltitudeMeters>755.79998779296875</AltitudeMeters>
            <DistanceMeters>NAN</DistanceMeters>
          </Trackpoint>
          <Trackpoint>
            <Time>2020-03-07T18:03:05.000Z</Time>
            <Position>
              <LatitudeDegrees>40.60796094126999378204345703125</LatitudeDegrees>
              <LongitudeDegrees>-3.72130005620419979095458984375</LongitudeDegrees>
            </Position>
            <AltitudeMeters>755.5999755859375</AltitudeMeters>
            <DistanceMeters>NAN</DistanceMeters>
          </Trackpoint>
          <Trackpoint>
            <Time>2020-03-07T18:03:06.000Z</Time>
            <Position>
              <LatitudeDegrees>40.60788801871240139007568359375</LatitudeDegrees>
              <LongitudeDegrees>-3.72124792076647281646728515625</LongitudeDegrees>
            </Position>
            <AltitudeMeters>755.4000244140625</AltitudeMeters>
            <DistanceMeters>NAN</DistanceMeters>
          </Trackpoint>
          <Trackpoint>
            <Time>2020-03-07T18:03:07.000Z</Time>
            <Position>
              <LatitudeDegrees>40.60780570842325687408447265625</LatitudeDegrees>
              <LongitudeDegrees>-3.72120500542223453521728515625</LongitudeDegrees>
            </Position>
            <AltitudeMeters>755.4000244140625</AltitudeMeters>
            <DistanceMeters>NAN</DistanceMeters>
          </Trackpoint>
          <Trackpoint>
            <Time>2020-03-07T18:03:08.000Z</Time>
            <Position>
              <LatitudeDegrees>40.6077179498970508575439453125</LatitudeDegrees>
              <LongitudeDegrees>-3.721172399818897247314453125</LongitudeDegrees>
            </Position>
            <AltitudeMeters>755.20001220703125</AltitudeMeters>
            <DistanceMeters>NAN</DistanceMeters>
          </Trackpoint>
          <Trackpoint>
            <Time>2020-03-07T18:03:09.000Z</Time>
            <Position>
              <LatitudeDegrees>40.607630275189876556396484375</LatitudeDegrees>
              <LongitudeDegrees>-3.72115261852741241455078125</LongitudeDegrees>
            </Position>
            <AltitudeMeters>754.79998779296875</AltitudeMeters>
            <DistanceMeters>NAN</DistanceMeters>
          </Trackpoint>
          <Trackpoint>
            <Time>2020-03-07T18:03:10.000Z</Time>
            <Position>
              <LatitudeDegrees>40.60753195546567440032958984375</LatitudeDegrees>
              <LongitudeDegrees>-3.7211484275758266448974609375</LongitudeDegrees>
            </Position>
            <AltitudeMeters>754.20001220703125</AltitudeMeters>
            <DistanceMeters>NAN</DistanceMeters>
          </Trackpoint>
          <Trackpoint>
            <Time>2020-03-07T18:03:11.000Z</Time>
            <Position>
              <LatitudeDegrees>40.6074289418756961822509765625</LatitudeDegrees>
              <LongitudeDegrees>-3.72114582918584346771240234375</LongitudeDegrees>
            </Position>
            <AltitudeMeters>753.5999755859375</AltitudeMeters>
            <DistanceMeters>NAN</DistanceMeters>
          </Trackpoint>
          <Trackpoint>
            <Time>2020-03-07T18:03:12.000Z</Time>
            <Position>
              <LatitudeDegrees>40.6073176302015781402587890625</LatitudeDegrees>
              <LongitudeDegrees>-3.7211494334042072296142578125</LongitudeDegrees>
            </Position>
            <AltitudeMeters>753</AltitudeMeters>
            <DistanceMeters>NAN</DistanceMeters>
          </Trackpoint>
          <Trackpoint>
            <Time>2020-03-07T18:03:13.000Z</Time>
            <Position>
              <LatitudeDegrees>40.60720757581293582916259765625</LatitudeDegrees>
              <LongitudeDegrees>-3.72117944061756134033203125</LongitudeDegrees>
            </Position>
            <AltitudeMeters>752</AltitudeMeters>
            <DistanceMeters>NAN</DistanceMeters>
          </Trackpoint>
          <Trackpoint>
            <Time>2020-03-07T18:03:14.000Z</Time>
            <Position>
              <LatitudeDegrees>40.60711604543030261993408203125</LatitudeDegrees>
              <LongitudeDegrees>-3.7212439812719821929931640625</LongitudeDegrees>
            </Position>
            <AltitudeMeters>751.20001220703125</AltitudeMeters>
            <DistanceMeters>NAN</DistanceMeters>
          </Trackpoint>
          <Trackpoint>
            <Time>2020-03-07T18:03:15.000Z</Time>
            <Position>
              <LatitudeDegrees>40.60703390277922153472900390625</LatitudeDegrees>
              <LongitudeDegrees>-3.72131531126797199249267578125</LongitudeDegrees>
            </Position>
            <AltitudeMeters>750.20001220703125</AltitudeMeters>
            <DistanceMeters>NAN</DistanceMeters>
          </Trackpoint>
          <Trackpoint>
            <Time>2020-03-07T18:03:16.000Z</Time>
            <Position>
              <LatitudeDegrees>40.60695243068039417266845703125</LatitudeDegrees>
              <LongitudeDegrees>-3.7213660217821598052978515625</LongitudeDegrees>
            </Position>
            <AltitudeMeters>749.20001220703125</AltitudeMeters>
            <DistanceMeters>NAN</DistanceMeters>
          </Trackpoint>
          <Trackpoint>
            <Time>2020-03-07T18:03:17.000Z</Time>
            <Position>
              <LatitudeDegrees>40.606867857277393341064453125</LatitudeDegrees>
              <LongitudeDegrees>-3.72138337232172489166259765625</LongitudeDegrees>
            </Position>
            <AltitudeMeters>748</AltitudeMeters>
            <DistanceMeters>NAN</DistanceMeters>
          </Trackpoint>
          <Trackpoint>
            <Time>2020-03-07T18:03:18.000Z</Time>
            <Position>
              <LatitudeDegrees>40.606777667999267578125</LatitudeDegrees>
              <LongitudeDegrees>-3.7213744036853313446044921875</LongitudeDegrees>
            </Position>
            <AltitudeMeters>747.4000244140625</AltitudeMeters>
            <DistanceMeters>NAN</DistanceMeters>
          </Trackpoint>
          <Trackpoint>
            <Time>2020-03-07T18:03:19.000Z</Time>
            <Position>
              <LatitudeDegrees>40.6066879816353321075439453125</LatitudeDegrees>
              <LongitudeDegrees>-3.72135789133608341217041015625</LongitudeDegrees>
            </Position>
            <AltitudeMeters>746.79998779296875</AltitudeMeters>
            <DistanceMeters>NAN</DistanceMeters>
          </Trackpoint>
          <Trackpoint>
            <Time>2020-03-07T18:03:20.000Z</Time>
            <Position>
              <LatitudeDegrees>40.60660156421363353729248046875</LatitudeDegrees>
              <LongitudeDegrees>-3.7213371880352497100830078125</LongitudeDegrees>
            </Position>
            <AltitudeMeters>745.4000244140625</AltitudeMeters>
            <DistanceMeters>NAN</DistanceMeters>
          </Trackpoint>
          <Trackpoint>
            <Time>2020-03-07T18:03:21.000Z</Time>
            <Position>
              <LatitudeDegrees>40.6065161526203155517578125</LatitudeDegrees>
              <LongitudeDegrees>-3.72131631709635257720947265625</LongitudeDegrees>
            </Position>
            <AltitudeMeters>745.20001220703125</AltitudeMeters>
            <DistanceMeters>NAN</DistanceMeters>
          </Trackpoint>
          <Trackpoint>
            <Time>2020-03-07T18:03:22.000Z</Time>
            <Position>
              <LatitudeDegrees>40.60643426142632961273193359375</LatitudeDegrees>
              <LongitudeDegrees>-3.72130458243191242218017578125</LongitudeDegrees>
            </Position>
            <AltitudeMeters>745</AltitudeMeters>
            <DistanceMeters>NAN</DistanceMeters>
          </Trackpoint>
          <Trackpoint>
            <Time>2020-03-07T18:03:23.000Z</Time>
            <Position>
              <LatitudeDegrees>40.60636368580162525177001953125</LatitudeDegrees>
              <LongitudeDegrees>-3.7212966196238994598388671875</LongitudeDegrees>
            </Position>
            <AltitudeMeters>745</AltitudeMeters>
            <DistanceMeters>NAN</DistanceMeters>
          </Trackpoint>
          <Trackpoint>
            <Time>2020-03-07T18:03:24.000Z</Time>
            <Position>
              <LatitudeDegrees>40.60629017651081085205078125</LatitudeDegrees>
              <LongitudeDegrees>-3.72127826325595378875732421875</LongitudeDegrees>
            </Position>
            <AltitudeMeters>745</AltitudeMeters>
            <DistanceMeters>NAN</DistanceMeters>
          </Trackpoint>
          <Trackpoint>
            <Time>2020-03-07T18:03:25.000Z</Time>
            <Position>
              <LatitudeDegrees>40.6062211096286773681640625</LatitudeDegrees>
              <LongitudeDegrees>-3.72126837261021137237548828125</LongitudeDegrees>
            </Position>
            <AltitudeMeters>745</AltitudeMeters>
            <DistanceMeters>NAN</DistanceMeters>
          </Trackpoint>
          <Trackpoint>
            <Time>2020-03-07T18:03:26.000Z</Time>
            <Position>
              <LatitudeDegrees>40.6061515398323535919189453125</LatitudeDegrees>
              <LongitudeDegrees>-3.721259571611881256103515625</LongitudeDegrees>
            </Position>
            <AltitudeMeters>745</AltitudeMeters>
            <DistanceMeters>NAN</DistanceMeters>
          </Trackpoint>
          <Trackpoint>
            <Time>2020-03-07T18:03:27.000Z</Time>
            <Position>
              <LatitudeDegrees>40.606081299483776092529296875</LatitudeDegrees>
              <LongitudeDegrees>-3.7212510220706462860107421875</LongitudeDegrees>
            </Position>
            <AltitudeMeters>745</AltitudeMeters>
            <DistanceMeters>NAN</DistanceMeters>
          </Trackpoint>
          <Trackpoint>
            <Time>2020-03-07T18:03:28.000Z</Time>
            <Position>
              <LatitudeDegrees>40.60601265169680118560791015625</LatitudeDegrees>
              <LongitudeDegrees>-3.72124515473842620849609375</LongitudeDegrees>
            </Position>
            <AltitudeMeters>745</AltitudeMeters>
            <DistanceMeters>NAN</DistanceMeters>
          </Trackpoint>
          <Trackpoint>
            <Time>2020-03-07T18:03:29.000Z</Time>
            <Position>
              <LatitudeDegrees>40.60594375245273113250732421875</LatitudeDegrees>
              <LongitudeDegrees>-3.72123551554977893829345703125</LongitudeDegrees>
            </Position>
            <AltitudeMeters>745</AltitudeMeters>
            <DistanceMeters>NAN</DistanceMeters>
          </Trackpoint>
          <Trackpoint>
            <Time>2020-03-07T18:03:30.000Z</Time>
            <Position>
              <LatitudeDegrees>40.60587451793253421783447265625</LatitudeDegrees>
              <LongitudeDegrees>-3.721223361790180206298828125</LongitudeDegrees>
            </Position>
            <AltitudeMeters>745</AltitudeMeters>
            <DistanceMeters>NAN</DistanceMeters>
          </Trackpoint>
          <Trackpoint>
            <Time>2020-03-07T18:03:31.000Z</Time>
            <Position>
              <LatitudeDegrees>40.60580478049814701080322265625</LatitudeDegrees>
              <LongitudeDegrees>-3.721210621297359466552734375</LongitudeDegrees>
            </Position>
            <AltitudeMeters>745.20001220703125</AltitudeMeters>
            <DistanceMeters>NAN</DistanceMeters>
          </Trackpoint>
          <Trackpoint>
            <Time>2020-03-07T18:03:32.000Z</Time>
            <Position>
              <LatitudeDegrees>40.60573504306375980377197265625</LatitudeDegrees>
              <LongitudeDegrees>-3.72119645588099956512451171875</LongitudeDegrees>
            </Position>
            <AltitudeMeters>745.4000244140625</AltitudeMeters>
            <DistanceMeters>NAN</DistanceMeters>
          </Trackpoint>
          <Trackpoint>
            <Time>2020-03-07T18:03:33.000Z</Time>
            <Position>
              <LatitudeDegrees>40.6056647188961505889892578125</LatitudeDegrees>
              <LongitudeDegrees>-3.721181787550449371337890625</LongitudeDegrees>
            </Position>
            <AltitudeMeters>745.5999755859375</AltitudeMeters>
            <DistanceMeters>NAN</DistanceMeters>
          </Trackpoint>
          <Trackpoint>
            <Time>2020-03-07T18:03:34.000Z</Time>
            <Position>
              <LatitudeDegrees>40.6055936403572559356689453125</LatitudeDegrees>
              <LongitudeDegrees>-3.72116745449602603912353515625</LongitudeDegrees>
            </Position>
            <AltitudeMeters>745.5999755859375</AltitudeMeters>
            <DistanceMeters>NAN</DistanceMeters>
          </Trackpoint>
          <Trackpoint>
            <Time>2020-03-07T18:03:35.000Z</Time>
            <Position>
              <LatitudeDegrees>40.605522729456424713134765625</LatitudeDegrees>
              <LongitudeDegrees>-3.7211561389267444610595703125</LongitudeDegrees>
            </Position>
            <AltitudeMeters>745.5999755859375</AltitudeMeters>
            <DistanceMeters>NAN</DistanceMeters>
          </Trackpoint>
          <Trackpoint>
            <Time>2020-03-07T18:03:36.000Z</Time>
            <Position>
              <LatitudeDegrees>40.605452321469783782958984375</LatitudeDegrees>
              <LongitudeDegrees>-3.72114700265228748321533203125</LongitudeDegrees>
            </Position>
            <AltitudeMeters>745.79998779296875</AltitudeMeters>
            <DistanceMeters>NAN</DistanceMeters>
          </Trackpoint>
          <Trackpoint>
            <Time>2020-03-07T18:03:37.000Z</Time>
            <Position>
              <LatitudeDegrees>40.60538224875926971435546875</LatitudeDegrees>
              <LongitudeDegrees>-3.72113996185362339019775390625</LongitudeDegrees>
            </Position>
            <AltitudeMeters>745.79998779296875</AltitudeMeters>
            <DistanceMeters>NAN</DistanceMeters>
          </Trackpoint>
          <Trackpoint>
            <Time>2020-03-07T18:03:38.000Z</Time>
            <Position>
              <LatitudeDegrees>40.60531091876327991485595703125</LatitudeDegrees>
              <LongitudeDegrees>-3.721130825579166412353515625</LongitudeDegrees>
            </Position>
            <AltitudeMeters>745.79998779296875</AltitudeMeters>
            <DistanceMeters>NAN</DistanceMeters>
          </Trackpoint>
          <Trackpoint>
            <Time>2020-03-07T18:03:39.000Z</Time>
            <Position>
              <LatitudeDegrees>40.605240762233734130859375</LatitudeDegrees>
              <LongitudeDegrees>-3.7211232818663120269775390625</LongitudeDegrees>
            </Position>
            <AltitudeMeters>745.79998779296875</AltitudeMeters>
            <DistanceMeters>NAN</DistanceMeters>
          </Trackpoint>
          <Trackpoint>
            <Time>2020-03-07T18:03:40.000Z</Time>
            <Position>
              <LatitudeDegrees>40.6051696836948394775390625</LatitudeDegrees>
              <LongitudeDegrees>-3.7211169116199016571044921875</LongitudeDegrees>
            </Position>
            <AltitudeMeters>745.79998779296875</AltitudeMeters>
            <DistanceMeters>NAN</DistanceMeters>
          </Trackpoint>
          <Trackpoint>
            <Time>2020-03-07T18:03:41.000Z</Time>
            <Position>
              <LatitudeDegrees>40.60509919188916683197021484375</LatitudeDegrees>
              <LongitudeDegrees>-3.721111714839935302734375</LongitudeDegrees>
            </Position>
            <AltitudeMeters>745.79998779296875</AltitudeMeters>
            <DistanceMeters>NAN</DistanceMeters>
          </Trackpoint>
          <Trackpoint>
            <Time>2020-03-07T18:03:42.000Z</Time>
            <Position>
              <LatitudeDegrees>40.60502962209284305572509765625</LatitudeDegrees>
              <LongitudeDegrees>-3.72110660187900066375732421875</LongitudeDegrees>
            </Position>
            <AltitudeMeters>745.79998779296875</AltitudeMeters>
            <DistanceMeters>NAN</DistanceMeters>
          </Trackpoint>
          <Trackpoint>
            <Time>2020-03-07T18:03:43.000Z</Time>
            <Position>
              <LatitudeDegrees>40.604958795011043548583984375</LatitudeDegrees>
              <LongitudeDegrees>-3.72109855525195598602294921875</LongitudeDegrees>
            </Position>
            <AltitudeMeters>745.79998779296875</AltitudeMeters>
            <DistanceMeters>NAN</DistanceMeters>
          </Trackpoint>
          <Trackpoint>
            <Time>2020-03-07T18:03:44.000Z</Time>
            <Position>
              <LatitudeDegrees>40.60488780029118061065673828125</LatitudeDegrees>
              <LongitudeDegrees>-3.721089251339435577392578125</LongitudeDegrees>
            </Position>
            <AltitudeMeters>745.79998779296875</AltitudeMeters>
            <DistanceMeters>NAN</DistanceMeters>
          </Trackpoint>
          <Trackpoint>
            <Time>2020-03-07T18:03:45.000Z</Time>
            <Position>
              <LatitudeDegrees>40.60481672175228595733642578125</LatitudeDegrees>
              <LongitudeDegrees>-3.7210793606936931610107421875</LongitudeDegrees>
            </Position>
            <AltitudeMeters>745.79998779296875</AltitudeMeters>
            <DistanceMeters>NAN</DistanceMeters>
          </Trackpoint>
          <Trackpoint>
            <Time>2020-03-07T18:03:46.000Z</Time>
            <Position>
              <LatitudeDegrees>40.6047457270324230194091796875</LatitudeDegrees>
              <LongitudeDegrees>-3.7210701406002044677734375</LongitudeDegrees>
            </Position>
            <AltitudeMeters>745.79998779296875</AltitudeMeters>
            <DistanceMeters>NAN</DistanceMeters>
          </Trackpoint>
          <Trackpoint>
            <Time>2020-03-07T18:03:47.000Z</Time>
            <Position>
              <LatitudeDegrees>40.6046753190457820892333984375</LatitudeDegrees>
              <LongitudeDegrees>-3.721059076488018035888671875</LongitudeDegrees>
            </Position>
            <AltitudeMeters>745.79998779296875</AltitudeMeters>
            <DistanceMeters>NAN</DistanceMeters>
          </Trackpoint>
          <Trackpoint>
            <Time>2020-03-07T18:03:48.000Z</Time>
            <Position>
              <LatitudeDegrees>40.60460440814495086669921875</LatitudeDegrees>
              <LongitudeDegrees>-3.72104574926197528839111328125</LongitudeDegrees>
            </Position>
            <AltitudeMeters>745.79998779296875</AltitudeMeters>
            <DistanceMeters>NAN</DistanceMeters>
          </Trackpoint>
          <Trackpoint>
            <Time>2020-03-07T18:03:49.000Z</Time>
            <Position>
              <LatitudeDegrees>40.6045340001583099365234375</LatitudeDegrees>
              <LongitudeDegrees>-3.72103233821690082550048828125</LongitudeDegrees>
            </Position>
            <AltitudeMeters>745.5999755859375</AltitudeMeters>
            <DistanceMeters>NAN</DistanceMeters>
          </Trackpoint>
          <Trackpoint>
            <Time>2020-03-07T18:03:50.000Z</Time>
            <Position>
              <LatitudeDegrees>40.6044627539813518524169921875</LatitudeDegrees>
              <LongitudeDegrees>-3.72102144174277782440185546875</LongitudeDegrees>
            </Position>
            <AltitudeMeters>745.5999755859375</AltitudeMeters>
            <DistanceMeters>NAN</DistanceMeters>
          </Trackpoint>
          <Trackpoint>
            <Time>2020-03-07T18:03:51.000Z</Time>
            <Position>
              <LatitudeDegrees>40.604392178356647491455078125</LatitudeDegrees>
              <LongitudeDegrees>-3.7210112996399402618408203125</LongitudeDegrees>
            </Position>
            <AltitudeMeters>745.5999755859375</AltitudeMeters>
            <DistanceMeters>NAN</DistanceMeters>
          </Trackpoint>
          <Trackpoint>
            <Time>2020-03-07T18:03:52.000Z</Time>
            <Position>
              <LatitudeDegrees>40.60432168655097484588623046875</LatitudeDegrees>
              <LongitudeDegrees>-3.721002079546451568603515625</LongitudeDegrees>
            </Position>
            <AltitudeMeters>745.5999755859375</AltitudeMeters>
            <DistanceMeters>NAN</DistanceMeters>
          </Trackpoint>
          <Trackpoint>
            <Time>2020-03-07T18:03:53.000Z</Time>
            <Position>
              <LatitudeDegrees>40.6042515300214290618896484375</LatitudeDegrees>
              <LongitudeDegrees>-3.72099302709102630615234375</LongitudeDegrees>
            </Position>
            <AltitudeMeters>745.5999755859375</AltitudeMeters>
            <DistanceMeters>NAN</DistanceMeters>
          </Trackpoint>
          <Trackpoint>
            <Time>2020-03-07T18:03:54.000Z</Time>
            <Position>
              <LatitudeDegrees>40.604181624948978424072265625</LatitudeDegrees>
              <LongitudeDegrees>-3.72098498046398162841796875</LongitudeDegrees>
            </Position>
            <AltitudeMeters>745.4000244140625</AltitudeMeters>
            <DistanceMeters>NAN</DistanceMeters>
          </Trackpoint>
          <Trackpoint>
            <Time>2020-03-07T18:03:55.000Z</Time>
            <Position>
              <LatitudeDegrees>40.6041117198765277862548828125</LatitudeDegrees>
              <LongitudeDegrees>-3.720977939665317535400390625</LongitudeDegrees>
            </Position>
            <AltitudeMeters>745.4000244140625</AltitudeMeters>
            <DistanceMeters>NAN</DistanceMeters>
          </Trackpoint>
          <Trackpoint>
            <Time>2020-03-07T18:03:56.000Z</Time>
            <Position>
              <LatitudeDegrees>40.60404223389923572540283203125</LatitudeDegrees>
              <LongitudeDegrees>-3.72097148559987545013427734375</LongitudeDegrees>
            </Position>
            <AltitudeMeters>745.20001220703125</AltitudeMeters>
            <DistanceMeters>NAN</DistanceMeters>
          </Trackpoint>
          <Trackpoint>
            <Time>2020-03-07T18:03:57.000Z</Time>
            <Position>
              <LatitudeDegrees>40.60397274792194366455078125</LatitudeDegrees>
              <LongitudeDegrees>-3.72096410952508449554443359375</LongitudeDegrees>
            </Position>
            <AltitudeMeters>745.20001220703125</AltitudeMeters>
            <DistanceMeters>NAN</DistanceMeters>
          </Trackpoint>
          <Trackpoint>
            <Time>2020-03-07T18:03:58.000Z</Time>
            <Position>
              <LatitudeDegrees>40.60390527360141277313232421875</LatitudeDegrees>
              <LongitudeDegrees>-3.72095857746899127960205078125</LongitudeDegrees>
            </Position>
            <AltitudeMeters>745.20001220703125</AltitudeMeters>
            <DistanceMeters>NAN</DistanceMeters>
          </Trackpoint>
          <Trackpoint>
            <Time>2020-03-07T18:03:59.000Z</Time>
            <Position>
              <LatitudeDegrees>40.60383771546185016632080078125</LatitudeDegrees>
              <LongitudeDegrees>-3.72095187194645404815673828125</LongitudeDegrees>
            </Position>
            <AltitudeMeters>745.20001220703125</AltitudeMeters>
            <DistanceMeters>NAN</DistanceMeters>
          </Trackpoint>
          <Trackpoint>
            <Time>2020-03-07T18:04:00.000Z</Time>
            <Position>
              <LatitudeDegrees>40.60376948677003383636474609375</LatitudeDegrees>
              <LongitudeDegrees>-3.7209465913474559783935546875</LongitudeDegrees>
            </Position>
            <AltitudeMeters>745.20001220703125</AltitudeMeters>
            <DistanceMeters>NAN</DistanceMeters>
          </Trackpoint>
          <Trackpoint>
            <Time>2020-03-07T18:04:01.000Z</Time>
            <Position>
              <LatitudeDegrees>40.60370310209691524505615234375</LatitudeDegrees>
              <LongitudeDegrees>-3.7209408916532993316650390625</LongitudeDegrees>
            </Position>
            <AltitudeMeters>745</AltitudeMeters>
            <DistanceMeters>NAN</DistanceMeters>
          </Trackpoint>
          <Trackpoint>
            <Time>2020-03-07T18:04:02.000Z</Time>
            <Position>
              <LatitudeDegrees>40.6036379747092723846435546875</LatitudeDegrees>
              <LongitudeDegrees>-3.72093460522592067718505859375</LongitudeDegrees>
            </Position>
            <AltitudeMeters>745</AltitudeMeters>
            <DistanceMeters>NAN</DistanceMeters>
          </Trackpoint>
          <Trackpoint>
            <Time>2020-03-07T18:04:03.000Z</Time>
            <Position>
              <LatitudeDegrees>40.60357351787388324737548828125</LatitudeDegrees>
              <LongitudeDegrees>-3.720926977694034576416015625</LongitudeDegrees>
            </Position>
            <AltitudeMeters>745</AltitudeMeters>
            <DistanceMeters>NAN</DistanceMeters>
          </Trackpoint>
          <Trackpoint>
            <Time>2020-03-07T18:04:04.000Z</Time>
            <Position>
              <LatitudeDegrees>40.60351333580911159515380859375</LatitudeDegrees>
              <LongitudeDegrees>-3.72091926634311676025390625</LongitudeDegrees>
            </Position>
            <AltitudeMeters>745</AltitudeMeters>
            <DistanceMeters>NAN</DistanceMeters>
          </Trackpoint>
          <Trackpoint>
            <Time>2020-03-07T18:04:05.000Z</Time>
            <Position>
              <LatitudeDegrees>40.603453405201435089111328125</LatitudeDegrees>
              <LongitudeDegrees>-3.72090761549770832061767578125</LongitudeDegrees>
            </Position>
            <AltitudeMeters>745</AltitudeMeters>
            <DistanceMeters>NAN</DistanceMeters>
          </Trackpoint>
          <Trackpoint>
            <Time>2020-03-07T18:04:06.000Z</Time>
            <Position>
              <LatitudeDegrees>40.60339246876537799835205078125</LatitudeDegrees>
              <LongitudeDegrees>-3.720893450081348419189453125</LongitudeDegrees>
            </Position>
            <AltitudeMeters>745</AltitudeMeters>
            <DistanceMeters>NAN</DistanceMeters>
          </Trackpoint>
          <Trackpoint>
            <Time>2020-03-07T18:04:07.000Z</Time>
            <Position>
              <LatitudeDegrees>40.60333329252898693084716796875</LatitudeDegrees>
              <LongitudeDegrees>-3.7208835594356060028076171875</LongitudeDegrees>
            </Position>
            <AltitudeMeters>744.79998779296875</AltitudeMeters>
            <DistanceMeters>NAN</DistanceMeters>
          </Trackpoint>
          <Trackpoint>
            <Time>2020-03-07T18:04:08.000Z</Time>
            <Position>
              <LatitudeDegrees>40.60327403247356414794921875</LatitudeDegrees>
              <LongitudeDegrees>-3.72087894938886165618896484375</LongitudeDegrees>
            </Position>
            <AltitudeMeters>744.79998779296875</AltitudeMeters>
            <DistanceMeters>NAN</DistanceMeters>
          </Trackpoint>
          <Trackpoint>
            <Time>2020-03-07T18:04:09.000Z</Time>
            <Position>
              <LatitudeDegrees>40.60321577824652194976806640625</LatitudeDegrees>
              <LongitudeDegrees>-3.72087576426565647125244140625</LongitudeDegrees>
            </Position>
            <AltitudeMeters>744.79998779296875</AltitudeMeters>
            <DistanceMeters>NAN</DistanceMeters>
          </Trackpoint>
          <Trackpoint>
            <Time>2020-03-07T18:04:10.000Z</Time>
            <Position>
              <LatitudeDegrees>40.6031592004001140594482421875</LatitudeDegrees>
              <LongitudeDegrees>-3.72086989693343639373779296875</LongitudeDegrees>
            </Position>
            <AltitudeMeters>744.79998779296875</AltitudeMeters>
            <DistanceMeters>NAN</DistanceMeters>
          </Trackpoint>
          <Trackpoint>
            <Time>2020-03-07T18:04:11.000Z</Time>
            <Position>
              <LatitudeDegrees>40.603102706372737884521484375</LatitudeDegrees>
              <LongitudeDegrees>-3.72086402960121631622314453125</LongitudeDegrees>
            </Position>
            <AltitudeMeters>744.79998779296875</AltitudeMeters>
            <DistanceMeters>NAN</DistanceMeters>
          </Trackpoint>
          <Trackpoint>
            <Time>2020-03-07T18:04:12.000Z</Time>
            <Position>
              <LatitudeDegrees>40.6030448712408542633056640625</LatitudeDegrees>
              <LongitudeDegrees>-3.7208560667932033538818359375</LongitudeDegrees>
            </Position>
            <AltitudeMeters>744.79998779296875</AltitudeMeters>
            <DistanceMeters>NAN</DistanceMeters>
          </Trackpoint>
          <Trackpoint>
            <Time>2020-03-07T18:04:13.000Z</Time>
            <Position>
              <LatitudeDegrees>40.6029841862618923187255859375</LatitudeDegrees>
              <LongitudeDegrees>-3.720846511423587799072265625</LongitudeDegrees>
            </Position>
            <AltitudeMeters>744.79998779296875</AltitudeMeters>
            <DistanceMeters>NAN</DistanceMeters>
          </Trackpoint>
          <Trackpoint>
            <Time>2020-03-07T18:04:14.000Z</Time>
            <Position>
              <LatitudeDegrees>40.60292459093034267425537109375</LatitudeDegrees>
              <LongitudeDegrees>-3.72083804570138454437255859375</LongitudeDegrees>
            </Position>
            <AltitudeMeters>744.79998779296875</AltitudeMeters>
            <DistanceMeters>NAN</DistanceMeters>
          </Trackpoint>
          <Trackpoint>
            <Time>2020-03-07T18:04:15.000Z</Time>
            <Position>
              <LatitudeDegrees>40.6028641574084758758544921875</LatitudeDegrees>
              <LongitudeDegrees>-3.72082941234111785888671875</LongitudeDegrees>
            </Position>
            <AltitudeMeters>744.79998779296875</AltitudeMeters>
            <DistanceMeters>NAN</DistanceMeters>
          </Trackpoint>
          <Trackpoint>
            <Time>2020-03-07T18:04:16.000Z</Time>
            <Position>
              <LatitudeDegrees>40.6028012931346893310546875</LatitudeDegrees>
              <LongitudeDegrees>-3.72081709094345569610595703125</LongitudeDegrees>
            </Position>
            <AltitudeMeters>744.79998779296875</AltitudeMeters>
            <DistanceMeters>NAN</DistanceMeters>
          </Trackpoint>
          <Trackpoint>
            <Time>2020-03-07T18:04:17.000Z</Time>
            <Position>
              <LatitudeDegrees>40.602737255394458770751953125</LatitudeDegrees>
              <LongitudeDegrees>-3.72080334462225437164306640625</LongitudeDegrees>
            </Position>
            <AltitudeMeters>744.5999755859375</AltitudeMeters>
            <DistanceMeters>NAN</DistanceMeters>
          </Trackpoint>
          <Trackpoint>
            <Time>2020-03-07T18:04:18.000Z</Time>
            <Position>
              <LatitudeDegrees>40.60267313383519649505615234375</LatitudeDegrees>
              <LongitudeDegrees>-3.72078926302492618560791015625</LongitudeDegrees>
            </Position>
            <AltitudeMeters>744.5999755859375</AltitudeMeters>
            <DistanceMeters>NAN</DistanceMeters>
          </Trackpoint>
          <Trackpoint>
            <Time>2020-03-07T18:04:19.000Z</Time>
            <Position>
              <LatitudeDegrees>40.602609179913997650146484375</LatitudeDegrees>
              <LongitudeDegrees>-3.72077635489404201507568359375</LongitudeDegrees>
            </Position>
            <AltitudeMeters>744.5999755859375</AltitudeMeters>
            <DistanceMeters>NAN</DistanceMeters>
          </Trackpoint>
          <Trackpoint>
            <Time>2020-03-07T18:04:20.000Z</Time>
            <Position>
              <LatitudeDegrees>40.60254639945924282073974609375</LatitudeDegrees>
              <LongitudeDegrees>-3.72076445259153842926025390625</LongitudeDegrees>
            </Position>
            <AltitudeMeters>744.5999755859375</AltitudeMeters>
            <DistanceMeters>NAN</DistanceMeters>
          </Trackpoint>
          <Trackpoint>
            <Time>2020-03-07T18:04:21.000Z</Time>
            <Position>
              <LatitudeDegrees>40.60248236171901226043701171875</LatitudeDegrees>
              <LongitudeDegrees>-3.72074902988970279693603515625</LongitudeDegrees>
            </Position>
            <AltitudeMeters>744.5999755859375</AltitudeMeters>
            <DistanceMeters>NAN</DistanceMeters>
          </Trackpoint>
          <Trackpoint>
            <Time>2020-03-07T18:04:22.000Z</Time>
            <Position>
              <LatitudeDegrees>40.60241798870265483856201171875</LatitudeDegrees>
              <LongitudeDegrees>-3.720735870301723480224609375</LongitudeDegrees>
            </Position>
            <AltitudeMeters>744.4000244140625</AltitudeMeters>
            <DistanceMeters>NAN</DistanceMeters>
          </Trackpoint>
          <Trackpoint>
            <Time>2020-03-07T18:04:23.000Z</Time>
            <Position>
              <LatitudeDegrees>40.6023535318672657012939453125</LatitudeDegrees>
              <LongitudeDegrees>-3.72072455473244190216064453125</LongitudeDegrees>
            </Position>
            <AltitudeMeters>744.20001220703125</AltitudeMeters>
            <DistanceMeters>NAN</DistanceMeters>
          </Trackpoint>
          <Trackpoint>
            <Time>2020-03-07T18:04:24.000Z</Time>
            <Position>
              <LatitudeDegrees>40.60228756628930568695068359375</LatitudeDegrees>
              <LongitudeDegrees>-3.72071399353444576263427734375</LongitudeDegrees>
            </Position>
            <AltitudeMeters>744.20001220703125</AltitudeMeters>
            <DistanceMeters>NAN</DistanceMeters>
          </Trackpoint>
          <Trackpoint>
            <Time>2020-03-07T18:04:25.000Z</Time>
            <Position>
              <LatitudeDegrees>40.60222126543521881103515625</LatitudeDegrees>
              <LongitudeDegrees>-3.7207028456032276153564453125</LongitudeDegrees>
            </Position>
            <AltitudeMeters>744</AltitudeMeters>
            <DistanceMeters>NAN</DistanceMeters>
          </Trackpoint>
          <Trackpoint>
            <Time>2020-03-07T18:04:26.000Z</Time>
            <Position>
              <LatitudeDegrees>40.60215395875275135040283203125</LatitudeDegrees>
              <LongitudeDegrees>-3.72069052420556545257568359375</LongitudeDegrees>
            </Position>
            <AltitudeMeters>744</AltitudeMeters>
            <DistanceMeters>NAN</DistanceMeters>
          </Trackpoint>
          <Trackpoint>
            <Time>2020-03-07T18:04:27.000Z</Time>
            <Position>
              <LatitudeDegrees>40.60208707116544246673583984375</LatitudeDegrees>
              <LongitudeDegrees>-3.7206780351698398590087890625</LongitudeDegrees>
            </Position>
            <AltitudeMeters>744</AltitudeMeters>
            <DistanceMeters>NAN</DistanceMeters>
          </Trackpoint>
          <Trackpoint>
            <Time>2020-03-07T18:04:28.000Z</Time>
            <Position>
              <LatitudeDegrees>40.60202387161552906036376953125</LatitudeDegrees>
              <LongitudeDegrees>-3.72066655196249485015869140625</LongitudeDegrees>
            </Position>
            <AltitudeMeters>744</AltitudeMeters>
            <DistanceMeters>NAN</DistanceMeters>
          </Trackpoint>
          <Trackpoint>
            <Time>2020-03-07T18:04:29.000Z</Time>
            <Position>
              <LatitudeDegrees>40.6019615940749645233154296875</LatitudeDegrees>
              <LongitudeDegrees>-3.7206559069454669952392578125</LongitudeDegrees>
            </Position>
            <AltitudeMeters>744</AltitudeMeters>
            <DistanceMeters>NAN</DistanceMeters>
          </Trackpoint>
          <Trackpoint>
            <Time>2020-03-07T18:04:30.000Z</Time>
            <Position>
              <LatitudeDegrees>40.60189764015376567840576171875</LatitudeDegrees>
              <LongitudeDegrees>-3.7206461839377880096435546875</LongitudeDegrees>
            </Position>
            <AltitudeMeters>743.79998779296875</AltitudeMeters>
            <DistanceMeters>NAN</DistanceMeters>
          </Trackpoint>
          <Trackpoint>
            <Time>2020-03-07T18:04:31.000Z</Time>
            <Position>
              <LatitudeDegrees>40.60183192603290081024169921875</LatitudeDegrees>
              <LongitudeDegrees>-3.72063285671174526214599609375</LongitudeDegrees>
            </Position>
            <AltitudeMeters>743.5999755859375</AltitudeMeters>
            <DistanceMeters>NAN</DistanceMeters>
          </Trackpoint>
          <Trackpoint>
            <Time>2020-03-07T18:04:32.000Z</Time>
            <Position>
              <LatitudeDegrees>40.601768307387828826904296875</LatitudeDegrees>
              <LongitudeDegrees>-3.72062061913311481475830078125</LongitudeDegrees>
            </Position>
            <AltitudeMeters>743.5999755859375</AltitudeMeters>
            <DistanceMeters>NAN</DistanceMeters>
          </Trackpoint>
          <Trackpoint>
            <Time>2020-03-07T18:04:33.000Z</Time>
            <Position>
              <LatitudeDegrees>40.6017042696475982666015625</LatitudeDegrees>
              <LongitudeDegrees>-3.72060687281191349029541015625</LongitudeDegrees>
            </Position>
            <AltitudeMeters>743.4000244140625</AltitudeMeters>
            <DistanceMeters>NAN</DistanceMeters>
          </Trackpoint>
          <Trackpoint>
            <Time>2020-03-07T18:04:34.000Z</Time>
            <Position>
              <LatitudeDegrees>40.60163998045027256011962890625</LatitudeDegrees>
              <LongitudeDegrees>-3.72059203684329986572265625</LongitudeDegrees>
            </Position>
            <AltitudeMeters>743.4000244140625</AltitudeMeters>
            <DistanceMeters>NAN</DistanceMeters>
          </Trackpoint>
          <Trackpoint>
            <Time>2020-03-07T18:04:35.000Z</Time>
            <Position>
              <LatitudeDegrees>40.60157485306262969970703125</LatitudeDegrees>
              <LongitudeDegrees>-3.72057854197919368743896484375</LongitudeDegrees>
            </Position>
            <AltitudeMeters>743.4000244140625</AltitudeMeters>
            <DistanceMeters>NAN</DistanceMeters>
          </Trackpoint>
          <Trackpoint>
            <Time>2020-03-07T18:04:36.000Z</Time>
            <Position>
              <LatitudeDegrees>40.60150989331305027008056640625</LatitudeDegrees>
              <LongitudeDegrees>-3.7205658853054046630859375</LongitudeDegrees>
            </Position>
            <AltitudeMeters>743.4000244140625</AltitudeMeters>
            <DistanceMeters>NAN</DistanceMeters>
          </Trackpoint>
          <Trackpoint>
            <Time>2020-03-07T18:04:37.000Z</Time>
            <Position>
              <LatitudeDegrees>40.60144451446831226348876953125</LatitudeDegrees>
              <LongitudeDegrees>-3.7205539830029010772705078125</LongitudeDegrees>
            </Position>
            <AltitudeMeters>743.4000244140625</AltitudeMeters>
            <DistanceMeters>NAN</DistanceMeters>
          </Trackpoint>
          <Trackpoint>
            <Time>2020-03-07T18:04:38.000Z</Time>
            <Position>
              <LatitudeDegrees>40.6013785488903522491455078125</LatitudeDegrees>
              <LongitudeDegrees>-3.72054283507168292999267578125</LongitudeDegrees>
            </Position>
            <AltitudeMeters>743.20001220703125</AltitudeMeters>
            <DistanceMeters>NAN</DistanceMeters>
          </Trackpoint>
          <Trackpoint>
            <Time>2020-03-07T18:04:39.000Z</Time>
            <Position>
              <LatitudeDegrees>40.60131191276013851165771484375</LatitudeDegrees>
              <LongitudeDegrees>-3.72053210623562335968017578125</LongitudeDegrees>
            </Position>
            <AltitudeMeters>743.20001220703125</AltitudeMeters>
            <DistanceMeters>NAN</DistanceMeters>
          </Trackpoint>
          <Trackpoint>
            <Time>2020-03-07T18:04:40.000Z</Time>
            <Position>
              <LatitudeDegrees>40.6012451089918613433837890625</LatitudeDegrees>
              <LongitudeDegrees>-3.72052188031375408172607421875</LongitudeDegrees>
            </Position>
            <AltitudeMeters>743.20001220703125</AltitudeMeters>
            <DistanceMeters>NAN</DistanceMeters>
          </Trackpoint>
          <Trackpoint>
            <Time>2020-03-07T18:04:41.000Z</Time>
            <Position>
              <LatitudeDegrees>40.601177215576171875</LatitudeDegrees>
              <LongitudeDegrees>-3.72051081620156764984130859375</LongitudeDegrees>
            </Position>
            <AltitudeMeters>743.20001220703125</AltitudeMeters>
            <DistanceMeters>NAN</DistanceMeters>
          </Trackpoint>
          <Trackpoint>
            <Time>2020-03-07T18:04:42.000Z</Time>
            <Position>
              <LatitudeDegrees>40.601109825074672698974609375</LatitudeDegrees>
              <LongitudeDegrees>-3.7205013446509838104248046875</LongitudeDegrees>
            </Position>
            <AltitudeMeters>743.20001220703125</AltitudeMeters>
            <DistanceMeters>NAN</DistanceMeters>
          </Trackpoint>
          <Trackpoint>
            <Time>2020-03-07T18:04:43.000Z</Time>
            <Position>
              <LatitudeDegrees>40.6010426022112369537353515625</LatitudeDegrees>
              <LongitudeDegrees>-3.72049422003328800201416015625</LongitudeDegrees>
            </Position>
            <AltitudeMeters>743.20001220703125</AltitudeMeters>
            <DistanceMeters>NAN</DistanceMeters>
          </Trackpoint>
          <Trackpoint>
            <Time>2020-03-07T18:04:44.000Z</Time>
            <Position>
              <LatitudeDegrees>40.60097579844295978546142578125</LatitudeDegrees>
              <LongitudeDegrees>-3.72048835270106792449951171875</LongitudeDegrees>
            </Position>
            <AltitudeMeters>743.20001220703125</AltitudeMeters>
            <DistanceMeters>NAN</DistanceMeters>
          </Trackpoint>
          <Trackpoint>
            <Time>2020-03-07T18:04:45.000Z</Time>
            <Position>
              <LatitudeDegrees>40.60091041959822177886962890625</LatitudeDegrees>
              <LongitudeDegrees>-3.72048215009272098541259765625</LongitudeDegrees>
            </Position>
            <AltitudeMeters>743</AltitudeMeters>
            <DistanceMeters>NAN</DistanceMeters>
          </Trackpoint>
          <Trackpoint>
            <Time>2020-03-07T18:04:46.000Z</Time>
            <Position>
              <LatitudeDegrees>40.6008464656770229339599609375</LatitudeDegrees>
              <LongitudeDegrees>-3.7204748578369617462158203125</LongitudeDegrees>
            </Position>
            <AltitudeMeters>743</AltitudeMeters>
            <DistanceMeters>NAN</DistanceMeters>
          </Trackpoint>
          <Trackpoint>
            <Time>2020-03-07T18:04:47.000Z</Time>
            <Position>
              <LatitudeDegrees>40.60078217647969722747802734375</LatitudeDegrees>
              <LongitudeDegrees>-3.7204668112099170684814453125</LongitudeDegrees>
            </Position>
            <AltitudeMeters>742.79998779296875</AltitudeMeters>
            <DistanceMeters>NAN</DistanceMeters>
          </Trackpoint>
          <Trackpoint>
            <Time>2020-03-07T18:04:48.000Z</Time>
            <Position>
              <LatitudeDegrees>40.6007214076817035675048828125</LatitudeDegrees>
              <LongitudeDegrees>-3.72045750729739665985107421875</LongitudeDegrees>
            </Position>
            <AltitudeMeters>742.79998779296875</AltitudeMeters>
            <DistanceMeters>NAN</DistanceMeters>
          </Trackpoint>
          <Trackpoint>
            <Time>2020-03-07T18:04:49.000Z</Time>
            <Position>
              <LatitudeDegrees>40.60066197998821735382080078125</LatitudeDegrees>
              <LongitudeDegrees>-3.720450215041637420654296875</LongitudeDegrees>
            </Position>
            <AltitudeMeters>742.79998779296875</AltitudeMeters>
            <DistanceMeters>NAN</DistanceMeters>
          </Trackpoint>
          <Trackpoint>
            <Time>2020-03-07T18:04:50.000Z</Time>
            <Position>
              <LatitudeDegrees>40.600604899227619171142578125</LatitudeDegrees>
              <LongitudeDegrees>-3.7204425036907196044921875</LongitudeDegrees>
            </Position>
            <AltitudeMeters>742.79998779296875</AltitudeMeters>
            <DistanceMeters>NAN</DistanceMeters>
          </Trackpoint>
          <Trackpoint>
            <Time>2020-03-07T18:04:51.000Z</Time>
            <Position>
              <LatitudeDegrees>40.600546896457672119140625</LatitudeDegrees>
              <LongitudeDegrees>-3.72043336741626262664794921875</LongitudeDegrees>
            </Position>
            <AltitudeMeters>742.79998779296875</AltitudeMeters>
            <DistanceMeters>NAN</DistanceMeters>
          </Trackpoint>
          <Trackpoint>
            <Time>2020-03-07T18:04:52.000Z</Time>
            <Position>
              <LatitudeDegrees>40.6004954315721988677978515625</LatitudeDegrees>
              <LongitudeDegrees>-3.72042615897953510284423828125</LongitudeDegrees>
            </Position>
            <AltitudeMeters>742.79998779296875</AltitudeMeters>
            <DistanceMeters>NAN</DistanceMeters>
          </Trackpoint>
          <Trackpoint>
            <Time>2020-03-07T18:04:53.000Z</Time>
            <Position>
              <LatitudeDegrees>40.6004427932202816009521484375</LatitudeDegrees>
              <LongitudeDegrees>-3.72041366994380950927734375</LongitudeDegrees>
            </Position>
            <AltitudeMeters>742.79998779296875</AltitudeMeters>
            <DistanceMeters>NAN</DistanceMeters>
          </Trackpoint>
          <Trackpoint>
            <Time>2020-03-07T18:04:54.000Z</Time>
            <Position>
              <LatitudeDegrees>40.60039459727704524993896484375</LatitudeDegrees>
              <LongitudeDegrees>-3.72040118090808391571044921875</LongitudeDegrees>
            </Position>
            <AltitudeMeters>742.79998779296875</AltitudeMeters>
            <DistanceMeters>NAN</DistanceMeters>
          </Trackpoint>
          <Trackpoint>
            <Time>2020-03-07T18:04:55.000Z</Time>
            <Position>
              <LatitudeDegrees>40.6003475748002529144287109375</LatitudeDegrees>
              <LongitudeDegrees>-3.72038458473980426788330078125</LongitudeDegrees>
            </Position>
            <AltitudeMeters>743</AltitudeMeters>
            <DistanceMeters>NAN</DistanceMeters>
          </Trackpoint>
          <Trackpoint>
            <Time>2020-03-07T18:04:56.000Z</Time>
            <Position>
              <LatitudeDegrees>40.600302480161190032958984375</LatitudeDegrees>
              <LongitudeDegrees>-3.72037167660892009735107421875</LongitudeDegrees>
            </Position>
            <AltitudeMeters>743.20001220703125</AltitudeMeters>
            <DistanceMeters>NAN</DistanceMeters>
          </Trackpoint>
          <Trackpoint>
            <Time>2020-03-07T18:04:57.000Z</Time>
            <Position>
              <LatitudeDegrees>40.60025746934115886688232421875</LatitudeDegrees>
              <LongitudeDegrees>-3.7203581817448139190673828125</LongitudeDegrees>
            </Position>
            <AltitudeMeters>743.4000244140625</AltitudeMeters>
            <DistanceMeters>NAN</DistanceMeters>
          </Trackpoint>
          <Trackpoint>
            <Time>2020-03-07T18:04:58.000Z</Time>
            <Position>
              <LatitudeDegrees>40.600213296711444854736328125</LatitudeDegrees>
              <LongitudeDegrees>-3.720342926681041717529296875</LongitudeDegrees>
            </Position>
            <AltitudeMeters>743.79998779296875</AltitudeMeters>
            <DistanceMeters>NAN</DistanceMeters>
          </Trackpoint>
          <Trackpoint>
            <Time>2020-03-07T18:04:59.000Z</Time>
            <Position>
              <LatitudeDegrees>40.6001678667962551116943359375</LatitudeDegrees>
              <LongitudeDegrees>-3.7203243188560009002685546875</LongitudeDegrees>
            </Position>
            <AltitudeMeters>744.20001220703125</AltitudeMeters>
            <DistanceMeters>NAN</DistanceMeters>
          </Trackpoint>
          <Trackpoint>
            <Time>2020-03-07T18:05:00.000Z</Time>
            <Position>
              <LatitudeDegrees>40.6001246161758899688720703125</LatitudeDegrees>
              <LongitudeDegrees>-3.72030369937419891357421875</LongitudeDegrees>
            </Position>
            <AltitudeMeters>744.4000244140625</AltitudeMeters>
            <DistanceMeters>NAN</DistanceMeters>
          </Trackpoint>
          <Trackpoint>
            <Time>2020-03-07T18:05:01.000Z</Time>
            <Position>
              <LatitudeDegrees>40.60007943771779537200927734375</LatitudeDegrees>
              <LongitudeDegrees>-3.72028299607336521148681640625</LongitudeDegrees>
            </Position>
            <AltitudeMeters>745</AltitudeMeters>
            <DistanceMeters>NAN</DistanceMeters>
          </Trackpoint>
          <Trackpoint>
            <Time>2020-03-07T18:05:02.000Z</Time>
            <Position>
              <LatitudeDegrees>40.60003467835485935211181640625</LatitudeDegrees>
              <LongitudeDegrees>-3.72026220895349979400634765625</LongitudeDegrees>
            </Position>
            <AltitudeMeters>745.4000244140625</AltitudeMeters>
            <DistanceMeters>NAN</DistanceMeters>
          </Trackpoint>
          <Trackpoint>
            <Time>2020-03-07T18:05:03.000Z</Time>
            <Position>
              <LatitudeDegrees>40.599989332258701324462890625</LatitudeDegrees>
              <LongitudeDegrees>-3.7202398292720317840576171875</LongitudeDegrees>
            </Position>
            <AltitudeMeters>745.79998779296875</AltitudeMeters>
            <DistanceMeters>NAN</DistanceMeters>
          </Trackpoint>
          <Trackpoint>
            <Time>2020-03-07T18:05:04.000Z</Time>
            <Position>
              <LatitudeDegrees>40.59994348324835300445556640625</LatitudeDegrees>
              <LongitudeDegrees>-3.7202153541147708892822265625</LongitudeDegrees>
            </Position>
            <AltitudeMeters>746.20001220703125</AltitudeMeters>
            <DistanceMeters>NAN</DistanceMeters>
          </Trackpoint>
          <Trackpoint>
            <Time>2020-03-07T18:05:05.000Z</Time>
            <Position>
              <LatitudeDegrees>40.5998976342380046844482421875</LatitudeDegrees>
              <LongitudeDegrees>-3.72018677182495594024658203125</LongitudeDegrees>
            </Position>
            <AltitudeMeters>746.5999755859375</AltitudeMeters>
            <DistanceMeters>NAN</DistanceMeters>
          </Trackpoint>
          <Trackpoint>
            <Time>2020-03-07T18:05:06.000Z</Time>
            <Position>
              <LatitudeDegrees>40.5998517014086246490478515625</LatitudeDegrees>
              <LongitudeDegrees>-3.72015911154448986053466796875</LongitudeDegrees>
            </Position>
            <AltitudeMeters>746.79998779296875</AltitudeMeters>
            <DistanceMeters>NAN</DistanceMeters>
          </Trackpoint>
          <Trackpoint>
            <Time>2020-03-07T18:05:07.000Z</Time>
            <Position>
              <LatitudeDegrees>40.59980568476021289825439453125</LatitudeDegrees>
              <LongitudeDegrees>-3.72013262473046779632568359375</LongitudeDegrees>
            </Position>
            <AltitudeMeters>747</AltitudeMeters>
            <DistanceMeters>NAN</DistanceMeters>
          </Trackpoint>
          <Trackpoint>
            <Time>2020-03-07T18:05:08.000Z</Time>
            <Position>
              <LatitudeDegrees>40.59975941665470600128173828125</LatitudeDegrees>
              <LongitudeDegrees>-3.7201057188212871551513671875</LongitudeDegrees>
            </Position>
            <AltitudeMeters>747</AltitudeMeters>
            <DistanceMeters>NAN</DistanceMeters>
          </Trackpoint>
          <Trackpoint>
            <Time>2020-03-07T18:05:09.000Z</Time>
            <Position>
              <LatitudeDegrees>40.59971029870212078094482421875</LatitudeDegrees>
              <LongitudeDegrees>-3.720078058540821075439453125</LongitudeDegrees>
            </Position>
            <AltitudeMeters>747</AltitudeMeters>
            <DistanceMeters>NAN</DistanceMeters>
          </Trackpoint>
          <Trackpoint>
            <Time>2020-03-07T18:05:10.000Z</Time>
            <Position>
              <LatitudeDegrees>40.5996595881879329681396484375</LatitudeDegrees>
              <LongitudeDegrees>-3.72005098499357700347900390625</LongitudeDegrees>
            </Position>
            <AltitudeMeters>747</AltitudeMeters>
            <DistanceMeters>NAN</DistanceMeters>
          </Trackpoint>
          <Trackpoint>
            <Time>2020-03-07T18:05:11.000Z</Time>
            <Position>
              <LatitudeDegrees>40.5996066145598888397216796875</LatitudeDegrees>
              <LongitudeDegrees>-3.72002332471311092376708984375</LongitudeDegrees>
            </Position>
            <AltitudeMeters>747</AltitudeMeters>
            <DistanceMeters>NAN</DistanceMeters>
          </Trackpoint>
          <Trackpoint>
            <Time>2020-03-07T18:05:12.000Z</Time>
            <Position>
              <LatitudeDegrees>40.5995539762079715728759765625</LatitudeDegrees>
              <LongitudeDegrees>-3.719994910061359405517578125</LongitudeDegrees>
            </Position>
            <AltitudeMeters>747</AltitudeMeters>
            <DistanceMeters>NAN</DistanceMeters>
          </Trackpoint>
          <Trackpoint>
            <Time>2020-03-07T18:05:13.000Z</Time>
            <Position>
              <LatitudeDegrees>40.5995010025799274444580078125</LatitudeDegrees>
              <LongitudeDegrees>-3.71996280737221240997314453125</LongitudeDegrees>
            </Position>
            <AltitudeMeters>747</AltitudeMeters>
            <DistanceMeters>NAN</DistanceMeters>
          </Trackpoint>
          <Trackpoint>
            <Time>2020-03-07T18:05:14.000Z</Time>
            <Position>
              <LatitudeDegrees>40.599446855485439300537109375</LatitudeDegrees>
              <LongitudeDegrees>-3.71993045322597026824951171875</LongitudeDegrees>
            </Position>
            <AltitudeMeters>747</AltitudeMeters>
            <DistanceMeters>NAN</DistanceMeters>
          </Trackpoint>
          <Trackpoint>
            <Time>2020-03-07T18:05:15.000Z</Time>
            <Position>
              <LatitudeDegrees>40.59939019381999969482421875</LatitudeDegrees>
              <LongitudeDegrees>-3.7198965065181255340576171875</LongitudeDegrees>
            </Position>
            <AltitudeMeters>747</AltitudeMeters>
            <DistanceMeters>NAN</DistanceMeters>
          </Trackpoint>
          <Trackpoint>
            <Time>2020-03-07T18:05:16.000Z</Time>
            <Position>
              <LatitudeDegrees>40.599334537982940673828125</LatitudeDegrees>
              <LongitudeDegrees>-3.71986121870577335357666015625</LongitudeDegrees>
            </Position>
            <AltitudeMeters>747</AltitudeMeters>
            <DistanceMeters>NAN</DistanceMeters>
          </Trackpoint>
          <Trackpoint>
            <Time>2020-03-07T18:05:17.000Z</Time>
            <Position>
              <LatitudeDegrees>40.59927863068878650665283203125</LatitudeDegrees>
              <LongitudeDegrees>-3.7198281101882457733154296875</LongitudeDegrees>
            </Position>
            <AltitudeMeters>746.79998779296875</AltitudeMeters>
            <DistanceMeters>NAN</DistanceMeters>
          </Trackpoint>
          <Trackpoint>
            <Time>2020-03-07T18:05:18.000Z</Time>
            <Position>
              <LatitudeDegrees>40.599221549928188323974609375</LatitudeDegrees>
              <LongitudeDegrees>-3.71979407966136932373046875</LongitudeDegrees>
            </Position>
            <AltitudeMeters>746.5999755859375</AltitudeMeters>
            <DistanceMeters>NAN</DistanceMeters>
          </Trackpoint>
          <Trackpoint>
            <Time>2020-03-07T18:05:19.000Z</Time>
            <Position>
              <LatitudeDegrees>40.5991643853485584259033203125</LatitudeDegrees>
              <LongitudeDegrees>-3.71976113878190517425537109375</LongitudeDegrees>
            </Position>
            <AltitudeMeters>746.5999755859375</AltitudeMeters>
            <DistanceMeters>NAN</DistanceMeters>
          </Trackpoint>
          <Trackpoint>
            <Time>2020-03-07T18:05:20.000Z</Time>
            <Position>
              <LatitudeDegrees>40.5991070531308650970458984375</LatitudeDegrees>
              <LongitudeDegrees>-3.719728700816631317138671875</LongitudeDegrees>
            </Position>
            <AltitudeMeters>746.5999755859375</AltitudeMeters>
            <DistanceMeters>NAN</DistanceMeters>
          </Trackpoint>
          <Trackpoint>
            <Time>2020-03-07T18:05:21.000Z</Time>
            <Position>
              <LatitudeDegrees>40.59904745779931545257568359375</LatitudeDegrees>
              <LongitudeDegrees>-3.71969483792781829833984375</LongitudeDegrees>
            </Position>
            <AltitudeMeters>746.4000244140625</AltitudeMeters>
            <DistanceMeters>NAN</DistanceMeters>
          </Trackpoint>
          <Trackpoint>
            <Time>2020-03-07T18:05:22.000Z</Time>
            <Position>
              <LatitudeDegrees>40.59898727573454380035400390625</LatitudeDegrees>
              <LongitudeDegrees>-3.71966424398124217987060546875</LongitudeDegrees>
            </Position>
            <AltitudeMeters>746.4000244140625</AltitudeMeters>
            <DistanceMeters>NAN</DistanceMeters>
          </Trackpoint>
          <Trackpoint>
            <Time>2020-03-07T18:05:23.000Z</Time>
            <Position>
              <LatitudeDegrees>40.5989276804029941558837890625</LatitudeDegrees>
              <LongitudeDegrees>-3.719635494053363800048828125</LongitudeDegrees>
            </Position>
            <AltitudeMeters>746.4000244140625</AltitudeMeters>
            <DistanceMeters>NAN</DistanceMeters>
          </Trackpoint>
          <Trackpoint>
            <Time>2020-03-07T18:05:24.000Z</Time>
            <Position>
              <LatitudeDegrees>40.59886984527111053466796875</LatitudeDegrees>
              <LongitudeDegrees>-3.7196058221161365509033203125</LongitudeDegrees>
            </Position>
            <AltitudeMeters>746.20001220703125</AltitudeMeters>
            <DistanceMeters>NAN</DistanceMeters>
          </Trackpoint>
          <Trackpoint>
            <Time>2020-03-07T18:05:25.000Z</Time>
            <Position>
              <LatitudeDegrees>40.59881217777729034423828125</LatitudeDegrees>
              <LongitudeDegrees>-3.71957371942698955535888671875</LongitudeDegrees>
            </Position>
            <AltitudeMeters>746</AltitudeMeters>
            <DistanceMeters>NAN</DistanceMeters>
          </Trackpoint>
          <Trackpoint>
            <Time>2020-03-07T18:05:26.000Z</Time>
            <Position>
              <LatitudeDegrees>40.59875585138797760009765625</LatitudeDegrees>
              <LongitudeDegrees>-3.71954195201396942138671875</LongitudeDegrees>
            </Position>
            <AltitudeMeters>746</AltitudeMeters>
            <DistanceMeters>NAN</DistanceMeters>
          </Trackpoint>
          <Trackpoint>
            <Time>2020-03-07T18:05:27.000Z</Time>
            <Position>
              <LatitudeDegrees>40.5987003631889820098876953125</LatitudeDegrees>
              <LongitudeDegrees>-3.71950934641063213348388671875</LongitudeDegrees>
            </Position>
            <AltitudeMeters>745.5999755859375</AltitudeMeters>
            <DistanceMeters>NAN</DistanceMeters>
          </Trackpoint>
          <Trackpoint>
            <Time>2020-03-07T18:05:28.000Z</Time>
            <Position>
              <LatitudeDegrees>40.59864512644708156585693359375</LatitudeDegrees>
              <LongitudeDegrees>-3.71947615407407283782958984375</LongitudeDegrees>
            </Position>
            <AltitudeMeters>745.5999755859375</AltitudeMeters>
            <DistanceMeters>NAN</DistanceMeters>
          </Trackpoint>
          <Trackpoint>
            <Time>2020-03-07T18:05:29.000Z</Time>
            <Position>
              <LatitudeDegrees>40.59858963824808597564697265625</LatitudeDegrees>
              <LongitudeDegrees>-3.7194422073662281036376953125</LongitudeDegrees>
            </Position>
            <AltitudeMeters>745.4000244140625</AltitudeMeters>
            <DistanceMeters>NAN</DistanceMeters>
          </Trackpoint>
          <Trackpoint>
            <Time>2020-03-07T18:05:30.000Z</Time>
            <Position>
              <LatitudeDegrees>40.598534233868122100830078125</LatitudeDegrees>
              <LongitudeDegrees>-3.71940624900162220001220703125</LongitudeDegrees>
            </Position>
            <AltitudeMeters>745.4000244140625</AltitudeMeters>
            <DistanceMeters>NAN</DistanceMeters>
          </Trackpoint>
          <Trackpoint>
            <Time>2020-03-07T18:05:31.000Z</Time>
            <Position>
              <LatitudeDegrees>40.59847983531653881072998046875</LatitudeDegrees>
              <LongitudeDegrees>-3.71937104500830173492431640625</LongitudeDegrees>
            </Position>
            <AltitudeMeters>745.4000244140625</AltitudeMeters>
            <DistanceMeters>NAN</DistanceMeters>
          </Trackpoint>
          <Trackpoint>
            <Time>2020-03-07T18:05:32.000Z</Time>
            <Position>
              <LatitudeDegrees>40.598425604403018951416015625</LatitudeDegrees>
              <LongitudeDegrees>-3.71933416463434696197509765625</LongitudeDegrees>
            </Position>
            <AltitudeMeters>745.4000244140625</AltitudeMeters>
            <DistanceMeters>NAN</DistanceMeters>
          </Trackpoint>
          <Trackpoint>
            <Time>2020-03-07T18:05:33.000Z</Time>
            <Position>
              <LatitudeDegrees>40.598370619118213653564453125</LatitudeDegrees>
              <LongitudeDegrees>-3.71929518878459930419921875</LongitudeDegrees>
            </Position>
            <AltitudeMeters>745.4000244140625</AltitudeMeters>
            <DistanceMeters>NAN</DistanceMeters>
          </Trackpoint>
          <Trackpoint>
            <Time>2020-03-07T18:05:34.000Z</Time>
            <Position>
              <LatitudeDegrees>40.59831638820469379425048828125</LatitudeDegrees>
              <LongitudeDegrees>-3.7192601524293422698974609375</LongitudeDegrees>
            </Position>
            <AltitudeMeters>745.4000244140625</AltitudeMeters>
            <DistanceMeters>NAN</DistanceMeters>
          </Trackpoint>
          <Trackpoint>
            <Time>2020-03-07T18:05:35.000Z</Time>
            <Position>
              <LatitudeDegrees>40.59826274402439594268798828125</LatitudeDegrees>
              <LongitudeDegrees>-3.7192239426076412200927734375</LongitudeDegrees>
            </Position>
            <AltitudeMeters>745.4000244140625</AltitudeMeters>
            <DistanceMeters>NAN</DistanceMeters>
          </Trackpoint>
          <Trackpoint>
            <Time>2020-03-07T18:05:36.000Z</Time>
            <Position>
              <LatitudeDegrees>40.5982098542153835296630859375</LatitudeDegrees>
              <LongitudeDegrees>-3.71918681077659130096435546875</LongitudeDegrees>
            </Position>
            <AltitudeMeters>745.4000244140625</AltitudeMeters>
            <DistanceMeters>NAN</DistanceMeters>
          </Trackpoint>
          <Trackpoint>
            <Time>2020-03-07T18:05:37.000Z</Time>
            <Position>
              <LatitudeDegrees>40.59815637767314910888671875</LatitudeDegrees>
              <LongitudeDegrees>-3.71914976276457309722900390625</LongitudeDegrees>
            </Position>
            <AltitudeMeters>745.4000244140625</AltitudeMeters>
            <DistanceMeters>NAN</DistanceMeters>
          </Trackpoint>
          <Trackpoint>
            <Time>2020-03-07T18:05:38.000Z</Time>
            <Position>
              <LatitudeDegrees>40.598103739321231842041015625</LatitudeDegrees>
              <LongitudeDegrees>-3.7191112898290157318115234375</LongitudeDegrees>
            </Position>
            <AltitudeMeters>745.4000244140625</AltitudeMeters>
            <DistanceMeters>NAN</DistanceMeters>
          </Trackpoint>
          <Trackpoint>
            <Time>2020-03-07T18:05:39.000Z</Time>
            <Position>
              <LatitudeDegrees>40.5980512686073780059814453125</LatitudeDegrees>
              <LongitudeDegrees>-3.71907264925539493560791015625</LongitudeDegrees>
            </Position>
            <AltitudeMeters>745.4000244140625</AltitudeMeters>
            <DistanceMeters>NAN</DistanceMeters>
          </Trackpoint>
          <Trackpoint>
            <Time>2020-03-07T18:05:40.000Z</Time>
            <Position>
              <LatitudeDegrees>40.59800022281706333160400390625</LatitudeDegrees>
              <LongitudeDegrees>-3.7190385349094867706298828125</LongitudeDegrees>
            </Position>
            <AltitudeMeters>745.4000244140625</AltitudeMeters>
            <DistanceMeters>NAN</DistanceMeters>
          </Trackpoint>
          <Trackpoint>
            <Time>2020-03-07T18:05:41.000Z</Time>
            <Position>
              <LatitudeDegrees>40.59794875793159008026123046875</LatitudeDegrees>
              <LongitudeDegrees>-3.71900207363069057464599609375</LongitudeDegrees>
            </Position>
            <AltitudeMeters>745.4000244140625</AltitudeMeters>
            <DistanceMeters>NAN</DistanceMeters>
          </Trackpoint>
          <Trackpoint>
            <Time>2020-03-07T18:05:42.000Z</Time>
            <Position>
              <LatitudeDegrees>40.59789796359837055206298828125</LatitudeDegrees>
              <LongitudeDegrees>-3.71896536089479923248291015625</LongitudeDegrees>
            </Position>
            <AltitudeMeters>745.5999755859375</AltitudeMeters>
            <DistanceMeters>NAN</DistanceMeters>
          </Trackpoint>
          <Trackpoint>
            <Time>2020-03-07T18:05:43.000Z</Time>
            <Position>
              <LatitudeDegrees>40.5978504382073879241943359375</LatitudeDegrees>
              <LongitudeDegrees>-3.71892814524471759796142578125</LongitudeDegrees>
            </Position>
            <AltitudeMeters>745.5999755859375</AltitudeMeters>
            <DistanceMeters>NAN</DistanceMeters>
          </Trackpoint>
          <Trackpoint>
            <Time>2020-03-07T18:05:44.000Z</Time>
            <Position>
              <LatitudeDegrees>40.59780274517834186553955078125</LatitudeDegrees>
              <LongitudeDegrees>-3.71888657100498676300048828125</LongitudeDegrees>
            </Position>
            <AltitudeMeters>745.5999755859375</AltitudeMeters>
            <DistanceMeters>NAN</DistanceMeters>
          </Trackpoint>
          <Trackpoint>
            <Time>2020-03-07T18:05:45.000Z</Time>
            <Position>
              <LatitudeDegrees>40.5977562256157398223876953125</LatitudeDegrees>
              <LongitudeDegrees>-3.71884633786976337432861328125</LongitudeDegrees>
            </Position>
            <AltitudeMeters>745.5999755859375</AltitudeMeters>
            <DistanceMeters>NAN</DistanceMeters>
          </Trackpoint>
          <Trackpoint>
            <Time>2020-03-07T18:05:46.000Z</Time>
            <Position>
              <LatitudeDegrees>40.59771247208118438720703125</LatitudeDegrees>
              <LongitudeDegrees>-3.71880157850682735443115234375</LongitudeDegrees>
            </Position>
            <AltitudeMeters>745.79998779296875</AltitudeMeters>
            <DistanceMeters>NAN</DistanceMeters>
          </Trackpoint>
          <Trackpoint>
            <Time>2020-03-07T18:05:47.000Z</Time>
            <Position>
              <LatitudeDegrees>40.5976754240691661834716796875</LatitudeDegrees>
              <LongitudeDegrees>-3.7187468446791172027587890625</LongitudeDegrees>
            </Position>
            <AltitudeMeters>745.79998779296875</AltitudeMeters>
            <DistanceMeters>NAN</DistanceMeters>
          </Trackpoint>
          <Trackpoint>
            <Time>2020-03-07T18:05:48.000Z</Time>
            <Position>
              <LatitudeDegrees>40.5976460874080657958984375</LatitudeDegrees>
              <LongitudeDegrees>-3.718681633472442626953125</LongitudeDegrees>
            </Position>
            <AltitudeMeters>746</AltitudeMeters>
            <DistanceMeters>NAN</DistanceMeters>
          </Trackpoint>
          <Trackpoint>
            <Time>2020-03-07T18:05:49.000Z</Time>
            <Position>
              <LatitudeDegrees>40.5976244620978832244873046875</LatitudeDegrees>
              <LongitudeDegrees>-3.7186110578477382659912109375</LongitudeDegrees>
            </Position>
            <AltitudeMeters>746.20001220703125</AltitudeMeters>
            <DistanceMeters>NAN</DistanceMeters>
          </Trackpoint>
          <Trackpoint>
            <Time>2020-03-07T18:05:50.000Z</Time>
            <Position>
              <LatitudeDegrees>40.5976053513586521148681640625</LatitudeDegrees>
              <LongitudeDegrees>-3.7185372970998287200927734375</LongitudeDegrees>
            </Position>
            <AltitudeMeters>746.4000244140625</AltitudeMeters>
            <DistanceMeters>NAN</DistanceMeters>
          </Trackpoint>
          <Trackpoint>
            <Time>2020-03-07T18:05:51.000Z</Time>
            <Position>
              <LatitudeDegrees>40.5975835584104061126708984375</LatitudeDegrees>
              <LongitudeDegrees>-3.7184689007699489593505859375</LongitudeDegrees>
            </Position>
            <AltitudeMeters>746.5999755859375</AltitudeMeters>
            <DistanceMeters>NAN</DistanceMeters>
          </Trackpoint>
          <Trackpoint>
            <Time>2020-03-07T18:05:52.000Z</Time>
            <Position>
              <LatitudeDegrees>40.59754885733127593994140625</LatitudeDegrees>
              <LongitudeDegrees>-3.718412406742572784423828125</LongitudeDegrees>
            </Position>
            <AltitudeMeters>746.5999755859375</AltitudeMeters>
            <DistanceMeters>NAN</DistanceMeters>
          </Trackpoint>
          <Trackpoint>
            <Time>2020-03-07T18:05:53.000Z</Time>
            <Position>
              <LatitudeDegrees>40.597500912845134735107421875</LatitudeDegrees>
              <LongitudeDegrees>-3.7183710001409053802490234375</LongitudeDegrees>
            </Position>
            <AltitudeMeters>746.79998779296875</AltitudeMeters>
            <DistanceMeters>NAN</DistanceMeters>
          </Trackpoint>
          <Trackpoint>
            <Time>2020-03-07T18:05:54.000Z</Time>
            <Position>
              <LatitudeDegrees>40.597441233694553375244140625</LatitudeDegrees>
              <LongitudeDegrees>-3.71835105121135711669921875</LongitudeDegrees>
            </Position>
            <AltitudeMeters>746.79998779296875</AltitudeMeters>
            <DistanceMeters>NAN</DistanceMeters>
          </Trackpoint>
          <Trackpoint>
            <Time>2020-03-07T18:05:55.000Z</Time>
            <Position>
              <LatitudeDegrees>40.59737526811659336090087890625</LatitudeDegrees>
              <LongitudeDegrees>-3.71835834346711635589599609375</LongitudeDegrees>
            </Position>
            <AltitudeMeters>746.79998779296875</AltitudeMeters>
            <DistanceMeters>NAN</DistanceMeters>
          </Trackpoint>
          <Trackpoint>
            <Time>2020-03-07T18:05:56.000Z</Time>
            <Position>
              <LatitudeDegrees>40.597314499318599700927734375</LatitudeDegrees>
              <LongitudeDegrees>-3.71839455328881740570068359375</LongitudeDegrees>
            </Position>
            <AltitudeMeters>746.79998779296875</AltitudeMeters>
            <DistanceMeters>NAN</DistanceMeters>
          </Trackpoint>
          <Trackpoint>
            <Time>2020-03-07T18:05:57.000Z</Time>
            <Position>
              <LatitudeDegrees>40.5972611904144287109375</LatitudeDegrees>
              <LongitudeDegrees>-3.71845188550651073455810546875</LongitudeDegrees>
            </Position>
            <AltitudeMeters>746.79998779296875</AltitudeMeters>
            <DistanceMeters>NAN</DistanceMeters>
          </Trackpoint>
          <Trackpoint>
            <Time>2020-03-07T18:05:58.000Z</Time>
            <Position>
              <LatitudeDegrees>40.597213916480541229248046875</LatitudeDegrees>
              <LongitudeDegrees>-3.71851726435124874114990234375</LongitudeDegrees>
            </Position>
            <AltitudeMeters>746.79998779296875</AltitudeMeters>
            <DistanceMeters>NAN</DistanceMeters>
          </Trackpoint>
          <Trackpoint>
            <Time>2020-03-07T18:06:01.000Z</Time>
            <Position>
              <LatitudeDegrees>40.59707544744014739990234375</LatitudeDegrees>
              <LongitudeDegrees>-3.71870233677327632904052734375</LongitudeDegrees>
            </Position>
            <AltitudeMeters>746.79998779296875</AltitudeMeters>
            <DistanceMeters>NAN</DistanceMeters>
          </Trackpoint>
          <Trackpoint>
            <Time>2020-03-07T18:06:02.000Z</Time>
            <Position>
              <LatitudeDegrees>40.59703730978071689605712890625</LatitudeDegrees>
              <LongitudeDegrees>-3.71875740587711334228515625</LongitudeDegrees>
            </Position>
            <AltitudeMeters>746.79998779296875</AltitudeMeters>
            <DistanceMeters>NAN</DistanceMeters>
          </Trackpoint>
          <Trackpoint>
            <Time>2020-03-07T18:06:03.000Z</Time>
            <Position>
              <LatitudeDegrees>40.59699757955968379974365234375</LatitudeDegrees>
              <LongitudeDegrees>-3.7188085354864597320556640625</LongitudeDegrees>
            </Position>
            <AltitudeMeters>746.79998779296875</AltitudeMeters>
            <DistanceMeters>NAN</DistanceMeters>
          </Trackpoint>
          <Trackpoint>
            <Time>2020-03-07T18:06:04.000Z</Time>
            <Position>
              <LatitudeDegrees>40.59696103446185588836669921875</LatitudeDegrees>
              <LongitudeDegrees>-3.718853294849395751953125</LongitudeDegrees>
            </Position>
            <AltitudeMeters>746.79998779296875</AltitudeMeters>
            <DistanceMeters>NAN</DistanceMeters>
          </Trackpoint>
          <Trackpoint>
            <Time>2020-03-07T18:06:05.000Z</Time>
            <Position>
              <LatitudeDegrees>40.59692717157304286956787109375</LatitudeDegrees>
              <LongitudeDegrees>-3.71888556517660617828369140625</LongitudeDegrees>
            </Position>
            <AltitudeMeters>746.79998779296875</AltitudeMeters>
            <DistanceMeters>NAN</DistanceMeters>
          </Trackpoint>
          <Trackpoint>
            <Time>2020-03-07T18:06:06.000Z</Time>
            <Position>
              <LatitudeDegrees>40.59688911773264408111572265625</LatitudeDegrees>
              <LongitudeDegrees>-3.71890517883002758026123046875</LongitudeDegrees>
            </Position>
            <AltitudeMeters>746.79998779296875</AltitudeMeters>
            <DistanceMeters>NAN</DistanceMeters>
          </Trackpoint>
          <Trackpoint>
            <Time>2020-03-07T18:06:07.000Z</Time>
            <Position>
              <LatitudeDegrees>40.59685223735868930816650390625</LatitudeDegrees>
              <LongitudeDegrees>-3.718915991485118865966796875</LongitudeDegrees>
            </Position>
            <AltitudeMeters>746.79998779296875</AltitudeMeters>
            <DistanceMeters>NAN</DistanceMeters>
          </Trackpoint>
          <Trackpoint>
            <Time>2020-03-07T18:06:08.000Z</Time>
            <Position>
              <LatitudeDegrees>40.59681661427021026611328125</LatitudeDegrees>
              <LongitudeDegrees>-3.71890936978161334991455078125</LongitudeDegrees>
            </Position>
            <AltitudeMeters>746.79998779296875</AltitudeMeters>
            <DistanceMeters>NAN</DistanceMeters>
          </Trackpoint>
          <Trackpoint>
            <Time>2020-03-07T18:06:09.000Z</Time>
            <Position>
              <LatitudeDegrees>40.596786104142665863037109375</LatitudeDegrees>
              <LongitudeDegrees>-3.71889428235590457916259765625</LongitudeDegrees>
            </Position>
            <AltitudeMeters>746.79998779296875</AltitudeMeters>
            <DistanceMeters>NAN</DistanceMeters>
          </Trackpoint>
          <Trackpoint>
            <Time>2020-03-07T18:06:10.000Z</Time>
            <Position>
              <LatitudeDegrees>40.59675970114767551422119140625</LatitudeDegrees>
              <LongitudeDegrees>-3.71887332759797573089599609375</LongitudeDegrees>
            </Position>
            <AltitudeMeters>746.79998779296875</AltitudeMeters>
            <DistanceMeters>NAN</DistanceMeters>
          </Trackpoint>
          <Trackpoint>
            <Time>2020-03-07T18:06:11.000Z</Time>
            <Position>
              <LatitudeDegrees>40.596735812723636627197265625</LatitudeDegrees>
              <LongitudeDegrees>-3.71884449385106563568115234375</LongitudeDegrees>
            </Position>
            <AltitudeMeters>747.20001220703125</AltitudeMeters>
            <DistanceMeters>NAN</DistanceMeters>
          </Trackpoint>
          <Trackpoint>
            <Time>2020-03-07T18:06:12.000Z</Time>
            <Position>
              <LatitudeDegrees>40.59671276248991489410400390625</LatitudeDegrees>
              <LongitudeDegrees>-3.71881146915256977081298828125</LongitudeDegrees>
            </Position>
            <AltitudeMeters>747.5999755859375</AltitudeMeters>
            <DistanceMeters>NAN</DistanceMeters>
          </Trackpoint>
          <Trackpoint>
            <Time>2020-03-07T18:06:13.000Z</Time>
            <Position>
              <LatitudeDegrees>40.59668920934200286865234375</LatitudeDegrees>
              <LongitudeDegrees>-3.71877274475991725921630859375</LongitudeDegrees>
            </Position>
            <AltitudeMeters>747.79998779296875</AltitudeMeters>
            <DistanceMeters>NAN</DistanceMeters>
          </Trackpoint>
          <Trackpoint>
            <Time>2020-03-07T18:06:14.000Z</Time>
            <Position>
              <LatitudeDegrees>40.59666783548891544342041015625</LatitudeDegrees>
              <LongitudeDegrees>-3.71872982941567897796630859375</LongitudeDegrees>
            </Position>
            <AltitudeMeters>748.4000244140625</AltitudeMeters>
            <DistanceMeters>NAN</DistanceMeters>
          </Trackpoint>
          <Trackpoint>
            <Time>2020-03-07T18:06:15.000Z</Time>
            <Position>
              <LatitudeDegrees>40.5966464616358280181884765625</LatitudeDegrees>
              <LongitudeDegrees>-3.7186818011105060577392578125</LongitudeDegrees>
            </Position>
            <AltitudeMeters>748.79998779296875</AltitudeMeters>
            <DistanceMeters>NAN</DistanceMeters>
          </Trackpoint>
          <Trackpoint>
            <Time>2020-03-07T18:06:16.000Z</Time>
            <Position>
              <LatitudeDegrees>40.59662726707756519317626953125</LatitudeDegrees>
              <LongitudeDegrees>-3.71863000094890594482421875</LongitudeDegrees>
            </Position>
            <AltitudeMeters>749</AltitudeMeters>
            <DistanceMeters>NAN</DistanceMeters>
          </Trackpoint>
          <Trackpoint>
            <Time>2020-03-07T18:06:17.000Z</Time>
            <Position>
              <LatitudeDegrees>40.59660983271896839141845703125</LatitudeDegrees>
              <LongitudeDegrees>-3.71857543475925922393798828125</LongitudeDegrees>
            </Position>
            <AltitudeMeters>749.4000244140625</AltitudeMeters>
            <DistanceMeters>NAN</DistanceMeters>
          </Trackpoint>
          <Trackpoint>
            <Time>2020-03-07T18:06:18.000Z</Time>
            <Position>
              <LatitudeDegrees>40.5965938232839107513427734375</LatitudeDegrees>
              <LongitudeDegrees>-3.71851894073188304901123046875</LongitudeDegrees>
            </Position>
            <AltitudeMeters>749.79998779296875</AltitudeMeters>
            <DistanceMeters>NAN</DistanceMeters>
          </Trackpoint>
          <Trackpoint>
            <Time>2020-03-07T18:06:19.000Z</Time>
            <Position>
              <LatitudeDegrees>40.59657932259142398834228515625</LatitudeDegrees>
              <LongitudeDegrees>-3.71846144087612628936767578125</LongitudeDegrees>
            </Position>
            <AltitudeMeters>750</AltitudeMeters>
            <DistanceMeters>NAN</DistanceMeters>
          </Trackpoint>
          <Trackpoint>
            <Time>2020-03-07T18:06:20.000Z</Time>
            <Position>
              <LatitudeDegrees>40.596566498279571533203125</LatitudeDegrees>
              <LongitudeDegrees>-3.718406371772289276123046875</LongitudeDegrees>
            </Position>
            <AltitudeMeters>750.4000244140625</AltitudeMeters>
            <DistanceMeters>NAN</DistanceMeters>
          </Trackpoint>
          <Trackpoint>
            <Time>2020-03-07T18:06:21.000Z</Time>
            <Position>
              <LatitudeDegrees>40.59655250050127506256103515625</LatitudeDegrees>
              <LongitudeDegrees>-3.71834845282137393951416015625</LongitudeDegrees>
            </Position>
            <AltitudeMeters>750.5999755859375</AltitudeMeters>
            <DistanceMeters>NAN</DistanceMeters>
          </Trackpoint>
          <Trackpoint>
            <Time>2020-03-07T18:06:22.000Z</Time>
            <Position>
              <LatitudeDegrees>40.59653699398040771484375</LatitudeDegrees>
              <LongitudeDegrees>-3.71828726492822170257568359375</LongitudeDegrees>
            </Position>
            <AltitudeMeters>750.5999755859375</AltitudeMeters>
            <DistanceMeters>NAN</DistanceMeters>
          </Trackpoint>
          <Trackpoint>
            <Time>2020-03-07T18:06:23.000Z</Time>
            <Position>
              <LatitudeDegrees>40.5965210683643817901611328125</LatitudeDegrees>
              <LongitudeDegrees>-3.7182291783392429351806640625</LongitudeDegrees>
            </Position>
            <AltitudeMeters>750.79998779296875</AltitudeMeters>
            <DistanceMeters>NAN</DistanceMeters>
          </Trackpoint>
          <Trackpoint>
            <Time>2020-03-07T18:06:24.000Z</Time>
            <Position>
              <LatitudeDegrees>40.59649852104485034942626953125</LatitudeDegrees>
              <LongitudeDegrees>-3.71817494742572307586669921875</LongitudeDegrees>
            </Position>
            <AltitudeMeters>750.79998779296875</AltitudeMeters>
            <DistanceMeters>NAN</DistanceMeters>
          </Trackpoint>
          <Trackpoint>
            <Time>2020-03-07T18:06:25.000Z</Time>
            <Position>
              <LatitudeDegrees>40.59647052548825740814208984375</LatitudeDegrees>
              <LongitudeDegrees>-3.7181245721876621246337890625</LongitudeDegrees>
            </Position>
            <AltitudeMeters>750.79998779296875</AltitudeMeters>
            <DistanceMeters>NAN</DistanceMeters>
          </Trackpoint>
          <Trackpoint>
            <Time>2020-03-07T18:06:26.000Z</Time>
            <Position>
              <LatitudeDegrees>40.59644043445587158203125</LatitudeDegrees>
              <LongitudeDegrees>-3.718074448406696319580078125</LongitudeDegrees>
            </Position>
            <AltitudeMeters>751</AltitudeMeters>
            <DistanceMeters>NAN</DistanceMeters>
          </Trackpoint>
          <Trackpoint>
            <Time>2020-03-07T18:06:27.000Z</Time>
            <Position>
              <LatitudeDegrees>40.59641034342348575592041015625</LatitudeDegrees>
              <LongitudeDegrees>-3.71802172623574733734130859375</LongitudeDegrees>
            </Position>
            <AltitudeMeters>751</AltitudeMeters>
            <DistanceMeters>NAN</DistanceMeters>
          </Trackpoint>
          <Trackpoint>
            <Time>2020-03-07T18:06:28.000Z</Time>
            <Position>
              <LatitudeDegrees>40.5963836051523685455322265625</LatitudeDegrees>
              <LongitudeDegrees>-3.71796749532222747802734375</LongitudeDegrees>
            </Position>
            <AltitudeMeters>751</AltitudeMeters>
            <DistanceMeters>NAN</DistanceMeters>
          </Trackpoint>
          <Trackpoint>
            <Time>2020-03-07T18:06:29.000Z</Time>
            <Position>
              <LatitudeDegrees>40.596358291804790496826171875</LatitudeDegrees>
              <LongitudeDegrees>-3.71791192330420017242431640625</LongitudeDegrees>
            </Position>
            <AltitudeMeters>751</AltitudeMeters>
            <DistanceMeters>NAN</DistanceMeters>
          </Trackpoint>
          <Trackpoint>
            <Time>2020-03-07T18:06:30.000Z</Time>
            <Position>
              <LatitudeDegrees>40.59633574448525905609130859375</LatitudeDegrees>
              <LongitudeDegrees>-3.71785324998199939727783203125</LongitudeDegrees>
            </Position>
            <AltitudeMeters>751</AltitudeMeters>
            <DistanceMeters>NAN</DistanceMeters>
          </Trackpoint>
          <Trackpoint>
            <Time>2020-03-07T18:06:31.000Z</Time>
            <Position>
              <LatitudeDegrees>40.59631579555571079254150390625</LatitudeDegrees>
              <LongitudeDegrees>-3.71779323555529117584228515625</LongitudeDegrees>
            </Position>
            <AltitudeMeters>751</AltitudeMeters>
            <DistanceMeters>NAN</DistanceMeters>
          </Trackpoint>
          <Trackpoint>
            <Time>2020-03-07T18:06:32.000Z</Time>
            <Position>
              <LatitudeDegrees>40.59629802592098712921142578125</LatitudeDegrees>
              <LongitudeDegrees>-3.7177333049476146697998046875</LongitudeDegrees>
            </Position>
            <AltitudeMeters>751</AltitudeMeters>
            <DistanceMeters>NAN</DistanceMeters>
          </Trackpoint>
          <Trackpoint>
            <Time>2020-03-07T18:06:33.000Z</Time>
            <Position>
              <LatitudeDegrees>40.59628092683851718902587890625</LatitudeDegrees>
              <LongitudeDegrees>-3.7176744639873504638671875</LongitudeDegrees>
            </Position>
            <AltitudeMeters>751.20001220703125</AltitudeMeters>
            <DistanceMeters>NAN</DistanceMeters>
          </Trackpoint>
          <Trackpoint>
            <Time>2020-03-07T18:06:34.000Z</Time>
            <Position>
              <LatitudeDegrees>40.596264414489269256591796875</LatitudeDegrees>
              <LongitudeDegrees>-3.71761453337967395782470703125</LongitudeDegrees>
            </Position>
            <AltitudeMeters>751.20001220703125</AltitudeMeters>
            <DistanceMeters>NAN</DistanceMeters>
          </Trackpoint>
          <Trackpoint>
            <Time>2020-03-07T18:06:35.000Z</Time>
            <Position>
              <LatitudeDegrees>40.596246980130672454833984375</LatitudeDegrees>
              <LongitudeDegrees>-3.71755552478134632110595703125</LongitudeDegrees>
            </Position>
            <AltitudeMeters>751.20001220703125</AltitudeMeters>
            <DistanceMeters>NAN</DistanceMeters>
          </Trackpoint>
          <Trackpoint>
            <Time>2020-03-07T18:06:36.000Z</Time>
            <Position>
              <LatitudeDegrees>40.5962300486862659454345703125</LatitudeDegrees>
              <LongitudeDegrees>-3.71749551035463809967041015625</LongitudeDegrees>
            </Position>
            <AltitudeMeters>751.20001220703125</AltitudeMeters>
            <DistanceMeters>NAN</DistanceMeters>
          </Trackpoint>
          <Trackpoint>
            <Time>2020-03-07T18:06:37.000Z</Time>
            <Position>
              <LatitudeDegrees>40.59621387161314487457275390625</LatitudeDegrees>
              <LongitudeDegrees>-3.71743750758469104766845703125</LongitudeDegrees>
            </Position>
            <AltitudeMeters>751.4000244140625</AltitudeMeters>
            <DistanceMeters>NAN</DistanceMeters>
          </Trackpoint>
          <Trackpoint>
            <Time>2020-03-07T18:06:38.000Z</Time>
            <Position>
              <LatitudeDegrees>40.596198700368404388427734375</LatitudeDegrees>
              <LongitudeDegrees>-3.71737900190055370330810546875</LongitudeDegrees>
            </Position>
            <AltitudeMeters>751.5999755859375</AltitudeMeters>
            <DistanceMeters>NAN</DistanceMeters>
          </Trackpoint>
          <Trackpoint>
            <Time>2020-03-07T18:06:39.000Z</Time>
            <Position>
              <LatitudeDegrees>40.59618470259010791778564453125</LatitudeDegrees>
              <LongitudeDegrees>-3.7173178978264331817626953125</LongitudeDegrees>
            </Position>
            <AltitudeMeters>751.79998779296875</AltitudeMeters>
            <DistanceMeters>NAN</DistanceMeters>
          </Trackpoint>
          <Trackpoint>
            <Time>2020-03-07T18:06:40.000Z</Time>
            <Position>
              <LatitudeDegrees>40.5961710400879383087158203125</LatitudeDegrees>
              <LongitudeDegrees>-3.7172565422952175140380859375</LongitudeDegrees>
            </Position>
            <AltitudeMeters>752</AltitudeMeters>
            <DistanceMeters>NAN</DistanceMeters>
          </Trackpoint>
          <Trackpoint>
            <Time>2020-03-07T18:06:41.000Z</Time>
            <Position>
              <LatitudeDegrees>40.59615754522383213043212890625</LatitudeDegrees>
              <LongitudeDegrees>-3.7171955220401287078857421875</LongitudeDegrees>
            </Position>
            <AltitudeMeters>752.20001220703125</AltitudeMeters>
            <DistanceMeters>NAN</DistanceMeters>
          </Trackpoint>
          <Trackpoint>
            <Time>2020-03-07T18:06:42.000Z</Time>
            <Position>
              <LatitudeDegrees>40.596143715083599090576171875</LatitudeDegrees>
              <LongitudeDegrees>-3.7171348370611667633056640625</LongitudeDegrees>
            </Position>
            <AltitudeMeters>752.4000244140625</AltitudeMeters>
            <DistanceMeters>NAN</DistanceMeters>
          </Trackpoint>
          <Trackpoint>
            <Time>2020-03-07T18:06:43.000Z</Time>
            <Position>
              <LatitudeDegrees>40.596128292381763458251953125</LatitudeDegrees>
              <LongitudeDegrees>-3.71707121841609477996826171875</LongitudeDegrees>
            </Position>
            <AltitudeMeters>752.5999755859375</AltitudeMeters>
            <DistanceMeters>NAN</DistanceMeters>
          </Trackpoint>
          <Trackpoint>
            <Time>2020-03-07T18:06:44.000Z</Time>
            <Position>
              <LatitudeDegrees>40.596113540232181549072265625</LatitudeDegrees>
              <LongitudeDegrees>-3.71700651012361049652099609375</LongitudeDegrees>
            </Position>
            <AltitudeMeters>752.79998779296875</AltitudeMeters>
            <DistanceMeters>NAN</DistanceMeters>
          </Trackpoint>
          <Trackpoint>
            <Time>2020-03-07T18:06:45.000Z</Time>
            <Position>
              <LatitudeDegrees>40.59609711170196533203125</LatitudeDegrees>
              <LongitudeDegrees>-3.71694431640207767486572265625</LongitudeDegrees>
            </Position>
            <AltitudeMeters>752.79998779296875</AltitudeMeters>
            <DistanceMeters>NAN</DistanceMeters>
          </Trackpoint>
          <Trackpoint>
            <Time>2020-03-07T18:06:46.000Z</Time>
            <Position>
              <LatitudeDegrees>40.59608093462884426116943359375</LatitudeDegrees>
              <LongitudeDegrees>-3.71688094921410083770751953125</LongitudeDegrees>
            </Position>
            <AltitudeMeters>753</AltitudeMeters>
            <DistanceMeters>NAN</DistanceMeters>
          </Trackpoint>
          <Trackpoint>
            <Time>2020-03-07T18:06:47.000Z</Time>
            <Position>
              <LatitudeDegrees>40.596064589917659759521484375</LatitudeDegrees>
              <LongitudeDegrees>-3.71681925840675830841064453125</LongitudeDegrees>
            </Position>
            <AltitudeMeters>753</AltitudeMeters>
            <DistanceMeters>NAN</DistanceMeters>
          </Trackpoint>
          <Trackpoint>
            <Time>2020-03-07T18:06:48.000Z</Time>
            <Position>
              <LatitudeDegrees>40.596048831939697265625</LatitudeDegrees>
              <LongitudeDegrees>-3.71675513684749603271484375</LongitudeDegrees>
            </Position>
            <AltitudeMeters>753.20001220703125</AltitudeMeters>
            <DistanceMeters>NAN</DistanceMeters>
          </Trackpoint>
          <Trackpoint>
            <Time>2020-03-07T18:06:49.000Z</Time>
            <Position>
              <LatitudeDegrees>40.5960352532565593719482421875</LatitudeDegrees>
              <LongitudeDegrees>-3.71669302694499492645263671875</LongitudeDegrees>
            </Position>
            <AltitudeMeters>753.20001220703125</AltitudeMeters>
            <DistanceMeters>NAN</DistanceMeters>
          </Trackpoint>
          <Trackpoint>
            <Time>2020-03-07T18:06:50.000Z</Time>
            <Position>
              <LatitudeDegrees>40.59602125547826290130615234375</LatitudeDegrees>
              <LongitudeDegrees>-3.71662915684282779693603515625</LongitudeDegrees>
            </Position>
            <AltitudeMeters>753.20001220703125</AltitudeMeters>
            <DistanceMeters>NAN</DistanceMeters>
          </Trackpoint>
          <Trackpoint>
            <Time>2020-03-07T18:06:51.000Z</Time>
            <Position>
              <LatitudeDegrees>40.59600667096674442291259765625</LatitudeDegrees>
              <LongitudeDegrees>-3.71656461618840694427490234375</LongitudeDegrees>
            </Position>
            <AltitudeMeters>753.20001220703125</AltitudeMeters>
            <DistanceMeters>NAN</DistanceMeters>
          </Trackpoint>
          <Trackpoint>
            <Time>2020-03-07T18:06:52.000Z</Time>
            <Position>
              <LatitudeDegrees>40.59598982334136962890625</LatitudeDegrees>
              <LongitudeDegrees>-3.716500662267208099365234375</LongitudeDegrees>
            </Position>
            <AltitudeMeters>753.4000244140625</AltitudeMeters>
            <DistanceMeters>NAN</DistanceMeters>
          </Trackpoint>
          <Trackpoint>
            <Time>2020-03-07T18:06:53.000Z</Time>
            <Position>
              <LatitudeDegrees>40.595971047878265380859375</LatitudeDegrees>
              <LongitudeDegrees>-3.716436289250850677490234375</LongitudeDegrees>
            </Position>
            <AltitudeMeters>753.4000244140625</AltitudeMeters>
            <DistanceMeters>NAN</DistanceMeters>
          </Trackpoint>
          <Trackpoint>
            <Time>2020-03-07T18:06:54.000Z</Time>
            <Position>
              <LatitudeDegrees>40.59595369733870029449462890625</LatitudeDegrees>
              <LongitudeDegrees>-3.71637283824384212493896484375</LongitudeDegrees>
            </Position>
            <AltitudeMeters>753.4000244140625</AltitudeMeters>
            <DistanceMeters>NAN</DistanceMeters>
          </Trackpoint>
          <Trackpoint>
            <Time>2020-03-07T18:06:55.000Z</Time>
            <Position>
              <LatitudeDegrees>40.59593710117042064666748046875</LatitudeDegrees>
              <LongitudeDegrees>-3.7163103930652141571044921875</LongitudeDegrees>
            </Position>
            <AltitudeMeters>753.4000244140625</AltitudeMeters>
            <DistanceMeters>NAN</DistanceMeters>
          </Trackpoint>
          <Trackpoint>
            <Time>2020-03-07T18:06:56.000Z</Time>
            <Position>
              <LatitudeDegrees>40.59592209756374359130859375</LatitudeDegrees>
              <LongitudeDegrees>-3.71624476276338100433349609375</LongitudeDegrees>
            </Position>
            <AltitudeMeters>753.4000244140625</AltitudeMeters>
            <DistanceMeters>NAN</DistanceMeters>
          </Trackpoint>
          <Trackpoint>
            <Time>2020-03-07T18:06:57.000Z</Time>
            <Position>
              <LatitudeDegrees>40.595906339585781097412109375</LatitudeDegrees>
              <LongitudeDegrees>-3.7161779589951038360595703125</LongitudeDegrees>
            </Position>
            <AltitudeMeters>753.4000244140625</AltitudeMeters>
            <DistanceMeters>NAN</DistanceMeters>
          </Trackpoint>
          <Trackpoint>
            <Time>2020-03-07T18:06:58.000Z</Time>
            <Position>
              <LatitudeDegrees>40.595890581607818603515625</LatitudeDegrees>
              <LongitudeDegrees>-3.71611149050295352935791015625</LongitudeDegrees>
            </Position>
            <AltitudeMeters>753.4000244140625</AltitudeMeters>
            <DistanceMeters>NAN</DistanceMeters>
          </Trackpoint>
          <Trackpoint>
            <Time>2020-03-07T18:06:59.000Z</Time>
            <Position>
              <LatitudeDegrees>40.59587272815406322479248046875</LatitudeDegrees>
              <LongitudeDegrees>-3.7160448543727397918701171875</LongitudeDegrees>
            </Position>
            <AltitudeMeters>753.4000244140625</AltitudeMeters>
            <DistanceMeters>NAN</DistanceMeters>
          </Trackpoint>
          <Trackpoint>
            <Time>2020-03-07T18:07:00.000Z</Time>
            <Position>
              <LatitudeDegrees>40.5958505161106586456298828125</LatitudeDegrees>
              <LongitudeDegrees>-3.71597972698509693145751953125</LongitudeDegrees>
            </Position>
            <AltitudeMeters>753.4000244140625</AltitudeMeters>
            <DistanceMeters>NAN</DistanceMeters>
          </Trackpoint>
          <Trackpoint>
            <Time>2020-03-07T18:07:01.000Z</Time>
            <Position>
              <LatitudeDegrees>40.59582964517176151275634765625</LatitudeDegrees>
              <LongitudeDegrees>-3.7159130908548831939697265625</LongitudeDegrees>
            </Position>
            <AltitudeMeters>753.4000244140625</AltitudeMeters>
            <DistanceMeters>NAN</DistanceMeters>
          </Trackpoint>
          <Trackpoint>
            <Time>2020-03-07T18:07:02.000Z</Time>
            <Position>
              <LatitudeDegrees>40.595807768404483795166015625</LatitudeDegrees>
              <LongitudeDegrees>-3.71584494598209857940673828125</LongitudeDegrees>
            </Position>
            <AltitudeMeters>753.4000244140625</AltitudeMeters>
            <DistanceMeters>NAN</DistanceMeters>
          </Trackpoint>
          <Trackpoint>
            <Time>2020-03-07T18:07:03.000Z</Time>
            <Position>
              <LatitudeDegrees>40.59578706510365009307861328125</LatitudeDegrees>
              <LongitudeDegrees>-3.71577722020447254180908203125</LongitudeDegrees>
            </Position>
            <AltitudeMeters>753.20001220703125</AltitudeMeters>
            <DistanceMeters>NAN</DistanceMeters>
          </Trackpoint>
          <Trackpoint>
            <Time>2020-03-07T18:07:04.000Z</Time>
            <Position>
              <LatitudeDegrees>40.59576409868896007537841796875</LatitudeDegrees>
              <LongitudeDegrees>-3.7157119251787662506103515625</LongitudeDegrees>
            </Position>
            <AltitudeMeters>753.20001220703125</AltitudeMeters>
            <DistanceMeters>NAN</DistanceMeters>
          </Trackpoint>
          <Trackpoint>
            <Time>2020-03-07T18:07:05.000Z</Time>
            <Position>
              <LatitudeDegrees>40.59573593549430370330810546875</LatitudeDegrees>
              <LongitudeDegrees>-3.71565199457108974456787109375</LongitudeDegrees>
            </Position>
            <AltitudeMeters>753.20001220703125</AltitudeMeters>
            <DistanceMeters>NAN</DistanceMeters>
          </Trackpoint>
          <Trackpoint>
            <Time>2020-03-07T18:07:06.000Z</Time>
            <Position>
              <LatitudeDegrees>40.59570592828094959259033203125</LatitudeDegrees>
              <LongitudeDegrees>-3.71559315361082553863525390625</LongitudeDegrees>
            </Position>
            <AltitudeMeters>753</AltitudeMeters>
            <DistanceMeters>NAN</DistanceMeters>
          </Trackpoint>
          <Trackpoint>
            <Time>2020-03-07T18:07:07.000Z</Time>
            <Position>
              <LatitudeDegrees>40.59567407704889774322509765625</LatitudeDegrees>
              <LongitudeDegrees>-3.71553330682218074798583984375</LongitudeDegrees>
            </Position>
            <AltitudeMeters>753</AltitudeMeters>
            <DistanceMeters>NAN</DistanceMeters>
          </Trackpoint>
          <Trackpoint>
            <Time>2020-03-07T18:07:08.000Z</Time>
            <Position>
              <LatitudeDegrees>40.59563987888395786285400390625</LatitudeDegrees>
              <LongitudeDegrees>-3.71547379530966281890869140625</LongitudeDegrees>
            </Position>
            <AltitudeMeters>752.79998779296875</AltitudeMeters>
            <DistanceMeters>NAN</DistanceMeters>
          </Trackpoint>
          <Trackpoint>
            <Time>2020-03-07T18:07:09.000Z</Time>
            <Position>
              <LatitudeDegrees>40.59560584835708141326904296875</LatitudeDegrees>
              <LongitudeDegrees>-3.71541671454906463623046875</LongitudeDegrees>
            </Position>
            <AltitudeMeters>752.5999755859375</AltitudeMeters>
            <DistanceMeters>NAN</DistanceMeters>
          </Trackpoint>
          <Trackpoint>
            <Time>2020-03-07T18:07:10.000Z</Time>
            <Position>
              <LatitudeDegrees>40.595569051802158355712890625</LatitudeDegrees>
              <LongitudeDegrees>-3.7153558619320392608642578125</LongitudeDegrees>
            </Position>
            <AltitudeMeters>752.5999755859375</AltitudeMeters>
            <DistanceMeters>NAN</DistanceMeters>
          </Trackpoint>
          <Trackpoint>
            <Time>2020-03-07T18:07:11.000Z</Time>
            <Position>
              <LatitudeDegrees>40.595531165599822998046875</LatitudeDegrees>
              <LongitudeDegrees>-3.7152955122292041778564453125</LongitudeDegrees>
            </Position>
            <AltitudeMeters>752.5999755859375</AltitudeMeters>
            <DistanceMeters>NAN</DistanceMeters>
          </Trackpoint>
          <Trackpoint>
            <Time>2020-03-07T18:07:12.000Z</Time>
            <Position>
              <LatitudeDegrees>40.59549353085458278656005859375</LatitudeDegrees>
              <LongitudeDegrees>-3.715236000716686248779296875</LongitudeDegrees>
            </Position>
            <AltitudeMeters>752.4000244140625</AltitudeMeters>
            <DistanceMeters>NAN</DistanceMeters>
          </Trackpoint>
          <Trackpoint>
            <Time>2020-03-07T18:07:13.000Z</Time>
            <Position>
              <LatitudeDegrees>40.59545279480516910552978515625</LatitudeDegrees>
              <LongitudeDegrees>-3.715177662670612335205078125</LongitudeDegrees>
            </Position>
            <AltitudeMeters>752.20001220703125</AltitudeMeters>
            <DistanceMeters>NAN</DistanceMeters>
          </Trackpoint>
          <Trackpoint>
            <Time>2020-03-07T18:07:14.000Z</Time>
            <Position>
              <LatitudeDegrees>40.5954096280038356781005859375</LatitudeDegrees>
              <LongitudeDegrees>-3.71511991135776042938232421875</LongitudeDegrees>
            </Position>
            <AltitudeMeters>752.20001220703125</AltitudeMeters>
            <DistanceMeters>NAN</DistanceMeters>
          </Trackpoint>
          <Trackpoint>
            <Time>2020-03-07T18:07:15.000Z</Time>
            <Position>
              <LatitudeDegrees>40.59536780230700969696044921875</LatitudeDegrees>
              <LongitudeDegrees>-3.7150638364255428314208984375</LongitudeDegrees>
            </Position>
            <AltitudeMeters>752</AltitudeMeters>
            <DistanceMeters>NAN</DistanceMeters>
          </Trackpoint>
          <Trackpoint>
            <Time>2020-03-07T18:07:16.000Z</Time>
            <Position>
              <LatitudeDegrees>40.595326982438564300537109375</LatitudeDegrees>
              <LongitudeDegrees>-3.715007342398166656494140625</LongitudeDegrees>
            </Position>
            <AltitudeMeters>752</AltitudeMeters>
            <DistanceMeters>NAN</DistanceMeters>
          </Trackpoint>
          <Trackpoint>
            <Time>2020-03-07T18:07:17.000Z</Time>
            <Position>
              <LatitudeDegrees>40.59528616257011890411376953125</LatitudeDegrees>
              <LongitudeDegrees>-3.714947998523712158203125</LongitudeDegrees>
            </Position>
            <AltitudeMeters>751.79998779296875</AltitudeMeters>
            <DistanceMeters>NAN</DistanceMeters>
          </Trackpoint>
          <Trackpoint>
            <Time>2020-03-07T18:07:18.000Z</Time>
            <Position>
              <LatitudeDegrees>40.59524542652070522308349609375</LatitudeDegrees>
              <LongitudeDegrees>-3.71489024721086025238037109375</LongitudeDegrees>
            </Position>
            <AltitudeMeters>751.79998779296875</AltitudeMeters>
            <DistanceMeters>NAN</DistanceMeters>
          </Trackpoint>
          <Trackpoint>
            <Time>2020-03-07T18:07:19.000Z</Time>
            <Position>
              <LatitudeDegrees>40.59520569629967212677001953125</LatitudeDegrees>
              <LongitudeDegrees>-3.714832998812198638916015625</LongitudeDegrees>
            </Position>
            <AltitudeMeters>751.5999755859375</AltitudeMeters>
            <DistanceMeters>NAN</DistanceMeters>
          </Trackpoint>
          <Trackpoint>
            <Time>2020-03-07T18:07:20.000Z</Time>
            <Position>
              <LatitudeDegrees>40.5951662175357341766357421875</LatitudeDegrees>
              <LongitudeDegrees>-3.714776001870632171630859375</LongitudeDegrees>
            </Position>
            <AltitudeMeters>751.5999755859375</AltitudeMeters>
            <DistanceMeters>NAN</DistanceMeters>
          </Trackpoint>
          <Trackpoint>
            <Time>2020-03-07T18:07:21.000Z</Time>
            <Position>
              <LatitudeDegrees>40.59512623585760593414306640625</LatitudeDegrees>
              <LongitudeDegrees>-3.7147200107574462890625</LongitudeDegrees>
            </Position>
            <AltitudeMeters>751.4000244140625</AltitudeMeters>
            <DistanceMeters>NAN</DistanceMeters>
          </Trackpoint>
          <Trackpoint>
            <Time>2020-03-07T18:07:22.000Z</Time>
            <Position>
              <LatitudeDegrees>40.59508650563657283782958984375</LatitudeDegrees>
              <LongitudeDegrees>-3.7146638520061969757080078125</LongitudeDegrees>
            </Position>
            <AltitudeMeters>751.4000244140625</AltitudeMeters>
            <DistanceMeters>NAN</DistanceMeters>
          </Trackpoint>
          <Trackpoint>
            <Time>2020-03-07T18:07:23.000Z</Time>
            <Position>
              <LatitudeDegrees>40.595045350492000579833984375</LatitudeDegrees>
              <LongitudeDegrees>-3.71460827998816967010498046875</LongitudeDegrees>
            </Position>
            <AltitudeMeters>751.4000244140625</AltitudeMeters>
            <DistanceMeters>NAN</DistanceMeters>
          </Trackpoint>
          <Trackpoint>
            <Time>2020-03-07T18:07:24.000Z</Time>
            <Position>
              <LatitudeDegrees>40.59500302188098430633544921875</LatitudeDegrees>
              <LongitudeDegrees>-3.7145575694739818572998046875</LongitudeDegrees>
            </Position>
            <AltitudeMeters>751.20001220703125</AltitudeMeters>
            <DistanceMeters>NAN</DistanceMeters>
          </Trackpoint>
          <Trackpoint>
            <Time>2020-03-07T18:07:25.000Z</Time>
            <Position>
              <LatitudeDegrees>40.59495985507965087890625</LatitudeDegrees>
              <LongitudeDegrees>-3.71450937353074550628662109375</LongitudeDegrees>
            </Position>
            <AltitudeMeters>751.20001220703125</AltitudeMeters>
            <DistanceMeters>NAN</DistanceMeters>
          </Trackpoint>
          <Trackpoint>
            <Time>2020-03-07T18:07:26.000Z</Time>
            <Position>
              <LatitudeDegrees>40.594915263354778289794921875</LatitudeDegrees>
              <LongitudeDegrees>-3.71446209959685802459716796875</LongitudeDegrees>
            </Position>
            <AltitudeMeters>751.20001220703125</AltitudeMeters>
            <DistanceMeters>NAN</DistanceMeters>
          </Trackpoint>
          <Trackpoint>
            <Time>2020-03-07T18:07:27.000Z</Time>
            <Position>
              <LatitudeDegrees>40.594870336353778839111328125</LatitudeDegrees>
              <LongitudeDegrees>-3.71441801078617572784423828125</LongitudeDegrees>
            </Position>
            <AltitudeMeters>751.20001220703125</AltitudeMeters>
            <DistanceMeters>NAN</DistanceMeters>
          </Trackpoint>
          <Trackpoint>
            <Time>2020-03-07T18:07:28.000Z</Time>
            <Position>
              <LatitudeDegrees>40.5948245711624622344970703125</LatitudeDegrees>
              <LongitudeDegrees>-3.71437392197549343109130859375</LongitudeDegrees>
            </Position>
            <AltitudeMeters>751.20001220703125</AltitudeMeters>
            <DistanceMeters>NAN</DistanceMeters>
          </Trackpoint>
          <Trackpoint>
            <Time>2020-03-07T18:07:29.000Z</Time>
            <Position>
              <LatitudeDegrees>40.59477855451405048370361328125</LatitudeDegrees>
              <LongitudeDegrees>-3.71432916261255741119384765625</LongitudeDegrees>
            </Position>
            <AltitudeMeters>751.20001220703125</AltitudeMeters>
            <DistanceMeters>NAN</DistanceMeters>
          </Trackpoint>
          <Trackpoint>
            <Time>2020-03-07T18:07:30.000Z</Time>
            <Position>
              <LatitudeDegrees>40.5947332084178924560546875</LatitudeDegrees>
              <LongitudeDegrees>-3.71428214013576507568359375</LongitudeDegrees>
            </Position>
            <AltitudeMeters>751.20001220703125</AltitudeMeters>
            <DistanceMeters>NAN</DistanceMeters>
          </Trackpoint>
          <Trackpoint>
            <Time>2020-03-07T18:07:31.000Z</Time>
            <Position>
              <LatitudeDegrees>40.594689957797527313232421875</LatitudeDegrees>
              <LongitudeDegrees>-3.71423377655446529388427734375</LongitudeDegrees>
            </Position>
            <AltitudeMeters>751.20001220703125</AltitudeMeters>
            <DistanceMeters>NAN</DistanceMeters>
          </Trackpoint>
          <Trackpoint>
            <Time>2020-03-07T18:07:32.000Z</Time>
            <Position>
              <LatitudeDegrees>40.59464670717716217041015625</LatitudeDegrees>
              <LongitudeDegrees>-3.7141827307641506195068359375</LongitudeDegrees>
            </Position>
            <AltitudeMeters>751.20001220703125</AltitudeMeters>
            <DistanceMeters>NAN</DistanceMeters>
          </Trackpoint>
          <Trackpoint>
            <Time>2020-03-07T18:07:33.000Z</Time>
            <Position>
              <LatitudeDegrees>40.59460404329001903533935546875</LatitudeDegrees>
              <LongitudeDegrees>-3.71413503773510456085205078125</LongitudeDegrees>
            </Position>
            <AltitudeMeters>751.20001220703125</AltitudeMeters>
            <DistanceMeters>NAN</DistanceMeters>
          </Trackpoint>
          <Trackpoint>
            <Time>2020-03-07T18:07:34.000Z</Time>
            <Position>
              <LatitudeDegrees>40.5945603735744953155517578125</LatitudeDegrees>
              <LongitudeDegrees>-3.714089356362819671630859375</LongitudeDegrees>
            </Position>
            <AltitudeMeters>751.20001220703125</AltitudeMeters>
            <DistanceMeters>NAN</DistanceMeters>
          </Trackpoint>
          <Trackpoint>
            <Time>2020-03-07T18:07:35.000Z</Time>
            <Position>
              <LatitudeDegrees>40.5945154465734958648681640625</LatitudeDegrees>
              <LongitudeDegrees>-3.7140456028282642364501953125</LongitudeDegrees>
            </Position>
            <AltitudeMeters>751.20001220703125</AltitudeMeters>
            <DistanceMeters>NAN</DistanceMeters>
          </Trackpoint>
          <Trackpoint>
            <Time>2020-03-07T18:07:36.000Z</Time>
            <Position>
              <LatitudeDegrees>40.59447093866765499114990234375</LatitudeDegrees>
              <LongitudeDegrees>-3.7140026874840259552001953125</LongitudeDegrees>
            </Position>
            <AltitudeMeters>751.4000244140625</AltitudeMeters>
            <DistanceMeters>NAN</DistanceMeters>
          </Trackpoint>
          <Trackpoint>
            <Time>2020-03-07T18:07:37.000Z</Time>
            <Position>
              <LatitudeDegrees>40.5944272689521312713623046875</LatitudeDegrees>
              <LongitudeDegrees>-3.7139591015875339508056640625</LongitudeDegrees>
            </Position>
            <AltitudeMeters>751.4000244140625</AltitudeMeters>
            <DistanceMeters>NAN</DistanceMeters>
          </Trackpoint>
          <Trackpoint>
            <Time>2020-03-07T18:07:38.000Z</Time>
            <Position>
              <LatitudeDegrees>40.59438250958919525146484375</LatitudeDegrees>
              <LongitudeDegrees>-3.713914342224597930908203125</LongitudeDegrees>
            </Position>
            <AltitudeMeters>751.5999755859375</AltitudeMeters>
            <DistanceMeters>NAN</DistanceMeters>
          </Trackpoint>
          <Trackpoint>
            <Time>2020-03-07T18:07:39.000Z</Time>
            <Position>
              <LatitudeDegrees>40.594337247312068939208984375</LatitudeDegrees>
              <LongitudeDegrees>-3.7138702534139156341552734375</LongitudeDegrees>
            </Position>
            <AltitudeMeters>751.79998779296875</AltitudeMeters>
            <DistanceMeters>NAN</DistanceMeters>
          </Trackpoint>
          <Trackpoint>
            <Time>2020-03-07T18:07:40.000Z</Time>
            <Position>
              <LatitudeDegrees>40.594291649758815765380859375</LatitudeDegrees>
              <LongitudeDegrees>-3.7138281762599945068359375</LongitudeDegrees>
            </Position>
            <AltitudeMeters>751.5999755859375</AltitudeMeters>
            <DistanceMeters>NAN</DistanceMeters>
          </Trackpoint>
          <Trackpoint>
            <Time>2020-03-07T18:07:41.000Z</Time>
            <Position>
              <LatitudeDegrees>40.59424437582492828369140625</LatitudeDegrees>
              <LongitudeDegrees>-3.7137911282479763031005859375</LongitudeDegrees>
            </Position>
            <AltitudeMeters>751.79998779296875</AltitudeMeters>
            <DistanceMeters>NAN</DistanceMeters>
          </Trackpoint>
          <Trackpoint>
            <Time>2020-03-07T18:07:42.000Z</Time>
            <Position>
              <LatitudeDegrees>40.5941962637007236480712890625</LatitudeDegrees>
              <LongitudeDegrees>-3.7137609533965587615966796875</LongitudeDegrees>
            </Position>
            <AltitudeMeters>752</AltitudeMeters>
            <DistanceMeters>NAN</DistanceMeters>
          </Trackpoint>
          <Trackpoint>
            <Time>2020-03-07T18:07:43.000Z</Time>
            <Position>
              <LatitudeDegrees>40.5941484868526458740234375</LatitudeDegrees>
              <LongitudeDegrees>-3.7137388251721858978271484375</LongitudeDegrees>
            </Position>
            <AltitudeMeters>752</AltitudeMeters>
            <DistanceMeters>NAN</DistanceMeters>
          </Trackpoint>
          <Trackpoint>
            <Time>2020-03-07T18:07:44.000Z</Time>
            <Position>
              <LatitudeDegrees>40.59409685432910919189453125</LatitudeDegrees>
              <LongitudeDegrees>-3.713723905384540557861328125</LongitudeDegrees>
            </Position>
            <AltitudeMeters>752</AltitudeMeters>
            <DistanceMeters>NAN</DistanceMeters>
          </Trackpoint>
          <Trackpoint>
            <Time>2020-03-07T18:07:45.000Z</Time>
            <Position>
              <LatitudeDegrees>40.5940443836152553558349609375</LatitudeDegrees>
              <LongitudeDegrees>-3.71371191926300525665283203125</LongitudeDegrees>
            </Position>
            <AltitudeMeters>752</AltitudeMeters>
            <DistanceMeters>NAN</DistanceMeters>
          </Trackpoint>
          <Trackpoint>
            <Time>2020-03-07T18:07:46.000Z</Time>
            <Position>
              <LatitudeDegrees>40.593993254005908966064453125</LatitudeDegrees>
              <LongitudeDegrees>-3.71370068751275539398193359375</LongitudeDegrees>
            </Position>
            <AltitudeMeters>752</AltitudeMeters>
            <DistanceMeters>NAN</DistanceMeters>
          </Trackpoint>
          <Trackpoint>
            <Time>2020-03-07T18:07:47.000Z</Time>
            <Position>
              <LatitudeDegrees>40.59394254349172115325927734375</LatitudeDegrees>
              <LongitudeDegrees>-3.7136814929544925689697265625</LongitudeDegrees>
            </Position>
            <AltitudeMeters>752</AltitudeMeters>
            <DistanceMeters>NAN</DistanceMeters>
          </Trackpoint>
          <Trackpoint>
            <Time>2020-03-07T18:07:48.000Z</Time>
            <Position>
              <LatitudeDegrees>40.5938921682536602020263671875</LatitudeDegrees>
              <LongitudeDegrees>-3.713654167950153350830078125</LongitudeDegrees>
            </Position>
            <AltitudeMeters>752.20001220703125</AltitudeMeters>
            <DistanceMeters>NAN</DistanceMeters>
          </Trackpoint>
          <Trackpoint>
            <Time>2020-03-07T18:07:49.000Z</Time>
            <Position>
              <LatitudeDegrees>40.5938459001481533050537109375</LatitudeDegrees>
              <LongitudeDegrees>-3.71362156234681606292724609375</LongitudeDegrees>
            </Position>
            <AltitudeMeters>752.20001220703125</AltitudeMeters>
            <DistanceMeters>NAN</DistanceMeters>
          </Trackpoint>
          <Trackpoint>
            <Time>2020-03-07T18:07:50.000Z</Time>
            <Position>
              <LatitudeDegrees>40.5938009731471538543701171875</LatitudeDegrees>
              <LongitudeDegrees>-3.713585436344146728515625</LongitudeDegrees>
            </Position>
            <AltitudeMeters>752.20001220703125</AltitudeMeters>
            <DistanceMeters>NAN</DistanceMeters>
          </Trackpoint>
          <Trackpoint>
            <Time>2020-03-07T18:07:51.000Z</Time>
            <Position>
              <LatitudeDegrees>40.5937530286610126495361328125</LatitudeDegrees>
              <LongitudeDegrees>-3.7135480530560016632080078125</LongitudeDegrees>
            </Position>
            <AltitudeMeters>752.20001220703125</AltitudeMeters>
            <DistanceMeters>NAN</DistanceMeters>
          </Trackpoint>
          <Trackpoint>
            <Time>2020-03-07T18:07:52.000Z</Time>
            <Position>
              <LatitudeDegrees>40.59370458126068115234375</LatitudeDegrees>
              <LongitudeDegrees>-3.7135148607194423675537109375</LongitudeDegrees>
            </Position>
            <AltitudeMeters>752.20001220703125</AltitudeMeters>
            <DistanceMeters>NAN</DistanceMeters>
          </Trackpoint>
          <Trackpoint>
            <Time>2020-03-07T18:07:53.000Z</Time>
            <Position>
              <LatitudeDegrees>40.59365722350776195526123046875</LatitudeDegrees>
              <LongitudeDegrees>-3.7134853564202785491943359375</LongitudeDegrees>
            </Position>
            <AltitudeMeters>752.20001220703125</AltitudeMeters>
            <DistanceMeters>NAN</DistanceMeters>
          </Trackpoint>
          <Trackpoint>
            <Time>2020-03-07T18:07:54.000Z</Time>
            <Position>
              <LatitudeDegrees>40.59360877610743045806884765625</LatitudeDegrees>
              <LongitudeDegrees>-3.71345845051109790802001953125</LongitudeDegrees>
            </Position>
            <AltitudeMeters>752.20001220703125</AltitudeMeters>
            <DistanceMeters>NAN</DistanceMeters>
          </Trackpoint>
          <Trackpoint>
            <Time>2020-03-07T18:07:55.000Z</Time>
            <Position>
              <LatitudeDegrees>40.593558065593242645263671875</LatitudeDegrees>
              <LongitudeDegrees>-3.713432885706424713134765625</LongitudeDegrees>
            </Position>
            <AltitudeMeters>752.4000244140625</AltitudeMeters>
            <DistanceMeters>NAN</DistanceMeters>
          </Trackpoint>
          <Trackpoint>
            <Time>2020-03-07T18:07:56.000Z</Time>
            <Position>
              <LatitudeDegrees>40.593505091965198516845703125</LatitudeDegrees>
              <LongitudeDegrees>-3.71340665034949779510498046875</LongitudeDegrees>
            </Position>
            <AltitudeMeters>752.4000244140625</AltitudeMeters>
            <DistanceMeters>NAN</DistanceMeters>
          </Trackpoint>
          <Trackpoint>
            <Time>2020-03-07T18:07:57.000Z</Time>
            <Position>
              <LatitudeDegrees>40.5934509448707103729248046875</LatitudeDegrees>
              <LongitudeDegrees>-3.71338183991611003875732421875</LongitudeDegrees>
            </Position>
            <AltitudeMeters>752.5999755859375</AltitudeMeters>
            <DistanceMeters>NAN</DistanceMeters>
          </Trackpoint>
          <Trackpoint>
            <Time>2020-03-07T18:07:58.000Z</Time>
            <Position>
              <LatitudeDegrees>40.59339704923331737518310546875</LatitudeDegrees>
              <LongitudeDegrees>-3.713360466063022613525390625</LongitudeDegrees>
            </Position>
            <AltitudeMeters>752.79998779296875</AltitudeMeters>
            <DistanceMeters>NAN</DistanceMeters>
          </Trackpoint>
          <Trackpoint>
            <Time>2020-03-07T18:07:59.000Z</Time>
            <Position>
              <LatitudeDegrees>40.59334357269108295440673828125</LatitudeDegrees>
              <LongitudeDegrees>-3.7133468873798847198486328125</LongitudeDegrees>
            </Position>
            <AltitudeMeters>752.79998779296875</AltitudeMeters>
            <DistanceMeters>NAN</DistanceMeters>
          </Trackpoint>
          <Trackpoint>
            <Time>2020-03-07T18:08:00.000Z</Time>
            <Position>
              <LatitudeDegrees>40.593291185796260833740234375</LatitudeDegrees>
              <LongitudeDegrees>-3.71334060095250606536865234375</LongitudeDegrees>
            </Position>
            <AltitudeMeters>752.79998779296875</AltitudeMeters>
            <DistanceMeters>NAN</DistanceMeters>
          </Trackpoint>
          <Trackpoint>
            <Time>2020-03-07T18:08:01.000Z</Time>
            <Position>
              <LatitudeDegrees>40.5932403914630413055419921875</LatitudeDegrees>
              <LongitudeDegrees>-3.71333842165768146514892578125</LongitudeDegrees>
            </Position>
            <AltitudeMeters>753</AltitudeMeters>
            <DistanceMeters>NAN</DistanceMeters>
          </Trackpoint>
          <Trackpoint>
            <Time>2020-03-07T18:08:02.000Z</Time>
            <Position>
              <LatitudeDegrees>40.5931890942156314849853515625</LatitudeDegrees>
              <LongitudeDegrees>-3.71333523653447628021240234375</LongitudeDegrees>
            </Position>
            <AltitudeMeters>753</AltitudeMeters>
            <DistanceMeters>NAN</DistanceMeters>
          </Trackpoint>
          <Trackpoint>
            <Time>2020-03-07T18:08:03.000Z</Time>
            <Position>
              <LatitudeDegrees>40.5931374616920948028564453125</LatitudeDegrees>
              <LongitudeDegrees>-3.7133257649838924407958984375</LongitudeDegrees>
            </Position>
            <AltitudeMeters>753</AltitudeMeters>
            <DistanceMeters>NAN</DistanceMeters>
          </Trackpoint>
          <Trackpoint>
            <Time>2020-03-07T18:08:04.000Z</Time>
            <Position>
              <LatitudeDegrees>40.5930890142917633056640625</LatitudeDegrees>
              <LongitudeDegrees>-3.713317215442657470703125</LongitudeDegrees>
            </Position>
            <AltitudeMeters>753</AltitudeMeters>
            <DistanceMeters>NAN</DistanceMeters>
          </Trackpoint>
          <Trackpoint>
            <Time>2020-03-07T18:08:05.000Z</Time>
            <Position>
              <LatitudeDegrees>40.59303964488208293914794921875</LatitudeDegrees>
              <LongitudeDegrees>-3.71330522932112216949462890625</LongitudeDegrees>
            </Position>
            <AltitudeMeters>753.20001220703125</AltitudeMeters>
            <DistanceMeters>NAN</DistanceMeters>
          </Trackpoint>
          <Trackpoint>
            <Time>2020-03-07T18:08:06.000Z</Time>
            <Position>
              <LatitudeDegrees>40.59299102984368801116943359375</LatitudeDegrees>
              <LongitudeDegrees>-3.71329047717154026031494140625</LongitudeDegrees>
            </Position>
            <AltitudeMeters>753</AltitudeMeters>
            <DistanceMeters>NAN</DistanceMeters>
          </Trackpoint>
          <Trackpoint>
            <Time>2020-03-07T18:08:07.000Z</Time>
            <Position>
              <LatitudeDegrees>40.59293956495821475982666015625</LatitudeDegrees>
              <LongitudeDegrees>-3.7132721208035945892333984375</LongitudeDegrees>
            </Position>
            <AltitudeMeters>753.20001220703125</AltitudeMeters>
            <DistanceMeters>NAN</DistanceMeters>
          </Trackpoint>
          <Trackpoint>
            <Time>2020-03-07T18:08:08.000Z</Time>
            <Position>
              <LatitudeDegrees>40.5928876809775829315185546875</LatitudeDegrees>
              <LongitudeDegrees>-3.713256530463695526123046875</LongitudeDegrees>
            </Position>
            <AltitudeMeters>753.4000244140625</AltitudeMeters>
            <DistanceMeters>NAN</DistanceMeters>
          </Trackpoint>
          <Trackpoint>
            <Time>2020-03-07T18:08:09.000Z</Time>
            <Position>
              <LatitudeDegrees>40.5928360484540462493896484375</LatitudeDegrees>
              <LongitudeDegrees>-3.71324420906603336334228515625</LongitudeDegrees>
            </Position>
            <AltitudeMeters>753.4000244140625</AltitudeMeters>
            <DistanceMeters>NAN</DistanceMeters>
          </Trackpoint>
          <Trackpoint>
            <Time>2020-03-07T18:08:10.000Z</Time>
            <Position>
              <LatitudeDegrees>40.59278215281665325164794921875</LatitudeDegrees>
              <LongitudeDegrees>-3.71323406696319580078125</LongitudeDegrees>
            </Position>
            <AltitudeMeters>753.5999755859375</AltitudeMeters>
            <DistanceMeters>NAN</DistanceMeters>
          </Trackpoint>
          <Trackpoint>
            <Time>2020-03-07T18:08:11.000Z</Time>
            <Position>
              <LatitudeDegrees>40.59272683225572109222412109375</LatitudeDegrees>
              <LongitudeDegrees>-3.7132221646606922149658203125</LongitudeDegrees>
            </Position>
            <AltitudeMeters>753.79998779296875</AltitudeMeters>
            <DistanceMeters>NAN</DistanceMeters>
          </Trackpoint>
          <Trackpoint>
            <Time>2020-03-07T18:08:12.000Z</Time>
            <Position>
              <LatitudeDegrees>40.592671595513820648193359375</LatitudeDegrees>
              <LongitudeDegrees>-3.7132084183394908905029296875</LongitudeDegrees>
            </Position>
            <AltitudeMeters>753.79998779296875</AltitudeMeters>
            <DistanceMeters>NAN</DistanceMeters>
          </Trackpoint>
          <Trackpoint>
            <Time>2020-03-07T18:08:13.000Z</Time>
            <Position>
              <LatitudeDegrees>40.5926167778670787811279296875</LatitudeDegrees>
              <LongitudeDegrees>-3.713191486895084381103515625</LongitudeDegrees>
            </Position>
            <AltitudeMeters>753.79998779296875</AltitudeMeters>
            <DistanceMeters>NAN</DistanceMeters>
          </Trackpoint>
          <Trackpoint>
            <Time>2020-03-07T18:08:14.000Z</Time>
            <Position>
              <LatitudeDegrees>40.59256556443870067596435546875</LatitudeDegrees>
              <LongitudeDegrees>-3.71317748911678791046142578125</LongitudeDegrees>
            </Position>
            <AltitudeMeters>753.79998779296875</AltitudeMeters>
            <DistanceMeters>NAN</DistanceMeters>
          </Trackpoint>
          <Trackpoint>
            <Time>2020-03-07T18:08:15.000Z</Time>
            <Position>
              <LatitudeDegrees>40.59251477010548114776611328125</LatitudeDegrees>
              <LongitudeDegrees>-3.713168017566204071044921875</LongitudeDegrees>
            </Position>
            <AltitudeMeters>753.79998779296875</AltitudeMeters>
            <DistanceMeters>NAN</DistanceMeters>
          </Trackpoint>
          <Trackpoint>
            <Time>2020-03-07T18:08:16.000Z</Time>
            <Position>
              <LatitudeDegrees>40.5924638919532299041748046875</LatitudeDegrees>
              <LongitudeDegrees>-3.71315971948206424713134765625</LongitudeDegrees>
            </Position>
            <AltitudeMeters>753.79998779296875</AltitudeMeters>
            <DistanceMeters>NAN</DistanceMeters>
          </Trackpoint>
          <Trackpoint>
            <Time>2020-03-07T18:08:17.000Z</Time>
            <Position>
              <LatitudeDegrees>40.592410750687122344970703125</LatitudeDegrees>
              <LongitudeDegrees>-3.7131517566740512847900390625</LongitudeDegrees>
            </Position>
            <AltitudeMeters>753.79998779296875</AltitudeMeters>
            <DistanceMeters>NAN</DistanceMeters>
          </Trackpoint>
          <Trackpoint>
            <Time>2020-03-07T18:08:18.000Z</Time>
            <Position>
              <LatitudeDegrees>40.59235249646008014678955078125</LatitudeDegrees>
              <LongitudeDegrees>-3.7131413631141185760498046875</LongitudeDegrees>
            </Position>
            <AltitudeMeters>753.79998779296875</AltitudeMeters>
            <DistanceMeters>NAN</DistanceMeters>
          </Trackpoint>
          <Trackpoint>
            <Time>2020-03-07T18:08:19.000Z</Time>
            <Position>
              <LatitudeDegrees>40.5922923982143402099609375</LatitudeDegrees>
              <LongitudeDegrees>-3.7131262756884098052978515625</LongitudeDegrees>
            </Position>
            <AltitudeMeters>753.79998779296875</AltitudeMeters>
            <DistanceMeters>NAN</DistanceMeters>
          </Trackpoint>
          <Trackpoint>
            <Time>2020-03-07T18:08:20.000Z</Time>
            <Position>
              <LatitudeDegrees>40.5922312103211879730224609375</LatitudeDegrees>
              <LongitudeDegrees>-3.71310691349208354949951171875</LongitudeDegrees>
            </Position>
            <AltitudeMeters>753.79998779296875</AltitudeMeters>
            <DistanceMeters>NAN</DistanceMeters>
          </Trackpoint>
          <Trackpoint>
            <Time>2020-03-07T18:08:21.000Z</Time>
            <Position>
              <LatitudeDegrees>40.5921698547899723052978515625</LatitudeDegrees>
              <LongitudeDegrees>-3.71308612637221813201904296875</LongitudeDegrees>
            </Position>
            <AltitudeMeters>753.79998779296875</AltitudeMeters>
            <DistanceMeters>NAN</DistanceMeters>
          </Trackpoint>
          <Trackpoint>
            <Time>2020-03-07T18:08:22.000Z</Time>
            <Position>
              <LatitudeDegrees>40.59210757724940776824951171875</LatitudeDegrees>
              <LongitudeDegrees>-3.71306198649108409881591796875</LongitudeDegrees>
            </Position>
            <AltitudeMeters>753.79998779296875</AltitudeMeters>
            <DistanceMeters>NAN</DistanceMeters>
          </Trackpoint>
          <Trackpoint>
            <Time>2020-03-07T18:08:23.000Z</Time>
            <Position>
              <LatitudeDegrees>40.59205041266977787017822265625</LatitudeDegrees>
              <LongitudeDegrees>-3.71304572559893131256103515625</LongitudeDegrees>
            </Position>
            <AltitudeMeters>753.5999755859375</AltitudeMeters>
            <DistanceMeters>NAN</DistanceMeters>
          </Trackpoint>
          <Trackpoint>
            <Time>2020-03-07T18:08:24.000Z</Time>
            <Position>
              <LatitudeDegrees>40.59199442155659198760986328125</LatitudeDegrees>
              <LongitudeDegrees>-3.71302686631679534912109375</LongitudeDegrees>
            </Position>
            <AltitudeMeters>753.5999755859375</AltitudeMeters>
            <DistanceMeters>NAN</DistanceMeters>
          </Trackpoint>
          <Trackpoint>
            <Time>2020-03-07T18:08:25.000Z</Time>
            <Position>
              <LatitudeDegrees>40.5919425375759601593017578125</LatitudeDegrees>
              <LongitudeDegrees>-3.71301387436687946319580078125</LongitudeDegrees>
            </Position>
            <AltitudeMeters>753.5999755859375</AltitudeMeters>
            <DistanceMeters>NAN</DistanceMeters>
          </Trackpoint>
          <Trackpoint>
            <Time>2020-03-07T18:08:26.000Z</Time>
            <Position>
              <LatitudeDegrees>40.59189031831920146942138671875</LatitudeDegrees>
              <LongitudeDegrees>-3.71300163678824901580810546875</LongitudeDegrees>
            </Position>
            <AltitudeMeters>753.5999755859375</AltitudeMeters>
            <DistanceMeters>NAN</DistanceMeters>
          </Trackpoint>
          <Trackpoint>
            <Time>2020-03-07T18:08:27.000Z</Time>
            <Position>
              <LatitudeDegrees>40.59183684177696704864501953125</LatitudeDegrees>
              <LongitudeDegrees>-3.71298990212380886077880859375</LongitudeDegrees>
            </Position>
            <AltitudeMeters>753.5999755859375</AltitudeMeters>
            <DistanceMeters>NAN</DistanceMeters>
          </Trackpoint>
          <Trackpoint>
            <Time>2020-03-07T18:08:28.000Z</Time>
            <Position>
              <LatitudeDegrees>40.59178219176828861236572265625</LatitudeDegrees>
              <LongitudeDegrees>-3.71297464706003665924072265625</LongitudeDegrees>
            </Position>
            <AltitudeMeters>753.5999755859375</AltitudeMeters>
            <DistanceMeters>NAN</DistanceMeters>
          </Trackpoint>
          <Trackpoint>
            <Time>2020-03-07T18:08:29.000Z</Time>
            <Position>
              <LatitudeDegrees>40.59172687120735645294189453125</LatitudeDegrees>
              <LongitudeDegrees>-3.71295419521629810333251953125</LongitudeDegrees>
            </Position>
            <AltitudeMeters>753.5999755859375</AltitudeMeters>
            <DistanceMeters>NAN</DistanceMeters>
          </Trackpoint>
          <Trackpoint>
            <Time>2020-03-07T18:08:30.000Z</Time>
            <Position>
              <LatitudeDegrees>40.5916706286370754241943359375</LatitudeDegrees>
              <LongitudeDegrees>-3.71293156407773494720458984375</LongitudeDegrees>
            </Position>
            <AltitudeMeters>753.5999755859375</AltitudeMeters>
            <DistanceMeters>NAN</DistanceMeters>
          </Trackpoint>
          <Trackpoint>
            <Time>2020-03-07T18:08:31.000Z</Time>
            <Position>
              <LatitudeDegrees>40.59161354787647724151611328125</LatitudeDegrees>
              <LongitudeDegrees>-3.7129070051014423370361328125</LongitudeDegrees>
            </Position>
            <AltitudeMeters>753.5999755859375</AltitudeMeters>
            <DistanceMeters>NAN</DistanceMeters>
          </Trackpoint>
          <Trackpoint>
            <Time>2020-03-07T18:08:32.000Z</Time>
            <Position>
              <LatitudeDegrees>40.591555796563625335693359375</LatitudeDegrees>
              <LongitudeDegrees>-3.71288244612514972686767578125</LongitudeDegrees>
            </Position>
            <AltitudeMeters>753.5999755859375</AltitudeMeters>
            <DistanceMeters>NAN</DistanceMeters>
          </Trackpoint>
          <Trackpoint>
            <Time>2020-03-07T18:08:33.000Z</Time>
            <Position>
              <LatitudeDegrees>40.5914942733943462371826171875</LatitudeDegrees>
              <LongitudeDegrees>-3.7128545343875885009765625</LongitudeDegrees>
            </Position>
            <AltitudeMeters>753.5999755859375</AltitudeMeters>
            <DistanceMeters>NAN</DistanceMeters>
          </Trackpoint>
          <Trackpoint>
            <Time>2020-03-07T18:08:34.000Z</Time>
            <Position>
              <LatitudeDegrees>40.5914314091205596923828125</LatitudeDegrees>
              <LongitudeDegrees>-3.712825365364551544189453125</LongitudeDegrees>
            </Position>
            <AltitudeMeters>753.4000244140625</AltitudeMeters>
            <DistanceMeters>NAN</DistanceMeters>
          </Trackpoint>
          <Trackpoint>
            <Time>2020-03-07T18:08:35.000Z</Time>
            <Position>
              <LatitudeDegrees>40.5913672037422657012939453125</LatitudeDegrees>
              <LongitudeDegrees>-3.71279418468475341796875</LongitudeDegrees>
            </Position>
            <AltitudeMeters>753.4000244140625</AltitudeMeters>
            <DistanceMeters>NAN</DistanceMeters>
          </Trackpoint>
          <Trackpoint>
            <Time>2020-03-07T18:08:36.000Z</Time>
            <Position>
              <LatitudeDegrees>40.591300986707210540771484375</LatitudeDegrees>
              <LongitudeDegrees>-3.71275906451046466827392578125</LongitudeDegrees>
            </Position>
            <AltitudeMeters>753.4000244140625</AltitudeMeters>
            <DistanceMeters>NAN</DistanceMeters>
          </Trackpoint>
          <Trackpoint>
            <Time>2020-03-07T18:08:37.000Z</Time>
            <Position>
              <LatitudeDegrees>40.59123602695763111114501953125</LatitudeDegrees>
              <LongitudeDegrees>-3.71271983720362186431884765625</LongitudeDegrees>
            </Position>
            <AltitudeMeters>753.4000244140625</AltitudeMeters>
            <DistanceMeters>NAN</DistanceMeters>
          </Trackpoint>
          <Trackpoint>
            <Time>2020-03-07T18:08:38.000Z</Time>
            <Position>
              <LatitudeDegrees>40.5911717377603054046630859375</LatitudeDegrees>
              <LongitudeDegrees>-3.7126855552196502685546875</LongitudeDegrees>
            </Position>
            <AltitudeMeters>753.4000244140625</AltitudeMeters>
            <DistanceMeters>NAN</DistanceMeters>
          </Trackpoint>
          <Trackpoint>
            <Time>2020-03-07T18:08:39.000Z</Time>
            <Position>
              <LatitudeDegrees>40.59110208414494991302490234375</LatitudeDegrees>
              <LongitudeDegrees>-3.71264523826539516448974609375</LongitudeDegrees>
            </Position>
            <AltitudeMeters>753.4000244140625</AltitudeMeters>
            <DistanceMeters>NAN</DistanceMeters>
          </Trackpoint>
          <Trackpoint>
            <Time>2020-03-07T18:08:40.000Z</Time>
            <Position>
              <LatitudeDegrees>40.59103243052959442138671875</LatitudeDegrees>
              <LongitudeDegrees>-3.71260701678693294525146484375</LongitudeDegrees>
            </Position>
            <AltitudeMeters>753.4000244140625</AltitudeMeters>
            <DistanceMeters>NAN</DistanceMeters>
          </Trackpoint>
          <Trackpoint>
            <Time>2020-03-07T18:08:41.000Z</Time>
            <Position>
              <LatitudeDegrees>40.590960681438446044921875</LatitudeDegrees>
              <LongitudeDegrees>-3.7125693820416927337646484375</LongitudeDegrees>
            </Position>
            <AltitudeMeters>753.20001220703125</AltitudeMeters>
            <DistanceMeters>NAN</DistanceMeters>
          </Trackpoint>
          <Trackpoint>
            <Time>2020-03-07T18:08:42.000Z</Time>
            <Position>
              <LatitudeDegrees>40.5908869206905364990234375</LatitudeDegrees>
              <LongitudeDegrees>-3.71253124438226222991943359375</LongitudeDegrees>
            </Position>
            <AltitudeMeters>753</AltitudeMeters>
            <DistanceMeters>NAN</DistanceMeters>
          </Trackpoint>
          <Trackpoint>
            <Time>2020-03-07T18:08:43.000Z</Time>
            <Position>
              <LatitudeDegrees>40.5908133275806903839111328125</LatitudeDegrees>
              <LongitudeDegrees>-3.71249578893184661865234375</LongitudeDegrees>
            </Position>
            <AltitudeMeters>752.5999755859375</AltitudeMeters>
            <DistanceMeters>NAN</DistanceMeters>
          </Trackpoint>
          <Trackpoint>
            <Time>2020-03-07T18:08:44.000Z</Time>
            <Position>
              <LatitudeDegrees>40.59073981828987598419189453125</LatitudeDegrees>
              <LongitudeDegrees>-3.71246100403368473052978515625</LongitudeDegrees>
            </Position>
            <AltitudeMeters>752.4000244140625</AltitudeMeters>
            <DistanceMeters>NAN</DistanceMeters>
          </Trackpoint>
          <Trackpoint>
            <Time>2020-03-07T18:08:45.000Z</Time>
            <Position>
              <LatitudeDegrees>40.590665638446807861328125</LatitudeDegrees>
              <LongitudeDegrees>-3.7124211899936199188232421875</LongitudeDegrees>
            </Position>
            <AltitudeMeters>752.20001220703125</AltitudeMeters>
            <DistanceMeters>NAN</DistanceMeters>
          </Trackpoint>
          <Trackpoint>
            <Time>2020-03-07T18:08:46.000Z</Time>
            <Position>
              <LatitudeDegrees>40.59059095568954944610595703125</LatitudeDegrees>
              <LongitudeDegrees>-3.712376095354557037353515625</LongitudeDegrees>
            </Position>
            <AltitudeMeters>751.79998779296875</AltitudeMeters>
            <DistanceMeters>NAN</DistanceMeters>
          </Trackpoint>
          <Trackpoint>
            <Time>2020-03-07T18:08:47.000Z</Time>
            <Position>
              <LatitudeDegrees>40.5905196256935596466064453125</LatitudeDegrees>
              <LongitudeDegrees>-3.7123400531709194183349609375</LongitudeDegrees>
            </Position>
            <AltitudeMeters>751.5999755859375</AltitudeMeters>
            <DistanceMeters>NAN</DistanceMeters>
          </Trackpoint>
          <Trackpoint>
            <Time>2020-03-07T18:08:48.000Z</Time>
            <Position>
              <LatitudeDegrees>40.59044913388788700103759765625</LatitudeDegrees>
              <LongitudeDegrees>-3.71230669319629669189453125</LongitudeDegrees>
            </Position>
            <AltitudeMeters>751.4000244140625</AltitudeMeters>
            <DistanceMeters>NAN</DistanceMeters>
          </Trackpoint>
          <Trackpoint>
            <Time>2020-03-07T18:08:49.000Z</Time>
            <Position>
              <LatitudeDegrees>40.5903799831867218017578125</LatitudeDegrees>
              <LongitudeDegrees>-3.71227660216391086578369140625</LongitudeDegrees>
            </Position>
            <AltitudeMeters>751</AltitudeMeters>
            <DistanceMeters>NAN</DistanceMeters>
          </Trackpoint>
          <Trackpoint>
            <Time>2020-03-07T18:08:50.000Z</Time>
            <Position>
              <LatitudeDegrees>40.59030680917203426361083984375</LatitudeDegrees>
              <LongitudeDegrees>-3.712229914963245391845703125</LongitudeDegrees>
            </Position>
            <AltitudeMeters>750.5999755859375</AltitudeMeters>
            <DistanceMeters>NAN</DistanceMeters>
          </Trackpoint>
          <Trackpoint>
            <Time>2020-03-07T18:08:51.000Z</Time>
            <Position>
              <LatitudeDegrees>40.59023556299507617950439453125</LatitudeDegrees>
              <LongitudeDegrees>-3.7121891789138317108154296875</LongitudeDegrees>
            </Position>
            <AltitudeMeters>750.20001220703125</AltitudeMeters>
            <DistanceMeters>NAN</DistanceMeters>
          </Trackpoint>
          <Trackpoint>
            <Time>2020-03-07T18:08:52.000Z</Time>
            <Position>
              <LatitudeDegrees>40.5901692621409893035888671875</LatitudeDegrees>
              <LongitudeDegrees>-3.7121536396443843841552734375</LongitudeDegrees>
            </Position>
            <AltitudeMeters>750</AltitudeMeters>
            <DistanceMeters>NAN</DistanceMeters>
          </Trackpoint>
          <Trackpoint>
            <Time>2020-03-07T18:08:53.000Z</Time>
            <Position>
              <LatitudeDegrees>40.59009977616369724273681640625</LatitudeDegrees>
              <LongitudeDegrees>-3.7121167592704296112060546875</LongitudeDegrees>
            </Position>
            <AltitudeMeters>750</AltitudeMeters>
            <DistanceMeters>NAN</DistanceMeters>
          </Trackpoint>
          <Trackpoint>
            <Time>2020-03-07T18:08:54.000Z</Time>
            <Position>
              <LatitudeDegrees>40.590032637119293212890625</LatitudeDegrees>
              <LongitudeDegrees>-3.71207979507744312286376953125</LongitudeDegrees>
            </Position>
            <AltitudeMeters>749.79998779296875</AltitudeMeters>
            <DistanceMeters>NAN</DistanceMeters>
          </Trackpoint>
          <Trackpoint>
            <Time>2020-03-07T18:08:55.000Z</Time>
            <Position>
              <LatitudeDegrees>40.5899677611887454986572265625</LatitudeDegrees>
              <LongitudeDegrees>-3.71203889138996601104736328125</LongitudeDegrees>
            </Position>
            <AltitudeMeters>749.5999755859375</AltitudeMeters>
            <DistanceMeters>NAN</DistanceMeters>
          </Trackpoint>
          <Trackpoint>
            <Time>2020-03-07T18:08:56.000Z</Time>
            <Position>
              <LatitudeDegrees>40.58990565128624439239501953125</LatitudeDegrees>
              <LongitudeDegrees>-3.71199958026409149169921875</LongitudeDegrees>
            </Position>
            <AltitudeMeters>749.5999755859375</AltitudeMeters>
            <DistanceMeters>NAN</DistanceMeters>
          </Trackpoint>
          <Trackpoint>
            <Time>2020-03-07T18:08:57.000Z</Time>
            <Position>
              <LatitudeDegrees>40.58984530158340930938720703125</LatitudeDegrees>
              <LongitudeDegrees>-3.711963035166263580322265625</LongitudeDegrees>
            </Position>
            <AltitudeMeters>749.5999755859375</AltitudeMeters>
            <DistanceMeters>NAN</DistanceMeters>
          </Trackpoint>
          <Trackpoint>
            <Time>2020-03-07T18:08:58.000Z</Time>
            <Position>
              <LatitudeDegrees>40.58978478424251079559326171875</LatitudeDegrees>
              <LongitudeDegrees>-3.71192942373454570770263671875</LongitudeDegrees>
            </Position>
            <AltitudeMeters>749.4000244140625</AltitudeMeters>
            <DistanceMeters>NAN</DistanceMeters>
          </Trackpoint>
          <Trackpoint>
            <Time>2020-03-07T18:08:59.000Z</Time>
            <Position>
              <LatitudeDegrees>40.589726865291595458984375</LatitudeDegrees>
              <LongitudeDegrees>-3.71188960969448089599609375</LongitudeDegrees>
            </Position>
            <AltitudeMeters>749.4000244140625</AltitudeMeters>
            <DistanceMeters>NAN</DistanceMeters>
          </Trackpoint>
          <Trackpoint>
            <Time>2020-03-07T18:09:00.000Z</Time>
            <Position>
              <LatitudeDegrees>40.58966760523617267608642578125</LatitudeDegrees>
              <LongitudeDegrees>-3.7118458561599254608154296875</LongitudeDegrees>
            </Position>
            <AltitudeMeters>749.20001220703125</AltitudeMeters>
            <DistanceMeters>NAN</DistanceMeters>
          </Trackpoint>
          <Trackpoint>
            <Time>2020-03-07T18:09:01.000Z</Time>
            <Position>
              <LatitudeDegrees>40.5896083451807498931884765625</LatitudeDegrees>
              <LongitudeDegrees>-3.71179715730249881744384765625</LongitudeDegrees>
            </Position>
            <AltitudeMeters>749.20001220703125</AltitudeMeters>
            <DistanceMeters>NAN</DistanceMeters>
          </Trackpoint>
          <Trackpoint>
            <Time>2020-03-07T18:09:02.000Z</Time>
            <Position>
              <LatitudeDegrees>40.589548163115978240966796875</LatitudeDegrees>
              <LongitudeDegrees>-3.7117523141205310821533203125</LongitudeDegrees>
            </Position>
            <AltitudeMeters>749.20001220703125</AltitudeMeters>
            <DistanceMeters>NAN</DistanceMeters>
          </Trackpoint>
          <Trackpoint>
            <Time>2020-03-07T18:09:03.000Z</Time>
            <Position>
              <LatitudeDegrees>40.58949124999344348907470703125</LatitudeDegrees>
              <LongitudeDegrees>-3.7117090635001659393310546875</LongitudeDegrees>
            </Position>
            <AltitudeMeters>749.20001220703125</AltitudeMeters>
            <DistanceMeters>NAN</DistanceMeters>
          </Trackpoint>
          <Trackpoint>
            <Time>2020-03-07T18:09:04.000Z</Time>
            <Position>
              <LatitudeDegrees>40.58943592943251132965087890625</LatitudeDegrees>
              <LongitudeDegrees>-3.71166405268013477325439453125</LongitudeDegrees>
            </Position>
            <AltitudeMeters>749.20001220703125</AltitudeMeters>
            <DistanceMeters>NAN</DistanceMeters>
          </Trackpoint>
          <Trackpoint>
            <Time>2020-03-07T18:09:05.000Z</Time>
            <Position>
              <LatitudeDegrees>40.58937625028192996978759765625</LatitudeDegrees>
              <LongitudeDegrees>-3.71161870658397674560546875</LongitudeDegrees>
            </Position>
            <AltitudeMeters>749.20001220703125</AltitudeMeters>
            <DistanceMeters>NAN</DistanceMeters>
          </Trackpoint>
          <Trackpoint>
            <Time>2020-03-07T18:09:06.000Z</Time>
            <Position>
              <LatitudeDegrees>40.58931447565555572509765625</LatitudeDegrees>
              <LongitudeDegrees>-3.71157386340200901031494140625</LongitudeDegrees>
            </Position>
            <AltitudeMeters>749.20001220703125</AltitudeMeters>
            <DistanceMeters>NAN</DistanceMeters>
          </Trackpoint>
          <Trackpoint>
            <Time>2020-03-07T18:09:07.000Z</Time>
            <Position>
              <LatitudeDegrees>40.58925588615238666534423828125</LatitudeDegrees>
              <LongitudeDegrees>-3.7115295231342315673828125</LongitudeDegrees>
            </Position>
            <AltitudeMeters>749.20001220703125</AltitudeMeters>
            <DistanceMeters>NAN</DistanceMeters>
          </Trackpoint>
          <Trackpoint>
            <Time>2020-03-07T18:09:08.000Z</Time>
            <Position>
              <LatitudeDegrees>40.58919721283018589019775390625</LatitudeDegrees>
              <LongitudeDegrees>-3.7114837579429149627685546875</LongitudeDegrees>
            </Position>
            <AltitudeMeters>749.20001220703125</AltitudeMeters>
            <DistanceMeters>NAN</DistanceMeters>
          </Trackpoint>
          <Trackpoint>
            <Time>2020-03-07T18:09:09.000Z</Time>
            <Position>
              <LatitudeDegrees>40.58913719840347766876220703125</LatitudeDegrees>
              <LongitudeDegrees>-3.7114327959716320037841796875</LongitudeDegrees>
            </Position>
            <AltitudeMeters>749.20001220703125</AltitudeMeters>
            <DistanceMeters>NAN</DistanceMeters>
          </Trackpoint>
          <Trackpoint>
            <Time>2020-03-07T18:09:10.000Z</Time>
            <Position>
              <LatitudeDegrees>40.589078776538372039794921875</LatitudeDegrees>
              <LongitudeDegrees>-3.71137873269617557525634765625</LongitudeDegrees>
            </Position>
            <AltitudeMeters>749.20001220703125</AltitudeMeters>
            <DistanceMeters>NAN</DistanceMeters>
          </Trackpoint>
          <Trackpoint>
            <Time>2020-03-07T18:09:11.000Z</Time>
            <Position>
              <LatitudeDegrees>40.589020438492298126220703125</LatitudeDegrees>
              <LongitudeDegrees>-3.7113221548497676849365234375</LongitudeDegrees>
            </Position>
            <AltitudeMeters>749.20001220703125</AltitudeMeters>
            <DistanceMeters>NAN</DistanceMeters>
          </Trackpoint>
          <Trackpoint>
            <Time>2020-03-07T18:09:12.000Z</Time>
            <Position>
              <LatitudeDegrees>40.58896603994071483612060546875</LatitudeDegrees>
              <LongitudeDegrees>-3.71126490645110607147216796875</LongitudeDegrees>
            </Position>
            <AltitudeMeters>749.20001220703125</AltitudeMeters>
            <DistanceMeters>NAN</DistanceMeters>
          </Trackpoint>
          <Trackpoint>
            <Time>2020-03-07T18:09:13.000Z</Time>
            <Position>
              <LatitudeDegrees>40.5889139883220195770263671875</LatitudeDegrees>
              <LongitudeDegrees>-3.71120975352823734283447265625</LongitudeDegrees>
            </Position>
            <AltitudeMeters>749.20001220703125</AltitudeMeters>
            <DistanceMeters>NAN</DistanceMeters>
          </Trackpoint>
          <Trackpoint>
            <Time>2020-03-07T18:09:14.000Z</Time>
            <Position>
              <LatitudeDegrees>40.58886545710265636444091796875</LatitudeDegrees>
              <LongitudeDegrees>-3.7111592106521129608154296875</LongitudeDegrees>
            </Position>
            <AltitudeMeters>749.20001220703125</AltitudeMeters>
            <DistanceMeters>NAN</DistanceMeters>
          </Trackpoint>
          <Trackpoint>
            <Time>2020-03-07T18:09:15.000Z</Time>
            <Position>
              <LatitudeDegrees>40.58881667442619800567626953125</LatitudeDegrees>
              <LongitudeDegrees>-3.71111034415662288665771484375</LongitudeDegrees>
            </Position>
            <AltitudeMeters>749.20001220703125</AltitudeMeters>
            <DistanceMeters>NAN</DistanceMeters>
          </Trackpoint>
          <Trackpoint>
            <Time>2020-03-07T18:09:16.000Z</Time>
            <Position>
              <LatitudeDegrees>40.58877074159681797027587890625</LatitudeDegrees>
              <LongitudeDegrees>-3.71106357313692569732666015625</LongitudeDegrees>
            </Position>
            <AltitudeMeters>749.20001220703125</AltitudeMeters>
            <DistanceMeters>NAN</DistanceMeters>
          </Trackpoint>
          <Trackpoint>
            <Time>2020-03-07T18:09:17.000Z</Time>
            <Position>
              <LatitudeDegrees>40.5887245573103427886962890625</LatitudeDegrees>
              <LongitudeDegrees>-3.711014203727245330810546875</LongitudeDegrees>
            </Position>
            <AltitudeMeters>749.4000244140625</AltitudeMeters>
            <DistanceMeters>NAN</DistanceMeters>
          </Trackpoint>
          <Trackpoint>
            <Time>2020-03-07T18:09:18.000Z</Time>
            <Position>
              <LatitudeDegrees>40.58867652900516986846923828125</LatitudeDegrees>
              <LongitudeDegrees>-3.7109583802521228790283203125</LongitudeDegrees>
            </Position>
            <AltitudeMeters>749.4000244140625</AltitudeMeters>
            <DistanceMeters>NAN</DistanceMeters>
          </Trackpoint>
          <Trackpoint>
            <Time>2020-03-07T18:09:19.000Z</Time>
            <Position>
              <LatitudeDegrees>40.58862648904323577880859375</LatitudeDegrees>
              <LongitudeDegrees>-3.7108960188925266265869140625</LongitudeDegrees>
            </Position>
            <AltitudeMeters>749.4000244140625</AltitudeMeters>
            <DistanceMeters>NAN</DistanceMeters>
          </Trackpoint>
          <Trackpoint>
            <Time>2020-03-07T18:09:20.000Z</Time>
            <Position>
              <LatitudeDegrees>40.58857477270066738128662109375</LatitudeDegrees>
              <LongitudeDegrees>-3.71083022095263004302978515625</LongitudeDegrees>
            </Position>
            <AltitudeMeters>749.4000244140625</AltitudeMeters>
            <DistanceMeters>NAN</DistanceMeters>
          </Trackpoint>
          <Trackpoint>
            <Time>2020-03-07T18:09:21.000Z</Time>
            <Position>
              <LatitudeDegrees>40.58852062560617923736572265625</LatitudeDegrees>
              <LongitudeDegrees>-3.710759393870830535888671875</LongitudeDegrees>
            </Position>
            <AltitudeMeters>749.4000244140625</AltitudeMeters>
            <DistanceMeters>NAN</DistanceMeters>
          </Trackpoint>
          <Trackpoint>
            <Time>2020-03-07T18:09:22.000Z</Time>
            <Position>
              <LatitudeDegrees>40.5884660594165325164794921875</LatitudeDegrees>
              <LongitudeDegrees>-3.71068689040839672088623046875</LongitudeDegrees>
            </Position>
            <AltitudeMeters>749.4000244140625</AltitudeMeters>
            <DistanceMeters>NAN</DistanceMeters>
          </Trackpoint>
          <Trackpoint>
            <Time>2020-03-07T18:09:23.000Z</Time>
            <Position>
              <LatitudeDegrees>40.5884114094078540802001953125</LatitudeDegrees>
              <LongitudeDegrees>-3.71061363257467746734619140625</LongitudeDegrees>
            </Position>
            <AltitudeMeters>749.4000244140625</AltitudeMeters>
            <DistanceMeters>NAN</DistanceMeters>
          </Trackpoint>
          <Trackpoint>
            <Time>2020-03-07T18:09:24.000Z</Time>
            <Position>
              <LatitudeDegrees>40.5883577652275562286376953125</LatitudeDegrees>
              <LongitudeDegrees>-3.71054355986416339874267578125</LongitudeDegrees>
            </Position>
            <AltitudeMeters>749.4000244140625</AltitudeMeters>
            <DistanceMeters>NAN</DistanceMeters>
          </Trackpoint>
          <Trackpoint>
            <Time>2020-03-07T18:09:25.000Z</Time>
            <Position>
              <LatitudeDegrees>40.58830504305660724639892578125</LatitudeDegrees>
              <LongitudeDegrees>-3.710473068058490753173828125</LongitudeDegrees>
            </Position>
            <AltitudeMeters>749.4000244140625</AltitudeMeters>
            <DistanceMeters>NAN</DistanceMeters>
          </Trackpoint>
          <Trackpoint>
            <Time>2020-03-07T18:09:26.000Z</Time>
            <Position>
              <LatitudeDegrees>40.58825391344726085662841796875</LatitudeDegrees>
              <LongitudeDegrees>-3.7104029953479766845703125</LongitudeDegrees>
            </Position>
            <AltitudeMeters>749.4000244140625</AltitudeMeters>
            <DistanceMeters>NAN</DistanceMeters>
          </Trackpoint>
          <Trackpoint>
            <Time>2020-03-07T18:09:27.000Z</Time>
            <Position>
              <LatitudeDegrees>40.5882055498659610748291015625</LatitudeDegrees>
              <LongitudeDegrees>-3.710335604846477508544921875</LongitudeDegrees>
            </Position>
            <AltitudeMeters>749.4000244140625</AltitudeMeters>
            <DistanceMeters>NAN</DistanceMeters>
          </Trackpoint>
          <Trackpoint>
            <Time>2020-03-07T18:09:28.000Z</Time>
            <Position>
              <LatitudeDegrees>40.588155426084995269775390625</LatitudeDegrees>
              <LongitudeDegrees>-3.7102663703262805938720703125</LongitudeDegrees>
            </Position>
            <AltitudeMeters>749.4000244140625</AltitudeMeters>
            <DistanceMeters>NAN</DistanceMeters>
          </Trackpoint>
          <Trackpoint>
            <Time>2020-03-07T18:09:29.000Z</Time>
            <Position>
              <LatitudeDegrees>40.58810412883758544921875</LatitudeDegrees>
              <LongitudeDegrees>-3.7101952917873859405517578125</LongitudeDegrees>
            </Position>
            <AltitudeMeters>749.20001220703125</AltitudeMeters>
            <DistanceMeters>NAN</DistanceMeters>
          </Trackpoint>
          <Trackpoint>
            <Time>2020-03-07T18:09:30.000Z</Time>
            <Position>
              <LatitudeDegrees>40.58805442415177822113037109375</LatitudeDegrees>
              <LongitudeDegrees>-3.71012429706752300262451171875</LongitudeDegrees>
            </Position>
            <AltitudeMeters>749</AltitudeMeters>
            <DistanceMeters>NAN</DistanceMeters>
          </Trackpoint>
          <Trackpoint>
            <Time>2020-03-07T18:09:31.000Z</Time>
            <Position>
              <LatitudeDegrees>40.58800664730370044708251953125</LatitudeDegrees>
              <LongitudeDegrees>-3.71005204506218433380126953125</LongitudeDegrees>
            </Position>
            <AltitudeMeters>748.4000244140625</AltitudeMeters>
            <DistanceMeters>NAN</DistanceMeters>
          </Trackpoint>
          <Trackpoint>
            <Time>2020-03-07T18:09:32.000Z</Time>
            <Position>
              <LatitudeDegrees>40.58795928955078125</LatitudeDegrees>
              <LongitudeDegrees>-3.7099803797900676727294921875</LongitudeDegrees>
            </Position>
            <AltitudeMeters>748.20001220703125</AltitudeMeters>
            <DistanceMeters>NAN</DistanceMeters>
          </Trackpoint>
          <Trackpoint>
            <Time>2020-03-07T18:09:33.000Z</Time>
            <Position>
              <LatitudeDegrees>40.587913356721401214599609375</LatitudeDegrees>
              <LongitudeDegrees>-3.70990812778472900390625</LongitudeDegrees>
            </Position>
            <AltitudeMeters>748.20001220703125</AltitudeMeters>
            <DistanceMeters>NAN</DistanceMeters>
          </Trackpoint>
          <Trackpoint>
            <Time>2020-03-07T18:09:34.000Z</Time>
            <Position>
              <LatitudeDegrees>40.58786608278751373291015625</LatitudeDegrees>
              <LongitudeDegrees>-3.7098352052271366119384765625</LongitudeDegrees>
            </Position>
            <AltitudeMeters>748.20001220703125</AltitudeMeters>
            <DistanceMeters>NAN</DistanceMeters>
          </Trackpoint>
          <Trackpoint>
            <Time>2020-03-07T18:09:35.000Z</Time>
            <Position>
              <LatitudeDegrees>40.5878176353871822357177734375</LatitudeDegrees>
              <LongitudeDegrees>-3.70976370759308338165283203125</LongitudeDegrees>
            </Position>
            <AltitudeMeters>748</AltitudeMeters>
            <DistanceMeters>NAN</DistanceMeters>
          </Trackpoint>
          <Trackpoint>
            <Time>2020-03-07T18:09:36.000Z</Time>
            <Position>
              <LatitudeDegrees>40.58776675723493099212646484375</LatitudeDegrees>
              <LongitudeDegrees>-3.7096907012164592742919921875</LongitudeDegrees>
            </Position>
            <AltitudeMeters>748</AltitudeMeters>
            <DistanceMeters>NAN</DistanceMeters>
          </Trackpoint>
          <Trackpoint>
            <Time>2020-03-07T18:09:37.000Z</Time>
            <Position>
              <LatitudeDegrees>40.58771663345396518707275390625</LatitudeDegrees>
              <LongitudeDegrees>-3.7096186168491840362548828125</LongitudeDegrees>
            </Position>
            <AltitudeMeters>748</AltitudeMeters>
            <DistanceMeters>NAN</DistanceMeters>
          </Trackpoint>
          <Trackpoint>
            <Time>2020-03-07T18:09:38.000Z</Time>
            <Position>
              <LatitudeDegrees>40.58766852132976055145263671875</LatitudeDegrees>
              <LongitudeDegrees>-3.709549717605113983154296875</LongitudeDegrees>
            </Position>
            <AltitudeMeters>747.79998779296875</AltitudeMeters>
            <DistanceMeters>NAN</DistanceMeters>
          </Trackpoint>
          <Trackpoint>
            <Time>2020-03-07T18:09:39.000Z</Time>
            <Position>
              <LatitudeDegrees>40.58762007392942905426025390625</LatitudeDegrees>
              <LongitudeDegrees>-3.7094835005700588226318359375</LongitudeDegrees>
            </Position>
            <AltitudeMeters>747.79998779296875</AltitudeMeters>
            <DistanceMeters>NAN</DistanceMeters>
          </Trackpoint>
          <Trackpoint>
            <Time>2020-03-07T18:09:40.000Z</Time>
            <Position>
              <LatitudeDegrees>40.5875725485384464263916015625</LatitudeDegrees>
              <LongitudeDegrees>-3.70941921137273311614990234375</LongitudeDegrees>
            </Position>
            <AltitudeMeters>747.79998779296875</AltitudeMeters>
            <DistanceMeters>NAN</DistanceMeters>
          </Trackpoint>
          <Trackpoint>
            <Time>2020-03-07T18:09:41.000Z</Time>
            <Position>
              <LatitudeDegrees>40.587525106966495513916015625</LatitudeDegrees>
              <LongitudeDegrees>-3.70935366488993167877197265625</LongitudeDegrees>
            </Position>
            <AltitudeMeters>747.79998779296875</AltitudeMeters>
            <DistanceMeters>NAN</DistanceMeters>
          </Trackpoint>
          <Trackpoint>
            <Time>2020-03-07T18:09:42.000Z</Time>
            <Position>
              <LatitudeDegrees>40.58747791685163974761962890625</LatitudeDegrees>
              <LongitudeDegrees>-3.709286190569400787353515625</LongitudeDegrees>
            </Position>
            <AltitudeMeters>747.79998779296875</AltitudeMeters>
            <DistanceMeters>NAN</DistanceMeters>
          </Trackpoint>
          <Trackpoint>
            <Time>2020-03-07T18:09:43.000Z</Time>
            <Position>
              <LatitudeDegrees>40.5874297209084033966064453125</LatitudeDegrees>
              <LongitudeDegrees>-3.70921921916306018829345703125</LongitudeDegrees>
            </Position>
            <AltitudeMeters>747.79998779296875</AltitudeMeters>
            <DistanceMeters>NAN</DistanceMeters>
          </Trackpoint>
          <Trackpoint>
            <Time>2020-03-07T18:09:44.000Z</Time>
            <Position>
              <LatitudeDegrees>40.5873814411461353302001953125</LatitudeDegrees>
              <LongitudeDegrees>-3.70915509760379791259765625</LongitudeDegrees>
            </Position>
            <AltitudeMeters>747.79998779296875</AltitudeMeters>
            <DistanceMeters>NAN</DistanceMeters>
          </Trackpoint>
          <Trackpoint>
            <Time>2020-03-07T18:09:45.000Z</Time>
            <Position>
              <LatitudeDegrees>40.58733223937451839447021484375</LatitudeDegrees>
              <LongitudeDegrees>-3.7090908922255039215087890625</LongitudeDegrees>
            </Position>
            <AltitudeMeters>747.79998779296875</AltitudeMeters>
            <DistanceMeters>NAN</DistanceMeters>
          </Trackpoint>
          <Trackpoint>
            <Time>2020-03-07T18:09:46.000Z</Time>
            <Position>
              <LatitudeDegrees>40.58728127740323543548583984375</LatitudeDegrees>
              <LongitudeDegrees>-3.70902526192367076873779296875</LongitudeDegrees>
            </Position>
            <AltitudeMeters>747.79998779296875</AltitudeMeters>
            <DistanceMeters>NAN</DistanceMeters>
          </Trackpoint>
          <Trackpoint>
            <Time>2020-03-07T18:09:47.000Z</Time>
            <Position>
              <LatitudeDegrees>40.58722964487969875335693359375</LatitudeDegrees>
              <LongitudeDegrees>-3.7089587934315204620361328125</LongitudeDegrees>
            </Position>
            <AltitudeMeters>747.79998779296875</AltitudeMeters>
            <DistanceMeters>NAN</DistanceMeters>
          </Trackpoint>
          <Trackpoint>
            <Time>2020-03-07T18:09:48.000Z</Time>
            <Position>
              <LatitudeDegrees>40.58717901818454265594482421875</LatitudeDegrees>
              <LongitudeDegrees>-3.708894588053226470947265625</LongitudeDegrees>
            </Position>
            <AltitudeMeters>747.79998779296875</AltitudeMeters>
            <DistanceMeters>NAN</DistanceMeters>
          </Trackpoint>
          <Trackpoint>
            <Time>2020-03-07T18:09:49.000Z</Time>
            <Position>
              <LatitudeDegrees>40.5871286429464817047119140625</LatitudeDegrees>
              <LongitudeDegrees>-3.70883549563586711883544921875</LongitudeDegrees>
            </Position>
            <AltitudeMeters>747.79998779296875</AltitudeMeters>
            <DistanceMeters>NAN</DistanceMeters>
          </Trackpoint>
          <Trackpoint>
            <Time>2020-03-07T18:09:50.000Z</Time>
            <Position>
              <LatitudeDegrees>40.58707776479423046112060546875</LatitudeDegrees>
              <LongitudeDegrees>-3.7087784148752689361572265625</LongitudeDegrees>
            </Position>
            <AltitudeMeters>747.79998779296875</AltitudeMeters>
            <DistanceMeters>NAN</DistanceMeters>
          </Trackpoint>
          <Trackpoint>
            <Time>2020-03-07T18:09:51.000Z</Time>
            <Position>
              <LatitudeDegrees>40.58702596463263034820556640625</LatitudeDegrees>
              <LongitudeDegrees>-3.70872150175273418426513671875</LongitudeDegrees>
            </Position>
            <AltitudeMeters>747.79998779296875</AltitudeMeters>
            <DistanceMeters>NAN</DistanceMeters>
          </Trackpoint>
          <Trackpoint>
            <Time>2020-03-07T18:09:52.000Z</Time>
            <Position>
              <LatitudeDegrees>40.586973913013935089111328125</LatitudeDegrees>
              <LongitudeDegrees>-3.708660565316677093505859375</LongitudeDegrees>
            </Position>
            <AltitudeMeters>747.79998779296875</AltitudeMeters>
            <DistanceMeters>NAN</DistanceMeters>
          </Trackpoint>
          <Trackpoint>
            <Time>2020-03-07T18:09:53.000Z</Time>
            <Position>
              <LatitudeDegrees>40.586920268833637237548828125</LatitudeDegrees>
              <LongitudeDegrees>-3.70860164053738117218017578125</LongitudeDegrees>
            </Position>
            <AltitudeMeters>747.79998779296875</AltitudeMeters>
            <DistanceMeters>NAN</DistanceMeters>
          </Trackpoint>
          <Trackpoint>
            <Time>2020-03-07T18:09:54.000Z</Time>
            <Position>
              <LatitudeDegrees>40.58686486445367336273193359375</LatitudeDegrees>
              <LongitudeDegrees>-3.7085420452058315277099609375</LongitudeDegrees>
            </Position>
            <AltitudeMeters>747.79998779296875</AltitudeMeters>
            <DistanceMeters>NAN</DistanceMeters>
          </Trackpoint>
          <Trackpoint>
            <Time>2020-03-07T18:09:55.000Z</Time>
            <Position>
              <LatitudeDegrees>40.5868104659020900726318359375</LatitudeDegrees>
              <LongitudeDegrees>-3.70848647318780422210693359375</LongitudeDegrees>
            </Position>
            <AltitudeMeters>747.79998779296875</AltitudeMeters>
            <DistanceMeters>NAN</DistanceMeters>
          </Trackpoint>
          <Trackpoint>
            <Time>2020-03-07T18:09:56.000Z</Time>
            <Position>
              <LatitudeDegrees>40.586757659912109375</LatitudeDegrees>
              <LongitudeDegrees>-3.70843551121652126312255859375</LongitudeDegrees>
            </Position>
            <AltitudeMeters>747.79998779296875</AltitudeMeters>
            <DistanceMeters>NAN</DistanceMeters>
          </Trackpoint>
          <Trackpoint>
            <Time>2020-03-07T18:09:57.000Z</Time>
            <Position>
              <LatitudeDegrees>40.5867058597505092620849609375</LatitudeDegrees>
              <LongitudeDegrees>-3.70838438160717487335205078125</LongitudeDegrees>
            </Position>
            <AltitudeMeters>747.79998779296875</AltitudeMeters>
            <DistanceMeters>NAN</DistanceMeters>
          </Trackpoint>
          <Trackpoint>
            <Time>2020-03-07T18:09:58.000Z</Time>
            <Position>
              <LatitudeDegrees>40.586653053760528564453125</LatitudeDegrees>
              <LongitudeDegrees>-3.7083338387310504913330078125</LongitudeDegrees>
            </Position>
            <AltitudeMeters>747.79998779296875</AltitudeMeters>
            <DistanceMeters>NAN</DistanceMeters>
          </Trackpoint>
          <Trackpoint>
            <Time>2020-03-07T18:09:59.000Z</Time>
            <Position>
              <LatitudeDegrees>40.58659949339926242828369140625</LatitudeDegrees>
              <LongitudeDegrees>-3.70828396640717983245849609375</LongitudeDegrees>
            </Position>
            <AltitudeMeters>747.79998779296875</AltitudeMeters>
            <DistanceMeters>NAN</DistanceMeters>
          </Trackpoint>
          <Trackpoint>
            <Time>2020-03-07T18:10:00.000Z</Time>
            <Position>
              <LatitudeDegrees>40.58654434047639369964599609375</LatitudeDegrees>
              <LongitudeDegrees>-3.70823484845459461212158203125</LongitudeDegrees>
            </Position>
            <AltitudeMeters>748</AltitudeMeters>
            <DistanceMeters>NAN</DistanceMeters>
          </Trackpoint>
          <Trackpoint>
            <Time>2020-03-07T18:10:01.000Z</Time>
            <Position>
              <LatitudeDegrees>40.58648784644901752471923828125</LatitudeDegrees>
              <LongitudeDegrees>-3.70818606577813625335693359375</LongitudeDegrees>
            </Position>
            <AltitudeMeters>748</AltitudeMeters>
            <DistanceMeters>NAN</DistanceMeters>
          </Trackpoint>
          <Trackpoint>
            <Time>2020-03-07T18:10:02.000Z</Time>
            <Position>
              <LatitudeDegrees>40.5864317715167999267578125</LatitudeDegrees>
              <LongitudeDegrees>-3.7081360258162021636962890625</LongitudeDegrees>
            </Position>
            <AltitudeMeters>748</AltitudeMeters>
            <DistanceMeters>NAN</DistanceMeters>
          </Trackpoint>
          <Trackpoint>
            <Time>2020-03-07T18:10:03.000Z</Time>
            <Position>
              <LatitudeDegrees>40.58637720532715320587158203125</LatitudeDegrees>
              <LongitudeDegrees>-3.70808732695877552032470703125</LongitudeDegrees>
            </Position>
            <AltitudeMeters>748.20001220703125</AltitudeMeters>
            <DistanceMeters>NAN</DistanceMeters>
          </Trackpoint>
          <Trackpoint>
            <Time>2020-03-07T18:10:04.000Z</Time>
            <Position>
              <LatitudeDegrees>40.5863249860703945159912109375</LatitudeDegrees>
              <LongitudeDegrees>-3.708040975034236907958984375</LongitudeDegrees>
            </Position>
            <AltitudeMeters>748.20001220703125</AltitudeMeters>
            <DistanceMeters>NAN</DistanceMeters>
          </Trackpoint>
          <Trackpoint>
            <Time>2020-03-07T18:10:05.000Z</Time>
            <Position>
              <LatitudeDegrees>40.58627326972782611846923828125</LatitudeDegrees>
              <LongitudeDegrees>-3.70799613185226917266845703125</LongitudeDegrees>
            </Position>
            <AltitudeMeters>748.20001220703125</AltitudeMeters>
            <DistanceMeters>NAN</DistanceMeters>
          </Trackpoint>
          <Trackpoint>
            <Time>2020-03-07T18:10:06.000Z</Time>
            <Position>
              <LatitudeDegrees>40.58622029609978199005126953125</LatitudeDegrees>
              <LongitudeDegrees>-3.70795221067965030670166015625</LongitudeDegrees>
            </Position>
            <AltitudeMeters>748.20001220703125</AltitudeMeters>
            <DistanceMeters>NAN</DistanceMeters>
          </Trackpoint>
          <Trackpoint>
            <Time>2020-03-07T18:10:07.000Z</Time>
            <Position>
              <LatitudeDegrees>40.5861674062907695770263671875</LatitudeDegrees>
              <LongitudeDegrees>-3.70790996588766574859619140625</LongitudeDegrees>
            </Position>
            <AltitudeMeters>748.4000244140625</AltitudeMeters>
            <DistanceMeters>NAN</DistanceMeters>
          </Trackpoint>
          <Trackpoint>
            <Time>2020-03-07T18:10:08.000Z</Time>
            <Position>
              <LatitudeDegrees>40.58611535467207431793212890625</LatitudeDegrees>
              <LongitudeDegrees>-3.70787476189434528350830078125</LongitudeDegrees>
            </Position>
            <AltitudeMeters>748.4000244140625</AltitudeMeters>
            <DistanceMeters>NAN</DistanceMeters>
          </Trackpoint>
          <Trackpoint>
            <Time>2020-03-07T18:10:09.000Z</Time>
            <Position>
              <LatitudeDegrees>40.586063303053379058837890625</LatitudeDegrees>
              <LongitudeDegrees>-3.70783955790102481842041015625</LongitudeDegrees>
            </Position>
            <AltitudeMeters>748.4000244140625</AltitudeMeters>
            <DistanceMeters>NAN</DistanceMeters>
          </Trackpoint>
          <Trackpoint>
            <Time>2020-03-07T18:10:10.000Z</Time>
            <Position>
              <LatitudeDegrees>40.5860125087201595306396484375</LatitudeDegrees>
              <LongitudeDegrees>-3.7078037671744823455810546875</LongitudeDegrees>
            </Position>
            <AltitudeMeters>748.5999755859375</AltitudeMeters>
            <DistanceMeters>NAN</DistanceMeters>
          </Trackpoint>
          <Trackpoint>
            <Time>2020-03-07T18:10:11.000Z</Time>
            <Position>
              <LatitudeDegrees>40.5859615467488765716552734375</LatitudeDegrees>
              <LongitudeDegrees>-3.70776864700019359588623046875</LongitudeDegrees>
            </Position>
            <AltitudeMeters>748.5999755859375</AltitudeMeters>
            <DistanceMeters>NAN</DistanceMeters>
          </Trackpoint>
          <Trackpoint>
            <Time>2020-03-07T18:10:12.000Z</Time>
            <Position>
              <LatitudeDegrees>40.5859119258821010589599609375</LatitudeDegrees>
              <LongitudeDegrees>-3.70773377828299999237060546875</LongitudeDegrees>
            </Position>
            <AltitudeMeters>748.79998779296875</AltitudeMeters>
            <DistanceMeters>NAN</DistanceMeters>
          </Trackpoint>
          <Trackpoint>
            <Time>2020-03-07T18:10:13.000Z</Time>
            <Position>
              <LatitudeDegrees>40.58586507104337215423583984375</LatitudeDegrees>
              <LongitudeDegrees>-3.70770360343158245086669921875</LongitudeDegrees>
            </Position>
            <AltitudeMeters>748.79998779296875</AltitudeMeters>
            <DistanceMeters>NAN</DistanceMeters>
          </Trackpoint>
          <Trackpoint>
            <Time>2020-03-07T18:10:14.000Z</Time>
            <Position>
              <LatitudeDegrees>40.58582031168043613433837890625</LatitudeDegrees>
              <LongitudeDegrees>-3.707676865160465240478515625</LongitudeDegrees>
            </Position>
            <AltitudeMeters>748.79998779296875</AltitudeMeters>
            <DistanceMeters>NAN</DistanceMeters>
          </Trackpoint>
          <Trackpoint>
            <Time>2020-03-07T18:10:15.000Z</Time>
            <Position>
              <LatitudeDegrees>40.585775636136531829833984375</LatitudeDegrees>
              <LongitudeDegrees>-3.707646019756793975830078125</LongitudeDegrees>
            </Position>
            <AltitudeMeters>748.79998779296875</AltitudeMeters>
            <DistanceMeters>NAN</DistanceMeters>
          </Trackpoint>
          <Trackpoint>
            <Time>2020-03-07T18:10:16.000Z</Time>
            <Position>
              <LatitudeDegrees>40.58573238551616668701171875</LatitudeDegrees>
              <LongitudeDegrees>-3.70761475525796413421630859375</LongitudeDegrees>
            </Position>
            <AltitudeMeters>749</AltitudeMeters>
            <DistanceMeters>NAN</DistanceMeters>
          </Trackpoint>
          <Trackpoint>
            <Time>2020-03-07T18:10:17.000Z</Time>
            <Position>
              <LatitudeDegrees>40.58568888343870639801025390625</LatitudeDegrees>
              <LongitudeDegrees>-3.70758139528334140777587890625</LongitudeDegrees>
            </Position>
            <AltitudeMeters>749</AltitudeMeters>
            <DistanceMeters>NAN</DistanceMeters>
          </Trackpoint>
          <Trackpoint>
            <Time>2020-03-07T18:10:18.000Z</Time>
            <Position>
              <LatitudeDegrees>40.5856457166373729705810546875</LatitudeDegrees>
              <LongitudeDegrees>-3.70755155570805072784423828125</LongitudeDegrees>
            </Position>
            <AltitudeMeters>749</AltitudeMeters>
            <DistanceMeters>NAN</DistanceMeters>
          </Trackpoint>
          <Trackpoint>
            <Time>2020-03-07T18:10:19.000Z</Time>
            <Position>
              <LatitudeDegrees>40.58560070581734180450439453125</LatitudeDegrees>
              <LongitudeDegrees>-3.70752356015145778656005859375</LongitudeDegrees>
            </Position>
            <AltitudeMeters>749</AltitudeMeters>
            <DistanceMeters>NAN</DistanceMeters>
          </Trackpoint>
          <Trackpoint>
            <Time>2020-03-07T18:10:20.000Z</Time>
            <Position>
              <LatitudeDegrees>40.585555694997310638427734375</LatitudeDegrees>
              <LongitudeDegrees>-3.7074956484138965606689453125</LongitudeDegrees>
            </Position>
            <AltitudeMeters>749.20001220703125</AltitudeMeters>
            <DistanceMeters>NAN</DistanceMeters>
          </Trackpoint>
          <Trackpoint>
            <Time>2020-03-07T18:10:21.000Z</Time>
            <Position>
              <LatitudeDegrees>40.5855102650821208953857421875</LatitudeDegrees>
              <LongitudeDegrees>-3.7074681557714939117431640625</LongitudeDegrees>
            </Position>
            <AltitudeMeters>749.5999755859375</AltitudeMeters>
            <DistanceMeters>NAN</DistanceMeters>
          </Trackpoint>
          <Trackpoint>
            <Time>2020-03-07T18:10:22.000Z</Time>
            <Position>
              <LatitudeDegrees>40.58546592481434345245361328125</LatitudeDegrees>
              <LongitudeDegrees>-3.70744141750037670135498046875</LongitudeDegrees>
            </Position>
            <AltitudeMeters>749.79998779296875</AltitudeMeters>
            <DistanceMeters>NAN</DistanceMeters>
          </Trackpoint>
          <Trackpoint>
            <Time>2020-03-07T18:10:23.000Z</Time>
            <Position>
              <LatitudeDegrees>40.5854227580130100250244140625</LatitudeDegrees>
              <LongitudeDegrees>-3.70741526596248149871826171875</LongitudeDegrees>
            </Position>
            <AltitudeMeters>750.20001220703125</AltitudeMeters>
            <DistanceMeters>NAN</DistanceMeters>
          </Trackpoint>
          <Trackpoint>
            <Time>2020-03-07T18:10:24.000Z</Time>
            <Position>
              <LatitudeDegrees>40.58537791483104228973388671875</LatitudeDegrees>
              <LongitudeDegrees>-3.70738525874912738800048828125</LongitudeDegrees>
            </Position>
            <AltitudeMeters>750.4000244140625</AltitudeMeters>
            <DistanceMeters>NAN</DistanceMeters>
          </Trackpoint>
          <Trackpoint>
            <Time>2020-03-07T18:10:25.000Z</Time>
            <Position>
              <LatitudeDegrees>40.58533080853521823883056640625</LatitudeDegrees>
              <LongitudeDegrees>-3.7073531560599803924560546875</LongitudeDegrees>
            </Position>
            <AltitudeMeters>750.79998779296875</AltitudeMeters>
            <DistanceMeters>NAN</DistanceMeters>
          </Trackpoint>
          <Trackpoint>
            <Time>2020-03-07T18:10:26.000Z</Time>
            <Position>
              <LatitudeDegrees>40.5852836184203624725341796875</LatitudeDegrees>
              <LongitudeDegrees>-3.70732088573276996612548828125</LongitudeDegrees>
            </Position>
            <AltitudeMeters>751</AltitudeMeters>
            <DistanceMeters>NAN</DistanceMeters>
          </Trackpoint>
          <Trackpoint>
            <Time>2020-03-07T18:10:27.000Z</Time>
            <Position>
              <LatitudeDegrees>40.58523843996226787567138671875</LatitudeDegrees>
              <LongitudeDegrees>-3.7072916328907012939453125</LongitudeDegrees>
            </Position>
            <AltitudeMeters>751.20001220703125</AltitudeMeters>
            <DistanceMeters>NAN</DistanceMeters>
          </Trackpoint>
          <Trackpoint>
            <Time>2020-03-07T18:10:28.000Z</Time>
            <Position>
              <LatitudeDegrees>40.5851937644183635711669921875</LatitudeDegrees>
              <LongitudeDegrees>-3.7072633020579814910888671875</LongitudeDegrees>
            </Position>
            <AltitudeMeters>751.4000244140625</AltitudeMeters>
            <DistanceMeters>NAN</DistanceMeters>
          </Trackpoint>
          <Trackpoint>
            <Time>2020-03-07T18:10:29.000Z</Time>
            <Position>
              <LatitudeDegrees>40.5851481668651103973388671875</LatitudeDegrees>
              <LongitudeDegrees>-3.70723337866365909576416015625</LongitudeDegrees>
            </Position>
            <AltitudeMeters>751.5999755859375</AltitudeMeters>
            <DistanceMeters>NAN</DistanceMeters>
          </Trackpoint>
          <Trackpoint>
            <Time>2020-03-07T18:10:30.000Z</Time>
            <Position>
              <LatitudeDegrees>40.58510013855993747711181640625</LatitudeDegrees>
              <LongitudeDegrees>-3.70720186270773410797119140625</LongitudeDegrees>
            </Position>
            <AltitudeMeters>751.5999755859375</AltitudeMeters>
            <DistanceMeters>NAN</DistanceMeters>
          </Trackpoint>
          <Trackpoint>
            <Time>2020-03-07T18:10:31.000Z</Time>
            <Position>
              <LatitudeDegrees>40.58505319990217685699462890625</LatitudeDegrees>
              <LongitudeDegrees>-3.7071711011230945587158203125</LongitudeDegrees>
            </Position>
            <AltitudeMeters>751.5999755859375</AltitudeMeters>
            <DistanceMeters>NAN</DistanceMeters>
          </Trackpoint>
          <Trackpoint>
            <Time>2020-03-07T18:10:32.000Z</Time>
            <Position>
              <LatitudeDegrees>40.58500592596828937530517578125</LatitudeDegrees>
              <LongitudeDegrees>-3.70713648386299610137939453125</LongitudeDegrees>
            </Position>
            <AltitudeMeters>751.5999755859375</AltitudeMeters>
            <DistanceMeters>NAN</DistanceMeters>
          </Trackpoint>
          <Trackpoint>
            <Time>2020-03-07T18:10:33.000Z</Time>
            <Position>
              <LatitudeDegrees>40.584958903491497039794921875</LatitudeDegrees>
              <LongitudeDegrees>-3.70710530318319797515869140625</LongitudeDegrees>
            </Position>
            <AltitudeMeters>751.79998779296875</AltitudeMeters>
            <DistanceMeters>NAN</DistanceMeters>
          </Trackpoint>
          <Trackpoint>
            <Time>2020-03-07T18:10:34.000Z</Time>
            <Position>
              <LatitudeDegrees>40.58491204865276813507080078125</LatitudeDegrees>
              <LongitudeDegrees>-3.7070768885314464569091796875</LongitudeDegrees>
            </Position>
            <AltitudeMeters>751.79998779296875</AltitudeMeters>
            <DistanceMeters>NAN</DistanceMeters>
          </Trackpoint>
          <Trackpoint>
            <Time>2020-03-07T18:10:35.000Z</Time>
            <Position>
              <LatitudeDegrees>40.58486712165176868438720703125</LatitudeDegrees>
              <LongitudeDegrees>-3.70704662986099720001220703125</LongitudeDegrees>
            </Position>
            <AltitudeMeters>751.79998779296875</AltitudeMeters>
            <DistanceMeters>NAN</DistanceMeters>
          </Trackpoint>
          <Trackpoint>
            <Time>2020-03-07T18:10:36.000Z</Time>
            <Position>
              <LatitudeDegrees>40.58482169173657894134521484375</LatitudeDegrees>
              <LongitudeDegrees>-3.707014024257659912109375</LongitudeDegrees>
            </Position>
            <AltitudeMeters>751.79998779296875</AltitudeMeters>
            <DistanceMeters>NAN</DistanceMeters>
          </Trackpoint>
          <Trackpoint>
            <Time>2020-03-07T18:10:37.000Z</Time>
            <Position>
              <LatitudeDegrees>40.58477441780269145965576171875</LatitudeDegrees>
              <LongitudeDegrees>-3.7069880403578281402587890625</LongitudeDegrees>
            </Position>
            <AltitudeMeters>751.5999755859375</AltitudeMeters>
            <DistanceMeters>NAN</DistanceMeters>
          </Trackpoint>
          <Trackpoint>
            <Time>2020-03-07T18:10:38.000Z</Time>
            <Position>
              <LatitudeDegrees>40.5847233720123767852783203125</LatitudeDegrees>
              <LongitudeDegrees>-3.7069595418870449066162109375</LongitudeDegrees>
            </Position>
            <AltitudeMeters>751.5999755859375</AltitudeMeters>
            <DistanceMeters>NAN</DistanceMeters>
          </Trackpoint>
          <Trackpoint>
            <Time>2020-03-07T18:10:39.000Z</Time>
            <Position>
              <LatitudeDegrees>40.58466779999434947967529296875</LatitudeDegrees>
              <LongitudeDegrees>-3.70692626573145389556884765625</LongitudeDegrees>
            </Position>
            <AltitudeMeters>751.5999755859375</AltitudeMeters>
            <DistanceMeters>NAN</DistanceMeters>
          </Trackpoint>
          <Trackpoint>
            <Time>2020-03-07T18:10:40.000Z</Time>
            <Position>
              <LatitudeDegrees>40.58460895903408527374267578125</LatitudeDegrees>
              <LongitudeDegrees>-3.70689642615616321563720703125</LongitudeDegrees>
            </Position>
            <AltitudeMeters>751.5999755859375</AltitudeMeters>
            <DistanceMeters>NAN</DistanceMeters>
          </Trackpoint>
          <Trackpoint>
            <Time>2020-03-07T18:10:41.000Z</Time>
            <Position>
              <LatitudeDegrees>40.5845510400831699371337890625</LatitudeDegrees>
              <LongitudeDegrees>-3.706876896321773529052734375</LongitudeDegrees>
            </Position>
            <AltitudeMeters>751.79998779296875</AltitudeMeters>
            <DistanceMeters>NAN</DistanceMeters>
          </Trackpoint>
          <Trackpoint>
            <Time>2020-03-07T18:10:42.000Z</Time>
            <Position>
              <LatitudeDegrees>40.5844940431416034698486328125</LatitudeDegrees>
              <LongitudeDegrees>-3.70687848888337612152099609375</LongitudeDegrees>
            </Position>
            <AltitudeMeters>751.79998779296875</AltitudeMeters>
            <DistanceMeters>NAN</DistanceMeters>
          </Trackpoint>
          <Trackpoint>
            <Time>2020-03-07T18:10:43.000Z</Time>
            <Position>
              <LatitudeDegrees>40.5844427458941936492919921875</LatitudeDegrees>
              <LongitudeDegrees>-3.7069062329828739166259765625</LongitudeDegrees>
            </Position>
            <AltitudeMeters>751.79998779296875</AltitudeMeters>
            <DistanceMeters>NAN</DistanceMeters>
          </Trackpoint>
          <Trackpoint>
            <Time>2020-03-07T18:10:44.000Z</Time>
            <Position>
              <LatitudeDegrees>40.58439689688384532928466796875</LatitudeDegrees>
              <LongitudeDegrees>-3.7069483101367950439453125</LongitudeDegrees>
            </Position>
            <AltitudeMeters>751.79998779296875</AltitudeMeters>
            <DistanceMeters>NAN</DistanceMeters>
          </Trackpoint>
          <Trackpoint>
            <Time>2020-03-07T18:10:45.000Z</Time>
            <Position>
              <LatitudeDegrees>40.58435515500605106353759765625</LatitudeDegrees>
              <LongitudeDegrees>-3.706992231309413909912109375</LongitudeDegrees>
            </Position>
            <AltitudeMeters>752</AltitudeMeters>
            <DistanceMeters>NAN</DistanceMeters>
          </Trackpoint>
          <Trackpoint>
            <Time>2020-03-07T18:10:46.000Z</Time>
            <Position>
              <LatitudeDegrees>40.584319196641445159912109375</LatitudeDegrees>
              <LongitudeDegrees>-3.70703673921525478363037109375</LongitudeDegrees>
            </Position>
            <AltitudeMeters>751.79998779296875</AltitudeMeters>
            <DistanceMeters>NAN</DistanceMeters>
          </Trackpoint>
          <Trackpoint>
            <Time>2020-03-07T18:10:47.000Z</Time>
            <Position>
              <LatitudeDegrees>40.58428089134395122528076171875</LatitudeDegrees>
              <LongitudeDegrees>-3.70707060210406780242919921875</LongitudeDegrees>
            </Position>
            <AltitudeMeters>751.79998779296875</AltitudeMeters>
            <DistanceMeters>NAN</DistanceMeters>
          </Trackpoint>
          <Trackpoint>
            <Time>2020-03-07T18:10:48.000Z</Time>
            <Position>
              <LatitudeDegrees>40.5842429213225841522216796875</LatitudeDegrees>
              <LongitudeDegrees>-3.7071043811738491058349609375</LongitudeDegrees>
            </Position>
            <AltitudeMeters>751.79998779296875</AltitudeMeters>
            <DistanceMeters>NAN</DistanceMeters>
          </Trackpoint>
          <Trackpoint>
            <Time>2020-03-07T18:10:49.000Z</Time>
            <Position>
              <LatitudeDegrees>40.58420260436832904815673828125</LatitudeDegrees>
              <LongitudeDegrees>-3.70713531039655208587646484375</LongitudeDegrees>
            </Position>
            <AltitudeMeters>751.79998779296875</AltitudeMeters>
            <DistanceMeters>NAN</DistanceMeters>
          </Trackpoint>
          <Trackpoint>
            <Time>2020-03-07T18:10:50.000Z</Time>
            <Position>
              <LatitudeDegrees>40.58416002430021762847900390625</LatitudeDegrees>
              <LongitudeDegrees>-3.707161881029605865478515625</LongitudeDegrees>
            </Position>
            <AltitudeMeters>751.79998779296875</AltitudeMeters>
            <DistanceMeters>NAN</DistanceMeters>
          </Trackpoint>
          <Trackpoint>
            <Time>2020-03-07T18:10:51.000Z</Time>
            <Position>
              <LatitudeDegrees>40.5841135047376155853271484375</LatitudeDegrees>
              <LongitudeDegrees>-3.707180656492710113525390625</LongitudeDegrees>
            </Position>
            <AltitudeMeters>752</AltitudeMeters>
            <DistanceMeters>NAN</DistanceMeters>
          </Trackpoint>
          <Trackpoint>
            <Time>2020-03-07T18:10:52.000Z</Time>
            <Position>
              <LatitudeDegrees>40.58406916446983814239501953125</LatitudeDegrees>
              <LongitudeDegrees>-3.70720437727868556976318359375</LongitudeDegrees>
            </Position>
            <AltitudeMeters>752.20001220703125</AltitudeMeters>
            <DistanceMeters>NAN</DistanceMeters>
          </Trackpoint>
          <Trackpoint>
            <Time>2020-03-07T18:10:53.000Z</Time>
            <Position>
              <LatitudeDegrees>40.58402474038302898406982421875</LatitudeDegrees>
              <LongitudeDegrees>-3.7072220630943775177001953125</LongitudeDegrees>
            </Position>
            <AltitudeMeters>752.4000244140625</AltitudeMeters>
            <DistanceMeters>NAN</DistanceMeters>
          </Trackpoint>
          <Trackpoint>
            <Time>2020-03-07T18:10:54.000Z</Time>
            <Position>
              <LatitudeDegrees>40.58398266322910785675048828125</LatitudeDegrees>
              <LongitudeDegrees>-3.70723689906299114227294921875</LongitudeDegrees>
            </Position>
            <AltitudeMeters>752.79998779296875</AltitudeMeters>
            <DistanceMeters>NAN</DistanceMeters>
          </Trackpoint>
          <Trackpoint>
            <Time>2020-03-07T18:10:55.000Z</Time>
            <Position>
              <LatitudeDegrees>40.5839408375322818756103515625</LatitudeDegrees>
              <LongitudeDegrees>-3.70724779553711414337158203125</LongitudeDegrees>
            </Position>
            <AltitudeMeters>753</AltitudeMeters>
            <DistanceMeters>NAN</DistanceMeters>
          </Trackpoint>
          <Trackpoint>
            <Time>2020-03-07T18:10:56.000Z</Time>
            <Position>
              <LatitudeDegrees>40.5838979221880435943603515625</LatitudeDegrees>
              <LongitudeDegrees>-3.70725584216415882110595703125</LongitudeDegrees>
            </Position>
            <AltitudeMeters>753.20001220703125</AltitudeMeters>
            <DistanceMeters>NAN</DistanceMeters>
          </Trackpoint>
          <Trackpoint>
            <Time>2020-03-07T18:10:57.000Z</Time>
            <Position>
              <LatitudeDegrees>40.58385475538671016693115234375</LatitudeDegrees>
              <LongitudeDegrees>-3.70726321823894977569580078125</LongitudeDegrees>
            </Position>
            <AltitudeMeters>753.79998779296875</AltitudeMeters>
            <DistanceMeters>NAN</DistanceMeters>
          </Trackpoint>
          <Trackpoint>
            <Time>2020-03-07T18:10:58.000Z</Time>
            <Position>
              <LatitudeDegrees>40.58380714617669582366943359375</LatitudeDegrees>
              <LongitudeDegrees>-3.70726925320923328399658203125</LongitudeDegrees>
            </Position>
            <AltitudeMeters>754</AltitudeMeters>
            <DistanceMeters>NAN</DistanceMeters>
          </Trackpoint>
          <Trackpoint>
            <Time>2020-03-07T18:10:59.000Z</Time>
            <Position>
              <LatitudeDegrees>40.58375702239573001861572265625</LatitudeDegrees>
              <LongitudeDegrees>-3.70727394707500934600830078125</LongitudeDegrees>
            </Position>
            <AltitudeMeters>754.20001220703125</AltitudeMeters>
            <DistanceMeters>NAN</DistanceMeters>
          </Trackpoint>
          <Trackpoint>
            <Time>2020-03-07T18:11:00.000Z</Time>
            <Position>
              <LatitudeDegrees>40.58370589278638362884521484375</LatitudeDegrees>
              <LongitudeDegrees>-3.7072780542075634002685546875</LongitudeDegrees>
            </Position>
            <AltitudeMeters>754.5999755859375</AltitudeMeters>
            <DistanceMeters>NAN</DistanceMeters>
          </Trackpoint>
          <Trackpoint>
            <Time>2020-03-07T18:11:01.000Z</Time>
            <Position>
              <LatitudeDegrees>40.58365342207252979278564453125</LatitudeDegrees>
              <LongitudeDegrees>-3.707280568778514862060546875</LongitudeDegrees>
            </Position>
            <AltitudeMeters>754.79998779296875</AltitudeMeters>
            <DistanceMeters>NAN</DistanceMeters>
          </Trackpoint>
          <Trackpoint>
            <Time>2020-03-07T18:11:02.000Z</Time>
            <Position>
              <LatitudeDegrees>40.58359877206385135650634765625</LatitudeDegrees>
              <LongitudeDegrees>-3.70727964676916599273681640625</LongitudeDegrees>
            </Position>
            <AltitudeMeters>755</AltitudeMeters>
            <DistanceMeters>NAN</DistanceMeters>
          </Trackpoint>
          <Trackpoint>
            <Time>2020-03-07T18:11:03.000Z</Time>
            <Position>
              <LatitudeDegrees>40.58354110457003116607666015625</LatitudeDegrees>
              <LongitudeDegrees>-3.70727176778018474578857421875</LongitudeDegrees>
            </Position>
            <AltitudeMeters>755</AltitudeMeters>
            <DistanceMeters>NAN</DistanceMeters>
          </Trackpoint>
          <Trackpoint>
            <Time>2020-03-07T18:11:04.000Z</Time>
            <Position>
              <LatitudeDegrees>40.58348176069557666778564453125</LatitudeDegrees>
              <LongitudeDegrees>-3.70725718326866626739501953125</LongitudeDegrees>
            </Position>
            <AltitudeMeters>755</AltitudeMeters>
            <DistanceMeters>NAN</DistanceMeters>
          </Trackpoint>
          <Trackpoint>
            <Time>2020-03-07T18:11:05.000Z</Time>
            <Position>
              <LatitudeDegrees>40.583419315516948699951171875</LatitudeDegrees>
              <LongitudeDegrees>-3.7072364799678325653076171875</LongitudeDegrees>
            </Position>
            <AltitudeMeters>755</AltitudeMeters>
            <DistanceMeters>NAN</DistanceMeters>
          </Trackpoint>
          <Trackpoint>
            <Time>2020-03-07T18:11:06.000Z</Time>
            <Position>
              <LatitudeDegrees>40.5833571217954158782958984375</LatitudeDegrees>
              <LongitudeDegrees>-3.70721007697284221649169921875</LongitudeDegrees>
            </Position>
            <AltitudeMeters>755</AltitudeMeters>
            <DistanceMeters>NAN</DistanceMeters>
          </Trackpoint>
          <Trackpoint>
            <Time>2020-03-07T18:11:07.000Z</Time>
            <Position>
              <LatitudeDegrees>40.583294928073883056640625</LatitudeDegrees>
              <LongitudeDegrees>-3.70717856101691722869873046875</LongitudeDegrees>
            </Position>
            <AltitudeMeters>755</AltitudeMeters>
            <DistanceMeters>NAN</DistanceMeters>
          </Trackpoint>
          <Trackpoint>
            <Time>2020-03-07T18:11:08.000Z</Time>
            <Position>
              <LatitudeDegrees>40.58323348872363567352294921875</LatitudeDegrees>
              <LongitudeDegrees>-3.70714075863361358642578125</LongitudeDegrees>
            </Position>
            <AltitudeMeters>755</AltitudeMeters>
            <DistanceMeters>NAN</DistanceMeters>
          </Trackpoint>
          <Trackpoint>
            <Time>2020-03-07T18:11:09.000Z</Time>
            <Position>
              <LatitudeDegrees>40.5831740610301494598388671875</LatitudeDegrees>
              <LongitudeDegrees>-3.707094490528106689453125</LongitudeDegrees>
            </Position>
            <AltitudeMeters>755</AltitudeMeters>
            <DistanceMeters>NAN</DistanceMeters>
          </Trackpoint>
          <Trackpoint>
            <Time>2020-03-07T18:11:10.000Z</Time>
            <Position>
              <LatitudeDegrees>40.58311781845986843109130859375</LatitudeDegrees>
              <LongitudeDegrees>-3.7070426903665065765380859375</LongitudeDegrees>
            </Position>
            <AltitudeMeters>755</AltitudeMeters>
            <DistanceMeters>NAN</DistanceMeters>
          </Trackpoint>
          <Trackpoint>
            <Time>2020-03-07T18:11:11.000Z</Time>
            <Position>
              <LatitudeDegrees>40.58306350372731685638427734375</LatitudeDegrees>
              <LongitudeDegrees>-3.7069853581488132476806640625</LongitudeDegrees>
            </Position>
            <AltitudeMeters>754.79998779296875</AltitudeMeters>
            <DistanceMeters>NAN</DistanceMeters>
          </Trackpoint>
          <Trackpoint>
            <Time>2020-03-07T18:11:12.000Z</Time>
            <Position>
              <LatitudeDegrees>40.583011619746685028076171875</LatitudeDegrees>
              <LongitudeDegrees>-3.70692777447402477264404296875</LongitudeDegrees>
            </Position>
            <AltitudeMeters>754.79998779296875</AltitudeMeters>
            <DistanceMeters>NAN</DistanceMeters>
          </Trackpoint>
          <Trackpoint>
            <Time>2020-03-07T18:11:13.000Z</Time>
            <Position>
              <LatitudeDegrees>40.58296032249927520751953125</LatitudeDegrees>
              <LongitudeDegrees>-3.7068710289895534515380859375</LongitudeDegrees>
            </Position>
            <AltitudeMeters>754.5999755859375</AltitudeMeters>
            <DistanceMeters>NAN</DistanceMeters>
          </Trackpoint>
          <Trackpoint>
            <Time>2020-03-07T18:11:14.000Z</Time>
            <Position>
              <LatitudeDegrees>40.58290609158575534820556640625</LatitudeDegrees>
              <LongitudeDegrees>-3.70681696571409702301025390625</LongitudeDegrees>
            </Position>
            <AltitudeMeters>754.20001220703125</AltitudeMeters>
            <DistanceMeters>NAN</DistanceMeters>
          </Trackpoint>
          <Trackpoint>
            <Time>2020-03-07T18:11:15.000Z</Time>
            <Position>
              <LatitudeDegrees>40.58285035192966461181640625</LatitudeDegrees>
              <LongitudeDegrees>-3.70676415972411632537841796875</LongitudeDegrees>
            </Position>
            <AltitudeMeters>754</AltitudeMeters>
            <DistanceMeters>NAN</DistanceMeters>
          </Trackpoint>
          <Trackpoint>
            <Time>2020-03-07T18:11:16.000Z</Time>
            <Position>
              <LatitudeDegrees>40.58279511518776416778564453125</LatitudeDegrees>
              <LongitudeDegrees>-3.70670850388705730438232421875</LongitudeDegrees>
            </Position>
            <AltitudeMeters>753.5999755859375</AltitudeMeters>
            <DistanceMeters>NAN</DistanceMeters>
          </Trackpoint>
          <Trackpoint>
            <Time>2020-03-07T18:11:17.000Z</Time>
            <Position>
              <LatitudeDegrees>40.5827428959310054779052734375</LatitudeDegrees>
              <LongitudeDegrees>-3.706653602421283721923828125</LongitudeDegrees>
            </Position>
            <AltitudeMeters>753.4000244140625</AltitudeMeters>
            <DistanceMeters>NAN</DistanceMeters>
          </Trackpoint>
          <Trackpoint>
            <Time>2020-03-07T18:11:18.000Z</Time>
            <Position>
              <LatitudeDegrees>40.58268866501748561859130859375</LatitudeDegrees>
              <LongitudeDegrees>-3.7065957672894001007080078125</LongitudeDegrees>
            </Position>
            <AltitudeMeters>753.20001220703125</AltitudeMeters>
            <DistanceMeters>NAN</DistanceMeters>
          </Trackpoint>
          <Trackpoint>
            <Time>2020-03-07T18:11:19.000Z</Time>
            <Position>
              <LatitudeDegrees>40.58263175189495086669921875</LatitudeDegrees>
              <LongitudeDegrees>-3.7065391056239604949951171875</LongitudeDegrees>
            </Position>
            <AltitudeMeters>753.20001220703125</AltitudeMeters>
            <DistanceMeters>NAN</DistanceMeters>
          </Trackpoint>
          <Trackpoint>
            <Time>2020-03-07T18:11:20.000Z</Time>
            <Position>
              <LatitudeDegrees>40.582571737468242645263671875</LatitudeDegrees>
              <LongitudeDegrees>-3.70648655109107494354248046875</LongitudeDegrees>
            </Position>
            <AltitudeMeters>753</AltitudeMeters>
            <DistanceMeters>NAN</DistanceMeters>
          </Trackpoint>
          <Trackpoint>
            <Time>2020-03-07T18:11:21.000Z</Time>
            <Position>
              <LatitudeDegrees>40.58251029811799526214599609375</LatitudeDegrees>
              <LongitudeDegrees>-3.7064355053007602691650390625</LongitudeDegrees>
            </Position>
            <AltitudeMeters>752.5999755859375</AltitudeMeters>
            <DistanceMeters>NAN</DistanceMeters>
          </Trackpoint>
          <Trackpoint>
            <Time>2020-03-07T18:11:22.000Z</Time>
            <Position>
              <LatitudeDegrees>40.5824461765587329864501953125</LatitudeDegrees>
              <LongitudeDegrees>-3.70638747699558734893798828125</LongitudeDegrees>
            </Position>
            <AltitudeMeters>752.4000244140625</AltitudeMeters>
            <DistanceMeters>NAN</DistanceMeters>
          </Trackpoint>
          <Trackpoint>
            <Time>2020-03-07T18:11:23.000Z</Time>
            <Position>
              <LatitudeDegrees>40.58237769640982151031494140625</LatitudeDegrees>
              <LongitudeDegrees>-3.706340454518795013427734375</LongitudeDegrees>
            </Position>
            <AltitudeMeters>752.20001220703125</AltitudeMeters>
            <DistanceMeters>NAN</DistanceMeters>
          </Trackpoint>
          <Trackpoint>
            <Time>2020-03-07T18:11:24.000Z</Time>
            <Position>
              <LatitudeDegrees>40.58230829425156116485595703125</LatitudeDegrees>
              <LongitudeDegrees>-3.706295527517795562744140625</LongitudeDegrees>
            </Position>
            <AltitudeMeters>752</AltitudeMeters>
            <DistanceMeters>NAN</DistanceMeters>
          </Trackpoint>
          <Trackpoint>
            <Time>2020-03-07T18:11:25.000Z</Time>
            <Position>
              <LatitudeDegrees>40.58223721571266651153564453125</LatitudeDegrees>
              <LongitudeDegrees>-3.70625504292547702789306640625</LongitudeDegrees>
            </Position>
            <AltitudeMeters>751.5999755859375</AltitudeMeters>
            <DistanceMeters>NAN</DistanceMeters>
          </Trackpoint>
          <Trackpoint>
            <Time>2020-03-07T18:11:26.000Z</Time>
            <Position>
              <LatitudeDegrees>40.5821638740599155426025390625</LatitudeDegrees>
              <LongitudeDegrees>-3.70621740818023681640625</LongitudeDegrees>
            </Position>
            <AltitudeMeters>751.4000244140625</AltitudeMeters>
            <DistanceMeters>NAN</DistanceMeters>
          </Trackpoint>
          <Trackpoint>
            <Time>2020-03-07T18:11:27.000Z</Time>
            <Position>
              <LatitudeDegrees>40.58208801783621311187744140625</LatitudeDegrees>
              <LongitudeDegrees>-3.70618228800594806671142578125</LongitudeDegrees>
            </Position>
            <AltitudeMeters>751</AltitudeMeters>
            <DistanceMeters>NAN</DistanceMeters>
          </Trackpoint>
          <Trackpoint>
            <Time>2020-03-07T18:11:28.000Z</Time>
            <Position>
              <LatitudeDegrees>40.58201258070766925811767578125</LatitudeDegrees>
              <LongitudeDegrees>-3.7061518616974353790283203125</LongitudeDegrees>
            </Position>
            <AltitudeMeters>750.79998779296875</AltitudeMeters>
            <DistanceMeters>NAN</DistanceMeters>
          </Trackpoint>
          <Trackpoint>
            <Time>2020-03-07T18:11:29.000Z</Time>
            <Position>
              <LatitudeDegrees>40.581940077245235443115234375</LatitudeDegrees>
              <LongitudeDegrees>-3.7061260454356670379638671875</LongitudeDegrees>
            </Position>
            <AltitudeMeters>750.5999755859375</AltitudeMeters>
            <DistanceMeters>NAN</DistanceMeters>
          </Trackpoint>
          <Trackpoint>
            <Time>2020-03-07T18:11:30.000Z</Time>
            <Position>
              <LatitudeDegrees>40.5818691663444042205810546875</LatitudeDegrees>
              <LongitudeDegrees>-3.706104755401611328125</LongitudeDegrees>
            </Position>
            <AltitudeMeters>750.4000244140625</AltitudeMeters>
            <DistanceMeters>NAN</DistanceMeters>
          </Trackpoint>
          <Trackpoint>
            <Time>2020-03-07T18:11:31.000Z</Time>
            <Position>
              <LatitudeDegrees>40.58180068619549274444580078125</LatitudeDegrees>
              <LongitudeDegrees>-3.7060868181288242340087890625</LongitudeDegrees>
            </Position>
            <AltitudeMeters>750</AltitudeMeters>
            <DistanceMeters>NAN</DistanceMeters>
          </Trackpoint>
          <Trackpoint>
            <Time>2020-03-07T18:11:32.000Z</Time>
            <Position>
              <LatitudeDegrees>40.58173245750367641448974609375</LatitudeDegrees>
              <LongitudeDegrees>-3.706068210303783416748046875</LongitudeDegrees>
            </Position>
            <AltitudeMeters>749.5999755859375</AltitudeMeters>
            <DistanceMeters>NAN</DistanceMeters>
          </Trackpoint>
          <Trackpoint>
            <Time>2020-03-07T18:11:33.000Z</Time>
            <Position>
              <LatitudeDegrees>40.58166489936411380767822265625</LatitudeDegrees>
              <LongitudeDegrees>-3.7060516141355037689208984375</LongitudeDegrees>
            </Position>
            <AltitudeMeters>749.5999755859375</AltitudeMeters>
            <DistanceMeters>NAN</DistanceMeters>
          </Trackpoint>
          <Trackpoint>
            <Time>2020-03-07T18:11:34.000Z</Time>
            <Position>
              <LatitudeDegrees>40.58159784413874149322509765625</LatitudeDegrees>
              <LongitudeDegrees>-3.7060385383665561676025390625</LongitudeDegrees>
            </Position>
            <AltitudeMeters>749.4000244140625</AltitudeMeters>
            <DistanceMeters>NAN</DistanceMeters>
          </Trackpoint>
          <Trackpoint>
            <Time>2020-03-07T18:11:35.000Z</Time>
            <Position>
              <LatitudeDegrees>40.58153338730335235595703125</LatitudeDegrees>
              <LongitudeDegrees>-3.7060321681201457977294921875</LongitudeDegrees>
            </Position>
            <AltitudeMeters>749.4000244140625</AltitudeMeters>
            <DistanceMeters>NAN</DistanceMeters>
          </Trackpoint>
          <Trackpoint>
            <Time>2020-03-07T18:11:36.000Z</Time>
            <Position>
              <LatitudeDegrees>40.58147161267697811126708984375</LatitudeDegrees>
              <LongitudeDegrees>-3.7060284800827503204345703125</LongitudeDegrees>
            </Position>
            <AltitudeMeters>749.4000244140625</AltitudeMeters>
            <DistanceMeters>NAN</DistanceMeters>
          </Trackpoint>
          <Trackpoint>
            <Time>2020-03-07T18:11:37.000Z</Time>
            <Position>
              <LatitudeDegrees>40.581411682069301605224609375</LatitudeDegrees>
              <LongitudeDegrees>-3.70602906681597232818603515625</LongitudeDegrees>
            </Position>
            <AltitudeMeters>749.4000244140625</AltitudeMeters>
            <DistanceMeters>NAN</DistanceMeters>
          </Trackpoint>
          <Trackpoint>
            <Time>2020-03-07T18:11:38.000Z</Time>
            <Position>
              <LatitudeDegrees>40.58134856633841991424560546875</LatitudeDegrees>
              <LongitudeDegrees>-3.706024624407291412353515625</LongitudeDegrees>
            </Position>
            <AltitudeMeters>749.4000244140625</AltitudeMeters>
            <DistanceMeters>NAN</DistanceMeters>
          </Trackpoint>
          <Trackpoint>
            <Time>2020-03-07T18:11:39.000Z</Time>
            <Position>
              <LatitudeDegrees>40.58128662407398223876953125</LatitudeDegrees>
              <LongitudeDegrees>-3.70602504350244998931884765625</LongitudeDegrees>
            </Position>
            <AltitudeMeters>749.4000244140625</AltitudeMeters>
            <DistanceMeters>NAN</DistanceMeters>
          </Trackpoint>
          <Trackpoint>
            <Time>2020-03-07T18:11:40.000Z</Time>
            <Position>
              <LatitudeDegrees>40.58122065849602222442626953125</LatitudeDegrees>
              <LongitudeDegrees>-3.70601615868508815765380859375</LongitudeDegrees>
            </Position>
            <AltitudeMeters>749.4000244140625</AltitudeMeters>
            <DistanceMeters>NAN</DistanceMeters>
          </Trackpoint>
          <Trackpoint>
            <Time>2020-03-07T18:11:41.000Z</Time>
            <Position>
              <LatitudeDegrees>40.58115921914577484130859375</LatitudeDegrees>
              <LongitudeDegrees>-3.706013895571231842041015625</LongitudeDegrees>
            </Position>
            <AltitudeMeters>749.4000244140625</AltitudeMeters>
            <DistanceMeters>NAN</DistanceMeters>
          </Trackpoint>
          <Trackpoint>
            <Time>2020-03-07T18:11:42.000Z</Time>
            <Position>
              <LatitudeDegrees>40.58109752833843231201171875</LatitudeDegrees>
              <LongitudeDegrees>-3.706013895571231842041015625</LongitudeDegrees>
            </Position>
            <AltitudeMeters>749.4000244140625</AltitudeMeters>
            <DistanceMeters>NAN</DistanceMeters>
          </Trackpoint>
          <Trackpoint>
            <Time>2020-03-07T18:11:43.000Z</Time>
            <Position>
              <LatitudeDegrees>40.581036843359470367431640625</LatitudeDegrees>
              <LongitudeDegrees>-3.70601716451346874237060546875</LongitudeDegrees>
            </Position>
            <AltitudeMeters>749.5999755859375</AltitudeMeters>
            <DistanceMeters>NAN</DistanceMeters>
          </Trackpoint>
          <Trackpoint>
            <Time>2020-03-07T18:11:44.000Z</Time>
            <Position>
              <LatitudeDegrees>40.58097657747566699981689453125</LatitudeDegrees>
              <LongitudeDegrees>-3.70602135546505451202392578125</LongitudeDegrees>
            </Position>
            <AltitudeMeters>749.5999755859375</AltitudeMeters>
            <DistanceMeters>NAN</DistanceMeters>
          </Trackpoint>
          <Trackpoint>
            <Time>2020-03-07T18:11:45.000Z</Time>
            <Position>
              <LatitudeDegrees>40.5809142999351024627685546875</LatitudeDegrees>
              <LongitudeDegrees>-3.706022612750530242919921875</LongitudeDegrees>
            </Position>
            <AltitudeMeters>749.79998779296875</AltitudeMeters>
            <DistanceMeters>NAN</DistanceMeters>
          </Trackpoint>
          <Trackpoint>
            <Time>2020-03-07T18:11:46.000Z</Time>
            <Position>
              <LatitudeDegrees>40.580851770937442779541015625</LatitudeDegrees>
              <LongitudeDegrees>-3.706021606922149658203125</LongitudeDegrees>
            </Position>
            <AltitudeMeters>750</AltitudeMeters>
            <DistanceMeters>NAN</DistanceMeters>
          </Trackpoint>
          <Trackpoint>
            <Time>2020-03-07T18:11:47.000Z</Time>
            <Position>
              <LatitudeDegrees>40.58079041540622711181640625</LatitudeDegrees>
              <LongitudeDegrees>-3.7060207687318325042724609375</LongitudeDegrees>
            </Position>
            <AltitudeMeters>750</AltitudeMeters>
            <DistanceMeters>NAN</DistanceMeters>
          </Trackpoint>
          <Trackpoint>
            <Time>2020-03-07T18:11:48.000Z</Time>
            <Position>
              <LatitudeDegrees>40.58072964660823345184326171875</LatitudeDegrees>
              <LongitudeDegrees>-3.70602269656956195831298828125</LongitudeDegrees>
            </Position>
            <AltitudeMeters>750.20001220703125</AltitudeMeters>
            <DistanceMeters>NAN</DistanceMeters>
          </Trackpoint>
          <Trackpoint>
            <Time>2020-03-07T18:11:49.000Z</Time>
            <Position>
              <LatitudeDegrees>40.5806675367057323455810546875</LatitudeDegrees>
              <LongitudeDegrees>-3.7060251273214817047119140625</LongitudeDegrees>
            </Position>
            <AltitudeMeters>750.20001220703125</AltitudeMeters>
            <DistanceMeters>NAN</DistanceMeters>
          </Trackpoint>
          <Trackpoint>
            <Time>2020-03-07T18:11:50.000Z</Time>
            <Position>
              <LatitudeDegrees>40.580605678260326385498046875</LatitudeDegrees>
              <LongitudeDegrees>-3.706025965511798858642578125</LongitudeDegrees>
            </Position>
            <AltitudeMeters>750.4000244140625</AltitudeMeters>
            <DistanceMeters>NAN</DistanceMeters>
          </Trackpoint>
          <Trackpoint>
            <Time>2020-03-07T18:11:51.000Z</Time>
            <Position>
              <LatitudeDegrees>40.58054490946233272552490234375</LatitudeDegrees>
              <LongitudeDegrees>-3.70602671988308429718017578125</LongitudeDegrees>
            </Position>
            <AltitudeMeters>750.4000244140625</AltitudeMeters>
            <DistanceMeters>NAN</DistanceMeters>
          </Trackpoint>
          <Trackpoint>
            <Time>2020-03-07T18:11:52.000Z</Time>
            <Position>
              <LatitudeDegrees>40.5804853141307830810546875</LatitudeDegrees>
              <LongitudeDegrees>-3.7060271389782428741455078125</LongitudeDegrees>
            </Position>
            <AltitudeMeters>750.4000244140625</AltitudeMeters>
            <DistanceMeters>NAN</DistanceMeters>
          </Trackpoint>
          <Trackpoint>
            <Time>2020-03-07T18:11:53.000Z</Time>
            <Position>
              <LatitudeDegrees>40.58042840100824832916259765625</LatitudeDegrees>
              <LongitudeDegrees>-3.7060291506350040435791015625</LongitudeDegrees>
            </Position>
            <AltitudeMeters>750.4000244140625</AltitudeMeters>
            <DistanceMeters>NAN</DistanceMeters>
          </Trackpoint>
          <Trackpoint>
            <Time>2020-03-07T18:11:54.000Z</Time>
            <Position>
              <LatitudeDegrees>40.58036930859088897705078125</LatitudeDegrees>
              <LongitudeDegrees>-3.70602353475987911224365234375</LongitudeDegrees>
            </Position>
            <AltitudeMeters>750.5999755859375</AltitudeMeters>
            <DistanceMeters>NAN</DistanceMeters>
          </Trackpoint>
          <Trackpoint>
            <Time>2020-03-07T18:11:55.000Z</Time>
            <Position>
              <LatitudeDegrees>40.58031105436384677886962890625</LatitudeDegrees>
              <LongitudeDegrees>-3.70601934380829334259033203125</LongitudeDegrees>
            </Position>
            <AltitudeMeters>750.5999755859375</AltitudeMeters>
            <DistanceMeters>NAN</DistanceMeters>
          </Trackpoint>
          <Trackpoint>
            <Time>2020-03-07T18:11:56.000Z</Time>
            <Position>
              <LatitudeDegrees>40.58025506325066089630126953125</LatitudeDegrees>
              <LongitudeDegrees>-3.706021271646022796630859375</LongitudeDegrees>
            </Position>
            <AltitudeMeters>750.5999755859375</AltitudeMeters>
            <DistanceMeters>NAN</DistanceMeters>
          </Trackpoint>
          <Trackpoint>
            <Time>2020-03-07T18:11:57.000Z</Time>
            <Position>
              <LatitudeDegrees>40.5802001617848873138427734375</LatitudeDegrees>
              <LongitudeDegrees>-3.70602403767406940460205078125</LongitudeDegrees>
            </Position>
            <AltitudeMeters>750.5999755859375</AltitudeMeters>
            <DistanceMeters>NAN</DistanceMeters>
          </Trackpoint>
          <Trackpoint>
            <Time>2020-03-07T18:11:58.000Z</Time>
            <Position>
              <LatitudeDegrees>40.5801448412239551544189453125</LatitudeDegrees>
              <LongitudeDegrees>-3.70602353475987911224365234375</LongitudeDegrees>
            </Position>
            <AltitudeMeters>750.79998779296875</AltitudeMeters>
            <DistanceMeters>NAN</DistanceMeters>
          </Trackpoint>
          <Trackpoint>
            <Time>2020-03-07T18:11:59.000Z</Time>
            <Position>
              <LatitudeDegrees>40.58009010739624500274658203125</LatitudeDegrees>
              <LongitudeDegrees>-3.70601967908442020416259765625</LongitudeDegrees>
            </Position>
            <AltitudeMeters>751</AltitudeMeters>
            <DistanceMeters>NAN</DistanceMeters>
          </Trackpoint>
          <Trackpoint>
            <Time>2020-03-07T18:12:00.000Z</Time>
            <Position>
              <LatitudeDegrees>40.5800331942737102508544921875</LatitudeDegrees>
              <LongitudeDegrees>-3.70601297356188297271728515625</LongitudeDegrees>
            </Position>
            <AltitudeMeters>751.20001220703125</AltitudeMeters>
            <DistanceMeters>NAN</DistanceMeters>
          </Trackpoint>
          <Trackpoint>
            <Time>2020-03-07T18:12:01.000Z</Time>
            <Position>
              <LatitudeDegrees>40.5799761973321437835693359375</LatitudeDegrees>
              <LongitudeDegrees>-3.706006519496440887451171875</LongitudeDegrees>
            </Position>
            <AltitudeMeters>751.4000244140625</AltitudeMeters>
            <DistanceMeters>NAN</DistanceMeters>
          </Trackpoint>
          <Trackpoint>
            <Time>2020-03-07T18:12:02.000Z</Time>
            <Position>
              <LatitudeDegrees>40.57991777546703815460205078125</LatitudeDegrees>
              <LongitudeDegrees>-3.7060014903545379638671875</LongitudeDegrees>
            </Position>
            <AltitudeMeters>751.5999755859375</AltitudeMeters>
            <DistanceMeters>NAN</DistanceMeters>
          </Trackpoint>
          <Trackpoint>
            <Time>2020-03-07T18:12:03.000Z</Time>
            <Position>
              <LatitudeDegrees>40.57985792867839336395263671875</LatitudeDegrees>
              <LongitudeDegrees>-3.7059989757835865020751953125</LongitudeDegrees>
            </Position>
            <AltitudeMeters>751.5999755859375</AltitudeMeters>
            <DistanceMeters>NAN</DistanceMeters>
          </Trackpoint>
          <Trackpoint>
            <Time>2020-03-07T18:12:04.000Z</Time>
            <Position>
              <LatitudeDegrees>40.57979607023298740386962890625</LatitudeDegrees>
              <LongitudeDegrees>-3.705995790660381317138671875</LongitudeDegrees>
            </Position>
            <AltitudeMeters>751.79998779296875</AltitudeMeters>
            <DistanceMeters>NAN</DistanceMeters>
          </Trackpoint>
          <Trackpoint>
            <Time>2020-03-07T18:12:05.000Z</Time>
            <Position>
              <LatitudeDegrees>40.57973136194050312042236328125</LatitudeDegrees>
              <LongitudeDegrees>-3.70599285699427127838134765625</LongitudeDegrees>
            </Position>
            <AltitudeMeters>751.79998779296875</AltitudeMeters>
            <DistanceMeters>NAN</DistanceMeters>
          </Trackpoint>
          <Trackpoint>
            <Time>2020-03-07T18:12:06.000Z</Time>
            <Position>
              <LatitudeDegrees>40.5796658992767333984375</LatitudeDegrees>
              <LongitudeDegrees>-3.7059919349849224090576171875</LongitudeDegrees>
            </Position>
            <AltitudeMeters>751.79998779296875</AltitudeMeters>
            <DistanceMeters>NAN</DistanceMeters>
          </Trackpoint>
          <Trackpoint>
            <Time>2020-03-07T18:12:07.000Z</Time>
            <Position>
              <LatitudeDegrees>40.57960077188909053802490234375</LatitudeDegrees>
              <LongitudeDegrees>-3.70599520392715930938720703125</LongitudeDegrees>
            </Position>
            <AltitudeMeters>751.79998779296875</AltitudeMeters>
            <DistanceMeters>NAN</DistanceMeters>
          </Trackpoint>
          <Trackpoint>
            <Time>2020-03-07T18:12:08.000Z</Time>
            <Position>
              <LatitudeDegrees>40.579536147415637969970703125</LatitudeDegrees>
              <LongitudeDegrees>-3.70600442402064800262451171875</LongitudeDegrees>
            </Position>
            <AltitudeMeters>751.79998779296875</AltitudeMeters>
            <DistanceMeters>NAN</DistanceMeters>
          </Trackpoint>
          <Trackpoint>
            <Time>2020-03-07T18:12:09.000Z</Time>
            <Position>
              <LatitudeDegrees>40.5794722773134708404541015625</LatitudeDegrees>
              <LongitudeDegrees>-3.70601615868508815765380859375</LongitudeDegrees>
            </Position>
            <AltitudeMeters>751.79998779296875</AltitudeMeters>
            <DistanceMeters>NAN</DistanceMeters>
          </Trackpoint>
          <Trackpoint>
            <Time>2020-03-07T18:12:10.000Z</Time>
            <Position>
              <LatitudeDegrees>40.57940748520195484161376953125</LatitudeDegrees>
              <LongitudeDegrees>-3.70602822862565517425537109375</LongitudeDegrees>
            </Position>
            <AltitudeMeters>751.79998779296875</AltitudeMeters>
            <DistanceMeters>NAN</DistanceMeters>
          </Trackpoint>
          <Trackpoint>
            <Time>2020-03-07T18:12:11.000Z</Time>
            <Position>
              <LatitudeDegrees>40.5793408490717411041259765625</LatitudeDegrees>
              <LongitudeDegrees>-3.706041388213634490966796875</LongitudeDegrees>
            </Position>
            <AltitudeMeters>751.79998779296875</AltitudeMeters>
            <DistanceMeters>NAN</DistanceMeters>
          </Trackpoint>
          <Trackpoint>
            <Time>2020-03-07T18:12:12.000Z</Time>
            <Position>
              <LatitudeDegrees>40.57927354238927364349365234375</LatitudeDegrees>
              <LongitudeDegrees>-3.70605706237256526947021484375</LongitudeDegrees>
            </Position>
            <AltitudeMeters>751.5999755859375</AltitudeMeters>
            <DistanceMeters>NAN</DistanceMeters>
          </Trackpoint>
          <Trackpoint>
            <Time>2020-03-07T18:12:13.000Z</Time>
            <Position>
              <LatitudeDegrees>40.57920548133552074432373046875</LatitudeDegrees>
              <LongitudeDegrees>-3.70607684366405010223388671875</LongitudeDegrees>
            </Position>
            <AltitudeMeters>751.4000244140625</AltitudeMeters>
            <DistanceMeters>NAN</DistanceMeters>
          </Trackpoint>
          <Trackpoint>
            <Time>2020-03-07T18:12:14.000Z</Time>
            <Position>
              <LatitudeDegrees>40.5791373364627361297607421875</LatitudeDegrees>
              <LongitudeDegrees>-3.70609913952648639678955078125</LongitudeDegrees>
            </Position>
            <AltitudeMeters>751</AltitudeMeters>
            <DistanceMeters>NAN</DistanceMeters>
          </Trackpoint>
          <Trackpoint>
            <Time>2020-03-07T18:12:15.000Z</Time>
            <Position>
              <LatitudeDegrees>40.57906902395188808441162109375</LatitudeDegrees>
              <LongitudeDegrees>-3.70612042956054210662841796875</LongitudeDegrees>
            </Position>
            <AltitudeMeters>750.79998779296875</AltitudeMeters>
            <DistanceMeters>NAN</DistanceMeters>
          </Trackpoint>
          <Trackpoint>
            <Time>2020-03-07T18:12:16.000Z</Time>
            <Position>
              <LatitudeDegrees>40.57900012470781803131103515625</LatitudeDegrees>
              <LongitudeDegrees>-3.7061418034136295318603515625</LongitudeDegrees>
            </Position>
            <AltitudeMeters>750.5999755859375</AltitudeMeters>
            <DistanceMeters>NAN</DistanceMeters>
          </Trackpoint>
          <Trackpoint>
            <Time>2020-03-07T18:12:17.000Z</Time>
            <Position>
              <LatitudeDegrees>40.5789378471672534942626953125</LatitudeDegrees>
              <LongitudeDegrees>-3.706169463694095611572265625</LongitudeDegrees>
            </Position>
            <AltitudeMeters>750.4000244140625</AltitudeMeters>
            <DistanceMeters>NAN</DistanceMeters>
          </Trackpoint>
          <Trackpoint>
            <Time>2020-03-07T18:12:18.000Z</Time>
            <Position>
              <LatitudeDegrees>40.57887624017894268035888671875</LatitudeDegrees>
              <LongitudeDegrees>-3.706198632717132568359375</LongitudeDegrees>
            </Position>
            <AltitudeMeters>750.20001220703125</AltitudeMeters>
            <DistanceMeters>NAN</DistanceMeters>
          </Trackpoint>
          <Trackpoint>
            <Time>2020-03-07T18:12:19.000Z</Time>
            <Position>
              <LatitudeDegrees>40.578815303742885589599609375</LatitudeDegrees>
              <LongitudeDegrees>-3.7062276341021060943603515625</LongitudeDegrees>
            </Position>
            <AltitudeMeters>750</AltitudeMeters>
            <DistanceMeters>NAN</DistanceMeters>
          </Trackpoint>
          <Trackpoint>
            <Time>2020-03-07T18:12:20.000Z</Time>
            <Position>
              <LatitudeDegrees>40.57875554077327251434326171875</LatitudeDegrees>
              <LongitudeDegrees>-3.70625831186771392822265625</LongitudeDegrees>
            </Position>
            <AltitudeMeters>749.79998779296875</AltitudeMeters>
            <DistanceMeters>NAN</DistanceMeters>
          </Trackpoint>
          <Trackpoint>
            <Time>2020-03-07T18:12:21.000Z</Time>
            <Position>
              <LatitudeDegrees>40.578695274889469146728515625</LatitudeDegrees>
              <LongitudeDegrees>-3.706289492547512054443359375</LongitudeDegrees>
            </Position>
            <AltitudeMeters>749.5999755859375</AltitudeMeters>
            <DistanceMeters>NAN</DistanceMeters>
          </Trackpoint>
          <Trackpoint>
            <Time>2020-03-07T18:12:22.000Z</Time>
            <Position>
              <LatitudeDegrees>40.57863526046276092529296875</LatitudeDegrees>
              <LongitudeDegrees>-3.70632000267505645751953125</LongitudeDegrees>
            </Position>
            <AltitudeMeters>749.20001220703125</AltitudeMeters>
            <DistanceMeters>NAN</DistanceMeters>
          </Trackpoint>
          <Trackpoint>
            <Time>2020-03-07T18:12:23.000Z</Time>
            <Position>
              <LatitudeDegrees>40.578575246036052703857421875</LatitudeDegrees>
              <LongitudeDegrees>-3.7063533626496791839599609375</LongitudeDegrees>
            </Position>
            <AltitudeMeters>749.20001220703125</AltitudeMeters>
            <DistanceMeters>NAN</DistanceMeters>
          </Trackpoint>
          <Trackpoint>
            <Time>2020-03-07T18:12:24.000Z</Time>
            <Position>
              <LatitudeDegrees>40.5785170756280422210693359375</LatitudeDegrees>
              <LongitudeDegrees>-3.70639099739491939544677734375</LongitudeDegrees>
            </Position>
            <AltitudeMeters>749.20001220703125</AltitudeMeters>
            <DistanceMeters>NAN</DistanceMeters>
          </Trackpoint>
          <Trackpoint>
            <Time>2020-03-07T18:12:25.000Z</Time>
            <Position>
              <LatitudeDegrees>40.578457228839397430419921875</LatitudeDegrees>
              <LongitudeDegrees>-3.70642787776887416839599609375</LongitudeDegrees>
            </Position>
            <AltitudeMeters>749</AltitudeMeters>
            <DistanceMeters>NAN</DistanceMeters>
          </Trackpoint>
          <Trackpoint>
            <Time>2020-03-07T18:12:26.000Z</Time>
            <Position>
              <LatitudeDegrees>40.57839813642203807830810546875</LatitudeDegrees>
              <LongitudeDegrees>-3.70646442286670207977294921875</LongitudeDegrees>
            </Position>
            <AltitudeMeters>749</AltitudeMeters>
            <DistanceMeters>NAN</DistanceMeters>
          </Trackpoint>
          <Trackpoint>
            <Time>2020-03-07T18:12:27.000Z</Time>
            <Position>
              <LatitudeDegrees>40.57833661325275897979736328125</LatitudeDegrees>
              <LongitudeDegrees>-3.7065005488693714141845703125</LongitudeDegrees>
            </Position>
            <AltitudeMeters>749</AltitudeMeters>
            <DistanceMeters>NAN</DistanceMeters>
          </Trackpoint>
          <Trackpoint>
            <Time>2020-03-07T18:12:28.000Z</Time>
            <Position>
              <LatitudeDegrees>40.578273497521877288818359375</LatitudeDegrees>
              <LongitudeDegrees>-3.70653516612946987152099609375</LongitudeDegrees>
            </Position>
            <AltitudeMeters>749</AltitudeMeters>
            <DistanceMeters>NAN</DistanceMeters>
          </Trackpoint>
          <Trackpoint>
            <Time>2020-03-07T18:12:29.000Z</Time>
            <Position>
              <LatitudeDegrees>40.57821256108582019805908203125</LatitudeDegrees>
              <LongitudeDegrees>-3.70656969957053661346435546875</LongitudeDegrees>
            </Position>
            <AltitudeMeters>749</AltitudeMeters>
            <DistanceMeters>NAN</DistanceMeters>
          </Trackpoint>
          <Trackpoint>
            <Time>2020-03-07T18:12:30.000Z</Time>
            <Position>
              <LatitudeDegrees>40.5781522952020168304443359375</LatitudeDegrees>
              <LongitudeDegrees>-3.70660373009741306304931640625</LongitudeDegrees>
            </Position>
            <AltitudeMeters>749</AltitudeMeters>
            <DistanceMeters>NAN</DistanceMeters>
          </Trackpoint>
          <Trackpoint>
            <Time>2020-03-07T18:12:31.000Z</Time>
            <Position>
              <LatitudeDegrees>40.57809186168015003204345703125</LatitudeDegrees>
              <LongitudeDegrees>-3.70663725771009922027587890625</LongitudeDegrees>
            </Position>
            <AltitudeMeters>749.20001220703125</AltitudeMeters>
            <DistanceMeters>NAN</DistanceMeters>
          </Trackpoint>
          <Trackpoint>
            <Time>2020-03-07T18:12:32.000Z</Time>
            <Position>
              <LatitudeDegrees>40.5780312605202198028564453125</LatitudeDegrees>
              <LongitudeDegrees>-3.70667262934148311614990234375</LongitudeDegrees>
            </Position>
            <AltitudeMeters>749.20001220703125</AltitudeMeters>
            <DistanceMeters>NAN</DistanceMeters>
          </Trackpoint>
          <Trackpoint>
            <Time>2020-03-07T18:12:33.000Z</Time>
            <Position>
              <LatitudeDegrees>40.57797183282673358917236328125</LatitudeDegrees>
              <LongitudeDegrees>-3.706709928810596466064453125</LongitudeDegrees>
            </Position>
            <AltitudeMeters>749.20001220703125</AltitudeMeters>
            <DistanceMeters>NAN</DistanceMeters>
          </Trackpoint>
          <Trackpoint>
            <Time>2020-03-07T18:12:34.000Z</Time>
            <Position>
              <LatitudeDegrees>40.57791181840002536773681640625</LatitudeDegrees>
              <LongitudeDegrees>-3.70674639008939266204833984375</LongitudeDegrees>
            </Position>
            <AltitudeMeters>749.20001220703125</AltitudeMeters>
            <DistanceMeters>NAN</DistanceMeters>
          </Trackpoint>
          <Trackpoint>
            <Time>2020-03-07T18:12:35.000Z</Time>
            <Position>
              <LatitudeDegrees>40.57785205543041229248046875</LatitudeDegrees>
              <LongitudeDegrees>-3.70678176172077655792236328125</LongitudeDegrees>
            </Position>
            <AltitudeMeters>749.20001220703125</AltitudeMeters>
            <DistanceMeters>NAN</DistanceMeters>
          </Trackpoint>
          <Trackpoint>
            <Time>2020-03-07T18:12:36.000Z</Time>
            <Position>
              <LatitudeDegrees>40.5777932144701480865478515625</LatitudeDegrees>
              <LongitudeDegrees>-3.70681864209473133087158203125</LongitudeDegrees>
            </Position>
            <AltitudeMeters>749.20001220703125</AltitudeMeters>
            <DistanceMeters>NAN</DistanceMeters>
          </Trackpoint>
          <Trackpoint>
            <Time>2020-03-07T18:12:37.000Z</Time>
            <Position>
              <LatitudeDegrees>40.5777368880808353424072265625</LatitudeDegrees>
              <LongitudeDegrees>-3.70685803703963756561279296875</LongitudeDegrees>
            </Position>
            <AltitudeMeters>749.20001220703125</AltitudeMeters>
            <DistanceMeters>NAN</DistanceMeters>
          </Trackpoint>
          <Trackpoint>
            <Time>2020-03-07T18:12:38.000Z</Time>
            <Position>
              <LatitudeDegrees>40.57768232189118862152099609375</LatitudeDegrees>
              <LongitudeDegrees>-3.7069018743932247161865234375</LongitudeDegrees>
            </Position>
            <AltitudeMeters>749.20001220703125</AltitudeMeters>
            <DistanceMeters>NAN</DistanceMeters>
          </Trackpoint>
          <Trackpoint>
            <Time>2020-03-07T18:12:39.000Z</Time>
            <Position>
              <LatitudeDegrees>40.5776292644441127777099609375</LatitudeDegrees>
              <LongitudeDegrees>-3.70694738812744617462158203125</LongitudeDegrees>
            </Position>
            <AltitudeMeters>749.20001220703125</AltitudeMeters>
            <DistanceMeters>NAN</DistanceMeters>
          </Trackpoint>
          <Trackpoint>
            <Time>2020-03-07T18:12:40.000Z</Time>
            <Position>
              <LatitudeDegrees>40.5775751173496246337890625</LatitudeDegrees>
              <LongitudeDegrees>-3.70699365623295307159423828125</LongitudeDegrees>
            </Position>
            <AltitudeMeters>749.20001220703125</AltitudeMeters>
            <DistanceMeters>NAN</DistanceMeters>
          </Trackpoint>
          <Trackpoint>
            <Time>2020-03-07T18:12:41.000Z</Time>
            <Position>
              <LatitudeDegrees>40.57752273045480251312255859375</LatitudeDegrees>
              <LongitudeDegrees>-3.70703875087201595306396484375</LongitudeDegrees>
            </Position>
            <AltitudeMeters>749.20001220703125</AltitudeMeters>
            <DistanceMeters>NAN</DistanceMeters>
          </Trackpoint>
          <Trackpoint>
            <Time>2020-03-07T18:12:42.000Z</Time>
            <Position>
              <LatitudeDegrees>40.57747160084545612335205078125</LatitudeDegrees>
              <LongitudeDegrees>-3.70708032511174678802490234375</LongitudeDegrees>
            </Position>
            <AltitudeMeters>749.20001220703125</AltitudeMeters>
            <DistanceMeters>NAN</DistanceMeters>
          </Trackpoint>
          <Trackpoint>
            <Time>2020-03-07T18:12:43.000Z</Time>
            <Position>
              <LatitudeDegrees>40.5774187110364437103271484375</LatitudeDegrees>
              <LongitudeDegrees>-3.70712240226566791534423828125</LongitudeDegrees>
            </Position>
            <AltitudeMeters>749.4000244140625</AltitudeMeters>
            <DistanceMeters>NAN</DistanceMeters>
          </Trackpoint>
          <Trackpoint>
            <Time>2020-03-07T18:12:44.000Z</Time>
            <Position>
              <LatitudeDegrees>40.577366910874843597412109375</LatitudeDegrees>
              <LongitudeDegrees>-3.707165904343128204345703125</LongitudeDegrees>
            </Position>
            <AltitudeMeters>749.4000244140625</AltitudeMeters>
            <DistanceMeters>NAN</DistanceMeters>
          </Trackpoint>
          <Trackpoint>
            <Time>2020-03-07T18:12:45.000Z</Time>
            <Position>
              <LatitudeDegrees>40.577312596142292022705078125</LatitudeDegrees>
              <LongitudeDegrees>-3.70720806531608104705810546875</LongitudeDegrees>
            </Position>
            <AltitudeMeters>749.4000244140625</AltitudeMeters>
            <DistanceMeters>NAN</DistanceMeters>
          </Trackpoint>
          <Trackpoint>
            <Time>2020-03-07T18:12:46.000Z</Time>
            <Position>
              <LatitudeDegrees>40.57725685648620128631591796875</LatitudeDegrees>
              <LongitudeDegrees>-3.707248382270336151123046875</LongitudeDegrees>
            </Position>
            <AltitudeMeters>749.4000244140625</AltitudeMeters>
            <DistanceMeters>NAN</DistanceMeters>
          </Trackpoint>
          <Trackpoint>
            <Time>2020-03-07T18:12:47.000Z</Time>
            <Position>
              <LatitudeDegrees>40.57720002718269824981689453125</LatitudeDegrees>
              <LongitudeDegrees>-3.70728601701557636260986328125</LongitudeDegrees>
            </Position>
            <AltitudeMeters>749.4000244140625</AltitudeMeters>
            <DistanceMeters>NAN</DistanceMeters>
          </Trackpoint>
          <Trackpoint>
            <Time>2020-03-07T18:12:48.000Z</Time>
            <Position>
              <LatitudeDegrees>40.5771417729556560516357421875</LatitudeDegrees>
              <LongitudeDegrees>-3.7073196284472942352294921875</LongitudeDegrees>
            </Position>
            <AltitudeMeters>749.4000244140625</AltitudeMeters>
            <DistanceMeters>NAN</DistanceMeters>
          </Trackpoint>
          <Trackpoint>
            <Time>2020-03-07T18:12:49.000Z</Time>
            <Position>
              <LatitudeDegrees>40.5770824290812015533447265625</LatitudeDegrees>
              <LongitudeDegrees>-3.70735131204128265380859375</LongitudeDegrees>
            </Position>
            <AltitudeMeters>749.20001220703125</AltitudeMeters>
            <DistanceMeters>NAN</DistanceMeters>
          </Trackpoint>
          <Trackpoint>
            <Time>2020-03-07T18:12:50.000Z</Time>
            <Position>
              <LatitudeDegrees>40.577021576464176177978515625</LatitudeDegrees>
              <LongitudeDegrees>-3.70737905614078044891357421875</LongitudeDegrees>
            </Position>
            <AltitudeMeters>749.20001220703125</AltitudeMeters>
            <DistanceMeters>NAN</DistanceMeters>
          </Trackpoint>
          <Trackpoint>
            <Time>2020-03-07T18:12:51.000Z</Time>
            <Position>
              <LatitudeDegrees>40.57695879600942134857177734375</LatitudeDegrees>
              <LongitudeDegrees>-3.70740537531673908233642578125</LongitudeDegrees>
            </Position>
            <AltitudeMeters>749.20001220703125</AltitudeMeters>
            <DistanceMeters>NAN</DistanceMeters>
          </Trackpoint>
          <Trackpoint>
            <Time>2020-03-07T18:12:52.000Z</Time>
            <Position>
              <LatitudeDegrees>40.57689492590725421905517578125</LatitudeDegrees>
              <LongitudeDegrees>-3.70743068866431713104248046875</LongitudeDegrees>
            </Position>
            <AltitudeMeters>749.20001220703125</AltitudeMeters>
            <DistanceMeters>NAN</DistanceMeters>
          </Trackpoint>
          <Trackpoint>
            <Time>2020-03-07T18:12:53.000Z</Time>
            <Position>
              <LatitudeDegrees>40.57682854123413562774658203125</LatitudeDegrees>
              <LongitudeDegrees>-3.7074557505548000335693359375</LongitudeDegrees>
            </Position>
            <AltitudeMeters>749</AltitudeMeters>
            <DistanceMeters>NAN</DistanceMeters>
          </Trackpoint>
          <Trackpoint>
            <Time>2020-03-07T18:12:54.000Z</Time>
            <Position>
              <LatitudeDegrees>40.57676265947520732879638671875</LatitudeDegrees>
              <LongitudeDegrees>-3.70748433284461498260498046875</LongitudeDegrees>
            </Position>
            <AltitudeMeters>749</AltitudeMeters>
            <DistanceMeters>NAN</DistanceMeters>
          </Trackpoint>
          <Trackpoint>
            <Time>2020-03-07T18:12:55.000Z</Time>
            <Position>
              <LatitudeDegrees>40.576696358621120452880859375</LatitudeDegrees>
              <LongitudeDegrees>-3.70751467533409595489501953125</LongitudeDegrees>
            </Position>
            <AltitudeMeters>749</AltitudeMeters>
            <DistanceMeters>NAN</DistanceMeters>
          </Trackpoint>
          <Trackpoint>
            <Time>2020-03-07T18:12:56.000Z</Time>
            <Position>
              <LatitudeDegrees>40.57662972249090671539306640625</LatitudeDegrees>
              <LongitudeDegrees>-3.707547448575496673583984375</LongitudeDegrees>
            </Position>
            <AltitudeMeters>749</AltitudeMeters>
            <DistanceMeters>NAN</DistanceMeters>
          </Trackpoint>
          <Trackpoint>
            <Time>2020-03-07T18:12:57.000Z</Time>
            <Position>
              <LatitudeDegrees>40.5765627510845661163330078125</LatitudeDegrees>
              <LongitudeDegrees>-3.7075824849307537078857421875</LongitudeDegrees>
            </Position>
            <AltitudeMeters>748.79998779296875</AltitudeMeters>
            <DistanceMeters>NAN</DistanceMeters>
          </Trackpoint>
          <Trackpoint>
            <Time>2020-03-07T18:12:58.000Z</Time>
            <Position>
              <LatitudeDegrees>40.57649946771562099456787109375</LatitudeDegrees>
              <LongitudeDegrees>-3.7076247297227382659912109375</LongitudeDegrees>
            </Position>
            <AltitudeMeters>748.79998779296875</AltitudeMeters>
            <DistanceMeters>NAN</DistanceMeters>
          </Trackpoint>
          <Trackpoint>
            <Time>2020-03-07T18:12:59.000Z</Time>
            <Position>
              <LatitudeDegrees>40.57643995620310306549072265625</LatitudeDegrees>
              <LongitudeDegrees>-3.70767259038984775543212890625</LongitudeDegrees>
            </Position>
            <AltitudeMeters>748.79998779296875</AltitudeMeters>
            <DistanceMeters>NAN</DistanceMeters>
          </Trackpoint>
          <Trackpoint>
            <Time>2020-03-07T18:13:00.000Z</Time>
            <Position>
              <LatitudeDegrees>40.57638413272798061370849609375</LatitudeDegrees>
              <LongitudeDegrees>-3.7077243067324161529541015625</LongitudeDegrees>
            </Position>
            <AltitudeMeters>748.5999755859375</AltitudeMeters>
            <DistanceMeters>NAN</DistanceMeters>
          </Trackpoint>
          <Trackpoint>
            <Time>2020-03-07T18:13:01.000Z</Time>
            <Position>
              <LatitudeDegrees>40.576331913471221923828125</LatitudeDegrees>
              <LongitudeDegrees>-3.70778038166463375091552734375</LongitudeDegrees>
            </Position>
            <AltitudeMeters>748.4000244140625</AltitudeMeters>
            <DistanceMeters>NAN</DistanceMeters>
          </Trackpoint>
          <Trackpoint>
            <Time>2020-03-07T18:13:02.000Z</Time>
            <Position>
              <LatitudeDegrees>40.57628120295703411102294921875</LatitudeDegrees>
              <LongitudeDegrees>-3.70783955790102481842041015625</LongitudeDegrees>
            </Position>
            <AltitudeMeters>748</AltitudeMeters>
            <DistanceMeters>NAN</DistanceMeters>
          </Trackpoint>
          <Trackpoint>
            <Time>2020-03-07T18:13:03.000Z</Time>
            <Position>
              <LatitudeDegrees>40.5762328393757343292236328125</LatitudeDegrees>
              <LongitudeDegrees>-3.70789906941354274749755859375</LongitudeDegrees>
            </Position>
            <AltitudeMeters>747.79998779296875</AltitudeMeters>
            <DistanceMeters>NAN</DistanceMeters>
          </Trackpoint>
          <Trackpoint>
            <Time>2020-03-07T18:13:04.000Z</Time>
            <Position>
              <LatitudeDegrees>40.5761852301657199859619140625</LatitudeDegrees>
              <LongitudeDegrees>-3.70795707218348979949951171875</LongitudeDegrees>
            </Position>
            <AltitudeMeters>747.79998779296875</AltitudeMeters>
            <DistanceMeters>NAN</DistanceMeters>
          </Trackpoint>
          <Trackpoint>
            <Time>2020-03-07T18:13:05.000Z</Time>
            <Position>
              <LatitudeDegrees>40.57613804005086421966552734375</LatitudeDegrees>
              <LongitudeDegrees>-3.7080143205821514129638671875</LongitudeDegrees>
            </Position>
            <AltitudeMeters>747.5999755859375</AltitudeMeters>
            <DistanceMeters>NAN</DistanceMeters>
          </Trackpoint>
          <Trackpoint>
            <Time>2020-03-07T18:13:06.000Z</Time>
            <Position>
              <LatitudeDegrees>40.5760891735553741455078125</LatitudeDegrees>
              <LongitudeDegrees>-3.7080689705908298492431640625</LongitudeDegrees>
            </Position>
            <AltitudeMeters>747.5999755859375</AltitudeMeters>
            <DistanceMeters>NAN</DistanceMeters>
          </Trackpoint>
          <Trackpoint>
            <Time>2020-03-07T18:13:07.000Z</Time>
            <Position>
              <LatitudeDegrees>40.57604080997407436370849609375</LatitudeDegrees>
              <LongitudeDegrees>-3.70812420733273029327392578125</LongitudeDegrees>
            </Position>
            <AltitudeMeters>747.5999755859375</AltitudeMeters>
            <DistanceMeters>NAN</DistanceMeters>
          </Trackpoint>
          <Trackpoint>
            <Time>2020-03-07T18:13:08.000Z</Time>
            <Position>
              <LatitudeDegrees>40.5759931169450283050537109375</LatitudeDegrees>
              <LongitudeDegrees>-3.7081794440746307373046875</LongitudeDegrees>
            </Position>
            <AltitudeMeters>747.5999755859375</AltitudeMeters>
            <DistanceMeters>NAN</DistanceMeters>
          </Trackpoint>
          <Trackpoint>
            <Time>2020-03-07T18:13:09.000Z</Time>
            <Position>
              <LatitudeDegrees>40.57594475336372852325439453125</LatitudeDegrees>
              <LongitudeDegrees>-3.70823384262621402740478515625</LongitudeDegrees>
            </Position>
            <AltitudeMeters>747.5999755859375</AltitudeMeters>
            <DistanceMeters>NAN</DistanceMeters>
          </Trackpoint>
          <Trackpoint>
            <Time>2020-03-07T18:13:10.000Z</Time>
            <Position>
              <LatitudeDegrees>40.57589563541114330291748046875</LatitudeDegrees>
              <LongitudeDegrees>-3.70828740298748016357421875</LongitudeDegrees>
            </Position>
            <AltitudeMeters>747.5999755859375</AltitudeMeters>
            <DistanceMeters>NAN</DistanceMeters>
          </Trackpoint>
          <Trackpoint>
            <Time>2020-03-07T18:13:11.000Z</Time>
            <Position>
              <LatitudeDegrees>40.5758482776582241058349609375</LatitudeDegrees>
              <LongitudeDegrees>-3.70834096334874629974365234375</LongitudeDegrees>
            </Position>
            <AltitudeMeters>747.5999755859375</AltitudeMeters>
            <DistanceMeters>NAN</DistanceMeters>
          </Trackpoint>
          <Trackpoint>
            <Time>2020-03-07T18:13:12.000Z</Time>
            <Position>
              <LatitudeDegrees>40.575800500810146331787109375</LatitudeDegrees>
              <LongitudeDegrees>-3.7083925120532512664794921875</LongitudeDegrees>
            </Position>
            <AltitudeMeters>747.5999755859375</AltitudeMeters>
            <DistanceMeters>NAN</DistanceMeters>
          </Trackpoint>
          <Trackpoint>
            <Time>2020-03-07T18:13:13.000Z</Time>
            <Position>
              <LatitudeDegrees>40.57575213722884654998779296875</LatitudeDegrees>
              <LongitudeDegrees>-3.70844297111034393310546875</LongitudeDegrees>
            </Position>
            <AltitudeMeters>747.5999755859375</AltitudeMeters>
            <DistanceMeters>NAN</DistanceMeters>
          </Trackpoint>
          <Trackpoint>
            <Time>2020-03-07T18:13:14.000Z</Time>
            <Position>
              <LatitudeDegrees>40.5757034383714199066162109375</LatitudeDegrees>
              <LongitudeDegrees>-3.70849334634840488433837890625</LongitudeDegrees>
            </Position>
            <AltitudeMeters>747.79998779296875</AltitudeMeters>
            <DistanceMeters>NAN</DistanceMeters>
          </Trackpoint>
          <Trackpoint>
            <Time>2020-03-07T18:13:15.000Z</Time>
            <Position>
              <LatitudeDegrees>40.575655661523342132568359375</LatitudeDegrees>
              <LongitudeDegrees>-3.70854347012937068939208984375</LongitudeDegrees>
            </Position>
            <AltitudeMeters>748</AltitudeMeters>
            <DistanceMeters>NAN</DistanceMeters>
          </Trackpoint>
          <Trackpoint>
            <Time>2020-03-07T18:13:16.000Z</Time>
            <Position>
              <LatitudeDegrees>40.575607717037200927734375</LatitudeDegrees>
              <LongitudeDegrees>-3.70859158225357532501220703125</LongitudeDegrees>
            </Position>
            <AltitudeMeters>748</AltitudeMeters>
            <DistanceMeters>NAN</DistanceMeters>
          </Trackpoint>
          <Trackpoint>
            <Time>2020-03-07T18:13:17.000Z</Time>
            <Position>
              <LatitudeDegrees>40.5755607783794403076171875</LatitudeDegrees>
              <LongitudeDegrees>-3.708639778196811676025390625</LongitudeDegrees>
            </Position>
            <AltitudeMeters>748.20001220703125</AltitudeMeters>
            <DistanceMeters>NAN</DistanceMeters>
          </Trackpoint>
          <Trackpoint>
            <Time>2020-03-07T18:13:18.000Z</Time>
            <Position>
              <LatitudeDegrees>40.57551275007426738739013671875</LatitudeDegrees>
              <LongitudeDegrees>-3.70868629775941371917724609375</LongitudeDegrees>
            </Position>
            <AltitudeMeters>748.20001220703125</AltitudeMeters>
            <DistanceMeters>NAN</DistanceMeters>
          </Trackpoint>
          <Trackpoint>
            <Time>2020-03-07T18:13:19.000Z</Time>
            <Position>
              <LatitudeDegrees>40.5754653923213481903076171875</LatitudeDegrees>
              <LongitudeDegrees>-3.70873105712234973907470703125</LongitudeDegrees>
            </Position>
            <AltitudeMeters>748.4000244140625</AltitudeMeters>
            <DistanceMeters>NAN</DistanceMeters>
          </Trackpoint>
          <Trackpoint>
            <Time>2020-03-07T18:13:20.000Z</Time>
            <Position>
              <LatitudeDegrees>40.575416944921016693115234375</LatitudeDegrees>
              <LongitudeDegrees>-3.70877397246658802032470703125</LongitudeDegrees>
            </Position>
            <AltitudeMeters>748.5999755859375</AltitudeMeters>
            <DistanceMeters>NAN</DistanceMeters>
          </Trackpoint>
          <Trackpoint>
            <Time>2020-03-07T18:13:21.000Z</Time>
            <Position>
              <LatitudeDegrees>40.57536640204489231109619140625</LatitudeDegrees>
              <LongitudeDegrees>-3.7088139541447162628173828125</LongitudeDegrees>
            </Position>
            <AltitudeMeters>748.79998779296875</AltitudeMeters>
            <DistanceMeters>NAN</DistanceMeters>
          </Trackpoint>
          <Trackpoint>
            <Time>2020-03-07T18:13:22.000Z</Time>
            <Position>
              <LatitudeDegrees>40.57531468570232391357421875</LatitudeDegrees>
              <LongitudeDegrees>-3.7088531814515590667724609375</LongitudeDegrees>
            </Position>
            <AltitudeMeters>748.79998779296875</AltitudeMeters>
            <DistanceMeters>NAN</DistanceMeters>
          </Trackpoint>
          <Trackpoint>
            <Time>2020-03-07T18:13:23.000Z</Time>
            <Position>
              <LatitudeDegrees>40.5752648971974849700927734375</LatitudeDegrees>
              <LongitudeDegrees>-3.70889249257743358612060546875</LongitudeDegrees>
            </Position>
            <AltitudeMeters>748.79998779296875</AltitudeMeters>
            <DistanceMeters>NAN</DistanceMeters>
          </Trackpoint>
          <Trackpoint>
            <Time>2020-03-07T18:13:24.000Z</Time>
            <Position>
              <LatitudeDegrees>40.57521536014974117279052734375</LatitudeDegrees>
              <LongitudeDegrees>-3.708930797874927520751953125</LongitudeDegrees>
            </Position>
            <AltitudeMeters>749</AltitudeMeters>
            <DistanceMeters>NAN</DistanceMeters>
          </Trackpoint>
          <Trackpoint>
            <Time>2020-03-07T18:13:25.000Z</Time>
            <Position>
              <LatitudeDegrees>40.57516582310199737548828125</LatitudeDegrees>
              <LongitudeDegrees>-3.7089665047824382781982421875</LongitudeDegrees>
            </Position>
            <AltitudeMeters>749.20001220703125</AltitudeMeters>
            <DistanceMeters>NAN</DistanceMeters>
          </Trackpoint>
          <Trackpoint>
            <Time>2020-03-07T18:13:26.000Z</Time>
            <Position>
              <LatitudeDegrees>40.57511460967361927032470703125</LatitudeDegrees>
              <LongitudeDegrees>-3.709000535309314727783203125</LongitudeDegrees>
            </Position>
            <AltitudeMeters>749.4000244140625</AltitudeMeters>
            <DistanceMeters>NAN</DistanceMeters>
          </Trackpoint>
          <Trackpoint>
            <Time>2020-03-07T18:13:27.000Z</Time>
            <Position>
              <LatitudeDegrees>40.57506364770233631134033203125</LatitudeDegrees>
              <LongitudeDegrees>-3.7090315483510494232177734375</LongitudeDegrees>
            </Position>
            <AltitudeMeters>749.4000244140625</AltitudeMeters>
            <DistanceMeters>NAN</DistanceMeters>
          </Trackpoint>
          <Trackpoint>
            <Time>2020-03-07T18:13:28.000Z</Time>
            <Position>
              <LatitudeDegrees>40.575011931359767913818359375</LatitudeDegrees>
              <LongitudeDegrees>-3.70905987918376922607421875</LongitudeDegrees>
            </Position>
            <AltitudeMeters>749.5999755859375</AltitudeMeters>
            <DistanceMeters>NAN</DistanceMeters>
          </Trackpoint>
          <Trackpoint>
            <Time>2020-03-07T18:13:29.000Z</Time>
            <Position>
              <LatitudeDegrees>40.5749584548175334930419921875</LatitudeDegrees>
              <LongitudeDegrees>-3.70908594690263271331787109375</LongitudeDegrees>
            </Position>
            <AltitudeMeters>749.79998779296875</AltitudeMeters>
            <DistanceMeters>NAN</DistanceMeters>
          </Trackpoint>
          <Trackpoint>
            <Time>2020-03-07T18:13:30.000Z</Time>
            <Position>
              <LatitudeDegrees>40.57490707375109195709228515625</LatitudeDegrees>
              <LongitudeDegrees>-3.70911209844052791595458984375</LongitudeDegrees>
            </Position>
            <AltitudeMeters>749.79998779296875</AltitudeMeters>
            <DistanceMeters>NAN</DistanceMeters>
          </Trackpoint>
          <Trackpoint>
            <Time>2020-03-07T18:13:31.000Z</Time>
            <Position>
              <LatitudeDegrees>40.5748555250465869903564453125</LatitudeDegrees>
              <LongitudeDegrees>-3.7091371603310108184814453125</LongitudeDegrees>
            </Position>
            <AltitudeMeters>749.79998779296875</AltitudeMeters>
            <DistanceMeters>NAN</DistanceMeters>
          </Trackpoint>
          <Trackpoint>
            <Time>2020-03-07T18:13:32.000Z</Time>
            <Position>
              <LatitudeDegrees>40.5748042277991771697998046875</LatitudeDegrees>
              <LongitudeDegrees>-3.7091613002121448516845703125</LongitudeDegrees>
            </Position>
            <AltitudeMeters>749.79998779296875</AltitudeMeters>
            <DistanceMeters>NAN</DistanceMeters>
          </Trackpoint>
          <Trackpoint>
            <Time>2020-03-07T18:13:33.000Z</Time>
            <Position>
              <LatitudeDegrees>40.5747520923614501953125</LatitudeDegrees>
              <LongitudeDegrees>-3.70918435044586658477783203125</LongitudeDegrees>
            </Position>
            <AltitudeMeters>750</AltitudeMeters>
            <DistanceMeters>NAN</DistanceMeters>
          </Trackpoint>
          <Trackpoint>
            <Time>2020-03-07T18:13:34.000Z</Time>
            <Position>
              <LatitudeDegrees>40.57470054365694522857666015625</LatitudeDegrees>
              <LongitudeDegrees>-3.70920471847057342529296875</LongitudeDegrees>
            </Position>
            <AltitudeMeters>750</AltitudeMeters>
            <DistanceMeters>NAN</DistanceMeters>
          </Trackpoint>
          <Trackpoint>
            <Time>2020-03-07T18:13:35.000Z</Time>
            <Position>
              <LatitudeDegrees>40.574647821485996246337890625</LatitudeDegrees>
              <LongitudeDegrees>-3.7092250026762485504150390625</LongitudeDegrees>
            </Position>
            <AltitudeMeters>750</AltitudeMeters>
            <DistanceMeters>NAN</DistanceMeters>
          </Trackpoint>
          <Trackpoint>
            <Time>2020-03-07T18:13:36.000Z</Time>
            <Position>
              <LatitudeDegrees>40.57459359057247638702392578125</LatitudeDegrees>
              <LongitudeDegrees>-3.7092447839677333831787109375</LongitudeDegrees>
            </Position>
            <AltitudeMeters>750</AltitudeMeters>
            <DistanceMeters>NAN</DistanceMeters>
          </Trackpoint>
          <Trackpoint>
            <Time>2020-03-07T18:13:37.000Z</Time>
            <Position>
              <LatitudeDegrees>40.5745390243828296661376953125</LatitudeDegrees>
              <LongitudeDegrees>-3.70926582254469394683837890625</LongitudeDegrees>
            </Position>
            <AltitudeMeters>750</AltitudeMeters>
            <DistanceMeters>NAN</DistanceMeters>
          </Trackpoint>
          <Trackpoint>
            <Time>2020-03-07T18:13:38.000Z</Time>
            <Position>
              <LatitudeDegrees>40.57448630221188068389892578125</LatitudeDegrees>
              <LongitudeDegrees>-3.7092923931777477264404296875</LongitudeDegrees>
            </Position>
            <AltitudeMeters>750</AltitudeMeters>
            <DistanceMeters>NAN</DistanceMeters>
          </Trackpoint>
          <Trackpoint>
            <Time>2020-03-07T18:13:39.000Z</Time>
            <Position>
              <LatitudeDegrees>40.5744364298880100250244140625</LatitudeDegrees>
              <LongitudeDegrees>-3.70932633988559246063232421875</LongitudeDegrees>
            </Position>
            <AltitudeMeters>750</AltitudeMeters>
            <DistanceMeters>NAN</DistanceMeters>
          </Trackpoint>
          <Trackpoint>
            <Time>2020-03-07T18:13:40.000Z</Time>
            <Position>
              <LatitudeDegrees>40.57438798248767852783203125</LatitudeDegrees>
              <LongitudeDegrees>-3.709365986287593841552734375</LongitudeDegrees>
            </Position>
            <AltitudeMeters>750</AltitudeMeters>
            <DistanceMeters>NAN</DistanceMeters>
          </Trackpoint>
          <Trackpoint>
            <Time>2020-03-07T18:13:41.000Z</Time>
            <Position>
              <LatitudeDegrees>40.57434163056313991546630859375</LatitudeDegrees>
              <LongitudeDegrees>-3.70941082946956157684326171875</LongitudeDegrees>
            </Position>
            <AltitudeMeters>750</AltitudeMeters>
            <DistanceMeters>NAN</DistanceMeters>
          </Trackpoint>
          <Trackpoint>
            <Time>2020-03-07T18:13:42.000Z</Time>
            <Position>
              <LatitudeDegrees>40.57429569773375988006591796875</LatitudeDegrees>
              <LongitudeDegrees>-3.70945793576538562774658203125</LongitudeDegrees>
            </Position>
            <AltitudeMeters>750</AltitudeMeters>
            <DistanceMeters>NAN</DistanceMeters>
          </Trackpoint>
          <Trackpoint>
            <Time>2020-03-07T18:13:43.000Z</Time>
            <Position>
              <LatitudeDegrees>40.5742523632943630218505859375</LatitudeDegrees>
              <LongitudeDegrees>-3.70950789190828800201416015625</LongitudeDegrees>
            </Position>
            <AltitudeMeters>750</AltitudeMeters>
            <DistanceMeters>NAN</DistanceMeters>
          </Trackpoint>
          <Trackpoint>
            <Time>2020-03-07T18:13:44.000Z</Time>
            <Position>
              <LatitudeDegrees>40.57421053759753704071044921875</LatitudeDegrees>
              <LongitudeDegrees>-3.70955851860344409942626953125</LongitudeDegrees>
            </Position>
            <AltitudeMeters>750</AltitudeMeters>
            <DistanceMeters>NAN</DistanceMeters>
          </Trackpoint>
          <Trackpoint>
            <Time>2020-03-07T18:13:45.000Z</Time>
            <Position>
              <LatitudeDegrees>40.57416561059653759002685546875</LatitudeDegrees>
              <LongitudeDegrees>-3.70960629545152187347412109375</LongitudeDegrees>
            </Position>
            <AltitudeMeters>750</AltitudeMeters>
            <DistanceMeters>NAN</DistanceMeters>
          </Trackpoint>
          <Trackpoint>
            <Time>2020-03-07T18:13:46.000Z</Time>
            <Position>
              <LatitudeDegrees>40.57411867193877696990966796875</LatitudeDegrees>
              <LongitudeDegrees>-3.70965222828090190887451171875</LongitudeDegrees>
            </Position>
            <AltitudeMeters>750</AltitudeMeters>
            <DistanceMeters>NAN</DistanceMeters>
          </Trackpoint>
          <Trackpoint>
            <Time>2020-03-07T18:13:47.000Z</Time>
            <Position>
              <LatitudeDegrees>40.57407014071941375732421875</LatitudeDegrees>
              <LongitudeDegrees>-3.70969246141612529754638671875</LongitudeDegrees>
            </Position>
            <AltitudeMeters>750</AltitudeMeters>
            <DistanceMeters>NAN</DistanceMeters>
          </Trackpoint>
          <Trackpoint>
            <Time>2020-03-07T18:13:48.000Z</Time>
            <Position>
              <LatitudeDegrees>40.57401825673878192901611328125</LatitudeDegrees>
              <LongitudeDegrees>-3.70972372591495513916015625</LongitudeDegrees>
            </Position>
            <AltitudeMeters>750</AltitudeMeters>
            <DistanceMeters>NAN</DistanceMeters>
          </Trackpoint>
          <Trackpoint>
            <Time>2020-03-07T18:13:49.000Z</Time>
            <Position>
              <LatitudeDegrees>40.5739636905491352081298828125</LatitudeDegrees>
              <LongitudeDegrees>-3.7097453512251377105712890625</LongitudeDegrees>
            </Position>
            <AltitudeMeters>750.20001220703125</AltitudeMeters>
            <DistanceMeters>NAN</DistanceMeters>
          </Trackpoint>
          <Trackpoint>
            <Time>2020-03-07T18:13:50.000Z</Time>
            <Position>
              <LatitudeDegrees>40.5739063583314418792724609375</LatitudeDegrees>
              <LongitudeDegrees>-3.70975884608924388885498046875</LongitudeDegrees>
            </Position>
            <AltitudeMeters>750.20001220703125</AltitudeMeters>
            <DistanceMeters>NAN</DistanceMeters>
          </Trackpoint>
          <Trackpoint>
            <Time>2020-03-07T18:13:51.000Z</Time>
            <Position>
              <LatitudeDegrees>40.5738493613898754119873046875</LatitudeDegrees>
              <LongitudeDegrees>-3.7097664736211299896240234375</LongitudeDegrees>
            </Position>
            <AltitudeMeters>750.20001220703125</AltitudeMeters>
            <DistanceMeters>NAN</DistanceMeters>
          </Trackpoint>
          <Trackpoint>
            <Time>2020-03-07T18:13:52.000Z</Time>
            <Position>
              <LatitudeDegrees>40.57379412464797496795654296875</LatitudeDegrees>
              <LongitudeDegrees>-3.70977259241044521331787109375</LongitudeDegrees>
            </Position>
            <AltitudeMeters>750.20001220703125</AltitudeMeters>
            <DistanceMeters>NAN</DistanceMeters>
          </Trackpoint>
          <Trackpoint>
            <Time>2020-03-07T18:13:53.000Z</Time>
            <Position>
              <LatitudeDegrees>40.57373813353478908538818359375</LatitudeDegrees>
              <LongitudeDegrees>-3.7097805552184581756591796875</LongitudeDegrees>
            </Position>
            <AltitudeMeters>750.20001220703125</AltitudeMeters>
            <DistanceMeters>NAN</DistanceMeters>
          </Trackpoint>
          <Trackpoint>
            <Time>2020-03-07T18:13:54.000Z</Time>
            <Position>
              <LatitudeDegrees>40.573681555688381195068359375</LatitudeDegrees>
              <LongitudeDegrees>-3.70978751219809055328369140625</LongitudeDegrees>
            </Position>
            <AltitudeMeters>750.20001220703125</AltitudeMeters>
            <DistanceMeters>NAN</DistanceMeters>
          </Trackpoint>
          <Trackpoint>
            <Time>2020-03-07T18:13:55.000Z</Time>
            <Position>
              <LatitudeDegrees>40.5736257322132587432861328125</LatitudeDegrees>
              <LongitudeDegrees>-3.7097946368157863616943359375</LongitudeDegrees>
            </Position>
            <AltitudeMeters>750.20001220703125</AltitudeMeters>
            <DistanceMeters>NAN</DistanceMeters>
          </Trackpoint>
          <Trackpoint>
            <Time>2020-03-07T18:13:56.000Z</Time>
            <Position>
              <LatitudeDegrees>40.57356982491910457611083984375</LatitudeDegrees>
              <LongitudeDegrees>-3.70980150997638702392578125</LongitudeDegrees>
            </Position>
            <AltitudeMeters>750.20001220703125</AltitudeMeters>
            <DistanceMeters>NAN</DistanceMeters>
          </Trackpoint>
          <Trackpoint>
            <Time>2020-03-07T18:13:57.000Z</Time>
            <Position>
              <LatitudeDegrees>40.57351500727236270904541015625</LatitudeDegrees>
              <LongitudeDegrees>-3.70980980806052684783935546875</LongitudeDegrees>
            </Position>
            <AltitudeMeters>750.4000244140625</AltitudeMeters>
            <DistanceMeters>NAN</DistanceMeters>
          </Trackpoint>
          <Trackpoint>
            <Time>2020-03-07T18:13:58.000Z</Time>
            <Position>
              <LatitudeDegrees>40.57346220128238201141357421875</LatitudeDegrees>
              <LongitudeDegrees>-3.70982036925852298736572265625</LongitudeDegrees>
            </Position>
            <AltitudeMeters>750.4000244140625</AltitudeMeters>
            <DistanceMeters>NAN</DistanceMeters>
          </Trackpoint>
          <Trackpoint>
            <Time>2020-03-07T18:13:59.000Z</Time>
            <Position>
              <LatitudeDegrees>40.57340704835951328277587890625</LatitudeDegrees>
              <LongitudeDegrees>-3.7098268233239650726318359375</LongitudeDegrees>
            </Position>
            <AltitudeMeters>750.4000244140625</AltitudeMeters>
            <DistanceMeters>NAN</DistanceMeters>
          </Trackpoint>
          <Trackpoint>
            <Time>2020-03-07T18:14:00.000Z</Time>
            <Position>
              <LatitudeDegrees>40.5733504705131053924560546875</LatitudeDegrees>
              <LongitudeDegrees>-3.70983042754232883453369140625</LongitudeDegrees>
            </Position>
            <AltitudeMeters>750.4000244140625</AltitudeMeters>
            <DistanceMeters>NAN</DistanceMeters>
          </Trackpoint>
          <Trackpoint>
            <Time>2020-03-07T18:14:01.000Z</Time>
            <Position>
              <LatitudeDegrees>40.57329188100993633270263671875</LatitudeDegrees>
              <LongitudeDegrees>-3.709830343723297119140625</LongitudeDegrees>
            </Position>
            <AltitudeMeters>750.4000244140625</AltitudeMeters>
            <DistanceMeters>NAN</DistanceMeters>
          </Trackpoint>
          <Trackpoint>
            <Time>2020-03-07T18:14:02.000Z</Time>
            <Position>
              <LatitudeDegrees>40.57322985492646694183349609375</LatitudeDegrees>
              <LongitudeDegrees>-3.7098281644284725189208984375</LongitudeDegrees>
            </Position>
            <AltitudeMeters>750.4000244140625</AltitudeMeters>
            <DistanceMeters>NAN</DistanceMeters>
          </Trackpoint>
          <Trackpoint>
            <Time>2020-03-07T18:14:03.000Z</Time>
            <Position>
              <LatitudeDegrees>40.5731664039194583892822265625</LatitudeDegrees>
              <LongitudeDegrees>-3.70982338674366474151611328125</LongitudeDegrees>
            </Position>
            <AltitudeMeters>750.4000244140625</AltitudeMeters>
            <DistanceMeters>NAN</DistanceMeters>
          </Trackpoint>
          <Trackpoint>
            <Time>2020-03-07T18:14:04.000Z</Time>
            <Position>
              <LatitudeDegrees>40.5731000192463397979736328125</LatitudeDegrees>
              <LongitudeDegrees>-3.7098201178014278411865234375</LongitudeDegrees>
            </Position>
            <AltitudeMeters>750.4000244140625</AltitudeMeters>
            <DistanceMeters>NAN</DistanceMeters>
          </Trackpoint>
          <Trackpoint>
            <Time>2020-03-07T18:14:05.000Z</Time>
            <Position>
              <LatitudeDegrees>40.573033131659030914306640625</LatitudeDegrees>
              <LongitudeDegrees>-3.70981902815401554107666015625</LongitudeDegrees>
            </Position>
            <AltitudeMeters>750.4000244140625</AltitudeMeters>
            <DistanceMeters>NAN</DistanceMeters>
          </Trackpoint>
          <Trackpoint>
            <Time>2020-03-07T18:14:06.000Z</Time>
            <Position>
              <LatitudeDegrees>40.57296448387205600738525390625</LatitudeDegrees>
              <LongitudeDegrees>-3.70982296764850616455078125</LongitudeDegrees>
            </Position>
            <AltitudeMeters>750.4000244140625</AltitudeMeters>
            <DistanceMeters>NAN</DistanceMeters>
          </Trackpoint>
          <Trackpoint>
            <Time>2020-03-07T18:14:07.000Z</Time>
            <Position>
              <LatitudeDegrees>40.57289608754217624664306640625</LatitudeDegrees>
              <LongitudeDegrees>-3.709830678999423980712890625</LongitudeDegrees>
            </Position>
            <AltitudeMeters>750.4000244140625</AltitudeMeters>
            <DistanceMeters>NAN</DistanceMeters>
          </Trackpoint>
          <Trackpoint>
            <Time>2020-03-07T18:14:08.000Z</Time>
            <Position>
              <LatitudeDegrees>40.5728304572403430938720703125</LatitudeDegrees>
              <LongitudeDegrees>-3.7098424136638641357421875</LongitudeDegrees>
            </Position>
            <AltitudeMeters>750.4000244140625</AltitudeMeters>
            <DistanceMeters>NAN</DistanceMeters>
          </Trackpoint>
          <Trackpoint>
            <Time>2020-03-07T18:14:09.000Z</Time>
            <Position>
              <LatitudeDegrees>40.572765581309795379638671875</LatitudeDegrees>
              <LongitudeDegrees>-3.70985783636569976806640625</LongitudeDegrees>
            </Position>
            <AltitudeMeters>750.4000244140625</AltitudeMeters>
            <DistanceMeters>NAN</DistanceMeters>
          </Trackpoint>
          <Trackpoint>
            <Time>2020-03-07T18:14:10.000Z</Time>
            <Position>
              <LatitudeDegrees>40.57270330376923084259033203125</LatitudeDegrees>
              <LongitudeDegrees>-3.7098754383623600006103515625</LongitudeDegrees>
            </Position>
            <AltitudeMeters>750</AltitudeMeters>
            <DistanceMeters>NAN</DistanceMeters>
          </Trackpoint>
          <Trackpoint>
            <Time>2020-03-07T18:14:11.000Z</Time>
            <Position>
              <LatitudeDegrees>40.57264052331447601318359375</LatitudeDegrees>
              <LongitudeDegrees>-3.70989345945417881011962890625</LongitudeDegrees>
            </Position>
            <AltitudeMeters>749.79998779296875</AltitudeMeters>
            <DistanceMeters>NAN</DistanceMeters>
          </Trackpoint>
          <Trackpoint>
            <Time>2020-03-07T18:14:12.000Z</Time>
            <Position>
              <LatitudeDegrees>40.57257740758359432220458984375</LatitudeDegrees>
              <LongitudeDegrees>-3.7099119834601879119873046875</LongitudeDegrees>
            </Position>
            <AltitudeMeters>749.4000244140625</AltitudeMeters>
            <DistanceMeters>NAN</DistanceMeters>
          </Trackpoint>
          <Trackpoint>
            <Time>2020-03-07T18:14:13.000Z</Time>
            <Position>
              <LatitudeDegrees>40.57251571677625179290771484375</LatitudeDegrees>
              <LongitudeDegrees>-3.70993235148489475250244140625</LongitudeDegrees>
            </Position>
            <AltitudeMeters>748.79998779296875</AltitudeMeters>
            <DistanceMeters>NAN</DistanceMeters>
          </Trackpoint>
          <Trackpoint>
            <Time>2020-03-07T18:14:14.000Z</Time>
            <Position>
              <LatitudeDegrees>40.57245486415922641754150390625</LatitudeDegrees>
              <LongitudeDegrees>-3.70995171368122100830078125</LongitudeDegrees>
            </Position>
            <AltitudeMeters>748.5999755859375</AltitudeMeters>
            <DistanceMeters>NAN</DistanceMeters>
          </Trackpoint>
          <Trackpoint>
            <Time>2020-03-07T18:14:15.000Z</Time>
            <Position>
              <LatitudeDegrees>40.572397448122501373291015625</LatitudeDegrees>
              <LongitudeDegrees>-3.7099733389914035797119140625</LongitudeDegrees>
            </Position>
            <AltitudeMeters>748.4000244140625</AltitudeMeters>
            <DistanceMeters>NAN</DistanceMeters>
          </Trackpoint>
          <Trackpoint>
            <Time>2020-03-07T18:14:16.000Z</Time>
            <Position>
              <LatitudeDegrees>40.57234271429479122161865234375</LatitudeDegrees>
              <LongitudeDegrees>-3.70999353937804698944091796875</LongitudeDegrees>
            </Position>
            <AltitudeMeters>748.20001220703125</AltitudeMeters>
            <DistanceMeters>NAN</DistanceMeters>
          </Trackpoint>
          <Trackpoint>
            <Time>2020-03-07T18:14:17.000Z</Time>
            <Position>
              <LatitudeDegrees>40.5722883157432079315185546875</LatitudeDegrees>
              <LongitudeDegrees>-3.7100087106227874755859375</LongitudeDegrees>
            </Position>
            <AltitudeMeters>748.20001220703125</AltitudeMeters>
            <DistanceMeters>NAN</DistanceMeters>
          </Trackpoint>
          <Trackpoint>
            <Time>2020-03-07T18:14:18.000Z</Time>
            <Position>
              <LatitudeDegrees>40.5722346715629100799560546875</LatitudeDegrees>
              <LongitudeDegrees>-3.71002421714365482330322265625</LongitudeDegrees>
            </Position>
            <AltitudeMeters>748.20001220703125</AltitudeMeters>
            <DistanceMeters>NAN</DistanceMeters>
          </Trackpoint>
          <Trackpoint>
            <Time>2020-03-07T18:14:19.000Z</Time>
            <Position>
              <LatitudeDegrees>40.57218077592551708221435546875</LatitudeDegrees>
              <LongitudeDegrees>-3.71003888547420501708984375</LongitudeDegrees>
            </Position>
            <AltitudeMeters>748.20001220703125</AltitudeMeters>
            <DistanceMeters>NAN</DistanceMeters>
          </Trackpoint>
          <Trackpoint>
            <Time>2020-03-07T18:14:20.000Z</Time>
            <Position>
              <LatitudeDegrees>40.57212864048779010772705078125</LatitudeDegrees>
              <LongitudeDegrees>-3.71005707420408725738525390625</LongitudeDegrees>
            </Position>
            <AltitudeMeters>748.20001220703125</AltitudeMeters>
            <DistanceMeters>NAN</DistanceMeters>
          </Trackpoint>
          <Trackpoint>
            <Time>2020-03-07T18:14:21.000Z</Time>
            <Position>
              <LatitudeDegrees>40.57207315228879451751708984375</LatitudeDegrees>
              <LongitudeDegrees>-3.7100752629339694976806640625</LongitudeDegrees>
            </Position>
            <AltitudeMeters>748.20001220703125</AltitudeMeters>
            <DistanceMeters>NAN</DistanceMeters>
          </Trackpoint>
          <Trackpoint>
            <Time>2020-03-07T18:14:22.000Z</Time>
            <Position>
              <LatitudeDegrees>40.572015233337879180908203125</LatitudeDegrees>
              <LongitudeDegrees>-3.71009428985416889190673828125</LongitudeDegrees>
            </Position>
            <AltitudeMeters>748.20001220703125</AltitudeMeters>
            <DistanceMeters>NAN</DistanceMeters>
          </Trackpoint>
          <Trackpoint>
            <Time>2020-03-07T18:14:23.000Z</Time>
            <Position>
              <LatitudeDegrees>40.5719547159969806671142578125</LatitudeDegrees>
              <LongitudeDegrees>-3.7101134844124317169189453125</LongitudeDegrees>
            </Position>
            <AltitudeMeters>748.20001220703125</AltitudeMeters>
            <DistanceMeters>NAN</DistanceMeters>
          </Trackpoint>
          <Trackpoint>
            <Time>2020-03-07T18:14:24.000Z</Time>
            <Position>
              <LatitudeDegrees>40.571893192827701568603515625</LatitudeDegrees>
              <LongitudeDegrees>-3.71013536117970943450927734375</LongitudeDegrees>
            </Position>
            <AltitudeMeters>748.20001220703125</AltitudeMeters>
            <DistanceMeters>NAN</DistanceMeters>
          </Trackpoint>
          <Trackpoint>
            <Time>2020-03-07T18:14:25.000Z</Time>
            <Position>
              <LatitudeDegrees>40.57183259166777133941650390625</LatitudeDegrees>
              <LongitudeDegrees>-3.71015983633697032928466796875</LongitudeDegrees>
            </Position>
            <AltitudeMeters>748.20001220703125</AltitudeMeters>
            <DistanceMeters>NAN</DistanceMeters>
          </Trackpoint>
          <Trackpoint>
            <Time>2020-03-07T18:14:26.000Z</Time>
            <Position>
              <LatitudeDegrees>40.571770481765270233154296875</LatitudeDegrees>
              <LongitudeDegrees>-3.71018229983747005462646484375</LongitudeDegrees>
            </Position>
            <AltitudeMeters>748.20001220703125</AltitudeMeters>
            <DistanceMeters>NAN</DistanceMeters>
          </Trackpoint>
          <Trackpoint>
            <Time>2020-03-07T18:14:27.000Z</Time>
            <Position>
              <LatitudeDegrees>40.57170669548213481903076171875</LatitudeDegrees>
              <LongitudeDegrees>-3.71020291931927204132080078125</LongitudeDegrees>
            </Position>
            <AltitudeMeters>748.20001220703125</AltitudeMeters>
            <DistanceMeters>NAN</DistanceMeters>
          </Trackpoint>
          <Trackpoint>
            <Time>2020-03-07T18:14:28.000Z</Time>
            <Position>
              <LatitudeDegrees>40.5716432444751262664794921875</LatitudeDegrees>
              <LongitudeDegrees>-3.71022806502878665924072265625</LongitudeDegrees>
            </Position>
            <AltitudeMeters>748.20001220703125</AltitudeMeters>
            <DistanceMeters>NAN</DistanceMeters>
          </Trackpoint>
          <Trackpoint>
            <Time>2020-03-07T18:14:29.000Z</Time>
            <Position>
              <LatitudeDegrees>40.57158063165843486785888671875</LatitudeDegrees>
              <LongitudeDegrees>-3.71025689877569675445556640625</LongitudeDegrees>
            </Position>
            <AltitudeMeters>748.20001220703125</AltitudeMeters>
            <DistanceMeters>NAN</DistanceMeters>
          </Trackpoint>
          <Trackpoint>
            <Time>2020-03-07T18:14:30.000Z</Time>
            <Position>
              <LatitudeDegrees>40.571515001356601715087890625</LatitudeDegrees>
              <LongitudeDegrees>-3.710283301770687103271484375</LongitudeDegrees>
            </Position>
            <AltitudeMeters>748.20001220703125</AltitudeMeters>
            <DistanceMeters>NAN</DistanceMeters>
          </Trackpoint>
          <Trackpoint>
            <Time>2020-03-07T18:14:31.000Z</Time>
            <Position>
              <LatitudeDegrees>40.57144802995026111602783203125</LatitudeDegrees>
              <LongitudeDegrees>-3.7103076092898845672607421875</LongitudeDegrees>
            </Position>
            <AltitudeMeters>748.20001220703125</AltitudeMeters>
            <DistanceMeters>NAN</DistanceMeters>
          </Trackpoint>
          <Trackpoint>
            <Time>2020-03-07T18:14:32.000Z</Time>
            <Position>
              <LatitudeDegrees>40.571378879249095916748046875</LatitudeDegrees>
              <LongitudeDegrees>-3.71033099479973316192626953125</LongitudeDegrees>
            </Position>
            <AltitudeMeters>748</AltitudeMeters>
            <DistanceMeters>NAN</DistanceMeters>
          </Trackpoint>
          <Trackpoint>
            <Time>2020-03-07T18:14:33.000Z</Time>
            <Position>
              <LatitudeDegrees>40.57131174020469188690185546875</LatitudeDegrees>
              <LongitudeDegrees>-3.71035379357635974884033203125</LongitudeDegrees>
            </Position>
            <AltitudeMeters>747.5999755859375</AltitudeMeters>
            <DistanceMeters>NAN</DistanceMeters>
          </Trackpoint>
          <Trackpoint>
            <Time>2020-03-07T18:14:34.000Z</Time>
            <Position>
              <LatitudeDegrees>40.571240745484828948974609375</LatitudeDegrees>
              <LongitudeDegrees>-3.71038212440907955169677734375</LongitudeDegrees>
            </Position>
            <AltitudeMeters>747.4000244140625</AltitudeMeters>
            <DistanceMeters>NAN</DistanceMeters>
          </Trackpoint>
          <Trackpoint>
            <Time>2020-03-07T18:14:35.000Z</Time>
            <Position>
              <LatitudeDegrees>40.5711694993078708648681640625</LatitudeDegrees>
              <LongitudeDegrees>-3.71041213162243366241455078125</LongitudeDegrees>
            </Position>
            <AltitudeMeters>747.20001220703125</AltitudeMeters>
            <DistanceMeters>NAN</DistanceMeters>
          </Trackpoint>
          <Trackpoint>
            <Time>2020-03-07T18:14:36.000Z</Time>
            <Position>
              <LatitudeDegrees>40.571096576750278472900390625</LatitudeDegrees>
              <LongitudeDegrees>-3.71043895371258258819580078125</LongitudeDegrees>
            </Position>
            <AltitudeMeters>747</AltitudeMeters>
            <DistanceMeters>NAN</DistanceMeters>
          </Trackpoint>
          <Trackpoint>
            <Time>2020-03-07T18:14:37.000Z</Time>
            <Position>
              <LatitudeDegrees>40.57102625258266925811767578125</LatitudeDegrees>
              <LongitudeDegrees>-3.71047432534396648406982421875</LongitudeDegrees>
            </Position>
            <AltitudeMeters>746.79998779296875</AltitudeMeters>
            <DistanceMeters>NAN</DistanceMeters>
          </Trackpoint>
          <Trackpoint>
            <Time>2020-03-07T18:14:38.000Z</Time>
            <Position>
              <LatitudeDegrees>40.5709552578628063201904296875</LatitudeDegrees>
              <LongitudeDegrees>-3.71051154099404811859130859375</LongitudeDegrees>
            </Position>
            <AltitudeMeters>746.5999755859375</AltitudeMeters>
            <DistanceMeters>NAN</DistanceMeters>
          </Trackpoint>
          <Trackpoint>
            <Time>2020-03-07T18:14:39.000Z</Time>
            <Position>
              <LatitudeDegrees>40.57088996283710002899169921875</LatitudeDegrees>
              <LongitudeDegrees>-3.7105466611683368682861328125</LongitudeDegrees>
            </Position>
            <AltitudeMeters>746.4000244140625</AltitudeMeters>
            <DistanceMeters>NAN</DistanceMeters>
          </Trackpoint>
          <Trackpoint>
            <Time>2020-03-07T18:14:40.000Z</Time>
            <Position>
              <LatitudeDegrees>40.57082676328718662261962890625</LatitudeDegrees>
              <LongitudeDegrees>-3.71058329008519649505615234375</LongitudeDegrees>
            </Position>
            <AltitudeMeters>746</AltitudeMeters>
            <DistanceMeters>NAN</DistanceMeters>
          </Trackpoint>
          <Trackpoint>
            <Time>2020-03-07T18:14:41.000Z</Time>
            <Position>
              <LatitudeDegrees>40.57076632976531982421875</LatitudeDegrees>
              <LongitudeDegrees>-3.710619919002056121826171875</LongitudeDegrees>
            </Position>
            <AltitudeMeters>745.79998779296875</AltitudeMeters>
            <DistanceMeters>NAN</DistanceMeters>
          </Trackpoint>
          <Trackpoint>
            <Time>2020-03-07T18:14:42.000Z</Time>
            <Position>
              <LatitudeDegrees>40.5707086622714996337890625</LatitudeDegrees>
              <LongitudeDegrees>-3.7106559611856937408447265625</LongitudeDegrees>
            </Position>
            <AltitudeMeters>745.4000244140625</AltitudeMeters>
            <DistanceMeters>NAN</DistanceMeters>
          </Trackpoint>
          <Trackpoint>
            <Time>2020-03-07T18:14:43.000Z</Time>
            <Position>
              <LatitudeDegrees>40.5706511624157428741455078125</LatitudeDegrees>
              <LongitudeDegrees>-3.7106931768357753753662109375</LongitudeDegrees>
            </Position>
            <AltitudeMeters>745.4000244140625</AltitudeMeters>
            <DistanceMeters>NAN</DistanceMeters>
          </Trackpoint>
          <Trackpoint>
            <Time>2020-03-07T18:14:44.000Z</Time>
            <Position>
              <LatitudeDegrees>40.570597350597381591796875</LatitudeDegrees>
              <LongitudeDegrees>-3.7107300572097301483154296875</LongitudeDegrees>
            </Position>
            <AltitudeMeters>745.20001220703125</AltitudeMeters>
            <DistanceMeters>NAN</DistanceMeters>
          </Trackpoint>
          <Trackpoint>
            <Time>2020-03-07T18:14:45.000Z</Time>
            <Position>
              <LatitudeDegrees>40.57054328732192516326904296875</LatitudeDegrees>
              <LongitudeDegrees>-3.71076584793627262115478515625</LongitudeDegrees>
            </Position>
            <AltitudeMeters>745.20001220703125</AltitudeMeters>
            <DistanceMeters>NAN</DistanceMeters>
          </Trackpoint>
          <Trackpoint>
            <Time>2020-03-07T18:14:46.000Z</Time>
            <Position>
              <LatitudeDegrees>40.57048947550356388092041015625</LatitudeDegrees>
              <LongitudeDegrees>-3.71080256067216396331787109375</LongitudeDegrees>
            </Position>
            <AltitudeMeters>745.20001220703125</AltitudeMeters>
            <DistanceMeters>NAN</DistanceMeters>
          </Trackpoint>
          <Trackpoint>
            <Time>2020-03-07T18:14:47.000Z</Time>
            <Position>
              <LatitudeDegrees>40.5704352445900440216064453125</LatitudeDegrees>
              <LongitudeDegrees>-3.7108386866748332977294921875</LongitudeDegrees>
            </Position>
            <AltitudeMeters>745.20001220703125</AltitudeMeters>
            <DistanceMeters>NAN</DistanceMeters>
          </Trackpoint>
          <Trackpoint>
            <Time>2020-03-07T18:14:48.000Z</Time>
            <Position>
              <LatitudeDegrees>40.57038034312427043914794921875</LatitudeDegrees>
              <LongitudeDegrees>-3.7108759023249149322509765625</LongitudeDegrees>
            </Position>
            <AltitudeMeters>745.20001220703125</AltitudeMeters>
            <DistanceMeters>NAN</DistanceMeters>
          </Trackpoint>
          <Trackpoint>
            <Time>2020-03-07T18:14:49.000Z</Time>
            <Position>
              <LatitudeDegrees>40.57032552547752857208251953125</LatitudeDegrees>
              <LongitudeDegrees>-3.71091060340404510498046875</LongitudeDegrees>
            </Position>
            <AltitudeMeters>745.20001220703125</AltitudeMeters>
            <DistanceMeters>NAN</DistanceMeters>
          </Trackpoint>
          <Trackpoint>
            <Time>2020-03-07T18:14:50.000Z</Time>
            <Position>
              <LatitudeDegrees>40.5702736414968967437744140625</LatitudeDegrees>
              <LongitudeDegrees>-3.71094857342541217803955078125</LongitudeDegrees>
            </Position>
            <AltitudeMeters>745.20001220703125</AltitudeMeters>
            <DistanceMeters>NAN</DistanceMeters>
          </Trackpoint>
          <Trackpoint>
            <Time>2020-03-07T18:14:51.000Z</Time>
            <Position>
              <LatitudeDegrees>40.5702205002307891845703125</LatitudeDegrees>
              <LongitudeDegrees>-3.7109821848571300506591796875</LongitudeDegrees>
            </Position>
            <AltitudeMeters>745.20001220703125</AltitudeMeters>
            <DistanceMeters>NAN</DistanceMeters>
          </Trackpoint>
          <Trackpoint>
            <Time>2020-03-07T18:14:52.000Z</Time>
            <Position>
              <LatitudeDegrees>40.57016761042177677154541015625</LatitudeDegrees>
              <LongitudeDegrees>-3.71101789176464080810546875</LongitudeDegrees>
            </Position>
            <AltitudeMeters>745.4000244140625</AltitudeMeters>
            <DistanceMeters>NAN</DistanceMeters>
          </Trackpoint>
          <Trackpoint>
            <Time>2020-03-07T18:14:53.000Z</Time>
            <Position>
              <LatitudeDegrees>40.57011463679373264312744140625</LatitudeDegrees>
              <LongitudeDegrees>-3.71104999445378780364990234375</LongitudeDegrees>
            </Position>
            <AltitudeMeters>745.5999755859375</AltitudeMeters>
            <DistanceMeters>NAN</DistanceMeters>
          </Trackpoint>
          <Trackpoint>
            <Time>2020-03-07T18:14:54.000Z</Time>
            <Position>
              <LatitudeDegrees>40.57006099261343479156494140625</LatitudeDegrees>
              <LongitudeDegrees>-3.71107882820069789886474609375</LongitudeDegrees>
            </Position>
            <AltitudeMeters>745.5999755859375</AltitudeMeters>
            <DistanceMeters>NAN</DistanceMeters>
          </Trackpoint>
          <Trackpoint>
            <Time>2020-03-07T18:14:55.000Z</Time>
            <Position>
              <LatitudeDegrees>40.57000667788088321685791015625</LatitudeDegrees>
              <LongitudeDegrees>-3.71110548265278339385986328125</LongitudeDegrees>
            </Position>
            <AltitudeMeters>745.79998779296875</AltitudeMeters>
            <DistanceMeters>NAN</DistanceMeters>
          </Trackpoint>
          <Trackpoint>
            <Time>2020-03-07T18:14:56.000Z</Time>
            <Position>
              <LatitudeDegrees>40.56995294988155364990234375</LatitudeDegrees>
              <LongitudeDegrees>-3.71113666333258152008056640625</LongitudeDegrees>
            </Position>
            <AltitudeMeters>745.79998779296875</AltitudeMeters>
            <DistanceMeters>NAN</DistanceMeters>
          </Trackpoint>
          <Trackpoint>
            <Time>2020-03-07T18:14:57.000Z</Time>
            <Position>
              <LatitudeDegrees>40.5699011497199535369873046875</LatitudeDegrees>
              <LongitudeDegrees>-3.71116532944142818450927734375</LongitudeDegrees>
            </Position>
            <AltitudeMeters>745.79998779296875</AltitudeMeters>
            <DistanceMeters>NAN</DistanceMeters>
          </Trackpoint>
          <Trackpoint>
            <Time>2020-03-07T18:14:58.000Z</Time>
            <Position>
              <LatitudeDegrees>40.56985077448189258575439453125</LatitudeDegrees>
              <LongitudeDegrees>-3.7111947499215602874755859375</LongitudeDegrees>
            </Position>
            <AltitudeMeters>746</AltitudeMeters>
            <DistanceMeters>NAN</DistanceMeters>
          </Trackpoint>
          <Trackpoint>
            <Time>2020-03-07T18:14:59.000Z</Time>
            <Position>
              <LatitudeDegrees>40.5698012374341487884521484375</LatitudeDegrees>
              <LongitudeDegrees>-3.71122467331588268280029296875</LongitudeDegrees>
            </Position>
            <AltitudeMeters>746</AltitudeMeters>
            <DistanceMeters>NAN</DistanceMeters>
          </Trackpoint>
          <Trackpoint>
            <Time>2020-03-07T18:15:00.000Z</Time>
            <Position>
              <LatitudeDegrees>40.56975354440510272979736328125</LatitudeDegrees>
              <LongitudeDegrees>-3.7112581171095371246337890625</LongitudeDegrees>
            </Position>
            <AltitudeMeters>746.20001220703125</AltitudeMeters>
            <DistanceMeters>NAN</DistanceMeters>
          </Trackpoint>
          <Trackpoint>
            <Time>2020-03-07T18:15:01.000Z</Time>
            <Position>
              <LatitudeDegrees>40.56970727629959583282470703125</LatitudeDegrees>
              <LongitudeDegrees>-3.7112934887409210205078125</LongitudeDegrees>
            </Position>
            <AltitudeMeters>746.4000244140625</AltitudeMeters>
            <DistanceMeters>NAN</DistanceMeters>
          </Trackpoint>
          <Trackpoint>
            <Time>2020-03-07T18:15:02.000Z</Time>
            <Position>
              <LatitudeDegrees>40.569661594927310943603515625</LatitudeDegrees>
              <LongitudeDegrees>-3.7113312073051929473876953125</LongitudeDegrees>
            </Position>
            <AltitudeMeters>746.5999755859375</AltitudeMeters>
            <DistanceMeters>NAN</DistanceMeters>
          </Trackpoint>
          <Trackpoint>
            <Time>2020-03-07T18:15:03.000Z</Time>
            <Position>
              <LatitudeDegrees>40.56961474008858203887939453125</LatitudeDegrees>
              <LongitudeDegrees>-3.71136783622205257415771484375</LongitudeDegrees>
            </Position>
            <AltitudeMeters>746.79998779296875</AltitudeMeters>
            <DistanceMeters>NAN</DistanceMeters>
          </Trackpoint>
          <Trackpoint>
            <Time>2020-03-07T18:15:04.000Z</Time>
            <Position>
              <LatitudeDegrees>40.56956847198307514190673828125</LatitudeDegrees>
              <LongitudeDegrees>-3.711402118206024169921875</LongitudeDegrees>
            </Position>
            <AltitudeMeters>747</AltitudeMeters>
            <DistanceMeters>NAN</DistanceMeters>
          </Trackpoint>
          <Trackpoint>
            <Time>2020-03-07T18:15:05.000Z</Time>
            <Position>
              <LatitudeDegrees>40.5695229582488536834716796875</LatitudeDegrees>
              <LongitudeDegrees>-3.7114356458187103271484375</LongitudeDegrees>
            </Position>
            <AltitudeMeters>747</AltitudeMeters>
            <DistanceMeters>NAN</DistanceMeters>
          </Trackpoint>
          <Trackpoint>
            <Time>2020-03-07T18:15:06.000Z</Time>
            <Position>
              <LatitudeDegrees>40.569477193057537078857421875</LatitudeDegrees>
              <LongitudeDegrees>-3.71146607212722301483154296875</LongitudeDegrees>
            </Position>
            <AltitudeMeters>747.20001220703125</AltitudeMeters>
            <DistanceMeters>NAN</DistanceMeters>
          </Trackpoint>
          <Trackpoint>
            <Time>2020-03-07T18:15:07.000Z</Time>
            <Position>
              <LatitudeDegrees>40.56943100877106189727783203125</LatitudeDegrees>
              <LongitudeDegrees>-3.711493313312530517578125</LongitudeDegrees>
            </Position>
            <AltitudeMeters>747.4000244140625</AltitudeMeters>
            <DistanceMeters>NAN</DistanceMeters>
          </Trackpoint>
          <Trackpoint>
            <Time>2020-03-07T18:15:08.000Z</Time>
            <Position>
              <LatitudeDegrees>40.5693836510181427001953125</LatitudeDegrees>
              <LongitudeDegrees>-3.71151770465075969696044921875</LongitudeDegrees>
            </Position>
            <AltitudeMeters>747.5999755859375</AltitudeMeters>
            <DistanceMeters>NAN</DistanceMeters>
          </Trackpoint>
          <Trackpoint>
            <Time>2020-03-07T18:15:09.000Z</Time>
            <Position>
              <LatitudeDegrees>40.5693348683416843414306640625</LatitudeDegrees>
              <LongitudeDegrees>-3.7115414254367351531982421875</LongitudeDegrees>
            </Position>
            <AltitudeMeters>747.5999755859375</AltitudeMeters>
            <DistanceMeters>NAN</DistanceMeters>
          </Trackpoint>
          <Trackpoint>
            <Time>2020-03-07T18:15:10.000Z</Time>
            <Position>
              <LatitudeDegrees>40.5692845769226551055908203125</LatitudeDegrees>
              <LongitudeDegrees>-3.71156380511820316314697265625</LongitudeDegrees>
            </Position>
            <AltitudeMeters>747.79998779296875</AltitudeMeters>
            <DistanceMeters>NAN</DistanceMeters>
          </Trackpoint>
          <Trackpoint>
            <Time>2020-03-07T18:15:11.000Z</Time>
            <Position>
              <LatitudeDegrees>40.56923453696072101593017578125</LatitudeDegrees>
              <LongitudeDegrees>-3.71158492751419544219970703125</LongitudeDegrees>
            </Position>
            <AltitudeMeters>747.79998779296875</AltitudeMeters>
            <DistanceMeters>NAN</DistanceMeters>
          </Trackpoint>
          <Trackpoint>
            <Time>2020-03-07T18:15:12.000Z</Time>
            <Position>
              <LatitudeDegrees>40.569185502827167510986328125</LatitudeDegrees>
              <LongitudeDegrees>-3.71160588227212429046630859375</LongitudeDegrees>
            </Position>
            <AltitudeMeters>747.79998779296875</AltitudeMeters>
            <DistanceMeters>NAN</DistanceMeters>
          </Trackpoint>
          <Trackpoint>
            <Time>2020-03-07T18:15:13.000Z</Time>
            <Position>
              <LatitudeDegrees>40.5691368877887725830078125</LatitudeDegrees>
              <LongitudeDegrees>-3.71162482537329196929931640625</LongitudeDegrees>
            </Position>
            <AltitudeMeters>748</AltitudeMeters>
            <DistanceMeters>NAN</DistanceMeters>
          </Trackpoint>
          <Trackpoint>
            <Time>2020-03-07T18:15:14.000Z</Time>
            <Position>
              <LatitudeDegrees>40.5690884403884410858154296875</LatitudeDegrees>
              <LongitudeDegrees>-3.7116421759128570556640625</LongitudeDegrees>
            </Position>
            <AltitudeMeters>748.20001220703125</AltitudeMeters>
            <DistanceMeters>NAN</DistanceMeters>
          </Trackpoint>
          <Trackpoint>
            <Time>2020-03-07T18:15:15.000Z</Time>
            <Position>
              <LatitudeDegrees>40.56904141791164875030517578125</LatitudeDegrees>
              <LongitudeDegrees>-3.71165734715759754180908203125</LongitudeDegrees>
            </Position>
            <AltitudeMeters>748.20001220703125</AltitudeMeters>
            <DistanceMeters>NAN</DistanceMeters>
          </Trackpoint>
          <Trackpoint>
            <Time>2020-03-07T18:15:16.000Z</Time>
            <Position>
              <LatitudeDegrees>40.56899297051131725311279296875</LatitudeDegrees>
              <LongitudeDegrees>-3.71167360804975032806396484375</LongitudeDegrees>
            </Position>
            <AltitudeMeters>748.4000244140625</AltitudeMeters>
            <DistanceMeters>NAN</DistanceMeters>
          </Trackpoint>
          <Trackpoint>
            <Time>2020-03-07T18:15:17.000Z</Time>
            <Position>
              <LatitudeDegrees>40.568944104015827178955078125</LatitudeDegrees>
              <LongitudeDegrees>-3.71169389225542545318603515625</LongitudeDegrees>
            </Position>
            <AltitudeMeters>748.5999755859375</AltitudeMeters>
            <DistanceMeters>NAN</DistanceMeters>
          </Trackpoint>
          <Trackpoint>
            <Time>2020-03-07T18:15:18.000Z</Time>
            <Position>
              <LatitudeDegrees>40.56889356113970279693603515625</LatitudeDegrees>
              <LongitudeDegrees>-3.71171660721302032470703125</LongitudeDegrees>
            </Position>
            <AltitudeMeters>748.5999755859375</AltitudeMeters>
            <DistanceMeters>NAN</DistanceMeters>
          </Trackpoint>
          <Trackpoint>
            <Time>2020-03-07T18:15:19.000Z</Time>
            <Position>
              <LatitudeDegrees>40.56884326972067356109619140625</LatitudeDegrees>
              <LongitudeDegrees>-3.7117395736277103424072265625</LongitudeDegrees>
            </Position>
            <AltitudeMeters>748.79998779296875</AltitudeMeters>
            <DistanceMeters>NAN</DistanceMeters>
          </Trackpoint>
          <Trackpoint>
            <Time>2020-03-07T18:15:20.000Z</Time>
            <Position>
              <LatitudeDegrees>40.56879423558712005615234375</LatitudeDegrees>
              <LongitudeDegrees>-3.7117674015462398529052734375</LongitudeDegrees>
            </Position>
            <AltitudeMeters>748.79998779296875</AltitudeMeters>
            <DistanceMeters>NAN</DistanceMeters>
          </Trackpoint>
          <Trackpoint>
            <Time>2020-03-07T18:15:21.000Z</Time>
            <Position>
              <LatitudeDegrees>40.568744949996471405029296875</LatitudeDegrees>
              <LongitudeDegrees>-3.71179631911218166351318359375</LongitudeDegrees>
            </Position>
            <AltitudeMeters>749</AltitudeMeters>
            <DistanceMeters>NAN</DistanceMeters>
          </Trackpoint>
          <Trackpoint>
            <Time>2020-03-07T18:15:22.000Z</Time>
            <Position>
              <LatitudeDegrees>40.56869641877710819244384765625</LatitudeDegrees>
              <LongitudeDegrees>-3.7118247337639331817626953125</LongitudeDegrees>
            </Position>
            <AltitudeMeters>749</AltitudeMeters>
            <DistanceMeters>NAN</DistanceMeters>
          </Trackpoint>
          <Trackpoint>
            <Time>2020-03-07T18:15:23.000Z</Time>
            <Position>
              <LatitudeDegrees>40.5686515755951404571533203125</LatitudeDegrees>
              <LongitudeDegrees>-3.71185448952019214630126953125</LongitudeDegrees>
            </Position>
            <AltitudeMeters>749</AltitudeMeters>
            <DistanceMeters>NAN</DistanceMeters>
          </Trackpoint>
          <Trackpoint>
            <Time>2020-03-07T18:15:24.000Z</Time>
            <Position>
              <LatitudeDegrees>40.56860857643187046051025390625</LatitudeDegrees>
              <LongitudeDegrees>-3.71188416145741939544677734375</LongitudeDegrees>
            </Position>
            <AltitudeMeters>749</AltitudeMeters>
            <DistanceMeters>NAN</DistanceMeters>
          </Trackpoint>
          <Trackpoint>
            <Time>2020-03-07T18:15:25.000Z</Time>
            <Position>
              <LatitudeDegrees>40.56856515817344188690185546875</LatitudeDegrees>
              <LongitudeDegrees>-3.71191467158496379852294921875</LongitudeDegrees>
            </Position>
            <AltitudeMeters>749.20001220703125</AltitudeMeters>
            <DistanceMeters>NAN</DistanceMeters>
          </Trackpoint>
          <Trackpoint>
            <Time>2020-03-07T18:15:26.000Z</Time>
            <Position>
              <LatitudeDegrees>40.56852274574339389801025390625</LatitudeDegrees>
              <LongitudeDegrees>-3.71194333769381046295166015625</LongitudeDegrees>
            </Position>
            <AltitudeMeters>749.20001220703125</AltitudeMeters>
            <DistanceMeters>NAN</DistanceMeters>
          </Trackpoint>
          <Trackpoint>
            <Time>2020-03-07T18:15:27.000Z</Time>
            <Position>
              <LatitudeDegrees>40.5684815905988216400146484375</LatitudeDegrees>
              <LongitudeDegrees>-3.71197083033621311187744140625</LongitudeDegrees>
            </Position>
            <AltitudeMeters>749.4000244140625</AltitudeMeters>
            <DistanceMeters>NAN</DistanceMeters>
          </Trackpoint>
          <Trackpoint>
            <Time>2020-03-07T18:15:28.000Z</Time>
            <Position>
              <LatitudeDegrees>40.568442530930042266845703125</LatitudeDegrees>
              <LongitudeDegrees>-3.71199798770248889923095703125</LongitudeDegrees>
            </Position>
            <AltitudeMeters>749.5999755859375</AltitudeMeters>
            <DistanceMeters>NAN</DistanceMeters>
          </Trackpoint>
          <Trackpoint>
            <Time>2020-03-07T18:15:29.000Z</Time>
            <Position>
              <LatitudeDegrees>40.56840472854673862457275390625</LatitudeDegrees>
              <LongitudeDegrees>-3.712024725973606109619140625</LongitudeDegrees>
            </Position>
            <AltitudeMeters>749.5999755859375</AltitudeMeters>
            <DistanceMeters>NAN</DistanceMeters>
          </Trackpoint>
          <Trackpoint>
            <Time>2020-03-07T18:15:30.000Z</Time>
            <Position>
              <LatitudeDegrees>40.56836902163922786712646484375</LatitudeDegrees>
              <LongitudeDegrees>-3.71205456554889678955078125</LongitudeDegrees>
            </Position>
            <AltitudeMeters>749.79998779296875</AltitudeMeters>
            <DistanceMeters>NAN</DistanceMeters>
          </Trackpoint>
          <Trackpoint>
            <Time>2020-03-07T18:15:31.000Z</Time>
            <Position>
              <LatitudeDegrees>40.568331889808177947998046875</LatitudeDegrees>
              <LongitudeDegrees>-3.7120825611054897308349609375</LongitudeDegrees>
            </Position>
            <AltitudeMeters>750</AltitudeMeters>
            <DistanceMeters>NAN</DistanceMeters>
          </Trackpoint>
          <Trackpoint>
            <Time>2020-03-07T18:15:32.000Z</Time>
            <Position>
              <LatitudeDegrees>40.56829492561519145965576171875</LatitudeDegrees>
              <LongitudeDegrees>-3.7121100537478923797607421875</LongitudeDegrees>
            </Position>
            <AltitudeMeters>750</AltitudeMeters>
            <DistanceMeters>NAN</DistanceMeters>
          </Trackpoint>
          <Trackpoint>
            <Time>2020-03-07T18:15:33.000Z</Time>
            <Position>
              <LatitudeDegrees>40.56825754232704639434814453125</LatitudeDegrees>
              <LongitudeDegrees>-3.71213679201900959014892578125</LongitudeDegrees>
            </Position>
            <AltitudeMeters>750.4000244140625</AltitudeMeters>
            <DistanceMeters>NAN</DistanceMeters>
          </Trackpoint>
          <Trackpoint>
            <Time>2020-03-07T18:15:34.000Z</Time>
            <Position>
              <LatitudeDegrees>40.5682187341153621673583984375</LatitudeDegrees>
              <LongitudeDegrees>-3.71216361410915851593017578125</LongitudeDegrees>
            </Position>
            <AltitudeMeters>750.5999755859375</AltitudeMeters>
            <DistanceMeters>NAN</DistanceMeters>
          </Trackpoint>
          <Trackpoint>
            <Time>2020-03-07T18:15:35.000Z</Time>
            <Position>
              <LatitudeDegrees>40.56818126700818538665771484375</LatitudeDegrees>
              <LongitudeDegrees>-3.71219160966575145721435546875</LongitudeDegrees>
            </Position>
            <AltitudeMeters>750.79998779296875</AltitudeMeters>
            <DistanceMeters>NAN</DistanceMeters>
          </Trackpoint>
          <Trackpoint>
            <Time>2020-03-07T18:15:36.000Z</Time>
            <Position>
              <LatitudeDegrees>40.5681422911584377288818359375</LatitudeDegrees>
              <LongitudeDegrees>-3.7122217006981372833251953125</LongitudeDegrees>
            </Position>
            <AltitudeMeters>751</AltitudeMeters>
            <DistanceMeters>NAN</DistanceMeters>
          </Trackpoint>
          <Trackpoint>
            <Time>2020-03-07T18:15:37.000Z</Time>
            <Position>
              <LatitudeDegrees>40.56810381822288036346435546875</LatitudeDegrees>
              <LongitudeDegrees>-3.7122532166540622711181640625</LongitudeDegrees>
            </Position>
            <AltitudeMeters>751</AltitudeMeters>
            <DistanceMeters>NAN</DistanceMeters>
          </Trackpoint>
          <Trackpoint>
            <Time>2020-03-07T18:15:38.000Z</Time>
            <Position>
              <LatitudeDegrees>40.56806190870702266693115234375</LatitudeDegrees>
              <LongitudeDegrees>-3.71228163130581378936767578125</LongitudeDegrees>
            </Position>
            <AltitudeMeters>751.4000244140625</AltitudeMeters>
            <DistanceMeters>NAN</DistanceMeters>
          </Trackpoint>
          <Trackpoint>
            <Time>2020-03-07T18:15:39.000Z</Time>
            <Position>
              <LatitudeDegrees>40.5680179037153720855712890625</LatitudeDegrees>
              <LongitudeDegrees>-3.7123092077672481536865234375</LongitudeDegrees>
            </Position>
            <AltitudeMeters>751.5999755859375</AltitudeMeters>
            <DistanceMeters>NAN</DistanceMeters>
          </Trackpoint>
          <Trackpoint>
            <Time>2020-03-07T18:15:40.000Z</Time>
            <Position>
              <LatitudeDegrees>40.56797389872372150421142578125</LatitudeDegrees>
              <LongitudeDegrees>-3.712335862219333648681640625</LongitudeDegrees>
            </Position>
            <AltitudeMeters>751.79998779296875</AltitudeMeters>
            <DistanceMeters>NAN</DistanceMeters>
          </Trackpoint>
          <Trackpoint>
            <Time>2020-03-07T18:15:41.000Z</Time>
            <Position>
              <LatitudeDegrees>40.5679290555417537689208984375</LatitudeDegrees>
              <LongitudeDegrees>-3.71236192993819713592529296875</LongitudeDegrees>
            </Position>
            <AltitudeMeters>751.79998779296875</AltitudeMeters>
            <DistanceMeters>NAN</DistanceMeters>
          </Trackpoint>
          <Trackpoint>
            <Time>2020-03-07T18:15:42.000Z</Time>
            <Position>
              <LatitudeDegrees>40.5678844638168811798095703125</LatitudeDegrees>
              <LongitudeDegrees>-3.712388835847377777099609375</LongitudeDegrees>
            </Position>
            <AltitudeMeters>752</AltitudeMeters>
            <DistanceMeters>NAN</DistanceMeters>
          </Trackpoint>
          <Trackpoint>
            <Time>2020-03-07T18:15:43.000Z</Time>
            <Position>
              <LatitudeDegrees>40.56783978827297687530517578125</LatitudeDegrees>
              <LongitudeDegrees>-3.712416999042034149169921875</LongitudeDegrees>
            </Position>
            <AltitudeMeters>752</AltitudeMeters>
            <DistanceMeters>NAN</DistanceMeters>
          </Trackpoint>
          <Trackpoint>
            <Time>2020-03-07T18:15:44.000Z</Time>
            <Position>
              <LatitudeDegrees>40.56779704056680202484130859375</LatitudeDegrees>
              <LongitudeDegrees>-3.71244675479829311370849609375</LongitudeDegrees>
            </Position>
            <AltitudeMeters>752</AltitudeMeters>
            <DistanceMeters>NAN</DistanceMeters>
          </Trackpoint>
          <Trackpoint>
            <Time>2020-03-07T18:15:45.000Z</Time>
            <Position>
              <LatitudeDegrees>40.56775295175611972808837890625</LatitudeDegrees>
              <LongitudeDegrees>-3.712473325431346893310546875</LongitudeDegrees>
            </Position>
            <AltitudeMeters>752</AltitudeMeters>
            <DistanceMeters>NAN</DistanceMeters>
          </Trackpoint>
          <Trackpoint>
            <Time>2020-03-07T18:15:46.000Z</Time>
            <Position>
              <LatitudeDegrees>40.567710958421230316162109375</LatitudeDegrees>
              <LongitudeDegrees>-3.71250123716890811920166015625</LongitudeDegrees>
            </Position>
            <AltitudeMeters>752</AltitudeMeters>
            <DistanceMeters>NAN</DistanceMeters>
          </Trackpoint>
          <Trackpoint>
            <Time>2020-03-07T18:15:47.000Z</Time>
            <Position>
              <LatitudeDegrees>40.5676682107150554656982421875</LatitudeDegrees>
              <LongitudeDegrees>-3.7125284783542156219482421875</LongitudeDegrees>
            </Position>
            <AltitudeMeters>752.20001220703125</AltitudeMeters>
            <DistanceMeters>NAN</DistanceMeters>
          </Trackpoint>
          <Trackpoint>
            <Time>2020-03-07T18:15:48.000Z</Time>
            <Position>
              <LatitudeDegrees>40.567624457180500030517578125</LatitudeDegrees>
              <LongitudeDegrees>-3.71255471371114253997802734375</LongitudeDegrees>
            </Position>
            <AltitudeMeters>752.20001220703125</AltitudeMeters>
            <DistanceMeters>NAN</DistanceMeters>
          </Trackpoint>
          <Trackpoint>
            <Time>2020-03-07T18:15:49.000Z</Time>
            <Position>
              <LatitudeDegrees>40.5675800330936908721923828125</LatitudeDegrees>
              <LongitudeDegrees>-3.71257935650646686553955078125</LongitudeDegrees>
            </Position>
            <AltitudeMeters>752.20001220703125</AltitudeMeters>
            <DistanceMeters>NAN</DistanceMeters>
          </Trackpoint>
          <Trackpoint>
            <Time>2020-03-07T18:15:50.000Z</Time>
            <Position>
              <LatitudeDegrees>40.567536614835262298583984375</LatitudeDegrees>
              <LongitudeDegrees>-3.71260534040629863739013671875</LongitudeDegrees>
            </Position>
            <AltitudeMeters>752.20001220703125</AltitudeMeters>
            <DistanceMeters>NAN</DistanceMeters>
          </Trackpoint>
          <Trackpoint>
            <Time>2020-03-07T18:15:51.000Z</Time>
            <Position>
              <LatitudeDegrees>40.56749336421489715576171875</LatitudeDegrees>
              <LongitudeDegrees>-3.712635934352874755859375</LongitudeDegrees>
            </Position>
            <AltitudeMeters>752.20001220703125</AltitudeMeters>
            <DistanceMeters>NAN</DistanceMeters>
          </Trackpoint>
          <Trackpoint>
            <Time>2020-03-07T18:15:52.000Z</Time>
            <Position>
              <LatitudeDegrees>40.567451454699039459228515625</LatitudeDegrees>
              <LongitudeDegrees>-3.7126679532229900360107421875</LongitudeDegrees>
            </Position>
            <AltitudeMeters>752.20001220703125</AltitudeMeters>
            <DistanceMeters>NAN</DistanceMeters>
          </Trackpoint>
          <Trackpoint>
            <Time>2020-03-07T18:15:53.000Z</Time>
            <Position>
              <LatitudeDegrees>40.56741197593510150909423828125</LatitudeDegrees>
              <LongitudeDegrees>-3.71270424686372280120849609375</LongitudeDegrees>
            </Position>
            <AltitudeMeters>752.20001220703125</AltitudeMeters>
            <DistanceMeters>NAN</DistanceMeters>
          </Trackpoint>
          <Trackpoint>
            <Time>2020-03-07T18:15:54.000Z</Time>
            <Position>
              <LatitudeDegrees>40.567373670637607574462890625</LatitudeDegrees>
              <LongitudeDegrees>-3.71274028904736042022705078125</LongitudeDegrees>
            </Position>
            <AltitudeMeters>752.20001220703125</AltitudeMeters>
            <DistanceMeters>NAN</DistanceMeters>
          </Trackpoint>
          <Trackpoint>
            <Time>2020-03-07T18:15:55.000Z</Time>
            <Position>
              <LatitudeDegrees>40.5673346109688282012939453125</LatitudeDegrees>
              <LongitudeDegrees>-3.71277348138391971588134765625</LongitudeDegrees>
            </Position>
            <AltitudeMeters>752.20001220703125</AltitudeMeters>
            <DistanceMeters>NAN</DistanceMeters>
          </Trackpoint>
          <Trackpoint>
            <Time>2020-03-07T18:15:56.000Z</Time>
            <Position>
              <LatitudeDegrees>40.56729798205196857452392578125</LatitudeDegrees>
              <LongitudeDegrees>-3.71280566789209842681884765625</LongitudeDegrees>
            </Position>
            <AltitudeMeters>752.20001220703125</AltitudeMeters>
            <DistanceMeters>NAN</DistanceMeters>
          </Trackpoint>
          <Trackpoint>
            <Time>2020-03-07T18:15:57.000Z</Time>
            <Position>
              <LatitudeDegrees>40.56726269423961639404296875</LatitudeDegrees>
              <LongitudeDegrees>-3.712836764752864837646484375</LongitudeDegrees>
            </Position>
            <AltitudeMeters>752.4000244140625</AltitudeMeters>
            <DistanceMeters>NAN</DistanceMeters>
          </Trackpoint>
          <Trackpoint>
            <Time>2020-03-07T18:15:58.000Z</Time>
            <Position>
              <LatitudeDegrees>40.56722656823694705963134765625</LatitudeDegrees>
              <LongitudeDegrees>-3.71286467649042606353759765625</LongitudeDegrees>
            </Position>
            <AltitudeMeters>752.4000244140625</AltitudeMeters>
            <DistanceMeters>NAN</DistanceMeters>
          </Trackpoint>
          <Trackpoint>
            <Time>2020-03-07T18:15:59.000Z</Time>
            <Position>
              <LatitudeDegrees>40.56719237007200717926025390625</LatitudeDegrees>
              <LongitudeDegrees>-3.71289334259927272796630859375</LongitudeDegrees>
            </Position>
            <AltitudeMeters>752.4000244140625</AltitudeMeters>
            <DistanceMeters>NAN</DistanceMeters>
          </Trackpoint>
          <Trackpoint>
            <Time>2020-03-07T18:16:00.000Z</Time>
            <Position>
              <LatitudeDegrees>40.567157752811908721923828125</LatitudeDegrees>
              <LongitudeDegrees>-3.71292334981262683868408203125</LongitudeDegrees>
            </Position>
            <AltitudeMeters>752.4000244140625</AltitudeMeters>
            <DistanceMeters>NAN</DistanceMeters>
          </Trackpoint>
          <Trackpoint>
            <Time>2020-03-07T18:16:01.000Z</Time>
            <Position>
              <LatitudeDegrees>40.56712481193244457244873046875</LatitudeDegrees>
              <LongitudeDegrees>-3.71295335702598094940185546875</LongitudeDegrees>
            </Position>
            <AltitudeMeters>752.5999755859375</AltitudeMeters>
            <DistanceMeters>NAN</DistanceMeters>
          </Trackpoint>
          <Trackpoint>
            <Time>2020-03-07T18:16:02.000Z</Time>
            <Position>
              <LatitudeDegrees>40.5670928768813610076904296875</LatitudeDegrees>
              <LongitudeDegrees>-3.7129847891628742218017578125</LongitudeDegrees>
            </Position>
            <AltitudeMeters>752.79998779296875</AltitudeMeters>
            <DistanceMeters>NAN</DistanceMeters>
          </Trackpoint>
          <Trackpoint>
            <Time>2020-03-07T18:16:03.000Z</Time>
            <Position>
              <LatitudeDegrees>40.56706379167735576629638671875</LatitudeDegrees>
              <LongitudeDegrees>-3.71301437728106975555419921875</LongitudeDegrees>
            </Position>
            <AltitudeMeters>752.79998779296875</AltitudeMeters>
            <DistanceMeters>NAN</DistanceMeters>
          </Trackpoint>
          <Trackpoint>
            <Time>2020-03-07T18:16:04.000Z</Time>
            <Position>
              <LatitudeDegrees>40.56703579612076282501220703125</LatitudeDegrees>
              <LongitudeDegrees>-3.71304295957088470458984375</LongitudeDegrees>
            </Position>
            <AltitudeMeters>753</AltitudeMeters>
            <DistanceMeters>NAN</DistanceMeters>
          </Trackpoint>
          <Trackpoint>
            <Time>2020-03-07T18:16:05.000Z</Time>
            <Position>
              <LatitudeDegrees>40.567008219659328460693359375</LatitudeDegrees>
              <LongitudeDegrees>-3.71307103894650936126708984375</LongitudeDegrees>
            </Position>
            <AltitudeMeters>753.20001220703125</AltitudeMeters>
            <DistanceMeters>NAN</DistanceMeters>
          </Trackpoint>
          <Trackpoint>
            <Time>2020-03-07T18:16:06.000Z</Time>
            <Position>
              <LatitudeDegrees>40.56698014028370380401611328125</LatitudeDegrees>
              <LongitudeDegrees>-3.71310037560760974884033203125</LongitudeDegrees>
            </Position>
            <AltitudeMeters>753.4000244140625</AltitudeMeters>
            <DistanceMeters>NAN</DistanceMeters>
          </Trackpoint>
          <Trackpoint>
            <Time>2020-03-07T18:16:07.000Z</Time>
            <Position>
              <LatitudeDegrees>40.566954910755157470703125</LatitudeDegrees>
              <LongitudeDegrees>-3.71313147246837615966796875</LongitudeDegrees>
            </Position>
            <AltitudeMeters>753.5999755859375</AltitudeMeters>
            <DistanceMeters>NAN</DistanceMeters>
          </Trackpoint>
          <Trackpoint>
            <Time>2020-03-07T18:16:08.000Z</Time>
            <Position>
              <LatitudeDegrees>40.56693018414080142974853515625</LatitudeDegrees>
              <LongitudeDegrees>-3.7131641618907451629638671875</LongitudeDegrees>
            </Position>
            <AltitudeMeters>753.79998779296875</AltitudeMeters>
            <DistanceMeters>NAN</DistanceMeters>
          </Trackpoint>
          <Trackpoint>
            <Time>2020-03-07T18:16:09.000Z</Time>
            <Position>
              <LatitudeDegrees>40.5669044516980648040771484375</LatitudeDegrees>
              <LongitudeDegrees>-3.7131960131227970123291015625</LongitudeDegrees>
            </Position>
            <AltitudeMeters>754</AltitudeMeters>
            <DistanceMeters>NAN</DistanceMeters>
          </Trackpoint>
          <Trackpoint>
            <Time>2020-03-07T18:16:10.000Z</Time>
            <Position>
              <LatitudeDegrees>40.56687586940824985504150390625</LatitudeDegrees>
              <LongitudeDegrees>-3.7132246792316436767578125</LongitudeDegrees>
            </Position>
            <AltitudeMeters>754.4000244140625</AltitudeMeters>
            <DistanceMeters>NAN</DistanceMeters>
          </Trackpoint>
          <Trackpoint>
            <Time>2020-03-07T18:16:11.000Z</Time>
            <Position>
              <LatitudeDegrees>40.56684586219489574432373046875</LatitudeDegrees>
              <LongitudeDegrees>-3.71325091458857059478759765625</LongitudeDegrees>
            </Position>
            <AltitudeMeters>754.5999755859375</AltitudeMeters>
            <DistanceMeters>NAN</DistanceMeters>
          </Trackpoint>
          <Trackpoint>
            <Time>2020-03-07T18:16:12.000Z</Time>
            <Position>
              <LatitudeDegrees>40.56681551970541477203369140625</LatitudeDegrees>
              <LongitudeDegrees>-3.71327698230743408203125</LongitudeDegrees>
            </Position>
            <AltitudeMeters>755</AltitudeMeters>
            <DistanceMeters>NAN</DistanceMeters>
          </Trackpoint>
          <Trackpoint>
            <Time>2020-03-07T18:16:13.000Z</Time>
            <Position>
              <LatitudeDegrees>40.56678484193980693817138671875</LatitudeDegrees>
              <LongitudeDegrees>-3.7133038043975830078125</LongitudeDegrees>
            </Position>
            <AltitudeMeters>755.20001220703125</AltitudeMeters>
            <DistanceMeters>NAN</DistanceMeters>
          </Trackpoint>
          <Trackpoint>
            <Time>2020-03-07T18:16:14.000Z</Time>
            <Position>
              <LatitudeDegrees>40.566752068698406219482421875</LatitudeDegrees>
              <LongitudeDegrees>-3.71332886628806591033935546875</LongitudeDegrees>
            </Position>
            <AltitudeMeters>755.20001220703125</AltitudeMeters>
            <DistanceMeters>NAN</DistanceMeters>
          </Trackpoint>
          <Trackpoint>
            <Time>2020-03-07T18:16:15.000Z</Time>
            <Position>
              <LatitudeDegrees>40.56672248058021068572998046875</LatitudeDegrees>
              <LongitudeDegrees>-3.71335702948272228240966796875</LongitudeDegrees>
            </Position>
            <AltitudeMeters>755.4000244140625</AltitudeMeters>
            <DistanceMeters>NAN</DistanceMeters>
          </Trackpoint>
          <Trackpoint>
            <Time>2020-03-07T18:16:16.000Z</Time>
            <Position>
              <LatitudeDegrees>40.5666952393949031829833984375</LatitudeDegrees>
              <LongitudeDegrees>-3.7133856117725372314453125</LongitudeDegrees>
            </Position>
            <AltitudeMeters>755.5999755859375</AltitudeMeters>
            <DistanceMeters>NAN</DistanceMeters>
          </Trackpoint>
          <Trackpoint>
            <Time>2020-03-07T18:16:17.000Z</Time>
            <Position>
              <LatitudeDegrees>40.566668249666690826416015625</LatitudeDegrees>
              <LongitudeDegrees>-3.71341352351009845733642578125</LongitudeDegrees>
            </Position>
            <AltitudeMeters>755.5999755859375</AltitudeMeters>
            <DistanceMeters>NAN</DistanceMeters>
          </Trackpoint>
          <Trackpoint>
            <Time>2020-03-07T18:16:18.000Z</Time>
            <Position>
              <LatitudeDegrees>40.5666385777294635772705078125</LatitudeDegrees>
              <LongitudeDegrees>-3.71343950740993022918701171875</LongitudeDegrees>
            </Position>
            <AltitudeMeters>755.79998779296875</AltitudeMeters>
            <DistanceMeters>NAN</DistanceMeters>
          </Trackpoint>
          <Trackpoint>
            <Time>2020-03-07T18:16:19.000Z</Time>
            <Position>
              <LatitudeDegrees>40.566608570516109466552734375</LatitudeDegrees>
              <LongitudeDegrees>-3.71346565894782543182373046875</LongitudeDegrees>
            </Position>
            <AltitudeMeters>756</AltitudeMeters>
            <DistanceMeters>NAN</DistanceMeters>
          </Trackpoint>
          <Trackpoint>
            <Time>2020-03-07T18:16:20.000Z</Time>
            <Position>
              <LatitudeDegrees>40.5665785633027553558349609375</LatitudeDegrees>
              <LongitudeDegrees>-3.7134917266666889190673828125</LongitudeDegrees>
            </Position>
            <AltitudeMeters>756.20001220703125</AltitudeMeters>
            <DistanceMeters>NAN</DistanceMeters>
          </Trackpoint>
          <Trackpoint>
            <Time>2020-03-07T18:16:21.000Z</Time>
            <Position>
              <LatitudeDegrees>40.56654914282262325286865234375</LatitudeDegrees>
              <LongitudeDegrees>-3.71351863257586956024169921875</LongitudeDegrees>
            </Position>
            <AltitudeMeters>756.20001220703125</AltitudeMeters>
            <DistanceMeters>NAN</DistanceMeters>
          </Trackpoint>
          <Trackpoint>
            <Time>2020-03-07T18:16:22.000Z</Time>
            <Position>
              <LatitudeDegrees>40.56652148254215717315673828125</LatitudeDegrees>
              <LongitudeDegrees>-3.71354746632277965545654296875</LongitudeDegrees>
            </Position>
            <AltitudeMeters>756.4000244140625</AltitudeMeters>
            <DistanceMeters>NAN</DistanceMeters>
          </Trackpoint>
          <Trackpoint>
            <Time>2020-03-07T18:16:23.000Z</Time>
            <Position>
              <LatitudeDegrees>40.56649583391845226287841796875</LatitudeDegrees>
              <LongitudeDegrees>-3.7135738693177700042724609375</LongitudeDegrees>
            </Position>
            <AltitudeMeters>756.5999755859375</AltitudeMeters>
            <DistanceMeters>NAN</DistanceMeters>
          </Trackpoint>
          <Trackpoint>
            <Time>2020-03-07T18:16:24.000Z</Time>
            <Position>
              <LatitudeDegrees>40.56647236458957195281982421875</LatitudeDegrees>
              <LongitudeDegrees>-3.71359909884631633758544921875</LongitudeDegrees>
            </Position>
            <AltitudeMeters>756.5999755859375</AltitudeMeters>
            <DistanceMeters>NAN</DistanceMeters>
          </Trackpoint>
          <Trackpoint>
            <Time>2020-03-07T18:16:25.000Z</Time>
            <Position>
              <LatitudeDegrees>40.5664494819939136505126953125</LatitudeDegrees>
              <LongitudeDegrees>-3.7136214785277843475341796875</LongitudeDegrees>
            </Position>
            <AltitudeMeters>756.79998779296875</AltitudeMeters>
            <DistanceMeters>NAN</DistanceMeters>
          </Trackpoint>
          <Trackpoint>
            <Time>2020-03-07T18:16:26.000Z</Time>
            <Position>
              <LatitudeDegrees>40.5664256773889064788818359375</LatitudeDegrees>
              <LongitudeDegrees>-3.71364050544798374176025390625</LongitudeDegrees>
            </Position>
            <AltitudeMeters>757</AltitudeMeters>
            <DistanceMeters>NAN</DistanceMeters>
          </Trackpoint>
          <Trackpoint>
            <Time>2020-03-07T18:16:27.000Z</Time>
            <Position>
              <LatitudeDegrees>40.56640011258423328399658203125</LatitudeDegrees>
              <LongitudeDegrees>-3.71365576051175594329833984375</LongitudeDegrees>
            </Position>
            <AltitudeMeters>757.20001220703125</AltitudeMeters>
            <DistanceMeters>NAN</DistanceMeters>
          </Trackpoint>
          <Trackpoint>
            <Time>2020-03-07T18:16:28.000Z</Time>
            <Position>
              <LatitudeDegrees>40.56637194938957691192626953125</LatitudeDegrees>
              <LongitudeDegrees>-3.7136697582900524139404296875</LongitudeDegrees>
            </Position>
            <AltitudeMeters>757.20001220703125</AltitudeMeters>
            <DistanceMeters>NAN</DistanceMeters>
          </Trackpoint>
          <Trackpoint>
            <Time>2020-03-07T18:16:29.000Z</Time>
            <Position>
              <LatitudeDegrees>40.5663448758423328399658203125</LatitudeDegrees>
              <LongitudeDegrees>-3.7136878632009029388427734375</LongitudeDegrees>
            </Position>
            <AltitudeMeters>757.4000244140625</AltitudeMeters>
            <DistanceMeters>NAN</DistanceMeters>
          </Trackpoint>
          <Trackpoint>
            <Time>2020-03-07T18:16:30.000Z</Time>
            <Position>
              <LatitudeDegrees>40.56631897576153278350830078125</LatitudeDegrees>
              <LongitudeDegrees>-3.713713176548480987548828125</LongitudeDegrees>
            </Position>
            <AltitudeMeters>757.5999755859375</AltitudeMeters>
            <DistanceMeters>NAN</DistanceMeters>
          </Trackpoint>
          <Trackpoint>
            <Time>2020-03-07T18:16:31.000Z</Time>
            <Position>
              <LatitudeDegrees>40.566296763718128204345703125</LatitudeDegrees>
              <LongitudeDegrees>-3.71374544687569141387939453125</LongitudeDegrees>
            </Position>
            <AltitudeMeters>758</AltitudeMeters>
            <DistanceMeters>NAN</DistanceMeters>
          </Trackpoint>
          <Trackpoint>
            <Time>2020-03-07T18:16:32.000Z</Time>
            <Position>
              <LatitudeDegrees>40.56627622805535793304443359375</LatitudeDegrees>
              <LongitudeDegrees>-3.7137773819267749786376953125</LongitudeDegrees>
            </Position>
            <AltitudeMeters>758.4000244140625</AltitudeMeters>
            <DistanceMeters>NAN</DistanceMeters>
          </Trackpoint>
          <Trackpoint>
            <Time>2020-03-07T18:16:33.000Z</Time>
            <Position>
              <LatitudeDegrees>40.56625510565936565399169921875</LatitudeDegrees>
              <LongitudeDegrees>-3.7138094007968902587890625</LongitudeDegrees>
            </Position>
            <AltitudeMeters>758.79998779296875</AltitudeMeters>
            <DistanceMeters>NAN</DistanceMeters>
          </Trackpoint>
          <Trackpoint>
            <Time>2020-03-07T18:16:34.000Z</Time>
            <Position>
              <LatitudeDegrees>40.56623415090143680572509765625</LatitudeDegrees>
              <LongitudeDegrees>-3.713835887610912322998046875</LongitudeDegrees>
            </Position>
            <AltitudeMeters>759.4000244140625</AltitudeMeters>
            <DistanceMeters>NAN</DistanceMeters>
          </Trackpoint>
          <Trackpoint>
            <Time>2020-03-07T18:16:35.000Z</Time>
            <Position>
              <LatitudeDegrees>40.56621436960995197296142578125</LatitudeDegrees>
              <LongitudeDegrees>-3.7138581834733486175537109375</LongitudeDegrees>
            </Position>
            <AltitudeMeters>760</AltitudeMeters>
            <DistanceMeters>NAN</DistanceMeters>
          </Trackpoint>
          <Trackpoint>
            <Time>2020-03-07T18:16:36.000Z</Time>
            <Position>
              <LatitudeDegrees>40.56619626469910144805908203125</LatitudeDegrees>
              <LongitudeDegrees>-3.71387905441224575042724609375</LongitudeDegrees>
            </Position>
            <AltitudeMeters>760.4000244140625</AltitudeMeters>
            <DistanceMeters>NAN</DistanceMeters>
          </Trackpoint>
          <Trackpoint>
            <Time>2020-03-07T18:16:52.000Z</Time>
            <Position>
              <LatitudeDegrees>40.56611496023833751678466796875</LatitudeDegrees>
              <LongitudeDegrees>-3.71399640105664730072021484375</LongitudeDegrees>
            </Position>
            <AltitudeMeters>763.20001220703125</AltitudeMeters>
            <DistanceMeters>NAN</DistanceMeters>
          </Trackpoint>
          <Trackpoint>
            <Time>2020-03-07T18:16:53.000Z</Time>
            <Position>
              <LatitudeDegrees>40.5660873837769031524658203125</LatitudeDegrees>
              <LongitudeDegrees>-3.71402422897517681121826171875</LongitudeDegrees>
            </Position>
            <AltitudeMeters>763.20001220703125</AltitudeMeters>
            <DistanceMeters>NAN</DistanceMeters>
          </Trackpoint>
          <Trackpoint>
            <Time>2020-03-07T18:16:54.000Z</Time>
            <Position>
              <LatitudeDegrees>40.5660550296306610107421875</LatitudeDegrees>
              <LongitudeDegrees>-3.71405373327434062957763671875</LongitudeDegrees>
            </Position>
            <AltitudeMeters>763.20001220703125</AltitudeMeters>
            <DistanceMeters>NAN</DistanceMeters>
          </Trackpoint>
          <Trackpoint>
            <Time>2020-03-07T18:16:55.000Z</Time>
            <Position>
              <LatitudeDegrees>40.566021166741847991943359375</LatitudeDegrees>
              <LongitudeDegrees>-3.71408231556415557861328125</LongitudeDegrees>
            </Position>
            <AltitudeMeters>763.20001220703125</AltitudeMeters>
            <DistanceMeters>NAN</DistanceMeters>
          </Trackpoint>
          <Trackpoint>
            <Time>2020-03-07T18:16:56.000Z</Time>
            <Position>
              <LatitudeDegrees>40.56598571129143238067626953125</LatitudeDegrees>
              <LongitudeDegrees>-3.7141113169491291046142578125</LongitudeDegrees>
            </Position>
            <AltitudeMeters>763.20001220703125</AltitudeMeters>
            <DistanceMeters>NAN</DistanceMeters>
          </Trackpoint>
          <Trackpoint>
            <Time>2020-03-07T18:16:57.000Z</Time>
            <Position>
              <LatitudeDegrees>40.5659519322216510772705078125</LatitudeDegrees>
              <LongitudeDegrees>-3.714138977229595184326171875</LongitudeDegrees>
            </Position>
            <AltitudeMeters>763.20001220703125</AltitudeMeters>
            <DistanceMeters>NAN</DistanceMeters>
          </Trackpoint>
          <Trackpoint>
            <Time>2020-03-07T18:16:58.000Z</Time>
            <Position>
              <LatitudeDegrees>40.56591630913317203521728515625</LatitudeDegrees>
              <LongitudeDegrees>-3.71416588313877582550048828125</LongitudeDegrees>
            </Position>
            <AltitudeMeters>763.20001220703125</AltitudeMeters>
            <DistanceMeters>NAN</DistanceMeters>
          </Trackpoint>
          <Trackpoint>
            <Time>2020-03-07T18:16:59.000Z</Time>
            <Position>
              <LatitudeDegrees>40.565882362425327301025390625</LatitudeDegrees>
              <LongitudeDegrees>-3.7141956388950347900390625</LongitudeDegrees>
            </Position>
            <AltitudeMeters>763.20001220703125</AltitudeMeters>
            <DistanceMeters>NAN</DistanceMeters>
          </Trackpoint>
          <Trackpoint>
            <Time>2020-03-07T18:17:00.000Z</Time>
            <Position>
              <LatitudeDegrees>40.56584556587040424346923828125</LatitudeDegrees>
              <LongitudeDegrees>-3.714223466813564300537109375</LongitudeDegrees>
            </Position>
            <AltitudeMeters>763.20001220703125</AltitudeMeters>
            <DistanceMeters>NAN</DistanceMeters>
          </Trackpoint>
          <Trackpoint>
            <Time>2020-03-07T18:17:01.000Z</Time>
            <Position>
              <LatitudeDegrees>40.56580667383968830108642578125</LatitudeDegrees>
              <LongitudeDegrees>-3.71424869634211063385009765625</LongitudeDegrees>
            </Position>
            <AltitudeMeters>763</AltitudeMeters>
            <DistanceMeters>NAN</DistanceMeters>
          </Trackpoint>
          <Trackpoint>
            <Time>2020-03-07T18:17:02.000Z</Time>
            <Position>
              <LatitudeDegrees>40.565767697989940643310546875</LatitudeDegrees>
              <LongitudeDegrees>-3.71427736245095729827880859375</LongitudeDegrees>
            </Position>
            <AltitudeMeters>762.79998779296875</AltitudeMeters>
            <DistanceMeters>NAN</DistanceMeters>
          </Trackpoint>
          <Trackpoint>
            <Time>2020-03-07T18:17:03.000Z</Time>
            <Position>
              <LatitudeDegrees>40.5657246150076389312744140625</LatitudeDegrees>
              <LongitudeDegrees>-3.7143057771027088165283203125</LongitudeDegrees>
            </Position>
            <AltitudeMeters>762.5999755859375</AltitudeMeters>
            <DistanceMeters>NAN</DistanceMeters>
          </Trackpoint>
          <Trackpoint>
            <Time>2020-03-07T18:17:04.000Z</Time>
            <Position>
              <LatitudeDegrees>40.56567809544503688812255859375</LatitudeDegrees>
              <LongitudeDegrees>-3.71433452703058719635009765625</LongitudeDegrees>
            </Position>
            <AltitudeMeters>762.5999755859375</AltitudeMeters>
            <DistanceMeters>NAN</DistanceMeters>
          </Trackpoint>
          <Trackpoint>
            <Time>2020-03-07T18:17:05.000Z</Time>
            <Position>
              <LatitudeDegrees>40.565627552568912506103515625</LatitudeDegrees>
              <LongitudeDegrees>-3.71436118148267269134521484375</LongitudeDegrees>
            </Position>
            <AltitudeMeters>762.4000244140625</AltitudeMeters>
            <DistanceMeters>NAN</DistanceMeters>
          </Trackpoint>
          <Trackpoint>
            <Time>2020-03-07T18:17:06.000Z</Time>
            <Position>
              <LatitudeDegrees>40.56557432748377323150634765625</LatitudeDegrees>
              <LongitudeDegrees>-3.714391104876995086669921875</LongitudeDegrees>
            </Position>
            <AltitudeMeters>762.20001220703125</AltitudeMeters>
            <DistanceMeters>NAN</DistanceMeters>
          </Trackpoint>
          <Trackpoint>
            <Time>2020-03-07T18:17:07.000Z</Time>
            <Position>
              <LatitudeDegrees>40.565519593656063079833984375</LatitudeDegrees>
              <LongitudeDegrees>-3.7144231237471103668212890625</LongitudeDegrees>
            </Position>
            <AltitudeMeters>762.20001220703125</AltitudeMeters>
            <DistanceMeters>NAN</DistanceMeters>
          </Trackpoint>
          <Trackpoint>
            <Time>2020-03-07T18:17:08.000Z</Time>
            <Position>
              <LatitudeDegrees>40.5654627643525600433349609375</LatitudeDegrees>
              <LongitudeDegrees>-3.71445455588400363922119140625</LongitudeDegrees>
            </Position>
            <AltitudeMeters>762.20001220703125</AltitudeMeters>
            <DistanceMeters>NAN</DistanceMeters>
          </Trackpoint>
          <Trackpoint>
            <Time>2020-03-07T18:17:09.000Z</Time>
            <Position>
              <LatitudeDegrees>40.56540333665907382965087890625</LatitudeDegrees>
              <LongitudeDegrees>-3.71448322199285030364990234375</LongitudeDegrees>
            </Position>
            <AltitudeMeters>762</AltitudeMeters>
            <DistanceMeters>NAN</DistanceMeters>
          </Trackpoint>
          <Trackpoint>
            <Time>2020-03-07T18:17:10.000Z</Time>
            <Position>
              <LatitudeDegrees>40.56534114293754100799560546875</LatitudeDegrees>
              <LongitudeDegrees>-3.71450744569301605224609375</LongitudeDegrees>
            </Position>
            <AltitudeMeters>761.79998779296875</AltitudeMeters>
            <DistanceMeters>NAN</DistanceMeters>
          </Trackpoint>
          <Trackpoint>
            <Time>2020-03-07T18:17:11.000Z</Time>
            <Position>
              <LatitudeDegrees>40.56527408771216869354248046875</LatitudeDegrees>
              <LongitudeDegrees>-3.7145255506038665771484375</LongitudeDegrees>
            </Position>
            <AltitudeMeters>761.4000244140625</AltitudeMeters>
            <DistanceMeters>NAN</DistanceMeters>
          </Trackpoint>
          <Trackpoint>
            <Time>2020-03-07T18:17:12.000Z</Time>
            <Position>
              <LatitudeDegrees>40.56520233862102031707763671875</LatitudeDegrees>
              <LongitudeDegrees>-3.71454088948667049407958984375</LongitudeDegrees>
            </Position>
            <AltitudeMeters>760.79998779296875</AltitudeMeters>
            <DistanceMeters>NAN</DistanceMeters>
          </Trackpoint>
          <Trackpoint>
            <Time>2020-03-07T18:17:13.000Z</Time>
            <Position>
              <LatitudeDegrees>40.56512807495892047882080078125</LatitudeDegrees>
              <LongitudeDegrees>-3.7145575694739818572998046875</LongitudeDegrees>
            </Position>
            <AltitudeMeters>760.5999755859375</AltitudeMeters>
            <DistanceMeters>NAN</DistanceMeters>
          </Trackpoint>
          <Trackpoint>
            <Time>2020-03-07T18:17:14.000Z</Time>
            <Position>
              <LatitudeDegrees>40.56505314074456691741943359375</LatitudeDegrees>
              <LongitudeDegrees>-3.71457676403224468231201171875</LongitudeDegrees>
            </Position>
            <AltitudeMeters>760.4000244140625</AltitudeMeters>
            <DistanceMeters>NAN</DistanceMeters>
          </Trackpoint>
          <Trackpoint>
            <Time>2020-03-07T18:17:15.000Z</Time>
            <Position>
              <LatitudeDegrees>40.56497837416827678680419921875</LatitudeDegrees>
              <LongitudeDegrees>-3.71459654532372951507568359375</LongitudeDegrees>
            </Position>
            <AltitudeMeters>760</AltitudeMeters>
            <DistanceMeters>NAN</DistanceMeters>
          </Trackpoint>
          <Trackpoint>
            <Time>2020-03-07T18:17:16.000Z</Time>
            <Position>
              <LatitudeDegrees>40.564903356134891510009765625</LatitudeDegrees>
              <LongitudeDegrees>-3.71461146511137485504150390625</LongitudeDegrees>
            </Position>
            <AltitudeMeters>759.4000244140625</AltitudeMeters>
            <DistanceMeters>NAN</DistanceMeters>
          </Trackpoint>
          <Trackpoint>
            <Time>2020-03-07T18:17:17.000Z</Time>
            <Position>
              <LatitudeDegrees>40.5648290924727916717529296875</LatitudeDegrees>
              <LongitudeDegrees>-3.7146212719380855560302734375</LongitudeDegrees>
            </Position>
            <AltitudeMeters>759</AltitudeMeters>
            <DistanceMeters>NAN</DistanceMeters>
          </Trackpoint>
          <Trackpoint>
            <Time>2020-03-07T18:17:18.000Z</Time>
            <Position>
              <LatitudeDegrees>40.56475608609616756439208984375</LatitudeDegrees>
              <LongitudeDegrees>-3.71462655253708362579345703125</LongitudeDegrees>
            </Position>
            <AltitudeMeters>758.4000244140625</AltitudeMeters>
            <DistanceMeters>NAN</DistanceMeters>
          </Trackpoint>
          <Trackpoint>
            <Time>2020-03-07T18:17:19.000Z</Time>
            <Position>
              <LatitudeDegrees>40.56468551047146320343017578125</LatitudeDegrees>
              <LongitudeDegrees>-3.71462906710803508758544921875</LongitudeDegrees>
            </Position>
            <AltitudeMeters>757.79998779296875</AltitudeMeters>
            <DistanceMeters>NAN</DistanceMeters>
          </Trackpoint>
          <Trackpoint>
            <Time>2020-03-07T18:17:20.000Z</Time>
            <Position>
              <LatitudeDegrees>40.5646175332367420196533203125</LatitudeDegrees>
              <LongitudeDegrees>-3.7146326713263988494873046875</LongitudeDegrees>
            </Position>
            <AltitudeMeters>757.4000244140625</AltitudeMeters>
            <DistanceMeters>NAN</DistanceMeters>
          </Trackpoint>
          <Trackpoint>
            <Time>2020-03-07T18:17:21.000Z</Time>
            <Position>
              <LatitudeDegrees>40.56455274112522602081298828125</LatitudeDegrees>
              <LongitudeDegrees>-3.7146353535354137420654296875</LongitudeDegrees>
            </Position>
            <AltitudeMeters>756.79998779296875</AltitudeMeters>
            <DistanceMeters>NAN</DistanceMeters>
          </Trackpoint>
          <Trackpoint>
            <Time>2020-03-07T18:17:22.000Z</Time>
            <Position>
              <LatitudeDegrees>40.5644921399652957916259765625</LatitudeDegrees>
              <LongitudeDegrees>-3.71463677845895290374755859375</LongitudeDegrees>
            </Position>
            <AltitudeMeters>756.20001220703125</AltitudeMeters>
            <DistanceMeters>NAN</DistanceMeters>
          </Trackpoint>
          <Trackpoint>
            <Time>2020-03-07T18:17:23.000Z</Time>
            <Position>
              <LatitudeDegrees>40.56443355046212673187255859375</LatitudeDegrees>
              <LongitudeDegrees>-3.71463594026863574981689453125</LongitudeDegrees>
            </Position>
            <AltitudeMeters>756</AltitudeMeters>
            <DistanceMeters>NAN</DistanceMeters>
          </Trackpoint>
          <Trackpoint>
            <Time>2020-03-07T18:17:24.000Z</Time>
            <Position>
              <LatitudeDegrees>40.56437588296830654144287109375</LatitudeDegrees>
              <LongitudeDegrees>-3.71463359333574771881103515625</LongitudeDegrees>
            </Position>
            <AltitudeMeters>755.79998779296875</AltitudeMeters>
            <DistanceMeters>NAN</DistanceMeters>
          </Trackpoint>
          <Trackpoint>
            <Time>2020-03-07T18:17:25.000Z</Time>
            <Position>
              <LatitudeDegrees>40.5643208138644695281982421875</LatitudeDegrees>
              <LongitudeDegrees>-3.71463141404092311859130859375</LongitudeDegrees>
            </Position>
            <AltitudeMeters>755.79998779296875</AltitudeMeters>
            <DistanceMeters>NAN</DistanceMeters>
          </Trackpoint>
          <Trackpoint>
            <Time>2020-03-07T18:17:26.000Z</Time>
            <Position>
              <LatitudeDegrees>40.56426708586513996124267578125</LatitudeDegrees>
              <LongitudeDegrees>-3.714625127613544464111328125</LongitudeDegrees>
            </Position>
            <AltitudeMeters>755.79998779296875</AltitudeMeters>
            <DistanceMeters>NAN</DistanceMeters>
          </Trackpoint>
          <Trackpoint>
            <Time>2020-03-07T18:17:27.000Z</Time>
            <Position>
              <LatitudeDegrees>40.56421679444611072540283203125</LatitudeDegrees>
              <LongitudeDegrees>-3.71461750008165836334228515625</LongitudeDegrees>
            </Position>
            <AltitudeMeters>755.79998779296875</AltitudeMeters>
            <DistanceMeters>NAN</DistanceMeters>
          </Trackpoint>
          <Trackpoint>
            <Time>2020-03-07T18:17:28.000Z</Time>
            <Position>
              <LatitudeDegrees>40.56416633538901805877685546875</LatitudeDegrees>
              <LongitudeDegrees>-3.7146045081317424774169921875</LongitudeDegrees>
            </Position>
            <AltitudeMeters>755.79998779296875</AltitudeMeters>
            <DistanceMeters>NAN</DistanceMeters>
          </Trackpoint>
          <Trackpoint>
            <Time>2020-03-07T18:17:29.000Z</Time>
            <Position>
              <LatitudeDegrees>40.56411453522741794586181640625</LatitudeDegrees>
              <LongitudeDegrees>-3.71458967216312885284423828125</LongitudeDegrees>
            </Position>
            <AltitudeMeters>755.79998779296875</AltitudeMeters>
            <DistanceMeters>NAN</DistanceMeters>
          </Trackpoint>
          <Trackpoint>
            <Time>2020-03-07T18:17:30.000Z</Time>
            <Position>
              <LatitudeDegrees>40.564059130847454071044921875</LatitudeDegrees>
              <LongitudeDegrees>-3.7145738303661346435546875</LongitudeDegrees>
            </Position>
            <AltitudeMeters>755.79998779296875</AltitudeMeters>
            <DistanceMeters>NAN</DistanceMeters>
          </Trackpoint>
          <Trackpoint>
            <Time>2020-03-07T18:17:31.000Z</Time>
            <Position>
              <LatitudeDegrees>40.5640026368200778961181640625</LatitudeDegrees>
              <LongitudeDegrees>-3.71455932967364788055419921875</LongitudeDegrees>
            </Position>
            <AltitudeMeters>755.79998779296875</AltitudeMeters>
            <DistanceMeters>NAN</DistanceMeters>
          </Trackpoint>
          <Trackpoint>
            <Time>2020-03-07T18:17:32.000Z</Time>
            <Position>
              <LatitudeDegrees>40.56394622661173343658447265625</LatitudeDegrees>
              <LongitudeDegrees>-3.714545331895351409912109375</LongitudeDegrees>
            </Position>
            <AltitudeMeters>755.79998779296875</AltitudeMeters>
            <DistanceMeters>NAN</DistanceMeters>
          </Trackpoint>
          <Trackpoint>
            <Time>2020-03-07T18:17:33.000Z</Time>
            <Position>
              <LatitudeDegrees>40.56388772092759609222412109375</LatitudeDegrees>
              <LongitudeDegrees>-3.7145309150218963623046875</LongitudeDegrees>
            </Position>
            <AltitudeMeters>755.79998779296875</AltitudeMeters>
            <DistanceMeters>NAN</DistanceMeters>
          </Trackpoint>
          <Trackpoint>
            <Time>2020-03-07T18:17:34.000Z</Time>
            <Position>
              <LatitudeDegrees>40.563825108110904693603515625</LatitudeDegrees>
              <LongitudeDegrees>-3.7145173363387584686279296875</LongitudeDegrees>
            </Position>
            <AltitudeMeters>755.79998779296875</AltitudeMeters>
            <DistanceMeters>NAN</DistanceMeters>
          </Trackpoint>
          <Trackpoint>
            <Time>2020-03-07T18:17:35.000Z</Time>
            <Position>
              <LatitudeDegrees>40.56376433931291103363037109375</LatitudeDegrees>
              <LongitudeDegrees>-3.71450853534042835235595703125</LongitudeDegrees>
            </Position>
            <AltitudeMeters>755.79998779296875</AltitudeMeters>
            <DistanceMeters>NAN</DistanceMeters>
          </Trackpoint>
          <Trackpoint>
            <Time>2020-03-07T18:17:36.000Z</Time>
            <Position>
              <LatitudeDegrees>40.56370206177234649658203125</LatitudeDegrees>
              <LongitudeDegrees>-3.71449780650436878204345703125</LongitudeDegrees>
            </Position>
            <AltitudeMeters>755.79998779296875</AltitudeMeters>
            <DistanceMeters>NAN</DistanceMeters>
          </Trackpoint>
          <Trackpoint>
            <Time>2020-03-07T18:17:37.000Z</Time>
            <Position>
              <LatitudeDegrees>40.5636395327746868133544921875</LatitudeDegrees>
              <LongitudeDegrees>-3.7144905142486095428466796875</LongitudeDegrees>
            </Position>
            <AltitudeMeters>755.79998779296875</AltitudeMeters>
            <DistanceMeters>NAN</DistanceMeters>
          </Trackpoint>
          <Trackpoint>
            <Time>2020-03-07T18:17:38.000Z</Time>
            <Position>
              <LatitudeDegrees>40.5635741539299488067626953125</LatitudeDegrees>
              <LongitudeDegrees>-3.71447986923158168792724609375</LongitudeDegrees>
            </Position>
            <AltitudeMeters>755.79998779296875</AltitudeMeters>
            <DistanceMeters>NAN</DistanceMeters>
          </Trackpoint>
          <Trackpoint>
            <Time>2020-03-07T18:17:39.000Z</Time>
            <Position>
              <LatitudeDegrees>40.56350936181843280792236328125</LatitudeDegrees>
              <LongitudeDegrees>-3.71447366662323474884033203125</LongitudeDegrees>
            </Position>
            <AltitudeMeters>755.79998779296875</AltitudeMeters>
            <DistanceMeters>NAN</DistanceMeters>
          </Trackpoint>
          <Trackpoint>
            <Time>2020-03-07T18:17:40.000Z</Time>
            <Position>
              <LatitudeDegrees>40.56344230659306049346923828125</LatitudeDegrees>
              <LongitudeDegrees>-3.7144690565764904022216796875</LongitudeDegrees>
            </Position>
            <AltitudeMeters>755.79998779296875</AltitudeMeters>
            <DistanceMeters>NAN</DistanceMeters>
          </Trackpoint>
          <Trackpoint>
            <Time>2020-03-07T18:17:41.000Z</Time>
            <Position>
              <LatitudeDegrees>40.56337659247219562530517578125</LatitudeDegrees>
              <LongitudeDegrees>-3.71446779929101467132568359375</LongitudeDegrees>
            </Position>
            <AltitudeMeters>755.79998779296875</AltitudeMeters>
            <DistanceMeters>NAN</DistanceMeters>
          </Trackpoint>
          <Trackpoint>
            <Time>2020-03-07T18:17:42.000Z</Time>
            <Position>
              <LatitudeDegrees>40.56331020779907703399658203125</LatitudeDegrees>
              <LongitudeDegrees>-3.71446746401488780975341796875</LongitudeDegrees>
            </Position>
            <AltitudeMeters>755.79998779296875</AltitudeMeters>
            <DistanceMeters>NAN</DistanceMeters>
          </Trackpoint>
          <Trackpoint>
            <Time>2020-03-07T18:17:43.000Z</Time>
            <Position>
              <LatitudeDegrees>40.5632439069449901580810546875</LatitudeDegrees>
              <LongitudeDegrees>-3.71446813456714153289794921875</LongitudeDegrees>
            </Position>
            <AltitudeMeters>755.79998779296875</AltitudeMeters>
            <DistanceMeters>NAN</DistanceMeters>
          </Trackpoint>
          <Trackpoint>
            <Time>2020-03-07T18:17:44.000Z</Time>
            <Position>
              <LatitudeDegrees>40.56317592971026897430419921875</LatitudeDegrees>
              <LongitudeDegrees>-3.71447098441421985626220703125</LongitudeDegrees>
            </Position>
            <AltitudeMeters>755.5999755859375</AltitudeMeters>
            <DistanceMeters>NAN</DistanceMeters>
          </Trackpoint>
          <Trackpoint>
            <Time>2020-03-07T18:17:45.000Z</Time>
            <Position>
              <LatitudeDegrees>40.5631077848374843597412109375</LatitudeDegrees>
              <LongitudeDegrees>-3.7144760973751544952392578125</LongitudeDegrees>
            </Position>
            <AltitudeMeters>755.5999755859375</AltitudeMeters>
            <DistanceMeters>NAN</DistanceMeters>
          </Trackpoint>
          <Trackpoint>
            <Time>2020-03-07T18:17:46.000Z</Time>
            <Position>
              <LatitudeDegrees>40.5630390532314777374267578125</LatitudeDegrees>
              <LongitudeDegrees>-3.71448037214577198028564453125</LongitudeDegrees>
            </Position>
            <AltitudeMeters>755.5999755859375</AltitudeMeters>
            <DistanceMeters>NAN</DistanceMeters>
          </Trackpoint>
          <Trackpoint>
            <Time>2020-03-07T18:17:47.000Z</Time>
            <Position>
              <LatitudeDegrees>40.5629689805209636688232421875</LatitudeDegrees>
              <LongitudeDegrees>-3.7144801206886768341064453125</LongitudeDegrees>
            </Position>
            <AltitudeMeters>755.4000244140625</AltitudeMeters>
            <DistanceMeters>NAN</DistanceMeters>
          </Trackpoint>
          <Trackpoint>
            <Time>2020-03-07T18:17:48.000Z</Time>
            <Position>
              <LatitudeDegrees>40.56289547123014926910400390625</LatitudeDegrees>
              <LongitudeDegrees>-3.71447433717548847198486328125</LongitudeDegrees>
            </Position>
            <AltitudeMeters>755.20001220703125</AltitudeMeters>
            <DistanceMeters>NAN</DistanceMeters>
          </Trackpoint>
          <Trackpoint>
            <Time>2020-03-07T18:17:49.000Z</Time>
            <Position>
              <LatitudeDegrees>40.5628214590251445770263671875</LatitudeDegrees>
              <LongitudeDegrees>-3.714462183415889739990234375</LongitudeDegrees>
            </Position>
            <AltitudeMeters>755</AltitudeMeters>
            <DistanceMeters>NAN</DistanceMeters>
          </Trackpoint>
          <Trackpoint>
            <Time>2020-03-07T18:17:50.000Z</Time>
            <Position>
              <LatitudeDegrees>40.5627478659152984619140625</LatitudeDegrees>
              <LongitudeDegrees>-3.71444382704794406890869140625</LongitudeDegrees>
            </Position>
            <AltitudeMeters>754.5999755859375</AltitudeMeters>
            <DistanceMeters>NAN</DistanceMeters>
          </Trackpoint>
          <Trackpoint>
            <Time>2020-03-07T18:17:51.000Z</Time>
            <Position>
              <LatitudeDegrees>40.5626725964248180389404296875</LatitudeDegrees>
              <LongitudeDegrees>-3.7144204415380954742431640625</LongitudeDegrees>
            </Position>
            <AltitudeMeters>754.4000244140625</AltitudeMeters>
            <DistanceMeters>NAN</DistanceMeters>
          </Trackpoint>
          <Trackpoint>
            <Time>2020-03-07T18:17:52.000Z</Time>
            <Position>
              <LatitudeDegrees>40.56259632110595703125</LatitudeDegrees>
              <LongitudeDegrees>-3.71439487673342227935791015625</LongitudeDegrees>
            </Position>
            <AltitudeMeters>754.20001220703125</AltitudeMeters>
            <DistanceMeters>NAN</DistanceMeters>
          </Trackpoint>
          <Trackpoint>
            <Time>2020-03-07T18:17:53.000Z</Time>
            <Position>
              <LatitudeDegrees>40.562518537044525146484375</LatitudeDegrees>
              <LongitudeDegrees>-3.714368641376495361328125</LongitudeDegrees>
            </Position>
            <AltitudeMeters>754</AltitudeMeters>
            <DistanceMeters>NAN</DistanceMeters>
          </Trackpoint>
          <Trackpoint>
            <Time>2020-03-07T18:17:54.000Z</Time>
            <Position>
              <LatitudeDegrees>40.56243899278342723846435546875</LatitudeDegrees>
              <LongitudeDegrees>-3.7143466807901859283447265625</LongitudeDegrees>
            </Position>
            <AltitudeMeters>753.5999755859375</AltitudeMeters>
            <DistanceMeters>NAN</DistanceMeters>
          </Trackpoint>
          <Trackpoint>
            <Time>2020-03-07T18:17:55.000Z</Time>
            <Position>
              <LatitudeDegrees>40.5623584426939487457275390625</LatitudeDegrees>
              <LongitudeDegrees>-3.71432815678417682647705078125</LongitudeDegrees>
            </Position>
            <AltitudeMeters>753.20001220703125</AltitudeMeters>
            <DistanceMeters>NAN</DistanceMeters>
          </Trackpoint>
          <Trackpoint>
            <Time>2020-03-07T18:17:56.000Z</Time>
            <Position>
              <LatitudeDegrees>40.56227738969027996063232421875</LatitudeDegrees>
              <LongitudeDegrees>-3.714307956397533416748046875</LongitudeDegrees>
            </Position>
            <AltitudeMeters>752.79998779296875</AltitudeMeters>
            <DistanceMeters>NAN</DistanceMeters>
          </Trackpoint>
          <Trackpoint>
            <Time>2020-03-07T18:17:57.000Z</Time>
            <Position>
              <LatitudeDegrees>40.5621961690485477447509765625</LatitudeDegrees>
              <LongitudeDegrees>-3.714285828173160552978515625</LongitudeDegrees>
            </Position>
            <AltitudeMeters>752.4000244140625</AltitudeMeters>
            <DistanceMeters>NAN</DistanceMeters>
          </Trackpoint>
          <Trackpoint>
            <Time>2020-03-07T18:17:58.000Z</Time>
            <Position>
              <LatitudeDegrees>40.5621148645877838134765625</LatitudeDegrees>
              <LongitudeDegrees>-3.71426529251039028167724609375</LongitudeDegrees>
            </Position>
            <AltitudeMeters>752</AltitudeMeters>
            <DistanceMeters>NAN</DistanceMeters>
          </Trackpoint>
          <Trackpoint>
            <Time>2020-03-07T18:17:59.000Z</Time>
            <Position>
              <LatitudeDegrees>40.5620332248508930206298828125</LatitudeDegrees>
              <LongitudeDegrees>-3.714245595037937164306640625</LongitudeDegrees>
            </Position>
            <AltitudeMeters>751.5999755859375</AltitudeMeters>
            <DistanceMeters>NAN</DistanceMeters>
          </Trackpoint>
          <Trackpoint>
            <Time>2020-03-07T18:18:00.000Z</Time>
            <Position>
              <LatitudeDegrees>40.5619534291326999664306640625</LatitudeDegrees>
              <LongitudeDegrees>-3.71422438882291316986083984375</LongitudeDegrees>
            </Position>
            <AltitudeMeters>751.4000244140625</AltitudeMeters>
            <DistanceMeters>NAN</DistanceMeters>
          </Trackpoint>
          <Trackpoint>
            <Time>2020-03-07T18:18:01.000Z</Time>
            <Position>
              <LatitudeDegrees>40.56187304668128490447998046875</LatitudeDegrees>
              <LongitudeDegrees>-3.71419957838952541351318359375</LongitudeDegrees>
            </Position>
            <AltitudeMeters>751</AltitudeMeters>
            <DistanceMeters>NAN</DistanceMeters>
          </Trackpoint>
          <Trackpoint>
            <Time>2020-03-07T18:18:02.000Z</Time>
            <Position>
              <LatitudeDegrees>40.56179241277277469635009765625</LatitudeDegrees>
              <LongitudeDegrees>-3.71417619287967681884765625</LongitudeDegrees>
            </Position>
            <AltitudeMeters>750.4000244140625</AltitudeMeters>
            <DistanceMeters>NAN</DistanceMeters>
          </Trackpoint>
          <Trackpoint>
            <Time>2020-03-07T18:18:03.000Z</Time>
            <Position>
              <LatitudeDegrees>40.56171412579715251922607421875</LatitudeDegrees>
              <LongitudeDegrees>-3.71415968053042888641357421875</LongitudeDegrees>
            </Position>
            <AltitudeMeters>750</AltitudeMeters>
            <DistanceMeters>NAN</DistanceMeters>
          </Trackpoint>
          <Trackpoint>
            <Time>2020-03-07T18:18:04.000Z</Time>
            <Position>
              <LatitudeDegrees>40.56163701228797435760498046875</LatitudeDegrees>
              <LongitudeDegrees>-3.71414643712341785430908203125</LongitudeDegrees>
            </Position>
            <AltitudeMeters>749.5999755859375</AltitudeMeters>
            <DistanceMeters>NAN</DistanceMeters>
          </Trackpoint>
          <Trackpoint>
            <Time>2020-03-07T18:18:05.000Z</Time>
            <Position>
              <LatitudeDegrees>40.56156023405492305755615234375</LatitudeDegrees>
              <LongitudeDegrees>-3.71413839049637317657470703125</LongitudeDegrees>
            </Position>
            <AltitudeMeters>749.20001220703125</AltitudeMeters>
            <DistanceMeters>NAN</DistanceMeters>
          </Trackpoint>
          <Trackpoint>
            <Time>2020-03-07T18:18:06.000Z</Time>
            <Position>
              <LatitudeDegrees>40.561490245163440704345703125</LatitudeDegrees>
              <LongitudeDegrees>-3.7141337804496288299560546875</LongitudeDegrees>
            </Position>
            <AltitudeMeters>749</AltitudeMeters>
            <DistanceMeters>NAN</DistanceMeters>
          </Trackpoint>
          <Trackpoint>
            <Time>2020-03-07T18:18:07.000Z</Time>
            <Position>
              <LatitudeDegrees>40.56141975335776805877685546875</LatitudeDegrees>
              <LongitudeDegrees>-3.71412782929837703704833984375</LongitudeDegrees>
            </Position>
            <AltitudeMeters>748.5999755859375</AltitudeMeters>
            <DistanceMeters>NAN</DistanceMeters>
          </Trackpoint>
          <Trackpoint>
            <Time>2020-03-07T18:18:08.000Z</Time>
            <Position>
              <LatitudeDegrees>40.56135035119950771331787109375</LatitudeDegrees>
              <LongitudeDegrees>-3.714121878147125244140625</LongitudeDegrees>
            </Position>
            <AltitudeMeters>748.4000244140625</AltitudeMeters>
            <DistanceMeters>NAN</DistanceMeters>
          </Trackpoint>
          <Trackpoint>
            <Time>2020-03-07T18:18:09.000Z</Time>
            <Position>
              <LatitudeDegrees>40.5612822063267230987548828125</LatitudeDegrees>
              <LongitudeDegrees>-3.714117519557476043701171875</LongitudeDegrees>
            </Position>
            <AltitudeMeters>748.20001220703125</AltitudeMeters>
            <DistanceMeters>NAN</DistanceMeters>
          </Trackpoint>
          <Trackpoint>
            <Time>2020-03-07T18:18:10.000Z</Time>
            <Position>
              <LatitudeDegrees>40.5612174980342388153076171875</LatitudeDegrees>
              <LongitudeDegrees>-3.71411441825330257415771484375</LongitudeDegrees>
            </Position>
            <AltitudeMeters>748.20001220703125</AltitudeMeters>
            <DistanceMeters>NAN</DistanceMeters>
          </Trackpoint>
          <Trackpoint>
            <Time>2020-03-07T18:18:11.000Z</Time>
            <Position>
              <LatitudeDegrees>40.561155639588832855224609375</LatitudeDegrees>
              <LongitudeDegrees>-3.71411257423460483551025390625</LongitudeDegrees>
            </Position>
            <AltitudeMeters>748.20001220703125</AltitudeMeters>
            <DistanceMeters>NAN</DistanceMeters>
          </Trackpoint>
          <Trackpoint>
            <Time>2020-03-07T18:18:12.000Z</Time>
            <Position>
              <LatitudeDegrees>40.56109503842890262603759765625</LatitudeDegrees>
              <LongitudeDegrees>-3.714112825691699981689453125</LongitudeDegrees>
            </Position>
            <AltitudeMeters>748.20001220703125</AltitudeMeters>
            <DistanceMeters>NAN</DistanceMeters>
          </Trackpoint>
          <Trackpoint>
            <Time>2020-03-07T18:18:13.000Z</Time>
            <Position>
              <LatitudeDegrees>40.56103527545928955078125</LatitudeDegrees>
              <LongitudeDegrees>-3.71411441825330257415771484375</LongitudeDegrees>
            </Position>
            <AltitudeMeters>748.20001220703125</AltitudeMeters>
            <DistanceMeters>NAN</DistanceMeters>
          </Trackpoint>
          <Trackpoint>
            <Time>2020-03-07T18:18:14.000Z</Time>
            <Position>
              <LatitudeDegrees>40.5609740875661373138427734375</LatitudeDegrees>
              <LongitudeDegrees>-3.714114166796207427978515625</LongitudeDegrees>
            </Position>
            <AltitudeMeters>748.20001220703125</AltitudeMeters>
            <DistanceMeters>NAN</DistanceMeters>
          </Trackpoint>
          <Trackpoint>
            <Time>2020-03-07T18:18:15.000Z</Time>
            <Position>
              <LatitudeDegrees>40.5609132349491119384765625</LatitudeDegrees>
              <LongitudeDegrees>-3.7141136638820171356201171875</LongitudeDegrees>
            </Position>
            <AltitudeMeters>748.20001220703125</AltitudeMeters>
            <DistanceMeters>NAN</DistanceMeters>
          </Trackpoint>
          <Trackpoint>
            <Time>2020-03-07T18:18:16.000Z</Time>
            <Position>
              <LatitudeDegrees>40.5608537234365940093994140625</LatitudeDegrees>
              <LongitudeDegrees>-3.71411207132041454315185546875</LongitudeDegrees>
            </Position>
            <AltitudeMeters>748.20001220703125</AltitudeMeters>
            <DistanceMeters>NAN</DistanceMeters>
          </Trackpoint>
          <Trackpoint>
            <Time>2020-03-07T18:18:17.000Z</Time>
            <Position>
              <LatitudeDegrees>40.56079312227666378021240234375</LatitudeDegrees>
              <LongitudeDegrees>-3.71410922147333621978759765625</LongitudeDegrees>
            </Position>
            <AltitudeMeters>748.20001220703125</AltitudeMeters>
            <DistanceMeters>NAN</DistanceMeters>
          </Trackpoint>
          <Trackpoint>
            <Time>2020-03-07T18:18:18.000Z</Time>
            <Position>
              <LatitudeDegrees>40.5607330240309238433837890625</LatitudeDegrees>
              <LongitudeDegrees>-3.71410637162625789642333984375</LongitudeDegrees>
            </Position>
            <AltitudeMeters>748.4000244140625</AltitudeMeters>
            <DistanceMeters>NAN</DistanceMeters>
          </Trackpoint>
          <Trackpoint>
            <Time>2020-03-07T18:18:19.000Z</Time>
            <Position>
              <LatitudeDegrees>40.5606723390519618988037109375</LatitudeDegrees>
              <LongitudeDegrees>-3.71410151012241840362548828125</LongitudeDegrees>
            </Position>
            <AltitudeMeters>748.5999755859375</AltitudeMeters>
            <DistanceMeters>NAN</DistanceMeters>
          </Trackpoint>
          <Trackpoint>
            <Time>2020-03-07T18:18:20.000Z</Time>
            <Position>
              <LatitudeDegrees>40.56060972623527050018310546875</LatitudeDegrees>
              <LongitudeDegrees>-3.714095056056976318359375</LongitudeDegrees>
            </Position>
            <AltitudeMeters>748.5999755859375</AltitudeMeters>
            <DistanceMeters>NAN</DistanceMeters>
          </Trackpoint>
          <Trackpoint>
            <Time>2020-03-07T18:18:21.000Z</Time>
            <Position>
              <LatitudeDegrees>40.56054652668535709381103515625</LatitudeDegrees>
              <LongitudeDegrees>-3.7140861712396144866943359375</LongitudeDegrees>
            </Position>
            <AltitudeMeters>749</AltitudeMeters>
            <DistanceMeters>NAN</DistanceMeters>
          </Trackpoint>
          <Trackpoint>
            <Time>2020-03-07T18:18:22.000Z</Time>
            <Position>
              <LatitudeDegrees>40.5604827404022216796875</LatitudeDegrees>
              <LongitudeDegrees>-3.714075945317745208740234375</LongitudeDegrees>
            </Position>
            <AltitudeMeters>749</AltitudeMeters>
            <DistanceMeters>NAN</DistanceMeters>
          </Trackpoint>
          <Trackpoint>
            <Time>2020-03-07T18:18:23.000Z</Time>
            <Position>
              <LatitudeDegrees>40.5604188703000545501708984375</LatitudeDegrees>
              <LongitudeDegrees>-3.71406328864395618438720703125</LongitudeDegrees>
            </Position>
            <AltitudeMeters>749.20001220703125</AltitudeMeters>
            <DistanceMeters>NAN</DistanceMeters>
          </Trackpoint>
          <Trackpoint>
            <Time>2020-03-07T18:18:24.000Z</Time>
            <Position>
              <LatitudeDegrees>40.5603565089404582977294921875</LatitudeDegrees>
              <LongitudeDegrees>-3.7140519730746746063232421875</LongitudeDegrees>
            </Position>
            <AltitudeMeters>749.20001220703125</AltitudeMeters>
            <DistanceMeters>NAN</DistanceMeters>
          </Trackpoint>
          <Trackpoint>
            <Time>2020-03-07T18:18:25.000Z</Time>
            <Position>
              <LatitudeDegrees>40.5602948181331157684326171875</LatitudeDegrees>
              <LongitudeDegrees>-3.7140445969998836517333984375</LongitudeDegrees>
            </Position>
            <AltitudeMeters>749.20001220703125</AltitudeMeters>
            <DistanceMeters>NAN</DistanceMeters>
          </Trackpoint>
          <Trackpoint>
            <Time>2020-03-07T18:18:26.000Z</Time>
            <Position>
              <LatitudeDegrees>40.56023572571575641632080078125</LatitudeDegrees>
              <LongitudeDegrees>-3.71403881348669528961181640625</LongitudeDegrees>
            </Position>
            <AltitudeMeters>749.20001220703125</AltitudeMeters>
            <DistanceMeters>NAN</DistanceMeters>
          </Trackpoint>
          <Trackpoint>
            <Time>2020-03-07T18:18:27.000Z</Time>
            <Position>
              <LatitudeDegrees>40.5601751245558261871337890625</LatitudeDegrees>
              <LongitudeDegrees>-3.71403059922158718109130859375</LongitudeDegrees>
            </Position>
            <AltitudeMeters>749.20001220703125</AltitudeMeters>
            <DistanceMeters>NAN</DistanceMeters>
          </Trackpoint>
          <Trackpoint>
            <Time>2020-03-07T18:18:28.000Z</Time>
            <Position>
              <LatitudeDegrees>40.56011502631008625030517578125</LatitudeDegrees>
              <LongitudeDegrees>-3.7140197865664958953857421875</LongitudeDegrees>
            </Position>
            <AltitudeMeters>749.20001220703125</AltitudeMeters>
            <DistanceMeters>NAN</DistanceMeters>
          </Trackpoint>
          <Trackpoint>
            <Time>2020-03-07T18:18:29.000Z</Time>
            <Position>
              <LatitudeDegrees>40.560054592788219451904296875</LatitudeDegrees>
              <LongitudeDegrees>-3.7140057049691677093505859375</LongitudeDegrees>
            </Position>
            <AltitudeMeters>749.20001220703125</AltitudeMeters>
            <DistanceMeters>NAN</DistanceMeters>
          </Trackpoint>
          <Trackpoint>
            <Time>2020-03-07T18:18:30.000Z</Time>
            <Position>
              <LatitudeDegrees>40.55999399162828922271728515625</LatitudeDegrees>
              <LongitudeDegrees>-3.71398751623928546905517578125</LongitudeDegrees>
            </Position>
            <AltitudeMeters>749.20001220703125</AltitudeMeters>
            <DistanceMeters>NAN</DistanceMeters>
          </Trackpoint>
          <Trackpoint>
            <Time>2020-03-07T18:18:31.000Z</Time>
            <Position>
              <LatitudeDegrees>40.55993297137320041656494140625</LatitudeDegrees>
              <LongitudeDegrees>-3.71396237052977085113525390625</LongitudeDegrees>
            </Position>
            <AltitudeMeters>749.20001220703125</AltitudeMeters>
            <DistanceMeters>NAN</DistanceMeters>
          </Trackpoint>
          <Trackpoint>
            <Time>2020-03-07T18:18:32.000Z</Time>
            <Position>
              <LatitudeDegrees>40.559873543679714202880859375</LatitudeDegrees>
              <LongitudeDegrees>-3.713927082717418670654296875</LongitudeDegrees>
            </Position>
            <AltitudeMeters>749.20001220703125</AltitudeMeters>
            <DistanceMeters>NAN</DistanceMeters>
          </Trackpoint>
          <Trackpoint>
            <Time>2020-03-07T18:18:33.000Z</Time>
            <Position>
              <LatitudeDegrees>40.55981545709073543548583984375</LatitudeDegrees>
              <LongitudeDegrees>-3.7138766236603260040283203125</LongitudeDegrees>
            </Position>
            <AltitudeMeters>749</AltitudeMeters>
            <DistanceMeters>NAN</DistanceMeters>
          </Trackpoint>
          <Trackpoint>
            <Time>2020-03-07T18:18:34.000Z</Time>
            <Position>
              <LatitudeDegrees>40.559759549796581268310546875</LatitudeDegrees>
              <LongitudeDegrees>-3.7138125859200954437255859375</LongitudeDegrees>
            </Position>
            <AltitudeMeters>749</AltitudeMeters>
            <DistanceMeters>NAN</DistanceMeters>
          </Trackpoint>
          <Trackpoint>
            <Time>2020-03-07T18:18:35.000Z</Time>
            <Position>
              <LatitudeDegrees>40.559705905616283416748046875</LatitudeDegrees>
              <LongitudeDegrees>-3.71373505331575870513916015625</LongitudeDegrees>
            </Position>
            <AltitudeMeters>749</AltitudeMeters>
            <DistanceMeters>NAN</DistanceMeters>
          </Trackpoint>
          <Trackpoint>
            <Time>2020-03-07T18:18:36.000Z</Time>
            <Position>
              <LatitudeDegrees>40.55965485982596874237060546875</LatitudeDegrees>
              <LongitudeDegrees>-3.713649809360504150390625</LongitudeDegrees>
            </Position>
            <AltitudeMeters>748.79998779296875</AltitudeMeters>
            <DistanceMeters>NAN</DistanceMeters>
          </Trackpoint>
          <Trackpoint>
            <Time>2020-03-07T18:18:37.000Z</Time>
            <Position>
              <LatitudeDegrees>40.5596016347408294677734375</LatitudeDegrees>
              <LongitudeDegrees>-3.71356087736785411834716796875</LongitudeDegrees>
            </Position>
            <AltitudeMeters>748.79998779296875</AltitudeMeters>
            <DistanceMeters>NAN</DistanceMeters>
          </Trackpoint>
          <Trackpoint>
            <Time>2020-03-07T18:18:38.000Z</Time>
            <Position>
              <LatitudeDegrees>40.55954170413315296173095703125</LatitudeDegrees>
              <LongitudeDegrees>-3.7134732864797115325927734375</LongitudeDegrees>
            </Position>
            <AltitudeMeters>748.5999755859375</AltitudeMeters>
            <DistanceMeters>NAN</DistanceMeters>
          </Trackpoint>
          <Trackpoint>
            <Time>2020-03-07T18:18:39.000Z</Time>
            <Position>
              <LatitudeDegrees>40.5594693683087825775146484375</LatitudeDegrees>
              <LongitudeDegrees>-3.71338971890509128570556640625</LongitudeDegrees>
            </Position>
            <AltitudeMeters>748.4000244140625</AltitudeMeters>
            <DistanceMeters>NAN</DistanceMeters>
          </Trackpoint>
          <Trackpoint>
            <Time>2020-03-07T18:18:40.000Z</Time>
            <Position>
              <LatitudeDegrees>40.55938445962965488433837890625</LatitudeDegrees>
              <LongitudeDegrees>-3.713315539062023162841796875</LongitudeDegrees>
            </Position>
            <AltitudeMeters>748</AltitudeMeters>
            <DistanceMeters>NAN</DistanceMeters>
          </Trackpoint>
          <Trackpoint>
            <Time>2020-03-07T18:18:41.000Z</Time>
            <Position>
              <LatitudeDegrees>40.5592883192002773284912109375</LatitudeDegrees>
              <LongitudeDegrees>-3.71325091458857059478759765625</LongitudeDegrees>
            </Position>
            <AltitudeMeters>747.4000244140625</AltitudeMeters>
            <DistanceMeters>NAN</DistanceMeters>
          </Trackpoint>
          <Trackpoint>
            <Time>2020-03-07T18:18:42.000Z</Time>
            <Position>
              <LatitudeDegrees>40.55918429978191852569580078125</LatitudeDegrees>
              <LongitudeDegrees>-3.71319316327571868896484375</LongitudeDegrees>
            </Position>
            <AltitudeMeters>747.20001220703125</AltitudeMeters>
            <DistanceMeters>NAN</DistanceMeters>
          </Trackpoint>
          <Trackpoint>
            <Time>2020-03-07T18:18:43.000Z</Time>
            <Position>
              <LatitudeDegrees>40.5590754188597202301025390625</LatitudeDegrees>
              <LongitudeDegrees>-3.71313775889575481414794921875</LongitudeDegrees>
            </Position>
            <AltitudeMeters>746.5999755859375</AltitudeMeters>
            <DistanceMeters>NAN</DistanceMeters>
          </Trackpoint>
          <Trackpoint>
            <Time>2020-03-07T18:18:45.000Z</Time>
            <Position>
              <LatitudeDegrees>40.55886126123368740081787109375</LatitudeDegrees>
              <LongitudeDegrees>-3.71302946470677852630615234375</LongitudeDegrees>
            </Position>
            <AltitudeMeters>745.20001220703125</AltitudeMeters>
            <DistanceMeters>NAN</DistanceMeters>
          </Trackpoint>
          <Trackpoint>
            <Time>2020-03-07T18:18:46.000Z</Time>
            <Position>
              <LatitudeDegrees>40.55876637808978557586669921875</LatitudeDegrees>
              <LongitudeDegrees>-3.712973892688751220703125</LongitudeDegrees>
            </Position>
            <AltitudeMeters>744.20001220703125</AltitudeMeters>
            <DistanceMeters>NAN</DistanceMeters>
          </Trackpoint>
          <Trackpoint>
            <Time>2020-03-07T18:18:47.000Z</Time>
            <Position>
              <LatitudeDegrees>40.55867903865873813629150390625</LatitudeDegrees>
              <LongitudeDegrees>-3.71292251162230968475341796875</LongitudeDegrees>
            </Position>
            <AltitudeMeters>743</AltitudeMeters>
            <DistanceMeters>NAN</DistanceMeters>
          </Trackpoint>
          <Trackpoint>
            <Time>2020-03-07T18:18:48.000Z</Time>
            <Position>
              <LatitudeDegrees>40.558602511882781982421875</LatitudeDegrees>
              <LongitudeDegrees>-3.71287087909877300262451171875</LongitudeDegrees>
            </Position>
            <AltitudeMeters>741.5999755859375</AltitudeMeters>
            <DistanceMeters>NAN</DistanceMeters>
          </Trackpoint>
          <Trackpoint>
            <Time>2020-03-07T18:18:49.000Z</Time>
            <Position>
              <LatitudeDegrees>40.55853134952485561370849609375</LatitudeDegrees>
              <LongitudeDegrees>-3.71282377280294895172119140625</LongitudeDegrees>
            </Position>
            <AltitudeMeters>740.4000244140625</AltitudeMeters>
            <DistanceMeters>NAN</DistanceMeters>
          </Trackpoint>
          <Trackpoint>
            <Time>2020-03-07T18:18:50.000Z</Time>
            <Position>
              <LatitudeDegrees>40.5584699101746082305908203125</LatitudeDegrees>
              <LongitudeDegrees>-3.71278144419193267822265625</LongitudeDegrees>
            </Position>
            <AltitudeMeters>739.79998779296875</AltitudeMeters>
            <DistanceMeters>NAN</DistanceMeters>
          </Trackpoint>
          <Trackpoint>
            <Time>2020-03-07T18:18:51.000Z</Time>
            <Position>
              <LatitudeDegrees>40.55841316469013690948486328125</LatitudeDegrees>
              <LongitudeDegrees>-3.712742216885089874267578125</LongitudeDegrees>
            </Position>
            <AltitudeMeters>739.5999755859375</AltitudeMeters>
            <DistanceMeters>NAN</DistanceMeters>
          </Trackpoint>
          <Trackpoint>
            <Time>2020-03-07T18:18:52.000Z</Time>
            <Position>
              <LatitudeDegrees>40.5583599396049976348876953125</LatitudeDegrees>
              <LongitudeDegrees>-3.712701983749866485595703125</LongitudeDegrees>
            </Position>
            <AltitudeMeters>739.4000244140625</AltitudeMeters>
            <DistanceMeters>NAN</DistanceMeters>
          </Trackpoint>
          <Trackpoint>
            <Time>2020-03-07T18:18:53.000Z</Time>
            <Position>
              <LatitudeDegrees>40.55831216275691986083984375</LatitudeDegrees>
              <LongitudeDegrees>-3.71266082860529422760009765625</LongitudeDegrees>
            </Position>
            <AltitudeMeters>739.20001220703125</AltitudeMeters>
            <DistanceMeters>NAN</DistanceMeters>
          </Trackpoint>
          <Trackpoint>
            <Time>2020-03-07T18:18:54.000Z</Time>
            <Position>
              <LatitudeDegrees>40.558266900479793548583984375</LatitudeDegrees>
              <LongitudeDegrees>-3.71261539869010448455810546875</LongitudeDegrees>
            </Position>
            <AltitudeMeters>739.20001220703125</AltitudeMeters>
            <DistanceMeters>NAN</DistanceMeters>
          </Trackpoint>
          <Trackpoint>
            <Time>2020-03-07T18:18:55.000Z</Time>
            <Position>
              <LatitudeDegrees>40.558222644031047821044921875</LatitudeDegrees>
              <LongitudeDegrees>-3.71256359852850437164306640625</LongitudeDegrees>
            </Position>
            <AltitudeMeters>739.20001220703125</AltitudeMeters>
            <DistanceMeters>NAN</DistanceMeters>
          </Trackpoint>
          <Trackpoint>
            <Time>2020-03-07T18:18:56.000Z</Time>
            <Position>
              <LatitudeDegrees>40.5581815727055072784423828125</LatitudeDegrees>
              <LongitudeDegrees>-3.712507523596286773681640625</LongitudeDegrees>
            </Position>
            <AltitudeMeters>739.20001220703125</AltitudeMeters>
            <DistanceMeters>NAN</DistanceMeters>
          </Trackpoint>
          <Trackpoint>
            <Time>2020-03-07T18:18:57.000Z</Time>
            <Position>
              <LatitudeDegrees>40.5581369809806346893310546875</LatitudeDegrees>
              <LongitudeDegrees>-3.71245178394019603729248046875</LongitudeDegrees>
            </Position>
            <AltitudeMeters>739.20001220703125</AltitudeMeters>
            <DistanceMeters>NAN</DistanceMeters>
          </Trackpoint>
          <Trackpoint>
            <Time>2020-03-07T18:18:58.000Z</Time>
            <Position>
              <LatitudeDegrees>40.5580903775990009307861328125</LatitudeDegrees>
              <LongitudeDegrees>-3.71239847503602504730224609375</LongitudeDegrees>
            </Position>
            <AltitudeMeters>739.20001220703125</AltitudeMeters>
            <DistanceMeters>NAN</DistanceMeters>
          </Trackpoint>
          <Trackpoint>
            <Time>2020-03-07T18:18:59.000Z</Time>
            <Position>
              <LatitudeDegrees>40.55804234929382801055908203125</LatitudeDegrees>
              <LongitudeDegrees>-3.712345920503139495849609375</LongitudeDegrees>
            </Position>
            <AltitudeMeters>740.20001220703125</AltitudeMeters>
            <DistanceMeters>NAN</DistanceMeters>
          </Trackpoint>
          <Trackpoint>
            <Time>2020-03-07T18:19:00.000Z</Time>
            <Position>
              <LatitudeDegrees>40.5579923093318939208984375</LatitudeDegrees>
              <LongitudeDegrees>-3.7122964672744274139404296875</LongitudeDegrees>
            </Position>
            <AltitudeMeters>740.5999755859375</AltitudeMeters>
            <DistanceMeters>NAN</DistanceMeters>
          </Trackpoint>
          <Trackpoint>
            <Time>2020-03-07T18:19:01.000Z</Time>
            <Position>
              <LatitudeDegrees>40.55794109590351581573486328125</LatitudeDegrees>
              <LongitudeDegrees>-3.712244331836700439453125</LongitudeDegrees>
            </Position>
            <AltitudeMeters>740.79998779296875</AltitudeMeters>
            <DistanceMeters>NAN</DistanceMeters>
          </Trackpoint>
          <Trackpoint>
            <Time>2020-03-07T18:19:02.000Z</Time>
            <Position>
              <LatitudeDegrees>40.55788728408515453338623046875</LatitudeDegrees>
              <LongitudeDegrees>-3.71219462715089321136474609375</LongitudeDegrees>
            </Position>
            <AltitudeMeters>741</AltitudeMeters>
            <DistanceMeters>NAN</DistanceMeters>
          </Trackpoint>
          <Trackpoint>
            <Time>2020-03-07T18:19:03.000Z</Time>
            <Position>
              <LatitudeDegrees>40.55783548392355442047119140625</LatitudeDegrees>
              <LongitudeDegrees>-3.71214718557894229888916015625</LongitudeDegrees>
            </Position>
            <AltitudeMeters>741</AltitudeMeters>
            <DistanceMeters>NAN</DistanceMeters>
          </Trackpoint>
          <Trackpoint>
            <Time>2020-03-07T18:19:04.000Z</Time>
            <Position>
              <LatitudeDegrees>40.557780079543590545654296875</LatitudeDegrees>
              <LongitudeDegrees>-3.71210108511149883270263671875</LongitudeDegrees>
            </Position>
            <AltitudeMeters>741</AltitudeMeters>
            <DistanceMeters>NAN</DistanceMeters>
          </Trackpoint>
          <Trackpoint>
            <Time>2020-03-07T18:19:05.000Z</Time>
            <Position>
              <LatitudeDegrees>40.55772484280169010162353515625</LatitudeDegrees>
              <LongitudeDegrees>-3.7120587565004825592041015625</LongitudeDegrees>
            </Position>
            <AltitudeMeters>741</AltitudeMeters>
            <DistanceMeters>NAN</DistanceMeters>
          </Trackpoint>
          <Trackpoint>
            <Time>2020-03-07T18:19:06.000Z</Time>
            <Position>
              <LatitudeDegrees>40.557670108973979949951171875</LatitudeDegrees>
              <LongitudeDegrees>-3.71201609261333942413330078125</LongitudeDegrees>
            </Position>
            <AltitudeMeters>741.20001220703125</AltitudeMeters>
            <DistanceMeters>NAN</DistanceMeters>
          </Trackpoint>
          <Trackpoint>
            <Time>2020-03-07T18:19:07.000Z</Time>
            <Position>
              <LatitudeDegrees>40.55761621333658695220947265625</LatitudeDegrees>
              <LongitudeDegrees>-3.71197518892586231231689453125</LongitudeDegrees>
            </Position>
            <AltitudeMeters>741.20001220703125</AltitudeMeters>
            <DistanceMeters>NAN</DistanceMeters>
          </Trackpoint>
          <Trackpoint>
            <Time>2020-03-07T18:19:08.000Z</Time>
            <Position>
              <LatitudeDegrees>40.55756156332790851593017578125</LatitudeDegrees>
              <LongitudeDegrees>-3.71193679980933666229248046875</LongitudeDegrees>
            </Position>
            <AltitudeMeters>741.20001220703125</AltitudeMeters>
            <DistanceMeters>NAN</DistanceMeters>
          </Trackpoint>
          <Trackpoint>
            <Time>2020-03-07T18:19:09.000Z</Time>
            <Position>
              <LatitudeDegrees>40.55750791914761066436767578125</LatitudeDegrees>
              <LongitudeDegrees>-3.7118958123028278350830078125</LongitudeDegrees>
            </Position>
            <AltitudeMeters>741.20001220703125</AltitudeMeters>
            <DistanceMeters>NAN</DistanceMeters>
          </Trackpoint>
          <Trackpoint>
            <Time>2020-03-07T18:19:10.000Z</Time>
            <Position>
              <LatitudeDegrees>40.55745544843375682830810546875</LatitudeDegrees>
              <LongitudeDegrees>-3.711853735148906707763671875</LongitudeDegrees>
            </Position>
            <AltitudeMeters>741</AltitudeMeters>
            <DistanceMeters>NAN</DistanceMeters>
          </Trackpoint>
          <Trackpoint>
            <Time>2020-03-07T18:19:11.000Z</Time>
            <Position>
              <LatitudeDegrees>40.557403229176998138427734375</LatitudeDegrees>
              <LongitudeDegrees>-3.71181274764239788055419921875</LongitudeDegrees>
            </Position>
            <AltitudeMeters>740.79998779296875</AltitudeMeters>
            <DistanceMeters>NAN</DistanceMeters>
          </Trackpoint>
          <Trackpoint>
            <Time>2020-03-07T18:19:12.000Z</Time>
            <Position>
              <LatitudeDegrees>40.5573504231870174407958984375</LatitudeDegrees>
              <LongitudeDegrees>-3.7117709219455718994140625</LongitudeDegrees>
            </Position>
            <AltitudeMeters>740.5999755859375</AltitudeMeters>
            <DistanceMeters>NAN</DistanceMeters>
          </Trackpoint>
          <Trackpoint>
            <Time>2020-03-07T18:19:13.000Z</Time>
            <Position>
              <LatitudeDegrees>40.55729694664478302001953125</LatitudeDegrees>
              <LongitudeDegrees>-3.711729347705841064453125</LongitudeDegrees>
            </Position>
            <AltitudeMeters>740.5999755859375</AltitudeMeters>
            <DistanceMeters>NAN</DistanceMeters>
          </Trackpoint>
          <Trackpoint>
            <Time>2020-03-07T18:19:14.000Z</Time>
            <Position>
              <LatitudeDegrees>40.55724506266415119171142578125</LatitudeDegrees>
              <LongitudeDegrees>-3.7116869352757930755615234375</LongitudeDegrees>
            </Position>
            <AltitudeMeters>740.4000244140625</AltitudeMeters>
            <DistanceMeters>NAN</DistanceMeters>
          </Trackpoint>
          <Trackpoint>
            <Time>2020-03-07T18:19:15.000Z</Time>
            <Position>
              <LatitudeDegrees>40.55719192139804363250732421875</LatitudeDegrees>
              <LongitudeDegrees>-3.71164259500801563262939453125</LongitudeDegrees>
            </Position>
            <AltitudeMeters>740.20001220703125</AltitudeMeters>
            <DistanceMeters>NAN</DistanceMeters>
          </Trackpoint>
          <Trackpoint>
            <Time>2020-03-07T18:19:16.000Z</Time>
            <Position>
              <LatitudeDegrees>40.55713593028485774993896484375</LatitudeDegrees>
              <LongitudeDegrees>-3.7115994282066822052001953125</LongitudeDegrees>
            </Position>
            <AltitudeMeters>740.20001220703125</AltitudeMeters>
            <DistanceMeters>NAN</DistanceMeters>
          </Trackpoint>
          <Trackpoint>
            <Time>2020-03-07T18:19:17.000Z</Time>
            <Position>
              <LatitudeDegrees>40.55707968771457672119140625</LatitudeDegrees>
              <LongitudeDegrees>-3.71156011708080768585205078125</LongitudeDegrees>
            </Position>
            <AltitudeMeters>740</AltitudeMeters>
            <DistanceMeters>NAN</DistanceMeters>
          </Trackpoint>
          <Trackpoint>
            <Time>2020-03-07T18:19:18.000Z</Time>
            <Position>
              <LatitudeDegrees>40.55702411569654941558837890625</LatitudeDegrees>
              <LongitudeDegrees>-3.7115203030407428741455078125</LongitudeDegrees>
            </Position>
            <AltitudeMeters>740</AltitudeMeters>
            <DistanceMeters>NAN</DistanceMeters>
          </Trackpoint>
          <Trackpoint>
            <Time>2020-03-07T18:19:19.000Z</Time>
            <Position>
              <LatitudeDegrees>40.556971728801727294921875</LatitudeDegrees>
              <LongitudeDegrees>-3.71147898025810718536376953125</LongitudeDegrees>
            </Position>
            <AltitudeMeters>740</AltitudeMeters>
            <DistanceMeters>NAN</DistanceMeters>
          </Trackpoint>
          <Trackpoint>
            <Time>2020-03-07T18:19:20.000Z</Time>
            <Position>
              <LatitudeDegrees>40.55691867135465145111083984375</LatitudeDegrees>
              <LongitudeDegrees>-3.71143497526645660400390625</LongitudeDegrees>
            </Position>
            <AltitudeMeters>739.79998779296875</AltitudeMeters>
            <DistanceMeters>NAN</DistanceMeters>
          </Trackpoint>
          <Trackpoint>
            <Time>2020-03-07T18:19:21.000Z</Time>
            <Position>
              <LatitudeDegrees>40.55686511099338531494140625</LatitudeDegrees>
              <LongitudeDegrees>-3.71139013208448886871337890625</LongitudeDegrees>
            </Position>
            <AltitudeMeters>739.79998779296875</AltitudeMeters>
            <DistanceMeters>NAN</DistanceMeters>
          </Trackpoint>
          <Trackpoint>
            <Time>2020-03-07T18:19:22.000Z</Time>
            <Position>
              <LatitudeDegrees>40.55681138299405574798583984375</LatitudeDegrees>
              <LongitudeDegrees>-3.7113479711115360260009765625</LongitudeDegrees>
            </Position>
            <AltitudeMeters>739.79998779296875</AltitudeMeters>
            <DistanceMeters>NAN</DistanceMeters>
          </Trackpoint>
          <Trackpoint>
            <Time>2020-03-07T18:19:23.000Z</Time>
            <Position>
              <LatitudeDegrees>40.55675807408988475799560546875</LatitudeDegrees>
              <LongitudeDegrees>-3.71130698360502719879150390625</LongitudeDegrees>
            </Position>
            <AltitudeMeters>739.5999755859375</AltitudeMeters>
            <DistanceMeters>NAN</DistanceMeters>
          </Trackpoint>
          <Trackpoint>
            <Time>2020-03-07T18:19:24.000Z</Time>
            <Position>
              <LatitudeDegrees>40.55670417845249176025390625</LatitudeDegrees>
              <LongitudeDegrees>-3.7112654931843280792236328125</LongitudeDegrees>
            </Position>
            <AltitudeMeters>739.4000244140625</AltitudeMeters>
            <DistanceMeters>NAN</DistanceMeters>
          </Trackpoint>
          <Trackpoint>
            <Time>2020-03-07T18:19:25.000Z</Time>
            <Position>
              <LatitudeDegrees>40.55665179155766963958740234375</LatitudeDegrees>
              <LongitudeDegrees>-3.71122651733458042144775390625</LongitudeDegrees>
            </Position>
            <AltitudeMeters>739.20001220703125</AltitudeMeters>
            <DistanceMeters>NAN</DistanceMeters>
          </Trackpoint>
          <Trackpoint>
            <Time>2020-03-07T18:19:26.000Z</Time>
            <Position>
              <LatitudeDegrees>40.55659663863480091094970703125</LatitudeDegrees>
              <LongitudeDegrees>-3.71118427254259586334228515625</LongitudeDegrees>
            </Position>
            <AltitudeMeters>739.20001220703125</AltitudeMeters>
            <DistanceMeters>NAN</DistanceMeters>
          </Trackpoint>
          <Trackpoint>
            <Time>2020-03-07T18:19:27.000Z</Time>
            <Position>
              <LatitudeDegrees>40.55654215626418590545654296875</LatitudeDegrees>
              <LongitudeDegrees>-3.7111432850360870361328125</LongitudeDegrees>
            </Position>
            <AltitudeMeters>739.20001220703125</AltitudeMeters>
            <DistanceMeters>NAN</DistanceMeters>
          </Trackpoint>
          <Trackpoint>
            <Time>2020-03-07T18:19:28.000Z</Time>
            <Position>
              <LatitudeDegrees>40.55648817680776119232177734375</LatitudeDegrees>
              <LongitudeDegrees>-3.71110229752957820892333984375</LongitudeDegrees>
            </Position>
            <AltitudeMeters>739</AltitudeMeters>
            <DistanceMeters>NAN</DistanceMeters>
          </Trackpoint>
          <Trackpoint>
            <Time>2020-03-07T18:19:29.000Z</Time>
            <Position>
              <LatitudeDegrees>40.5564357899129390716552734375</LatitudeDegrees>
              <LongitudeDegrees>-3.71106139384210109710693359375</LongitudeDegrees>
            </Position>
            <AltitudeMeters>739</AltitudeMeters>
            <DistanceMeters>NAN</DistanceMeters>
          </Trackpoint>
          <Trackpoint>
            <Time>2020-03-07T18:19:30.000Z</Time>
            <Position>
              <LatitudeDegrees>40.55638491176068782806396484375</LatitudeDegrees>
              <LongitudeDegrees>-3.7110210768878459930419921875</LongitudeDegrees>
            </Position>
            <AltitudeMeters>738.79998779296875</AltitudeMeters>
            <DistanceMeters>NAN</DistanceMeters>
          </Trackpoint>
          <Trackpoint>
            <Time>2020-03-07T18:19:31.000Z</Time>
            <Position>
              <LatitudeDegrees>40.55633143521845340728759765625</LatitudeDegrees>
              <LongitudeDegrees>-3.71097631752490997314453125</LongitudeDegrees>
            </Position>
            <AltitudeMeters>738.79998779296875</AltitudeMeters>
            <DistanceMeters>NAN</DistanceMeters>
          </Trackpoint>
          <Trackpoint>
            <Time>2020-03-07T18:19:32.000Z</Time>
            <Position>
              <LatitudeDegrees>40.55627661757171154022216796875</LatitudeDegrees>
              <LongitudeDegrees>-3.7109313905239105224609375</LongitudeDegrees>
            </Position>
            <AltitudeMeters>738.79998779296875</AltitudeMeters>
            <DistanceMeters>NAN</DistanceMeters>
          </Trackpoint>
          <Trackpoint>
            <Time>2020-03-07T18:19:33.000Z</Time>
            <Position>
              <LatitudeDegrees>40.5562208779156208038330078125</LatitudeDegrees>
              <LongitudeDegrees>-3.710887469351291656494140625</LongitudeDegrees>
            </Position>
            <AltitudeMeters>738.79998779296875</AltitudeMeters>
            <DistanceMeters>NAN</DistanceMeters>
          </Trackpoint>
          <Trackpoint>
            <Time>2020-03-07T18:19:34.000Z</Time>
            <Position>
              <LatitudeDegrees>40.55616731755435466766357421875</LatitudeDegrees>
              <LongitudeDegrees>-3.7108477391302585601806640625</LongitudeDegrees>
            </Position>
            <AltitudeMeters>738.5999755859375</AltitudeMeters>
            <DistanceMeters>NAN</DistanceMeters>
          </Trackpoint>
          <Trackpoint>
            <Time>2020-03-07T18:19:35.000Z</Time>
            <Position>
              <LatitudeDegrees>40.55611467920243740081787109375</LatitudeDegrees>
              <LongitudeDegrees>-3.71081178076565265655517578125</LongitudeDegrees>
            </Position>
            <AltitudeMeters>738.5999755859375</AltitudeMeters>
            <DistanceMeters>NAN</DistanceMeters>
          </Trackpoint>
          <Trackpoint>
            <Time>2020-03-07T18:19:36.000Z</Time>
            <Position>
              <LatitudeDegrees>40.55606271140277385711669921875</LatitudeDegrees>
              <LongitudeDegrees>-3.71077657677233219146728515625</LongitudeDegrees>
            </Position>
            <AltitudeMeters>738.4000244140625</AltitudeMeters>
            <DistanceMeters>NAN</DistanceMeters>
          </Trackpoint>
          <Trackpoint>
            <Time>2020-03-07T18:19:37.000Z</Time>
            <Position>
              <LatitudeDegrees>40.5560099892318248748779296875</LatitudeDegrees>
              <LongitudeDegrees>-3.710736595094203948974609375</LongitudeDegrees>
            </Position>
            <AltitudeMeters>738.4000244140625</AltitudeMeters>
            <DistanceMeters>NAN</DistanceMeters>
          </Trackpoint>
          <Trackpoint>
            <Time>2020-03-07T18:19:38.000Z</Time>
            <Position>
              <LatitudeDegrees>40.55595776997506618499755859375</LatitudeDegrees>
              <LongitudeDegrees>-3.71069661341607570648193359375</LongitudeDegrees>
            </Position>
            <AltitudeMeters>738.4000244140625</AltitudeMeters>
            <DistanceMeters>NAN</DistanceMeters>
          </Trackpoint>
          <Trackpoint>
            <Time>2020-03-07T18:19:39.000Z</Time>
            <Position>
              <LatitudeDegrees>40.5559055507183074951171875</LatitudeDegrees>
              <LongitudeDegrees>-3.71065872721374034881591796875</LongitudeDegrees>
            </Position>
            <AltitudeMeters>738.4000244140625</AltitudeMeters>
            <DistanceMeters>NAN</DistanceMeters>
          </Trackpoint>
          <Trackpoint>
            <Time>2020-03-07T18:19:40.000Z</Time>
            <Position>
              <LatitudeDegrees>40.5558572709560394287109375</LatitudeDegrees>
              <LongitudeDegrees>-3.71062486432492733001708984375</LongitudeDegrees>
            </Position>
            <AltitudeMeters>738.4000244140625</AltitudeMeters>
            <DistanceMeters>NAN</DistanceMeters>
          </Trackpoint>
          <Trackpoint>
            <Time>2020-03-07T18:19:41.000Z</Time>
            <Position>
              <LatitudeDegrees>40.5558116734027862548828125</LatitudeDegrees>
              <LongitudeDegrees>-3.71059477329254150390625</LongitudeDegrees>
            </Position>
            <AltitudeMeters>738.4000244140625</AltitudeMeters>
            <DistanceMeters>NAN</DistanceMeters>
          </Trackpoint>
          <Trackpoint>
            <Time>2020-03-07T18:19:42.000Z</Time>
            <Position>
              <LatitudeDegrees>40.555767752230167388916015625</LatitudeDegrees>
              <LongitudeDegrees>-3.7105657719075679779052734375</LongitudeDegrees>
            </Position>
            <AltitudeMeters>738.4000244140625</AltitudeMeters>
            <DistanceMeters>NAN</DistanceMeters>
          </Trackpoint>
          <Trackpoint>
            <Time>2020-03-07T18:19:43.000Z</Time>
            <Position>
              <LatitudeDegrees>40.55572911165654659271240234375</LatitudeDegrees>
              <LongitudeDegrees>-3.7105406261980533599853515625</LongitudeDegrees>
            </Position>
            <AltitudeMeters>738.4000244140625</AltitudeMeters>
            <DistanceMeters>NAN</DistanceMeters>
          </Trackpoint>
          <Trackpoint>
            <Time>2020-03-07T18:19:44.000Z</Time>
            <Position>
              <LatitudeDegrees>40.555692650377750396728515625</LatitudeDegrees>
              <LongitudeDegrees>-3.71051791124045848846435546875</LongitudeDegrees>
            </Position>
            <AltitudeMeters>738.4000244140625</AltitudeMeters>
            <DistanceMeters>NAN</DistanceMeters>
          </Trackpoint>
          <Trackpoint>
            <Time>2020-03-07T18:19:45.000Z</Time>
            <Position>
              <LatitudeDegrees>40.5556562729179859161376953125</LatitudeDegrees>
              <LongitudeDegrees>-3.7104941904544830322265625</LongitudeDegrees>
            </Position>
            <AltitudeMeters>738.4000244140625</AltitudeMeters>
            <DistanceMeters>NAN</DistanceMeters>
          </Trackpoint>
          <Trackpoint>
            <Time>2020-03-07T18:19:46.000Z</Time>
            <Position>
              <LatitudeDegrees>40.5556214042007923126220703125</LatitudeDegrees>
              <LongitudeDegrees>-3.71046979911625385284423828125</LongitudeDegrees>
            </Position>
            <AltitudeMeters>738.4000244140625</AltitudeMeters>
            <DistanceMeters>NAN</DistanceMeters>
          </Trackpoint>
          <Trackpoint>
            <Time>2020-03-07T18:19:47.000Z</Time>
            <Position>
              <LatitudeDegrees>40.5555888824164867401123046875</LatitudeDegrees>
              <LongitudeDegrees>-3.71044582687318325042724609375</LongitudeDegrees>
            </Position>
            <AltitudeMeters>738.79998779296875</AltitudeMeters>
            <DistanceMeters>NAN</DistanceMeters>
          </Trackpoint>
          <Trackpoint>
            <Time>2020-03-07T18:19:48.000Z</Time>
            <Position>
              <LatitudeDegrees>40.55555828846991062164306640625</LatitudeDegrees>
              <LongitudeDegrees>-3.71042336337268352508544921875</LongitudeDegrees>
            </Position>
            <AltitudeMeters>739.20001220703125</AltitudeMeters>
            <DistanceMeters>NAN</DistanceMeters>
          </Trackpoint>
          <Trackpoint>
            <Time>2020-03-07T18:19:49.000Z</Time>
            <Position>
              <LatitudeDegrees>40.55552878417074680328369140625</LatitudeDegrees>
              <LongitudeDegrees>-3.7104004807770252227783203125</LongitudeDegrees>
            </Position>
            <AltitudeMeters>739.5999755859375</AltitudeMeters>
            <DistanceMeters>NAN</DistanceMeters>
          </Trackpoint>
          <Trackpoint>
            <Time>2020-03-07T18:19:50.000Z</Time>
            <Position>
              <LatitudeDegrees>40.5554976873099803924560546875</LatitudeDegrees>
              <LongitudeDegrees>-3.7103746645152568817138671875</LongitudeDegrees>
            </Position>
            <AltitudeMeters>740.20001220703125</AltitudeMeters>
            <DistanceMeters>NAN</DistanceMeters>
          </Trackpoint>
          <Trackpoint>
            <Time>2020-03-07T18:19:51.000Z</Time>
            <Position>
              <LatitudeDegrees>40.555465333163738250732421875</LatitudeDegrees>
              <LongitudeDegrees>-3.71034826152026653289794921875</LongitudeDegrees>
            </Position>
            <AltitudeMeters>740.5999755859375</AltitudeMeters>
            <DistanceMeters>NAN</DistanceMeters>
          </Trackpoint>
          <Trackpoint>
            <Time>2020-03-07T18:19:52.000Z</Time>
            <Position>
              <LatitudeDegrees>40.55543289519846439361572265625</LatitudeDegrees>
              <LongitudeDegrees>-3.71032093651592731475830078125</LongitudeDegrees>
            </Position>
            <AltitudeMeters>741.20001220703125</AltitudeMeters>
            <DistanceMeters>NAN</DistanceMeters>
          </Trackpoint>
          <Trackpoint>
            <Time>2020-03-07T18:19:53.000Z</Time>
            <Position>
              <LatitudeDegrees>40.55540255270898342132568359375</LatitudeDegrees>
              <LongitudeDegrees>-3.7102955393493175506591796875</LongitudeDegrees>
            </Position>
            <AltitudeMeters>741.5999755859375</AltitudeMeters>
            <DistanceMeters>NAN</DistanceMeters>
          </Trackpoint>
          <Trackpoint>
            <Time>2020-03-07T18:19:54.000Z</Time>
            <Position>
              <LatitudeDegrees>40.55537187494337558746337890625</LatitudeDegrees>
              <LongitudeDegrees>-3.71027089655399322509765625</LongitudeDegrees>
            </Position>
            <AltitudeMeters>742</AltitudeMeters>
            <DistanceMeters>NAN</DistanceMeters>
          </Trackpoint>
          <Trackpoint>
            <Time>2020-03-07T18:19:55.000Z</Time>
            <Position>
              <LatitudeDegrees>40.55533952079713344573974609375</LatitudeDegrees>
              <LongitudeDegrees>-3.71024533174932003021240234375</LongitudeDegrees>
            </Position>
            <AltitudeMeters>742.5999755859375</AltitudeMeters>
            <DistanceMeters>NAN</DistanceMeters>
          </Trackpoint>
          <Trackpoint>
            <Time>2020-03-07T18:19:56.000Z</Time>
            <Position>
              <LatitudeDegrees>40.5553059093654155731201171875</LatitudeDegrees>
              <LongitudeDegrees>-3.7102201022207736968994140625</LongitudeDegrees>
            </Position>
            <AltitudeMeters>742.79998779296875</AltitudeMeters>
            <DistanceMeters>NAN</DistanceMeters>
          </Trackpoint>
          <Trackpoint>
            <Time>2020-03-07T18:19:57.000Z</Time>
            <Position>
              <LatitudeDegrees>40.5552720464766025543212890625</LatitudeDegrees>
              <LongitudeDegrees>-3.71019621379673480987548828125</LongitudeDegrees>
            </Position>
            <AltitudeMeters>743</AltitudeMeters>
            <DistanceMeters>NAN</DistanceMeters>
          </Trackpoint>
          <Trackpoint>
            <Time>2020-03-07T18:19:58.000Z</Time>
            <Position>
              <LatitudeDegrees>40.55524011142551898956298828125</LatitudeDegrees>
              <LongitudeDegrees>-3.710172660648822784423828125</LongitudeDegrees>
            </Position>
            <AltitudeMeters>743.4000244140625</AltitudeMeters>
            <DistanceMeters>NAN</DistanceMeters>
          </Trackpoint>
          <Trackpoint>
            <Time>2020-03-07T18:19:59.000Z</Time>
            <Position>
              <LatitudeDegrees>40.5552086792886257171630859375</LatitudeDegrees>
              <LongitudeDegrees>-3.7101470120251178741455078125</LongitudeDegrees>
            </Position>
            <AltitudeMeters>743.5999755859375</AltitudeMeters>
            <DistanceMeters>NAN</DistanceMeters>
          </Trackpoint>
          <Trackpoint>
            <Time>2020-03-07T18:20:00.000Z</Time>
            <Position>
              <LatitudeDegrees>40.55517707951366901397705078125</LatitudeDegrees>
              <LongitudeDegrees>-3.7101218663156032562255859375</LongitudeDegrees>
            </Position>
            <AltitudeMeters>743.79998779296875</AltitudeMeters>
            <DistanceMeters>NAN</DistanceMeters>
          </Trackpoint>
          <Trackpoint>
            <Time>2020-03-07T18:20:01.000Z</Time>
            <Position>
              <LatitudeDegrees>40.5551453121006488800048828125</LatitudeDegrees>
              <LongitudeDegrees>-3.710092194378376007080078125</LongitudeDegrees>
            </Position>
            <AltitudeMeters>744.20001220703125</AltitudeMeters>
            <DistanceMeters>NAN</DistanceMeters>
          </Trackpoint>
          <Trackpoint>
            <Time>2020-03-07T18:20:02.000Z</Time>
            <Position>
              <LatitudeDegrees>40.55511899292469024658203125</LatitudeDegrees>
              <LongitudeDegrees>-3.710054643452167510986328125</LongitudeDegrees>
            </Position>
            <AltitudeMeters>744.4000244140625</AltitudeMeters>
            <DistanceMeters>NAN</DistanceMeters>
          </Trackpoint>
          <Trackpoint>
            <Time>2020-03-07T18:20:03.000Z</Time>
            <Position>
              <LatitudeDegrees>40.55510231293737888336181640625</LatitudeDegrees>
              <LongitudeDegrees>-3.71000912971794605255126953125</LongitudeDegrees>
            </Position>
            <AltitudeMeters>744.79998779296875</AltitudeMeters>
            <DistanceMeters>NAN</DistanceMeters>
          </Trackpoint>
          <Trackpoint>
            <Time>2020-03-07T18:20:04.000Z</Time>
            <Position>
              <LatitudeDegrees>40.55509778670966625213623046875</LatitudeDegrees>
              <LongitudeDegrees>-3.70995783247053623199462890625</LongitudeDegrees>
            </Position>
            <AltitudeMeters>745</AltitudeMeters>
            <DistanceMeters>NAN</DistanceMeters>
          </Trackpoint>
          <Trackpoint>
            <Time>2020-03-07T18:20:05.000Z</Time>
            <Position>
              <LatitudeDegrees>40.55510415695607662200927734375</LatitudeDegrees>
              <LongitudeDegrees>-3.709907792508602142333984375</LongitudeDegrees>
            </Position>
            <AltitudeMeters>745.20001220703125</AltitudeMeters>
            <DistanceMeters>NAN</DistanceMeters>
          </Trackpoint>
          <Trackpoint>
            <Time>2020-03-07T18:20:06.000Z</Time>
            <Position>
              <LatitudeDegrees>40.55511589162051677703857421875</LatitudeDegrees>
              <LongitudeDegrees>-3.70986077003180980682373046875</LongitudeDegrees>
            </Position>
            <AltitudeMeters>745.20001220703125</AltitudeMeters>
            <DistanceMeters>NAN</DistanceMeters>
          </Trackpoint>
          <Trackpoint>
            <Time>2020-03-07T18:20:07.000Z</Time>
            <Position>
              <LatitudeDegrees>40.5551275424659252166748046875</LatitudeDegrees>
              <LongitudeDegrees>-3.7098144181072711944580078125</LongitudeDegrees>
            </Position>
            <AltitudeMeters>745.5999755859375</AltitudeMeters>
            <DistanceMeters>NAN</DistanceMeters>
          </Trackpoint>
          <Trackpoint>
            <Time>2020-03-07T18:20:08.000Z</Time>
            <Position>
              <LatitudeDegrees>40.5551382713019847869873046875</LatitudeDegrees>
              <LongitudeDegrees>-3.70976689271628856658935546875</LongitudeDegrees>
            </Position>
            <AltitudeMeters>746</AltitudeMeters>
            <DistanceMeters>NAN</DistanceMeters>
          </Trackpoint>
          <Trackpoint>
            <Time>2020-03-07T18:20:09.000Z</Time>
            <Position>
              <LatitudeDegrees>40.55514941923320293426513671875</LatitudeDegrees>
              <LongitudeDegrees>-3.7097171880304813385009765625</LongitudeDegrees>
            </Position>
            <AltitudeMeters>746</AltitudeMeters>
            <DistanceMeters>NAN</DistanceMeters>
          </Trackpoint>
          <Trackpoint>
            <Time>2020-03-07T18:20:10.000Z</Time>
            <Position>
              <LatitudeDegrees>40.55515998043119907379150390625</LatitudeDegrees>
              <LongitudeDegrees>-3.70966664515435695648193359375</LongitudeDegrees>
            </Position>
            <AltitudeMeters>746.5999755859375</AltitudeMeters>
            <DistanceMeters>NAN</DistanceMeters>
          </Trackpoint>
          <Trackpoint>
            <Time>2020-03-07T18:20:11.000Z</Time>
            <Position>
              <LatitudeDegrees>40.55517054162919521331787109375</LatitudeDegrees>
              <LongitudeDegrees>-3.70961719192564487457275390625</LongitudeDegrees>
            </Position>
            <AltitudeMeters>747</AltitudeMeters>
            <DistanceMeters>NAN</DistanceMeters>
          </Trackpoint>
          <Trackpoint>
            <Time>2020-03-07T18:20:12.000Z</Time>
            <Position>
              <LatitudeDegrees>40.55517875589430332183837890625</LatitudeDegrees>
              <LongitudeDegrees>-3.70957109145820140838623046875</LongitudeDegrees>
            </Position>
            <AltitudeMeters>747.4000244140625</AltitudeMeters>
            <DistanceMeters>NAN</DistanceMeters>
          </Trackpoint>
          <Trackpoint>
            <Time>2020-03-07T18:20:13.000Z</Time>
            <Position>
              <LatitudeDegrees>40.5551808513700962066650390625</LatitudeDegrees>
              <LongitudeDegrees>-3.70952767319977283477783203125</LongitudeDegrees>
            </Position>
            <AltitudeMeters>747.79998779296875</AltitudeMeters>
            <DistanceMeters>NAN</DistanceMeters>
          </Trackpoint>
          <Trackpoint>
            <Time>2020-03-07T18:20:14.000Z</Time>
            <Position>
              <LatitudeDegrees>40.55516987107694149017333984375</LatitudeDegrees>
              <LongitudeDegrees>-3.70948576368391513824462890625</LongitudeDegrees>
            </Position>
            <AltitudeMeters>748</AltitudeMeters>
            <DistanceMeters>NAN</DistanceMeters>
          </Trackpoint>
          <Trackpoint>
            <Time>2020-03-07T18:20:15.000Z</Time>
            <Position>
              <LatitudeDegrees>40.55514774285256862640380859375</LatitudeDegrees>
              <LongitudeDegrees>-3.709449470043182373046875</LongitudeDegrees>
            </Position>
            <AltitudeMeters>748.20001220703125</AltitudeMeters>
            <DistanceMeters>NAN</DistanceMeters>
          </Trackpoint>
          <Trackpoint>
            <Time>2020-03-07T18:20:16.000Z</Time>
            <Position>
              <LatitudeDegrees>40.5551205016672611236572265625</LatitudeDegrees>
              <LongitudeDegrees>-3.709422647953033447265625</LongitudeDegrees>
            </Position>
            <AltitudeMeters>748.20001220703125</AltitudeMeters>
            <DistanceMeters>NAN</DistanceMeters>
          </Trackpoint>
          <Trackpoint>
            <Time>2020-03-07T18:20:17.000Z</Time>
            <Position>
              <LatitudeDegrees>40.5550909973680973052978515625</LatitudeDegrees>
              <LongitudeDegrees>-3.7093996815383434295654296875</LongitudeDegrees>
            </Position>
            <AltitudeMeters>748.20001220703125</AltitudeMeters>
            <DistanceMeters>NAN</DistanceMeters>
          </Trackpoint>
          <Trackpoint>
            <Time>2020-03-07T18:20:18.000Z</Time>
            <Position>
              <LatitudeDegrees>40.55505973286926746368408203125</LatitudeDegrees>
              <LongitudeDegrees>-3.70938065461814403533935546875</LongitudeDegrees>
            </Position>
            <AltitudeMeters>748.20001220703125</AltitudeMeters>
            <DistanceMeters>NAN</DistanceMeters>
          </Trackpoint>
          <Trackpoint>
            <Time>2020-03-07T18:20:19.000Z</Time>
            <Position>
              <LatitudeDegrees>40.55502268485724925994873046875</LatitudeDegrees>
              <LongitudeDegrees>-3.709351904690265655517578125</LongitudeDegrees>
            </Position>
            <AltitudeMeters>748.4000244140625</AltitudeMeters>
            <DistanceMeters>NAN</DistanceMeters>
          </Trackpoint>
          <Trackpoint>
            <Time>2020-03-07T18:20:20.000Z</Time>
            <Position>
              <LatitudeDegrees>40.55497876368463039398193359375</LatitudeDegrees>
              <LongitudeDegrees>-3.70931242592632770538330078125</LongitudeDegrees>
            </Position>
            <AltitudeMeters>748.4000244140625</AltitudeMeters>
            <DistanceMeters>NAN</DistanceMeters>
          </Trackpoint>
          <Trackpoint>
            <Time>2020-03-07T18:20:21.000Z</Time>
            <Position>
              <LatitudeDegrees>40.55493484251201152801513671875</LatitudeDegrees>
              <LongitudeDegrees>-3.70927185751497745513916015625</LongitudeDegrees>
            </Position>
            <AltitudeMeters>748.4000244140625</AltitudeMeters>
            <DistanceMeters>NAN</DistanceMeters>
          </Trackpoint>
          <Trackpoint>
            <Time>2020-03-07T18:20:22.000Z</Time>
            <Position>
              <LatitudeDegrees>40.5548851378262042999267578125</LatitudeDegrees>
              <LongitudeDegrees>-3.70923011563718318939208984375</LongitudeDegrees>
            </Position>
            <AltitudeMeters>748.4000244140625</AltitudeMeters>
            <DistanceMeters>NAN</DistanceMeters>
          </Trackpoint>
          <Trackpoint>
            <Time>2020-03-07T18:20:23.000Z</Time>
            <Position>
              <LatitudeDegrees>40.5548281408846378326416015625</LatitudeDegrees>
              <LongitudeDegrees>-3.70918518863618373870849609375</LongitudeDegrees>
            </Position>
            <AltitudeMeters>748.4000244140625</AltitudeMeters>
            <DistanceMeters>NAN</DistanceMeters>
          </Trackpoint>
          <Trackpoint>
            <Time>2020-03-07T18:20:24.000Z</Time>
            <Position>
              <LatitudeDegrees>40.55476963520050048828125</LatitudeDegrees>
              <LongitudeDegrees>-3.70913724415004253387451171875</LongitudeDegrees>
            </Position>
            <AltitudeMeters>748.20001220703125</AltitudeMeters>
            <DistanceMeters>NAN</DistanceMeters>
          </Trackpoint>
          <Trackpoint>
            <Time>2020-03-07T18:20:25.000Z</Time>
            <Position>
              <LatitudeDegrees>40.554710291326045989990234375</LatitudeDegrees>
              <LongitudeDegrees>-3.709087371826171875</LongitudeDegrees>
            </Position>
            <AltitudeMeters>748.20001220703125</AltitudeMeters>
            <DistanceMeters>NAN</DistanceMeters>
          </Trackpoint>
          <Trackpoint>
            <Time>2020-03-07T18:20:26.000Z</Time>
            <Position>
              <LatitudeDegrees>40.55464692413806915283203125</LatitudeDegrees>
              <LongitudeDegrees>-3.70903573930263519287109375</LongitudeDegrees>
            </Position>
            <AltitudeMeters>748</AltitudeMeters>
            <DistanceMeters>NAN</DistanceMeters>
          </Trackpoint>
          <Trackpoint>
            <Time>2020-03-07T18:20:27.000Z</Time>
            <Position>
              <LatitudeDegrees>40.554580874741077423095703125</LatitudeDegrees>
              <LongitudeDegrees>-3.708983100950717926025390625</LongitudeDegrees>
            </Position>
            <AltitudeMeters>748</AltitudeMeters>
            <DistanceMeters>NAN</DistanceMeters>
          </Trackpoint>
          <Trackpoint>
            <Time>2020-03-07T18:20:28.000Z</Time>
            <Position>
              <LatitudeDegrees>40.5545146577060222625732421875</LatitudeDegrees>
              <LongitudeDegrees>-3.70893004350364208221435546875</LongitudeDegrees>
            </Position>
            <AltitudeMeters>747.79998779296875</AltitudeMeters>
            <DistanceMeters>NAN</DistanceMeters>
          </Trackpoint>
          <Trackpoint>
            <Time>2020-03-07T18:20:29.000Z</Time>
            <Position>
              <LatitudeDegrees>40.55445623584091663360595703125</LatitudeDegrees>
              <LongitudeDegrees>-3.70888444595038890838623046875</LongitudeDegrees>
            </Position>
            <AltitudeMeters>747.4000244140625</AltitudeMeters>
            <DistanceMeters>NAN</DistanceMeters>
          </Trackpoint>
          <Trackpoint>
            <Time>2020-03-07T18:20:30.000Z</Time>
            <Position>
              <LatitudeDegrees>40.5544008314609527587890625</LatitudeDegrees>
              <LongitudeDegrees>-3.70884664356708526611328125</LongitudeDegrees>
            </Position>
            <AltitudeMeters>746.79998779296875</AltitudeMeters>
            <DistanceMeters>NAN</DistanceMeters>
          </Trackpoint>
          <Trackpoint>
            <Time>2020-03-07T18:20:31.000Z</Time>
            <Position>
              <LatitudeDegrees>40.554346181452274322509765625</LatitudeDegrees>
              <LongitudeDegrees>-3.7088079191744327545166015625</LongitudeDegrees>
            </Position>
            <AltitudeMeters>746.20001220703125</AltitudeMeters>
            <DistanceMeters>NAN</DistanceMeters>
          </Trackpoint>
          <Trackpoint>
            <Time>2020-03-07T18:20:32.000Z</Time>
            <Position>
              <LatitudeDegrees>40.55429630912840366363525390625</LatitudeDegrees>
              <LongitudeDegrees>-3.708771206438541412353515625</LongitudeDegrees>
            </Position>
            <AltitudeMeters>745.5999755859375</AltitudeMeters>
            <DistanceMeters>NAN</DistanceMeters>
          </Trackpoint>
          <Trackpoint>
            <Time>2020-03-07T18:20:33.000Z</Time>
            <Position>
              <LatitudeDegrees>40.5542479455471038818359375</LatitudeDegrees>
              <LongitudeDegrees>-3.70873239822685718536376953125</LongitudeDegrees>
            </Position>
            <AltitudeMeters>745.20001220703125</AltitudeMeters>
            <DistanceMeters>NAN</DistanceMeters>
          </Trackpoint>
          <Trackpoint>
            <Time>2020-03-07T18:20:34.000Z</Time>
            <Position>
              <LatitudeDegrees>40.554204694926738739013671875</LatitudeDegrees>
              <LongitudeDegrees>-3.7086971104145050048828125</LongitudeDegrees>
            </Position>
            <AltitudeMeters>745</AltitudeMeters>
            <DistanceMeters>NAN</DistanceMeters>
          </Trackpoint>
          <Trackpoint>
            <Time>2020-03-07T18:20:35.000Z</Time>
            <Position>
              <LatitudeDegrees>40.55416219867765903472900390625</LatitudeDegrees>
              <LongitudeDegrees>-3.70866358280181884765625</LongitudeDegrees>
            </Position>
            <AltitudeMeters>745</AltitudeMeters>
            <DistanceMeters>NAN</DistanceMeters>
          </Trackpoint>
          <Trackpoint>
            <Time>2020-03-07T18:20:36.000Z</Time>
            <Position>
              <LatitudeDegrees>40.55411861278116703033447265625</LatitudeDegrees>
              <LongitudeDegrees>-3.70863072574138641357421875</LongitudeDegrees>
            </Position>
            <AltitudeMeters>745</AltitudeMeters>
            <DistanceMeters>NAN</DistanceMeters>
          </Trackpoint>
          <Trackpoint>
            <Time>2020-03-07T18:20:37.000Z</Time>
            <Position>
              <LatitudeDegrees>40.55407418869435787200927734375</LatitudeDegrees>
              <LongitudeDegrees>-3.7085970304906368255615234375</LongitudeDegrees>
            </Position>
            <AltitudeMeters>745</AltitudeMeters>
            <DistanceMeters>NAN</DistanceMeters>
          </Trackpoint>
          <Trackpoint>
            <Time>2020-03-07T18:20:38.000Z</Time>
            <Position>
              <LatitudeDegrees>40.55402993224561214447021484375</LatitudeDegrees>
              <LongitudeDegrees>-3.70856090448796749114990234375</LongitudeDegrees>
            </Position>
            <AltitudeMeters>745</AltitudeMeters>
            <DistanceMeters>NAN</DistanceMeters>
          </Trackpoint>
          <Trackpoint>
            <Time>2020-03-07T18:20:39.000Z</Time>
            <Position>
              <LatitudeDegrees>40.55398668162524700164794921875</LatitudeDegrees>
              <LongitudeDegrees>-3.70852301828563213348388671875</LongitudeDegrees>
            </Position>
            <AltitudeMeters>745</AltitudeMeters>
            <DistanceMeters>NAN</DistanceMeters>
          </Trackpoint>
          <Trackpoint>
            <Time>2020-03-07T18:20:40.000Z</Time>
            <Position>
              <LatitudeDegrees>40.55394326336681842803955078125</LatitudeDegrees>
              <LongitudeDegrees>-3.7084850482642650604248046875</LongitudeDegrees>
            </Position>
            <AltitudeMeters>745</AltitudeMeters>
            <DistanceMeters>NAN</DistanceMeters>
          </Trackpoint>
          <Trackpoint>
            <Time>2020-03-07T18:20:41.000Z</Time>
            <Position>
              <LatitudeDegrees>40.55390118621289730072021484375</LatitudeDegrees>
              <LongitudeDegrees>-3.70844833552837371826171875</LongitudeDegrees>
            </Position>
            <AltitudeMeters>745</AltitudeMeters>
            <DistanceMeters>NAN</DistanceMeters>
          </Trackpoint>
          <Trackpoint>
            <Time>2020-03-07T18:20:42.000Z</Time>
            <Position>
              <LatitudeDegrees>40.55386145599186420440673828125</LatitudeDegrees>
              <LongitudeDegrees>-3.7084126286208629608154296875</LongitudeDegrees>
            </Position>
            <AltitudeMeters>745</AltitudeMeters>
            <DistanceMeters>NAN</DistanceMeters>
          </Trackpoint>
          <Trackpoint>
            <Time>2020-03-07T18:20:43.000Z</Time>
            <Position>
              <LatitudeDegrees>40.55382206104695796966552734375</LatitudeDegrees>
              <LongitudeDegrees>-3.70837633498013019561767578125</LongitudeDegrees>
            </Position>
            <AltitudeMeters>745.20001220703125</AltitudeMeters>
            <DistanceMeters>NAN</DistanceMeters>
          </Trackpoint>
          <Trackpoint>
            <Time>2020-03-07T18:20:44.000Z</Time>
            <Position>
              <LatitudeDegrees>40.55378166027367115020751953125</LatitudeDegrees>
              <LongitudeDegrees>-3.70833895169198513031005859375</LongitudeDegrees>
            </Position>
            <AltitudeMeters>745.5999755859375</AltitudeMeters>
            <DistanceMeters>NAN</DistanceMeters>
          </Trackpoint>
          <Trackpoint>
            <Time>2020-03-07T18:20:45.000Z</Time>
            <Position>
              <LatitudeDegrees>40.55374109186232089996337890625</LatitudeDegrees>
              <LongitudeDegrees>-3.7083028256893157958984375</LongitudeDegrees>
            </Position>
            <AltitudeMeters>746</AltitudeMeters>
            <DistanceMeters>NAN</DistanceMeters>
          </Trackpoint>
          <Trackpoint>
            <Time>2020-03-07T18:20:46.000Z</Time>
            <Position>
              <LatitudeDegrees>40.55370337329804897308349609375</LatitudeDegrees>
              <LongitudeDegrees>-3.70826636441051959991455078125</LongitudeDegrees>
            </Position>
            <AltitudeMeters>746.20001220703125</AltitudeMeters>
            <DistanceMeters>NAN</DistanceMeters>
          </Trackpoint>
          <Trackpoint>
            <Time>2020-03-07T18:20:47.000Z</Time>
            <Position>
              <LatitudeDegrees>40.55366498418152332305908203125</LatitudeDegrees>
              <LongitudeDegrees>-3.7082288973033428192138671875</LongitudeDegrees>
            </Position>
            <AltitudeMeters>746.4000244140625</AltitudeMeters>
            <DistanceMeters>NAN</DistanceMeters>
          </Trackpoint>
          <Trackpoint>
            <Time>2020-03-07T18:20:48.000Z</Time>
            <Position>
              <LatitudeDegrees>40.55362424813210964202880859375</LatitudeDegrees>
              <LongitudeDegrees>-3.708190508186817169189453125</LongitudeDegrees>
            </Position>
            <AltitudeMeters>746.5999755859375</AltitudeMeters>
            <DistanceMeters>NAN</DistanceMeters>
          </Trackpoint>
          <Trackpoint>
            <Time>2020-03-07T18:20:49.000Z</Time>
            <Position>
              <LatitudeDegrees>40.55358342826366424560546875</LatitudeDegrees>
              <LongitudeDegrees>-3.70815119706094264984130859375</LongitudeDegrees>
            </Position>
            <AltitudeMeters>746.5999755859375</AltitudeMeters>
            <DistanceMeters>NAN</DistanceMeters>
          </Trackpoint>
          <Trackpoint>
            <Time>2020-03-07T18:20:50.000Z</Time>
            <Position>
              <LatitudeDegrees>40.55354076437652111053466796875</LatitudeDegrees>
              <LongitudeDegrees>-3.70810811407864093780517578125</LongitudeDegrees>
            </Position>
            <AltitudeMeters>746.79998779296875</AltitudeMeters>
            <DistanceMeters>NAN</DistanceMeters>
          </Trackpoint>
          <Trackpoint>
            <Time>2020-03-07T18:20:51.000Z</Time>
            <Position>
              <LatitudeDegrees>40.553497932851314544677734375</LatitudeDegrees>
              <LongitudeDegrees>-3.70806251652538776397705078125</LongitudeDegrees>
            </Position>
            <AltitudeMeters>747</AltitudeMeters>
            <DistanceMeters>NAN</DistanceMeters>
          </Trackpoint>
          <Trackpoint>
            <Time>2020-03-07T18:20:52.000Z</Time>
            <Position>
              <LatitudeDegrees>40.5534565262496471405029296875</LatitudeDegrees>
              <LongitudeDegrees>-3.70801784098148345947265625</LongitudeDegrees>
            </Position>
            <AltitudeMeters>747.20001220703125</AltitudeMeters>
            <DistanceMeters>NAN</DistanceMeters>
          </Trackpoint>
          <Trackpoint>
            <Time>2020-03-07T18:20:53.000Z</Time>
            <Position>
              <LatitudeDegrees>40.55341738276183605194091796875</LatitudeDegrees>
              <LongitudeDegrees>-3.70797484181821346282958984375</LongitudeDegrees>
            </Position>
            <AltitudeMeters>747.5999755859375</AltitudeMeters>
            <DistanceMeters>NAN</DistanceMeters>
          </Trackpoint>
          <Trackpoint>
            <Time>2020-03-07T18:20:54.000Z</Time>
            <Position>
              <LatitudeDegrees>40.55337882600724697113037109375</LatitudeDegrees>
              <LongitudeDegrees>-3.7079298309981822967529296875</LongitudeDegrees>
            </Position>
            <AltitudeMeters>747.79998779296875</AltitudeMeters>
            <DistanceMeters>NAN</DistanceMeters>
          </Trackpoint>
          <Trackpoint>
            <Time>2020-03-07T18:20:55.000Z</Time>
            <Position>
              <LatitudeDegrees>40.55333842523396015167236328125</LatitudeDegrees>
              <LongitudeDegrees>-3.707881383597850799560546875</LongitudeDegrees>
            </Position>
            <AltitudeMeters>747.79998779296875</AltitudeMeters>
            <DistanceMeters>NAN</DistanceMeters>
          </Trackpoint>
          <Trackpoint>
            <Time>2020-03-07T18:20:56.000Z</Time>
            <Position>
              <LatitudeDegrees>40.55329735390841960906982421875</LatitudeDegrees>
              <LongitudeDegrees>-3.7078322656452655792236328125</LongitudeDegrees>
            </Position>
            <AltitudeMeters>748.20001220703125</AltitudeMeters>
            <DistanceMeters>NAN</DistanceMeters>
          </Trackpoint>
          <Trackpoint>
            <Time>2020-03-07T18:20:57.000Z</Time>
            <Position>
              <LatitudeDegrees>40.55325695313513278961181640625</LatitudeDegrees>
              <LongitudeDegrees>-3.70778490789234638214111328125</LongitudeDegrees>
            </Position>
            <AltitudeMeters>748.4000244140625</AltitudeMeters>
            <DistanceMeters>NAN</DistanceMeters>
          </Trackpoint>
          <Trackpoint>
            <Time>2020-03-07T18:20:58.000Z</Time>
            <Position>
              <LatitudeDegrees>40.553217642009258270263671875</LatitudeDegrees>
              <LongitudeDegrees>-3.70773746632039546966552734375</LongitudeDegrees>
            </Position>
            <AltitudeMeters>748.5999755859375</AltitudeMeters>
            <DistanceMeters>NAN</DistanceMeters>
          </Trackpoint>
          <Trackpoint>
            <Time>2020-03-07T18:20:59.000Z</Time>
            <Position>
              <LatitudeDegrees>40.55317900143563747406005859375</LatitudeDegrees>
              <LongitudeDegrees>-3.7076907791197299957275390625</LongitudeDegrees>
            </Position>
            <AltitudeMeters>748.79998779296875</AltitudeMeters>
            <DistanceMeters>NAN</DistanceMeters>
          </Trackpoint>
          <Trackpoint>
            <Time>2020-03-07T18:21:00.000Z</Time>
            <Position>
              <LatitudeDegrees>40.5531400255858898162841796875</LatitudeDegrees>
              <LongitudeDegrees>-3.7076448462903499603271484375</LongitudeDegrees>
            </Position>
            <AltitudeMeters>749.20001220703125</AltitudeMeters>
            <DistanceMeters>NAN</DistanceMeters>
          </Trackpoint>
          <Trackpoint>
            <Time>2020-03-07T18:21:01.000Z</Time>
            <Position>
              <LatitudeDegrees>40.5531007982790470123291015625</LatitudeDegrees>
              <LongitudeDegrees>-3.70759849436581134796142578125</LongitudeDegrees>
            </Position>
            <AltitudeMeters>749.4000244140625</AltitudeMeters>
            <DistanceMeters>NAN</DistanceMeters>
          </Trackpoint>
          <Trackpoint>
            <Time>2020-03-07T18:21:02.000Z</Time>
            <Position>
              <LatitudeDegrees>40.553062744438648223876953125</LatitudeDegrees>
              <LongitudeDegrees>-3.70755189098417758941650390625</LongitudeDegrees>
            </Position>
            <AltitudeMeters>749.5999755859375</AltitudeMeters>
            <DistanceMeters>NAN</DistanceMeters>
          </Trackpoint>
          <Trackpoint>
            <Time>2020-03-07T18:21:03.000Z</Time>
            <Position>
              <LatitudeDegrees>40.5530260317027568817138671875</LatitudeDegrees>
              <LongitudeDegrees>-3.70750428177416324615478515625</LongitudeDegrees>
            </Position>
            <AltitudeMeters>749.79998779296875</AltitudeMeters>
            <DistanceMeters>NAN</DistanceMeters>
          </Trackpoint>
          <Trackpoint>
            <Time>2020-03-07T18:21:04.000Z</Time>
            <Position>
              <LatitudeDegrees>40.5529891513288021087646484375</LatitudeDegrees>
              <LongitudeDegrees>-3.70745583437383174896240234375</LongitudeDegrees>
            </Position>
            <AltitudeMeters>749.79998779296875</AltitudeMeters>
            <DistanceMeters>NAN</DistanceMeters>
          </Trackpoint>
          <Trackpoint>
            <Time>2020-03-07T18:21:05.000Z</Time>
            <Position>
              <LatitudeDegrees>40.55295218713581562042236328125</LatitudeDegrees>
              <LongitudeDegrees>-3.70740772224962711334228515625</LongitudeDegrees>
            </Position>
            <AltitudeMeters>750.20001220703125</AltitudeMeters>
            <DistanceMeters>NAN</DistanceMeters>
          </Trackpoint>
          <Trackpoint>
            <Time>2020-03-07T18:21:06.000Z</Time>
            <Position>
              <LatitudeDegrees>40.55291396565735340118408203125</LatitudeDegrees>
              <LongitudeDegrees>-3.7073586881160736083984375</LongitudeDegrees>
            </Position>
            <AltitudeMeters>750.4000244140625</AltitudeMeters>
            <DistanceMeters>NAN</DistanceMeters>
          </Trackpoint>
          <Trackpoint>
            <Time>2020-03-07T18:21:07.000Z</Time>
            <Position>
              <LatitudeDegrees>40.5528758279979228973388671875</LatitudeDegrees>
              <LongitudeDegrees>-3.70730973780155181884765625</LongitudeDegrees>
            </Position>
            <AltitudeMeters>750.79998779296875</AltitudeMeters>
            <DistanceMeters>NAN</DistanceMeters>
          </Trackpoint>
          <Trackpoint>
            <Time>2020-03-07T18:21:08.000Z</Time>
            <Position>
              <LatitudeDegrees>40.552836768329143524169921875</LatitudeDegrees>
              <LongitudeDegrees>-3.7072602845728397369384765625</LongitudeDegrees>
            </Position>
            <AltitudeMeters>750.79998779296875</AltitudeMeters>
            <DistanceMeters>NAN</DistanceMeters>
          </Trackpoint>
          <Trackpoint>
            <Time>2020-03-07T18:21:09.000Z</Time>
            <Position>
              <LatitudeDegrees>40.55279678665101528167724609375</LatitudeDegrees>
              <LongitudeDegrees>-3.70720873586833477020263671875</LongitudeDegrees>
            </Position>
            <AltitudeMeters>751.20001220703125</AltitudeMeters>
            <DistanceMeters>NAN</DistanceMeters>
          </Trackpoint>
          <Trackpoint>
            <Time>2020-03-07T18:21:10.000Z</Time>
            <Position>
              <LatitudeDegrees>40.5527579784393310546875</LatitudeDegrees>
              <LongitudeDegrees>-3.70715810917317867279052734375</LongitudeDegrees>
            </Position>
            <AltitudeMeters>751.4000244140625</AltitudeMeters>
            <DistanceMeters>NAN</DistanceMeters>
          </Trackpoint>
          <Trackpoint>
            <Time>2020-03-07T18:21:11.000Z</Time>
            <Position>
              <LatitudeDegrees>40.552719421684741973876953125</LatitudeDegrees>
              <LongitudeDegrees>-3.70710932649672031402587890625</LongitudeDegrees>
            </Position>
            <AltitudeMeters>751.5999755859375</AltitudeMeters>
            <DistanceMeters>NAN</DistanceMeters>
          </Trackpoint>
          <Trackpoint>
            <Time>2020-03-07T18:21:12.000Z</Time>
            <Position>
              <LatitudeDegrees>40.5526793561875820159912109375</LatitudeDegrees>
              <LongitudeDegrees>-3.7070591188967227935791015625</LongitudeDegrees>
            </Position>
            <AltitudeMeters>752</AltitudeMeters>
            <DistanceMeters>NAN</DistanceMeters>
          </Trackpoint>
          <Trackpoint>
            <Time>2020-03-07T18:21:13.000Z</Time>
            <Position>
              <LatitudeDegrees>40.5526386201381683349609375</LatitudeDegrees>
              <LongitudeDegrees>-3.7070068158209323883056640625</LongitudeDegrees>
            </Position>
            <AltitudeMeters>752.20001220703125</AltitudeMeters>
            <DistanceMeters>NAN</DistanceMeters>
          </Trackpoint>
          <Trackpoint>
            <Time>2020-03-07T18:21:14.000Z</Time>
            <Position>
              <LatitudeDegrees>40.55259679444134235382080078125</LatitudeDegrees>
              <LongitudeDegrees>-3.70695660822093486785888671875</LongitudeDegrees>
            </Position>
            <AltitudeMeters>752.5999755859375</AltitudeMeters>
            <DistanceMeters>NAN</DistanceMeters>
          </Trackpoint>
          <Trackpoint>
            <Time>2020-03-07T18:21:15.000Z</Time>
            <Position>
              <LatitudeDegrees>40.55255589075386524200439453125</LatitudeDegrees>
              <LongitudeDegrees>-3.7069095857441425323486328125</LongitudeDegrees>
            </Position>
            <AltitudeMeters>752.79998779296875</AltitudeMeters>
            <DistanceMeters>NAN</DistanceMeters>
          </Trackpoint>
          <Trackpoint>
            <Time>2020-03-07T18:21:16.000Z</Time>
            <Position>
              <LatitudeDegrees>40.55251565761864185333251953125</LatitudeDegrees>
              <LongitudeDegrees>-3.706864155828952789306640625</LongitudeDegrees>
            </Position>
            <AltitudeMeters>753</AltitudeMeters>
            <DistanceMeters>NAN</DistanceMeters>
          </Trackpoint>
          <Trackpoint>
            <Time>2020-03-07T18:21:17.000Z</Time>
            <Position>
              <LatitudeDegrees>40.55247341282665729522705078125</LatitudeDegrees>
              <LongitudeDegrees>-3.70681998319923877716064453125</LongitudeDegrees>
            </Position>
            <AltitudeMeters>753.20001220703125</AltitudeMeters>
            <DistanceMeters>NAN</DistanceMeters>
          </Trackpoint>
          <Trackpoint>
            <Time>2020-03-07T18:21:18.000Z</Time>
            <Position>
              <LatitudeDegrees>40.55242965929210186004638671875</LatitudeDegrees>
              <LongitudeDegrees>-3.70677555911242961883544921875</LongitudeDegrees>
            </Position>
            <AltitudeMeters>753.20001220703125</AltitudeMeters>
            <DistanceMeters>NAN</DistanceMeters>
          </Trackpoint>
          <Trackpoint>
            <Time>2020-03-07T18:21:19.000Z</Time>
            <Position>
              <LatitudeDegrees>40.55238456465303897857666015625</LatitudeDegrees>
              <LongitudeDegrees>-3.70673130266368389129638671875</LongitudeDegrees>
            </Position>
            <AltitudeMeters>753.5999755859375</AltitudeMeters>
            <DistanceMeters>NAN</DistanceMeters>
          </Trackpoint>
          <Trackpoint>
            <Time>2020-03-07T18:21:20.000Z</Time>
            <Position>
              <LatitudeDegrees>40.552339889109134674072265625</LatitudeDegrees>
              <LongitudeDegrees>-3.7066879682242870330810546875</LongitudeDegrees>
            </Position>
            <AltitudeMeters>754</AltitudeMeters>
            <DistanceMeters>NAN</DistanceMeters>
          </Trackpoint>
          <Trackpoint>
            <Time>2020-03-07T18:21:21.000Z</Time>
            <Position>
              <LatitudeDegrees>40.5522958002984523773193359375</LatitudeDegrees>
              <LongitudeDegrees>-3.70664547197520732879638671875</LongitudeDegrees>
            </Position>
            <AltitudeMeters>754</AltitudeMeters>
            <DistanceMeters>NAN</DistanceMeters>
          </Trackpoint>
          <Trackpoint>
            <Time>2020-03-07T18:21:22.000Z</Time>
            <Position>
              <LatitudeDegrees>40.55225313641130924224853515625</LatitudeDegrees>
              <LongitudeDegrees>-3.70660373009741306304931640625</LongitudeDegrees>
            </Position>
            <AltitudeMeters>754.20001220703125</AltitudeMeters>
            <DistanceMeters>NAN</DistanceMeters>
          </Trackpoint>
          <Trackpoint>
            <Time>2020-03-07T18:21:23.000Z</Time>
            <Position>
              <LatitudeDegrees>40.5522109754383563995361328125</LatitudeDegrees>
              <LongitudeDegrees>-3.706564418971538543701171875</LongitudeDegrees>
            </Position>
            <AltitudeMeters>754.5999755859375</AltitudeMeters>
            <DistanceMeters>NAN</DistanceMeters>
          </Trackpoint>
          <Trackpoint>
            <Time>2020-03-07T18:21:24.000Z</Time>
            <Position>
              <LatitudeDegrees>40.5521677248179912567138671875</LatitudeDegrees>
              <LongitudeDegrees>-3.706526868045330047607421875</LongitudeDegrees>
            </Position>
            <AltitudeMeters>754.5999755859375</AltitudeMeters>
            <DistanceMeters>NAN</DistanceMeters>
          </Trackpoint>
          <Trackpoint>
            <Time>2020-03-07T18:21:25.000Z</Time>
            <Position>
              <LatitudeDegrees>40.55212489329278469085693359375</LatitudeDegrees>
              <LongitudeDegrees>-3.70649158023297786712646484375</LongitudeDegrees>
            </Position>
            <AltitudeMeters>754.79998779296875</AltitudeMeters>
            <DistanceMeters>NAN</DistanceMeters>
          </Trackpoint>
          <Trackpoint>
            <Time>2020-03-07T18:21:26.000Z</Time>
            <Position>
              <LatitudeDegrees>40.55208181031048297882080078125</LatitudeDegrees>
              <LongitudeDegrees>-3.7064559571444988250732421875</LongitudeDegrees>
            </Position>
            <AltitudeMeters>755.20001220703125</AltitudeMeters>
            <DistanceMeters>NAN</DistanceMeters>
          </Trackpoint>
          <Trackpoint>
            <Time>2020-03-07T18:21:27.000Z</Time>
            <Position>
              <LatitudeDegrees>40.552036799490451812744140625</LatitudeDegrees>
              <LongitudeDegrees>-3.706418909132480621337890625</LongitudeDegrees>
            </Position>
            <AltitudeMeters>755.4000244140625</AltitudeMeters>
            <DistanceMeters>NAN</DistanceMeters>
          </Trackpoint>
          <Trackpoint>
            <Time>2020-03-07T18:21:28.000Z</Time>
            <Position>
              <LatitudeDegrees>40.55199011228978633880615234375</LatitudeDegrees>
              <LongitudeDegrees>-3.7063808552920818328857421875</LongitudeDegrees>
            </Position>
            <AltitudeMeters>755.5999755859375</AltitudeMeters>
            <DistanceMeters>NAN</DistanceMeters>
          </Trackpoint>
          <Trackpoint>
            <Time>2020-03-07T18:21:29.000Z</Time>
            <Position>
              <LatitudeDegrees>40.55194501765072345733642578125</LatitudeDegrees>
              <LongitudeDegrees>-3.7063448131084442138671875</LongitudeDegrees>
            </Position>
            <AltitudeMeters>755.79998779296875</AltitudeMeters>
            <DistanceMeters>NAN</DistanceMeters>
          </Trackpoint>
          <Trackpoint>
            <Time>2020-03-07T18:21:30.000Z</Time>
            <Position>
              <LatitudeDegrees>40.55189942009747028350830078125</LatitudeDegrees>
              <LongitudeDegrees>-3.7063087709248065948486328125</LongitudeDegrees>
            </Position>
            <AltitudeMeters>756</AltitudeMeters>
            <DistanceMeters>NAN</DistanceMeters>
          </Trackpoint>
          <Trackpoint>
            <Time>2020-03-07T18:21:31.000Z</Time>
            <Position>
              <LatitudeDegrees>40.55185248143970966339111328125</LatitudeDegrees>
              <LongitudeDegrees>-3.70627147145569324493408203125</LongitudeDegrees>
            </Position>
            <AltitudeMeters>756</AltitudeMeters>
            <DistanceMeters>NAN</DistanceMeters>
          </Trackpoint>
          <Trackpoint>
            <Time>2020-03-07T18:21:32.000Z</Time>
            <Position>
              <LatitudeDegrees>40.551803447306156158447265625</LatitudeDegrees>
              <LongitudeDegrees>-3.70623551309108734130859375</LongitudeDegrees>
            </Position>
            <AltitudeMeters>756.20001220703125</AltitudeMeters>
            <DistanceMeters>NAN</DistanceMeters>
          </Trackpoint>
          <Trackpoint>
            <Time>2020-03-07T18:21:33.000Z</Time>
            <Position>
              <LatitudeDegrees>40.55175525136291980743408203125</LatitudeDegrees>
              <LongitudeDegrees>-3.70620005764067173004150390625</LongitudeDegrees>
            </Position>
            <AltitudeMeters>756.20001220703125</AltitudeMeters>
            <DistanceMeters>NAN</DistanceMeters>
          </Trackpoint>
          <Trackpoint>
            <Time>2020-03-07T18:21:34.000Z</Time>
            <Position>
              <LatitudeDegrees>40.5517063848674297332763671875</LatitudeDegrees>
              <LongitudeDegrees>-3.70616502128541469573974609375</LongitudeDegrees>
            </Position>
            <AltitudeMeters>756.20001220703125</AltitudeMeters>
            <DistanceMeters>NAN</DistanceMeters>
          </Trackpoint>
          <Trackpoint>
            <Time>2020-03-07T18:21:35.000Z</Time>
            <Position>
              <LatitudeDegrees>40.5516567640006542205810546875</LatitudeDegrees>
              <LongitudeDegrees>-3.70613300241529941558837890625</LongitudeDegrees>
            </Position>
            <AltitudeMeters>756.20001220703125</AltitudeMeters>
            <DistanceMeters>NAN</DistanceMeters>
          </Trackpoint>
          <Trackpoint>
            <Time>2020-03-07T18:21:36.000Z</Time>
            <Position>
              <LatitudeDegrees>40.55160555057227611541748046875</LatitudeDegrees>
              <LongitudeDegrees>-3.7061007320880889892578125</LongitudeDegrees>
            </Position>
            <AltitudeMeters>756.4000244140625</AltitudeMeters>
            <DistanceMeters>NAN</DistanceMeters>
          </Trackpoint>
          <Trackpoint>
            <Time>2020-03-07T18:21:37.000Z</Time>
            <Position>
              <LatitudeDegrees>40.5515538342297077178955078125</LatitudeDegrees>
              <LongitudeDegrees>-3.70606678538024425506591796875</LongitudeDegrees>
            </Position>
            <AltitudeMeters>756.4000244140625</AltitudeMeters>
            <DistanceMeters>NAN</DistanceMeters>
          </Trackpoint>
          <Trackpoint>
            <Time>2020-03-07T18:21:38.000Z</Time>
            <Position>
              <LatitudeDegrees>40.5514978431165218353271484375</LatitudeDegrees>
              <LongitudeDegrees>-3.70602990500628948211669921875</LongitudeDegrees>
            </Position>
            <AltitudeMeters>756.4000244140625</AltitudeMeters>
            <DistanceMeters>NAN</DistanceMeters>
          </Trackpoint>
          <Trackpoint>
            <Time>2020-03-07T18:21:39.000Z</Time>
            <Position>
              <LatitudeDegrees>40.55144025944173336029052734375</LatitudeDegrees>
              <LongitudeDegrees>-3.7059952877461910247802734375</LongitudeDegrees>
            </Position>
            <AltitudeMeters>756.4000244140625</AltitudeMeters>
            <DistanceMeters>NAN</DistanceMeters>
          </Trackpoint>
          <Trackpoint>
            <Time>2020-03-07T18:21:40.000Z</Time>
            <Position>
              <LatitudeDegrees>40.5513831786811351776123046875</LatitudeDegrees>
              <LongitudeDegrees>-3.70596318505704402923583984375</LongitudeDegrees>
            </Position>
            <AltitudeMeters>756.4000244140625</AltitudeMeters>
            <DistanceMeters>NAN</DistanceMeters>
          </Trackpoint>
          <Trackpoint>
            <Time>2020-03-07T18:21:41.000Z</Time>
            <Position>
              <LatitudeDegrees>40.551326684653759002685546875</LatitudeDegrees>
              <LongitudeDegrees>-3.70593376457691192626953125</LongitudeDegrees>
            </Position>
            <AltitudeMeters>756.4000244140625</AltitudeMeters>
            <DistanceMeters>NAN</DistanceMeters>
          </Trackpoint>
          <Trackpoint>
            <Time>2020-03-07T18:21:42.000Z</Time>
            <Position>
              <LatitudeDegrees>40.55127211846411228179931640625</LatitudeDegrees>
              <LongitudeDegrees>-3.70590853504836559295654296875</LongitudeDegrees>
            </Position>
            <AltitudeMeters>756.4000244140625</AltitudeMeters>
            <DistanceMeters>NAN</DistanceMeters>
          </Trackpoint>
          <Trackpoint>
            <Time>2020-03-07T18:21:43.000Z</Time>
            <Position>
              <LatitudeDegrees>40.5512155406177043914794921875</LatitudeDegrees>
              <LongitudeDegrees>-3.70588037185370922088623046875</LongitudeDegrees>
            </Position>
            <AltitudeMeters>756.4000244140625</AltitudeMeters>
            <DistanceMeters>NAN</DistanceMeters>
          </Trackpoint>
          <Trackpoint>
            <Time>2020-03-07T18:21:44.000Z</Time>
            <Position>
              <LatitudeDegrees>40.5511580407619476318359375</LatitudeDegrees>
              <LongitudeDegrees>-3.70585287921130657196044921875</LongitudeDegrees>
            </Position>
            <AltitudeMeters>756.20001220703125</AltitudeMeters>
            <DistanceMeters>NAN</DistanceMeters>
          </Trackpoint>
          <Trackpoint>
            <Time>2020-03-07T18:21:45.000Z</Time>
            <Position>
              <LatitudeDegrees>40.5510985292494297027587890625</LatitudeDegrees>
              <LongitudeDegrees>-3.70582354255020618438720703125</LongitudeDegrees>
            </Position>
            <AltitudeMeters>756.20001220703125</AltitudeMeters>
            <DistanceMeters>NAN</DistanceMeters>
          </Trackpoint>
          <Trackpoint>
            <Time>2020-03-07T18:21:46.000Z</Time>
            <Position>
              <LatitudeDegrees>40.55103742517530918121337890625</LatitudeDegrees>
              <LongitudeDegrees>-3.7057911045849323272705078125</LongitudeDegrees>
            </Position>
            <AltitudeMeters>756.20001220703125</AltitudeMeters>
            <DistanceMeters>NAN</DistanceMeters>
          </Trackpoint>
          <Trackpoint>
            <Time>2020-03-07T18:21:47.000Z</Time>
            <Position>
              <LatitudeDegrees>40.5509754829108715057373046875</LatitudeDegrees>
              <LongitudeDegrees>-3.7057562358677387237548828125</LongitudeDegrees>
            </Position>
            <AltitudeMeters>756</AltitudeMeters>
            <DistanceMeters>NAN</DistanceMeters>
          </Trackpoint>
          <Trackpoint>
            <Time>2020-03-07T18:21:48.000Z</Time>
            <Position>
              <LatitudeDegrees>40.550913624465465545654296875</LatitudeDegrees>
              <LongitudeDegrees>-3.70572430081665515899658203125</LongitudeDegrees>
            </Position>
            <AltitudeMeters>755.79998779296875</AltitudeMeters>
            <DistanceMeters>NAN</DistanceMeters>
          </Trackpoint>
          <Trackpoint>
            <Time>2020-03-07T18:21:49.000Z</Time>
            <Position>
              <LatitudeDegrees>40.55085067637264728546142578125</LatitudeDegrees>
              <LongitudeDegrees>-3.7056935392320156097412109375</LongitudeDegrees>
            </Position>
            <AltitudeMeters>755.5999755859375</AltitudeMeters>
            <DistanceMeters>NAN</DistanceMeters>
          </Trackpoint>
          <Trackpoint>
            <Time>2020-03-07T18:21:50.000Z</Time>
            <Position>
              <LatitudeDegrees>40.55078630335628986358642578125</LatitudeDegrees>
              <LongitudeDegrees>-3.7056636996567249298095703125</LongitudeDegrees>
            </Position>
            <AltitudeMeters>755.4000244140625</AltitudeMeters>
            <DistanceMeters>NAN</DistanceMeters>
          </Trackpoint>
          <Trackpoint>
            <Time>2020-03-07T18:21:51.000Z</Time>
            <Position>
              <LatitudeDegrees>40.55071908049285411834716796875</LatitudeDegrees>
              <LongitudeDegrees>-3.705635033547878265380859375</LongitudeDegrees>
            </Position>
            <AltitudeMeters>755.20001220703125</AltitudeMeters>
            <DistanceMeters>NAN</DistanceMeters>
          </Trackpoint>
          <Trackpoint>
            <Time>2020-03-07T18:21:52.000Z</Time>
            <Position>
              <LatitudeDegrees>40.5506511032581329345703125</LatitudeDegrees>
              <LongitudeDegrees>-3.7056107260286808013916015625</LongitudeDegrees>
            </Position>
            <AltitudeMeters>754.79998779296875</AltitudeMeters>
            <DistanceMeters>NAN</DistanceMeters>
          </Trackpoint>
          <Trackpoint>
            <Time>2020-03-07T18:21:53.000Z</Time>
            <Position>
              <LatitudeDegrees>40.55058346129953861236572265625</LatitudeDegrees>
              <LongitudeDegrees>-3.7055849097669124603271484375</LongitudeDegrees>
            </Position>
            <AltitudeMeters>754.4000244140625</AltitudeMeters>
            <DistanceMeters>NAN</DistanceMeters>
          </Trackpoint>
          <Trackpoint>
            <Time>2020-03-07T18:21:54.000Z</Time>
            <Position>
              <LatitudeDegrees>40.55051623843610286712646484375</LatitudeDegrees>
              <LongitudeDegrees>-3.7055575847625732421875</LongitudeDegrees>
            </Position>
            <AltitudeMeters>754.20001220703125</AltitudeMeters>
            <DistanceMeters>NAN</DistanceMeters>
          </Trackpoint>
          <Trackpoint>
            <Time>2020-03-07T18:21:55.000Z</Time>
            <Position>
              <LatitudeDegrees>40.550448596477508544921875</LatitudeDegrees>
              <LongitudeDegrees>-3.70552766136825084686279296875</LongitudeDegrees>
            </Position>
            <AltitudeMeters>754</AltitudeMeters>
            <DistanceMeters>NAN</DistanceMeters>
          </Trackpoint>
          <Trackpoint>
            <Time>2020-03-07T18:21:56.000Z</Time>
            <Position>
              <LatitudeDegrees>40.5503823794424533843994140625</LatitudeDegrees>
              <LongitudeDegrees>-3.70549899525940418243408203125</LongitudeDegrees>
            </Position>
            <AltitudeMeters>753.79998779296875</AltitudeMeters>
            <DistanceMeters>NAN</DistanceMeters>
          </Trackpoint>
          <Trackpoint>
            <Time>2020-03-07T18:21:57.000Z</Time>
            <Position>
              <LatitudeDegrees>40.550316162407398223876953125</LatitudeDegrees>
              <LongitudeDegrees>-3.7054709158837795257568359375</LongitudeDegrees>
            </Position>
            <AltitudeMeters>753.4000244140625</AltitudeMeters>
            <DistanceMeters>NAN</DistanceMeters>
          </Trackpoint>
          <Trackpoint>
            <Time>2020-03-07T18:21:58.000Z</Time>
            <Position>
              <LatitudeDegrees>40.55025069974362850189208984375</LatitudeDegrees>
              <LongitudeDegrees>-3.7054427526891231536865234375</LongitudeDegrees>
            </Position>
            <AltitudeMeters>753</AltitudeMeters>
            <DistanceMeters>NAN</DistanceMeters>
          </Trackpoint>
          <Trackpoint>
            <Time>2020-03-07T18:21:59.000Z</Time>
            <Position>
              <LatitudeDegrees>40.5501865781843662261962890625</LatitudeDegrees>
              <LongitudeDegrees>-3.70541584677994251251220703125</LongitudeDegrees>
            </Position>
            <AltitudeMeters>752.5999755859375</AltitudeMeters>
            <DistanceMeters>NAN</DistanceMeters>
          </Trackpoint>
          <Trackpoint>
            <Time>2020-03-07T18:22:00.000Z</Time>
            <Position>
              <LatitudeDegrees>40.55012363009154796600341796875</LatitudeDegrees>
              <LongitudeDegrees>-3.705392293632030487060546875</LongitudeDegrees>
            </Position>
            <AltitudeMeters>752</AltitudeMeters>
            <DistanceMeters>NAN</DistanceMeters>
          </Trackpoint>
          <Trackpoint>
            <Time>2020-03-07T18:22:01.000Z</Time>
            <Position>
              <LatitudeDegrees>40.55005975998938083648681640625</LatitudeDegrees>
              <LongitudeDegrees>-3.70536790229380130767822265625</LongitudeDegrees>
            </Position>
            <AltitudeMeters>751.5999755859375</AltitudeMeters>
            <DistanceMeters>NAN</DistanceMeters>
          </Trackpoint>
          <Trackpoint>
            <Time>2020-03-07T18:22:02.000Z</Time>
            <Position>
              <LatitudeDegrees>40.5499974824488162994384765625</LatitudeDegrees>
              <LongitudeDegrees>-3.7053445167839527130126953125</LongitudeDegrees>
            </Position>
            <AltitudeMeters>751.4000244140625</AltitudeMeters>
            <DistanceMeters>NAN</DistanceMeters>
          </Trackpoint>
          <Trackpoint>
            <Time>2020-03-07T18:22:03.000Z</Time>
            <Position>
              <LatitudeDegrees>40.54993688128888607025146484375</LatitudeDegrees>
              <LongitudeDegrees>-3.70532230474054813385009765625</LongitudeDegrees>
            </Position>
            <AltitudeMeters>751.4000244140625</AltitudeMeters>
            <DistanceMeters>NAN</DistanceMeters>
          </Trackpoint>
          <Trackpoint>
            <Time>2020-03-07T18:22:04.000Z</Time>
            <Position>
              <LatitudeDegrees>40.54987804032862186431884765625</LatitudeDegrees>
              <LongitudeDegrees>-3.705299086868762969970703125</LongitudeDegrees>
            </Position>
            <AltitudeMeters>751.20001220703125</AltitudeMeters>
            <DistanceMeters>NAN</DistanceMeters>
          </Trackpoint>
          <Trackpoint>
            <Time>2020-03-07T18:22:05.000Z</Time>
            <Position>
              <LatitudeDegrees>40.54982104338705539703369140625</LatitudeDegrees>
              <LongitudeDegrees>-3.7052746117115020751953125</LongitudeDegrees>
            </Position>
            <AltitudeMeters>751</AltitudeMeters>
            <DistanceMeters>NAN</DistanceMeters>
          </Trackpoint>
          <Trackpoint>
            <Time>2020-03-07T18:22:06.000Z</Time>
            <Position>
              <LatitudeDegrees>40.54976706393063068389892578125</LatitudeDegrees>
              <LongitudeDegrees>-3.70525022037327289581298828125</LongitudeDegrees>
            </Position>
            <AltitudeMeters>751</AltitudeMeters>
            <DistanceMeters>NAN</DistanceMeters>
          </Trackpoint>
          <Trackpoint>
            <Time>2020-03-07T18:22:07.000Z</Time>
            <Position>
              <LatitudeDegrees>40.54971459321677684783935546875</LatitudeDegrees>
              <LongitudeDegrees>-3.7052271701395511627197265625</LongitudeDegrees>
            </Position>
            <AltitudeMeters>751</AltitudeMeters>
            <DistanceMeters>NAN</DistanceMeters>
          </Trackpoint>
          <Trackpoint>
            <Time>2020-03-07T18:22:08.000Z</Time>
            <Position>
              <LatitudeDegrees>40.549660362303256988525390625</LatitudeDegrees>
              <LongitudeDegrees>-3.705201186239719390869140625</LongitudeDegrees>
            </Position>
            <AltitudeMeters>751</AltitudeMeters>
            <DistanceMeters>NAN</DistanceMeters>
          </Trackpoint>
          <Trackpoint>
            <Time>2020-03-07T18:22:09.000Z</Time>
            <Position>
              <LatitudeDegrees>40.5496068857610225677490234375</LatitudeDegrees>
              <LongitudeDegrees>-3.7051758728921413421630859375</LongitudeDegrees>
            </Position>
            <AltitudeMeters>751</AltitudeMeters>
            <DistanceMeters>NAN</DistanceMeters>
          </Trackpoint>
          <Trackpoint>
            <Time>2020-03-07T18:22:10.000Z</Time>
            <Position>
              <LatitudeDegrees>40.5495559237897396087646484375</LatitudeDegrees>
              <LongitudeDegrees>-3.70515198446810245513916015625</LongitudeDegrees>
            </Position>
            <AltitudeMeters>751</AltitudeMeters>
            <DistanceMeters>NAN</DistanceMeters>
          </Trackpoint>
          <Trackpoint>
            <Time>2020-03-07T18:22:11.000Z</Time>
            <Position>
              <LatitudeDegrees>40.54950487799942493438720703125</LatitudeDegrees>
              <LongitudeDegrees>-3.70513102971017360687255859375</LongitudeDegrees>
            </Position>
            <AltitudeMeters>751</AltitudeMeters>
            <DistanceMeters>NAN</DistanceMeters>
          </Trackpoint>
          <Trackpoint>
            <Time>2020-03-07T18:22:12.000Z</Time>
            <Position>
              <LatitudeDegrees>40.5494539998471736907958984375</LatitudeDegrees>
              <LongitudeDegrees>-3.70511175133287906646728515625</LongitudeDegrees>
            </Position>
            <AltitudeMeters>751</AltitudeMeters>
            <DistanceMeters>NAN</DistanceMeters>
          </Trackpoint>
          <Trackpoint>
            <Time>2020-03-07T18:22:13.000Z</Time>
            <Position>
              <LatitudeDegrees>40.549402870237827301025390625</LatitudeDegrees>
              <LongitudeDegrees>-3.705091886222362518310546875</LongitudeDegrees>
            </Position>
            <AltitudeMeters>751</AltitudeMeters>
            <DistanceMeters>NAN</DistanceMeters>
          </Trackpoint>
          <Trackpoint>
            <Time>2020-03-07T18:22:14.000Z</Time>
            <Position>
              <LatitudeDegrees>40.54935199208557605743408203125</LatitudeDegrees>
              <LongitudeDegrees>-3.70507269166409969329833984375</LongitudeDegrees>
            </Position>
            <AltitudeMeters>751</AltitudeMeters>
            <DistanceMeters>NAN</DistanceMeters>
          </Trackpoint>
          <Trackpoint>
            <Time>2020-03-07T18:22:15.000Z</Time>
            <Position>
              <LatitudeDegrees>40.549300275743007659912109375</LatitudeDegrees>
              <LongitudeDegrees>-3.7050501443445682525634765625</LongitudeDegrees>
            </Position>
            <AltitudeMeters>751</AltitudeMeters>
            <DistanceMeters>NAN</DistanceMeters>
          </Trackpoint>
          <Trackpoint>
            <Time>2020-03-07T18:22:16.000Z</Time>
            <Position>
              <LatitudeDegrees>40.5492496490478515625</LatitudeDegrees>
              <LongitudeDegrees>-3.7050273455679416656494140625</LongitudeDegrees>
            </Position>
            <AltitudeMeters>751</AltitudeMeters>
            <DistanceMeters>NAN</DistanceMeters>
          </Trackpoint>
          <Trackpoint>
            <Time>2020-03-07T18:22:17.000Z</Time>
            <Position>
              <LatitudeDegrees>40.5492012016475200653076171875</LatitudeDegrees>
              <LongitudeDegrees>-3.7050058878958225250244140625</LongitudeDegrees>
            </Position>
            <AltitudeMeters>751</AltitudeMeters>
            <DistanceMeters>NAN</DistanceMeters>
          </Trackpoint>
          <Trackpoint>
            <Time>2020-03-07T18:22:18.000Z</Time>
            <Position>
              <LatitudeDegrees>40.54915183223783969879150390625</LatitudeDegrees>
              <LongitudeDegrees>-3.70498032309114933013916015625</LongitudeDegrees>
            </Position>
            <AltitudeMeters>751</AltitudeMeters>
            <DistanceMeters>NAN</DistanceMeters>
          </Trackpoint>
          <Trackpoint>
            <Time>2020-03-07T18:22:19.000Z</Time>
            <Position>
              <LatitudeDegrees>40.54910187609493732452392578125</LatitudeDegrees>
              <LongitudeDegrees>-3.70495400391519069671630859375</LongitudeDegrees>
            </Position>
            <AltitudeMeters>751</AltitudeMeters>
            <DistanceMeters>NAN</DistanceMeters>
          </Trackpoint>
          <Trackpoint>
            <Time>2020-03-07T18:22:20.000Z</Time>
            <Position>
              <LatitudeDegrees>40.5490496568381786346435546875</LatitudeDegrees>
              <LongitudeDegrees>-3.704927600920200347900390625</LongitudeDegrees>
            </Position>
            <AltitudeMeters>751</AltitudeMeters>
            <DistanceMeters>NAN</DistanceMeters>
          </Trackpoint>
          <Trackpoint>
            <Time>2020-03-07T18:22:21.000Z</Time>
            <Position>
              <LatitudeDegrees>40.54900028742849826812744140625</LatitudeDegrees>
              <LongitudeDegrees>-3.70490689761936664581298828125</LongitudeDegrees>
            </Position>
            <AltitudeMeters>751.20001220703125</AltitudeMeters>
            <DistanceMeters>NAN</DistanceMeters>
          </Trackpoint>
          <Trackpoint>
            <Time>2020-03-07T18:22:22.000Z</Time>
            <Position>
              <LatitudeDegrees>40.54894924163818359375</LatitudeDegrees>
              <LongitudeDegrees>-3.70488225482404232025146484375</LongitudeDegrees>
            </Position>
            <AltitudeMeters>751.20001220703125</AltitudeMeters>
            <DistanceMeters>NAN</DistanceMeters>
          </Trackpoint>
          <Trackpoint>
            <Time>2020-03-07T18:22:23.000Z</Time>
            <Position>
              <LatitudeDegrees>40.5489028058946132659912109375</LatitudeDegrees>
              <LongitudeDegrees>-3.704869933426380157470703125</LongitudeDegrees>
            </Position>
            <AltitudeMeters>751.4000244140625</AltitudeMeters>
            <DistanceMeters>NAN</DistanceMeters>
          </Trackpoint>
          <Trackpoint>
            <Time>2020-03-07T18:22:24.000Z</Time>
            <Position>
              <LatitudeDegrees>40.5488582141697406768798828125</LatitudeDegrees>
              <LongitudeDegrees>-3.70486213825643062591552734375</LongitudeDegrees>
            </Position>
            <AltitudeMeters>751.4000244140625</AltitudeMeters>
            <DistanceMeters>NAN</DistanceMeters>
          </Trackpoint>
          <Trackpoint>
            <Time>2020-03-07T18:22:25.000Z</Time>
            <Position>
              <LatitudeDegrees>40.548819489777088165283203125</LatitudeDegrees>
              <LongitudeDegrees>-3.70485459454357624053955078125</LongitudeDegrees>
            </Position>
            <AltitudeMeters>751.5999755859375</AltitudeMeters>
            <DistanceMeters>NAN</DistanceMeters>
          </Trackpoint>
          <Trackpoint>
            <Time>2020-03-07T18:22:26.000Z</Time>
            <Position>
              <LatitudeDegrees>40.5487740598618984222412109375</LatitudeDegrees>
              <LongitudeDegrees>-3.70484654791653156280517578125</LongitudeDegrees>
            </Position>
            <AltitudeMeters>751.5999755859375</AltitudeMeters>
            <DistanceMeters>NAN</DistanceMeters>
          </Trackpoint>
          <Trackpoint>
            <Time>2020-03-07T18:22:34.000Z</Time>
            <Position>
              <LatitudeDegrees>40.5485348403453826904296875</LatitudeDegrees>
              <LongitudeDegrees>-3.70476038195192813873291015625</LongitudeDegrees>
            </Position>
            <AltitudeMeters>752.20001220703125</AltitudeMeters>
            <DistanceMeters>NAN</DistanceMeters>
          </Trackpoint>
          <Trackpoint>
            <Time>2020-03-07T18:22:35.000Z</Time>
            <Position>
              <LatitudeDegrees>40.54852670989930629730224609375</LatitudeDegrees>
              <LongitudeDegrees>-3.7047369964420795440673828125</LongitudeDegrees>
            </Position>
            <AltitudeMeters>752.20001220703125</AltitudeMeters>
            <DistanceMeters>NAN</DistanceMeters>
          </Trackpoint>
          <Trackpoint>
            <Time>2020-03-07T18:22:36.000Z</Time>
            <Position>
              <LatitudeDegrees>40.54852067492902278900146484375</LatitudeDegrees>
              <LongitudeDegrees>-3.704703636467456817626953125</LongitudeDegrees>
            </Position>
            <AltitudeMeters>752.4000244140625</AltitudeMeters>
            <DistanceMeters>NAN</DistanceMeters>
          </Trackpoint>
          <Trackpoint>
            <Time>2020-03-07T18:22:37.000Z</Time>
            <Position>
              <LatitudeDegrees>40.54851044900715351104736328125</LatitudeDegrees>
              <LongitudeDegrees>-3.704660050570964813232421875</LongitudeDegrees>
            </Position>
            <AltitudeMeters>752.5999755859375</AltitudeMeters>
            <DistanceMeters>NAN</DistanceMeters>
          </Trackpoint>
          <Trackpoint>
            <Time>2020-03-07T18:22:38.000Z</Time>
            <Position>
              <LatitudeDegrees>40.54849502630531787872314453125</LatitudeDegrees>
              <LongitudeDegrees>-3.7046094238758087158203125</LongitudeDegrees>
            </Position>
            <AltitudeMeters>752.79998779296875</AltitudeMeters>
            <DistanceMeters>NAN</DistanceMeters>
          </Trackpoint>
          <Trackpoint>
            <Time>2020-03-07T18:22:39.000Z</Time>
            <Position>
              <LatitudeDegrees>40.548474825918674468994140625</LatitudeDegrees>
              <LongitudeDegrees>-3.70455737225711345672607421875</LongitudeDegrees>
            </Position>
            <AltitudeMeters>752.79998779296875</AltitudeMeters>
            <DistanceMeters>NAN</DistanceMeters>
          </Trackpoint>
          <Trackpoint>
            <Time>2020-03-07T18:22:40.000Z</Time>
            <Position>
              <LatitudeDegrees>40.54844909347593784332275390625</LatitudeDegrees>
              <LongitudeDegrees>-3.70450079441070556640625</LongitudeDegrees>
            </Position>
            <AltitudeMeters>752.79998779296875</AltitudeMeters>
            <DistanceMeters>NAN</DistanceMeters>
          </Trackpoint>
          <Trackpoint>
            <Time>2020-03-07T18:22:41.000Z</Time>
            <Position>
              <LatitudeDegrees>40.5484223552048206329345703125</LatitudeDegrees>
              <LongitudeDegrees>-3.70444270782172679901123046875</LongitudeDegrees>
            </Position>
            <AltitudeMeters>752.79998779296875</AltitudeMeters>
            <DistanceMeters>NAN</DistanceMeters>
          </Trackpoint>
          <Trackpoint>
            <Time>2020-03-07T18:22:42.000Z</Time>
            <Position>
              <LatitudeDegrees>40.54839427582919597625732421875</LatitudeDegrees>
              <LongitudeDegrees>-3.7043792568147182464599609375</LongitudeDegrees>
            </Position>
            <AltitudeMeters>752.79998779296875</AltitudeMeters>
            <DistanceMeters>NAN</DistanceMeters>
          </Trackpoint>
          <Trackpoint>
            <Time>2020-03-07T18:22:43.000Z</Time>
            <Position>
              <LatitudeDegrees>40.54836275987327098846435546875</LatitudeDegrees>
              <LongitudeDegrees>-3.7043122015893459320068359375</LongitudeDegrees>
            </Position>
            <AltitudeMeters>752.79998779296875</AltitudeMeters>
            <DistanceMeters>NAN</DistanceMeters>
          </Trackpoint>
          <Trackpoint>
            <Time>2020-03-07T18:22:44.000Z</Time>
            <Position>
              <LatitudeDegrees>40.54833300411701202392578125</LatitudeDegrees>
              <LongitudeDegrees>-3.70424925349652767181396484375</LongitudeDegrees>
            </Position>
            <AltitudeMeters>752.79998779296875</AltitudeMeters>
            <DistanceMeters>NAN</DistanceMeters>
          </Trackpoint>
          <Trackpoint>
            <Time>2020-03-07T18:22:45.000Z</Time>
            <Position>
              <LatitudeDegrees>40.548301823437213897705078125</LatitudeDegrees>
              <LongitudeDegrees>-3.70418504811823368072509765625</LongitudeDegrees>
            </Position>
            <AltitudeMeters>752.79998779296875</AltitudeMeters>
            <DistanceMeters>NAN</DistanceMeters>
          </Trackpoint>
          <Trackpoint>
            <Time>2020-03-07T18:22:46.000Z</Time>
            <Position>
              <LatitudeDegrees>40.548270642757415771484375</LatitudeDegrees>
              <LongitudeDegrees>-3.704120256006717681884765625</LongitudeDegrees>
            </Position>
            <AltitudeMeters>752.79998779296875</AltitudeMeters>
            <DistanceMeters>NAN</DistanceMeters>
          </Trackpoint>
          <Trackpoint>
            <Time>2020-03-07T18:22:47.000Z</Time>
            <Position>
              <LatitudeDegrees>40.54823887534439563751220703125</LatitudeDegrees>
              <LongitudeDegrees>-3.7040553800761699676513671875</LongitudeDegrees>
            </Position>
            <AltitudeMeters>752.5999755859375</AltitudeMeters>
            <DistanceMeters>NAN</DistanceMeters>
          </Trackpoint>
          <Trackpoint>
            <Time>2020-03-07T18:22:48.000Z</Time>
            <Position>
              <LatitudeDegrees>40.5482047609984874725341796875</LatitudeDegrees>
              <LongitudeDegrees>-3.70399008505046367645263671875</LongitudeDegrees>
            </Position>
            <AltitudeMeters>752.5999755859375</AltitudeMeters>
            <DistanceMeters>NAN</DistanceMeters>
          </Trackpoint>
          <Trackpoint>
            <Time>2020-03-07T18:22:49.000Z</Time>
            <Position>
              <LatitudeDegrees>40.5481688864529132843017578125</LatitudeDegrees>
              <LongitudeDegrees>-3.70392001233994960784912109375</LongitudeDegrees>
            </Position>
            <AltitudeMeters>752.4000244140625</AltitudeMeters>
            <DistanceMeters>NAN</DistanceMeters>
          </Trackpoint>
          <Trackpoint>
            <Time>2020-03-07T18:22:50.000Z</Time>
            <Position>
              <LatitudeDegrees>40.5481316708028316497802734375</LatitudeDegrees>
              <LongitudeDegrees>-3.70384608395397663116455078125</LongitudeDegrees>
            </Position>
            <AltitudeMeters>752.4000244140625</AltitudeMeters>
            <DistanceMeters>NAN</DistanceMeters>
          </Trackpoint>
          <Trackpoint>
            <Time>2020-03-07T18:22:51.000Z</Time>
            <Position>
              <LatitudeDegrees>40.54809068329632282257080078125</LatitudeDegrees>
              <LongitudeDegrees>-3.70376192964613437652587890625</LongitudeDegrees>
            </Position>
            <AltitudeMeters>752.20001220703125</AltitudeMeters>
            <DistanceMeters>NAN</DistanceMeters>
          </Trackpoint>
          <Trackpoint>
            <Time>2020-03-07T18:22:52.000Z</Time>
            <Position>
              <LatitudeDegrees>40.5480501987040042877197265625</LatitudeDegrees>
              <LongitudeDegrees>-3.703677356243133544921875</LongitudeDegrees>
            </Position>
            <AltitudeMeters>752</AltitudeMeters>
            <DistanceMeters>NAN</DistanceMeters>
          </Trackpoint>
          <Trackpoint>
            <Time>2020-03-07T18:22:53.000Z</Time>
            <Position>
              <LatitudeDegrees>40.5480109713971614837646484375</LatitudeDegrees>
              <LongitudeDegrees>-3.703591860830783843994140625</LongitudeDegrees>
            </Position>
            <AltitudeMeters>751.79998779296875</AltitudeMeters>
            <DistanceMeters>NAN</DistanceMeters>
          </Trackpoint>
          <Trackpoint>
            <Time>2020-03-07T18:22:54.000Z</Time>
            <Position>
              <LatitudeDegrees>40.547971241176128387451171875</LatitudeDegrees>
              <LongitudeDegrees>-3.7035098858177661895751953125</LongitudeDegrees>
            </Position>
            <AltitudeMeters>751.79998779296875</AltitudeMeters>
            <DistanceMeters>NAN</DistanceMeters>
          </Trackpoint>
          <Trackpoint>
            <Time>2020-03-07T18:22:55.000Z</Time>
            <Position>
              <LatitudeDegrees>40.5479395575821399688720703125</LatitudeDegrees>
              <LongitudeDegrees>-3.70343587361276149749755859375</LongitudeDegrees>
            </Position>
            <AltitudeMeters>751.4000244140625</AltitudeMeters>
            <DistanceMeters>NAN</DistanceMeters>
          </Trackpoint>
          <Trackpoint>
            <Time>2020-03-07T18:22:56.000Z</Time>
            <Position>
              <LatitudeDegrees>40.54793410934507846832275390625</LatitudeDegrees>
              <LongitudeDegrees>-3.70335926301777362823486328125</LongitudeDegrees>
            </Position>
            <AltitudeMeters>751.20001220703125</AltitudeMeters>
            <DistanceMeters>NAN</DistanceMeters>
          </Trackpoint>
          <Trackpoint>
            <Time>2020-03-07T18:22:57.000Z</Time>
            <Position>
              <LatitudeDegrees>40.5479408986866474151611328125</LatitudeDegrees>
              <LongitudeDegrees>-3.7032956443727016448974609375</LongitudeDegrees>
            </Position>
            <AltitudeMeters>750.79998779296875</AltitudeMeters>
            <DistanceMeters>NAN</DistanceMeters>
          </Trackpoint>
          <Trackpoint>
            <Time>2020-03-07T18:22:58.000Z</Time>
            <Position>
              <LatitudeDegrees>40.5479593388736248016357421875</LatitudeDegrees>
              <LongitudeDegrees>-3.70324225164949893951416015625</LongitudeDegrees>
            </Position>
            <AltitudeMeters>750.4000244140625</AltitudeMeters>
            <DistanceMeters>NAN</DistanceMeters>
          </Trackpoint>
          <Trackpoint>
            <Time>2020-03-07T18:22:59.000Z</Time>
            <Position>
              <LatitudeDegrees>40.54799362085759639739990234375</LatitudeDegrees>
              <LongitudeDegrees>-3.703198917210102081298828125</LongitudeDegrees>
            </Position>
            <AltitudeMeters>749.5999755859375</AltitudeMeters>
            <DistanceMeters>NAN</DistanceMeters>
          </Trackpoint>
          <Trackpoint>
            <Time>2020-03-07T18:23:00.000Z</Time>
            <Position>
              <LatitudeDegrees>40.548036284744739532470703125</LatitudeDegrees>
              <LongitudeDegrees>-3.70315876789391040802001953125</LongitudeDegrees>
            </Position>
            <AltitudeMeters>748.5999755859375</AltitudeMeters>
            <DistanceMeters>NAN</DistanceMeters>
          </Trackpoint>
          <Trackpoint>
            <Time>2020-03-07T18:23:01.000Z</Time>
            <Position>
              <LatitudeDegrees>40.54807660169899463653564453125</LatitudeDegrees>
              <LongitudeDegrees>-3.70311551727354526519775390625</LongitudeDegrees>
            </Position>
            <AltitudeMeters>748.20001220703125</AltitudeMeters>
            <DistanceMeters>NAN</DistanceMeters>
          </Trackpoint>
          <Trackpoint>
            <Time>2020-03-07T18:23:02.000Z</Time>
            <Position>
              <LatitudeDegrees>40.5481155775487422943115234375</LatitudeDegrees>
              <LongitudeDegrees>-3.7030703388154506683349609375</LongitudeDegrees>
            </Position>
            <AltitudeMeters>747.79998779296875</AltitudeMeters>
            <DistanceMeters>NAN</DistanceMeters>
          </Trackpoint>
          <Trackpoint>
            <Time>2020-03-07T18:23:03.000Z</Time>
            <Position>
              <LatitudeDegrees>40.54815270937979221343994140625</LatitudeDegrees>
              <LongitudeDegrees>-3.7030180357396602630615234375</LongitudeDegrees>
            </Position>
            <AltitudeMeters>747.79998779296875</AltitudeMeters>
            <DistanceMeters>NAN</DistanceMeters>
          </Trackpoint>
          <Trackpoint>
            <Time>2020-03-07T18:23:04.000Z</Time>
            <Position>
              <LatitudeDegrees>40.54818405769765377044677734375</LatitudeDegrees>
              <LongitudeDegrees>-3.702960871160030364990234375</LongitudeDegrees>
            </Position>
            <AltitudeMeters>747.5999755859375</AltitudeMeters>
            <DistanceMeters>NAN</DistanceMeters>
          </Trackpoint>
          <Trackpoint>
            <Time>2020-03-07T18:23:05.000Z</Time>
            <Position>
              <LatitudeDegrees>40.54821004159748554229736328125</LatitudeDegrees>
              <LongitudeDegrees>-3.70290295220911502838134765625</LongitudeDegrees>
            </Position>
            <AltitudeMeters>747.5999755859375</AltitudeMeters>
            <DistanceMeters>NAN</DistanceMeters>
          </Trackpoint>
          <Trackpoint>
            <Time>2020-03-07T18:23:06.000Z</Time>
            <Position>
              <LatitudeDegrees>40.54823510348796844482421875</LatitudeDegrees>
              <LongitudeDegrees>-3.70284461416304111480712890625</LongitudeDegrees>
            </Position>
            <AltitudeMeters>747.5999755859375</AltitudeMeters>
            <DistanceMeters>NAN</DistanceMeters>
          </Trackpoint>
          <Trackpoint>
            <Time>2020-03-07T18:23:07.000Z</Time>
            <Position>
              <LatitudeDegrees>40.54825723171234130859375</LatitudeDegrees>
              <LongitudeDegrees>-3.70277957059442996978759765625</LongitudeDegrees>
            </Position>
            <AltitudeMeters>747.5999755859375</AltitudeMeters>
            <DistanceMeters>NAN</DistanceMeters>
          </Trackpoint>
          <Trackpoint>
            <Time>2020-03-07T18:23:08.000Z</Time>
            <Position>
              <LatitudeDegrees>40.54827659390866756439208984375</LatitudeDegrees>
              <LongitudeDegrees>-3.70271285064518451690673828125</LongitudeDegrees>
            </Position>
            <AltitudeMeters>747.5999755859375</AltitudeMeters>
            <DistanceMeters>NAN</DistanceMeters>
          </Trackpoint>
          <Trackpoint>
            <Time>2020-03-07T18:23:09.000Z</Time>
            <Position>
              <LatitudeDegrees>40.54829017259180545806884765625</LatitudeDegrees>
              <LongitudeDegrees>-3.70264462195336818695068359375</LongitudeDegrees>
            </Position>
            <AltitudeMeters>747.5999755859375</AltitudeMeters>
            <DistanceMeters>NAN</DistanceMeters>
          </Trackpoint>
          <Trackpoint>
            <Time>2020-03-07T18:23:10.000Z</Time>
            <Position>
              <LatitudeDegrees>40.5482999794185161590576171875</LatitudeDegrees>
              <LongitudeDegrees>-3.702572621405124664306640625</LongitudeDegrees>
            </Position>
            <AltitudeMeters>747.5999755859375</AltitudeMeters>
            <DistanceMeters>NAN</DistanceMeters>
          </Trackpoint>
          <Trackpoint>
            <Time>2020-03-07T18:23:11.000Z</Time>
            <Position>
              <LatitudeDegrees>40.54831213317811489105224609375</LatitudeDegrees>
              <LongitudeDegrees>-3.702496849000453948974609375</LongitudeDegrees>
            </Position>
            <AltitudeMeters>747.5999755859375</AltitudeMeters>
            <DistanceMeters>NAN</DistanceMeters>
          </Trackpoint>
          <Trackpoint>
            <Time>2020-03-07T18:23:12.000Z</Time>
            <Position>
              <LatitudeDegrees>40.54832437075674533843994140625</LatitudeDegrees>
              <LongitudeDegrees>-3.70242015458643436431884765625</LongitudeDegrees>
            </Position>
            <AltitudeMeters>747.5999755859375</AltitudeMeters>
            <DistanceMeters>NAN</DistanceMeters>
          </Trackpoint>
          <Trackpoint>
            <Time>2020-03-07T18:23:13.000Z</Time>
            <Position>
              <LatitudeDegrees>40.54833442904055118560791015625</LatitudeDegrees>
              <LongitudeDegrees>-3.7023429572582244873046875</LongitudeDegrees>
            </Position>
            <AltitudeMeters>747.5999755859375</AltitudeMeters>
            <DistanceMeters>NAN</DistanceMeters>
          </Trackpoint>
          <Trackpoint>
            <Time>2020-03-07T18:23:14.000Z</Time>
            <Position>
              <LatitudeDegrees>40.54834096692502498626708984375</LatitudeDegrees>
              <LongitudeDegrees>-3.702266514301300048828125</LongitudeDegrees>
            </Position>
            <AltitudeMeters>747.5999755859375</AltitudeMeters>
            <DistanceMeters>NAN</DistanceMeters>
          </Trackpoint>
          <Trackpoint>
            <Time>2020-03-07T18:23:15.000Z</Time>
            <Position>
              <LatitudeDegrees>40.54834750480949878692626953125</LatitudeDegrees>
              <LongitudeDegrees>-3.70218697004020214080810546875</LongitudeDegrees>
            </Position>
            <AltitudeMeters>747.5999755859375</AltitudeMeters>
            <DistanceMeters>NAN</DistanceMeters>
          </Trackpoint>
          <Trackpoint>
            <Time>2020-03-07T18:23:16.000Z</Time>
            <Position>
              <LatitudeDegrees>40.54835672490298748016357421875</LatitudeDegrees>
              <LongitudeDegrees>-3.70210499502718448638916015625</LongitudeDegrees>
            </Position>
            <AltitudeMeters>747.5999755859375</AltitudeMeters>
            <DistanceMeters>NAN</DistanceMeters>
          </Trackpoint>
          <Trackpoint>
            <Time>2020-03-07T18:23:17.000Z</Time>
            <Position>
              <LatitudeDegrees>40.5483658611774444580078125</LatitudeDegrees>
              <LongitudeDegrees>-3.70202486403286457061767578125</LongitudeDegrees>
            </Position>
            <AltitudeMeters>747.5999755859375</AltitudeMeters>
            <DistanceMeters>NAN</DistanceMeters>
          </Trackpoint>
          <Trackpoint>
            <Time>2020-03-07T18:23:18.000Z</Time>
            <Position>
              <LatitudeDegrees>40.54837684147059917449951171875</LatitudeDegrees>
              <LongitudeDegrees>-3.70194238610565662384033203125</LongitudeDegrees>
            </Position>
            <AltitudeMeters>747.5999755859375</AltitudeMeters>
            <DistanceMeters>NAN</DistanceMeters>
          </Trackpoint>
          <Trackpoint>
            <Time>2020-03-07T18:23:19.000Z</Time>
            <Position>
              <LatitudeDegrees>40.548387654125690460205078125</LatitudeDegrees>
              <LongitudeDegrees>-3.70185974054038524627685546875</LongitudeDegrees>
            </Position>
            <AltitudeMeters>747.5999755859375</AltitudeMeters>
            <DistanceMeters>NAN</DistanceMeters>
          </Trackpoint>
          <Trackpoint>
            <Time>2020-03-07T18:23:20.000Z</Time>
            <Position>
              <LatitudeDegrees>40.548396371304988861083984375</LatitudeDegrees>
              <LongitudeDegrees>-3.70177541859447956085205078125</LongitudeDegrees>
            </Position>
            <AltitudeMeters>747.4000244140625</AltitudeMeters>
            <DistanceMeters>NAN</DistanceMeters>
          </Trackpoint>
          <Trackpoint>
            <Time>2020-03-07T18:23:21.000Z</Time>
            <Position>
              <LatitudeDegrees>40.5484059266746044158935546875</LatitudeDegrees>
              <LongitudeDegrees>-3.70169126428663730621337890625</LongitudeDegrees>
            </Position>
            <AltitudeMeters>747.4000244140625</AltitudeMeters>
            <DistanceMeters>NAN</DistanceMeters>
          </Trackpoint>
          <Trackpoint>
            <Time>2020-03-07T18:23:22.000Z</Time>
            <Position>
              <LatitudeDegrees>40.54841724224388599395751953125</LatitudeDegrees>
              <LongitudeDegrees>-3.70160660706460475921630859375</LongitudeDegrees>
            </Position>
            <AltitudeMeters>747.20001220703125</AltitudeMeters>
            <DistanceMeters>NAN</DistanceMeters>
          </Trackpoint>
          <Trackpoint>
            <Time>2020-03-07T18:23:23.000Z</Time>
            <Position>
              <LatitudeDegrees>40.54842956364154815673828125</LatitudeDegrees>
              <LongitudeDegrees>-3.70152144692838191986083984375</LongitudeDegrees>
            </Position>
            <AltitudeMeters>747.20001220703125</AltitudeMeters>
            <DistanceMeters>NAN</DistanceMeters>
          </Trackpoint>
          <Trackpoint>
            <Time>2020-03-07T18:23:24.000Z</Time>
            <Position>
              <LatitudeDegrees>40.54844339378178119659423828125</LatitudeDegrees>
              <LongitudeDegrees>-3.70143427513539791107177734375</LongitudeDegrees>
            </Position>
            <AltitudeMeters>747</AltitudeMeters>
            <DistanceMeters>NAN</DistanceMeters>
          </Trackpoint>
          <Trackpoint>
            <Time>2020-03-07T18:23:25.000Z</Time>
            <Position>
              <LatitudeDegrees>40.54845982231199741363525390625</LatitudeDegrees>
              <LongitudeDegrees>-3.7013476900756359100341796875</LongitudeDegrees>
            </Position>
            <AltitudeMeters>747</AltitudeMeters>
            <DistanceMeters>NAN</DistanceMeters>
          </Trackpoint>
          <Trackpoint>
            <Time>2020-03-07T18:23:26.000Z</Time>
            <Position>
              <LatitudeDegrees>40.5484810285270214080810546875</LatitudeDegrees>
              <LongitudeDegrees>-3.70126596651971340179443359375</LongitudeDegrees>
            </Position>
            <AltitudeMeters>747</AltitudeMeters>
            <DistanceMeters>NAN</DistanceMeters>
          </Trackpoint>
          <Trackpoint>
            <Time>2020-03-07T18:23:27.000Z</Time>
            <Position>
              <LatitudeDegrees>40.54850106127560138702392578125</LatitudeDegrees>
              <LongitudeDegrees>-3.70118231512606143951416015625</LongitudeDegrees>
            </Position>
            <AltitudeMeters>747</AltitudeMeters>
            <DistanceMeters>NAN</DistanceMeters>
          </Trackpoint>
          <Trackpoint>
            <Time>2020-03-07T18:23:28.000Z</Time>
            <Position>
              <LatitudeDegrees>40.54852101020514965057373046875</LatitudeDegrees>
              <LongitudeDegrees>-3.70109631679952144622802734375</LongitudeDegrees>
            </Position>
            <AltitudeMeters>747</AltitudeMeters>
            <DistanceMeters>NAN</DistanceMeters>
          </Trackpoint>
          <Trackpoint>
            <Time>2020-03-07T18:23:29.000Z</Time>
            <Position>
              <LatitudeDegrees>40.54854079149663448333740234375</LatitudeDegrees>
              <LongitudeDegrees>-3.70101300068199634552001953125</LongitudeDegrees>
            </Position>
            <AltitudeMeters>746.79998779296875</AltitudeMeters>
            <DistanceMeters>NAN</DistanceMeters>
          </Trackpoint>
          <Trackpoint>
            <Time>2020-03-07T18:23:30.000Z</Time>
            <Position>
              <LatitudeDegrees>40.5485621653497219085693359375</LatitudeDegrees>
              <LongitudeDegrees>-3.7009265832602977752685546875</LongitudeDegrees>
            </Position>
            <AltitudeMeters>746.79998779296875</AltitudeMeters>
            <DistanceMeters>NAN</DistanceMeters>
          </Trackpoint>
          <Trackpoint>
            <Time>2020-03-07T18:23:31.000Z</Time>
            <Position>
              <LatitudeDegrees>40.54858270101249217987060546875</LatitudeDegrees>
              <LongitudeDegrees>-3.7008434347808361053466796875</LongitudeDegrees>
            </Position>
            <AltitudeMeters>746.79998779296875</AltitudeMeters>
            <DistanceMeters>NAN</DistanceMeters>
          </Trackpoint>
          <Trackpoint>
            <Time>2020-03-07T18:23:32.000Z</Time>
            <Position>
              <LatitudeDegrees>40.54860549978911876678466796875</LatitudeDegrees>
              <LongitudeDegrees>-3.7007579393684864044189453125</LongitudeDegrees>
            </Position>
            <AltitudeMeters>746.79998779296875</AltitudeMeters>
            <DistanceMeters>NAN</DistanceMeters>
          </Trackpoint>
          <Trackpoint>
            <Time>2020-03-07T18:23:33.000Z</Time>
            <Position>
              <LatitudeDegrees>40.5486262030899524688720703125</LatitudeDegrees>
              <LongitudeDegrees>-3.70067738927900791168212890625</LongitudeDegrees>
            </Position>
            <AltitudeMeters>746.79998779296875</AltitudeMeters>
            <DistanceMeters>NAN</DistanceMeters>
          </Trackpoint>
          <Trackpoint>
            <Time>2020-03-07T18:23:34.000Z</Time>
            <Position>
              <LatitudeDegrees>40.5486479960381984710693359375</LatitudeDegrees>
              <LongitudeDegrees>-3.7005966715514659881591796875</LongitudeDegrees>
            </Position>
            <AltitudeMeters>746.79998779296875</AltitudeMeters>
            <DistanceMeters>NAN</DistanceMeters>
          </Trackpoint>
          <Trackpoint>
            <Time>2020-03-07T18:23:35.000Z</Time>
            <Position>
              <LatitudeDegrees>40.5486716330051422119140625</LatitudeDegrees>
              <LongitudeDegrees>-3.70051528327167034149169921875</LongitudeDegrees>
            </Position>
            <AltitudeMeters>746.79998779296875</AltitudeMeters>
            <DistanceMeters>NAN</DistanceMeters>
          </Trackpoint>
          <Trackpoint>
            <Time>2020-03-07T18:23:36.000Z</Time>
            <Position>
              <LatitudeDegrees>40.548692084848880767822265625</LatitudeDegrees>
              <LongitudeDegrees>-3.70043230243027210235595703125</LongitudeDegrees>
            </Position>
            <AltitudeMeters>746.79998779296875</AltitudeMeters>
            <DistanceMeters>NAN</DistanceMeters>
          </Trackpoint>
          <Trackpoint>
            <Time>2020-03-07T18:23:37.000Z</Time>
            <Position>
              <LatitudeDegrees>40.54871211759746074676513671875</LatitudeDegrees>
              <LongitudeDegrees>-3.70034663937985897064208984375</LongitudeDegrees>
            </Position>
            <AltitudeMeters>746.79998779296875</AltitudeMeters>
            <DistanceMeters>NAN</DistanceMeters>
          </Trackpoint>
          <Trackpoint>
            <Time>2020-03-07T18:23:38.000Z</Time>
            <Position>
              <LatitudeDegrees>40.5487318150699138641357421875</LatitudeDegrees>
              <LongitudeDegrees>-3.7002613954246044158935546875</LongitudeDegrees>
            </Position>
            <AltitudeMeters>746.79998779296875</AltitudeMeters>
            <DistanceMeters>NAN</DistanceMeters>
          </Trackpoint>
          <Trackpoint>
            <Time>2020-03-07T18:23:39.000Z</Time>
            <Position>
              <LatitudeDegrees>40.5487522669136524200439453125</LatitudeDegrees>
              <LongitudeDegrees>-3.7001762352883815765380859375</LongitudeDegrees>
            </Position>
            <AltitudeMeters>746.5999755859375</AltitudeMeters>
            <DistanceMeters>NAN</DistanceMeters>
          </Trackpoint>
          <Trackpoint>
            <Time>2020-03-07T18:23:40.000Z</Time>
            <Position>
              <LatitudeDegrees>40.54877431131899356842041015625</LatitudeDegrees>
              <LongitudeDegrees>-3.7000907398760318756103515625</LongitudeDegrees>
            </Position>
            <AltitudeMeters>746.5999755859375</AltitudeMeters>
            <DistanceMeters>NAN</DistanceMeters>
          </Trackpoint>
          <Trackpoint>
            <Time>2020-03-07T18:23:41.000Z</Time>
            <Position>
              <LatitudeDegrees>40.54879392497241497039794921875</LatitudeDegrees>
              <LongitudeDegrees>-3.70000599883496761322021484375</LongitudeDegrees>
            </Position>
            <AltitudeMeters>746.5999755859375</AltitudeMeters>
            <DistanceMeters>NAN</DistanceMeters>
          </Trackpoint>
          <Trackpoint>
            <Time>2020-03-07T18:23:42.000Z</Time>
            <Position>
              <LatitudeDegrees>40.54881320334970951080322265625</LatitudeDegrees>
              <LongitudeDegrees>-3.6999190784990787506103515625</LongitudeDegrees>
            </Position>
            <AltitudeMeters>746.5999755859375</AltitudeMeters>
            <DistanceMeters>NAN</DistanceMeters>
          </Trackpoint>
          <Trackpoint>
            <Time>2020-03-07T18:23:43.000Z</Time>
            <Position>
              <LatitudeDegrees>40.54883189499378204345703125</LatitudeDegrees>
              <LongitudeDegrees>-3.69983299635350704193115234375</LongitudeDegrees>
            </Position>
            <AltitudeMeters>746.4000244140625</AltitudeMeters>
            <DistanceMeters>NAN</DistanceMeters>
          </Trackpoint>
          <Trackpoint>
            <Time>2020-03-07T18:23:44.000Z</Time>
            <Position>
              <LatitudeDegrees>40.5488508380949497222900390625</LatitudeDegrees>
              <LongitudeDegrees>-3.6997465789318084716796875</LongitudeDegrees>
            </Position>
            <AltitudeMeters>746.4000244140625</AltitudeMeters>
            <DistanceMeters>NAN</DistanceMeters>
          </Trackpoint>
          <Trackpoint>
            <Time>2020-03-07T18:23:45.000Z</Time>
            <Position>
              <LatitudeDegrees>40.5488709546625614166259765625</LatitudeDegrees>
              <LongitudeDegrees>-3.69965949095785617828369140625</LongitudeDegrees>
            </Position>
            <AltitudeMeters>746.4000244140625</AltitudeMeters>
            <DistanceMeters>NAN</DistanceMeters>
          </Trackpoint>
          <Trackpoint>
            <Time>2020-03-07T18:23:46.000Z</Time>
            <Position>
              <LatitudeDegrees>40.54889232851564884185791015625</LatitudeDegrees>
              <LongitudeDegrees>-3.69957667775452136993408203125</LongitudeDegrees>
            </Position>
            <AltitudeMeters>746.4000244140625</AltitudeMeters>
            <DistanceMeters>NAN</DistanceMeters>
          </Trackpoint>
          <Trackpoint>
            <Time>2020-03-07T18:23:47.000Z</Time>
            <Position>
              <LatitudeDegrees>40.54891395382583141326904296875</LatitudeDegrees>
              <LongitudeDegrees>-3.69949386455118656158447265625</LongitudeDegrees>
            </Position>
            <AltitudeMeters>746.4000244140625</AltitudeMeters>
            <DistanceMeters>NAN</DistanceMeters>
          </Trackpoint>
          <Trackpoint>
            <Time>2020-03-07T18:23:48.000Z</Time>
            <Position>
              <LatitudeDegrees>40.548934824764728546142578125</LatitudeDegrees>
              <LongitudeDegrees>-3.69941088370978832244873046875</LongitudeDegrees>
            </Position>
            <AltitudeMeters>746.4000244140625</AltitudeMeters>
            <DistanceMeters>NAN</DistanceMeters>
          </Trackpoint>
          <Trackpoint>
            <Time>2020-03-07T18:23:49.000Z</Time>
            <Position>
              <LatitudeDegrees>40.54895435459911823272705078125</LatitudeDegrees>
              <LongitudeDegrees>-3.69932857342064380645751953125</LongitudeDegrees>
            </Position>
            <AltitudeMeters>746.4000244140625</AltitudeMeters>
            <DistanceMeters>NAN</DistanceMeters>
          </Trackpoint>
          <Trackpoint>
            <Time>2020-03-07T18:23:50.000Z</Time>
            <Position>
              <LatitudeDegrees>40.54897145368158817291259765625</LatitudeDegrees>
              <LongitudeDegrees>-3.6992471851408481597900390625</LongitudeDegrees>
            </Position>
            <AltitudeMeters>746.4000244140625</AltitudeMeters>
            <DistanceMeters>NAN</DistanceMeters>
          </Trackpoint>
          <Trackpoint>
            <Time>2020-03-07T18:23:51.000Z</Time>
            <Position>
              <LatitudeDegrees>40.54898939095437526702880859375</LatitudeDegrees>
              <LongitudeDegrees>-3.6991653777658939361572265625</LongitudeDegrees>
            </Position>
            <AltitudeMeters>746.4000244140625</AltitudeMeters>
            <DistanceMeters>NAN</DistanceMeters>
          </Trackpoint>
          <Trackpoint>
            <Time>2020-03-07T18:23:52.000Z</Time>
            <Position>
              <LatitudeDegrees>40.54900749586522579193115234375</LatitudeDegrees>
              <LongitudeDegrees>-3.6990852467715740203857421875</LongitudeDegrees>
            </Position>
            <AltitudeMeters>746.4000244140625</AltitudeMeters>
            <DistanceMeters>NAN</DistanceMeters>
          </Trackpoint>
          <Trackpoint>
            <Time>2020-03-07T18:23:53.000Z</Time>
            <Position>
              <LatitudeDegrees>40.54902677424252033233642578125</LatitudeDegrees>
              <LongitudeDegrees>-3.6990081332623958587646484375</LongitudeDegrees>
            </Position>
            <AltitudeMeters>746.4000244140625</AltitudeMeters>
            <DistanceMeters>NAN</DistanceMeters>
          </Trackpoint>
          <Trackpoint>
            <Time>2020-03-07T18:23:54.000Z</Time>
            <Position>
              <LatitudeDegrees>40.5490446276962757110595703125</LatitudeDegrees>
              <LongitudeDegrees>-3.698930181562900543212890625</LongitudeDegrees>
            </Position>
            <AltitudeMeters>746.4000244140625</AltitudeMeters>
            <DistanceMeters>NAN</DistanceMeters>
          </Trackpoint>
          <Trackpoint>
            <Time>2020-03-07T18:23:55.000Z</Time>
            <Position>
              <LatitudeDegrees>40.54906197823584079742431640625</LatitudeDegrees>
              <LongitudeDegrees>-3.69884879328310489654541015625</LongitudeDegrees>
            </Position>
            <AltitudeMeters>746.4000244140625</AltitudeMeters>
            <DistanceMeters>NAN</DistanceMeters>
          </Trackpoint>
          <Trackpoint>
            <Time>2020-03-07T18:23:56.000Z</Time>
            <Position>
              <LatitudeDegrees>40.549072958528995513916015625</LatitudeDegrees>
              <LongitudeDegrees>-3.69876748882234096527099609375</LongitudeDegrees>
            </Position>
            <AltitudeMeters>746.4000244140625</AltitudeMeters>
            <DistanceMeters>NAN</DistanceMeters>
          </Trackpoint>
          <Trackpoint>
            <Time>2020-03-07T18:23:57.000Z</Time>
            <Position>
              <LatitudeDegrees>40.54908134043216705322265625</LatitudeDegrees>
              <LongitudeDegrees>-3.69868375360965728759765625</LongitudeDegrees>
            </Position>
            <AltitudeMeters>746.4000244140625</AltitudeMeters>
            <DistanceMeters>NAN</DistanceMeters>
          </Trackpoint>
          <Trackpoint>
            <Time>2020-03-07T18:23:58.000Z</Time>
            <Position>
              <LatitudeDegrees>40.54908896796405315399169921875</LatitudeDegrees>
              <LongitudeDegrees>-3.6985990963876247406005859375</LongitudeDegrees>
            </Position>
            <AltitudeMeters>746.4000244140625</AltitudeMeters>
            <DistanceMeters>NAN</DistanceMeters>
          </Trackpoint>
          <Trackpoint>
            <Time>2020-03-07T18:23:59.000Z</Time>
            <Position>
              <LatitudeDegrees>40.5490981042385101318359375</LatitudeDegrees>
              <LongitudeDegrees>-3.698515780270099639892578125</LongitudeDegrees>
            </Position>
            <AltitudeMeters>746.5999755859375</AltitudeMeters>
            <DistanceMeters>NAN</DistanceMeters>
          </Trackpoint>
          <Trackpoint>
            <Time>2020-03-07T18:24:00.000Z</Time>
            <Position>
              <LatitudeDegrees>40.5491115152835845947265625</LatitudeDegrees>
              <LongitudeDegrees>-3.69843439199030399322509765625</LongitudeDegrees>
            </Position>
            <AltitudeMeters>746.5999755859375</AltitudeMeters>
            <DistanceMeters>NAN</DistanceMeters>
          </Trackpoint>
          <Trackpoint>
            <Time>2020-03-07T18:24:01.000Z</Time>
            <Position>
              <LatitudeDegrees>40.549131296575069427490234375</LatitudeDegrees>
              <LongitudeDegrees>-3.6983573623001575469970703125</LongitudeDegrees>
            </Position>
            <AltitudeMeters>746.5999755859375</AltitudeMeters>
            <DistanceMeters>NAN</DistanceMeters>
          </Trackpoint>
          <Trackpoint>
            <Time>2020-03-07T18:24:02.000Z</Time>
            <Position>
              <LatitudeDegrees>40.54915602318942546844482421875</LatitudeDegrees>
              <LongitudeDegrees>-3.69828586466610431671142578125</LongitudeDegrees>
            </Position>
            <AltitudeMeters>746.79998779296875</AltitudeMeters>
            <DistanceMeters>NAN</DistanceMeters>
          </Trackpoint>
          <Trackpoint>
            <Time>2020-03-07T18:24:03.000Z</Time>
            <Position>
              <LatitudeDegrees>40.5491864494979381561279296875</LatitudeDegrees>
              <LongitudeDegrees>-3.69821528904139995574951171875</LongitudeDegrees>
            </Position>
            <AltitudeMeters>747</AltitudeMeters>
            <DistanceMeters>NAN</DistanceMeters>
          </Trackpoint>
          <Trackpoint>
            <Time>2020-03-07T18:24:04.000Z</Time>
            <Position>
              <LatitudeDegrees>40.549217127263545989990234375</LatitudeDegrees>
              <LongitudeDegrees>-3.69814203120768070220947265625</LongitudeDegrees>
            </Position>
            <AltitudeMeters>747.20001220703125</AltitudeMeters>
            <DistanceMeters>NAN</DistanceMeters>
          </Trackpoint>
          <Trackpoint>
            <Time>2020-03-07T18:24:05.000Z</Time>
            <Position>
              <LatitudeDegrees>40.549246631562709808349609375</LatitudeDegrees>
              <LongitudeDegrees>-3.69806843809783458709716796875</LongitudeDegrees>
            </Position>
            <AltitudeMeters>747.4000244140625</AltitudeMeters>
            <DistanceMeters>NAN</DistanceMeters>
          </Trackpoint>
          <Trackpoint>
            <Time>2020-03-07T18:24:06.000Z</Time>
            <Position>
              <LatitudeDegrees>40.54927169345319271087646484375</LatitudeDegrees>
              <LongitudeDegrees>-3.6979925818741321563720703125</LongitudeDegrees>
            </Position>
            <AltitudeMeters>747.5999755859375</AltitudeMeters>
            <DistanceMeters>NAN</DistanceMeters>
          </Trackpoint>
          <Trackpoint>
            <Time>2020-03-07T18:24:07.000Z</Time>
            <Position>
              <LatitudeDegrees>40.5492917262017726898193359375</LatitudeDegrees>
              <LongitudeDegrees>-3.6979194916784763336181640625</LongitudeDegrees>
            </Position>
            <AltitudeMeters>747.79998779296875</AltitudeMeters>
            <DistanceMeters>NAN</DistanceMeters>
          </Trackpoint>
          <Trackpoint>
            <Time>2020-03-07T18:24:08.000Z</Time>
            <Position>
              <LatitudeDegrees>40.549311339855194091796875</LatitudeDegrees>
              <LongitudeDegrees>-3.697843886911869049072265625</LongitudeDegrees>
            </Position>
            <AltitudeMeters>748</AltitudeMeters>
            <DistanceMeters>NAN</DistanceMeters>
          </Trackpoint>
          <Trackpoint>
            <Time>2020-03-07T18:24:09.000Z</Time>
            <Position>
              <LatitudeDegrees>40.54932634346187114715576171875</LatitudeDegrees>
              <LongitudeDegrees>-3.69776912033557891845703125</LongitudeDegrees>
            </Position>
            <AltitudeMeters>748.20001220703125</AltitudeMeters>
            <DistanceMeters>NAN</DistanceMeters>
          </Trackpoint>
          <Trackpoint>
            <Time>2020-03-07T18:24:10.000Z</Time>
            <Position>
              <LatitudeDegrees>40.549343526363372802734375</LatitudeDegrees>
              <LongitudeDegrees>-3.69769024662673473358154296875</LongitudeDegrees>
            </Position>
            <AltitudeMeters>748.4000244140625</AltitudeMeters>
            <DistanceMeters>NAN</DistanceMeters>
          </Trackpoint>
          <Trackpoint>
            <Time>2020-03-07T18:24:11.000Z</Time>
            <Position>
              <LatitudeDegrees>40.549364984035491943359375</LatitudeDegrees>
              <LongitudeDegrees>-3.69760978035628795623779296875</LongitudeDegrees>
            </Position>
            <AltitudeMeters>748.4000244140625</AltitudeMeters>
            <DistanceMeters>NAN</DistanceMeters>
          </Trackpoint>
          <Trackpoint>
            <Time>2020-03-07T18:24:12.000Z</Time>
            <Position>
              <LatitudeDegrees>40.54938711225986480712890625</LatitudeDegrees>
              <LongitudeDegrees>-3.69752747006714344024658203125</LongitudeDegrees>
            </Position>
            <AltitudeMeters>748.4000244140625</AltitudeMeters>
            <DistanceMeters>NAN</DistanceMeters>
          </Trackpoint>
          <Trackpoint>
            <Time>2020-03-07T18:24:13.000Z</Time>
            <Position>
              <LatitudeDegrees>40.5494070611894130706787109375</LatitudeDegrees>
              <LongitudeDegrees>-3.6974450759589672088623046875</LongitudeDegrees>
            </Position>
            <AltitudeMeters>748.4000244140625</AltitudeMeters>
            <DistanceMeters>NAN</DistanceMeters>
          </Trackpoint>
          <Trackpoint>
            <Time>2020-03-07T18:24:14.000Z</Time>
            <Position>
              <LatitudeDegrees>40.54942667484283447265625</LatitudeDegrees>
              <LongitudeDegrees>-3.6973649449646472930908203125</LongitudeDegrees>
            </Position>
            <AltitudeMeters>748.4000244140625</AltitudeMeters>
            <DistanceMeters>NAN</DistanceMeters>
          </Trackpoint>
          <Trackpoint>
            <Time>2020-03-07T18:24:15.000Z</Time>
            <Position>
              <LatitudeDegrees>40.54944888688623905181884765625</LatitudeDegrees>
              <LongitudeDegrees>-3.697283305227756500244140625</LongitudeDegrees>
            </Position>
            <AltitudeMeters>748.4000244140625</AltitudeMeters>
            <DistanceMeters>NAN</DistanceMeters>
          </Trackpoint>
          <Trackpoint>
            <Time>2020-03-07T18:24:16.000Z</Time>
            <Position>
              <LatitudeDegrees>40.54946883581578731536865234375</LatitudeDegrees>
              <LongitudeDegrees>-3.69720057584345340728759765625</LongitudeDegrees>
            </Position>
            <AltitudeMeters>748.4000244140625</AltitudeMeters>
            <DistanceMeters>NAN</DistanceMeters>
          </Trackpoint>
          <Trackpoint>
            <Time>2020-03-07T18:24:17.000Z</Time>
            <Position>
              <LatitudeDegrees>40.54948794655501842498779296875</LatitudeDegrees>
              <LongitudeDegrees>-3.69711759500205516815185546875</LongitudeDegrees>
            </Position>
            <AltitudeMeters>748.4000244140625</AltitudeMeters>
            <DistanceMeters>NAN</DistanceMeters>
          </Trackpoint>
          <Trackpoint>
            <Time>2020-03-07T18:24:18.000Z</Time>
            <Position>
              <LatitudeDegrees>40.54950923658907413482666015625</LatitudeDegrees>
              <LongitudeDegrees>-3.69703310541808605194091796875</LongitudeDegrees>
            </Position>
            <AltitudeMeters>748.4000244140625</AltitudeMeters>
            <DistanceMeters>NAN</DistanceMeters>
          </Trackpoint>
          <Trackpoint>
            <Time>2020-03-07T18:24:19.000Z</Time>
            <Position>
              <LatitudeDegrees>40.5495301075279712677001953125</LatitudeDegrees>
              <LongitudeDegrees>-3.6969495378434658050537109375</LongitudeDegrees>
            </Position>
            <AltitudeMeters>748.4000244140625</AltitudeMeters>
            <DistanceMeters>NAN</DistanceMeters>
          </Trackpoint>
          <Trackpoint>
            <Time>2020-03-07T18:24:20.000Z</Time>
            <Position>
              <LatitudeDegrees>40.5495475418865680694580078125</LatitudeDegrees>
              <LongitudeDegrees>-3.6968632042407989501953125</LongitudeDegrees>
            </Position>
            <AltitudeMeters>748.4000244140625</AltitudeMeters>
            <DistanceMeters>NAN</DistanceMeters>
          </Trackpoint>
          <Trackpoint>
            <Time>2020-03-07T18:24:21.000Z</Time>
            <Position>
              <LatitudeDegrees>40.5495626293122768402099609375</LatitudeDegrees>
              <LongitudeDegrees>-3.69677879847586154937744140625</LongitudeDegrees>
            </Position>
            <AltitudeMeters>748.4000244140625</AltitudeMeters>
            <DistanceMeters>NAN</DistanceMeters>
          </Trackpoint>
          <Trackpoint>
            <Time>2020-03-07T18:24:22.000Z</Time>
            <Position>
              <LatitudeDegrees>40.5495770461857318878173828125</LatitudeDegrees>
              <LongitudeDegrees>-3.69669464416801929473876953125</LongitudeDegrees>
            </Position>
            <AltitudeMeters>748.4000244140625</AltitudeMeters>
            <DistanceMeters>NAN</DistanceMeters>
          </Trackpoint>
          <Trackpoint>
            <Time>2020-03-07T18:24:23.000Z</Time>
            <Position>
              <LatitudeDegrees>40.54959204979240894317626953125</LatitudeDegrees>
              <LongitudeDegrees>-3.69660596363246440887451171875</LongitudeDegrees>
            </Position>
            <AltitudeMeters>748.4000244140625</AltitudeMeters>
            <DistanceMeters>NAN</DistanceMeters>
          </Trackpoint>
          <Trackpoint>
            <Time>2020-03-07T18:24:24.000Z</Time>
            <Position>
              <LatitudeDegrees>40.54960730485618114471435546875</LatitudeDegrees>
              <LongitudeDegrees>-3.69652080349624156951904296875</LongitudeDegrees>
            </Position>
            <AltitudeMeters>748.4000244140625</AltitudeMeters>
            <DistanceMeters>NAN</DistanceMeters>
          </Trackpoint>
          <Trackpoint>
            <Time>2020-03-07T18:24:25.000Z</Time>
            <Position>
              <LatitudeDegrees>40.54961912333965301513671875</LatitudeDegrees>
              <LongitudeDegrees>-3.69643363170325756072998046875</LongitudeDegrees>
            </Position>
            <AltitudeMeters>748.4000244140625</AltitudeMeters>
            <DistanceMeters>NAN</DistanceMeters>
          </Trackpoint>
          <Trackpoint>
            <Time>2020-03-07T18:24:26.000Z</Time>
            <Position>
              <LatitudeDegrees>40.54963010363280773162841796875</LatitudeDegrees>
              <LongitudeDegrees>-3.6963426880538463592529296875</LongitudeDegrees>
            </Position>
            <AltitudeMeters>748.4000244140625</AltitudeMeters>
            <DistanceMeters>NAN</DistanceMeters>
          </Trackpoint>
          <Trackpoint>
            <Time>2020-03-07T18:24:27.000Z</Time>
            <Position>
              <LatitudeDegrees>40.54964150302112102508544921875</LatitudeDegrees>
              <LongitudeDegrees>-3.69625090621411800384521484375</LongitudeDegrees>
            </Position>
            <AltitudeMeters>748.20001220703125</AltitudeMeters>
            <DistanceMeters>NAN</DistanceMeters>
          </Trackpoint>
          <Trackpoint>
            <Time>2020-03-07T18:24:28.000Z</Time>
            <Position>
              <LatitudeDegrees>40.549653656780719757080078125</LatitudeDegrees>
              <LongitudeDegrees>-3.6961599625647068023681640625</LongitudeDegrees>
            </Position>
            <AltitudeMeters>748.20001220703125</AltitudeMeters>
            <DistanceMeters>NAN</DistanceMeters>
          </Trackpoint>
          <Trackpoint>
            <Time>2020-03-07T18:24:29.000Z</Time>
            <Position>
              <LatitudeDegrees>40.54966715164482593536376953125</LatitudeDegrees>
              <LongitudeDegrees>-3.6960714496672153472900390625</LongitudeDegrees>
            </Position>
            <AltitudeMeters>748</AltitudeMeters>
            <DistanceMeters>NAN</DistanceMeters>
          </Trackpoint>
          <Trackpoint>
            <Time>2020-03-07T18:24:30.000Z</Time>
            <Position>
              <LatitudeDegrees>40.54968005977571010589599609375</LatitudeDegrees>
              <LongitudeDegrees>-3.69598209857940673828125</LongitudeDegrees>
            </Position>
            <AltitudeMeters>747.79998779296875</AltitudeMeters>
            <DistanceMeters>NAN</DistanceMeters>
          </Trackpoint>
          <Trackpoint>
            <Time>2020-03-07T18:24:31.000Z</Time>
            <Position>
              <LatitudeDegrees>40.54969112388789653778076171875</LatitudeDegrees>
              <LongitudeDegrees>-3.69589299894869327545166015625</LongitudeDegrees>
            </Position>
            <AltitudeMeters>747.79998779296875</AltitudeMeters>
            <DistanceMeters>NAN</DistanceMeters>
          </Trackpoint>
          <Trackpoint>
            <Time>2020-03-07T18:24:32.000Z</Time>
            <Position>
              <LatitudeDegrees>40.5497016012668609619140625</LatitudeDegrees>
              <LongitudeDegrees>-3.695801384747028350830078125</LongitudeDegrees>
            </Position>
            <AltitudeMeters>747.5999755859375</AltitudeMeters>
            <DistanceMeters>NAN</DistanceMeters>
          </Trackpoint>
          <Trackpoint>
            <Time>2020-03-07T18:24:33.000Z</Time>
            <Position>
              <LatitudeDegrees>40.54971174336969852447509765625</LatitudeDegrees>
              <LongitudeDegrees>-3.69570675306022167205810546875</LongitudeDegrees>
            </Position>
            <AltitudeMeters>747.4000244140625</AltitudeMeters>
            <DistanceMeters>NAN</DistanceMeters>
          </Trackpoint>
          <Trackpoint>
            <Time>2020-03-07T18:24:34.000Z</Time>
            <Position>
              <LatitudeDegrees>40.54972297511994838714599609375</LatitudeDegrees>
              <LongitudeDegrees>-3.6956091038882732391357421875</LongitudeDegrees>
            </Position>
            <AltitudeMeters>747.4000244140625</AltitudeMeters>
            <DistanceMeters>NAN</DistanceMeters>
          </Trackpoint>
          <Trackpoint>
            <Time>2020-03-07T18:24:35.000Z</Time>
            <Position>
              <LatitudeDegrees>40.549735464155673980712890625</LatitudeDegrees>
              <LongitudeDegrees>-3.6955098621547222137451171875</LongitudeDegrees>
            </Position>
            <AltitudeMeters>747.20001220703125</AltitudeMeters>
            <DistanceMeters>NAN</DistanceMeters>
          </Trackpoint>
          <Trackpoint>
            <Time>2020-03-07T18:24:36.000Z</Time>
            <Position>
              <LatitudeDegrees>40.5497487075626850128173828125</LatitudeDegrees>
              <LongitudeDegrees>-3.6954102851450443267822265625</LongitudeDegrees>
            </Position>
            <AltitudeMeters>747</AltitudeMeters>
            <DistanceMeters>NAN</DistanceMeters>
          </Trackpoint>
          <Trackpoint>
            <Time>2020-03-07T18:24:37.000Z</Time>
            <Position>
              <LatitudeDegrees>40.5497651360929012298583984375</LatitudeDegrees>
              <LongitudeDegrees>-3.6953083612024784088134765625</LongitudeDegrees>
            </Position>
            <AltitudeMeters>746.5999755859375</AltitudeMeters>
            <DistanceMeters>NAN</DistanceMeters>
          </Trackpoint>
          <Trackpoint>
            <Time>2020-03-07T18:24:38.000Z</Time>
            <Position>
              <LatitudeDegrees>40.5497839115560054779052734375</LatitudeDegrees>
              <LongitudeDegrees>-3.69520333595573902130126953125</LongitudeDegrees>
            </Position>
            <AltitudeMeters>746.20001220703125</AltitudeMeters>
            <DistanceMeters>NAN</DistanceMeters>
          </Trackpoint>
          <Trackpoint>
            <Time>2020-03-07T18:24:39.000Z</Time>
            <Position>
              <LatitudeDegrees>40.54980344139039516448974609375</LatitudeDegrees>
              <LongitudeDegrees>-3.69509319774806499481201171875</LongitudeDegrees>
            </Position>
            <AltitudeMeters>746</AltitudeMeters>
            <DistanceMeters>NAN</DistanceMeters>
          </Trackpoint>
          <Trackpoint>
            <Time>2020-03-07T18:24:40.000Z</Time>
            <Position>
              <LatitudeDegrees>40.54982355795800685882568359375</LatitudeDegrees>
              <LongitudeDegrees>-3.69498121552169322967529296875</LongitudeDegrees>
            </Position>
            <AltitudeMeters>745.79998779296875</AltitudeMeters>
            <DistanceMeters>NAN</DistanceMeters>
          </Trackpoint>
          <Trackpoint>
            <Time>2020-03-07T18:24:41.000Z</Time>
            <Position>
              <LatitudeDegrees>40.5498405732214450836181640625</LatitudeDegrees>
              <LongitudeDegrees>-3.6948688142001628875732421875</LongitudeDegrees>
            </Position>
            <AltitudeMeters>745.5999755859375</AltitudeMeters>
            <DistanceMeters>NAN</DistanceMeters>
          </Trackpoint>
          <Trackpoint>
            <Time>2020-03-07T18:24:42.000Z</Time>
            <Position>
              <LatitudeDegrees>40.54984836839139461517333984375</LatitudeDegrees>
              <LongitudeDegrees>-3.69476110674440860748291015625</LongitudeDegrees>
            </Position>
            <AltitudeMeters>745.4000244140625</AltitudeMeters>
            <DistanceMeters>NAN</DistanceMeters>
          </Trackpoint>
          <Trackpoint>
            <Time>2020-03-07T18:24:43.000Z</Time>
            <Position>
              <LatitudeDegrees>40.54984099231660366058349609375</LatitudeDegrees>
              <LongitudeDegrees>-3.6946592666208744049072265625</LongitudeDegrees>
            </Position>
            <AltitudeMeters>745</AltitudeMeters>
            <DistanceMeters>NAN</DistanceMeters>
          </Trackpoint>
          <Trackpoint>
            <Time>2020-03-07T18:24:44.000Z</Time>
            <Position>
              <LatitudeDegrees>40.54981634952127933502197265625</LatitudeDegrees>
              <LongitudeDegrees>-3.6945640482008457183837890625</LongitudeDegrees>
            </Position>
            <AltitudeMeters>744.5999755859375</AltitudeMeters>
            <DistanceMeters>NAN</DistanceMeters>
          </Trackpoint>
          <Trackpoint>
            <Time>2020-03-07T18:24:45.000Z</Time>
            <Position>
              <LatitudeDegrees>40.5497859232127666473388671875</LatitudeDegrees>
              <LongitudeDegrees>-3.69446841068565845489501953125</LongitudeDegrees>
            </Position>
            <AltitudeMeters>744.4000244140625</AltitudeMeters>
            <DistanceMeters>NAN</DistanceMeters>
          </Trackpoint>
          <Trackpoint>
            <Time>2020-03-07T18:24:46.000Z</Time>
            <Position>
              <LatitudeDegrees>40.54976119659841060638427734375</LatitudeDegrees>
              <LongitudeDegrees>-3.69437151588499546051025390625</LongitudeDegrees>
            </Position>
            <AltitudeMeters>744</AltitudeMeters>
            <DistanceMeters>NAN</DistanceMeters>
          </Trackpoint>
          <Trackpoint>
            <Time>2020-03-07T18:24:47.000Z</Time>
            <Position>
              <LatitudeDegrees>40.54975113831460475921630859375</LatitudeDegrees>
              <LongitudeDegrees>-3.69426808319985866546630859375</LongitudeDegrees>
            </Position>
            <AltitudeMeters>743.5999755859375</AltitudeMeters>
            <DistanceMeters>NAN</DistanceMeters>
          </Trackpoint>
          <Trackpoint>
            <Time>2020-03-07T18:24:48.000Z</Time>
            <Position>
              <LatitudeDegrees>40.5497591011226177215576171875</LatitudeDegrees>
              <LongitudeDegrees>-3.6941647343337535858154296875</LongitudeDegrees>
            </Position>
            <AltitudeMeters>743.20001220703125</AltitudeMeters>
            <DistanceMeters>NAN</DistanceMeters>
          </Trackpoint>
          <Trackpoint>
            <Time>2020-03-07T18:24:49.000Z</Time>
            <Position>
              <LatitudeDegrees>40.5497820675373077392578125</LatitudeDegrees>
              <LongitudeDegrees>-3.6940671689808368682861328125</LongitudeDegrees>
            </Position>
            <AltitudeMeters>742.79998779296875</AltitudeMeters>
            <DistanceMeters>NAN</DistanceMeters>
          </Trackpoint>
          <Trackpoint>
            <Time>2020-03-07T18:24:50.000Z</Time>
            <Position>
              <LatitudeDegrees>40.5498204566538333892822265625</LatitudeDegrees>
              <LongitudeDegrees>-3.69398041628301143646240234375</LongitudeDegrees>
            </Position>
            <AltitudeMeters>742.5999755859375</AltitudeMeters>
            <DistanceMeters>NAN</DistanceMeters>
          </Trackpoint>
          <Trackpoint>
            <Time>2020-03-07T18:24:51.000Z</Time>
            <Position>
              <LatitudeDegrees>40.5498705804347991943359375</LatitudeDegrees>
              <LongitudeDegrees>-3.69390330277383327484130859375</LongitudeDegrees>
            </Position>
            <AltitudeMeters>742</AltitudeMeters>
            <DistanceMeters>NAN</DistanceMeters>
          </Trackpoint>
          <Trackpoint>
            <Time>2020-03-07T18:24:52.000Z</Time>
            <Position>
              <LatitudeDegrees>40.549927242100238800048828125</LatitudeDegrees>
              <LongitudeDegrees>-3.69383423589169979095458984375</LongitudeDegrees>
            </Position>
            <AltitudeMeters>741.79998779296875</AltitudeMeters>
            <DistanceMeters>NAN</DistanceMeters>
          </Trackpoint>
          <Trackpoint>
            <Time>2020-03-07T18:24:53.000Z</Time>
            <Position>
              <LatitudeDegrees>40.54999153129756450653076171875</LatitudeDegrees>
              <LongitudeDegrees>-3.69378629140555858612060546875</LongitudeDegrees>
            </Position>
            <AltitudeMeters>741.4000244140625</AltitudeMeters>
            <DistanceMeters>NAN</DistanceMeters>
          </Trackpoint>
          <Trackpoint>
            <Time>2020-03-07T18:24:54.000Z</Time>
            <Position>
              <LatitudeDegrees>40.550058670341968536376953125</LatitudeDegrees>
              <LongitudeDegrees>-3.693748824298381805419921875</LongitudeDegrees>
            </Position>
            <AltitudeMeters>741.4000244140625</AltitudeMeters>
            <DistanceMeters>NAN</DistanceMeters>
          </Trackpoint>
          <Trackpoint>
            <Time>2020-03-07T18:24:55.000Z</Time>
            <Position>
              <LatitudeDegrees>40.55012580938637256622314453125</LatitudeDegrees>
              <LongitudeDegrees>-3.6937033943831920623779296875</LongitudeDegrees>
            </Position>
            <AltitudeMeters>741.20001220703125</AltitudeMeters>
            <DistanceMeters>NAN</DistanceMeters>
          </Trackpoint>
          <Trackpoint>
            <Time>2020-03-07T18:24:56.000Z</Time>
            <Position>
              <LatitudeDegrees>40.55018532089889049530029296875</LatitudeDegrees>
              <LongitudeDegrees>-3.69363759644329547882080078125</LongitudeDegrees>
            </Position>
            <AltitudeMeters>741.20001220703125</AltitudeMeters>
            <DistanceMeters>NAN</DistanceMeters>
          </Trackpoint>
          <Trackpoint>
            <Time>2020-03-07T18:24:57.000Z</Time>
            <Position>
              <LatitudeDegrees>40.5502338521182537078857421875</LatitudeDegrees>
              <LongitudeDegrees>-3.6935587227344512939453125</LongitudeDegrees>
            </Position>
            <AltitudeMeters>741</AltitudeMeters>
            <DistanceMeters>NAN</DistanceMeters>
          </Trackpoint>
          <Trackpoint>
            <Time>2020-03-07T18:24:58.000Z</Time>
            <Position>
              <LatitudeDegrees>40.55027425289154052734375</LatitudeDegrees>
              <LongitudeDegrees>-3.6934723891317844390869140625</LongitudeDegrees>
            </Position>
            <AltitudeMeters>741</AltitudeMeters>
            <DistanceMeters>NAN</DistanceMeters>
          </Trackpoint>
          <Trackpoint>
            <Time>2020-03-07T18:24:59.000Z</Time>
            <Position>
              <LatitudeDegrees>40.5503106303513050079345703125</LatitudeDegrees>
              <LongitudeDegrees>-3.6933868937194347381591796875</LongitudeDegrees>
            </Position>
            <AltitudeMeters>741</AltitudeMeters>
            <DistanceMeters>NAN</DistanceMeters>
          </Trackpoint>
          <Trackpoint>
            <Time>2020-03-07T18:25:00.000Z</Time>
            <Position>
              <LatitudeDegrees>40.5503475107252597808837890625</LatitudeDegrees>
              <LongitudeDegrees>-3.69330315850675106048583984375</LongitudeDegrees>
            </Position>
            <AltitudeMeters>741</AltitudeMeters>
            <DistanceMeters>NAN</DistanceMeters>
          </Trackpoint>
          <Trackpoint>
            <Time>2020-03-07T18:25:01.000Z</Time>
            <Position>
              <LatitudeDegrees>40.55038497783243656158447265625</LatitudeDegrees>
              <LongitudeDegrees>-3.693222440779209136962890625</LongitudeDegrees>
            </Position>
            <AltitudeMeters>741</AltitudeMeters>
            <DistanceMeters>NAN</DistanceMeters>
          </Trackpoint>
          <Trackpoint>
            <Time>2020-03-07T18:25:02.000Z</Time>
            <Position>
              <LatitudeDegrees>40.5504231154918670654296875</LatitudeDegrees>
              <LongitudeDegrees>-3.693144656717777252197265625</LongitudeDegrees>
            </Position>
            <AltitudeMeters>740.79998779296875</AltitudeMeters>
            <DistanceMeters>NAN</DistanceMeters>
          </Trackpoint>
          <Trackpoint>
            <Time>2020-03-07T18:25:03.000Z</Time>
            <Position>
              <LatitudeDegrees>40.55046175606548786163330078125</LatitudeDegrees>
              <LongitudeDegrees>-3.69306989014148712158203125</LongitudeDegrees>
            </Position>
            <AltitudeMeters>740.5999755859375</AltitudeMeters>
            <DistanceMeters>NAN</DistanceMeters>
          </Trackpoint>
          <Trackpoint>
            <Time>2020-03-07T18:25:04.000Z</Time>
            <Position>
              <LatitudeDegrees>40.55050048045814037322998046875</LatitudeDegrees>
              <LongitudeDegrees>-3.692996464669704437255859375</LongitudeDegrees>
            </Position>
            <AltitudeMeters>740.4000244140625</AltitudeMeters>
            <DistanceMeters>NAN</DistanceMeters>
          </Trackpoint>
          <Trackpoint>
            <Time>2020-03-07T18:25:05.000Z</Time>
            <Position>
              <LatitudeDegrees>40.55054222233593463897705078125</LatitudeDegrees>
              <LongitudeDegrees>-3.692922033369541168212890625</LongitudeDegrees>
            </Position>
            <AltitudeMeters>740.20001220703125</AltitudeMeters>
            <DistanceMeters>NAN</DistanceMeters>
          </Trackpoint>
          <Trackpoint>
            <Time>2020-03-07T18:25:06.000Z</Time>
            <Position>
              <LatitudeDegrees>40.5505852214992046356201171875</LatitudeDegrees>
              <LongitudeDegrees>-3.69284969754517078399658203125</LongitudeDegrees>
            </Position>
            <AltitudeMeters>740</AltitudeMeters>
            <DistanceMeters>NAN</DistanceMeters>
          </Trackpoint>
          <Trackpoint>
            <Time>2020-03-07T18:25:07.000Z</Time>
            <Position>
              <LatitudeDegrees>40.55062687955796718597412109375</LatitudeDegrees>
              <LongitudeDegrees>-3.6927763558924198150634765625</LongitudeDegrees>
            </Position>
            <AltitudeMeters>740</AltitudeMeters>
            <DistanceMeters>NAN</DistanceMeters>
          </Trackpoint>
          <Trackpoint>
            <Time>2020-03-07T18:25:08.000Z</Time>
            <Position>
              <LatitudeDegrees>40.55066811852157115936279296875</LatitudeDegrees>
              <LongitudeDegrees>-3.69270234368741512298583984375</LongitudeDegrees>
            </Position>
            <AltitudeMeters>740</AltitudeMeters>
            <DistanceMeters>NAN</DistanceMeters>
          </Trackpoint>
          <Trackpoint>
            <Time>2020-03-07T18:25:09.000Z</Time>
            <Position>
              <LatitudeDegrees>40.55071086622774600982666015625</LatitudeDegrees>
              <LongitudeDegrees>-3.69262891821563243865966796875</LongitudeDegrees>
            </Position>
            <AltitudeMeters>739.79998779296875</AltitudeMeters>
            <DistanceMeters>NAN</DistanceMeters>
          </Trackpoint>
          <Trackpoint>
            <Time>2020-03-07T18:25:10.000Z</Time>
            <Position>
              <LatitudeDegrees>40.55075445212423801422119140625</LatitudeDegrees>
              <LongitudeDegrees>-3.692556917667388916015625</LongitudeDegrees>
            </Position>
            <AltitudeMeters>739.79998779296875</AltitudeMeters>
            <DistanceMeters>NAN</DistanceMeters>
          </Trackpoint>
          <Trackpoint>
            <Time>2020-03-07T18:25:11.000Z</Time>
            <Position>
              <LatitudeDegrees>40.55079854093492031097412109375</LatitudeDegrees>
              <LongitudeDegrees>-3.69248542003333568572998046875</LongitudeDegrees>
            </Position>
            <AltitudeMeters>739.79998779296875</AltitudeMeters>
            <DistanceMeters>NAN</DistanceMeters>
          </Trackpoint>
          <Trackpoint>
            <Time>2020-03-07T18:25:12.000Z</Time>
            <Position>
              <LatitudeDegrees>40.55084221065044403076171875</LatitudeDegrees>
              <LongitudeDegrees>-3.6924149282276630401611328125</LongitudeDegrees>
            </Position>
            <AltitudeMeters>739.79998779296875</AltitudeMeters>
            <DistanceMeters>NAN</DistanceMeters>
          </Trackpoint>
          <Trackpoint>
            <Time>2020-03-07T18:25:13.000Z</Time>
            <Position>
              <LatitudeDegrees>40.55088487453758716583251953125</LatitudeDegrees>
              <LongitudeDegrees>-3.69234460406005382537841796875</LongitudeDegrees>
            </Position>
            <AltitudeMeters>739.79998779296875</AltitudeMeters>
            <DistanceMeters>NAN</DistanceMeters>
          </Trackpoint>
          <Trackpoint>
            <Time>2020-03-07T18:25:14.000Z</Time>
            <Position>
              <LatitudeDegrees>40.550927706062793731689453125</LatitudeDegrees>
              <LongitudeDegrees>-3.69227469898760318756103515625</LongitudeDegrees>
            </Position>
            <AltitudeMeters>739.5999755859375</AltitudeMeters>
            <DistanceMeters>NAN</DistanceMeters>
          </Trackpoint>
          <Trackpoint>
            <Time>2020-03-07T18:25:15.000Z</Time>
            <Position>
              <LatitudeDegrees>40.55097154341638088226318359375</LatitudeDegrees>
              <LongitudeDegrees>-3.69220496155321598052978515625</LongitudeDegrees>
            </Position>
            <AltitudeMeters>739.5999755859375</AltitudeMeters>
            <DistanceMeters>NAN</DistanceMeters>
          </Trackpoint>
          <Trackpoint>
            <Time>2020-03-07T18:25:16.000Z</Time>
            <Position>
              <LatitudeDegrees>40.55101630277931690216064453125</LatitudeDegrees>
              <LongitudeDegrees>-3.69213505648076534271240234375</LongitudeDegrees>
            </Position>
            <AltitudeMeters>739.4000244140625</AltitudeMeters>
            <DistanceMeters>NAN</DistanceMeters>
          </Trackpoint>
          <Trackpoint>
            <Time>2020-03-07T18:25:17.000Z</Time>
            <Position>
              <LatitudeDegrees>40.551059804856777191162109375</LatitudeDegrees>
              <LongitudeDegrees>-3.69206531904637813568115234375</LongitudeDegrees>
            </Position>
            <AltitudeMeters>739.4000244140625</AltitudeMeters>
            <DistanceMeters>NAN</DistanceMeters>
          </Trackpoint>
          <Trackpoint>
            <Time>2020-03-07T18:25:18.000Z</Time>
            <Position>
              <LatitudeDegrees>40.551102720201015472412109375</LatitudeDegrees>
              <LongitudeDegrees>-3.69199474342167377471923828125</LongitudeDegrees>
            </Position>
            <AltitudeMeters>739.4000244140625</AltitudeMeters>
            <DistanceMeters>NAN</DistanceMeters>
          </Trackpoint>
          <Trackpoint>
            <Time>2020-03-07T18:25:19.000Z</Time>
            <Position>
              <LatitudeDegrees>40.55114504881203174591064453125</LatitudeDegrees>
              <LongitudeDegrees>-3.69192416779696941375732421875</LongitudeDegrees>
            </Position>
            <AltitudeMeters>739.4000244140625</AltitudeMeters>
            <DistanceMeters>NAN</DistanceMeters>
          </Trackpoint>
          <Trackpoint>
            <Time>2020-03-07T18:25:20.000Z</Time>
            <Position>
              <LatitudeDegrees>40.5511850304901599884033203125</LatitudeDegrees>
              <LongitudeDegrees>-3.6918556876480579376220703125</LongitudeDegrees>
            </Position>
            <AltitudeMeters>739.4000244140625</AltitudeMeters>
            <DistanceMeters>NAN</DistanceMeters>
          </Trackpoint>
          <Trackpoint>
            <Time>2020-03-07T18:25:21.000Z</Time>
            <Position>
              <LatitudeDegrees>40.5512262694537639617919921875</LatitudeDegrees>
              <LongitudeDegrees>-3.69178645312786102294921875</LongitudeDegrees>
            </Position>
            <AltitudeMeters>739.20001220703125</AltitudeMeters>
            <DistanceMeters>NAN</DistanceMeters>
          </Trackpoint>
          <Trackpoint>
            <Time>2020-03-07T18:25:22.000Z</Time>
            <Position>
              <LatitudeDegrees>40.5512675084173679351806640625</LatitudeDegrees>
              <LongitudeDegrees>-3.69171696715056896209716796875</LongitudeDegrees>
            </Position>
            <AltitudeMeters>739.20001220703125</AltitudeMeters>
            <DistanceMeters>NAN</DistanceMeters>
          </Trackpoint>
          <Trackpoint>
            <Time>2020-03-07T18:25:23.000Z</Time>
            <Position>
              <LatitudeDegrees>40.55130799300968647003173828125</LatitudeDegrees>
              <LongitudeDegrees>-3.69164940901100635528564453125</LongitudeDegrees>
            </Position>
            <AltitudeMeters>739.20001220703125</AltitudeMeters>
            <DistanceMeters>NAN</DistanceMeters>
          </Trackpoint>
          <Trackpoint>
            <Time>2020-03-07T18:25:24.000Z</Time>
            <Position>
              <LatitudeDegrees>40.551347471773624420166015625</LatitudeDegrees>
              <LongitudeDegrees>-3.6915824376046657562255859375</LongitudeDegrees>
            </Position>
            <AltitudeMeters>739.20001220703125</AltitudeMeters>
            <DistanceMeters>NAN</DistanceMeters>
          </Trackpoint>
          <Trackpoint>
            <Time>2020-03-07T18:25:25.000Z</Time>
            <Position>
              <LatitudeDegrees>40.55139030329883098602294921875</LatitudeDegrees>
              <LongitudeDegrees>-3.691513203084468841552734375</LongitudeDegrees>
            </Position>
            <AltitudeMeters>739</AltitudeMeters>
            <DistanceMeters>NAN</DistanceMeters>
          </Trackpoint>
          <Trackpoint>
            <Time>2020-03-07T18:25:26.000Z</Time>
            <Position>
              <LatitudeDegrees>40.5514338053762912750244140625</LatitudeDegrees>
              <LongitudeDegrees>-3.69144220836460590362548828125</LongitudeDegrees>
            </Position>
            <AltitudeMeters>739</AltitudeMeters>
            <DistanceMeters>NAN</DistanceMeters>
          </Trackpoint>
          <Trackpoint>
            <Time>2020-03-07T18:25:27.000Z</Time>
            <Position>
              <LatitudeDegrees>40.55147613398730754852294921875</LatitudeDegrees>
              <LongitudeDegrees>-3.69137163273990154266357421875</LongitudeDegrees>
            </Position>
            <AltitudeMeters>739</AltitudeMeters>
            <DistanceMeters>NAN</DistanceMeters>
          </Trackpoint>
          <Trackpoint>
            <Time>2020-03-07T18:25:28.000Z</Time>
            <Position>
              <LatitudeDegrees>40.55151720531284809112548828125</LatitudeDegrees>
              <LongitudeDegrees>-3.69129988364875316619873046875</LongitudeDegrees>
            </Position>
            <AltitudeMeters>738.79998779296875</AltitudeMeters>
            <DistanceMeters>NAN</DistanceMeters>
          </Trackpoint>
          <Trackpoint>
            <Time>2020-03-07T18:25:29.000Z</Time>
            <Position>
              <LatitudeDegrees>40.551557354629039764404296875</LatitudeDegrees>
              <LongitudeDegrees>-3.69122813455760478973388671875</LongitudeDegrees>
            </Position>
            <AltitudeMeters>738.79998779296875</AltitudeMeters>
            <DistanceMeters>NAN</DistanceMeters>
          </Trackpoint>
          <Trackpoint>
            <Time>2020-03-07T18:25:30.000Z</Time>
            <Position>
              <LatitudeDegrees>40.55159666575491428375244140625</LatitudeDegrees>
              <LongitudeDegrees>-3.69115454144775867462158203125</LongitudeDegrees>
            </Position>
            <AltitudeMeters>738.79998779296875</AltitudeMeters>
            <DistanceMeters>NAN</DistanceMeters>
          </Trackpoint>
          <Trackpoint>
            <Time>2020-03-07T18:25:31.000Z</Time>
            <Position>
              <LatitudeDegrees>40.5516356416046619415283203125</LatitudeDegrees>
              <LongitudeDegrees>-3.6910788528621196746826171875</LongitudeDegrees>
            </Position>
            <AltitudeMeters>738.5999755859375</AltitudeMeters>
            <DistanceMeters>NAN</DistanceMeters>
          </Trackpoint>
          <Trackpoint>
            <Time>2020-03-07T18:25:32.000Z</Time>
            <Position>
              <LatitudeDegrees>40.55167411454021930694580078125</LatitudeDegrees>
              <LongitudeDegrees>-3.6909997276961803436279296875</LongitudeDegrees>
            </Position>
            <AltitudeMeters>738.4000244140625</AltitudeMeters>
            <DistanceMeters>NAN</DistanceMeters>
          </Trackpoint>
          <Trackpoint>
            <Time>2020-03-07T18:25:33.000Z</Time>
            <Position>
              <LatitudeDegrees>40.55171183310449123382568359375</LatitudeDegrees>
              <LongitudeDegrees>-3.69091750122606754302978515625</LongitudeDegrees>
            </Position>
            <AltitudeMeters>738.20001220703125</AltitudeMeters>
            <DistanceMeters>NAN</DistanceMeters>
          </Trackpoint>
          <Trackpoint>
            <Time>2020-03-07T18:25:34.000Z</Time>
            <Position>
              <LatitudeDegrees>40.5517489649355411529541015625</LatitudeDegrees>
              <LongitudeDegrees>-3.6908357776701450347900390625</LongitudeDegrees>
            </Position>
            <AltitudeMeters>738</AltitudeMeters>
            <DistanceMeters>NAN</DistanceMeters>
          </Trackpoint>
          <Trackpoint>
            <Time>2020-03-07T18:25:35.000Z</Time>
            <Position>
              <LatitudeDegrees>40.55178509093821048736572265625</LatitudeDegrees>
              <LongitudeDegrees>-3.69075522758066654205322265625</LongitudeDegrees>
            </Position>
            <AltitudeMeters>738</AltitudeMeters>
            <DistanceMeters>NAN</DistanceMeters>
          </Trackpoint>
          <Trackpoint>
            <Time>2020-03-07T18:25:36.000Z</Time>
            <Position>
              <LatitudeDegrees>40.5518200434744358062744140625</LatitudeDegrees>
              <LongitudeDegrees>-3.69067325256764888763427734375</LongitudeDegrees>
            </Position>
            <AltitudeMeters>738</AltitudeMeters>
            <DistanceMeters>NAN</DistanceMeters>
          </Trackpoint>
          <Trackpoint>
            <Time>2020-03-07T18:25:37.000Z</Time>
            <Position>
              <LatitudeDegrees>40.55185399018228054046630859375</LatitudeDegrees>
              <LongitudeDegrees>-3.6905916966497898101806640625</LongitudeDegrees>
            </Position>
            <AltitudeMeters>738</AltitudeMeters>
            <DistanceMeters>NAN</DistanceMeters>
          </Trackpoint>
          <Trackpoint>
            <Time>2020-03-07T18:25:38.000Z</Time>
            <Position>
              <LatitudeDegrees>40.55188684724271297454833984375</LatitudeDegrees>
              <LongitudeDegrees>-3.6905092187225818634033203125</LongitudeDegrees>
            </Position>
            <AltitudeMeters>737.79998779296875</AltitudeMeters>
            <DistanceMeters>NAN</DistanceMeters>
          </Trackpoint>
          <Trackpoint>
            <Time>2020-03-07T18:25:39.000Z</Time>
            <Position>
              <LatitudeDegrees>40.551918111741542816162109375</LatitudeDegrees>
              <LongitudeDegrees>-3.69042682461440563201904296875</LongitudeDegrees>
            </Position>
            <AltitudeMeters>737.79998779296875</AltitudeMeters>
            <DistanceMeters>NAN</DistanceMeters>
          </Trackpoint>
          <Trackpoint>
            <Time>2020-03-07T18:25:40.000Z</Time>
            <Position>
              <LatitudeDegrees>40.55194795131683349609375</LatitudeDegrees>
              <LongitudeDegrees>-3.69034367613494396209716796875</LongitudeDegrees>
            </Position>
            <AltitudeMeters>737.79998779296875</AltitudeMeters>
            <DistanceMeters>NAN</DistanceMeters>
          </Trackpoint>
          <Trackpoint>
            <Time>2020-03-07T18:25:41.000Z</Time>
            <Position>
              <LatitudeDegrees>40.5519762821495532989501953125</LatitudeDegrees>
              <LongitudeDegrees>-3.6902611143887042999267578125</LongitudeDegrees>
            </Position>
            <AltitudeMeters>737.5999755859375</AltitudeMeters>
            <DistanceMeters>NAN</DistanceMeters>
          </Trackpoint>
          <Trackpoint>
            <Time>2020-03-07T18:25:42.000Z</Time>
            <Position>
              <LatitudeDegrees>40.5520056188106536865234375</LatitudeDegrees>
              <LongitudeDegrees>-3.69017704389989376068115234375</LongitudeDegrees>
            </Position>
            <AltitudeMeters>737.5999755859375</AltitudeMeters>
            <DistanceMeters>NAN</DistanceMeters>
          </Trackpoint>
          <Trackpoint>
            <Time>2020-03-07T18:25:43.000Z</Time>
            <Position>
              <LatitudeDegrees>40.55203285999596118927001953125</LatitudeDegrees>
              <LongitudeDegrees>-3.69009238667786121368408203125</LongitudeDegrees>
            </Position>
            <AltitudeMeters>737.5999755859375</AltitudeMeters>
            <DistanceMeters>NAN</DistanceMeters>
          </Trackpoint>
          <Trackpoint>
            <Time>2020-03-07T18:25:44.000Z</Time>
            <Position>
              <LatitudeDegrees>40.55205951444804668426513671875</LatitudeDegrees>
              <LongitudeDegrees>-3.69000772945582866668701171875</LongitudeDegrees>
            </Position>
            <AltitudeMeters>737.4000244140625</AltitudeMeters>
            <DistanceMeters>NAN</DistanceMeters>
          </Trackpoint>
          <Trackpoint>
            <Time>2020-03-07T18:25:45.000Z</Time>
            <Position>
              <LatitudeDegrees>40.5520855821669101715087890625</LatitudeDegrees>
              <LongitudeDegrees>-3.6899231560528278350830078125</LongitudeDegrees>
            </Position>
            <AltitudeMeters>737.4000244140625</AltitudeMeters>
            <DistanceMeters>NAN</DistanceMeters>
          </Trackpoint>
          <Trackpoint>
            <Time>2020-03-07T18:25:46.000Z</Time>
            <Position>
              <LatitudeDegrees>40.55210963822901248931884765625</LatitudeDegrees>
              <LongitudeDegrees>-3.6898376606404781341552734375</LongitudeDegrees>
            </Position>
            <AltitudeMeters>737.4000244140625</AltitudeMeters>
            <DistanceMeters>NAN</DistanceMeters>
          </Trackpoint>
          <Trackpoint>
            <Time>2020-03-07T18:25:47.000Z</Time>
            <Position>
              <LatitudeDegrees>40.5521321855485439300537109375</LatitudeDegrees>
              <LongitudeDegrees>-3.689750991761684417724609375</LongitudeDegrees>
            </Position>
            <AltitudeMeters>737.20001220703125</AltitudeMeters>
            <DistanceMeters>NAN</DistanceMeters>
          </Trackpoint>
          <Trackpoint>
            <Time>2020-03-07T18:25:48.000Z</Time>
            <Position>
              <LatitudeDegrees>40.55215188302099704742431640625</LatitudeDegrees>
              <LongitudeDegrees>-3.68966440670192241668701171875</LongitudeDegrees>
            </Position>
            <AltitudeMeters>737.20001220703125</AltitudeMeters>
            <DistanceMeters>NAN</DistanceMeters>
          </Trackpoint>
          <Trackpoint>
            <Time>2020-03-07T18:25:49.000Z</Time>
            <Position>
              <LatitudeDegrees>40.55216990411281585693359375</LatitudeDegrees>
              <LongitudeDegrees>-3.68958008475601673126220703125</LongitudeDegrees>
            </Position>
            <AltitudeMeters>737.20001220703125</AltitudeMeters>
            <DistanceMeters>NAN</DistanceMeters>
          </Trackpoint>
          <Trackpoint>
            <Time>2020-03-07T18:25:50.000Z</Time>
            <Position>
              <LatitudeDegrees>40.55218826048076152801513671875</LatitudeDegrees>
              <LongitudeDegrees>-3.68949525989592075347900390625</LongitudeDegrees>
            </Position>
            <AltitudeMeters>737.20001220703125</AltitudeMeters>
            <DistanceMeters>NAN</DistanceMeters>
          </Trackpoint>
          <Trackpoint>
            <Time>2020-03-07T18:25:51.000Z</Time>
            <Position>
              <LatitudeDegrees>40.55220636539161205291748046875</LatitudeDegrees>
              <LongitudeDegrees>-3.6894105188548564910888671875</LongitudeDegrees>
            </Position>
            <AltitudeMeters>737.20001220703125</AltitudeMeters>
            <DistanceMeters>NAN</DistanceMeters>
          </Trackpoint>
          <Trackpoint>
            <Time>2020-03-07T18:25:52.000Z</Time>
            <Position>
              <LatitudeDegrees>40.5522240512073040008544921875</LatitudeDegrees>
              <LongitudeDegrees>-3.689323179423809051513671875</LongitudeDegrees>
            </Position>
            <AltitudeMeters>737.20001220703125</AltitudeMeters>
            <DistanceMeters>NAN</DistanceMeters>
          </Trackpoint>
          <Trackpoint>
            <Time>2020-03-07T18:25:53.000Z</Time>
            <Position>
              <LatitudeDegrees>40.55224156938493251800537109375</LatitudeDegrees>
              <LongitudeDegrees>-3.68923407979309558868408203125</LongitudeDegrees>
            </Position>
            <AltitudeMeters>737.20001220703125</AltitudeMeters>
            <DistanceMeters>NAN</DistanceMeters>
          </Trackpoint>
          <Trackpoint>
            <Time>2020-03-07T18:25:54.000Z</Time>
            <Position>
              <LatitudeDegrees>40.5522550642490386962890625</LatitudeDegrees>
              <LongitudeDegrees>-3.689145147800445556640625</LongitudeDegrees>
            </Position>
            <AltitudeMeters>737.20001220703125</AltitudeMeters>
            <DistanceMeters>NAN</DistanceMeters>
          </Trackpoint>
          <Trackpoint>
            <Time>2020-03-07T18:25:55.000Z</Time>
            <Position>
              <LatitudeDegrees>40.5522679723799228668212890625</LatitudeDegrees>
              <LongitudeDegrees>-3.6890574730932712554931640625</LongitudeDegrees>
            </Position>
            <AltitudeMeters>737.20001220703125</AltitudeMeters>
            <DistanceMeters>NAN</DistanceMeters>
          </Trackpoint>
          <Trackpoint>
            <Time>2020-03-07T18:25:56.000Z</Time>
            <Position>
              <LatitudeDegrees>40.55227945558726787567138671875</LatitudeDegrees>
              <LongitudeDegrees>-3.68896870873868465423583984375</LongitudeDegrees>
            </Position>
            <AltitudeMeters>737.20001220703125</AltitudeMeters>
            <DistanceMeters>NAN</DistanceMeters>
          </Trackpoint>
          <Trackpoint>
            <Time>2020-03-07T18:25:57.000Z</Time>
            <Position>
              <LatitudeDegrees>40.55228884331881999969482421875</LatitudeDegrees>
              <LongitudeDegrees>-3.688880614936351776123046875</LongitudeDegrees>
            </Position>
            <AltitudeMeters>737.20001220703125</AltitudeMeters>
            <DistanceMeters>NAN</DistanceMeters>
          </Trackpoint>
          <Trackpoint>
            <Time>2020-03-07T18:25:58.000Z</Time>
            <Position>
              <LatitudeDegrees>40.55229672230780124664306640625</LatitudeDegrees>
              <LongitudeDegrees>-3.688790760934352874755859375</LongitudeDegrees>
            </Position>
            <AltitudeMeters>737.20001220703125</AltitudeMeters>
            <DistanceMeters>NAN</DistanceMeters>
          </Trackpoint>
          <Trackpoint>
            <Time>2020-03-07T18:25:59.000Z</Time>
            <Position>
              <LatitudeDegrees>40.552305020391941070556640625</LatitudeDegrees>
              <LongitudeDegrees>-3.688700906932353973388671875</LongitudeDegrees>
            </Position>
            <AltitudeMeters>737.20001220703125</AltitudeMeters>
            <DistanceMeters>NAN</DistanceMeters>
          </Trackpoint>
          <Trackpoint>
            <Time>2020-03-07T18:26:00.000Z</Time>
            <Position>
              <LatitudeDegrees>40.5523105524480342864990234375</LatitudeDegrees>
              <LongitudeDegrees>-3.6886073648929595947265625</LongitudeDegrees>
            </Position>
            <AltitudeMeters>737.20001220703125</AltitudeMeters>
            <DistanceMeters>NAN</DistanceMeters>
          </Trackpoint>
          <Trackpoint>
            <Time>2020-03-07T18:26:01.000Z</Time>
            <Position>
              <LatitudeDegrees>40.55231616832315921783447265625</LatitudeDegrees>
              <LongitudeDegrees>-3.6885196901857852935791015625</LongitudeDegrees>
            </Position>
            <AltitudeMeters>737.4000244140625</AltitudeMeters>
            <DistanceMeters>NAN</DistanceMeters>
          </Trackpoint>
          <Trackpoint>
            <Time>2020-03-07T18:26:02.000Z</Time>
            <Position>
              <LatitudeDegrees>40.5523222871124744415283203125</LatitudeDegrees>
              <LongitudeDegrees>-3.68843729607760906219482421875</LongitudeDegrees>
            </Position>
            <AltitudeMeters>737.4000244140625</AltitudeMeters>
            <DistanceMeters>NAN</DistanceMeters>
          </Trackpoint>
          <Trackpoint>
            <Time>2020-03-07T18:26:03.000Z</Time>
            <Position>
              <LatitudeDegrees>40.55232605896890163421630859375</LatitudeDegrees>
              <LongitudeDegrees>-3.688350208103656768798828125</LongitudeDegrees>
            </Position>
            <AltitudeMeters>737.4000244140625</AltitudeMeters>
            <DistanceMeters>NAN</DistanceMeters>
          </Trackpoint>
          <Trackpoint>
            <Time>2020-03-07T18:26:04.000Z</Time>
            <Position>
              <LatitudeDegrees>40.5523279868066310882568359375</LatitudeDegrees>
              <LongitudeDegrees>-3.6882655508816242218017578125</LongitudeDegrees>
            </Position>
            <AltitudeMeters>737.4000244140625</AltitudeMeters>
            <DistanceMeters>NAN</DistanceMeters>
          </Trackpoint>
          <Trackpoint>
            <Time>2020-03-07T18:26:05.000Z</Time>
            <Position>
              <LatitudeDegrees>40.5523289926350116729736328125</LatitudeDegrees>
              <LongitudeDegrees>-3.68818013928830623626708984375</LongitudeDegrees>
            </Position>
            <AltitudeMeters>737.4000244140625</AltitudeMeters>
            <DistanceMeters>NAN</DistanceMeters>
          </Trackpoint>
          <Trackpoint>
            <Time>2020-03-07T18:26:06.000Z</Time>
            <Position>
              <LatitudeDegrees>40.55232874117791652679443359375</LatitudeDegrees>
              <LongitudeDegrees>-3.688095398247241973876953125</LongitudeDegrees>
            </Position>
            <AltitudeMeters>737.4000244140625</AltitudeMeters>
            <DistanceMeters>NAN</DistanceMeters>
          </Trackpoint>
          <Trackpoint>
            <Time>2020-03-07T18:26:07.000Z</Time>
            <Position>
              <LatitudeDegrees>40.552328489720821380615234375</LatitudeDegrees>
              <LongitudeDegrees>-3.68800629861652851104736328125</LongitudeDegrees>
            </Position>
            <AltitudeMeters>737.4000244140625</AltitudeMeters>
            <DistanceMeters>NAN</DistanceMeters>
          </Trackpoint>
          <Trackpoint>
            <Time>2020-03-07T18:26:08.000Z</Time>
            <Position>
              <LatitudeDegrees>40.5523269809782505035400390625</LatitudeDegrees>
              <LongitudeDegrees>-3.687915690243244171142578125</LongitudeDegrees>
            </Position>
            <AltitudeMeters>737.4000244140625</AltitudeMeters>
            <DistanceMeters>NAN</DistanceMeters>
          </Trackpoint>
          <Trackpoint>
            <Time>2020-03-07T18:26:09.000Z</Time>
            <Position>
              <LatitudeDegrees>40.5523256398737430572509765625</LatitudeDegrees>
              <LongitudeDegrees>-3.687830530107021331787109375</LongitudeDegrees>
            </Position>
            <AltitudeMeters>737.4000244140625</AltitudeMeters>
            <DistanceMeters>NAN</DistanceMeters>
          </Trackpoint>
          <Trackpoint>
            <Time>2020-03-07T18:26:10.000Z</Time>
            <Position>
              <LatitudeDegrees>40.55232270620763301849365234375</LatitudeDegrees>
              <LongitudeDegrees>-3.68774344213306903839111328125</LongitudeDegrees>
            </Position>
            <AltitudeMeters>737.5999755859375</AltitudeMeters>
            <DistanceMeters>NAN</DistanceMeters>
          </Trackpoint>
          <Trackpoint>
            <Time>2020-03-07T18:26:11.000Z</Time>
            <Position>
              <LatitudeDegrees>40.55231801234185695648193359375</LatitudeDegrees>
              <LongitudeDegrees>-3.687656186521053314208984375</LongitudeDegrees>
            </Position>
            <AltitudeMeters>737.5999755859375</AltitudeMeters>
            <DistanceMeters>NAN</DistanceMeters>
          </Trackpoint>
          <Trackpoint>
            <Time>2020-03-07T18:26:12.000Z</Time>
            <Position>
              <LatitudeDegrees>40.55231206119060516357421875</LatitudeDegrees>
              <LongitudeDegrees>-3.68756465613842010498046875</LongitudeDegrees>
            </Position>
            <AltitudeMeters>737.5999755859375</AltitudeMeters>
            <DistanceMeters>NAN</DistanceMeters>
          </Trackpoint>
          <Trackpoint>
            <Time>2020-03-07T18:26:13.000Z</Time>
            <Position>
              <LatitudeDegrees>40.55230611003935337066650390625</LatitudeDegrees>
              <LongitudeDegrees>-3.6874759756028652191162109375</LongitudeDegrees>
            </Position>
            <AltitudeMeters>737.5999755859375</AltitudeMeters>
            <DistanceMeters>NAN</DistanceMeters>
          </Trackpoint>
          <Trackpoint>
            <Time>2020-03-07T18:26:14.000Z</Time>
            <Position>
              <LatitudeDegrees>40.5522979795932769775390625</LatitudeDegrees>
              <LongitudeDegrees>-3.68738654069602489471435546875</LongitudeDegrees>
            </Position>
            <AltitudeMeters>737.5999755859375</AltitudeMeters>
            <DistanceMeters>NAN</DistanceMeters>
          </Trackpoint>
          <Trackpoint>
            <Time>2020-03-07T18:26:15.000Z</Time>
            <Position>
              <LatitudeDegrees>40.552290938794612884521484375</LatitudeDegrees>
              <LongitudeDegrees>-3.6873002909123897552490234375</LongitudeDegrees>
            </Position>
            <AltitudeMeters>737.79998779296875</AltitudeMeters>
            <DistanceMeters>NAN</DistanceMeters>
          </Trackpoint>
          <Trackpoint>
            <Time>2020-03-07T18:26:16.000Z</Time>
            <Position>
              <LatitudeDegrees>40.552282892167568206787109375</LatitudeDegrees>
              <LongitudeDegrees>-3.687218315899372100830078125</LongitudeDegrees>
            </Position>
            <AltitudeMeters>737.79998779296875</AltitudeMeters>
            <DistanceMeters>NAN</DistanceMeters>
          </Trackpoint>
          <Trackpoint>
            <Time>2020-03-07T18:26:17.000Z</Time>
            <Position>
              <LatitudeDegrees>40.55227107368409633636474609375</LatitudeDegrees>
              <LongitudeDegrees>-3.6871348321437835693359375</LongitudeDegrees>
            </Position>
            <AltitudeMeters>737.79998779296875</AltitudeMeters>
            <DistanceMeters>NAN</DistanceMeters>
          </Trackpoint>
          <Trackpoint>
            <Time>2020-03-07T18:26:18.000Z</Time>
            <Position>
              <LatitudeDegrees>40.55225984193384647369384765625</LatitudeDegrees>
              <LongitudeDegrees>-3.68704942055046558380126953125</LongitudeDegrees>
            </Position>
            <AltitudeMeters>737.79998779296875</AltitudeMeters>
            <DistanceMeters>NAN</DistanceMeters>
          </Trackpoint>
          <Trackpoint>
            <Time>2020-03-07T18:26:19.000Z</Time>
            <Position>
              <LatitudeDegrees>40.55224676616489887237548828125</LatitudeDegrees>
              <LongitudeDegrees>-3.68696409277617931365966796875</LongitudeDegrees>
            </Position>
            <AltitudeMeters>737.79998779296875</AltitudeMeters>
            <DistanceMeters>NAN</DistanceMeters>
          </Trackpoint>
          <Trackpoint>
            <Time>2020-03-07T18:26:20.000Z</Time>
            <Position>
              <LatitudeDegrees>40.5522361211478710174560546875</LatitudeDegrees>
              <LongitudeDegrees>-3.686881698668003082275390625</LongitudeDegrees>
            </Position>
            <AltitudeMeters>737.79998779296875</AltitudeMeters>
            <DistanceMeters>NAN</DistanceMeters>
          </Trackpoint>
          <Trackpoint>
            <Time>2020-03-07T18:26:21.000Z</Time>
            <Position>
              <LatitudeDegrees>40.55222463794052600860595703125</LatitudeDegrees>
              <LongitudeDegrees>-3.6868007294833660125732421875</LongitudeDegrees>
            </Position>
            <AltitudeMeters>737.79998779296875</AltitudeMeters>
            <DistanceMeters>NAN</DistanceMeters>
          </Trackpoint>
          <Trackpoint>
            <Time>2020-03-07T18:26:22.000Z</Time>
            <Position>
              <LatitudeDegrees>40.5522129870951175689697265625</LatitudeDegrees>
              <LongitudeDegrees>-3.68672286160290241241455078125</LongitudeDegrees>
            </Position>
            <AltitudeMeters>737.79998779296875</AltitudeMeters>
            <DistanceMeters>NAN</DistanceMeters>
          </Trackpoint>
          <Trackpoint>
            <Time>2020-03-07T18:26:23.000Z</Time>
            <Position>
              <LatitudeDegrees>40.552200414240360260009765625</LatitudeDegrees>
              <LongitudeDegrees>-3.68664524517953395843505859375</LongitudeDegrees>
            </Position>
            <AltitudeMeters>738</AltitudeMeters>
            <DistanceMeters>NAN</DistanceMeters>
          </Trackpoint>
          <Trackpoint>
            <Time>2020-03-07T18:26:24.000Z</Time>
            <Position>
              <LatitudeDegrees>40.5521878413856029510498046875</LatitudeDegrees>
              <LongitudeDegrees>-3.68656528182327747344970703125</LongitudeDegrees>
            </Position>
            <AltitudeMeters>738</AltitudeMeters>
            <DistanceMeters>NAN</DistanceMeters>
          </Trackpoint>
          <Trackpoint>
            <Time>2020-03-07T18:26:25.000Z</Time>
            <Position>
              <LatitudeDegrees>40.55217619054019451141357421875</LatitudeDegrees>
              <LongitudeDegrees>-3.68648179806768894195556640625</LongitudeDegrees>
            </Position>
            <AltitudeMeters>738.20001220703125</AltitudeMeters>
            <DistanceMeters>NAN</DistanceMeters>
          </Trackpoint>
          <Trackpoint>
            <Time>2020-03-07T18:26:26.000Z</Time>
            <Position>
              <LatitudeDegrees>40.55216663517057895660400390625</LatitudeDegrees>
              <LongitudeDegrees>-3.68639982305467128753662109375</LongitudeDegrees>
            </Position>
            <AltitudeMeters>738.20001220703125</AltitudeMeters>
            <DistanceMeters>NAN</DistanceMeters>
          </Trackpoint>
          <Trackpoint>
            <Time>2020-03-07T18:26:27.000Z</Time>
            <Position>
              <LatitudeDegrees>40.55215925909578800201416015625</LatitudeDegrees>
              <LongitudeDegrees>-3.68631885387003421783447265625</LongitudeDegrees>
            </Position>
            <AltitudeMeters>738.4000244140625</AltitudeMeters>
            <DistanceMeters>NAN</DistanceMeters>
          </Trackpoint>
          <Trackpoint>
            <Time>2020-03-07T18:26:28.000Z</Time>
            <Position>
              <LatitudeDegrees>40.5521506257355213165283203125</LatitudeDegrees>
              <LongitudeDegrees>-3.686237968504428863525390625</LongitudeDegrees>
            </Position>
            <AltitudeMeters>738.5999755859375</AltitudeMeters>
            <DistanceMeters>NAN</DistanceMeters>
          </Trackpoint>
          <Trackpoint>
            <Time>2020-03-07T18:26:29.000Z</Time>
            <Position>
              <LatitudeDegrees>40.55214199237525463104248046875</LatitudeDegrees>
              <LongitudeDegrees>-3.6861556582152843475341796875</LongitudeDegrees>
            </Position>
            <AltitudeMeters>738.79998779296875</AltitudeMeters>
            <DistanceMeters>NAN</DistanceMeters>
          </Trackpoint>
          <Trackpoint>
            <Time>2020-03-07T18:26:30.000Z</Time>
            <Position>
              <LatitudeDegrees>40.55213159881532192230224609375</LatitudeDegrees>
              <LongitudeDegrees>-3.6860755272209644317626953125</LongitudeDegrees>
            </Position>
            <AltitudeMeters>738.79998779296875</AltitudeMeters>
            <DistanceMeters>NAN</DistanceMeters>
          </Trackpoint>
          <Trackpoint>
            <Time>2020-03-07T18:26:31.000Z</Time>
            <Position>
              <LatitudeDegrees>40.5521217919886112213134765625</LatitudeDegrees>
              <LongitudeDegrees>-3.68599631823599338531494140625</LongitudeDegrees>
            </Position>
            <AltitudeMeters>739.20001220703125</AltitudeMeters>
            <DistanceMeters>NAN</DistanceMeters>
          </Trackpoint>
          <Trackpoint>
            <Time>2020-03-07T18:26:32.000Z</Time>
            <Position>
              <LatitudeDegrees>40.5521147511899471282958984375</LatitudeDegrees>
              <LongitudeDegrees>-3.685917444527149200439453125</LongitudeDegrees>
            </Position>
            <AltitudeMeters>739.20001220703125</AltitudeMeters>
            <DistanceMeters>NAN</DistanceMeters>
          </Trackpoint>
          <Trackpoint>
            <Time>2020-03-07T18:26:33.000Z</Time>
            <Position>
              <LatitudeDegrees>40.55210821330547332763671875</LatitudeDegrees>
              <LongitudeDegrees>-3.6858371458947658538818359375</LongitudeDegrees>
            </Position>
            <AltitudeMeters>739.4000244140625</AltitudeMeters>
            <DistanceMeters>NAN</DistanceMeters>
          </Trackpoint>
          <Trackpoint>
            <Time>2020-03-07T18:26:34.000Z</Time>
            <Position>
              <LatitudeDegrees>40.5521030165255069732666015625</LatitudeDegrees>
              <LongitudeDegrees>-3.685754835605621337890625</LongitudeDegrees>
            </Position>
            <AltitudeMeters>739.5999755859375</AltitudeMeters>
            <DistanceMeters>NAN</DistanceMeters>
          </Trackpoint>
          <Trackpoint>
            <Time>2020-03-07T18:26:35.000Z</Time>
            <Position>
              <LatitudeDegrees>40.55209882557392120361328125</LatitudeDegrees>
              <LongitudeDegrees>-3.68567462079226970672607421875</LongitudeDegrees>
            </Position>
            <AltitudeMeters>739.5999755859375</AltitudeMeters>
            <DistanceMeters>NAN</DistanceMeters>
          </Trackpoint>
          <Trackpoint>
            <Time>2020-03-07T18:26:36.000Z</Time>
            <Position>
              <LatitudeDegrees>40.5520946346223354339599609375</LatitudeDegrees>
              <LongitudeDegrees>-3.68559130467474460601806640625</LongitudeDegrees>
            </Position>
            <AltitudeMeters>739.5999755859375</AltitudeMeters>
            <DistanceMeters>NAN</DistanceMeters>
          </Trackpoint>
          <Trackpoint>
            <Time>2020-03-07T18:26:37.000Z</Time>
            <Position>
              <LatitudeDegrees>40.5520909465849399566650390625</LatitudeDegrees>
              <LongitudeDegrees>-3.68550949729979038238525390625</LongitudeDegrees>
            </Position>
            <AltitudeMeters>739.5999755859375</AltitudeMeters>
            <DistanceMeters>NAN</DistanceMeters>
          </Trackpoint>
          <Trackpoint>
            <Time>2020-03-07T18:26:38.000Z</Time>
            <Position>
              <LatitudeDegrees>40.55208801291882991790771484375</LatitudeDegrees>
              <LongitudeDegrees>-3.6854262650012969970703125</LongitudeDegrees>
            </Position>
            <AltitudeMeters>739.79998779296875</AltitudeMeters>
            <DistanceMeters>NAN</DistanceMeters>
          </Trackpoint>
          <Trackpoint>
            <Time>2020-03-07T18:26:39.000Z</Time>
            <Position>
              <LatitudeDegrees>40.55208650417625904083251953125</LatitudeDegrees>
              <LongitudeDegrees>-3.6853436194360256195068359375</LongitudeDegrees>
            </Position>
            <AltitudeMeters>739.79998779296875</AltitudeMeters>
            <DistanceMeters>NAN</DistanceMeters>
          </Trackpoint>
          <Trackpoint>
            <Time>2020-03-07T18:26:40.000Z</Time>
            <Position>
              <LatitudeDegrees>40.55208667181432247161865234375</LatitudeDegrees>
              <LongitudeDegrees>-3.685261644423007965087890625</LongitudeDegrees>
            </Position>
            <AltitudeMeters>739.79998779296875</AltitudeMeters>
            <DistanceMeters>NAN</DistanceMeters>
          </Trackpoint>
          <Trackpoint>
            <Time>2020-03-07T18:26:41.000Z</Time>
            <Position>
              <LatitudeDegrees>40.5520889349281787872314453125</LatitudeDegrees>
              <LongitudeDegrees>-3.68517749011516571044921875</LongitudeDegrees>
            </Position>
            <AltitudeMeters>739.79998779296875</AltitudeMeters>
            <DistanceMeters>NAN</DistanceMeters>
          </Trackpoint>
          <Trackpoint>
            <Time>2020-03-07T18:26:42.000Z</Time>
            <Position>
              <LatitudeDegrees>40.552092455327510833740234375</LatitudeDegrees>
              <LongitudeDegrees>-3.6850961856544017791748046875</LongitudeDegrees>
            </Position>
            <AltitudeMeters>739.79998779296875</AltitudeMeters>
            <DistanceMeters>NAN</DistanceMeters>
          </Trackpoint>
          <Trackpoint>
            <Time>2020-03-07T18:26:43.000Z</Time>
            <Position>
              <LatitudeDegrees>40.552095472812652587890625</LatitudeDegrees>
              <LongitudeDegrees>-3.68501261807978153228759765625</LongitudeDegrees>
            </Position>
            <AltitudeMeters>740</AltitudeMeters>
            <DistanceMeters>NAN</DistanceMeters>
          </Trackpoint>
          <Trackpoint>
            <Time>2020-03-07T18:26:44.000Z</Time>
            <Position>
              <LatitudeDegrees>40.55209957994520664215087890625</LatitudeDegrees>
              <LongitudeDegrees>-3.6849300563335418701171875</LongitudeDegrees>
            </Position>
            <AltitudeMeters>740</AltitudeMeters>
            <DistanceMeters>NAN</DistanceMeters>
          </Trackpoint>
          <Trackpoint>
            <Time>2020-03-07T18:26:45.000Z</Time>
            <Position>
              <LatitudeDegrees>40.55210578255355358123779296875</LatitudeDegrees>
              <LongitudeDegrees>-3.68485336191952228546142578125</LongitudeDegrees>
            </Position>
            <AltitudeMeters>740</AltitudeMeters>
            <DistanceMeters>NAN</DistanceMeters>
          </Trackpoint>
          <Trackpoint>
            <Time>2020-03-07T18:26:46.000Z</Time>
            <Position>
              <LatitudeDegrees>40.552111566066741943359375</LatitudeDegrees>
              <LongitudeDegrees>-3.6847793497145175933837890625</LongitudeDegrees>
            </Position>
            <AltitudeMeters>740</AltitudeMeters>
            <DistanceMeters>NAN</DistanceMeters>
          </Trackpoint>
          <Trackpoint>
            <Time>2020-03-07T18:26:47.000Z</Time>
            <Position>
              <LatitudeDegrees>40.552117936313152313232421875</LatitudeDegrees>
              <LongitudeDegrees>-3.68470634333789348602294921875</LongitudeDegrees>
            </Position>
            <AltitudeMeters>740.20001220703125</AltitudeMeters>
            <DistanceMeters>NAN</DistanceMeters>
          </Trackpoint>
          <Trackpoint>
            <Time>2020-03-07T18:26:48.000Z</Time>
            <Position>
              <LatitudeDegrees>40.55212673731148242950439453125</LatitudeDegrees>
              <LongitudeDegrees>-3.68463560007512569427490234375</LongitudeDegrees>
            </Position>
            <AltitudeMeters>740.20001220703125</AltitudeMeters>
            <DistanceMeters>NAN</DistanceMeters>
          </Trackpoint>
          <Trackpoint>
            <Time>2020-03-07T18:26:49.000Z</Time>
            <Position>
              <LatitudeDegrees>40.5521335266530513763427734375</LatitudeDegrees>
              <LongitudeDegrees>-3.6845625936985015869140625</LongitudeDegrees>
            </Position>
            <AltitudeMeters>740.20001220703125</AltitudeMeters>
            <DistanceMeters>NAN</DistanceMeters>
          </Trackpoint>
          <Trackpoint>
            <Time>2020-03-07T18:26:50.000Z</Time>
            <Position>
              <LatitudeDegrees>40.55214039981365203857421875</LatitudeDegrees>
              <LongitudeDegrees>-3.68449084460735321044921875</LongitudeDegrees>
            </Position>
            <AltitudeMeters>740.4000244140625</AltitudeMeters>
            <DistanceMeters>NAN</DistanceMeters>
          </Trackpoint>
          <Trackpoint>
            <Time>2020-03-07T18:26:51.000Z</Time>
            <Position>
              <LatitudeDegrees>40.5521482788026332855224609375</LatitudeDegrees>
              <LongitudeDegrees>-3.68441783823072910308837890625</LongitudeDegrees>
            </Position>
            <AltitudeMeters>740.4000244140625</AltitudeMeters>
            <DistanceMeters>NAN</DistanceMeters>
          </Trackpoint>
          <Trackpoint>
            <Time>2020-03-07T18:26:52.000Z</Time>
            <Position>
              <LatitudeDegrees>40.55215724743902683258056640625</LatitudeDegrees>
              <LongitudeDegrees>-3.68434374220669269561767578125</LongitudeDegrees>
            </Position>
            <AltitudeMeters>740.4000244140625</AltitudeMeters>
            <DistanceMeters>NAN</DistanceMeters>
          </Trackpoint>
          <Trackpoint>
            <Time>2020-03-07T18:26:53.000Z</Time>
            <Position>
              <LatitudeDegrees>40.552167557179927825927734375</LatitudeDegrees>
              <LongitudeDegrees>-3.684270568192005157470703125</LongitudeDegrees>
            </Position>
            <AltitudeMeters>740.4000244140625</AltitudeMeters>
            <DistanceMeters>NAN</DistanceMeters>
          </Trackpoint>
          <Trackpoint>
            <Time>2020-03-07T18:26:54.000Z</Time>
            <Position>
              <LatitudeDegrees>40.552177615463733673095703125</LatitudeDegrees>
              <LongitudeDegrees>-3.68419689126312732696533203125</LongitudeDegrees>
            </Position>
            <AltitudeMeters>740.4000244140625</AltitudeMeters>
            <DistanceMeters>NAN</DistanceMeters>
          </Trackpoint>
          <Trackpoint>
            <Time>2020-03-07T18:26:55.000Z</Time>
            <Position>
              <LatitudeDegrees>40.552189350128173828125</LatitudeDegrees>
              <LongitudeDegrees>-3.68412346579134464263916015625</LongitudeDegrees>
            </Position>
            <AltitudeMeters>740.4000244140625</AltitudeMeters>
            <DistanceMeters>NAN</DistanceMeters>
          </Trackpoint>
          <Trackpoint>
            <Time>2020-03-07T18:26:56.000Z</Time>
            <Position>
              <LatitudeDegrees>40.5522032640874385833740234375</LatitudeDegrees>
              <LongitudeDegrees>-3.68404719047248363494873046875</LongitudeDegrees>
            </Position>
            <AltitudeMeters>740.5999755859375</AltitudeMeters>
            <DistanceMeters>NAN</DistanceMeters>
          </Trackpoint>
          <Trackpoint>
            <Time>2020-03-07T18:26:57.000Z</Time>
            <Position>
              <LatitudeDegrees>40.55221818387508392333984375</LatitudeDegrees>
              <LongitudeDegrees>-3.68397125042974948883056640625</LongitudeDegrees>
            </Position>
            <AltitudeMeters>740.5999755859375</AltitudeMeters>
            <DistanceMeters>NAN</DistanceMeters>
          </Trackpoint>
          <Trackpoint>
            <Time>2020-03-07T18:26:58.000Z</Time>
            <Position>
              <LatitudeDegrees>40.55223486386239528656005859375</LatitudeDegrees>
              <LongitudeDegrees>-3.6838935501873493194580078125</LongitudeDegrees>
            </Position>
            <AltitudeMeters>740.5999755859375</AltitudeMeters>
            <DistanceMeters>NAN</DistanceMeters>
          </Trackpoint>
          <Trackpoint>
            <Time>2020-03-07T18:26:59.000Z</Time>
            <Position>
              <LatitudeDegrees>40.55225263349711894989013671875</LatitudeDegrees>
              <LongitudeDegrees>-3.68381685577332973480224609375</LongitudeDegrees>
            </Position>
            <AltitudeMeters>740.5999755859375</AltitudeMeters>
            <DistanceMeters>NAN</DistanceMeters>
          </Trackpoint>
          <Trackpoint>
            <Time>2020-03-07T18:27:00.000Z</Time>
            <Position>
              <LatitudeDegrees>40.552271492779254913330078125</LatitudeDegrees>
              <LongitudeDegrees>-3.68374359793961048126220703125</LongitudeDegrees>
            </Position>
            <AltitudeMeters>740.5999755859375</AltitudeMeters>
            <DistanceMeters>NAN</DistanceMeters>
          </Trackpoint>
          <Trackpoint>
            <Time>2020-03-07T18:27:01.000Z</Time>
            <Position>
              <LatitudeDegrees>40.55229001678526401519775390625</LatitudeDegrees>
              <LongitudeDegrees>-3.6836648918688297271728515625</LongitudeDegrees>
            </Position>
            <AltitudeMeters>740.79998779296875</AltitudeMeters>
            <DistanceMeters>NAN</DistanceMeters>
          </Trackpoint>
          <Trackpoint>
            <Time>2020-03-07T18:27:02.000Z</Time>
            <Position>
              <LatitudeDegrees>40.5523048527538776397705078125</LatitudeDegrees>
              <LongitudeDegrees>-3.68358618579804897308349609375</LongitudeDegrees>
            </Position>
            <AltitudeMeters>740.79998779296875</AltitudeMeters>
            <DistanceMeters>NAN</DistanceMeters>
          </Trackpoint>
          <Trackpoint>
            <Time>2020-03-07T18:27:03.000Z</Time>
            <Position>
              <LatitudeDegrees>40.55231013335287570953369140625</LatitudeDegrees>
              <LongitudeDegrees>-3.68350588716566562652587890625</LongitudeDegrees>
            </Position>
            <AltitudeMeters>740.79998779296875</AltitudeMeters>
            <DistanceMeters>NAN</DistanceMeters>
          </Trackpoint>
          <Trackpoint>
            <Time>2020-03-07T18:27:04.000Z</Time>
            <Position>
              <LatitudeDegrees>40.55230091325938701629638671875</LatitudeDegrees>
              <LongitudeDegrees>-3.68342877365648746490478515625</LongitudeDegrees>
            </Position>
            <AltitudeMeters>740.79998779296875</AltitudeMeters>
            <DistanceMeters>NAN</DistanceMeters>
          </Trackpoint>
          <Trackpoint>
            <Time>2020-03-07T18:27:05.000Z</Time>
            <Position>
              <LatitudeDegrees>40.55228549055755138397216796875</LatitudeDegrees>
              <LongitudeDegrees>-3.68334964849054813385009765625</LongitudeDegrees>
            </Position>
            <AltitudeMeters>740.79998779296875</AltitudeMeters>
            <DistanceMeters>NAN</DistanceMeters>
          </Trackpoint>
          <Trackpoint>
            <Time>2020-03-07T18:27:06.000Z</Time>
            <Position>
              <LatitudeDegrees>40.55226973257958889007568359375</LatitudeDegrees>
              <LongitudeDegrees>-3.68327312171459197998046875</LongitudeDegrees>
            </Position>
            <AltitudeMeters>740.79998779296875</AltitudeMeters>
            <DistanceMeters>NAN</DistanceMeters>
          </Trackpoint>
          <Trackpoint>
            <Time>2020-03-07T18:27:07.000Z</Time>
            <Position>
              <LatitudeDegrees>40.55225984193384647369384765625</LatitudeDegrees>
              <LongitudeDegrees>-3.68319533765316009521484375</LongitudeDegrees>
            </Position>
            <AltitudeMeters>740.79998779296875</AltitudeMeters>
            <DistanceMeters>NAN</DistanceMeters>
          </Trackpoint>
          <Trackpoint>
            <Time>2020-03-07T18:27:08.000Z</Time>
            <Position>
              <LatitudeDegrees>40.55226084776222705841064453125</LatitudeDegrees>
              <LongitudeDegrees>-3.68312149308621883392333984375</LongitudeDegrees>
            </Position>
            <AltitudeMeters>740.79998779296875</AltitudeMeters>
            <DistanceMeters>NAN</DistanceMeters>
          </Trackpoint>
          <Trackpoint>
            <Time>2020-03-07T18:27:09.000Z</Time>
            <Position>
              <LatitudeDegrees>40.5522743426263332366943359375</LatitudeDegrees>
              <LongitudeDegrees>-3.6830503307282924652099609375</LongitudeDegrees>
            </Position>
            <AltitudeMeters>740.79998779296875</AltitudeMeters>
            <DistanceMeters>NAN</DistanceMeters>
          </Trackpoint>
          <Trackpoint>
            <Time>2020-03-07T18:27:10.000Z</Time>
            <Position>
              <LatitudeDegrees>40.552299655973911285400390625</LatitudeDegrees>
              <LongitudeDegrees>-3.68298084475100040435791015625</LongitudeDegrees>
            </Position>
            <AltitudeMeters>741</AltitudeMeters>
            <DistanceMeters>NAN</DistanceMeters>
          </Trackpoint>
          <Trackpoint>
            <Time>2020-03-07T18:27:11.000Z</Time>
            <Position>
              <LatitudeDegrees>40.552337206900119781494140625</LatitudeDegrees>
              <LongitudeDegrees>-3.68291647173464298248291015625</LongitudeDegrees>
            </Position>
            <AltitudeMeters>741</AltitudeMeters>
            <DistanceMeters>NAN</DistanceMeters>
          </Trackpoint>
          <Trackpoint>
            <Time>2020-03-07T18:27:12.000Z</Time>
            <Position>
              <LatitudeDegrees>40.5523843131959438323974609375</LatitudeDegrees>
              <LongitudeDegrees>-3.68286919780075550079345703125</LongitudeDegrees>
            </Position>
            <AltitudeMeters>741</AltitudeMeters>
            <DistanceMeters>NAN</DistanceMeters>
          </Trackpoint>
          <Trackpoint>
            <Time>2020-03-07T18:27:13.000Z</Time>
            <Position>
              <LatitudeDegrees>40.552436448633670806884765625</LatitudeDegrees>
              <LongitudeDegrees>-3.6828330717980861663818359375</LongitudeDegrees>
            </Position>
            <AltitudeMeters>741</AltitudeMeters>
            <DistanceMeters>NAN</DistanceMeters>
          </Trackpoint>
          <Trackpoint>
            <Time>2020-03-07T18:27:14.000Z</Time>
            <Position>
              <LatitudeDegrees>40.55248816497623920440673828125</LatitudeDegrees>
              <LongitudeDegrees>-3.6828035674989223480224609375</LongitudeDegrees>
            </Position>
            <AltitudeMeters>741</AltitudeMeters>
            <DistanceMeters>NAN</DistanceMeters>
          </Trackpoint>
          <Trackpoint>
            <Time>2020-03-07T18:27:15.000Z</Time>
            <Position>
              <LatitudeDegrees>40.55253527127206325531005859375</LatitudeDegrees>
              <LongitudeDegrees>-3.682769201695919036865234375</LongitudeDegrees>
            </Position>
            <AltitudeMeters>741.20001220703125</AltitudeMeters>
            <DistanceMeters>NAN</DistanceMeters>
          </Trackpoint>
          <Trackpoint>
            <Time>2020-03-07T18:27:16.000Z</Time>
            <Position>
              <LatitudeDegrees>40.55257852189242839813232421875</LatitudeDegrees>
              <LongitudeDegrees>-3.6827187426388263702392578125</LongitudeDegrees>
            </Position>
            <AltitudeMeters>741</AltitudeMeters>
            <DistanceMeters>NAN</DistanceMeters>
          </Trackpoint>
          <Trackpoint>
            <Time>2020-03-07T18:27:17.000Z</Time>
            <Position>
              <LatitudeDegrees>40.55261313915252685546875</LatitudeDegrees>
              <LongitudeDegrees>-3.68266434408724308013916015625</LongitudeDegrees>
            </Position>
            <AltitudeMeters>741.20001220703125</AltitudeMeters>
            <DistanceMeters>NAN</DistanceMeters>
          </Trackpoint>
          <Trackpoint>
            <Time>2020-03-07T18:27:18.000Z</Time>
            <Position>
              <LatitudeDegrees>40.55263803340494632720947265625</LatitudeDegrees>
              <LongitudeDegrees>-3.68260818533599376678466796875</LongitudeDegrees>
            </Position>
            <AltitudeMeters>741.4000244140625</AltitudeMeters>
            <DistanceMeters>NAN</DistanceMeters>
          </Trackpoint>
          <Trackpoint>
            <Time>2020-03-07T18:27:19.000Z</Time>
            <Position>
              <LatitudeDegrees>40.55265731178224086761474609375</LatitudeDegrees>
              <LongitudeDegrees>-3.68255604989826679229736328125</LongitudeDegrees>
            </Position>
            <AltitudeMeters>741.4000244140625</AltitudeMeters>
            <DistanceMeters>NAN</DistanceMeters>
          </Trackpoint>
          <Trackpoint>
            <Time>2020-03-07T18:27:20.000Z</Time>
            <Position>
              <LatitudeDegrees>40.5526783503592014312744140625</LatitudeDegrees>
              <LongitudeDegrees>-3.68250106461346149444580078125</LongitudeDegrees>
            </Position>
            <AltitudeMeters>741.5999755859375</AltitudeMeters>
            <DistanceMeters>NAN</DistanceMeters>
          </Trackpoint>
          <Trackpoint>
            <Time>2020-03-07T18:27:21.000Z</Time>
            <Position>
              <LatitudeDegrees>40.5526976287364959716796875</LatitudeDegrees>
              <LongitudeDegrees>-3.68244289420545101165771484375</LongitudeDegrees>
            </Position>
            <AltitudeMeters>741.5999755859375</AltitudeMeters>
            <DistanceMeters>NAN</DistanceMeters>
          </Trackpoint>
          <Trackpoint>
            <Time>2020-03-07T18:27:22.000Z</Time>
            <Position>
              <LatitudeDegrees>40.5527217686176300048828125</LatitudeDegrees>
              <LongitudeDegrees>-3.6823844723403453826904296875</LongitudeDegrees>
            </Position>
            <AltitudeMeters>741.79998779296875</AltitudeMeters>
            <DistanceMeters>NAN</DistanceMeters>
          </Trackpoint>
          <Trackpoint>
            <Time>2020-03-07T18:27:23.000Z</Time>
            <Position>
              <LatitudeDegrees>40.55274850688874721527099609375</LatitudeDegrees>
              <LongitudeDegrees>-3.68232605047523975372314453125</LongitudeDegrees>
            </Position>
            <AltitudeMeters>742</AltitudeMeters>
            <DistanceMeters>NAN</DistanceMeters>
          </Trackpoint>
          <Trackpoint>
            <Time>2020-03-07T18:27:24.000Z</Time>
            <Position>
              <LatitudeDegrees>40.55277633480727672576904296875</LatitudeDegrees>
              <LongitudeDegrees>-3.68226788006722927093505859375</LongitudeDegrees>
            </Position>
            <AltitudeMeters>742.20001220703125</AltitudeMeters>
            <DistanceMeters>NAN</DistanceMeters>
          </Trackpoint>
          <Trackpoint>
            <Time>2020-03-07T18:27:25.000Z</Time>
            <Position>
              <LatitudeDegrees>40.55280080996453762054443359375</LatitudeDegrees>
              <LongitudeDegrees>-3.68221004493534564971923828125</LongitudeDegrees>
            </Position>
            <AltitudeMeters>742.4000244140625</AltitudeMeters>
            <DistanceMeters>NAN</DistanceMeters>
          </Trackpoint>
          <Trackpoint>
            <Time>2020-03-07T18:27:26.000Z</Time>
            <Position>
              <LatitudeDegrees>40.55282168090343475341796875</LatitudeDegrees>
              <LongitudeDegrees>-3.68215405382215976715087890625</LongitudeDegrees>
            </Position>
            <AltitudeMeters>742.79998779296875</AltitudeMeters>
            <DistanceMeters>NAN</DistanceMeters>
          </Trackpoint>
          <Trackpoint>
            <Time>2020-03-07T18:27:27.000Z</Time>
            <Position>
              <LatitudeDegrees>40.55284473113715648651123046875</LatitudeDegrees>
              <LongitudeDegrees>-3.68209890089929103851318359375</LongitudeDegrees>
            </Position>
            <AltitudeMeters>743.20001220703125</AltitudeMeters>
            <DistanceMeters>NAN</DistanceMeters>
          </Trackpoint>
          <Trackpoint>
            <Time>2020-03-07T18:27:28.000Z</Time>
            <Position>
              <LatitudeDegrees>40.55286719463765621185302734375</LatitudeDegrees>
              <LongitudeDegrees>-3.682043664157390594482421875</LongitudeDegrees>
            </Position>
            <AltitudeMeters>744</AltitudeMeters>
            <DistanceMeters>NAN</DistanceMeters>
          </Trackpoint>
          <Trackpoint>
            <Time>2020-03-07T18:27:29.000Z</Time>
            <Position>
              <LatitudeDegrees>40.5528868921101093292236328125</LatitudeDegrees>
              <LongitudeDegrees>-3.6819911934435367584228515625</LongitudeDegrees>
            </Position>
            <AltitudeMeters>744.20001220703125</AltitudeMeters>
            <DistanceMeters>NAN</DistanceMeters>
          </Trackpoint>
          <Trackpoint>
            <Time>2020-03-07T18:27:30.000Z</Time>
            <Position>
              <LatitudeDegrees>40.55290910415351390838623046875</LatitudeDegrees>
              <LongitudeDegrees>-3.68193713016808032989501953125</LongitudeDegrees>
            </Position>
            <AltitudeMeters>744.20001220703125</AltitudeMeters>
            <DistanceMeters>NAN</DistanceMeters>
          </Trackpoint>
          <Trackpoint>
            <Time>2020-03-07T18:27:31.000Z</Time>
            <Position>
              <LatitudeDegrees>40.55293173529207706451416015625</LatitudeDegrees>
              <LongitudeDegrees>-3.68188415654003620147705078125</LongitudeDegrees>
            </Position>
            <AltitudeMeters>744.4000244140625</AltitudeMeters>
            <DistanceMeters>NAN</DistanceMeters>
          </Trackpoint>
          <Trackpoint>
            <Time>2020-03-07T18:27:32.000Z</Time>
            <Position>
              <LatitudeDegrees>40.55295621044933795928955078125</LatitudeDegrees>
              <LongitudeDegrees>-3.68182606995105743408203125</LongitudeDegrees>
            </Position>
            <AltitudeMeters>744.5999755859375</AltitudeMeters>
            <DistanceMeters>NAN</DistanceMeters>
          </Trackpoint>
          <Trackpoint>
            <Time>2020-03-07T18:27:33.000Z</Time>
            <Position>
              <LatitudeDegrees>40.55298127233982086181640625</LatitudeDegrees>
              <LongitudeDegrees>-3.68177016265690326690673828125</LongitudeDegrees>
            </Position>
            <AltitudeMeters>744.5999755859375</AltitudeMeters>
            <DistanceMeters>NAN</DistanceMeters>
          </Trackpoint>
          <Trackpoint>
            <Time>2020-03-07T18:27:34.000Z</Time>
            <Position>
              <LatitudeDegrees>40.55300516076385974884033203125</LatitudeDegrees>
              <LongitudeDegrees>-3.68171383626759052276611328125</LongitudeDegrees>
            </Position>
            <AltitudeMeters>744.79998779296875</AltitudeMeters>
            <DistanceMeters>NAN</DistanceMeters>
          </Trackpoint>
          <Trackpoint>
            <Time>2020-03-07T18:27:35.000Z</Time>
            <Position>
              <LatitudeDegrees>40.55302745662629604339599609375</LatitudeDegrees>
              <LongitudeDegrees>-3.681657426059246063232421875</LongitudeDegrees>
            </Position>
            <AltitudeMeters>745</AltitudeMeters>
            <DistanceMeters>NAN</DistanceMeters>
          </Trackpoint>
          <Trackpoint>
            <Time>2020-03-07T18:27:36.000Z</Time>
            <Position>
              <LatitudeDegrees>40.5530501715838909149169921875</LatitudeDegrees>
              <LongitudeDegrees>-3.68160084821283817291259765625</LongitudeDegrees>
            </Position>
            <AltitudeMeters>745.4000244140625</AltitudeMeters>
            <DistanceMeters>NAN</DistanceMeters>
          </Trackpoint>
          <Trackpoint>
            <Time>2020-03-07T18:27:37.000Z</Time>
            <Position>
              <LatitudeDegrees>40.553070791065692901611328125</LatitudeDegrees>
              <LongitudeDegrees>-3.68154116906225681304931640625</LongitudeDegrees>
            </Position>
            <AltitudeMeters>745.79998779296875</AltitudeMeters>
            <DistanceMeters>NAN</DistanceMeters>
          </Trackpoint>
          <Trackpoint>
            <Time>2020-03-07T18:27:38.000Z</Time>
            <Position>
              <LatitudeDegrees>40.5530924163758754730224609375</LatitudeDegrees>
              <LongitudeDegrees>-3.6814812384545803070068359375</LongitudeDegrees>
            </Position>
            <AltitudeMeters>746</AltitudeMeters>
            <DistanceMeters>NAN</DistanceMeters>
          </Trackpoint>
          <Trackpoint>
            <Time>2020-03-07T18:27:39.000Z</Time>
            <Position>
              <LatitudeDegrees>40.55311345495283603668212890625</LatitudeDegrees>
              <LongitudeDegrees>-3.68142130784690380096435546875</LongitudeDegrees>
            </Position>
            <AltitudeMeters>746.20001220703125</AltitudeMeters>
            <DistanceMeters>NAN</DistanceMeters>
          </Trackpoint>
          <Trackpoint>
            <Time>2020-03-07T18:27:40.000Z</Time>
            <Position>
              <LatitudeDegrees>40.5531348288059234619140625</LatitudeDegrees>
              <LongitudeDegrees>-3.681361041963100433349609375</LongitudeDegrees>
            </Position>
            <AltitudeMeters>746.4000244140625</AltitudeMeters>
            <DistanceMeters>NAN</DistanceMeters>
          </Trackpoint>
          <Trackpoint>
            <Time>2020-03-07T18:27:41.000Z</Time>
            <Position>
              <LatitudeDegrees>40.55315494537353515625</LatitudeDegrees>
              <LongitudeDegrees>-3.681298010051250457763671875</LongitudeDegrees>
            </Position>
            <AltitudeMeters>746.5999755859375</AltitudeMeters>
            <DistanceMeters>NAN</DistanceMeters>
          </Trackpoint>
          <Trackpoint>
            <Time>2020-03-07T18:27:42.000Z</Time>
            <Position>
              <LatitudeDegrees>40.5531750619411468505859375</LatitudeDegrees>
              <LongitudeDegrees>-3.681237660348415374755859375</LongitudeDegrees>
            </Position>
            <AltitudeMeters>746.79998779296875</AltitudeMeters>
            <DistanceMeters>NAN</DistanceMeters>
          </Trackpoint>
          <Trackpoint>
            <Time>2020-03-07T18:27:43.000Z</Time>
            <Position>
              <LatitudeDegrees>40.5531946755945682525634765625</LatitudeDegrees>
              <LongitudeDegrees>-3.68117605336010456085205078125</LongitudeDegrees>
            </Position>
            <AltitudeMeters>747</AltitudeMeters>
            <DistanceMeters>NAN</DistanceMeters>
          </Trackpoint>
          <Trackpoint>
            <Time>2020-03-07T18:27:44.000Z</Time>
            <Position>
              <LatitudeDegrees>40.55321219377219676971435546875</LatitudeDegrees>
              <LongitudeDegrees>-3.6811134405434131622314453125</LongitudeDegrees>
            </Position>
            <AltitudeMeters>747.20001220703125</AltitudeMeters>
            <DistanceMeters>NAN</DistanceMeters>
          </Trackpoint>
          <Trackpoint>
            <Time>2020-03-07T18:27:45.000Z</Time>
            <Position>
              <LatitudeDegrees>40.5532302148640155792236328125</LatitudeDegrees>
              <LongitudeDegrees>-3.68104764260351657867431640625</LongitudeDegrees>
            </Position>
            <AltitudeMeters>747.4000244140625</AltitudeMeters>
            <DistanceMeters>NAN</DistanceMeters>
          </Trackpoint>
          <Trackpoint>
            <Time>2020-03-07T18:27:46.000Z</Time>
            <Position>
              <LatitudeDegrees>40.5532476492226123809814453125</LatitudeDegrees>
              <LongitudeDegrees>-3.68098259903490543365478515625</LongitudeDegrees>
            </Position>
            <AltitudeMeters>747.5999755859375</AltitudeMeters>
            <DistanceMeters>NAN</DistanceMeters>
          </Trackpoint>
          <Trackpoint>
            <Time>2020-03-07T18:27:47.000Z</Time>
            <Position>
              <LatitudeDegrees>40.55326198227703571319580078125</LatitudeDegrees>
              <LongitudeDegrees>-3.6809186451137065887451171875</LongitudeDegrees>
            </Position>
            <AltitudeMeters>747.79998779296875</AltitudeMeters>
            <DistanceMeters>NAN</DistanceMeters>
          </Trackpoint>
          <Trackpoint>
            <Time>2020-03-07T18:27:48.000Z</Time>
            <Position>
              <LatitudeDegrees>40.55327556096017360687255859375</LatitudeDegrees>
              <LongitudeDegrees>-3.68085720576345920562744140625</LongitudeDegrees>
            </Position>
            <AltitudeMeters>748</AltitudeMeters>
            <DistanceMeters>NAN</DistanceMeters>
          </Trackpoint>
          <Trackpoint>
            <Time>2020-03-07T18:27:49.000Z</Time>
            <Position>
              <LatitudeDegrees>40.5532903969287872314453125</LatitudeDegrees>
              <LongitudeDegrees>-3.6807982809841632843017578125</LongitudeDegrees>
            </Position>
            <AltitudeMeters>748.4000244140625</AltitudeMeters>
            <DistanceMeters>NAN</DistanceMeters>
          </Trackpoint>
          <Trackpoint>
            <Time>2020-03-07T18:27:50.000Z</Time>
            <Position>
              <LatitudeDegrees>40.5533049814403057098388671875</LatitudeDegrees>
              <LongitudeDegrees>-3.68073432706296443939208984375</LongitudeDegrees>
            </Position>
            <AltitudeMeters>748.5999755859375</AltitudeMeters>
            <DistanceMeters>NAN</DistanceMeters>
          </Trackpoint>
          <Trackpoint>
            <Time>2020-03-07T18:27:51.000Z</Time>
            <Position>
              <LatitudeDegrees>40.55331923067569732666015625</LatitudeDegrees>
              <LongitudeDegrees>-3.68067498318850994110107421875</LongitudeDegrees>
            </Position>
            <AltitudeMeters>748.79998779296875</AltitudeMeters>
            <DistanceMeters>NAN</DistanceMeters>
          </Trackpoint>
          <Trackpoint>
            <Time>2020-03-07T18:27:52.000Z</Time>
            <Position>
              <LatitudeDegrees>40.553333647549152374267578125</LatitudeDegrees>
              <LongitudeDegrees>-3.6806138791143894195556640625</LongitudeDegrees>
            </Position>
            <AltitudeMeters>749</AltitudeMeters>
            <DistanceMeters>NAN</DistanceMeters>
          </Trackpoint>
          <Trackpoint>
            <Time>2020-03-07T18:27:53.000Z</Time>
            <Position>
              <LatitudeDegrees>40.55334546603262424468994140625</LatitudeDegrees>
              <LongitudeDegrees>-3.68055042810738086700439453125</LongitudeDegrees>
            </Position>
            <AltitudeMeters>749.20001220703125</AltitudeMeters>
            <DistanceMeters>NAN</DistanceMeters>
          </Trackpoint>
          <Trackpoint>
            <Time>2020-03-07T18:27:54.000Z</Time>
            <Position>
              <LatitudeDegrees>40.55336088873445987701416015625</LatitudeDegrees>
              <LongitudeDegrees>-3.6804894916713237762451171875</LongitudeDegrees>
            </Position>
            <AltitudeMeters>749.20001220703125</AltitudeMeters>
            <DistanceMeters>NAN</DistanceMeters>
          </Trackpoint>
          <Trackpoint>
            <Time>2020-03-07T18:27:55.000Z</Time>
            <Position>
              <LatitudeDegrees>40.55337061174213886260986328125</LatitudeDegrees>
              <LongitudeDegrees>-3.680427968502044677734375</LongitudeDegrees>
            </Position>
            <AltitudeMeters>749.4000244140625</AltitudeMeters>
            <DistanceMeters>NAN</DistanceMeters>
          </Trackpoint>
          <Trackpoint>
            <Time>2020-03-07T18:27:56.000Z</Time>
            <Position>
              <LatitudeDegrees>40.55338117294013500213623046875</LatitudeDegrees>
              <LongitudeDegrees>-3.680363260209560394287109375</LongitudeDegrees>
            </Position>
            <AltitudeMeters>749.5999755859375</AltitudeMeters>
            <DistanceMeters>NAN</DistanceMeters>
          </Trackpoint>
          <Trackpoint>
            <Time>2020-03-07T18:27:57.000Z</Time>
            <Position>
              <LatitudeDegrees>40.5533896386623382568359375</LatitudeDegrees>
              <LongitudeDegrees>-3.68030316196382045745849609375</LongitudeDegrees>
            </Position>
            <AltitudeMeters>750.20001220703125</AltitudeMeters>
            <DistanceMeters>NAN</DistanceMeters>
          </Trackpoint>
          <Trackpoint>
            <Time>2020-03-07T18:27:58.000Z</Time>
            <Position>
              <LatitudeDegrees>40.55339709855616092681884765625</LatitudeDegrees>
              <LongitudeDegrees>-3.68023878894746303558349609375</LongitudeDegrees>
            </Position>
            <AltitudeMeters>750.4000244140625</AltitudeMeters>
            <DistanceMeters>NAN</DistanceMeters>
          </Trackpoint>
          <Trackpoint>
            <Time>2020-03-07T18:27:59.000Z</Time>
            <Position>
              <LatitudeDegrees>40.55340413935482501983642578125</LatitudeDegrees>
              <LongitudeDegrees>-3.68017517030239105224609375</LongitudeDegrees>
            </Position>
            <AltitudeMeters>750.4000244140625</AltitudeMeters>
            <DistanceMeters>NAN</DistanceMeters>
          </Trackpoint>
          <Trackpoint>
            <Time>2020-03-07T18:28:00.000Z</Time>
            <Position>
              <LatitudeDegrees>40.553411431610584259033203125</LatitudeDegrees>
              <LongitudeDegrees>-3.68011415004730224609375</LongitudeDegrees>
            </Position>
            <AltitudeMeters>750.5999755859375</AltitudeMeters>
            <DistanceMeters>NAN</DistanceMeters>
          </Trackpoint>
          <Trackpoint>
            <Time>2020-03-07T18:28:01.000Z</Time>
            <Position>
              <LatitudeDegrees>40.553423501551151275634765625</LatitudeDegrees>
              <LongitudeDegrees>-3.68005690164864063262939453125</LongitudeDegrees>
            </Position>
            <AltitudeMeters>750.5999755859375</AltitudeMeters>
            <DistanceMeters>NAN</DistanceMeters>
          </Trackpoint>
          <Trackpoint>
            <Time>2020-03-07T18:28:02.000Z</Time>
            <Position>
              <LatitudeDegrees>40.55343062616884708404541015625</LatitudeDegrees>
              <LongitudeDegrees>-3.67999856360256671905517578125</LongitudeDegrees>
            </Position>
            <AltitudeMeters>750.79998779296875</AltitudeMeters>
            <DistanceMeters>NAN</DistanceMeters>
          </Trackpoint>
          <Trackpoint>
            <Time>2020-03-07T18:28:03.000Z</Time>
            <Position>
              <LatitudeDegrees>40.5534379184246063232421875</LatitudeDegrees>
              <LongitudeDegrees>-3.67994047701358795166015625</LongitudeDegrees>
            </Position>
            <AltitudeMeters>750.79998779296875</AltitudeMeters>
            <DistanceMeters>NAN</DistanceMeters>
          </Trackpoint>
          <Trackpoint>
            <Time>2020-03-07T18:28:04.000Z</Time>
            <Position>
              <LatitudeDegrees>40.5534444563090801239013671875</LatitudeDegrees>
              <LongitudeDegrees>-3.6798779480159282684326171875</LongitudeDegrees>
            </Position>
            <AltitudeMeters>751</AltitudeMeters>
            <DistanceMeters>NAN</DistanceMeters>
          </Trackpoint>
          <Trackpoint>
            <Time>2020-03-07T18:28:05.000Z</Time>
            <Position>
              <LatitudeDegrees>40.5534518323838710784912109375</LatitudeDegrees>
              <LongitudeDegrees>-3.67981902323663234710693359375</LongitudeDegrees>
            </Position>
            <AltitudeMeters>751</AltitudeMeters>
            <DistanceMeters>NAN</DistanceMeters>
          </Trackpoint>
          <Trackpoint>
            <Time>2020-03-07T18:28:06.000Z</Time>
            <Position>
              <LatitudeDegrees>40.553458370268344879150390625</LatitudeDegrees>
              <LongitudeDegrees>-3.67975951172411441802978515625</LongitudeDegrees>
            </Position>
            <AltitudeMeters>751.20001220703125</AltitudeMeters>
            <DistanceMeters>NAN</DistanceMeters>
          </Trackpoint>
          <Trackpoint>
            <Time>2020-03-07T18:28:07.000Z</Time>
            <Position>
              <LatitudeDegrees>40.553463064134120941162109375</LatitudeDegrees>
              <LongitudeDegrees>-3.6797005869448184967041015625</LongitudeDegrees>
            </Position>
            <AltitudeMeters>751.20001220703125</AltitudeMeters>
            <DistanceMeters>NAN</DistanceMeters>
          </Trackpoint>
          <Trackpoint>
            <Time>2020-03-07T18:28:08.000Z</Time>
            <Position>
              <LatitudeDegrees>40.55346599780023097991943359375</LatitudeDegrees>
              <LongitudeDegrees>-3.679646439850330352783203125</LongitudeDegrees>
            </Position>
            <AltitudeMeters>751.20001220703125</AltitudeMeters>
            <DistanceMeters>NAN</DistanceMeters>
          </Trackpoint>
          <Trackpoint>
            <Time>2020-03-07T18:28:09.000Z</Time>
            <Position>
              <LatitudeDegrees>40.553469769656658172607421875</LatitudeDegrees>
              <LongitudeDegrees>-3.6795943044126033782958984375</LongitudeDegrees>
            </Position>
            <AltitudeMeters>751.20001220703125</AltitudeMeters>
            <DistanceMeters>NAN</DistanceMeters>
          </Trackpoint>
          <Trackpoint>
            <Time>2020-03-07T18:28:10.000Z</Time>
            <Position>
              <LatitudeDegrees>40.55347505025565624237060546875</LatitudeDegrees>
              <LongitudeDegrees>-3.67954074405133724212646484375</LongitudeDegrees>
            </Position>
            <AltitudeMeters>751.4000244140625</AltitudeMeters>
            <DistanceMeters>NAN</DistanceMeters>
          </Trackpoint>
          <Trackpoint>
            <Time>2020-03-07T18:28:11.000Z</Time>
            <Position>
              <LatitudeDegrees>40.55348091758787631988525390625</LatitudeDegrees>
              <LongitudeDegrees>-3.679487518966197967529296875</LongitudeDegrees>
            </Position>
            <AltitudeMeters>751.4000244140625</AltitudeMeters>
            <DistanceMeters>NAN</DistanceMeters>
          </Trackpoint>
          <Trackpoint>
            <Time>2020-03-07T18:28:12.000Z</Time>
            <Position>
              <LatitudeDegrees>40.55348309688270092010498046875</LatitudeDegrees>
              <LongitudeDegrees>-3.6794360540807247161865234375</LongitudeDegrees>
            </Position>
            <AltitudeMeters>751.4000244140625</AltitudeMeters>
            <DistanceMeters>NAN</DistanceMeters>
          </Trackpoint>
          <Trackpoint>
            <Time>2020-03-07T18:28:13.000Z</Time>
            <Position>
              <LatitudeDegrees>40.55348376743495464324951171875</LatitudeDegrees>
              <LongitudeDegrees>-3.67938391864299774169921875</LongitudeDegrees>
            </Position>
            <AltitudeMeters>751.4000244140625</AltitudeMeters>
            <DistanceMeters>NAN</DistanceMeters>
          </Trackpoint>
          <Trackpoint>
            <Time>2020-03-07T18:28:14.000Z</Time>
            <Position>
              <LatitudeDegrees>40.553487204015254974365234375</LatitudeDegrees>
              <LongitudeDegrees>-3.67932952009141445159912109375</LongitudeDegrees>
            </Position>
            <AltitudeMeters>751.4000244140625</AltitudeMeters>
            <DistanceMeters>NAN</DistanceMeters>
          </Trackpoint>
          <Trackpoint>
            <Time>2020-03-07T18:28:15.000Z</Time>
            <Position>
              <LatitudeDegrees>40.55349164642393589019775390625</LatitudeDegrees>
              <LongitudeDegrees>-3.67927386425435543060302734375</LongitudeDegrees>
            </Position>
            <AltitudeMeters>751.4000244140625</AltitudeMeters>
            <DistanceMeters>NAN</DistanceMeters>
          </Trackpoint>
          <Trackpoint>
            <Time>2020-03-07T18:28:16.000Z</Time>
            <Position>
              <LatitudeDegrees>40.5534957535564899444580078125</LatitudeDegrees>
              <LongitudeDegrees>-3.67921720258891582489013671875</LongitudeDegrees>
            </Position>
            <AltitudeMeters>751.4000244140625</AltitudeMeters>
            <DistanceMeters>NAN</DistanceMeters>
          </Trackpoint>
          <Trackpoint>
            <Time>2020-03-07T18:28:17.000Z</Time>
            <Position>
              <LatitudeDegrees>40.55349826812744140625</LatitudeDegrees>
              <LongitudeDegrees>-3.67915903218090534210205078125</LongitudeDegrees>
            </Position>
            <AltitudeMeters>751.4000244140625</AltitudeMeters>
            <DistanceMeters>NAN</DistanceMeters>
          </Trackpoint>
          <Trackpoint>
            <Time>2020-03-07T18:28:18.000Z</Time>
            <Position>
              <LatitudeDegrees>40.5534987710416316986083984375</LatitudeDegrees>
              <LongitudeDegrees>-3.67910069413483142852783203125</LongitudeDegrees>
            </Position>
            <AltitudeMeters>751.5999755859375</AltitudeMeters>
            <DistanceMeters>NAN</DistanceMeters>
          </Trackpoint>
          <Trackpoint>
            <Time>2020-03-07T18:28:19.000Z</Time>
            <Position>
              <LatitudeDegrees>40.55349935777485370635986328125</LatitudeDegrees>
              <LongitudeDegrees>-3.679041601717472076416015625</LongitudeDegrees>
            </Position>
            <AltitudeMeters>751.5999755859375</AltitudeMeters>
            <DistanceMeters>NAN</DistanceMeters>
          </Trackpoint>
          <Trackpoint>
            <Time>2020-03-07T18:28:20.000Z</Time>
            <Position>
              <LatitudeDegrees>40.5535001121461391448974609375</LatitudeDegrees>
              <LongitudeDegrees>-3.67898292839527130126953125</LongitudeDegrees>
            </Position>
            <AltitudeMeters>751.5999755859375</AltitudeMeters>
            <DistanceMeters>NAN</DistanceMeters>
          </Trackpoint>
          <Trackpoint>
            <Time>2020-03-07T18:28:21.000Z</Time>
            <Position>
              <LatitudeDegrees>40.5535004474222660064697265625</LatitudeDegrees>
              <LongitudeDegrees>-3.6789250932633876800537109375</LongitudeDegrees>
            </Position>
            <AltitudeMeters>751.4000244140625</AltitudeMeters>
            <DistanceMeters>NAN</DistanceMeters>
          </Trackpoint>
          <Trackpoint>
            <Time>2020-03-07T18:28:22.000Z</Time>
            <Position>
              <LatitudeDegrees>40.55349759757518768310546875</LatitudeDegrees>
              <LongitudeDegrees>-3.67886700667440891265869140625</LongitudeDegrees>
            </Position>
            <AltitudeMeters>751.4000244140625</AltitudeMeters>
            <DistanceMeters>NAN</DistanceMeters>
          </Trackpoint>
          <Trackpoint>
            <Time>2020-03-07T18:28:23.000Z</Time>
            <Position>
              <LatitudeDegrees>40.55349667556583881378173828125</LatitudeDegrees>
              <LongitudeDegrees>-3.67880883626639842987060546875</LongitudeDegrees>
            </Position>
            <AltitudeMeters>751.4000244140625</AltitudeMeters>
            <DistanceMeters>NAN</DistanceMeters>
          </Trackpoint>
          <Trackpoint>
            <Time>2020-03-07T18:28:24.000Z</Time>
            <Position>
              <LatitudeDegrees>40.55349382571876049041748046875</LatitudeDegrees>
              <LongitudeDegrees>-3.678748570382595062255859375</LongitudeDegrees>
            </Position>
            <AltitudeMeters>751.4000244140625</AltitudeMeters>
            <DistanceMeters>NAN</DistanceMeters>
          </Trackpoint>
          <Trackpoint>
            <Time>2020-03-07T18:28:25.000Z</Time>
            <Position>
              <LatitudeDegrees>40.55349399335682392120361328125</LatitudeDegrees>
              <LongitudeDegrees>-3.67868277244269847869873046875</LongitudeDegrees>
            </Position>
            <AltitudeMeters>751.4000244140625</AltitudeMeters>
            <DistanceMeters>NAN</DistanceMeters>
          </Trackpoint>
          <Trackpoint>
            <Time>2020-03-07T18:28:26.000Z</Time>
            <Position>
              <LatitudeDegrees>40.55349919013679027557373046875</LatitudeDegrees>
              <LongitudeDegrees>-3.67861823178827762603759765625</LongitudeDegrees>
            </Position>
            <AltitudeMeters>751.20001220703125</AltitudeMeters>
            <DistanceMeters>NAN</DistanceMeters>
          </Trackpoint>
          <Trackpoint>
            <Time>2020-03-07T18:28:27.000Z</Time>
            <Position>
              <LatitudeDegrees>40.55350522510707378387451171875</LatitudeDegrees>
              <LongitudeDegrees>-3.678554110229015350341796875</LongitudeDegrees>
            </Position>
            <AltitudeMeters>751.20001220703125</AltitudeMeters>
            <DistanceMeters>NAN</DistanceMeters>
          </Trackpoint>
          <Trackpoint>
            <Time>2020-03-07T18:28:28.000Z</Time>
            <Position>
              <LatitudeDegrees>40.55350773967802524566650390625</LatitudeDegrees>
              <LongitudeDegrees>-3.678485043346881866455078125</LongitudeDegrees>
            </Position>
            <AltitudeMeters>751.20001220703125</AltitudeMeters>
            <DistanceMeters>NAN</DistanceMeters>
          </Trackpoint>
          <Trackpoint>
            <Time>2020-03-07T18:28:29.000Z</Time>
            <Position>
              <LatitudeDegrees>40.553505979478359222412109375</LatitudeDegrees>
              <LongitudeDegrees>-3.67841505445539951324462890625</LongitudeDegrees>
            </Position>
            <AltitudeMeters>751</AltitudeMeters>
            <DistanceMeters>NAN</DistanceMeters>
          </Trackpoint>
          <Trackpoint>
            <Time>2020-03-07T18:28:30.000Z</Time>
            <Position>
              <LatitudeDegrees>40.5535022914409637451171875</LatitudeDegrees>
              <LongitudeDegrees>-3.67834581993520259857177734375</LongitudeDegrees>
            </Position>
            <AltitudeMeters>750.79998779296875</AltitudeMeters>
            <DistanceMeters>NAN</DistanceMeters>
          </Trackpoint>
          <Trackpoint>
            <Time>2020-03-07T18:28:31.000Z</Time>
            <Position>
              <LatitudeDegrees>40.55349667556583881378173828125</LatitudeDegrees>
              <LongitudeDegrees>-3.6782746575772762298583984375</LongitudeDegrees>
            </Position>
            <AltitudeMeters>750.79998779296875</AltitudeMeters>
            <DistanceMeters>NAN</DistanceMeters>
          </Trackpoint>
          <Trackpoint>
            <Time>2020-03-07T18:28:32.000Z</Time>
            <Position>
              <LatitudeDegrees>40.553487874567508697509765625</LatitudeDegrees>
              <LongitudeDegrees>-3.678198046982288360595703125</LongitudeDegrees>
            </Position>
            <AltitudeMeters>750.5999755859375</AltitudeMeters>
            <DistanceMeters>NAN</DistanceMeters>
          </Trackpoint>
          <Trackpoint>
            <Time>2020-03-07T18:28:33.000Z</Time>
            <Position>
              <LatitudeDegrees>40.553479157388210296630859375</LatitudeDegrees>
              <LongitudeDegrees>-3.67811632342636585235595703125</LongitudeDegrees>
            </Position>
            <AltitudeMeters>750.4000244140625</AltitudeMeters>
            <DistanceMeters>NAN</DistanceMeters>
          </Trackpoint>
          <Trackpoint>
            <Time>2020-03-07T18:28:34.000Z</Time>
            <Position>
              <LatitudeDegrees>40.55347018875181674957275390625</LatitudeDegrees>
              <LongitudeDegrees>-3.67803384549915790557861328125</LongitudeDegrees>
            </Position>
            <AltitudeMeters>750.4000244140625</AltitudeMeters>
            <DistanceMeters>NAN</DistanceMeters>
          </Trackpoint>
          <Trackpoint>
            <Time>2020-03-07T18:28:35.000Z</Time>
            <Position>
              <LatitudeDegrees>40.55345778353512287139892578125</LatitudeDegrees>
              <LongitudeDegrees>-3.67794759571552276611328125</LongitudeDegrees>
            </Position>
            <AltitudeMeters>750.20001220703125</AltitudeMeters>
            <DistanceMeters>NAN</DistanceMeters>
          </Trackpoint>
          <Trackpoint>
            <Time>2020-03-07T18:28:36.000Z</Time>
            <Position>
              <LatitudeDegrees>40.5534434504806995391845703125</LatitudeDegrees>
              <LongitudeDegrees>-3.6778557300567626953125</LongitudeDegrees>
            </Position>
            <AltitudeMeters>750</AltitudeMeters>
            <DistanceMeters>NAN</DistanceMeters>
          </Trackpoint>
          <Trackpoint>
            <Time>2020-03-07T18:28:37.000Z</Time>
            <Position>
              <LatitudeDegrees>40.55342811159789562225341796875</LatitudeDegrees>
              <LongitudeDegrees>-3.67776311002671718597412109375</LongitudeDegrees>
            </Position>
            <AltitudeMeters>749.79998779296875</AltitudeMeters>
            <DistanceMeters>NAN</DistanceMeters>
          </Trackpoint>
          <Trackpoint>
            <Time>2020-03-07T18:28:38.000Z</Time>
            <Position>
              <LatitudeDegrees>40.55341118015348911285400390625</LatitudeDegrees>
              <LongitudeDegrees>-3.67767074145376682281494140625</LongitudeDegrees>
            </Position>
            <AltitudeMeters>749.5999755859375</AltitudeMeters>
            <DistanceMeters>NAN</DistanceMeters>
          </Trackpoint>
          <Trackpoint>
            <Time>2020-03-07T18:28:39.000Z</Time>
            <Position>
              <LatitudeDegrees>40.5533921532332897186279296875</LatitudeDegrees>
              <LongitudeDegrees>-3.6775752715766429901123046875</LongitudeDegrees>
            </Position>
            <AltitudeMeters>749.5999755859375</AltitudeMeters>
            <DistanceMeters>NAN</DistanceMeters>
          </Trackpoint>
          <Trackpoint>
            <Time>2020-03-07T18:28:40.000Z</Time>
            <Position>
              <LatitudeDegrees>40.5533730424940586090087890625</LatitudeDegrees>
              <LongitudeDegrees>-3.677480556070804595947265625</LongitudeDegrees>
            </Position>
            <AltitudeMeters>749.20001220703125</AltitudeMeters>
            <DistanceMeters>NAN</DistanceMeters>
          </Trackpoint>
          <Trackpoint>
            <Time>2020-03-07T18:28:41.000Z</Time>
            <Position>
              <LatitudeDegrees>40.55335284210741519927978515625</LatitudeDegrees>
              <LongitudeDegrees>-3.67738642729818820953369140625</LongitudeDegrees>
            </Position>
            <AltitudeMeters>749</AltitudeMeters>
            <DistanceMeters>NAN</DistanceMeters>
          </Trackpoint>
          <Trackpoint>
            <Time>2020-03-07T18:28:42.000Z</Time>
            <Position>
              <LatitudeDegrees>40.55332995951175689697265625</LatitudeDegrees>
              <LongitudeDegrees>-3.677290789783000946044921875</LongitudeDegrees>
            </Position>
            <AltitudeMeters>748.5999755859375</AltitudeMeters>
            <DistanceMeters>NAN</DistanceMeters>
          </Trackpoint>
          <Trackpoint>
            <Time>2020-03-07T18:28:43.000Z</Time>
            <Position>
              <LatitudeDegrees>40.5533049814403057098388671875</LatitudeDegrees>
              <LongitudeDegrees>-3.6771933920681476593017578125</LongitudeDegrees>
            </Position>
            <AltitudeMeters>748.20001220703125</AltitudeMeters>
            <DistanceMeters>NAN</DistanceMeters>
          </Trackpoint>
          <Trackpoint>
            <Time>2020-03-07T18:28:44.000Z</Time>
            <Position>
              <LatitudeDegrees>40.55327899754047393798828125</LatitudeDegrees>
              <LongitudeDegrees>-3.67709490470588207244873046875</LongitudeDegrees>
            </Position>
            <AltitudeMeters>748</AltitudeMeters>
            <DistanceMeters>NAN</DistanceMeters>
          </Trackpoint>
          <Trackpoint>
            <Time>2020-03-07T18:28:45.000Z</Time>
            <Position>
              <LatitudeDegrees>40.55325259454548358917236328125</LatitudeDegrees>
              <LongitudeDegrees>-3.676993735134601593017578125</LongitudeDegrees>
            </Position>
            <AltitudeMeters>747.5999755859375</AltitudeMeters>
            <DistanceMeters>NAN</DistanceMeters>
          </Trackpoint>
          <Trackpoint>
            <Time>2020-03-07T18:28:46.000Z</Time>
            <Position>
              <LatitudeDegrees>40.553226359188556671142578125</LatitudeDegrees>
              <LongitudeDegrees>-3.67689189501106739044189453125</LongitudeDegrees>
            </Position>
            <AltitudeMeters>747.20001220703125</AltitudeMeters>
            <DistanceMeters>NAN</DistanceMeters>
          </Trackpoint>
          <Trackpoint>
            <Time>2020-03-07T18:28:47.000Z</Time>
            <Position>
              <LatitudeDegrees>40.5532000400125980377197265625</LatitudeDegrees>
              <LongitudeDegrees>-3.676787875592708587646484375</LongitudeDegrees>
            </Position>
            <AltitudeMeters>746.79998779296875</AltitudeMeters>
            <DistanceMeters>NAN</DistanceMeters>
          </Trackpoint>
          <Trackpoint>
            <Time>2020-03-07T18:28:48.000Z</Time>
            <Position>
              <LatitudeDegrees>40.55317305028438568115234375</LatitudeDegrees>
              <LongitudeDegrees>-3.67668201215565204620361328125</LongitudeDegrees>
            </Position>
            <AltitudeMeters>746.4000244140625</AltitudeMeters>
            <DistanceMeters>NAN</DistanceMeters>
          </Trackpoint>
          <Trackpoint>
            <Time>2020-03-07T18:28:49.000Z</Time>
            <Position>
              <LatitudeDegrees>40.55314480327069759368896484375</LatitudeDegrees>
              <LongitudeDegrees>-3.6765741370618343353271484375</LongitudeDegrees>
            </Position>
            <AltitudeMeters>746</AltitudeMeters>
            <DistanceMeters>NAN</DistanceMeters>
          </Trackpoint>
          <Trackpoint>
            <Time>2020-03-07T18:28:50.000Z</Time>
            <Position>
              <LatitudeDegrees>40.55311596952378749847412109375</LatitudeDegrees>
              <LongitudeDegrees>-3.67646559141576290130615234375</LongitudeDegrees>
            </Position>
            <AltitudeMeters>745.5999755859375</AltitudeMeters>
            <DistanceMeters>NAN</DistanceMeters>
          </Trackpoint>
          <Trackpoint>
            <Time>2020-03-07T18:28:51.000Z</Time>
            <Position>
              <LatitudeDegrees>40.553088225424289703369140625</LatitudeDegrees>
              <LongitudeDegrees>-3.67635595612227916717529296875</LongitudeDegrees>
            </Position>
            <AltitudeMeters>745.4000244140625</AltitudeMeters>
            <DistanceMeters>NAN</DistanceMeters>
          </Trackpoint>
          <Trackpoint>
            <Time>2020-03-07T18:28:52.000Z</Time>
            <Position>
              <LatitudeDegrees>40.553060062229633331298828125</LatitudeDegrees>
              <LongitudeDegrees>-3.6762438900768756866455078125</LongitudeDegrees>
            </Position>
            <AltitudeMeters>745</AltitudeMeters>
            <DistanceMeters>NAN</DistanceMeters>
          </Trackpoint>
          <Trackpoint>
            <Time>2020-03-07T18:28:53.000Z</Time>
            <Position>
              <LatitudeDegrees>40.55303265340626239776611328125</LatitudeDegrees>
              <LongitudeDegrees>-3.6761329136788845062255859375</LongitudeDegrees>
            </Position>
            <AltitudeMeters>744.4000244140625</AltitudeMeters>
            <DistanceMeters>NAN</DistanceMeters>
          </Trackpoint>
          <Trackpoint>
            <Time>2020-03-07T18:28:54.000Z</Time>
            <Position>
              <LatitudeDegrees>40.55300415493547916412353515625</LatitudeDegrees>
              <LongitudeDegrees>-3.676021434366703033447265625</LongitudeDegrees>
            </Position>
            <AltitudeMeters>743.79998779296875</AltitudeMeters>
            <DistanceMeters>NAN</DistanceMeters>
          </Trackpoint>
          <Trackpoint>
            <Time>2020-03-07T18:28:55.000Z</Time>
            <Position>
              <LatitudeDegrees>40.55297481827437877655029296875</LatitudeDegrees>
              <LongitudeDegrees>-3.675908111035823822021484375</LongitudeDegrees>
            </Position>
            <AltitudeMeters>743.4000244140625</AltitudeMeters>
            <DistanceMeters>NAN</DistanceMeters>
          </Trackpoint>
          <Trackpoint>
            <Time>2020-03-07T18:28:56.000Z</Time>
            <Position>
              <LatitudeDegrees>40.55294447578489780426025390625</LatitudeDegrees>
              <LongitudeDegrees>-3.67579436860978603363037109375</LongitudeDegrees>
            </Position>
            <AltitudeMeters>743.20001220703125</AltitudeMeters>
            <DistanceMeters>NAN</DistanceMeters>
          </Trackpoint>
          <Trackpoint>
            <Time>2020-03-07T18:28:57.000Z</Time>
            <Position>
              <LatitudeDegrees>40.55291446857154369354248046875</LatitudeDegrees>
              <LongitudeDegrees>-3.67567869834601879119873046875</LongitudeDegrees>
            </Position>
            <AltitudeMeters>742.79998779296875</AltitudeMeters>
            <DistanceMeters>NAN</DistanceMeters>
          </Trackpoint>
          <Trackpoint>
            <Time>2020-03-07T18:28:58.000Z</Time>
            <Position>
              <LatitudeDegrees>40.55288395844399929046630859375</LatitudeDegrees>
              <LongitudeDegrees>-3.6755609326064586639404296875</LongitudeDegrees>
            </Position>
            <AltitudeMeters>742.4000244140625</AltitudeMeters>
            <DistanceMeters>NAN</DistanceMeters>
          </Trackpoint>
          <Trackpoint>
            <Time>2020-03-07T18:28:59.000Z</Time>
            <Position>
              <LatitudeDegrees>40.55285311304032802581787109375</LatitudeDegrees>
              <LongitudeDegrees>-3.67544509470462799072265625</LongitudeDegrees>
            </Position>
            <AltitudeMeters>741.79998779296875</AltitudeMeters>
            <DistanceMeters>NAN</DistanceMeters>
          </Trackpoint>
          <Trackpoint>
            <Time>2020-03-07T18:29:00.000Z</Time>
            <Position>
              <LatitudeDegrees>40.5528221838176250457763671875</LatitudeDegrees>
              <LongitudeDegrees>-3.67533084936439990997314453125</LongitudeDegrees>
            </Position>
            <AltitudeMeters>741.20001220703125</AltitudeMeters>
            <DistanceMeters>NAN</DistanceMeters>
          </Trackpoint>
          <Trackpoint>
            <Time>2020-03-07T18:29:01.000Z</Time>
            <Position>
              <LatitudeDegrees>40.55279125459492206573486328125</LatitudeDegrees>
              <LongitudeDegrees>-3.67521417327225208282470703125</LongitudeDegrees>
            </Position>
            <AltitudeMeters>740.5999755859375</AltitudeMeters>
            <DistanceMeters>NAN</DistanceMeters>
          </Trackpoint>
          <Trackpoint>
            <Time>2020-03-07T18:29:02.000Z</Time>
            <Position>
              <LatitudeDegrees>40.5527598224580287933349609375</LatitudeDegrees>
              <LongitudeDegrees>-3.67509800009429454803466796875</LongitudeDegrees>
            </Position>
            <AltitudeMeters>740.20001220703125</AltitudeMeters>
            <DistanceMeters>NAN</DistanceMeters>
          </Trackpoint>
          <Trackpoint>
            <Time>2020-03-07T18:29:03.000Z</Time>
            <Position>
              <LatitudeDegrees>40.55272939614951610565185546875</LatitudeDegrees>
              <LongitudeDegrees>-3.67498316802084445953369140625</LongitudeDegrees>
            </Position>
            <AltitudeMeters>740</AltitudeMeters>
            <DistanceMeters>NAN</DistanceMeters>
          </Trackpoint>
          <Trackpoint>
            <Time>2020-03-07T18:29:04.000Z</Time>
            <Position>
              <LatitudeDegrees>40.55269989185035228729248046875</LatitudeDegrees>
              <LongitudeDegrees>-3.6748695932328701019287109375</LongitudeDegrees>
            </Position>
            <AltitudeMeters>739.79998779296875</AltitudeMeters>
            <DistanceMeters>NAN</DistanceMeters>
          </Trackpoint>
          <Trackpoint>
            <Time>2020-03-07T18:29:05.000Z</Time>
            <Position>
              <LatitudeDegrees>40.55267156101763248443603515625</LatitudeDegrees>
              <LongitudeDegrees>-3.67475735954940319061279296875</LongitudeDegrees>
            </Position>
            <AltitudeMeters>739.4000244140625</AltitudeMeters>
            <DistanceMeters>NAN</DistanceMeters>
          </Trackpoint>
          <Trackpoint>
            <Time>2020-03-07T18:29:06.000Z</Time>
            <Position>
              <LatitudeDegrees>40.552642978727817535400390625</LatitudeDegrees>
              <LongitudeDegrees>-3.67464303039014339447021484375</LongitudeDegrees>
            </Position>
            <AltitudeMeters>738.79998779296875</AltitudeMeters>
            <DistanceMeters>NAN</DistanceMeters>
          </Trackpoint>
          <Trackpoint>
            <Time>2020-03-07T18:29:07.000Z</Time>
            <Position>
              <LatitudeDegrees>40.55261489935219287872314453125</LatitudeDegrees>
              <LongitudeDegrees>-3.67452618665993213653564453125</LongitudeDegrees>
            </Position>
            <AltitudeMeters>738.20001220703125</AltitudeMeters>
            <DistanceMeters>NAN</DistanceMeters>
          </Trackpoint>
          <Trackpoint>
            <Time>2020-03-07T18:29:08.000Z</Time>
            <Position>
              <LatitudeDegrees>40.552586652338504791259765625</LatitudeDegrees>
              <LongitudeDegrees>-3.674410097301006317138671875</LongitudeDegrees>
            </Position>
            <AltitudeMeters>737.5999755859375</AltitudeMeters>
            <DistanceMeters>NAN</DistanceMeters>
          </Trackpoint>
          <Trackpoint>
            <Time>2020-03-07T18:29:09.000Z</Time>
            <Position>
              <LatitudeDegrees>40.55255773477256298065185546875</LatitudeDegrees>
              <LongitudeDegrees>-3.6742942593991756439208984375</LongitudeDegrees>
            </Position>
            <AltitudeMeters>737.20001220703125</AltitudeMeters>
            <DistanceMeters>NAN</DistanceMeters>
          </Trackpoint>
          <Trackpoint>
            <Time>2020-03-07T18:29:10.000Z</Time>
            <Position>
              <LatitudeDegrees>40.55252705700695514678955078125</LatitudeDegrees>
              <LongitudeDegrees>-3.67418169043958187103271484375</LongitudeDegrees>
            </Position>
            <AltitudeMeters>736.5999755859375</AltitudeMeters>
            <DistanceMeters>NAN</DistanceMeters>
          </Trackpoint>
          <Trackpoint>
            <Time>2020-03-07T18:29:11.000Z</Time>
            <Position>
              <LatitudeDegrees>40.552497468888759613037109375</LatitudeDegrees>
              <LongitudeDegrees>-3.674070127308368682861328125</LongitudeDegrees>
            </Position>
            <AltitudeMeters>736.20001220703125</AltitudeMeters>
            <DistanceMeters>NAN</DistanceMeters>
          </Trackpoint>
          <Trackpoint>
            <Time>2020-03-07T18:29:12.000Z</Time>
            <Position>
              <LatitudeDegrees>40.55246955715119838714599609375</LatitudeDegrees>
              <LongitudeDegrees>-3.67395822890102863311767578125</LongitudeDegrees>
            </Position>
            <AltitudeMeters>736</AltitudeMeters>
            <DistanceMeters>NAN</DistanceMeters>
          </Trackpoint>
          <Trackpoint>
            <Time>2020-03-07T18:29:13.000Z</Time>
            <Position>
              <LatitudeDegrees>40.55244072340428829193115234375</LatitudeDegrees>
              <LongitudeDegrees>-3.673845827579498291015625</LongitudeDegrees>
            </Position>
            <AltitudeMeters>735.79998779296875</AltitudeMeters>
            <DistanceMeters>NAN</DistanceMeters>
          </Trackpoint>
          <Trackpoint>
            <Time>2020-03-07T18:29:14.000Z</Time>
            <Position>
              <LatitudeDegrees>40.5524121411144733428955078125</LatitudeDegrees>
              <LongitudeDegrees>-3.67373292334377765655517578125</LongitudeDegrees>
            </Position>
            <AltitudeMeters>735.4000244140625</AltitudeMeters>
            <DistanceMeters>NAN</DistanceMeters>
          </Trackpoint>
          <Trackpoint>
            <Time>2020-03-07T18:29:15.000Z</Time>
            <Position>
              <LatitudeDegrees>40.55238313972949981689453125</LatitudeDegrees>
              <LongitudeDegrees>-3.6736191809177398681640625</LongitudeDegrees>
            </Position>
            <AltitudeMeters>735.20001220703125</AltitudeMeters>
            <DistanceMeters>NAN</DistanceMeters>
          </Trackpoint>
          <Trackpoint>
            <Time>2020-03-07T18:29:16.000Z</Time>
            <Position>
              <LatitudeDegrees>40.55235388688743114471435546875</LatitudeDegrees>
              <LongitudeDegrees>-3.6735070310533046722412109375</LongitudeDegrees>
            </Position>
            <AltitudeMeters>734.79998779296875</AltitudeMeters>
            <DistanceMeters>NAN</DistanceMeters>
          </Trackpoint>
          <Trackpoint>
            <Time>2020-03-07T18:29:17.000Z</Time>
            <Position>
              <LatitudeDegrees>40.55232421495020389556884765625</LatitudeDegrees>
              <LongitudeDegrees>-3.673396222293376922607421875</LongitudeDegrees>
            </Position>
            <AltitudeMeters>734.5999755859375</AltitudeMeters>
            <DistanceMeters>NAN</DistanceMeters>
          </Trackpoint>
          <Trackpoint>
            <Time>2020-03-07T18:29:18.000Z</Time>
            <Position>
              <LatitudeDegrees>40.55229538120329380035400390625</LatitudeDegrees>
              <LongitudeDegrees>-3.6732870899140834808349609375</LongitudeDegrees>
            </Position>
            <AltitudeMeters>734.20001220703125</AltitudeMeters>
            <DistanceMeters>NAN</DistanceMeters>
          </Trackpoint>
          <Trackpoint>
            <Time>2020-03-07T18:29:19.000Z</Time>
            <Position>
              <LatitudeDegrees>40.55226755328476428985595703125</LatitudeDegrees>
              <LongitudeDegrees>-3.6731798015534877777099609375</LongitudeDegrees>
            </Position>
            <AltitudeMeters>734</AltitudeMeters>
            <DistanceMeters>NAN</DistanceMeters>
          </Trackpoint>
          <Trackpoint>
            <Time>2020-03-07T18:29:20.000Z</Time>
            <Position>
              <LatitudeDegrees>40.552239976823329925537109375</LatitudeDegrees>
              <LongitudeDegrees>-3.6730728484690189361572265625</LongitudeDegrees>
            </Position>
            <AltitudeMeters>733.79998779296875</AltitudeMeters>
            <DistanceMeters>NAN</DistanceMeters>
          </Trackpoint>
          <Trackpoint>
            <Time>2020-03-07T18:29:21.000Z</Time>
            <Position>
              <LatitudeDegrees>40.55221080780029296875</LatitudeDegrees>
              <LongitudeDegrees>-3.6729669012129306793212890625</LongitudeDegrees>
            </Position>
            <AltitudeMeters>733.5999755859375</AltitudeMeters>
            <DistanceMeters>NAN</DistanceMeters>
          </Trackpoint>
          <Trackpoint>
            <Time>2020-03-07T18:29:22.000Z</Time>
            <Position>
              <LatitudeDegrees>40.55218063294887542724609375</LatitudeDegrees>
              <LongitudeDegrees>-3.67286338470876216888427734375</LongitudeDegrees>
            </Position>
            <AltitudeMeters>733.20001220703125</AltitudeMeters>
            <DistanceMeters>NAN</DistanceMeters>
          </Trackpoint>
          <Trackpoint>
            <Time>2020-03-07T18:29:23.000Z</Time>
            <Position>
              <LatitudeDegrees>40.55215087719261646270751953125</LatitudeDegrees>
              <LongitudeDegrees>-3.67276079021394252777099609375</LongitudeDegrees>
            </Position>
            <AltitudeMeters>733</AltitudeMeters>
            <DistanceMeters>NAN</DistanceMeters>
          </Trackpoint>
          <Trackpoint>
            <Time>2020-03-07T18:29:24.000Z</Time>
            <Position>
              <LatitudeDegrees>40.5521231330931186676025390625</LatitudeDegrees>
              <LongitudeDegrees>-3.67265827953815460205078125</LongitudeDegrees>
            </Position>
            <AltitudeMeters>733</AltitudeMeters>
            <DistanceMeters>NAN</DistanceMeters>
          </Trackpoint>
          <Trackpoint>
            <Time>2020-03-07T18:29:25.000Z</Time>
            <Position>
              <LatitudeDegrees>40.55209689773619174957275390625</LatitudeDegrees>
              <LongitudeDegrees>-3.6725551821291446685791015625</LongitudeDegrees>
            </Position>
            <AltitudeMeters>732.79998779296875</AltitudeMeters>
            <DistanceMeters>NAN</DistanceMeters>
          </Trackpoint>
          <Trackpoint>
            <Time>2020-03-07T18:29:26.000Z</Time>
            <Position>
              <LatitudeDegrees>40.55206806398928165435791015625</LatitudeDegrees>
              <LongitudeDegrees>-3.67244848050177097320556640625</LongitudeDegrees>
            </Position>
            <AltitudeMeters>732.4000244140625</AltitudeMeters>
            <DistanceMeters>NAN</DistanceMeters>
          </Trackpoint>
          <Trackpoint>
            <Time>2020-03-07T18:29:27.000Z</Time>
            <Position>
              <LatitudeDegrees>40.55204124189913272857666015625</LatitudeDegrees>
              <LongitudeDegrees>-3.6723503284156322479248046875</LongitudeDegrees>
            </Position>
            <AltitudeMeters>732.4000244140625</AltitudeMeters>
            <DistanceMeters>NAN</DistanceMeters>
          </Trackpoint>
          <Trackpoint>
            <Time>2020-03-07T18:29:28.000Z</Time>
            <Position>
              <LatitudeDegrees>40.5520145036280155181884765625</LatitudeDegrees>
              <LongitudeDegrees>-3.67225351743400096893310546875</LongitudeDegrees>
            </Position>
            <AltitudeMeters>732.20001220703125</AltitudeMeters>
            <DistanceMeters>NAN</DistanceMeters>
          </Trackpoint>
          <Trackpoint>
            <Time>2020-03-07T18:29:29.000Z</Time>
            <Position>
              <LatitudeDegrees>40.5519896931946277618408203125</LatitudeDegrees>
              <LongitudeDegrees>-3.67215796373784542083740234375</LongitudeDegrees>
            </Position>
            <AltitudeMeters>732.20001220703125</AltitudeMeters>
            <DistanceMeters>NAN</DistanceMeters>
          </Trackpoint>
          <Trackpoint>
            <Time>2020-03-07T18:29:30.000Z</Time>
            <Position>
              <LatitudeDegrees>40.55196446366608142852783203125</LatitudeDegrees>
              <LongitudeDegrees>-3.67206173948943614959716796875</LongitudeDegrees>
            </Position>
            <AltitudeMeters>732.20001220703125</AltitudeMeters>
            <DistanceMeters>NAN</DistanceMeters>
          </Trackpoint>
          <Trackpoint>
            <Time>2020-03-07T18:29:31.000Z</Time>
            <Position>
              <LatitudeDegrees>40.55194032378494739532470703125</LatitudeDegrees>
              <LongitudeDegrees>-3.67196702398359775543212890625</LongitudeDegrees>
            </Position>
            <AltitudeMeters>732.20001220703125</AltitudeMeters>
            <DistanceMeters>NAN</DistanceMeters>
          </Trackpoint>
          <Trackpoint>
            <Time>2020-03-07T18:29:32.000Z</Time>
            <Position>
              <LatitudeDegrees>40.55191685445606708526611328125</LatitudeDegrees>
              <LongitudeDegrees>-3.67187415249645709991455078125</LongitudeDegrees>
            </Position>
            <AltitudeMeters>732</AltitudeMeters>
            <DistanceMeters>NAN</DistanceMeters>
          </Trackpoint>
          <Trackpoint>
            <Time>2020-03-07T18:29:33.000Z</Time>
            <Position>
              <LatitudeDegrees>40.55189321748912334442138671875</LatitudeDegrees>
              <LongitudeDegrees>-3.671777509152889251708984375</LongitudeDegrees>
            </Position>
            <AltitudeMeters>732</AltitudeMeters>
            <DistanceMeters>NAN</DistanceMeters>
          </Trackpoint>
          <Trackpoint>
            <Time>2020-03-07T18:29:34.000Z</Time>
            <Position>
              <LatitudeDegrees>40.551871173083782196044921875</LatitudeDegrees>
              <LongitudeDegrees>-3.6716854758560657501220703125</LongitudeDegrees>
            </Position>
            <AltitudeMeters>732</AltitudeMeters>
            <DistanceMeters>NAN</DistanceMeters>
          </Trackpoint>
          <Trackpoint>
            <Time>2020-03-07T18:29:35.000Z</Time>
            <Position>
              <LatitudeDegrees>40.55184761993587017059326171875</LatitudeDegrees>
              <LongitudeDegrees>-3.6715941131114959716796875</LongitudeDegrees>
            </Position>
            <AltitudeMeters>731.79998779296875</AltitudeMeters>
            <DistanceMeters>NAN</DistanceMeters>
          </Trackpoint>
          <Trackpoint>
            <Time>2020-03-07T18:29:36.000Z</Time>
            <Position>
              <LatitudeDegrees>40.55182398296892642974853515625</LatitudeDegrees>
              <LongitudeDegrees>-3.67150417529046535491943359375</LongitudeDegrees>
            </Position>
            <AltitudeMeters>731.79998779296875</AltitudeMeters>
            <DistanceMeters>NAN</DistanceMeters>
          </Trackpoint>
          <Trackpoint>
            <Time>2020-03-07T18:29:37.000Z</Time>
            <Position>
              <LatitudeDegrees>40.5518005974590778350830078125</LatitudeDegrees>
              <LongitudeDegrees>-3.67141281254589557647705078125</LongitudeDegrees>
            </Position>
            <AltitudeMeters>731.5999755859375</AltitudeMeters>
            <DistanceMeters>NAN</DistanceMeters>
          </Trackpoint>
          <Trackpoint>
            <Time>2020-03-07T18:29:38.000Z</Time>
            <Position>
              <LatitudeDegrees>40.55177670903503894805908203125</LatitudeDegrees>
              <LongitudeDegrees>-3.6713200248777866363525390625</LongitudeDegrees>
            </Position>
            <AltitudeMeters>731.5999755859375</AltitudeMeters>
            <DistanceMeters>NAN</DistanceMeters>
          </Trackpoint>
          <Trackpoint>
            <Time>2020-03-07T18:29:39.000Z</Time>
            <Position>
              <LatitudeDegrees>40.55175189860165119171142578125</LatitudeDegrees>
              <LongitudeDegrees>-3.67122924886643886566162109375</LongitudeDegrees>
            </Position>
            <AltitudeMeters>731.5999755859375</AltitudeMeters>
            <DistanceMeters>NAN</DistanceMeters>
          </Trackpoint>
          <Trackpoint>
            <Time>2020-03-07T18:29:40.000Z</Time>
            <Position>
              <LatitudeDegrees>40.55172742344439029693603515625</LatitudeDegrees>
              <LongitudeDegrees>-3.67113872431218624114990234375</LongitudeDegrees>
            </Position>
            <AltitudeMeters>731.5999755859375</AltitudeMeters>
            <DistanceMeters>NAN</DistanceMeters>
          </Trackpoint>
          <Trackpoint>
            <Time>2020-03-07T18:29:41.000Z</Time>
            <Position>
              <LatitudeDegrees>40.55170361883938312530517578125</LatitudeDegrees>
              <LongitudeDegrees>-3.67104870267212390899658203125</LongitudeDegrees>
            </Position>
            <AltitudeMeters>731.4000244140625</AltitudeMeters>
            <DistanceMeters>NAN</DistanceMeters>
          </Trackpoint>
          <Trackpoint>
            <Time>2020-03-07T18:29:42.000Z</Time>
            <Position>
              <LatitudeDegrees>40.55168031714856624603271484375</LatitudeDegrees>
              <LongitudeDegrees>-3.67095851339399814605712890625</LongitudeDegrees>
            </Position>
            <AltitudeMeters>731.4000244140625</AltitudeMeters>
            <DistanceMeters>NAN</DistanceMeters>
          </Trackpoint>
          <Trackpoint>
            <Time>2020-03-07T18:29:43.000Z</Time>
            <Position>
              <LatitudeDegrees>40.55165701545774936676025390625</LatitudeDegrees>
              <LongitudeDegrees>-3.67086790502071380615234375</LongitudeDegrees>
            </Position>
            <AltitudeMeters>731.4000244140625</AltitudeMeters>
            <DistanceMeters>NAN</DistanceMeters>
          </Trackpoint>
          <Trackpoint>
            <Time>2020-03-07T18:29:44.000Z</Time>
            <Position>
              <LatitudeDegrees>40.55163346230983734130859375</LatitudeDegrees>
              <LongitudeDegrees>-3.670777715742588043212890625</LongitudeDegrees>
            </Position>
            <AltitudeMeters>731.20001220703125</AltitudeMeters>
            <DistanceMeters>NAN</DistanceMeters>
          </Trackpoint>
          <Trackpoint>
            <Time>2020-03-07T18:29:45.000Z</Time>
            <Position>
              <LatitudeDegrees>40.55160999298095703125</LatitudeDegrees>
              <LongitudeDegrees>-3.67068710736930370330810546875</LongitudeDegrees>
            </Position>
            <AltitudeMeters>731.20001220703125</AltitudeMeters>
            <DistanceMeters>NAN</DistanceMeters>
          </Trackpoint>
          <Trackpoint>
            <Time>2020-03-07T18:29:46.000Z</Time>
            <Position>
              <LatitudeDegrees>40.5515853501856327056884765625</LatitudeDegrees>
              <LongitudeDegrees>-3.67059524171054363250732421875</LongitudeDegrees>
            </Position>
            <AltitudeMeters>731.20001220703125</AltitudeMeters>
            <DistanceMeters>NAN</DistanceMeters>
          </Trackpoint>
          <Trackpoint>
            <Time>2020-03-07T18:29:47.000Z</Time>
            <Position>
              <LatitudeDegrees>40.5515602044761180877685546875</LatitudeDegrees>
              <LongitudeDegrees>-3.6705069802701473236083984375</LongitudeDegrees>
            </Position>
            <AltitudeMeters>731.20001220703125</AltitudeMeters>
            <DistanceMeters>NAN</DistanceMeters>
          </Trackpoint>
          <Trackpoint>
            <Time>2020-03-07T18:29:48.000Z</Time>
            <Position>
              <LatitudeDegrees>40.5515347234904766082763671875</LatitudeDegrees>
              <LongitudeDegrees>-3.67041855119168758392333984375</LongitudeDegrees>
            </Position>
            <AltitudeMeters>731.20001220703125</AltitudeMeters>
            <DistanceMeters>NAN</DistanceMeters>
          </Trackpoint>
          <Trackpoint>
            <Time>2020-03-07T18:29:49.000Z</Time>
            <Position>
              <LatitudeDegrees>40.55150915868580341339111328125</LatitudeDegrees>
              <LongitudeDegrees>-3.67033037357032299041748046875</LongitudeDegrees>
            </Position>
            <AltitudeMeters>731.20001220703125</AltitudeMeters>
            <DistanceMeters>NAN</DistanceMeters>
          </Trackpoint>
          <Trackpoint>
            <Time>2020-03-07T18:29:50.000Z</Time>
            <Position>
              <LatitudeDegrees>40.55148267187178134918212890625</LatitudeDegrees>
              <LongitudeDegrees>-3.67024169303476810455322265625</LongitudeDegrees>
            </Position>
            <AltitudeMeters>731.20001220703125</AltitudeMeters>
            <DistanceMeters>NAN</DistanceMeters>
          </Trackpoint>
          <Trackpoint>
            <Time>2020-03-07T18:29:51.000Z</Time>
            <Position>
              <LatitudeDegrees>40.551456771790981292724609375</LatitudeDegrees>
              <LongitudeDegrees>-3.670153431594371795654296875</LongitudeDegrees>
            </Position>
            <AltitudeMeters>731.20001220703125</AltitudeMeters>
            <DistanceMeters>NAN</DistanceMeters>
          </Trackpoint>
          <Trackpoint>
            <Time>2020-03-07T18:29:52.000Z</Time>
            <Position>
              <LatitudeDegrees>40.55143154226243495941162109375</LatitudeDegrees>
              <LongitudeDegrees>-3.67006567306816577911376953125</LongitudeDegrees>
            </Position>
            <AltitudeMeters>731.20001220703125</AltitudeMeters>
            <DistanceMeters>NAN</DistanceMeters>
          </Trackpoint>
          <Trackpoint>
            <Time>2020-03-07T18:29:53.000Z</Time>
            <Position>
              <LatitudeDegrees>40.55140723474323749542236328125</LatitudeDegrees>
              <LongitudeDegrees>-3.66997799836099147796630859375</LongitudeDegrees>
            </Position>
            <AltitudeMeters>731.20001220703125</AltitudeMeters>
            <DistanceMeters>NAN</DistanceMeters>
          </Trackpoint>
          <Trackpoint>
            <Time>2020-03-07T18:29:54.000Z</Time>
            <Position>
              <LatitudeDegrees>40.55138376541435718536376953125</LatitudeDegrees>
              <LongitudeDegrees>-3.669889234006404876708984375</LongitudeDegrees>
            </Position>
            <AltitudeMeters>731.20001220703125</AltitudeMeters>
            <DistanceMeters>NAN</DistanceMeters>
          </Trackpoint>
          <Trackpoint>
            <Time>2020-03-07T18:29:55.000Z</Time>
            <Position>
              <LatitudeDegrees>40.551364235579967498779296875</LatitudeDegrees>
              <LongitudeDegrees>-3.66980214603245258331298828125</LongitudeDegrees>
            </Position>
            <AltitudeMeters>731</AltitudeMeters>
            <DistanceMeters>NAN</DistanceMeters>
          </Trackpoint>
          <Trackpoint>
            <Time>2020-03-07T18:29:56.000Z</Time>
            <Position>
              <LatitudeDegrees>40.55134671740233898162841796875</LatitudeDegrees>
              <LongitudeDegrees>-3.66971363313496112823486328125</LongitudeDegrees>
            </Position>
            <AltitudeMeters>731</AltitudeMeters>
            <DistanceMeters>NAN</DistanceMeters>
          </Trackpoint>
          <Trackpoint>
            <Time>2020-03-07T18:29:57.000Z</Time>
            <Position>
              <LatitudeDegrees>40.55133012123405933380126953125</LatitudeDegrees>
              <LongitudeDegrees>-3.66962260566651821136474609375</LongitudeDegrees>
            </Position>
            <AltitudeMeters>730.79998779296875</AltitudeMeters>
            <DistanceMeters>NAN</DistanceMeters>
          </Trackpoint>
          <Trackpoint>
            <Time>2020-03-07T18:29:58.000Z</Time>
            <Position>
              <LatitudeDegrees>40.55131402797996997833251953125</LatitudeDegrees>
              <LongitudeDegrees>-3.6695289798080921173095703125</LongitudeDegrees>
            </Position>
            <AltitudeMeters>730.79998779296875</AltitudeMeters>
            <DistanceMeters>NAN</DistanceMeters>
          </Trackpoint>
          <Trackpoint>
            <Time>2020-03-07T18:29:59.000Z</Time>
            <Position>
              <LatitudeDegrees>40.55129474960267543792724609375</LatitudeDegrees>
              <LongitudeDegrees>-3.66943635977804660797119140625</LongitudeDegrees>
            </Position>
            <AltitudeMeters>730.79998779296875</AltitudeMeters>
            <DistanceMeters>NAN</DistanceMeters>
          </Trackpoint>
          <Trackpoint>
            <Time>2020-03-07T18:30:00.000Z</Time>
            <Position>
              <LatitudeDegrees>40.55127362720668315887451171875</LatitudeDegrees>
              <LongitudeDegrees>-3.6693439073860645294189453125</LongitudeDegrees>
            </Position>
            <AltitudeMeters>730.79998779296875</AltitudeMeters>
            <DistanceMeters>NAN</DistanceMeters>
          </Trackpoint>
          <Trackpoint>
            <Time>2020-03-07T18:30:01.000Z</Time>
            <Position>
              <LatitudeDegrees>40.5512551032006740570068359375</LatitudeDegrees>
              <LongitudeDegrees>-3.66925053298473358154296875</LongitudeDegrees>
            </Position>
            <AltitudeMeters>730.79998779296875</AltitudeMeters>
            <DistanceMeters>NAN</DistanceMeters>
          </Trackpoint>
          <Trackpoint>
            <Time>2020-03-07T18:30:02.000Z</Time>
            <Position>
              <LatitudeDegrees>40.5512373335659503936767578125</LatitudeDegrees>
              <LongitudeDegrees>-3.669156990945339202880859375</LongitudeDegrees>
            </Position>
            <AltitudeMeters>730.79998779296875</AltitudeMeters>
            <DistanceMeters>NAN</DistanceMeters>
          </Trackpoint>
          <Trackpoint>
            <Time>2020-03-07T18:30:03.000Z</Time>
            <Position>
              <LatitudeDegrees>40.55121906101703643798828125</LatitudeDegrees>
              <LongitudeDegrees>-3.66906302981078624725341796875</LongitudeDegrees>
            </Position>
            <AltitudeMeters>730.5999755859375</AltitudeMeters>
            <DistanceMeters>NAN</DistanceMeters>
          </Trackpoint>
          <Trackpoint>
            <Time>2020-03-07T18:30:04.000Z</Time>
            <Position>
              <LatitudeDegrees>40.55120020173490047454833984375</LatitudeDegrees>
              <LongitudeDegrees>-3.66896714083850383758544921875</LongitudeDegrees>
            </Position>
            <AltitudeMeters>730.5999755859375</AltitudeMeters>
            <DistanceMeters>NAN</DistanceMeters>
          </Trackpoint>
          <Trackpoint>
            <Time>2020-03-07T18:30:05.000Z</Time>
            <Position>
              <LatitudeDegrees>40.55118008516728878021240234375</LatitudeDegrees>
              <LongitudeDegrees>-3.668869324028491973876953125</LongitudeDegrees>
            </Position>
            <AltitudeMeters>730.5999755859375</AltitudeMeters>
            <DistanceMeters>NAN</DistanceMeters>
          </Trackpoint>
          <Trackpoint>
            <Time>2020-03-07T18:30:06.000Z</Time>
            <Position>
              <LatitudeDegrees>40.55115845985710620880126953125</LatitudeDegrees>
              <LongitudeDegrees>-3.668768070638179779052734375</LongitudeDegrees>
            </Position>
            <AltitudeMeters>730.5999755859375</AltitudeMeters>
            <DistanceMeters>NAN</DistanceMeters>
          </Trackpoint>
          <Trackpoint>
            <Time>2020-03-07T18:30:07.000Z</Time>
            <Position>
              <LatitudeDegrees>40.5511374212801456451416015625</LatitudeDegrees>
              <LongitudeDegrees>-3.6686639674007892608642578125</LongitudeDegrees>
            </Position>
            <AltitudeMeters>730.4000244140625</AltitudeMeters>
            <DistanceMeters>NAN</DistanceMeters>
          </Trackpoint>
          <Trackpoint>
            <Time>2020-03-07T18:30:08.000Z</Time>
            <Position>
              <LatitudeDegrees>40.55111671797931194305419921875</LatitudeDegrees>
              <LongitudeDegrees>-3.66855927743017673492431640625</LongitudeDegrees>
            </Position>
            <AltitudeMeters>730.4000244140625</AltitudeMeters>
            <DistanceMeters>NAN</DistanceMeters>
          </Trackpoint>
          <Trackpoint>
            <Time>2020-03-07T18:30:09.000Z</Time>
            <Position>
              <LatitudeDegrees>40.55109458975493907928466796875</LatitudeDegrees>
              <LongitudeDegrees>-3.668453581631183624267578125</LongitudeDegrees>
            </Position>
            <AltitudeMeters>730.20001220703125</AltitudeMeters>
            <DistanceMeters>NAN</DistanceMeters>
          </Trackpoint>
          <Trackpoint>
            <Time>2020-03-07T18:30:10.000Z</Time>
            <Position>
              <LatitudeDegrees>40.5510722100734710693359375</LatitudeDegrees>
              <LongitudeDegrees>-3.66834453307092189788818359375</LongitudeDegrees>
            </Position>
            <AltitudeMeters>730</AltitudeMeters>
            <DistanceMeters>NAN</DistanceMeters>
          </Trackpoint>
          <Trackpoint>
            <Time>2020-03-07T18:30:11.000Z</Time>
            <Position>
              <LatitudeDegrees>40.55104739964008331298828125</LatitudeDegrees>
              <LongitudeDegrees>-3.6682321317493915557861328125</LongitudeDegrees>
            </Position>
            <AltitudeMeters>730</AltitudeMeters>
            <DistanceMeters>NAN</DistanceMeters>
          </Trackpoint>
          <Trackpoint>
            <Time>2020-03-07T18:30:12.000Z</Time>
            <Position>
              <LatitudeDegrees>40.551020242273807525634765625</LatitudeDegrees>
              <LongitudeDegrees>-3.66811855696141719818115234375</LongitudeDegrees>
            </Position>
            <AltitudeMeters>729.79998779296875</AltitudeMeters>
            <DistanceMeters>NAN</DistanceMeters>
          </Trackpoint>
          <Trackpoint>
            <Time>2020-03-07T18:30:13.000Z</Time>
            <Position>
              <LatitudeDegrees>40.5509919114410877227783203125</LatitudeDegrees>
              <LongitudeDegrees>-3.668004311621189117431640625</LongitudeDegrees>
            </Position>
            <AltitudeMeters>729.5999755859375</AltitudeMeters>
            <DistanceMeters>NAN</DistanceMeters>
          </Trackpoint>
          <Trackpoint>
            <Time>2020-03-07T18:30:14.000Z</Time>
            <Position>
              <LatitudeDegrees>40.5509627424180507659912109375</LatitudeDegrees>
              <LongitudeDegrees>-3.6678891442716121673583984375</LongitudeDegrees>
            </Position>
            <AltitudeMeters>729.4000244140625</AltitudeMeters>
            <DistanceMeters>NAN</DistanceMeters>
          </Trackpoint>
          <Trackpoint>
            <Time>2020-03-07T18:30:15.000Z</Time>
            <Position>
              <LatitudeDegrees>40.55093181319534778594970703125</LatitudeDegrees>
              <LongitudeDegrees>-3.6677719652652740478515625</LongitudeDegrees>
            </Position>
            <AltitudeMeters>729</AltitudeMeters>
            <DistanceMeters>NAN</DistanceMeters>
          </Trackpoint>
          <Trackpoint>
            <Time>2020-03-07T18:30:16.000Z</Time>
            <Position>
              <LatitudeDegrees>40.5509010516107082366943359375</LatitudeDegrees>
              <LongitudeDegrees>-3.66765235550701618194580078125</LongitudeDegrees>
            </Position>
            <AltitudeMeters>728.79998779296875</AltitudeMeters>
            <DistanceMeters>NAN</DistanceMeters>
          </Trackpoint>
          <Trackpoint>
            <Time>2020-03-07T18:30:17.000Z</Time>
            <Position>
              <LatitudeDegrees>40.55086894892156124114990234375</LatitudeDegrees>
              <LongitudeDegrees>-3.66752897389233112335205078125</LongitudeDegrees>
            </Position>
            <AltitudeMeters>728.4000244140625</AltitudeMeters>
            <DistanceMeters>NAN</DistanceMeters>
          </Trackpoint>
          <Trackpoint>
            <Time>2020-03-07T18:30:18.000Z</Time>
            <Position>
              <LatitudeDegrees>40.55083558894693851470947265625</LatitudeDegrees>
              <LongitudeDegrees>-3.66740358062088489532470703125</LongitudeDegrees>
            </Position>
            <AltitudeMeters>727.79998779296875</AltitudeMeters>
            <DistanceMeters>NAN</DistanceMeters>
          </Trackpoint>
          <Trackpoint>
            <Time>2020-03-07T18:30:19.000Z</Time>
            <Position>
              <LatitudeDegrees>40.55080172605812549591064453125</LatitudeDegrees>
              <LongitudeDegrees>-3.667278103530406951904296875</LongitudeDegrees>
            </Position>
            <AltitudeMeters>727.4000244140625</AltitudeMeters>
            <DistanceMeters>NAN</DistanceMeters>
          </Trackpoint>
          <Trackpoint>
            <Time>2020-03-07T18:30:20.000Z</Time>
            <Position>
              <LatitudeDegrees>40.5507676117122173309326171875</LatitudeDegrees>
              <LongitudeDegrees>-3.66715111769735813140869140625</LongitudeDegrees>
            </Position>
            <AltitudeMeters>726.5999755859375</AltitudeMeters>
            <DistanceMeters>NAN</DistanceMeters>
          </Trackpoint>
          <Trackpoint>
            <Time>2020-03-07T18:30:21.000Z</Time>
            <Position>
              <LatitudeDegrees>40.5507342517375946044921875</LatitudeDegrees>
              <LongitudeDegrees>-3.66702203638851642608642578125</LongitudeDegrees>
            </Position>
            <AltitudeMeters>726</AltitudeMeters>
            <DistanceMeters>NAN</DistanceMeters>
          </Trackpoint>
          <Trackpoint>
            <Time>2020-03-07T18:30:22.000Z</Time>
            <Position>
              <LatitudeDegrees>40.55070005357265472412109375</LatitudeDegrees>
              <LongitudeDegrees>-3.6668883450329303741455078125</LongitudeDegrees>
            </Position>
            <AltitudeMeters>725.79998779296875</AltitudeMeters>
            <DistanceMeters>NAN</DistanceMeters>
          </Trackpoint>
          <Trackpoint>
            <Time>2020-03-07T18:30:23.000Z</Time>
            <Position>
              <LatitudeDegrees>40.55066426284611225128173828125</LatitudeDegrees>
              <LongitudeDegrees>-3.66675364784896373748779296875</LongitudeDegrees>
            </Position>
            <AltitudeMeters>725.5999755859375</AltitudeMeters>
            <DistanceMeters>NAN</DistanceMeters>
          </Trackpoint>
          <Trackpoint>
            <Time>2020-03-07T18:30:24.000Z</Time>
            <Position>
              <LatitudeDegrees>40.5506281368434429168701171875</LatitudeDegrees>
              <LongitudeDegrees>-3.66661660373210906982421875</LongitudeDegrees>
            </Position>
            <AltitudeMeters>725</AltitudeMeters>
            <DistanceMeters>NAN</DistanceMeters>
          </Trackpoint>
          <Trackpoint>
            <Time>2020-03-07T18:30:25.000Z</Time>
            <Position>
              <LatitudeDegrees>40.55059251375496387481689453125</LatitudeDegrees>
              <LongitudeDegrees>-3.666478134691715240478515625</LongitudeDegrees>
            </Position>
            <AltitudeMeters>724.5999755859375</AltitudeMeters>
            <DistanceMeters>NAN</DistanceMeters>
          </Trackpoint>
          <Trackpoint>
            <Time>2020-03-07T18:30:26.000Z</Time>
            <Position>
              <LatitudeDegrees>40.550555884838104248046875</LatitudeDegrees>
              <LongitudeDegrees>-3.6663368158042430877685546875</LongitudeDegrees>
            </Position>
            <AltitudeMeters>724</AltitudeMeters>
            <DistanceMeters>NAN</DistanceMeters>
          </Trackpoint>
          <Trackpoint>
            <Time>2020-03-07T18:30:27.000Z</Time>
            <Position>
              <LatitudeDegrees>40.55051858536899089813232421875</LatitudeDegrees>
              <LongitudeDegrees>-3.6661959998309612274169921875</LongitudeDegrees>
            </Position>
            <AltitudeMeters>723.4000244140625</AltitudeMeters>
            <DistanceMeters>NAN</DistanceMeters>
          </Trackpoint>
          <Trackpoint>
            <Time>2020-03-07T18:30:28.000Z</Time>
            <Position>
              <LatitudeDegrees>40.55048237554728984832763671875</LatitudeDegrees>
              <LongitudeDegrees>-3.66605577059090137481689453125</LongitudeDegrees>
            </Position>
            <AltitudeMeters>722.79998779296875</AltitudeMeters>
            <DistanceMeters>NAN</DistanceMeters>
          </Trackpoint>
          <Trackpoint>
            <Time>2020-03-07T18:30:29.000Z</Time>
            <Position>
              <LatitudeDegrees>40.5504460819065570831298828125</LatitudeDegrees>
              <LongitudeDegrees>-3.6659150384366512298583984375</LongitudeDegrees>
            </Position>
            <AltitudeMeters>722.20001220703125</AltitudeMeters>
            <DistanceMeters>NAN</DistanceMeters>
          </Trackpoint>
          <Trackpoint>
            <Time>2020-03-07T18:30:30.000Z</Time>
            <Position>
              <LatitudeDegrees>40.55040903389453887939453125</LatitudeDegrees>
              <LongitudeDegrees>-3.6657742224633693695068359375</LongitudeDegrees>
            </Position>
            <AltitudeMeters>721.5999755859375</AltitudeMeters>
            <DistanceMeters>NAN</DistanceMeters>
          </Trackpoint>
          <Trackpoint>
            <Time>2020-03-07T18:30:31.000Z</Time>
            <Position>
              <LatitudeDegrees>40.55037072859704494476318359375</LatitudeDegrees>
              <LongitudeDegrees>-3.66563449613749980926513671875</LongitudeDegrees>
            </Position>
            <AltitudeMeters>721.20001220703125</AltitudeMeters>
            <DistanceMeters>NAN</DistanceMeters>
          </Trackpoint>
          <Trackpoint>
            <Time>2020-03-07T18:30:32.000Z</Time>
            <Position>
              <LatitudeDegrees>40.55033418349921703338623046875</LatitudeDegrees>
              <LongitudeDegrees>-3.6654966138303279876708984375</LongitudeDegrees>
            </Position>
            <AltitudeMeters>720.5999755859375</AltitudeMeters>
            <DistanceMeters>NAN</DistanceMeters>
          </Trackpoint>
          <Trackpoint>
            <Time>2020-03-07T18:30:33.000Z</Time>
            <Position>
              <LatitudeDegrees>40.5502988956868648529052734375</LatitudeDegrees>
              <LongitudeDegrees>-3.665359318256378173828125</LongitudeDegrees>
            </Position>
            <AltitudeMeters>720</AltitudeMeters>
            <DistanceMeters>NAN</DistanceMeters>
          </Trackpoint>
          <Trackpoint>
            <Time>2020-03-07T18:30:34.000Z</Time>
            <Position>
              <LatitudeDegrees>40.55026394315063953399658203125</LatitudeDegrees>
              <LongitudeDegrees>-3.66522059775888919830322265625</LongitudeDegrees>
            </Position>
            <AltitudeMeters>719.4000244140625</AltitudeMeters>
            <DistanceMeters>NAN</DistanceMeters>
          </Trackpoint>
          <Trackpoint>
            <Time>2020-03-07T18:30:35.000Z</Time>
            <Position>
              <LatitudeDegrees>40.55022857151925563812255859375</LatitudeDegrees>
              <LongitudeDegrees>-3.66508162580430507659912109375</LongitudeDegrees>
            </Position>
            <AltitudeMeters>718.79998779296875</AltitudeMeters>
            <DistanceMeters>NAN</DistanceMeters>
          </Trackpoint>
          <Trackpoint>
            <Time>2020-03-07T18:30:36.000Z</Time>
            <Position>
              <LatitudeDegrees>40.550191104412078857421875</LatitudeDegrees>
              <LongitudeDegrees>-3.66494332440197467803955078125</LongitudeDegrees>
            </Position>
            <AltitudeMeters>718.4000244140625</AltitudeMeters>
            <DistanceMeters>NAN</DistanceMeters>
          </Trackpoint>
          <Trackpoint>
            <Time>2020-03-07T18:30:37.000Z</Time>
            <Position>
              <LatitudeDegrees>40.55015313439071178436279296875</LatitudeDegrees>
              <LongitudeDegrees>-3.66480736993253231048583984375</LongitudeDegrees>
            </Position>
            <AltitudeMeters>718</AltitudeMeters>
            <DistanceMeters>NAN</DistanceMeters>
          </Trackpoint>
          <Trackpoint>
            <Time>2020-03-07T18:30:38.000Z</Time>
            <Position>
              <LatitudeDegrees>40.55011407472193241119384765625</LatitudeDegrees>
              <LongitudeDegrees>-3.66467175073921680450439453125</LongitudeDegrees>
            </Position>
            <AltitudeMeters>717.79998779296875</AltitudeMeters>
            <DistanceMeters>NAN</DistanceMeters>
          </Trackpoint>
          <Trackpoint>
            <Time>2020-03-07T18:30:39.000Z</Time>
            <Position>
              <LatitudeDegrees>40.55007250048220157623291015625</LatitudeDegrees>
              <LongitudeDegrees>-3.66453898139297962188720703125</LongitudeDegrees>
            </Position>
            <AltitudeMeters>717.4000244140625</AltitudeMeters>
            <DistanceMeters>NAN</DistanceMeters>
          </Trackpoint>
          <Trackpoint>
            <Time>2020-03-07T18:30:40.000Z</Time>
            <Position>
              <LatitudeDegrees>40.55002640001475811004638671875</LatitudeDegrees>
              <LongitudeDegrees>-3.66441040299832820892333984375</LongitudeDegrees>
            </Position>
            <AltitudeMeters>717</AltitudeMeters>
            <DistanceMeters>NAN</DistanceMeters>
          </Trackpoint>
          <Trackpoint>
            <Time>2020-03-07T18:30:41.000Z</Time>
            <Position>
              <LatitudeDegrees>40.54997459985315799713134765625</LatitudeDegrees>
              <LongitudeDegrees>-3.66428735665977001190185546875</LongitudeDegrees>
            </Position>
            <AltitudeMeters>716.79998779296875</AltitudeMeters>
            <DistanceMeters>NAN</DistanceMeters>
          </Trackpoint>
          <Trackpoint>
            <Time>2020-03-07T18:30:42.000Z</Time>
            <Position>
              <LatitudeDegrees>40.54991684854030609130859375</LatitudeDegrees>
              <LongitudeDegrees>-3.66416581906378269195556640625</LongitudeDegrees>
            </Position>
            <AltitudeMeters>716.5999755859375</AltitudeMeters>
            <DistanceMeters>NAN</DistanceMeters>
          </Trackpoint>
          <Trackpoint>
            <Time>2020-03-07T18:30:43.000Z</Time>
            <Position>
              <LatitudeDegrees>40.5498563311994075775146484375</LatitudeDegrees>
              <LongitudeDegrees>-3.6640472151339054107666015625</LongitudeDegrees>
            </Position>
            <AltitudeMeters>716.5999755859375</AltitudeMeters>
            <DistanceMeters>NAN</DistanceMeters>
          </Trackpoint>
          <Trackpoint>
            <Time>2020-03-07T18:30:44.000Z</Time>
            <Position>
              <LatitudeDegrees>40.5497912876307964324951171875</LatitudeDegrees>
              <LongitudeDegrees>-3.663934729993343353271484375</LongitudeDegrees>
            </Position>
            <AltitudeMeters>716.4000244140625</AltitudeMeters>
            <DistanceMeters>NAN</DistanceMeters>
          </Trackpoint>
          <Trackpoint>
            <Time>2020-03-07T18:30:45.000Z</Time>
            <Position>
              <LatitudeDegrees>40.5497235618531703948974609375</LatitudeDegrees>
              <LongitudeDegrees>-3.66382920183241367340087890625</LongitudeDegrees>
            </Position>
            <AltitudeMeters>716.20001220703125</AltitudeMeters>
            <DistanceMeters>NAN</DistanceMeters>
          </Trackpoint>
          <Trackpoint>
            <Time>2020-03-07T18:30:46.000Z</Time>
            <Position>
              <LatitudeDegrees>40.5496533215045928955078125</LatitudeDegrees>
              <LongitudeDegrees>-3.66373515687882900238037109375</LongitudeDegrees>
            </Position>
            <AltitudeMeters>715.79998779296875</AltitudeMeters>
            <DistanceMeters>NAN</DistanceMeters>
          </Trackpoint>
          <Trackpoint>
            <Time>2020-03-07T18:30:47.000Z</Time>
            <Position>
              <LatitudeDegrees>40.5495857633650302886962890625</LatitudeDegrees>
              <LongitudeDegrees>-3.66365276277065277099609375</LongitudeDegrees>
            </Position>
            <AltitudeMeters>715.4000244140625</AltitudeMeters>
            <DistanceMeters>NAN</DistanceMeters>
          </Trackpoint>
          <Trackpoint>
            <Time>2020-03-07T18:30:48.000Z</Time>
            <Position>
              <LatitudeDegrees>40.5495200492441654205322265625</LatitudeDegrees>
              <LongitudeDegrees>-3.66357942111790180206298828125</LongitudeDegrees>
            </Position>
            <AltitudeMeters>714.79998779296875</AltitudeMeters>
            <DistanceMeters>NAN</DistanceMeters>
          </Trackpoint>
          <Trackpoint>
            <Time>2020-03-07T18:30:49.000Z</Time>
            <Position>
              <LatitudeDegrees>40.54945374839007854461669921875</LatitudeDegrees>
              <LongitudeDegrees>-3.6635126173496246337890625</LongitudeDegrees>
            </Position>
            <AltitudeMeters>714.20001220703125</AltitudeMeters>
            <DistanceMeters>NAN</DistanceMeters>
          </Trackpoint>
          <Trackpoint>
            <Time>2020-03-07T18:30:50.000Z</Time>
            <Position>
              <LatitudeDegrees>40.54938753135502338409423828125</LatitudeDegrees>
              <LongitudeDegrees>-3.66345101036131381988525390625</LongitudeDegrees>
            </Position>
            <AltitudeMeters>713.79998779296875</AltitudeMeters>
            <DistanceMeters>NAN</DistanceMeters>
          </Trackpoint>
          <Trackpoint>
            <Time>2020-03-07T18:30:51.000Z</Time>
            <Position>
              <LatitudeDegrees>40.54932139813899993896484375</LatitudeDegrees>
              <LongitudeDegrees>-3.6633932590484619140625</LongitudeDegrees>
            </Position>
            <AltitudeMeters>713.79998779296875</AltitudeMeters>
            <DistanceMeters>NAN</DistanceMeters>
          </Trackpoint>
          <Trackpoint>
            <Time>2020-03-07T18:30:52.000Z</Time>
            <Position>
              <LatitudeDegrees>40.54925300180912017822265625</LatitudeDegrees>
              <LongitudeDegrees>-3.66333953104913234710693359375</LongitudeDegrees>
            </Position>
            <AltitudeMeters>713.5999755859375</AltitudeMeters>
            <DistanceMeters>NAN</DistanceMeters>
          </Trackpoint>
          <Trackpoint>
            <Time>2020-03-07T18:30:53.000Z</Time>
            <Position>
              <LatitudeDegrees>40.549182593822479248046875</LatitudeDegrees>
              <LongitudeDegrees>-3.663293682038784027099609375</LongitudeDegrees>
            </Position>
            <AltitudeMeters>713.4000244140625</AltitudeMeters>
            <DistanceMeters>NAN</DistanceMeters>
          </Trackpoint>
          <Trackpoint>
            <Time>2020-03-07T18:30:54.000Z</Time>
            <Position>
              <LatitudeDegrees>40.54910891689360141754150390625</LatitudeDegrees>
              <LongitudeDegrees>-3.66327348165214061737060546875</LongitudeDegrees>
            </Position>
            <AltitudeMeters>713.20001220703125</AltitudeMeters>
            <DistanceMeters>NAN</DistanceMeters>
          </Trackpoint>
          <Trackpoint>
            <Time>2020-03-07T18:30:55.000Z</Time>
            <Position>
              <LatitudeDegrees>40.54903213866055011749267578125</LatitudeDegrees>
              <LongitudeDegrees>-3.663280270993709564208984375</LongitudeDegrees>
            </Position>
            <AltitudeMeters>713</AltitudeMeters>
            <DistanceMeters>NAN</DistanceMeters>
          </Trackpoint>
          <Trackpoint>
            <Time>2020-03-07T18:30:56.000Z</Time>
            <Position>
              <LatitudeDegrees>40.54895971901714801788330078125</LatitudeDegrees>
              <LongitudeDegrees>-3.66330667398869991302490234375</LongitudeDegrees>
            </Position>
            <AltitudeMeters>713</AltitudeMeters>
            <DistanceMeters>NAN</DistanceMeters>
          </Trackpoint>
          <Trackpoint>
            <Time>2020-03-07T18:30:57.000Z</Time>
            <Position>
              <LatitudeDegrees>40.54888763464987277984619140625</LatitudeDegrees>
              <LongitudeDegrees>-3.6633354239165782928466796875</LongitudeDegrees>
            </Position>
            <AltitudeMeters>713</AltitudeMeters>
            <DistanceMeters>NAN</DistanceMeters>
          </Trackpoint>
          <Trackpoint>
            <Time>2020-03-07T18:30:58.000Z</Time>
            <Position>
              <LatitudeDegrees>40.5488159693777561187744140625</LatitudeDegrees>
              <LongitudeDegrees>-3.66334590129554271697998046875</LongitudeDegrees>
            </Position>
            <AltitudeMeters>713</AltitudeMeters>
            <DistanceMeters>NAN</DistanceMeters>
          </Trackpoint>
          <Trackpoint>
            <Time>2020-03-07T18:30:59.000Z</Time>
            <Position>
              <LatitudeDegrees>40.5487425439059734344482421875</LatitudeDegrees>
              <LongitudeDegrees>-3.663337267935276031494140625</LongitudeDegrees>
            </Position>
            <AltitudeMeters>713</AltitudeMeters>
            <DistanceMeters>NAN</DistanceMeters>
          </Trackpoint>
          <Trackpoint>
            <Time>2020-03-07T18:31:00.000Z</Time>
            <Position>
              <LatitudeDegrees>40.5486701242625713348388671875</LatitudeDegrees>
              <LongitudeDegrees>-3.66331346333026885986328125</LongitudeDegrees>
            </Position>
            <AltitudeMeters>713</AltitudeMeters>
            <DistanceMeters>NAN</DistanceMeters>
          </Trackpoint>
          <Trackpoint>
            <Time>2020-03-07T18:31:01.000Z</Time>
            <Position>
              <LatitudeDegrees>40.548602901399135589599609375</LatitudeDegrees>
              <LongitudeDegrees>-3.663276247680187225341796875</LongitudeDegrees>
            </Position>
            <AltitudeMeters>713</AltitudeMeters>
            <DistanceMeters>NAN</DistanceMeters>
          </Trackpoint>
          <Trackpoint>
            <Time>2020-03-07T18:31:02.000Z</Time>
            <Position>
              <LatitudeDegrees>40.54854355752468109130859375</LatitudeDegrees>
              <LongitudeDegrees>-3.6632175743579864501953125</LongitudeDegrees>
            </Position>
            <AltitudeMeters>713</AltitudeMeters>
            <DistanceMeters>NAN</DistanceMeters>
          </Trackpoint>
          <Trackpoint>
            <Time>2020-03-07T18:31:03.000Z</Time>
            <Position>
              <LatitudeDegrees>40.5484947748482227325439453125</LatitudeDegrees>
              <LongitudeDegrees>-3.6631359346210956573486328125</LongitudeDegrees>
            </Position>
            <AltitudeMeters>713</AltitudeMeters>
            <DistanceMeters>NAN</DistanceMeters>
          </Trackpoint>
          <Trackpoint>
            <Time>2020-03-07T18:31:04.000Z</Time>
            <Position>
              <LatitudeDegrees>40.548463761806488037109375</LatitudeDegrees>
              <LongitudeDegrees>-3.66303543560206890106201171875</LongitudeDegrees>
            </Position>
            <AltitudeMeters>713</AltitudeMeters>
            <DistanceMeters>NAN</DistanceMeters>
          </Trackpoint>
          <Trackpoint>
            <Time>2020-03-07T18:31:05.000Z</Time>
            <Position>
              <LatitudeDegrees>40.548445992171764373779296875</LatitudeDegrees>
              <LongitudeDegrees>-3.66292932070791721343994140625</LongitudeDegrees>
            </Position>
            <AltitudeMeters>713</AltitudeMeters>
            <DistanceMeters>NAN</DistanceMeters>
          </Trackpoint>
          <Trackpoint>
            <Time>2020-03-07T18:31:06.000Z</Time>
            <Position>
              <LatitudeDegrees>40.548447668552398681640625</LatitudeDegrees>
              <LongitudeDegrees>-3.66281918250024318695068359375</LongitudeDegrees>
            </Position>
            <AltitudeMeters>712.79998779296875</AltitudeMeters>
            <DistanceMeters>NAN</DistanceMeters>
          </Trackpoint>
          <Trackpoint>
            <Time>2020-03-07T18:31:07.000Z</Time>
            <Position>
              <LatitudeDegrees>40.5484669469296932220458984375</LatitudeDegrees>
              <LongitudeDegrees>-3.66271407343447208404541015625</LongitudeDegrees>
            </Position>
            <AltitudeMeters>712.79998779296875</AltitudeMeters>
            <DistanceMeters>NAN</DistanceMeters>
          </Trackpoint>
          <Trackpoint>
            <Time>2020-03-07T18:31:08.000Z</Time>
            <Position>
              <LatitudeDegrees>40.54850592277944087982177734375</LatitudeDegrees>
              <LongitudeDegrees>-3.66261147893965244293212890625</LongitudeDegrees>
            </Position>
            <AltitudeMeters>712.79998779296875</AltitudeMeters>
            <DistanceMeters>NAN</DistanceMeters>
          </Trackpoint>
          <Trackpoint>
            <Time>2020-03-07T18:31:09.000Z</Time>
            <Position>
              <LatitudeDegrees>40.54856208153069019317626953125</LatitudeDegrees>
              <LongitudeDegrees>-3.6625267378985881805419921875</LongitudeDegrees>
            </Position>
            <AltitudeMeters>712.79998779296875</AltitudeMeters>
            <DistanceMeters>NAN</DistanceMeters>
          </Trackpoint>
          <Trackpoint>
            <Time>2020-03-07T18:31:10.000Z</Time>
            <Position>
              <LatitudeDegrees>40.54862930439412593841552734375</LatitudeDegrees>
              <LongitudeDegrees>-3.66246395744383335113525390625</LongitudeDegrees>
            </Position>
            <AltitudeMeters>712.5999755859375</AltitudeMeters>
            <DistanceMeters>NAN</DistanceMeters>
          </Trackpoint>
          <Trackpoint>
            <Time>2020-03-07T18:31:11.000Z</Time>
            <Position>
              <LatitudeDegrees>40.54870474152266979217529296875</LatitudeDegrees>
              <LongitudeDegrees>-3.66242741234600543975830078125</LongitudeDegrees>
            </Position>
            <AltitudeMeters>712.5999755859375</AltitudeMeters>
            <DistanceMeters>NAN</DistanceMeters>
          </Trackpoint>
          <Trackpoint>
            <Time>2020-03-07T18:31:12.000Z</Time>
            <Position>
              <LatitudeDegrees>40.54878219030797481536865234375</LatitudeDegrees>
              <LongitudeDegrees>-3.662414588034152984619140625</LongitudeDegrees>
            </Position>
            <AltitudeMeters>712.4000244140625</AltitudeMeters>
            <DistanceMeters>NAN</DistanceMeters>
          </Trackpoint>
          <Trackpoint>
            <Time>2020-03-07T18:31:13.000Z</Time>
            <Position>
              <LatitudeDegrees>40.54885695688426494598388671875</LatitudeDegrees>
              <LongitudeDegrees>-3.66241760551929473876953125</LongitudeDegrees>
            </Position>
            <AltitudeMeters>712.20001220703125</AltitudeMeters>
            <DistanceMeters>NAN</DistanceMeters>
          </Trackpoint>
          <Trackpoint>
            <Time>2020-03-07T18:31:14.000Z</Time>
            <Position>
              <LatitudeDegrees>40.5489272810518741607666015625</LatitudeDegrees>
              <LongitudeDegrees>-3.6624264903366565704345703125</LongitudeDegrees>
            </Position>
            <AltitudeMeters>712</AltitudeMeters>
            <DistanceMeters>NAN</DistanceMeters>
          </Trackpoint>
          <Trackpoint>
            <Time>2020-03-07T18:31:15.000Z</Time>
            <Position>
              <LatitudeDegrees>40.54899643175303936004638671875</LatitudeDegrees>
              <LongitudeDegrees>-3.66243478842079639434814453125</LongitudeDegrees>
            </Position>
            <AltitudeMeters>712</AltitudeMeters>
            <DistanceMeters>NAN</DistanceMeters>
          </Trackpoint>
          <Trackpoint>
            <Time>2020-03-07T18:31:16.000Z</Time>
            <Position>
              <LatitudeDegrees>40.54906256496906280517578125</LatitudeDegrees>
              <LongitudeDegrees>-3.66244015283882617950439453125</LongitudeDegrees>
            </Position>
            <AltitudeMeters>711.79998779296875</AltitudeMeters>
            <DistanceMeters>NAN</DistanceMeters>
          </Trackpoint>
          <Trackpoint>
            <Time>2020-03-07T18:31:17.000Z</Time>
            <Position>
              <LatitudeDegrees>40.54912484250962734222412109375</LatitudeDegrees>
              <LongitudeDegrees>-3.6624378897249698638916015625</LongitudeDegrees>
            </Position>
            <AltitudeMeters>711.79998779296875</AltitudeMeters>
            <DistanceMeters>NAN</DistanceMeters>
          </Trackpoint>
          <Trackpoint>
            <Time>2020-03-07T18:31:18.000Z</Time>
            <Position>
              <LatitudeDegrees>40.54918485693633556365966796875</LatitudeDegrees>
              <LongitudeDegrees>-3.6624258197844028472900390625</LongitudeDegrees>
            </Position>
            <AltitudeMeters>711.79998779296875</AltitudeMeters>
            <DistanceMeters>NAN</DistanceMeters>
          </Trackpoint>
          <Trackpoint>
            <Time>2020-03-07T18:31:19.000Z</Time>
            <Position>
              <LatitudeDegrees>40.54924252443015575408935546875</LatitudeDegrees>
              <LongitudeDegrees>-3.66240310482680797576904296875</LongitudeDegrees>
            </Position>
            <AltitudeMeters>711.79998779296875</AltitudeMeters>
            <DistanceMeters>NAN</DistanceMeters>
          </Trackpoint>
          <Trackpoint>
            <Time>2020-03-07T18:31:20.000Z</Time>
            <Position>
              <LatitudeDegrees>40.54929985664784908294677734375</LatitudeDegrees>
              <LongitudeDegrees>-3.66237259469926357269287109375</LongitudeDegrees>
            </Position>
            <AltitudeMeters>711.79998779296875</AltitudeMeters>
            <DistanceMeters>NAN</DistanceMeters>
          </Trackpoint>
          <Trackpoint>
            <Time>2020-03-07T18:31:21.000Z</Time>
            <Position>
              <LatitudeDegrees>40.54936624132096767425537109375</LatitudeDegrees>
              <LongitudeDegrees>-3.6623430065810680389404296875</LongitudeDegrees>
            </Position>
            <AltitudeMeters>711.79998779296875</AltitudeMeters>
            <DistanceMeters>NAN</DistanceMeters>
          </Trackpoint>
          <Trackpoint>
            <Time>2020-03-07T18:31:22.000Z</Time>
            <Position>
              <LatitudeDegrees>40.54943430237472057342529296875</LatitudeDegrees>
              <LongitudeDegrees>-3.662320040166378021240234375</LongitudeDegrees>
            </Position>
            <AltitudeMeters>711.79998779296875</AltitudeMeters>
            <DistanceMeters>NAN</DistanceMeters>
          </Trackpoint>
          <Trackpoint>
            <Time>2020-03-07T18:31:23.000Z</Time>
            <Position>
              <LatitudeDegrees>40.549498759210109710693359375</LatitudeDegrees>
              <LongitudeDegrees>-3.66230495274066925048828125</LongitudeDegrees>
            </Position>
            <AltitudeMeters>712</AltitudeMeters>
            <DistanceMeters>NAN</DistanceMeters>
          </Trackpoint>
          <Trackpoint>
            <Time>2020-03-07T18:31:24.000Z</Time>
            <Position>
              <LatitudeDegrees>40.5495656467974185943603515625</LatitudeDegrees>
              <LongitudeDegrees>-3.6622975766658782958984375</LongitudeDegrees>
            </Position>
            <AltitudeMeters>712</AltitudeMeters>
            <DistanceMeters>NAN</DistanceMeters>
          </Trackpoint>
          <Trackpoint>
            <Time>2020-03-07T18:31:25.000Z</Time>
            <Position>
              <LatitudeDegrees>40.54962851107120513916015625</LatitudeDegrees>
              <LongitudeDegrees>-3.6622943915426731109619140625</LongitudeDegrees>
            </Position>
            <AltitudeMeters>712.20001220703125</AltitudeMeters>
            <DistanceMeters>NAN</DistanceMeters>
          </Trackpoint>
          <Trackpoint>
            <Time>2020-03-07T18:31:26.000Z</Time>
            <Position>
              <LatitudeDegrees>40.54967503063380718231201171875</LatitudeDegrees>
              <LongitudeDegrees>-3.66228978149592876434326171875</LongitudeDegrees>
            </Position>
            <AltitudeMeters>712.20001220703125</AltitudeMeters>
            <DistanceMeters>NAN</DistanceMeters>
          </Trackpoint>
          <Trackpoint>
            <Time>2020-03-07T18:31:27.000Z</Time>
            <Position>
              <LatitudeDegrees>40.5497158505022525787353515625</LatitudeDegrees>
              <LongitudeDegrees>-3.66228617727756500244140625</LongitudeDegrees>
            </Position>
            <AltitudeMeters>712.20001220703125</AltitudeMeters>
            <DistanceMeters>NAN</DistanceMeters>
          </Trackpoint>
          <Trackpoint>
            <Time>2020-03-07T18:31:28.000Z</Time>
            <Position>
              <LatitudeDegrees>40.5497751943767070770263671875</LatitudeDegrees>
              <LongitudeDegrees>-3.66228408180177211761474609375</LongitudeDegrees>
            </Position>
            <AltitudeMeters>712.4000244140625</AltitudeMeters>
            <DistanceMeters>NAN</DistanceMeters>
          </Trackpoint>
          <Trackpoint>
            <Time>2020-03-07T18:31:29.000Z</Time>
            <Position>
              <LatitudeDegrees>40.54983529262244701385498046875</LatitudeDegrees>
              <LongitudeDegrees>-3.6622826568782329559326171875</LongitudeDegrees>
            </Position>
            <AltitudeMeters>712.4000244140625</AltitudeMeters>
            <DistanceMeters>NAN</DistanceMeters>
          </Trackpoint>
          <Trackpoint>
            <Time>2020-03-07T18:31:30.000Z</Time>
            <Position>
              <LatitudeDegrees>40.5498734302818775177001953125</LatitudeDegrees>
              <LongitudeDegrees>-3.66227854974567890167236328125</LongitudeDegrees>
            </Position>
            <AltitudeMeters>712.4000244140625</AltitudeMeters>
            <DistanceMeters>NAN</DistanceMeters>
          </Trackpoint>
          <Trackpoint>
            <Time>2020-03-07T18:31:31.000Z</Time>
            <Position>
              <LatitudeDegrees>40.5499314330518245697021484375</LatitudeDegrees>
              <LongitudeDegrees>-3.66227435879409313201904296875</LongitudeDegrees>
            </Position>
            <AltitudeMeters>712.5999755859375</AltitudeMeters>
            <DistanceMeters>NAN</DistanceMeters>
          </Trackpoint>
          <Trackpoint>
            <Time>2020-03-07T18:31:32.000Z</Time>
            <Position>
              <LatitudeDegrees>40.549998320639133453369140625</LatitudeDegrees>
              <LongitudeDegrees>-3.6622725985944271087646484375</LongitudeDegrees>
            </Position>
            <AltitudeMeters>712.79998779296875</AltitudeMeters>
            <DistanceMeters>NAN</DistanceMeters>
          </Trackpoint>
          <Trackpoint>
            <Time>2020-03-07T18:31:33.000Z</Time>
            <Position>
              <LatitudeDegrees>40.55006680078804492950439453125</LatitudeDegrees>
              <LongitudeDegrees>-3.66227150894701480865478515625</LongitudeDegrees>
            </Position>
            <AltitudeMeters>713</AltitudeMeters>
            <DistanceMeters>NAN</DistanceMeters>
          </Trackpoint>
          <Trackpoint>
            <Time>2020-03-07T18:31:34.000Z</Time>
            <Position>
              <LatitudeDegrees>40.5501302517950534820556640625</LatitudeDegrees>
              <LongitudeDegrees>-3.66227209568023681640625</LongitudeDegrees>
            </Position>
            <AltitudeMeters>713.20001220703125</AltitudeMeters>
            <DistanceMeters>NAN</DistanceMeters>
          </Trackpoint>
          <Trackpoint>
            <Time>2020-03-07T18:31:35.000Z</Time>
            <Position>
              <LatitudeDegrees>40.55019001476466655731201171875</LatitudeDegrees>
              <LongitudeDegrees>-3.662269078195095062255859375</LongitudeDegrees>
            </Position>
            <AltitudeMeters>713.20001220703125</AltitudeMeters>
            <DistanceMeters>NAN</DistanceMeters>
          </Trackpoint>
          <Trackpoint>
            <Time>2020-03-07T18:31:36.000Z</Time>
            <Position>
              <LatitudeDegrees>40.5502541363239288330078125</LatitudeDegrees>
              <LongitudeDegrees>-3.66226061247289180755615234375</LongitudeDegrees>
            </Position>
            <AltitudeMeters>713.4000244140625</AltitudeMeters>
            <DistanceMeters>NAN</DistanceMeters>
          </Trackpoint>
          <Trackpoint>
            <Time>2020-03-07T18:31:37.000Z</Time>
            <Position>
              <LatitudeDegrees>40.55032462812960147857666015625</LatitudeDegrees>
              <LongitudeDegrees>-3.66224669851362705230712890625</LongitudeDegrees>
            </Position>
            <AltitudeMeters>713.5999755859375</AltitudeMeters>
            <DistanceMeters>NAN</DistanceMeters>
          </Trackpoint>
          <Trackpoint>
            <Time>2020-03-07T18:31:38.000Z</Time>
            <Position>
              <LatitudeDegrees>40.55039386264979839324951171875</LatitudeDegrees>
              <LongitudeDegrees>-3.6622219718992710113525390625</LongitudeDegrees>
            </Position>
            <AltitudeMeters>713.79998779296875</AltitudeMeters>
            <DistanceMeters>NAN</DistanceMeters>
          </Trackpoint>
          <Trackpoint>
            <Time>2020-03-07T18:31:39.000Z</Time>
            <Position>
              <LatitudeDegrees>40.55045270361006259918212890625</LatitudeDegrees>
              <LongitudeDegrees>-3.6621864326298236846923828125</LongitudeDegrees>
            </Position>
            <AltitudeMeters>714</AltitudeMeters>
            <DistanceMeters>NAN</DistanceMeters>
          </Trackpoint>
          <Trackpoint>
            <Time>2020-03-07T18:31:40.000Z</Time>
            <Position>
              <LatitudeDegrees>40.55051204748451709747314453125</LatitudeDegrees>
              <LongitudeDegrees>-3.6621482111513614654541015625</LongitudeDegrees>
            </Position>
            <AltitudeMeters>714.20001220703125</AltitudeMeters>
            <DistanceMeters>NAN</DistanceMeters>
          </Trackpoint>
          <Trackpoint>
            <Time>2020-03-07T18:31:41.000Z</Time>
            <Position>
              <LatitudeDegrees>40.550566278398036956787109375</LatitudeDegrees>
              <LongitudeDegrees>-3.66212189197540283203125</LongitudeDegrees>
            </Position>
            <AltitudeMeters>714.4000244140625</AltitudeMeters>
            <DistanceMeters>NAN</DistanceMeters>
          </Trackpoint>
          <Trackpoint>
            <Time>2020-03-07T18:31:42.000Z</Time>
            <Position>
              <LatitudeDegrees>40.5506237782537937164306640625</LatitudeDegrees>
              <LongitudeDegrees>-3.6621143482625484466552734375</LongitudeDegrees>
            </Position>
            <AltitudeMeters>714.4000244140625</AltitudeMeters>
            <DistanceMeters>NAN</DistanceMeters>
          </Trackpoint>
          <Trackpoint>
            <Time>2020-03-07T18:31:43.000Z</Time>
            <Position>
              <LatitudeDegrees>40.55067180655896663665771484375</LatitudeDegrees>
              <LongitudeDegrees>-3.662134967744350433349609375</LongitudeDegrees>
            </Position>
            <AltitudeMeters>714.5999755859375</AltitudeMeters>
            <DistanceMeters>NAN</DistanceMeters>
          </Trackpoint>
          <Trackpoint>
            <Time>2020-03-07T18:31:44.000Z</Time>
            <Position>
              <LatitudeDegrees>40.5507243610918521881103515625</LatitudeDegrees>
              <LongitudeDegrees>-3.66216480731964111328125</LongitudeDegrees>
            </Position>
            <AltitudeMeters>714.5999755859375</AltitudeMeters>
            <DistanceMeters>NAN</DistanceMeters>
          </Trackpoint>
          <Trackpoint>
            <Time>2020-03-07T18:31:45.000Z</Time>
            <Position>
              <LatitudeDegrees>40.5507776699960231781005859375</LatitudeDegrees>
              <LongitudeDegrees>-3.6621971614658832550048828125</LongitudeDegrees>
            </Position>
            <AltitudeMeters>714.79998779296875</AltitudeMeters>
            <DistanceMeters>NAN</DistanceMeters>
          </Trackpoint>
          <Trackpoint>
            <Time>2020-03-07T18:31:46.000Z</Time>
            <Position>
              <LatitudeDegrees>40.5508376844227313995361328125</LatitudeDegrees>
              <LongitudeDegrees>-3.6622246541082859039306640625</LongitudeDegrees>
            </Position>
            <AltitudeMeters>714.79998779296875</AltitudeMeters>
            <DistanceMeters>NAN</DistanceMeters>
          </Trackpoint>
          <Trackpoint>
            <Time>2020-03-07T18:31:47.000Z</Time>
            <Position>
              <LatitudeDegrees>40.5508966930210590362548828125</LatitudeDegrees>
              <LongitudeDegrees>-3.66224016062915325164794921875</LongitudeDegrees>
            </Position>
            <AltitudeMeters>715</AltitudeMeters>
            <DistanceMeters>NAN</DistanceMeters>
          </Trackpoint>
          <Trackpoint>
            <Time>2020-03-07T18:31:48.000Z</Time>
            <Position>
              <LatitudeDegrees>40.55095612071454524993896484375</LatitudeDegrees>
              <LongitudeDegrees>-3.662244267761707305908203125</LongitudeDegrees>
            </Position>
            <AltitudeMeters>714.79998779296875</AltitudeMeters>
            <DistanceMeters>NAN</DistanceMeters>
          </Trackpoint>
          <Trackpoint>
            <Time>2020-03-07T18:31:49.000Z</Time>
            <Position>
              <LatitudeDegrees>40.5510170571506023406982421875</LatitudeDegrees>
              <LongitudeDegrees>-3.66224703378975391387939453125</LongitudeDegrees>
            </Position>
            <AltitudeMeters>715</AltitudeMeters>
            <DistanceMeters>NAN</DistanceMeters>
          </Trackpoint>
          <Trackpoint>
            <Time>2020-03-07T18:31:50.000Z</Time>
            <Position>
              <LatitudeDegrees>40.55107346735894680023193359375</LatitudeDegrees>
              <LongitudeDegrees>-3.6622414179146289825439453125</LongitudeDegrees>
            </Position>
            <AltitudeMeters>715</AltitudeMeters>
            <DistanceMeters>NAN</DistanceMeters>
          </Trackpoint>
          <Trackpoint>
            <Time>2020-03-07T18:31:51.000Z</Time>
            <Position>
              <LatitudeDegrees>40.55113431997597217559814453125</LatitudeDegrees>
              <LongitudeDegrees>-3.66223295219242572784423828125</LongitudeDegrees>
            </Position>
            <AltitudeMeters>715</AltitudeMeters>
            <DistanceMeters>NAN</DistanceMeters>
          </Trackpoint>
          <Trackpoint>
            <Time>2020-03-07T18:31:52.000Z</Time>
            <Position>
              <LatitudeDegrees>40.5511947534978389739990234375</LatitudeDegrees>
              <LongitudeDegrees>-3.66222524084150791168212890625</LongitudeDegrees>
            </Position>
            <AltitudeMeters>715</AltitudeMeters>
            <DistanceMeters>NAN</DistanceMeters>
          </Trackpoint>
          <Trackpoint>
            <Time>2020-03-07T18:31:53.000Z</Time>
            <Position>
              <LatitudeDegrees>40.55125535465776920318603515625</LatitudeDegrees>
              <LongitudeDegrees>-3.662213422358036041259765625</LongitudeDegrees>
            </Position>
            <AltitudeMeters>715</AltitudeMeters>
            <DistanceMeters>NAN</DistanceMeters>
          </Trackpoint>
          <Trackpoint>
            <Time>2020-03-07T18:31:54.000Z</Time>
            <Position>
              <LatitudeDegrees>40.5513164587318897247314453125</LatitudeDegrees>
              <LongitudeDegrees>-3.6622035317122936248779296875</LongitudeDegrees>
            </Position>
            <AltitudeMeters>715</AltitudeMeters>
            <DistanceMeters>NAN</DistanceMeters>
          </Trackpoint>
          <Trackpoint>
            <Time>2020-03-07T18:31:55.000Z</Time>
            <Position>
              <LatitudeDegrees>40.551377646625041961669921875</LatitudeDegrees>
              <LongitudeDegrees>-3.66219791583716869354248046875</LongitudeDegrees>
            </Position>
            <AltitudeMeters>715</AltitudeMeters>
            <DistanceMeters>NAN</DistanceMeters>
          </Trackpoint>
          <Trackpoint>
            <Time>2020-03-07T18:31:56.000Z</Time>
            <Position>
              <LatitudeDegrees>40.55144168436527252197265625</LatitudeDegrees>
              <LongitudeDegrees>-3.662191294133663177490234375</LongitudeDegrees>
            </Position>
            <AltitudeMeters>714.79998779296875</AltitudeMeters>
            <DistanceMeters>NAN</DistanceMeters>
          </Trackpoint>
          <Trackpoint>
            <Time>2020-03-07T18:31:57.000Z</Time>
            <Position>
              <LatitudeDegrees>40.55149532854557037353515625</LatitudeDegrees>
              <LongitudeDegrees>-3.66218349896371364593505859375</LongitudeDegrees>
            </Position>
            <AltitudeMeters>714.79998779296875</AltitudeMeters>
            <DistanceMeters>NAN</DistanceMeters>
          </Trackpoint>
          <Trackpoint>
            <Time>2020-03-07T18:31:58.000Z</Time>
            <Position>
              <LatitudeDegrees>40.5515521578490734100341796875</LatitudeDegrees>
              <LongitudeDegrees>-3.662178553640842437744140625</LongitudeDegrees>
            </Position>
            <AltitudeMeters>714.79998779296875</AltitudeMeters>
            <DistanceMeters>NAN</DistanceMeters>
          </Trackpoint>
          <Trackpoint>
            <Time>2020-03-07T18:31:59.000Z</Time>
            <Position>
              <LatitudeDegrees>40.55161275900900363922119140625</LatitudeDegrees>
              <LongitudeDegrees>-3.66217478178441524505615234375</LongitudeDegrees>
            </Position>
            <AltitudeMeters>714.79998779296875</AltitudeMeters>
            <DistanceMeters>NAN</DistanceMeters>
          </Trackpoint>
          <Trackpoint>
            <Time>2020-03-07T18:32:00.000Z</Time>
            <Position>
              <LatitudeDegrees>40.5516649782657623291015625</LatitudeDegrees>
              <LongitudeDegrees>-3.66217830218374729156494140625</LongitudeDegrees>
            </Position>
            <AltitudeMeters>714.79998779296875</AltitudeMeters>
            <DistanceMeters>NAN</DistanceMeters>
          </Trackpoint>
          <Trackpoint>
            <Time>2020-03-07T18:32:01.000Z</Time>
            <Position>
              <LatitudeDegrees>40.5517181195318698883056640625</LatitudeDegrees>
              <LongitudeDegrees>-3.66218249313533306121826171875</LongitudeDegrees>
            </Position>
            <AltitudeMeters>714.79998779296875</AltitudeMeters>
            <DistanceMeters>NAN</DistanceMeters>
          </Trackpoint>
          <Trackpoint>
            <Time>2020-03-07T18:32:02.000Z</Time>
            <Position>
              <LatitudeDegrees>40.5517749488353729248046875</LatitudeDegrees>
              <LongitudeDegrees>-3.66218291223049163818359375</LongitudeDegrees>
            </Position>
            <AltitudeMeters>714.79998779296875</AltitudeMeters>
            <DistanceMeters>NAN</DistanceMeters>
          </Trackpoint>
          <Trackpoint>
            <Time>2020-03-07T18:32:03.000Z</Time>
            <Position>
              <LatitudeDegrees>40.55183554999530315399169921875</LatitudeDegrees>
              <LongitudeDegrees>-3.66217746399343013763427734375</LongitudeDegrees>
            </Position>
            <AltitudeMeters>714.79998779296875</AltitudeMeters>
            <DistanceMeters>NAN</DistanceMeters>
          </Trackpoint>
          <Trackpoint>
            <Time>2020-03-07T18:32:04.000Z</Time>
            <Position>
              <LatitudeDegrees>40.551900006830692291259765625</LatitudeDegrees>
              <LongitudeDegrees>-3.66217092610895633697509765625</LongitudeDegrees>
            </Position>
            <AltitudeMeters>714.79998779296875</AltitudeMeters>
            <DistanceMeters>NAN</DistanceMeters>
          </Trackpoint>
          <Trackpoint>
            <Time>2020-03-07T18:32:05.000Z</Time>
            <Position>
              <LatitudeDegrees>40.55196396075189113616943359375</LatitudeDegrees>
              <LongitudeDegrees>-3.6621666513383388519287109375</LongitudeDegrees>
            </Position>
            <AltitudeMeters>714.79998779296875</AltitudeMeters>
            <DistanceMeters>NAN</DistanceMeters>
          </Trackpoint>
          <Trackpoint>
            <Time>2020-03-07T18:32:06.000Z</Time>
            <Position>
              <LatitudeDegrees>40.55203051306307315826416015625</LatitudeDegrees>
              <LongitudeDegrees>-3.6621659807860851287841796875</LongitudeDegrees>
            </Position>
            <AltitudeMeters>714.79998779296875</AltitudeMeters>
            <DistanceMeters>NAN</DistanceMeters>
          </Trackpoint>
          <Trackpoint>
            <Time>2020-03-07T18:32:07.000Z</Time>
            <Position>
              <LatitudeDegrees>40.55209807120263576507568359375</LatitudeDegrees>
              <LongitudeDegrees>-3.662163130939006805419921875</LongitudeDegrees>
            </Position>
            <AltitudeMeters>714.79998779296875</AltitudeMeters>
            <DistanceMeters>NAN</DistanceMeters>
          </Trackpoint>
          <Trackpoint>
            <Time>2020-03-07T18:32:08.000Z</Time>
            <Position>
              <LatitudeDegrees>40.552163533866405487060546875</LatitudeDegrees>
              <LongitudeDegrees>-3.66216053254902362823486328125</LongitudeDegrees>
            </Position>
            <AltitudeMeters>714.79998779296875</AltitudeMeters>
            <DistanceMeters>NAN</DistanceMeters>
          </Trackpoint>
          <Trackpoint>
            <Time>2020-03-07T18:32:09.000Z</Time>
            <Position>
              <LatitudeDegrees>40.5522282421588897705078125</LatitudeDegrees>
              <LongitudeDegrees>-3.6621581017971038818359375</LongitudeDegrees>
            </Position>
            <AltitudeMeters>714.5999755859375</AltitudeMeters>
            <DistanceMeters>NAN</DistanceMeters>
          </Trackpoint>
          <Trackpoint>
            <Time>2020-03-07T18:32:10.000Z</Time>
            <Position>
              <LatitudeDegrees>40.552290938794612884521484375</LatitudeDegrees>
              <LongitudeDegrees>-3.66215500049293041229248046875</LongitudeDegrees>
            </Position>
            <AltitudeMeters>714.5999755859375</AltitudeMeters>
            <DistanceMeters>NAN</DistanceMeters>
          </Trackpoint>
          <Trackpoint>
            <Time>2020-03-07T18:32:11.000Z</Time>
            <Position>
              <LatitudeDegrees>40.55235053412616252899169921875</LatitudeDegrees>
              <LongitudeDegrees>-3.66215416230261325836181640625</LongitudeDegrees>
            </Position>
            <AltitudeMeters>714.4000244140625</AltitudeMeters>
            <DistanceMeters>NAN</DistanceMeters>
          </Trackpoint>
          <Trackpoint>
            <Time>2020-03-07T18:32:12.000Z</Time>
            <Position>
              <LatitudeDegrees>40.5524084530770778656005859375</LatitudeDegrees>
              <LongitudeDegrees>-3.66215072572231292724609375</LongitudeDegrees>
            </Position>
            <AltitudeMeters>714.4000244140625</AltitudeMeters>
            <DistanceMeters>NAN</DistanceMeters>
          </Trackpoint>
          <Trackpoint>
            <Time>2020-03-07T18:32:13.000Z</Time>
            <Position>
              <LatitudeDegrees>40.55246553383767604827880859375</LatitudeDegrees>
              <LongitudeDegrees>-3.66214058361947536468505859375</LongitudeDegrees>
            </Position>
            <AltitudeMeters>714.20001220703125</AltitudeMeters>
            <DistanceMeters>NAN</DistanceMeters>
          </Trackpoint>
          <Trackpoint>
            <Time>2020-03-07T18:32:14.000Z</Time>
            <Position>
              <LatitudeDegrees>40.5525174178183078765869140625</LatitudeDegrees>
              <LongitudeDegrees>-3.66212658584117889404296875</LongitudeDegrees>
            </Position>
            <AltitudeMeters>714.20001220703125</AltitudeMeters>
            <DistanceMeters>NAN</DistanceMeters>
          </Trackpoint>
          <Trackpoint>
            <Time>2020-03-07T18:32:15.000Z</Time>
            <Position>
              <LatitudeDegrees>40.552563853561878204345703125</LatitudeDegrees>
              <LongitudeDegrees>-3.66210973821580410003662109375</LongitudeDegrees>
            </Position>
            <AltitudeMeters>714.20001220703125</AltitudeMeters>
            <DistanceMeters>NAN</DistanceMeters>
          </Trackpoint>
          <Trackpoint>
            <Time>2020-03-07T18:32:16.000Z</Time>
            <Position>
              <LatitudeDegrees>40.55260769091546535491943359375</LatitudeDegrees>
              <LongitudeDegrees>-3.662081658840179443359375</LongitudeDegrees>
            </Position>
            <AltitudeMeters>714.20001220703125</AltitudeMeters>
            <DistanceMeters>NAN</DistanceMeters>
          </Trackpoint>
          <Trackpoint>
            <Time>2020-03-07T18:32:17.000Z</Time>
            <Position>
              <LatitudeDegrees>40.55265630595386028289794921875</LatitudeDegrees>
              <LongitudeDegrees>-3.66205525584518909454345703125</LongitudeDegrees>
            </Position>
            <AltitudeMeters>714</AltitudeMeters>
            <DistanceMeters>NAN</DistanceMeters>
          </Trackpoint>
          <Trackpoint>
            <Time>2020-03-07T18:32:18.000Z</Time>
            <Position>
              <LatitudeDegrees>40.55271581746637821197509765625</LatitudeDegrees>
              <LongitudeDegrees>-3.66204611957073211669921875</LongitudeDegrees>
            </Position>
            <AltitudeMeters>714</AltitudeMeters>
            <DistanceMeters>NAN</DistanceMeters>
          </Trackpoint>
          <Trackpoint>
            <Time>2020-03-07T18:32:19.000Z</Time>
            <Position>
              <LatitudeDegrees>40.5527531169354915618896484375</LatitudeDegrees>
              <LongitudeDegrees>-3.662053830921649932861328125</LongitudeDegrees>
            </Position>
            <AltitudeMeters>714</AltitudeMeters>
            <DistanceMeters>NAN</DistanceMeters>
          </Trackpoint>
          <Trackpoint>
            <Time>2020-03-07T18:32:20.000Z</Time>
            <Position>
              <LatitudeDegrees>40.55279393680393695831298828125</LatitudeDegrees>
              <LongitudeDegrees>-3.6620764620602130889892578125</LongitudeDegrees>
            </Position>
            <AltitudeMeters>714</AltitudeMeters>
            <DistanceMeters>NAN</DistanceMeters>
          </Trackpoint>
          <Trackpoint>
            <Time>2020-03-07T18:32:21.000Z</Time>
            <Position>
              <LatitudeDegrees>40.552849508821964263916015625</LatitudeDegrees>
              <LongitudeDegrees>-3.6621059663593769073486328125</LongitudeDegrees>
            </Position>
            <AltitudeMeters>714</AltitudeMeters>
            <DistanceMeters>NAN</DistanceMeters>
          </Trackpoint>
          <Trackpoint>
            <Time>2020-03-07T18:32:22.000Z</Time>
            <Position>
              <LatitudeDegrees>40.552906505763530731201171875</LatitudeDegrees>
              <LongitudeDegrees>-3.6621301062405109405517578125</LongitudeDegrees>
            </Position>
            <AltitudeMeters>714</AltitudeMeters>
            <DistanceMeters>NAN</DistanceMeters>
          </Trackpoint>
          <Trackpoint>
            <Time>2020-03-07T18:32:23.000Z</Time>
            <Position>
              <LatitudeDegrees>40.5529666878283023834228515625</LatitudeDegrees>
              <LongitudeDegrees>-3.66214494220912456512451171875</LongitudeDegrees>
            </Position>
            <AltitudeMeters>714</AltitudeMeters>
            <DistanceMeters>NAN</DistanceMeters>
          </Trackpoint>
          <Trackpoint>
            <Time>2020-03-07T18:32:24.000Z</Time>
            <Position>
              <LatitudeDegrees>40.55302821099758148193359375</LatitudeDegrees>
              <LongitudeDegrees>-3.6621515639126300811767578125</LongitudeDegrees>
            </Position>
            <AltitudeMeters>714</AltitudeMeters>
            <DistanceMeters>NAN</DistanceMeters>
          </Trackpoint>
          <Trackpoint>
            <Time>2020-03-07T18:32:25.000Z</Time>
            <Position>
              <LatitudeDegrees>40.553092248737812042236328125</LatitudeDegrees>
              <LongitudeDegrees>-3.66215072572231292724609375</LongitudeDegrees>
            </Position>
            <AltitudeMeters>714</AltitudeMeters>
            <DistanceMeters>NAN</DistanceMeters>
          </Trackpoint>
          <Trackpoint>
            <Time>2020-03-07T18:32:26.000Z</Time>
            <Position>
              <LatitudeDegrees>40.55316190235316753387451171875</LatitudeDegrees>
              <LongitudeDegrees>-3.6621451936662197113037109375</LongitudeDegrees>
            </Position>
            <AltitudeMeters>714</AltitudeMeters>
            <DistanceMeters>NAN</DistanceMeters>
          </Trackpoint>
          <Trackpoint>
            <Time>2020-03-07T18:32:27.000Z</Time>
            <Position>
              <LatitudeDegrees>40.5532325617969036102294921875</LatitudeDegrees>
              <LongitudeDegrees>-3.66213739849627017974853515625</LongitudeDegrees>
            </Position>
            <AltitudeMeters>714</AltitudeMeters>
            <DistanceMeters>NAN</DistanceMeters>
          </Trackpoint>
          <Trackpoint>
            <Time>2020-03-07T18:32:28.000Z</Time>
            <Position>
              <LatitudeDegrees>40.55330447852611541748046875</LatitudeDegrees>
              <LongitudeDegrees>-3.662128932774066925048828125</LongitudeDegrees>
            </Position>
            <AltitudeMeters>714</AltitudeMeters>
            <DistanceMeters>NAN</DistanceMeters>
          </Trackpoint>
          <Trackpoint>
            <Time>2020-03-07T18:32:29.000Z</Time>
            <Position>
              <LatitudeDegrees>40.5533747188746929168701171875</LatitudeDegrees>
              <LongitudeDegrees>-3.66212113760411739349365234375</LongitudeDegrees>
            </Position>
            <AltitudeMeters>714</AltitudeMeters>
            <DistanceMeters>NAN</DistanceMeters>
          </Trackpoint>
          <Trackpoint>
            <Time>2020-03-07T18:32:30.000Z</Time>
            <Position>
              <LatitudeDegrees>40.553443618118762969970703125</LatitudeDegrees>
              <LongitudeDegrees>-3.66211392916738986968994140625</LongitudeDegrees>
            </Position>
            <AltitudeMeters>714</AltitudeMeters>
            <DistanceMeters>NAN</DistanceMeters>
          </Trackpoint>
          <Trackpoint>
            <Time>2020-03-07T18:32:31.000Z</Time>
            <Position>
              <LatitudeDegrees>40.5535101704299449920654296875</LatitudeDegrees>
              <LongitudeDegrees>-3.6621086485683917999267578125</LongitudeDegrees>
            </Position>
            <AltitudeMeters>714</AltitudeMeters>
            <DistanceMeters>NAN</DistanceMeters>
          </Trackpoint>
          <Trackpoint>
            <Time>2020-03-07T18:32:32.000Z</Time>
            <Position>
              <LatitudeDegrees>40.55357345379889011383056640625</LatitudeDegrees>
              <LongitudeDegrees>-3.66210320033133029937744140625</LongitudeDegrees>
            </Position>
            <AltitudeMeters>714</AltitudeMeters>
            <DistanceMeters>NAN</DistanceMeters>
          </Trackpoint>
          <Trackpoint>
            <Time>2020-03-07T18:32:33.000Z</Time>
            <Position>
              <LatitudeDegrees>40.55363531224429607391357421875</LatitudeDegrees>
              <LongitudeDegrees>-3.662098087370395660400390625</LongitudeDegrees>
            </Position>
            <AltitudeMeters>714</AltitudeMeters>
            <DistanceMeters>NAN</DistanceMeters>
          </Trackpoint>
          <Trackpoint>
            <Time>2020-03-07T18:32:34.000Z</Time>
            <Position>
              <LatitudeDegrees>40.55369415320456027984619140625</LatitudeDegrees>
              <LongitudeDegrees>-3.6620935611426830291748046875</LongitudeDegrees>
            </Position>
            <AltitudeMeters>714.20001220703125</AltitudeMeters>
            <DistanceMeters>NAN</DistanceMeters>
          </Trackpoint>
          <Trackpoint>
            <Time>2020-03-07T18:32:35.000Z</Time>
            <Position>
              <LatitudeDegrees>40.55375165306031703948974609375</LatitudeDegrees>
              <LongitudeDegrees>-3.6620878614485263824462890625</LongitudeDegrees>
            </Position>
            <AltitudeMeters>714.20001220703125</AltitudeMeters>
            <DistanceMeters>NAN</DistanceMeters>
          </Trackpoint>
          <Trackpoint>
            <Time>2020-03-07T18:32:36.000Z</Time>
            <Position>
              <LatitudeDegrees>40.5538085661828517913818359375</LatitudeDegrees>
              <LongitudeDegrees>-3.66208258084952831268310546875</LongitudeDegrees>
            </Position>
            <AltitudeMeters>714.20001220703125</AltitudeMeters>
            <DistanceMeters>NAN</DistanceMeters>
          </Trackpoint>
          <Trackpoint>
            <Time>2020-03-07T18:32:37.000Z</Time>
            <Position>
              <LatitudeDegrees>40.55386640131473541259765625</LatitudeDegrees>
              <LongitudeDegrees>-3.66207587532699108123779296875</LongitudeDegrees>
            </Position>
            <AltitudeMeters>714.20001220703125</AltitudeMeters>
            <DistanceMeters>NAN</DistanceMeters>
          </Trackpoint>
          <Trackpoint>
            <Time>2020-03-07T18:32:38.000Z</Time>
            <Position>
              <LatitudeDegrees>40.55392147041857242584228515625</LatitudeDegrees>
              <LongitudeDegrees>-3.66206833161413669586181640625</LongitudeDegrees>
            </Position>
            <AltitudeMeters>714.20001220703125</AltitudeMeters>
            <DistanceMeters>NAN</DistanceMeters>
          </Trackpoint>
          <Trackpoint>
            <Time>2020-03-07T18:32:39.000Z</Time>
            <Position>
              <LatitudeDegrees>40.55397377349436283111572265625</LatitudeDegrees>
              <LongitudeDegrees>-3.66206162609159946441650390625</LongitudeDegrees>
            </Position>
            <AltitudeMeters>714.4000244140625</AltitudeMeters>
            <DistanceMeters>NAN</DistanceMeters>
          </Trackpoint>
          <Trackpoint>
            <Time>2020-03-07T18:32:40.000Z</Time>
            <Position>
              <LatitudeDegrees>40.554021298885345458984375</LatitudeDegrees>
              <LongitudeDegrees>-3.6620615422725677490234375</LongitudeDegrees>
            </Position>
            <AltitudeMeters>714.5999755859375</AltitudeMeters>
            <DistanceMeters>NAN</DistanceMeters>
          </Trackpoint>
          <Trackpoint>
            <Time>2020-03-07T18:32:41.000Z</Time>
            <Position>
              <LatitudeDegrees>40.554074607789516448974609375</LatitudeDegrees>
              <LongitudeDegrees>-3.6620556749403476715087890625</LongitudeDegrees>
            </Position>
            <AltitudeMeters>714.79998779296875</AltitudeMeters>
            <DistanceMeters>NAN</DistanceMeters>
          </Trackpoint>
          <Trackpoint>
            <Time>2020-03-07T18:32:42.000Z</Time>
            <Position>
              <LatitudeDegrees>40.55412967689335346221923828125</LatitudeDegrees>
              <LongitudeDegrees>-3.6620509810745716094970703125</LongitudeDegrees>
            </Position>
            <AltitudeMeters>714.79998779296875</AltitudeMeters>
            <DistanceMeters>NAN</DistanceMeters>
          </Trackpoint>
          <Trackpoint>
            <Time>2020-03-07T18:32:43.000Z</Time>
            <Position>
              <LatitudeDegrees>40.55418692529201507568359375</LatitudeDegrees>
              <LongitudeDegrees>-3.66204804740846157073974609375</LongitudeDegrees>
            </Position>
            <AltitudeMeters>715</AltitudeMeters>
            <DistanceMeters>NAN</DistanceMeters>
          </Trackpoint>
          <Trackpoint>
            <Time>2020-03-07T18:32:44.000Z</Time>
            <Position>
              <LatitudeDegrees>40.554246269166469573974609375</LatitudeDegrees>
              <LongitudeDegrees>-3.66204419173300266265869140625</LongitudeDegrees>
            </Position>
            <AltitudeMeters>715.5999755859375</AltitudeMeters>
            <DistanceMeters>NAN</DistanceMeters>
          </Trackpoint>
          <Trackpoint>
            <Time>2020-03-07T18:32:45.000Z</Time>
            <Position>
              <LatitudeDegrees>40.554303936660289764404296875</LatitudeDegrees>
              <LongitudeDegrees>-3.66204050369560718536376953125</LongitudeDegrees>
            </Position>
            <AltitudeMeters>715.79998779296875</AltitudeMeters>
            <DistanceMeters>NAN</DistanceMeters>
          </Trackpoint>
          <Trackpoint>
            <Time>2020-03-07T18:32:46.000Z</Time>
            <Position>
              <LatitudeDegrees>40.5543604306876659393310546875</LatitudeDegrees>
              <LongitudeDegrees>-3.6620375700294971466064453125</LongitudeDegrees>
            </Position>
            <AltitudeMeters>716</AltitudeMeters>
            <DistanceMeters>NAN</DistanceMeters>
          </Trackpoint>
          <Trackpoint>
            <Time>2020-03-07T18:32:47.000Z</Time>
            <Position>
              <LatitudeDegrees>40.55441491305828094482421875</LatitudeDegrees>
              <LongitudeDegrees>-3.66203463636338710784912109375</LongitudeDegrees>
            </Position>
            <AltitudeMeters>716</AltitudeMeters>
            <DistanceMeters>NAN</DistanceMeters>
          </Trackpoint>
          <Trackpoint>
            <Time>2020-03-07T18:32:48.000Z</Time>
            <Position>
              <LatitudeDegrees>40.5544643662869930267333984375</LatitudeDegrees>
              <LongitudeDegrees>-3.66203279234468936920166015625</LongitudeDegrees>
            </Position>
            <AltitudeMeters>716.4000244140625</AltitudeMeters>
            <DistanceMeters>NAN</DistanceMeters>
          </Trackpoint>
          <Trackpoint>
            <Time>2020-03-07T18:32:49.000Z</Time>
            <Position>
              <LatitudeDegrees>40.55451004765927791595458984375</LatitudeDegrees>
              <LongitudeDegrees>-3.66203363053500652313232421875</LongitudeDegrees>
            </Position>
            <AltitudeMeters>716.5999755859375</AltitudeMeters>
            <DistanceMeters>NAN</DistanceMeters>
          </Trackpoint>
          <Trackpoint>
            <Time>2020-03-07T18:32:50.000Z</Time>
            <Position>
              <LatitudeDegrees>40.55455028079450130462646484375</LatitudeDegrees>
              <LongitudeDegrees>-3.66203530691564083099365234375</LongitudeDegrees>
            </Position>
            <AltitudeMeters>716.79998779296875</AltitudeMeters>
            <DistanceMeters>NAN</DistanceMeters>
          </Trackpoint>
          <Trackpoint>
            <Time>2020-03-07T18:32:51.000Z</Time>
            <Position>
              <LatitudeDegrees>40.55458799935877323150634765625</LatitudeDegrees>
              <LongitudeDegrees>-3.66203673183917999267578125</LongitudeDegrees>
            </Position>
            <AltitudeMeters>717</AltitudeMeters>
            <DistanceMeters>NAN</DistanceMeters>
          </Trackpoint>
          <Trackpoint>
            <Time>2020-03-07T18:32:52.000Z</Time>
            <Position>
              <LatitudeDegrees>40.55462814867496490478515625</LatitudeDegrees>
              <LongitudeDegrees>-3.66203681565821170806884765625</LongitudeDegrees>
            </Position>
            <AltitudeMeters>717.20001220703125</AltitudeMeters>
            <DistanceMeters>NAN</DistanceMeters>
          </Trackpoint>
          <Trackpoint>
            <Time>2020-03-07T18:32:53.000Z</Time>
            <Position>
              <LatitudeDegrees>40.55466460995376110076904296875</LatitudeDegrees>
              <LongitudeDegrees>-3.662033043801784515380859375</LongitudeDegrees>
            </Position>
            <AltitudeMeters>717.4000244140625</AltitudeMeters>
            <DistanceMeters>NAN</DistanceMeters>
          </Trackpoint>
          <Trackpoint>
            <Time>2020-03-07T18:32:54.000Z</Time>
            <Position>
              <LatitudeDegrees>40.5546953715384006500244140625</LatitudeDegrees>
              <LongitudeDegrees>-3.66202876903116703033447265625</LongitudeDegrees>
            </Position>
            <AltitudeMeters>717.5999755859375</AltitudeMeters>
            <DistanceMeters>NAN</DistanceMeters>
          </Trackpoint>
          <Trackpoint>
            <Time>2020-03-07T18:32:55.000Z</Time>
            <Position>
              <LatitudeDegrees>40.5547262169420719146728515625</LatitudeDegrees>
              <LongitudeDegrees>-3.66202105768024921417236328125</LongitudeDegrees>
            </Position>
            <AltitudeMeters>717.79998779296875</AltitudeMeters>
            <DistanceMeters>NAN</DistanceMeters>
          </Trackpoint>
          <Trackpoint>
            <Time>2020-03-07T18:32:56.000Z</Time>
            <Position>
              <LatitudeDegrees>40.55475731380283832550048828125</LatitudeDegrees>
              <LongitudeDegrees>-3.6620107479393482208251953125</LongitudeDegrees>
            </Position>
            <AltitudeMeters>718.20001220703125</AltitudeMeters>
            <DistanceMeters>NAN</DistanceMeters>
          </Trackpoint>
          <Trackpoint>
            <Time>2020-03-07T18:32:57.000Z</Time>
            <Position>
              <LatitudeDegrees>40.55478782393038272857666015625</LatitudeDegrees>
              <LongitudeDegrees>-3.6619953252375125885009765625</LongitudeDegrees>
            </Position>
            <AltitudeMeters>718.4000244140625</AltitudeMeters>
            <DistanceMeters>NAN</DistanceMeters>
          </Trackpoint>
          <Trackpoint>
            <Time>2020-03-07T18:32:58.000Z</Time>
            <Position>
              <LatitudeDegrees>40.55481456220149993896484375</LatitudeDegrees>
              <LongitudeDegrees>-3.66197344847023487091064453125</LongitudeDegrees>
            </Position>
            <AltitudeMeters>718.5999755859375</AltitudeMeters>
            <DistanceMeters>NAN</DistanceMeters>
          </Trackpoint>
          <Trackpoint>
            <Time>2020-03-07T18:32:59.000Z</Time>
            <Position>
              <LatitudeDegrees>40.55484649725258350372314453125</LatitudeDegrees>
              <LongitudeDegrees>-3.66194553673267364501953125</LongitudeDegrees>
            </Position>
            <AltitudeMeters>718.79998779296875</AltitudeMeters>
            <DistanceMeters>NAN</DistanceMeters>
          </Trackpoint>
          <Trackpoint>
            <Time>2020-03-07T18:33:00.000Z</Time>
            <Position>
              <LatitudeDegrees>40.55488203652203083038330078125</LatitudeDegrees>
              <LongitudeDegrees>-3.66190840490162372589111328125</LongitudeDegrees>
            </Position>
            <AltitudeMeters>718.79998779296875</AltitudeMeters>
            <DistanceMeters>NAN</DistanceMeters>
          </Trackpoint>
          <Trackpoint>
            <Time>2020-03-07T18:33:01.000Z</Time>
            <Position>
              <LatitudeDegrees>40.55492361076176166534423828125</LatitudeDegrees>
              <LongitudeDegrees>-3.661872111260890960693359375</LongitudeDegrees>
            </Position>
            <AltitudeMeters>719</AltitudeMeters>
            <DistanceMeters>NAN</DistanceMeters>
          </Trackpoint>
          <Trackpoint>
            <Time>2020-03-07T18:33:02.000Z</Time>
            <Position>
              <LatitudeDegrees>40.55496208369731903076171875</LatitudeDegrees>
              <LongitudeDegrees>-3.6618514917790889739990234375</LongitudeDegrees>
            </Position>
            <AltitudeMeters>719.20001220703125</AltitudeMeters>
            <DistanceMeters>NAN</DistanceMeters>
          </Trackpoint>
          <Trackpoint>
            <Time>2020-03-07T18:33:03.000Z</Time>
            <Position>
              <LatitudeDegrees>40.5550024844706058502197265625</LatitudeDegrees>
              <LongitudeDegrees>-3.66185191087424755096435546875</LongitudeDegrees>
            </Position>
            <AltitudeMeters>719.20001220703125</AltitudeMeters>
            <DistanceMeters>NAN</DistanceMeters>
          </Trackpoint>
          <Trackpoint>
            <Time>2020-03-07T18:33:04.000Z</Time>
            <Position>
              <LatitudeDegrees>40.5550474114716053009033203125</LatitudeDegrees>
              <LongitudeDegrees>-3.661867417395114898681640625</LongitudeDegrees>
            </Position>
            <AltitudeMeters>719.4000244140625</AltitudeMeters>
            <DistanceMeters>NAN</DistanceMeters>
          </Trackpoint>
          <Trackpoint>
            <Time>2020-03-07T18:33:05.000Z</Time>
            <Position>
              <LatitudeDegrees>40.55509024299681186676025390625</LatitudeDegrees>
              <LongitudeDegrees>-3.6618907190859317779541015625</LongitudeDegrees>
            </Position>
            <AltitudeMeters>719.4000244140625</AltitudeMeters>
            <DistanceMeters>NAN</DistanceMeters>
          </Trackpoint>
          <Trackpoint>
            <Time>2020-03-07T18:33:06.000Z</Time>
            <Position>
              <LatitudeDegrees>40.55513416416943073272705078125</LatitudeDegrees>
              <LongitudeDegrees>-3.661915697157382965087890625</LongitudeDegrees>
            </Position>
            <AltitudeMeters>719.4000244140625</AltitudeMeters>
            <DistanceMeters>NAN</DistanceMeters>
          </Trackpoint>
          <Trackpoint>
            <Time>2020-03-07T18:33:07.000Z</Time>
            <Position>
              <LatitudeDegrees>40.55518026463687419891357421875</LatitudeDegrees>
              <LongitudeDegrees>-3.66193941794335842132568359375</LongitudeDegrees>
            </Position>
            <AltitudeMeters>719.5999755859375</AltitudeMeters>
            <DistanceMeters>NAN</DistanceMeters>
          </Trackpoint>
          <Trackpoint>
            <Time>2020-03-07T18:33:08.000Z</Time>
            <Position>
              <LatitudeDegrees>40.5552296340465545654296875</LatitudeDegrees>
              <LongitudeDegrees>-3.661957941949367523193359375</LongitudeDegrees>
            </Position>
            <AltitudeMeters>719.5999755859375</AltitudeMeters>
            <DistanceMeters>NAN</DistanceMeters>
          </Trackpoint>
          <Trackpoint>
            <Time>2020-03-07T18:33:09.000Z</Time>
            <Position>
              <LatitudeDegrees>40.55528084747493267059326171875</LatitudeDegrees>
              <LongitudeDegrees>-3.661968670785427093505859375</LongitudeDegrees>
            </Position>
            <AltitudeMeters>719.5999755859375</AltitudeMeters>
            <DistanceMeters>NAN</DistanceMeters>
          </Trackpoint>
          <Trackpoint>
            <Time>2020-03-07T18:33:10.000Z</Time>
            <Position>
              <LatitudeDegrees>40.55533113889396190643310546875</LatitudeDegrees>
              <LongitudeDegrees>-3.6619755439460277557373046875</LongitudeDegrees>
            </Position>
            <AltitudeMeters>719.5999755859375</AltitudeMeters>
            <DistanceMeters>NAN</DistanceMeters>
          </Trackpoint>
          <Trackpoint>
            <Time>2020-03-07T18:33:11.000Z</Time>
            <Position>
              <LatitudeDegrees>40.555380843579769134521484375</LatitudeDegrees>
              <LongitudeDegrees>-3.66197277791798114776611328125</LongitudeDegrees>
            </Position>
            <AltitudeMeters>719.5999755859375</AltitudeMeters>
            <DistanceMeters>NAN</DistanceMeters>
          </Trackpoint>
          <Trackpoint>
            <Time>2020-03-07T18:33:12.000Z</Time>
            <Position>
              <LatitudeDegrees>40.55543323047459125518798828125</LatitudeDegrees>
              <LongitudeDegrees>-3.661969006061553955078125</LongitudeDegrees>
            </Position>
            <AltitudeMeters>719.79998779296875</AltitudeMeters>
            <DistanceMeters>NAN</DistanceMeters>
          </Trackpoint>
          <Trackpoint>
            <Time>2020-03-07T18:33:13.000Z</Time>
            <Position>
              <LatitudeDegrees>40.5554882995784282684326171875</LatitudeDegrees>
              <LongitudeDegrees>-3.6619631387293338775634765625</LongitudeDegrees>
            </Position>
            <AltitudeMeters>719.79998779296875</AltitudeMeters>
            <DistanceMeters>NAN</DistanceMeters>
          </Trackpoint>
          <Trackpoint>
            <Time>2020-03-07T18:33:14.000Z</Time>
            <Position>
              <LatitudeDegrees>40.5555466376245021820068359375</LatitudeDegrees>
              <LongitudeDegrees>-3.661955259740352630615234375</LongitudeDegrees>
            </Position>
            <AltitudeMeters>719.79998779296875</AltitudeMeters>
            <DistanceMeters>NAN</DistanceMeters>
          </Trackpoint>
          <Trackpoint>
            <Time>2020-03-07T18:33:15.000Z</Time>
            <Position>
              <LatitudeDegrees>40.55560338310897350311279296875</LatitudeDegrees>
              <LongitudeDegrees>-3.661953918635845184326171875</LongitudeDegrees>
            </Position>
            <AltitudeMeters>719.79998779296875</AltitudeMeters>
            <DistanceMeters>NAN</DistanceMeters>
          </Trackpoint>
          <Trackpoint>
            <Time>2020-03-07T18:33:16.000Z</Time>
            <Position>
              <LatitudeDegrees>40.55565400980412960052490234375</LatitudeDegrees>
              <LongitudeDegrees>-3.66194729693233966827392578125</LongitudeDegrees>
            </Position>
            <AltitudeMeters>719.79998779296875</AltitudeMeters>
            <DistanceMeters>NAN</DistanceMeters>
          </Trackpoint>
          <Trackpoint>
            <Time>2020-03-07T18:33:17.000Z</Time>
            <Position>
              <LatitudeDegrees>40.55571000091731548309326171875</LatitudeDegrees>
              <LongitudeDegrees>-3.66193749010562896728515625</LongitudeDegrees>
            </Position>
            <AltitudeMeters>719.79998779296875</AltitudeMeters>
            <DistanceMeters>NAN</DistanceMeters>
          </Trackpoint>
          <Trackpoint>
            <Time>2020-03-07T18:33:18.000Z</Time>
            <Position>
              <LatitudeDegrees>40.55576532147824764251708984375</LatitudeDegrees>
              <LongitudeDegrees>-3.66193103604018688201904296875</LongitudeDegrees>
            </Position>
            <AltitudeMeters>719.79998779296875</AltitudeMeters>
            <DistanceMeters>NAN</DistanceMeters>
          </Trackpoint>
          <Trackpoint>
            <Time>2020-03-07T18:33:19.000Z</Time>
            <Position>
              <LatitudeDegrees>40.555818714201450347900390625</LatitudeDegrees>
              <LongitudeDegrees>-3.661926090717315673828125</LongitudeDegrees>
            </Position>
            <AltitudeMeters>719.79998779296875</AltitudeMeters>
            <DistanceMeters>NAN</DistanceMeters>
          </Trackpoint>
          <Trackpoint>
            <Time>2020-03-07T18:33:20.000Z</Time>
            <Position>
              <LatitudeDegrees>40.5558651499450206756591796875</LatitudeDegrees>
              <LongitudeDegrees>-3.66193388588726520538330078125</LongitudeDegrees>
            </Position>
            <AltitudeMeters>719.79998779296875</AltitudeMeters>
            <DistanceMeters>NAN</DistanceMeters>
          </Trackpoint>
          <Trackpoint>
            <Time>2020-03-07T18:33:21.000Z</Time>
            <Position>
              <LatitudeDegrees>40.55591158568859100341796875</LatitudeDegrees>
              <LongitudeDegrees>-3.6619353108108043670654296875</LongitudeDegrees>
            </Position>
            <AltitudeMeters>720</AltitudeMeters>
            <DistanceMeters>NAN</DistanceMeters>
          </Trackpoint>
          <Trackpoint>
            <Time>2020-03-07T18:33:22.000Z</Time>
            <Position>
              <LatitudeDegrees>40.5559586919844150543212890625</LatitudeDegrees>
              <LongitudeDegrees>-3.6619426868855953216552734375</LongitudeDegrees>
            </Position>
            <AltitudeMeters>719.79998779296875</AltitudeMeters>
            <DistanceMeters>NAN</DistanceMeters>
          </Trackpoint>
          <Trackpoint>
            <Time>2020-03-07T18:33:23.000Z</Time>
            <Position>
              <LatitudeDegrees>40.55600739084184169769287109375</LatitudeDegrees>
              <LongitudeDegrees>-3.66194277070462703704833984375</LongitudeDegrees>
            </Position>
            <AltitudeMeters>720</AltitudeMeters>
            <DistanceMeters>NAN</DistanceMeters>
          </Trackpoint>
          <Trackpoint>
            <Time>2020-03-07T18:33:24.000Z</Time>
            <Position>
              <LatitudeDegrees>40.556055419147014617919921875</LatitudeDegrees>
              <LongitudeDegrees>-3.6619416810572147369384765625</LongitudeDegrees>
            </Position>
            <AltitudeMeters>720.20001220703125</AltitudeMeters>
            <DistanceMeters>NAN</DistanceMeters>
          </Trackpoint>
          <Trackpoint>
            <Time>2020-03-07T18:33:25.000Z</Time>
            <Position>
              <LatitudeDegrees>40.5561045370995998382568359375</LatitudeDegrees>
              <LongitudeDegrees>-3.6619416810572147369384765625</LongitudeDegrees>
            </Position>
            <AltitudeMeters>720.4000244140625</AltitudeMeters>
            <DistanceMeters>NAN</DistanceMeters>
          </Trackpoint>
          <Trackpoint>
            <Time>2020-03-07T18:33:26.000Z</Time>
            <Position>
              <LatitudeDegrees>40.5561581812798976898193359375</LatitudeDegrees>
              <LongitudeDegrees>-3.66194344125688076019287109375</LongitudeDegrees>
            </Position>
            <AltitudeMeters>720.5999755859375</AltitudeMeters>
            <DistanceMeters>NAN</DistanceMeters>
          </Trackpoint>
          <Trackpoint>
            <Time>2020-03-07T18:33:27.000Z</Time>
            <Position>
              <LatitudeDegrees>40.55620352737605571746826171875</LatitudeDegrees>
              <LongitudeDegrees>-3.66194419562816619873046875</LongitudeDegrees>
            </Position>
            <AltitudeMeters>720.79998779296875</AltitudeMeters>
            <DistanceMeters>NAN</DistanceMeters>
          </Trackpoint>
          <Trackpoint>
            <Time>2020-03-07T18:33:28.000Z</Time>
            <Position>
              <LatitudeDegrees>40.5562513880431652069091796875</LatitudeDegrees>
              <LongitudeDegrees>-3.66194008849561214447021484375</LongitudeDegrees>
            </Position>
            <AltitudeMeters>721</AltitudeMeters>
            <DistanceMeters>NAN</DistanceMeters>
          </Trackpoint>
          <Trackpoint>
            <Time>2020-03-07T18:33:29.000Z</Time>
            <Position>
              <LatitudeDegrees>40.5562929622828960418701171875</LatitudeDegrees>
              <LongitudeDegrees>-3.66192340850830078125</LongitudeDegrees>
            </Position>
            <AltitudeMeters>721</AltitudeMeters>
            <DistanceMeters>NAN</DistanceMeters>
          </Trackpoint>
          <Trackpoint>
            <Time>2020-03-07T18:33:30.000Z</Time>
            <Position>
              <LatitudeDegrees>40.556317605078220367431640625</LatitudeDegrees>
              <LongitudeDegrees>-3.66188242100179195404052734375</LongitudeDegrees>
            </Position>
            <AltitudeMeters>721.20001220703125</AltitudeMeters>
            <DistanceMeters>NAN</DistanceMeters>
          </Trackpoint>
          <Trackpoint>
            <Time>2020-03-07T18:33:31.000Z</Time>
            <Position>
              <LatitudeDegrees>40.5563033558428287506103515625</LatitudeDegrees>
              <LongitudeDegrees>-3.66182358004152774810791015625</LongitudeDegrees>
            </Position>
            <AltitudeMeters>721.4000244140625</AltitudeMeters>
            <DistanceMeters>NAN</DistanceMeters>
          </Trackpoint>
          <Trackpoint>
            <Time>2020-03-07T18:33:32.000Z</Time>
            <Position>
              <LatitudeDegrees>40.55630461312830448150634765625</LatitudeDegrees>
              <LongitudeDegrees>-3.66175635717809200286865234375</LongitudeDegrees>
            </Position>
            <AltitudeMeters>721.79998779296875</AltitudeMeters>
            <DistanceMeters>NAN</DistanceMeters>
          </Trackpoint>
          <Trackpoint>
            <Time>2020-03-07T18:33:33.000Z</Time>
            <Position>
              <LatitudeDegrees>40.55630461312830448150634765625</LatitudeDegrees>
              <LongitudeDegrees>-3.6616885475814342498779296875</LongitudeDegrees>
            </Position>
            <AltitudeMeters>721.79998779296875</AltitudeMeters>
            <DistanceMeters>NAN</DistanceMeters>
          </Trackpoint>
          <Trackpoint>
            <Time>2020-03-07T18:33:34.000Z</Time>
            <Position>
              <LatitudeDegrees>40.55630578659474849700927734375</LatitudeDegrees>
              <LongitudeDegrees>-3.661617971956729888916015625</LongitudeDegrees>
            </Position>
            <AltitudeMeters>722</AltitudeMeters>
            <DistanceMeters>NAN</DistanceMeters>
          </Trackpoint>
          <Trackpoint>
            <Time>2020-03-07T18:33:35.000Z</Time>
            <Position>
              <LatitudeDegrees>40.55630595423281192779541015625</LatitudeDegrees>
              <LongitudeDegrees>-3.6615530960261821746826171875</LongitudeDegrees>
            </Position>
            <AltitudeMeters>722</AltitudeMeters>
            <DistanceMeters>NAN</DistanceMeters>
          </Trackpoint>
          <Trackpoint>
            <Time>2020-03-07T18:33:36.000Z</Time>
            <Position>
              <LatitudeDegrees>40.55630276910960674285888671875</LatitudeDegrees>
              <LongitudeDegrees>-3.6614897288382053375244140625</LongitudeDegrees>
            </Position>
            <AltitudeMeters>722</AltitudeMeters>
            <DistanceMeters>NAN</DistanceMeters>
          </Trackpoint>
          <Trackpoint>
            <Time>2020-03-07T18:33:37.000Z</Time>
            <Position>
              <LatitudeDegrees>40.55630343966186046600341796875</LatitudeDegrees>
              <LongitudeDegrees>-3.661420829594135284423828125</LongitudeDegrees>
            </Position>
            <AltitudeMeters>722</AltitudeMeters>
            <DistanceMeters>NAN</DistanceMeters>
          </Trackpoint>
          <Trackpoint>
            <Time>2020-03-07T18:33:38.000Z</Time>
            <Position>
              <LatitudeDegrees>40.55630092509090900421142578125</LatitudeDegrees>
              <LongitudeDegrees>-3.66135067306458950042724609375</LongitudeDegrees>
            </Position>
            <AltitudeMeters>722.20001220703125</AltitudeMeters>
            <DistanceMeters>NAN</DistanceMeters>
          </Trackpoint>
          <Trackpoint>
            <Time>2020-03-07T18:33:39.000Z</Time>
            <Position>
              <LatitudeDegrees>40.556294806301593780517578125</LatitudeDegrees>
              <LongitudeDegrees>-3.66127842105925083160400390625</LongitudeDegrees>
            </Position>
            <AltitudeMeters>722.20001220703125</AltitudeMeters>
            <DistanceMeters>NAN</DistanceMeters>
          </Trackpoint>
          <Trackpoint>
            <Time>2020-03-07T18:33:40.000Z</Time>
            <Position>
              <LatitudeDegrees>40.556292124092578887939453125</LatitudeDegrees>
              <LongitudeDegrees>-3.6612017266452312469482421875</LongitudeDegrees>
            </Position>
            <AltitudeMeters>722.20001220703125</AltitudeMeters>
            <DistanceMeters>NAN</DistanceMeters>
          </Trackpoint>
          <Trackpoint>
            <Time>2020-03-07T18:33:41.000Z</Time>
            <Position>
              <LatitudeDegrees>40.556284748017787933349609375</LatitudeDegrees>
              <LongitudeDegrees>-3.66112167946994304656982421875</LongitudeDegrees>
            </Position>
            <AltitudeMeters>722.20001220703125</AltitudeMeters>
            <DistanceMeters>NAN</DistanceMeters>
          </Trackpoint>
          <Trackpoint>
            <Time>2020-03-07T18:33:42.000Z</Time>
            <Position>
              <LatitudeDegrees>40.5562812276184558868408203125</LatitudeDegrees>
              <LongitudeDegrees>-3.6610396206378936767578125</LongitudeDegrees>
            </Position>
            <AltitudeMeters>722.20001220703125</AltitudeMeters>
            <DistanceMeters>NAN</DistanceMeters>
          </Trackpoint>
          <Trackpoint>
            <Time>2020-03-07T18:33:43.000Z</Time>
            <Position>
              <LatitudeDegrees>40.55627846159040927886962890625</LatitudeDegrees>
              <LongitudeDegrees>-3.6609526164829730987548828125</LongitudeDegrees>
            </Position>
            <AltitudeMeters>722.20001220703125</AltitudeMeters>
            <DistanceMeters>NAN</DistanceMeters>
          </Trackpoint>
          <Trackpoint>
            <Time>2020-03-07T18:33:44.000Z</Time>
            <Position>
              <LatitudeDegrees>40.5562761984765529632568359375</LatitudeDegrees>
              <LongitudeDegrees>-3.660866953432559967041015625</LongitudeDegrees>
            </Position>
            <AltitudeMeters>722.20001220703125</AltitudeMeters>
            <DistanceMeters>NAN</DistanceMeters>
          </Trackpoint>
          <Trackpoint>
            <Time>2020-03-07T18:33:45.000Z</Time>
            <Position>
              <LatitudeDegrees>40.55627427063882350921630859375</LatitudeDegrees>
              <LongitudeDegrees>-3.6607772670686244964599609375</LongitudeDegrees>
            </Position>
            <AltitudeMeters>722</AltitudeMeters>
            <DistanceMeters>NAN</DistanceMeters>
          </Trackpoint>
          <Trackpoint>
            <Time>2020-03-07T18:33:46.000Z</Time>
            <Position>
              <LatitudeDegrees>40.556269995868206024169921875</LatitudeDegrees>
              <LongitudeDegrees>-3.6606904305517673492431640625</LongitudeDegrees>
            </Position>
            <AltitudeMeters>721.79998779296875</AltitudeMeters>
            <DistanceMeters>NAN</DistanceMeters>
          </Trackpoint>
          <Trackpoint>
            <Time>2020-03-07T18:33:47.000Z</Time>
            <Position>
              <LatitudeDegrees>40.55626873858273029327392578125</LatitudeDegrees>
              <LongitudeDegrees>-3.66059948690235614776611328125</LongitudeDegrees>
            </Position>
            <AltitudeMeters>721.5999755859375</AltitudeMeters>
            <DistanceMeters>NAN</DistanceMeters>
          </Trackpoint>
          <Trackpoint>
            <Time>2020-03-07T18:33:48.000Z</Time>
            <Position>
              <LatitudeDegrees>40.55626354180276393890380859375</LatitudeDegrees>
              <LongitudeDegrees>-3.66050711832940578460693359375</LongitudeDegrees>
            </Position>
            <AltitudeMeters>721.4000244140625</AltitudeMeters>
            <DistanceMeters>NAN</DistanceMeters>
          </Trackpoint>
          <Trackpoint>
            <Time>2020-03-07T18:33:49.000Z</Time>
            <Position>
              <LatitudeDegrees>40.556258261203765869140625</LatitudeDegrees>
              <LongitudeDegrees>-3.6604185216128826141357421875</LongitudeDegrees>
            </Position>
            <AltitudeMeters>721</AltitudeMeters>
            <DistanceMeters>NAN</DistanceMeters>
          </Trackpoint>
          <Trackpoint>
            <Time>2020-03-07T18:33:50.000Z</Time>
            <Position>
              <LatitudeDegrees>40.55625465698540210723876953125</LatitudeDegrees>
              <LongitudeDegrees>-3.66033243946731090545654296875</LongitudeDegrees>
            </Position>
            <AltitudeMeters>720.5999755859375</AltitudeMeters>
            <DistanceMeters>NAN</DistanceMeters>
          </Trackpoint>
          <Trackpoint>
            <Time>2020-03-07T18:33:51.000Z</Time>
            <Position>
              <LatitudeDegrees>40.5562622845172882080078125</LatitudeDegrees>
              <LongitudeDegrees>-3.66024979390203952789306640625</LongitudeDegrees>
            </Position>
            <AltitudeMeters>720.20001220703125</AltitudeMeters>
            <DistanceMeters>NAN</DistanceMeters>
          </Trackpoint>
          <Trackpoint>
            <Time>2020-03-07T18:33:52.000Z</Time>
            <Position>
              <LatitudeDegrees>40.55626940913498401641845703125</LatitudeDegrees>
              <LongitudeDegrees>-3.66016278974711894989013671875</LongitudeDegrees>
            </Position>
            <AltitudeMeters>720</AltitudeMeters>
            <DistanceMeters>NAN</DistanceMeters>
          </Trackpoint>
          <Trackpoint>
            <Time>2020-03-07T18:33:53.000Z</Time>
            <Position>
              <LatitudeDegrees>40.556275360286235809326171875</LatitudeDegrees>
              <LongitudeDegrees>-3.66007846780121326446533203125</LongitudeDegrees>
            </Position>
            <AltitudeMeters>719.79998779296875</AltitudeMeters>
            <DistanceMeters>NAN</DistanceMeters>
          </Trackpoint>
          <Trackpoint>
            <Time>2020-03-07T18:33:54.000Z</Time>
            <Position>
              <LatitudeDegrees>40.5562758632004261016845703125</LatitudeDegrees>
              <LongitudeDegrees>-3.6600078083574771881103515625</LongitudeDegrees>
            </Position>
            <AltitudeMeters>719.4000244140625</AltitudeMeters>
            <DistanceMeters>NAN</DistanceMeters>
          </Trackpoint>
          <Trackpoint>
            <Time>2020-03-07T18:33:55.000Z</Time>
            <Position>
              <LatitudeDegrees>40.5562718398869037628173828125</LatitudeDegrees>
              <LongitudeDegrees>-3.659965060651302337646484375</LongitudeDegrees>
            </Position>
            <AltitudeMeters>719.20001220703125</AltitudeMeters>
            <DistanceMeters>NAN</DistanceMeters>
          </Trackpoint>
          <Trackpoint>
            <Time>2020-03-07T18:33:56.000Z</Time>
            <Position>
              <LatitudeDegrees>40.55627075023949146270751953125</LatitudeDegrees>
              <LongitudeDegrees>-3.65994955413043498992919921875</LongitudeDegrees>
            </Position>
            <AltitudeMeters>718.79998779296875</AltitudeMeters>
            <DistanceMeters>NAN</DistanceMeters>
          </Trackpoint>
          <Trackpoint>
            <Time>2020-03-07T18:33:57.000Z</Time>
            <Position>
              <LatitudeDegrees>40.556263290345668792724609375</LatitudeDegrees>
              <LongitudeDegrees>-3.65995391272008419036865234375</LongitudeDegrees>
            </Position>
            <AltitudeMeters>718.4000244140625</AltitudeMeters>
            <DistanceMeters>NAN</DistanceMeters>
          </Trackpoint>
        </Track>
      </Lap>
    </Activity>
  </Activities>
</TrainingCenterDatabase>
